<?xml version="1.0" encoding="UTF-8" standalone="no" ?>
<gpx xmlns="http://www.topografix.com/GPX/1/1" xmlns:xsi="http://www.w3.org/2001/XMLSchema-instance" xsi:schemaLocation="http://www.topografix.com/GPX/1/1 http://www.topografix.com/GPX/1/1/gpx.xsd" version="1.1" creator="VisuGPX - https://www.visugpx.com">
  <metadata>
    <name>dodecaudax #12</name>
  </metadata>
  <trk>
    <name><![CDATA[dodecaudax #12]]></name>
    <trkseg>
      <trkpt lat="46.57722" lon="5.74715">
        <ele>537.2</ele>
        <time>2022-02-24T07:01:16Z</time>
      </trkpt>
      <trkpt lat="46.57716" lon="5.74714">
        <ele>537.2</ele>
        <time>2022-02-24T07:01:17Z</time>
      </trkpt>
      <trkpt lat="46.57711" lon="5.74714">
        <ele>537.2</ele>
        <time>2022-02-24T07:01:18Z</time>
      </trkpt>
      <trkpt lat="46.57706" lon="5.74713">
        <ele>537</ele>
        <time>2022-02-24T07:01:19Z</time>
      </trkpt>
      <trkpt lat="46.577" lon="5.74712">
        <ele>537</ele>
        <time>2022-02-24T07:01:20Z</time>
      </trkpt>
      <trkpt lat="46.57694" lon="5.74711">
        <ele>537</ele>
        <time>2022-02-24T07:01:21Z</time>
      </trkpt>
      <trkpt lat="46.57689" lon="5.74711">
        <ele>537</ele>
        <time>2022-02-24T07:01:22Z</time>
      </trkpt>
      <trkpt lat="46.57683" lon="5.7471">
        <ele>537</ele>
        <time>2022-02-24T07:01:23Z</time>
      </trkpt>
      <trkpt lat="46.57678" lon="5.7471">
        <ele>537</ele>
        <time>2022-02-24T07:01:24Z</time>
      </trkpt>
      <trkpt lat="46.57672" lon="5.74709">
        <ele>537</ele>
        <time>2022-02-24T07:01:25Z</time>
      </trkpt>
      <trkpt lat="46.57667" lon="5.74708">
        <ele>537</ele>
        <time>2022-02-24T07:01:26Z</time>
      </trkpt>
      <trkpt lat="46.57661" lon="5.74707">
        <ele>537</ele>
        <time>2022-02-24T07:01:27Z</time>
      </trkpt>
      <trkpt lat="46.57656" lon="5.74707">
        <ele>537</ele>
        <time>2022-02-24T07:01:28Z</time>
      </trkpt>
      <trkpt lat="46.57651" lon="5.74706">
        <ele>537</ele>
        <time>2022-02-24T07:01:29Z</time>
      </trkpt>
      <trkpt lat="46.57646" lon="5.74706">
        <ele>536.8</ele>
        <time>2022-02-24T07:01:30Z</time>
      </trkpt>
      <trkpt lat="46.57641" lon="5.74705">
        <ele>536.8</ele>
        <time>2022-02-24T07:01:31Z</time>
      </trkpt>
      <trkpt lat="46.57636" lon="5.74705">
        <ele>536.8</ele>
        <time>2022-02-24T07:01:32Z</time>
      </trkpt>
      <trkpt lat="46.57631" lon="5.74706">
        <ele>536.8</ele>
        <time>2022-02-24T07:01:33Z</time>
      </trkpt>
      <trkpt lat="46.57626" lon="5.74706">
        <ele>536.8</ele>
        <time>2022-02-24T07:01:34Z</time>
      </trkpt>
      <trkpt lat="46.57621" lon="5.74707">
        <ele>537</ele>
        <time>2022-02-24T07:01:35Z</time>
      </trkpt>
      <trkpt lat="46.57616" lon="5.74708">
        <ele>537</ele>
        <time>2022-02-24T07:01:36Z</time>
      </trkpt>
      <trkpt lat="46.57612" lon="5.74709">
        <ele>537.2</ele>
        <time>2022-02-24T07:01:37Z</time>
      </trkpt>
      <trkpt lat="46.57607" lon="5.7471">
        <ele>537.2</ele>
        <time>2022-02-24T07:01:38Z</time>
      </trkpt>
      <trkpt lat="46.57602" lon="5.74711">
        <ele>537.2</ele>
        <time>2022-02-24T07:01:39Z</time>
      </trkpt>
      <trkpt lat="46.57597" lon="5.74712">
        <ele>537.2</ele>
        <time>2022-02-24T07:01:40Z</time>
      </trkpt>
      <trkpt lat="46.57592" lon="5.74713">
        <ele>537.2</ele>
        <time>2022-02-24T07:01:41Z</time>
      </trkpt>
      <trkpt lat="46.57587" lon="5.74714">
        <ele>537.2</ele>
        <time>2022-02-24T07:01:42Z</time>
      </trkpt>
      <trkpt lat="46.57582" lon="5.74715">
        <ele>537.2</ele>
        <time>2022-02-24T07:01:43Z</time>
      </trkpt>
      <trkpt lat="46.57576" lon="5.74716">
        <ele>537.6</ele>
        <time>2022-02-24T07:01:44Z</time>
      </trkpt>
      <trkpt lat="46.57571" lon="5.74718">
        <ele>537.6</ele>
        <time>2022-02-24T07:01:45Z</time>
      </trkpt>
      <trkpt lat="46.57565" lon="5.74719">
        <ele>537.6</ele>
        <time>2022-02-24T07:01:46Z</time>
      </trkpt>
      <trkpt lat="46.5756" lon="5.7472">
        <ele>537.6</ele>
        <time>2022-02-24T07:01:47Z</time>
      </trkpt>
      <trkpt lat="46.57554" lon="5.74721">
        <ele>537.6</ele>
        <time>2022-02-24T07:01:48Z</time>
      </trkpt>
      <trkpt lat="46.57548" lon="5.74723">
        <ele>537.2</ele>
        <time>2022-02-24T07:01:49Z</time>
      </trkpt>
      <trkpt lat="46.57542" lon="5.74724">
        <ele>537.2</ele>
        <time>2022-02-24T07:01:50Z</time>
      </trkpt>
      <trkpt lat="46.57536" lon="5.74725">
        <ele>537.2</ele>
        <time>2022-02-24T07:01:51Z</time>
      </trkpt>
      <trkpt lat="46.5753" lon="5.74727">
        <ele>536.8</ele>
        <time>2022-02-24T07:01:52Z</time>
      </trkpt>
      <trkpt lat="46.57524" lon="5.74728">
        <ele>536.6</ele>
        <time>2022-02-24T07:01:53Z</time>
      </trkpt>
      <trkpt lat="46.57517" lon="5.74729">
        <ele>536.2</ele>
        <time>2022-02-24T07:01:54Z</time>
      </trkpt>
      <trkpt lat="46.57511" lon="5.74731">
        <ele>536</ele>
        <time>2022-02-24T07:01:55Z</time>
      </trkpt>
      <trkpt lat="46.57504" lon="5.74732">
        <ele>536</ele>
        <time>2022-02-24T07:01:56Z</time>
      </trkpt>
      <trkpt lat="46.57498" lon="5.74734">
        <ele>535.6</ele>
        <time>2022-02-24T07:01:57Z</time>
      </trkpt>
      <trkpt lat="46.57491" lon="5.74735">
        <ele>535.4</ele>
        <time>2022-02-24T07:01:58Z</time>
      </trkpt>
      <trkpt lat="46.57484" lon="5.74736">
        <ele>535</ele>
        <time>2022-02-24T07:01:59Z</time>
      </trkpt>
      <trkpt lat="46.57477" lon="5.74737">
        <ele>534.8</ele>
        <time>2022-02-24T07:02:00Z</time>
      </trkpt>
      <trkpt lat="46.5747" lon="5.74736">
        <ele>534.4</ele>
        <time>2022-02-24T07:02:01Z</time>
      </trkpt>
      <trkpt lat="46.5747" lon="5.74736">
        <ele>534</ele>
        <time>2022-02-24T07:02:02Z</time>
      </trkpt>
      <trkpt lat="46.57463" lon="5.74737">
        <ele>533.8</ele>
        <time>2022-02-24T07:02:03Z</time>
      </trkpt>
      <trkpt lat="46.57457" lon="5.74736">
        <ele>533.4</ele>
        <time>2022-02-24T07:02:04Z</time>
      </trkpt>
      <trkpt lat="46.57451" lon="5.74736">
        <ele>533.2</ele>
        <time>2022-02-24T07:02:05Z</time>
      </trkpt>
      <trkpt lat="46.57445" lon="5.74736">
        <ele>532.8</ele>
        <time>2022-02-24T07:02:06Z</time>
      </trkpt>
      <trkpt lat="46.57439" lon="5.74734">
        <ele>532.4</ele>
        <time>2022-02-24T07:02:07Z</time>
      </trkpt>
      <trkpt lat="46.57434" lon="5.74731">
        <ele>532.2</ele>
        <time>2022-02-24T07:02:08Z</time>
      </trkpt>
      <trkpt lat="46.57431" lon="5.74725">
        <ele>532</ele>
        <time>2022-02-24T07:02:09Z</time>
      </trkpt>
      <trkpt lat="46.57428" lon="5.74718">
        <ele>532</ele>
        <time>2022-02-24T07:02:10Z</time>
      </trkpt>
      <trkpt lat="46.57427" lon="5.74711">
        <ele>532</ele>
        <time>2022-02-24T07:02:11Z</time>
      </trkpt>
      <trkpt lat="46.57426" lon="5.74705">
        <ele>532</ele>
        <time>2022-02-24T07:02:12Z</time>
      </trkpt>
      <trkpt lat="46.57426" lon="5.74699">
        <ele>532</ele>
        <time>2022-02-24T07:02:13Z</time>
      </trkpt>
      <trkpt lat="46.57427" lon="5.74694">
        <ele>532.2</ele>
        <time>2022-02-24T07:02:14Z</time>
      </trkpt>
      <trkpt lat="46.57428" lon="5.7469">
        <ele>532.2</ele>
        <time>2022-02-24T07:02:15Z</time>
      </trkpt>
      <trkpt lat="46.57429" lon="5.74686">
        <ele>532.6</ele>
        <time>2022-02-24T07:02:16Z</time>
      </trkpt>
      <trkpt lat="46.5743" lon="5.74682">
        <ele>533</ele>
        <time>2022-02-24T07:02:17Z</time>
      </trkpt>
      <trkpt lat="46.57432" lon="5.74678">
        <ele>533</ele>
        <time>2022-02-24T07:02:18Z</time>
      </trkpt>
      <trkpt lat="46.57432" lon="5.74673">
        <ele>533.4</ele>
        <time>2022-02-24T07:02:19Z</time>
      </trkpt>
      <trkpt lat="46.57433" lon="5.74668">
        <ele>533.4</ele>
        <time>2022-02-24T07:02:20Z</time>
      </trkpt>
      <trkpt lat="46.57434" lon="5.74663">
        <ele>533.8</ele>
        <time>2022-02-24T07:02:21Z</time>
      </trkpt>
      <trkpt lat="46.57435" lon="5.74659">
        <ele>534</ele>
        <time>2022-02-24T07:02:22Z</time>
      </trkpt>
      <trkpt lat="46.57437" lon="5.74654">
        <ele>534</ele>
        <time>2022-02-24T07:02:23Z</time>
      </trkpt>
      <trkpt lat="46.57438" lon="5.7465">
        <ele>534.4</ele>
        <time>2022-02-24T07:02:24Z</time>
      </trkpt>
      <trkpt lat="46.57439" lon="5.74646">
        <ele>534.6</ele>
        <time>2022-02-24T07:02:25Z</time>
      </trkpt>
      <trkpt lat="46.5744" lon="5.74642">
        <ele>535</ele>
        <time>2022-02-24T07:02:26Z</time>
      </trkpt>
      <trkpt lat="46.57441" lon="5.74637">
        <ele>535.2</ele>
        <time>2022-02-24T07:02:27Z</time>
      </trkpt>
      <trkpt lat="46.57442" lon="5.74633">
        <ele>535.6</ele>
        <time>2022-02-24T07:02:28Z</time>
      </trkpt>
      <trkpt lat="46.57444" lon="5.74629">
        <ele>536</ele>
        <time>2022-02-24T07:02:29Z</time>
      </trkpt>
      <trkpt lat="46.57445" lon="5.74625">
        <ele>536.4</ele>
        <time>2022-02-24T07:02:30Z</time>
      </trkpt>
      <trkpt lat="46.57446" lon="5.74621">
        <ele>536.6</ele>
        <time>2022-02-24T07:02:31Z</time>
      </trkpt>
      <trkpt lat="46.57446" lon="5.74616">
        <ele>537</ele>
        <time>2022-02-24T07:02:32Z</time>
      </trkpt>
      <trkpt lat="46.57446" lon="5.74612">
        <ele>537</ele>
        <time>2022-02-24T07:02:33Z</time>
      </trkpt>
      <trkpt lat="46.57444" lon="5.74607">
        <ele>537.2</ele>
        <time>2022-02-24T07:02:34Z</time>
      </trkpt>
      <trkpt lat="46.57442" lon="5.74603">
        <ele>537.2</ele>
        <time>2022-02-24T07:02:35Z</time>
      </trkpt>
      <trkpt lat="46.57439" lon="5.746">
        <ele>537.6</ele>
        <time>2022-02-24T07:02:36Z</time>
      </trkpt>
      <trkpt lat="46.57437" lon="5.74597">
        <ele>537.8</ele>
        <time>2022-02-24T07:02:37Z</time>
      </trkpt>
      <trkpt lat="46.57434" lon="5.74594">
        <ele>537.8</ele>
        <time>2022-02-24T07:02:38Z</time>
      </trkpt>
      <trkpt lat="46.57431" lon="5.74592">
        <ele>538</ele>
        <time>2022-02-24T07:02:39Z</time>
      </trkpt>
      <trkpt lat="46.57428" lon="5.74589">
        <ele>538.2</ele>
        <time>2022-02-24T07:02:40Z</time>
      </trkpt>
      <trkpt lat="46.57426" lon="5.74587">
        <ele>538.2</ele>
        <time>2022-02-24T07:02:41Z</time>
      </trkpt>
      <trkpt lat="46.57423" lon="5.74584">
        <ele>538.6</ele>
        <time>2022-02-24T07:02:42Z</time>
      </trkpt>
      <trkpt lat="46.5742" lon="5.74581">
        <ele>538.6</ele>
        <time>2022-02-24T07:02:43Z</time>
      </trkpt>
      <trkpt lat="46.57417" lon="5.74578">
        <ele>538.8</ele>
        <time>2022-02-24T07:02:44Z</time>
      </trkpt>
      <trkpt lat="46.57414" lon="5.74575">
        <ele>538.8</ele>
        <time>2022-02-24T07:02:45Z</time>
      </trkpt>
      <trkpt lat="46.57411" lon="5.74572">
        <ele>539.2</ele>
        <time>2022-02-24T07:02:46Z</time>
      </trkpt>
      <trkpt lat="46.57409" lon="5.7457">
        <ele>539.4</ele>
        <time>2022-02-24T07:02:47Z</time>
      </trkpt>
      <trkpt lat="46.57406" lon="5.74567">
        <ele>539.6</ele>
        <time>2022-02-24T07:02:48Z</time>
      </trkpt>
      <trkpt lat="46.57403" lon="5.74563">
        <ele>539.8</ele>
        <time>2022-02-24T07:02:49Z</time>
      </trkpt>
      <trkpt lat="46.57401" lon="5.74561">
        <ele>540.2</ele>
        <time>2022-02-24T07:02:50Z</time>
      </trkpt>
      <trkpt lat="46.57398" lon="5.74558">
        <ele>540.4</ele>
        <time>2022-02-24T07:02:51Z</time>
      </trkpt>
      <trkpt lat="46.57396" lon="5.74556">
        <ele>540.4</ele>
        <time>2022-02-24T07:02:52Z</time>
      </trkpt>
      <trkpt lat="46.57394" lon="5.74553">
        <ele>540.6</ele>
        <time>2022-02-24T07:02:53Z</time>
      </trkpt>
      <trkpt lat="46.57392" lon="5.74551">
        <ele>541</ele>
        <time>2022-02-24T07:02:54Z</time>
      </trkpt>
      <trkpt lat="46.5739" lon="5.74548">
        <ele>541</ele>
        <time>2022-02-24T07:02:55Z</time>
      </trkpt>
      <trkpt lat="46.57388" lon="5.74545">
        <ele>541.4</ele>
        <time>2022-02-24T07:02:56Z</time>
      </trkpt>
      <trkpt lat="46.57386" lon="5.74543">
        <ele>541.6</ele>
        <time>2022-02-24T07:02:57Z</time>
      </trkpt>
      <trkpt lat="46.57383" lon="5.7454">
        <ele>541.6</ele>
        <time>2022-02-24T07:02:58Z</time>
      </trkpt>
      <trkpt lat="46.57381" lon="5.74537">
        <ele>541.8</ele>
        <time>2022-02-24T07:02:59Z</time>
      </trkpt>
      <trkpt lat="46.5738" lon="5.74535">
        <ele>541.8</ele>
        <time>2022-02-24T07:03:00Z</time>
      </trkpt>
      <trkpt lat="46.57379" lon="5.74531">
        <ele>542.2</ele>
        <time>2022-02-24T07:03:01Z</time>
      </trkpt>
      <trkpt lat="46.57378" lon="5.74527">
        <ele>542.4</ele>
        <time>2022-02-24T07:03:02Z</time>
      </trkpt>
      <trkpt lat="46.57379" lon="5.74523">
        <ele>542.8</ele>
        <time>2022-02-24T07:03:03Z</time>
      </trkpt>
      <trkpt lat="46.57379" lon="5.74519">
        <ele>543</ele>
        <time>2022-02-24T07:03:04Z</time>
      </trkpt>
      <trkpt lat="46.5738" lon="5.74515">
        <ele>543.2</ele>
        <time>2022-02-24T07:03:05Z</time>
      </trkpt>
      <trkpt lat="46.57381" lon="5.7451">
        <ele>543.6</ele>
        <time>2022-02-24T07:03:06Z</time>
      </trkpt>
      <trkpt lat="46.57382" lon="5.74506">
        <ele>544</ele>
        <time>2022-02-24T07:03:07Z</time>
      </trkpt>
      <trkpt lat="46.57383" lon="5.74501">
        <ele>544.2</ele>
        <time>2022-02-24T07:03:08Z</time>
      </trkpt>
      <trkpt lat="46.57384" lon="5.74498">
        <ele>544.4</ele>
        <time>2022-02-24T07:03:09Z</time>
      </trkpt>
      <trkpt lat="46.57384" lon="5.74494">
        <ele>544.8</ele>
        <time>2022-02-24T07:03:10Z</time>
      </trkpt>
      <trkpt lat="46.57385" lon="5.7449">
        <ele>545</ele>
        <time>2022-02-24T07:03:11Z</time>
      </trkpt>
      <trkpt lat="46.57386" lon="5.74486">
        <ele>545.2</ele>
        <time>2022-02-24T07:03:12Z</time>
      </trkpt>
      <trkpt lat="46.57386" lon="5.74483">
        <ele>545.6</ele>
        <time>2022-02-24T07:03:13Z</time>
      </trkpt>
      <trkpt lat="46.57387" lon="5.7448">
        <ele>545.8</ele>
        <time>2022-02-24T07:03:14Z</time>
      </trkpt>
      <trkpt lat="46.57387" lon="5.74476">
        <ele>546.2</ele>
        <time>2022-02-24T07:03:15Z</time>
      </trkpt>
      <trkpt lat="46.57388" lon="5.74473">
        <ele>546.4</ele>
        <time>2022-02-24T07:03:16Z</time>
      </trkpt>
      <trkpt lat="46.57389" lon="5.74469">
        <ele>546.6</ele>
        <time>2022-02-24T07:03:17Z</time>
      </trkpt>
      <trkpt lat="46.57389" lon="5.74465">
        <ele>546.8</ele>
        <time>2022-02-24T07:03:18Z</time>
      </trkpt>
      <trkpt lat="46.5739" lon="5.7446">
        <ele>546.8</ele>
        <time>2022-02-24T07:03:19Z</time>
      </trkpt>
      <trkpt lat="46.5739" lon="5.74456">
        <ele>547.2</ele>
        <time>2022-02-24T07:03:20Z</time>
      </trkpt>
      <trkpt lat="46.5739" lon="5.74452">
        <ele>547.4</ele>
        <time>2022-02-24T07:03:21Z</time>
      </trkpt>
      <trkpt lat="46.57391" lon="5.74448">
        <ele>547.4</ele>
        <time>2022-02-24T07:03:22Z</time>
      </trkpt>
      <trkpt lat="46.57391" lon="5.74444">
        <ele>547.8</ele>
        <time>2022-02-24T07:03:23Z</time>
      </trkpt>
      <trkpt lat="46.57391" lon="5.7444">
        <ele>548</ele>
        <time>2022-02-24T07:03:24Z</time>
      </trkpt>
      <trkpt lat="46.57391" lon="5.74435">
        <ele>548.2</ele>
        <time>2022-02-24T07:03:25Z</time>
      </trkpt>
      <trkpt lat="46.57392" lon="5.74431">
        <ele>548.2</ele>
        <time>2022-02-24T07:03:26Z</time>
      </trkpt>
      <trkpt lat="46.57392" lon="5.74427">
        <ele>548.6</ele>
        <time>2022-02-24T07:03:27Z</time>
      </trkpt>
      <trkpt lat="46.57392" lon="5.74423">
        <ele>548.6</ele>
        <time>2022-02-24T07:03:28Z</time>
      </trkpt>
      <trkpt lat="46.57392" lon="5.74419">
        <ele>548.8</ele>
        <time>2022-02-24T07:03:29Z</time>
      </trkpt>
      <trkpt lat="46.57392" lon="5.74414">
        <ele>548.8</ele>
        <time>2022-02-24T07:03:30Z</time>
      </trkpt>
      <trkpt lat="46.57392" lon="5.7441">
        <ele>549</ele>
        <time>2022-02-24T07:03:31Z</time>
      </trkpt>
      <trkpt lat="46.57392" lon="5.74406">
        <ele>549</ele>
        <time>2022-02-24T07:03:32Z</time>
      </trkpt>
      <trkpt lat="46.57392" lon="5.74401">
        <ele>549</ele>
        <time>2022-02-24T07:03:33Z</time>
      </trkpt>
      <trkpt lat="46.57392" lon="5.74396">
        <ele>549</ele>
        <time>2022-02-24T07:03:34Z</time>
      </trkpt>
      <trkpt lat="46.57392" lon="5.74391">
        <ele>549.2</ele>
        <time>2022-02-24T07:03:35Z</time>
      </trkpt>
      <trkpt lat="46.57391" lon="5.74386">
        <ele>549.2</ele>
        <time>2022-02-24T07:03:36Z</time>
      </trkpt>
      <trkpt lat="46.57391" lon="5.7438">
        <ele>549.2</ele>
        <time>2022-02-24T07:03:37Z</time>
      </trkpt>
      <trkpt lat="46.57391" lon="5.74375">
        <ele>549.4</ele>
        <time>2022-02-24T07:03:38Z</time>
      </trkpt>
      <trkpt lat="46.57391" lon="5.74369">
        <ele>549.4</ele>
        <time>2022-02-24T07:03:39Z</time>
      </trkpt>
      <trkpt lat="46.57391" lon="5.74364">
        <ele>549.4</ele>
        <time>2022-02-24T07:03:40Z</time>
      </trkpt>
      <trkpt lat="46.57391" lon="5.74359">
        <ele>549.4</ele>
        <time>2022-02-24T07:03:41Z</time>
      </trkpt>
      <trkpt lat="46.57391" lon="5.74354">
        <ele>549.4</ele>
        <time>2022-02-24T07:03:42Z</time>
      </trkpt>
      <trkpt lat="46.57391" lon="5.74349">
        <ele>549.4</ele>
        <time>2022-02-24T07:03:43Z</time>
      </trkpt>
      <trkpt lat="46.57391" lon="5.74344">
        <ele>549.4</ele>
        <time>2022-02-24T07:03:44Z</time>
      </trkpt>
      <trkpt lat="46.57391" lon="5.74339">
        <ele>549.8</ele>
        <time>2022-02-24T07:03:45Z</time>
      </trkpt>
      <trkpt lat="46.57392" lon="5.74334">
        <ele>549.8</ele>
        <time>2022-02-24T07:03:46Z</time>
      </trkpt>
      <trkpt lat="46.57392" lon="5.74329">
        <ele>549.8</ele>
        <time>2022-02-24T07:03:47Z</time>
      </trkpt>
      <trkpt lat="46.57392" lon="5.74324">
        <ele>550</ele>
        <time>2022-02-24T07:03:48Z</time>
      </trkpt>
      <trkpt lat="46.57393" lon="5.74319">
        <ele>550.4</ele>
        <time>2022-02-24T07:03:49Z</time>
      </trkpt>
      <trkpt lat="46.57393" lon="5.74314">
        <ele>550.4</ele>
        <time>2022-02-24T07:03:50Z</time>
      </trkpt>
      <trkpt lat="46.57394" lon="5.74309">
        <ele>550.8</ele>
        <time>2022-02-24T07:03:51Z</time>
      </trkpt>
      <trkpt lat="46.57394" lon="5.74305">
        <ele>551</ele>
        <time>2022-02-24T07:03:52Z</time>
      </trkpt>
      <trkpt lat="46.57395" lon="5.743">
        <ele>551.4</ele>
        <time>2022-02-24T07:03:53Z</time>
      </trkpt>
      <trkpt lat="46.57395" lon="5.74296">
        <ele>551.4</ele>
        <time>2022-02-24T07:03:54Z</time>
      </trkpt>
      <trkpt lat="46.57396" lon="5.74292">
        <ele>551.6</ele>
        <time>2022-02-24T07:03:55Z</time>
      </trkpt>
      <trkpt lat="46.57396" lon="5.74287">
        <ele>552</ele>
        <time>2022-02-24T07:03:56Z</time>
      </trkpt>
      <trkpt lat="46.57396" lon="5.74282">
        <ele>552.2</ele>
        <time>2022-02-24T07:03:57Z</time>
      </trkpt>
      <trkpt lat="46.57397" lon="5.74277">
        <ele>552.6</ele>
        <time>2022-02-24T07:03:58Z</time>
      </trkpt>
      <trkpt lat="46.57397" lon="5.74273">
        <ele>552.8</ele>
        <time>2022-02-24T07:03:59Z</time>
      </trkpt>
      <trkpt lat="46.57398" lon="5.74268">
        <ele>553</ele>
        <time>2022-02-24T07:04:00Z</time>
      </trkpt>
      <trkpt lat="46.57399" lon="5.74264">
        <ele>553</ele>
        <time>2022-02-24T07:04:01Z</time>
      </trkpt>
      <trkpt lat="46.57399" lon="5.74259">
        <ele>553.2</ele>
        <time>2022-02-24T07:04:02Z</time>
      </trkpt>
      <trkpt lat="46.574" lon="5.74255">
        <ele>553.2</ele>
        <time>2022-02-24T07:04:03Z</time>
      </trkpt>
      <trkpt lat="46.57401" lon="5.7425">
        <ele>553.6</ele>
        <time>2022-02-24T07:04:04Z</time>
      </trkpt>
      <trkpt lat="46.57401" lon="5.74246">
        <ele>553.6</ele>
        <time>2022-02-24T07:04:05Z</time>
      </trkpt>
      <trkpt lat="46.57401" lon="5.74241">
        <ele>553.8</ele>
        <time>2022-02-24T07:04:06Z</time>
      </trkpt>
      <trkpt lat="46.57402" lon="5.74237">
        <ele>553.8</ele>
        <time>2022-02-24T07:04:07Z</time>
      </trkpt>
      <trkpt lat="46.57402" lon="5.74232">
        <ele>554.2</ele>
        <time>2022-02-24T07:04:08Z</time>
      </trkpt>
      <trkpt lat="46.57403" lon="5.74228">
        <ele>554.2</ele>
        <time>2022-02-24T07:04:09Z</time>
      </trkpt>
      <trkpt lat="46.57403" lon="5.74224">
        <ele>554.6</ele>
        <time>2022-02-24T07:04:10Z</time>
      </trkpt>
      <trkpt lat="46.57404" lon="5.74219">
        <ele>554.6</ele>
        <time>2022-02-24T07:04:11Z</time>
      </trkpt>
      <trkpt lat="46.57405" lon="5.74215">
        <ele>554.8</ele>
        <time>2022-02-24T07:04:12Z</time>
      </trkpt>
      <trkpt lat="46.57406" lon="5.7421">
        <ele>554.8</ele>
        <time>2022-02-24T07:04:13Z</time>
      </trkpt>
      <trkpt lat="46.57406" lon="5.74206">
        <ele>555.2</ele>
        <time>2022-02-24T07:04:14Z</time>
      </trkpt>
      <trkpt lat="46.57407" lon="5.74201">
        <ele>555.4</ele>
        <time>2022-02-24T07:04:15Z</time>
      </trkpt>
      <trkpt lat="46.57408" lon="5.74196">
        <ele>555.4</ele>
        <time>2022-02-24T07:04:16Z</time>
      </trkpt>
      <trkpt lat="46.57408" lon="5.74192">
        <ele>555.8</ele>
        <time>2022-02-24T07:04:17Z</time>
      </trkpt>
      <trkpt lat="46.57409" lon="5.74187">
        <ele>555.8</ele>
        <time>2022-02-24T07:04:18Z</time>
      </trkpt>
      <trkpt lat="46.5741" lon="5.74182">
        <ele>556</ele>
        <time>2022-02-24T07:04:19Z</time>
      </trkpt>
      <trkpt lat="46.57411" lon="5.74178">
        <ele>556</ele>
        <time>2022-02-24T07:04:20Z</time>
      </trkpt>
      <trkpt lat="46.57412" lon="5.74173">
        <ele>556</ele>
        <time>2022-02-24T07:04:21Z</time>
      </trkpt>
      <trkpt lat="46.57413" lon="5.74168">
        <ele>556.4</ele>
        <time>2022-02-24T07:04:22Z</time>
      </trkpt>
      <trkpt lat="46.57415" lon="5.74163">
        <ele>556.4</ele>
        <time>2022-02-24T07:04:23Z</time>
      </trkpt>
      <trkpt lat="46.57416" lon="5.74159">
        <ele>556.6</ele>
        <time>2022-02-24T07:04:24Z</time>
      </trkpt>
      <trkpt lat="46.57418" lon="5.74155">
        <ele>556.6</ele>
        <time>2022-02-24T07:04:25Z</time>
      </trkpt>
      <trkpt lat="46.5742" lon="5.74151">
        <ele>557</ele>
        <time>2022-02-24T07:04:26Z</time>
      </trkpt>
      <trkpt lat="46.57421" lon="5.74146">
        <ele>557</ele>
        <time>2022-02-24T07:04:27Z</time>
      </trkpt>
      <trkpt lat="46.57423" lon="5.74142">
        <ele>557.2</ele>
        <time>2022-02-24T07:04:28Z</time>
      </trkpt>
      <trkpt lat="46.57425" lon="5.74138">
        <ele>557.2</ele>
        <time>2022-02-24T07:04:29Z</time>
      </trkpt>
      <trkpt lat="46.57427" lon="5.74133">
        <ele>557.4</ele>
        <time>2022-02-24T07:04:30Z</time>
      </trkpt>
      <trkpt lat="46.57429" lon="5.74129">
        <ele>557.4</ele>
        <time>2022-02-24T07:04:31Z</time>
      </trkpt>
      <trkpt lat="46.57431" lon="5.74125">
        <ele>557.6</ele>
        <time>2022-02-24T07:04:32Z</time>
      </trkpt>
      <trkpt lat="46.57433" lon="5.74121">
        <ele>558</ele>
        <time>2022-02-24T07:04:33Z</time>
      </trkpt>
      <trkpt lat="46.57435" lon="5.74117">
        <ele>558.2</ele>
        <time>2022-02-24T07:04:34Z</time>
      </trkpt>
      <trkpt lat="46.57438" lon="5.74113">
        <ele>558.2</ele>
        <time>2022-02-24T07:04:35Z</time>
      </trkpt>
      <trkpt lat="46.5744" lon="5.74109">
        <ele>558.4</ele>
        <time>2022-02-24T07:04:36Z</time>
      </trkpt>
      <trkpt lat="46.57443" lon="5.74106">
        <ele>558.4</ele>
        <time>2022-02-24T07:04:37Z</time>
      </trkpt>
      <trkpt lat="46.57446" lon="5.74102">
        <ele>558.8</ele>
        <time>2022-02-24T07:04:38Z</time>
      </trkpt>
      <trkpt lat="46.57448" lon="5.74098">
        <ele>558.8</ele>
        <time>2022-02-24T07:04:39Z</time>
      </trkpt>
      <trkpt lat="46.57451" lon="5.74095">
        <ele>559.2</ele>
        <time>2022-02-24T07:04:40Z</time>
      </trkpt>
      <trkpt lat="46.57453" lon="5.74091">
        <ele>559.4</ele>
        <time>2022-02-24T07:04:41Z</time>
      </trkpt>
      <trkpt lat="46.57456" lon="5.74087">
        <ele>559.4</ele>
        <time>2022-02-24T07:04:42Z</time>
      </trkpt>
      <trkpt lat="46.57458" lon="5.74084">
        <ele>559.8</ele>
        <time>2022-02-24T07:04:43Z</time>
      </trkpt>
      <trkpt lat="46.57461" lon="5.74081">
        <ele>560.2</ele>
        <time>2022-02-24T07:04:44Z</time>
      </trkpt>
      <trkpt lat="46.57464" lon="5.74077">
        <ele>560.4</ele>
        <time>2022-02-24T07:04:45Z</time>
      </trkpt>
      <trkpt lat="46.57467" lon="5.74074">
        <ele>560.6</ele>
        <time>2022-02-24T07:04:46Z</time>
      </trkpt>
      <trkpt lat="46.5747" lon="5.74071">
        <ele>560.6</ele>
        <time>2022-02-24T07:04:47Z</time>
      </trkpt>
      <trkpt lat="46.57475" lon="5.74065">
        <ele>561</ele>
        <time>2022-02-24T07:04:48Z</time>
      </trkpt>
      <trkpt lat="46.57478" lon="5.74061">
        <ele>561</ele>
        <time>2022-02-24T07:04:49Z</time>
      </trkpt>
      <trkpt lat="46.5748" lon="5.74058">
        <ele>561.2</ele>
        <time>2022-02-24T07:04:50Z</time>
      </trkpt>
      <trkpt lat="46.57483" lon="5.74054">
        <ele>561.2</ele>
        <time>2022-02-24T07:04:51Z</time>
      </trkpt>
      <trkpt lat="46.57486" lon="5.74051">
        <ele>561.6</ele>
        <time>2022-02-24T07:04:52Z</time>
      </trkpt>
      <trkpt lat="46.57489" lon="5.74048">
        <ele>561.6</ele>
        <time>2022-02-24T07:04:53Z</time>
      </trkpt>
      <trkpt lat="46.57491" lon="5.74045">
        <ele>561.8</ele>
        <time>2022-02-24T07:04:54Z</time>
      </trkpt>
      <trkpt lat="46.57494" lon="5.74041">
        <ele>561.8</ele>
        <time>2022-02-24T07:04:55Z</time>
      </trkpt>
      <trkpt lat="46.57497" lon="5.74038">
        <ele>561.8</ele>
        <time>2022-02-24T07:04:56Z</time>
      </trkpt>
      <trkpt lat="46.575" lon="5.74034">
        <ele>562.2</ele>
        <time>2022-02-24T07:04:57Z</time>
      </trkpt>
      <trkpt lat="46.57503" lon="5.74031">
        <ele>562.2</ele>
        <time>2022-02-24T07:04:58Z</time>
      </trkpt>
      <trkpt lat="46.57506" lon="5.74028">
        <ele>562.4</ele>
        <time>2022-02-24T07:04:59Z</time>
      </trkpt>
      <trkpt lat="46.57509" lon="5.74024">
        <ele>562.4</ele>
        <time>2022-02-24T07:05:00Z</time>
      </trkpt>
      <trkpt lat="46.57511" lon="5.74021">
        <ele>562.8</ele>
        <time>2022-02-24T07:05:01Z</time>
      </trkpt>
      <trkpt lat="46.57514" lon="5.74017">
        <ele>562.8</ele>
        <time>2022-02-24T07:05:02Z</time>
      </trkpt>
      <trkpt lat="46.57517" lon="5.74014">
        <ele>562.8</ele>
        <time>2022-02-24T07:05:03Z</time>
      </trkpt>
      <trkpt lat="46.57519" lon="5.7401">
        <ele>563</ele>
        <time>2022-02-24T07:05:04Z</time>
      </trkpt>
      <trkpt lat="46.57522" lon="5.74007">
        <ele>563</ele>
        <time>2022-02-24T07:05:05Z</time>
      </trkpt>
      <trkpt lat="46.57525" lon="5.74004">
        <ele>563</ele>
        <time>2022-02-24T07:05:06Z</time>
      </trkpt>
      <trkpt lat="46.57527" lon="5.74">
        <ele>563.2</ele>
        <time>2022-02-24T07:05:07Z</time>
      </trkpt>
      <trkpt lat="46.5753" lon="5.73997">
        <ele>563.2</ele>
        <time>2022-02-24T07:05:08Z</time>
      </trkpt>
      <trkpt lat="46.57533" lon="5.73993">
        <ele>563.2</ele>
        <time>2022-02-24T07:05:09Z</time>
      </trkpt>
      <trkpt lat="46.57536" lon="5.7399">
        <ele>563.2</ele>
        <time>2022-02-24T07:05:10Z</time>
      </trkpt>
      <trkpt lat="46.57539" lon="5.73986">
        <ele>563.2</ele>
        <time>2022-02-24T07:05:11Z</time>
      </trkpt>
      <trkpt lat="46.57542" lon="5.73983">
        <ele>563.2</ele>
        <time>2022-02-24T07:05:12Z</time>
      </trkpt>
      <trkpt lat="46.57546" lon="5.73979">
        <ele>563.2</ele>
        <time>2022-02-24T07:05:13Z</time>
      </trkpt>
      <trkpt lat="46.57549" lon="5.73974">
        <ele>563.2</ele>
        <time>2022-02-24T07:05:14Z</time>
      </trkpt>
      <trkpt lat="46.57553" lon="5.7397">
        <ele>562.8</ele>
        <time>2022-02-24T07:05:15Z</time>
      </trkpt>
      <trkpt lat="46.57556" lon="5.73964">
        <ele>562.6</ele>
        <time>2022-02-24T07:05:16Z</time>
      </trkpt>
      <trkpt lat="46.57561" lon="5.73959">
        <ele>562.2</ele>
        <time>2022-02-24T07:05:17Z</time>
      </trkpt>
      <trkpt lat="46.57565" lon="5.73953">
        <ele>561.8</ele>
        <time>2022-02-24T07:05:18Z</time>
      </trkpt>
      <trkpt lat="46.5757" lon="5.73946">
        <ele>561.4</ele>
        <time>2022-02-24T07:05:19Z</time>
      </trkpt>
      <trkpt lat="46.57576" lon="5.73939">
        <ele>561</ele>
        <time>2022-02-24T07:05:20Z</time>
      </trkpt>
      <trkpt lat="46.57581" lon="5.73931">
        <ele>560.6</ele>
        <time>2022-02-24T07:05:21Z</time>
      </trkpt>
      <trkpt lat="46.57587" lon="5.73924">
        <ele>560</ele>
        <time>2022-02-24T07:05:22Z</time>
      </trkpt>
      <trkpt lat="46.57593" lon="5.73916">
        <ele>559.4</ele>
        <time>2022-02-24T07:05:23Z</time>
      </trkpt>
      <trkpt lat="46.576" lon="5.73907">
        <ele>558.8</ele>
        <time>2022-02-24T07:05:24Z</time>
      </trkpt>
      <trkpt lat="46.57606" lon="5.73899">
        <ele>558.4</ele>
        <time>2022-02-24T07:05:25Z</time>
      </trkpt>
      <trkpt lat="46.57613" lon="5.73889">
        <ele>557.8</ele>
        <time>2022-02-24T07:05:26Z</time>
      </trkpt>
      <trkpt lat="46.5762" lon="5.73879">
        <ele>557.2</ele>
        <time>2022-02-24T07:05:27Z</time>
      </trkpt>
      <trkpt lat="46.57628" lon="5.73869">
        <ele>556.8</ele>
        <time>2022-02-24T07:05:28Z</time>
      </trkpt>
      <trkpt lat="46.57635" lon="5.73859">
        <ele>556.2</ele>
        <time>2022-02-24T07:05:29Z</time>
      </trkpt>
      <trkpt lat="46.57642" lon="5.7385">
        <ele>555.6</ele>
        <time>2022-02-24T07:05:30Z</time>
      </trkpt>
      <trkpt lat="46.5765" lon="5.7384">
        <ele>555.2</ele>
        <time>2022-02-24T07:05:31Z</time>
      </trkpt>
      <trkpt lat="46.57658" lon="5.73832">
        <ele>554.4</ele>
        <time>2022-02-24T07:05:32Z</time>
      </trkpt>
      <trkpt lat="46.57666" lon="5.73823">
        <ele>553.6</ele>
        <time>2022-02-24T07:05:33Z</time>
      </trkpt>
      <trkpt lat="46.57675" lon="5.73814">
        <ele>552.8</ele>
        <time>2022-02-24T07:05:34Z</time>
      </trkpt>
      <trkpt lat="46.57684" lon="5.73806">
        <ele>552</ele>
        <time>2022-02-24T07:05:35Z</time>
      </trkpt>
      <trkpt lat="46.57694" lon="5.73798">
        <ele>551.2</ele>
        <time>2022-02-24T07:05:36Z</time>
      </trkpt>
      <trkpt lat="46.57704" lon="5.73789">
        <ele>550.6</ele>
        <time>2022-02-24T07:05:37Z</time>
      </trkpt>
      <trkpt lat="46.57713" lon="5.73781">
        <ele>549.8</ele>
        <time>2022-02-24T07:05:38Z</time>
      </trkpt>
      <trkpt lat="46.57724" lon="5.73772">
        <ele>549</ele>
        <time>2022-02-24T07:05:39Z</time>
      </trkpt>
      <trkpt lat="46.57733" lon="5.73762">
        <ele>548.4</ele>
        <time>2022-02-24T07:05:40Z</time>
      </trkpt>
      <trkpt lat="46.57742" lon="5.73751">
        <ele>547.8</ele>
        <time>2022-02-24T07:05:41Z</time>
      </trkpt>
      <trkpt lat="46.5775" lon="5.73737">
        <ele>547</ele>
        <time>2022-02-24T07:05:42Z</time>
      </trkpt>
      <trkpt lat="46.57757" lon="5.73724">
        <ele>546.2</ele>
        <time>2022-02-24T07:05:43Z</time>
      </trkpt>
      <trkpt lat="46.57763" lon="5.73708">
        <ele>545.4</ele>
        <time>2022-02-24T07:05:44Z</time>
      </trkpt>
      <trkpt lat="46.57768" lon="5.73692">
        <ele>544.6</ele>
        <time>2022-02-24T07:05:45Z</time>
      </trkpt>
      <trkpt lat="46.57773" lon="5.73676">
        <ele>543.6</ele>
        <time>2022-02-24T07:05:46Z</time>
      </trkpt>
      <trkpt lat="46.57778" lon="5.7366">
        <ele>542.6</ele>
        <time>2022-02-24T07:05:47Z</time>
      </trkpt>
      <trkpt lat="46.57784" lon="5.73644">
        <ele>541.6</ele>
        <time>2022-02-24T07:05:48Z</time>
      </trkpt>
      <trkpt lat="46.5779" lon="5.73627">
        <ele>540.8</ele>
        <time>2022-02-24T07:05:49Z</time>
      </trkpt>
      <trkpt lat="46.57795" lon="5.73611">
        <ele>539.6</ele>
        <time>2022-02-24T07:05:50Z</time>
      </trkpt>
      <trkpt lat="46.57801" lon="5.73593">
        <ele>538.4</ele>
        <time>2022-02-24T07:05:51Z</time>
      </trkpt>
      <trkpt lat="46.57808" lon="5.73576">
        <ele>537.2</ele>
        <time>2022-02-24T07:05:52Z</time>
      </trkpt>
      <trkpt lat="46.57814" lon="5.73559">
        <ele>536</ele>
        <time>2022-02-24T07:05:53Z</time>
      </trkpt>
      <trkpt lat="46.57823" lon="5.73543">
        <ele>535</ele>
        <time>2022-02-24T07:05:54Z</time>
      </trkpt>
      <trkpt lat="46.57832" lon="5.73527">
        <ele>533.4</ele>
        <time>2022-02-24T07:05:55Z</time>
      </trkpt>
      <trkpt lat="46.57841" lon="5.73511">
        <ele>532.2</ele>
        <time>2022-02-24T07:05:56Z</time>
      </trkpt>
      <trkpt lat="46.57851" lon="5.73495">
        <ele>530.8</ele>
        <time>2022-02-24T07:05:57Z</time>
      </trkpt>
      <trkpt lat="46.57861" lon="5.73478">
        <ele>529.2</ele>
        <time>2022-02-24T07:05:58Z</time>
      </trkpt>
      <trkpt lat="46.57871" lon="5.73462">
        <ele>527.8</ele>
        <time>2022-02-24T07:05:59Z</time>
      </trkpt>
      <trkpt lat="46.57881" lon="5.73445">
        <ele>526.4</ele>
        <time>2022-02-24T07:06:00Z</time>
      </trkpt>
      <trkpt lat="46.57892" lon="5.73428">
        <ele>525</ele>
        <time>2022-02-24T07:06:01Z</time>
      </trkpt>
      <trkpt lat="46.57901" lon="5.73411">
        <ele>523.6</ele>
        <time>2022-02-24T07:06:02Z</time>
      </trkpt>
      <trkpt lat="46.57911" lon="5.73394">
        <ele>522.2</ele>
        <time>2022-02-24T07:06:03Z</time>
      </trkpt>
      <trkpt lat="46.57921" lon="5.73377">
        <ele>520.8</ele>
        <time>2022-02-24T07:06:04Z</time>
      </trkpt>
      <trkpt lat="46.5793" lon="5.7336">
        <ele>519.6</ele>
        <time>2022-02-24T07:06:05Z</time>
      </trkpt>
      <trkpt lat="46.57939" lon="5.73343">
        <ele>518.6</ele>
        <time>2022-02-24T07:06:06Z</time>
      </trkpt>
      <trkpt lat="46.57947" lon="5.73327">
        <ele>517.8</ele>
        <time>2022-02-24T07:06:07Z</time>
      </trkpt>
      <trkpt lat="46.57956" lon="5.7331">
        <ele>516.8</ele>
        <time>2022-02-24T07:06:08Z</time>
      </trkpt>
      <trkpt lat="46.57964" lon="5.73294">
        <ele>516.2</ele>
        <time>2022-02-24T07:06:09Z</time>
      </trkpt>
      <trkpt lat="46.57972" lon="5.73277">
        <ele>515.4</ele>
        <time>2022-02-24T07:06:10Z</time>
      </trkpt>
      <trkpt lat="46.5798" lon="5.73262">
        <ele>515.4</ele>
        <time>2022-02-24T07:06:11Z</time>
      </trkpt>
      <trkpt lat="46.57987" lon="5.73246">
        <ele>514.8</ele>
        <time>2022-02-24T07:06:12Z</time>
      </trkpt>
      <trkpt lat="46.57994" lon="5.73229">
        <ele>514.2</ele>
        <time>2022-02-24T07:06:13Z</time>
      </trkpt>
      <trkpt lat="46.58" lon="5.73212">
        <ele>513.4</ele>
        <time>2022-02-24T07:06:14Z</time>
      </trkpt>
      <trkpt lat="46.58007" lon="5.73196">
        <ele>512.6</ele>
        <time>2022-02-24T07:06:15Z</time>
      </trkpt>
      <trkpt lat="46.58014" lon="5.73179">
        <ele>511.8</ele>
        <time>2022-02-24T07:06:16Z</time>
      </trkpt>
      <trkpt lat="46.5802" lon="5.73161">
        <ele>510.8</ele>
        <time>2022-02-24T07:06:17Z</time>
      </trkpt>
      <trkpt lat="46.58027" lon="5.73142">
        <ele>509.8</ele>
        <time>2022-02-24T07:06:18Z</time>
      </trkpt>
      <trkpt lat="46.58032" lon="5.73123">
        <ele>508.6</ele>
        <time>2022-02-24T07:06:19Z</time>
      </trkpt>
      <trkpt lat="46.58038" lon="5.73104">
        <ele>507.6</ele>
        <time>2022-02-24T07:06:20Z</time>
      </trkpt>
      <trkpt lat="46.58044" lon="5.73085">
        <ele>506.6</ele>
        <time>2022-02-24T07:06:21Z</time>
      </trkpt>
      <trkpt lat="46.5805" lon="5.73068">
        <ele>505.6</ele>
        <time>2022-02-24T07:06:22Z</time>
      </trkpt>
      <trkpt lat="46.58055" lon="5.7305">
        <ele>504.6</ele>
        <time>2022-02-24T07:06:23Z</time>
      </trkpt>
      <trkpt lat="46.5806" lon="5.73031">
        <ele>503.8</ele>
        <time>2022-02-24T07:06:24Z</time>
      </trkpt>
      <trkpt lat="46.58065" lon="5.73012">
        <ele>502.8</ele>
        <time>2022-02-24T07:06:25Z</time>
      </trkpt>
      <trkpt lat="46.58069" lon="5.72994">
        <ele>502</ele>
        <time>2022-02-24T07:06:26Z</time>
      </trkpt>
      <trkpt lat="46.58073" lon="5.72975">
        <ele>501.2</ele>
        <time>2022-02-24T07:06:27Z</time>
      </trkpt>
      <trkpt lat="46.58077" lon="5.72956">
        <ele>500.4</ele>
        <time>2022-02-24T07:06:28Z</time>
      </trkpt>
      <trkpt lat="46.58082" lon="5.72939">
        <ele>499.6</ele>
        <time>2022-02-24T07:06:29Z</time>
      </trkpt>
      <trkpt lat="46.58086" lon="5.7292">
        <ele>498.8</ele>
        <time>2022-02-24T07:06:30Z</time>
      </trkpt>
      <trkpt lat="46.5809" lon="5.72901">
        <ele>498</ele>
        <time>2022-02-24T07:06:31Z</time>
      </trkpt>
      <trkpt lat="46.58095" lon="5.72883">
        <ele>497.2</ele>
        <time>2022-02-24T07:06:32Z</time>
      </trkpt>
      <trkpt lat="46.58099" lon="5.72866">
        <ele>496.4</ele>
        <time>2022-02-24T07:06:33Z</time>
      </trkpt>
      <trkpt lat="46.58102" lon="5.72849">
        <ele>495.8</ele>
        <time>2022-02-24T07:06:34Z</time>
      </trkpt>
      <trkpt lat="46.58106" lon="5.72832">
        <ele>495.2</ele>
        <time>2022-02-24T07:06:35Z</time>
      </trkpt>
      <trkpt lat="46.58109" lon="5.72814">
        <ele>494.6</ele>
        <time>2022-02-24T07:06:36Z</time>
      </trkpt>
      <trkpt lat="46.58113" lon="5.72796">
        <ele>493.8</ele>
        <time>2022-02-24T07:06:37Z</time>
      </trkpt>
      <trkpt lat="46.58118" lon="5.72779">
        <ele>493</ele>
        <time>2022-02-24T07:06:38Z</time>
      </trkpt>
      <trkpt lat="46.58122" lon="5.72762">
        <ele>492.2</ele>
        <time>2022-02-24T07:06:39Z</time>
      </trkpt>
      <trkpt lat="46.58126" lon="5.72744">
        <ele>491.4</ele>
        <time>2022-02-24T07:06:40Z</time>
      </trkpt>
      <trkpt lat="46.5813" lon="5.72728">
        <ele>490.6</ele>
        <time>2022-02-24T07:06:41Z</time>
      </trkpt>
      <trkpt lat="46.58134" lon="5.7271">
        <ele>490</ele>
        <time>2022-02-24T07:06:42Z</time>
      </trkpt>
      <trkpt lat="46.58138" lon="5.72692">
        <ele>489.2</ele>
        <time>2022-02-24T07:06:43Z</time>
      </trkpt>
      <trkpt lat="46.58142" lon="5.72675">
        <ele>488.6</ele>
        <time>2022-02-24T07:06:44Z</time>
      </trkpt>
      <trkpt lat="46.58147" lon="5.72658">
        <ele>488</ele>
        <time>2022-02-24T07:06:45Z</time>
      </trkpt>
      <trkpt lat="46.58151" lon="5.72642">
        <ele>487.4</ele>
        <time>2022-02-24T07:06:46Z</time>
      </trkpt>
      <trkpt lat="46.58155" lon="5.72626">
        <ele>487</ele>
        <time>2022-02-24T07:06:47Z</time>
      </trkpt>
      <trkpt lat="46.58159" lon="5.72609">
        <ele>486.6</ele>
        <time>2022-02-24T07:06:48Z</time>
      </trkpt>
      <trkpt lat="46.58162" lon="5.72594">
        <ele>486.4</ele>
        <time>2022-02-24T07:06:49Z</time>
      </trkpt>
      <trkpt lat="46.58166" lon="5.72578">
        <ele>486.2</ele>
        <time>2022-02-24T07:06:50Z</time>
      </trkpt>
      <trkpt lat="46.58169" lon="5.72564">
        <ele>486.2</ele>
        <time>2022-02-24T07:06:51Z</time>
      </trkpt>
      <trkpt lat="46.58173" lon="5.72549">
        <ele>486</ele>
        <time>2022-02-24T07:06:52Z</time>
      </trkpt>
      <trkpt lat="46.58176" lon="5.72535">
        <ele>486</ele>
        <time>2022-02-24T07:06:53Z</time>
      </trkpt>
      <trkpt lat="46.5818" lon="5.72521">
        <ele>485.8</ele>
        <time>2022-02-24T07:06:54Z</time>
      </trkpt>
      <trkpt lat="46.58184" lon="5.72507">
        <ele>485.8</ele>
        <time>2022-02-24T07:06:55Z</time>
      </trkpt>
      <trkpt lat="46.58187" lon="5.72493">
        <ele>485.8</ele>
        <time>2022-02-24T07:06:56Z</time>
      </trkpt>
      <trkpt lat="46.5819" lon="5.7248">
        <ele>485.6</ele>
        <time>2022-02-24T07:06:57Z</time>
      </trkpt>
      <trkpt lat="46.58193" lon="5.72467">
        <ele>485.6</ele>
        <time>2022-02-24T07:06:58Z</time>
      </trkpt>
      <trkpt lat="46.58196" lon="5.72454">
        <ele>485.6</ele>
        <time>2022-02-24T07:06:59Z</time>
      </trkpt>
      <trkpt lat="46.58198" lon="5.72442">
        <ele>485.6</ele>
        <time>2022-02-24T07:07:00Z</time>
      </trkpt>
      <trkpt lat="46.58202" lon="5.72429">
        <ele>485.6</ele>
        <time>2022-02-24T07:07:01Z</time>
      </trkpt>
      <trkpt lat="46.58205" lon="5.72418">
        <ele>485.8</ele>
        <time>2022-02-24T07:07:02Z</time>
      </trkpt>
      <trkpt lat="46.58208" lon="5.72406">
        <ele>485.8</ele>
        <time>2022-02-24T07:07:03Z</time>
      </trkpt>
      <trkpt lat="46.58211" lon="5.72396">
        <ele>486</ele>
        <time>2022-02-24T07:07:04Z</time>
      </trkpt>
      <trkpt lat="46.58214" lon="5.72385">
        <ele>486</ele>
        <time>2022-02-24T07:07:05Z</time>
      </trkpt>
      <trkpt lat="46.58216" lon="5.72375">
        <ele>486.4</ele>
        <time>2022-02-24T07:07:06Z</time>
      </trkpt>
      <trkpt lat="46.58219" lon="5.72364">
        <ele>486.4</ele>
        <time>2022-02-24T07:07:07Z</time>
      </trkpt>
      <trkpt lat="46.58221" lon="5.72354">
        <ele>486.4</ele>
        <time>2022-02-24T07:07:08Z</time>
      </trkpt>
      <trkpt lat="46.58224" lon="5.72343">
        <ele>486.4</ele>
        <time>2022-02-24T07:07:09Z</time>
      </trkpt>
      <trkpt lat="46.58227" lon="5.72332">
        <ele>486.4</ele>
        <time>2022-02-24T07:07:10Z</time>
      </trkpt>
      <trkpt lat="46.5823" lon="5.72321">
        <ele>486</ele>
        <time>2022-02-24T07:07:11Z</time>
      </trkpt>
      <trkpt lat="46.58233" lon="5.72309">
        <ele>485.8</ele>
        <time>2022-02-24T07:07:12Z</time>
      </trkpt>
      <trkpt lat="46.58236" lon="5.72297">
        <ele>485.4</ele>
        <time>2022-02-24T07:07:13Z</time>
      </trkpt>
      <trkpt lat="46.58239" lon="5.72284">
        <ele>485</ele>
        <time>2022-02-24T07:07:14Z</time>
      </trkpt>
      <trkpt lat="46.58242" lon="5.7227">
        <ele>484.6</ele>
        <time>2022-02-24T07:07:15Z</time>
      </trkpt>
      <trkpt lat="46.58245" lon="5.72257">
        <ele>484</ele>
        <time>2022-02-24T07:07:16Z</time>
      </trkpt>
      <trkpt lat="46.58248" lon="5.72243">
        <ele>483.4</ele>
        <time>2022-02-24T07:07:17Z</time>
      </trkpt>
      <trkpt lat="46.58252" lon="5.72227">
        <ele>482.8</ele>
        <time>2022-02-24T07:07:18Z</time>
      </trkpt>
      <trkpt lat="46.58256" lon="5.72212">
        <ele>482.2</ele>
        <time>2022-02-24T07:07:19Z</time>
      </trkpt>
      <trkpt lat="46.5826" lon="5.72195">
        <ele>481.2</ele>
        <time>2022-02-24T07:07:20Z</time>
      </trkpt>
      <trkpt lat="46.58263" lon="5.72179">
        <ele>480.4</ele>
        <time>2022-02-24T07:07:21Z</time>
      </trkpt>
      <trkpt lat="46.58267" lon="5.72163">
        <ele>479.4</ele>
        <time>2022-02-24T07:07:22Z</time>
      </trkpt>
      <trkpt lat="46.58271" lon="5.72147">
        <ele>478.6</ele>
        <time>2022-02-24T07:07:23Z</time>
      </trkpt>
      <trkpt lat="46.58275" lon="5.7213">
        <ele>477.6</ele>
        <time>2022-02-24T07:07:24Z</time>
      </trkpt>
      <trkpt lat="46.58279" lon="5.72113">
        <ele>476.8</ele>
        <time>2022-02-24T07:07:25Z</time>
      </trkpt>
      <trkpt lat="46.58282" lon="5.72095">
        <ele>476</ele>
        <time>2022-02-24T07:07:26Z</time>
      </trkpt>
      <trkpt lat="46.58285" lon="5.72078">
        <ele>475.4</ele>
        <time>2022-02-24T07:07:27Z</time>
      </trkpt>
      <trkpt lat="46.58289" lon="5.72062">
        <ele>474.8</ele>
        <time>2022-02-24T07:07:28Z</time>
      </trkpt>
      <trkpt lat="46.58292" lon="5.72045">
        <ele>474.2</ele>
        <time>2022-02-24T07:07:29Z</time>
      </trkpt>
      <trkpt lat="46.58296" lon="5.7203">
        <ele>473.8</ele>
        <time>2022-02-24T07:07:30Z</time>
      </trkpt>
      <trkpt lat="46.58299" lon="5.72014">
        <ele>473.4</ele>
        <time>2022-02-24T07:07:31Z</time>
      </trkpt>
      <trkpt lat="46.58303" lon="5.71999">
        <ele>473.2</ele>
        <time>2022-02-24T07:07:32Z</time>
      </trkpt>
      <trkpt lat="46.58303" lon="5.71999">
        <ele>473</ele>
        <time>2022-02-24T07:07:33Z</time>
      </trkpt>
      <trkpt lat="46.58307" lon="5.71984">
        <ele>472.8</ele>
        <time>2022-02-24T07:07:34Z</time>
      </trkpt>
      <trkpt lat="46.58311" lon="5.7197">
        <ele>472.4</ele>
        <time>2022-02-24T07:07:35Z</time>
      </trkpt>
      <trkpt lat="46.58315" lon="5.71956">
        <ele>472.4</ele>
        <time>2022-02-24T07:07:36Z</time>
      </trkpt>
      <trkpt lat="46.58318" lon="5.71942">
        <ele>472.2</ele>
        <time>2022-02-24T07:07:37Z</time>
      </trkpt>
      <trkpt lat="46.58321" lon="5.71928">
        <ele>472.2</ele>
        <time>2022-02-24T07:07:38Z</time>
      </trkpt>
      <trkpt lat="46.58325" lon="5.71914">
        <ele>471.8</ele>
        <time>2022-02-24T07:07:39Z</time>
      </trkpt>
      <trkpt lat="46.58327" lon="5.71901">
        <ele>471.8</ele>
        <time>2022-02-24T07:07:40Z</time>
      </trkpt>
      <trkpt lat="46.5833" lon="5.71887">
        <ele>471.8</ele>
        <time>2022-02-24T07:07:41Z</time>
      </trkpt>
      <trkpt lat="46.58333" lon="5.71874">
        <ele>471.8</ele>
        <time>2022-02-24T07:07:42Z</time>
      </trkpt>
      <trkpt lat="46.58336" lon="5.71861">
        <ele>471.6</ele>
        <time>2022-02-24T07:07:43Z</time>
      </trkpt>
      <trkpt lat="46.58339" lon="5.71849">
        <ele>471.6</ele>
        <time>2022-02-24T07:07:44Z</time>
      </trkpt>
      <trkpt lat="46.58342" lon="5.71836">
        <ele>471.6</ele>
        <time>2022-02-24T07:07:45Z</time>
      </trkpt>
      <trkpt lat="46.58345" lon="5.71824">
        <ele>471.4</ele>
        <time>2022-02-24T07:07:46Z</time>
      </trkpt>
      <trkpt lat="46.58348" lon="5.71812">
        <ele>471.4</ele>
        <time>2022-02-24T07:07:47Z</time>
      </trkpt>
      <trkpt lat="46.58351" lon="5.718">
        <ele>471.4</ele>
        <time>2022-02-24T07:07:48Z</time>
      </trkpt>
      <trkpt lat="46.58354" lon="5.71788">
        <ele>471.2</ele>
        <time>2022-02-24T07:07:49Z</time>
      </trkpt>
      <trkpt lat="46.58357" lon="5.71776">
        <ele>471.2</ele>
        <time>2022-02-24T07:07:50Z</time>
      </trkpt>
      <trkpt lat="46.5836" lon="5.71763">
        <ele>471</ele>
        <time>2022-02-24T07:07:51Z</time>
      </trkpt>
      <trkpt lat="46.58362" lon="5.71751">
        <ele>471</ele>
        <time>2022-02-24T07:07:52Z</time>
      </trkpt>
      <trkpt lat="46.58365" lon="5.71739">
        <ele>470.8</ele>
        <time>2022-02-24T07:07:53Z</time>
      </trkpt>
      <trkpt lat="46.58367" lon="5.71727">
        <ele>470.8</ele>
        <time>2022-02-24T07:07:54Z</time>
      </trkpt>
      <trkpt lat="46.5837" lon="5.71716">
        <ele>470.4</ele>
        <time>2022-02-24T07:07:55Z</time>
      </trkpt>
      <trkpt lat="46.58373" lon="5.71704">
        <ele>470.4</ele>
        <time>2022-02-24T07:07:56Z</time>
      </trkpt>
      <trkpt lat="46.58376" lon="5.71693">
        <ele>470.4</ele>
        <time>2022-02-24T07:07:57Z</time>
      </trkpt>
      <trkpt lat="46.58379" lon="5.71681">
        <ele>470.2</ele>
        <time>2022-02-24T07:07:58Z</time>
      </trkpt>
      <trkpt lat="46.58382" lon="5.71669">
        <ele>470.2</ele>
        <time>2022-02-24T07:07:59Z</time>
      </trkpt>
      <trkpt lat="46.58384" lon="5.71657">
        <ele>469.8</ele>
        <time>2022-02-24T07:08:00Z</time>
      </trkpt>
      <trkpt lat="46.58387" lon="5.71645">
        <ele>469.8</ele>
        <time>2022-02-24T07:08:01Z</time>
      </trkpt>
      <trkpt lat="46.5839" lon="5.71633">
        <ele>469.4</ele>
        <time>2022-02-24T07:08:02Z</time>
      </trkpt>
      <trkpt lat="46.58392" lon="5.71621">
        <ele>469.4</ele>
        <time>2022-02-24T07:08:03Z</time>
      </trkpt>
      <trkpt lat="46.58395" lon="5.7161">
        <ele>469.2</ele>
        <time>2022-02-24T07:08:04Z</time>
      </trkpt>
      <trkpt lat="46.58398" lon="5.71598">
        <ele>469</ele>
        <time>2022-02-24T07:08:05Z</time>
      </trkpt>
      <trkpt lat="46.58401" lon="5.71588">
        <ele>468.8</ele>
        <time>2022-02-24T07:08:06Z</time>
      </trkpt>
      <trkpt lat="46.58403" lon="5.71577">
        <ele>468.8</ele>
        <time>2022-02-24T07:08:07Z</time>
      </trkpt>
      <trkpt lat="46.58406" lon="5.71566">
        <ele>468.8</ele>
        <time>2022-02-24T07:08:08Z</time>
      </trkpt>
      <trkpt lat="46.58408" lon="5.71555">
        <ele>468.8</ele>
        <time>2022-02-24T07:08:09Z</time>
      </trkpt>
      <trkpt lat="46.58411" lon="5.71545">
        <ele>468.8</ele>
        <time>2022-02-24T07:08:10Z</time>
      </trkpt>
      <trkpt lat="46.58413" lon="5.71534">
        <ele>468.8</ele>
        <time>2022-02-24T07:08:11Z</time>
      </trkpt>
      <trkpt lat="46.58416" lon="5.71524">
        <ele>468.8</ele>
        <time>2022-02-24T07:08:12Z</time>
      </trkpt>
      <trkpt lat="46.58418" lon="5.71514">
        <ele>468.8</ele>
        <time>2022-02-24T07:08:13Z</time>
      </trkpt>
      <trkpt lat="46.58421" lon="5.71505">
        <ele>468.8</ele>
        <time>2022-02-24T07:08:14Z</time>
      </trkpt>
      <trkpt lat="46.58423" lon="5.71495">
        <ele>468.8</ele>
        <time>2022-02-24T07:08:15Z</time>
      </trkpt>
      <trkpt lat="46.58426" lon="5.71485">
        <ele>468.8</ele>
        <time>2022-02-24T07:08:16Z</time>
      </trkpt>
      <trkpt lat="46.58428" lon="5.71475">
        <ele>468.8</ele>
        <time>2022-02-24T07:08:17Z</time>
      </trkpt>
      <trkpt lat="46.58431" lon="5.71465">
        <ele>468.8</ele>
        <time>2022-02-24T07:08:18Z</time>
      </trkpt>
      <trkpt lat="46.58433" lon="5.71454">
        <ele>468.8</ele>
        <time>2022-02-24T07:08:19Z</time>
      </trkpt>
      <trkpt lat="46.58435" lon="5.71444">
        <ele>468.8</ele>
        <time>2022-02-24T07:08:20Z</time>
      </trkpt>
      <trkpt lat="46.58438" lon="5.71434">
        <ele>468.8</ele>
        <time>2022-02-24T07:08:21Z</time>
      </trkpt>
      <trkpt lat="46.5844" lon="5.71424">
        <ele>468.8</ele>
        <time>2022-02-24T07:08:22Z</time>
      </trkpt>
      <trkpt lat="46.58442" lon="5.71414">
        <ele>468.8</ele>
        <time>2022-02-24T07:08:23Z</time>
      </trkpt>
      <trkpt lat="46.58445" lon="5.71404">
        <ele>468.8</ele>
        <time>2022-02-24T07:08:24Z</time>
      </trkpt>
      <trkpt lat="46.58447" lon="5.71394">
        <ele>468.8</ele>
        <time>2022-02-24T07:08:25Z</time>
      </trkpt>
      <trkpt lat="46.5845" lon="5.71383">
        <ele>468.8</ele>
        <time>2022-02-24T07:08:26Z</time>
      </trkpt>
      <trkpt lat="46.58452" lon="5.71373">
        <ele>468.8</ele>
        <time>2022-02-24T07:08:27Z</time>
      </trkpt>
      <trkpt lat="46.58455" lon="5.71363">
        <ele>468.4</ele>
        <time>2022-02-24T07:08:28Z</time>
      </trkpt>
      <trkpt lat="46.58457" lon="5.71352">
        <ele>468.4</ele>
        <time>2022-02-24T07:08:29Z</time>
      </trkpt>
      <trkpt lat="46.5846" lon="5.71342">
        <ele>468.2</ele>
        <time>2022-02-24T07:08:30Z</time>
      </trkpt>
      <trkpt lat="46.58462" lon="5.71331">
        <ele>468.2</ele>
        <time>2022-02-24T07:08:31Z</time>
      </trkpt>
      <trkpt lat="46.58465" lon="5.71321">
        <ele>467.8</ele>
        <time>2022-02-24T07:08:32Z</time>
      </trkpt>
      <trkpt lat="46.58467" lon="5.7131">
        <ele>467.8</ele>
        <time>2022-02-24T07:08:33Z</time>
      </trkpt>
      <trkpt lat="46.5847" lon="5.713">
        <ele>467.6</ele>
        <time>2022-02-24T07:08:34Z</time>
      </trkpt>
      <trkpt lat="46.58472" lon="5.71289">
        <ele>467.6</ele>
        <time>2022-02-24T07:08:35Z</time>
      </trkpt>
      <trkpt lat="46.58475" lon="5.71278">
        <ele>467.4</ele>
        <time>2022-02-24T07:08:36Z</time>
      </trkpt>
      <trkpt lat="46.58477" lon="5.71268">
        <ele>467.4</ele>
        <time>2022-02-24T07:08:37Z</time>
      </trkpt>
      <trkpt lat="46.5848" lon="5.71257">
        <ele>467</ele>
        <time>2022-02-24T07:08:38Z</time>
      </trkpt>
      <trkpt lat="46.58482" lon="5.71246">
        <ele>466.6</ele>
        <time>2022-02-24T07:08:39Z</time>
      </trkpt>
      <trkpt lat="46.58485" lon="5.71234">
        <ele>466.4</ele>
        <time>2022-02-24T07:08:40Z</time>
      </trkpt>
      <trkpt lat="46.58487" lon="5.71223">
        <ele>466</ele>
        <time>2022-02-24T07:08:41Z</time>
      </trkpt>
      <trkpt lat="46.5849" lon="5.71211">
        <ele>465.8</ele>
        <time>2022-02-24T07:08:42Z</time>
      </trkpt>
      <trkpt lat="46.58493" lon="5.71199">
        <ele>465.2</ele>
        <time>2022-02-24T07:08:43Z</time>
      </trkpt>
      <trkpt lat="46.58496" lon="5.71187">
        <ele>464.6</ele>
        <time>2022-02-24T07:08:44Z</time>
      </trkpt>
      <trkpt lat="46.58499" lon="5.71174">
        <ele>464.2</ele>
        <time>2022-02-24T07:08:45Z</time>
      </trkpt>
      <trkpt lat="46.58502" lon="5.71161">
        <ele>463.8</ele>
        <time>2022-02-24T07:08:46Z</time>
      </trkpt>
      <trkpt lat="46.58504" lon="5.71147">
        <ele>463.4</ele>
        <time>2022-02-24T07:08:47Z</time>
      </trkpt>
      <trkpt lat="46.58507" lon="5.71134">
        <ele>463.2</ele>
        <time>2022-02-24T07:08:48Z</time>
      </trkpt>
      <trkpt lat="46.5851" lon="5.71121">
        <ele>463</ele>
        <time>2022-02-24T07:08:49Z</time>
      </trkpt>
      <trkpt lat="46.58513" lon="5.71108">
        <ele>463</ele>
        <time>2022-02-24T07:08:50Z</time>
      </trkpt>
      <trkpt lat="46.58516" lon="5.71096">
        <ele>462.6</ele>
        <time>2022-02-24T07:08:51Z</time>
      </trkpt>
      <trkpt lat="46.58518" lon="5.71084">
        <ele>462.6</ele>
        <time>2022-02-24T07:08:52Z</time>
      </trkpt>
      <trkpt lat="46.5852" lon="5.71072">
        <ele>462.6</ele>
        <time>2022-02-24T07:08:53Z</time>
      </trkpt>
      <trkpt lat="46.58522" lon="5.7106">
        <ele>462.6</ele>
        <time>2022-02-24T07:08:54Z</time>
      </trkpt>
      <trkpt lat="46.58525" lon="5.71049">
        <ele>462.6</ele>
        <time>2022-02-24T07:08:55Z</time>
      </trkpt>
      <trkpt lat="46.58528" lon="5.71039">
        <ele>462.8</ele>
        <time>2022-02-24T07:08:56Z</time>
      </trkpt>
      <trkpt lat="46.5853" lon="5.71028">
        <ele>462.8</ele>
        <time>2022-02-24T07:08:57Z</time>
      </trkpt>
      <trkpt lat="46.58532" lon="5.71018">
        <ele>463.2</ele>
        <time>2022-02-24T07:08:58Z</time>
      </trkpt>
      <trkpt lat="46.58534" lon="5.71008">
        <ele>463.4</ele>
        <time>2022-02-24T07:08:59Z</time>
      </trkpt>
      <trkpt lat="46.58536" lon="5.70999">
        <ele>463.6</ele>
        <time>2022-02-24T07:09:00Z</time>
      </trkpt>
      <trkpt lat="46.58538" lon="5.7099">
        <ele>464</ele>
        <time>2022-02-24T07:09:01Z</time>
      </trkpt>
      <trkpt lat="46.5854" lon="5.70982">
        <ele>464.2</ele>
        <time>2022-02-24T07:09:02Z</time>
      </trkpt>
      <trkpt lat="46.58542" lon="5.70973">
        <ele>464.4</ele>
        <time>2022-02-24T07:09:03Z</time>
      </trkpt>
      <trkpt lat="46.58545" lon="5.70965">
        <ele>464.4</ele>
        <time>2022-02-24T07:09:04Z</time>
      </trkpt>
      <trkpt lat="46.58547" lon="5.70957">
        <ele>464.4</ele>
        <time>2022-02-24T07:09:05Z</time>
      </trkpt>
      <trkpt lat="46.58548" lon="5.70948">
        <ele>464.4</ele>
        <time>2022-02-24T07:09:06Z</time>
      </trkpt>
      <trkpt lat="46.5855" lon="5.70939">
        <ele>464.4</ele>
        <time>2022-02-24T07:09:07Z</time>
      </trkpt>
      <trkpt lat="46.58552" lon="5.7093">
        <ele>464.4</ele>
        <time>2022-02-24T07:09:08Z</time>
      </trkpt>
      <trkpt lat="46.58554" lon="5.70921">
        <ele>464</ele>
        <time>2022-02-24T07:09:09Z</time>
      </trkpt>
      <trkpt lat="46.58557" lon="5.70911">
        <ele>464</ele>
        <time>2022-02-24T07:09:10Z</time>
      </trkpt>
      <trkpt lat="46.58559" lon="5.70902">
        <ele>463.6</ele>
        <time>2022-02-24T07:09:11Z</time>
      </trkpt>
      <trkpt lat="46.58561" lon="5.70892">
        <ele>463.4</ele>
        <time>2022-02-24T07:09:12Z</time>
      </trkpt>
      <trkpt lat="46.58563" lon="5.70881">
        <ele>463.2</ele>
        <time>2022-02-24T07:09:13Z</time>
      </trkpt>
      <trkpt lat="46.58565" lon="5.70871">
        <ele>462.8</ele>
        <time>2022-02-24T07:09:14Z</time>
      </trkpt>
      <trkpt lat="46.58567" lon="5.70861">
        <ele>462.6</ele>
        <time>2022-02-24T07:09:15Z</time>
      </trkpt>
      <trkpt lat="46.5857" lon="5.7085">
        <ele>462.2</ele>
        <time>2022-02-24T07:09:16Z</time>
      </trkpt>
      <trkpt lat="46.58572" lon="5.70839">
        <ele>462</ele>
        <time>2022-02-24T07:09:17Z</time>
      </trkpt>
      <trkpt lat="46.58574" lon="5.70828">
        <ele>461.8</ele>
        <time>2022-02-24T07:09:18Z</time>
      </trkpt>
      <trkpt lat="46.58576" lon="5.70817">
        <ele>461.8</ele>
        <time>2022-02-24T07:09:19Z</time>
      </trkpt>
      <trkpt lat="46.58578" lon="5.70806">
        <ele>461.4</ele>
        <time>2022-02-24T07:09:20Z</time>
      </trkpt>
      <trkpt lat="46.58581" lon="5.70795">
        <ele>461</ele>
        <time>2022-02-24T07:09:21Z</time>
      </trkpt>
      <trkpt lat="46.58583" lon="5.70784">
        <ele>460.8</ele>
        <time>2022-02-24T07:09:22Z</time>
      </trkpt>
      <trkpt lat="46.58585" lon="5.70773">
        <ele>460.6</ele>
        <time>2022-02-24T07:09:23Z</time>
      </trkpt>
      <trkpt lat="46.58588" lon="5.70762">
        <ele>460.6</ele>
        <time>2022-02-24T07:09:24Z</time>
      </trkpt>
      <trkpt lat="46.5859" lon="5.7075">
        <ele>460.4</ele>
        <time>2022-02-24T07:09:25Z</time>
      </trkpt>
      <trkpt lat="46.58592" lon="5.70739">
        <ele>460</ele>
        <time>2022-02-24T07:09:26Z</time>
      </trkpt>
      <trkpt lat="46.58594" lon="5.70727">
        <ele>460</ele>
        <time>2022-02-24T07:09:27Z</time>
      </trkpt>
      <trkpt lat="46.58596" lon="5.70716">
        <ele>459.8</ele>
        <time>2022-02-24T07:09:28Z</time>
      </trkpt>
      <trkpt lat="46.58598" lon="5.70705">
        <ele>459.4</ele>
        <time>2022-02-24T07:09:29Z</time>
      </trkpt>
      <trkpt lat="46.586" lon="5.70694">
        <ele>459.4</ele>
        <time>2022-02-24T07:09:30Z</time>
      </trkpt>
      <trkpt lat="46.58603" lon="5.70684">
        <ele>459.2</ele>
        <time>2022-02-24T07:09:31Z</time>
      </trkpt>
      <trkpt lat="46.58605" lon="5.70673">
        <ele>459.2</ele>
        <time>2022-02-24T07:09:32Z</time>
      </trkpt>
      <trkpt lat="46.58608" lon="5.70663">
        <ele>459</ele>
        <time>2022-02-24T07:09:33Z</time>
      </trkpt>
      <trkpt lat="46.5861" lon="5.70652">
        <ele>459</ele>
        <time>2022-02-24T07:09:34Z</time>
      </trkpt>
      <trkpt lat="46.58612" lon="5.70642">
        <ele>458.6</ele>
        <time>2022-02-24T07:09:35Z</time>
      </trkpt>
      <trkpt lat="46.58614" lon="5.70631">
        <ele>458.4</ele>
        <time>2022-02-24T07:09:36Z</time>
      </trkpt>
      <trkpt lat="46.58615" lon="5.70621">
        <ele>458.2</ele>
        <time>2022-02-24T07:09:37Z</time>
      </trkpt>
      <trkpt lat="46.58617" lon="5.7061">
        <ele>458</ele>
        <time>2022-02-24T07:09:38Z</time>
      </trkpt>
      <trkpt lat="46.58619" lon="5.706">
        <ele>457.8</ele>
        <time>2022-02-24T07:09:39Z</time>
      </trkpt>
      <trkpt lat="46.5862" lon="5.70589">
        <ele>457.4</ele>
        <time>2022-02-24T07:09:40Z</time>
      </trkpt>
      <trkpt lat="46.58621" lon="5.70578">
        <ele>457</ele>
        <time>2022-02-24T07:09:41Z</time>
      </trkpt>
      <trkpt lat="46.58622" lon="5.70566">
        <ele>456.6</ele>
        <time>2022-02-24T07:09:42Z</time>
      </trkpt>
      <trkpt lat="46.58622" lon="5.70554">
        <ele>456.2</ele>
        <time>2022-02-24T07:09:43Z</time>
      </trkpt>
      <trkpt lat="46.58622" lon="5.70542">
        <ele>455.8</ele>
        <time>2022-02-24T07:09:44Z</time>
      </trkpt>
      <trkpt lat="46.58622" lon="5.7053">
        <ele>455.4</ele>
        <time>2022-02-24T07:09:45Z</time>
      </trkpt>
      <trkpt lat="46.58622" lon="5.70518">
        <ele>455</ele>
        <time>2022-02-24T07:09:46Z</time>
      </trkpt>
      <trkpt lat="46.58622" lon="5.70506">
        <ele>454.6</ele>
        <time>2022-02-24T07:09:47Z</time>
      </trkpt>
      <trkpt lat="46.58621" lon="5.70494">
        <ele>454.2</ele>
        <time>2022-02-24T07:09:48Z</time>
      </trkpt>
      <trkpt lat="46.58619" lon="5.70482">
        <ele>453.8</ele>
        <time>2022-02-24T07:09:49Z</time>
      </trkpt>
      <trkpt lat="46.58617" lon="5.70472">
        <ele>453.6</ele>
        <time>2022-02-24T07:09:50Z</time>
      </trkpt>
      <trkpt lat="46.58615" lon="5.70462">
        <ele>453.2</ele>
        <time>2022-02-24T07:09:51Z</time>
      </trkpt>
      <trkpt lat="46.58612" lon="5.70453">
        <ele>452.8</ele>
        <time>2022-02-24T07:09:52Z</time>
      </trkpt>
      <trkpt lat="46.58609" lon="5.70444">
        <ele>452.4</ele>
        <time>2022-02-24T07:09:53Z</time>
      </trkpt>
      <trkpt lat="46.58605" lon="5.70435">
        <ele>451.6</ele>
        <time>2022-02-24T07:09:54Z</time>
      </trkpt>
      <trkpt lat="46.58601" lon="5.70425">
        <ele>451</ele>
        <time>2022-02-24T07:09:55Z</time>
      </trkpt>
      <trkpt lat="46.58596" lon="5.70415">
        <ele>450.4</ele>
        <time>2022-02-24T07:09:56Z</time>
      </trkpt>
      <trkpt lat="46.58591" lon="5.70405">
        <ele>449.8</ele>
        <time>2022-02-24T07:09:57Z</time>
      </trkpt>
      <trkpt lat="46.58587" lon="5.70394">
        <ele>449</ele>
        <time>2022-02-24T07:09:58Z</time>
      </trkpt>
      <trkpt lat="46.58582" lon="5.70383">
        <ele>448.4</ele>
        <time>2022-02-24T07:09:59Z</time>
      </trkpt>
      <trkpt lat="46.58578" lon="5.70373">
        <ele>447.8</ele>
        <time>2022-02-24T07:10:00Z</time>
      </trkpt>
      <trkpt lat="46.58574" lon="5.70364">
        <ele>447</ele>
        <time>2022-02-24T07:10:01Z</time>
      </trkpt>
      <trkpt lat="46.5857" lon="5.70355">
        <ele>447</ele>
        <time>2022-02-24T07:10:02Z</time>
      </trkpt>
      <trkpt lat="46.58566" lon="5.70345">
        <ele>446.4</ele>
        <time>2022-02-24T07:10:03Z</time>
      </trkpt>
      <trkpt lat="46.58562" lon="5.70334">
        <ele>445.8</ele>
        <time>2022-02-24T07:10:04Z</time>
      </trkpt>
      <trkpt lat="46.58558" lon="5.70323">
        <ele>445.2</ele>
        <time>2022-02-24T07:10:05Z</time>
      </trkpt>
      <trkpt lat="46.58554" lon="5.70312">
        <ele>444.4</ele>
        <time>2022-02-24T07:10:06Z</time>
      </trkpt>
      <trkpt lat="46.58552" lon="5.703">
        <ele>443.8</ele>
        <time>2022-02-24T07:10:07Z</time>
      </trkpt>
      <trkpt lat="46.58549" lon="5.70288">
        <ele>443.2</ele>
        <time>2022-02-24T07:10:08Z</time>
      </trkpt>
      <trkpt lat="46.58547" lon="5.70278">
        <ele>442.6</ele>
        <time>2022-02-24T07:10:09Z</time>
      </trkpt>
      <trkpt lat="46.58545" lon="5.70268">
        <ele>442.2</ele>
        <time>2022-02-24T07:10:10Z</time>
      </trkpt>
      <trkpt lat="46.58543" lon="5.70259">
        <ele>441.6</ele>
        <time>2022-02-24T07:10:11Z</time>
      </trkpt>
      <trkpt lat="46.58541" lon="5.7025">
        <ele>440.8</ele>
        <time>2022-02-24T07:10:12Z</time>
      </trkpt>
      <trkpt lat="46.58539" lon="5.70241">
        <ele>440.2</ele>
        <time>2022-02-24T07:10:13Z</time>
      </trkpt>
      <trkpt lat="46.58534" lon="5.70222">
        <ele>439.6</ele>
        <time>2022-02-24T07:10:14Z</time>
      </trkpt>
      <trkpt lat="46.58531" lon="5.70214">
        <ele>439</ele>
        <time>2022-02-24T07:10:15Z</time>
      </trkpt>
      <trkpt lat="46.58529" lon="5.70207">
        <ele>438.6</ele>
        <time>2022-02-24T07:10:16Z</time>
      </trkpt>
      <trkpt lat="46.58528" lon="5.702">
        <ele>438.2</ele>
        <time>2022-02-24T07:10:17Z</time>
      </trkpt>
      <trkpt lat="46.58527" lon="5.70195">
        <ele>437.8</ele>
        <time>2022-02-24T07:10:18Z</time>
      </trkpt>
      <trkpt lat="46.58527" lon="5.70191">
        <ele>437.4</ele>
        <time>2022-02-24T07:10:19Z</time>
      </trkpt>
      <trkpt lat="46.58526" lon="5.70187">
        <ele>437.2</ele>
        <time>2022-02-24T07:10:20Z</time>
      </trkpt>
      <trkpt lat="46.58526" lon="5.70184">
        <ele>436.8</ele>
        <time>2022-02-24T07:10:21Z</time>
      </trkpt>
      <trkpt lat="46.58526" lon="5.70181">
        <ele>436.6</ele>
        <time>2022-02-24T07:10:22Z</time>
      </trkpt>
      <trkpt lat="46.58527" lon="5.70178">
        <ele>436.4</ele>
        <time>2022-02-24T07:10:23Z</time>
      </trkpt>
      <trkpt lat="46.58526" lon="5.70173">
        <ele>436.4</ele>
        <time>2022-02-24T07:10:24Z</time>
      </trkpt>
      <trkpt lat="46.58525" lon="5.70167">
        <ele>436</ele>
        <time>2022-02-24T07:10:25Z</time>
      </trkpt>
      <trkpt lat="46.58523" lon="5.70161">
        <ele>435.8</ele>
        <time>2022-02-24T07:10:26Z</time>
      </trkpt>
      <trkpt lat="46.5852" lon="5.70154">
        <ele>435.6</ele>
        <time>2022-02-24T07:10:27Z</time>
      </trkpt>
      <trkpt lat="46.58518" lon="5.70146">
        <ele>435.2</ele>
        <time>2022-02-24T07:10:28Z</time>
      </trkpt>
      <trkpt lat="46.58516" lon="5.70137">
        <ele>435</ele>
        <time>2022-02-24T07:10:29Z</time>
      </trkpt>
      <trkpt lat="46.58514" lon="5.70128">
        <ele>434.6</ele>
        <time>2022-02-24T07:10:30Z</time>
      </trkpt>
      <trkpt lat="46.58512" lon="5.70119">
        <ele>434.6</ele>
        <time>2022-02-24T07:10:31Z</time>
      </trkpt>
      <trkpt lat="46.58511" lon="5.7011">
        <ele>434.4</ele>
        <time>2022-02-24T07:10:32Z</time>
      </trkpt>
      <trkpt lat="46.58509" lon="5.70101">
        <ele>434.4</ele>
        <time>2022-02-24T07:10:33Z</time>
      </trkpt>
      <trkpt lat="46.58508" lon="5.70092">
        <ele>434.4</ele>
        <time>2022-02-24T07:10:34Z</time>
      </trkpt>
      <trkpt lat="46.58507" lon="5.70084">
        <ele>434.4</ele>
        <time>2022-02-24T07:10:35Z</time>
      </trkpt>
      <trkpt lat="46.58507" lon="5.70075">
        <ele>434.4</ele>
        <time>2022-02-24T07:10:36Z</time>
      </trkpt>
      <trkpt lat="46.58506" lon="5.70066">
        <ele>434.4</ele>
        <time>2022-02-24T07:10:37Z</time>
      </trkpt>
      <trkpt lat="46.58505" lon="5.70058">
        <ele>434.4</ele>
        <time>2022-02-24T07:10:38Z</time>
      </trkpt>
      <trkpt lat="46.58505" lon="5.70049">
        <ele>434.4</ele>
        <time>2022-02-24T07:10:39Z</time>
      </trkpt>
      <trkpt lat="46.58504" lon="5.70041">
        <ele>434.4</ele>
        <time>2022-02-24T07:10:40Z</time>
      </trkpt>
      <trkpt lat="46.58504" lon="5.70032">
        <ele>434.4</ele>
        <time>2022-02-24T07:10:41Z</time>
      </trkpt>
      <trkpt lat="46.58503" lon="5.70024">
        <ele>434.4</ele>
        <time>2022-02-24T07:10:42Z</time>
      </trkpt>
      <trkpt lat="46.58502" lon="5.70014">
        <ele>434.4</ele>
        <time>2022-02-24T07:10:43Z</time>
      </trkpt>
      <trkpt lat="46.58501" lon="5.70004">
        <ele>434.4</ele>
        <time>2022-02-24T07:10:44Z</time>
      </trkpt>
      <trkpt lat="46.58501" lon="5.69994">
        <ele>434</ele>
        <time>2022-02-24T07:10:45Z</time>
      </trkpt>
      <trkpt lat="46.585" lon="5.69984">
        <ele>433.6</ele>
        <time>2022-02-24T07:10:46Z</time>
      </trkpt>
      <trkpt lat="46.585" lon="5.69974">
        <ele>433.2</ele>
        <time>2022-02-24T07:10:47Z</time>
      </trkpt>
      <trkpt lat="46.58499" lon="5.69963">
        <ele>432.8</ele>
        <time>2022-02-24T07:10:48Z</time>
      </trkpt>
      <trkpt lat="46.585" lon="5.69951">
        <ele>432.4</ele>
        <time>2022-02-24T07:10:49Z</time>
      </trkpt>
      <trkpt lat="46.585" lon="5.6994">
        <ele>432.2</ele>
        <time>2022-02-24T07:10:50Z</time>
      </trkpt>
      <trkpt lat="46.58503" lon="5.6993">
        <ele>432.2</ele>
        <time>2022-02-24T07:10:51Z</time>
      </trkpt>
      <trkpt lat="46.58506" lon="5.6992">
        <ele>431.8</ele>
        <time>2022-02-24T07:10:52Z</time>
      </trkpt>
      <trkpt lat="46.58509" lon="5.69911">
        <ele>431.6</ele>
        <time>2022-02-24T07:10:53Z</time>
      </trkpt>
      <trkpt lat="46.58512" lon="5.69901">
        <ele>431.4</ele>
        <time>2022-02-24T07:10:54Z</time>
      </trkpt>
      <trkpt lat="46.58515" lon="5.69892">
        <ele>431.4</ele>
        <time>2022-02-24T07:10:55Z</time>
      </trkpt>
      <trkpt lat="46.58518" lon="5.69883">
        <ele>431.4</ele>
        <time>2022-02-24T07:10:56Z</time>
      </trkpt>
      <trkpt lat="46.58521" lon="5.69874">
        <ele>431</ele>
        <time>2022-02-24T07:10:57Z</time>
      </trkpt>
      <trkpt lat="46.58523" lon="5.69864">
        <ele>431</ele>
        <time>2022-02-24T07:10:58Z</time>
      </trkpt>
      <trkpt lat="46.58526" lon="5.69855">
        <ele>431</ele>
        <time>2022-02-24T07:10:59Z</time>
      </trkpt>
      <trkpt lat="46.58529" lon="5.69846">
        <ele>431</ele>
        <time>2022-02-24T07:11:00Z</time>
      </trkpt>
      <trkpt lat="46.58531" lon="5.69837">
        <ele>431</ele>
        <time>2022-02-24T07:11:01Z</time>
      </trkpt>
      <trkpt lat="46.58534" lon="5.69828">
        <ele>431</ele>
        <time>2022-02-24T07:11:02Z</time>
      </trkpt>
      <trkpt lat="46.58536" lon="5.6982">
        <ele>431</ele>
        <time>2022-02-24T07:11:03Z</time>
      </trkpt>
      <trkpt lat="46.58538" lon="5.69811">
        <ele>431</ele>
        <time>2022-02-24T07:11:04Z</time>
      </trkpt>
      <trkpt lat="46.58541" lon="5.69803">
        <ele>431</ele>
        <time>2022-02-24T07:11:05Z</time>
      </trkpt>
      <trkpt lat="46.58543" lon="5.69795">
        <ele>431</ele>
        <time>2022-02-24T07:11:06Z</time>
      </trkpt>
      <trkpt lat="46.58546" lon="5.69788">
        <ele>431</ele>
        <time>2022-02-24T07:11:07Z</time>
      </trkpt>
      <trkpt lat="46.58548" lon="5.69781">
        <ele>431</ele>
        <time>2022-02-24T07:11:08Z</time>
      </trkpt>
      <trkpt lat="46.5855" lon="5.69774">
        <ele>431</ele>
        <time>2022-02-24T07:11:09Z</time>
      </trkpt>
      <trkpt lat="46.58552" lon="5.69767">
        <ele>431.2</ele>
        <time>2022-02-24T07:11:10Z</time>
      </trkpt>
      <trkpt lat="46.58554" lon="5.6976">
        <ele>431.2</ele>
        <time>2022-02-24T07:11:11Z</time>
      </trkpt>
      <trkpt lat="46.58556" lon="5.69754">
        <ele>431.2</ele>
        <time>2022-02-24T07:11:12Z</time>
      </trkpt>
      <trkpt lat="46.58558" lon="5.69747">
        <ele>431.2</ele>
        <time>2022-02-24T07:11:13Z</time>
      </trkpt>
      <trkpt lat="46.5856" lon="5.6974">
        <ele>431.2</ele>
        <time>2022-02-24T07:11:14Z</time>
      </trkpt>
      <trkpt lat="46.58561" lon="5.69734">
        <ele>431.2</ele>
        <time>2022-02-24T07:11:15Z</time>
      </trkpt>
      <trkpt lat="46.58561" lon="5.69727">
        <ele>431.2</ele>
        <time>2022-02-24T07:11:16Z</time>
      </trkpt>
      <trkpt lat="46.5856" lon="5.6972">
        <ele>431.2</ele>
        <time>2022-02-24T07:11:17Z</time>
      </trkpt>
      <trkpt lat="46.58557" lon="5.69715">
        <ele>431.2</ele>
        <time>2022-02-24T07:11:18Z</time>
      </trkpt>
      <trkpt lat="46.58554" lon="5.6971">
        <ele>431.2</ele>
        <time>2022-02-24T07:11:19Z</time>
      </trkpt>
      <trkpt lat="46.5855" lon="5.69706">
        <ele>431.2</ele>
        <time>2022-02-24T07:11:20Z</time>
      </trkpt>
      <trkpt lat="46.58547" lon="5.69702">
        <ele>431.2</ele>
        <time>2022-02-24T07:11:21Z</time>
      </trkpt>
      <trkpt lat="46.58544" lon="5.69698">
        <ele>431.2</ele>
        <time>2022-02-24T07:11:22Z</time>
      </trkpt>
      <trkpt lat="46.58541" lon="5.69694">
        <ele>431.2</ele>
        <time>2022-02-24T07:11:23Z</time>
      </trkpt>
      <trkpt lat="46.58538" lon="5.69691">
        <ele>431.6</ele>
        <time>2022-02-24T07:11:24Z</time>
      </trkpt>
      <trkpt lat="46.58535" lon="5.69689">
        <ele>431.6</ele>
        <time>2022-02-24T07:11:25Z</time>
      </trkpt>
      <trkpt lat="46.58533" lon="5.69686">
        <ele>431.6</ele>
        <time>2022-02-24T07:11:26Z</time>
      </trkpt>
      <trkpt lat="46.58531" lon="5.69684">
        <ele>431.6</ele>
        <time>2022-02-24T07:11:27Z</time>
      </trkpt>
      <trkpt lat="46.58529" lon="5.69681">
        <ele>431.8</ele>
        <time>2022-02-24T07:11:28Z</time>
      </trkpt>
      <trkpt lat="46.58526" lon="5.69679">
        <ele>431.8</ele>
        <time>2022-02-24T07:11:29Z</time>
      </trkpt>
      <trkpt lat="46.58523" lon="5.69677">
        <ele>432.2</ele>
        <time>2022-02-24T07:11:30Z</time>
      </trkpt>
      <trkpt lat="46.58521" lon="5.69675">
        <ele>432.2</ele>
        <time>2022-02-24T07:11:31Z</time>
      </trkpt>
      <trkpt lat="46.58518" lon="5.69673">
        <ele>432.4</ele>
        <time>2022-02-24T07:11:32Z</time>
      </trkpt>
      <trkpt lat="46.58515" lon="5.69671">
        <ele>432.4</ele>
        <time>2022-02-24T07:11:33Z</time>
      </trkpt>
      <trkpt lat="46.58512" lon="5.69667">
        <ele>432.4</ele>
        <time>2022-02-24T07:11:34Z</time>
      </trkpt>
      <trkpt lat="46.58509" lon="5.69664">
        <ele>432.6</ele>
        <time>2022-02-24T07:11:35Z</time>
      </trkpt>
      <trkpt lat="46.58505" lon="5.69661">
        <ele>432.6</ele>
        <time>2022-02-24T07:11:36Z</time>
      </trkpt>
      <trkpt lat="46.58502" lon="5.69657">
        <ele>432.6</ele>
        <time>2022-02-24T07:11:37Z</time>
      </trkpt>
      <trkpt lat="46.58499" lon="5.69653">
        <ele>432.6</ele>
        <time>2022-02-24T07:11:38Z</time>
      </trkpt>
      <trkpt lat="46.58496" lon="5.69648">
        <ele>433</ele>
        <time>2022-02-24T07:11:39Z</time>
      </trkpt>
      <trkpt lat="46.58493" lon="5.69644">
        <ele>433</ele>
        <time>2022-02-24T07:11:40Z</time>
      </trkpt>
      <trkpt lat="46.58489" lon="5.6964">
        <ele>433</ele>
        <time>2022-02-24T07:11:41Z</time>
      </trkpt>
      <trkpt lat="46.58486" lon="5.69636">
        <ele>433.2</ele>
        <time>2022-02-24T07:11:42Z</time>
      </trkpt>
      <trkpt lat="46.58482" lon="5.69632">
        <ele>433.2</ele>
        <time>2022-02-24T07:11:43Z</time>
      </trkpt>
      <trkpt lat="46.58479" lon="5.69628">
        <ele>433.6</ele>
        <time>2022-02-24T07:11:44Z</time>
      </trkpt>
      <trkpt lat="46.58476" lon="5.69624">
        <ele>433.8</ele>
        <time>2022-02-24T07:11:45Z</time>
      </trkpt>
      <trkpt lat="46.58472" lon="5.6962">
        <ele>434</ele>
        <time>2022-02-24T07:11:46Z</time>
      </trkpt>
      <trkpt lat="46.58469" lon="5.69616">
        <ele>434</ele>
        <time>2022-02-24T07:11:47Z</time>
      </trkpt>
      <trkpt lat="46.58465" lon="5.69612">
        <ele>434.2</ele>
        <time>2022-02-24T07:11:48Z</time>
      </trkpt>
      <trkpt lat="46.58462" lon="5.69608">
        <ele>434.6</ele>
        <time>2022-02-24T07:11:49Z</time>
      </trkpt>
      <trkpt lat="46.58458" lon="5.69604">
        <ele>434.6</ele>
        <time>2022-02-24T07:11:50Z</time>
      </trkpt>
      <trkpt lat="46.58455" lon="5.69599">
        <ele>434.8</ele>
        <time>2022-02-24T07:11:51Z</time>
      </trkpt>
      <trkpt lat="46.58451" lon="5.69595">
        <ele>434.8</ele>
        <time>2022-02-24T07:11:52Z</time>
      </trkpt>
      <trkpt lat="46.58447" lon="5.69591">
        <ele>435.2</ele>
        <time>2022-02-24T07:11:53Z</time>
      </trkpt>
      <trkpt lat="46.58443" lon="5.69586">
        <ele>435.2</ele>
        <time>2022-02-24T07:11:54Z</time>
      </trkpt>
      <trkpt lat="46.5844" lon="5.69582">
        <ele>435.6</ele>
        <time>2022-02-24T07:11:55Z</time>
      </trkpt>
      <trkpt lat="46.58436" lon="5.69577">
        <ele>435.6</ele>
        <time>2022-02-24T07:11:56Z</time>
      </trkpt>
      <trkpt lat="46.58432" lon="5.69573">
        <ele>435.8</ele>
        <time>2022-02-24T07:11:57Z</time>
      </trkpt>
      <trkpt lat="46.58432" lon="5.69573">
        <ele>435.8</ele>
        <time>2022-02-24T07:11:58Z</time>
      </trkpt>
      <trkpt lat="46.58429" lon="5.69568">
        <ele>436.2</ele>
        <time>2022-02-24T07:11:59Z</time>
      </trkpt>
      <trkpt lat="46.58425" lon="5.69564">
        <ele>436.2</ele>
        <time>2022-02-24T07:12:00Z</time>
      </trkpt>
      <trkpt lat="46.58421" lon="5.6956">
        <ele>436.4</ele>
        <time>2022-02-24T07:12:01Z</time>
      </trkpt>
      <trkpt lat="46.58418" lon="5.69555">
        <ele>436.4</ele>
        <time>2022-02-24T07:12:02Z</time>
      </trkpt>
      <trkpt lat="46.58414" lon="5.69551">
        <ele>436.8</ele>
        <time>2022-02-24T07:12:03Z</time>
      </trkpt>
      <trkpt lat="46.5841" lon="5.69547">
        <ele>436.8</ele>
        <time>2022-02-24T07:12:04Z</time>
      </trkpt>
      <trkpt lat="46.58406" lon="5.69542">
        <ele>437.4</ele>
        <time>2022-02-24T07:12:05Z</time>
      </trkpt>
      <trkpt lat="46.58402" lon="5.69538">
        <ele>437.6</ele>
        <time>2022-02-24T07:12:06Z</time>
      </trkpt>
      <trkpt lat="46.58399" lon="5.69534">
        <ele>437.8</ele>
        <time>2022-02-24T07:12:07Z</time>
      </trkpt>
      <trkpt lat="46.58396" lon="5.69529">
        <ele>438</ele>
        <time>2022-02-24T07:12:08Z</time>
      </trkpt>
      <trkpt lat="46.58392" lon="5.69524">
        <ele>438.4</ele>
        <time>2022-02-24T07:12:09Z</time>
      </trkpt>
      <trkpt lat="46.58388" lon="5.6952">
        <ele>438.6</ele>
        <time>2022-02-24T07:12:10Z</time>
      </trkpt>
      <trkpt lat="46.58385" lon="5.69516">
        <ele>438.6</ele>
        <time>2022-02-24T07:12:11Z</time>
      </trkpt>
      <trkpt lat="46.58381" lon="5.69512">
        <ele>438.8</ele>
        <time>2022-02-24T07:12:12Z</time>
      </trkpt>
      <trkpt lat="46.58377" lon="5.69507">
        <ele>438.8</ele>
        <time>2022-02-24T07:12:13Z</time>
      </trkpt>
      <trkpt lat="46.58374" lon="5.69502">
        <ele>439.2</ele>
        <time>2022-02-24T07:12:14Z</time>
      </trkpt>
      <trkpt lat="46.58371" lon="5.69498">
        <ele>439.2</ele>
        <time>2022-02-24T07:12:15Z</time>
      </trkpt>
      <trkpt lat="46.58367" lon="5.69493">
        <ele>439.4</ele>
        <time>2022-02-24T07:12:16Z</time>
      </trkpt>
      <trkpt lat="46.58364" lon="5.69489">
        <ele>439.6</ele>
        <time>2022-02-24T07:12:17Z</time>
      </trkpt>
      <trkpt lat="46.5836" lon="5.69485">
        <ele>440</ele>
        <time>2022-02-24T07:12:18Z</time>
      </trkpt>
      <trkpt lat="46.58357" lon="5.69482">
        <ele>440.2</ele>
        <time>2022-02-24T07:12:19Z</time>
      </trkpt>
      <trkpt lat="46.58353" lon="5.69477">
        <ele>440.4</ele>
        <time>2022-02-24T07:12:20Z</time>
      </trkpt>
      <trkpt lat="46.5835" lon="5.69473">
        <ele>440.8</ele>
        <time>2022-02-24T07:12:21Z</time>
      </trkpt>
      <trkpt lat="46.58346" lon="5.6947">
        <ele>441</ele>
        <time>2022-02-24T07:12:22Z</time>
      </trkpt>
      <trkpt lat="46.58343" lon="5.69466">
        <ele>441.2</ele>
        <time>2022-02-24T07:12:23Z</time>
      </trkpt>
      <trkpt lat="46.5834" lon="5.69462">
        <ele>441.6</ele>
        <time>2022-02-24T07:12:24Z</time>
      </trkpt>
      <trkpt lat="46.58336" lon="5.69458">
        <ele>441.8</ele>
        <time>2022-02-24T07:12:25Z</time>
      </trkpt>
      <trkpt lat="46.58333" lon="5.69454">
        <ele>441.8</ele>
        <time>2022-02-24T07:12:26Z</time>
      </trkpt>
      <trkpt lat="46.58329" lon="5.6945">
        <ele>442.4</ele>
        <time>2022-02-24T07:12:27Z</time>
      </trkpt>
      <trkpt lat="46.58326" lon="5.69445">
        <ele>442.4</ele>
        <time>2022-02-24T07:12:28Z</time>
      </trkpt>
      <trkpt lat="46.58323" lon="5.69441">
        <ele>442.8</ele>
        <time>2022-02-24T07:12:29Z</time>
      </trkpt>
      <trkpt lat="46.58319" lon="5.69436">
        <ele>443</ele>
        <time>2022-02-24T07:12:30Z</time>
      </trkpt>
      <trkpt lat="46.58315" lon="5.69432">
        <ele>443.2</ele>
        <time>2022-02-24T07:12:31Z</time>
      </trkpt>
      <trkpt lat="46.58312" lon="5.69427">
        <ele>443.4</ele>
        <time>2022-02-24T07:12:32Z</time>
      </trkpt>
      <trkpt lat="46.58308" lon="5.69423">
        <ele>443.6</ele>
        <time>2022-02-24T07:12:33Z</time>
      </trkpt>
      <trkpt lat="46.58304" lon="5.69418">
        <ele>444</ele>
        <time>2022-02-24T07:12:34Z</time>
      </trkpt>
      <trkpt lat="46.583" lon="5.69414">
        <ele>444</ele>
        <time>2022-02-24T07:12:35Z</time>
      </trkpt>
      <trkpt lat="46.58297" lon="5.6941">
        <ele>444.2</ele>
        <time>2022-02-24T07:12:36Z</time>
      </trkpt>
      <trkpt lat="46.58293" lon="5.69405">
        <ele>444.6</ele>
        <time>2022-02-24T07:12:37Z</time>
      </trkpt>
      <trkpt lat="46.58289" lon="5.69401">
        <ele>444.6</ele>
        <time>2022-02-24T07:12:38Z</time>
      </trkpt>
      <trkpt lat="46.58286" lon="5.69397">
        <ele>445</ele>
        <time>2022-02-24T07:12:39Z</time>
      </trkpt>
      <trkpt lat="46.58282" lon="5.69393">
        <ele>445.2</ele>
        <time>2022-02-24T07:12:40Z</time>
      </trkpt>
      <trkpt lat="46.58279" lon="5.69389">
        <ele>445.4</ele>
        <time>2022-02-24T07:12:41Z</time>
      </trkpt>
      <trkpt lat="46.58275" lon="5.69385">
        <ele>445.8</ele>
        <time>2022-02-24T07:12:42Z</time>
      </trkpt>
      <trkpt lat="46.58271" lon="5.69381">
        <ele>446</ele>
        <time>2022-02-24T07:12:43Z</time>
      </trkpt>
      <trkpt lat="46.58268" lon="5.69377">
        <ele>446.4</ele>
        <time>2022-02-24T07:12:44Z</time>
      </trkpt>
      <trkpt lat="46.58264" lon="5.69373">
        <ele>446.6</ele>
        <time>2022-02-24T07:12:45Z</time>
      </trkpt>
      <trkpt lat="46.58261" lon="5.69369">
        <ele>447</ele>
        <time>2022-02-24T07:12:46Z</time>
      </trkpt>
      <trkpt lat="46.58257" lon="5.69364">
        <ele>447.2</ele>
        <time>2022-02-24T07:12:47Z</time>
      </trkpt>
      <trkpt lat="46.58254" lon="5.6936">
        <ele>447.2</ele>
        <time>2022-02-24T07:12:48Z</time>
      </trkpt>
      <trkpt lat="46.5825" lon="5.69356">
        <ele>447.6</ele>
        <time>2022-02-24T07:12:49Z</time>
      </trkpt>
      <trkpt lat="46.58246" lon="5.69352">
        <ele>448</ele>
        <time>2022-02-24T07:12:50Z</time>
      </trkpt>
      <trkpt lat="46.58243" lon="5.69348">
        <ele>448.2</ele>
        <time>2022-02-24T07:12:51Z</time>
      </trkpt>
      <trkpt lat="46.58239" lon="5.69344">
        <ele>448.4</ele>
        <time>2022-02-24T07:12:52Z</time>
      </trkpt>
      <trkpt lat="46.58235" lon="5.6934">
        <ele>448.6</ele>
        <time>2022-02-24T07:12:53Z</time>
      </trkpt>
      <trkpt lat="46.58232" lon="5.69336">
        <ele>448.8</ele>
        <time>2022-02-24T07:12:54Z</time>
      </trkpt>
      <trkpt lat="46.58228" lon="5.69332">
        <ele>449</ele>
        <time>2022-02-24T07:12:55Z</time>
      </trkpt>
      <trkpt lat="46.58225" lon="5.69328">
        <ele>449</ele>
        <time>2022-02-24T07:12:56Z</time>
      </trkpt>
      <trkpt lat="46.58221" lon="5.69324">
        <ele>449.4</ele>
        <time>2022-02-24T07:12:57Z</time>
      </trkpt>
      <trkpt lat="46.58217" lon="5.6932">
        <ele>449.4</ele>
        <time>2022-02-24T07:12:58Z</time>
      </trkpt>
      <trkpt lat="46.58213" lon="5.69316">
        <ele>449.6</ele>
        <time>2022-02-24T07:12:59Z</time>
      </trkpt>
      <trkpt lat="46.58209" lon="5.69312">
        <ele>450</ele>
        <time>2022-02-24T07:13:00Z</time>
      </trkpt>
      <trkpt lat="46.58205" lon="5.69307">
        <ele>450.2</ele>
        <time>2022-02-24T07:13:01Z</time>
      </trkpt>
      <trkpt lat="46.58201" lon="5.69302">
        <ele>450.2</ele>
        <time>2022-02-24T07:13:02Z</time>
      </trkpt>
      <trkpt lat="46.58198" lon="5.69296">
        <ele>450.4</ele>
        <time>2022-02-24T07:13:03Z</time>
      </trkpt>
      <trkpt lat="46.58194" lon="5.69291">
        <ele>450.4</ele>
        <time>2022-02-24T07:13:04Z</time>
      </trkpt>
      <trkpt lat="46.5819" lon="5.69286">
        <ele>450.8</ele>
        <time>2022-02-24T07:13:05Z</time>
      </trkpt>
      <trkpt lat="46.58186" lon="5.6928">
        <ele>450.8</ele>
        <time>2022-02-24T07:13:06Z</time>
      </trkpt>
      <trkpt lat="46.58183" lon="5.69276">
        <ele>451</ele>
        <time>2022-02-24T07:13:07Z</time>
      </trkpt>
      <trkpt lat="46.58179" lon="5.69271">
        <ele>451</ele>
        <time>2022-02-24T07:13:08Z</time>
      </trkpt>
      <trkpt lat="46.58175" lon="5.69267">
        <ele>451.4</ele>
        <time>2022-02-24T07:13:09Z</time>
      </trkpt>
      <trkpt lat="46.58172" lon="5.69262">
        <ele>451.4</ele>
        <time>2022-02-24T07:13:10Z</time>
      </trkpt>
      <trkpt lat="46.58169" lon="5.69257">
        <ele>451.8</ele>
        <time>2022-02-24T07:13:11Z</time>
      </trkpt>
      <trkpt lat="46.58165" lon="5.69252">
        <ele>452</ele>
        <time>2022-02-24T07:13:12Z</time>
      </trkpt>
      <trkpt lat="46.58161" lon="5.69247">
        <ele>452</ele>
        <time>2022-02-24T07:13:13Z</time>
      </trkpt>
      <trkpt lat="46.58157" lon="5.69243">
        <ele>452.2</ele>
        <time>2022-02-24T07:13:14Z</time>
      </trkpt>
      <trkpt lat="46.58153" lon="5.69238">
        <ele>452.2</ele>
        <time>2022-02-24T07:13:15Z</time>
      </trkpt>
      <trkpt lat="46.58149" lon="5.69233">
        <ele>452.6</ele>
        <time>2022-02-24T07:13:16Z</time>
      </trkpt>
      <trkpt lat="46.58146" lon="5.69229">
        <ele>452.6</ele>
        <time>2022-02-24T07:13:17Z</time>
      </trkpt>
      <trkpt lat="46.58142" lon="5.69224">
        <ele>453</ele>
        <time>2022-02-24T07:13:18Z</time>
      </trkpt>
      <trkpt lat="46.58138" lon="5.6922">
        <ele>453</ele>
        <time>2022-02-24T07:13:19Z</time>
      </trkpt>
      <trkpt lat="46.58134" lon="5.69215">
        <ele>453.2</ele>
        <time>2022-02-24T07:13:20Z</time>
      </trkpt>
      <trkpt lat="46.58131" lon="5.69211">
        <ele>453.2</ele>
        <time>2022-02-24T07:13:21Z</time>
      </trkpt>
      <trkpt lat="46.58127" lon="5.69206">
        <ele>453.4</ele>
        <time>2022-02-24T07:13:22Z</time>
      </trkpt>
      <trkpt lat="46.58123" lon="5.69202">
        <ele>453.4</ele>
        <time>2022-02-24T07:13:23Z</time>
      </trkpt>
      <trkpt lat="46.58119" lon="5.69197">
        <ele>453.8</ele>
        <time>2022-02-24T07:13:24Z</time>
      </trkpt>
      <trkpt lat="46.58115" lon="5.69192">
        <ele>454</ele>
        <time>2022-02-24T07:13:25Z</time>
      </trkpt>
      <trkpt lat="46.58111" lon="5.69187">
        <ele>454</ele>
        <time>2022-02-24T07:13:26Z</time>
      </trkpt>
      <trkpt lat="46.58107" lon="5.69183">
        <ele>454.2</ele>
        <time>2022-02-24T07:13:27Z</time>
      </trkpt>
      <trkpt lat="46.58103" lon="5.69178">
        <ele>454.2</ele>
        <time>2022-02-24T07:13:28Z</time>
      </trkpt>
      <trkpt lat="46.58099" lon="5.69173">
        <ele>454.6</ele>
        <time>2022-02-24T07:13:29Z</time>
      </trkpt>
      <trkpt lat="46.58096" lon="5.69168">
        <ele>454.6</ele>
        <time>2022-02-24T07:13:30Z</time>
      </trkpt>
      <trkpt lat="46.58092" lon="5.69164">
        <ele>454.8</ele>
        <time>2022-02-24T07:13:31Z</time>
      </trkpt>
      <trkpt lat="46.58088" lon="5.69159">
        <ele>454.8</ele>
        <time>2022-02-24T07:13:32Z</time>
      </trkpt>
      <trkpt lat="46.58084" lon="5.69154">
        <ele>455</ele>
        <time>2022-02-24T07:13:33Z</time>
      </trkpt>
      <trkpt lat="46.5808" lon="5.69149">
        <ele>455</ele>
        <time>2022-02-24T07:13:34Z</time>
      </trkpt>
      <trkpt lat="46.58076" lon="5.69144">
        <ele>455</ele>
        <time>2022-02-24T07:13:35Z</time>
      </trkpt>
      <trkpt lat="46.58072" lon="5.6914">
        <ele>455.2</ele>
        <time>2022-02-24T07:13:36Z</time>
      </trkpt>
      <trkpt lat="46.58068" lon="5.69135">
        <ele>455.2</ele>
        <time>2022-02-24T07:13:37Z</time>
      </trkpt>
      <trkpt lat="46.58065" lon="5.6913">
        <ele>455.2</ele>
        <time>2022-02-24T07:13:38Z</time>
      </trkpt>
      <trkpt lat="46.58061" lon="5.69125">
        <ele>455.4</ele>
        <time>2022-02-24T07:13:39Z</time>
      </trkpt>
      <trkpt lat="46.58057" lon="5.6912">
        <ele>455.4</ele>
        <time>2022-02-24T07:13:40Z</time>
      </trkpt>
      <trkpt lat="46.58053" lon="5.69115">
        <ele>455.6</ele>
        <time>2022-02-24T07:13:41Z</time>
      </trkpt>
      <trkpt lat="46.58049" lon="5.69109">
        <ele>455.6</ele>
        <time>2022-02-24T07:13:42Z</time>
      </trkpt>
      <trkpt lat="46.58045" lon="5.69104">
        <ele>456</ele>
        <time>2022-02-24T07:13:43Z</time>
      </trkpt>
      <trkpt lat="46.58041" lon="5.691">
        <ele>456</ele>
        <time>2022-02-24T07:13:44Z</time>
      </trkpt>
      <trkpt lat="46.58038" lon="5.69095">
        <ele>456.2</ele>
        <time>2022-02-24T07:13:45Z</time>
      </trkpt>
      <trkpt lat="46.58034" lon="5.69091">
        <ele>456.2</ele>
        <time>2022-02-24T07:13:46Z</time>
      </trkpt>
      <trkpt lat="46.5803" lon="5.69086">
        <ele>456.2</ele>
        <time>2022-02-24T07:13:47Z</time>
      </trkpt>
      <trkpt lat="46.58026" lon="5.69081">
        <ele>456.6</ele>
        <time>2022-02-24T07:13:48Z</time>
      </trkpt>
      <trkpt lat="46.58022" lon="5.69077">
        <ele>456.6</ele>
        <time>2022-02-24T07:13:49Z</time>
      </trkpt>
      <trkpt lat="46.58019" lon="5.69072">
        <ele>456.8</ele>
        <time>2022-02-24T07:13:50Z</time>
      </trkpt>
      <trkpt lat="46.58015" lon="5.69068">
        <ele>456.8</ele>
        <time>2022-02-24T07:13:51Z</time>
      </trkpt>
      <trkpt lat="46.58012" lon="5.69063">
        <ele>456.8</ele>
        <time>2022-02-24T07:13:52Z</time>
      </trkpt>
      <trkpt lat="46.58008" lon="5.69059">
        <ele>457</ele>
        <time>2022-02-24T07:13:53Z</time>
      </trkpt>
      <trkpt lat="46.58004" lon="5.69054">
        <ele>457</ele>
        <time>2022-02-24T07:13:54Z</time>
      </trkpt>
      <trkpt lat="46.58001" lon="5.6905">
        <ele>457</ele>
        <time>2022-02-24T07:13:55Z</time>
      </trkpt>
      <trkpt lat="46.57997" lon="5.69046">
        <ele>457.4</ele>
        <time>2022-02-24T07:13:56Z</time>
      </trkpt>
      <trkpt lat="46.57993" lon="5.69041">
        <ele>457.4</ele>
        <time>2022-02-24T07:13:57Z</time>
      </trkpt>
      <trkpt lat="46.57989" lon="5.69036">
        <ele>457.6</ele>
        <time>2022-02-24T07:13:58Z</time>
      </trkpt>
      <trkpt lat="46.57986" lon="5.69032">
        <ele>457.8</ele>
        <time>2022-02-24T07:13:59Z</time>
      </trkpt>
      <trkpt lat="46.57982" lon="5.69027">
        <ele>457.8</ele>
        <time>2022-02-24T07:14:00Z</time>
      </trkpt>
      <trkpt lat="46.57979" lon="5.69023">
        <ele>458</ele>
        <time>2022-02-24T07:14:01Z</time>
      </trkpt>
      <trkpt lat="46.57975" lon="5.69019">
        <ele>458</ele>
        <time>2022-02-24T07:14:02Z</time>
      </trkpt>
      <trkpt lat="46.57972" lon="5.69015">
        <ele>458.2</ele>
        <time>2022-02-24T07:14:03Z</time>
      </trkpt>
      <trkpt lat="46.57969" lon="5.69011">
        <ele>458.2</ele>
        <time>2022-02-24T07:14:04Z</time>
      </trkpt>
      <trkpt lat="46.57966" lon="5.69007">
        <ele>458.6</ele>
        <time>2022-02-24T07:14:05Z</time>
      </trkpt>
      <trkpt lat="46.57962" lon="5.69003">
        <ele>458.8</ele>
        <time>2022-02-24T07:14:06Z</time>
      </trkpt>
      <trkpt lat="46.57959" lon="5.68999">
        <ele>459</ele>
        <time>2022-02-24T07:14:07Z</time>
      </trkpt>
      <trkpt lat="46.57956" lon="5.68994">
        <ele>459</ele>
        <time>2022-02-24T07:14:08Z</time>
      </trkpt>
      <trkpt lat="46.57953" lon="5.6899">
        <ele>459.2</ele>
        <time>2022-02-24T07:14:09Z</time>
      </trkpt>
      <trkpt lat="46.57946" lon="5.68982">
        <ele>459.2</ele>
        <time>2022-02-24T07:14:10Z</time>
      </trkpt>
      <trkpt lat="46.57943" lon="5.68978">
        <ele>459.6</ele>
        <time>2022-02-24T07:14:11Z</time>
      </trkpt>
      <trkpt lat="46.57939" lon="5.68974">
        <ele>459.6</ele>
        <time>2022-02-24T07:14:12Z</time>
      </trkpt>
      <trkpt lat="46.57936" lon="5.6897">
        <ele>459.8</ele>
        <time>2022-02-24T07:14:13Z</time>
      </trkpt>
      <trkpt lat="46.57932" lon="5.68966">
        <ele>459.8</ele>
        <time>2022-02-24T07:14:14Z</time>
      </trkpt>
      <trkpt lat="46.57929" lon="5.68961">
        <ele>459.8</ele>
        <time>2022-02-24T07:14:15Z</time>
      </trkpt>
      <trkpt lat="46.57925" lon="5.68957">
        <ele>459.8</ele>
        <time>2022-02-24T07:14:16Z</time>
      </trkpt>
      <trkpt lat="46.57921" lon="5.68952">
        <ele>459.8</ele>
        <time>2022-02-24T07:14:17Z</time>
      </trkpt>
      <trkpt lat="46.57918" lon="5.68947">
        <ele>459.8</ele>
        <time>2022-02-24T07:14:18Z</time>
      </trkpt>
      <trkpt lat="46.57914" lon="5.68942">
        <ele>459.8</ele>
        <time>2022-02-24T07:14:19Z</time>
      </trkpt>
      <trkpt lat="46.57909" lon="5.68937">
        <ele>459.8</ele>
        <time>2022-02-24T07:14:20Z</time>
      </trkpt>
      <trkpt lat="46.57905" lon="5.68932">
        <ele>459.8</ele>
        <time>2022-02-24T07:14:21Z</time>
      </trkpt>
      <trkpt lat="46.57901" lon="5.68926">
        <ele>459.8</ele>
        <time>2022-02-24T07:14:22Z</time>
      </trkpt>
      <trkpt lat="46.57896" lon="5.68921">
        <ele>459.8</ele>
        <time>2022-02-24T07:14:23Z</time>
      </trkpt>
      <trkpt lat="46.57892" lon="5.68915">
        <ele>459.8</ele>
        <time>2022-02-24T07:14:24Z</time>
      </trkpt>
      <trkpt lat="46.57888" lon="5.6891">
        <ele>459.8</ele>
        <time>2022-02-24T07:14:25Z</time>
      </trkpt>
      <trkpt lat="46.57883" lon="5.68904">
        <ele>459.8</ele>
        <time>2022-02-24T07:14:26Z</time>
      </trkpt>
      <trkpt lat="46.57878" lon="5.68898">
        <ele>459.8</ele>
        <time>2022-02-24T07:14:27Z</time>
      </trkpt>
      <trkpt lat="46.57874" lon="5.68892">
        <ele>459.8</ele>
        <time>2022-02-24T07:14:28Z</time>
      </trkpt>
      <trkpt lat="46.57869" lon="5.68886">
        <ele>459.8</ele>
        <time>2022-02-24T07:14:29Z</time>
      </trkpt>
      <trkpt lat="46.57864" lon="5.68879">
        <ele>459.6</ele>
        <time>2022-02-24T07:14:30Z</time>
      </trkpt>
      <trkpt lat="46.57859" lon="5.68873">
        <ele>459.6</ele>
        <time>2022-02-24T07:14:31Z</time>
      </trkpt>
      <trkpt lat="46.57854" lon="5.68867">
        <ele>459.6</ele>
        <time>2022-02-24T07:14:32Z</time>
      </trkpt>
      <trkpt lat="46.57848" lon="5.6886">
        <ele>459.6</ele>
        <time>2022-02-24T07:14:33Z</time>
      </trkpt>
      <trkpt lat="46.57843" lon="5.68853">
        <ele>459.4</ele>
        <time>2022-02-24T07:14:34Z</time>
      </trkpt>
      <trkpt lat="46.57837" lon="5.68846">
        <ele>459.4</ele>
        <time>2022-02-24T07:14:35Z</time>
      </trkpt>
      <trkpt lat="46.57832" lon="5.68839">
        <ele>459.4</ele>
        <time>2022-02-24T07:14:36Z</time>
      </trkpt>
      <trkpt lat="46.57826" lon="5.68832">
        <ele>459.4</ele>
        <time>2022-02-24T07:14:37Z</time>
      </trkpt>
      <trkpt lat="46.57821" lon="5.68825">
        <ele>459</ele>
        <time>2022-02-24T07:14:38Z</time>
      </trkpt>
      <trkpt lat="46.57815" lon="5.68818">
        <ele>459</ele>
        <time>2022-02-24T07:14:39Z</time>
      </trkpt>
      <trkpt lat="46.57809" lon="5.68811">
        <ele>459</ele>
        <time>2022-02-24T07:14:40Z</time>
      </trkpt>
      <trkpt lat="46.57804" lon="5.68804">
        <ele>458.8</ele>
        <time>2022-02-24T07:14:41Z</time>
      </trkpt>
      <trkpt lat="46.57798" lon="5.68797">
        <ele>458.8</ele>
        <time>2022-02-24T07:14:42Z</time>
      </trkpt>
      <trkpt lat="46.57792" lon="5.6879">
        <ele>458.8</ele>
        <time>2022-02-24T07:14:43Z</time>
      </trkpt>
      <trkpt lat="46.57786" lon="5.68783">
        <ele>458.8</ele>
        <time>2022-02-24T07:14:44Z</time>
      </trkpt>
      <trkpt lat="46.57781" lon="5.68775">
        <ele>458.8</ele>
        <time>2022-02-24T07:14:45Z</time>
      </trkpt>
      <trkpt lat="46.57776" lon="5.68768">
        <ele>458.8</ele>
        <time>2022-02-24T07:14:46Z</time>
      </trkpt>
      <trkpt lat="46.5777" lon="5.68762">
        <ele>458.8</ele>
        <time>2022-02-24T07:14:47Z</time>
      </trkpt>
      <trkpt lat="46.57765" lon="5.68755">
        <ele>458.8</ele>
        <time>2022-02-24T07:14:48Z</time>
      </trkpt>
      <trkpt lat="46.5776" lon="5.68748">
        <ele>458.8</ele>
        <time>2022-02-24T07:14:49Z</time>
      </trkpt>
      <trkpt lat="46.57755" lon="5.68742">
        <ele>458.8</ele>
        <time>2022-02-24T07:14:50Z</time>
      </trkpt>
      <trkpt lat="46.5775" lon="5.68736">
        <ele>459</ele>
        <time>2022-02-24T07:14:51Z</time>
      </trkpt>
      <trkpt lat="46.57745" lon="5.68729">
        <ele>459</ele>
        <time>2022-02-24T07:14:52Z</time>
      </trkpt>
      <trkpt lat="46.5774" lon="5.68723">
        <ele>459</ele>
        <time>2022-02-24T07:14:53Z</time>
      </trkpt>
      <trkpt lat="46.57735" lon="5.68717">
        <ele>459.2</ele>
        <time>2022-02-24T07:14:54Z</time>
      </trkpt>
      <trkpt lat="46.5773" lon="5.68711">
        <ele>459.2</ele>
        <time>2022-02-24T07:14:55Z</time>
      </trkpt>
      <trkpt lat="46.57725" lon="5.68705">
        <ele>459.6</ele>
        <time>2022-02-24T07:14:56Z</time>
      </trkpt>
      <trkpt lat="46.5772" lon="5.687">
        <ele>459.6</ele>
        <time>2022-02-24T07:14:57Z</time>
      </trkpt>
      <trkpt lat="46.57715" lon="5.68694">
        <ele>459.6</ele>
        <time>2022-02-24T07:14:58Z</time>
      </trkpt>
      <trkpt lat="46.57711" lon="5.68688">
        <ele>459.8</ele>
        <time>2022-02-24T07:14:59Z</time>
      </trkpt>
      <trkpt lat="46.57706" lon="5.68682">
        <ele>459.8</ele>
        <time>2022-02-24T07:15:00Z</time>
      </trkpt>
      <trkpt lat="46.57701" lon="5.68676">
        <ele>459.8</ele>
        <time>2022-02-24T07:15:01Z</time>
      </trkpt>
      <trkpt lat="46.57696" lon="5.6867">
        <ele>459.8</ele>
        <time>2022-02-24T07:15:02Z</time>
      </trkpt>
      <trkpt lat="46.57692" lon="5.68664">
        <ele>459.8</ele>
        <time>2022-02-24T07:15:03Z</time>
      </trkpt>
      <trkpt lat="46.57687" lon="5.68657">
        <ele>459.8</ele>
        <time>2022-02-24T07:15:04Z</time>
      </trkpt>
      <trkpt lat="46.57682" lon="5.68651">
        <ele>459.8</ele>
        <time>2022-02-24T07:15:05Z</time>
      </trkpt>
      <trkpt lat="46.57677" lon="5.68645">
        <ele>459.8</ele>
        <time>2022-02-24T07:15:06Z</time>
      </trkpt>
      <trkpt lat="46.57672" lon="5.68638">
        <ele>459.8</ele>
        <time>2022-02-24T07:15:07Z</time>
      </trkpt>
      <trkpt lat="46.57667" lon="5.68632">
        <ele>459.8</ele>
        <time>2022-02-24T07:15:08Z</time>
      </trkpt>
      <trkpt lat="46.57662" lon="5.68625">
        <ele>459.8</ele>
        <time>2022-02-24T07:15:09Z</time>
      </trkpt>
      <trkpt lat="46.57657" lon="5.68619">
        <ele>459.8</ele>
        <time>2022-02-24T07:15:10Z</time>
      </trkpt>
      <trkpt lat="46.57652" lon="5.68612">
        <ele>459.8</ele>
        <time>2022-02-24T07:15:11Z</time>
      </trkpt>
      <trkpt lat="46.57647" lon="5.68606">
        <ele>459.8</ele>
        <time>2022-02-24T07:15:12Z</time>
      </trkpt>
      <trkpt lat="46.57642" lon="5.68599">
        <ele>459.8</ele>
        <time>2022-02-24T07:15:13Z</time>
      </trkpt>
      <trkpt lat="46.57636" lon="5.68592">
        <ele>459.8</ele>
        <time>2022-02-24T07:15:14Z</time>
      </trkpt>
      <trkpt lat="46.57631" lon="5.68586">
        <ele>459.6</ele>
        <time>2022-02-24T07:15:15Z</time>
      </trkpt>
      <trkpt lat="46.57625" lon="5.68579">
        <ele>459.6</ele>
        <time>2022-02-24T07:15:16Z</time>
      </trkpt>
      <trkpt lat="46.57619" lon="5.68571">
        <ele>459.2</ele>
        <time>2022-02-24T07:15:17Z</time>
      </trkpt>
      <trkpt lat="46.57614" lon="5.68564">
        <ele>459.2</ele>
        <time>2022-02-24T07:15:18Z</time>
      </trkpt>
      <trkpt lat="46.57608" lon="5.68557">
        <ele>459</ele>
        <time>2022-02-24T07:15:19Z</time>
      </trkpt>
      <trkpt lat="46.57602" lon="5.6855">
        <ele>459</ele>
        <time>2022-02-24T07:15:20Z</time>
      </trkpt>
      <trkpt lat="46.57596" lon="5.68542">
        <ele>458.6</ele>
        <time>2022-02-24T07:15:21Z</time>
      </trkpt>
      <trkpt lat="46.5759" lon="5.68535">
        <ele>458.6</ele>
        <time>2022-02-24T07:15:22Z</time>
      </trkpt>
      <trkpt lat="46.57584" lon="5.68528">
        <ele>458.4</ele>
        <time>2022-02-24T07:15:23Z</time>
      </trkpt>
      <trkpt lat="46.57578" lon="5.6852">
        <ele>458.4</ele>
        <time>2022-02-24T07:15:24Z</time>
      </trkpt>
      <trkpt lat="46.57572" lon="5.68513">
        <ele>458</ele>
        <time>2022-02-24T07:15:25Z</time>
      </trkpt>
      <trkpt lat="46.57566" lon="5.68505">
        <ele>458</ele>
        <time>2022-02-24T07:15:26Z</time>
      </trkpt>
      <trkpt lat="46.5756" lon="5.68498">
        <ele>457.8</ele>
        <time>2022-02-24T07:15:27Z</time>
      </trkpt>
      <trkpt lat="46.57555" lon="5.68491">
        <ele>457.8</ele>
        <time>2022-02-24T07:15:28Z</time>
      </trkpt>
      <trkpt lat="46.57549" lon="5.68484">
        <ele>457.8</ele>
        <time>2022-02-24T07:15:29Z</time>
      </trkpt>
      <trkpt lat="46.57543" lon="5.68477">
        <ele>457.8</ele>
        <time>2022-02-24T07:15:30Z</time>
      </trkpt>
      <trkpt lat="46.57538" lon="5.68471">
        <ele>457.8</ele>
        <time>2022-02-24T07:15:31Z</time>
      </trkpt>
      <trkpt lat="46.57533" lon="5.68464">
        <ele>458</ele>
        <time>2022-02-24T07:15:32Z</time>
      </trkpt>
      <trkpt lat="46.57528" lon="5.68458">
        <ele>458</ele>
        <time>2022-02-24T07:15:33Z</time>
      </trkpt>
      <trkpt lat="46.57523" lon="5.68451">
        <ele>458.4</ele>
        <time>2022-02-24T07:15:34Z</time>
      </trkpt>
      <trkpt lat="46.57518" lon="5.68445">
        <ele>458.4</ele>
        <time>2022-02-24T07:15:35Z</time>
      </trkpt>
      <trkpt lat="46.57513" lon="5.68439">
        <ele>458.4</ele>
        <time>2022-02-24T07:15:36Z</time>
      </trkpt>
      <trkpt lat="46.57508" lon="5.68433">
        <ele>458.6</ele>
        <time>2022-02-24T07:15:37Z</time>
      </trkpt>
      <trkpt lat="46.57503" lon="5.68427">
        <ele>459</ele>
        <time>2022-02-24T07:15:38Z</time>
      </trkpt>
      <trkpt lat="46.57499" lon="5.68421">
        <ele>459.2</ele>
        <time>2022-02-24T07:15:39Z</time>
      </trkpt>
      <trkpt lat="46.57494" lon="5.68415">
        <ele>459.2</ele>
        <time>2022-02-24T07:15:40Z</time>
      </trkpt>
      <trkpt lat="46.57489" lon="5.68409">
        <ele>459.6</ele>
        <time>2022-02-24T07:15:41Z</time>
      </trkpt>
      <trkpt lat="46.57484" lon="5.68402">
        <ele>459.6</ele>
        <time>2022-02-24T07:15:42Z</time>
      </trkpt>
      <trkpt lat="46.5748" lon="5.68396">
        <ele>460</ele>
        <time>2022-02-24T07:15:43Z</time>
      </trkpt>
      <trkpt lat="46.57475" lon="5.6839">
        <ele>460.2</ele>
        <time>2022-02-24T07:15:44Z</time>
      </trkpt>
      <trkpt lat="46.5747" lon="5.68384">
        <ele>460.4</ele>
        <time>2022-02-24T07:15:45Z</time>
      </trkpt>
      <trkpt lat="46.57465" lon="5.68378">
        <ele>460.4</ele>
        <time>2022-02-24T07:15:46Z</time>
      </trkpt>
      <trkpt lat="46.5746" lon="5.68372">
        <ele>460.8</ele>
        <time>2022-02-24T07:15:47Z</time>
      </trkpt>
      <trkpt lat="46.57456" lon="5.68366">
        <ele>461.2</ele>
        <time>2022-02-24T07:15:48Z</time>
      </trkpt>
      <trkpt lat="46.57451" lon="5.6836">
        <ele>461.2</ele>
        <time>2022-02-24T07:15:49Z</time>
      </trkpt>
      <trkpt lat="46.57446" lon="5.68354">
        <ele>461.4</ele>
        <time>2022-02-24T07:15:50Z</time>
      </trkpt>
      <trkpt lat="46.57441" lon="5.68348">
        <ele>462.2</ele>
        <time>2022-02-24T07:15:51Z</time>
      </trkpt>
      <trkpt lat="46.57437" lon="5.68342">
        <ele>462.2</ele>
        <time>2022-02-24T07:15:52Z</time>
      </trkpt>
      <trkpt lat="46.57432" lon="5.68337">
        <ele>462.2</ele>
        <time>2022-02-24T07:15:53Z</time>
      </trkpt>
      <trkpt lat="46.57428" lon="5.68331">
        <ele>462.4</ele>
        <time>2022-02-24T07:15:54Z</time>
      </trkpt>
      <trkpt lat="46.57423" lon="5.68326">
        <ele>462.4</ele>
        <time>2022-02-24T07:15:55Z</time>
      </trkpt>
      <trkpt lat="46.57419" lon="5.6832">
        <ele>462.6</ele>
        <time>2022-02-24T07:15:56Z</time>
      </trkpt>
      <trkpt lat="46.57415" lon="5.68315">
        <ele>462.6</ele>
        <time>2022-02-24T07:15:57Z</time>
      </trkpt>
      <trkpt lat="46.57411" lon="5.6831">
        <ele>463</ele>
        <time>2022-02-24T07:15:58Z</time>
      </trkpt>
      <trkpt lat="46.57411" lon="5.6831">
        <ele>463</ele>
        <time>2022-02-24T07:15:59Z</time>
      </trkpt>
      <trkpt lat="46.57406" lon="5.68304">
        <ele>463.2</ele>
        <time>2022-02-24T07:16:00Z</time>
      </trkpt>
      <trkpt lat="46.57402" lon="5.68299">
        <ele>463.2</ele>
        <time>2022-02-24T07:16:01Z</time>
      </trkpt>
      <trkpt lat="46.57397" lon="5.68293">
        <ele>463.6</ele>
        <time>2022-02-24T07:16:02Z</time>
      </trkpt>
      <trkpt lat="46.57393" lon="5.68287">
        <ele>463.8</ele>
        <time>2022-02-24T07:16:03Z</time>
      </trkpt>
      <trkpt lat="46.57388" lon="5.68282">
        <ele>464.2</ele>
        <time>2022-02-24T07:16:04Z</time>
      </trkpt>
      <trkpt lat="46.57384" lon="5.68276">
        <ele>464.4</ele>
        <time>2022-02-24T07:16:05Z</time>
      </trkpt>
      <trkpt lat="46.5738" lon="5.68271">
        <ele>464.4</ele>
        <time>2022-02-24T07:16:06Z</time>
      </trkpt>
      <trkpt lat="46.57375" lon="5.68265">
        <ele>464.8</ele>
        <time>2022-02-24T07:16:07Z</time>
      </trkpt>
      <trkpt lat="46.57371" lon="5.6826">
        <ele>464.8</ele>
        <time>2022-02-24T07:16:08Z</time>
      </trkpt>
      <trkpt lat="46.57367" lon="5.68254">
        <ele>465</ele>
        <time>2022-02-24T07:16:09Z</time>
      </trkpt>
      <trkpt lat="46.57363" lon="5.68249">
        <ele>465</ele>
        <time>2022-02-24T07:16:10Z</time>
      </trkpt>
      <trkpt lat="46.57359" lon="5.68243">
        <ele>465.4</ele>
        <time>2022-02-24T07:16:11Z</time>
      </trkpt>
      <trkpt lat="46.57355" lon="5.68238">
        <ele>465.4</ele>
        <time>2022-02-24T07:16:12Z</time>
      </trkpt>
      <trkpt lat="46.5735" lon="5.68232">
        <ele>465.8</ele>
        <time>2022-02-24T07:16:13Z</time>
      </trkpt>
      <trkpt lat="46.57346" lon="5.68227">
        <ele>466</ele>
        <time>2022-02-24T07:16:14Z</time>
      </trkpt>
      <trkpt lat="46.57342" lon="5.68221">
        <ele>466.2</ele>
        <time>2022-02-24T07:16:15Z</time>
      </trkpt>
      <trkpt lat="46.57338" lon="5.68216">
        <ele>466.2</ele>
        <time>2022-02-24T07:16:16Z</time>
      </trkpt>
      <trkpt lat="46.57334" lon="5.68211">
        <ele>466.8</ele>
        <time>2022-02-24T07:16:17Z</time>
      </trkpt>
      <trkpt lat="46.5733" lon="5.68205">
        <ele>467</ele>
        <time>2022-02-24T07:16:18Z</time>
      </trkpt>
      <trkpt lat="46.57326" lon="5.682">
        <ele>467.4</ele>
        <time>2022-02-24T07:16:19Z</time>
      </trkpt>
      <trkpt lat="46.57322" lon="5.68195">
        <ele>467.6</ele>
        <time>2022-02-24T07:16:20Z</time>
      </trkpt>
      <trkpt lat="46.57318" lon="5.68189">
        <ele>467.8</ele>
        <time>2022-02-24T07:16:21Z</time>
      </trkpt>
      <trkpt lat="46.57314" lon="5.68184">
        <ele>468.2</ele>
        <time>2022-02-24T07:16:22Z</time>
      </trkpt>
      <trkpt lat="46.5731" lon="5.68179">
        <ele>468.2</ele>
        <time>2022-02-24T07:16:23Z</time>
      </trkpt>
      <trkpt lat="46.57306" lon="5.68174">
        <ele>468.6</ele>
        <time>2022-02-24T07:16:24Z</time>
      </trkpt>
      <trkpt lat="46.57302" lon="5.68168">
        <ele>468.8</ele>
        <time>2022-02-24T07:16:25Z</time>
      </trkpt>
      <trkpt lat="46.57297" lon="5.68163">
        <ele>468.8</ele>
        <time>2022-02-24T07:16:26Z</time>
      </trkpt>
      <trkpt lat="46.57293" lon="5.68157">
        <ele>469.2</ele>
        <time>2022-02-24T07:16:27Z</time>
      </trkpt>
      <trkpt lat="46.57289" lon="5.68152">
        <ele>469.6</ele>
        <time>2022-02-24T07:16:28Z</time>
      </trkpt>
      <trkpt lat="46.57285" lon="5.68146">
        <ele>469.6</ele>
        <time>2022-02-24T07:16:29Z</time>
      </trkpt>
      <trkpt lat="46.5728" lon="5.6814">
        <ele>469.8</ele>
        <time>2022-02-24T07:16:30Z</time>
      </trkpt>
      <trkpt lat="46.57276" lon="5.68134">
        <ele>469.8</ele>
        <time>2022-02-24T07:16:31Z</time>
      </trkpt>
      <trkpt lat="46.57271" lon="5.68128">
        <ele>470.2</ele>
        <time>2022-02-24T07:16:32Z</time>
      </trkpt>
      <trkpt lat="46.57266" lon="5.68122">
        <ele>470.2</ele>
        <time>2022-02-24T07:16:33Z</time>
      </trkpt>
      <trkpt lat="46.57261" lon="5.68116">
        <ele>470.2</ele>
        <time>2022-02-24T07:16:34Z</time>
      </trkpt>
      <trkpt lat="46.57256" lon="5.68109">
        <ele>470.2</ele>
        <time>2022-02-24T07:16:35Z</time>
      </trkpt>
      <trkpt lat="46.57251" lon="5.68102">
        <ele>470.2</ele>
        <time>2022-02-24T07:16:36Z</time>
      </trkpt>
      <trkpt lat="46.57246" lon="5.68095">
        <ele>470.2</ele>
        <time>2022-02-24T07:16:37Z</time>
      </trkpt>
      <trkpt lat="46.57241" lon="5.68088">
        <ele>470.2</ele>
        <time>2022-02-24T07:16:38Z</time>
      </trkpt>
      <trkpt lat="46.57236" lon="5.68081">
        <ele>469.8</ele>
        <time>2022-02-24T07:16:39Z</time>
      </trkpt>
      <trkpt lat="46.5723" lon="5.68074">
        <ele>469.8</ele>
        <time>2022-02-24T07:16:40Z</time>
      </trkpt>
      <trkpt lat="46.57225" lon="5.68067">
        <ele>469.4</ele>
        <time>2022-02-24T07:16:41Z</time>
      </trkpt>
      <trkpt lat="46.5722" lon="5.68059">
        <ele>469.4</ele>
        <time>2022-02-24T07:16:42Z</time>
      </trkpt>
      <trkpt lat="46.57214" lon="5.68052">
        <ele>469.2</ele>
        <time>2022-02-24T07:16:43Z</time>
      </trkpt>
      <trkpt lat="46.57209" lon="5.68044">
        <ele>469.2</ele>
        <time>2022-02-24T07:16:44Z</time>
      </trkpt>
      <trkpt lat="46.57204" lon="5.68037">
        <ele>469</ele>
        <time>2022-02-24T07:16:45Z</time>
      </trkpt>
      <trkpt lat="46.57198" lon="5.6803">
        <ele>469</ele>
        <time>2022-02-24T07:16:46Z</time>
      </trkpt>
      <trkpt lat="46.57193" lon="5.68023">
        <ele>468.6</ele>
        <time>2022-02-24T07:16:47Z</time>
      </trkpt>
      <trkpt lat="46.57187" lon="5.68016">
        <ele>468.6</ele>
        <time>2022-02-24T07:16:48Z</time>
      </trkpt>
      <trkpt lat="46.57182" lon="5.68009">
        <ele>468.6</ele>
        <time>2022-02-24T07:16:49Z</time>
      </trkpt>
      <trkpt lat="46.57177" lon="5.68001">
        <ele>468.2</ele>
        <time>2022-02-24T07:16:50Z</time>
      </trkpt>
      <trkpt lat="46.57171" lon="5.67994">
        <ele>468.2</ele>
        <time>2022-02-24T07:16:51Z</time>
      </trkpt>
      <trkpt lat="46.57166" lon="5.67987">
        <ele>468</ele>
        <time>2022-02-24T07:16:52Z</time>
      </trkpt>
      <trkpt lat="46.57161" lon="5.67979">
        <ele>468</ele>
        <time>2022-02-24T07:16:53Z</time>
      </trkpt>
      <trkpt lat="46.57155" lon="5.67972">
        <ele>468</ele>
        <time>2022-02-24T07:16:54Z</time>
      </trkpt>
      <trkpt lat="46.5715" lon="5.67965">
        <ele>468</ele>
        <time>2022-02-24T07:16:55Z</time>
      </trkpt>
      <trkpt lat="46.57145" lon="5.67958">
        <ele>468</ele>
        <time>2022-02-24T07:16:56Z</time>
      </trkpt>
      <trkpt lat="46.5714" lon="5.67951">
        <ele>468</ele>
        <time>2022-02-24T07:16:57Z</time>
      </trkpt>
      <trkpt lat="46.57135" lon="5.67945">
        <ele>468</ele>
        <time>2022-02-24T07:16:58Z</time>
      </trkpt>
      <trkpt lat="46.57129" lon="5.67938">
        <ele>468</ele>
        <time>2022-02-24T07:16:59Z</time>
      </trkpt>
      <trkpt lat="46.57124" lon="5.67931">
        <ele>468</ele>
        <time>2022-02-24T07:17:00Z</time>
      </trkpt>
      <trkpt lat="46.57119" lon="5.67925">
        <ele>468</ele>
        <time>2022-02-24T07:17:01Z</time>
      </trkpt>
      <trkpt lat="46.57114" lon="5.67918">
        <ele>468</ele>
        <time>2022-02-24T07:17:02Z</time>
      </trkpt>
      <trkpt lat="46.57109" lon="5.67911">
        <ele>468</ele>
        <time>2022-02-24T07:17:03Z</time>
      </trkpt>
      <trkpt lat="46.57105" lon="5.67905">
        <ele>468</ele>
        <time>2022-02-24T07:17:04Z</time>
      </trkpt>
      <trkpt lat="46.571" lon="5.67898">
        <ele>468</ele>
        <time>2022-02-24T07:17:05Z</time>
      </trkpt>
      <trkpt lat="46.57095" lon="5.67892">
        <ele>468</ele>
        <time>2022-02-24T07:17:06Z</time>
      </trkpt>
      <trkpt lat="46.5709" lon="5.67885">
        <ele>468</ele>
        <time>2022-02-24T07:17:07Z</time>
      </trkpt>
      <trkpt lat="46.57085" lon="5.67879">
        <ele>468.2</ele>
        <time>2022-02-24T07:17:08Z</time>
      </trkpt>
      <trkpt lat="46.5708" lon="5.67872">
        <ele>468.2</ele>
        <time>2022-02-24T07:17:09Z</time>
      </trkpt>
      <trkpt lat="46.57075" lon="5.67866">
        <ele>468.6</ele>
        <time>2022-02-24T07:17:10Z</time>
      </trkpt>
      <trkpt lat="46.57071" lon="5.67859">
        <ele>468.6</ele>
        <time>2022-02-24T07:17:11Z</time>
      </trkpt>
      <trkpt lat="46.57066" lon="5.67853">
        <ele>468.6</ele>
        <time>2022-02-24T07:17:12Z</time>
      </trkpt>
      <trkpt lat="46.57061" lon="5.67846">
        <ele>468.6</ele>
        <time>2022-02-24T07:17:13Z</time>
      </trkpt>
      <trkpt lat="46.57057" lon="5.6784">
        <ele>468.8</ele>
        <time>2022-02-24T07:17:14Z</time>
      </trkpt>
      <trkpt lat="46.57052" lon="5.67834">
        <ele>468.8</ele>
        <time>2022-02-24T07:17:15Z</time>
      </trkpt>
      <trkpt lat="46.57047" lon="5.67827">
        <ele>468.8</ele>
        <time>2022-02-24T07:17:16Z</time>
      </trkpt>
      <trkpt lat="46.57042" lon="5.6782">
        <ele>468.8</ele>
        <time>2022-02-24T07:17:17Z</time>
      </trkpt>
      <trkpt lat="46.57038" lon="5.67814">
        <ele>468.8</ele>
        <time>2022-02-24T07:17:18Z</time>
      </trkpt>
      <trkpt lat="46.57033" lon="5.67807">
        <ele>468.8</ele>
        <time>2022-02-24T07:17:19Z</time>
      </trkpt>
      <trkpt lat="46.57028" lon="5.678">
        <ele>468.8</ele>
        <time>2022-02-24T07:17:20Z</time>
      </trkpt>
      <trkpt lat="46.57023" lon="5.67794">
        <ele>469</ele>
        <time>2022-02-24T07:17:21Z</time>
      </trkpt>
      <trkpt lat="46.57018" lon="5.67787">
        <ele>469</ele>
        <time>2022-02-24T07:17:22Z</time>
      </trkpt>
      <trkpt lat="46.57013" lon="5.67781">
        <ele>469.2</ele>
        <time>2022-02-24T07:17:23Z</time>
      </trkpt>
      <trkpt lat="46.57008" lon="5.67775">
        <ele>469.2</ele>
        <time>2022-02-24T07:17:24Z</time>
      </trkpt>
      <trkpt lat="46.57003" lon="5.67768">
        <ele>469.2</ele>
        <time>2022-02-24T07:17:25Z</time>
      </trkpt>
      <trkpt lat="46.56999" lon="5.67762">
        <ele>469.2</ele>
        <time>2022-02-24T07:17:26Z</time>
      </trkpt>
      <trkpt lat="46.56994" lon="5.67755">
        <ele>469.2</ele>
        <time>2022-02-24T07:17:27Z</time>
      </trkpt>
      <trkpt lat="46.56989" lon="5.67748">
        <ele>469.4</ele>
        <time>2022-02-24T07:17:28Z</time>
      </trkpt>
      <trkpt lat="46.56984" lon="5.67742">
        <ele>469.4</ele>
        <time>2022-02-24T07:17:29Z</time>
      </trkpt>
      <trkpt lat="46.5698" lon="5.67736">
        <ele>469.4</ele>
        <time>2022-02-24T07:17:30Z</time>
      </trkpt>
      <trkpt lat="46.56975" lon="5.67729">
        <ele>469.4</ele>
        <time>2022-02-24T07:17:31Z</time>
      </trkpt>
      <trkpt lat="46.5697" lon="5.67723">
        <ele>469.6</ele>
        <time>2022-02-24T07:17:32Z</time>
      </trkpt>
      <trkpt lat="46.56965" lon="5.67717">
        <ele>469.6</ele>
        <time>2022-02-24T07:17:33Z</time>
      </trkpt>
      <trkpt lat="46.56961" lon="5.67711">
        <ele>469.6</ele>
        <time>2022-02-24T07:17:34Z</time>
      </trkpt>
      <trkpt lat="46.56956" lon="5.67704">
        <ele>469.6</ele>
        <time>2022-02-24T07:17:35Z</time>
      </trkpt>
      <trkpt lat="46.56951" lon="5.67698">
        <ele>469.6</ele>
        <time>2022-02-24T07:17:36Z</time>
      </trkpt>
      <trkpt lat="46.56947" lon="5.67692">
        <ele>470</ele>
        <time>2022-02-24T07:17:37Z</time>
      </trkpt>
      <trkpt lat="46.56942" lon="5.67685">
        <ele>470</ele>
        <time>2022-02-24T07:17:38Z</time>
      </trkpt>
      <trkpt lat="46.56937" lon="5.67679">
        <ele>470</ele>
        <time>2022-02-24T07:17:39Z</time>
      </trkpt>
      <trkpt lat="46.56933" lon="5.67673">
        <ele>470</ele>
        <time>2022-02-24T07:17:40Z</time>
      </trkpt>
      <trkpt lat="46.56928" lon="5.67666">
        <ele>470.2</ele>
        <time>2022-02-24T07:17:41Z</time>
      </trkpt>
      <trkpt lat="46.56923" lon="5.6766">
        <ele>470.2</ele>
        <time>2022-02-24T07:17:42Z</time>
      </trkpt>
      <trkpt lat="46.56918" lon="5.67653">
        <ele>470.4</ele>
        <time>2022-02-24T07:17:43Z</time>
      </trkpt>
      <trkpt lat="46.56914" lon="5.67647">
        <ele>470.4</ele>
        <time>2022-02-24T07:17:44Z</time>
      </trkpt>
      <trkpt lat="46.56909" lon="5.67641">
        <ele>470.4</ele>
        <time>2022-02-24T07:17:45Z</time>
      </trkpt>
      <trkpt lat="46.56905" lon="5.67634">
        <ele>470.6</ele>
        <time>2022-02-24T07:17:46Z</time>
      </trkpt>
      <trkpt lat="46.569" lon="5.67628">
        <ele>470.6</ele>
        <time>2022-02-24T07:17:47Z</time>
      </trkpt>
      <trkpt lat="46.56895" lon="5.67622">
        <ele>470.6</ele>
        <time>2022-02-24T07:17:48Z</time>
      </trkpt>
      <trkpt lat="46.56891" lon="5.67615">
        <ele>470.8</ele>
        <time>2022-02-24T07:17:49Z</time>
      </trkpt>
      <trkpt lat="46.56886" lon="5.67608">
        <ele>470.8</ele>
        <time>2022-02-24T07:17:50Z</time>
      </trkpt>
      <trkpt lat="46.56881" lon="5.67602">
        <ele>471</ele>
        <time>2022-02-24T07:17:51Z</time>
      </trkpt>
      <trkpt lat="46.56877" lon="5.67596">
        <ele>471</ele>
        <time>2022-02-24T07:17:52Z</time>
      </trkpt>
      <trkpt lat="46.56872" lon="5.67589">
        <ele>471.4</ele>
        <time>2022-02-24T07:17:53Z</time>
      </trkpt>
      <trkpt lat="46.56867" lon="5.67583">
        <ele>471.4</ele>
        <time>2022-02-24T07:17:54Z</time>
      </trkpt>
      <trkpt lat="46.56863" lon="5.67577">
        <ele>471.6</ele>
        <time>2022-02-24T07:17:55Z</time>
      </trkpt>
      <trkpt lat="46.56859" lon="5.6757">
        <ele>471.6</ele>
        <time>2022-02-24T07:17:56Z</time>
      </trkpt>
      <trkpt lat="46.56854" lon="5.67564">
        <ele>471.8</ele>
        <time>2022-02-24T07:17:57Z</time>
      </trkpt>
      <trkpt lat="46.5685" lon="5.67558">
        <ele>471.8</ele>
        <time>2022-02-24T07:17:58Z</time>
      </trkpt>
      <trkpt lat="46.56846" lon="5.67552">
        <ele>472.2</ele>
        <time>2022-02-24T07:17:59Z</time>
      </trkpt>
      <trkpt lat="46.56841" lon="5.67545">
        <ele>472.2</ele>
        <time>2022-02-24T07:18:00Z</time>
      </trkpt>
      <trkpt lat="46.56837" lon="5.67539">
        <ele>472.4</ele>
        <time>2022-02-24T07:18:01Z</time>
      </trkpt>
      <trkpt lat="46.56832" lon="5.67533">
        <ele>472.4</ele>
        <time>2022-02-24T07:18:02Z</time>
      </trkpt>
      <trkpt lat="46.56827" lon="5.67527">
        <ele>472.6</ele>
        <time>2022-02-24T07:18:03Z</time>
      </trkpt>
      <trkpt lat="46.56823" lon="5.67521">
        <ele>472.6</ele>
        <time>2022-02-24T07:18:04Z</time>
      </trkpt>
      <trkpt lat="46.56818" lon="5.67515">
        <ele>473</ele>
        <time>2022-02-24T07:18:05Z</time>
      </trkpt>
      <trkpt lat="46.56814" lon="5.67508">
        <ele>473</ele>
        <time>2022-02-24T07:18:06Z</time>
      </trkpt>
      <trkpt lat="46.56809" lon="5.67501">
        <ele>473</ele>
        <time>2022-02-24T07:18:07Z</time>
      </trkpt>
      <trkpt lat="46.56804" lon="5.67495">
        <ele>473.2</ele>
        <time>2022-02-24T07:18:08Z</time>
      </trkpt>
      <trkpt lat="46.568" lon="5.67488">
        <ele>473.2</ele>
        <time>2022-02-24T07:18:09Z</time>
      </trkpt>
      <trkpt lat="46.5679" lon="5.67475">
        <ele>473.2</ele>
        <time>2022-02-24T07:18:10Z</time>
      </trkpt>
      <trkpt lat="46.56785" lon="5.67468">
        <ele>473.2</ele>
        <time>2022-02-24T07:18:11Z</time>
      </trkpt>
      <trkpt lat="46.5678" lon="5.67462">
        <ele>473.2</ele>
        <time>2022-02-24T07:18:12Z</time>
      </trkpt>
      <trkpt lat="46.56775" lon="5.67455">
        <ele>473.2</ele>
        <time>2022-02-24T07:18:13Z</time>
      </trkpt>
      <trkpt lat="46.5677" lon="5.67448">
        <ele>473.2</ele>
        <time>2022-02-24T07:18:14Z</time>
      </trkpt>
      <trkpt lat="46.56765" lon="5.67441">
        <ele>473.2</ele>
        <time>2022-02-24T07:18:15Z</time>
      </trkpt>
      <trkpt lat="46.56759" lon="5.67434">
        <ele>473.2</ele>
        <time>2022-02-24T07:18:16Z</time>
      </trkpt>
      <trkpt lat="46.56754" lon="5.67427">
        <ele>473.2</ele>
        <time>2022-02-24T07:18:17Z</time>
      </trkpt>
      <trkpt lat="46.56749" lon="5.6742">
        <ele>473</ele>
        <time>2022-02-24T07:18:18Z</time>
      </trkpt>
      <trkpt lat="46.56744" lon="5.67413">
        <ele>473</ele>
        <time>2022-02-24T07:18:19Z</time>
      </trkpt>
      <trkpt lat="46.56739" lon="5.67407">
        <ele>473</ele>
        <time>2022-02-24T07:18:20Z</time>
      </trkpt>
      <trkpt lat="46.56733" lon="5.674">
        <ele>473</ele>
        <time>2022-02-24T07:18:21Z</time>
      </trkpt>
      <trkpt lat="46.56728" lon="5.67394">
        <ele>473</ele>
        <time>2022-02-24T07:18:22Z</time>
      </trkpt>
      <trkpt lat="46.56723" lon="5.67388">
        <ele>473</ele>
        <time>2022-02-24T07:18:23Z</time>
      </trkpt>
      <trkpt lat="46.56717" lon="5.67381">
        <ele>473</ele>
        <time>2022-02-24T07:18:24Z</time>
      </trkpt>
      <trkpt lat="46.56712" lon="5.67375">
        <ele>473</ele>
        <time>2022-02-24T07:18:25Z</time>
      </trkpt>
      <trkpt lat="46.56706" lon="5.67369">
        <ele>473</ele>
        <time>2022-02-24T07:18:26Z</time>
      </trkpt>
      <trkpt lat="46.567" lon="5.67363">
        <ele>473</ele>
        <time>2022-02-24T07:18:27Z</time>
      </trkpt>
      <trkpt lat="46.56695" lon="5.67357">
        <ele>473</ele>
        <time>2022-02-24T07:18:28Z</time>
      </trkpt>
      <trkpt lat="46.56689" lon="5.67352">
        <ele>473</ele>
        <time>2022-02-24T07:18:29Z</time>
      </trkpt>
      <trkpt lat="46.56683" lon="5.67346">
        <ele>473</ele>
        <time>2022-02-24T07:18:30Z</time>
      </trkpt>
      <trkpt lat="46.56677" lon="5.67341">
        <ele>473.2</ele>
        <time>2022-02-24T07:18:31Z</time>
      </trkpt>
      <trkpt lat="46.56671" lon="5.67335">
        <ele>473.2</ele>
        <time>2022-02-24T07:18:32Z</time>
      </trkpt>
      <trkpt lat="46.56665" lon="5.6733">
        <ele>473.2</ele>
        <time>2022-02-24T07:18:33Z</time>
      </trkpt>
      <trkpt lat="46.56659" lon="5.67324">
        <ele>473.2</ele>
        <time>2022-02-24T07:18:34Z</time>
      </trkpt>
      <trkpt lat="46.56653" lon="5.67318">
        <ele>473.2</ele>
        <time>2022-02-24T07:18:35Z</time>
      </trkpt>
      <trkpt lat="46.56647" lon="5.67313">
        <ele>473.2</ele>
        <time>2022-02-24T07:18:36Z</time>
      </trkpt>
      <trkpt lat="46.56641" lon="5.67307">
        <ele>473.2</ele>
        <time>2022-02-24T07:18:37Z</time>
      </trkpt>
      <trkpt lat="46.56636" lon="5.67301">
        <ele>473.2</ele>
        <time>2022-02-24T07:18:38Z</time>
      </trkpt>
      <trkpt lat="46.5663" lon="5.67296">
        <ele>473.4</ele>
        <time>2022-02-24T07:18:39Z</time>
      </trkpt>
      <trkpt lat="46.56625" lon="5.67291">
        <ele>473.4</ele>
        <time>2022-02-24T07:18:40Z</time>
      </trkpt>
      <trkpt lat="46.56619" lon="5.67285">
        <ele>473.6</ele>
        <time>2022-02-24T07:18:41Z</time>
      </trkpt>
      <trkpt lat="46.56614" lon="5.6728">
        <ele>473.6</ele>
        <time>2022-02-24T07:18:42Z</time>
      </trkpt>
      <trkpt lat="46.56609" lon="5.67275">
        <ele>474</ele>
        <time>2022-02-24T07:18:43Z</time>
      </trkpt>
      <trkpt lat="46.56604" lon="5.6727">
        <ele>474.2</ele>
        <time>2022-02-24T07:18:44Z</time>
      </trkpt>
      <trkpt lat="46.566" lon="5.67265">
        <ele>474.4</ele>
        <time>2022-02-24T07:18:45Z</time>
      </trkpt>
      <trkpt lat="46.56595" lon="5.6726">
        <ele>474.6</ele>
        <time>2022-02-24T07:18:46Z</time>
      </trkpt>
      <trkpt lat="46.56591" lon="5.67255">
        <ele>474.8</ele>
        <time>2022-02-24T07:18:47Z</time>
      </trkpt>
      <trkpt lat="46.56586" lon="5.6725">
        <ele>475</ele>
        <time>2022-02-24T07:18:48Z</time>
      </trkpt>
      <trkpt lat="46.56582" lon="5.67244">
        <ele>475</ele>
        <time>2022-02-24T07:18:49Z</time>
      </trkpt>
      <trkpt lat="46.56577" lon="5.67239">
        <ele>475</ele>
        <time>2022-02-24T07:18:50Z</time>
      </trkpt>
      <trkpt lat="46.56573" lon="5.67233">
        <ele>475</ele>
        <time>2022-02-24T07:18:51Z</time>
      </trkpt>
      <trkpt lat="46.56568" lon="5.67227">
        <ele>475</ele>
        <time>2022-02-24T07:18:52Z</time>
      </trkpt>
      <trkpt lat="46.56563" lon="5.67221">
        <ele>475</ele>
        <time>2022-02-24T07:18:53Z</time>
      </trkpt>
      <trkpt lat="46.56559" lon="5.67214">
        <ele>475</ele>
        <time>2022-02-24T07:18:54Z</time>
      </trkpt>
      <trkpt lat="46.56554" lon="5.67208">
        <ele>475</ele>
        <time>2022-02-24T07:18:55Z</time>
      </trkpt>
      <trkpt lat="46.5655" lon="5.67202">
        <ele>475</ele>
        <time>2022-02-24T07:18:56Z</time>
      </trkpt>
      <trkpt lat="46.56545" lon="5.67196">
        <ele>475</ele>
        <time>2022-02-24T07:18:57Z</time>
      </trkpt>
      <trkpt lat="46.5654" lon="5.6719">
        <ele>475</ele>
        <time>2022-02-24T07:18:58Z</time>
      </trkpt>
      <trkpt lat="46.56536" lon="5.67183">
        <ele>475</ele>
        <time>2022-02-24T07:18:59Z</time>
      </trkpt>
      <trkpt lat="46.56531" lon="5.67177">
        <ele>475</ele>
        <time>2022-02-24T07:19:00Z</time>
      </trkpt>
      <trkpt lat="46.56527" lon="5.6717">
        <ele>475</ele>
        <time>2022-02-24T07:19:01Z</time>
      </trkpt>
      <trkpt lat="46.56522" lon="5.67164">
        <ele>474.8</ele>
        <time>2022-02-24T07:19:02Z</time>
      </trkpt>
      <trkpt lat="46.56518" lon="5.67158">
        <ele>474.8</ele>
        <time>2022-02-24T07:19:03Z</time>
      </trkpt>
      <trkpt lat="46.56513" lon="5.67152">
        <ele>474.8</ele>
        <time>2022-02-24T07:19:04Z</time>
      </trkpt>
      <trkpt lat="46.56508" lon="5.67146">
        <ele>474.8</ele>
        <time>2022-02-24T07:19:05Z</time>
      </trkpt>
      <trkpt lat="46.56504" lon="5.6714">
        <ele>474.8</ele>
        <time>2022-02-24T07:19:06Z</time>
      </trkpt>
      <trkpt lat="46.56499" lon="5.67134">
        <ele>474.6</ele>
        <time>2022-02-24T07:19:07Z</time>
      </trkpt>
      <trkpt lat="46.56495" lon="5.67127">
        <ele>474.6</ele>
        <time>2022-02-24T07:19:08Z</time>
      </trkpt>
      <trkpt lat="46.5649" lon="5.67121">
        <ele>474.6</ele>
        <time>2022-02-24T07:19:09Z</time>
      </trkpt>
      <trkpt lat="46.56486" lon="5.67115">
        <ele>474.6</ele>
        <time>2022-02-24T07:19:10Z</time>
      </trkpt>
      <trkpt lat="46.56481" lon="5.67109">
        <ele>474.6</ele>
        <time>2022-02-24T07:19:11Z</time>
      </trkpt>
      <trkpt lat="46.56477" lon="5.67102">
        <ele>474.6</ele>
        <time>2022-02-24T07:19:12Z</time>
      </trkpt>
      <trkpt lat="46.56473" lon="5.67096">
        <ele>474.6</ele>
        <time>2022-02-24T07:19:13Z</time>
      </trkpt>
      <trkpt lat="46.56469" lon="5.6709">
        <ele>474.6</ele>
        <time>2022-02-24T07:19:14Z</time>
      </trkpt>
      <trkpt lat="46.56464" lon="5.67084">
        <ele>474.6</ele>
        <time>2022-02-24T07:19:15Z</time>
      </trkpt>
      <trkpt lat="46.5646" lon="5.67078">
        <ele>474.6</ele>
        <time>2022-02-24T07:19:16Z</time>
      </trkpt>
      <trkpt lat="46.56456" lon="5.67072">
        <ele>474.6</ele>
        <time>2022-02-24T07:19:17Z</time>
      </trkpt>
      <trkpt lat="46.56451" lon="5.67066">
        <ele>474.4</ele>
        <time>2022-02-24T07:19:18Z</time>
      </trkpt>
      <trkpt lat="46.56447" lon="5.6706">
        <ele>474.4</ele>
        <time>2022-02-24T07:19:19Z</time>
      </trkpt>
      <trkpt lat="46.56443" lon="5.67053">
        <ele>474.4</ele>
        <time>2022-02-24T07:19:20Z</time>
      </trkpt>
      <trkpt lat="46.56439" lon="5.67047">
        <ele>474.4</ele>
        <time>2022-02-24T07:19:21Z</time>
      </trkpt>
      <trkpt lat="46.56434" lon="5.67042">
        <ele>474.4</ele>
        <time>2022-02-24T07:19:22Z</time>
      </trkpt>
      <trkpt lat="46.5643" lon="5.67036">
        <ele>474.4</ele>
        <time>2022-02-24T07:19:23Z</time>
      </trkpt>
      <trkpt lat="46.56426" lon="5.6703">
        <ele>474.4</ele>
        <time>2022-02-24T07:19:24Z</time>
      </trkpt>
      <trkpt lat="46.56422" lon="5.67024">
        <ele>474.4</ele>
        <time>2022-02-24T07:19:25Z</time>
      </trkpt>
      <trkpt lat="46.56418" lon="5.67018">
        <ele>474.4</ele>
        <time>2022-02-24T07:19:26Z</time>
      </trkpt>
      <trkpt lat="46.56413" lon="5.67012">
        <ele>474.4</ele>
        <time>2022-02-24T07:19:27Z</time>
      </trkpt>
      <trkpt lat="46.56409" lon="5.67006">
        <ele>474.6</ele>
        <time>2022-02-24T07:19:28Z</time>
      </trkpt>
      <trkpt lat="46.56405" lon="5.67">
        <ele>474.6</ele>
        <time>2022-02-24T07:19:29Z</time>
      </trkpt>
      <trkpt lat="46.56401" lon="5.66995">
        <ele>474.8</ele>
        <time>2022-02-24T07:19:30Z</time>
      </trkpt>
      <trkpt lat="46.56396" lon="5.66988">
        <ele>474.8</ele>
        <time>2022-02-24T07:19:31Z</time>
      </trkpt>
      <trkpt lat="46.56392" lon="5.66982">
        <ele>474.8</ele>
        <time>2022-02-24T07:19:32Z</time>
      </trkpt>
      <trkpt lat="46.56388" lon="5.66976">
        <ele>474.8</ele>
        <time>2022-02-24T07:19:33Z</time>
      </trkpt>
      <trkpt lat="46.56383" lon="5.6697">
        <ele>474.8</ele>
        <time>2022-02-24T07:19:34Z</time>
      </trkpt>
      <trkpt lat="46.56379" lon="5.66964">
        <ele>474.8</ele>
        <time>2022-02-24T07:19:35Z</time>
      </trkpt>
      <trkpt lat="46.56374" lon="5.66958">
        <ele>474.8</ele>
        <time>2022-02-24T07:19:36Z</time>
      </trkpt>
      <trkpt lat="46.5637" lon="5.66951">
        <ele>474.8</ele>
        <time>2022-02-24T07:19:37Z</time>
      </trkpt>
      <trkpt lat="46.56366" lon="5.66945">
        <ele>474.8</ele>
        <time>2022-02-24T07:19:38Z</time>
      </trkpt>
      <trkpt lat="46.56361" lon="5.66939">
        <ele>474.8</ele>
        <time>2022-02-24T07:19:39Z</time>
      </trkpt>
      <trkpt lat="46.56357" lon="5.66934">
        <ele>474.8</ele>
        <time>2022-02-24T07:19:40Z</time>
      </trkpt>
      <trkpt lat="46.56353" lon="5.66928">
        <ele>475</ele>
        <time>2022-02-24T07:19:41Z</time>
      </trkpt>
      <trkpt lat="46.56348" lon="5.66922">
        <ele>475</ele>
        <time>2022-02-24T07:19:42Z</time>
      </trkpt>
      <trkpt lat="46.56344" lon="5.66917">
        <ele>475.4</ele>
        <time>2022-02-24T07:19:43Z</time>
      </trkpt>
      <trkpt lat="46.5634" lon="5.66911">
        <ele>475.4</ele>
        <time>2022-02-24T07:19:44Z</time>
      </trkpt>
      <trkpt lat="46.56336" lon="5.66906">
        <ele>475.4</ele>
        <time>2022-02-24T07:19:45Z</time>
      </trkpt>
      <trkpt lat="46.56332" lon="5.669">
        <ele>475.6</ele>
        <time>2022-02-24T07:19:46Z</time>
      </trkpt>
      <trkpt lat="46.56328" lon="5.66895">
        <ele>475.6</ele>
        <time>2022-02-24T07:19:47Z</time>
      </trkpt>
      <trkpt lat="46.56328" lon="5.66895">
        <ele>475.6</ele>
        <time>2022-02-24T07:19:48Z</time>
      </trkpt>
      <trkpt lat="46.56324" lon="5.66889">
        <ele>475.6</ele>
        <time>2022-02-24T07:19:49Z</time>
      </trkpt>
      <trkpt lat="46.5632" lon="5.66884">
        <ele>475.6</ele>
        <time>2022-02-24T07:19:50Z</time>
      </trkpt>
      <trkpt lat="46.56315" lon="5.66879">
        <ele>475.6</ele>
        <time>2022-02-24T07:19:51Z</time>
      </trkpt>
      <trkpt lat="46.56311" lon="5.66874">
        <ele>475.6</ele>
        <time>2022-02-24T07:19:52Z</time>
      </trkpt>
      <trkpt lat="46.56306" lon="5.66869">
        <ele>475.6</ele>
        <time>2022-02-24T07:19:53Z</time>
      </trkpt>
      <trkpt lat="46.56302" lon="5.66864">
        <ele>475.6</ele>
        <time>2022-02-24T07:19:54Z</time>
      </trkpt>
      <trkpt lat="46.56297" lon="5.6686">
        <ele>475.6</ele>
        <time>2022-02-24T07:19:55Z</time>
      </trkpt>
      <trkpt lat="46.56293" lon="5.66855">
        <ele>475.6</ele>
        <time>2022-02-24T07:19:56Z</time>
      </trkpt>
      <trkpt lat="46.56289" lon="5.66851">
        <ele>475.6</ele>
        <time>2022-02-24T07:19:57Z</time>
      </trkpt>
      <trkpt lat="46.56284" lon="5.66847">
        <ele>475.6</ele>
        <time>2022-02-24T07:19:58Z</time>
      </trkpt>
      <trkpt lat="46.5628" lon="5.66844">
        <ele>475.8</ele>
        <time>2022-02-24T07:19:59Z</time>
      </trkpt>
      <trkpt lat="46.56275" lon="5.6684">
        <ele>476.2</ele>
        <time>2022-02-24T07:20:00Z</time>
      </trkpt>
      <trkpt lat="46.5627" lon="5.66837">
        <ele>476.4</ele>
        <time>2022-02-24T07:20:01Z</time>
      </trkpt>
      <trkpt lat="46.56265" lon="5.66834">
        <ele>476.4</ele>
        <time>2022-02-24T07:20:02Z</time>
      </trkpt>
      <trkpt lat="46.5626" lon="5.66832">
        <ele>476.4</ele>
        <time>2022-02-24T07:20:03Z</time>
      </trkpt>
      <trkpt lat="46.56255" lon="5.66829">
        <ele>476.4</ele>
        <time>2022-02-24T07:20:04Z</time>
      </trkpt>
      <trkpt lat="46.5625" lon="5.66826">
        <ele>476.4</ele>
        <time>2022-02-24T07:20:05Z</time>
      </trkpt>
      <trkpt lat="46.56246" lon="5.66823">
        <ele>476.6</ele>
        <time>2022-02-24T07:20:06Z</time>
      </trkpt>
      <trkpt lat="46.56241" lon="5.6682">
        <ele>476.6</ele>
        <time>2022-02-24T07:20:07Z</time>
      </trkpt>
      <trkpt lat="46.56236" lon="5.66818">
        <ele>477</ele>
        <time>2022-02-24T07:20:08Z</time>
      </trkpt>
      <trkpt lat="46.56231" lon="5.66815">
        <ele>477.2</ele>
        <time>2022-02-24T07:20:09Z</time>
      </trkpt>
      <trkpt lat="46.56226" lon="5.66812">
        <ele>477.2</ele>
        <time>2022-02-24T07:20:10Z</time>
      </trkpt>
      <trkpt lat="46.56221" lon="5.6681">
        <ele>477.6</ele>
        <time>2022-02-24T07:20:11Z</time>
      </trkpt>
      <trkpt lat="46.56216" lon="5.66807">
        <ele>478</ele>
        <time>2022-02-24T07:20:12Z</time>
      </trkpt>
      <trkpt lat="46.56211" lon="5.66804">
        <ele>478.2</ele>
        <time>2022-02-24T07:20:13Z</time>
      </trkpt>
      <trkpt lat="46.56207" lon="5.66802">
        <ele>478.4</ele>
        <time>2022-02-24T07:20:14Z</time>
      </trkpt>
      <trkpt lat="46.56202" lon="5.66799">
        <ele>478.4</ele>
        <time>2022-02-24T07:20:15Z</time>
      </trkpt>
      <trkpt lat="46.56197" lon="5.66797">
        <ele>478.8</ele>
        <time>2022-02-24T07:20:16Z</time>
      </trkpt>
      <trkpt lat="46.56192" lon="5.66795">
        <ele>478.8</ele>
        <time>2022-02-24T07:20:17Z</time>
      </trkpt>
      <trkpt lat="46.56187" lon="5.66793">
        <ele>479</ele>
        <time>2022-02-24T07:20:18Z</time>
      </trkpt>
      <trkpt lat="46.56181" lon="5.66791">
        <ele>479</ele>
        <time>2022-02-24T07:20:19Z</time>
      </trkpt>
      <trkpt lat="46.56176" lon="5.66788">
        <ele>479.4</ele>
        <time>2022-02-24T07:20:20Z</time>
      </trkpt>
      <trkpt lat="46.56171" lon="5.66785">
        <ele>479.4</ele>
        <time>2022-02-24T07:20:21Z</time>
      </trkpt>
      <trkpt lat="46.56166" lon="5.66783">
        <ele>479.4</ele>
        <time>2022-02-24T07:20:22Z</time>
      </trkpt>
      <trkpt lat="46.56161" lon="5.6678">
        <ele>479.6</ele>
        <time>2022-02-24T07:20:23Z</time>
      </trkpt>
      <trkpt lat="46.56156" lon="5.66777">
        <ele>479.6</ele>
        <time>2022-02-24T07:20:24Z</time>
      </trkpt>
      <trkpt lat="46.56151" lon="5.66774">
        <ele>479.6</ele>
        <time>2022-02-24T07:20:25Z</time>
      </trkpt>
      <trkpt lat="46.56146" lon="5.66771">
        <ele>479.6</ele>
        <time>2022-02-24T07:20:26Z</time>
      </trkpt>
      <trkpt lat="46.56141" lon="5.66768">
        <ele>479.6</ele>
        <time>2022-02-24T07:20:27Z</time>
      </trkpt>
      <trkpt lat="46.56136" lon="5.66765">
        <ele>480</ele>
        <time>2022-02-24T07:20:28Z</time>
      </trkpt>
      <trkpt lat="46.56131" lon="5.66761">
        <ele>480</ele>
        <time>2022-02-24T07:20:29Z</time>
      </trkpt>
      <trkpt lat="46.56127" lon="5.66758">
        <ele>480</ele>
        <time>2022-02-24T07:20:30Z</time>
      </trkpt>
      <trkpt lat="46.56122" lon="5.66754">
        <ele>480.2</ele>
        <time>2022-02-24T07:20:31Z</time>
      </trkpt>
      <trkpt lat="46.56117" lon="5.66751">
        <ele>480.2</ele>
        <time>2022-02-24T07:20:32Z</time>
      </trkpt>
      <trkpt lat="46.56112" lon="5.66747">
        <ele>480.6</ele>
        <time>2022-02-24T07:20:33Z</time>
      </trkpt>
      <trkpt lat="46.56107" lon="5.66743">
        <ele>480.6</ele>
        <time>2022-02-24T07:20:34Z</time>
      </trkpt>
      <trkpt lat="46.56103" lon="5.66739">
        <ele>480.6</ele>
        <time>2022-02-24T07:20:35Z</time>
      </trkpt>
      <trkpt lat="46.56098" lon="5.66735">
        <ele>480.6</ele>
        <time>2022-02-24T07:20:36Z</time>
      </trkpt>
      <trkpt lat="46.56093" lon="5.66731">
        <ele>480.6</ele>
        <time>2022-02-24T07:20:37Z</time>
      </trkpt>
      <trkpt lat="46.56089" lon="5.66726">
        <ele>480.8</ele>
        <time>2022-02-24T07:20:38Z</time>
      </trkpt>
      <trkpt lat="46.56084" lon="5.66721">
        <ele>480.8</ele>
        <time>2022-02-24T07:20:39Z</time>
      </trkpt>
      <trkpt lat="46.5608" lon="5.66716">
        <ele>480.8</ele>
        <time>2022-02-24T07:20:40Z</time>
      </trkpt>
      <trkpt lat="46.56075" lon="5.6671">
        <ele>480.6</ele>
        <time>2022-02-24T07:20:41Z</time>
      </trkpt>
      <trkpt lat="46.56071" lon="5.66704">
        <ele>480.6</ele>
        <time>2022-02-24T07:20:42Z</time>
      </trkpt>
      <trkpt lat="46.56067" lon="5.66697">
        <ele>480.6</ele>
        <time>2022-02-24T07:20:43Z</time>
      </trkpt>
      <trkpt lat="46.56063" lon="5.66691">
        <ele>480.6</ele>
        <time>2022-02-24T07:20:44Z</time>
      </trkpt>
      <trkpt lat="46.56059" lon="5.66684">
        <ele>480.6</ele>
        <time>2022-02-24T07:20:45Z</time>
      </trkpt>
      <trkpt lat="46.56055" lon="5.66677">
        <ele>480.6</ele>
        <time>2022-02-24T07:20:46Z</time>
      </trkpt>
      <trkpt lat="46.56052" lon="5.66669">
        <ele>480.6</ele>
        <time>2022-02-24T07:20:47Z</time>
      </trkpt>
      <trkpt lat="46.56048" lon="5.66662">
        <ele>480.6</ele>
        <time>2022-02-24T07:20:48Z</time>
      </trkpt>
      <trkpt lat="46.56045" lon="5.66655">
        <ele>480.6</ele>
        <time>2022-02-24T07:20:49Z</time>
      </trkpt>
      <trkpt lat="46.56042" lon="5.66648">
        <ele>480.6</ele>
        <time>2022-02-24T07:20:50Z</time>
      </trkpt>
      <trkpt lat="46.56039" lon="5.66641">
        <ele>480.6</ele>
        <time>2022-02-24T07:20:51Z</time>
      </trkpt>
      <trkpt lat="46.56035" lon="5.66634">
        <ele>480.6</ele>
        <time>2022-02-24T07:20:52Z</time>
      </trkpt>
      <trkpt lat="46.56032" lon="5.66627">
        <ele>480.6</ele>
        <time>2022-02-24T07:20:53Z</time>
      </trkpt>
      <trkpt lat="46.56029" lon="5.6662">
        <ele>480.6</ele>
        <time>2022-02-24T07:20:54Z</time>
      </trkpt>
      <trkpt lat="46.56026" lon="5.66612">
        <ele>480.6</ele>
        <time>2022-02-24T07:20:55Z</time>
      </trkpt>
      <trkpt lat="46.56023" lon="5.66605">
        <ele>480.4</ele>
        <time>2022-02-24T07:20:56Z</time>
      </trkpt>
      <trkpt lat="46.5602" lon="5.66598">
        <ele>480.4</ele>
        <time>2022-02-24T07:20:57Z</time>
      </trkpt>
      <trkpt lat="46.56016" lon="5.66591">
        <ele>480.4</ele>
        <time>2022-02-24T07:20:58Z</time>
      </trkpt>
      <trkpt lat="46.56013" lon="5.66584">
        <ele>480.4</ele>
        <time>2022-02-24T07:20:59Z</time>
      </trkpt>
      <trkpt lat="46.5601" lon="5.66577">
        <ele>480.4</ele>
        <time>2022-02-24T07:21:00Z</time>
      </trkpt>
      <trkpt lat="46.56006" lon="5.6657">
        <ele>480.4</ele>
        <time>2022-02-24T07:21:01Z</time>
      </trkpt>
      <trkpt lat="46.56003" lon="5.66563">
        <ele>480.6</ele>
        <time>2022-02-24T07:21:02Z</time>
      </trkpt>
      <trkpt lat="46.56" lon="5.66557">
        <ele>480.6</ele>
        <time>2022-02-24T07:21:03Z</time>
      </trkpt>
      <trkpt lat="46.55997" lon="5.6655">
        <ele>481</ele>
        <time>2022-02-24T07:21:04Z</time>
      </trkpt>
      <trkpt lat="46.55994" lon="5.66543">
        <ele>481.2</ele>
        <time>2022-02-24T07:21:05Z</time>
      </trkpt>
      <trkpt lat="46.5599" lon="5.66536">
        <ele>481.2</ele>
        <time>2022-02-24T07:21:06Z</time>
      </trkpt>
      <trkpt lat="46.55987" lon="5.66529">
        <ele>481.2</ele>
        <time>2022-02-24T07:21:07Z</time>
      </trkpt>
      <trkpt lat="46.55984" lon="5.66523">
        <ele>481.2</ele>
        <time>2022-02-24T07:21:08Z</time>
      </trkpt>
      <trkpt lat="46.55981" lon="5.66516">
        <ele>481.2</ele>
        <time>2022-02-24T07:21:09Z</time>
      </trkpt>
      <trkpt lat="46.55978" lon="5.66509">
        <ele>481.2</ele>
        <time>2022-02-24T07:21:10Z</time>
      </trkpt>
      <trkpt lat="46.55975" lon="5.66502">
        <ele>481.2</ele>
        <time>2022-02-24T07:21:11Z</time>
      </trkpt>
      <trkpt lat="46.55972" lon="5.66495">
        <ele>481.2</ele>
        <time>2022-02-24T07:21:12Z</time>
      </trkpt>
      <trkpt lat="46.55969" lon="5.66488">
        <ele>481.2</ele>
        <time>2022-02-24T07:21:13Z</time>
      </trkpt>
      <trkpt lat="46.55967" lon="5.66481">
        <ele>481.2</ele>
        <time>2022-02-24T07:21:14Z</time>
      </trkpt>
      <trkpt lat="46.55964" lon="5.66474">
        <ele>481.2</ele>
        <time>2022-02-24T07:21:15Z</time>
      </trkpt>
      <trkpt lat="46.55961" lon="5.66466">
        <ele>481</ele>
        <time>2022-02-24T07:21:16Z</time>
      </trkpt>
      <trkpt lat="46.55958" lon="5.66459">
        <ele>481</ele>
        <time>2022-02-24T07:21:17Z</time>
      </trkpt>
      <trkpt lat="46.55956" lon="5.66451">
        <ele>481</ele>
        <time>2022-02-24T07:21:18Z</time>
      </trkpt>
      <trkpt lat="46.55953" lon="5.66443">
        <ele>481</ele>
        <time>2022-02-24T07:21:19Z</time>
      </trkpt>
      <trkpt lat="46.5595" lon="5.66435">
        <ele>480.6</ele>
        <time>2022-02-24T07:21:20Z</time>
      </trkpt>
      <trkpt lat="46.55947" lon="5.66427">
        <ele>480.6</ele>
        <time>2022-02-24T07:21:21Z</time>
      </trkpt>
      <trkpt lat="46.55944" lon="5.6642">
        <ele>480.6</ele>
        <time>2022-02-24T07:21:22Z</time>
      </trkpt>
      <trkpt lat="46.5594" lon="5.66412">
        <ele>480.2</ele>
        <time>2022-02-24T07:21:23Z</time>
      </trkpt>
      <trkpt lat="46.55936" lon="5.66405">
        <ele>480</ele>
        <time>2022-02-24T07:21:24Z</time>
      </trkpt>
      <trkpt lat="46.55931" lon="5.66398">
        <ele>480</ele>
        <time>2022-02-24T07:21:25Z</time>
      </trkpt>
      <trkpt lat="46.55927" lon="5.66392">
        <ele>480</ele>
        <time>2022-02-24T07:21:26Z</time>
      </trkpt>
      <trkpt lat="46.55922" lon="5.66386">
        <ele>480</ele>
        <time>2022-02-24T07:21:27Z</time>
      </trkpt>
      <trkpt lat="46.55917" lon="5.6638">
        <ele>480</ele>
        <time>2022-02-24T07:21:28Z</time>
      </trkpt>
      <trkpt lat="46.55912" lon="5.66374">
        <ele>480</ele>
        <time>2022-02-24T07:21:29Z</time>
      </trkpt>
      <trkpt lat="46.55906" lon="5.66369">
        <ele>480</ele>
        <time>2022-02-24T07:21:30Z</time>
      </trkpt>
      <trkpt lat="46.55901" lon="5.66363">
        <ele>480</ele>
        <time>2022-02-24T07:21:31Z</time>
      </trkpt>
      <trkpt lat="46.55896" lon="5.66358">
        <ele>480</ele>
        <time>2022-02-24T07:21:32Z</time>
      </trkpt>
      <trkpt lat="46.55891" lon="5.66353">
        <ele>480</ele>
        <time>2022-02-24T07:21:33Z</time>
      </trkpt>
      <trkpt lat="46.55886" lon="5.66347">
        <ele>480</ele>
        <time>2022-02-24T07:21:34Z</time>
      </trkpt>
      <trkpt lat="46.55881" lon="5.66342">
        <ele>480</ele>
        <time>2022-02-24T07:21:35Z</time>
      </trkpt>
      <trkpt lat="46.55876" lon="5.66336">
        <ele>480</ele>
        <time>2022-02-24T07:21:36Z</time>
      </trkpt>
      <trkpt lat="46.55871" lon="5.66331">
        <ele>480.4</ele>
        <time>2022-02-24T07:21:37Z</time>
      </trkpt>
      <trkpt lat="46.55865" lon="5.66325">
        <ele>480.4</ele>
        <time>2022-02-24T07:21:38Z</time>
      </trkpt>
      <trkpt lat="46.5586" lon="5.6632">
        <ele>480.4</ele>
        <time>2022-02-24T07:21:39Z</time>
      </trkpt>
      <trkpt lat="46.55855" lon="5.66315">
        <ele>480.4</ele>
        <time>2022-02-24T07:21:40Z</time>
      </trkpt>
      <trkpt lat="46.5585" lon="5.66309">
        <ele>480.4</ele>
        <time>2022-02-24T07:21:41Z</time>
      </trkpt>
      <trkpt lat="46.55844" lon="5.66304">
        <ele>480.4</ele>
        <time>2022-02-24T07:21:42Z</time>
      </trkpt>
      <trkpt lat="46.55839" lon="5.66298">
        <ele>480.4</ele>
        <time>2022-02-24T07:21:43Z</time>
      </trkpt>
      <trkpt lat="46.55833" lon="5.66293">
        <ele>480.4</ele>
        <time>2022-02-24T07:21:44Z</time>
      </trkpt>
      <trkpt lat="46.55828" lon="5.66287">
        <ele>480.4</ele>
        <time>2022-02-24T07:21:45Z</time>
      </trkpt>
      <trkpt lat="46.55822" lon="5.66281">
        <ele>480.4</ele>
        <time>2022-02-24T07:21:46Z</time>
      </trkpt>
      <trkpt lat="46.55817" lon="5.66275">
        <ele>480</ele>
        <time>2022-02-24T07:21:47Z</time>
      </trkpt>
      <trkpt lat="46.55811" lon="5.6627">
        <ele>480</ele>
        <time>2022-02-24T07:21:48Z</time>
      </trkpt>
      <trkpt lat="46.55806" lon="5.66264">
        <ele>480</ele>
        <time>2022-02-24T07:21:49Z</time>
      </trkpt>
      <trkpt lat="46.55801" lon="5.66259">
        <ele>480</ele>
        <time>2022-02-24T07:21:50Z</time>
      </trkpt>
      <trkpt lat="46.55795" lon="5.66254">
        <ele>480</ele>
        <time>2022-02-24T07:21:51Z</time>
      </trkpt>
      <trkpt lat="46.5579" lon="5.66249">
        <ele>480</ele>
        <time>2022-02-24T07:21:52Z</time>
      </trkpt>
      <trkpt lat="46.55785" lon="5.66244">
        <ele>480</ele>
        <time>2022-02-24T07:21:53Z</time>
      </trkpt>
      <trkpt lat="46.5578" lon="5.66239">
        <ele>480</ele>
        <time>2022-02-24T07:21:54Z</time>
      </trkpt>
      <trkpt lat="46.55775" lon="5.66234">
        <ele>480.4</ele>
        <time>2022-02-24T07:21:55Z</time>
      </trkpt>
      <trkpt lat="46.5577" lon="5.66229">
        <ele>480.4</ele>
        <time>2022-02-24T07:21:56Z</time>
      </trkpt>
      <trkpt lat="46.55765" lon="5.66224">
        <ele>480.6</ele>
        <time>2022-02-24T07:21:57Z</time>
      </trkpt>
      <trkpt lat="46.55761" lon="5.66219">
        <ele>480.8</ele>
        <time>2022-02-24T07:21:58Z</time>
      </trkpt>
      <trkpt lat="46.55756" lon="5.66214">
        <ele>481.2</ele>
        <time>2022-02-24T07:21:59Z</time>
      </trkpt>
      <trkpt lat="46.55752" lon="5.6621">
        <ele>481.4</ele>
        <time>2022-02-24T07:22:00Z</time>
      </trkpt>
      <trkpt lat="46.55748" lon="5.66205">
        <ele>481.6</ele>
        <time>2022-02-24T07:22:01Z</time>
      </trkpt>
      <trkpt lat="46.55744" lon="5.66201">
        <ele>481.6</ele>
        <time>2022-02-24T07:22:02Z</time>
      </trkpt>
      <trkpt lat="46.5574" lon="5.66197">
        <ele>482</ele>
        <time>2022-02-24T07:22:03Z</time>
      </trkpt>
      <trkpt lat="46.55737" lon="5.66193">
        <ele>482.4</ele>
        <time>2022-02-24T07:22:04Z</time>
      </trkpt>
      <trkpt lat="46.55733" lon="5.6619">
        <ele>482.6</ele>
        <time>2022-02-24T07:22:05Z</time>
      </trkpt>
      <trkpt lat="46.5573" lon="5.66186">
        <ele>482.6</ele>
        <time>2022-02-24T07:22:06Z</time>
      </trkpt>
      <trkpt lat="46.55726" lon="5.66183">
        <ele>483</ele>
        <time>2022-02-24T07:22:07Z</time>
      </trkpt>
      <trkpt lat="46.55722" lon="5.6618">
        <ele>483</ele>
        <time>2022-02-24T07:22:08Z</time>
      </trkpt>
      <trkpt lat="46.55719" lon="5.66176">
        <ele>483.2</ele>
        <time>2022-02-24T07:22:09Z</time>
      </trkpt>
      <trkpt lat="46.55716" lon="5.66173">
        <ele>483.6</ele>
        <time>2022-02-24T07:22:10Z</time>
      </trkpt>
      <trkpt lat="46.55708" lon="5.66167">
        <ele>483.6</ele>
        <time>2022-02-24T07:22:11Z</time>
      </trkpt>
      <trkpt lat="46.55705" lon="5.66164">
        <ele>483.8</ele>
        <time>2022-02-24T07:22:12Z</time>
      </trkpt>
      <trkpt lat="46.55702" lon="5.66161">
        <ele>483.8</ele>
        <time>2022-02-24T07:22:13Z</time>
      </trkpt>
      <trkpt lat="46.55698" lon="5.66158">
        <ele>484</ele>
        <time>2022-02-24T07:22:14Z</time>
      </trkpt>
      <trkpt lat="46.55695" lon="5.66154">
        <ele>484</ele>
        <time>2022-02-24T07:22:15Z</time>
      </trkpt>
      <trkpt lat="46.55692" lon="5.66151">
        <ele>484.4</ele>
        <time>2022-02-24T07:22:16Z</time>
      </trkpt>
      <trkpt lat="46.55688" lon="5.66148">
        <ele>484.4</ele>
        <time>2022-02-24T07:22:17Z</time>
      </trkpt>
      <trkpt lat="46.55685" lon="5.66144">
        <ele>484.6</ele>
        <time>2022-02-24T07:22:18Z</time>
      </trkpt>
      <trkpt lat="46.55682" lon="5.66141">
        <ele>484.6</ele>
        <time>2022-02-24T07:22:19Z</time>
      </trkpt>
      <trkpt lat="46.55679" lon="5.66137">
        <ele>485</ele>
        <time>2022-02-24T07:22:20Z</time>
      </trkpt>
      <trkpt lat="46.55675" lon="5.66134">
        <ele>485</ele>
        <time>2022-02-24T07:22:21Z</time>
      </trkpt>
      <trkpt lat="46.55672" lon="5.6613">
        <ele>485</ele>
        <time>2022-02-24T07:22:22Z</time>
      </trkpt>
      <trkpt lat="46.55669" lon="5.66126">
        <ele>485</ele>
        <time>2022-02-24T07:22:23Z</time>
      </trkpt>
      <trkpt lat="46.55665" lon="5.66121">
        <ele>485</ele>
        <time>2022-02-24T07:22:24Z</time>
      </trkpt>
      <trkpt lat="46.55662" lon="5.66116">
        <ele>485.2</ele>
        <time>2022-02-24T07:22:25Z</time>
      </trkpt>
      <trkpt lat="46.55659" lon="5.66111">
        <ele>485.2</ele>
        <time>2022-02-24T07:22:26Z</time>
      </trkpt>
      <trkpt lat="46.55657" lon="5.66106">
        <ele>485.4</ele>
        <time>2022-02-24T07:22:27Z</time>
      </trkpt>
      <trkpt lat="46.55655" lon="5.661">
        <ele>485.4</ele>
        <time>2022-02-24T07:22:28Z</time>
      </trkpt>
      <trkpt lat="46.55653" lon="5.66094">
        <ele>485.6</ele>
        <time>2022-02-24T07:22:29Z</time>
      </trkpt>
      <trkpt lat="46.55651" lon="5.66088">
        <ele>486</ele>
        <time>2022-02-24T07:22:30Z</time>
      </trkpt>
      <trkpt lat="46.55649" lon="5.66083">
        <ele>486</ele>
        <time>2022-02-24T07:22:31Z</time>
      </trkpt>
      <trkpt lat="46.55648" lon="5.66077">
        <ele>486</ele>
        <time>2022-02-24T07:22:32Z</time>
      </trkpt>
      <trkpt lat="46.55647" lon="5.66071">
        <ele>486.2</ele>
        <time>2022-02-24T07:22:33Z</time>
      </trkpt>
      <trkpt lat="46.55646" lon="5.66065">
        <ele>486.2</ele>
        <time>2022-02-24T07:22:34Z</time>
      </trkpt>
      <trkpt lat="46.55646" lon="5.66059">
        <ele>486.4</ele>
        <time>2022-02-24T07:22:35Z</time>
      </trkpt>
      <trkpt lat="46.55646" lon="5.66053">
        <ele>486.8</ele>
        <time>2022-02-24T07:22:36Z</time>
      </trkpt>
      <trkpt lat="46.55646" lon="5.66047">
        <ele>487</ele>
        <time>2022-02-24T07:22:37Z</time>
      </trkpt>
      <trkpt lat="46.55646" lon="5.66041">
        <ele>487</ele>
        <time>2022-02-24T07:22:38Z</time>
      </trkpt>
      <trkpt lat="46.55647" lon="5.66036">
        <ele>487.2</ele>
        <time>2022-02-24T07:22:39Z</time>
      </trkpt>
      <trkpt lat="46.55647" lon="5.6603">
        <ele>487.6</ele>
        <time>2022-02-24T07:22:40Z</time>
      </trkpt>
      <trkpt lat="46.55648" lon="5.66024">
        <ele>487.8</ele>
        <time>2022-02-24T07:22:41Z</time>
      </trkpt>
      <trkpt lat="46.55649" lon="5.66019">
        <ele>487.8</ele>
        <time>2022-02-24T07:22:42Z</time>
      </trkpt>
      <trkpt lat="46.55651" lon="5.66013">
        <ele>488.2</ele>
        <time>2022-02-24T07:22:43Z</time>
      </trkpt>
      <trkpt lat="46.55652" lon="5.66008">
        <ele>488.4</ele>
        <time>2022-02-24T07:22:44Z</time>
      </trkpt>
      <trkpt lat="46.55654" lon="5.66003">
        <ele>488.8</ele>
        <time>2022-02-24T07:22:45Z</time>
      </trkpt>
      <trkpt lat="46.55655" lon="5.65998">
        <ele>489</ele>
        <time>2022-02-24T07:22:46Z</time>
      </trkpt>
      <trkpt lat="46.55657" lon="5.65994">
        <ele>489.2</ele>
        <time>2022-02-24T07:22:47Z</time>
      </trkpt>
      <trkpt lat="46.55659" lon="5.65988">
        <ele>489.6</ele>
        <time>2022-02-24T07:22:48Z</time>
      </trkpt>
      <trkpt lat="46.5566" lon="5.65983">
        <ele>489.8</ele>
        <time>2022-02-24T07:22:49Z</time>
      </trkpt>
      <trkpt lat="46.55662" lon="5.65978">
        <ele>490.2</ele>
        <time>2022-02-24T07:22:50Z</time>
      </trkpt>
      <trkpt lat="46.55664" lon="5.65974">
        <ele>490.4</ele>
        <time>2022-02-24T07:22:51Z</time>
      </trkpt>
      <trkpt lat="46.55666" lon="5.6597">
        <ele>490.8</ele>
        <time>2022-02-24T07:22:52Z</time>
      </trkpt>
      <trkpt lat="46.55668" lon="5.65965">
        <ele>491</ele>
        <time>2022-02-24T07:22:53Z</time>
      </trkpt>
      <trkpt lat="46.5567" lon="5.65961">
        <ele>491.2</ele>
        <time>2022-02-24T07:22:54Z</time>
      </trkpt>
      <trkpt lat="46.55671" lon="5.65956">
        <ele>491.6</ele>
        <time>2022-02-24T07:22:55Z</time>
      </trkpt>
      <trkpt lat="46.55673" lon="5.65952">
        <ele>491.6</ele>
        <time>2022-02-24T07:22:56Z</time>
      </trkpt>
      <trkpt lat="46.55674" lon="5.65947">
        <ele>492</ele>
        <time>2022-02-24T07:22:57Z</time>
      </trkpt>
      <trkpt lat="46.55676" lon="5.65943">
        <ele>492.2</ele>
        <time>2022-02-24T07:22:58Z</time>
      </trkpt>
      <trkpt lat="46.55677" lon="5.65938">
        <ele>492.4</ele>
        <time>2022-02-24T07:22:59Z</time>
      </trkpt>
      <trkpt lat="46.55679" lon="5.65934">
        <ele>492.6</ele>
        <time>2022-02-24T07:23:00Z</time>
      </trkpt>
      <trkpt lat="46.5568" lon="5.65929">
        <ele>493</ele>
        <time>2022-02-24T07:23:01Z</time>
      </trkpt>
      <trkpt lat="46.55681" lon="5.65924">
        <ele>493.2</ele>
        <time>2022-02-24T07:23:02Z</time>
      </trkpt>
      <trkpt lat="46.55682" lon="5.6592">
        <ele>493.6</ele>
        <time>2022-02-24T07:23:03Z</time>
      </trkpt>
      <trkpt lat="46.55683" lon="5.65915">
        <ele>493.8</ele>
        <time>2022-02-24T07:23:04Z</time>
      </trkpt>
      <trkpt lat="46.55683" lon="5.6591">
        <ele>493.8</ele>
        <time>2022-02-24T07:23:05Z</time>
      </trkpt>
      <trkpt lat="46.55684" lon="5.65905">
        <ele>494.2</ele>
        <time>2022-02-24T07:23:06Z</time>
      </trkpt>
      <trkpt lat="46.55684" lon="5.65901">
        <ele>494.2</ele>
        <time>2022-02-24T07:23:07Z</time>
      </trkpt>
      <trkpt lat="46.55684" lon="5.65896">
        <ele>494.6</ele>
        <time>2022-02-24T07:23:08Z</time>
      </trkpt>
      <trkpt lat="46.55684" lon="5.65891">
        <ele>494.8</ele>
        <time>2022-02-24T07:23:09Z</time>
      </trkpt>
      <trkpt lat="46.55683" lon="5.65886">
        <ele>494.8</ele>
        <time>2022-02-24T07:23:10Z</time>
      </trkpt>
      <trkpt lat="46.55683" lon="5.6588">
        <ele>495.2</ele>
        <time>2022-02-24T07:23:11Z</time>
      </trkpt>
      <trkpt lat="46.55681" lon="5.65874">
        <ele>495.4</ele>
        <time>2022-02-24T07:23:12Z</time>
      </trkpt>
      <trkpt lat="46.5568" lon="5.65869">
        <ele>495.6</ele>
        <time>2022-02-24T07:23:13Z</time>
      </trkpt>
      <trkpt lat="46.55679" lon="5.65864">
        <ele>496</ele>
        <time>2022-02-24T07:23:14Z</time>
      </trkpt>
      <trkpt lat="46.55677" lon="5.65858">
        <ele>496.4</ele>
        <time>2022-02-24T07:23:15Z</time>
      </trkpt>
      <trkpt lat="46.55675" lon="5.65854">
        <ele>496.6</ele>
        <time>2022-02-24T07:23:16Z</time>
      </trkpt>
      <trkpt lat="46.55673" lon="5.65849">
        <ele>497</ele>
        <time>2022-02-24T07:23:17Z</time>
      </trkpt>
      <trkpt lat="46.55671" lon="5.65845">
        <ele>497.2</ele>
        <time>2022-02-24T07:23:18Z</time>
      </trkpt>
      <trkpt lat="46.55668" lon="5.65841">
        <ele>497.6</ele>
        <time>2022-02-24T07:23:19Z</time>
      </trkpt>
      <trkpt lat="46.55665" lon="5.65837">
        <ele>498</ele>
        <time>2022-02-24T07:23:20Z</time>
      </trkpt>
      <trkpt lat="46.55662" lon="5.65834">
        <ele>498.2</ele>
        <time>2022-02-24T07:23:21Z</time>
      </trkpt>
      <trkpt lat="46.55659" lon="5.6583">
        <ele>498.2</ele>
        <time>2022-02-24T07:23:22Z</time>
      </trkpt>
      <trkpt lat="46.55656" lon="5.65827">
        <ele>498.4</ele>
        <time>2022-02-24T07:23:23Z</time>
      </trkpt>
      <trkpt lat="46.55653" lon="5.65824">
        <ele>498.6</ele>
        <time>2022-02-24T07:23:24Z</time>
      </trkpt>
      <trkpt lat="46.5565" lon="5.65821">
        <ele>498.8</ele>
        <time>2022-02-24T07:23:25Z</time>
      </trkpt>
      <trkpt lat="46.55647" lon="5.65819">
        <ele>499.2</ele>
        <time>2022-02-24T07:23:26Z</time>
      </trkpt>
      <trkpt lat="46.55643" lon="5.65817">
        <ele>499.4</ele>
        <time>2022-02-24T07:23:27Z</time>
      </trkpt>
      <trkpt lat="46.5564" lon="5.65815">
        <ele>499.4</ele>
        <time>2022-02-24T07:23:28Z</time>
      </trkpt>
      <trkpt lat="46.55636" lon="5.65813">
        <ele>499.8</ele>
        <time>2022-02-24T07:23:29Z</time>
      </trkpt>
      <trkpt lat="46.55633" lon="5.65811">
        <ele>500</ele>
        <time>2022-02-24T07:23:30Z</time>
      </trkpt>
      <trkpt lat="46.5563" lon="5.65809">
        <ele>500</ele>
        <time>2022-02-24T07:23:31Z</time>
      </trkpt>
      <trkpt lat="46.55626" lon="5.65807">
        <ele>500.4</ele>
        <time>2022-02-24T07:23:32Z</time>
      </trkpt>
      <trkpt lat="46.55623" lon="5.65805">
        <ele>500.4</ele>
        <time>2022-02-24T07:23:33Z</time>
      </trkpt>
      <trkpt lat="46.5562" lon="5.65803">
        <ele>500.8</ele>
        <time>2022-02-24T07:23:34Z</time>
      </trkpt>
      <trkpt lat="46.55616" lon="5.65802">
        <ele>500.8</ele>
        <time>2022-02-24T07:23:35Z</time>
      </trkpt>
      <trkpt lat="46.55613" lon="5.658">
        <ele>501</ele>
        <time>2022-02-24T07:23:36Z</time>
      </trkpt>
      <trkpt lat="46.5561" lon="5.65798">
        <ele>501</ele>
        <time>2022-02-24T07:23:37Z</time>
      </trkpt>
      <trkpt lat="46.55607" lon="5.65796">
        <ele>501.2</ele>
        <time>2022-02-24T07:23:38Z</time>
      </trkpt>
      <trkpt lat="46.55603" lon="5.65794">
        <ele>501.2</ele>
        <time>2022-02-24T07:23:39Z</time>
      </trkpt>
      <trkpt lat="46.556" lon="5.65792">
        <ele>501.6</ele>
        <time>2022-02-24T07:23:40Z</time>
      </trkpt>
      <trkpt lat="46.55597" lon="5.6579">
        <ele>501.8</ele>
        <time>2022-02-24T07:23:41Z</time>
      </trkpt>
      <trkpt lat="46.55593" lon="5.65788">
        <ele>502</ele>
        <time>2022-02-24T07:23:42Z</time>
      </trkpt>
      <trkpt lat="46.5559" lon="5.65786">
        <ele>502</ele>
        <time>2022-02-24T07:23:43Z</time>
      </trkpt>
      <trkpt lat="46.55587" lon="5.65784">
        <ele>502.4</ele>
        <time>2022-02-24T07:23:44Z</time>
      </trkpt>
      <trkpt lat="46.55584" lon="5.65782">
        <ele>502.6</ele>
        <time>2022-02-24T07:23:45Z</time>
      </trkpt>
      <trkpt lat="46.5558" lon="5.6578">
        <ele>502.8</ele>
        <time>2022-02-24T07:23:46Z</time>
      </trkpt>
      <trkpt lat="46.55577" lon="5.65778">
        <ele>502.8</ele>
        <time>2022-02-24T07:23:47Z</time>
      </trkpt>
      <trkpt lat="46.55577" lon="5.65778">
        <ele>503.2</ele>
        <time>2022-02-24T07:23:48Z</time>
      </trkpt>
      <trkpt lat="46.55574" lon="5.65776">
        <ele>503.2</ele>
        <time>2022-02-24T07:23:49Z</time>
      </trkpt>
      <trkpt lat="46.5557" lon="5.65774">
        <ele>503.6</ele>
        <time>2022-02-24T07:23:50Z</time>
      </trkpt>
      <trkpt lat="46.55567" lon="5.65772">
        <ele>503.8</ele>
        <time>2022-02-24T07:23:51Z</time>
      </trkpt>
      <trkpt lat="46.55564" lon="5.6577">
        <ele>503.8</ele>
        <time>2022-02-24T07:23:52Z</time>
      </trkpt>
      <trkpt lat="46.55561" lon="5.65768">
        <ele>504.2</ele>
        <time>2022-02-24T07:23:53Z</time>
      </trkpt>
      <trkpt lat="46.55557" lon="5.65766">
        <ele>504.4</ele>
        <time>2022-02-24T07:23:54Z</time>
      </trkpt>
      <trkpt lat="46.55554" lon="5.65763">
        <ele>504.8</ele>
        <time>2022-02-24T07:23:55Z</time>
      </trkpt>
      <trkpt lat="46.55551" lon="5.65761">
        <ele>505</ele>
        <time>2022-02-24T07:23:56Z</time>
      </trkpt>
      <trkpt lat="46.55548" lon="5.65759">
        <ele>505.2</ele>
        <time>2022-02-24T07:23:57Z</time>
      </trkpt>
      <trkpt lat="46.55544" lon="5.65757">
        <ele>505.2</ele>
        <time>2022-02-24T07:23:58Z</time>
      </trkpt>
      <trkpt lat="46.55541" lon="5.65754">
        <ele>505.6</ele>
        <time>2022-02-24T07:23:59Z</time>
      </trkpt>
      <trkpt lat="46.55538" lon="5.65752">
        <ele>505.6</ele>
        <time>2022-02-24T07:24:00Z</time>
      </trkpt>
      <trkpt lat="46.55535" lon="5.6575">
        <ele>505.8</ele>
        <time>2022-02-24T07:24:01Z</time>
      </trkpt>
      <trkpt lat="46.55532" lon="5.65748">
        <ele>505.8</ele>
        <time>2022-02-24T07:24:02Z</time>
      </trkpt>
      <trkpt lat="46.55528" lon="5.65745">
        <ele>506.2</ele>
        <time>2022-02-24T07:24:03Z</time>
      </trkpt>
      <trkpt lat="46.55525" lon="5.65743">
        <ele>506.4</ele>
        <time>2022-02-24T07:24:04Z</time>
      </trkpt>
      <trkpt lat="46.55522" lon="5.65741">
        <ele>506.8</ele>
        <time>2022-02-24T07:24:05Z</time>
      </trkpt>
      <trkpt lat="46.55519" lon="5.65739">
        <ele>507.2</ele>
        <time>2022-02-24T07:24:06Z</time>
      </trkpt>
      <trkpt lat="46.55516" lon="5.65737">
        <ele>507.4</ele>
        <time>2022-02-24T07:24:07Z</time>
      </trkpt>
      <trkpt lat="46.55512" lon="5.65734">
        <ele>507.8</ele>
        <time>2022-02-24T07:24:08Z</time>
      </trkpt>
      <trkpt lat="46.55509" lon="5.65732">
        <ele>507.8</ele>
        <time>2022-02-24T07:24:09Z</time>
      </trkpt>
      <trkpt lat="46.55506" lon="5.6573">
        <ele>508.2</ele>
        <time>2022-02-24T07:24:10Z</time>
      </trkpt>
      <trkpt lat="46.55503" lon="5.65727">
        <ele>508.6</ele>
        <time>2022-02-24T07:24:11Z</time>
      </trkpt>
      <trkpt lat="46.55499" lon="5.65725">
        <ele>508.6</ele>
        <time>2022-02-24T07:24:12Z</time>
      </trkpt>
      <trkpt lat="46.55496" lon="5.65723">
        <ele>508.8</ele>
        <time>2022-02-24T07:24:13Z</time>
      </trkpt>
      <trkpt lat="46.55492" lon="5.6572">
        <ele>508.8</ele>
        <time>2022-02-24T07:24:14Z</time>
      </trkpt>
      <trkpt lat="46.55489" lon="5.65718">
        <ele>509.2</ele>
        <time>2022-02-24T07:24:15Z</time>
      </trkpt>
      <trkpt lat="46.55485" lon="5.65715">
        <ele>509.2</ele>
        <time>2022-02-24T07:24:16Z</time>
      </trkpt>
      <trkpt lat="46.55482" lon="5.65713">
        <ele>509.6</ele>
        <time>2022-02-24T07:24:17Z</time>
      </trkpt>
      <trkpt lat="46.55478" lon="5.65711">
        <ele>509.6</ele>
        <time>2022-02-24T07:24:18Z</time>
      </trkpt>
      <trkpt lat="46.55475" lon="5.65708">
        <ele>509.8</ele>
        <time>2022-02-24T07:24:19Z</time>
      </trkpt>
      <trkpt lat="46.55471" lon="5.65706">
        <ele>509.8</ele>
        <time>2022-02-24T07:24:20Z</time>
      </trkpt>
      <trkpt lat="46.55468" lon="5.65703">
        <ele>510.4</ele>
        <time>2022-02-24T07:24:21Z</time>
      </trkpt>
      <trkpt lat="46.55464" lon="5.65701">
        <ele>510.6</ele>
        <time>2022-02-24T07:24:22Z</time>
      </trkpt>
      <trkpt lat="46.5546" lon="5.65698">
        <ele>510.8</ele>
        <time>2022-02-24T07:24:23Z</time>
      </trkpt>
      <trkpt lat="46.55456" lon="5.65696">
        <ele>510.8</ele>
        <time>2022-02-24T07:24:24Z</time>
      </trkpt>
      <trkpt lat="46.55453" lon="5.65693">
        <ele>511.2</ele>
        <time>2022-02-24T07:24:25Z</time>
      </trkpt>
      <trkpt lat="46.55449" lon="5.6569">
        <ele>511.2</ele>
        <time>2022-02-24T07:24:26Z</time>
      </trkpt>
      <trkpt lat="46.55445" lon="5.65688">
        <ele>511.4</ele>
        <time>2022-02-24T07:24:27Z</time>
      </trkpt>
      <trkpt lat="46.55441" lon="5.65685">
        <ele>511.4</ele>
        <time>2022-02-24T07:24:28Z</time>
      </trkpt>
      <trkpt lat="46.55437" lon="5.65682">
        <ele>511.8</ele>
        <time>2022-02-24T07:24:29Z</time>
      </trkpt>
      <trkpt lat="46.55434" lon="5.6568">
        <ele>511.8</ele>
        <time>2022-02-24T07:24:30Z</time>
      </trkpt>
      <trkpt lat="46.5543" lon="5.65677">
        <ele>512.2</ele>
        <time>2022-02-24T07:24:31Z</time>
      </trkpt>
      <trkpt lat="46.55426" lon="5.65675">
        <ele>512.2</ele>
        <time>2022-02-24T07:24:32Z</time>
      </trkpt>
      <trkpt lat="46.55422" lon="5.65673">
        <ele>512.4</ele>
        <time>2022-02-24T07:24:33Z</time>
      </trkpt>
      <trkpt lat="46.55418" lon="5.6567">
        <ele>512.4</ele>
        <time>2022-02-24T07:24:34Z</time>
      </trkpt>
      <trkpt lat="46.55415" lon="5.65667">
        <ele>512.8</ele>
        <time>2022-02-24T07:24:35Z</time>
      </trkpt>
      <trkpt lat="46.55411" lon="5.65665">
        <ele>513</ele>
        <time>2022-02-24T07:24:36Z</time>
      </trkpt>
      <trkpt lat="46.55407" lon="5.65662">
        <ele>513.2</ele>
        <time>2022-02-24T07:24:37Z</time>
      </trkpt>
      <trkpt lat="46.55404" lon="5.6566">
        <ele>513.2</ele>
        <time>2022-02-24T07:24:38Z</time>
      </trkpt>
      <trkpt lat="46.554" lon="5.65657">
        <ele>513.6</ele>
        <time>2022-02-24T07:24:39Z</time>
      </trkpt>
      <trkpt lat="46.55397" lon="5.65655">
        <ele>513.6</ele>
        <time>2022-02-24T07:24:40Z</time>
      </trkpt>
      <trkpt lat="46.55393" lon="5.65653">
        <ele>513.8</ele>
        <time>2022-02-24T07:24:41Z</time>
      </trkpt>
      <trkpt lat="46.55389" lon="5.6565">
        <ele>513.8</ele>
        <time>2022-02-24T07:24:42Z</time>
      </trkpt>
      <trkpt lat="46.55386" lon="5.65648">
        <ele>514.2</ele>
        <time>2022-02-24T07:24:43Z</time>
      </trkpt>
      <trkpt lat="46.55382" lon="5.65646">
        <ele>514.2</ele>
        <time>2022-02-24T07:24:44Z</time>
      </trkpt>
      <trkpt lat="46.55378" lon="5.65644">
        <ele>514.4</ele>
        <time>2022-02-24T07:24:45Z</time>
      </trkpt>
      <trkpt lat="46.55374" lon="5.65642">
        <ele>514.6</ele>
        <time>2022-02-24T07:24:46Z</time>
      </trkpt>
      <trkpt lat="46.55371" lon="5.6564">
        <ele>514.6</ele>
        <time>2022-02-24T07:24:47Z</time>
      </trkpt>
      <trkpt lat="46.55367" lon="5.65638">
        <ele>515</ele>
        <time>2022-02-24T07:24:48Z</time>
      </trkpt>
      <trkpt lat="46.55363" lon="5.65636">
        <ele>515</ele>
        <time>2022-02-24T07:24:49Z</time>
      </trkpt>
      <trkpt lat="46.55359" lon="5.65634">
        <ele>515.2</ele>
        <time>2022-02-24T07:24:50Z</time>
      </trkpt>
      <trkpt lat="46.55355" lon="5.65632">
        <ele>515.2</ele>
        <time>2022-02-24T07:24:51Z</time>
      </trkpt>
      <trkpt lat="46.55351" lon="5.6563">
        <ele>515.6</ele>
        <time>2022-02-24T07:24:52Z</time>
      </trkpt>
      <trkpt lat="46.55348" lon="5.65628">
        <ele>515.6</ele>
        <time>2022-02-24T07:24:53Z</time>
      </trkpt>
      <trkpt lat="46.55344" lon="5.65626">
        <ele>515.8</ele>
        <time>2022-02-24T07:24:54Z</time>
      </trkpt>
      <trkpt lat="46.5534" lon="5.65624">
        <ele>516</ele>
        <time>2022-02-24T07:24:55Z</time>
      </trkpt>
      <trkpt lat="46.55336" lon="5.65622">
        <ele>516.2</ele>
        <time>2022-02-24T07:24:56Z</time>
      </trkpt>
      <trkpt lat="46.55332" lon="5.65619">
        <ele>516.4</ele>
        <time>2022-02-24T07:24:57Z</time>
      </trkpt>
      <trkpt lat="46.55328" lon="5.65617">
        <ele>516.4</ele>
        <time>2022-02-24T07:24:58Z</time>
      </trkpt>
      <trkpt lat="46.55324" lon="5.65615">
        <ele>516.8</ele>
        <time>2022-02-24T07:24:59Z</time>
      </trkpt>
      <trkpt lat="46.55321" lon="5.65612">
        <ele>516.8</ele>
        <time>2022-02-24T07:25:00Z</time>
      </trkpt>
      <trkpt lat="46.55317" lon="5.6561">
        <ele>517</ele>
        <time>2022-02-24T07:25:01Z</time>
      </trkpt>
      <trkpt lat="46.55314" lon="5.65607">
        <ele>517.2</ele>
        <time>2022-02-24T07:25:02Z</time>
      </trkpt>
      <trkpt lat="46.5531" lon="5.65605">
        <ele>517.2</ele>
        <time>2022-02-24T07:25:03Z</time>
      </trkpt>
      <trkpt lat="46.55306" lon="5.65602">
        <ele>517.4</ele>
        <time>2022-02-24T07:25:04Z</time>
      </trkpt>
      <trkpt lat="46.55303" lon="5.656">
        <ele>517.4</ele>
        <time>2022-02-24T07:25:05Z</time>
      </trkpt>
      <trkpt lat="46.55299" lon="5.65597">
        <ele>517.4</ele>
        <time>2022-02-24T07:25:06Z</time>
      </trkpt>
      <trkpt lat="46.55296" lon="5.65595">
        <ele>517.8</ele>
        <time>2022-02-24T07:25:07Z</time>
      </trkpt>
      <trkpt lat="46.55292" lon="5.65592">
        <ele>518</ele>
        <time>2022-02-24T07:25:08Z</time>
      </trkpt>
      <trkpt lat="46.55289" lon="5.6559">
        <ele>518</ele>
        <time>2022-02-24T07:25:09Z</time>
      </trkpt>
      <trkpt lat="46.55285" lon="5.65587">
        <ele>518.4</ele>
        <time>2022-02-24T07:25:10Z</time>
      </trkpt>
      <trkpt lat="46.55282" lon="5.65585">
        <ele>518.4</ele>
        <time>2022-02-24T07:25:11Z</time>
      </trkpt>
      <trkpt lat="46.55278" lon="5.65582">
        <ele>518.8</ele>
        <time>2022-02-24T07:25:12Z</time>
      </trkpt>
      <trkpt lat="46.55275" lon="5.6558">
        <ele>518.8</ele>
        <time>2022-02-24T07:25:13Z</time>
      </trkpt>
      <trkpt lat="46.55271" lon="5.65578">
        <ele>519</ele>
        <time>2022-02-24T07:25:14Z</time>
      </trkpt>
      <trkpt lat="46.55268" lon="5.65575">
        <ele>519</ele>
        <time>2022-02-24T07:25:15Z</time>
      </trkpt>
      <trkpt lat="46.55264" lon="5.65573">
        <ele>519.4</ele>
        <time>2022-02-24T07:25:16Z</time>
      </trkpt>
      <trkpt lat="46.55261" lon="5.6557">
        <ele>519.4</ele>
        <time>2022-02-24T07:25:17Z</time>
      </trkpt>
      <trkpt lat="46.55257" lon="5.65568">
        <ele>519.6</ele>
        <time>2022-02-24T07:25:18Z</time>
      </trkpt>
      <trkpt lat="46.55254" lon="5.65565">
        <ele>519.6</ele>
        <time>2022-02-24T07:25:19Z</time>
      </trkpt>
      <trkpt lat="46.5525" lon="5.65562">
        <ele>520</ele>
        <time>2022-02-24T07:25:20Z</time>
      </trkpt>
      <trkpt lat="46.55246" lon="5.6556">
        <ele>520.2</ele>
        <time>2022-02-24T07:25:21Z</time>
      </trkpt>
      <trkpt lat="46.55243" lon="5.65558">
        <ele>520.4</ele>
        <time>2022-02-24T07:25:22Z</time>
      </trkpt>
      <trkpt lat="46.55239" lon="5.65555">
        <ele>520.8</ele>
        <time>2022-02-24T07:25:23Z</time>
      </trkpt>
      <trkpt lat="46.55236" lon="5.65553">
        <ele>520.8</ele>
        <time>2022-02-24T07:25:24Z</time>
      </trkpt>
      <trkpt lat="46.55232" lon="5.65551">
        <ele>521</ele>
        <time>2022-02-24T07:25:25Z</time>
      </trkpt>
      <trkpt lat="46.55229" lon="5.65548">
        <ele>521</ele>
        <time>2022-02-24T07:25:26Z</time>
      </trkpt>
      <trkpt lat="46.55225" lon="5.65546">
        <ele>521.4</ele>
        <time>2022-02-24T07:25:27Z</time>
      </trkpt>
      <trkpt lat="46.55222" lon="5.65543">
        <ele>521.6</ele>
        <time>2022-02-24T07:25:28Z</time>
      </trkpt>
      <trkpt lat="46.55218" lon="5.65541">
        <ele>522</ele>
        <time>2022-02-24T07:25:29Z</time>
      </trkpt>
      <trkpt lat="46.55215" lon="5.65539">
        <ele>522.2</ele>
        <time>2022-02-24T07:25:30Z</time>
      </trkpt>
      <trkpt lat="46.55211" lon="5.65537">
        <ele>522.4</ele>
        <time>2022-02-24T07:25:31Z</time>
      </trkpt>
      <trkpt lat="46.55207" lon="5.65535">
        <ele>522.4</ele>
        <time>2022-02-24T07:25:32Z</time>
      </trkpt>
      <trkpt lat="46.55204" lon="5.65533">
        <ele>522.6</ele>
        <time>2022-02-24T07:25:33Z</time>
      </trkpt>
      <trkpt lat="46.552" lon="5.6553">
        <ele>522.6</ele>
        <time>2022-02-24T07:25:34Z</time>
      </trkpt>
      <trkpt lat="46.55197" lon="5.65528">
        <ele>522.8</ele>
        <time>2022-02-24T07:25:35Z</time>
      </trkpt>
      <trkpt lat="46.55193" lon="5.65525">
        <ele>522.8</ele>
        <time>2022-02-24T07:25:36Z</time>
      </trkpt>
      <trkpt lat="46.55189" lon="5.65523">
        <ele>523.2</ele>
        <time>2022-02-24T07:25:37Z</time>
      </trkpt>
      <trkpt lat="46.55185" lon="5.65521">
        <ele>523.2</ele>
        <time>2022-02-24T07:25:38Z</time>
      </trkpt>
      <trkpt lat="46.55181" lon="5.65519">
        <ele>523.4</ele>
        <time>2022-02-24T07:25:39Z</time>
      </trkpt>
      <trkpt lat="46.55177" lon="5.65518">
        <ele>523.6</ele>
        <time>2022-02-24T07:25:40Z</time>
      </trkpt>
      <trkpt lat="46.55173" lon="5.65516">
        <ele>523.6</ele>
        <time>2022-02-24T07:25:41Z</time>
      </trkpt>
      <trkpt lat="46.55169" lon="5.65515">
        <ele>523.8</ele>
        <time>2022-02-24T07:25:42Z</time>
      </trkpt>
      <trkpt lat="46.55165" lon="5.65514">
        <ele>523.8</ele>
        <time>2022-02-24T07:25:43Z</time>
      </trkpt>
      <trkpt lat="46.5516" lon="5.65513">
        <ele>523.8</ele>
        <time>2022-02-24T07:25:44Z</time>
      </trkpt>
      <trkpt lat="46.55156" lon="5.65511">
        <ele>523.8</ele>
        <time>2022-02-24T07:25:45Z</time>
      </trkpt>
      <trkpt lat="46.55151" lon="5.6551">
        <ele>523.8</ele>
        <time>2022-02-24T07:25:46Z</time>
      </trkpt>
      <trkpt lat="46.55146" lon="5.6551">
        <ele>523.8</ele>
        <time>2022-02-24T07:25:47Z</time>
      </trkpt>
      <trkpt lat="46.55142" lon="5.65509">
        <ele>524</ele>
        <time>2022-02-24T07:25:48Z</time>
      </trkpt>
      <trkpt lat="46.55137" lon="5.65508">
        <ele>524</ele>
        <time>2022-02-24T07:25:49Z</time>
      </trkpt>
      <trkpt lat="46.55132" lon="5.65507">
        <ele>524</ele>
        <time>2022-02-24T07:25:50Z</time>
      </trkpt>
      <trkpt lat="46.55128" lon="5.65506">
        <ele>524</ele>
        <time>2022-02-24T07:25:51Z</time>
      </trkpt>
      <trkpt lat="46.55123" lon="5.65505">
        <ele>524.4</ele>
        <time>2022-02-24T07:25:52Z</time>
      </trkpt>
      <trkpt lat="46.55118" lon="5.65504">
        <ele>524.4</ele>
        <time>2022-02-24T07:25:53Z</time>
      </trkpt>
      <trkpt lat="46.55114" lon="5.65503">
        <ele>524.4</ele>
        <time>2022-02-24T07:25:54Z</time>
      </trkpt>
      <trkpt lat="46.55109" lon="5.65502">
        <ele>524.4</ele>
        <time>2022-02-24T07:25:55Z</time>
      </trkpt>
      <trkpt lat="46.55104" lon="5.65502">
        <ele>524.6</ele>
        <time>2022-02-24T07:25:56Z</time>
      </trkpt>
      <trkpt lat="46.551" lon="5.65501">
        <ele>524.6</ele>
        <time>2022-02-24T07:25:57Z</time>
      </trkpt>
      <trkpt lat="46.55095" lon="5.655">
        <ele>524.8</ele>
        <time>2022-02-24T07:25:58Z</time>
      </trkpt>
      <trkpt lat="46.5509" lon="5.65499">
        <ele>524.8</ele>
        <time>2022-02-24T07:25:59Z</time>
      </trkpt>
      <trkpt lat="46.55085" lon="5.65498">
        <ele>525.2</ele>
        <time>2022-02-24T07:26:00Z</time>
      </trkpt>
      <trkpt lat="46.5508" lon="5.65497">
        <ele>525.2</ele>
        <time>2022-02-24T07:26:01Z</time>
      </trkpt>
      <trkpt lat="46.55076" lon="5.65496">
        <ele>525.4</ele>
        <time>2022-02-24T07:26:02Z</time>
      </trkpt>
      <trkpt lat="46.55071" lon="5.65495">
        <ele>525.4</ele>
        <time>2022-02-24T07:26:03Z</time>
      </trkpt>
      <trkpt lat="46.55066" lon="5.65494">
        <ele>525.4</ele>
        <time>2022-02-24T07:26:04Z</time>
      </trkpt>
      <trkpt lat="46.55062" lon="5.65493">
        <ele>525.6</ele>
        <time>2022-02-24T07:26:05Z</time>
      </trkpt>
      <trkpt lat="46.55057" lon="5.65492">
        <ele>525.6</ele>
        <time>2022-02-24T07:26:06Z</time>
      </trkpt>
      <trkpt lat="46.55052" lon="5.65491">
        <ele>525.6</ele>
        <time>2022-02-24T07:26:07Z</time>
      </trkpt>
      <trkpt lat="46.55047" lon="5.6549">
        <ele>525.6</ele>
        <time>2022-02-24T07:26:08Z</time>
      </trkpt>
      <trkpt lat="46.55043" lon="5.6549">
        <ele>525.8</ele>
        <time>2022-02-24T07:26:09Z</time>
      </trkpt>
      <trkpt lat="46.55033" lon="5.65488">
        <ele>525.8</ele>
        <time>2022-02-24T07:26:10Z</time>
      </trkpt>
      <trkpt lat="46.55028" lon="5.65487">
        <ele>525.8</ele>
        <time>2022-02-24T07:26:11Z</time>
      </trkpt>
      <trkpt lat="46.55024" lon="5.65486">
        <ele>525.8</ele>
        <time>2022-02-24T07:26:12Z</time>
      </trkpt>
      <trkpt lat="46.55019" lon="5.65485">
        <ele>526.2</ele>
        <time>2022-02-24T07:26:13Z</time>
      </trkpt>
      <trkpt lat="46.55014" lon="5.65484">
        <ele>526.2</ele>
        <time>2022-02-24T07:26:14Z</time>
      </trkpt>
      <trkpt lat="46.5501" lon="5.65483">
        <ele>526.4</ele>
        <time>2022-02-24T07:26:15Z</time>
      </trkpt>
      <trkpt lat="46.55005" lon="5.65482">
        <ele>526.4</ele>
        <time>2022-02-24T07:26:16Z</time>
      </trkpt>
      <trkpt lat="46.55001" lon="5.65482">
        <ele>526.6</ele>
        <time>2022-02-24T07:26:17Z</time>
      </trkpt>
      <trkpt lat="46.54996" lon="5.65481">
        <ele>526.6</ele>
        <time>2022-02-24T07:26:18Z</time>
      </trkpt>
      <trkpt lat="46.54991" lon="5.6548">
        <ele>526.8</ele>
        <time>2022-02-24T07:26:19Z</time>
      </trkpt>
      <trkpt lat="46.54987" lon="5.6548">
        <ele>526.8</ele>
        <time>2022-02-24T07:26:20Z</time>
      </trkpt>
      <trkpt lat="46.54982" lon="5.65479">
        <ele>526.8</ele>
        <time>2022-02-24T07:26:21Z</time>
      </trkpt>
      <trkpt lat="46.54977" lon="5.65479">
        <ele>527.2</ele>
        <time>2022-02-24T07:26:22Z</time>
      </trkpt>
      <trkpt lat="46.54973" lon="5.65479">
        <ele>527.2</ele>
        <time>2022-02-24T07:26:23Z</time>
      </trkpt>
      <trkpt lat="46.54968" lon="5.65479">
        <ele>527.2</ele>
        <time>2022-02-24T07:26:24Z</time>
      </trkpt>
      <trkpt lat="46.54964" lon="5.65479">
        <ele>527.4</ele>
        <time>2022-02-24T07:26:25Z</time>
      </trkpt>
      <trkpt lat="46.54959" lon="5.65479">
        <ele>527.4</ele>
        <time>2022-02-24T07:26:26Z</time>
      </trkpt>
      <trkpt lat="46.54955" lon="5.65479">
        <ele>527.6</ele>
        <time>2022-02-24T07:26:27Z</time>
      </trkpt>
      <trkpt lat="46.5495" lon="5.6548">
        <ele>527.6</ele>
        <time>2022-02-24T07:26:28Z</time>
      </trkpt>
      <trkpt lat="46.54945" lon="5.6548">
        <ele>527.8</ele>
        <time>2022-02-24T07:26:29Z</time>
      </trkpt>
      <trkpt lat="46.5494" lon="5.6548">
        <ele>527.8</ele>
        <time>2022-02-24T07:26:30Z</time>
      </trkpt>
      <trkpt lat="46.54936" lon="5.6548">
        <ele>527.8</ele>
        <time>2022-02-24T07:26:31Z</time>
      </trkpt>
      <trkpt lat="46.54931" lon="5.6548">
        <ele>528.2</ele>
        <time>2022-02-24T07:26:32Z</time>
      </trkpt>
      <trkpt lat="46.54927" lon="5.65481">
        <ele>528.2</ele>
        <time>2022-02-24T07:26:33Z</time>
      </trkpt>
      <trkpt lat="46.54922" lon="5.65481">
        <ele>528.2</ele>
        <time>2022-02-24T07:26:34Z</time>
      </trkpt>
      <trkpt lat="46.54917" lon="5.65481">
        <ele>528.6</ele>
        <time>2022-02-24T07:26:35Z</time>
      </trkpt>
      <trkpt lat="46.54913" lon="5.65481">
        <ele>528.6</ele>
        <time>2022-02-24T07:26:36Z</time>
      </trkpt>
      <trkpt lat="46.54908" lon="5.65482">
        <ele>528.6</ele>
        <time>2022-02-24T07:26:37Z</time>
      </trkpt>
      <trkpt lat="46.54904" lon="5.65482">
        <ele>528.6</ele>
        <time>2022-02-24T07:26:38Z</time>
      </trkpt>
      <trkpt lat="46.54899" lon="5.65483">
        <ele>528.6</ele>
        <time>2022-02-24T07:26:39Z</time>
      </trkpt>
      <trkpt lat="46.54894" lon="5.65483">
        <ele>528.8</ele>
        <time>2022-02-24T07:26:40Z</time>
      </trkpt>
      <trkpt lat="46.5489" lon="5.65483">
        <ele>528.8</ele>
        <time>2022-02-24T07:26:41Z</time>
      </trkpt>
      <trkpt lat="46.54885" lon="5.65483">
        <ele>528.8</ele>
        <time>2022-02-24T07:26:42Z</time>
      </trkpt>
      <trkpt lat="46.5488" lon="5.65483">
        <ele>529</ele>
        <time>2022-02-24T07:26:43Z</time>
      </trkpt>
      <trkpt lat="46.54875" lon="5.65483">
        <ele>529</ele>
        <time>2022-02-24T07:26:44Z</time>
      </trkpt>
      <trkpt lat="46.54871" lon="5.65483">
        <ele>529</ele>
        <time>2022-02-24T07:26:45Z</time>
      </trkpt>
      <trkpt lat="46.54866" lon="5.65483">
        <ele>529.2</ele>
        <time>2022-02-24T07:26:46Z</time>
      </trkpt>
      <trkpt lat="46.54861" lon="5.65483">
        <ele>529.2</ele>
        <time>2022-02-24T07:26:47Z</time>
      </trkpt>
      <trkpt lat="46.54856" lon="5.65483">
        <ele>529.2</ele>
        <time>2022-02-24T07:26:48Z</time>
      </trkpt>
      <trkpt lat="46.54852" lon="5.65483">
        <ele>529.2</ele>
        <time>2022-02-24T07:26:49Z</time>
      </trkpt>
      <trkpt lat="46.54847" lon="5.65483">
        <ele>529.2</ele>
        <time>2022-02-24T07:26:50Z</time>
      </trkpt>
      <trkpt lat="46.54842" lon="5.65483">
        <ele>529.2</ele>
        <time>2022-02-24T07:26:51Z</time>
      </trkpt>
      <trkpt lat="46.54838" lon="5.65483">
        <ele>529.4</ele>
        <time>2022-02-24T07:26:52Z</time>
      </trkpt>
      <trkpt lat="46.54833" lon="5.65483">
        <ele>529.4</ele>
        <time>2022-02-24T07:26:53Z</time>
      </trkpt>
      <trkpt lat="46.54829" lon="5.65484">
        <ele>529.4</ele>
        <time>2022-02-24T07:26:54Z</time>
      </trkpt>
      <trkpt lat="46.54824" lon="5.65484">
        <ele>529.4</ele>
        <time>2022-02-24T07:26:55Z</time>
      </trkpt>
      <trkpt lat="46.54819" lon="5.65484">
        <ele>529.8</ele>
        <time>2022-02-24T07:26:56Z</time>
      </trkpt>
      <trkpt lat="46.54815" lon="5.65484">
        <ele>529.8</ele>
        <time>2022-02-24T07:26:57Z</time>
      </trkpt>
      <trkpt lat="46.5481" lon="5.65484">
        <ele>529.8</ele>
        <time>2022-02-24T07:26:58Z</time>
      </trkpt>
      <trkpt lat="46.54806" lon="5.65484">
        <ele>530</ele>
        <time>2022-02-24T07:26:59Z</time>
      </trkpt>
      <trkpt lat="46.54801" lon="5.65484">
        <ele>530</ele>
        <time>2022-02-24T07:27:00Z</time>
      </trkpt>
      <trkpt lat="46.54797" lon="5.65484">
        <ele>530.2</ele>
        <time>2022-02-24T07:27:01Z</time>
      </trkpt>
      <trkpt lat="46.54792" lon="5.65484">
        <ele>530.2</ele>
        <time>2022-02-24T07:27:02Z</time>
      </trkpt>
      <trkpt lat="46.54788" lon="5.65485">
        <ele>530.4</ele>
        <time>2022-02-24T07:27:03Z</time>
      </trkpt>
      <trkpt lat="46.54783" lon="5.65485">
        <ele>530.4</ele>
        <time>2022-02-24T07:27:04Z</time>
      </trkpt>
      <trkpt lat="46.54779" lon="5.65486">
        <ele>530.8</ele>
        <time>2022-02-24T07:27:05Z</time>
      </trkpt>
      <trkpt lat="46.54774" lon="5.65487">
        <ele>530.8</ele>
        <time>2022-02-24T07:27:06Z</time>
      </trkpt>
      <trkpt lat="46.54769" lon="5.65488">
        <ele>530.8</ele>
        <time>2022-02-24T07:27:07Z</time>
      </trkpt>
      <trkpt lat="46.54764" lon="5.65489">
        <ele>530.8</ele>
        <time>2022-02-24T07:27:08Z</time>
      </trkpt>
      <trkpt lat="46.54759" lon="5.6549">
        <ele>531</ele>
        <time>2022-02-24T07:27:09Z</time>
      </trkpt>
      <trkpt lat="46.54754" lon="5.65491">
        <ele>531</ele>
        <time>2022-02-24T07:27:10Z</time>
      </trkpt>
      <trkpt lat="46.5475" lon="5.65493">
        <ele>531</ele>
        <time>2022-02-24T07:27:11Z</time>
      </trkpt>
      <trkpt lat="46.54745" lon="5.65494">
        <ele>531</ele>
        <time>2022-02-24T07:27:12Z</time>
      </trkpt>
      <trkpt lat="46.5474" lon="5.65495">
        <ele>531</ele>
        <time>2022-02-24T07:27:13Z</time>
      </trkpt>
      <trkpt lat="46.54734" lon="5.65497">
        <ele>531</ele>
        <time>2022-02-24T07:27:14Z</time>
      </trkpt>
      <trkpt lat="46.54729" lon="5.65498">
        <ele>531</ele>
        <time>2022-02-24T07:27:15Z</time>
      </trkpt>
      <trkpt lat="46.54723" lon="5.655">
        <ele>531</ele>
        <time>2022-02-24T07:27:16Z</time>
      </trkpt>
      <trkpt lat="46.54717" lon="5.65502">
        <ele>531</ele>
        <time>2022-02-24T07:27:17Z</time>
      </trkpt>
      <trkpt lat="46.5471" lon="5.65503">
        <ele>531</ele>
        <time>2022-02-24T07:27:18Z</time>
      </trkpt>
      <trkpt lat="46.54704" lon="5.65505">
        <ele>531</ele>
        <time>2022-02-24T07:27:19Z</time>
      </trkpt>
      <trkpt lat="46.54698" lon="5.65507">
        <ele>531</ele>
        <time>2022-02-24T07:27:20Z</time>
      </trkpt>
      <trkpt lat="46.54692" lon="5.65509">
        <ele>531</ele>
        <time>2022-02-24T07:27:21Z</time>
      </trkpt>
      <trkpt lat="46.54686" lon="5.6551">
        <ele>531</ele>
        <time>2022-02-24T07:27:22Z</time>
      </trkpt>
      <trkpt lat="46.54679" lon="5.65512">
        <ele>531</ele>
        <time>2022-02-24T07:27:23Z</time>
      </trkpt>
      <trkpt lat="46.54673" lon="5.65514">
        <ele>531</ele>
        <time>2022-02-24T07:27:24Z</time>
      </trkpt>
      <trkpt lat="46.54667" lon="5.65516">
        <ele>531</ele>
        <time>2022-02-24T07:27:25Z</time>
      </trkpt>
      <trkpt lat="46.54661" lon="5.65518">
        <ele>531</ele>
        <time>2022-02-24T07:27:26Z</time>
      </trkpt>
      <trkpt lat="46.54655" lon="5.6552">
        <ele>531</ele>
        <time>2022-02-24T07:27:27Z</time>
      </trkpt>
      <trkpt lat="46.54649" lon="5.65521">
        <ele>531</ele>
        <time>2022-02-24T07:27:28Z</time>
      </trkpt>
      <trkpt lat="46.54643" lon="5.65522">
        <ele>531</ele>
        <time>2022-02-24T07:27:29Z</time>
      </trkpt>
      <trkpt lat="46.54637" lon="5.65523">
        <ele>531</ele>
        <time>2022-02-24T07:27:30Z</time>
      </trkpt>
      <trkpt lat="46.54631" lon="5.65524">
        <ele>531</ele>
        <time>2022-02-24T07:27:31Z</time>
      </trkpt>
      <trkpt lat="46.54625" lon="5.65524">
        <ele>531</ele>
        <time>2022-02-24T07:27:32Z</time>
      </trkpt>
      <trkpt lat="46.54618" lon="5.65524">
        <ele>531</ele>
        <time>2022-02-24T07:27:33Z</time>
      </trkpt>
      <trkpt lat="46.54612" lon="5.65523">
        <ele>531</ele>
        <time>2022-02-24T07:27:34Z</time>
      </trkpt>
      <trkpt lat="46.54605" lon="5.65522">
        <ele>531</ele>
        <time>2022-02-24T07:27:35Z</time>
      </trkpt>
      <trkpt lat="46.54599" lon="5.6552">
        <ele>530.8</ele>
        <time>2022-02-24T07:27:36Z</time>
      </trkpt>
      <trkpt lat="46.54593" lon="5.65518">
        <ele>530.8</ele>
        <time>2022-02-24T07:27:37Z</time>
      </trkpt>
      <trkpt lat="46.54587" lon="5.65515">
        <ele>530.8</ele>
        <time>2022-02-24T07:27:38Z</time>
      </trkpt>
      <trkpt lat="46.54581" lon="5.65512">
        <ele>530.8</ele>
        <time>2022-02-24T07:27:39Z</time>
      </trkpt>
      <trkpt lat="46.54575" lon="5.65509">
        <ele>530.8</ele>
        <time>2022-02-24T07:27:40Z</time>
      </trkpt>
      <trkpt lat="46.54569" lon="5.65505">
        <ele>530.8</ele>
        <time>2022-02-24T07:27:41Z</time>
      </trkpt>
      <trkpt lat="46.54564" lon="5.65501">
        <ele>530.8</ele>
        <time>2022-02-24T07:27:42Z</time>
      </trkpt>
      <trkpt lat="46.54558" lon="5.65497">
        <ele>530.8</ele>
        <time>2022-02-24T07:27:43Z</time>
      </trkpt>
      <trkpt lat="46.54552" lon="5.65493">
        <ele>530.8</ele>
        <time>2022-02-24T07:27:44Z</time>
      </trkpt>
      <trkpt lat="46.54546" lon="5.65488">
        <ele>530.4</ele>
        <time>2022-02-24T07:27:45Z</time>
      </trkpt>
      <trkpt lat="46.5454" lon="5.65484">
        <ele>530.4</ele>
        <time>2022-02-24T07:27:46Z</time>
      </trkpt>
      <trkpt lat="46.54535" lon="5.6548">
        <ele>530.4</ele>
        <time>2022-02-24T07:27:47Z</time>
      </trkpt>
      <trkpt lat="46.54529" lon="5.65476">
        <ele>530.2</ele>
        <time>2022-02-24T07:27:48Z</time>
      </trkpt>
      <trkpt lat="46.54522" lon="5.65471">
        <ele>530.2</ele>
        <time>2022-02-24T07:27:49Z</time>
      </trkpt>
      <trkpt lat="46.54517" lon="5.65467">
        <ele>530.2</ele>
        <time>2022-02-24T07:27:50Z</time>
      </trkpt>
      <trkpt lat="46.54511" lon="5.65462">
        <ele>530.2</ele>
        <time>2022-02-24T07:27:51Z</time>
      </trkpt>
      <trkpt lat="46.54505" lon="5.65458">
        <ele>530.2</ele>
        <time>2022-02-24T07:27:52Z</time>
      </trkpt>
      <trkpt lat="46.54499" lon="5.65454">
        <ele>530</ele>
        <time>2022-02-24T07:27:53Z</time>
      </trkpt>
      <trkpt lat="46.54493" lon="5.6545">
        <ele>530</ele>
        <time>2022-02-24T07:27:54Z</time>
      </trkpt>
      <trkpt lat="46.54487" lon="5.65446">
        <ele>530</ele>
        <time>2022-02-24T07:27:55Z</time>
      </trkpt>
      <trkpt lat="46.54482" lon="5.65441">
        <ele>530</ele>
        <time>2022-02-24T07:27:56Z</time>
      </trkpt>
      <trkpt lat="46.54476" lon="5.65437">
        <ele>530.2</ele>
        <time>2022-02-24T07:27:57Z</time>
      </trkpt>
      <trkpt lat="46.54471" lon="5.65433">
        <ele>530.2</ele>
        <time>2022-02-24T07:27:58Z</time>
      </trkpt>
      <trkpt lat="46.54466" lon="5.6543">
        <ele>530.4</ele>
        <time>2022-02-24T07:27:59Z</time>
      </trkpt>
      <trkpt lat="46.54461" lon="5.65426">
        <ele>530.4</ele>
        <time>2022-02-24T07:28:00Z</time>
      </trkpt>
      <trkpt lat="46.54456" lon="5.65422">
        <ele>530.8</ele>
        <time>2022-02-24T07:28:01Z</time>
      </trkpt>
      <trkpt lat="46.54451" lon="5.65419">
        <ele>530.8</ele>
        <time>2022-02-24T07:28:02Z</time>
      </trkpt>
      <trkpt lat="46.54447" lon="5.65415">
        <ele>531.2</ele>
        <time>2022-02-24T07:28:03Z</time>
      </trkpt>
      <trkpt lat="46.54442" lon="5.65412">
        <ele>531.2</ele>
        <time>2022-02-24T07:28:04Z</time>
      </trkpt>
      <trkpt lat="46.54437" lon="5.65409">
        <ele>531.6</ele>
        <time>2022-02-24T07:28:05Z</time>
      </trkpt>
      <trkpt lat="46.54432" lon="5.65406">
        <ele>531.6</ele>
        <time>2022-02-24T07:28:06Z</time>
      </trkpt>
      <trkpt lat="46.54427" lon="5.65402">
        <ele>531.8</ele>
        <time>2022-02-24T07:28:07Z</time>
      </trkpt>
      <trkpt lat="46.54423" lon="5.65398">
        <ele>531.8</ele>
        <time>2022-02-24T07:28:08Z</time>
      </trkpt>
      <trkpt lat="46.54418" lon="5.65395">
        <ele>532.2</ele>
        <time>2022-02-24T07:28:09Z</time>
      </trkpt>
      <trkpt lat="46.54414" lon="5.65391">
        <ele>532.4</ele>
        <time>2022-02-24T07:28:10Z</time>
      </trkpt>
      <trkpt lat="46.54409" lon="5.65388">
        <ele>532.8</ele>
        <time>2022-02-24T07:28:11Z</time>
      </trkpt>
      <trkpt lat="46.54404" lon="5.65384">
        <ele>533</ele>
        <time>2022-02-24T07:28:12Z</time>
      </trkpt>
      <trkpt lat="46.544" lon="5.65381">
        <ele>533.4</ele>
        <time>2022-02-24T07:28:13Z</time>
      </trkpt>
      <trkpt lat="46.54396" lon="5.65377">
        <ele>533.6</ele>
        <time>2022-02-24T07:28:14Z</time>
      </trkpt>
      <trkpt lat="46.54392" lon="5.65372">
        <ele>533.8</ele>
        <time>2022-02-24T07:28:15Z</time>
      </trkpt>
      <trkpt lat="46.54387" lon="5.65368">
        <ele>534.2</ele>
        <time>2022-02-24T07:28:16Z</time>
      </trkpt>
      <trkpt lat="46.54383" lon="5.65364">
        <ele>534.4</ele>
        <time>2022-02-24T07:28:17Z</time>
      </trkpt>
      <trkpt lat="46.54379" lon="5.65361">
        <ele>534.8</ele>
        <time>2022-02-24T07:28:18Z</time>
      </trkpt>
      <trkpt lat="46.54375" lon="5.65356">
        <ele>535.2</ele>
        <time>2022-02-24T07:28:19Z</time>
      </trkpt>
      <trkpt lat="46.54372" lon="5.65352">
        <ele>535.4</ele>
        <time>2022-02-24T07:28:20Z</time>
      </trkpt>
      <trkpt lat="46.54368" lon="5.65347">
        <ele>535.8</ele>
        <time>2022-02-24T07:28:21Z</time>
      </trkpt>
      <trkpt lat="46.54364" lon="5.65343">
        <ele>536.2</ele>
        <time>2022-02-24T07:28:22Z</time>
      </trkpt>
      <trkpt lat="46.5436" lon="5.65339">
        <ele>536.4</ele>
        <time>2022-02-24T07:28:23Z</time>
      </trkpt>
      <trkpt lat="46.54357" lon="5.65335">
        <ele>536.8</ele>
        <time>2022-02-24T07:28:24Z</time>
      </trkpt>
      <trkpt lat="46.54352" lon="5.6533">
        <ele>537</ele>
        <time>2022-02-24T07:28:25Z</time>
      </trkpt>
      <trkpt lat="46.54348" lon="5.65326">
        <ele>537.2</ele>
        <time>2022-02-24T07:28:26Z</time>
      </trkpt>
      <trkpt lat="46.54344" lon="5.65322">
        <ele>537.4</ele>
        <time>2022-02-24T07:28:27Z</time>
      </trkpt>
      <trkpt lat="46.5434" lon="5.65317">
        <ele>537.8</ele>
        <time>2022-02-24T07:28:28Z</time>
      </trkpt>
      <trkpt lat="46.54337" lon="5.65313">
        <ele>538</ele>
        <time>2022-02-24T07:28:29Z</time>
      </trkpt>
      <trkpt lat="46.54333" lon="5.65308">
        <ele>538.2</ele>
        <time>2022-02-24T07:28:30Z</time>
      </trkpt>
      <trkpt lat="46.54333" lon="5.65308">
        <ele>538.6</ele>
        <time>2022-02-24T07:28:31Z</time>
      </trkpt>
      <trkpt lat="46.54329" lon="5.65304">
        <ele>538.8</ele>
        <time>2022-02-24T07:28:32Z</time>
      </trkpt>
      <trkpt lat="46.54325" lon="5.653">
        <ele>538.8</ele>
        <time>2022-02-24T07:28:33Z</time>
      </trkpt>
      <trkpt lat="46.54321" lon="5.65296">
        <ele>539</ele>
        <time>2022-02-24T07:28:34Z</time>
      </trkpt>
      <trkpt lat="46.54317" lon="5.65291">
        <ele>539</ele>
        <time>2022-02-24T07:28:35Z</time>
      </trkpt>
      <trkpt lat="46.54313" lon="5.65286">
        <ele>539.4</ele>
        <time>2022-02-24T07:28:36Z</time>
      </trkpt>
      <trkpt lat="46.54309" lon="5.65281">
        <ele>539.4</ele>
        <time>2022-02-24T07:28:37Z</time>
      </trkpt>
      <trkpt lat="46.54304" lon="5.65277">
        <ele>539.4</ele>
        <time>2022-02-24T07:28:38Z</time>
      </trkpt>
      <trkpt lat="46.543" lon="5.65272">
        <ele>539.8</ele>
        <time>2022-02-24T07:28:39Z</time>
      </trkpt>
      <trkpt lat="46.54295" lon="5.65267">
        <ele>540</ele>
        <time>2022-02-24T07:28:40Z</time>
      </trkpt>
      <trkpt lat="46.54291" lon="5.65263">
        <ele>540</ele>
        <time>2022-02-24T07:28:41Z</time>
      </trkpt>
      <trkpt lat="46.54287" lon="5.65258">
        <ele>540.2</ele>
        <time>2022-02-24T07:28:42Z</time>
      </trkpt>
      <trkpt lat="46.54283" lon="5.65253">
        <ele>540.2</ele>
        <time>2022-02-24T07:28:43Z</time>
      </trkpt>
      <trkpt lat="46.54279" lon="5.65248">
        <ele>540.4</ele>
        <time>2022-02-24T07:28:44Z</time>
      </trkpt>
      <trkpt lat="46.54275" lon="5.65243">
        <ele>540.4</ele>
        <time>2022-02-24T07:28:45Z</time>
      </trkpt>
      <trkpt lat="46.54271" lon="5.65238">
        <ele>540.8</ele>
        <time>2022-02-24T07:28:46Z</time>
      </trkpt>
      <trkpt lat="46.54267" lon="5.65233">
        <ele>540.8</ele>
        <time>2022-02-24T07:28:47Z</time>
      </trkpt>
      <trkpt lat="46.54263" lon="5.65228">
        <ele>541</ele>
        <time>2022-02-24T07:28:48Z</time>
      </trkpt>
      <trkpt lat="46.54259" lon="5.65223">
        <ele>541.4</ele>
        <time>2022-02-24T07:28:49Z</time>
      </trkpt>
      <trkpt lat="46.54254" lon="5.65218">
        <ele>541.4</ele>
        <time>2022-02-24T07:28:50Z</time>
      </trkpt>
      <trkpt lat="46.5425" lon="5.65213">
        <ele>541.6</ele>
        <time>2022-02-24T07:28:51Z</time>
      </trkpt>
      <trkpt lat="46.54247" lon="5.65208">
        <ele>541.6</ele>
        <time>2022-02-24T07:28:52Z</time>
      </trkpt>
      <trkpt lat="46.54243" lon="5.65203">
        <ele>542</ele>
        <time>2022-02-24T07:28:53Z</time>
      </trkpt>
      <trkpt lat="46.5424" lon="5.65198">
        <ele>542</ele>
        <time>2022-02-24T07:28:54Z</time>
      </trkpt>
      <trkpt lat="46.54236" lon="5.65194">
        <ele>542</ele>
        <time>2022-02-24T07:28:55Z</time>
      </trkpt>
      <trkpt lat="46.54232" lon="5.65189">
        <ele>542.2</ele>
        <time>2022-02-24T07:28:56Z</time>
      </trkpt>
      <trkpt lat="46.54229" lon="5.65184">
        <ele>542.2</ele>
        <time>2022-02-24T07:28:57Z</time>
      </trkpt>
      <trkpt lat="46.54225" lon="5.65178">
        <ele>542.2</ele>
        <time>2022-02-24T07:28:58Z</time>
      </trkpt>
      <trkpt lat="46.54221" lon="5.65173">
        <ele>542.2</ele>
        <time>2022-02-24T07:28:59Z</time>
      </trkpt>
      <trkpt lat="46.54217" lon="5.65167">
        <ele>542.2</ele>
        <time>2022-02-24T07:29:00Z</time>
      </trkpt>
      <trkpt lat="46.54212" lon="5.65161">
        <ele>542.2</ele>
        <time>2022-02-24T07:29:01Z</time>
      </trkpt>
      <trkpt lat="46.54208" lon="5.65155">
        <ele>542.2</ele>
        <time>2022-02-24T07:29:02Z</time>
      </trkpt>
      <trkpt lat="46.54204" lon="5.6515">
        <ele>542.2</ele>
        <time>2022-02-24T07:29:03Z</time>
      </trkpt>
      <trkpt lat="46.542" lon="5.65144">
        <ele>542.2</ele>
        <time>2022-02-24T07:29:04Z</time>
      </trkpt>
      <trkpt lat="46.54195" lon="5.65138">
        <ele>542.2</ele>
        <time>2022-02-24T07:29:05Z</time>
      </trkpt>
      <trkpt lat="46.54191" lon="5.65132">
        <ele>542.2</ele>
        <time>2022-02-24T07:29:06Z</time>
      </trkpt>
      <trkpt lat="46.54186" lon="5.65126">
        <ele>542</ele>
        <time>2022-02-24T07:29:07Z</time>
      </trkpt>
      <trkpt lat="46.54182" lon="5.6512">
        <ele>542</ele>
        <time>2022-02-24T07:29:08Z</time>
      </trkpt>
      <trkpt lat="46.54177" lon="5.65114">
        <ele>541.8</ele>
        <time>2022-02-24T07:29:09Z</time>
      </trkpt>
      <trkpt lat="46.54172" lon="5.65107">
        <ele>541.4</ele>
        <time>2022-02-24T07:29:10Z</time>
      </trkpt>
      <trkpt lat="46.54167" lon="5.65101">
        <ele>541.2</ele>
        <time>2022-02-24T07:29:11Z</time>
      </trkpt>
      <trkpt lat="46.54162" lon="5.65094">
        <ele>540.8</ele>
        <time>2022-02-24T07:29:12Z</time>
      </trkpt>
      <trkpt lat="46.54156" lon="5.65087">
        <ele>540.8</ele>
        <time>2022-02-24T07:29:13Z</time>
      </trkpt>
      <trkpt lat="46.5415" lon="5.6508">
        <ele>540.4</ele>
        <time>2022-02-24T07:29:14Z</time>
      </trkpt>
      <trkpt lat="46.54143" lon="5.65073">
        <ele>540.2</ele>
        <time>2022-02-24T07:29:15Z</time>
      </trkpt>
      <trkpt lat="46.54137" lon="5.65067">
        <ele>539.8</ele>
        <time>2022-02-24T07:29:16Z</time>
      </trkpt>
      <trkpt lat="46.5413" lon="5.65061">
        <ele>539.6</ele>
        <time>2022-02-24T07:29:17Z</time>
      </trkpt>
      <trkpt lat="46.54123" lon="5.65056">
        <ele>539.2</ele>
        <time>2022-02-24T07:29:18Z</time>
      </trkpt>
      <trkpt lat="46.54116" lon="5.6505">
        <ele>539.2</ele>
        <time>2022-02-24T07:29:19Z</time>
      </trkpt>
      <trkpt lat="46.5411" lon="5.65045">
        <ele>539</ele>
        <time>2022-02-24T07:29:20Z</time>
      </trkpt>
      <trkpt lat="46.54103" lon="5.65039">
        <ele>539</ele>
        <time>2022-02-24T07:29:21Z</time>
      </trkpt>
      <trkpt lat="46.54096" lon="5.65034">
        <ele>539</ele>
        <time>2022-02-24T07:29:22Z</time>
      </trkpt>
      <trkpt lat="46.5409" lon="5.65029">
        <ele>539</ele>
        <time>2022-02-24T07:29:23Z</time>
      </trkpt>
      <trkpt lat="46.54084" lon="5.65024">
        <ele>539</ele>
        <time>2022-02-24T07:29:24Z</time>
      </trkpt>
      <trkpt lat="46.54078" lon="5.65019">
        <ele>539</ele>
        <time>2022-02-24T07:29:25Z</time>
      </trkpt>
      <trkpt lat="46.54072" lon="5.65014">
        <ele>539.4</ele>
        <time>2022-02-24T07:29:26Z</time>
      </trkpt>
      <trkpt lat="46.54067" lon="5.6501">
        <ele>539.4</ele>
        <time>2022-02-24T07:29:27Z</time>
      </trkpt>
      <trkpt lat="46.54061" lon="5.65005">
        <ele>539.6</ele>
        <time>2022-02-24T07:29:28Z</time>
      </trkpt>
      <trkpt lat="46.54056" lon="5.65001">
        <ele>539.6</ele>
        <time>2022-02-24T07:29:29Z</time>
      </trkpt>
      <trkpt lat="46.5405" lon="5.64997">
        <ele>539.6</ele>
        <time>2022-02-24T07:29:30Z</time>
      </trkpt>
      <trkpt lat="46.54045" lon="5.64992">
        <ele>539.6</ele>
        <time>2022-02-24T07:29:31Z</time>
      </trkpt>
      <trkpt lat="46.54039" lon="5.64987">
        <ele>539.6</ele>
        <time>2022-02-24T07:29:32Z</time>
      </trkpt>
      <trkpt lat="46.54034" lon="5.64983">
        <ele>539.6</ele>
        <time>2022-02-24T07:29:33Z</time>
      </trkpt>
      <trkpt lat="46.54028" lon="5.64978">
        <ele>539.6</ele>
        <time>2022-02-24T07:29:34Z</time>
      </trkpt>
      <trkpt lat="46.54022" lon="5.64973">
        <ele>539.4</ele>
        <time>2022-02-24T07:29:35Z</time>
      </trkpt>
      <trkpt lat="46.54016" lon="5.64967">
        <ele>539</ele>
        <time>2022-02-24T07:29:36Z</time>
      </trkpt>
      <trkpt lat="46.54009" lon="5.64962">
        <ele>538.6</ele>
        <time>2022-02-24T07:29:37Z</time>
      </trkpt>
      <trkpt lat="46.54003" lon="5.64956">
        <ele>538.2</ele>
        <time>2022-02-24T07:29:38Z</time>
      </trkpt>
      <trkpt lat="46.53996" lon="5.6495">
        <ele>537.8</ele>
        <time>2022-02-24T07:29:39Z</time>
      </trkpt>
      <trkpt lat="46.53989" lon="5.64943">
        <ele>537.4</ele>
        <time>2022-02-24T07:29:40Z</time>
      </trkpt>
      <trkpt lat="46.53982" lon="5.64937">
        <ele>537</ele>
        <time>2022-02-24T07:29:41Z</time>
      </trkpt>
      <trkpt lat="46.53975" lon="5.64931">
        <ele>536.8</ele>
        <time>2022-02-24T07:29:42Z</time>
      </trkpt>
      <trkpt lat="46.53967" lon="5.64924">
        <ele>536.4</ele>
        <time>2022-02-24T07:29:43Z</time>
      </trkpt>
      <trkpt lat="46.5396" lon="5.64918">
        <ele>536</ele>
        <time>2022-02-24T07:29:44Z</time>
      </trkpt>
      <trkpt lat="46.53952" lon="5.64911">
        <ele>535.6</ele>
        <time>2022-02-24T07:29:45Z</time>
      </trkpt>
      <trkpt lat="46.53944" lon="5.64904">
        <ele>535.2</ele>
        <time>2022-02-24T07:29:46Z</time>
      </trkpt>
      <trkpt lat="46.53936" lon="5.64897">
        <ele>534.8</ele>
        <time>2022-02-24T07:29:47Z</time>
      </trkpt>
      <trkpt lat="46.53927" lon="5.6489">
        <ele>534.4</ele>
        <time>2022-02-24T07:29:48Z</time>
      </trkpt>
      <trkpt lat="46.53919" lon="5.64884">
        <ele>534</ele>
        <time>2022-02-24T07:29:49Z</time>
      </trkpt>
      <trkpt lat="46.53911" lon="5.64876">
        <ele>533.8</ele>
        <time>2022-02-24T07:29:50Z</time>
      </trkpt>
      <trkpt lat="46.53903" lon="5.64869">
        <ele>533.6</ele>
        <time>2022-02-24T07:29:51Z</time>
      </trkpt>
      <trkpt lat="46.53896" lon="5.64863">
        <ele>533.6</ele>
        <time>2022-02-24T07:29:52Z</time>
      </trkpt>
      <trkpt lat="46.53889" lon="5.64856">
        <ele>533.2</ele>
        <time>2022-02-24T07:29:53Z</time>
      </trkpt>
      <trkpt lat="46.53881" lon="5.6485">
        <ele>533.2</ele>
        <time>2022-02-24T07:29:54Z</time>
      </trkpt>
      <trkpt lat="46.53874" lon="5.64844">
        <ele>533.2</ele>
        <time>2022-02-24T07:29:55Z</time>
      </trkpt>
      <trkpt lat="46.53868" lon="5.64838">
        <ele>533.2</ele>
        <time>2022-02-24T07:29:56Z</time>
      </trkpt>
      <trkpt lat="46.53861" lon="5.64832">
        <ele>533.2</ele>
        <time>2022-02-24T07:29:57Z</time>
      </trkpt>
      <trkpt lat="46.53855" lon="5.64826">
        <ele>533.2</ele>
        <time>2022-02-24T07:29:58Z</time>
      </trkpt>
      <trkpt lat="46.53849" lon="5.64821">
        <ele>533.2</ele>
        <time>2022-02-24T07:29:59Z</time>
      </trkpt>
      <trkpt lat="46.53844" lon="5.64816">
        <ele>533.6</ele>
        <time>2022-02-24T07:30:00Z</time>
      </trkpt>
      <trkpt lat="46.53838" lon="5.64811">
        <ele>533.6</ele>
        <time>2022-02-24T07:30:01Z</time>
      </trkpt>
      <trkpt lat="46.53833" lon="5.64806">
        <ele>534</ele>
        <time>2022-02-24T07:30:02Z</time>
      </trkpt>
      <trkpt lat="46.53828" lon="5.64802">
        <ele>534</ele>
        <time>2022-02-24T07:30:03Z</time>
      </trkpt>
      <trkpt lat="46.53824" lon="5.64798">
        <ele>534.4</ele>
        <time>2022-02-24T07:30:04Z</time>
      </trkpt>
      <trkpt lat="46.53819" lon="5.64794">
        <ele>534.6</ele>
        <time>2022-02-24T07:30:05Z</time>
      </trkpt>
      <trkpt lat="46.53815" lon="5.6479">
        <ele>534.6</ele>
        <time>2022-02-24T07:30:06Z</time>
      </trkpt>
      <trkpt lat="46.53811" lon="5.64786">
        <ele>534.8</ele>
        <time>2022-02-24T07:30:07Z</time>
      </trkpt>
      <trkpt lat="46.53806" lon="5.64782">
        <ele>534.8</ele>
        <time>2022-02-24T07:30:08Z</time>
      </trkpt>
      <trkpt lat="46.53802" lon="5.64778">
        <ele>534.8</ele>
        <time>2022-02-24T07:30:09Z</time>
      </trkpt>
      <trkpt lat="46.53797" lon="5.64775">
        <ele>535.2</ele>
        <time>2022-02-24T07:30:10Z</time>
      </trkpt>
      <trkpt lat="46.53793" lon="5.64771">
        <ele>535.2</ele>
        <time>2022-02-24T07:30:11Z</time>
      </trkpt>
      <trkpt lat="46.53789" lon="5.64767">
        <ele>535.4</ele>
        <time>2022-02-24T07:30:12Z</time>
      </trkpt>
      <trkpt lat="46.53785" lon="5.64763">
        <ele>535.4</ele>
        <time>2022-02-24T07:30:13Z</time>
      </trkpt>
      <trkpt lat="46.53781" lon="5.64758">
        <ele>535.8</ele>
        <time>2022-02-24T07:30:14Z</time>
      </trkpt>
      <trkpt lat="46.53776" lon="5.64754">
        <ele>535.8</ele>
        <time>2022-02-24T07:30:15Z</time>
      </trkpt>
      <trkpt lat="46.53771" lon="5.6475">
        <ele>536</ele>
        <time>2022-02-24T07:30:16Z</time>
      </trkpt>
      <trkpt lat="46.53766" lon="5.64746">
        <ele>536</ele>
        <time>2022-02-24T07:30:17Z</time>
      </trkpt>
      <trkpt lat="46.53761" lon="5.64742">
        <ele>536</ele>
        <time>2022-02-24T07:30:18Z</time>
      </trkpt>
      <trkpt lat="46.53756" lon="5.64737">
        <ele>536</ele>
        <time>2022-02-24T07:30:19Z</time>
      </trkpt>
      <trkpt lat="46.5375" lon="5.64732">
        <ele>536</ele>
        <time>2022-02-24T07:30:20Z</time>
      </trkpt>
      <trkpt lat="46.53745" lon="5.64727">
        <ele>536</ele>
        <time>2022-02-24T07:30:21Z</time>
      </trkpt>
      <trkpt lat="46.53739" lon="5.64723">
        <ele>536</ele>
        <time>2022-02-24T07:30:22Z</time>
      </trkpt>
      <trkpt lat="46.53733" lon="5.64718">
        <ele>536</ele>
        <time>2022-02-24T07:30:23Z</time>
      </trkpt>
      <trkpt lat="46.53728" lon="5.64713">
        <ele>536</ele>
        <time>2022-02-24T07:30:24Z</time>
      </trkpt>
      <trkpt lat="46.53722" lon="5.64708">
        <ele>535.8</ele>
        <time>2022-02-24T07:30:25Z</time>
      </trkpt>
      <trkpt lat="46.53716" lon="5.64703">
        <ele>535.8</ele>
        <time>2022-02-24T07:30:26Z</time>
      </trkpt>
      <trkpt lat="46.5371" lon="5.64698">
        <ele>535.8</ele>
        <time>2022-02-24T07:30:27Z</time>
      </trkpt>
      <trkpt lat="46.53704" lon="5.64694">
        <ele>535.8</ele>
        <time>2022-02-24T07:30:28Z</time>
      </trkpt>
      <trkpt lat="46.53699" lon="5.64688">
        <ele>535.6</ele>
        <time>2022-02-24T07:30:29Z</time>
      </trkpt>
      <trkpt lat="46.53693" lon="5.64683">
        <ele>535.6</ele>
        <time>2022-02-24T07:30:30Z</time>
      </trkpt>
      <trkpt lat="46.53687" lon="5.64678">
        <ele>535.6</ele>
        <time>2022-02-24T07:30:31Z</time>
      </trkpt>
      <trkpt lat="46.53681" lon="5.64673">
        <ele>535.4</ele>
        <time>2022-02-24T07:30:32Z</time>
      </trkpt>
      <trkpt lat="46.53675" lon="5.64668">
        <ele>535.4</ele>
        <time>2022-02-24T07:30:33Z</time>
      </trkpt>
      <trkpt lat="46.53669" lon="5.64662">
        <ele>535.4</ele>
        <time>2022-02-24T07:30:34Z</time>
      </trkpt>
      <trkpt lat="46.53663" lon="5.64657">
        <ele>535.4</ele>
        <time>2022-02-24T07:30:35Z</time>
      </trkpt>
      <trkpt lat="46.53657" lon="5.64652">
        <ele>535.4</ele>
        <time>2022-02-24T07:30:36Z</time>
      </trkpt>
      <trkpt lat="46.53652" lon="5.64647">
        <ele>535.4</ele>
        <time>2022-02-24T07:30:37Z</time>
      </trkpt>
      <trkpt lat="46.53646" lon="5.64642">
        <ele>535.4</ele>
        <time>2022-02-24T07:30:38Z</time>
      </trkpt>
      <trkpt lat="46.5364" lon="5.64637">
        <ele>535.2</ele>
        <time>2022-02-24T07:30:39Z</time>
      </trkpt>
      <trkpt lat="46.53635" lon="5.64632">
        <ele>535.2</ele>
        <time>2022-02-24T07:30:40Z</time>
      </trkpt>
      <trkpt lat="46.53629" lon="5.64628">
        <ele>535.2</ele>
        <time>2022-02-24T07:30:41Z</time>
      </trkpt>
      <trkpt lat="46.53623" lon="5.64623">
        <ele>535.2</ele>
        <time>2022-02-24T07:30:42Z</time>
      </trkpt>
      <trkpt lat="46.53618" lon="5.64618">
        <ele>535.2</ele>
        <time>2022-02-24T07:30:43Z</time>
      </trkpt>
      <trkpt lat="46.53612" lon="5.64613">
        <ele>535.2</ele>
        <time>2022-02-24T07:30:44Z</time>
      </trkpt>
      <trkpt lat="46.53607" lon="5.64608">
        <ele>535.2</ele>
        <time>2022-02-24T07:30:45Z</time>
      </trkpt>
      <trkpt lat="46.53601" lon="5.64604">
        <ele>535.2</ele>
        <time>2022-02-24T07:30:46Z</time>
      </trkpt>
      <trkpt lat="46.53596" lon="5.64599">
        <ele>535.2</ele>
        <time>2022-02-24T07:30:47Z</time>
      </trkpt>
      <trkpt lat="46.5359" lon="5.64594">
        <ele>535.2</ele>
        <time>2022-02-24T07:30:48Z</time>
      </trkpt>
      <trkpt lat="46.53584" lon="5.64589">
        <ele>535.4</ele>
        <time>2022-02-24T07:30:49Z</time>
      </trkpt>
      <trkpt lat="46.53579" lon="5.64584">
        <ele>535.4</ele>
        <time>2022-02-24T07:30:50Z</time>
      </trkpt>
      <trkpt lat="46.53573" lon="5.64579">
        <ele>535.4</ele>
        <time>2022-02-24T07:30:51Z</time>
      </trkpt>
      <trkpt lat="46.53567" lon="5.64574">
        <ele>535.4</ele>
        <time>2022-02-24T07:30:52Z</time>
      </trkpt>
      <trkpt lat="46.53562" lon="5.64569">
        <ele>535.4</ele>
        <time>2022-02-24T07:30:53Z</time>
      </trkpt>
      <trkpt lat="46.53556" lon="5.64565">
        <ele>535.4</ele>
        <time>2022-02-24T07:30:54Z</time>
      </trkpt>
      <trkpt lat="46.53551" lon="5.6456">
        <ele>535.4</ele>
        <time>2022-02-24T07:30:55Z</time>
      </trkpt>
      <trkpt lat="46.53545" lon="5.64555">
        <ele>535.4</ele>
        <time>2022-02-24T07:30:56Z</time>
      </trkpt>
      <trkpt lat="46.5354" lon="5.6455">
        <ele>535.8</ele>
        <time>2022-02-24T07:30:57Z</time>
      </trkpt>
      <trkpt lat="46.53534" lon="5.64546">
        <ele>535.8</ele>
        <time>2022-02-24T07:30:58Z</time>
      </trkpt>
      <trkpt lat="46.53529" lon="5.64541">
        <ele>535.8</ele>
        <time>2022-02-24T07:30:59Z</time>
      </trkpt>
      <trkpt lat="46.53524" lon="5.64537">
        <ele>536</ele>
        <time>2022-02-24T07:31:00Z</time>
      </trkpt>
      <trkpt lat="46.53518" lon="5.64532">
        <ele>536</ele>
        <time>2022-02-24T07:31:01Z</time>
      </trkpt>
      <trkpt lat="46.53513" lon="5.64528">
        <ele>536</ele>
        <time>2022-02-24T07:31:02Z</time>
      </trkpt>
      <trkpt lat="46.53508" lon="5.64523">
        <ele>536.2</ele>
        <time>2022-02-24T07:31:03Z</time>
      </trkpt>
      <trkpt lat="46.53503" lon="5.64519">
        <ele>536.2</ele>
        <time>2022-02-24T07:31:04Z</time>
      </trkpt>
      <trkpt lat="46.53498" lon="5.64515">
        <ele>536.2</ele>
        <time>2022-02-24T07:31:05Z</time>
      </trkpt>
      <trkpt lat="46.53493" lon="5.64511">
        <ele>536.6</ele>
        <time>2022-02-24T07:31:06Z</time>
      </trkpt>
      <trkpt lat="46.53488" lon="5.64507">
        <ele>536.6</ele>
        <time>2022-02-24T07:31:07Z</time>
      </trkpt>
      <trkpt lat="46.53483" lon="5.64502">
        <ele>536.6</ele>
        <time>2022-02-24T07:31:08Z</time>
      </trkpt>
      <trkpt lat="46.53478" lon="5.64498">
        <ele>536.6</ele>
        <time>2022-02-24T07:31:09Z</time>
      </trkpt>
      <trkpt lat="46.53473" lon="5.64494">
        <ele>536.6</ele>
        <time>2022-02-24T07:31:10Z</time>
      </trkpt>
      <trkpt lat="46.53468" lon="5.6449">
        <ele>536.6</ele>
        <time>2022-02-24T07:31:11Z</time>
      </trkpt>
      <trkpt lat="46.53463" lon="5.64486">
        <ele>536.6</ele>
        <time>2022-02-24T07:31:12Z</time>
      </trkpt>
      <trkpt lat="46.53458" lon="5.64481">
        <ele>536.6</ele>
        <time>2022-02-24T07:31:13Z</time>
      </trkpt>
      <trkpt lat="46.53452" lon="5.64477">
        <ele>536.6</ele>
        <time>2022-02-24T07:31:14Z</time>
      </trkpt>
      <trkpt lat="46.53447" lon="5.64472">
        <ele>536.6</ele>
        <time>2022-02-24T07:31:15Z</time>
      </trkpt>
      <trkpt lat="46.53442" lon="5.64468">
        <ele>536.6</ele>
        <time>2022-02-24T07:31:16Z</time>
      </trkpt>
      <trkpt lat="46.53436" lon="5.64463">
        <ele>536.6</ele>
        <time>2022-02-24T07:31:17Z</time>
      </trkpt>
      <trkpt lat="46.5343" lon="5.64459">
        <ele>536.6</ele>
        <time>2022-02-24T07:31:18Z</time>
      </trkpt>
      <trkpt lat="46.53419" lon="5.64449">
        <ele>536.2</ele>
        <time>2022-02-24T07:31:19Z</time>
      </trkpt>
      <trkpt lat="46.53413" lon="5.64445">
        <ele>536.2</ele>
        <time>2022-02-24T07:31:20Z</time>
      </trkpt>
      <trkpt lat="46.53407" lon="5.6444">
        <ele>536</ele>
        <time>2022-02-24T07:31:21Z</time>
      </trkpt>
      <trkpt lat="46.53402" lon="5.64435">
        <ele>536</ele>
        <time>2022-02-24T07:31:22Z</time>
      </trkpt>
      <trkpt lat="46.53396" lon="5.6443">
        <ele>536</ele>
        <time>2022-02-24T07:31:23Z</time>
      </trkpt>
      <trkpt lat="46.5339" lon="5.64425">
        <ele>535.8</ele>
        <time>2022-02-24T07:31:24Z</time>
      </trkpt>
      <trkpt lat="46.53384" lon="5.6442">
        <ele>535.8</ele>
        <time>2022-02-24T07:31:25Z</time>
      </trkpt>
      <trkpt lat="46.53378" lon="5.64415">
        <ele>535.8</ele>
        <time>2022-02-24T07:31:26Z</time>
      </trkpt>
      <trkpt lat="46.53372" lon="5.6441">
        <ele>535.8</ele>
        <time>2022-02-24T07:31:27Z</time>
      </trkpt>
      <trkpt lat="46.53366" lon="5.64405">
        <ele>535.8</ele>
        <time>2022-02-24T07:31:28Z</time>
      </trkpt>
      <trkpt lat="46.53361" lon="5.64401">
        <ele>535.6</ele>
        <time>2022-02-24T07:31:29Z</time>
      </trkpt>
      <trkpt lat="46.53355" lon="5.64396">
        <ele>535.6</ele>
        <time>2022-02-24T07:31:30Z</time>
      </trkpt>
      <trkpt lat="46.53349" lon="5.64392">
        <ele>535.6</ele>
        <time>2022-02-24T07:31:31Z</time>
      </trkpt>
      <trkpt lat="46.53344" lon="5.64387">
        <ele>535.6</ele>
        <time>2022-02-24T07:31:32Z</time>
      </trkpt>
      <trkpt lat="46.53338" lon="5.64383">
        <ele>535.6</ele>
        <time>2022-02-24T07:31:33Z</time>
      </trkpt>
      <trkpt lat="46.53332" lon="5.64378">
        <ele>535.6</ele>
        <time>2022-02-24T07:31:34Z</time>
      </trkpt>
      <trkpt lat="46.53326" lon="5.64374">
        <ele>535.6</ele>
        <time>2022-02-24T07:31:35Z</time>
      </trkpt>
      <trkpt lat="46.53321" lon="5.64369">
        <ele>535.6</ele>
        <time>2022-02-24T07:31:36Z</time>
      </trkpt>
      <trkpt lat="46.53315" lon="5.64364">
        <ele>535.6</ele>
        <time>2022-02-24T07:31:37Z</time>
      </trkpt>
      <trkpt lat="46.53309" lon="5.6436">
        <ele>535.6</ele>
        <time>2022-02-24T07:31:38Z</time>
      </trkpt>
      <trkpt lat="46.53303" lon="5.64355">
        <ele>535.6</ele>
        <time>2022-02-24T07:31:39Z</time>
      </trkpt>
      <trkpt lat="46.53297" lon="5.6435">
        <ele>535.6</ele>
        <time>2022-02-24T07:31:40Z</time>
      </trkpt>
      <trkpt lat="46.53291" lon="5.64345">
        <ele>535.6</ele>
        <time>2022-02-24T07:31:41Z</time>
      </trkpt>
      <trkpt lat="46.53285" lon="5.6434">
        <ele>535.6</ele>
        <time>2022-02-24T07:31:42Z</time>
      </trkpt>
      <trkpt lat="46.5328" lon="5.64335">
        <ele>535.6</ele>
        <time>2022-02-24T07:31:43Z</time>
      </trkpt>
      <trkpt lat="46.53274" lon="5.64331">
        <ele>535.8</ele>
        <time>2022-02-24T07:31:44Z</time>
      </trkpt>
      <trkpt lat="46.53268" lon="5.64326">
        <ele>535.8</ele>
        <time>2022-02-24T07:31:45Z</time>
      </trkpt>
      <trkpt lat="46.53262" lon="5.64321">
        <ele>535.8</ele>
        <time>2022-02-24T07:31:46Z</time>
      </trkpt>
      <trkpt lat="46.53256" lon="5.64317">
        <ele>535.8</ele>
        <time>2022-02-24T07:31:47Z</time>
      </trkpt>
      <trkpt lat="46.53251" lon="5.64312">
        <ele>535.8</ele>
        <time>2022-02-24T07:31:48Z</time>
      </trkpt>
      <trkpt lat="46.53245" lon="5.64308">
        <ele>536</ele>
        <time>2022-02-24T07:31:49Z</time>
      </trkpt>
      <trkpt lat="46.53239" lon="5.64303">
        <ele>536</ele>
        <time>2022-02-24T07:31:50Z</time>
      </trkpt>
      <trkpt lat="46.53234" lon="5.64299">
        <ele>536</ele>
        <time>2022-02-24T07:31:51Z</time>
      </trkpt>
      <trkpt lat="46.53228" lon="5.64294">
        <ele>536.2</ele>
        <time>2022-02-24T07:31:52Z</time>
      </trkpt>
      <trkpt lat="46.53223" lon="5.6429">
        <ele>536.2</ele>
        <time>2022-02-24T07:31:53Z</time>
      </trkpt>
      <trkpt lat="46.53217" lon="5.64286">
        <ele>536.2</ele>
        <time>2022-02-24T07:31:54Z</time>
      </trkpt>
      <trkpt lat="46.53212" lon="5.64282">
        <ele>536.4</ele>
        <time>2022-02-24T07:31:55Z</time>
      </trkpt>
      <trkpt lat="46.53207" lon="5.64277">
        <ele>536.4</ele>
        <time>2022-02-24T07:31:56Z</time>
      </trkpt>
      <trkpt lat="46.53201" lon="5.64273">
        <ele>536.4</ele>
        <time>2022-02-24T07:31:57Z</time>
      </trkpt>
      <trkpt lat="46.53196" lon="5.64269">
        <ele>536.4</ele>
        <time>2022-02-24T07:31:58Z</time>
      </trkpt>
      <trkpt lat="46.5319" lon="5.64264">
        <ele>536.4</ele>
        <time>2022-02-24T07:31:59Z</time>
      </trkpt>
      <trkpt lat="46.53184" lon="5.64259">
        <ele>536.4</ele>
        <time>2022-02-24T07:32:00Z</time>
      </trkpt>
      <trkpt lat="46.53179" lon="5.64254">
        <ele>536.4</ele>
        <time>2022-02-24T07:32:01Z</time>
      </trkpt>
      <trkpt lat="46.53173" lon="5.64249">
        <ele>536.4</ele>
        <time>2022-02-24T07:32:02Z</time>
      </trkpt>
      <trkpt lat="46.53166" lon="5.64245">
        <ele>536.2</ele>
        <time>2022-02-24T07:32:03Z</time>
      </trkpt>
      <trkpt lat="46.5316" lon="5.6424">
        <ele>536.2</ele>
        <time>2022-02-24T07:32:04Z</time>
      </trkpt>
      <trkpt lat="46.53154" lon="5.64235">
        <ele>535.8</ele>
        <time>2022-02-24T07:32:05Z</time>
      </trkpt>
      <trkpt lat="46.53148" lon="5.6423">
        <ele>535.8</ele>
        <time>2022-02-24T07:32:06Z</time>
      </trkpt>
      <trkpt lat="46.53141" lon="5.64225">
        <ele>535.6</ele>
        <time>2022-02-24T07:32:07Z</time>
      </trkpt>
      <trkpt lat="46.53135" lon="5.64219">
        <ele>535.6</ele>
        <time>2022-02-24T07:32:08Z</time>
      </trkpt>
      <trkpt lat="46.53128" lon="5.64214">
        <ele>535.4</ele>
        <time>2022-02-24T07:32:09Z</time>
      </trkpt>
      <trkpt lat="46.53122" lon="5.64209">
        <ele>535.4</ele>
        <time>2022-02-24T07:32:10Z</time>
      </trkpt>
      <trkpt lat="46.53116" lon="5.64205">
        <ele>535.4</ele>
        <time>2022-02-24T07:32:11Z</time>
      </trkpt>
      <trkpt lat="46.53109" lon="5.642">
        <ele>535</ele>
        <time>2022-02-24T07:32:12Z</time>
      </trkpt>
      <trkpt lat="46.53103" lon="5.64195">
        <ele>535</ele>
        <time>2022-02-24T07:32:13Z</time>
      </trkpt>
      <trkpt lat="46.53096" lon="5.6419">
        <ele>534.8</ele>
        <time>2022-02-24T07:32:14Z</time>
      </trkpt>
      <trkpt lat="46.53089" lon="5.64185">
        <ele>534.6</ele>
        <time>2022-02-24T07:32:15Z</time>
      </trkpt>
      <trkpt lat="46.53082" lon="5.64181">
        <ele>534.2</ele>
        <time>2022-02-24T07:32:16Z</time>
      </trkpt>
      <trkpt lat="46.53075" lon="5.64176">
        <ele>534</ele>
        <time>2022-02-24T07:32:17Z</time>
      </trkpt>
      <trkpt lat="46.53067" lon="5.64172">
        <ele>533.6</ele>
        <time>2022-02-24T07:32:18Z</time>
      </trkpt>
      <trkpt lat="46.53059" lon="5.64168">
        <ele>533.2</ele>
        <time>2022-02-24T07:32:19Z</time>
      </trkpt>
      <trkpt lat="46.53051" lon="5.64163">
        <ele>533</ele>
        <time>2022-02-24T07:32:20Z</time>
      </trkpt>
      <trkpt lat="46.53043" lon="5.64159">
        <ele>532.6</ele>
        <time>2022-02-24T07:32:21Z</time>
      </trkpt>
      <trkpt lat="46.53036" lon="5.64155">
        <ele>532.4</ele>
        <time>2022-02-24T07:32:22Z</time>
      </trkpt>
      <trkpt lat="46.53028" lon="5.64151">
        <ele>532.2</ele>
        <time>2022-02-24T07:32:23Z</time>
      </trkpt>
      <trkpt lat="46.5302" lon="5.64147">
        <ele>532.2</ele>
        <time>2022-02-24T07:32:24Z</time>
      </trkpt>
      <trkpt lat="46.53013" lon="5.64143">
        <ele>531.8</ele>
        <time>2022-02-24T07:32:25Z</time>
      </trkpt>
      <trkpt lat="46.53005" lon="5.64139">
        <ele>531.8</ele>
        <time>2022-02-24T07:32:26Z</time>
      </trkpt>
      <trkpt lat="46.52998" lon="5.64135">
        <ele>531.6</ele>
        <time>2022-02-24T07:32:27Z</time>
      </trkpt>
      <trkpt lat="46.52991" lon="5.64131">
        <ele>531.6</ele>
        <time>2022-02-24T07:32:28Z</time>
      </trkpt>
      <trkpt lat="46.52984" lon="5.64127">
        <ele>531.4</ele>
        <time>2022-02-24T07:32:29Z</time>
      </trkpt>
      <trkpt lat="46.52976" lon="5.64123">
        <ele>531</ele>
        <time>2022-02-24T07:32:30Z</time>
      </trkpt>
      <trkpt lat="46.52969" lon="5.6412">
        <ele>531</ele>
        <time>2022-02-24T07:32:31Z</time>
      </trkpt>
      <trkpt lat="46.52962" lon="5.64116">
        <ele>530.8</ele>
        <time>2022-02-24T07:32:32Z</time>
      </trkpt>
      <trkpt lat="46.52955" lon="5.64112">
        <ele>530.8</ele>
        <time>2022-02-24T07:32:33Z</time>
      </trkpt>
      <trkpt lat="46.52948" lon="5.64108">
        <ele>530.4</ele>
        <time>2022-02-24T07:32:34Z</time>
      </trkpt>
      <trkpt lat="46.52941" lon="5.64104">
        <ele>530.4</ele>
        <time>2022-02-24T07:32:35Z</time>
      </trkpt>
      <trkpt lat="46.52933" lon="5.641">
        <ele>530.2</ele>
        <time>2022-02-24T07:32:36Z</time>
      </trkpt>
      <trkpt lat="46.52926" lon="5.64096">
        <ele>529.8</ele>
        <time>2022-02-24T07:32:37Z</time>
      </trkpt>
      <trkpt lat="46.52918" lon="5.64092">
        <ele>529.4</ele>
        <time>2022-02-24T07:32:38Z</time>
      </trkpt>
      <trkpt lat="46.52911" lon="5.64087">
        <ele>529</ele>
        <time>2022-02-24T07:32:39Z</time>
      </trkpt>
      <trkpt lat="46.52903" lon="5.64083">
        <ele>528.6</ele>
        <time>2022-02-24T07:32:40Z</time>
      </trkpt>
      <trkpt lat="46.52894" lon="5.64078">
        <ele>528</ele>
        <time>2022-02-24T07:32:41Z</time>
      </trkpt>
      <trkpt lat="46.52885" lon="5.64073">
        <ele>527.4</ele>
        <time>2022-02-24T07:32:42Z</time>
      </trkpt>
      <trkpt lat="46.52875" lon="5.64067">
        <ele>526.6</ele>
        <time>2022-02-24T07:32:43Z</time>
      </trkpt>
      <trkpt lat="46.52865" lon="5.64061">
        <ele>525.8</ele>
        <time>2022-02-24T07:32:44Z</time>
      </trkpt>
      <trkpt lat="46.52856" lon="5.64055">
        <ele>525</ele>
        <time>2022-02-24T07:32:45Z</time>
      </trkpt>
      <trkpt lat="46.52847" lon="5.64049">
        <ele>524.4</ele>
        <time>2022-02-24T07:32:46Z</time>
      </trkpt>
      <trkpt lat="46.52838" lon="5.64043">
        <ele>523.6</ele>
        <time>2022-02-24T07:32:47Z</time>
      </trkpt>
      <trkpt lat="46.5283" lon="5.64037">
        <ele>522.8</ele>
        <time>2022-02-24T07:32:48Z</time>
      </trkpt>
      <trkpt lat="46.52822" lon="5.64032">
        <ele>522</ele>
        <time>2022-02-24T07:32:49Z</time>
      </trkpt>
      <trkpt lat="46.52813" lon="5.64027">
        <ele>521.4</ele>
        <time>2022-02-24T07:32:50Z</time>
      </trkpt>
      <trkpt lat="46.52804" lon="5.64023">
        <ele>520.6</ele>
        <time>2022-02-24T07:32:51Z</time>
      </trkpt>
      <trkpt lat="46.52795" lon="5.6402">
        <ele>520.6</ele>
        <time>2022-02-24T07:32:52Z</time>
      </trkpt>
      <trkpt lat="46.52786" lon="5.6402">
        <ele>520</ele>
        <time>2022-02-24T07:32:53Z</time>
      </trkpt>
      <trkpt lat="46.52778" lon="5.64021">
        <ele>519.4</ele>
        <time>2022-02-24T07:32:54Z</time>
      </trkpt>
      <trkpt lat="46.52769" lon="5.64024">
        <ele>518.6</ele>
        <time>2022-02-24T07:32:55Z</time>
      </trkpt>
      <trkpt lat="46.52762" lon="5.64026">
        <ele>518</ele>
        <time>2022-02-24T07:32:56Z</time>
      </trkpt>
      <trkpt lat="46.52755" lon="5.64027">
        <ele>517.6</ele>
        <time>2022-02-24T07:32:57Z</time>
      </trkpt>
      <trkpt lat="46.52749" lon="5.64024">
        <ele>517</ele>
        <time>2022-02-24T07:32:58Z</time>
      </trkpt>
      <trkpt lat="46.52744" lon="5.64019">
        <ele>516.6</ele>
        <time>2022-02-24T07:32:59Z</time>
      </trkpt>
      <trkpt lat="46.5274" lon="5.64013">
        <ele>516.4</ele>
        <time>2022-02-24T07:33:00Z</time>
      </trkpt>
      <trkpt lat="46.52735" lon="5.64007">
        <ele>516.4</ele>
        <time>2022-02-24T07:33:01Z</time>
      </trkpt>
      <trkpt lat="46.52731" lon="5.64001">
        <ele>516.4</ele>
        <time>2022-02-24T07:33:02Z</time>
      </trkpt>
      <trkpt lat="46.52727" lon="5.63995">
        <ele>516.4</ele>
        <time>2022-02-24T07:33:03Z</time>
      </trkpt>
      <trkpt lat="46.52727" lon="5.63995">
        <ele>516.4</ele>
        <time>2022-02-24T07:33:04Z</time>
      </trkpt>
      <trkpt lat="46.52722" lon="5.63989">
        <ele>516.4</ele>
        <time>2022-02-24T07:33:05Z</time>
      </trkpt>
      <trkpt lat="46.52718" lon="5.63983">
        <ele>516.4</ele>
        <time>2022-02-24T07:33:06Z</time>
      </trkpt>
      <trkpt lat="46.52713" lon="5.63977">
        <ele>516.4</ele>
        <time>2022-02-24T07:33:07Z</time>
      </trkpt>
      <trkpt lat="46.52709" lon="5.63971">
        <ele>516.4</ele>
        <time>2022-02-24T07:33:08Z</time>
      </trkpt>
      <trkpt lat="46.52705" lon="5.63965">
        <ele>516.4</ele>
        <time>2022-02-24T07:33:09Z</time>
      </trkpt>
      <trkpt lat="46.527" lon="5.6396">
        <ele>516.8</ele>
        <time>2022-02-24T07:33:10Z</time>
      </trkpt>
      <trkpt lat="46.52696" lon="5.63954">
        <ele>516.8</ele>
        <time>2022-02-24T07:33:11Z</time>
      </trkpt>
      <trkpt lat="46.52692" lon="5.63948">
        <ele>516.8</ele>
        <time>2022-02-24T07:33:12Z</time>
      </trkpt>
      <trkpt lat="46.52688" lon="5.63941">
        <ele>517</ele>
        <time>2022-02-24T07:33:13Z</time>
      </trkpt>
      <trkpt lat="46.52684" lon="5.63935">
        <ele>517</ele>
        <time>2022-02-24T07:33:14Z</time>
      </trkpt>
      <trkpt lat="46.52681" lon="5.63928">
        <ele>517.4</ele>
        <time>2022-02-24T07:33:15Z</time>
      </trkpt>
      <trkpt lat="46.52677" lon="5.63922">
        <ele>517.4</ele>
        <time>2022-02-24T07:33:16Z</time>
      </trkpt>
      <trkpt lat="46.52674" lon="5.63914">
        <ele>517.6</ele>
        <time>2022-02-24T07:33:17Z</time>
      </trkpt>
      <trkpt lat="46.5267" lon="5.63907">
        <ele>517.6</ele>
        <time>2022-02-24T07:33:18Z</time>
      </trkpt>
      <trkpt lat="46.52667" lon="5.63899">
        <ele>517.6</ele>
        <time>2022-02-24T07:33:19Z</time>
      </trkpt>
      <trkpt lat="46.52664" lon="5.63891">
        <ele>517.8</ele>
        <time>2022-02-24T07:33:20Z</time>
      </trkpt>
      <trkpt lat="46.52661" lon="5.63883">
        <ele>517.8</ele>
        <time>2022-02-24T07:33:21Z</time>
      </trkpt>
      <trkpt lat="46.52658" lon="5.63875">
        <ele>517.8</ele>
        <time>2022-02-24T07:33:22Z</time>
      </trkpt>
      <trkpt lat="46.52655" lon="5.63868">
        <ele>517.8</ele>
        <time>2022-02-24T07:33:23Z</time>
      </trkpt>
      <trkpt lat="46.52651" lon="5.6386">
        <ele>518.2</ele>
        <time>2022-02-24T07:33:24Z</time>
      </trkpt>
      <trkpt lat="46.52648" lon="5.63852">
        <ele>518</ele>
        <time>2022-02-24T07:33:25Z</time>
      </trkpt>
      <trkpt lat="46.52644" lon="5.63844">
        <ele>518.6</ele>
        <time>2022-02-24T07:33:26Z</time>
      </trkpt>
      <trkpt lat="46.52641" lon="5.63835">
        <ele>518.6</ele>
        <time>2022-02-24T07:33:27Z</time>
      </trkpt>
      <trkpt lat="46.52637" lon="5.63828">
        <ele>518.6</ele>
        <time>2022-02-24T07:33:28Z</time>
      </trkpt>
      <trkpt lat="46.52638" lon="5.63819">
        <ele>518.6</ele>
        <time>2022-02-24T07:33:29Z</time>
      </trkpt>
      <trkpt lat="46.5264" lon="5.63806">
        <ele>518.6</ele>
        <time>2022-02-24T07:33:30Z</time>
      </trkpt>
      <trkpt lat="46.52641" lon="5.63795">
        <ele>518.4</ele>
        <time>2022-02-24T07:33:31Z</time>
      </trkpt>
      <trkpt lat="46.52645" lon="5.63782">
        <ele>518.4</ele>
        <time>2022-02-24T07:33:32Z</time>
      </trkpt>
      <trkpt lat="46.52646" lon="5.63771">
        <ele>518.4</ele>
        <time>2022-02-24T07:33:33Z</time>
      </trkpt>
      <trkpt lat="46.52647" lon="5.6376">
        <ele>518</ele>
        <time>2022-02-24T07:33:34Z</time>
      </trkpt>
      <trkpt lat="46.52649" lon="5.63749">
        <ele>518</ele>
        <time>2022-02-24T07:33:35Z</time>
      </trkpt>
      <trkpt lat="46.52651" lon="5.63738">
        <ele>518</ele>
        <time>2022-02-24T07:33:36Z</time>
      </trkpt>
      <trkpt lat="46.52653" lon="5.63728">
        <ele>517.8</ele>
        <time>2022-02-24T07:33:37Z</time>
      </trkpt>
      <trkpt lat="46.52655" lon="5.63717">
        <ele>517.8</ele>
        <time>2022-02-24T07:33:38Z</time>
      </trkpt>
      <trkpt lat="46.52658" lon="5.63707">
        <ele>517.8</ele>
        <time>2022-02-24T07:33:39Z</time>
      </trkpt>
      <trkpt lat="46.52661" lon="5.63696">
        <ele>517.6</ele>
        <time>2022-02-24T07:33:40Z</time>
      </trkpt>
      <trkpt lat="46.52663" lon="5.63685">
        <ele>517.6</ele>
        <time>2022-02-24T07:33:41Z</time>
      </trkpt>
      <trkpt lat="46.52666" lon="5.63674">
        <ele>517.2</ele>
        <time>2022-02-24T07:33:42Z</time>
      </trkpt>
      <trkpt lat="46.52669" lon="5.63663">
        <ele>517</ele>
        <time>2022-02-24T07:33:43Z</time>
      </trkpt>
      <trkpt lat="46.52672" lon="5.63652">
        <ele>517</ele>
        <time>2022-02-24T07:33:44Z</time>
      </trkpt>
      <trkpt lat="46.52675" lon="5.63641">
        <ele>517</ele>
        <time>2022-02-24T07:33:45Z</time>
      </trkpt>
      <trkpt lat="46.52678" lon="5.6363">
        <ele>516.8</ele>
        <time>2022-02-24T07:33:46Z</time>
      </trkpt>
      <trkpt lat="46.5268" lon="5.63619">
        <ele>516.8</ele>
        <time>2022-02-24T07:33:47Z</time>
      </trkpt>
      <trkpt lat="46.52682" lon="5.63607">
        <ele>516.4</ele>
        <time>2022-02-24T07:33:48Z</time>
      </trkpt>
      <trkpt lat="46.52684" lon="5.63596">
        <ele>516.4</ele>
        <time>2022-02-24T07:33:49Z</time>
      </trkpt>
      <trkpt lat="46.52685" lon="5.63584">
        <ele>516</ele>
        <time>2022-02-24T07:33:50Z</time>
      </trkpt>
      <trkpt lat="46.52687" lon="5.63571">
        <ele>515.8</ele>
        <time>2022-02-24T07:33:51Z</time>
      </trkpt>
      <trkpt lat="46.52688" lon="5.63559">
        <ele>515.4</ele>
        <time>2022-02-24T07:33:52Z</time>
      </trkpt>
      <trkpt lat="46.5269" lon="5.63546">
        <ele>515.2</ele>
        <time>2022-02-24T07:33:53Z</time>
      </trkpt>
      <trkpt lat="46.52691" lon="5.63533">
        <ele>514.8</ele>
        <time>2022-02-24T07:33:54Z</time>
      </trkpt>
      <trkpt lat="46.52692" lon="5.63521">
        <ele>514.2</ele>
        <time>2022-02-24T07:33:55Z</time>
      </trkpt>
      <trkpt lat="46.52692" lon="5.63508">
        <ele>513.8</ele>
        <time>2022-02-24T07:33:56Z</time>
      </trkpt>
      <trkpt lat="46.52693" lon="5.63494">
        <ele>513.2</ele>
        <time>2022-02-24T07:33:57Z</time>
      </trkpt>
      <trkpt lat="46.52692" lon="5.63481">
        <ele>512.6</ele>
        <time>2022-02-24T07:33:58Z</time>
      </trkpt>
      <trkpt lat="46.52692" lon="5.63466">
        <ele>512</ele>
        <time>2022-02-24T07:33:59Z</time>
      </trkpt>
      <trkpt lat="46.5269" lon="5.63452">
        <ele>511.6</ele>
        <time>2022-02-24T07:34:00Z</time>
      </trkpt>
      <trkpt lat="46.52689" lon="5.63439">
        <ele>511</ele>
        <time>2022-02-24T07:34:01Z</time>
      </trkpt>
      <trkpt lat="46.52687" lon="5.63426">
        <ele>510.6</ele>
        <time>2022-02-24T07:34:02Z</time>
      </trkpt>
      <trkpt lat="46.52686" lon="5.63412">
        <ele>510</ele>
        <time>2022-02-24T07:34:03Z</time>
      </trkpt>
      <trkpt lat="46.52684" lon="5.63398">
        <ele>509.6</ele>
        <time>2022-02-24T07:34:04Z</time>
      </trkpt>
      <trkpt lat="46.52682" lon="5.63384">
        <ele>509.2</ele>
        <time>2022-02-24T07:34:05Z</time>
      </trkpt>
      <trkpt lat="46.5268" lon="5.63369">
        <ele>508.8</ele>
        <time>2022-02-24T07:34:06Z</time>
      </trkpt>
      <trkpt lat="46.52678" lon="5.63355">
        <ele>508.4</ele>
        <time>2022-02-24T07:34:07Z</time>
      </trkpt>
      <trkpt lat="46.52675" lon="5.63341">
        <ele>508.2</ele>
        <time>2022-02-24T07:34:08Z</time>
      </trkpt>
      <trkpt lat="46.52673" lon="5.63328">
        <ele>507.8</ele>
        <time>2022-02-24T07:34:09Z</time>
      </trkpt>
      <trkpt lat="46.52672" lon="5.63315">
        <ele>507.4</ele>
        <time>2022-02-24T07:34:10Z</time>
      </trkpt>
      <trkpt lat="46.5267" lon="5.63301">
        <ele>507.2</ele>
        <time>2022-02-24T07:34:11Z</time>
      </trkpt>
      <trkpt lat="46.52669" lon="5.63289">
        <ele>507.2</ele>
        <time>2022-02-24T07:34:12Z</time>
      </trkpt>
      <trkpt lat="46.52668" lon="5.63277">
        <ele>506.8</ele>
        <time>2022-02-24T07:34:13Z</time>
      </trkpt>
      <trkpt lat="46.52667" lon="5.63267">
        <ele>506.8</ele>
        <time>2022-02-24T07:34:14Z</time>
      </trkpt>
      <trkpt lat="46.52667" lon="5.63258">
        <ele>506.8</ele>
        <time>2022-02-24T07:34:15Z</time>
      </trkpt>
      <trkpt lat="46.52668" lon="5.6325">
        <ele>506.6</ele>
        <time>2022-02-24T07:34:16Z</time>
      </trkpt>
      <trkpt lat="46.5267" lon="5.63244">
        <ele>506.6</ele>
        <time>2022-02-24T07:34:17Z</time>
      </trkpt>
      <trkpt lat="46.52673" lon="5.6324">
        <ele>506.6</ele>
        <time>2022-02-24T07:34:18Z</time>
      </trkpt>
      <trkpt lat="46.52677" lon="5.6324">
        <ele>506.6</ele>
        <time>2022-02-24T07:34:19Z</time>
      </trkpt>
      <trkpt lat="46.52681" lon="5.63241">
        <ele>506.6</ele>
        <time>2022-02-24T07:34:20Z</time>
      </trkpt>
      <trkpt lat="46.52684" lon="5.63245">
        <ele>506.8</ele>
        <time>2022-02-24T07:34:21Z</time>
      </trkpt>
      <trkpt lat="46.52686" lon="5.63251">
        <ele>506.8</ele>
        <time>2022-02-24T07:34:22Z</time>
      </trkpt>
      <trkpt lat="46.52687" lon="5.63257">
        <ele>506.8</ele>
        <time>2022-02-24T07:34:23Z</time>
      </trkpt>
      <trkpt lat="46.52687" lon="5.63264">
        <ele>506.6</ele>
        <time>2022-02-24T07:34:24Z</time>
      </trkpt>
      <trkpt lat="46.52688" lon="5.63272">
        <ele>506.2</ele>
        <time>2022-02-24T07:34:25Z</time>
      </trkpt>
      <trkpt lat="46.52689" lon="5.6328">
        <ele>505.8</ele>
        <time>2022-02-24T07:34:26Z</time>
      </trkpt>
      <trkpt lat="46.52689" lon="5.63289">
        <ele>505.4</ele>
        <time>2022-02-24T07:34:27Z</time>
      </trkpt>
      <trkpt lat="46.52688" lon="5.63298">
        <ele>505</ele>
        <time>2022-02-24T07:34:28Z</time>
      </trkpt>
      <trkpt lat="46.52685" lon="5.63306">
        <ele>504.4</ele>
        <time>2022-02-24T07:34:29Z</time>
      </trkpt>
      <trkpt lat="46.5268" lon="5.63313">
        <ele>504</ele>
        <time>2022-02-24T07:34:30Z</time>
      </trkpt>
      <trkpt lat="46.52675" lon="5.63318">
        <ele>503.6</ele>
        <time>2022-02-24T07:34:31Z</time>
      </trkpt>
      <trkpt lat="46.52668" lon="5.6332">
        <ele>503.2</ele>
        <time>2022-02-24T07:34:32Z</time>
      </trkpt>
      <trkpt lat="46.52661" lon="5.63321">
        <ele>502.8</ele>
        <time>2022-02-24T07:34:33Z</time>
      </trkpt>
      <trkpt lat="46.52654" lon="5.63321">
        <ele>502.6</ele>
        <time>2022-02-24T07:34:34Z</time>
      </trkpt>
      <trkpt lat="46.52647" lon="5.63319">
        <ele>502.6</ele>
        <time>2022-02-24T07:34:35Z</time>
      </trkpt>
      <trkpt lat="46.52641" lon="5.63316">
        <ele>502.4</ele>
        <time>2022-02-24T07:34:36Z</time>
      </trkpt>
      <trkpt lat="46.52634" lon="5.63311">
        <ele>502.4</ele>
        <time>2022-02-24T07:34:37Z</time>
      </trkpt>
      <trkpt lat="46.52628" lon="5.63306">
        <ele>502.4</ele>
        <time>2022-02-24T07:34:38Z</time>
      </trkpt>
      <trkpt lat="46.52622" lon="5.633">
        <ele>502</ele>
        <time>2022-02-24T07:34:39Z</time>
      </trkpt>
      <trkpt lat="46.52616" lon="5.63295">
        <ele>502</ele>
        <time>2022-02-24T07:34:40Z</time>
      </trkpt>
      <trkpt lat="46.52611" lon="5.63289">
        <ele>501.8</ele>
        <time>2022-02-24T07:34:41Z</time>
      </trkpt>
      <trkpt lat="46.52606" lon="5.63283">
        <ele>501.8</ele>
        <time>2022-02-24T07:34:42Z</time>
      </trkpt>
      <trkpt lat="46.52603" lon="5.63274">
        <ele>501.8</ele>
        <time>2022-02-24T07:34:43Z</time>
      </trkpt>
      <trkpt lat="46.52601" lon="5.63265">
        <ele>501.8</ele>
        <time>2022-02-24T07:34:44Z</time>
      </trkpt>
      <trkpt lat="46.52599" lon="5.63256">
        <ele>501.8</ele>
        <time>2022-02-24T07:34:45Z</time>
      </trkpt>
      <trkpt lat="46.52597" lon="5.6325">
        <ele>502</ele>
        <time>2022-02-24T07:34:46Z</time>
      </trkpt>
      <trkpt lat="46.52594" lon="5.63246">
        <ele>502.4</ele>
        <time>2022-02-24T07:34:47Z</time>
      </trkpt>
      <trkpt lat="46.5259" lon="5.63244">
        <ele>502.4</ele>
        <time>2022-02-24T07:34:48Z</time>
      </trkpt>
      <trkpt lat="46.52585" lon="5.63243">
        <ele>502.4</ele>
        <time>2022-02-24T07:34:49Z</time>
      </trkpt>
      <trkpt lat="46.52579" lon="5.63244">
        <ele>502</ele>
        <time>2022-02-24T07:34:50Z</time>
      </trkpt>
      <trkpt lat="46.52574" lon="5.63247">
        <ele>502</ele>
        <time>2022-02-24T07:34:51Z</time>
      </trkpt>
      <trkpt lat="46.52568" lon="5.63249">
        <ele>501.8</ele>
        <time>2022-02-24T07:34:52Z</time>
      </trkpt>
      <trkpt lat="46.52562" lon="5.63252">
        <ele>501.4</ele>
        <time>2022-02-24T07:34:53Z</time>
      </trkpt>
      <trkpt lat="46.52556" lon="5.63254">
        <ele>501</ele>
        <time>2022-02-24T07:34:54Z</time>
      </trkpt>
      <trkpt lat="46.52549" lon="5.63257">
        <ele>500.8</ele>
        <time>2022-02-24T07:34:55Z</time>
      </trkpt>
      <trkpt lat="46.52542" lon="5.6326">
        <ele>500.4</ele>
        <time>2022-02-24T07:34:56Z</time>
      </trkpt>
      <trkpt lat="46.52535" lon="5.63263">
        <ele>500</ele>
        <time>2022-02-24T07:34:57Z</time>
      </trkpt>
      <trkpt lat="46.52528" lon="5.63266">
        <ele>499.6</ele>
        <time>2022-02-24T07:34:58Z</time>
      </trkpt>
      <trkpt lat="46.52521" lon="5.6327">
        <ele>499.2</ele>
        <time>2022-02-24T07:34:59Z</time>
      </trkpt>
      <trkpt lat="46.52513" lon="5.63273">
        <ele>498.6</ele>
        <time>2022-02-24T07:35:00Z</time>
      </trkpt>
      <trkpt lat="46.52504" lon="5.63276">
        <ele>498.2</ele>
        <time>2022-02-24T07:35:01Z</time>
      </trkpt>
      <trkpt lat="46.52496" lon="5.6328">
        <ele>497.4</ele>
        <time>2022-02-24T07:35:02Z</time>
      </trkpt>
      <trkpt lat="46.52487" lon="5.63283">
        <ele>496.8</ele>
        <time>2022-02-24T07:35:03Z</time>
      </trkpt>
      <trkpt lat="46.52478" lon="5.63285">
        <ele>496</ele>
        <time>2022-02-24T07:35:04Z</time>
      </trkpt>
      <trkpt lat="46.52467" lon="5.63288">
        <ele>495</ele>
        <time>2022-02-24T07:35:05Z</time>
      </trkpt>
      <trkpt lat="46.52457" lon="5.63291">
        <ele>494.2</ele>
        <time>2022-02-24T07:35:06Z</time>
      </trkpt>
      <trkpt lat="46.52447" lon="5.63293">
        <ele>493.2</ele>
        <time>2022-02-24T07:35:07Z</time>
      </trkpt>
      <trkpt lat="46.52436" lon="5.63296">
        <ele>492.2</ele>
        <time>2022-02-24T07:35:08Z</time>
      </trkpt>
      <trkpt lat="46.52425" lon="5.63299">
        <ele>491.2</ele>
        <time>2022-02-24T07:35:09Z</time>
      </trkpt>
      <trkpt lat="46.52414" lon="5.63304">
        <ele>490.4</ele>
        <time>2022-02-24T07:35:10Z</time>
      </trkpt>
      <trkpt lat="46.52403" lon="5.6331">
        <ele>489.4</ele>
        <time>2022-02-24T07:35:11Z</time>
      </trkpt>
      <trkpt lat="46.52393" lon="5.63317">
        <ele>488.6</ele>
        <time>2022-02-24T07:35:12Z</time>
      </trkpt>
      <trkpt lat="46.52382" lon="5.63326">
        <ele>487.6</ele>
        <time>2022-02-24T07:35:13Z</time>
      </trkpt>
      <trkpt lat="46.52372" lon="5.63336">
        <ele>486.8</ele>
        <time>2022-02-24T07:35:14Z</time>
      </trkpt>
      <trkpt lat="46.52362" lon="5.63347">
        <ele>485.8</ele>
        <time>2022-02-24T07:35:15Z</time>
      </trkpt>
      <trkpt lat="46.52352" lon="5.63357">
        <ele>484.8</ele>
        <time>2022-02-24T07:35:16Z</time>
      </trkpt>
      <trkpt lat="46.52341" lon="5.63365">
        <ele>484</ele>
        <time>2022-02-24T07:35:17Z</time>
      </trkpt>
      <trkpt lat="46.52329" lon="5.63373">
        <ele>483.2</ele>
        <time>2022-02-24T07:35:18Z</time>
      </trkpt>
      <trkpt lat="46.52317" lon="5.63379">
        <ele>482.2</ele>
        <time>2022-02-24T07:35:19Z</time>
      </trkpt>
      <trkpt lat="46.52291" lon="5.63386">
        <ele>481.4</ele>
        <time>2022-02-24T07:35:20Z</time>
      </trkpt>
      <trkpt lat="46.52278" lon="5.63389">
        <ele>480.4</ele>
        <time>2022-02-24T07:35:21Z</time>
      </trkpt>
      <trkpt lat="46.52265" lon="5.63391">
        <ele>479.6</ele>
        <time>2022-02-24T07:35:22Z</time>
      </trkpt>
      <trkpt lat="46.52252" lon="5.63394">
        <ele>479</ele>
        <time>2022-02-24T07:35:23Z</time>
      </trkpt>
      <trkpt lat="46.52239" lon="5.63396">
        <ele>478.2</ele>
        <time>2022-02-24T07:35:24Z</time>
      </trkpt>
      <trkpt lat="46.52227" lon="5.63399">
        <ele>477.8</ele>
        <time>2022-02-24T07:35:25Z</time>
      </trkpt>
      <trkpt lat="46.52216" lon="5.63402">
        <ele>477.4</ele>
        <time>2022-02-24T07:35:26Z</time>
      </trkpt>
      <trkpt lat="46.52205" lon="5.63406">
        <ele>477.2</ele>
        <time>2022-02-24T07:35:27Z</time>
      </trkpt>
      <trkpt lat="46.52194" lon="5.63411">
        <ele>477</ele>
        <time>2022-02-24T07:35:28Z</time>
      </trkpt>
      <trkpt lat="46.52184" lon="5.63418">
        <ele>477</ele>
        <time>2022-02-24T07:35:29Z</time>
      </trkpt>
      <trkpt lat="46.52174" lon="5.63426">
        <ele>476.6</ele>
        <time>2022-02-24T07:35:30Z</time>
      </trkpt>
      <trkpt lat="46.52166" lon="5.63435">
        <ele>476.6</ele>
        <time>2022-02-24T07:35:31Z</time>
      </trkpt>
      <trkpt lat="46.52159" lon="5.63446">
        <ele>476.6</ele>
        <time>2022-02-24T07:35:32Z</time>
      </trkpt>
      <trkpt lat="46.52153" lon="5.63458">
        <ele>476.4</ele>
        <time>2022-02-24T07:35:33Z</time>
      </trkpt>
      <trkpt lat="46.52147" lon="5.6347">
        <ele>476.4</ele>
        <time>2022-02-24T07:35:34Z</time>
      </trkpt>
      <trkpt lat="46.52141" lon="5.63481">
        <ele>476.4</ele>
        <time>2022-02-24T07:35:35Z</time>
      </trkpt>
      <trkpt lat="46.52135" lon="5.63492">
        <ele>476.4</ele>
        <time>2022-02-24T07:35:36Z</time>
      </trkpt>
      <trkpt lat="46.52129" lon="5.63503">
        <ele>476.4</ele>
        <time>2022-02-24T07:35:37Z</time>
      </trkpt>
      <trkpt lat="46.52123" lon="5.63514">
        <ele>476.4</ele>
        <time>2022-02-24T07:35:38Z</time>
      </trkpt>
      <trkpt lat="46.52118" lon="5.63525">
        <ele>476.4</ele>
        <time>2022-02-24T07:35:39Z</time>
      </trkpt>
      <trkpt lat="46.52114" lon="5.63535">
        <ele>476.4</ele>
        <time>2022-02-24T07:35:40Z</time>
      </trkpt>
      <trkpt lat="46.52111" lon="5.63546">
        <ele>476.4</ele>
        <time>2022-02-24T07:35:41Z</time>
      </trkpt>
      <trkpt lat="46.52107" lon="5.63557">
        <ele>476.6</ele>
        <time>2022-02-24T07:35:42Z</time>
      </trkpt>
      <trkpt lat="46.52104" lon="5.63568">
        <ele>476.6</ele>
        <time>2022-02-24T07:35:43Z</time>
      </trkpt>
      <trkpt lat="46.52101" lon="5.63578">
        <ele>476.6</ele>
        <time>2022-02-24T07:35:44Z</time>
      </trkpt>
      <trkpt lat="46.52098" lon="5.63589">
        <ele>476.8</ele>
        <time>2022-02-24T07:35:45Z</time>
      </trkpt>
      <trkpt lat="46.52094" lon="5.63599">
        <ele>476.8</ele>
        <time>2022-02-24T07:35:46Z</time>
      </trkpt>
      <trkpt lat="46.5209" lon="5.63609">
        <ele>476.8</ele>
        <time>2022-02-24T07:35:47Z</time>
      </trkpt>
      <trkpt lat="46.52086" lon="5.63618">
        <ele>477.2</ele>
        <time>2022-02-24T07:35:48Z</time>
      </trkpt>
      <trkpt lat="46.52081" lon="5.63627">
        <ele>477.2</ele>
        <time>2022-02-24T07:35:49Z</time>
      </trkpt>
      <trkpt lat="46.52076" lon="5.63635">
        <ele>477.2</ele>
        <time>2022-02-24T07:35:50Z</time>
      </trkpt>
      <trkpt lat="46.5207" lon="5.63643">
        <ele>477.2</ele>
        <time>2022-02-24T07:35:51Z</time>
      </trkpt>
      <trkpt lat="46.52065" lon="5.63651">
        <ele>477.2</ele>
        <time>2022-02-24T07:35:52Z</time>
      </trkpt>
      <trkpt lat="46.5206" lon="5.63658">
        <ele>477.2</ele>
        <time>2022-02-24T07:35:53Z</time>
      </trkpt>
      <trkpt lat="46.52055" lon="5.63666">
        <ele>477.2</ele>
        <time>2022-02-24T07:35:54Z</time>
      </trkpt>
      <trkpt lat="46.5205" lon="5.63673">
        <ele>477.2</ele>
        <time>2022-02-24T07:35:55Z</time>
      </trkpt>
      <trkpt lat="46.52045" lon="5.63681">
        <ele>477.2</ele>
        <time>2022-02-24T07:35:56Z</time>
      </trkpt>
      <trkpt lat="46.5204" lon="5.63688">
        <ele>477.2</ele>
        <time>2022-02-24T07:35:57Z</time>
      </trkpt>
      <trkpt lat="46.52035" lon="5.63695">
        <ele>477.2</ele>
        <time>2022-02-24T07:35:58Z</time>
      </trkpt>
      <trkpt lat="46.5203" lon="5.63703">
        <ele>477.2</ele>
        <time>2022-02-24T07:35:59Z</time>
      </trkpt>
      <trkpt lat="46.52026" lon="5.6371">
        <ele>477.2</ele>
        <time>2022-02-24T07:36:00Z</time>
      </trkpt>
      <trkpt lat="46.52021" lon="5.63718">
        <ele>477.2</ele>
        <time>2022-02-24T07:36:01Z</time>
      </trkpt>
      <trkpt lat="46.52016" lon="5.63725">
        <ele>477.2</ele>
        <time>2022-02-24T07:36:02Z</time>
      </trkpt>
      <trkpt lat="46.52011" lon="5.63732">
        <ele>477.2</ele>
        <time>2022-02-24T07:36:03Z</time>
      </trkpt>
      <trkpt lat="46.52005" lon="5.63739">
        <ele>477.2</ele>
        <time>2022-02-24T07:36:04Z</time>
      </trkpt>
      <trkpt lat="46.52" lon="5.63746">
        <ele>477.2</ele>
        <time>2022-02-24T07:36:05Z</time>
      </trkpt>
      <trkpt lat="46.51994" lon="5.63752">
        <ele>477.2</ele>
        <time>2022-02-24T07:36:06Z</time>
      </trkpt>
      <trkpt lat="46.51988" lon="5.63758">
        <ele>476.8</ele>
        <time>2022-02-24T07:36:07Z</time>
      </trkpt>
      <trkpt lat="46.51981" lon="5.63764">
        <ele>476.6</ele>
        <time>2022-02-24T07:36:08Z</time>
      </trkpt>
      <trkpt lat="46.51975" lon="5.63769">
        <ele>476.4</ele>
        <time>2022-02-24T07:36:09Z</time>
      </trkpt>
      <trkpt lat="46.51968" lon="5.63775">
        <ele>476.2</ele>
        <time>2022-02-24T07:36:10Z</time>
      </trkpt>
      <trkpt lat="46.51961" lon="5.6378">
        <ele>476.2</ele>
        <time>2022-02-24T07:36:11Z</time>
      </trkpt>
      <trkpt lat="46.51953" lon="5.63785">
        <ele>475.8</ele>
        <time>2022-02-24T07:36:12Z</time>
      </trkpt>
      <trkpt lat="46.51946" lon="5.6379">
        <ele>475.6</ele>
        <time>2022-02-24T07:36:13Z</time>
      </trkpt>
      <trkpt lat="46.51939" lon="5.63796">
        <ele>475.4</ele>
        <time>2022-02-24T07:36:14Z</time>
      </trkpt>
      <trkpt lat="46.51933" lon="5.63802">
        <ele>475.2</ele>
        <time>2022-02-24T07:36:15Z</time>
      </trkpt>
      <trkpt lat="46.51926" lon="5.63809">
        <ele>474.8</ele>
        <time>2022-02-24T07:36:16Z</time>
      </trkpt>
      <trkpt lat="46.5192" lon="5.63817">
        <ele>474.4</ele>
        <time>2022-02-24T07:36:17Z</time>
      </trkpt>
      <trkpt lat="46.51914" lon="5.63825">
        <ele>474</ele>
        <time>2022-02-24T07:36:18Z</time>
      </trkpt>
      <trkpt lat="46.51908" lon="5.63835">
        <ele>473.6</ele>
        <time>2022-02-24T07:36:19Z</time>
      </trkpt>
      <trkpt lat="46.51903" lon="5.63845">
        <ele>473.2</ele>
        <time>2022-02-24T07:36:20Z</time>
      </trkpt>
      <trkpt lat="46.51898" lon="5.63856">
        <ele>472.8</ele>
        <time>2022-02-24T07:36:21Z</time>
      </trkpt>
      <trkpt lat="46.51893" lon="5.63867">
        <ele>472.4</ele>
        <time>2022-02-24T07:36:22Z</time>
      </trkpt>
      <trkpt lat="46.51887" lon="5.63876">
        <ele>471.8</ele>
        <time>2022-02-24T07:36:23Z</time>
      </trkpt>
      <trkpt lat="46.51879" lon="5.63884">
        <ele>471.4</ele>
        <time>2022-02-24T07:36:24Z</time>
      </trkpt>
      <trkpt lat="46.51871" lon="5.63892">
        <ele>470.8</ele>
        <time>2022-02-24T07:36:25Z</time>
      </trkpt>
      <trkpt lat="46.51862" lon="5.63898">
        <ele>470.4</ele>
        <time>2022-02-24T07:36:26Z</time>
      </trkpt>
      <trkpt lat="46.51852" lon="5.63904">
        <ele>469.8</ele>
        <time>2022-02-24T07:36:27Z</time>
      </trkpt>
      <trkpt lat="46.51843" lon="5.63906">
        <ele>469.4</ele>
        <time>2022-02-24T07:36:28Z</time>
      </trkpt>
      <trkpt lat="46.51832" lon="5.63908">
        <ele>468.6</ele>
        <time>2022-02-24T07:36:29Z</time>
      </trkpt>
      <trkpt lat="46.51822" lon="5.63908">
        <ele>468</ele>
        <time>2022-02-24T07:36:30Z</time>
      </trkpt>
      <trkpt lat="46.51811" lon="5.63909">
        <ele>467.4</ele>
        <time>2022-02-24T07:36:31Z</time>
      </trkpt>
      <trkpt lat="46.518" lon="5.6391">
        <ele>466.6</ele>
        <time>2022-02-24T07:36:32Z</time>
      </trkpt>
      <trkpt lat="46.51789" lon="5.63912">
        <ele>465.8</ele>
        <time>2022-02-24T07:36:33Z</time>
      </trkpt>
      <trkpt lat="46.51778" lon="5.63913">
        <ele>465</ele>
        <time>2022-02-24T07:36:34Z</time>
      </trkpt>
      <trkpt lat="46.51766" lon="5.63913">
        <ele>464.2</ele>
        <time>2022-02-24T07:36:35Z</time>
      </trkpt>
      <trkpt lat="46.51753" lon="5.63913">
        <ele>463.2</ele>
        <time>2022-02-24T07:36:36Z</time>
      </trkpt>
      <trkpt lat="46.51742" lon="5.63913">
        <ele>462.2</ele>
        <time>2022-02-24T07:36:37Z</time>
      </trkpt>
      <trkpt lat="46.51731" lon="5.63914">
        <ele>461.2</ele>
        <time>2022-02-24T07:36:38Z</time>
      </trkpt>
      <trkpt lat="46.51721" lon="5.63913">
        <ele>460.2</ele>
        <time>2022-02-24T07:36:39Z</time>
      </trkpt>
      <trkpt lat="46.51712" lon="5.63912">
        <ele>459.2</ele>
        <time>2022-02-24T07:36:40Z</time>
      </trkpt>
      <trkpt lat="46.51704" lon="5.63911">
        <ele>458.2</ele>
        <time>2022-02-24T07:36:41Z</time>
      </trkpt>
      <trkpt lat="46.51696" lon="5.63908">
        <ele>457.4</ele>
        <time>2022-02-24T07:36:42Z</time>
      </trkpt>
      <trkpt lat="46.51687" lon="5.63905">
        <ele>456.4</ele>
        <time>2022-02-24T07:36:43Z</time>
      </trkpt>
      <trkpt lat="46.5168" lon="5.63901">
        <ele>455.6</ele>
        <time>2022-02-24T07:36:44Z</time>
      </trkpt>
      <trkpt lat="46.51674" lon="5.63897">
        <ele>454.8</ele>
        <time>2022-02-24T07:36:45Z</time>
      </trkpt>
      <trkpt lat="46.51669" lon="5.63893">
        <ele>453.8</ele>
        <time>2022-02-24T07:36:46Z</time>
      </trkpt>
      <trkpt lat="46.51664" lon="5.63889">
        <ele>453</ele>
        <time>2022-02-24T07:36:47Z</time>
      </trkpt>
      <trkpt lat="46.51661" lon="5.63885">
        <ele>452.2</ele>
        <time>2022-02-24T07:36:48Z</time>
      </trkpt>
      <trkpt lat="46.51658" lon="5.6388">
        <ele>451.6</ele>
        <time>2022-02-24T07:36:49Z</time>
      </trkpt>
      <trkpt lat="46.51656" lon="5.63875">
        <ele>451</ele>
        <time>2022-02-24T07:36:50Z</time>
      </trkpt>
      <trkpt lat="46.51654" lon="5.63869">
        <ele>450.6</ele>
        <time>2022-02-24T07:36:51Z</time>
      </trkpt>
      <trkpt lat="46.5165" lon="5.63864">
        <ele>450.2</ele>
        <time>2022-02-24T07:36:52Z</time>
      </trkpt>
      <trkpt lat="46.51646" lon="5.63858">
        <ele>450</ele>
        <time>2022-02-24T07:36:53Z</time>
      </trkpt>
      <trkpt lat="46.51642" lon="5.63852">
        <ele>449.8</ele>
        <time>2022-02-24T07:36:54Z</time>
      </trkpt>
      <trkpt lat="46.51637" lon="5.63845">
        <ele>449.4</ele>
        <time>2022-02-24T07:36:55Z</time>
      </trkpt>
      <trkpt lat="46.51632" lon="5.63838">
        <ele>449</ele>
        <time>2022-02-24T07:36:56Z</time>
      </trkpt>
      <trkpt lat="46.51627" lon="5.6383">
        <ele>448.6</ele>
        <time>2022-02-24T07:36:57Z</time>
      </trkpt>
      <trkpt lat="46.51622" lon="5.63821">
        <ele>448.2</ele>
        <time>2022-02-24T07:36:58Z</time>
      </trkpt>
      <trkpt lat="46.51616" lon="5.63813">
        <ele>447.8</ele>
        <time>2022-02-24T07:36:59Z</time>
      </trkpt>
      <trkpt lat="46.5161" lon="5.63804">
        <ele>447.4</ele>
        <time>2022-02-24T07:37:00Z</time>
      </trkpt>
      <trkpt lat="46.51604" lon="5.63794">
        <ele>446.8</ele>
        <time>2022-02-24T07:37:01Z</time>
      </trkpt>
      <trkpt lat="46.51598" lon="5.63785">
        <ele>446.2</ele>
        <time>2022-02-24T07:37:02Z</time>
      </trkpt>
      <trkpt lat="46.51591" lon="5.63774">
        <ele>445.6</ele>
        <time>2022-02-24T07:37:03Z</time>
      </trkpt>
      <trkpt lat="46.51585" lon="5.63764">
        <ele>445</ele>
        <time>2022-02-24T07:37:04Z</time>
      </trkpt>
      <trkpt lat="46.51578" lon="5.63754">
        <ele>444.4</ele>
        <time>2022-02-24T07:37:05Z</time>
      </trkpt>
      <trkpt lat="46.51572" lon="5.63742">
        <ele>443.8</ele>
        <time>2022-02-24T07:37:06Z</time>
      </trkpt>
      <trkpt lat="46.51565" lon="5.63732">
        <ele>443.4</ele>
        <time>2022-02-24T07:37:07Z</time>
      </trkpt>
      <trkpt lat="46.51559" lon="5.63721">
        <ele>442.8</ele>
        <time>2022-02-24T07:37:08Z</time>
      </trkpt>
      <trkpt lat="46.51551" lon="5.6371">
        <ele>442.2</ele>
        <time>2022-02-24T07:37:09Z</time>
      </trkpt>
      <trkpt lat="46.51551" lon="5.6371">
        <ele>441.6</ele>
        <time>2022-02-24T07:37:10Z</time>
      </trkpt>
      <trkpt lat="46.51543" lon="5.637">
        <ele>441.2</ele>
        <time>2022-02-24T07:37:11Z</time>
      </trkpt>
      <trkpt lat="46.51535" lon="5.63692">
        <ele>440.6</ele>
        <time>2022-02-24T07:37:12Z</time>
      </trkpt>
      <trkpt lat="46.51526" lon="5.63686">
        <ele>440</ele>
        <time>2022-02-24T07:37:13Z</time>
      </trkpt>
      <trkpt lat="46.51516" lon="5.63683">
        <ele>439.6</ele>
        <time>2022-02-24T07:37:14Z</time>
      </trkpt>
      <trkpt lat="46.51506" lon="5.63682">
        <ele>439</ele>
        <time>2022-02-24T07:37:15Z</time>
      </trkpt>
      <trkpt lat="46.51496" lon="5.63682">
        <ele>438.4</ele>
        <time>2022-02-24T07:37:16Z</time>
      </trkpt>
      <trkpt lat="46.51484" lon="5.63681">
        <ele>437.8</ele>
        <time>2022-02-24T07:37:17Z</time>
      </trkpt>
      <trkpt lat="46.51473" lon="5.6368">
        <ele>437</ele>
        <time>2022-02-24T07:37:18Z</time>
      </trkpt>
      <trkpt lat="46.51462" lon="5.6368">
        <ele>436.4</ele>
        <time>2022-02-24T07:37:19Z</time>
      </trkpt>
      <trkpt lat="46.51451" lon="5.63679">
        <ele>435.8</ele>
        <time>2022-02-24T07:37:20Z</time>
      </trkpt>
      <trkpt lat="46.5144" lon="5.63679">
        <ele>435.2</ele>
        <time>2022-02-24T07:37:21Z</time>
      </trkpt>
      <trkpt lat="46.51428" lon="5.63679">
        <ele>434.4</ele>
        <time>2022-02-24T07:37:22Z</time>
      </trkpt>
      <trkpt lat="46.51417" lon="5.63677">
        <ele>433.8</ele>
        <time>2022-02-24T07:37:23Z</time>
      </trkpt>
      <trkpt lat="46.51406" lon="5.63673">
        <ele>433.2</ele>
        <time>2022-02-24T07:37:24Z</time>
      </trkpt>
      <trkpt lat="46.51395" lon="5.63668">
        <ele>432.4</ele>
        <time>2022-02-24T07:37:25Z</time>
      </trkpt>
      <trkpt lat="46.51385" lon="5.63661">
        <ele>431.8</ele>
        <time>2022-02-24T07:37:26Z</time>
      </trkpt>
      <trkpt lat="46.51374" lon="5.63653">
        <ele>431</ele>
        <time>2022-02-24T07:37:27Z</time>
      </trkpt>
      <trkpt lat="46.51364" lon="5.63644">
        <ele>430.4</ele>
        <time>2022-02-24T07:37:28Z</time>
      </trkpt>
      <trkpt lat="46.51355" lon="5.63634">
        <ele>429.6</ele>
        <time>2022-02-24T07:37:29Z</time>
      </trkpt>
      <trkpt lat="46.51345" lon="5.63624">
        <ele>429</ele>
        <time>2022-02-24T07:37:30Z</time>
      </trkpt>
      <trkpt lat="46.51335" lon="5.63614">
        <ele>428.2</ele>
        <time>2022-02-24T07:37:31Z</time>
      </trkpt>
      <trkpt lat="46.51325" lon="5.63606">
        <ele>427.6</ele>
        <time>2022-02-24T07:37:32Z</time>
      </trkpt>
      <trkpt lat="46.51315" lon="5.63599">
        <ele>426.8</ele>
        <time>2022-02-24T07:37:33Z</time>
      </trkpt>
      <trkpt lat="46.51304" lon="5.63592">
        <ele>426.2</ele>
        <time>2022-02-24T07:37:34Z</time>
      </trkpt>
      <trkpt lat="46.51294" lon="5.63584">
        <ele>425.4</ele>
        <time>2022-02-24T07:37:35Z</time>
      </trkpt>
      <trkpt lat="46.51283" lon="5.63577">
        <ele>424.6</ele>
        <time>2022-02-24T07:37:36Z</time>
      </trkpt>
      <trkpt lat="46.51273" lon="5.63569">
        <ele>423.4</ele>
        <time>2022-02-24T07:37:37Z</time>
      </trkpt>
      <trkpt lat="46.51263" lon="5.63562">
        <ele>422.8</ele>
        <time>2022-02-24T07:37:38Z</time>
      </trkpt>
      <trkpt lat="46.51253" lon="5.63554">
        <ele>422</ele>
        <time>2022-02-24T07:37:39Z</time>
      </trkpt>
      <trkpt lat="46.51243" lon="5.63546">
        <ele>421.4</ele>
        <time>2022-02-24T07:37:40Z</time>
      </trkpt>
      <trkpt lat="46.51233" lon="5.63538">
        <ele>420.6</ele>
        <time>2022-02-24T07:37:41Z</time>
      </trkpt>
      <trkpt lat="46.51223" lon="5.63529">
        <ele>420</ele>
        <time>2022-02-24T07:37:42Z</time>
      </trkpt>
      <trkpt lat="46.51213" lon="5.63521">
        <ele>419.2</ele>
        <time>2022-02-24T07:37:43Z</time>
      </trkpt>
      <trkpt lat="46.51204" lon="5.63512">
        <ele>418.6</ele>
        <time>2022-02-24T07:37:44Z</time>
      </trkpt>
      <trkpt lat="46.51194" lon="5.63503">
        <ele>418</ele>
        <time>2022-02-24T07:37:45Z</time>
      </trkpt>
      <trkpt lat="46.51186" lon="5.63493">
        <ele>417.4</ele>
        <time>2022-02-24T07:37:46Z</time>
      </trkpt>
      <trkpt lat="46.51177" lon="5.63482">
        <ele>416.8</ele>
        <time>2022-02-24T07:37:47Z</time>
      </trkpt>
      <trkpt lat="46.51169" lon="5.63472">
        <ele>416.2</ele>
        <time>2022-02-24T07:37:48Z</time>
      </trkpt>
      <trkpt lat="46.51161" lon="5.63461">
        <ele>415.6</ele>
        <time>2022-02-24T07:37:49Z</time>
      </trkpt>
      <trkpt lat="46.51153" lon="5.63451">
        <ele>415.2</ele>
        <time>2022-02-24T07:37:50Z</time>
      </trkpt>
      <trkpt lat="46.51145" lon="5.6344">
        <ele>414.8</ele>
        <time>2022-02-24T07:37:51Z</time>
      </trkpt>
      <trkpt lat="46.51137" lon="5.6343">
        <ele>414.4</ele>
        <time>2022-02-24T07:37:52Z</time>
      </trkpt>
      <trkpt lat="46.51129" lon="5.63419">
        <ele>414.2</ele>
        <time>2022-02-24T07:37:53Z</time>
      </trkpt>
      <trkpt lat="46.51121" lon="5.63409">
        <ele>413.8</ele>
        <time>2022-02-24T07:37:54Z</time>
      </trkpt>
      <trkpt lat="46.51113" lon="5.634">
        <ele>413.6</ele>
        <time>2022-02-24T07:37:55Z</time>
      </trkpt>
      <trkpt lat="46.51105" lon="5.63392">
        <ele>413.2</ele>
        <time>2022-02-24T07:37:56Z</time>
      </trkpt>
      <trkpt lat="46.51096" lon="5.63384">
        <ele>413</ele>
        <time>2022-02-24T07:37:57Z</time>
      </trkpt>
      <trkpt lat="46.51086" lon="5.63378">
        <ele>412.6</ele>
        <time>2022-02-24T07:37:58Z</time>
      </trkpt>
      <trkpt lat="46.51077" lon="5.63373">
        <ele>412.2</ele>
        <time>2022-02-24T07:37:59Z</time>
      </trkpt>
      <trkpt lat="46.51067" lon="5.63369">
        <ele>412</ele>
        <time>2022-02-24T07:38:00Z</time>
      </trkpt>
      <trkpt lat="46.51057" lon="5.63366">
        <ele>411.6</ele>
        <time>2022-02-24T07:38:01Z</time>
      </trkpt>
      <trkpt lat="46.51048" lon="5.63363">
        <ele>411.2</ele>
        <time>2022-02-24T07:38:02Z</time>
      </trkpt>
      <trkpt lat="46.51038" lon="5.6336">
        <ele>411</ele>
        <time>2022-02-24T07:38:03Z</time>
      </trkpt>
      <trkpt lat="46.51028" lon="5.63357">
        <ele>410.6</ele>
        <time>2022-02-24T07:38:04Z</time>
      </trkpt>
      <trkpt lat="46.51018" lon="5.63354">
        <ele>410.4</ele>
        <time>2022-02-24T07:38:05Z</time>
      </trkpt>
      <trkpt lat="46.51009" lon="5.63351">
        <ele>410</ele>
        <time>2022-02-24T07:38:06Z</time>
      </trkpt>
      <trkpt lat="46.50999" lon="5.63348">
        <ele>409.8</ele>
        <time>2022-02-24T07:38:07Z</time>
      </trkpt>
      <trkpt lat="46.5099" lon="5.63345">
        <ele>409.4</ele>
        <time>2022-02-24T07:38:08Z</time>
      </trkpt>
      <trkpt lat="46.5098" lon="5.63343">
        <ele>409.2</ele>
        <time>2022-02-24T07:38:09Z</time>
      </trkpt>
      <trkpt lat="46.50971" lon="5.6334">
        <ele>408.8</ele>
        <time>2022-02-24T07:38:10Z</time>
      </trkpt>
      <trkpt lat="46.50961" lon="5.63337">
        <ele>408.4</ele>
        <time>2022-02-24T07:38:11Z</time>
      </trkpt>
      <trkpt lat="46.50952" lon="5.63334">
        <ele>408.4</ele>
        <time>2022-02-24T07:38:12Z</time>
      </trkpt>
      <trkpt lat="46.50942" lon="5.63331">
        <ele>408</ele>
        <time>2022-02-24T07:38:13Z</time>
      </trkpt>
      <trkpt lat="46.50933" lon="5.63328">
        <ele>407.8</ele>
        <time>2022-02-24T07:38:14Z</time>
      </trkpt>
      <trkpt lat="46.50924" lon="5.63324">
        <ele>407.4</ele>
        <time>2022-02-24T07:38:15Z</time>
      </trkpt>
      <trkpt lat="46.50915" lon="5.63319">
        <ele>407.2</ele>
        <time>2022-02-24T07:38:16Z</time>
      </trkpt>
      <trkpt lat="46.50905" lon="5.63316">
        <ele>406.8</ele>
        <time>2022-02-24T07:38:17Z</time>
      </trkpt>
      <trkpt lat="46.50896" lon="5.63312">
        <ele>406.4</ele>
        <time>2022-02-24T07:38:18Z</time>
      </trkpt>
      <trkpt lat="46.50887" lon="5.63307">
        <ele>406.2</ele>
        <time>2022-02-24T07:38:19Z</time>
      </trkpt>
      <trkpt lat="46.50878" lon="5.63303">
        <ele>405.8</ele>
        <time>2022-02-24T07:38:20Z</time>
      </trkpt>
      <trkpt lat="46.5087" lon="5.63298">
        <ele>405.4</ele>
        <time>2022-02-24T07:38:21Z</time>
      </trkpt>
      <trkpt lat="46.50861" lon="5.63294">
        <ele>405</ele>
        <time>2022-02-24T07:38:22Z</time>
      </trkpt>
      <trkpt lat="46.50852" lon="5.63289">
        <ele>404.6</ele>
        <time>2022-02-24T07:38:23Z</time>
      </trkpt>
      <trkpt lat="46.50843" lon="5.63285">
        <ele>404.2</ele>
        <time>2022-02-24T07:38:24Z</time>
      </trkpt>
      <trkpt lat="46.50834" lon="5.63279">
        <ele>404</ele>
        <time>2022-02-24T07:38:25Z</time>
      </trkpt>
      <trkpt lat="46.50825" lon="5.63272">
        <ele>403.8</ele>
        <time>2022-02-24T07:38:26Z</time>
      </trkpt>
      <trkpt lat="46.50818" lon="5.63263">
        <ele>403.4</ele>
        <time>2022-02-24T07:38:27Z</time>
      </trkpt>
      <trkpt lat="46.50812" lon="5.63255">
        <ele>403.2</ele>
        <time>2022-02-24T07:38:28Z</time>
      </trkpt>
      <trkpt lat="46.50806" lon="5.63246">
        <ele>403.2</ele>
        <time>2022-02-24T07:38:29Z</time>
      </trkpt>
      <trkpt lat="46.50799" lon="5.63237">
        <ele>402.8</ele>
        <time>2022-02-24T07:38:30Z</time>
      </trkpt>
      <trkpt lat="46.50793" lon="5.63228">
        <ele>402.4</ele>
        <time>2022-02-24T07:38:31Z</time>
      </trkpt>
      <trkpt lat="46.50787" lon="5.63219">
        <ele>402.4</ele>
        <time>2022-02-24T07:38:32Z</time>
      </trkpt>
      <trkpt lat="46.50781" lon="5.6321">
        <ele>402</ele>
        <time>2022-02-24T07:38:33Z</time>
      </trkpt>
      <trkpt lat="46.50775" lon="5.63201">
        <ele>401.8</ele>
        <time>2022-02-24T07:38:34Z</time>
      </trkpt>
      <trkpt lat="46.50769" lon="5.63193">
        <ele>401.4</ele>
        <time>2022-02-24T07:38:35Z</time>
      </trkpt>
      <trkpt lat="46.50763" lon="5.63184">
        <ele>401</ele>
        <time>2022-02-24T07:38:36Z</time>
      </trkpt>
      <trkpt lat="46.50757" lon="5.63177">
        <ele>400.6</ele>
        <time>2022-02-24T07:38:37Z</time>
      </trkpt>
      <trkpt lat="46.50751" lon="5.63169">
        <ele>400.4</ele>
        <time>2022-02-24T07:38:38Z</time>
      </trkpt>
      <trkpt lat="46.50745" lon="5.63162">
        <ele>400</ele>
        <time>2022-02-24T07:38:39Z</time>
      </trkpt>
      <trkpt lat="46.50738" lon="5.63155">
        <ele>399.6</ele>
        <time>2022-02-24T07:38:40Z</time>
      </trkpt>
      <trkpt lat="46.50732" lon="5.63149">
        <ele>399.2</ele>
        <time>2022-02-24T07:38:41Z</time>
      </trkpt>
      <trkpt lat="46.50724" lon="5.63145">
        <ele>398.6</ele>
        <time>2022-02-24T07:38:42Z</time>
      </trkpt>
      <trkpt lat="46.50716" lon="5.63142">
        <ele>398.6</ele>
        <time>2022-02-24T07:38:43Z</time>
      </trkpt>
      <trkpt lat="46.50708" lon="5.63139">
        <ele>398.2</ele>
        <time>2022-02-24T07:38:44Z</time>
      </trkpt>
      <trkpt lat="46.50699" lon="5.63137">
        <ele>397.8</ele>
        <time>2022-02-24T07:38:45Z</time>
      </trkpt>
      <trkpt lat="46.5069" lon="5.63136">
        <ele>397.4</ele>
        <time>2022-02-24T07:38:46Z</time>
      </trkpt>
      <trkpt lat="46.50681" lon="5.63135">
        <ele>397</ele>
        <time>2022-02-24T07:38:47Z</time>
      </trkpt>
      <trkpt lat="46.50672" lon="5.63134">
        <ele>396.4</ele>
        <time>2022-02-24T07:38:48Z</time>
      </trkpt>
      <trkpt lat="46.50663" lon="5.63133">
        <ele>395.8</ele>
        <time>2022-02-24T07:38:49Z</time>
      </trkpt>
      <trkpt lat="46.50654" lon="5.63133">
        <ele>395.2</ele>
        <time>2022-02-24T07:38:50Z</time>
      </trkpt>
      <trkpt lat="46.50644" lon="5.63134">
        <ele>394.6</ele>
        <time>2022-02-24T07:38:51Z</time>
      </trkpt>
      <trkpt lat="46.50634" lon="5.63136">
        <ele>394</ele>
        <time>2022-02-24T07:38:52Z</time>
      </trkpt>
      <trkpt lat="46.50624" lon="5.63137">
        <ele>393.4</ele>
        <time>2022-02-24T07:38:53Z</time>
      </trkpt>
      <trkpt lat="46.50614" lon="5.63139">
        <ele>392.8</ele>
        <time>2022-02-24T07:38:54Z</time>
      </trkpt>
      <trkpt lat="46.50604" lon="5.63141">
        <ele>392.2</ele>
        <time>2022-02-24T07:38:55Z</time>
      </trkpt>
      <trkpt lat="46.50594" lon="5.63142">
        <ele>391.6</ele>
        <time>2022-02-24T07:38:56Z</time>
      </trkpt>
      <trkpt lat="46.50583" lon="5.63144">
        <ele>391</ele>
        <time>2022-02-24T07:38:57Z</time>
      </trkpt>
      <trkpt lat="46.50573" lon="5.63147">
        <ele>390.4</ele>
        <time>2022-02-24T07:38:58Z</time>
      </trkpt>
      <trkpt lat="46.50564" lon="5.63149">
        <ele>390</ele>
        <time>2022-02-24T07:38:59Z</time>
      </trkpt>
      <trkpt lat="46.50554" lon="5.6315">
        <ele>389.6</ele>
        <time>2022-02-24T07:39:00Z</time>
      </trkpt>
      <trkpt lat="46.50544" lon="5.63151">
        <ele>389.2</ele>
        <time>2022-02-24T07:39:01Z</time>
      </trkpt>
      <trkpt lat="46.50534" lon="5.63149">
        <ele>389</ele>
        <time>2022-02-24T07:39:02Z</time>
      </trkpt>
      <trkpt lat="46.50525" lon="5.63146">
        <ele>388.8</ele>
        <time>2022-02-24T07:39:03Z</time>
      </trkpt>
      <trkpt lat="46.50516" lon="5.63142">
        <ele>388.8</ele>
        <time>2022-02-24T07:39:04Z</time>
      </trkpt>
      <trkpt lat="46.50509" lon="5.63136">
        <ele>388.4</ele>
        <time>2022-02-24T07:39:05Z</time>
      </trkpt>
      <trkpt lat="46.50504" lon="5.63128">
        <ele>388.4</ele>
        <time>2022-02-24T07:39:06Z</time>
      </trkpt>
      <trkpt lat="46.50501" lon="5.63118">
        <ele>388.4</ele>
        <time>2022-02-24T07:39:07Z</time>
      </trkpt>
      <trkpt lat="46.50499" lon="5.63108">
        <ele>388.4</ele>
        <time>2022-02-24T07:39:08Z</time>
      </trkpt>
      <trkpt lat="46.50498" lon="5.63098">
        <ele>388.4</ele>
        <time>2022-02-24T07:39:09Z</time>
      </trkpt>
      <trkpt lat="46.50497" lon="5.63089">
        <ele>388.4</ele>
        <time>2022-02-24T07:39:10Z</time>
      </trkpt>
      <trkpt lat="46.50497" lon="5.6308">
        <ele>388.8</ele>
        <time>2022-02-24T07:39:11Z</time>
      </trkpt>
      <trkpt lat="46.50496" lon="5.63072">
        <ele>389.2</ele>
        <time>2022-02-24T07:39:12Z</time>
      </trkpt>
      <trkpt lat="46.50495" lon="5.63064">
        <ele>389.2</ele>
        <time>2022-02-24T07:39:13Z</time>
      </trkpt>
      <trkpt lat="46.50495" lon="5.63056">
        <ele>389.6</ele>
        <time>2022-02-24T07:39:14Z</time>
      </trkpt>
      <trkpt lat="46.50494" lon="5.63048">
        <ele>389.6</ele>
        <time>2022-02-24T07:39:15Z</time>
      </trkpt>
      <trkpt lat="46.50493" lon="5.63041">
        <ele>389.8</ele>
        <time>2022-02-24T07:39:16Z</time>
      </trkpt>
      <trkpt lat="46.50492" lon="5.63034">
        <ele>390.2</ele>
        <time>2022-02-24T07:39:17Z</time>
      </trkpt>
      <trkpt lat="46.5049" lon="5.63027">
        <ele>390.4</ele>
        <time>2022-02-24T07:39:18Z</time>
      </trkpt>
      <trkpt lat="46.50489" lon="5.63021">
        <ele>390.6</ele>
        <time>2022-02-24T07:39:19Z</time>
      </trkpt>
      <trkpt lat="46.50488" lon="5.63015">
        <ele>390.8</ele>
        <time>2022-02-24T07:39:20Z</time>
      </trkpt>
      <trkpt lat="46.50487" lon="5.63009">
        <ele>391.2</ele>
        <time>2022-02-24T07:39:21Z</time>
      </trkpt>
      <trkpt lat="46.50485" lon="5.63004">
        <ele>391.4</ele>
        <time>2022-02-24T07:39:22Z</time>
      </trkpt>
      <trkpt lat="46.50484" lon="5.62999">
        <ele>391.8</ele>
        <time>2022-02-24T07:39:23Z</time>
      </trkpt>
      <trkpt lat="46.50483" lon="5.62994">
        <ele>392.2</ele>
        <time>2022-02-24T07:39:24Z</time>
      </trkpt>
      <trkpt lat="46.50481" lon="5.6299">
        <ele>392.4</ele>
        <time>2022-02-24T07:39:25Z</time>
      </trkpt>
      <trkpt lat="46.5048" lon="5.62986">
        <ele>392.8</ele>
        <time>2022-02-24T07:39:26Z</time>
      </trkpt>
      <trkpt lat="46.50479" lon="5.62982">
        <ele>393.2</ele>
        <time>2022-02-24T07:39:27Z</time>
      </trkpt>
      <trkpt lat="46.50477" lon="5.62978">
        <ele>393.4</ele>
        <time>2022-02-24T07:39:28Z</time>
      </trkpt>
      <trkpt lat="46.50475" lon="5.62974">
        <ele>393.8</ele>
        <time>2022-02-24T07:39:29Z</time>
      </trkpt>
      <trkpt lat="46.50473" lon="5.62971">
        <ele>394.2</ele>
        <time>2022-02-24T07:39:30Z</time>
      </trkpt>
      <trkpt lat="46.50471" lon="5.62969">
        <ele>394.6</ele>
        <time>2022-02-24T07:39:31Z</time>
      </trkpt>
      <trkpt lat="46.50468" lon="5.62966">
        <ele>394.8</ele>
        <time>2022-02-24T07:39:32Z</time>
      </trkpt>
      <trkpt lat="46.50463" lon="5.62961">
        <ele>395</ele>
        <time>2022-02-24T07:39:33Z</time>
      </trkpt>
      <trkpt lat="46.5046" lon="5.62959">
        <ele>395.2</ele>
        <time>2022-02-24T07:39:34Z</time>
      </trkpt>
      <trkpt lat="46.50458" lon="5.62956">
        <ele>395.6</ele>
        <time>2022-02-24T07:39:35Z</time>
      </trkpt>
      <trkpt lat="46.50455" lon="5.62954">
        <ele>395.8</ele>
        <time>2022-02-24T07:39:36Z</time>
      </trkpt>
      <trkpt lat="46.50452" lon="5.62952">
        <ele>396.2</ele>
        <time>2022-02-24T07:39:37Z</time>
      </trkpt>
      <trkpt lat="46.5045" lon="5.6295">
        <ele>396.4</ele>
        <time>2022-02-24T07:39:38Z</time>
      </trkpt>
      <trkpt lat="46.50447" lon="5.62947">
        <ele>396.6</ele>
        <time>2022-02-24T07:39:39Z</time>
      </trkpt>
      <trkpt lat="46.50445" lon="5.62945">
        <ele>396.8</ele>
        <time>2022-02-24T07:39:40Z</time>
      </trkpt>
      <trkpt lat="46.50442" lon="5.62943">
        <ele>397</ele>
        <time>2022-02-24T07:39:41Z</time>
      </trkpt>
      <trkpt lat="46.5044" lon="5.62942">
        <ele>397</ele>
        <time>2022-02-24T07:39:42Z</time>
      </trkpt>
      <trkpt lat="46.50437" lon="5.6294">
        <ele>397.6</ele>
        <time>2022-02-24T07:39:43Z</time>
      </trkpt>
      <trkpt lat="46.50434" lon="5.62938">
        <ele>397.8</ele>
        <time>2022-02-24T07:39:44Z</time>
      </trkpt>
      <trkpt lat="46.50432" lon="5.62936">
        <ele>398</ele>
        <time>2022-02-24T07:39:45Z</time>
      </trkpt>
      <trkpt lat="46.50429" lon="5.62934">
        <ele>398.2</ele>
        <time>2022-02-24T07:39:46Z</time>
      </trkpt>
      <trkpt lat="46.50427" lon="5.62932">
        <ele>398.6</ele>
        <time>2022-02-24T07:39:47Z</time>
      </trkpt>
      <trkpt lat="46.50424" lon="5.62929">
        <ele>398.8</ele>
        <time>2022-02-24T07:39:48Z</time>
      </trkpt>
      <trkpt lat="46.50421" lon="5.62927">
        <ele>399</ele>
        <time>2022-02-24T07:39:49Z</time>
      </trkpt>
      <trkpt lat="46.50419" lon="5.62925">
        <ele>399.2</ele>
        <time>2022-02-24T07:39:50Z</time>
      </trkpt>
      <trkpt lat="46.50416" lon="5.62923">
        <ele>399.4</ele>
        <time>2022-02-24T07:39:51Z</time>
      </trkpt>
      <trkpt lat="46.50414" lon="5.62921">
        <ele>399.8</ele>
        <time>2022-02-24T07:39:52Z</time>
      </trkpt>
      <trkpt lat="46.50411" lon="5.62919">
        <ele>400</ele>
        <time>2022-02-24T07:39:53Z</time>
      </trkpt>
      <trkpt lat="46.50409" lon="5.62918">
        <ele>400.2</ele>
        <time>2022-02-24T07:39:54Z</time>
      </trkpt>
      <trkpt lat="46.50406" lon="5.62916">
        <ele>400.6</ele>
        <time>2022-02-24T07:39:55Z</time>
      </trkpt>
      <trkpt lat="46.50404" lon="5.62915">
        <ele>400.8</ele>
        <time>2022-02-24T07:39:56Z</time>
      </trkpt>
      <trkpt lat="46.50401" lon="5.62913">
        <ele>401</ele>
        <time>2022-02-24T07:39:57Z</time>
      </trkpt>
      <trkpt lat="46.50399" lon="5.62912">
        <ele>401.2</ele>
        <time>2022-02-24T07:39:58Z</time>
      </trkpt>
      <trkpt lat="46.50396" lon="5.62911">
        <ele>401.4</ele>
        <time>2022-02-24T07:39:59Z</time>
      </trkpt>
      <trkpt lat="46.50394" lon="5.6291">
        <ele>401.8</ele>
        <time>2022-02-24T07:40:00Z</time>
      </trkpt>
      <trkpt lat="46.50391" lon="5.62909">
        <ele>402</ele>
        <time>2022-02-24T07:40:01Z</time>
      </trkpt>
      <trkpt lat="46.50389" lon="5.62907">
        <ele>402.2</ele>
        <time>2022-02-24T07:40:02Z</time>
      </trkpt>
      <trkpt lat="46.50386" lon="5.62906">
        <ele>402.4</ele>
        <time>2022-02-24T07:40:03Z</time>
      </trkpt>
      <trkpt lat="46.50383" lon="5.62905">
        <ele>402.8</ele>
        <time>2022-02-24T07:40:04Z</time>
      </trkpt>
      <trkpt lat="46.50381" lon="5.62904">
        <ele>402.8</ele>
        <time>2022-02-24T07:40:05Z</time>
      </trkpt>
      <trkpt lat="46.50378" lon="5.62904">
        <ele>403</ele>
        <time>2022-02-24T07:40:06Z</time>
      </trkpt>
      <trkpt lat="46.50375" lon="5.62903">
        <ele>403.2</ele>
        <time>2022-02-24T07:40:07Z</time>
      </trkpt>
      <trkpt lat="46.50372" lon="5.62903">
        <ele>403.2</ele>
        <time>2022-02-24T07:40:08Z</time>
      </trkpt>
      <trkpt lat="46.50369" lon="5.62901">
        <ele>403.6</ele>
        <time>2022-02-24T07:40:09Z</time>
      </trkpt>
      <trkpt lat="46.50366" lon="5.629">
        <ele>403.8</ele>
        <time>2022-02-24T07:40:10Z</time>
      </trkpt>
      <trkpt lat="46.50363" lon="5.62899">
        <ele>403.8</ele>
        <time>2022-02-24T07:40:11Z</time>
      </trkpt>
      <trkpt lat="46.5036" lon="5.62898">
        <ele>404.2</ele>
        <time>2022-02-24T07:40:12Z</time>
      </trkpt>
      <trkpt lat="46.50357" lon="5.62897">
        <ele>404.2</ele>
        <time>2022-02-24T07:40:13Z</time>
      </trkpt>
      <trkpt lat="46.50354" lon="5.62895">
        <ele>404.6</ele>
        <time>2022-02-24T07:40:14Z</time>
      </trkpt>
      <trkpt lat="46.50351" lon="5.62893">
        <ele>404.8</ele>
        <time>2022-02-24T07:40:15Z</time>
      </trkpt>
      <trkpt lat="46.50349" lon="5.62891">
        <ele>405</ele>
        <time>2022-02-24T07:40:16Z</time>
      </trkpt>
      <trkpt lat="46.50346" lon="5.62889">
        <ele>405.2</ele>
        <time>2022-02-24T07:40:17Z</time>
      </trkpt>
      <trkpt lat="46.50343" lon="5.62886">
        <ele>405.4</ele>
        <time>2022-02-24T07:40:18Z</time>
      </trkpt>
      <trkpt lat="46.50341" lon="5.62883">
        <ele>405.8</ele>
        <time>2022-02-24T07:40:19Z</time>
      </trkpt>
      <trkpt lat="46.50339" lon="5.6288">
        <ele>406</ele>
        <time>2022-02-24T07:40:20Z</time>
      </trkpt>
      <trkpt lat="46.50337" lon="5.62877">
        <ele>406.4</ele>
        <time>2022-02-24T07:40:21Z</time>
      </trkpt>
      <trkpt lat="46.50335" lon="5.62874">
        <ele>406.6</ele>
        <time>2022-02-24T07:40:22Z</time>
      </trkpt>
      <trkpt lat="46.50333" lon="5.62871">
        <ele>406.8</ele>
        <time>2022-02-24T07:40:23Z</time>
      </trkpt>
      <trkpt lat="46.50332" lon="5.62868">
        <ele>407.2</ele>
        <time>2022-02-24T07:40:24Z</time>
      </trkpt>
      <trkpt lat="46.5033" lon="5.62864">
        <ele>407.4</ele>
        <time>2022-02-24T07:40:25Z</time>
      </trkpt>
      <trkpt lat="46.50329" lon="5.6286">
        <ele>407.4</ele>
        <time>2022-02-24T07:40:26Z</time>
      </trkpt>
      <trkpt lat="46.50328" lon="5.62856">
        <ele>407.8</ele>
        <time>2022-02-24T07:40:27Z</time>
      </trkpt>
      <trkpt lat="46.50327" lon="5.62853">
        <ele>408</ele>
        <time>2022-02-24T07:40:28Z</time>
      </trkpt>
      <trkpt lat="46.50326" lon="5.62849">
        <ele>408</ele>
        <time>2022-02-24T07:40:29Z</time>
      </trkpt>
      <trkpt lat="46.50326" lon="5.62845">
        <ele>408.4</ele>
        <time>2022-02-24T07:40:30Z</time>
      </trkpt>
      <trkpt lat="46.50325" lon="5.62841">
        <ele>408.6</ele>
        <time>2022-02-24T07:40:31Z</time>
      </trkpt>
      <trkpt lat="46.50325" lon="5.62837">
        <ele>408.8</ele>
        <time>2022-02-24T07:40:32Z</time>
      </trkpt>
      <trkpt lat="46.50325" lon="5.62832">
        <ele>408.8</ele>
        <time>2022-02-24T07:40:33Z</time>
      </trkpt>
      <trkpt lat="46.50325" lon="5.62828">
        <ele>409.2</ele>
        <time>2022-02-24T07:40:34Z</time>
      </trkpt>
      <trkpt lat="46.50325" lon="5.62824">
        <ele>409.2</ele>
        <time>2022-02-24T07:40:35Z</time>
      </trkpt>
      <trkpt lat="46.50326" lon="5.6282">
        <ele>409.6</ele>
        <time>2022-02-24T07:40:36Z</time>
      </trkpt>
      <trkpt lat="46.50326" lon="5.62816">
        <ele>409.6</ele>
        <time>2022-02-24T07:40:37Z</time>
      </trkpt>
      <trkpt lat="46.50327" lon="5.62813">
        <ele>410</ele>
        <time>2022-02-24T07:40:38Z</time>
      </trkpt>
      <trkpt lat="46.50328" lon="5.62809">
        <ele>410.2</ele>
        <time>2022-02-24T07:40:39Z</time>
      </trkpt>
      <trkpt lat="46.50329" lon="5.62806">
        <ele>410.6</ele>
        <time>2022-02-24T07:40:40Z</time>
      </trkpt>
      <trkpt lat="46.50331" lon="5.62802">
        <ele>410.8</ele>
        <time>2022-02-24T07:40:41Z</time>
      </trkpt>
      <trkpt lat="46.50332" lon="5.62799">
        <ele>411</ele>
        <time>2022-02-24T07:40:42Z</time>
      </trkpt>
      <trkpt lat="46.50333" lon="5.62795">
        <ele>411.2</ele>
        <time>2022-02-24T07:40:43Z</time>
      </trkpt>
      <trkpt lat="46.50335" lon="5.62792">
        <ele>411.4</ele>
        <time>2022-02-24T07:40:44Z</time>
      </trkpt>
      <trkpt lat="46.50336" lon="5.62789">
        <ele>411.6</ele>
        <time>2022-02-24T07:40:45Z</time>
      </trkpt>
      <trkpt lat="46.50337" lon="5.62786">
        <ele>411.6</ele>
        <time>2022-02-24T07:40:46Z</time>
      </trkpt>
      <trkpt lat="46.50339" lon="5.62783">
        <ele>412</ele>
        <time>2022-02-24T07:40:47Z</time>
      </trkpt>
      <trkpt lat="46.5034" lon="5.6278">
        <ele>412</ele>
        <time>2022-02-24T07:40:48Z</time>
      </trkpt>
      <trkpt lat="46.50342" lon="5.62777">
        <ele>412.2</ele>
        <time>2022-02-24T07:40:49Z</time>
      </trkpt>
      <trkpt lat="46.50344" lon="5.62774">
        <ele>412.2</ele>
        <time>2022-02-24T07:40:50Z</time>
      </trkpt>
      <trkpt lat="46.50345" lon="5.62772">
        <ele>412.6</ele>
        <time>2022-02-24T07:40:51Z</time>
      </trkpt>
      <trkpt lat="46.50347" lon="5.62769">
        <ele>412.6</ele>
        <time>2022-02-24T07:40:52Z</time>
      </trkpt>
      <trkpt lat="46.50349" lon="5.62766">
        <ele>413</ele>
        <time>2022-02-24T07:40:53Z</time>
      </trkpt>
      <trkpt lat="46.5035" lon="5.62764">
        <ele>413</ele>
        <time>2022-02-24T07:40:54Z</time>
      </trkpt>
      <trkpt lat="46.50352" lon="5.62761">
        <ele>413.2</ele>
        <time>2022-02-24T07:40:55Z</time>
      </trkpt>
      <trkpt lat="46.50354" lon="5.62759">
        <ele>413.4</ele>
        <time>2022-02-24T07:40:56Z</time>
      </trkpt>
      <trkpt lat="46.50356" lon="5.62756">
        <ele>413.6</ele>
        <time>2022-02-24T07:40:57Z</time>
      </trkpt>
      <trkpt lat="46.50358" lon="5.62753">
        <ele>414</ele>
        <time>2022-02-24T07:40:58Z</time>
      </trkpt>
      <trkpt lat="46.50359" lon="5.6275">
        <ele>414.2</ele>
        <time>2022-02-24T07:40:59Z</time>
      </trkpt>
      <trkpt lat="46.50361" lon="5.62748">
        <ele>414.4</ele>
        <time>2022-02-24T07:41:00Z</time>
      </trkpt>
      <trkpt lat="46.50363" lon="5.62745">
        <ele>414.6</ele>
        <time>2022-02-24T07:41:01Z</time>
      </trkpt>
      <trkpt lat="46.50364" lon="5.62742">
        <ele>414.6</ele>
        <time>2022-02-24T07:41:02Z</time>
      </trkpt>
      <trkpt lat="46.50366" lon="5.62739">
        <ele>415</ele>
        <time>2022-02-24T07:41:03Z</time>
      </trkpt>
      <trkpt lat="46.50368" lon="5.62736">
        <ele>415</ele>
        <time>2022-02-24T07:41:04Z</time>
      </trkpt>
      <trkpt lat="46.5037" lon="5.62733">
        <ele>415.2</ele>
        <time>2022-02-24T07:41:05Z</time>
      </trkpt>
      <trkpt lat="46.50372" lon="5.62729">
        <ele>415.2</ele>
        <time>2022-02-24T07:41:06Z</time>
      </trkpt>
      <trkpt lat="46.50373" lon="5.62725">
        <ele>415.6</ele>
        <time>2022-02-24T07:41:07Z</time>
      </trkpt>
      <trkpt lat="46.50374" lon="5.62722">
        <ele>416</ele>
        <time>2022-02-24T07:41:08Z</time>
      </trkpt>
      <trkpt lat="46.50376" lon="5.62718">
        <ele>416.2</ele>
        <time>2022-02-24T07:41:09Z</time>
      </trkpt>
      <trkpt lat="46.50377" lon="5.62715">
        <ele>416.2</ele>
        <time>2022-02-24T07:41:10Z</time>
      </trkpt>
      <trkpt lat="46.50377" lon="5.62715">
        <ele>416.6</ele>
        <time>2022-02-24T07:41:11Z</time>
      </trkpt>
      <trkpt lat="46.50378" lon="5.62711">
        <ele>416.6</ele>
        <time>2022-02-24T07:41:12Z</time>
      </trkpt>
      <trkpt lat="46.50379" lon="5.62708">
        <ele>417</ele>
        <time>2022-02-24T07:41:13Z</time>
      </trkpt>
      <trkpt lat="46.5038" lon="5.62704">
        <ele>417</ele>
        <time>2022-02-24T07:41:14Z</time>
      </trkpt>
      <trkpt lat="46.50381" lon="5.627">
        <ele>417.4</ele>
        <time>2022-02-24T07:41:15Z</time>
      </trkpt>
      <trkpt lat="46.50382" lon="5.62697">
        <ele>417.6</ele>
        <time>2022-02-24T07:41:16Z</time>
      </trkpt>
      <trkpt lat="46.50382" lon="5.62693">
        <ele>418</ele>
        <time>2022-02-24T07:41:17Z</time>
      </trkpt>
      <trkpt lat="46.50383" lon="5.62689">
        <ele>418</ele>
        <time>2022-02-24T07:41:18Z</time>
      </trkpt>
      <trkpt lat="46.50383" lon="5.62685">
        <ele>418.2</ele>
        <time>2022-02-24T07:41:19Z</time>
      </trkpt>
      <trkpt lat="46.50384" lon="5.62681">
        <ele>418.2</ele>
        <time>2022-02-24T07:41:20Z</time>
      </trkpt>
      <trkpt lat="46.50385" lon="5.62677">
        <ele>418.6</ele>
        <time>2022-02-24T07:41:21Z</time>
      </trkpt>
      <trkpt lat="46.50386" lon="5.62673">
        <ele>418.6</ele>
        <time>2022-02-24T07:41:22Z</time>
      </trkpt>
      <trkpt lat="46.50386" lon="5.62669">
        <ele>418.8</ele>
        <time>2022-02-24T07:41:23Z</time>
      </trkpt>
      <trkpt lat="46.50387" lon="5.62664">
        <ele>418.8</ele>
        <time>2022-02-24T07:41:24Z</time>
      </trkpt>
      <trkpt lat="46.50387" lon="5.6266">
        <ele>419.2</ele>
        <time>2022-02-24T07:41:25Z</time>
      </trkpt>
      <trkpt lat="46.50387" lon="5.62656">
        <ele>419.2</ele>
        <time>2022-02-24T07:41:26Z</time>
      </trkpt>
      <trkpt lat="46.50388" lon="5.62652">
        <ele>419.4</ele>
        <time>2022-02-24T07:41:27Z</time>
      </trkpt>
      <trkpt lat="46.50388" lon="5.62647">
        <ele>419.4</ele>
        <time>2022-02-24T07:41:28Z</time>
      </trkpt>
      <trkpt lat="46.50388" lon="5.62643">
        <ele>419.8</ele>
        <time>2022-02-24T07:41:29Z</time>
      </trkpt>
      <trkpt lat="46.50388" lon="5.62639">
        <ele>419.8</ele>
        <time>2022-02-24T07:41:30Z</time>
      </trkpt>
      <trkpt lat="46.50388" lon="5.62635">
        <ele>420.2</ele>
        <time>2022-02-24T07:41:31Z</time>
      </trkpt>
      <trkpt lat="46.50387" lon="5.62631">
        <ele>420.4</ele>
        <time>2022-02-24T07:41:32Z</time>
      </trkpt>
      <trkpt lat="46.50386" lon="5.62627">
        <ele>420.4</ele>
        <time>2022-02-24T07:41:33Z</time>
      </trkpt>
      <trkpt lat="46.50385" lon="5.62623">
        <ele>420.8</ele>
        <time>2022-02-24T07:41:34Z</time>
      </trkpt>
      <trkpt lat="46.50384" lon="5.62619">
        <ele>420.8</ele>
        <time>2022-02-24T07:41:35Z</time>
      </trkpt>
      <trkpt lat="46.50383" lon="5.62616">
        <ele>421</ele>
        <time>2022-02-24T07:41:36Z</time>
      </trkpt>
      <trkpt lat="46.50381" lon="5.62613">
        <ele>421.2</ele>
        <time>2022-02-24T07:41:37Z</time>
      </trkpt>
      <trkpt lat="46.50378" lon="5.6261">
        <ele>421.6</ele>
        <time>2022-02-24T07:41:38Z</time>
      </trkpt>
      <trkpt lat="46.50376" lon="5.62608">
        <ele>421.6</ele>
        <time>2022-02-24T07:41:39Z</time>
      </trkpt>
      <trkpt lat="46.50373" lon="5.62607">
        <ele>422</ele>
        <time>2022-02-24T07:41:40Z</time>
      </trkpt>
      <trkpt lat="46.50371" lon="5.62605">
        <ele>422.2</ele>
        <time>2022-02-24T07:41:41Z</time>
      </trkpt>
      <trkpt lat="46.50368" lon="5.62604">
        <ele>422.2</ele>
        <time>2022-02-24T07:41:42Z</time>
      </trkpt>
      <trkpt lat="46.50366" lon="5.62602">
        <ele>422.4</ele>
        <time>2022-02-24T07:41:43Z</time>
      </trkpt>
      <trkpt lat="46.50363" lon="5.62601">
        <ele>422.4</ele>
        <time>2022-02-24T07:41:44Z</time>
      </trkpt>
      <trkpt lat="46.50361" lon="5.626">
        <ele>422.8</ele>
        <time>2022-02-24T07:41:45Z</time>
      </trkpt>
      <trkpt lat="46.50358" lon="5.62601">
        <ele>423</ele>
        <time>2022-02-24T07:41:46Z</time>
      </trkpt>
      <trkpt lat="46.50355" lon="5.62601">
        <ele>423.2</ele>
        <time>2022-02-24T07:41:47Z</time>
      </trkpt>
      <trkpt lat="46.50352" lon="5.62602">
        <ele>423.2</ele>
        <time>2022-02-24T07:41:48Z</time>
      </trkpt>
      <trkpt lat="46.50349" lon="5.62603">
        <ele>423.2</ele>
        <time>2022-02-24T07:41:49Z</time>
      </trkpt>
      <trkpt lat="46.50346" lon="5.62604">
        <ele>423.4</ele>
        <time>2022-02-24T07:41:50Z</time>
      </trkpt>
      <trkpt lat="46.50343" lon="5.62605">
        <ele>423.4</ele>
        <time>2022-02-24T07:41:51Z</time>
      </trkpt>
      <trkpt lat="46.5034" lon="5.62606">
        <ele>423.4</ele>
        <time>2022-02-24T07:41:52Z</time>
      </trkpt>
      <trkpt lat="46.50337" lon="5.62608">
        <ele>423.8</ele>
        <time>2022-02-24T07:41:53Z</time>
      </trkpt>
      <trkpt lat="46.50334" lon="5.6261">
        <ele>423.8</ele>
        <time>2022-02-24T07:41:54Z</time>
      </trkpt>
      <trkpt lat="46.50331" lon="5.62611">
        <ele>424</ele>
        <time>2022-02-24T07:41:55Z</time>
      </trkpt>
      <trkpt lat="46.50329" lon="5.62613">
        <ele>424.2</ele>
        <time>2022-02-24T07:41:56Z</time>
      </trkpt>
      <trkpt lat="46.50326" lon="5.62614">
        <ele>424.2</ele>
        <time>2022-02-24T07:41:57Z</time>
      </trkpt>
      <trkpt lat="46.50323" lon="5.62616">
        <ele>424.6</ele>
        <time>2022-02-24T07:41:58Z</time>
      </trkpt>
      <trkpt lat="46.5032" lon="5.62617">
        <ele>424.8</ele>
        <time>2022-02-24T07:41:59Z</time>
      </trkpt>
      <trkpt lat="46.50318" lon="5.62619">
        <ele>424.8</ele>
        <time>2022-02-24T07:42:00Z</time>
      </trkpt>
      <trkpt lat="46.50315" lon="5.62621">
        <ele>425.2</ele>
        <time>2022-02-24T07:42:01Z</time>
      </trkpt>
      <trkpt lat="46.50312" lon="5.62622">
        <ele>425.2</ele>
        <time>2022-02-24T07:42:02Z</time>
      </trkpt>
      <trkpt lat="46.50309" lon="5.62623">
        <ele>425.4</ele>
        <time>2022-02-24T07:42:03Z</time>
      </trkpt>
      <trkpt lat="46.50306" lon="5.62624">
        <ele>425.4</ele>
        <time>2022-02-24T07:42:04Z</time>
      </trkpt>
      <trkpt lat="46.50303" lon="5.62625">
        <ele>425.8</ele>
        <time>2022-02-24T07:42:05Z</time>
      </trkpt>
      <trkpt lat="46.503" lon="5.62625">
        <ele>426</ele>
        <time>2022-02-24T07:42:06Z</time>
      </trkpt>
      <trkpt lat="46.50297" lon="5.62625">
        <ele>426.4</ele>
        <time>2022-02-24T07:42:07Z</time>
      </trkpt>
      <trkpt lat="46.50295" lon="5.62625">
        <ele>426.6</ele>
        <time>2022-02-24T07:42:08Z</time>
      </trkpt>
      <trkpt lat="46.50292" lon="5.62625">
        <ele>426.8</ele>
        <time>2022-02-24T07:42:09Z</time>
      </trkpt>
      <trkpt lat="46.50289" lon="5.62624">
        <ele>426.8</ele>
        <time>2022-02-24T07:42:10Z</time>
      </trkpt>
      <trkpt lat="46.50286" lon="5.62624">
        <ele>427.2</ele>
        <time>2022-02-24T07:42:11Z</time>
      </trkpt>
      <trkpt lat="46.50283" lon="5.62624">
        <ele>427.2</ele>
        <time>2022-02-24T07:42:12Z</time>
      </trkpt>
      <trkpt lat="46.5028" lon="5.62623">
        <ele>427.2</ele>
        <time>2022-02-24T07:42:13Z</time>
      </trkpt>
      <trkpt lat="46.50277" lon="5.62623">
        <ele>427.6</ele>
        <time>2022-02-24T07:42:14Z</time>
      </trkpt>
      <trkpt lat="46.50274" lon="5.62623">
        <ele>427.6</ele>
        <time>2022-02-24T07:42:15Z</time>
      </trkpt>
      <trkpt lat="46.50271" lon="5.62622">
        <ele>427.8</ele>
        <time>2022-02-24T07:42:16Z</time>
      </trkpt>
      <trkpt lat="46.50268" lon="5.62622">
        <ele>427.8</ele>
        <time>2022-02-24T07:42:17Z</time>
      </trkpt>
      <trkpt lat="46.50265" lon="5.62621">
        <ele>427.8</ele>
        <time>2022-02-24T07:42:18Z</time>
      </trkpt>
      <trkpt lat="46.50263" lon="5.62619">
        <ele>428.2</ele>
        <time>2022-02-24T07:42:19Z</time>
      </trkpt>
      <trkpt lat="46.5026" lon="5.62618">
        <ele>428.2</ele>
        <time>2022-02-24T07:42:20Z</time>
      </trkpt>
      <trkpt lat="46.50257" lon="5.62617">
        <ele>428.6</ele>
        <time>2022-02-24T07:42:21Z</time>
      </trkpt>
      <trkpt lat="46.50254" lon="5.62616">
        <ele>429</ele>
        <time>2022-02-24T07:42:22Z</time>
      </trkpt>
      <trkpt lat="46.50251" lon="5.62616">
        <ele>429.2</ele>
        <time>2022-02-24T07:42:23Z</time>
      </trkpt>
      <trkpt lat="46.50248" lon="5.62614">
        <ele>429.4</ele>
        <time>2022-02-24T07:42:24Z</time>
      </trkpt>
      <trkpt lat="46.50245" lon="5.62613">
        <ele>429.6</ele>
        <time>2022-02-24T07:42:25Z</time>
      </trkpt>
      <trkpt lat="46.50242" lon="5.62612">
        <ele>429.6</ele>
        <time>2022-02-24T07:42:26Z</time>
      </trkpt>
      <trkpt lat="46.5024" lon="5.62611">
        <ele>430</ele>
        <time>2022-02-24T07:42:27Z</time>
      </trkpt>
      <trkpt lat="46.50237" lon="5.6261">
        <ele>430</ele>
        <time>2022-02-24T07:42:28Z</time>
      </trkpt>
      <trkpt lat="46.50234" lon="5.62608">
        <ele>430.4</ele>
        <time>2022-02-24T07:42:29Z</time>
      </trkpt>
      <trkpt lat="46.50231" lon="5.62607">
        <ele>430.4</ele>
        <time>2022-02-24T07:42:30Z</time>
      </trkpt>
      <trkpt lat="46.50228" lon="5.62605">
        <ele>430.8</ele>
        <time>2022-02-24T07:42:31Z</time>
      </trkpt>
      <trkpt lat="46.50225" lon="5.62604">
        <ele>430.8</ele>
        <time>2022-02-24T07:42:32Z</time>
      </trkpt>
      <trkpt lat="46.50222" lon="5.62603">
        <ele>431.2</ele>
        <time>2022-02-24T07:42:33Z</time>
      </trkpt>
      <trkpt lat="46.50219" lon="5.62603">
        <ele>431.2</ele>
        <time>2022-02-24T07:42:34Z</time>
      </trkpt>
      <trkpt lat="46.50216" lon="5.62602">
        <ele>431.4</ele>
        <time>2022-02-24T07:42:35Z</time>
      </trkpt>
      <trkpt lat="46.50214" lon="5.62601">
        <ele>431.4</ele>
        <time>2022-02-24T07:42:36Z</time>
      </trkpt>
      <trkpt lat="46.50211" lon="5.62602">
        <ele>431.4</ele>
        <time>2022-02-24T07:42:37Z</time>
      </trkpt>
      <trkpt lat="46.50208" lon="5.62602">
        <ele>432</ele>
        <time>2022-02-24T07:42:38Z</time>
      </trkpt>
      <trkpt lat="46.50204" lon="5.62603">
        <ele>432</ele>
        <time>2022-02-24T07:42:39Z</time>
      </trkpt>
      <trkpt lat="46.50201" lon="5.62604">
        <ele>432.4</ele>
        <time>2022-02-24T07:42:40Z</time>
      </trkpt>
      <trkpt lat="46.50199" lon="5.62606">
        <ele>432.4</ele>
        <time>2022-02-24T07:42:41Z</time>
      </trkpt>
      <trkpt lat="46.50196" lon="5.62607">
        <ele>432.6</ele>
        <time>2022-02-24T07:42:42Z</time>
      </trkpt>
      <trkpt lat="46.50193" lon="5.6261">
        <ele>433</ele>
        <time>2022-02-24T07:42:43Z</time>
      </trkpt>
      <trkpt lat="46.5019" lon="5.62612">
        <ele>433</ele>
        <time>2022-02-24T07:42:44Z</time>
      </trkpt>
      <trkpt lat="46.50188" lon="5.62615">
        <ele>433</ele>
        <time>2022-02-24T07:42:45Z</time>
      </trkpt>
      <trkpt lat="46.50185" lon="5.62618">
        <ele>433.2</ele>
        <time>2022-02-24T07:42:46Z</time>
      </trkpt>
      <trkpt lat="46.50182" lon="5.62621">
        <ele>433.4</ele>
        <time>2022-02-24T07:42:47Z</time>
      </trkpt>
      <trkpt lat="46.50179" lon="5.62624">
        <ele>433.4</ele>
        <time>2022-02-24T07:42:48Z</time>
      </trkpt>
      <trkpt lat="46.50176" lon="5.62627">
        <ele>433.6</ele>
        <time>2022-02-24T07:42:49Z</time>
      </trkpt>
      <trkpt lat="46.50173" lon="5.6263">
        <ele>433.6</ele>
        <time>2022-02-24T07:42:50Z</time>
      </trkpt>
      <trkpt lat="46.50169" lon="5.62633">
        <ele>434</ele>
        <time>2022-02-24T07:42:51Z</time>
      </trkpt>
      <trkpt lat="46.50166" lon="5.62636">
        <ele>434</ele>
        <time>2022-02-24T07:42:52Z</time>
      </trkpt>
      <trkpt lat="46.50163" lon="5.62639">
        <ele>434.2</ele>
        <time>2022-02-24T07:42:53Z</time>
      </trkpt>
      <trkpt lat="46.50161" lon="5.62643">
        <ele>434.2</ele>
        <time>2022-02-24T07:42:54Z</time>
      </trkpt>
      <trkpt lat="46.50157" lon="5.62646">
        <ele>434.4</ele>
        <time>2022-02-24T07:42:55Z</time>
      </trkpt>
      <trkpt lat="46.50154" lon="5.62649">
        <ele>434.4</ele>
        <time>2022-02-24T07:42:56Z</time>
      </trkpt>
      <trkpt lat="46.50151" lon="5.62653">
        <ele>434.4</ele>
        <time>2022-02-24T07:42:57Z</time>
      </trkpt>
      <trkpt lat="46.50148" lon="5.62657">
        <ele>434.4</ele>
        <time>2022-02-24T07:42:58Z</time>
      </trkpt>
      <trkpt lat="46.50145" lon="5.6266">
        <ele>434.8</ele>
        <time>2022-02-24T07:42:59Z</time>
      </trkpt>
      <trkpt lat="46.50142" lon="5.62664">
        <ele>434.8</ele>
        <time>2022-02-24T07:43:00Z</time>
      </trkpt>
      <trkpt lat="46.50138" lon="5.62667">
        <ele>435.2</ele>
        <time>2022-02-24T07:43:01Z</time>
      </trkpt>
      <trkpt lat="46.50135" lon="5.6267">
        <ele>435.4</ele>
        <time>2022-02-24T07:43:02Z</time>
      </trkpt>
      <trkpt lat="46.50132" lon="5.62673">
        <ele>435.4</ele>
        <time>2022-02-24T07:43:03Z</time>
      </trkpt>
      <trkpt lat="46.50129" lon="5.62676">
        <ele>435.6</ele>
        <time>2022-02-24T07:43:04Z</time>
      </trkpt>
      <trkpt lat="46.50126" lon="5.62679">
        <ele>435.8</ele>
        <time>2022-02-24T07:43:05Z</time>
      </trkpt>
      <trkpt lat="46.50123" lon="5.62682">
        <ele>435.8</ele>
        <time>2022-02-24T07:43:06Z</time>
      </trkpt>
      <trkpt lat="46.5012" lon="5.62685">
        <ele>436.2</ele>
        <time>2022-02-24T07:43:07Z</time>
      </trkpt>
      <trkpt lat="46.50117" lon="5.62688">
        <ele>436.2</ele>
        <time>2022-02-24T07:43:08Z</time>
      </trkpt>
      <trkpt lat="46.50114" lon="5.62691">
        <ele>436.4</ele>
        <time>2022-02-24T07:43:09Z</time>
      </trkpt>
      <trkpt lat="46.50112" lon="5.62694">
        <ele>436.4</ele>
        <time>2022-02-24T07:43:10Z</time>
      </trkpt>
      <trkpt lat="46.50109" lon="5.62697">
        <ele>436.6</ele>
        <time>2022-02-24T07:43:11Z</time>
      </trkpt>
      <trkpt lat="46.50106" lon="5.627">
        <ele>436.6</ele>
        <time>2022-02-24T07:43:12Z</time>
      </trkpt>
      <trkpt lat="46.50102" lon="5.62703">
        <ele>436.8</ele>
        <time>2022-02-24T07:43:13Z</time>
      </trkpt>
      <trkpt lat="46.50099" lon="5.62706">
        <ele>436.8</ele>
        <time>2022-02-24T07:43:14Z</time>
      </trkpt>
      <trkpt lat="46.50095" lon="5.62709">
        <ele>437</ele>
        <time>2022-02-24T07:43:15Z</time>
      </trkpt>
      <trkpt lat="46.50092" lon="5.62712">
        <ele>437</ele>
        <time>2022-02-24T07:43:16Z</time>
      </trkpt>
      <trkpt lat="46.50088" lon="5.62715">
        <ele>437</ele>
        <time>2022-02-24T07:43:17Z</time>
      </trkpt>
      <trkpt lat="46.50084" lon="5.62718">
        <ele>437.4</ele>
        <time>2022-02-24T07:43:18Z</time>
      </trkpt>
      <trkpt lat="46.5008" lon="5.62721">
        <ele>437.4</ele>
        <time>2022-02-24T07:43:19Z</time>
      </trkpt>
      <trkpt lat="46.50077" lon="5.62724">
        <ele>437.6</ele>
        <time>2022-02-24T07:43:20Z</time>
      </trkpt>
      <trkpt lat="46.50073" lon="5.62726">
        <ele>437.6</ele>
        <time>2022-02-24T07:43:21Z</time>
      </trkpt>
      <trkpt lat="46.50069" lon="5.62729">
        <ele>437.8</ele>
        <time>2022-02-24T07:43:22Z</time>
      </trkpt>
      <trkpt lat="46.50066" lon="5.62731">
        <ele>437.8</ele>
        <time>2022-02-24T07:43:23Z</time>
      </trkpt>
      <trkpt lat="46.50062" lon="5.62734">
        <ele>438.2</ele>
        <time>2022-02-24T07:43:24Z</time>
      </trkpt>
      <trkpt lat="46.50058" lon="5.62736">
        <ele>438.2</ele>
        <time>2022-02-24T07:43:25Z</time>
      </trkpt>
      <trkpt lat="46.50054" lon="5.62738">
        <ele>438.4</ele>
        <time>2022-02-24T07:43:26Z</time>
      </trkpt>
      <trkpt lat="46.5005" lon="5.6274">
        <ele>438.4</ele>
        <time>2022-02-24T07:43:27Z</time>
      </trkpt>
      <trkpt lat="46.50046" lon="5.62741">
        <ele>438.6</ele>
        <time>2022-02-24T07:43:28Z</time>
      </trkpt>
      <trkpt lat="46.50042" lon="5.62743">
        <ele>438.6</ele>
        <time>2022-02-24T07:43:29Z</time>
      </trkpt>
      <trkpt lat="46.50038" lon="5.62745">
        <ele>439</ele>
        <time>2022-02-24T07:43:30Z</time>
      </trkpt>
      <trkpt lat="46.50034" lon="5.62746">
        <ele>439.2</ele>
        <time>2022-02-24T07:43:31Z</time>
      </trkpt>
      <trkpt lat="46.5003" lon="5.62748">
        <ele>439.2</ele>
        <time>2022-02-24T07:43:32Z</time>
      </trkpt>
      <trkpt lat="46.50022" lon="5.62751">
        <ele>439.6</ele>
        <time>2022-02-24T07:43:33Z</time>
      </trkpt>
      <trkpt lat="46.50018" lon="5.62752">
        <ele>439.6</ele>
        <time>2022-02-24T07:43:34Z</time>
      </trkpt>
      <trkpt lat="46.50014" lon="5.62753">
        <ele>440</ele>
        <time>2022-02-24T07:43:35Z</time>
      </trkpt>
      <trkpt lat="46.50009" lon="5.62753">
        <ele>440</ele>
        <time>2022-02-24T07:43:36Z</time>
      </trkpt>
      <trkpt lat="46.50005" lon="5.62754">
        <ele>440.2</ele>
        <time>2022-02-24T07:43:37Z</time>
      </trkpt>
      <trkpt lat="46.50001" lon="5.62755">
        <ele>440.2</ele>
        <time>2022-02-24T07:43:38Z</time>
      </trkpt>
      <trkpt lat="46.49997" lon="5.62756">
        <ele>440.4</ele>
        <time>2022-02-24T07:43:39Z</time>
      </trkpt>
      <trkpt lat="46.49992" lon="5.62757">
        <ele>440.6</ele>
        <time>2022-02-24T07:43:40Z</time>
      </trkpt>
      <trkpt lat="46.49988" lon="5.62758">
        <ele>440.6</ele>
        <time>2022-02-24T07:43:41Z</time>
      </trkpt>
      <trkpt lat="46.49984" lon="5.62759">
        <ele>441</ele>
        <time>2022-02-24T07:43:42Z</time>
      </trkpt>
      <trkpt lat="46.4998" lon="5.62758">
        <ele>441</ele>
        <time>2022-02-24T07:43:43Z</time>
      </trkpt>
      <trkpt lat="46.49976" lon="5.62757">
        <ele>441.4</ele>
        <time>2022-02-24T07:43:44Z</time>
      </trkpt>
      <trkpt lat="46.49972" lon="5.62754">
        <ele>441.4</ele>
        <time>2022-02-24T07:43:45Z</time>
      </trkpt>
      <trkpt lat="46.49968" lon="5.62751">
        <ele>441.6</ele>
        <time>2022-02-24T07:43:46Z</time>
      </trkpt>
      <trkpt lat="46.49965" lon="5.62747">
        <ele>441.6</ele>
        <time>2022-02-24T07:43:47Z</time>
      </trkpt>
      <trkpt lat="46.49963" lon="5.62743">
        <ele>441.8</ele>
        <time>2022-02-24T07:43:48Z</time>
      </trkpt>
      <trkpt lat="46.49961" lon="5.62737">
        <ele>441.8</ele>
        <time>2022-02-24T07:43:49Z</time>
      </trkpt>
      <trkpt lat="46.49961" lon="5.62731">
        <ele>441.8</ele>
        <time>2022-02-24T07:43:50Z</time>
      </trkpt>
      <trkpt lat="46.49963" lon="5.62726">
        <ele>441.8</ele>
        <time>2022-02-24T07:43:51Z</time>
      </trkpt>
      <trkpt lat="46.49965" lon="5.62721">
        <ele>441.8</ele>
        <time>2022-02-24T07:43:52Z</time>
      </trkpt>
      <trkpt lat="46.49968" lon="5.62716">
        <ele>441.8</ele>
        <time>2022-02-24T07:43:53Z</time>
      </trkpt>
      <trkpt lat="46.49971" lon="5.62712">
        <ele>441.8</ele>
        <time>2022-02-24T07:43:54Z</time>
      </trkpt>
      <trkpt lat="46.49973" lon="5.62709">
        <ele>441.8</ele>
        <time>2022-02-24T07:43:55Z</time>
      </trkpt>
      <trkpt lat="46.49975" lon="5.62704">
        <ele>441.8</ele>
        <time>2022-02-24T07:43:56Z</time>
      </trkpt>
      <trkpt lat="46.49975" lon="5.62699">
        <ele>441.8</ele>
        <time>2022-02-24T07:43:57Z</time>
      </trkpt>
      <trkpt lat="46.49974" lon="5.62694">
        <ele>441.8</ele>
        <time>2022-02-24T07:43:58Z</time>
      </trkpt>
      <trkpt lat="46.49972" lon="5.62688">
        <ele>441.8</ele>
        <time>2022-02-24T07:43:59Z</time>
      </trkpt>
      <trkpt lat="46.4997" lon="5.62683">
        <ele>441.8</ele>
        <time>2022-02-24T07:44:00Z</time>
      </trkpt>
      <trkpt lat="46.49967" lon="5.62678">
        <ele>441.8</ele>
        <time>2022-02-24T07:44:01Z</time>
      </trkpt>
      <trkpt lat="46.49965" lon="5.62674">
        <ele>441.8</ele>
        <time>2022-02-24T07:44:02Z</time>
      </trkpt>
      <trkpt lat="46.49962" lon="5.62669">
        <ele>441.8</ele>
        <time>2022-02-24T07:44:03Z</time>
      </trkpt>
      <trkpt lat="46.4996" lon="5.62665">
        <ele>441.8</ele>
        <time>2022-02-24T07:44:04Z</time>
      </trkpt>
      <trkpt lat="46.49958" lon="5.6266">
        <ele>442.2</ele>
        <time>2022-02-24T07:44:05Z</time>
      </trkpt>
      <trkpt lat="46.49955" lon="5.62656">
        <ele>442.2</ele>
        <time>2022-02-24T07:44:06Z</time>
      </trkpt>
      <trkpt lat="46.49953" lon="5.62651">
        <ele>442.6</ele>
        <time>2022-02-24T07:44:07Z</time>
      </trkpt>
      <trkpt lat="46.49951" lon="5.62646">
        <ele>442.6</ele>
        <time>2022-02-24T07:44:08Z</time>
      </trkpt>
      <trkpt lat="46.49949" lon="5.6264">
        <ele>443</ele>
        <time>2022-02-24T07:44:09Z</time>
      </trkpt>
      <trkpt lat="46.49947" lon="5.62635">
        <ele>443.2</ele>
        <time>2022-02-24T07:44:10Z</time>
      </trkpt>
      <trkpt lat="46.49945" lon="5.6263">
        <ele>443.2</ele>
        <time>2022-02-24T07:44:11Z</time>
      </trkpt>
      <trkpt lat="46.49943" lon="5.62625">
        <ele>443.4</ele>
        <time>2022-02-24T07:44:12Z</time>
      </trkpt>
      <trkpt lat="46.4994" lon="5.6262">
        <ele>443.4</ele>
        <time>2022-02-24T07:44:13Z</time>
      </trkpt>
      <trkpt lat="46.49938" lon="5.62615">
        <ele>443.8</ele>
        <time>2022-02-24T07:44:14Z</time>
      </trkpt>
      <trkpt lat="46.49936" lon="5.6261">
        <ele>444</ele>
        <time>2022-02-24T07:44:15Z</time>
      </trkpt>
      <trkpt lat="46.49934" lon="5.62605">
        <ele>444.4</ele>
        <time>2022-02-24T07:44:16Z</time>
      </trkpt>
      <trkpt lat="46.49931" lon="5.62601">
        <ele>444.4</ele>
        <time>2022-02-24T07:44:17Z</time>
      </trkpt>
      <trkpt lat="46.49929" lon="5.62596">
        <ele>444.8</ele>
        <time>2022-02-24T07:44:18Z</time>
      </trkpt>
      <trkpt lat="46.49927" lon="5.62591">
        <ele>444.8</ele>
        <time>2022-02-24T07:44:19Z</time>
      </trkpt>
      <trkpt lat="46.49925" lon="5.62586">
        <ele>445</ele>
        <time>2022-02-24T07:44:20Z</time>
      </trkpt>
      <trkpt lat="46.49922" lon="5.62582">
        <ele>445</ele>
        <time>2022-02-24T07:44:21Z</time>
      </trkpt>
      <trkpt lat="46.49919" lon="5.62578">
        <ele>445.4</ele>
        <time>2022-02-24T07:44:22Z</time>
      </trkpt>
      <trkpt lat="46.49917" lon="5.62574">
        <ele>445.4</ele>
        <time>2022-02-24T07:44:23Z</time>
      </trkpt>
      <trkpt lat="46.49914" lon="5.6257">
        <ele>445.8</ele>
        <time>2022-02-24T07:44:24Z</time>
      </trkpt>
      <trkpt lat="46.49911" lon="5.62566">
        <ele>445.8</ele>
        <time>2022-02-24T07:44:25Z</time>
      </trkpt>
      <trkpt lat="46.49909" lon="5.62562">
        <ele>446</ele>
        <time>2022-02-24T07:44:26Z</time>
      </trkpt>
      <trkpt lat="46.49906" lon="5.62557">
        <ele>446</ele>
        <time>2022-02-24T07:44:27Z</time>
      </trkpt>
      <trkpt lat="46.49903" lon="5.62553">
        <ele>446.2</ele>
        <time>2022-02-24T07:44:28Z</time>
      </trkpt>
      <trkpt lat="46.499" lon="5.62549">
        <ele>446.2</ele>
        <time>2022-02-24T07:44:29Z</time>
      </trkpt>
      <trkpt lat="46.49897" lon="5.62545">
        <ele>446.2</ele>
        <time>2022-02-24T07:44:30Z</time>
      </trkpt>
      <trkpt lat="46.49894" lon="5.62541">
        <ele>446.4</ele>
        <time>2022-02-24T07:44:31Z</time>
      </trkpt>
      <trkpt lat="46.49892" lon="5.62537">
        <ele>446.4</ele>
        <time>2022-02-24T07:44:32Z</time>
      </trkpt>
      <trkpt lat="46.49889" lon="5.62534">
        <ele>446.6</ele>
        <time>2022-02-24T07:44:33Z</time>
      </trkpt>
      <trkpt lat="46.49886" lon="5.62529">
        <ele>446.6</ele>
        <time>2022-02-24T07:44:34Z</time>
      </trkpt>
      <trkpt lat="46.49883" lon="5.62525">
        <ele>447</ele>
        <time>2022-02-24T07:44:35Z</time>
      </trkpt>
      <trkpt lat="46.4988" lon="5.62521">
        <ele>447</ele>
        <time>2022-02-24T07:44:36Z</time>
      </trkpt>
      <trkpt lat="46.49877" lon="5.62517">
        <ele>447.4</ele>
        <time>2022-02-24T07:44:37Z</time>
      </trkpt>
      <trkpt lat="46.49874" lon="5.62513">
        <ele>447.4</ele>
        <time>2022-02-24T07:44:38Z</time>
      </trkpt>
      <trkpt lat="46.49871" lon="5.62509">
        <ele>447.6</ele>
        <time>2022-02-24T07:44:39Z</time>
      </trkpt>
      <trkpt lat="46.49868" lon="5.62505">
        <ele>447.6</ele>
        <time>2022-02-24T07:44:40Z</time>
      </trkpt>
      <trkpt lat="46.49865" lon="5.62501">
        <ele>447.8</ele>
        <time>2022-02-24T07:44:41Z</time>
      </trkpt>
      <trkpt lat="46.49861" lon="5.62496">
        <ele>447.8</ele>
        <time>2022-02-24T07:44:42Z</time>
      </trkpt>
      <trkpt lat="46.49858" lon="5.62491">
        <ele>448.2</ele>
        <time>2022-02-24T07:44:43Z</time>
      </trkpt>
      <trkpt lat="46.49855" lon="5.62487">
        <ele>448.2</ele>
        <time>2022-02-24T07:44:44Z</time>
      </trkpt>
      <trkpt lat="46.49851" lon="5.62482">
        <ele>448.4</ele>
        <time>2022-02-24T07:44:45Z</time>
      </trkpt>
      <trkpt lat="46.49848" lon="5.62478">
        <ele>448.8</ele>
        <time>2022-02-24T07:44:46Z</time>
      </trkpt>
      <trkpt lat="46.49845" lon="5.62474">
        <ele>448.8</ele>
        <time>2022-02-24T07:44:47Z</time>
      </trkpt>
      <trkpt lat="46.49841" lon="5.62469">
        <ele>448.8</ele>
        <time>2022-02-24T07:44:48Z</time>
      </trkpt>
      <trkpt lat="46.49838" lon="5.62464">
        <ele>449</ele>
        <time>2022-02-24T07:44:49Z</time>
      </trkpt>
      <trkpt lat="46.49834" lon="5.6246">
        <ele>449</ele>
        <time>2022-02-24T07:44:50Z</time>
      </trkpt>
      <trkpt lat="46.49831" lon="5.62455">
        <ele>449</ele>
        <time>2022-02-24T07:44:51Z</time>
      </trkpt>
      <trkpt lat="46.49828" lon="5.6245">
        <ele>449.2</ele>
        <time>2022-02-24T07:44:52Z</time>
      </trkpt>
      <trkpt lat="46.49824" lon="5.62445">
        <ele>449.2</ele>
        <time>2022-02-24T07:44:53Z</time>
      </trkpt>
      <trkpt lat="46.49821" lon="5.62441">
        <ele>449.6</ele>
        <time>2022-02-24T07:44:54Z</time>
      </trkpt>
      <trkpt lat="46.49818" lon="5.62436">
        <ele>449.6</ele>
        <time>2022-02-24T07:44:55Z</time>
      </trkpt>
      <trkpt lat="46.49815" lon="5.62432">
        <ele>449.8</ele>
        <time>2022-02-24T07:44:56Z</time>
      </trkpt>
      <trkpt lat="46.49811" lon="5.62428">
        <ele>449.8</ele>
        <time>2022-02-24T07:44:57Z</time>
      </trkpt>
      <trkpt lat="46.49808" lon="5.62424">
        <ele>449.8</ele>
        <time>2022-02-24T07:44:58Z</time>
      </trkpt>
      <trkpt lat="46.49805" lon="5.62419">
        <ele>450</ele>
        <time>2022-02-24T07:44:59Z</time>
      </trkpt>
      <trkpt lat="46.49802" lon="5.62415">
        <ele>450</ele>
        <time>2022-02-24T07:45:00Z</time>
      </trkpt>
      <trkpt lat="46.49799" lon="5.62411">
        <ele>450.2</ele>
        <time>2022-02-24T07:45:01Z</time>
      </trkpt>
      <trkpt lat="46.49796" lon="5.62406">
        <ele>450.2</ele>
        <time>2022-02-24T07:45:02Z</time>
      </trkpt>
      <trkpt lat="46.49793" lon="5.62402">
        <ele>450.4</ele>
        <time>2022-02-24T07:45:03Z</time>
      </trkpt>
      <trkpt lat="46.4979" lon="5.62397">
        <ele>450.4</ele>
        <time>2022-02-24T07:45:04Z</time>
      </trkpt>
      <trkpt lat="46.49787" lon="5.62393">
        <ele>450.8</ele>
        <time>2022-02-24T07:45:05Z</time>
      </trkpt>
      <trkpt lat="46.49783" lon="5.62388">
        <ele>450.8</ele>
        <time>2022-02-24T07:45:06Z</time>
      </trkpt>
      <trkpt lat="46.4978" lon="5.62384">
        <ele>451.2</ele>
        <time>2022-02-24T07:45:07Z</time>
      </trkpt>
      <trkpt lat="46.49777" lon="5.6238">
        <ele>451.2</ele>
        <time>2022-02-24T07:45:08Z</time>
      </trkpt>
      <trkpt lat="46.49774" lon="5.62376">
        <ele>451.4</ele>
        <time>2022-02-24T07:45:09Z</time>
      </trkpt>
      <trkpt lat="46.49771" lon="5.62372">
        <ele>451.4</ele>
        <time>2022-02-24T07:45:10Z</time>
      </trkpt>
      <trkpt lat="46.49767" lon="5.62368">
        <ele>451.6</ele>
        <time>2022-02-24T07:45:11Z</time>
      </trkpt>
      <trkpt lat="46.49764" lon="5.62364">
        <ele>451.6</ele>
        <time>2022-02-24T07:45:12Z</time>
      </trkpt>
      <trkpt lat="46.49761" lon="5.6236">
        <ele>452</ele>
        <time>2022-02-24T07:45:13Z</time>
      </trkpt>
      <trkpt lat="46.49757" lon="5.62356">
        <ele>452</ele>
        <time>2022-02-24T07:45:14Z</time>
      </trkpt>
      <trkpt lat="46.49754" lon="5.62352">
        <ele>452.4</ele>
        <time>2022-02-24T07:45:15Z</time>
      </trkpt>
      <trkpt lat="46.4975" lon="5.62349">
        <ele>452.4</ele>
        <time>2022-02-24T07:45:16Z</time>
      </trkpt>
      <trkpt lat="46.49747" lon="5.62345">
        <ele>452.6</ele>
        <time>2022-02-24T07:45:17Z</time>
      </trkpt>
      <trkpt lat="46.49743" lon="5.62342">
        <ele>452.6</ele>
        <time>2022-02-24T07:45:18Z</time>
      </trkpt>
      <trkpt lat="46.49739" lon="5.62339">
        <ele>453</ele>
        <time>2022-02-24T07:45:19Z</time>
      </trkpt>
      <trkpt lat="46.49735" lon="5.62335">
        <ele>453</ele>
        <time>2022-02-24T07:45:20Z</time>
      </trkpt>
      <trkpt lat="46.49732" lon="5.62332">
        <ele>453.4</ele>
        <time>2022-02-24T07:45:21Z</time>
      </trkpt>
      <trkpt lat="46.49727" lon="5.62329">
        <ele>453.6</ele>
        <time>2022-02-24T07:45:22Z</time>
      </trkpt>
      <trkpt lat="46.49724" lon="5.62327">
        <ele>453.6</ele>
        <time>2022-02-24T07:45:23Z</time>
      </trkpt>
      <trkpt lat="46.4972" lon="5.62324">
        <ele>454</ele>
        <time>2022-02-24T07:45:24Z</time>
      </trkpt>
      <trkpt lat="46.49716" lon="5.62322">
        <ele>454.6</ele>
        <time>2022-02-24T07:45:25Z</time>
      </trkpt>
      <trkpt lat="46.49712" lon="5.62319">
        <ele>454.6</ele>
        <time>2022-02-24T07:45:26Z</time>
      </trkpt>
      <trkpt lat="46.49708" lon="5.62316">
        <ele>454.8</ele>
        <time>2022-02-24T07:45:27Z</time>
      </trkpt>
      <trkpt lat="46.49704" lon="5.62313">
        <ele>454.8</ele>
        <time>2022-02-24T07:45:28Z</time>
      </trkpt>
      <trkpt lat="46.497" lon="5.62311">
        <ele>455</ele>
        <time>2022-02-24T07:45:29Z</time>
      </trkpt>
      <trkpt lat="46.49695" lon="5.62309">
        <ele>455</ele>
        <time>2022-02-24T07:45:30Z</time>
      </trkpt>
      <trkpt lat="46.49691" lon="5.62307">
        <ele>455</ele>
        <time>2022-02-24T07:45:31Z</time>
      </trkpt>
      <trkpt lat="46.49687" lon="5.62306">
        <ele>455.4</ele>
        <time>2022-02-24T07:45:32Z</time>
      </trkpt>
      <trkpt lat="46.49683" lon="5.62304">
        <ele>455.4</ele>
        <time>2022-02-24T07:45:33Z</time>
      </trkpt>
      <trkpt lat="46.49679" lon="5.62303">
        <ele>455.6</ele>
        <time>2022-02-24T07:45:34Z</time>
      </trkpt>
      <trkpt lat="46.49675" lon="5.62302">
        <ele>455.8</ele>
        <time>2022-02-24T07:45:35Z</time>
      </trkpt>
      <trkpt lat="46.4967" lon="5.62301">
        <ele>455.8</ele>
        <time>2022-02-24T07:45:36Z</time>
      </trkpt>
      <trkpt lat="46.49666" lon="5.623">
        <ele>456.2</ele>
        <time>2022-02-24T07:45:37Z</time>
      </trkpt>
      <trkpt lat="46.49662" lon="5.623">
        <ele>456.2</ele>
        <time>2022-02-24T07:45:38Z</time>
      </trkpt>
      <trkpt lat="46.49657" lon="5.62299">
        <ele>456.6</ele>
        <time>2022-02-24T07:45:39Z</time>
      </trkpt>
      <trkpt lat="46.49653" lon="5.62299">
        <ele>456.6</ele>
        <time>2022-02-24T07:45:40Z</time>
      </trkpt>
      <trkpt lat="46.49653" lon="5.62299">
        <ele>456.8</ele>
        <time>2022-02-24T07:45:41Z</time>
      </trkpt>
      <trkpt lat="46.49649" lon="5.62299">
        <ele>456.8</ele>
        <time>2022-02-24T07:45:42Z</time>
      </trkpt>
      <trkpt lat="46.49644" lon="5.62299">
        <ele>457.2</ele>
        <time>2022-02-24T07:45:43Z</time>
      </trkpt>
      <trkpt lat="46.4964" lon="5.62299">
        <ele>457.2</ele>
        <time>2022-02-24T07:45:44Z</time>
      </trkpt>
      <trkpt lat="46.49636" lon="5.62299">
        <ele>457.4</ele>
        <time>2022-02-24T07:45:45Z</time>
      </trkpt>
      <trkpt lat="46.49631" lon="5.62299">
        <ele>457.4</ele>
        <time>2022-02-24T07:45:46Z</time>
      </trkpt>
      <trkpt lat="46.49627" lon="5.62299">
        <ele>457.6</ele>
        <time>2022-02-24T07:45:47Z</time>
      </trkpt>
      <trkpt lat="46.49622" lon="5.62299">
        <ele>457.6</ele>
        <time>2022-02-24T07:45:48Z</time>
      </trkpt>
      <trkpt lat="46.49618" lon="5.62299">
        <ele>457.8</ele>
        <time>2022-02-24T07:45:49Z</time>
      </trkpt>
      <trkpt lat="46.49613" lon="5.62299">
        <ele>457.8</ele>
        <time>2022-02-24T07:45:50Z</time>
      </trkpt>
      <trkpt lat="46.49608" lon="5.62298">
        <ele>458.2</ele>
        <time>2022-02-24T07:45:51Z</time>
      </trkpt>
      <trkpt lat="46.49604" lon="5.62297">
        <ele>458.2</ele>
        <time>2022-02-24T07:45:52Z</time>
      </trkpt>
      <trkpt lat="46.49599" lon="5.62296">
        <ele>458.4</ele>
        <time>2022-02-24T07:45:53Z</time>
      </trkpt>
      <trkpt lat="46.49594" lon="5.62296">
        <ele>458.4</ele>
        <time>2022-02-24T07:45:54Z</time>
      </trkpt>
      <trkpt lat="46.4959" lon="5.62295">
        <ele>458.4</ele>
        <time>2022-02-24T07:45:55Z</time>
      </trkpt>
      <trkpt lat="46.49585" lon="5.62294">
        <ele>458.8</ele>
        <time>2022-02-24T07:45:56Z</time>
      </trkpt>
      <trkpt lat="46.4958" lon="5.62293">
        <ele>458.8</ele>
        <time>2022-02-24T07:45:57Z</time>
      </trkpt>
      <trkpt lat="46.49575" lon="5.62293">
        <ele>459</ele>
        <time>2022-02-24T07:45:58Z</time>
      </trkpt>
      <trkpt lat="46.4957" lon="5.62292">
        <ele>459</ele>
        <time>2022-02-24T07:45:59Z</time>
      </trkpt>
      <trkpt lat="46.49566" lon="5.62291">
        <ele>459.4</ele>
        <time>2022-02-24T07:46:00Z</time>
      </trkpt>
      <trkpt lat="46.49561" lon="5.62289">
        <ele>459.4</ele>
        <time>2022-02-24T07:46:01Z</time>
      </trkpt>
      <trkpt lat="46.49556" lon="5.62288">
        <ele>459.8</ele>
        <time>2022-02-24T07:46:02Z</time>
      </trkpt>
      <trkpt lat="46.49551" lon="5.62287">
        <ele>459.8</ele>
        <time>2022-02-24T07:46:03Z</time>
      </trkpt>
      <trkpt lat="46.49547" lon="5.62286">
        <ele>460.2</ele>
        <time>2022-02-24T07:46:04Z</time>
      </trkpt>
      <trkpt lat="46.49542" lon="5.62285">
        <ele>460.2</ele>
        <time>2022-02-24T07:46:05Z</time>
      </trkpt>
      <trkpt lat="46.49538" lon="5.62284">
        <ele>460.4</ele>
        <time>2022-02-24T07:46:06Z</time>
      </trkpt>
      <trkpt lat="46.49533" lon="5.62283">
        <ele>460.4</ele>
        <time>2022-02-24T07:46:07Z</time>
      </trkpt>
      <trkpt lat="46.49528" lon="5.62282">
        <ele>460.6</ele>
        <time>2022-02-24T07:46:08Z</time>
      </trkpt>
      <trkpt lat="46.49524" lon="5.62282">
        <ele>460.6</ele>
        <time>2022-02-24T07:46:09Z</time>
      </trkpt>
      <trkpt lat="46.49519" lon="5.6228">
        <ele>461</ele>
        <time>2022-02-24T07:46:10Z</time>
      </trkpt>
      <trkpt lat="46.49515" lon="5.62279">
        <ele>461</ele>
        <time>2022-02-24T07:46:11Z</time>
      </trkpt>
      <trkpt lat="46.49511" lon="5.62278">
        <ele>461.4</ele>
        <time>2022-02-24T07:46:12Z</time>
      </trkpt>
      <trkpt lat="46.49506" lon="5.62277">
        <ele>461.4</ele>
        <time>2022-02-24T07:46:13Z</time>
      </trkpt>
      <trkpt lat="46.49502" lon="5.62276">
        <ele>461.6</ele>
        <time>2022-02-24T07:46:14Z</time>
      </trkpt>
      <trkpt lat="46.49498" lon="5.62275">
        <ele>461.6</ele>
        <time>2022-02-24T07:46:15Z</time>
      </trkpt>
      <trkpt lat="46.49493" lon="5.62274">
        <ele>461.6</ele>
        <time>2022-02-24T07:46:16Z</time>
      </trkpt>
      <trkpt lat="46.49489" lon="5.62273">
        <ele>462</ele>
        <time>2022-02-24T07:46:17Z</time>
      </trkpt>
      <trkpt lat="46.49484" lon="5.62272">
        <ele>462</ele>
        <time>2022-02-24T07:46:18Z</time>
      </trkpt>
      <trkpt lat="46.4948" lon="5.62271">
        <ele>462.4</ele>
        <time>2022-02-24T07:46:19Z</time>
      </trkpt>
      <trkpt lat="46.49476" lon="5.6227">
        <ele>462.4</ele>
        <time>2022-02-24T07:46:20Z</time>
      </trkpt>
      <trkpt lat="46.49472" lon="5.62269">
        <ele>462.4</ele>
        <time>2022-02-24T07:46:21Z</time>
      </trkpt>
      <trkpt lat="46.49467" lon="5.62269">
        <ele>462.6</ele>
        <time>2022-02-24T07:46:22Z</time>
      </trkpt>
      <trkpt lat="46.49463" lon="5.62268">
        <ele>462.6</ele>
        <time>2022-02-24T07:46:23Z</time>
      </trkpt>
      <trkpt lat="46.49459" lon="5.62269">
        <ele>463</ele>
        <time>2022-02-24T07:46:24Z</time>
      </trkpt>
      <trkpt lat="46.49455" lon="5.6227">
        <ele>463</ele>
        <time>2022-02-24T07:46:25Z</time>
      </trkpt>
      <trkpt lat="46.4945" lon="5.62271">
        <ele>463.2</ele>
        <time>2022-02-24T07:46:26Z</time>
      </trkpt>
      <trkpt lat="46.49446" lon="5.62272">
        <ele>463.2</ele>
        <time>2022-02-24T07:46:27Z</time>
      </trkpt>
      <trkpt lat="46.49442" lon="5.62274">
        <ele>463.6</ele>
        <time>2022-02-24T07:46:28Z</time>
      </trkpt>
      <trkpt lat="46.49438" lon="5.62276">
        <ele>463.6</ele>
        <time>2022-02-24T07:46:29Z</time>
      </trkpt>
      <trkpt lat="46.49434" lon="5.62279">
        <ele>463.8</ele>
        <time>2022-02-24T07:46:30Z</time>
      </trkpt>
      <trkpt lat="46.4943" lon="5.62281">
        <ele>463.8</ele>
        <time>2022-02-24T07:46:31Z</time>
      </trkpt>
      <trkpt lat="46.49426" lon="5.62283">
        <ele>464</ele>
        <time>2022-02-24T07:46:32Z</time>
      </trkpt>
      <trkpt lat="46.49422" lon="5.62286">
        <ele>464</ele>
        <time>2022-02-24T07:46:33Z</time>
      </trkpt>
      <trkpt lat="46.49418" lon="5.62288">
        <ele>464</ele>
        <time>2022-02-24T07:46:34Z</time>
      </trkpt>
      <trkpt lat="46.49413" lon="5.62289">
        <ele>464.4</ele>
        <time>2022-02-24T07:46:35Z</time>
      </trkpt>
      <trkpt lat="46.49409" lon="5.6229">
        <ele>464.4</ele>
        <time>2022-02-24T07:46:36Z</time>
      </trkpt>
      <trkpt lat="46.49404" lon="5.6229">
        <ele>464.8</ele>
        <time>2022-02-24T07:46:37Z</time>
      </trkpt>
      <trkpt lat="46.494" lon="5.6229">
        <ele>464.8</ele>
        <time>2022-02-24T07:46:38Z</time>
      </trkpt>
      <trkpt lat="46.49395" lon="5.6229">
        <ele>465</ele>
        <time>2022-02-24T07:46:39Z</time>
      </trkpt>
      <trkpt lat="46.49391" lon="5.62289">
        <ele>465</ele>
        <time>2022-02-24T07:46:40Z</time>
      </trkpt>
      <trkpt lat="46.49387" lon="5.62287">
        <ele>465.4</ele>
        <time>2022-02-24T07:46:41Z</time>
      </trkpt>
      <trkpt lat="46.49382" lon="5.62286">
        <ele>465.4</ele>
        <time>2022-02-24T07:46:42Z</time>
      </trkpt>
      <trkpt lat="46.49378" lon="5.62283">
        <ele>465.8</ele>
        <time>2022-02-24T07:46:43Z</time>
      </trkpt>
      <trkpt lat="46.49374" lon="5.62281">
        <ele>465.8</ele>
        <time>2022-02-24T07:46:44Z</time>
      </trkpt>
      <trkpt lat="46.4937" lon="5.62278">
        <ele>466.2</ele>
        <time>2022-02-24T07:46:45Z</time>
      </trkpt>
      <trkpt lat="46.49366" lon="5.62275">
        <ele>466.2</ele>
        <time>2022-02-24T07:46:46Z</time>
      </trkpt>
      <trkpt lat="46.49362" lon="5.62272">
        <ele>466.2</ele>
        <time>2022-02-24T07:46:47Z</time>
      </trkpt>
      <trkpt lat="46.49358" lon="5.62269">
        <ele>466.2</ele>
        <time>2022-02-24T07:46:48Z</time>
      </trkpt>
      <trkpt lat="46.49354" lon="5.62266">
        <ele>466.4</ele>
        <time>2022-02-24T07:46:49Z</time>
      </trkpt>
      <trkpt lat="46.4935" lon="5.62263">
        <ele>466.4</ele>
        <time>2022-02-24T07:46:50Z</time>
      </trkpt>
      <trkpt lat="46.49346" lon="5.6226">
        <ele>466.6</ele>
        <time>2022-02-24T07:46:51Z</time>
      </trkpt>
      <trkpt lat="46.49342" lon="5.62257">
        <ele>466.6</ele>
        <time>2022-02-24T07:46:52Z</time>
      </trkpt>
      <trkpt lat="46.49338" lon="5.62254">
        <ele>466.6</ele>
        <time>2022-02-24T07:46:53Z</time>
      </trkpt>
      <trkpt lat="46.49334" lon="5.62251">
        <ele>467</ele>
        <time>2022-02-24T07:46:54Z</time>
      </trkpt>
      <trkpt lat="46.4933" lon="5.62248">
        <ele>467</ele>
        <time>2022-02-24T07:46:55Z</time>
      </trkpt>
      <trkpt lat="46.49326" lon="5.62245">
        <ele>467</ele>
        <time>2022-02-24T07:46:56Z</time>
      </trkpt>
      <trkpt lat="46.49321" lon="5.62243">
        <ele>467.2</ele>
        <time>2022-02-24T07:46:57Z</time>
      </trkpt>
      <trkpt lat="46.49317" lon="5.62241">
        <ele>467.2</ele>
        <time>2022-02-24T07:46:58Z</time>
      </trkpt>
      <trkpt lat="46.49313" lon="5.62238">
        <ele>467.4</ele>
        <time>2022-02-24T07:46:59Z</time>
      </trkpt>
      <trkpt lat="46.49309" lon="5.62236">
        <ele>467.4</ele>
        <time>2022-02-24T07:47:00Z</time>
      </trkpt>
      <trkpt lat="46.49304" lon="5.62235">
        <ele>467.4</ele>
        <time>2022-02-24T07:47:01Z</time>
      </trkpt>
      <trkpt lat="46.493" lon="5.62234">
        <ele>467.4</ele>
        <time>2022-02-24T07:47:02Z</time>
      </trkpt>
      <trkpt lat="46.49295" lon="5.62233">
        <ele>467.4</ele>
        <time>2022-02-24T07:47:03Z</time>
      </trkpt>
      <trkpt lat="46.49291" lon="5.62232">
        <ele>467.6</ele>
        <time>2022-02-24T07:47:04Z</time>
      </trkpt>
      <trkpt lat="46.49286" lon="5.62232">
        <ele>467.6</ele>
        <time>2022-02-24T07:47:05Z</time>
      </trkpt>
      <trkpt lat="46.49281" lon="5.62232">
        <ele>467.6</ele>
        <time>2022-02-24T07:47:06Z</time>
      </trkpt>
      <trkpt lat="46.49277" lon="5.62232">
        <ele>467.6</ele>
        <time>2022-02-24T07:47:07Z</time>
      </trkpt>
      <trkpt lat="46.49272" lon="5.62232">
        <ele>467.8</ele>
        <time>2022-02-24T07:47:08Z</time>
      </trkpt>
      <trkpt lat="46.49267" lon="5.62233">
        <ele>467.8</ele>
        <time>2022-02-24T07:47:09Z</time>
      </trkpt>
      <trkpt lat="46.49263" lon="5.62233">
        <ele>467.8</ele>
        <time>2022-02-24T07:47:10Z</time>
      </trkpt>
      <trkpt lat="46.49258" lon="5.62234">
        <ele>467.8</ele>
        <time>2022-02-24T07:47:11Z</time>
      </trkpt>
      <trkpt lat="46.49253" lon="5.62235">
        <ele>468</ele>
        <time>2022-02-24T07:47:12Z</time>
      </trkpt>
      <trkpt lat="46.49249" lon="5.62237">
        <ele>468</ele>
        <time>2022-02-24T07:47:13Z</time>
      </trkpt>
      <trkpt lat="46.49245" lon="5.62239">
        <ele>468</ele>
        <time>2022-02-24T07:47:14Z</time>
      </trkpt>
      <trkpt lat="46.4924" lon="5.62242">
        <ele>468</ele>
        <time>2022-02-24T07:47:15Z</time>
      </trkpt>
      <trkpt lat="46.49236" lon="5.62244">
        <ele>468</ele>
        <time>2022-02-24T07:47:16Z</time>
      </trkpt>
      <trkpt lat="46.49232" lon="5.62248">
        <ele>468.2</ele>
        <time>2022-02-24T07:47:17Z</time>
      </trkpt>
      <trkpt lat="46.49228" lon="5.62251">
        <ele>468.2</ele>
        <time>2022-02-24T07:47:18Z</time>
      </trkpt>
      <trkpt lat="46.49225" lon="5.62256">
        <ele>468.2</ele>
        <time>2022-02-24T07:47:19Z</time>
      </trkpt>
      <trkpt lat="46.49222" lon="5.6226">
        <ele>468.6</ele>
        <time>2022-02-24T07:47:20Z</time>
      </trkpt>
      <trkpt lat="46.49218" lon="5.62264">
        <ele>468.6</ele>
        <time>2022-02-24T07:47:21Z</time>
      </trkpt>
      <trkpt lat="46.49215" lon="5.62269">
        <ele>468.8</ele>
        <time>2022-02-24T07:47:22Z</time>
      </trkpt>
      <trkpt lat="46.49212" lon="5.62273">
        <ele>468.8</ele>
        <time>2022-02-24T07:47:23Z</time>
      </trkpt>
      <trkpt lat="46.49208" lon="5.62278">
        <ele>469</ele>
        <time>2022-02-24T07:47:24Z</time>
      </trkpt>
      <trkpt lat="46.49205" lon="5.62282">
        <ele>469</ele>
        <time>2022-02-24T07:47:25Z</time>
      </trkpt>
      <trkpt lat="46.49202" lon="5.62287">
        <ele>469.4</ele>
        <time>2022-02-24T07:47:26Z</time>
      </trkpt>
      <trkpt lat="46.49198" lon="5.62291">
        <ele>469.4</ele>
        <time>2022-02-24T07:47:27Z</time>
      </trkpt>
      <trkpt lat="46.49194" lon="5.62295">
        <ele>469.4</ele>
        <time>2022-02-24T07:47:28Z</time>
      </trkpt>
      <trkpt lat="46.49191" lon="5.62299">
        <ele>469.8</ele>
        <time>2022-02-24T07:47:29Z</time>
      </trkpt>
      <trkpt lat="46.49187" lon="5.62303">
        <ele>469.8</ele>
        <time>2022-02-24T07:47:30Z</time>
      </trkpt>
      <trkpt lat="46.49183" lon="5.62306">
        <ele>470</ele>
        <time>2022-02-24T07:47:31Z</time>
      </trkpt>
      <trkpt lat="46.49179" lon="5.6231">
        <ele>470</ele>
        <time>2022-02-24T07:47:32Z</time>
      </trkpt>
      <trkpt lat="46.49175" lon="5.62312">
        <ele>470.4</ele>
        <time>2022-02-24T07:47:33Z</time>
      </trkpt>
      <trkpt lat="46.4917" lon="5.62315">
        <ele>470.4</ele>
        <time>2022-02-24T07:47:34Z</time>
      </trkpt>
      <trkpt lat="46.49166" lon="5.62318">
        <ele>470.8</ele>
        <time>2022-02-24T07:47:35Z</time>
      </trkpt>
      <trkpt lat="46.49161" lon="5.6232">
        <ele>470.8</ele>
        <time>2022-02-24T07:47:36Z</time>
      </trkpt>
      <trkpt lat="46.49157" lon="5.62323">
        <ele>471</ele>
        <time>2022-02-24T07:47:37Z</time>
      </trkpt>
      <trkpt lat="46.49153" lon="5.62325">
        <ele>471</ele>
        <time>2022-02-24T07:47:38Z</time>
      </trkpt>
      <trkpt lat="46.49149" lon="5.62328">
        <ele>471.4</ele>
        <time>2022-02-24T07:47:39Z</time>
      </trkpt>
      <trkpt lat="46.49144" lon="5.6233">
        <ele>471.4</ele>
        <time>2022-02-24T07:47:40Z</time>
      </trkpt>
      <trkpt lat="46.4914" lon="5.62332">
        <ele>471.6</ele>
        <time>2022-02-24T07:47:41Z</time>
      </trkpt>
      <trkpt lat="46.49136" lon="5.62335">
        <ele>471.6</ele>
        <time>2022-02-24T07:47:42Z</time>
      </trkpt>
      <trkpt lat="46.49132" lon="5.62337">
        <ele>472</ele>
        <time>2022-02-24T07:47:43Z</time>
      </trkpt>
      <trkpt lat="46.49128" lon="5.6234">
        <ele>472</ele>
        <time>2022-02-24T07:47:44Z</time>
      </trkpt>
      <trkpt lat="46.49123" lon="5.62342">
        <ele>472.2</ele>
        <time>2022-02-24T07:47:45Z</time>
      </trkpt>
      <trkpt lat="46.49119" lon="5.62345">
        <ele>472.2</ele>
        <time>2022-02-24T07:47:46Z</time>
      </trkpt>
      <trkpt lat="46.49115" lon="5.62347">
        <ele>472.6</ele>
        <time>2022-02-24T07:47:47Z</time>
      </trkpt>
      <trkpt lat="46.49111" lon="5.6235">
        <ele>472.6</ele>
        <time>2022-02-24T07:47:48Z</time>
      </trkpt>
      <trkpt lat="46.49106" lon="5.62353">
        <ele>472.8</ele>
        <time>2022-02-24T07:47:49Z</time>
      </trkpt>
      <trkpt lat="46.49102" lon="5.62355">
        <ele>472.8</ele>
        <time>2022-02-24T07:47:50Z</time>
      </trkpt>
      <trkpt lat="46.49098" lon="5.62358">
        <ele>473.2</ele>
        <time>2022-02-24T07:47:51Z</time>
      </trkpt>
      <trkpt lat="46.49094" lon="5.6236">
        <ele>473.2</ele>
        <time>2022-02-24T07:47:52Z</time>
      </trkpt>
      <trkpt lat="46.4909" lon="5.62362">
        <ele>473.6</ele>
        <time>2022-02-24T07:47:53Z</time>
      </trkpt>
      <trkpt lat="46.49086" lon="5.62364">
        <ele>473.6</ele>
        <time>2022-02-24T07:47:54Z</time>
      </trkpt>
      <trkpt lat="46.49081" lon="5.62366">
        <ele>474</ele>
        <time>2022-02-24T07:47:55Z</time>
      </trkpt>
      <trkpt lat="46.49077" lon="5.62368">
        <ele>474.2</ele>
        <time>2022-02-24T07:47:56Z</time>
      </trkpt>
      <trkpt lat="46.49072" lon="5.62369">
        <ele>474.6</ele>
        <time>2022-02-24T07:47:57Z</time>
      </trkpt>
      <trkpt lat="46.49068" lon="5.62369">
        <ele>474.8</ele>
        <time>2022-02-24T07:47:58Z</time>
      </trkpt>
      <trkpt lat="46.49059" lon="5.62369">
        <ele>475</ele>
        <time>2022-02-24T07:47:59Z</time>
      </trkpt>
      <trkpt lat="46.49054" lon="5.62368">
        <ele>475</ele>
        <time>2022-02-24T07:48:00Z</time>
      </trkpt>
      <trkpt lat="46.4905" lon="5.62367">
        <ele>475.4</ele>
        <time>2022-02-24T07:48:01Z</time>
      </trkpt>
      <trkpt lat="46.49046" lon="5.62366">
        <ele>475.4</ele>
        <time>2022-02-24T07:48:02Z</time>
      </trkpt>
      <trkpt lat="46.49041" lon="5.62364">
        <ele>475.8</ele>
        <time>2022-02-24T07:48:03Z</time>
      </trkpt>
      <trkpt lat="46.49037" lon="5.62361">
        <ele>475.8</ele>
        <time>2022-02-24T07:48:04Z</time>
      </trkpt>
      <trkpt lat="46.49033" lon="5.62358">
        <ele>476.2</ele>
        <time>2022-02-24T07:48:05Z</time>
      </trkpt>
      <trkpt lat="46.49029" lon="5.62355">
        <ele>476.2</ele>
        <time>2022-02-24T07:48:06Z</time>
      </trkpt>
      <trkpt lat="46.49025" lon="5.62351">
        <ele>476.6</ele>
        <time>2022-02-24T07:48:07Z</time>
      </trkpt>
      <trkpt lat="46.49022" lon="5.62347">
        <ele>476.6</ele>
        <time>2022-02-24T07:48:08Z</time>
      </trkpt>
      <trkpt lat="46.49018" lon="5.62343">
        <ele>476.8</ele>
        <time>2022-02-24T07:48:09Z</time>
      </trkpt>
      <trkpt lat="46.49015" lon="5.62338">
        <ele>476.8</ele>
        <time>2022-02-24T07:48:10Z</time>
      </trkpt>
      <trkpt lat="46.49011" lon="5.62334">
        <ele>477</ele>
        <time>2022-02-24T07:48:11Z</time>
      </trkpt>
      <trkpt lat="46.49008" lon="5.62329">
        <ele>477</ele>
        <time>2022-02-24T07:48:12Z</time>
      </trkpt>
      <trkpt lat="46.49005" lon="5.62324">
        <ele>477.4</ele>
        <time>2022-02-24T07:48:13Z</time>
      </trkpt>
      <trkpt lat="46.49002" lon="5.62319">
        <ele>477.4</ele>
        <time>2022-02-24T07:48:14Z</time>
      </trkpt>
      <trkpt lat="46.48998" lon="5.62314">
        <ele>477.8</ele>
        <time>2022-02-24T07:48:15Z</time>
      </trkpt>
      <trkpt lat="46.48995" lon="5.62309">
        <ele>477.8</ele>
        <time>2022-02-24T07:48:16Z</time>
      </trkpt>
      <trkpt lat="46.48992" lon="5.62303">
        <ele>478</ele>
        <time>2022-02-24T07:48:17Z</time>
      </trkpt>
      <trkpt lat="46.4899" lon="5.62298">
        <ele>478</ele>
        <time>2022-02-24T07:48:18Z</time>
      </trkpt>
      <trkpt lat="46.48987" lon="5.62293">
        <ele>478.4</ele>
        <time>2022-02-24T07:48:19Z</time>
      </trkpt>
      <trkpt lat="46.48984" lon="5.62288">
        <ele>478.6</ele>
        <time>2022-02-24T07:48:20Z</time>
      </trkpt>
      <trkpt lat="46.48982" lon="5.62282">
        <ele>478.6</ele>
        <time>2022-02-24T07:48:21Z</time>
      </trkpt>
      <trkpt lat="46.4898" lon="5.62276">
        <ele>478.8</ele>
        <time>2022-02-24T07:48:22Z</time>
      </trkpt>
      <trkpt lat="46.48978" lon="5.6227">
        <ele>479.2</ele>
        <time>2022-02-24T07:48:23Z</time>
      </trkpt>
      <trkpt lat="46.48976" lon="5.62264">
        <ele>479.2</ele>
        <time>2022-02-24T07:48:24Z</time>
      </trkpt>
      <trkpt lat="46.48974" lon="5.62258">
        <ele>479.4</ele>
        <time>2022-02-24T07:48:25Z</time>
      </trkpt>
      <trkpt lat="46.48972" lon="5.62252">
        <ele>479.6</ele>
        <time>2022-02-24T07:48:26Z</time>
      </trkpt>
      <trkpt lat="46.48971" lon="5.62246">
        <ele>480</ele>
        <time>2022-02-24T07:48:27Z</time>
      </trkpt>
      <trkpt lat="46.4897" lon="5.6224">
        <ele>480</ele>
        <time>2022-02-24T07:48:28Z</time>
      </trkpt>
      <trkpt lat="46.4897" lon="5.62234">
        <ele>480.4</ele>
        <time>2022-02-24T07:48:29Z</time>
      </trkpt>
      <trkpt lat="46.4897" lon="5.62227">
        <ele>480.4</ele>
        <time>2022-02-24T07:48:30Z</time>
      </trkpt>
      <trkpt lat="46.48969" lon="5.62221">
        <ele>480.8</ele>
        <time>2022-02-24T07:48:31Z</time>
      </trkpt>
      <trkpt lat="46.48968" lon="5.62215">
        <ele>480.8</ele>
        <time>2022-02-24T07:48:32Z</time>
      </trkpt>
      <trkpt lat="46.48968" lon="5.62208">
        <ele>480.8</ele>
        <time>2022-02-24T07:48:33Z</time>
      </trkpt>
      <trkpt lat="46.48967" lon="5.62202">
        <ele>481.2</ele>
        <time>2022-02-24T07:48:34Z</time>
      </trkpt>
      <trkpt lat="46.48966" lon="5.62195">
        <ele>481.2</ele>
        <time>2022-02-24T07:48:35Z</time>
      </trkpt>
      <trkpt lat="46.48966" lon="5.62189">
        <ele>481.4</ele>
        <time>2022-02-24T07:48:36Z</time>
      </trkpt>
      <trkpt lat="46.48965" lon="5.62183">
        <ele>481.4</ele>
        <time>2022-02-24T07:48:37Z</time>
      </trkpt>
      <trkpt lat="46.48964" lon="5.62176">
        <ele>481.6</ele>
        <time>2022-02-24T07:48:38Z</time>
      </trkpt>
      <trkpt lat="46.48963" lon="5.6217">
        <ele>481.6</ele>
        <time>2022-02-24T07:48:39Z</time>
      </trkpt>
      <trkpt lat="46.48962" lon="5.62164">
        <ele>482</ele>
        <time>2022-02-24T07:48:40Z</time>
      </trkpt>
      <trkpt lat="46.48962" lon="5.62157">
        <ele>482</ele>
        <time>2022-02-24T07:48:41Z</time>
      </trkpt>
      <trkpt lat="46.48961" lon="5.62151">
        <ele>482.2</ele>
        <time>2022-02-24T07:48:42Z</time>
      </trkpt>
      <trkpt lat="46.4896" lon="5.62144">
        <ele>482.6</ele>
        <time>2022-02-24T07:48:43Z</time>
      </trkpt>
      <trkpt lat="46.48959" lon="5.62138">
        <ele>482.8</ele>
        <time>2022-02-24T07:48:44Z</time>
      </trkpt>
      <trkpt lat="46.48959" lon="5.62132">
        <ele>482.8</ele>
        <time>2022-02-24T07:48:45Z</time>
      </trkpt>
      <trkpt lat="46.48958" lon="5.62126">
        <ele>483</ele>
        <time>2022-02-24T07:48:46Z</time>
      </trkpt>
      <trkpt lat="46.48958" lon="5.62119">
        <ele>483</ele>
        <time>2022-02-24T07:48:47Z</time>
      </trkpt>
      <trkpt lat="46.48957" lon="5.62113">
        <ele>483.4</ele>
        <time>2022-02-24T07:48:48Z</time>
      </trkpt>
      <trkpt lat="46.48956" lon="5.62107">
        <ele>483.4</ele>
        <time>2022-02-24T07:48:49Z</time>
      </trkpt>
      <trkpt lat="46.48955" lon="5.62101">
        <ele>483.8</ele>
        <time>2022-02-24T07:48:50Z</time>
      </trkpt>
      <trkpt lat="46.48954" lon="5.62095">
        <ele>483.8</ele>
        <time>2022-02-24T07:48:51Z</time>
      </trkpt>
      <trkpt lat="46.48954" lon="5.62089">
        <ele>484.2</ele>
        <time>2022-02-24T07:48:52Z</time>
      </trkpt>
      <trkpt lat="46.48953" lon="5.62083">
        <ele>484.4</ele>
        <time>2022-02-24T07:48:53Z</time>
      </trkpt>
      <trkpt lat="46.48953" lon="5.62077">
        <ele>484.4</ele>
        <time>2022-02-24T07:48:54Z</time>
      </trkpt>
      <trkpt lat="46.48952" lon="5.62071">
        <ele>484.8</ele>
        <time>2022-02-24T07:48:55Z</time>
      </trkpt>
      <trkpt lat="46.48951" lon="5.62065">
        <ele>484.8</ele>
        <time>2022-02-24T07:48:56Z</time>
      </trkpt>
      <trkpt lat="46.4895" lon="5.62059">
        <ele>485.2</ele>
        <time>2022-02-24T07:48:57Z</time>
      </trkpt>
      <trkpt lat="46.48948" lon="5.62053">
        <ele>485.4</ele>
        <time>2022-02-24T07:48:58Z</time>
      </trkpt>
      <trkpt lat="46.48947" lon="5.62047">
        <ele>485.4</ele>
        <time>2022-02-24T07:48:59Z</time>
      </trkpt>
      <trkpt lat="46.48946" lon="5.62041">
        <ele>485.8</ele>
        <time>2022-02-24T07:49:00Z</time>
      </trkpt>
      <trkpt lat="46.48945" lon="5.62035">
        <ele>485.8</ele>
        <time>2022-02-24T07:49:01Z</time>
      </trkpt>
      <trkpt lat="46.48943" lon="5.62029">
        <ele>486</ele>
        <time>2022-02-24T07:49:02Z</time>
      </trkpt>
      <trkpt lat="46.48941" lon="5.62024">
        <ele>486.4</ele>
        <time>2022-02-24T07:49:03Z</time>
      </trkpt>
      <trkpt lat="46.48938" lon="5.62019">
        <ele>486.6</ele>
        <time>2022-02-24T07:49:04Z</time>
      </trkpt>
      <trkpt lat="46.48936" lon="5.62014">
        <ele>487</ele>
        <time>2022-02-24T07:49:05Z</time>
      </trkpt>
      <trkpt lat="46.48933" lon="5.6201">
        <ele>487.2</ele>
        <time>2022-02-24T07:49:06Z</time>
      </trkpt>
      <trkpt lat="46.4893" lon="5.62006">
        <ele>487.6</ele>
        <time>2022-02-24T07:49:07Z</time>
      </trkpt>
      <trkpt lat="46.48927" lon="5.62001">
        <ele>487.8</ele>
        <time>2022-02-24T07:49:08Z</time>
      </trkpt>
      <trkpt lat="46.48924" lon="5.61997">
        <ele>488</ele>
        <time>2022-02-24T07:49:09Z</time>
      </trkpt>
      <trkpt lat="46.48921" lon="5.61993">
        <ele>488</ele>
        <time>2022-02-24T07:49:10Z</time>
      </trkpt>
      <trkpt lat="46.48917" lon="5.61989">
        <ele>488.4</ele>
        <time>2022-02-24T07:49:11Z</time>
      </trkpt>
      <trkpt lat="46.48914" lon="5.61986">
        <ele>488.4</ele>
        <time>2022-02-24T07:49:12Z</time>
      </trkpt>
      <trkpt lat="46.4891" lon="5.61982">
        <ele>488.6</ele>
        <time>2022-02-24T07:49:13Z</time>
      </trkpt>
      <trkpt lat="46.48906" lon="5.61979">
        <ele>488.6</ele>
        <time>2022-02-24T07:49:14Z</time>
      </trkpt>
      <trkpt lat="46.48902" lon="5.61976">
        <ele>489</ele>
        <time>2022-02-24T07:49:15Z</time>
      </trkpt>
      <trkpt lat="46.48899" lon="5.61973">
        <ele>489</ele>
        <time>2022-02-24T07:49:16Z</time>
      </trkpt>
      <trkpt lat="46.48895" lon="5.6197">
        <ele>489.4</ele>
        <time>2022-02-24T07:49:17Z</time>
      </trkpt>
      <trkpt lat="46.48891" lon="5.61967">
        <ele>489.4</ele>
        <time>2022-02-24T07:49:18Z</time>
      </trkpt>
      <trkpt lat="46.48887" lon="5.61964">
        <ele>489.4</ele>
        <time>2022-02-24T07:49:19Z</time>
      </trkpt>
      <trkpt lat="46.48883" lon="5.61961">
        <ele>489.6</ele>
        <time>2022-02-24T07:49:20Z</time>
      </trkpt>
      <trkpt lat="46.48879" lon="5.61958">
        <ele>489.6</ele>
        <time>2022-02-24T07:49:21Z</time>
      </trkpt>
      <trkpt lat="46.48876" lon="5.61955">
        <ele>489.8</ele>
        <time>2022-02-24T07:49:22Z</time>
      </trkpt>
      <trkpt lat="46.48872" lon="5.61952">
        <ele>489.8</ele>
        <time>2022-02-24T07:49:23Z</time>
      </trkpt>
      <trkpt lat="46.48868" lon="5.61948">
        <ele>490.2</ele>
        <time>2022-02-24T07:49:24Z</time>
      </trkpt>
      <trkpt lat="46.48864" lon="5.61945">
        <ele>490.2</ele>
        <time>2022-02-24T07:49:25Z</time>
      </trkpt>
      <trkpt lat="46.4886" lon="5.61941">
        <ele>490.4</ele>
        <time>2022-02-24T07:49:26Z</time>
      </trkpt>
      <trkpt lat="46.48857" lon="5.61937">
        <ele>490.4</ele>
        <time>2022-02-24T07:49:27Z</time>
      </trkpt>
      <trkpt lat="46.48857" lon="5.61937">
        <ele>490.8</ele>
        <time>2022-02-24T07:49:28Z</time>
      </trkpt>
      <trkpt lat="46.48853" lon="5.61933">
        <ele>490.8</ele>
        <time>2022-02-24T07:49:29Z</time>
      </trkpt>
      <trkpt lat="46.4885" lon="5.61928">
        <ele>491</ele>
        <time>2022-02-24T07:49:30Z</time>
      </trkpt>
      <trkpt lat="46.48846" lon="5.61924">
        <ele>491</ele>
        <time>2022-02-24T07:49:31Z</time>
      </trkpt>
      <trkpt lat="46.48842" lon="5.6192">
        <ele>491.4</ele>
        <time>2022-02-24T07:49:32Z</time>
      </trkpt>
      <trkpt lat="46.48839" lon="5.61916">
        <ele>491.4</ele>
        <time>2022-02-24T07:49:33Z</time>
      </trkpt>
      <trkpt lat="46.48835" lon="5.61912">
        <ele>491.4</ele>
        <time>2022-02-24T07:49:34Z</time>
      </trkpt>
      <trkpt lat="46.48831" lon="5.61907">
        <ele>491.6</ele>
        <time>2022-02-24T07:49:35Z</time>
      </trkpt>
      <trkpt lat="46.48827" lon="5.61904">
        <ele>491.6</ele>
        <time>2022-02-24T07:49:36Z</time>
      </trkpt>
      <trkpt lat="46.48824" lon="5.619">
        <ele>491.8</ele>
        <time>2022-02-24T07:49:37Z</time>
      </trkpt>
      <trkpt lat="46.4882" lon="5.61897">
        <ele>491.8</ele>
        <time>2022-02-24T07:49:38Z</time>
      </trkpt>
      <trkpt lat="46.48816" lon="5.61894">
        <ele>492.2</ele>
        <time>2022-02-24T07:49:39Z</time>
      </trkpt>
      <trkpt lat="46.48812" lon="5.61891">
        <ele>492.2</ele>
        <time>2022-02-24T07:49:40Z</time>
      </trkpt>
      <trkpt lat="46.48808" lon="5.61888">
        <ele>492.4</ele>
        <time>2022-02-24T07:49:41Z</time>
      </trkpt>
      <trkpt lat="46.48803" lon="5.61885">
        <ele>492.4</ele>
        <time>2022-02-24T07:49:42Z</time>
      </trkpt>
      <trkpt lat="46.48799" lon="5.61883">
        <ele>492.6</ele>
        <time>2022-02-24T07:49:43Z</time>
      </trkpt>
      <trkpt lat="46.48795" lon="5.61881">
        <ele>492.6</ele>
        <time>2022-02-24T07:49:44Z</time>
      </trkpt>
      <trkpt lat="46.48791" lon="5.61879">
        <ele>493</ele>
        <time>2022-02-24T07:49:45Z</time>
      </trkpt>
      <trkpt lat="46.48786" lon="5.61877">
        <ele>493</ele>
        <time>2022-02-24T07:49:46Z</time>
      </trkpt>
      <trkpt lat="46.48782" lon="5.61876">
        <ele>493.4</ele>
        <time>2022-02-24T07:49:47Z</time>
      </trkpt>
      <trkpt lat="46.48778" lon="5.61875">
        <ele>493.4</ele>
        <time>2022-02-24T07:49:48Z</time>
      </trkpt>
      <trkpt lat="46.48774" lon="5.61874">
        <ele>493.6</ele>
        <time>2022-02-24T07:49:49Z</time>
      </trkpt>
      <trkpt lat="46.4877" lon="5.61874">
        <ele>493.6</ele>
        <time>2022-02-24T07:49:50Z</time>
      </trkpt>
      <trkpt lat="46.48766" lon="5.61874">
        <ele>494</ele>
        <time>2022-02-24T07:49:51Z</time>
      </trkpt>
      <trkpt lat="46.48762" lon="5.61873">
        <ele>494</ele>
        <time>2022-02-24T07:49:52Z</time>
      </trkpt>
      <trkpt lat="46.48758" lon="5.61873">
        <ele>494.2</ele>
        <time>2022-02-24T07:49:53Z</time>
      </trkpt>
      <trkpt lat="46.48753" lon="5.61873">
        <ele>494.2</ele>
        <time>2022-02-24T07:49:54Z</time>
      </trkpt>
      <trkpt lat="46.48749" lon="5.61873">
        <ele>494.2</ele>
        <time>2022-02-24T07:49:55Z</time>
      </trkpt>
      <trkpt lat="46.48745" lon="5.61873">
        <ele>494.2</ele>
        <time>2022-02-24T07:49:56Z</time>
      </trkpt>
      <trkpt lat="46.48741" lon="5.61873">
        <ele>494.6</ele>
        <time>2022-02-24T07:49:57Z</time>
      </trkpt>
      <trkpt lat="46.48737" lon="5.61873">
        <ele>494.6</ele>
        <time>2022-02-24T07:49:58Z</time>
      </trkpt>
      <trkpt lat="46.48733" lon="5.61873">
        <ele>494.6</ele>
        <time>2022-02-24T07:49:59Z</time>
      </trkpt>
      <trkpt lat="46.48728" lon="5.61874">
        <ele>494.8</ele>
        <time>2022-02-24T07:50:00Z</time>
      </trkpt>
      <trkpt lat="46.48724" lon="5.61874">
        <ele>494.8</ele>
        <time>2022-02-24T07:50:01Z</time>
      </trkpt>
      <trkpt lat="46.4872" lon="5.61875">
        <ele>495</ele>
        <time>2022-02-24T07:50:02Z</time>
      </trkpt>
      <trkpt lat="46.48716" lon="5.61875">
        <ele>495</ele>
        <time>2022-02-24T07:50:03Z</time>
      </trkpt>
      <trkpt lat="46.48711" lon="5.61876">
        <ele>495</ele>
        <time>2022-02-24T07:50:04Z</time>
      </trkpt>
      <trkpt lat="46.48707" lon="5.61876">
        <ele>495.2</ele>
        <time>2022-02-24T07:50:05Z</time>
      </trkpt>
      <trkpt lat="46.48703" lon="5.61876">
        <ele>495.6</ele>
        <time>2022-02-24T07:50:06Z</time>
      </trkpt>
      <trkpt lat="46.48699" lon="5.61876">
        <ele>495.8</ele>
        <time>2022-02-24T07:50:07Z</time>
      </trkpt>
      <trkpt lat="46.48695" lon="5.61876">
        <ele>496</ele>
        <time>2022-02-24T07:50:08Z</time>
      </trkpt>
      <trkpt lat="46.48691" lon="5.61875">
        <ele>496</ele>
        <time>2022-02-24T07:50:09Z</time>
      </trkpt>
      <trkpt lat="46.48686" lon="5.61874">
        <ele>496.4</ele>
        <time>2022-02-24T07:50:10Z</time>
      </trkpt>
      <trkpt lat="46.48682" lon="5.61872">
        <ele>496.4</ele>
        <time>2022-02-24T07:50:11Z</time>
      </trkpt>
      <trkpt lat="46.48678" lon="5.6187">
        <ele>496.6</ele>
        <time>2022-02-24T07:50:12Z</time>
      </trkpt>
      <trkpt lat="46.48675" lon="5.61868">
        <ele>496.6</ele>
        <time>2022-02-24T07:50:13Z</time>
      </trkpt>
      <trkpt lat="46.48671" lon="5.61866">
        <ele>496.8</ele>
        <time>2022-02-24T07:50:14Z</time>
      </trkpt>
      <trkpt lat="46.48667" lon="5.61864">
        <ele>496.8</ele>
        <time>2022-02-24T07:50:15Z</time>
      </trkpt>
      <trkpt lat="46.48664" lon="5.61861">
        <ele>497.2</ele>
        <time>2022-02-24T07:50:16Z</time>
      </trkpt>
      <trkpt lat="46.4866" lon="5.61858">
        <ele>497.2</ele>
        <time>2022-02-24T07:50:17Z</time>
      </trkpt>
      <trkpt lat="46.48657" lon="5.61855">
        <ele>497.4</ele>
        <time>2022-02-24T07:50:18Z</time>
      </trkpt>
      <trkpt lat="46.48654" lon="5.61851">
        <ele>497.4</ele>
        <time>2022-02-24T07:50:19Z</time>
      </trkpt>
      <trkpt lat="46.4865" lon="5.61847">
        <ele>497.8</ele>
        <time>2022-02-24T07:50:20Z</time>
      </trkpt>
      <trkpt lat="46.48647" lon="5.61843">
        <ele>498</ele>
        <time>2022-02-24T07:50:21Z</time>
      </trkpt>
      <trkpt lat="46.48644" lon="5.6184">
        <ele>498</ele>
        <time>2022-02-24T07:50:22Z</time>
      </trkpt>
      <trkpt lat="46.48641" lon="5.61836">
        <ele>498.4</ele>
        <time>2022-02-24T07:50:23Z</time>
      </trkpt>
      <trkpt lat="46.48638" lon="5.61831">
        <ele>498.4</ele>
        <time>2022-02-24T07:50:24Z</time>
      </trkpt>
      <trkpt lat="46.48635" lon="5.61827">
        <ele>498.6</ele>
        <time>2022-02-24T07:50:25Z</time>
      </trkpt>
      <trkpt lat="46.48632" lon="5.61823">
        <ele>498.6</ele>
        <time>2022-02-24T07:50:26Z</time>
      </trkpt>
      <trkpt lat="46.48629" lon="5.61819">
        <ele>499</ele>
        <time>2022-02-24T07:50:27Z</time>
      </trkpt>
      <trkpt lat="46.48626" lon="5.61816">
        <ele>499</ele>
        <time>2022-02-24T07:50:28Z</time>
      </trkpt>
      <trkpt lat="46.48623" lon="5.61812">
        <ele>499.2</ele>
        <time>2022-02-24T07:50:29Z</time>
      </trkpt>
      <trkpt lat="46.4862" lon="5.61808">
        <ele>499.2</ele>
        <time>2022-02-24T07:50:30Z</time>
      </trkpt>
      <trkpt lat="46.48617" lon="5.61805">
        <ele>499.2</ele>
        <time>2022-02-24T07:50:31Z</time>
      </trkpt>
      <trkpt lat="46.48614" lon="5.61801">
        <ele>499.4</ele>
        <time>2022-02-24T07:50:32Z</time>
      </trkpt>
      <trkpt lat="46.48611" lon="5.61797">
        <ele>499.4</ele>
        <time>2022-02-24T07:50:33Z</time>
      </trkpt>
      <trkpt lat="46.48608" lon="5.61793">
        <ele>499.6</ele>
        <time>2022-02-24T07:50:34Z</time>
      </trkpt>
      <trkpt lat="46.48605" lon="5.61789">
        <ele>499.6</ele>
        <time>2022-02-24T07:50:35Z</time>
      </trkpt>
      <trkpt lat="46.48602" lon="5.61785">
        <ele>500</ele>
        <time>2022-02-24T07:50:36Z</time>
      </trkpt>
      <trkpt lat="46.48599" lon="5.61781">
        <ele>500</ele>
        <time>2022-02-24T07:50:37Z</time>
      </trkpt>
      <trkpt lat="46.48596" lon="5.61777">
        <ele>500.2</ele>
        <time>2022-02-24T07:50:38Z</time>
      </trkpt>
      <trkpt lat="46.48593" lon="5.61773">
        <ele>500.2</ele>
        <time>2022-02-24T07:50:39Z</time>
      </trkpt>
      <trkpt lat="46.4859" lon="5.61769">
        <ele>500.2</ele>
        <time>2022-02-24T07:50:40Z</time>
      </trkpt>
      <trkpt lat="46.48587" lon="5.61765">
        <ele>500.4</ele>
        <time>2022-02-24T07:50:41Z</time>
      </trkpt>
      <trkpt lat="46.48584" lon="5.61761">
        <ele>500.6</ele>
        <time>2022-02-24T07:50:42Z</time>
      </trkpt>
      <trkpt lat="46.48581" lon="5.61757">
        <ele>500.6</ele>
        <time>2022-02-24T07:50:43Z</time>
      </trkpt>
      <trkpt lat="46.48579" lon="5.61754">
        <ele>501</ele>
        <time>2022-02-24T07:50:44Z</time>
      </trkpt>
      <trkpt lat="46.48576" lon="5.6175">
        <ele>501</ele>
        <time>2022-02-24T07:50:45Z</time>
      </trkpt>
      <trkpt lat="46.48573" lon="5.61746">
        <ele>501.2</ele>
        <time>2022-02-24T07:50:46Z</time>
      </trkpt>
      <trkpt lat="46.4857" lon="5.61743">
        <ele>501.2</ele>
        <time>2022-02-24T07:50:47Z</time>
      </trkpt>
      <trkpt lat="46.48568" lon="5.61739">
        <ele>501.6</ele>
        <time>2022-02-24T07:50:48Z</time>
      </trkpt>
      <trkpt lat="46.48565" lon="5.61735">
        <ele>501.8</ele>
        <time>2022-02-24T07:50:49Z</time>
      </trkpt>
      <trkpt lat="46.48563" lon="5.61732">
        <ele>502</ele>
        <time>2022-02-24T07:50:50Z</time>
      </trkpt>
      <trkpt lat="46.4856" lon="5.61728">
        <ele>502.2</ele>
        <time>2022-02-24T07:50:51Z</time>
      </trkpt>
      <trkpt lat="46.48557" lon="5.61725">
        <ele>502.6</ele>
        <time>2022-02-24T07:50:52Z</time>
      </trkpt>
      <trkpt lat="46.48555" lon="5.61721">
        <ele>502.8</ele>
        <time>2022-02-24T07:50:53Z</time>
      </trkpt>
      <trkpt lat="46.48552" lon="5.61717">
        <ele>502.8</ele>
        <time>2022-02-24T07:50:54Z</time>
      </trkpt>
      <trkpt lat="46.48549" lon="5.61714">
        <ele>503.2</ele>
        <time>2022-02-24T07:50:55Z</time>
      </trkpt>
      <trkpt lat="46.48546" lon="5.61711">
        <ele>503.2</ele>
        <time>2022-02-24T07:50:56Z</time>
      </trkpt>
      <trkpt lat="46.48543" lon="5.61708">
        <ele>503.4</ele>
        <time>2022-02-24T07:50:57Z</time>
      </trkpt>
      <trkpt lat="46.4854" lon="5.61705">
        <ele>503.4</ele>
        <time>2022-02-24T07:50:58Z</time>
      </trkpt>
      <trkpt lat="46.48537" lon="5.61701">
        <ele>503.8</ele>
        <time>2022-02-24T07:50:59Z</time>
      </trkpt>
      <trkpt lat="46.48534" lon="5.61698">
        <ele>503.8</ele>
        <time>2022-02-24T07:51:00Z</time>
      </trkpt>
      <trkpt lat="46.48531" lon="5.61695">
        <ele>504</ele>
        <time>2022-02-24T07:51:01Z</time>
      </trkpt>
      <trkpt lat="46.48528" lon="5.61693">
        <ele>504</ele>
        <time>2022-02-24T07:51:02Z</time>
      </trkpt>
      <trkpt lat="46.48525" lon="5.6169">
        <ele>504.4</ele>
        <time>2022-02-24T07:51:03Z</time>
      </trkpt>
      <trkpt lat="46.48521" lon="5.61688">
        <ele>504.6</ele>
        <time>2022-02-24T07:51:04Z</time>
      </trkpt>
      <trkpt lat="46.48518" lon="5.61686">
        <ele>504.6</ele>
        <time>2022-02-24T07:51:05Z</time>
      </trkpt>
      <trkpt lat="46.48514" lon="5.61684">
        <ele>505</ele>
        <time>2022-02-24T07:51:06Z</time>
      </trkpt>
      <trkpt lat="46.48511" lon="5.61682">
        <ele>505.2</ele>
        <time>2022-02-24T07:51:07Z</time>
      </trkpt>
      <trkpt lat="46.48507" lon="5.6168">
        <ele>505.2</ele>
        <time>2022-02-24T07:51:08Z</time>
      </trkpt>
      <trkpt lat="46.48503" lon="5.61679">
        <ele>505.6</ele>
        <time>2022-02-24T07:51:09Z</time>
      </trkpt>
      <trkpt lat="46.485" lon="5.61677">
        <ele>505.8</ele>
        <time>2022-02-24T07:51:10Z</time>
      </trkpt>
      <trkpt lat="46.48496" lon="5.61676">
        <ele>505.8</ele>
        <time>2022-02-24T07:51:11Z</time>
      </trkpt>
      <trkpt lat="46.48493" lon="5.61674">
        <ele>506.2</ele>
        <time>2022-02-24T07:51:12Z</time>
      </trkpt>
      <trkpt lat="46.48489" lon="5.61673">
        <ele>506.2</ele>
        <time>2022-02-24T07:51:13Z</time>
      </trkpt>
      <trkpt lat="46.48485" lon="5.61672">
        <ele>506.4</ele>
        <time>2022-02-24T07:51:14Z</time>
      </trkpt>
      <trkpt lat="46.48482" lon="5.61671">
        <ele>506.4</ele>
        <time>2022-02-24T07:51:15Z</time>
      </trkpt>
      <trkpt lat="46.48478" lon="5.6167">
        <ele>506.6</ele>
        <time>2022-02-24T07:51:16Z</time>
      </trkpt>
      <trkpt lat="46.48474" lon="5.61669">
        <ele>507</ele>
        <time>2022-02-24T07:51:17Z</time>
      </trkpt>
      <trkpt lat="46.48471" lon="5.61668">
        <ele>507</ele>
        <time>2022-02-24T07:51:18Z</time>
      </trkpt>
      <trkpt lat="46.48467" lon="5.61668">
        <ele>507.2</ele>
        <time>2022-02-24T07:51:19Z</time>
      </trkpt>
      <trkpt lat="46.48464" lon="5.61667">
        <ele>507.2</ele>
        <time>2022-02-24T07:51:20Z</time>
      </trkpt>
      <trkpt lat="46.4846" lon="5.61667">
        <ele>507.4</ele>
        <time>2022-02-24T07:51:21Z</time>
      </trkpt>
      <trkpt lat="46.48456" lon="5.61666">
        <ele>507.4</ele>
        <time>2022-02-24T07:51:22Z</time>
      </trkpt>
      <trkpt lat="46.48453" lon="5.61665">
        <ele>507.6</ele>
        <time>2022-02-24T07:51:23Z</time>
      </trkpt>
      <trkpt lat="46.48449" lon="5.61665">
        <ele>507.6</ele>
        <time>2022-02-24T07:51:24Z</time>
      </trkpt>
      <trkpt lat="46.48446" lon="5.61664">
        <ele>508</ele>
        <time>2022-02-24T07:51:25Z</time>
      </trkpt>
      <trkpt lat="46.48442" lon="5.61663">
        <ele>508</ele>
        <time>2022-02-24T07:51:26Z</time>
      </trkpt>
      <trkpt lat="46.48439" lon="5.61662">
        <ele>508.2</ele>
        <time>2022-02-24T07:51:27Z</time>
      </trkpt>
      <trkpt lat="46.48435" lon="5.61661">
        <ele>508.2</ele>
        <time>2022-02-24T07:51:28Z</time>
      </trkpt>
      <trkpt lat="46.48432" lon="5.61661">
        <ele>508.4</ele>
        <time>2022-02-24T07:51:29Z</time>
      </trkpt>
      <trkpt lat="46.48428" lon="5.6166">
        <ele>508.4</ele>
        <time>2022-02-24T07:51:30Z</time>
      </trkpt>
      <trkpt lat="46.48424" lon="5.61659">
        <ele>508.8</ele>
        <time>2022-02-24T07:51:31Z</time>
      </trkpt>
      <trkpt lat="46.48421" lon="5.61658">
        <ele>508.8</ele>
        <time>2022-02-24T07:51:32Z</time>
      </trkpt>
      <trkpt lat="46.48417" lon="5.61658">
        <ele>509.2</ele>
        <time>2022-02-24T07:51:33Z</time>
      </trkpt>
      <trkpt lat="46.48413" lon="5.61657">
        <ele>509.4</ele>
        <time>2022-02-24T07:51:34Z</time>
      </trkpt>
      <trkpt lat="46.4841" lon="5.61656">
        <ele>509.6</ele>
        <time>2022-02-24T07:51:35Z</time>
      </trkpt>
      <trkpt lat="46.48406" lon="5.61656">
        <ele>509.6</ele>
        <time>2022-02-24T07:51:36Z</time>
      </trkpt>
      <trkpt lat="46.48402" lon="5.61655">
        <ele>509.6</ele>
        <time>2022-02-24T07:51:37Z</time>
      </trkpt>
      <trkpt lat="46.48399" lon="5.61654">
        <ele>509.8</ele>
        <time>2022-02-24T07:51:38Z</time>
      </trkpt>
      <trkpt lat="46.48395" lon="5.61654">
        <ele>509.8</ele>
        <time>2022-02-24T07:51:39Z</time>
      </trkpt>
      <trkpt lat="46.48391" lon="5.61653">
        <ele>510.2</ele>
        <time>2022-02-24T07:51:40Z</time>
      </trkpt>
      <trkpt lat="46.48387" lon="5.61652">
        <ele>510.2</ele>
        <time>2022-02-24T07:51:41Z</time>
      </trkpt>
      <trkpt lat="46.48384" lon="5.61651">
        <ele>510.2</ele>
        <time>2022-02-24T07:51:42Z</time>
      </trkpt>
      <trkpt lat="46.4838" lon="5.6165">
        <ele>510.6</ele>
        <time>2022-02-24T07:51:43Z</time>
      </trkpt>
      <trkpt lat="46.48373" lon="5.61648">
        <ele>510.8</ele>
        <time>2022-02-24T07:51:44Z</time>
      </trkpt>
      <trkpt lat="46.48369" lon="5.61647">
        <ele>510.8</ele>
        <time>2022-02-24T07:51:45Z</time>
      </trkpt>
      <trkpt lat="46.48365" lon="5.61646">
        <ele>511</ele>
        <time>2022-02-24T07:51:46Z</time>
      </trkpt>
      <trkpt lat="46.48361" lon="5.61645">
        <ele>511</ele>
        <time>2022-02-24T07:51:47Z</time>
      </trkpt>
      <trkpt lat="46.48358" lon="5.61644">
        <ele>511.4</ele>
        <time>2022-02-24T07:51:48Z</time>
      </trkpt>
      <trkpt lat="46.48354" lon="5.61642">
        <ele>511.4</ele>
        <time>2022-02-24T07:51:49Z</time>
      </trkpt>
      <trkpt lat="46.4835" lon="5.61641">
        <ele>511.6</ele>
        <time>2022-02-24T07:51:50Z</time>
      </trkpt>
      <trkpt lat="46.48347" lon="5.61639">
        <ele>511.6</ele>
        <time>2022-02-24T07:51:51Z</time>
      </trkpt>
      <trkpt lat="46.48343" lon="5.61637">
        <ele>511.8</ele>
        <time>2022-02-24T07:51:52Z</time>
      </trkpt>
      <trkpt lat="46.4834" lon="5.61636">
        <ele>511.8</ele>
        <time>2022-02-24T07:51:53Z</time>
      </trkpt>
      <trkpt lat="46.48336" lon="5.61634">
        <ele>512.2</ele>
        <time>2022-02-24T07:51:54Z</time>
      </trkpt>
      <trkpt lat="46.48333" lon="5.61631">
        <ele>512.4</ele>
        <time>2022-02-24T07:51:55Z</time>
      </trkpt>
      <trkpt lat="46.48329" lon="5.61629">
        <ele>512.4</ele>
        <time>2022-02-24T07:51:56Z</time>
      </trkpt>
      <trkpt lat="46.48326" lon="5.61627">
        <ele>512.8</ele>
        <time>2022-02-24T07:51:57Z</time>
      </trkpt>
      <trkpt lat="46.48322" lon="5.61624">
        <ele>512.8</ele>
        <time>2022-02-24T07:51:58Z</time>
      </trkpt>
      <trkpt lat="46.48319" lon="5.61622">
        <ele>513</ele>
        <time>2022-02-24T07:51:59Z</time>
      </trkpt>
      <trkpt lat="46.48315" lon="5.6162">
        <ele>513</ele>
        <time>2022-02-24T07:52:00Z</time>
      </trkpt>
      <trkpt lat="46.48312" lon="5.61617">
        <ele>513.4</ele>
        <time>2022-02-24T07:52:01Z</time>
      </trkpt>
      <trkpt lat="46.48308" lon="5.61615">
        <ele>513.4</ele>
        <time>2022-02-24T07:52:02Z</time>
      </trkpt>
      <trkpt lat="46.48305" lon="5.61612">
        <ele>513.8</ele>
        <time>2022-02-24T07:52:03Z</time>
      </trkpt>
      <trkpt lat="46.48302" lon="5.61609">
        <ele>513.8</ele>
        <time>2022-02-24T07:52:04Z</time>
      </trkpt>
      <trkpt lat="46.48298" lon="5.61606">
        <ele>514</ele>
        <time>2022-02-24T07:52:05Z</time>
      </trkpt>
      <trkpt lat="46.48295" lon="5.61602">
        <ele>514.4</ele>
        <time>2022-02-24T07:52:06Z</time>
      </trkpt>
      <trkpt lat="46.48292" lon="5.61599">
        <ele>514.6</ele>
        <time>2022-02-24T07:52:07Z</time>
      </trkpt>
      <trkpt lat="46.48289" lon="5.61595">
        <ele>514.6</ele>
        <time>2022-02-24T07:52:08Z</time>
      </trkpt>
      <trkpt lat="46.48286" lon="5.61592">
        <ele>515</ele>
        <time>2022-02-24T07:52:09Z</time>
      </trkpt>
      <trkpt lat="46.48283" lon="5.61588">
        <ele>515</ele>
        <time>2022-02-24T07:52:10Z</time>
      </trkpt>
      <trkpt lat="46.4828" lon="5.61585">
        <ele>515.6</ele>
        <time>2022-02-24T07:52:11Z</time>
      </trkpt>
      <trkpt lat="46.48276" lon="5.61582">
        <ele>515.6</ele>
        <time>2022-02-24T07:52:12Z</time>
      </trkpt>
      <trkpt lat="46.48273" lon="5.61578">
        <ele>515.8</ele>
        <time>2022-02-24T07:52:13Z</time>
      </trkpt>
      <trkpt lat="46.4827" lon="5.61575">
        <ele>515.8</ele>
        <time>2022-02-24T07:52:14Z</time>
      </trkpt>
      <trkpt lat="46.48267" lon="5.61571">
        <ele>516</ele>
        <time>2022-02-24T07:52:15Z</time>
      </trkpt>
      <trkpt lat="46.48263" lon="5.61568">
        <ele>516.4</ele>
        <time>2022-02-24T07:52:16Z</time>
      </trkpt>
      <trkpt lat="46.4826" lon="5.61565">
        <ele>516.6</ele>
        <time>2022-02-24T07:52:17Z</time>
      </trkpt>
      <trkpt lat="46.48256" lon="5.61562">
        <ele>516.8</ele>
        <time>2022-02-24T07:52:18Z</time>
      </trkpt>
      <trkpt lat="46.48253" lon="5.61559">
        <ele>517.2</ele>
        <time>2022-02-24T07:52:19Z</time>
      </trkpt>
      <trkpt lat="46.48249" lon="5.61557">
        <ele>517.2</ele>
        <time>2022-02-24T07:52:20Z</time>
      </trkpt>
      <trkpt lat="46.48245" lon="5.61555">
        <ele>517.6</ele>
        <time>2022-02-24T07:52:21Z</time>
      </trkpt>
      <trkpt lat="46.48242" lon="5.61554">
        <ele>517.6</ele>
        <time>2022-02-24T07:52:22Z</time>
      </trkpt>
      <trkpt lat="46.48237" lon="5.61553">
        <ele>517.8</ele>
        <time>2022-02-24T07:52:23Z</time>
      </trkpt>
      <trkpt lat="46.48233" lon="5.61552">
        <ele>517.8</ele>
        <time>2022-02-24T07:52:24Z</time>
      </trkpt>
      <trkpt lat="46.48229" lon="5.61551">
        <ele>518.2</ele>
        <time>2022-02-24T07:52:25Z</time>
      </trkpt>
      <trkpt lat="46.48225" lon="5.6155">
        <ele>518.2</ele>
        <time>2022-02-24T07:52:26Z</time>
      </trkpt>
      <trkpt lat="46.48221" lon="5.6155">
        <ele>518.4</ele>
        <time>2022-02-24T07:52:27Z</time>
      </trkpt>
      <trkpt lat="46.48217" lon="5.61549">
        <ele>518.8</ele>
        <time>2022-02-24T07:52:28Z</time>
      </trkpt>
      <trkpt lat="46.48213" lon="5.61548">
        <ele>518.8</ele>
        <time>2022-02-24T07:52:29Z</time>
      </trkpt>
      <trkpt lat="46.48209" lon="5.61548">
        <ele>519</ele>
        <time>2022-02-24T07:52:30Z</time>
      </trkpt>
      <trkpt lat="46.48205" lon="5.61548">
        <ele>519</ele>
        <time>2022-02-24T07:52:31Z</time>
      </trkpt>
      <trkpt lat="46.48201" lon="5.61548">
        <ele>519.4</ele>
        <time>2022-02-24T07:52:32Z</time>
      </trkpt>
      <trkpt lat="46.48197" lon="5.61547">
        <ele>519.4</ele>
        <time>2022-02-24T07:52:33Z</time>
      </trkpt>
      <trkpt lat="46.48194" lon="5.61547">
        <ele>519.8</ele>
        <time>2022-02-24T07:52:34Z</time>
      </trkpt>
      <trkpt lat="46.4819" lon="5.61546">
        <ele>519.8</ele>
        <time>2022-02-24T07:52:35Z</time>
      </trkpt>
      <trkpt lat="46.48186" lon="5.61545">
        <ele>520</ele>
        <time>2022-02-24T07:52:36Z</time>
      </trkpt>
      <trkpt lat="46.48182" lon="5.61544">
        <ele>520</ele>
        <time>2022-02-24T07:52:37Z</time>
      </trkpt>
      <trkpt lat="46.48178" lon="5.61542">
        <ele>520.4</ele>
        <time>2022-02-24T07:52:38Z</time>
      </trkpt>
      <trkpt lat="46.48174" lon="5.6154">
        <ele>520.4</ele>
        <time>2022-02-24T07:52:39Z</time>
      </trkpt>
      <trkpt lat="46.4817" lon="5.61538">
        <ele>520.6</ele>
        <time>2022-02-24T07:52:40Z</time>
      </trkpt>
      <trkpt lat="46.48166" lon="5.61536">
        <ele>520.6</ele>
        <time>2022-02-24T07:52:41Z</time>
      </trkpt>
      <trkpt lat="46.48162" lon="5.61534">
        <ele>521</ele>
        <time>2022-02-24T07:52:42Z</time>
      </trkpt>
      <trkpt lat="46.48158" lon="5.61532">
        <ele>521</ele>
        <time>2022-02-24T07:52:43Z</time>
      </trkpt>
      <trkpt lat="46.48154" lon="5.6153">
        <ele>521.2</ele>
        <time>2022-02-24T07:52:44Z</time>
      </trkpt>
      <trkpt lat="46.4815" lon="5.61528">
        <ele>521.2</ele>
        <time>2022-02-24T07:52:45Z</time>
      </trkpt>
      <trkpt lat="46.48146" lon="5.61525">
        <ele>521.2</ele>
        <time>2022-02-24T07:52:46Z</time>
      </trkpt>
      <trkpt lat="46.48142" lon="5.61523">
        <ele>521.4</ele>
        <time>2022-02-24T07:52:47Z</time>
      </trkpt>
      <trkpt lat="46.48139" lon="5.6152">
        <ele>521.4</ele>
        <time>2022-02-24T07:52:48Z</time>
      </trkpt>
      <trkpt lat="46.48135" lon="5.61517">
        <ele>521.8</ele>
        <time>2022-02-24T07:52:49Z</time>
      </trkpt>
      <trkpt lat="46.48131" lon="5.61514">
        <ele>521.8</ele>
        <time>2022-02-24T07:52:50Z</time>
      </trkpt>
      <trkpt lat="46.48127" lon="5.61511">
        <ele>521.8</ele>
        <time>2022-02-24T07:52:51Z</time>
      </trkpt>
      <trkpt lat="46.48124" lon="5.61508">
        <ele>521.8</ele>
        <time>2022-02-24T07:52:52Z</time>
      </trkpt>
      <trkpt lat="46.4812" lon="5.61506">
        <ele>521.8</ele>
        <time>2022-02-24T07:52:53Z</time>
      </trkpt>
      <trkpt lat="46.48116" lon="5.61504">
        <ele>521.8</ele>
        <time>2022-02-24T07:52:54Z</time>
      </trkpt>
      <trkpt lat="46.48112" lon="5.61501">
        <ele>522</ele>
        <time>2022-02-24T07:52:55Z</time>
      </trkpt>
      <trkpt lat="46.48108" lon="5.61498">
        <ele>522</ele>
        <time>2022-02-24T07:52:56Z</time>
      </trkpt>
      <trkpt lat="46.48105" lon="5.61496">
        <ele>522</ele>
        <time>2022-02-24T07:52:57Z</time>
      </trkpt>
      <trkpt lat="46.48101" lon="5.61494">
        <ele>522.2</ele>
        <time>2022-02-24T07:52:58Z</time>
      </trkpt>
      <trkpt lat="46.48097" lon="5.61492">
        <ele>522.2</ele>
        <time>2022-02-24T07:52:59Z</time>
      </trkpt>
      <trkpt lat="46.48093" lon="5.6149">
        <ele>522.6</ele>
        <time>2022-02-24T07:53:00Z</time>
      </trkpt>
      <trkpt lat="46.48089" lon="5.61489">
        <ele>522.6</ele>
        <time>2022-02-24T07:53:01Z</time>
      </trkpt>
      <trkpt lat="46.48085" lon="5.61487">
        <ele>522.8</ele>
        <time>2022-02-24T07:53:02Z</time>
      </trkpt>
      <trkpt lat="46.48081" lon="5.61486">
        <ele>522.8</ele>
        <time>2022-02-24T07:53:03Z</time>
      </trkpt>
      <trkpt lat="46.48077" lon="5.61485">
        <ele>522.8</ele>
        <time>2022-02-24T07:53:04Z</time>
      </trkpt>
      <trkpt lat="46.48073" lon="5.61485">
        <ele>522.8</ele>
        <time>2022-02-24T07:53:05Z</time>
      </trkpt>
      <trkpt lat="46.48068" lon="5.61486">
        <ele>522.8</ele>
        <time>2022-02-24T07:53:06Z</time>
      </trkpt>
      <trkpt lat="46.48064" lon="5.61486">
        <ele>522.8</ele>
        <time>2022-02-24T07:53:07Z</time>
      </trkpt>
      <trkpt lat="46.48059" lon="5.61487">
        <ele>522.8</ele>
        <time>2022-02-24T07:53:08Z</time>
      </trkpt>
      <trkpt lat="46.48055" lon="5.61487">
        <ele>522.8</ele>
        <time>2022-02-24T07:53:09Z</time>
      </trkpt>
      <trkpt lat="46.4805" lon="5.61488">
        <ele>522.8</ele>
        <time>2022-02-24T07:53:10Z</time>
      </trkpt>
      <trkpt lat="46.48045" lon="5.61489">
        <ele>522.8</ele>
        <time>2022-02-24T07:53:11Z</time>
      </trkpt>
      <trkpt lat="46.48041" lon="5.6149">
        <ele>522.8</ele>
        <time>2022-02-24T07:53:12Z</time>
      </trkpt>
      <trkpt lat="46.48036" lon="5.61491">
        <ele>522.8</ele>
        <time>2022-02-24T07:53:13Z</time>
      </trkpt>
      <trkpt lat="46.48032" lon="5.61492">
        <ele>523.2</ele>
        <time>2022-02-24T07:53:14Z</time>
      </trkpt>
      <trkpt lat="46.48028" lon="5.61493">
        <ele>523.2</ele>
        <time>2022-02-24T07:53:15Z</time>
      </trkpt>
      <trkpt lat="46.48023" lon="5.61494">
        <ele>523.2</ele>
        <time>2022-02-24T07:53:16Z</time>
      </trkpt>
      <trkpt lat="46.48019" lon="5.61495">
        <ele>523.4</ele>
        <time>2022-02-24T07:53:17Z</time>
      </trkpt>
      <trkpt lat="46.48019" lon="5.61495">
        <ele>523.6</ele>
        <time>2022-02-24T07:53:18Z</time>
      </trkpt>
      <trkpt lat="46.48015" lon="5.61495">
        <ele>524</ele>
        <time>2022-02-24T07:53:19Z</time>
      </trkpt>
      <trkpt lat="46.48011" lon="5.61496">
        <ele>524</ele>
        <time>2022-02-24T07:53:20Z</time>
      </trkpt>
      <trkpt lat="46.48007" lon="5.61498">
        <ele>524.4</ele>
        <time>2022-02-24T07:53:21Z</time>
      </trkpt>
      <trkpt lat="46.48003" lon="5.615">
        <ele>524.6</ele>
        <time>2022-02-24T07:53:22Z</time>
      </trkpt>
      <trkpt lat="46.48" lon="5.61501">
        <ele>524.6</ele>
        <time>2022-02-24T07:53:23Z</time>
      </trkpt>
      <trkpt lat="46.47996" lon="5.61503">
        <ele>525</ele>
        <time>2022-02-24T07:53:24Z</time>
      </trkpt>
      <trkpt lat="46.47992" lon="5.61505">
        <ele>525.2</ele>
        <time>2022-02-24T07:53:25Z</time>
      </trkpt>
      <trkpt lat="46.47988" lon="5.61507">
        <ele>525.2</ele>
        <time>2022-02-24T07:53:26Z</time>
      </trkpt>
      <trkpt lat="46.47984" lon="5.61509">
        <ele>525.6</ele>
        <time>2022-02-24T07:53:27Z</time>
      </trkpt>
      <trkpt lat="46.4798" lon="5.61511">
        <ele>525.6</ele>
        <time>2022-02-24T07:53:28Z</time>
      </trkpt>
      <trkpt lat="46.47976" lon="5.61513">
        <ele>525.6</ele>
        <time>2022-02-24T07:53:29Z</time>
      </trkpt>
      <trkpt lat="46.47972" lon="5.61515">
        <ele>525.6</ele>
        <time>2022-02-24T07:53:30Z</time>
      </trkpt>
      <trkpt lat="46.47968" lon="5.61517">
        <ele>525.6</ele>
        <time>2022-02-24T07:53:31Z</time>
      </trkpt>
      <trkpt lat="46.47964" lon="5.61519">
        <ele>525.6</ele>
        <time>2022-02-24T07:53:32Z</time>
      </trkpt>
      <trkpt lat="46.47959" lon="5.61521">
        <ele>525.6</ele>
        <time>2022-02-24T07:53:33Z</time>
      </trkpt>
      <trkpt lat="46.47955" lon="5.61523">
        <ele>525.6</ele>
        <time>2022-02-24T07:53:34Z</time>
      </trkpt>
      <trkpt lat="46.47951" lon="5.61525">
        <ele>525.6</ele>
        <time>2022-02-24T07:53:35Z</time>
      </trkpt>
      <trkpt lat="46.47946" lon="5.61527">
        <ele>525.6</ele>
        <time>2022-02-24T07:53:36Z</time>
      </trkpt>
      <trkpt lat="46.47942" lon="5.6153">
        <ele>525.6</ele>
        <time>2022-02-24T07:53:37Z</time>
      </trkpt>
      <trkpt lat="46.47937" lon="5.61532">
        <ele>525.6</ele>
        <time>2022-02-24T07:53:38Z</time>
      </trkpt>
      <trkpt lat="46.47932" lon="5.61535">
        <ele>525.6</ele>
        <time>2022-02-24T07:53:39Z</time>
      </trkpt>
      <trkpt lat="46.47927" lon="5.61537">
        <ele>525.6</ele>
        <time>2022-02-24T07:53:40Z</time>
      </trkpt>
      <trkpt lat="46.47922" lon="5.61539">
        <ele>525.6</ele>
        <time>2022-02-24T07:53:41Z</time>
      </trkpt>
      <trkpt lat="46.47918" lon="5.61542">
        <ele>525.6</ele>
        <time>2022-02-24T07:53:42Z</time>
      </trkpt>
      <trkpt lat="46.47913" lon="5.61544">
        <ele>525.6</ele>
        <time>2022-02-24T07:53:43Z</time>
      </trkpt>
      <trkpt lat="46.47908" lon="5.61547">
        <ele>525.6</ele>
        <time>2022-02-24T07:53:44Z</time>
      </trkpt>
      <trkpt lat="46.47904" lon="5.61549">
        <ele>525.6</ele>
        <time>2022-02-24T07:53:45Z</time>
      </trkpt>
      <trkpt lat="46.47899" lon="5.61551">
        <ele>525.8</ele>
        <time>2022-02-24T07:53:46Z</time>
      </trkpt>
      <trkpt lat="46.47894" lon="5.61553">
        <ele>525.8</ele>
        <time>2022-02-24T07:53:47Z</time>
      </trkpt>
      <trkpt lat="46.47889" lon="5.61556">
        <ele>525.8</ele>
        <time>2022-02-24T07:53:48Z</time>
      </trkpt>
      <trkpt lat="46.47884" lon="5.61558">
        <ele>526</ele>
        <time>2022-02-24T07:53:49Z</time>
      </trkpt>
      <trkpt lat="46.47879" lon="5.6156">
        <ele>526</ele>
        <time>2022-02-24T07:53:50Z</time>
      </trkpt>
      <trkpt lat="46.47874" lon="5.61563">
        <ele>526</ele>
        <time>2022-02-24T07:53:51Z</time>
      </trkpt>
      <trkpt lat="46.47869" lon="5.61565">
        <ele>526.4</ele>
        <time>2022-02-24T07:53:52Z</time>
      </trkpt>
      <trkpt lat="46.47865" lon="5.61568">
        <ele>526.4</ele>
        <time>2022-02-24T07:53:53Z</time>
      </trkpt>
      <trkpt lat="46.4786" lon="5.6157">
        <ele>526.6</ele>
        <time>2022-02-24T07:53:54Z</time>
      </trkpt>
      <trkpt lat="46.47855" lon="5.61573">
        <ele>526.6</ele>
        <time>2022-02-24T07:53:55Z</time>
      </trkpt>
      <trkpt lat="46.4785" lon="5.61575">
        <ele>527</ele>
        <time>2022-02-24T07:53:56Z</time>
      </trkpt>
      <trkpt lat="46.47846" lon="5.61577">
        <ele>527</ele>
        <time>2022-02-24T07:53:57Z</time>
      </trkpt>
      <trkpt lat="46.47841" lon="5.61579">
        <ele>527.2</ele>
        <time>2022-02-24T07:53:58Z</time>
      </trkpt>
      <trkpt lat="46.47837" lon="5.61581">
        <ele>527.2</ele>
        <time>2022-02-24T07:53:59Z</time>
      </trkpt>
      <trkpt lat="46.47832" lon="5.61583">
        <ele>527.6</ele>
        <time>2022-02-24T07:54:00Z</time>
      </trkpt>
      <trkpt lat="46.47828" lon="5.61585">
        <ele>527.8</ele>
        <time>2022-02-24T07:54:01Z</time>
      </trkpt>
      <trkpt lat="46.47823" lon="5.61587">
        <ele>528</ele>
        <time>2022-02-24T07:54:02Z</time>
      </trkpt>
      <trkpt lat="46.47819" lon="5.61588">
        <ele>528</ele>
        <time>2022-02-24T07:54:03Z</time>
      </trkpt>
      <trkpt lat="46.47815" lon="5.6159">
        <ele>528.4</ele>
        <time>2022-02-24T07:54:04Z</time>
      </trkpt>
      <trkpt lat="46.4781" lon="5.61591">
        <ele>528.4</ele>
        <time>2022-02-24T07:54:05Z</time>
      </trkpt>
      <trkpt lat="46.47806" lon="5.61593">
        <ele>528.8</ele>
        <time>2022-02-24T07:54:06Z</time>
      </trkpt>
      <trkpt lat="46.47801" lon="5.61594">
        <ele>528.8</ele>
        <time>2022-02-24T07:54:07Z</time>
      </trkpt>
      <trkpt lat="46.47796" lon="5.61595">
        <ele>528.8</ele>
        <time>2022-02-24T07:54:08Z</time>
      </trkpt>
      <trkpt lat="46.47791" lon="5.61596">
        <ele>528.8</ele>
        <time>2022-02-24T07:54:09Z</time>
      </trkpt>
      <trkpt lat="46.47786" lon="5.61597">
        <ele>528.8</ele>
        <time>2022-02-24T07:54:10Z</time>
      </trkpt>
      <trkpt lat="46.47781" lon="5.61598">
        <ele>528.8</ele>
        <time>2022-02-24T07:54:11Z</time>
      </trkpt>
      <trkpt lat="46.47775" lon="5.61598">
        <ele>528.8</ele>
        <time>2022-02-24T07:54:12Z</time>
      </trkpt>
      <trkpt lat="46.4777" lon="5.61599">
        <ele>528.8</ele>
        <time>2022-02-24T07:54:13Z</time>
      </trkpt>
      <trkpt lat="46.47764" lon="5.61599">
        <ele>528.8</ele>
        <time>2022-02-24T07:54:14Z</time>
      </trkpt>
      <trkpt lat="46.47758" lon="5.616">
        <ele>528.4</ele>
        <time>2022-02-24T07:54:15Z</time>
      </trkpt>
      <trkpt lat="46.47752" lon="5.616">
        <ele>528.4</ele>
        <time>2022-02-24T07:54:16Z</time>
      </trkpt>
      <trkpt lat="46.47747" lon="5.61599">
        <ele>528.2</ele>
        <time>2022-02-24T07:54:17Z</time>
      </trkpt>
      <trkpt lat="46.47741" lon="5.61598">
        <ele>528.2</ele>
        <time>2022-02-24T07:54:18Z</time>
      </trkpt>
      <trkpt lat="46.47735" lon="5.61597">
        <ele>528.2</ele>
        <time>2022-02-24T07:54:19Z</time>
      </trkpt>
      <trkpt lat="46.4773" lon="5.61594">
        <ele>528.2</ele>
        <time>2022-02-24T07:54:20Z</time>
      </trkpt>
      <trkpt lat="46.47725" lon="5.61592">
        <ele>528.2</ele>
        <time>2022-02-24T07:54:21Z</time>
      </trkpt>
      <trkpt lat="46.4772" lon="5.61589">
        <ele>528.2</ele>
        <time>2022-02-24T07:54:22Z</time>
      </trkpt>
      <trkpt lat="46.47715" lon="5.61587">
        <ele>528.2</ele>
        <time>2022-02-24T07:54:23Z</time>
      </trkpt>
      <trkpt lat="46.4771" lon="5.61584">
        <ele>528.2</ele>
        <time>2022-02-24T07:54:24Z</time>
      </trkpt>
      <trkpt lat="46.47704" lon="5.61581">
        <ele>528.2</ele>
        <time>2022-02-24T07:54:25Z</time>
      </trkpt>
      <trkpt lat="46.47699" lon="5.61577">
        <ele>528</ele>
        <time>2022-02-24T07:54:26Z</time>
      </trkpt>
      <trkpt lat="46.47694" lon="5.61573">
        <ele>528</ele>
        <time>2022-02-24T07:54:27Z</time>
      </trkpt>
      <trkpt lat="46.47688" lon="5.6157">
        <ele>527.8</ele>
        <time>2022-02-24T07:54:28Z</time>
      </trkpt>
      <trkpt lat="46.47683" lon="5.61566">
        <ele>527.8</ele>
        <time>2022-02-24T07:54:29Z</time>
      </trkpt>
      <trkpt lat="46.47677" lon="5.61563">
        <ele>527.8</ele>
        <time>2022-02-24T07:54:30Z</time>
      </trkpt>
      <trkpt lat="46.47671" lon="5.61559">
        <ele>527.8</ele>
        <time>2022-02-24T07:54:31Z</time>
      </trkpt>
      <trkpt lat="46.47666" lon="5.61556">
        <ele>527.8</ele>
        <time>2022-02-24T07:54:32Z</time>
      </trkpt>
      <trkpt lat="46.47661" lon="5.61552">
        <ele>527.8</ele>
        <time>2022-02-24T07:54:33Z</time>
      </trkpt>
      <trkpt lat="46.47655" lon="5.61549">
        <ele>527.8</ele>
        <time>2022-02-24T07:54:34Z</time>
      </trkpt>
      <trkpt lat="46.4765" lon="5.61545">
        <ele>527.8</ele>
        <time>2022-02-24T07:54:35Z</time>
      </trkpt>
      <trkpt lat="46.47645" lon="5.61542">
        <ele>527.8</ele>
        <time>2022-02-24T07:54:36Z</time>
      </trkpt>
      <trkpt lat="46.4764" lon="5.61539">
        <ele>527.8</ele>
        <time>2022-02-24T07:54:37Z</time>
      </trkpt>
      <trkpt lat="46.47635" lon="5.61536">
        <ele>527.8</ele>
        <time>2022-02-24T07:54:38Z</time>
      </trkpt>
      <trkpt lat="46.4763" lon="5.61532">
        <ele>528</ele>
        <time>2022-02-24T07:54:39Z</time>
      </trkpt>
      <trkpt lat="46.47625" lon="5.61529">
        <ele>528</ele>
        <time>2022-02-24T07:54:40Z</time>
      </trkpt>
      <trkpt lat="46.4762" lon="5.61526">
        <ele>528.2</ele>
        <time>2022-02-24T07:54:41Z</time>
      </trkpt>
      <trkpt lat="46.47616" lon="5.61522">
        <ele>528.2</ele>
        <time>2022-02-24T07:54:42Z</time>
      </trkpt>
      <trkpt lat="46.47611" lon="5.61519">
        <ele>528.6</ele>
        <time>2022-02-24T07:54:43Z</time>
      </trkpt>
      <trkpt lat="46.47606" lon="5.61516">
        <ele>529</ele>
        <time>2022-02-24T07:54:44Z</time>
      </trkpt>
      <trkpt lat="46.47602" lon="5.61513">
        <ele>529.2</ele>
        <time>2022-02-24T07:54:45Z</time>
      </trkpt>
      <trkpt lat="46.47597" lon="5.6151">
        <ele>529.4</ele>
        <time>2022-02-24T07:54:46Z</time>
      </trkpt>
      <trkpt lat="46.47593" lon="5.61506">
        <ele>529.8</ele>
        <time>2022-02-24T07:54:47Z</time>
      </trkpt>
      <trkpt lat="46.47589" lon="5.61503">
        <ele>530</ele>
        <time>2022-02-24T07:54:48Z</time>
      </trkpt>
      <trkpt lat="46.47585" lon="5.61499">
        <ele>530.4</ele>
        <time>2022-02-24T07:54:49Z</time>
      </trkpt>
      <trkpt lat="46.47581" lon="5.61495">
        <ele>530.6</ele>
        <time>2022-02-24T07:54:50Z</time>
      </trkpt>
      <trkpt lat="46.47578" lon="5.61491">
        <ele>530.8</ele>
        <time>2022-02-24T07:54:51Z</time>
      </trkpt>
      <trkpt lat="46.47574" lon="5.61488">
        <ele>531.2</ele>
        <time>2022-02-24T07:54:52Z</time>
      </trkpt>
      <trkpt lat="46.47571" lon="5.61484">
        <ele>531.4</ele>
        <time>2022-02-24T07:54:53Z</time>
      </trkpt>
      <trkpt lat="46.47567" lon="5.6148">
        <ele>531.8</ele>
        <time>2022-02-24T07:54:54Z</time>
      </trkpt>
      <trkpt lat="46.47564" lon="5.61476">
        <ele>531.8</ele>
        <time>2022-02-24T07:54:55Z</time>
      </trkpt>
      <trkpt lat="46.47561" lon="5.61471">
        <ele>532</ele>
        <time>2022-02-24T07:54:56Z</time>
      </trkpt>
      <trkpt lat="46.47558" lon="5.61467">
        <ele>532</ele>
        <time>2022-02-24T07:54:57Z</time>
      </trkpt>
      <trkpt lat="46.47555" lon="5.61462">
        <ele>532.4</ele>
        <time>2022-02-24T07:54:58Z</time>
      </trkpt>
      <trkpt lat="46.47552" lon="5.61457">
        <ele>532.4</ele>
        <time>2022-02-24T07:54:59Z</time>
      </trkpt>
      <trkpt lat="46.47549" lon="5.61453">
        <ele>532.8</ele>
        <time>2022-02-24T07:55:00Z</time>
      </trkpt>
      <trkpt lat="46.47546" lon="5.61448">
        <ele>532.8</ele>
        <time>2022-02-24T07:55:01Z</time>
      </trkpt>
      <trkpt lat="46.47542" lon="5.61443">
        <ele>533</ele>
        <time>2022-02-24T07:55:02Z</time>
      </trkpt>
      <trkpt lat="46.47539" lon="5.61438">
        <ele>533</ele>
        <time>2022-02-24T07:55:03Z</time>
      </trkpt>
      <trkpt lat="46.47536" lon="5.61433">
        <ele>533</ele>
        <time>2022-02-24T07:55:04Z</time>
      </trkpt>
      <trkpt lat="46.47533" lon="5.61428">
        <ele>533.2</ele>
        <time>2022-02-24T07:55:05Z</time>
      </trkpt>
      <trkpt lat="46.4753" lon="5.61423">
        <ele>533.2</ele>
        <time>2022-02-24T07:55:06Z</time>
      </trkpt>
      <trkpt lat="46.47526" lon="5.61418">
        <ele>533.2</ele>
        <time>2022-02-24T07:55:07Z</time>
      </trkpt>
      <trkpt lat="46.47523" lon="5.61412">
        <ele>533.2</ele>
        <time>2022-02-24T07:55:08Z</time>
      </trkpt>
      <trkpt lat="46.47519" lon="5.61407">
        <ele>533.2</ele>
        <time>2022-02-24T07:55:09Z</time>
      </trkpt>
      <trkpt lat="46.47516" lon="5.61402">
        <ele>533.2</ele>
        <time>2022-02-24T07:55:10Z</time>
      </trkpt>
      <trkpt lat="46.47512" lon="5.61397">
        <ele>533.2</ele>
        <time>2022-02-24T07:55:11Z</time>
      </trkpt>
      <trkpt lat="46.47508" lon="5.61392">
        <ele>533.2</ele>
        <time>2022-02-24T07:55:12Z</time>
      </trkpt>
      <trkpt lat="46.47504" lon="5.61387">
        <ele>533.2</ele>
        <time>2022-02-24T07:55:13Z</time>
      </trkpt>
      <trkpt lat="46.475" lon="5.61383">
        <ele>533</ele>
        <time>2022-02-24T07:55:14Z</time>
      </trkpt>
      <trkpt lat="46.47496" lon="5.61379">
        <ele>533</ele>
        <time>2022-02-24T07:55:15Z</time>
      </trkpt>
      <trkpt lat="46.47491" lon="5.61375">
        <ele>532.6</ele>
        <time>2022-02-24T07:55:16Z</time>
      </trkpt>
      <trkpt lat="46.47486" lon="5.61371">
        <ele>532.4</ele>
        <time>2022-02-24T07:55:17Z</time>
      </trkpt>
      <trkpt lat="46.47481" lon="5.61367">
        <ele>532.2</ele>
        <time>2022-02-24T07:55:18Z</time>
      </trkpt>
      <trkpt lat="46.47476" lon="5.61364">
        <ele>531.8</ele>
        <time>2022-02-24T07:55:19Z</time>
      </trkpt>
      <trkpt lat="46.47464" lon="5.61356">
        <ele>531.6</ele>
        <time>2022-02-24T07:55:20Z</time>
      </trkpt>
      <trkpt lat="46.47458" lon="5.61352">
        <ele>531.2</ele>
        <time>2022-02-24T07:55:21Z</time>
      </trkpt>
      <trkpt lat="46.47451" lon="5.61348">
        <ele>530.8</ele>
        <time>2022-02-24T07:55:22Z</time>
      </trkpt>
      <trkpt lat="46.47444" lon="5.61344">
        <ele>530.4</ele>
        <time>2022-02-24T07:55:23Z</time>
      </trkpt>
      <trkpt lat="46.47437" lon="5.6134">
        <ele>530</ele>
        <time>2022-02-24T07:55:24Z</time>
      </trkpt>
      <trkpt lat="46.4743" lon="5.61335">
        <ele>529.6</ele>
        <time>2022-02-24T07:55:25Z</time>
      </trkpt>
      <trkpt lat="46.47423" lon="5.61331">
        <ele>529</ele>
        <time>2022-02-24T07:55:26Z</time>
      </trkpt>
      <trkpt lat="46.47416" lon="5.61326">
        <ele>528.8</ele>
        <time>2022-02-24T07:55:27Z</time>
      </trkpt>
      <trkpt lat="46.47409" lon="5.61321">
        <ele>528.4</ele>
        <time>2022-02-24T07:55:28Z</time>
      </trkpt>
      <trkpt lat="46.47402" lon="5.61316">
        <ele>528.2</ele>
        <time>2022-02-24T07:55:29Z</time>
      </trkpt>
      <trkpt lat="46.47394" lon="5.61312">
        <ele>528</ele>
        <time>2022-02-24T07:55:30Z</time>
      </trkpt>
      <trkpt lat="46.47387" lon="5.61307">
        <ele>527.8</ele>
        <time>2022-02-24T07:55:31Z</time>
      </trkpt>
      <trkpt lat="46.4738" lon="5.61303">
        <ele>527.6</ele>
        <time>2022-02-24T07:55:32Z</time>
      </trkpt>
      <trkpt lat="46.47373" lon="5.61299">
        <ele>527.6</ele>
        <time>2022-02-24T07:55:33Z</time>
      </trkpt>
      <trkpt lat="46.47366" lon="5.61295">
        <ele>527.6</ele>
        <time>2022-02-24T07:55:34Z</time>
      </trkpt>
      <trkpt lat="46.4736" lon="5.61291">
        <ele>527.2</ele>
        <time>2022-02-24T07:55:35Z</time>
      </trkpt>
      <trkpt lat="46.47353" lon="5.61287">
        <ele>527.2</ele>
        <time>2022-02-24T07:55:36Z</time>
      </trkpt>
      <trkpt lat="46.47347" lon="5.61283">
        <ele>526.8</ele>
        <time>2022-02-24T07:55:37Z</time>
      </trkpt>
      <trkpt lat="46.4734" lon="5.6128">
        <ele>526.8</ele>
        <time>2022-02-24T07:55:38Z</time>
      </trkpt>
      <trkpt lat="46.47333" lon="5.61277">
        <ele>526.6</ele>
        <time>2022-02-24T07:55:39Z</time>
      </trkpt>
      <trkpt lat="46.47327" lon="5.61274">
        <ele>526.6</ele>
        <time>2022-02-24T07:55:40Z</time>
      </trkpt>
      <trkpt lat="46.4732" lon="5.61271">
        <ele>526.2</ele>
        <time>2022-02-24T07:55:41Z</time>
      </trkpt>
      <trkpt lat="46.47313" lon="5.61268">
        <ele>526</ele>
        <time>2022-02-24T07:55:42Z</time>
      </trkpt>
      <trkpt lat="46.47307" lon="5.61265">
        <ele>526</ele>
        <time>2022-02-24T07:55:43Z</time>
      </trkpt>
      <trkpt lat="46.473" lon="5.61262">
        <ele>525.8</ele>
        <time>2022-02-24T07:55:44Z</time>
      </trkpt>
      <trkpt lat="46.47294" lon="5.6126">
        <ele>525.8</ele>
        <time>2022-02-24T07:55:45Z</time>
      </trkpt>
      <trkpt lat="46.47287" lon="5.61257">
        <ele>525.4</ele>
        <time>2022-02-24T07:55:46Z</time>
      </trkpt>
      <trkpt lat="46.4728" lon="5.61255">
        <ele>525.4</ele>
        <time>2022-02-24T07:55:47Z</time>
      </trkpt>
      <trkpt lat="46.47274" lon="5.61253">
        <ele>525.2</ele>
        <time>2022-02-24T07:55:48Z</time>
      </trkpt>
      <trkpt lat="46.47267" lon="5.61251">
        <ele>525.2</ele>
        <time>2022-02-24T07:55:49Z</time>
      </trkpt>
      <trkpt lat="46.47261" lon="5.61249">
        <ele>525.2</ele>
        <time>2022-02-24T07:55:50Z</time>
      </trkpt>
      <trkpt lat="46.47254" lon="5.61247">
        <ele>525</ele>
        <time>2022-02-24T07:55:51Z</time>
      </trkpt>
      <trkpt lat="46.47247" lon="5.61245">
        <ele>525</ele>
        <time>2022-02-24T07:55:52Z</time>
      </trkpt>
      <trkpt lat="46.47241" lon="5.61243">
        <ele>525</ele>
        <time>2022-02-24T07:55:53Z</time>
      </trkpt>
      <trkpt lat="46.47234" lon="5.61242">
        <ele>524.8</ele>
        <time>2022-02-24T07:55:54Z</time>
      </trkpt>
      <trkpt lat="46.47228" lon="5.6124">
        <ele>524.8</ele>
        <time>2022-02-24T07:55:55Z</time>
      </trkpt>
      <trkpt lat="46.47222" lon="5.61239">
        <ele>524.8</ele>
        <time>2022-02-24T07:55:56Z</time>
      </trkpt>
      <trkpt lat="46.47215" lon="5.61238">
        <ele>524.8</ele>
        <time>2022-02-24T07:55:57Z</time>
      </trkpt>
      <trkpt lat="46.47209" lon="5.61237">
        <ele>524.4</ele>
        <time>2022-02-24T07:55:58Z</time>
      </trkpt>
      <trkpt lat="46.47203" lon="5.61236">
        <ele>524.4</ele>
        <time>2022-02-24T07:55:59Z</time>
      </trkpt>
      <trkpt lat="46.47197" lon="5.61237">
        <ele>524.4</ele>
        <time>2022-02-24T07:56:00Z</time>
      </trkpt>
      <trkpt lat="46.47191" lon="5.61237">
        <ele>524.2</ele>
        <time>2022-02-24T07:56:01Z</time>
      </trkpt>
      <trkpt lat="46.47181" lon="5.61239">
        <ele>524.2</ele>
        <time>2022-02-24T07:56:02Z</time>
      </trkpt>
      <trkpt lat="46.47178" lon="5.6124">
        <ele>524.2</ele>
        <time>2022-02-24T07:56:03Z</time>
      </trkpt>
      <trkpt lat="46.47172" lon="5.61241">
        <ele>524.2</ele>
        <time>2022-02-24T07:56:04Z</time>
      </trkpt>
      <trkpt lat="46.47166" lon="5.61244">
        <ele>523.8</ele>
        <time>2022-02-24T07:56:05Z</time>
      </trkpt>
      <trkpt lat="46.4716" lon="5.61245">
        <ele>523.8</ele>
        <time>2022-02-24T07:56:06Z</time>
      </trkpt>
      <trkpt lat="46.47154" lon="5.61247">
        <ele>523.6</ele>
        <time>2022-02-24T07:56:07Z</time>
      </trkpt>
      <trkpt lat="46.47147" lon="5.61247">
        <ele>523.6</ele>
        <time>2022-02-24T07:56:08Z</time>
      </trkpt>
      <trkpt lat="46.47141" lon="5.61247">
        <ele>523.6</ele>
        <time>2022-02-24T07:56:09Z</time>
      </trkpt>
      <trkpt lat="46.47135" lon="5.61247">
        <ele>523.6</ele>
        <time>2022-02-24T07:56:10Z</time>
      </trkpt>
      <trkpt lat="46.47129" lon="5.61246">
        <ele>523.6</ele>
        <time>2022-02-24T07:56:11Z</time>
      </trkpt>
      <trkpt lat="46.47123" lon="5.61245">
        <ele>523.6</ele>
        <time>2022-02-24T07:56:12Z</time>
      </trkpt>
      <trkpt lat="46.47117" lon="5.61243">
        <ele>523.6</ele>
        <time>2022-02-24T07:56:13Z</time>
      </trkpt>
      <trkpt lat="46.47111" lon="5.61242">
        <ele>523.6</ele>
        <time>2022-02-24T07:56:14Z</time>
      </trkpt>
      <trkpt lat="46.47104" lon="5.61241">
        <ele>523.6</ele>
        <time>2022-02-24T07:56:15Z</time>
      </trkpt>
      <trkpt lat="46.47098" lon="5.6124">
        <ele>523.6</ele>
        <time>2022-02-24T07:56:16Z</time>
      </trkpt>
      <trkpt lat="46.47092" lon="5.61238">
        <ele>523.6</ele>
        <time>2022-02-24T07:56:17Z</time>
      </trkpt>
      <trkpt lat="46.47086" lon="5.61237">
        <ele>523.6</ele>
        <time>2022-02-24T07:56:18Z</time>
      </trkpt>
      <trkpt lat="46.47081" lon="5.61236">
        <ele>523.6</ele>
        <time>2022-02-24T07:56:19Z</time>
      </trkpt>
      <trkpt lat="46.47075" lon="5.61235">
        <ele>523.6</ele>
        <time>2022-02-24T07:56:20Z</time>
      </trkpt>
      <trkpt lat="46.47069" lon="5.61235">
        <ele>523.6</ele>
        <time>2022-02-24T07:56:21Z</time>
      </trkpt>
      <trkpt lat="46.47063" lon="5.61234">
        <ele>523.6</ele>
        <time>2022-02-24T07:56:22Z</time>
      </trkpt>
      <trkpt lat="46.47057" lon="5.61234">
        <ele>523.6</ele>
        <time>2022-02-24T07:56:23Z</time>
      </trkpt>
      <trkpt lat="46.47051" lon="5.61233">
        <ele>523.4</ele>
        <time>2022-02-24T07:56:24Z</time>
      </trkpt>
      <trkpt lat="46.47044" lon="5.61232">
        <ele>523.4</ele>
        <time>2022-02-24T07:56:25Z</time>
      </trkpt>
      <trkpt lat="46.47038" lon="5.61231">
        <ele>523.2</ele>
        <time>2022-02-24T07:56:26Z</time>
      </trkpt>
      <trkpt lat="46.47031" lon="5.61229">
        <ele>523.2</ele>
        <time>2022-02-24T07:56:27Z</time>
      </trkpt>
      <trkpt lat="46.47025" lon="5.61228">
        <ele>522.8</ele>
        <time>2022-02-24T07:56:28Z</time>
      </trkpt>
      <trkpt lat="46.47018" lon="5.61227">
        <ele>522.6</ele>
        <time>2022-02-24T07:56:29Z</time>
      </trkpt>
      <trkpt lat="46.47011" lon="5.61226">
        <ele>522.6</ele>
        <time>2022-02-24T07:56:30Z</time>
      </trkpt>
      <trkpt lat="46.47004" lon="5.61224">
        <ele>522.2</ele>
        <time>2022-02-24T07:56:31Z</time>
      </trkpt>
      <trkpt lat="46.46997" lon="5.61222">
        <ele>522.2</ele>
        <time>2022-02-24T07:56:32Z</time>
      </trkpt>
      <trkpt lat="46.4699" lon="5.61219">
        <ele>522</ele>
        <time>2022-02-24T07:56:33Z</time>
      </trkpt>
      <trkpt lat="46.46984" lon="5.61217">
        <ele>522</ele>
        <time>2022-02-24T07:56:34Z</time>
      </trkpt>
      <trkpt lat="46.46977" lon="5.61215">
        <ele>521.6</ele>
        <time>2022-02-24T07:56:35Z</time>
      </trkpt>
      <trkpt lat="46.4697" lon="5.61212">
        <ele>521.6</ele>
        <time>2022-02-24T07:56:36Z</time>
      </trkpt>
      <trkpt lat="46.46963" lon="5.6121">
        <ele>521.4</ele>
        <time>2022-02-24T07:56:37Z</time>
      </trkpt>
      <trkpt lat="46.46956" lon="5.61208">
        <ele>521.4</ele>
        <time>2022-02-24T07:56:38Z</time>
      </trkpt>
      <trkpt lat="46.46949" lon="5.61205">
        <ele>521</ele>
        <time>2022-02-24T07:56:39Z</time>
      </trkpt>
      <trkpt lat="46.46942" lon="5.61203">
        <ele>521</ele>
        <time>2022-02-24T07:56:40Z</time>
      </trkpt>
      <trkpt lat="46.46935" lon="5.61199">
        <ele>520.8</ele>
        <time>2022-02-24T07:56:41Z</time>
      </trkpt>
      <trkpt lat="46.46927" lon="5.61196">
        <ele>520.8</ele>
        <time>2022-02-24T07:56:42Z</time>
      </trkpt>
      <trkpt lat="46.4692" lon="5.61193">
        <ele>520.4</ele>
        <time>2022-02-24T07:56:43Z</time>
      </trkpt>
      <trkpt lat="46.46913" lon="5.61189">
        <ele>520.2</ele>
        <time>2022-02-24T07:56:44Z</time>
      </trkpt>
      <trkpt lat="46.46905" lon="5.61186">
        <ele>520.2</ele>
        <time>2022-02-24T07:56:45Z</time>
      </trkpt>
      <trkpt lat="46.46898" lon="5.61183">
        <ele>520.2</ele>
        <time>2022-02-24T07:56:46Z</time>
      </trkpt>
      <trkpt lat="46.4689" lon="5.61179">
        <ele>520.2</ele>
        <time>2022-02-24T07:56:47Z</time>
      </trkpt>
      <trkpt lat="46.46883" lon="5.61176">
        <ele>520</ele>
        <time>2022-02-24T07:56:48Z</time>
      </trkpt>
      <trkpt lat="46.46875" lon="5.61172">
        <ele>520</ele>
        <time>2022-02-24T07:56:49Z</time>
      </trkpt>
      <trkpt lat="46.46868" lon="5.61169">
        <ele>519.6</ele>
        <time>2022-02-24T07:56:50Z</time>
      </trkpt>
      <trkpt lat="46.46857" lon="5.61164">
        <ele>519.6</ele>
        <time>2022-02-24T07:56:51Z</time>
      </trkpt>
      <trkpt lat="46.46854" lon="5.61162">
        <ele>519.6</ele>
        <time>2022-02-24T07:56:52Z</time>
      </trkpt>
      <trkpt lat="46.46847" lon="5.61159">
        <ele>519.6</ele>
        <time>2022-02-24T07:56:53Z</time>
      </trkpt>
      <trkpt lat="46.4684" lon="5.61156">
        <ele>519.6</ele>
        <time>2022-02-24T07:56:54Z</time>
      </trkpt>
      <trkpt lat="46.46833" lon="5.61153">
        <ele>519.4</ele>
        <time>2022-02-24T07:56:55Z</time>
      </trkpt>
      <trkpt lat="46.46826" lon="5.6115">
        <ele>519.4</ele>
        <time>2022-02-24T07:56:56Z</time>
      </trkpt>
      <trkpt lat="46.46819" lon="5.61148">
        <ele>519.4</ele>
        <time>2022-02-24T07:56:57Z</time>
      </trkpt>
      <trkpt lat="46.46812" lon="5.61145">
        <ele>519.4</ele>
        <time>2022-02-24T07:56:58Z</time>
      </trkpt>
      <trkpt lat="46.46806" lon="5.61143">
        <ele>519.4</ele>
        <time>2022-02-24T07:56:59Z</time>
      </trkpt>
      <trkpt lat="46.46799" lon="5.61141">
        <ele>519.4</ele>
        <time>2022-02-24T07:57:00Z</time>
      </trkpt>
      <trkpt lat="46.46792" lon="5.61138">
        <ele>519.2</ele>
        <time>2022-02-24T07:57:01Z</time>
      </trkpt>
      <trkpt lat="46.46785" lon="5.61137">
        <ele>519.2</ele>
        <time>2022-02-24T07:57:02Z</time>
      </trkpt>
      <trkpt lat="46.46778" lon="5.61135">
        <ele>519.2</ele>
        <time>2022-02-24T07:57:03Z</time>
      </trkpt>
      <trkpt lat="46.46772" lon="5.61133">
        <ele>519.2</ele>
        <time>2022-02-24T07:57:04Z</time>
      </trkpt>
      <trkpt lat="46.46765" lon="5.61131">
        <ele>519.2</ele>
        <time>2022-02-24T07:57:05Z</time>
      </trkpt>
      <trkpt lat="46.46759" lon="5.61129">
        <ele>519.2</ele>
        <time>2022-02-24T07:57:06Z</time>
      </trkpt>
      <trkpt lat="46.46752" lon="5.61128">
        <ele>519.6</ele>
        <time>2022-02-24T07:57:07Z</time>
      </trkpt>
      <trkpt lat="46.46746" lon="5.61127">
        <ele>519.6</ele>
        <time>2022-02-24T07:57:08Z</time>
      </trkpt>
      <trkpt lat="46.4674" lon="5.61126">
        <ele>519.8</ele>
        <time>2022-02-24T07:57:09Z</time>
      </trkpt>
      <trkpt lat="46.4674" lon="5.61126">
        <ele>519.8</ele>
        <time>2022-02-24T07:57:10Z</time>
      </trkpt>
      <trkpt lat="46.46734" lon="5.61124">
        <ele>519.8</ele>
        <time>2022-02-24T07:57:11Z</time>
      </trkpt>
      <trkpt lat="46.46728" lon="5.61122">
        <ele>519.8</ele>
        <time>2022-02-24T07:57:12Z</time>
      </trkpt>
      <trkpt lat="46.46722" lon="5.61121">
        <ele>519.8</ele>
        <time>2022-02-24T07:57:13Z</time>
      </trkpt>
      <trkpt lat="46.46716" lon="5.61119">
        <ele>520</ele>
        <time>2022-02-24T07:57:14Z</time>
      </trkpt>
      <trkpt lat="46.46711" lon="5.61117">
        <ele>520</ele>
        <time>2022-02-24T07:57:15Z</time>
      </trkpt>
      <trkpt lat="46.46705" lon="5.61115">
        <ele>520.4</ele>
        <time>2022-02-24T07:57:16Z</time>
      </trkpt>
      <trkpt lat="46.46699" lon="5.61114">
        <ele>520.4</ele>
        <time>2022-02-24T07:57:17Z</time>
      </trkpt>
      <trkpt lat="46.46694" lon="5.61112">
        <ele>520.6</ele>
        <time>2022-02-24T07:57:18Z</time>
      </trkpt>
      <trkpt lat="46.46689" lon="5.61111">
        <ele>520.6</ele>
        <time>2022-02-24T07:57:19Z</time>
      </trkpt>
      <trkpt lat="46.46684" lon="5.61109">
        <ele>521</ele>
        <time>2022-02-24T07:57:20Z</time>
      </trkpt>
      <trkpt lat="46.46679" lon="5.61107">
        <ele>521.2</ele>
        <time>2022-02-24T07:57:21Z</time>
      </trkpt>
      <trkpt lat="46.46674" lon="5.61105">
        <ele>521.4</ele>
        <time>2022-02-24T07:57:22Z</time>
      </trkpt>
      <trkpt lat="46.46669" lon="5.61103">
        <ele>521.8</ele>
        <time>2022-02-24T07:57:23Z</time>
      </trkpt>
      <trkpt lat="46.46664" lon="5.611">
        <ele>521.8</ele>
        <time>2022-02-24T07:57:24Z</time>
      </trkpt>
      <trkpt lat="46.4666" lon="5.61097">
        <ele>522</ele>
        <time>2022-02-24T07:57:25Z</time>
      </trkpt>
      <trkpt lat="46.46655" lon="5.61094">
        <ele>522</ele>
        <time>2022-02-24T07:57:26Z</time>
      </trkpt>
      <trkpt lat="46.46651" lon="5.6109">
        <ele>522.2</ele>
        <time>2022-02-24T07:57:27Z</time>
      </trkpt>
      <trkpt lat="46.46647" lon="5.61086">
        <ele>522.4</ele>
        <time>2022-02-24T07:57:28Z</time>
      </trkpt>
      <trkpt lat="46.46643" lon="5.61082">
        <ele>522.4</ele>
        <time>2022-02-24T07:57:29Z</time>
      </trkpt>
      <trkpt lat="46.46638" lon="5.61078">
        <ele>522.4</ele>
        <time>2022-02-24T07:57:30Z</time>
      </trkpt>
      <trkpt lat="46.46634" lon="5.61073">
        <ele>522.8</ele>
        <time>2022-02-24T07:57:31Z</time>
      </trkpt>
      <trkpt lat="46.4663" lon="5.61069">
        <ele>522.8</ele>
        <time>2022-02-24T07:57:32Z</time>
      </trkpt>
      <trkpt lat="46.46625" lon="5.61064">
        <ele>522.8</ele>
        <time>2022-02-24T07:57:33Z</time>
      </trkpt>
      <trkpt lat="46.4662" lon="5.6106">
        <ele>522.8</ele>
        <time>2022-02-24T07:57:34Z</time>
      </trkpt>
      <trkpt lat="46.46616" lon="5.61056">
        <ele>522.8</ele>
        <time>2022-02-24T07:57:35Z</time>
      </trkpt>
      <trkpt lat="46.46611" lon="5.61051">
        <ele>522.8</ele>
        <time>2022-02-24T07:57:36Z</time>
      </trkpt>
      <trkpt lat="46.46607" lon="5.61047">
        <ele>522.8</ele>
        <time>2022-02-24T07:57:37Z</time>
      </trkpt>
      <trkpt lat="46.46602" lon="5.61042">
        <ele>522.8</ele>
        <time>2022-02-24T07:57:38Z</time>
      </trkpt>
      <trkpt lat="46.46597" lon="5.61038">
        <ele>522.8</ele>
        <time>2022-02-24T07:57:39Z</time>
      </trkpt>
      <trkpt lat="46.46592" lon="5.61034">
        <ele>522.8</ele>
        <time>2022-02-24T07:57:40Z</time>
      </trkpt>
      <trkpt lat="46.46587" lon="5.6103">
        <ele>522.8</ele>
        <time>2022-02-24T07:57:41Z</time>
      </trkpt>
      <trkpt lat="46.46582" lon="5.61026">
        <ele>522.8</ele>
        <time>2022-02-24T07:57:42Z</time>
      </trkpt>
      <trkpt lat="46.46578" lon="5.61021">
        <ele>522.8</ele>
        <time>2022-02-24T07:57:43Z</time>
      </trkpt>
      <trkpt lat="46.46573" lon="5.61017">
        <ele>522.8</ele>
        <time>2022-02-24T07:57:44Z</time>
      </trkpt>
      <trkpt lat="46.46568" lon="5.61012">
        <ele>522.8</ele>
        <time>2022-02-24T07:57:45Z</time>
      </trkpt>
      <trkpt lat="46.46563" lon="5.61008">
        <ele>523</ele>
        <time>2022-02-24T07:57:46Z</time>
      </trkpt>
      <trkpt lat="46.46558" lon="5.61004">
        <ele>523</ele>
        <time>2022-02-24T07:57:47Z</time>
      </trkpt>
      <trkpt lat="46.46552" lon="5.60999">
        <ele>523</ele>
        <time>2022-02-24T07:57:48Z</time>
      </trkpt>
      <trkpt lat="46.46547" lon="5.60995">
        <ele>523</ele>
        <time>2022-02-24T07:57:49Z</time>
      </trkpt>
      <trkpt lat="46.46542" lon="5.60991">
        <ele>523</ele>
        <time>2022-02-24T07:57:50Z</time>
      </trkpt>
      <trkpt lat="46.46536" lon="5.60987">
        <ele>523</ele>
        <time>2022-02-24T07:57:51Z</time>
      </trkpt>
      <trkpt lat="46.46531" lon="5.60983">
        <ele>522.8</ele>
        <time>2022-02-24T07:57:52Z</time>
      </trkpt>
      <trkpt lat="46.4652" lon="5.60974">
        <ele>522.8</ele>
        <time>2022-02-24T07:57:53Z</time>
      </trkpt>
      <trkpt lat="46.46511" lon="5.60968">
        <ele>522.8</ele>
        <time>2022-02-24T07:57:54Z</time>
      </trkpt>
      <trkpt lat="46.46508" lon="5.60966">
        <ele>522.8</ele>
        <time>2022-02-24T07:57:55Z</time>
      </trkpt>
      <trkpt lat="46.46503" lon="5.60962">
        <ele>522.8</ele>
        <time>2022-02-24T07:57:56Z</time>
      </trkpt>
      <trkpt lat="46.46497" lon="5.60957">
        <ele>522.8</ele>
        <time>2022-02-24T07:57:57Z</time>
      </trkpt>
      <trkpt lat="46.46491" lon="5.60953">
        <ele>522.8</ele>
        <time>2022-02-24T07:57:58Z</time>
      </trkpt>
      <trkpt lat="46.46485" lon="5.60949">
        <ele>522.8</ele>
        <time>2022-02-24T07:57:59Z</time>
      </trkpt>
      <trkpt lat="46.46479" lon="5.60945">
        <ele>522.8</ele>
        <time>2022-02-24T07:58:00Z</time>
      </trkpt>
      <trkpt lat="46.46473" lon="5.60942">
        <ele>523</ele>
        <time>2022-02-24T07:58:01Z</time>
      </trkpt>
      <trkpt lat="46.46467" lon="5.60938">
        <ele>523</ele>
        <time>2022-02-24T07:58:02Z</time>
      </trkpt>
      <trkpt lat="46.46461" lon="5.60935">
        <ele>523</ele>
        <time>2022-02-24T07:58:03Z</time>
      </trkpt>
      <trkpt lat="46.46455" lon="5.60931">
        <ele>523</ele>
        <time>2022-02-24T07:58:04Z</time>
      </trkpt>
      <trkpt lat="46.46449" lon="5.60928">
        <ele>523</ele>
        <time>2022-02-24T07:58:05Z</time>
      </trkpt>
      <trkpt lat="46.46442" lon="5.60925">
        <ele>523</ele>
        <time>2022-02-24T07:58:06Z</time>
      </trkpt>
      <trkpt lat="46.46436" lon="5.60922">
        <ele>523</ele>
        <time>2022-02-24T07:58:07Z</time>
      </trkpt>
      <trkpt lat="46.4643" lon="5.60918">
        <ele>523</ele>
        <time>2022-02-24T07:58:08Z</time>
      </trkpt>
      <trkpt lat="46.46424" lon="5.60915">
        <ele>523</ele>
        <time>2022-02-24T07:58:09Z</time>
      </trkpt>
      <trkpt lat="46.46418" lon="5.60912">
        <ele>523</ele>
        <time>2022-02-24T07:58:10Z</time>
      </trkpt>
      <trkpt lat="46.46412" lon="5.60909">
        <ele>523</ele>
        <time>2022-02-24T07:58:11Z</time>
      </trkpt>
      <trkpt lat="46.46406" lon="5.60906">
        <ele>523</ele>
        <time>2022-02-24T07:58:12Z</time>
      </trkpt>
      <trkpt lat="46.464" lon="5.60902">
        <ele>523</ele>
        <time>2022-02-24T07:58:13Z</time>
      </trkpt>
      <trkpt lat="46.46394" lon="5.60899">
        <ele>523</ele>
        <time>2022-02-24T07:58:14Z</time>
      </trkpt>
      <trkpt lat="46.46388" lon="5.60896">
        <ele>523</ele>
        <time>2022-02-24T07:58:15Z</time>
      </trkpt>
      <trkpt lat="46.46382" lon="5.60893">
        <ele>523</ele>
        <time>2022-02-24T07:58:16Z</time>
      </trkpt>
      <trkpt lat="46.46376" lon="5.60889">
        <ele>523</ele>
        <time>2022-02-24T07:58:17Z</time>
      </trkpt>
      <trkpt lat="46.4637" lon="5.60886">
        <ele>523</ele>
        <time>2022-02-24T07:58:18Z</time>
      </trkpt>
      <trkpt lat="46.46364" lon="5.60883">
        <ele>523</ele>
        <time>2022-02-24T07:58:19Z</time>
      </trkpt>
      <trkpt lat="46.46358" lon="5.60879">
        <ele>523</ele>
        <time>2022-02-24T07:58:20Z</time>
      </trkpt>
      <trkpt lat="46.46352" lon="5.60876">
        <ele>522.6</ele>
        <time>2022-02-24T07:58:21Z</time>
      </trkpt>
      <trkpt lat="46.46346" lon="5.60872">
        <ele>522.6</ele>
        <time>2022-02-24T07:58:22Z</time>
      </trkpt>
      <trkpt lat="46.46339" lon="5.60868">
        <ele>522.4</ele>
        <time>2022-02-24T07:58:23Z</time>
      </trkpt>
      <trkpt lat="46.46333" lon="5.60865">
        <ele>522.4</ele>
        <time>2022-02-24T07:58:24Z</time>
      </trkpt>
      <trkpt lat="46.46326" lon="5.60861">
        <ele>522.4</ele>
        <time>2022-02-24T07:58:25Z</time>
      </trkpt>
      <trkpt lat="46.4632" lon="5.60857">
        <ele>522.4</ele>
        <time>2022-02-24T07:58:26Z</time>
      </trkpt>
      <trkpt lat="46.46314" lon="5.60853">
        <ele>522.4</ele>
        <time>2022-02-24T07:58:27Z</time>
      </trkpt>
      <trkpt lat="46.46308" lon="5.6085">
        <ele>522.4</ele>
        <time>2022-02-24T07:58:28Z</time>
      </trkpt>
      <trkpt lat="46.46302" lon="5.60846">
        <ele>522.2</ele>
        <time>2022-02-24T07:58:29Z</time>
      </trkpt>
      <trkpt lat="46.46295" lon="5.60842">
        <ele>522.2</ele>
        <time>2022-02-24T07:58:30Z</time>
      </trkpt>
      <trkpt lat="46.46289" lon="5.60838">
        <ele>522.2</ele>
        <time>2022-02-24T07:58:31Z</time>
      </trkpt>
      <trkpt lat="46.46283" lon="5.60834">
        <ele>522.2</ele>
        <time>2022-02-24T07:58:32Z</time>
      </trkpt>
      <trkpt lat="46.46277" lon="5.60831">
        <ele>521.8</ele>
        <time>2022-02-24T07:58:33Z</time>
      </trkpt>
      <trkpt lat="46.46272" lon="5.60828">
        <ele>521.8</ele>
        <time>2022-02-24T07:58:34Z</time>
      </trkpt>
      <trkpt lat="46.46266" lon="5.60824">
        <ele>521.8</ele>
        <time>2022-02-24T07:58:35Z</time>
      </trkpt>
      <trkpt lat="46.4626" lon="5.60821">
        <ele>521.8</ele>
        <time>2022-02-24T07:58:36Z</time>
      </trkpt>
      <trkpt lat="46.46254" lon="5.60818">
        <ele>521.8</ele>
        <time>2022-02-24T07:58:37Z</time>
      </trkpt>
      <trkpt lat="46.46248" lon="5.60815">
        <ele>521.8</ele>
        <time>2022-02-24T07:58:38Z</time>
      </trkpt>
      <trkpt lat="46.46242" lon="5.60812">
        <ele>522.2</ele>
        <time>2022-02-24T07:58:39Z</time>
      </trkpt>
      <trkpt lat="46.46237" lon="5.6081">
        <ele>522.4</ele>
        <time>2022-02-24T07:58:40Z</time>
      </trkpt>
      <trkpt lat="46.46231" lon="5.60807">
        <ele>522.4</ele>
        <time>2022-02-24T07:58:41Z</time>
      </trkpt>
      <trkpt lat="46.46225" lon="5.60805">
        <ele>522.8</ele>
        <time>2022-02-24T07:58:42Z</time>
      </trkpt>
      <trkpt lat="46.4622" lon="5.60803">
        <ele>522.8</ele>
        <time>2022-02-24T07:58:43Z</time>
      </trkpt>
      <trkpt lat="46.46214" lon="5.60801">
        <ele>523</ele>
        <time>2022-02-24T07:58:44Z</time>
      </trkpt>
      <trkpt lat="46.46209" lon="5.60799">
        <ele>523</ele>
        <time>2022-02-24T07:58:45Z</time>
      </trkpt>
      <trkpt lat="46.46203" lon="5.60797">
        <ele>523.2</ele>
        <time>2022-02-24T07:58:46Z</time>
      </trkpt>
      <trkpt lat="46.46198" lon="5.60795">
        <ele>523.2</ele>
        <time>2022-02-24T07:58:47Z</time>
      </trkpt>
      <trkpt lat="46.46193" lon="5.60793">
        <ele>523.8</ele>
        <time>2022-02-24T07:58:48Z</time>
      </trkpt>
      <trkpt lat="46.46188" lon="5.60792">
        <ele>524</ele>
        <time>2022-02-24T07:58:49Z</time>
      </trkpt>
      <trkpt lat="46.46183" lon="5.6079">
        <ele>524.2</ele>
        <time>2022-02-24T07:58:50Z</time>
      </trkpt>
      <trkpt lat="46.46178" lon="5.60788">
        <ele>524.6</ele>
        <time>2022-02-24T07:58:51Z</time>
      </trkpt>
      <trkpt lat="46.46174" lon="5.60787">
        <ele>524.8</ele>
        <time>2022-02-24T07:58:52Z</time>
      </trkpt>
      <trkpt lat="46.46169" lon="5.60785">
        <ele>524.8</ele>
        <time>2022-02-24T07:58:53Z</time>
      </trkpt>
      <trkpt lat="46.46164" lon="5.60783">
        <ele>525</ele>
        <time>2022-02-24T07:58:54Z</time>
      </trkpt>
      <trkpt lat="46.46159" lon="5.6078">
        <ele>525</ele>
        <time>2022-02-24T07:58:55Z</time>
      </trkpt>
      <trkpt lat="46.46155" lon="5.60778">
        <ele>525.4</ele>
        <time>2022-02-24T07:58:56Z</time>
      </trkpt>
      <trkpt lat="46.4615" lon="5.60777">
        <ele>525.4</ele>
        <time>2022-02-24T07:58:57Z</time>
      </trkpt>
      <trkpt lat="46.46144" lon="5.60775">
        <ele>525.4</ele>
        <time>2022-02-24T07:58:58Z</time>
      </trkpt>
      <trkpt lat="46.46139" lon="5.60773">
        <ele>525.4</ele>
        <time>2022-02-24T07:58:59Z</time>
      </trkpt>
      <trkpt lat="46.46134" lon="5.60771">
        <ele>525.4</ele>
        <time>2022-02-24T07:59:00Z</time>
      </trkpt>
      <trkpt lat="46.46128" lon="5.60768">
        <ele>525.4</ele>
        <time>2022-02-24T07:59:01Z</time>
      </trkpt>
      <trkpt lat="46.46122" lon="5.60766">
        <ele>525</ele>
        <time>2022-02-24T07:59:02Z</time>
      </trkpt>
      <trkpt lat="46.46116" lon="5.60763">
        <ele>525</ele>
        <time>2022-02-24T07:59:03Z</time>
      </trkpt>
      <trkpt lat="46.4611" lon="5.60761">
        <ele>524.6</ele>
        <time>2022-02-24T07:59:04Z</time>
      </trkpt>
      <trkpt lat="46.46104" lon="5.60758">
        <ele>524.4</ele>
        <time>2022-02-24T07:59:05Z</time>
      </trkpt>
      <trkpt lat="46.46097" lon="5.60756">
        <ele>524.4</ele>
        <time>2022-02-24T07:59:06Z</time>
      </trkpt>
      <trkpt lat="46.4609" lon="5.60753">
        <ele>524</ele>
        <time>2022-02-24T07:59:07Z</time>
      </trkpt>
      <trkpt lat="46.46084" lon="5.60751">
        <ele>523.6</ele>
        <time>2022-02-24T07:59:08Z</time>
      </trkpt>
      <trkpt lat="46.46076" lon="5.60749">
        <ele>523.4</ele>
        <time>2022-02-24T07:59:09Z</time>
      </trkpt>
      <trkpt lat="46.46069" lon="5.60747">
        <ele>523</ele>
        <time>2022-02-24T07:59:10Z</time>
      </trkpt>
      <trkpt lat="46.46062" lon="5.60744">
        <ele>522.8</ele>
        <time>2022-02-24T07:59:11Z</time>
      </trkpt>
      <trkpt lat="46.46054" lon="5.60741">
        <ele>522.8</ele>
        <time>2022-02-24T07:59:12Z</time>
      </trkpt>
      <trkpt lat="46.46046" lon="5.60738">
        <ele>522.2</ele>
        <time>2022-02-24T07:59:13Z</time>
      </trkpt>
      <trkpt lat="46.46038" lon="5.60735">
        <ele>521.8</ele>
        <time>2022-02-24T07:59:14Z</time>
      </trkpt>
      <trkpt lat="46.46031" lon="5.60732">
        <ele>521.6</ele>
        <time>2022-02-24T07:59:15Z</time>
      </trkpt>
      <trkpt lat="46.46023" lon="5.60728">
        <ele>521.2</ele>
        <time>2022-02-24T07:59:16Z</time>
      </trkpt>
      <trkpt lat="46.46015" lon="5.60725">
        <ele>521</ele>
        <time>2022-02-24T07:59:17Z</time>
      </trkpt>
      <trkpt lat="46.46008" lon="5.60721">
        <ele>520.8</ele>
        <time>2022-02-24T07:59:18Z</time>
      </trkpt>
      <trkpt lat="46.46" lon="5.60716">
        <ele>520.8</ele>
        <time>2022-02-24T07:59:19Z</time>
      </trkpt>
      <trkpt lat="46.45993" lon="5.60711">
        <ele>520.6</ele>
        <time>2022-02-24T07:59:20Z</time>
      </trkpt>
      <trkpt lat="46.45986" lon="5.60707">
        <ele>520.6</ele>
        <time>2022-02-24T07:59:21Z</time>
      </trkpt>
      <trkpt lat="46.45979" lon="5.60703">
        <ele>520.2</ele>
        <time>2022-02-24T07:59:22Z</time>
      </trkpt>
      <trkpt lat="46.45972" lon="5.60698">
        <ele>520.2</ele>
        <time>2022-02-24T07:59:23Z</time>
      </trkpt>
      <trkpt lat="46.45965" lon="5.60694">
        <ele>520.2</ele>
        <time>2022-02-24T07:59:24Z</time>
      </trkpt>
      <trkpt lat="46.45958" lon="5.60689">
        <ele>520.2</ele>
        <time>2022-02-24T07:59:25Z</time>
      </trkpt>
      <trkpt lat="46.45952" lon="5.60685">
        <ele>520.2</ele>
        <time>2022-02-24T07:59:26Z</time>
      </trkpt>
      <trkpt lat="46.45945" lon="5.6068">
        <ele>520.2</ele>
        <time>2022-02-24T07:59:27Z</time>
      </trkpt>
      <trkpt lat="46.45939" lon="5.60676">
        <ele>520.2</ele>
        <time>2022-02-24T07:59:28Z</time>
      </trkpt>
      <trkpt lat="46.45933" lon="5.60671">
        <ele>520.2</ele>
        <time>2022-02-24T07:59:29Z</time>
      </trkpt>
      <trkpt lat="46.45926" lon="5.60667">
        <ele>520.2</ele>
        <time>2022-02-24T07:59:30Z</time>
      </trkpt>
      <trkpt lat="46.4592" lon="5.60663">
        <ele>520.2</ele>
        <time>2022-02-24T07:59:31Z</time>
      </trkpt>
      <trkpt lat="46.45915" lon="5.60659">
        <ele>520.2</ele>
        <time>2022-02-24T07:59:32Z</time>
      </trkpt>
      <trkpt lat="46.45909" lon="5.60655">
        <ele>520.4</ele>
        <time>2022-02-24T07:59:33Z</time>
      </trkpt>
      <trkpt lat="46.45903" lon="5.60651">
        <ele>520.4</ele>
        <time>2022-02-24T07:59:34Z</time>
      </trkpt>
      <trkpt lat="46.45897" lon="5.60648">
        <ele>520.4</ele>
        <time>2022-02-24T07:59:35Z</time>
      </trkpt>
      <trkpt lat="46.45892" lon="5.60645">
        <ele>520.8</ele>
        <time>2022-02-24T07:59:36Z</time>
      </trkpt>
      <trkpt lat="46.45886" lon="5.60641">
        <ele>520.8</ele>
        <time>2022-02-24T07:59:37Z</time>
      </trkpt>
      <trkpt lat="46.45881" lon="5.60639">
        <ele>520.8</ele>
        <time>2022-02-24T07:59:38Z</time>
      </trkpt>
      <trkpt lat="46.45875" lon="5.60636">
        <ele>520.8</ele>
        <time>2022-02-24T07:59:39Z</time>
      </trkpt>
      <trkpt lat="46.4587" lon="5.60634">
        <ele>521</ele>
        <time>2022-02-24T07:59:40Z</time>
      </trkpt>
      <trkpt lat="46.45865" lon="5.60632">
        <ele>521</ele>
        <time>2022-02-24T07:59:41Z</time>
      </trkpt>
      <trkpt lat="46.45859" lon="5.6063">
        <ele>521</ele>
        <time>2022-02-24T07:59:42Z</time>
      </trkpt>
      <trkpt lat="46.45854" lon="5.60628">
        <ele>521.4</ele>
        <time>2022-02-24T07:59:43Z</time>
      </trkpt>
      <trkpt lat="46.45842" lon="5.60624">
        <ele>521.4</ele>
        <time>2022-02-24T07:59:44Z</time>
      </trkpt>
      <trkpt lat="46.45836" lon="5.60622">
        <ele>521.4</ele>
        <time>2022-02-24T07:59:45Z</time>
      </trkpt>
      <trkpt lat="46.45829" lon="5.6062">
        <ele>521.4</ele>
        <time>2022-02-24T07:59:46Z</time>
      </trkpt>
      <trkpt lat="46.45823" lon="5.60618">
        <ele>521</ele>
        <time>2022-02-24T07:59:47Z</time>
      </trkpt>
      <trkpt lat="46.45815" lon="5.60616">
        <ele>520.8</ele>
        <time>2022-02-24T07:59:48Z</time>
      </trkpt>
      <trkpt lat="46.45808" lon="5.60614">
        <ele>520.2</ele>
        <time>2022-02-24T07:59:49Z</time>
      </trkpt>
      <trkpt lat="46.458" lon="5.60612">
        <ele>519.8</ele>
        <time>2022-02-24T07:59:50Z</time>
      </trkpt>
      <trkpt lat="46.45792" lon="5.60609">
        <ele>519.4</ele>
        <time>2022-02-24T07:59:51Z</time>
      </trkpt>
      <trkpt lat="46.45784" lon="5.60607">
        <ele>519</ele>
        <time>2022-02-24T07:59:52Z</time>
      </trkpt>
      <trkpt lat="46.45776" lon="5.60604">
        <ele>518.4</ele>
        <time>2022-02-24T07:59:53Z</time>
      </trkpt>
      <trkpt lat="46.45767" lon="5.60602">
        <ele>517.8</ele>
        <time>2022-02-24T07:59:54Z</time>
      </trkpt>
      <trkpt lat="46.45758" lon="5.606">
        <ele>517.4</ele>
        <time>2022-02-24T07:59:55Z</time>
      </trkpt>
      <trkpt lat="46.45749" lon="5.60598">
        <ele>517</ele>
        <time>2022-02-24T07:59:56Z</time>
      </trkpt>
      <trkpt lat="46.45741" lon="5.60597">
        <ele>516.6</ele>
        <time>2022-02-24T07:59:57Z</time>
      </trkpt>
      <trkpt lat="46.45732" lon="5.60596">
        <ele>516.4</ele>
        <time>2022-02-24T07:59:58Z</time>
      </trkpt>
      <trkpt lat="46.45723" lon="5.60595">
        <ele>516.2</ele>
        <time>2022-02-24T07:59:59Z</time>
      </trkpt>
      <trkpt lat="46.45714" lon="5.60594">
        <ele>516</ele>
        <time>2022-02-24T08:00:00Z</time>
      </trkpt>
      <trkpt lat="46.45705" lon="5.60592">
        <ele>515.8</ele>
        <time>2022-02-24T08:00:01Z</time>
      </trkpt>
      <trkpt lat="46.45697" lon="5.60591">
        <ele>515.4</ele>
        <time>2022-02-24T08:00:02Z</time>
      </trkpt>
      <trkpt lat="46.45688" lon="5.60589">
        <ele>515.2</ele>
        <time>2022-02-24T08:00:03Z</time>
      </trkpt>
      <trkpt lat="46.4568" lon="5.60586">
        <ele>515.2</ele>
        <time>2022-02-24T08:00:04Z</time>
      </trkpt>
      <trkpt lat="46.45673" lon="5.60582">
        <ele>515</ele>
        <time>2022-02-24T08:00:05Z</time>
      </trkpt>
      <trkpt lat="46.45665" lon="5.60577">
        <ele>515</ele>
        <time>2022-02-24T08:00:06Z</time>
      </trkpt>
      <trkpt lat="46.45658" lon="5.60572">
        <ele>514.8</ele>
        <time>2022-02-24T08:00:07Z</time>
      </trkpt>
      <trkpt lat="46.45651" lon="5.60566">
        <ele>514.8</ele>
        <time>2022-02-24T08:00:08Z</time>
      </trkpt>
      <trkpt lat="46.45644" lon="5.6056">
        <ele>514.4</ele>
        <time>2022-02-24T08:00:09Z</time>
      </trkpt>
      <trkpt lat="46.45637" lon="5.60553">
        <ele>514.2</ele>
        <time>2022-02-24T08:00:10Z</time>
      </trkpt>
      <trkpt lat="46.4563" lon="5.60548">
        <ele>514</ele>
        <time>2022-02-24T08:00:11Z</time>
      </trkpt>
      <trkpt lat="46.45623" lon="5.60543">
        <ele>513.6</ele>
        <time>2022-02-24T08:00:12Z</time>
      </trkpt>
      <trkpt lat="46.45616" lon="5.6054">
        <ele>513.4</ele>
        <time>2022-02-24T08:00:13Z</time>
      </trkpt>
      <trkpt lat="46.45609" lon="5.6054">
        <ele>513.4</ele>
        <time>2022-02-24T08:00:14Z</time>
      </trkpt>
      <trkpt lat="46.45603" lon="5.60543">
        <ele>513</ele>
        <time>2022-02-24T08:00:15Z</time>
      </trkpt>
      <trkpt lat="46.45598" lon="5.60548">
        <ele>513</ele>
        <time>2022-02-24T08:00:16Z</time>
      </trkpt>
      <trkpt lat="46.45594" lon="5.60555">
        <ele>513.2</ele>
        <time>2022-02-24T08:00:17Z</time>
      </trkpt>
      <trkpt lat="46.45591" lon="5.60561">
        <ele>513.2</ele>
        <time>2022-02-24T08:00:18Z</time>
      </trkpt>
      <trkpt lat="46.45586" lon="5.60566">
        <ele>513.6</ele>
        <time>2022-02-24T08:00:19Z</time>
      </trkpt>
      <trkpt lat="46.45581" lon="5.6057">
        <ele>513.6</ele>
        <time>2022-02-24T08:00:20Z</time>
      </trkpt>
      <trkpt lat="46.45574" lon="5.60574">
        <ele>513.6</ele>
        <time>2022-02-24T08:00:21Z</time>
      </trkpt>
      <trkpt lat="46.45567" lon="5.60576">
        <ele>513.2</ele>
        <time>2022-02-24T08:00:22Z</time>
      </trkpt>
      <trkpt lat="46.45558" lon="5.60576">
        <ele>512.8</ele>
        <time>2022-02-24T08:00:23Z</time>
      </trkpt>
      <trkpt lat="46.45549" lon="5.60575">
        <ele>512.2</ele>
        <time>2022-02-24T08:00:24Z</time>
      </trkpt>
      <trkpt lat="46.4554" lon="5.60574">
        <ele>511.2</ele>
        <time>2022-02-24T08:00:25Z</time>
      </trkpt>
      <trkpt lat="46.45529" lon="5.60573">
        <ele>510.2</ele>
        <time>2022-02-24T08:00:26Z</time>
      </trkpt>
      <trkpt lat="46.45519" lon="5.6057">
        <ele>509.2</ele>
        <time>2022-02-24T08:00:27Z</time>
      </trkpt>
      <trkpt lat="46.45508" lon="5.60568">
        <ele>508.2</ele>
        <time>2022-02-24T08:00:28Z</time>
      </trkpt>
      <trkpt lat="46.45496" lon="5.60565">
        <ele>507</ele>
        <time>2022-02-24T08:00:29Z</time>
      </trkpt>
      <trkpt lat="46.45485" lon="5.60561">
        <ele>506</ele>
        <time>2022-02-24T08:00:30Z</time>
      </trkpt>
      <trkpt lat="46.45473" lon="5.60556">
        <ele>504.8</ele>
        <time>2022-02-24T08:00:31Z</time>
      </trkpt>
      <trkpt lat="46.45462" lon="5.60551">
        <ele>503.8</ele>
        <time>2022-02-24T08:00:32Z</time>
      </trkpt>
      <trkpt lat="46.45451" lon="5.60544">
        <ele>503</ele>
        <time>2022-02-24T08:00:33Z</time>
      </trkpt>
      <trkpt lat="46.4544" lon="5.60538">
        <ele>502.2</ele>
        <time>2022-02-24T08:00:34Z</time>
      </trkpt>
      <trkpt lat="46.45429" lon="5.60531">
        <ele>501.4</ele>
        <time>2022-02-24T08:00:35Z</time>
      </trkpt>
      <trkpt lat="46.45418" lon="5.60523">
        <ele>500.8</ele>
        <time>2022-02-24T08:00:36Z</time>
      </trkpt>
      <trkpt lat="46.45407" lon="5.60517">
        <ele>500.2</ele>
        <time>2022-02-24T08:00:37Z</time>
      </trkpt>
      <trkpt lat="46.45397" lon="5.60509">
        <ele>499.6</ele>
        <time>2022-02-24T08:00:38Z</time>
      </trkpt>
      <trkpt lat="46.45387" lon="5.605">
        <ele>499.2</ele>
        <time>2022-02-24T08:00:39Z</time>
      </trkpt>
      <trkpt lat="46.45377" lon="5.60495">
        <ele>498.6</ele>
        <time>2022-02-24T08:00:40Z</time>
      </trkpt>
      <trkpt lat="46.45367" lon="5.6049">
        <ele>498.2</ele>
        <time>2022-02-24T08:00:41Z</time>
      </trkpt>
      <trkpt lat="46.45359" lon="5.60489">
        <ele>497.8</ele>
        <time>2022-02-24T08:00:42Z</time>
      </trkpt>
      <trkpt lat="46.45351" lon="5.60489">
        <ele>497.4</ele>
        <time>2022-02-24T08:00:43Z</time>
      </trkpt>
      <trkpt lat="46.45345" lon="5.60494">
        <ele>497</ele>
        <time>2022-02-24T08:00:44Z</time>
      </trkpt>
      <trkpt lat="46.45338" lon="5.60501">
        <ele>496.4</ele>
        <time>2022-02-24T08:00:45Z</time>
      </trkpt>
      <trkpt lat="46.45335" lon="5.6051">
        <ele>496</ele>
        <time>2022-02-24T08:00:46Z</time>
      </trkpt>
      <trkpt lat="46.45332" lon="5.60522">
        <ele>495.4</ele>
        <time>2022-02-24T08:00:47Z</time>
      </trkpt>
      <trkpt lat="46.4533" lon="5.60535">
        <ele>495</ele>
        <time>2022-02-24T08:00:48Z</time>
      </trkpt>
      <trkpt lat="46.45328" lon="5.60548">
        <ele>494.4</ele>
        <time>2022-02-24T08:00:49Z</time>
      </trkpt>
      <trkpt lat="46.45327" lon="5.60562">
        <ele>493.8</ele>
        <time>2022-02-24T08:00:50Z</time>
      </trkpt>
      <trkpt lat="46.45325" lon="5.60576">
        <ele>493.2</ele>
        <time>2022-02-24T08:00:51Z</time>
      </trkpt>
      <trkpt lat="46.45322" lon="5.60589">
        <ele>492.6</ele>
        <time>2022-02-24T08:00:52Z</time>
      </trkpt>
      <trkpt lat="46.45318" lon="5.60603">
        <ele>492</ele>
        <time>2022-02-24T08:00:53Z</time>
      </trkpt>
      <trkpt lat="46.45315" lon="5.60617">
        <ele>491.4</ele>
        <time>2022-02-24T08:00:54Z</time>
      </trkpt>
      <trkpt lat="46.45311" lon="5.60627">
        <ele>490.8</ele>
        <time>2022-02-24T08:00:55Z</time>
      </trkpt>
      <trkpt lat="46.45306" lon="5.60634">
        <ele>490.2</ele>
        <time>2022-02-24T08:00:56Z</time>
      </trkpt>
      <trkpt lat="46.45301" lon="5.60639">
        <ele>489.6</ele>
        <time>2022-02-24T08:00:57Z</time>
      </trkpt>
      <trkpt lat="46.45295" lon="5.60639">
        <ele>489</ele>
        <time>2022-02-24T08:00:58Z</time>
      </trkpt>
      <trkpt lat="46.4529" lon="5.60635">
        <ele>488.4</ele>
        <time>2022-02-24T08:00:59Z</time>
      </trkpt>
      <trkpt lat="46.45284" lon="5.60628">
        <ele>488</ele>
        <time>2022-02-24T08:01:00Z</time>
      </trkpt>
      <trkpt lat="46.45281" lon="5.60618">
        <ele>487.4</ele>
        <time>2022-02-24T08:01:01Z</time>
      </trkpt>
      <trkpt lat="46.45279" lon="5.60607">
        <ele>487</ele>
        <time>2022-02-24T08:01:02Z</time>
      </trkpt>
      <trkpt lat="46.45277" lon="5.60595">
        <ele>486.4</ele>
        <time>2022-02-24T08:01:03Z</time>
      </trkpt>
      <trkpt lat="46.45273" lon="5.60584">
        <ele>485.8</ele>
        <time>2022-02-24T08:01:04Z</time>
      </trkpt>
      <trkpt lat="46.45268" lon="5.60574">
        <ele>485.4</ele>
        <time>2022-02-24T08:01:05Z</time>
      </trkpt>
      <trkpt lat="46.45261" lon="5.60565">
        <ele>484.8</ele>
        <time>2022-02-24T08:01:06Z</time>
      </trkpt>
      <trkpt lat="46.45254" lon="5.60556">
        <ele>484</ele>
        <time>2022-02-24T08:01:07Z</time>
      </trkpt>
      <trkpt lat="46.45245" lon="5.60549">
        <ele>483.2</ele>
        <time>2022-02-24T08:01:08Z</time>
      </trkpt>
      <trkpt lat="46.45235" lon="5.60544">
        <ele>482.6</ele>
        <time>2022-02-24T08:01:09Z</time>
      </trkpt>
      <trkpt lat="46.45225" lon="5.60542">
        <ele>481.8</ele>
        <time>2022-02-24T08:01:10Z</time>
      </trkpt>
      <trkpt lat="46.45215" lon="5.60539">
        <ele>481</ele>
        <time>2022-02-24T08:01:11Z</time>
      </trkpt>
      <trkpt lat="46.45204" lon="5.60536">
        <ele>480.2</ele>
        <time>2022-02-24T08:01:12Z</time>
      </trkpt>
      <trkpt lat="46.45192" lon="5.60531">
        <ele>479.2</ele>
        <time>2022-02-24T08:01:13Z</time>
      </trkpt>
      <trkpt lat="46.45182" lon="5.60525">
        <ele>478.4</ele>
        <time>2022-02-24T08:01:14Z</time>
      </trkpt>
      <trkpt lat="46.45171" lon="5.60517">
        <ele>477.6</ele>
        <time>2022-02-24T08:01:15Z</time>
      </trkpt>
      <trkpt lat="46.45161" lon="5.6051">
        <ele>476.6</ele>
        <time>2022-02-24T08:01:16Z</time>
      </trkpt>
      <trkpt lat="46.45151" lon="5.60505">
        <ele>475.6</ele>
        <time>2022-02-24T08:01:17Z</time>
      </trkpt>
      <trkpt lat="46.45141" lon="5.60499">
        <ele>474.6</ele>
        <time>2022-02-24T08:01:18Z</time>
      </trkpt>
      <trkpt lat="46.45131" lon="5.60491">
        <ele>473.8</ele>
        <time>2022-02-24T08:01:19Z</time>
      </trkpt>
      <trkpt lat="46.45122" lon="5.60481">
        <ele>473</ele>
        <time>2022-02-24T08:01:20Z</time>
      </trkpt>
      <trkpt lat="46.45115" lon="5.60469">
        <ele>471.8</ele>
        <time>2022-02-24T08:01:21Z</time>
      </trkpt>
      <trkpt lat="46.45112" lon="5.60453">
        <ele>470.8</ele>
        <time>2022-02-24T08:01:22Z</time>
      </trkpt>
      <trkpt lat="46.4511" lon="5.60437">
        <ele>469.8</ele>
        <time>2022-02-24T08:01:23Z</time>
      </trkpt>
      <trkpt lat="46.45111" lon="5.6042">
        <ele>468.8</ele>
        <time>2022-02-24T08:01:24Z</time>
      </trkpt>
      <trkpt lat="46.45114" lon="5.60405">
        <ele>467.8</ele>
        <time>2022-02-24T08:01:25Z</time>
      </trkpt>
      <trkpt lat="46.45114" lon="5.60405">
        <ele>467.2</ele>
        <time>2022-02-24T08:01:26Z</time>
      </trkpt>
      <trkpt lat="46.45116" lon="5.60391">
        <ele>466.6</ele>
        <time>2022-02-24T08:01:27Z</time>
      </trkpt>
      <trkpt lat="46.45117" lon="5.60378">
        <ele>466.2</ele>
        <time>2022-02-24T08:01:28Z</time>
      </trkpt>
      <trkpt lat="46.45115" lon="5.60366">
        <ele>465.6</ele>
        <time>2022-02-24T08:01:29Z</time>
      </trkpt>
      <trkpt lat="46.45109" lon="5.60356">
        <ele>464.8</ele>
        <time>2022-02-24T08:01:30Z</time>
      </trkpt>
      <trkpt lat="46.45102" lon="5.60347">
        <ele>464</ele>
        <time>2022-02-24T08:01:31Z</time>
      </trkpt>
      <trkpt lat="46.45093" lon="5.60338">
        <ele>463</ele>
        <time>2022-02-24T08:01:32Z</time>
      </trkpt>
      <trkpt lat="46.45084" lon="5.6033">
        <ele>462</ele>
        <time>2022-02-24T08:01:33Z</time>
      </trkpt>
      <trkpt lat="46.45073" lon="5.60324">
        <ele>460.8</ele>
        <time>2022-02-24T08:01:34Z</time>
      </trkpt>
      <trkpt lat="46.45062" lon="5.60317">
        <ele>459.8</ele>
        <time>2022-02-24T08:01:35Z</time>
      </trkpt>
      <trkpt lat="46.4505" lon="5.6031">
        <ele>458.8</ele>
        <time>2022-02-24T08:01:36Z</time>
      </trkpt>
      <trkpt lat="46.45041" lon="5.603">
        <ele>457.8</ele>
        <time>2022-02-24T08:01:37Z</time>
      </trkpt>
      <trkpt lat="46.45031" lon="5.6029">
        <ele>457</ele>
        <time>2022-02-24T08:01:38Z</time>
      </trkpt>
      <trkpt lat="46.45021" lon="5.60279">
        <ele>456.2</ele>
        <time>2022-02-24T08:01:39Z</time>
      </trkpt>
      <trkpt lat="46.45011" lon="5.60267">
        <ele>455.2</ele>
        <time>2022-02-24T08:01:40Z</time>
      </trkpt>
      <trkpt lat="46.45001" lon="5.60256">
        <ele>454.4</ele>
        <time>2022-02-24T08:01:41Z</time>
      </trkpt>
      <trkpt lat="46.4499" lon="5.60246">
        <ele>453</ele>
        <time>2022-02-24T08:01:42Z</time>
      </trkpt>
      <trkpt lat="46.44978" lon="5.60238">
        <ele>452.4</ele>
        <time>2022-02-24T08:01:43Z</time>
      </trkpt>
      <trkpt lat="46.44966" lon="5.6023">
        <ele>451.6</ele>
        <time>2022-02-24T08:01:44Z</time>
      </trkpt>
      <trkpt lat="46.44955" lon="5.60225">
        <ele>451</ele>
        <time>2022-02-24T08:01:45Z</time>
      </trkpt>
      <trkpt lat="46.44944" lon="5.60219">
        <ele>451</ele>
        <time>2022-02-24T08:01:46Z</time>
      </trkpt>
      <trkpt lat="46.44934" lon="5.60213">
        <ele>450.8</ele>
        <time>2022-02-24T08:01:47Z</time>
      </trkpt>
      <trkpt lat="46.44925" lon="5.60207">
        <ele>450.6</ele>
        <time>2022-02-24T08:01:48Z</time>
      </trkpt>
      <trkpt lat="46.44915" lon="5.60202">
        <ele>450.2</ele>
        <time>2022-02-24T08:01:49Z</time>
      </trkpt>
      <trkpt lat="46.44905" lon="5.60198">
        <ele>450.2</ele>
        <time>2022-02-24T08:01:50Z</time>
      </trkpt>
      <trkpt lat="46.44895" lon="5.60195">
        <ele>450.2</ele>
        <time>2022-02-24T08:01:51Z</time>
      </trkpt>
      <trkpt lat="46.44886" lon="5.60192">
        <ele>450.2</ele>
        <time>2022-02-24T08:01:52Z</time>
      </trkpt>
      <trkpt lat="46.44877" lon="5.6019">
        <ele>450.2</ele>
        <time>2022-02-24T08:01:53Z</time>
      </trkpt>
      <trkpt lat="46.44869" lon="5.60187">
        <ele>450.2</ele>
        <time>2022-02-24T08:01:54Z</time>
      </trkpt>
      <trkpt lat="46.4486" lon="5.60184">
        <ele>450.4</ele>
        <time>2022-02-24T08:01:55Z</time>
      </trkpt>
      <trkpt lat="46.44852" lon="5.60183">
        <ele>450.4</ele>
        <time>2022-02-24T08:01:56Z</time>
      </trkpt>
      <trkpt lat="46.44844" lon="5.60182">
        <ele>450.4</ele>
        <time>2022-02-24T08:01:57Z</time>
      </trkpt>
      <trkpt lat="46.44836" lon="5.60183">
        <ele>450.4</ele>
        <time>2022-02-24T08:01:58Z</time>
      </trkpt>
      <trkpt lat="46.44828" lon="5.60185">
        <ele>450.2</ele>
        <time>2022-02-24T08:01:59Z</time>
      </trkpt>
      <trkpt lat="46.4482" lon="5.60186">
        <ele>450</ele>
        <time>2022-02-24T08:02:00Z</time>
      </trkpt>
      <trkpt lat="46.44811" lon="5.60186">
        <ele>449.8</ele>
        <time>2022-02-24T08:02:01Z</time>
      </trkpt>
      <trkpt lat="46.44803" lon="5.60183">
        <ele>449.4</ele>
        <time>2022-02-24T08:02:02Z</time>
      </trkpt>
      <trkpt lat="46.44794" lon="5.60178">
        <ele>449.4</ele>
        <time>2022-02-24T08:02:03Z</time>
      </trkpt>
      <trkpt lat="46.44787" lon="5.6017">
        <ele>449</ele>
        <time>2022-02-24T08:02:04Z</time>
      </trkpt>
      <trkpt lat="46.44781" lon="5.60161">
        <ele>449</ele>
        <time>2022-02-24T08:02:05Z</time>
      </trkpt>
      <trkpt lat="46.44775" lon="5.60152">
        <ele>449</ele>
        <time>2022-02-24T08:02:06Z</time>
      </trkpt>
      <trkpt lat="46.4477" lon="5.60143">
        <ele>449.4</ele>
        <time>2022-02-24T08:02:07Z</time>
      </trkpt>
      <trkpt lat="46.44765" lon="5.60134">
        <ele>449.6</ele>
        <time>2022-02-24T08:02:08Z</time>
      </trkpt>
      <trkpt lat="46.44761" lon="5.60125">
        <ele>450</ele>
        <time>2022-02-24T08:02:09Z</time>
      </trkpt>
      <trkpt lat="46.44756" lon="5.60117">
        <ele>450.2</ele>
        <time>2022-02-24T08:02:10Z</time>
      </trkpt>
      <trkpt lat="46.44752" lon="5.6011">
        <ele>450.6</ele>
        <time>2022-02-24T08:02:11Z</time>
      </trkpt>
      <trkpt lat="46.44748" lon="5.60103">
        <ele>451</ele>
        <time>2022-02-24T08:02:12Z</time>
      </trkpt>
      <trkpt lat="46.44743" lon="5.60097">
        <ele>451.4</ele>
        <time>2022-02-24T08:02:13Z</time>
      </trkpt>
      <trkpt lat="46.4474" lon="5.60091">
        <ele>452</ele>
        <time>2022-02-24T08:02:14Z</time>
      </trkpt>
      <trkpt lat="46.44736" lon="5.60086">
        <ele>452.4</ele>
        <time>2022-02-24T08:02:15Z</time>
      </trkpt>
      <trkpt lat="46.44733" lon="5.60082">
        <ele>452.8</ele>
        <time>2022-02-24T08:02:16Z</time>
      </trkpt>
      <trkpt lat="46.44729" lon="5.60077">
        <ele>453.2</ele>
        <time>2022-02-24T08:02:17Z</time>
      </trkpt>
      <trkpt lat="46.44726" lon="5.60072">
        <ele>453.6</ele>
        <time>2022-02-24T08:02:18Z</time>
      </trkpt>
      <trkpt lat="46.44722" lon="5.60068">
        <ele>454</ele>
        <time>2022-02-24T08:02:19Z</time>
      </trkpt>
      <trkpt lat="46.44719" lon="5.60064">
        <ele>454.6</ele>
        <time>2022-02-24T08:02:20Z</time>
      </trkpt>
      <trkpt lat="46.44715" lon="5.60061">
        <ele>454.6</ele>
        <time>2022-02-24T08:02:21Z</time>
      </trkpt>
      <trkpt lat="46.44711" lon="5.60057">
        <ele>454.8</ele>
        <time>2022-02-24T08:02:22Z</time>
      </trkpt>
      <trkpt lat="46.44708" lon="5.60054">
        <ele>455</ele>
        <time>2022-02-24T08:02:23Z</time>
      </trkpt>
      <trkpt lat="46.44704" lon="5.60051">
        <ele>455</ele>
        <time>2022-02-24T08:02:24Z</time>
      </trkpt>
      <trkpt lat="46.447" lon="5.60048">
        <ele>455.4</ele>
        <time>2022-02-24T08:02:25Z</time>
      </trkpt>
      <trkpt lat="46.44697" lon="5.60045">
        <ele>455.6</ele>
        <time>2022-02-24T08:02:26Z</time>
      </trkpt>
      <trkpt lat="46.44693" lon="5.60042">
        <ele>455.6</ele>
        <time>2022-02-24T08:02:27Z</time>
      </trkpt>
      <trkpt lat="46.44689" lon="5.6004">
        <ele>456</ele>
        <time>2022-02-24T08:02:28Z</time>
      </trkpt>
      <trkpt lat="46.44685" lon="5.60038">
        <ele>456</ele>
        <time>2022-02-24T08:02:29Z</time>
      </trkpt>
      <trkpt lat="46.44682" lon="5.60036">
        <ele>456.4</ele>
        <time>2022-02-24T08:02:30Z</time>
      </trkpt>
      <trkpt lat="46.44678" lon="5.60034">
        <ele>456.8</ele>
        <time>2022-02-24T08:02:31Z</time>
      </trkpt>
      <trkpt lat="46.44674" lon="5.60032">
        <ele>457</ele>
        <time>2022-02-24T08:02:32Z</time>
      </trkpt>
      <trkpt lat="46.44671" lon="5.60031">
        <ele>457</ele>
        <time>2022-02-24T08:02:33Z</time>
      </trkpt>
      <trkpt lat="46.44667" lon="5.6003">
        <ele>457.6</ele>
        <time>2022-02-24T08:02:34Z</time>
      </trkpt>
      <trkpt lat="46.44663" lon="5.60029">
        <ele>457.8</ele>
        <time>2022-02-24T08:02:35Z</time>
      </trkpt>
      <trkpt lat="46.44659" lon="5.60029">
        <ele>458.2</ele>
        <time>2022-02-24T08:02:36Z</time>
      </trkpt>
      <trkpt lat="46.44656" lon="5.60028">
        <ele>458.4</ele>
        <time>2022-02-24T08:02:37Z</time>
      </trkpt>
      <trkpt lat="46.44652" lon="5.60027">
        <ele>458.8</ele>
        <time>2022-02-24T08:02:38Z</time>
      </trkpt>
      <trkpt lat="46.44649" lon="5.60027">
        <ele>459</ele>
        <time>2022-02-24T08:02:39Z</time>
      </trkpt>
      <trkpt lat="46.44646" lon="5.60026">
        <ele>459.2</ele>
        <time>2022-02-24T08:02:40Z</time>
      </trkpt>
      <trkpt lat="46.44643" lon="5.60026">
        <ele>459.4</ele>
        <time>2022-02-24T08:02:41Z</time>
      </trkpt>
      <trkpt lat="46.4464" lon="5.60025">
        <ele>459.4</ele>
        <time>2022-02-24T08:02:42Z</time>
      </trkpt>
      <trkpt lat="46.44637" lon="5.60024">
        <ele>459.8</ele>
        <time>2022-02-24T08:02:43Z</time>
      </trkpt>
      <trkpt lat="46.44634" lon="5.60024">
        <ele>459.8</ele>
        <time>2022-02-24T08:02:44Z</time>
      </trkpt>
      <trkpt lat="46.44631" lon="5.60023">
        <ele>459.8</ele>
        <time>2022-02-24T08:02:45Z</time>
      </trkpt>
      <trkpt lat="46.44627" lon="5.60023">
        <ele>459.8</ele>
        <time>2022-02-24T08:02:46Z</time>
      </trkpt>
      <trkpt lat="46.44624" lon="5.60022">
        <ele>459.8</ele>
        <time>2022-02-24T08:02:47Z</time>
      </trkpt>
      <trkpt lat="46.4462" lon="5.60022">
        <ele>460</ele>
        <time>2022-02-24T08:02:48Z</time>
      </trkpt>
      <trkpt lat="46.44617" lon="5.60021">
        <ele>460</ele>
        <time>2022-02-24T08:02:49Z</time>
      </trkpt>
      <trkpt lat="46.44612" lon="5.60021">
        <ele>460</ele>
        <time>2022-02-24T08:02:50Z</time>
      </trkpt>
      <trkpt lat="46.44608" lon="5.6002">
        <ele>460</ele>
        <time>2022-02-24T08:02:51Z</time>
      </trkpt>
      <trkpt lat="46.44603" lon="5.6002">
        <ele>459.8</ele>
        <time>2022-02-24T08:02:52Z</time>
      </trkpt>
      <trkpt lat="46.44599" lon="5.60019">
        <ele>459.8</ele>
        <time>2022-02-24T08:02:53Z</time>
      </trkpt>
      <trkpt lat="46.44593" lon="5.60018">
        <ele>459.4</ele>
        <time>2022-02-24T08:02:54Z</time>
      </trkpt>
      <trkpt lat="46.44587" lon="5.60016">
        <ele>459.2</ele>
        <time>2022-02-24T08:02:55Z</time>
      </trkpt>
      <trkpt lat="46.44581" lon="5.60015">
        <ele>458.8</ele>
        <time>2022-02-24T08:02:56Z</time>
      </trkpt>
      <trkpt lat="46.44575" lon="5.60014">
        <ele>458.6</ele>
        <time>2022-02-24T08:02:57Z</time>
      </trkpt>
      <trkpt lat="46.44568" lon="5.60013">
        <ele>458.2</ele>
        <time>2022-02-24T08:02:58Z</time>
      </trkpt>
      <trkpt lat="46.44561" lon="5.60012">
        <ele>458</ele>
        <time>2022-02-24T08:02:59Z</time>
      </trkpt>
      <trkpt lat="46.44554" lon="5.60012">
        <ele>457.6</ele>
        <time>2022-02-24T08:03:00Z</time>
      </trkpt>
      <trkpt lat="46.44547" lon="5.60012">
        <ele>457.2</ele>
        <time>2022-02-24T08:03:01Z</time>
      </trkpt>
      <trkpt lat="46.4454" lon="5.60013">
        <ele>456.8</ele>
        <time>2022-02-24T08:03:02Z</time>
      </trkpt>
      <trkpt lat="46.44532" lon="5.60013">
        <ele>456.2</ele>
        <time>2022-02-24T08:03:03Z</time>
      </trkpt>
      <trkpt lat="46.44524" lon="5.60013">
        <ele>455.8</ele>
        <time>2022-02-24T08:03:04Z</time>
      </trkpt>
      <trkpt lat="46.44516" lon="5.60013">
        <ele>455</ele>
        <time>2022-02-24T08:03:05Z</time>
      </trkpt>
      <trkpt lat="46.44507" lon="5.60012">
        <ele>454.6</ele>
        <time>2022-02-24T08:03:06Z</time>
      </trkpt>
      <trkpt lat="46.44499" lon="5.6001">
        <ele>454</ele>
        <time>2022-02-24T08:03:07Z</time>
      </trkpt>
      <trkpt lat="46.4449" lon="5.60008">
        <ele>453.6</ele>
        <time>2022-02-24T08:03:08Z</time>
      </trkpt>
      <trkpt lat="46.44482" lon="5.60006">
        <ele>453</ele>
        <time>2022-02-24T08:03:09Z</time>
      </trkpt>
      <trkpt lat="46.44473" lon="5.60003">
        <ele>452.6</ele>
        <time>2022-02-24T08:03:10Z</time>
      </trkpt>
      <trkpt lat="46.44465" lon="5.59999">
        <ele>452.2</ele>
        <time>2022-02-24T08:03:11Z</time>
      </trkpt>
      <trkpt lat="46.44456" lon="5.59997">
        <ele>451.8</ele>
        <time>2022-02-24T08:03:12Z</time>
      </trkpt>
      <trkpt lat="46.44448" lon="5.59994">
        <ele>451.2</ele>
        <time>2022-02-24T08:03:13Z</time>
      </trkpt>
      <trkpt lat="46.44439" lon="5.59991">
        <ele>451</ele>
        <time>2022-02-24T08:03:14Z</time>
      </trkpt>
      <trkpt lat="46.44431" lon="5.59988">
        <ele>450.6</ele>
        <time>2022-02-24T08:03:15Z</time>
      </trkpt>
      <trkpt lat="46.44422" lon="5.59985">
        <ele>450.2</ele>
        <time>2022-02-24T08:03:16Z</time>
      </trkpt>
      <trkpt lat="46.44414" lon="5.59982">
        <ele>449.8</ele>
        <time>2022-02-24T08:03:17Z</time>
      </trkpt>
      <trkpt lat="46.44406" lon="5.59979">
        <ele>449.2</ele>
        <time>2022-02-24T08:03:18Z</time>
      </trkpt>
      <trkpt lat="46.44398" lon="5.59976">
        <ele>448.8</ele>
        <time>2022-02-24T08:03:19Z</time>
      </trkpt>
      <trkpt lat="46.4439" lon="5.59974">
        <ele>448.6</ele>
        <time>2022-02-24T08:03:20Z</time>
      </trkpt>
      <trkpt lat="46.44382" lon="5.59972">
        <ele>448.2</ele>
        <time>2022-02-24T08:03:21Z</time>
      </trkpt>
      <trkpt lat="46.44375" lon="5.5997">
        <ele>448</ele>
        <time>2022-02-24T08:03:22Z</time>
      </trkpt>
      <trkpt lat="46.44367" lon="5.59969">
        <ele>447.4</ele>
        <time>2022-02-24T08:03:23Z</time>
      </trkpt>
      <trkpt lat="46.44359" lon="5.59967">
        <ele>447</ele>
        <time>2022-02-24T08:03:24Z</time>
      </trkpt>
      <trkpt lat="46.44351" lon="5.59966">
        <ele>446.6</ele>
        <time>2022-02-24T08:03:25Z</time>
      </trkpt>
      <trkpt lat="46.44343" lon="5.59964">
        <ele>446</ele>
        <time>2022-02-24T08:03:26Z</time>
      </trkpt>
      <trkpt lat="46.44335" lon="5.59964">
        <ele>445.6</ele>
        <time>2022-02-24T08:03:27Z</time>
      </trkpt>
      <trkpt lat="46.44327" lon="5.59967">
        <ele>444.8</ele>
        <time>2022-02-24T08:03:28Z</time>
      </trkpt>
      <trkpt lat="46.44319" lon="5.59971">
        <ele>444.2</ele>
        <time>2022-02-24T08:03:29Z</time>
      </trkpt>
      <trkpt lat="46.44311" lon="5.59978">
        <ele>443.8</ele>
        <time>2022-02-24T08:03:30Z</time>
      </trkpt>
      <trkpt lat="46.44304" lon="5.59986">
        <ele>443.6</ele>
        <time>2022-02-24T08:03:31Z</time>
      </trkpt>
      <trkpt lat="46.44296" lon="5.59995">
        <ele>443.2</ele>
        <time>2022-02-24T08:03:32Z</time>
      </trkpt>
      <trkpt lat="46.44288" lon="5.6">
        <ele>443</ele>
        <time>2022-02-24T08:03:33Z</time>
      </trkpt>
      <trkpt lat="46.44281" lon="5.60004">
        <ele>443</ele>
        <time>2022-02-24T08:03:34Z</time>
      </trkpt>
      <trkpt lat="46.44273" lon="5.60005">
        <ele>443</ele>
        <time>2022-02-24T08:03:35Z</time>
      </trkpt>
      <trkpt lat="46.44266" lon="5.60005">
        <ele>443</ele>
        <time>2022-02-24T08:03:36Z</time>
      </trkpt>
      <trkpt lat="46.4426" lon="5.60003">
        <ele>443.2</ele>
        <time>2022-02-24T08:03:37Z</time>
      </trkpt>
      <trkpt lat="46.44255" lon="5.6">
        <ele>443.6</ele>
        <time>2022-02-24T08:03:38Z</time>
      </trkpt>
      <trkpt lat="46.4425" lon="5.59996">
        <ele>443.8</ele>
        <time>2022-02-24T08:03:39Z</time>
      </trkpt>
      <trkpt lat="46.44245" lon="5.59992">
        <ele>443.8</ele>
        <time>2022-02-24T08:03:40Z</time>
      </trkpt>
      <trkpt lat="46.4424" lon="5.59988">
        <ele>444.2</ele>
        <time>2022-02-24T08:03:41Z</time>
      </trkpt>
      <trkpt lat="46.44236" lon="5.59983">
        <ele>444.2</ele>
        <time>2022-02-24T08:03:42Z</time>
      </trkpt>
      <trkpt lat="46.44231" lon="5.59978">
        <ele>444.4</ele>
        <time>2022-02-24T08:03:43Z</time>
      </trkpt>
      <trkpt lat="46.44227" lon="5.59973">
        <ele>444.4</ele>
        <time>2022-02-24T08:03:44Z</time>
      </trkpt>
      <trkpt lat="46.44223" lon="5.59968">
        <ele>444.4</ele>
        <time>2022-02-24T08:03:45Z</time>
      </trkpt>
      <trkpt lat="46.44218" lon="5.59962">
        <ele>444.4</ele>
        <time>2022-02-24T08:03:46Z</time>
      </trkpt>
      <trkpt lat="46.44214" lon="5.59957">
        <ele>444.4</ele>
        <time>2022-02-24T08:03:47Z</time>
      </trkpt>
      <trkpt lat="46.44209" lon="5.59953">
        <ele>444.6</ele>
        <time>2022-02-24T08:03:48Z</time>
      </trkpt>
      <trkpt lat="46.44205" lon="5.59949">
        <ele>444.6</ele>
        <time>2022-02-24T08:03:49Z</time>
      </trkpt>
      <trkpt lat="46.442" lon="5.59944">
        <ele>444.8</ele>
        <time>2022-02-24T08:03:50Z</time>
      </trkpt>
      <trkpt lat="46.44195" lon="5.59939">
        <ele>444.8</ele>
        <time>2022-02-24T08:03:51Z</time>
      </trkpt>
      <trkpt lat="46.4419" lon="5.59934">
        <ele>444.8</ele>
        <time>2022-02-24T08:03:52Z</time>
      </trkpt>
      <trkpt lat="46.44186" lon="5.59929">
        <ele>444.8</ele>
        <time>2022-02-24T08:03:53Z</time>
      </trkpt>
      <trkpt lat="46.44181" lon="5.59925">
        <ele>444.8</ele>
        <time>2022-02-24T08:03:54Z</time>
      </trkpt>
      <trkpt lat="46.44176" lon="5.5992">
        <ele>444.8</ele>
        <time>2022-02-24T08:03:55Z</time>
      </trkpt>
      <trkpt lat="46.44171" lon="5.59915">
        <ele>444.8</ele>
        <time>2022-02-24T08:03:56Z</time>
      </trkpt>
      <trkpt lat="46.44167" lon="5.5991">
        <ele>444.8</ele>
        <time>2022-02-24T08:03:57Z</time>
      </trkpt>
      <trkpt lat="46.44163" lon="5.59903">
        <ele>444.8</ele>
        <time>2022-02-24T08:03:58Z</time>
      </trkpt>
      <trkpt lat="46.44159" lon="5.59896">
        <ele>444.8</ele>
        <time>2022-02-24T08:03:59Z</time>
      </trkpt>
      <trkpt lat="46.44157" lon="5.59887">
        <ele>444.6</ele>
        <time>2022-02-24T08:04:00Z</time>
      </trkpt>
      <trkpt lat="46.44154" lon="5.59879">
        <ele>444.4</ele>
        <time>2022-02-24T08:04:01Z</time>
      </trkpt>
      <trkpt lat="46.44152" lon="5.5987">
        <ele>444</ele>
        <time>2022-02-24T08:04:02Z</time>
      </trkpt>
      <trkpt lat="46.4415" lon="5.59861">
        <ele>444</ele>
        <time>2022-02-24T08:04:03Z</time>
      </trkpt>
      <trkpt lat="46.44148" lon="5.59852">
        <ele>443.8</ele>
        <time>2022-02-24T08:04:04Z</time>
      </trkpt>
      <trkpt lat="46.44147" lon="5.59843">
        <ele>443.8</ele>
        <time>2022-02-24T08:04:05Z</time>
      </trkpt>
      <trkpt lat="46.44146" lon="5.59834">
        <ele>443.6</ele>
        <time>2022-02-24T08:04:06Z</time>
      </trkpt>
      <trkpt lat="46.44145" lon="5.59824">
        <ele>443.6</ele>
        <time>2022-02-24T08:04:07Z</time>
      </trkpt>
      <trkpt lat="46.44145" lon="5.59814">
        <ele>443</ele>
        <time>2022-02-24T08:04:08Z</time>
      </trkpt>
      <trkpt lat="46.44144" lon="5.59804">
        <ele>442.8</ele>
        <time>2022-02-24T08:04:09Z</time>
      </trkpt>
      <trkpt lat="46.44143" lon="5.59794">
        <ele>442.6</ele>
        <time>2022-02-24T08:04:10Z</time>
      </trkpt>
      <trkpt lat="46.44143" lon="5.59783">
        <ele>442.2</ele>
        <time>2022-02-24T08:04:11Z</time>
      </trkpt>
      <trkpt lat="46.44142" lon="5.59772">
        <ele>441.8</ele>
        <time>2022-02-24T08:04:12Z</time>
      </trkpt>
      <trkpt lat="46.44141" lon="5.5976">
        <ele>441.4</ele>
        <time>2022-02-24T08:04:13Z</time>
      </trkpt>
      <trkpt lat="46.4414" lon="5.59748">
        <ele>441</ele>
        <time>2022-02-24T08:04:14Z</time>
      </trkpt>
      <trkpt lat="46.4414" lon="5.59736">
        <ele>440.4</ele>
        <time>2022-02-24T08:04:15Z</time>
      </trkpt>
      <trkpt lat="46.44139" lon="5.59724">
        <ele>440</ele>
        <time>2022-02-24T08:04:16Z</time>
      </trkpt>
      <trkpt lat="46.44137" lon="5.59711">
        <ele>439.4</ele>
        <time>2022-02-24T08:04:17Z</time>
      </trkpt>
      <trkpt lat="46.44136" lon="5.59697">
        <ele>438.8</ele>
        <time>2022-02-24T08:04:18Z</time>
      </trkpt>
      <trkpt lat="46.44133" lon="5.59683">
        <ele>437.8</ele>
        <time>2022-02-24T08:04:19Z</time>
      </trkpt>
      <trkpt lat="46.44129" lon="5.59668">
        <ele>437</ele>
        <time>2022-02-24T08:04:20Z</time>
      </trkpt>
      <trkpt lat="46.44125" lon="5.59653">
        <ele>436</ele>
        <time>2022-02-24T08:04:21Z</time>
      </trkpt>
      <trkpt lat="46.4412" lon="5.59638">
        <ele>434.6</ele>
        <time>2022-02-24T08:04:22Z</time>
      </trkpt>
      <trkpt lat="46.44115" lon="5.59622">
        <ele>433.4</ele>
        <time>2022-02-24T08:04:23Z</time>
      </trkpt>
      <trkpt lat="46.4411" lon="5.59608">
        <ele>432.2</ele>
        <time>2022-02-24T08:04:24Z</time>
      </trkpt>
      <trkpt lat="46.44105" lon="5.59592">
        <ele>431</ele>
        <time>2022-02-24T08:04:25Z</time>
      </trkpt>
      <trkpt lat="46.441" lon="5.59576">
        <ele>429.8</ele>
        <time>2022-02-24T08:04:26Z</time>
      </trkpt>
      <trkpt lat="46.44095" lon="5.5956">
        <ele>428.6</ele>
        <time>2022-02-24T08:04:27Z</time>
      </trkpt>
      <trkpt lat="46.4409" lon="5.59544">
        <ele>427.6</ele>
        <time>2022-02-24T08:04:28Z</time>
      </trkpt>
      <trkpt lat="46.44085" lon="5.59529">
        <ele>426.4</ele>
        <time>2022-02-24T08:04:29Z</time>
      </trkpt>
      <trkpt lat="46.4408" lon="5.59514">
        <ele>425.2</ele>
        <time>2022-02-24T08:04:30Z</time>
      </trkpt>
      <trkpt lat="46.44076" lon="5.595">
        <ele>423.8</ele>
        <time>2022-02-24T08:04:31Z</time>
      </trkpt>
      <trkpt lat="46.44072" lon="5.59487">
        <ele>422.6</ele>
        <time>2022-02-24T08:04:32Z</time>
      </trkpt>
      <trkpt lat="46.44068" lon="5.59475">
        <ele>421.4</ele>
        <time>2022-02-24T08:04:33Z</time>
      </trkpt>
      <trkpt lat="46.44064" lon="5.59464">
        <ele>420.4</ele>
        <time>2022-02-24T08:04:34Z</time>
      </trkpt>
      <trkpt lat="46.44059" lon="5.59454">
        <ele>419.6</ele>
        <time>2022-02-24T08:04:35Z</time>
      </trkpt>
      <trkpt lat="46.44053" lon="5.59447">
        <ele>418.6</ele>
        <time>2022-02-24T08:04:36Z</time>
      </trkpt>
      <trkpt lat="46.44046" lon="5.59441">
        <ele>417.8</ele>
        <time>2022-02-24T08:04:37Z</time>
      </trkpt>
      <trkpt lat="46.44039" lon="5.59436">
        <ele>417.2</ele>
        <time>2022-02-24T08:04:38Z</time>
      </trkpt>
      <trkpt lat="46.44032" lon="5.59431">
        <ele>416.8</ele>
        <time>2022-02-24T08:04:39Z</time>
      </trkpt>
      <trkpt lat="46.44025" lon="5.59426">
        <ele>416.4</ele>
        <time>2022-02-24T08:04:40Z</time>
      </trkpt>
      <trkpt lat="46.44017" lon="5.59422">
        <ele>416</ele>
        <time>2022-02-24T08:04:41Z</time>
      </trkpt>
      <trkpt lat="46.4401" lon="5.59418">
        <ele>415.8</ele>
        <time>2022-02-24T08:04:42Z</time>
      </trkpt>
      <trkpt lat="46.44003" lon="5.59414">
        <ele>415.8</ele>
        <time>2022-02-24T08:04:43Z</time>
      </trkpt>
      <trkpt lat="46.43996" lon="5.5941">
        <ele>415.6</ele>
        <time>2022-02-24T08:04:44Z</time>
      </trkpt>
      <trkpt lat="46.43989" lon="5.59407">
        <ele>415.6</ele>
        <time>2022-02-24T08:04:45Z</time>
      </trkpt>
      <trkpt lat="46.43983" lon="5.59403">
        <ele>415.6</ele>
        <time>2022-02-24T08:04:46Z</time>
      </trkpt>
      <trkpt lat="46.43976" lon="5.594">
        <ele>415.6</ele>
        <time>2022-02-24T08:04:47Z</time>
      </trkpt>
      <trkpt lat="46.4397" lon="5.59397">
        <ele>415.6</ele>
        <time>2022-02-24T08:04:48Z</time>
      </trkpt>
      <trkpt lat="46.43964" lon="5.59393">
        <ele>415.8</ele>
        <time>2022-02-24T08:04:49Z</time>
      </trkpt>
      <trkpt lat="46.43959" lon="5.5939">
        <ele>415.8</ele>
        <time>2022-02-24T08:04:50Z</time>
      </trkpt>
      <trkpt lat="46.43953" lon="5.59386">
        <ele>416</ele>
        <time>2022-02-24T08:04:51Z</time>
      </trkpt>
      <trkpt lat="46.43947" lon="5.59382">
        <ele>416</ele>
        <time>2022-02-24T08:04:52Z</time>
      </trkpt>
      <trkpt lat="46.43937" lon="5.59374">
        <ele>416.4</ele>
        <time>2022-02-24T08:04:53Z</time>
      </trkpt>
      <trkpt lat="46.43932" lon="5.59369">
        <ele>416.4</ele>
        <time>2022-02-24T08:04:54Z</time>
      </trkpt>
      <trkpt lat="46.43927" lon="5.59364">
        <ele>416.4</ele>
        <time>2022-02-24T08:04:55Z</time>
      </trkpt>
      <trkpt lat="46.43924" lon="5.59358">
        <ele>416.4</ele>
        <time>2022-02-24T08:04:56Z</time>
      </trkpt>
      <trkpt lat="46.43921" lon="5.59351">
        <ele>416.6</ele>
        <time>2022-02-24T08:04:57Z</time>
      </trkpt>
      <trkpt lat="46.43919" lon="5.59344">
        <ele>416.6</ele>
        <time>2022-02-24T08:04:58Z</time>
      </trkpt>
      <trkpt lat="46.43918" lon="5.59337">
        <ele>416.8</ele>
        <time>2022-02-24T08:04:59Z</time>
      </trkpt>
      <trkpt lat="46.43917" lon="5.5933">
        <ele>417</ele>
        <time>2022-02-24T08:05:00Z</time>
      </trkpt>
      <trkpt lat="46.43916" lon="5.59324">
        <ele>417</ele>
        <time>2022-02-24T08:05:01Z</time>
      </trkpt>
      <trkpt lat="46.43916" lon="5.59318">
        <ele>417.6</ele>
        <time>2022-02-24T08:05:02Z</time>
      </trkpt>
      <trkpt lat="46.43916" lon="5.59311">
        <ele>417.8</ele>
        <time>2022-02-24T08:05:03Z</time>
      </trkpt>
      <trkpt lat="46.43915" lon="5.59305">
        <ele>418.2</ele>
        <time>2022-02-24T08:05:04Z</time>
      </trkpt>
      <trkpt lat="46.43916" lon="5.593">
        <ele>418.6</ele>
        <time>2022-02-24T08:05:05Z</time>
      </trkpt>
      <trkpt lat="46.43916" lon="5.59294">
        <ele>418.8</ele>
        <time>2022-02-24T08:05:06Z</time>
      </trkpt>
      <trkpt lat="46.43916" lon="5.59288">
        <ele>419</ele>
        <time>2022-02-24T08:05:07Z</time>
      </trkpt>
      <trkpt lat="46.43915" lon="5.59282">
        <ele>419.4</ele>
        <time>2022-02-24T08:05:08Z</time>
      </trkpt>
      <trkpt lat="46.43915" lon="5.59277">
        <ele>419.6</ele>
        <time>2022-02-24T08:05:09Z</time>
      </trkpt>
      <trkpt lat="46.43915" lon="5.59271">
        <ele>420</ele>
        <time>2022-02-24T08:05:10Z</time>
      </trkpt>
      <trkpt lat="46.43915" lon="5.59266">
        <ele>420.2</ele>
        <time>2022-02-24T08:05:11Z</time>
      </trkpt>
      <trkpt lat="46.43914" lon="5.5926">
        <ele>420.2</ele>
        <time>2022-02-24T08:05:12Z</time>
      </trkpt>
      <trkpt lat="46.43914" lon="5.59255">
        <ele>420.6</ele>
        <time>2022-02-24T08:05:13Z</time>
      </trkpt>
      <trkpt lat="46.43913" lon="5.5925">
        <ele>421</ele>
        <time>2022-02-24T08:05:14Z</time>
      </trkpt>
      <trkpt lat="46.43912" lon="5.59245">
        <ele>421.2</ele>
        <time>2022-02-24T08:05:15Z</time>
      </trkpt>
      <trkpt lat="46.4391" lon="5.59241">
        <ele>421.6</ele>
        <time>2022-02-24T08:05:16Z</time>
      </trkpt>
      <trkpt lat="46.43908" lon="5.59236">
        <ele>421.8</ele>
        <time>2022-02-24T08:05:17Z</time>
      </trkpt>
      <trkpt lat="46.43905" lon="5.59232">
        <ele>422.2</ele>
        <time>2022-02-24T08:05:18Z</time>
      </trkpt>
      <trkpt lat="46.43903" lon="5.59229">
        <ele>422.4</ele>
        <time>2022-02-24T08:05:19Z</time>
      </trkpt>
      <trkpt lat="46.439" lon="5.59225">
        <ele>422.6</ele>
        <time>2022-02-24T08:05:20Z</time>
      </trkpt>
      <trkpt lat="46.43898" lon="5.59222">
        <ele>423</ele>
        <time>2022-02-24T08:05:21Z</time>
      </trkpt>
      <trkpt lat="46.43895" lon="5.59219">
        <ele>423.4</ele>
        <time>2022-02-24T08:05:22Z</time>
      </trkpt>
      <trkpt lat="46.43892" lon="5.59216">
        <ele>423.6</ele>
        <time>2022-02-24T08:05:23Z</time>
      </trkpt>
      <trkpt lat="46.43889" lon="5.59213">
        <ele>424</ele>
        <time>2022-02-24T08:05:24Z</time>
      </trkpt>
      <trkpt lat="46.43886" lon="5.59211">
        <ele>424.4</ele>
        <time>2022-02-24T08:05:25Z</time>
      </trkpt>
      <trkpt lat="46.43883" lon="5.59209">
        <ele>424.6</ele>
        <time>2022-02-24T08:05:26Z</time>
      </trkpt>
      <trkpt lat="46.4388" lon="5.59207">
        <ele>425.2</ele>
        <time>2022-02-24T08:05:27Z</time>
      </trkpt>
      <trkpt lat="46.43877" lon="5.59205">
        <ele>425.2</ele>
        <time>2022-02-24T08:05:28Z</time>
      </trkpt>
      <trkpt lat="46.43873" lon="5.59203">
        <ele>425.4</ele>
        <time>2022-02-24T08:05:29Z</time>
      </trkpt>
      <trkpt lat="46.4387" lon="5.59201">
        <ele>425.4</ele>
        <time>2022-02-24T08:05:30Z</time>
      </trkpt>
      <trkpt lat="46.43866" lon="5.59199">
        <ele>425.8</ele>
        <time>2022-02-24T08:05:31Z</time>
      </trkpt>
      <trkpt lat="46.43862" lon="5.59197">
        <ele>425.8</ele>
        <time>2022-02-24T08:05:32Z</time>
      </trkpt>
      <trkpt lat="46.43858" lon="5.59196">
        <ele>425.8</ele>
        <time>2022-02-24T08:05:33Z</time>
      </trkpt>
      <trkpt lat="46.43854" lon="5.59194">
        <ele>426</ele>
        <time>2022-02-24T08:05:34Z</time>
      </trkpt>
      <trkpt lat="46.43851" lon="5.59192">
        <ele>426</ele>
        <time>2022-02-24T08:05:35Z</time>
      </trkpt>
      <trkpt lat="46.43847" lon="5.59189">
        <ele>426</ele>
        <time>2022-02-24T08:05:36Z</time>
      </trkpt>
      <trkpt lat="46.43843" lon="5.59187">
        <ele>426.4</ele>
        <time>2022-02-24T08:05:37Z</time>
      </trkpt>
      <trkpt lat="46.43839" lon="5.59184">
        <ele>426.4</ele>
        <time>2022-02-24T08:05:38Z</time>
      </trkpt>
      <trkpt lat="46.43835" lon="5.59182">
        <ele>426.6</ele>
        <time>2022-02-24T08:05:39Z</time>
      </trkpt>
      <trkpt lat="46.4383" lon="5.59179">
        <ele>426.6</ele>
        <time>2022-02-24T08:05:40Z</time>
      </trkpt>
      <trkpt lat="46.43826" lon="5.59176">
        <ele>426.6</ele>
        <time>2022-02-24T08:05:41Z</time>
      </trkpt>
      <trkpt lat="46.43822" lon="5.59174">
        <ele>426.6</ele>
        <time>2022-02-24T08:05:42Z</time>
      </trkpt>
      <trkpt lat="46.43817" lon="5.59172">
        <ele>426.6</ele>
        <time>2022-02-24T08:05:43Z</time>
      </trkpt>
      <trkpt lat="46.43813" lon="5.5917">
        <ele>426.6</ele>
        <time>2022-02-24T08:05:44Z</time>
      </trkpt>
      <trkpt lat="46.43808" lon="5.59167">
        <ele>426.6</ele>
        <time>2022-02-24T08:05:45Z</time>
      </trkpt>
      <trkpt lat="46.43804" lon="5.59164">
        <ele>426.6</ele>
        <time>2022-02-24T08:05:46Z</time>
      </trkpt>
      <trkpt lat="46.43799" lon="5.59162">
        <ele>426.8</ele>
        <time>2022-02-24T08:05:47Z</time>
      </trkpt>
      <trkpt lat="46.43794" lon="5.59159">
        <ele>426.8</ele>
        <time>2022-02-24T08:05:48Z</time>
      </trkpt>
      <trkpt lat="46.4379" lon="5.59156">
        <ele>426.8</ele>
        <time>2022-02-24T08:05:49Z</time>
      </trkpt>
      <trkpt lat="46.43785" lon="5.59153">
        <ele>426.8</ele>
        <time>2022-02-24T08:05:50Z</time>
      </trkpt>
      <trkpt lat="46.4378" lon="5.5915">
        <ele>426.8</ele>
        <time>2022-02-24T08:05:51Z</time>
      </trkpt>
      <trkpt lat="46.43775" lon="5.59146">
        <ele>426.8</ele>
        <time>2022-02-24T08:05:52Z</time>
      </trkpt>
      <trkpt lat="46.4377" lon="5.59143">
        <ele>426.8</ele>
        <time>2022-02-24T08:05:53Z</time>
      </trkpt>
      <trkpt lat="46.43765" lon="5.5914">
        <ele>426.8</ele>
        <time>2022-02-24T08:05:54Z</time>
      </trkpt>
      <trkpt lat="46.4376" lon="5.59137">
        <ele>426.8</ele>
        <time>2022-02-24T08:05:55Z</time>
      </trkpt>
      <trkpt lat="46.43755" lon="5.59134">
        <ele>426.8</ele>
        <time>2022-02-24T08:05:56Z</time>
      </trkpt>
      <trkpt lat="46.4375" lon="5.59131">
        <ele>426.8</ele>
        <time>2022-02-24T08:05:57Z</time>
      </trkpt>
      <trkpt lat="46.43745" lon="5.59128">
        <ele>426.8</ele>
        <time>2022-02-24T08:05:58Z</time>
      </trkpt>
      <trkpt lat="46.43739" lon="5.59124">
        <ele>426.8</ele>
        <time>2022-02-24T08:05:59Z</time>
      </trkpt>
      <trkpt lat="46.43734" lon="5.59121">
        <ele>426.8</ele>
        <time>2022-02-24T08:06:00Z</time>
      </trkpt>
      <trkpt lat="46.43728" lon="5.59117">
        <ele>426.8</ele>
        <time>2022-02-24T08:06:01Z</time>
      </trkpt>
      <trkpt lat="46.43723" lon="5.59114">
        <ele>426.8</ele>
        <time>2022-02-24T08:06:02Z</time>
      </trkpt>
      <trkpt lat="46.43717" lon="5.5911">
        <ele>426.4</ele>
        <time>2022-02-24T08:06:03Z</time>
      </trkpt>
      <trkpt lat="46.43712" lon="5.59107">
        <ele>426.4</ele>
        <time>2022-02-24T08:06:04Z</time>
      </trkpt>
      <trkpt lat="46.43706" lon="5.59103">
        <ele>426.4</ele>
        <time>2022-02-24T08:06:05Z</time>
      </trkpt>
      <trkpt lat="46.437" lon="5.591">
        <ele>426.4</ele>
        <time>2022-02-24T08:06:06Z</time>
      </trkpt>
      <trkpt lat="46.43694" lon="5.59096">
        <ele>426.2</ele>
        <time>2022-02-24T08:06:07Z</time>
      </trkpt>
      <trkpt lat="46.43689" lon="5.59093">
        <ele>426.2</ele>
        <time>2022-02-24T08:06:08Z</time>
      </trkpt>
      <trkpt lat="46.43683" lon="5.59089">
        <ele>426.2</ele>
        <time>2022-02-24T08:06:09Z</time>
      </trkpt>
      <trkpt lat="46.43677" lon="5.59085">
        <ele>426.2</ele>
        <time>2022-02-24T08:06:10Z</time>
      </trkpt>
      <trkpt lat="46.43671" lon="5.59082">
        <ele>426.2</ele>
        <time>2022-02-24T08:06:11Z</time>
      </trkpt>
      <trkpt lat="46.43666" lon="5.59078">
        <ele>426.2</ele>
        <time>2022-02-24T08:06:12Z</time>
      </trkpt>
      <trkpt lat="46.4366" lon="5.59075">
        <ele>426.2</ele>
        <time>2022-02-24T08:06:13Z</time>
      </trkpt>
      <trkpt lat="46.43654" lon="5.59072">
        <ele>426.2</ele>
        <time>2022-02-24T08:06:14Z</time>
      </trkpt>
      <trkpt lat="46.43648" lon="5.59069">
        <ele>426.2</ele>
        <time>2022-02-24T08:06:15Z</time>
      </trkpt>
      <trkpt lat="46.43642" lon="5.59067">
        <ele>425.8</ele>
        <time>2022-02-24T08:06:16Z</time>
      </trkpt>
      <trkpt lat="46.43636" lon="5.59064">
        <ele>425.6</ele>
        <time>2022-02-24T08:06:17Z</time>
      </trkpt>
      <trkpt lat="46.43629" lon="5.59062">
        <ele>425.6</ele>
        <time>2022-02-24T08:06:18Z</time>
      </trkpt>
      <trkpt lat="46.43623" lon="5.5906">
        <ele>425.6</ele>
        <time>2022-02-24T08:06:19Z</time>
      </trkpt>
      <trkpt lat="46.43617" lon="5.59058">
        <ele>425.4</ele>
        <time>2022-02-24T08:06:20Z</time>
      </trkpt>
      <trkpt lat="46.4361" lon="5.59056">
        <ele>425.4</ele>
        <time>2022-02-24T08:06:21Z</time>
      </trkpt>
      <trkpt lat="46.43604" lon="5.59054">
        <ele>425.2</ele>
        <time>2022-02-24T08:06:22Z</time>
      </trkpt>
      <trkpt lat="46.43597" lon="5.59053">
        <ele>425.2</ele>
        <time>2022-02-24T08:06:23Z</time>
      </trkpt>
      <trkpt lat="46.4359" lon="5.59051">
        <ele>425.2</ele>
        <time>2022-02-24T08:06:24Z</time>
      </trkpt>
      <trkpt lat="46.43584" lon="5.59049">
        <ele>424.8</ele>
        <time>2022-02-24T08:06:25Z</time>
      </trkpt>
      <trkpt lat="46.43577" lon="5.59047">
        <ele>424.8</ele>
        <time>2022-02-24T08:06:26Z</time>
      </trkpt>
      <trkpt lat="46.4357" lon="5.59046">
        <ele>424.6</ele>
        <time>2022-02-24T08:06:27Z</time>
      </trkpt>
      <trkpt lat="46.43562" lon="5.59044">
        <ele>424.6</ele>
        <time>2022-02-24T08:06:28Z</time>
      </trkpt>
      <trkpt lat="46.43555" lon="5.59042">
        <ele>424.4</ele>
        <time>2022-02-24T08:06:29Z</time>
      </trkpt>
      <trkpt lat="46.43548" lon="5.5904">
        <ele>424.4</ele>
        <time>2022-02-24T08:06:30Z</time>
      </trkpt>
      <trkpt lat="46.4354" lon="5.59039">
        <ele>424</ele>
        <time>2022-02-24T08:06:31Z</time>
      </trkpt>
      <trkpt lat="46.43532" lon="5.59037">
        <ele>424</ele>
        <time>2022-02-24T08:06:32Z</time>
      </trkpt>
      <trkpt lat="46.43524" lon="5.59035">
        <ele>423.6</ele>
        <time>2022-02-24T08:06:33Z</time>
      </trkpt>
      <trkpt lat="46.43516" lon="5.59034">
        <ele>423.4</ele>
        <time>2022-02-24T08:06:34Z</time>
      </trkpt>
      <trkpt lat="46.43508" lon="5.59032">
        <ele>423.4</ele>
        <time>2022-02-24T08:06:35Z</time>
      </trkpt>
      <trkpt lat="46.435" lon="5.5903">
        <ele>423</ele>
        <time>2022-02-24T08:06:36Z</time>
      </trkpt>
      <trkpt lat="46.43492" lon="5.59028">
        <ele>422.8</ele>
        <time>2022-02-24T08:06:37Z</time>
      </trkpt>
      <trkpt lat="46.43484" lon="5.59026">
        <ele>422.8</ele>
        <time>2022-02-24T08:06:38Z</time>
      </trkpt>
      <trkpt lat="46.43476" lon="5.59025">
        <ele>422.4</ele>
        <time>2022-02-24T08:06:39Z</time>
      </trkpt>
      <trkpt lat="46.43468" lon="5.59023">
        <ele>422</ele>
        <time>2022-02-24T08:06:40Z</time>
      </trkpt>
      <trkpt lat="46.4346" lon="5.59021">
        <ele>422</ele>
        <time>2022-02-24T08:06:41Z</time>
      </trkpt>
      <trkpt lat="46.43452" lon="5.5902">
        <ele>421.6</ele>
        <time>2022-02-24T08:06:42Z</time>
      </trkpt>
      <trkpt lat="46.43444" lon="5.59018">
        <ele>421.4</ele>
        <time>2022-02-24T08:06:43Z</time>
      </trkpt>
      <trkpt lat="46.43436" lon="5.59017">
        <ele>421</ele>
        <time>2022-02-24T08:06:44Z</time>
      </trkpt>
      <trkpt lat="46.43428" lon="5.59015">
        <ele>420.8</ele>
        <time>2022-02-24T08:06:45Z</time>
      </trkpt>
      <trkpt lat="46.4342" lon="5.59013">
        <ele>420.8</ele>
        <time>2022-02-24T08:06:46Z</time>
      </trkpt>
      <trkpt lat="46.43413" lon="5.59012">
        <ele>420.4</ele>
        <time>2022-02-24T08:06:47Z</time>
      </trkpt>
      <trkpt lat="46.43405" lon="5.5901">
        <ele>420.4</ele>
        <time>2022-02-24T08:06:48Z</time>
      </trkpt>
      <trkpt lat="46.43398" lon="5.59009">
        <ele>420.2</ele>
        <time>2022-02-24T08:06:49Z</time>
      </trkpt>
      <trkpt lat="46.4339" lon="5.59007">
        <ele>420.2</ele>
        <time>2022-02-24T08:06:50Z</time>
      </trkpt>
      <trkpt lat="46.43383" lon="5.59006">
        <ele>420.2</ele>
        <time>2022-02-24T08:06:51Z</time>
      </trkpt>
      <trkpt lat="46.43376" lon="5.59004">
        <ele>420</ele>
        <time>2022-02-24T08:06:52Z</time>
      </trkpt>
      <trkpt lat="46.43368" lon="5.59003">
        <ele>420</ele>
        <time>2022-02-24T08:06:53Z</time>
      </trkpt>
      <trkpt lat="46.43361" lon="5.59001">
        <ele>420</ele>
        <time>2022-02-24T08:06:54Z</time>
      </trkpt>
      <trkpt lat="46.43354" lon="5.59">
        <ele>420</ele>
        <time>2022-02-24T08:06:55Z</time>
      </trkpt>
      <trkpt lat="46.43347" lon="5.58999">
        <ele>419.8</ele>
        <time>2022-02-24T08:06:56Z</time>
      </trkpt>
      <trkpt lat="46.43347" lon="5.58999">
        <ele>419.8</ele>
        <time>2022-02-24T08:06:57Z</time>
      </trkpt>
      <trkpt lat="46.4334" lon="5.58997">
        <ele>419.8</ele>
        <time>2022-02-24T08:06:58Z</time>
      </trkpt>
      <trkpt lat="46.43334" lon="5.58996">
        <ele>419.8</ele>
        <time>2022-02-24T08:06:59Z</time>
      </trkpt>
      <trkpt lat="46.43327" lon="5.58995">
        <ele>419.4</ele>
        <time>2022-02-24T08:07:00Z</time>
      </trkpt>
      <trkpt lat="46.4332" lon="5.58993">
        <ele>419.4</ele>
        <time>2022-02-24T08:07:01Z</time>
      </trkpt>
      <trkpt lat="46.43314" lon="5.58992">
        <ele>419.4</ele>
        <time>2022-02-24T08:07:02Z</time>
      </trkpt>
      <trkpt lat="46.43308" lon="5.5899">
        <ele>419.4</ele>
        <time>2022-02-24T08:07:03Z</time>
      </trkpt>
      <trkpt lat="46.43301" lon="5.58989">
        <ele>419.4</ele>
        <time>2022-02-24T08:07:04Z</time>
      </trkpt>
      <trkpt lat="46.43295" lon="5.58988">
        <ele>419.4</ele>
        <time>2022-02-24T08:07:05Z</time>
      </trkpt>
      <trkpt lat="46.43289" lon="5.58987">
        <ele>419.4</ele>
        <time>2022-02-24T08:07:06Z</time>
      </trkpt>
      <trkpt lat="46.43283" lon="5.58986">
        <ele>419.4</ele>
        <time>2022-02-24T08:07:07Z</time>
      </trkpt>
      <trkpt lat="46.43277" lon="5.58985">
        <ele>419.2</ele>
        <time>2022-02-24T08:07:08Z</time>
      </trkpt>
      <trkpt lat="46.4327" lon="5.58984">
        <ele>419.2</ele>
        <time>2022-02-24T08:07:09Z</time>
      </trkpt>
      <trkpt lat="46.43264" lon="5.58984">
        <ele>419.2</ele>
        <time>2022-02-24T08:07:10Z</time>
      </trkpt>
      <trkpt lat="46.43258" lon="5.58983">
        <ele>419.2</ele>
        <time>2022-02-24T08:07:11Z</time>
      </trkpt>
      <trkpt lat="46.43252" lon="5.58983">
        <ele>419.2</ele>
        <time>2022-02-24T08:07:12Z</time>
      </trkpt>
      <trkpt lat="46.43246" lon="5.58982">
        <ele>419</ele>
        <time>2022-02-24T08:07:13Z</time>
      </trkpt>
      <trkpt lat="46.4324" lon="5.58981">
        <ele>419</ele>
        <time>2022-02-24T08:07:14Z</time>
      </trkpt>
      <trkpt lat="46.43234" lon="5.58981">
        <ele>419</ele>
        <time>2022-02-24T08:07:15Z</time>
      </trkpt>
      <trkpt lat="46.43228" lon="5.5898">
        <ele>419</ele>
        <time>2022-02-24T08:07:16Z</time>
      </trkpt>
      <trkpt lat="46.43222" lon="5.5898">
        <ele>419</ele>
        <time>2022-02-24T08:07:17Z</time>
      </trkpt>
      <trkpt lat="46.43216" lon="5.58979">
        <ele>419</ele>
        <time>2022-02-24T08:07:18Z</time>
      </trkpt>
      <trkpt lat="46.4321" lon="5.58979">
        <ele>418.8</ele>
        <time>2022-02-24T08:07:19Z</time>
      </trkpt>
      <trkpt lat="46.43203" lon="5.58979">
        <ele>418.8</ele>
        <time>2022-02-24T08:07:20Z</time>
      </trkpt>
      <trkpt lat="46.43197" lon="5.58979">
        <ele>418.8</ele>
        <time>2022-02-24T08:07:21Z</time>
      </trkpt>
      <trkpt lat="46.43191" lon="5.58978">
        <ele>418.8</ele>
        <time>2022-02-24T08:07:22Z</time>
      </trkpt>
      <trkpt lat="46.43185" lon="5.58978">
        <ele>418.8</ele>
        <time>2022-02-24T08:07:23Z</time>
      </trkpt>
      <trkpt lat="46.43179" lon="5.58978">
        <ele>418.8</ele>
        <time>2022-02-24T08:07:24Z</time>
      </trkpt>
      <trkpt lat="46.43173" lon="5.58978">
        <ele>418.8</ele>
        <time>2022-02-24T08:07:25Z</time>
      </trkpt>
      <trkpt lat="46.43167" lon="5.58977">
        <ele>418.8</ele>
        <time>2022-02-24T08:07:26Z</time>
      </trkpt>
      <trkpt lat="46.43161" lon="5.58977">
        <ele>418.6</ele>
        <time>2022-02-24T08:07:27Z</time>
      </trkpt>
      <trkpt lat="46.43155" lon="5.58977">
        <ele>418.6</ele>
        <time>2022-02-24T08:07:28Z</time>
      </trkpt>
      <trkpt lat="46.4315" lon="5.58977">
        <ele>418.6</ele>
        <time>2022-02-24T08:07:29Z</time>
      </trkpt>
      <trkpt lat="46.43144" lon="5.58977">
        <ele>418.6</ele>
        <time>2022-02-24T08:07:30Z</time>
      </trkpt>
      <trkpt lat="46.43139" lon="5.58976">
        <ele>418.6</ele>
        <time>2022-02-24T08:07:31Z</time>
      </trkpt>
      <trkpt lat="46.43133" lon="5.58976">
        <ele>418.6</ele>
        <time>2022-02-24T08:07:32Z</time>
      </trkpt>
      <trkpt lat="46.43128" lon="5.58976">
        <ele>418.6</ele>
        <time>2022-02-24T08:07:33Z</time>
      </trkpt>
      <trkpt lat="46.43122" lon="5.58976">
        <ele>418.8</ele>
        <time>2022-02-24T08:07:34Z</time>
      </trkpt>
      <trkpt lat="46.43117" lon="5.58976">
        <ele>418.8</ele>
        <time>2022-02-24T08:07:35Z</time>
      </trkpt>
      <trkpt lat="46.43112" lon="5.58975">
        <ele>419</ele>
        <time>2022-02-24T08:07:36Z</time>
      </trkpt>
      <trkpt lat="46.43106" lon="5.58975">
        <ele>419</ele>
        <time>2022-02-24T08:07:37Z</time>
      </trkpt>
      <trkpt lat="46.43101" lon="5.58975">
        <ele>419</ele>
        <time>2022-02-24T08:07:38Z</time>
      </trkpt>
      <trkpt lat="46.43096" lon="5.58975">
        <ele>419</ele>
        <time>2022-02-24T08:07:39Z</time>
      </trkpt>
      <trkpt lat="46.4309" lon="5.58974">
        <ele>419</ele>
        <time>2022-02-24T08:07:40Z</time>
      </trkpt>
      <trkpt lat="46.43085" lon="5.58974">
        <ele>419.2</ele>
        <time>2022-02-24T08:07:41Z</time>
      </trkpt>
      <trkpt lat="46.4308" lon="5.58973">
        <ele>419.2</ele>
        <time>2022-02-24T08:07:42Z</time>
      </trkpt>
      <trkpt lat="46.43075" lon="5.58973">
        <ele>419.2</ele>
        <time>2022-02-24T08:07:43Z</time>
      </trkpt>
      <trkpt lat="46.43069" lon="5.58973">
        <ele>419.6</ele>
        <time>2022-02-24T08:07:44Z</time>
      </trkpt>
      <trkpt lat="46.43064" lon="5.58973">
        <ele>419.6</ele>
        <time>2022-02-24T08:07:45Z</time>
      </trkpt>
      <trkpt lat="46.43058" lon="5.58972">
        <ele>420</ele>
        <time>2022-02-24T08:07:46Z</time>
      </trkpt>
      <trkpt lat="46.43053" lon="5.58972">
        <ele>420</ele>
        <time>2022-02-24T08:07:47Z</time>
      </trkpt>
      <trkpt lat="46.43047" lon="5.58972">
        <ele>420.2</ele>
        <time>2022-02-24T08:07:48Z</time>
      </trkpt>
      <trkpt lat="46.43042" lon="5.58972">
        <ele>420.2</ele>
        <time>2022-02-24T08:07:49Z</time>
      </trkpt>
      <trkpt lat="46.43036" lon="5.58971">
        <ele>420.4</ele>
        <time>2022-02-24T08:07:50Z</time>
      </trkpt>
      <trkpt lat="46.4303" lon="5.58971">
        <ele>420.4</ele>
        <time>2022-02-24T08:07:51Z</time>
      </trkpt>
      <trkpt lat="46.43025" lon="5.58971">
        <ele>420.6</ele>
        <time>2022-02-24T08:07:52Z</time>
      </trkpt>
      <trkpt lat="46.43019" lon="5.58971">
        <ele>420.6</ele>
        <time>2022-02-24T08:07:53Z</time>
      </trkpt>
      <trkpt lat="46.43014" lon="5.5897">
        <ele>420.8</ele>
        <time>2022-02-24T08:07:54Z</time>
      </trkpt>
      <trkpt lat="46.43008" lon="5.5897">
        <ele>420.8</ele>
        <time>2022-02-24T08:07:55Z</time>
      </trkpt>
      <trkpt lat="46.43002" lon="5.5897">
        <ele>421.2</ele>
        <time>2022-02-24T08:07:56Z</time>
      </trkpt>
      <trkpt lat="46.42996" lon="5.58969">
        <ele>421.6</ele>
        <time>2022-02-24T08:07:57Z</time>
      </trkpt>
      <trkpt lat="46.42991" lon="5.58969">
        <ele>421.8</ele>
        <time>2022-02-24T08:07:58Z</time>
      </trkpt>
      <trkpt lat="46.42985" lon="5.58969">
        <ele>422</ele>
        <time>2022-02-24T08:07:59Z</time>
      </trkpt>
      <trkpt lat="46.4298" lon="5.58969">
        <ele>422.2</ele>
        <time>2022-02-24T08:08:00Z</time>
      </trkpt>
      <trkpt lat="46.42974" lon="5.58968">
        <ele>422.4</ele>
        <time>2022-02-24T08:08:01Z</time>
      </trkpt>
      <trkpt lat="46.42969" lon="5.58968">
        <ele>422.6</ele>
        <time>2022-02-24T08:08:02Z</time>
      </trkpt>
      <trkpt lat="46.42964" lon="5.58969">
        <ele>422.8</ele>
        <time>2022-02-24T08:08:03Z</time>
      </trkpt>
      <trkpt lat="46.4296" lon="5.58969">
        <ele>423.2</ele>
        <time>2022-02-24T08:08:04Z</time>
      </trkpt>
      <trkpt lat="46.42955" lon="5.58969">
        <ele>423.4</ele>
        <time>2022-02-24T08:08:05Z</time>
      </trkpt>
      <trkpt lat="46.4295" lon="5.58969">
        <ele>423.4</ele>
        <time>2022-02-24T08:08:06Z</time>
      </trkpt>
      <trkpt lat="46.42945" lon="5.58968">
        <ele>423.8</ele>
        <time>2022-02-24T08:08:07Z</time>
      </trkpt>
      <trkpt lat="46.42941" lon="5.58968">
        <ele>423.8</ele>
        <time>2022-02-24T08:08:08Z</time>
      </trkpt>
      <trkpt lat="46.42936" lon="5.58968">
        <ele>424.2</ele>
        <time>2022-02-24T08:08:09Z</time>
      </trkpt>
      <trkpt lat="46.42931" lon="5.58968">
        <ele>424.2</ele>
        <time>2022-02-24T08:08:10Z</time>
      </trkpt>
      <trkpt lat="46.42926" lon="5.58968">
        <ele>424.6</ele>
        <time>2022-02-24T08:08:11Z</time>
      </trkpt>
      <trkpt lat="46.42921" lon="5.58968">
        <ele>424.6</ele>
        <time>2022-02-24T08:08:12Z</time>
      </trkpt>
      <trkpt lat="46.42916" lon="5.58967">
        <ele>424.8</ele>
        <time>2022-02-24T08:08:13Z</time>
      </trkpt>
      <trkpt lat="46.42911" lon="5.58967">
        <ele>424.8</ele>
        <time>2022-02-24T08:08:14Z</time>
      </trkpt>
      <trkpt lat="46.42906" lon="5.58967">
        <ele>424.8</ele>
        <time>2022-02-24T08:08:15Z</time>
      </trkpt>
      <trkpt lat="46.42901" lon="5.58966">
        <ele>424.8</ele>
        <time>2022-02-24T08:08:16Z</time>
      </trkpt>
      <trkpt lat="46.42896" lon="5.58966">
        <ele>424.8</ele>
        <time>2022-02-24T08:08:17Z</time>
      </trkpt>
      <trkpt lat="46.42892" lon="5.58966">
        <ele>424.8</ele>
        <time>2022-02-24T08:08:18Z</time>
      </trkpt>
      <trkpt lat="46.42887" lon="5.58966">
        <ele>425</ele>
        <time>2022-02-24T08:08:19Z</time>
      </trkpt>
      <trkpt lat="46.42882" lon="5.58966">
        <ele>425</ele>
        <time>2022-02-24T08:08:20Z</time>
      </trkpt>
      <trkpt lat="46.42878" lon="5.58966">
        <ele>425.2</ele>
        <time>2022-02-24T08:08:21Z</time>
      </trkpt>
      <trkpt lat="46.42873" lon="5.58965">
        <ele>425.2</ele>
        <time>2022-02-24T08:08:22Z</time>
      </trkpt>
      <trkpt lat="46.42869" lon="5.58965">
        <ele>425.6</ele>
        <time>2022-02-24T08:08:23Z</time>
      </trkpt>
      <trkpt lat="46.42865" lon="5.58965">
        <ele>425.8</ele>
        <time>2022-02-24T08:08:24Z</time>
      </trkpt>
      <trkpt lat="46.42861" lon="5.58966">
        <ele>426</ele>
        <time>2022-02-24T08:08:25Z</time>
      </trkpt>
      <trkpt lat="46.42856" lon="5.58966">
        <ele>426</ele>
        <time>2022-02-24T08:08:26Z</time>
      </trkpt>
      <trkpt lat="46.42852" lon="5.58966">
        <ele>426.4</ele>
        <time>2022-02-24T08:08:27Z</time>
      </trkpt>
      <trkpt lat="46.42848" lon="5.58966">
        <ele>426.4</ele>
        <time>2022-02-24T08:08:28Z</time>
      </trkpt>
      <trkpt lat="46.42844" lon="5.58966">
        <ele>426.6</ele>
        <time>2022-02-24T08:08:29Z</time>
      </trkpt>
      <trkpt lat="46.4284" lon="5.58966">
        <ele>426.6</ele>
        <time>2022-02-24T08:08:30Z</time>
      </trkpt>
      <trkpt lat="46.42835" lon="5.58966">
        <ele>426.6</ele>
        <time>2022-02-24T08:08:31Z</time>
      </trkpt>
      <trkpt lat="46.42831" lon="5.58965">
        <ele>427</ele>
        <time>2022-02-24T08:08:32Z</time>
      </trkpt>
      <trkpt lat="46.42826" lon="5.58965">
        <ele>427</ele>
        <time>2022-02-24T08:08:33Z</time>
      </trkpt>
      <trkpt lat="46.42822" lon="5.58965">
        <ele>427</ele>
        <time>2022-02-24T08:08:34Z</time>
      </trkpt>
      <trkpt lat="46.42817" lon="5.58964">
        <ele>427.2</ele>
        <time>2022-02-24T08:08:35Z</time>
      </trkpt>
      <trkpt lat="46.42812" lon="5.58964">
        <ele>427.2</ele>
        <time>2022-02-24T08:08:36Z</time>
      </trkpt>
      <trkpt lat="46.42808" lon="5.58964">
        <ele>427.2</ele>
        <time>2022-02-24T08:08:37Z</time>
      </trkpt>
      <trkpt lat="46.42803" lon="5.58964">
        <ele>427.4</ele>
        <time>2022-02-24T08:08:38Z</time>
      </trkpt>
      <trkpt lat="46.42798" lon="5.58964">
        <ele>427.4</ele>
        <time>2022-02-24T08:08:39Z</time>
      </trkpt>
      <trkpt lat="46.42794" lon="5.58964">
        <ele>427.6</ele>
        <time>2022-02-24T08:08:40Z</time>
      </trkpt>
      <trkpt lat="46.42789" lon="5.58964">
        <ele>427.6</ele>
        <time>2022-02-24T08:08:41Z</time>
      </trkpt>
      <trkpt lat="46.42785" lon="5.58964">
        <ele>428</ele>
        <time>2022-02-24T08:08:42Z</time>
      </trkpt>
      <trkpt lat="46.4278" lon="5.58963">
        <ele>428</ele>
        <time>2022-02-24T08:08:43Z</time>
      </trkpt>
      <trkpt lat="46.42776" lon="5.58963">
        <ele>428.2</ele>
        <time>2022-02-24T08:08:44Z</time>
      </trkpt>
      <trkpt lat="46.42772" lon="5.58962">
        <ele>428.2</ele>
        <time>2022-02-24T08:08:45Z</time>
      </trkpt>
      <trkpt lat="46.42768" lon="5.58962">
        <ele>428.6</ele>
        <time>2022-02-24T08:08:46Z</time>
      </trkpt>
      <trkpt lat="46.42764" lon="5.58962">
        <ele>428.6</ele>
        <time>2022-02-24T08:08:47Z</time>
      </trkpt>
      <trkpt lat="46.4276" lon="5.58962">
        <ele>428.8</ele>
        <time>2022-02-24T08:08:48Z</time>
      </trkpt>
      <trkpt lat="46.42756" lon="5.58962">
        <ele>428.8</ele>
        <time>2022-02-24T08:08:49Z</time>
      </trkpt>
      <trkpt lat="46.42751" lon="5.58961">
        <ele>428.8</ele>
        <time>2022-02-24T08:08:50Z</time>
      </trkpt>
      <trkpt lat="46.42747" lon="5.58961">
        <ele>428.8</ele>
        <time>2022-02-24T08:08:51Z</time>
      </trkpt>
      <trkpt lat="46.42742" lon="5.58961">
        <ele>428.8</ele>
        <time>2022-02-24T08:08:52Z</time>
      </trkpt>
      <trkpt lat="46.42737" lon="5.58961">
        <ele>428.8</ele>
        <time>2022-02-24T08:08:53Z</time>
      </trkpt>
      <trkpt lat="46.42731" lon="5.58961">
        <ele>428.6</ele>
        <time>2022-02-24T08:08:54Z</time>
      </trkpt>
      <trkpt lat="46.42726" lon="5.5896">
        <ele>428.6</ele>
        <time>2022-02-24T08:08:55Z</time>
      </trkpt>
      <trkpt lat="46.4272" lon="5.5896">
        <ele>428.2</ele>
        <time>2022-02-24T08:08:56Z</time>
      </trkpt>
      <trkpt lat="46.42714" lon="5.58959">
        <ele>428</ele>
        <time>2022-02-24T08:08:57Z</time>
      </trkpt>
      <trkpt lat="46.42707" lon="5.58959">
        <ele>427.6</ele>
        <time>2022-02-24T08:08:58Z</time>
      </trkpt>
      <trkpt lat="46.427" lon="5.58959">
        <ele>427</ele>
        <time>2022-02-24T08:08:59Z</time>
      </trkpt>
      <trkpt lat="46.42692" lon="5.58959">
        <ele>426.4</ele>
        <time>2022-02-24T08:09:00Z</time>
      </trkpt>
      <trkpt lat="46.42684" lon="5.58959">
        <ele>426</ele>
        <time>2022-02-24T08:09:01Z</time>
      </trkpt>
      <trkpt lat="46.42675" lon="5.58959">
        <ele>425.4</ele>
        <time>2022-02-24T08:09:02Z</time>
      </trkpt>
      <trkpt lat="46.42667" lon="5.58959">
        <ele>424.8</ele>
        <time>2022-02-24T08:09:03Z</time>
      </trkpt>
      <trkpt lat="46.42658" lon="5.58957">
        <ele>424.6</ele>
        <time>2022-02-24T08:09:04Z</time>
      </trkpt>
      <trkpt lat="46.4265" lon="5.58954">
        <ele>424.2</ele>
        <time>2022-02-24T08:09:05Z</time>
      </trkpt>
      <trkpt lat="46.42641" lon="5.5895">
        <ele>424</ele>
        <time>2022-02-24T08:09:06Z</time>
      </trkpt>
      <trkpt lat="46.42634" lon="5.58945">
        <ele>423.6</ele>
        <time>2022-02-24T08:09:07Z</time>
      </trkpt>
      <trkpt lat="46.42626" lon="5.58939">
        <ele>423.4</ele>
        <time>2022-02-24T08:09:08Z</time>
      </trkpt>
      <trkpt lat="46.42619" lon="5.58932">
        <ele>423.4</ele>
        <time>2022-02-24T08:09:09Z</time>
      </trkpt>
      <trkpt lat="46.42613" lon="5.58924">
        <ele>423</ele>
        <time>2022-02-24T08:09:10Z</time>
      </trkpt>
      <trkpt lat="46.42606" lon="5.58917">
        <ele>423</ele>
        <time>2022-02-24T08:09:11Z</time>
      </trkpt>
      <trkpt lat="46.42599" lon="5.5891">
        <ele>422.8</ele>
        <time>2022-02-24T08:09:12Z</time>
      </trkpt>
      <trkpt lat="46.42593" lon="5.58903">
        <ele>422.8</ele>
        <time>2022-02-24T08:09:13Z</time>
      </trkpt>
      <trkpt lat="46.42586" lon="5.58896">
        <ele>422.4</ele>
        <time>2022-02-24T08:09:14Z</time>
      </trkpt>
      <trkpt lat="46.4258" lon="5.58889">
        <ele>422.4</ele>
        <time>2022-02-24T08:09:15Z</time>
      </trkpt>
      <trkpt lat="46.42574" lon="5.58881">
        <ele>422.2</ele>
        <time>2022-02-24T08:09:16Z</time>
      </trkpt>
      <trkpt lat="46.42568" lon="5.58873">
        <ele>422.2</ele>
        <time>2022-02-24T08:09:17Z</time>
      </trkpt>
      <trkpt lat="46.42563" lon="5.58864">
        <ele>421.8</ele>
        <time>2022-02-24T08:09:18Z</time>
      </trkpt>
      <trkpt lat="46.42559" lon="5.58855">
        <ele>421.8</ele>
        <time>2022-02-24T08:09:19Z</time>
      </trkpt>
      <trkpt lat="46.42554" lon="5.58845">
        <ele>421.4</ele>
        <time>2022-02-24T08:09:20Z</time>
      </trkpt>
      <trkpt lat="46.4255" lon="5.58835">
        <ele>421.4</ele>
        <time>2022-02-24T08:09:21Z</time>
      </trkpt>
      <trkpt lat="46.42546" lon="5.58825">
        <ele>421</ele>
        <time>2022-02-24T08:09:22Z</time>
      </trkpt>
      <trkpt lat="46.42542" lon="5.58815">
        <ele>420.8</ele>
        <time>2022-02-24T08:09:23Z</time>
      </trkpt>
      <trkpt lat="46.42538" lon="5.58805">
        <ele>420.4</ele>
        <time>2022-02-24T08:09:24Z</time>
      </trkpt>
      <trkpt lat="46.42534" lon="5.58795">
        <ele>420.2</ele>
        <time>2022-02-24T08:09:25Z</time>
      </trkpt>
      <trkpt lat="46.42529" lon="5.58785">
        <ele>420</ele>
        <time>2022-02-24T08:09:26Z</time>
      </trkpt>
      <trkpt lat="46.42524" lon="5.58777">
        <ele>419.6</ele>
        <time>2022-02-24T08:09:27Z</time>
      </trkpt>
      <trkpt lat="46.42518" lon="5.58769">
        <ele>419.4</ele>
        <time>2022-02-24T08:09:28Z</time>
      </trkpt>
      <trkpt lat="46.42511" lon="5.58762">
        <ele>419.4</ele>
        <time>2022-02-24T08:09:29Z</time>
      </trkpt>
      <trkpt lat="46.42503" lon="5.58757">
        <ele>419</ele>
        <time>2022-02-24T08:09:30Z</time>
      </trkpt>
      <trkpt lat="46.42496" lon="5.58753">
        <ele>418.8</ele>
        <time>2022-02-24T08:09:31Z</time>
      </trkpt>
      <trkpt lat="46.42488" lon="5.5875">
        <ele>418.6</ele>
        <time>2022-02-24T08:09:32Z</time>
      </trkpt>
      <trkpt lat="46.4248" lon="5.58747">
        <ele>418.2</ele>
        <time>2022-02-24T08:09:33Z</time>
      </trkpt>
      <trkpt lat="46.42472" lon="5.58745">
        <ele>418</ele>
        <time>2022-02-24T08:09:34Z</time>
      </trkpt>
      <trkpt lat="46.42464" lon="5.58743">
        <ele>418</ele>
        <time>2022-02-24T08:09:35Z</time>
      </trkpt>
      <trkpt lat="46.42456" lon="5.58741">
        <ele>417.8</ele>
        <time>2022-02-24T08:09:36Z</time>
      </trkpt>
      <trkpt lat="46.42449" lon="5.58739">
        <ele>417.8</ele>
        <time>2022-02-24T08:09:37Z</time>
      </trkpt>
      <trkpt lat="46.42441" lon="5.58737">
        <ele>417.8</ele>
        <time>2022-02-24T08:09:38Z</time>
      </trkpt>
      <trkpt lat="46.42434" lon="5.58735">
        <ele>417.8</ele>
        <time>2022-02-24T08:09:39Z</time>
      </trkpt>
      <trkpt lat="46.42426" lon="5.58733">
        <ele>417.8</ele>
        <time>2022-02-24T08:09:40Z</time>
      </trkpt>
      <trkpt lat="46.42419" lon="5.58731">
        <ele>417.8</ele>
        <time>2022-02-24T08:09:41Z</time>
      </trkpt>
      <trkpt lat="46.42412" lon="5.5873">
        <ele>417.8</ele>
        <time>2022-02-24T08:09:42Z</time>
      </trkpt>
      <trkpt lat="46.42405" lon="5.58728">
        <ele>417.8</ele>
        <time>2022-02-24T08:09:43Z</time>
      </trkpt>
      <trkpt lat="46.42398" lon="5.58726">
        <ele>417.6</ele>
        <time>2022-02-24T08:09:44Z</time>
      </trkpt>
      <trkpt lat="46.42392" lon="5.58724">
        <ele>417.6</ele>
        <time>2022-02-24T08:09:45Z</time>
      </trkpt>
      <trkpt lat="46.42385" lon="5.58723">
        <ele>417.6</ele>
        <time>2022-02-24T08:09:46Z</time>
      </trkpt>
      <trkpt lat="46.42379" lon="5.58721">
        <ele>417.6</ele>
        <time>2022-02-24T08:09:47Z</time>
      </trkpt>
      <trkpt lat="46.42373" lon="5.5872">
        <ele>417.6</ele>
        <time>2022-02-24T08:09:48Z</time>
      </trkpt>
      <trkpt lat="46.42366" lon="5.58718">
        <ele>417.6</ele>
        <time>2022-02-24T08:09:49Z</time>
      </trkpt>
      <trkpt lat="46.4236" lon="5.58717">
        <ele>417.8</ele>
        <time>2022-02-24T08:09:50Z</time>
      </trkpt>
      <trkpt lat="46.42354" lon="5.58716">
        <ele>417.8</ele>
        <time>2022-02-24T08:09:51Z</time>
      </trkpt>
      <trkpt lat="46.42348" lon="5.58715">
        <ele>417.8</ele>
        <time>2022-02-24T08:09:52Z</time>
      </trkpt>
      <trkpt lat="46.42342" lon="5.58714">
        <ele>417.8</ele>
        <time>2022-02-24T08:09:53Z</time>
      </trkpt>
      <trkpt lat="46.42336" lon="5.58712">
        <ele>417.8</ele>
        <time>2022-02-24T08:09:54Z</time>
      </trkpt>
      <trkpt lat="46.4233" lon="5.5871">
        <ele>417.8</ele>
        <time>2022-02-24T08:09:55Z</time>
      </trkpt>
      <trkpt lat="46.42324" lon="5.58709">
        <ele>417.4</ele>
        <time>2022-02-24T08:09:56Z</time>
      </trkpt>
      <trkpt lat="46.42317" lon="5.58707">
        <ele>417.4</ele>
        <time>2022-02-24T08:09:57Z</time>
      </trkpt>
      <trkpt lat="46.42311" lon="5.58705">
        <ele>417.2</ele>
        <time>2022-02-24T08:09:58Z</time>
      </trkpt>
      <trkpt lat="46.42305" lon="5.58702">
        <ele>417.2</ele>
        <time>2022-02-24T08:09:59Z</time>
      </trkpt>
      <trkpt lat="46.42299" lon="5.58699">
        <ele>417.2</ele>
        <time>2022-02-24T08:10:00Z</time>
      </trkpt>
      <trkpt lat="46.42293" lon="5.58696">
        <ele>417.2</ele>
        <time>2022-02-24T08:10:01Z</time>
      </trkpt>
      <trkpt lat="46.42286" lon="5.58693">
        <ele>417</ele>
        <time>2022-02-24T08:10:02Z</time>
      </trkpt>
      <trkpt lat="46.4228" lon="5.5869">
        <ele>417</ele>
        <time>2022-02-24T08:10:03Z</time>
      </trkpt>
      <trkpt lat="46.42274" lon="5.58687">
        <ele>417</ele>
        <time>2022-02-24T08:10:04Z</time>
      </trkpt>
      <trkpt lat="46.42268" lon="5.58684">
        <ele>417</ele>
        <time>2022-02-24T08:10:05Z</time>
      </trkpt>
      <trkpt lat="46.42263" lon="5.5868">
        <ele>417</ele>
        <time>2022-02-24T08:10:06Z</time>
      </trkpt>
      <trkpt lat="46.42257" lon="5.58677">
        <ele>416.8</ele>
        <time>2022-02-24T08:10:07Z</time>
      </trkpt>
      <trkpt lat="46.42251" lon="5.58674">
        <ele>416.8</ele>
        <time>2022-02-24T08:10:08Z</time>
      </trkpt>
      <trkpt lat="46.42239" lon="5.58667">
        <ele>416.8</ele>
        <time>2022-02-24T08:10:09Z</time>
      </trkpt>
      <trkpt lat="46.42233" lon="5.58663">
        <ele>416.6</ele>
        <time>2022-02-24T08:10:10Z</time>
      </trkpt>
      <trkpt lat="46.42227" lon="5.5866">
        <ele>416.6</ele>
        <time>2022-02-24T08:10:11Z</time>
      </trkpt>
      <trkpt lat="46.4222" lon="5.58656">
        <ele>416.2</ele>
        <time>2022-02-24T08:10:12Z</time>
      </trkpt>
      <trkpt lat="46.42214" lon="5.58652">
        <ele>416.2</ele>
        <time>2022-02-24T08:10:13Z</time>
      </trkpt>
      <trkpt lat="46.42207" lon="5.58649">
        <ele>416</ele>
        <time>2022-02-24T08:10:14Z</time>
      </trkpt>
      <trkpt lat="46.42201" lon="5.58645">
        <ele>416</ele>
        <time>2022-02-24T08:10:15Z</time>
      </trkpt>
      <trkpt lat="46.42194" lon="5.58642">
        <ele>415.6</ele>
        <time>2022-02-24T08:10:16Z</time>
      </trkpt>
      <trkpt lat="46.42187" lon="5.58639">
        <ele>415.6</ele>
        <time>2022-02-24T08:10:17Z</time>
      </trkpt>
      <trkpt lat="46.4218" lon="5.58636">
        <ele>415.4</ele>
        <time>2022-02-24T08:10:18Z</time>
      </trkpt>
      <trkpt lat="46.42173" lon="5.58633">
        <ele>415.4</ele>
        <time>2022-02-24T08:10:19Z</time>
      </trkpt>
      <trkpt lat="46.42166" lon="5.5863">
        <ele>415.2</ele>
        <time>2022-02-24T08:10:20Z</time>
      </trkpt>
      <trkpt lat="46.42158" lon="5.58628">
        <ele>415.2</ele>
        <time>2022-02-24T08:10:21Z</time>
      </trkpt>
      <trkpt lat="46.42151" lon="5.58625">
        <ele>414.8</ele>
        <time>2022-02-24T08:10:22Z</time>
      </trkpt>
      <trkpt lat="46.42144" lon="5.58622">
        <ele>414.8</ele>
        <time>2022-02-24T08:10:23Z</time>
      </trkpt>
      <trkpt lat="46.42136" lon="5.58619">
        <ele>414.6</ele>
        <time>2022-02-24T08:10:24Z</time>
      </trkpt>
      <trkpt lat="46.42129" lon="5.58616">
        <ele>414.6</ele>
        <time>2022-02-24T08:10:25Z</time>
      </trkpt>
      <trkpt lat="46.42122" lon="5.58614">
        <ele>414.6</ele>
        <time>2022-02-24T08:10:26Z</time>
      </trkpt>
      <trkpt lat="46.42114" lon="5.58611">
        <ele>414.4</ele>
        <time>2022-02-24T08:10:27Z</time>
      </trkpt>
      <trkpt lat="46.42107" lon="5.58609">
        <ele>414.4</ele>
        <time>2022-02-24T08:10:28Z</time>
      </trkpt>
      <trkpt lat="46.421" lon="5.58607">
        <ele>414.4</ele>
        <time>2022-02-24T08:10:29Z</time>
      </trkpt>
      <trkpt lat="46.42093" lon="5.58605">
        <ele>414.4</ele>
        <time>2022-02-24T08:10:30Z</time>
      </trkpt>
      <trkpt lat="46.42086" lon="5.58603">
        <ele>414.4</ele>
        <time>2022-02-24T08:10:31Z</time>
      </trkpt>
      <trkpt lat="46.42079" lon="5.58601">
        <ele>414</ele>
        <time>2022-02-24T08:10:32Z</time>
      </trkpt>
      <trkpt lat="46.42072" lon="5.586">
        <ele>414</ele>
        <time>2022-02-24T08:10:33Z</time>
      </trkpt>
      <trkpt lat="46.42065" lon="5.586">
        <ele>414</ele>
        <time>2022-02-24T08:10:34Z</time>
      </trkpt>
      <trkpt lat="46.42059" lon="5.58599">
        <ele>414</ele>
        <time>2022-02-24T08:10:35Z</time>
      </trkpt>
      <trkpt lat="46.42052" lon="5.58599">
        <ele>414.4</ele>
        <time>2022-02-24T08:10:36Z</time>
      </trkpt>
      <trkpt lat="46.42046" lon="5.586">
        <ele>414.4</ele>
        <time>2022-02-24T08:10:37Z</time>
      </trkpt>
      <trkpt lat="46.4204" lon="5.58601">
        <ele>414.4</ele>
        <time>2022-02-24T08:10:38Z</time>
      </trkpt>
      <trkpt lat="46.42034" lon="5.58603">
        <ele>414.4</ele>
        <time>2022-02-24T08:10:39Z</time>
      </trkpt>
      <trkpt lat="46.42028" lon="5.58606">
        <ele>414.4</ele>
        <time>2022-02-24T08:10:40Z</time>
      </trkpt>
      <trkpt lat="46.42022" lon="5.5861">
        <ele>414.4</ele>
        <time>2022-02-24T08:10:41Z</time>
      </trkpt>
      <trkpt lat="46.42016" lon="5.58616">
        <ele>414.2</ele>
        <time>2022-02-24T08:10:42Z</time>
      </trkpt>
      <trkpt lat="46.4201" lon="5.58622">
        <ele>413.8</ele>
        <time>2022-02-24T08:10:43Z</time>
      </trkpt>
      <trkpt lat="46.42003" lon="5.58629">
        <ele>413.6</ele>
        <time>2022-02-24T08:10:44Z</time>
      </trkpt>
      <trkpt lat="46.41996" lon="5.58636">
        <ele>413.2</ele>
        <time>2022-02-24T08:10:45Z</time>
      </trkpt>
      <trkpt lat="46.4199" lon="5.58642">
        <ele>413</ele>
        <time>2022-02-24T08:10:46Z</time>
      </trkpt>
      <trkpt lat="46.41983" lon="5.58649">
        <ele>412.6</ele>
        <time>2022-02-24T08:10:47Z</time>
      </trkpt>
      <trkpt lat="46.41975" lon="5.58655">
        <ele>412.2</ele>
        <time>2022-02-24T08:10:48Z</time>
      </trkpt>
      <trkpt lat="46.41968" lon="5.58661">
        <ele>412</ele>
        <time>2022-02-24T08:10:49Z</time>
      </trkpt>
      <trkpt lat="46.41961" lon="5.58667">
        <ele>411.8</ele>
        <time>2022-02-24T08:10:50Z</time>
      </trkpt>
      <trkpt lat="46.41955" lon="5.58672">
        <ele>411.8</ele>
        <time>2022-02-24T08:10:51Z</time>
      </trkpt>
      <trkpt lat="46.41948" lon="5.58678">
        <ele>411.8</ele>
        <time>2022-02-24T08:10:52Z</time>
      </trkpt>
      <trkpt lat="46.41942" lon="5.58683">
        <ele>411.4</ele>
        <time>2022-02-24T08:10:53Z</time>
      </trkpt>
      <trkpt lat="46.41936" lon="5.58689">
        <ele>411.4</ele>
        <time>2022-02-24T08:10:54Z</time>
      </trkpt>
      <trkpt lat="46.4193" lon="5.58695">
        <ele>411.4</ele>
        <time>2022-02-24T08:10:55Z</time>
      </trkpt>
      <trkpt lat="46.41924" lon="5.58701">
        <ele>411.2</ele>
        <time>2022-02-24T08:10:56Z</time>
      </trkpt>
      <trkpt lat="46.41918" lon="5.58708">
        <ele>411.2</ele>
        <time>2022-02-24T08:10:57Z</time>
      </trkpt>
      <trkpt lat="46.41913" lon="5.58715">
        <ele>411</ele>
        <time>2022-02-24T08:10:58Z</time>
      </trkpt>
      <trkpt lat="46.41907" lon="5.58721">
        <ele>411</ele>
        <time>2022-02-24T08:10:59Z</time>
      </trkpt>
      <trkpt lat="46.41901" lon="5.58726">
        <ele>410.8</ele>
        <time>2022-02-24T08:11:00Z</time>
      </trkpt>
      <trkpt lat="46.41896" lon="5.58731">
        <ele>410.8</ele>
        <time>2022-02-24T08:11:01Z</time>
      </trkpt>
      <trkpt lat="46.4189" lon="5.58735">
        <ele>410.8</ele>
        <time>2022-02-24T08:11:02Z</time>
      </trkpt>
      <trkpt lat="46.41884" lon="5.58738">
        <ele>410.8</ele>
        <time>2022-02-24T08:11:03Z</time>
      </trkpt>
      <trkpt lat="46.41878" lon="5.58741">
        <ele>410.8</ele>
        <time>2022-02-24T08:11:04Z</time>
      </trkpt>
      <trkpt lat="46.41873" lon="5.58743">
        <ele>411</ele>
        <time>2022-02-24T08:11:05Z</time>
      </trkpt>
      <trkpt lat="46.41868" lon="5.58744">
        <ele>411</ele>
        <time>2022-02-24T08:11:06Z</time>
      </trkpt>
      <trkpt lat="46.41863" lon="5.58745">
        <ele>411.4</ele>
        <time>2022-02-24T08:11:07Z</time>
      </trkpt>
      <trkpt lat="46.41859" lon="5.58746">
        <ele>411.6</ele>
        <time>2022-02-24T08:11:08Z</time>
      </trkpt>
      <trkpt lat="46.41855" lon="5.58747">
        <ele>412</ele>
        <time>2022-02-24T08:11:09Z</time>
      </trkpt>
      <trkpt lat="46.41851" lon="5.58748">
        <ele>412.2</ele>
        <time>2022-02-24T08:11:10Z</time>
      </trkpt>
      <trkpt lat="46.41847" lon="5.58749">
        <ele>412.4</ele>
        <time>2022-02-24T08:11:11Z</time>
      </trkpt>
      <trkpt lat="46.41844" lon="5.5875">
        <ele>412.4</ele>
        <time>2022-02-24T08:11:12Z</time>
      </trkpt>
      <trkpt lat="46.4184" lon="5.5875">
        <ele>412.8</ele>
        <time>2022-02-24T08:11:13Z</time>
      </trkpt>
      <trkpt lat="46.41837" lon="5.58751">
        <ele>412.8</ele>
        <time>2022-02-24T08:11:14Z</time>
      </trkpt>
      <trkpt lat="46.41834" lon="5.58751">
        <ele>413.2</ele>
        <time>2022-02-24T08:11:15Z</time>
      </trkpt>
      <trkpt lat="46.4183" lon="5.58752">
        <ele>413.6</ele>
        <time>2022-02-24T08:11:16Z</time>
      </trkpt>
      <trkpt lat="46.41826" lon="5.58752">
        <ele>413.8</ele>
        <time>2022-02-24T08:11:17Z</time>
      </trkpt>
      <trkpt lat="46.41823" lon="5.58753">
        <ele>413.8</ele>
        <time>2022-02-24T08:11:18Z</time>
      </trkpt>
      <trkpt lat="46.41819" lon="5.58754">
        <ele>414</ele>
        <time>2022-02-24T08:11:19Z</time>
      </trkpt>
      <trkpt lat="46.41816" lon="5.58755">
        <ele>414.4</ele>
        <time>2022-02-24T08:11:20Z</time>
      </trkpt>
      <trkpt lat="46.41813" lon="5.58755">
        <ele>414.6</ele>
        <time>2022-02-24T08:11:21Z</time>
      </trkpt>
      <trkpt lat="46.41809" lon="5.58756">
        <ele>414.6</ele>
        <time>2022-02-24T08:11:22Z</time>
      </trkpt>
      <trkpt lat="46.41806" lon="5.58756">
        <ele>415</ele>
        <time>2022-02-24T08:11:23Z</time>
      </trkpt>
      <trkpt lat="46.41802" lon="5.58756">
        <ele>415.2</ele>
        <time>2022-02-24T08:11:24Z</time>
      </trkpt>
      <trkpt lat="46.41799" lon="5.58756">
        <ele>415.4</ele>
        <time>2022-02-24T08:11:25Z</time>
      </trkpt>
      <trkpt lat="46.41796" lon="5.58756">
        <ele>415.8</ele>
        <time>2022-02-24T08:11:26Z</time>
      </trkpt>
      <trkpt lat="46.41794" lon="5.58756">
        <ele>416</ele>
        <time>2022-02-24T08:11:27Z</time>
      </trkpt>
      <trkpt lat="46.41791" lon="5.58756">
        <ele>416.2</ele>
        <time>2022-02-24T08:11:28Z</time>
      </trkpt>
      <trkpt lat="46.41787" lon="5.58756">
        <ele>416.2</ele>
        <time>2022-02-24T08:11:29Z</time>
      </trkpt>
      <trkpt lat="46.41784" lon="5.58756">
        <ele>416.6</ele>
        <time>2022-02-24T08:11:30Z</time>
      </trkpt>
      <trkpt lat="46.41781" lon="5.58756">
        <ele>416.6</ele>
        <time>2022-02-24T08:11:31Z</time>
      </trkpt>
      <trkpt lat="46.41778" lon="5.58755">
        <ele>417</ele>
        <time>2022-02-24T08:11:32Z</time>
      </trkpt>
      <trkpt lat="46.41775" lon="5.58755">
        <ele>417.2</ele>
        <time>2022-02-24T08:11:33Z</time>
      </trkpt>
      <trkpt lat="46.41772" lon="5.58754">
        <ele>417.2</ele>
        <time>2022-02-24T08:11:34Z</time>
      </trkpt>
      <trkpt lat="46.41769" lon="5.58754">
        <ele>417.6</ele>
        <time>2022-02-24T08:11:35Z</time>
      </trkpt>
      <trkpt lat="46.41765" lon="5.58754">
        <ele>417.8</ele>
        <time>2022-02-24T08:11:36Z</time>
      </trkpt>
      <trkpt lat="46.41762" lon="5.58753">
        <ele>418</ele>
        <time>2022-02-24T08:11:37Z</time>
      </trkpt>
      <trkpt lat="46.41758" lon="5.58753">
        <ele>418</ele>
        <time>2022-02-24T08:11:38Z</time>
      </trkpt>
      <trkpt lat="46.41755" lon="5.58752">
        <ele>418.2</ele>
        <time>2022-02-24T08:11:39Z</time>
      </trkpt>
      <trkpt lat="46.41751" lon="5.58752">
        <ele>418.2</ele>
        <time>2022-02-24T08:11:40Z</time>
      </trkpt>
      <trkpt lat="46.41748" lon="5.58751">
        <ele>418.6</ele>
        <time>2022-02-24T08:11:41Z</time>
      </trkpt>
      <trkpt lat="46.41745" lon="5.58751">
        <ele>418.8</ele>
        <time>2022-02-24T08:11:42Z</time>
      </trkpt>
      <trkpt lat="46.41741" lon="5.5875">
        <ele>418.8</ele>
        <time>2022-02-24T08:11:43Z</time>
      </trkpt>
      <trkpt lat="46.41738" lon="5.5875">
        <ele>419.2</ele>
        <time>2022-02-24T08:11:44Z</time>
      </trkpt>
      <trkpt lat="46.41738" lon="5.5875">
        <ele>419.2</ele>
        <time>2022-02-24T08:11:45Z</time>
      </trkpt>
      <trkpt lat="46.41735" lon="5.58749">
        <ele>419.6</ele>
        <time>2022-02-24T08:11:46Z</time>
      </trkpt>
      <trkpt lat="46.41731" lon="5.58749">
        <ele>419.6</ele>
        <time>2022-02-24T08:11:47Z</time>
      </trkpt>
      <trkpt lat="46.41728" lon="5.58748">
        <ele>420</ele>
        <time>2022-02-24T08:11:48Z</time>
      </trkpt>
      <trkpt lat="46.41724" lon="5.58747">
        <ele>420</ele>
        <time>2022-02-24T08:11:49Z</time>
      </trkpt>
      <trkpt lat="46.41721" lon="5.58746">
        <ele>420</ele>
        <time>2022-02-24T08:11:50Z</time>
      </trkpt>
      <trkpt lat="46.41717" lon="5.58745">
        <ele>420.2</ele>
        <time>2022-02-24T08:11:51Z</time>
      </trkpt>
      <trkpt lat="46.41713" lon="5.58745">
        <ele>420.2</ele>
        <time>2022-02-24T08:11:52Z</time>
      </trkpt>
      <trkpt lat="46.4171" lon="5.58743">
        <ele>420.2</ele>
        <time>2022-02-24T08:11:53Z</time>
      </trkpt>
      <trkpt lat="46.41706" lon="5.58742">
        <ele>420.4</ele>
        <time>2022-02-24T08:11:54Z</time>
      </trkpt>
      <trkpt lat="46.41703" lon="5.58741">
        <ele>420.8</ele>
        <time>2022-02-24T08:11:55Z</time>
      </trkpt>
      <trkpt lat="46.41699" lon="5.5874">
        <ele>420.8</ele>
        <time>2022-02-24T08:11:56Z</time>
      </trkpt>
      <trkpt lat="46.41695" lon="5.58739">
        <ele>421</ele>
        <time>2022-02-24T08:11:57Z</time>
      </trkpt>
      <trkpt lat="46.41691" lon="5.58737">
        <ele>421</ele>
        <time>2022-02-24T08:11:58Z</time>
      </trkpt>
      <trkpt lat="46.41687" lon="5.58736">
        <ele>421.2</ele>
        <time>2022-02-24T08:11:59Z</time>
      </trkpt>
      <trkpt lat="46.41683" lon="5.58734">
        <ele>421.2</ele>
        <time>2022-02-24T08:12:00Z</time>
      </trkpt>
      <trkpt lat="46.41679" lon="5.58733">
        <ele>421.2</ele>
        <time>2022-02-24T08:12:01Z</time>
      </trkpt>
      <trkpt lat="46.41675" lon="5.58731">
        <ele>421.6</ele>
        <time>2022-02-24T08:12:02Z</time>
      </trkpt>
      <trkpt lat="46.41671" lon="5.58729">
        <ele>421.8</ele>
        <time>2022-02-24T08:12:03Z</time>
      </trkpt>
      <trkpt lat="46.41667" lon="5.58728">
        <ele>422</ele>
        <time>2022-02-24T08:12:04Z</time>
      </trkpt>
      <trkpt lat="46.41663" lon="5.58727">
        <ele>422</ele>
        <time>2022-02-24T08:12:05Z</time>
      </trkpt>
      <trkpt lat="46.41659" lon="5.58725">
        <ele>422.2</ele>
        <time>2022-02-24T08:12:06Z</time>
      </trkpt>
      <trkpt lat="46.41655" lon="5.58724">
        <ele>422.2</ele>
        <time>2022-02-24T08:12:07Z</time>
      </trkpt>
      <trkpt lat="46.41651" lon="5.58722">
        <ele>422.4</ele>
        <time>2022-02-24T08:12:08Z</time>
      </trkpt>
      <trkpt lat="46.41647" lon="5.5872">
        <ele>422.4</ele>
        <time>2022-02-24T08:12:09Z</time>
      </trkpt>
      <trkpt lat="46.41643" lon="5.58718">
        <ele>422.4</ele>
        <time>2022-02-24T08:12:10Z</time>
      </trkpt>
      <trkpt lat="46.41639" lon="5.58716">
        <ele>422.8</ele>
        <time>2022-02-24T08:12:11Z</time>
      </trkpt>
      <trkpt lat="46.41635" lon="5.58714">
        <ele>422.8</ele>
        <time>2022-02-24T08:12:12Z</time>
      </trkpt>
      <trkpt lat="46.4163" lon="5.58712">
        <ele>423</ele>
        <time>2022-02-24T08:12:13Z</time>
      </trkpt>
      <trkpt lat="46.41626" lon="5.5871">
        <ele>423</ele>
        <time>2022-02-24T08:12:14Z</time>
      </trkpt>
      <trkpt lat="46.41622" lon="5.58708">
        <ele>423</ele>
        <time>2022-02-24T08:12:15Z</time>
      </trkpt>
      <trkpt lat="46.41617" lon="5.58706">
        <ele>423</ele>
        <time>2022-02-24T08:12:16Z</time>
      </trkpt>
      <trkpt lat="46.41613" lon="5.58704">
        <ele>423</ele>
        <time>2022-02-24T08:12:17Z</time>
      </trkpt>
      <trkpt lat="46.41608" lon="5.58702">
        <ele>423.2</ele>
        <time>2022-02-24T08:12:18Z</time>
      </trkpt>
      <trkpt lat="46.41604" lon="5.587">
        <ele>423.2</ele>
        <time>2022-02-24T08:12:19Z</time>
      </trkpt>
      <trkpt lat="46.41599" lon="5.58697">
        <ele>423.2</ele>
        <time>2022-02-24T08:12:20Z</time>
      </trkpt>
      <trkpt lat="46.41594" lon="5.58695">
        <ele>423.2</ele>
        <time>2022-02-24T08:12:21Z</time>
      </trkpt>
      <trkpt lat="46.41589" lon="5.58693">
        <ele>423.2</ele>
        <time>2022-02-24T08:12:22Z</time>
      </trkpt>
      <trkpt lat="46.41585" lon="5.58691">
        <ele>423.2</ele>
        <time>2022-02-24T08:12:23Z</time>
      </trkpt>
      <trkpt lat="46.4158" lon="5.58689">
        <ele>423.2</ele>
        <time>2022-02-24T08:12:24Z</time>
      </trkpt>
      <trkpt lat="46.41575" lon="5.58687">
        <ele>423.6</ele>
        <time>2022-02-24T08:12:25Z</time>
      </trkpt>
      <trkpt lat="46.4157" lon="5.58684">
        <ele>423.6</ele>
        <time>2022-02-24T08:12:26Z</time>
      </trkpt>
      <trkpt lat="46.41565" lon="5.58682">
        <ele>423.6</ele>
        <time>2022-02-24T08:12:27Z</time>
      </trkpt>
      <trkpt lat="46.4156" lon="5.5868">
        <ele>423.8</ele>
        <time>2022-02-24T08:12:28Z</time>
      </trkpt>
      <trkpt lat="46.41555" lon="5.58678">
        <ele>423.8</ele>
        <time>2022-02-24T08:12:29Z</time>
      </trkpt>
      <trkpt lat="46.4155" lon="5.58675">
        <ele>424</ele>
        <time>2022-02-24T08:12:30Z</time>
      </trkpt>
      <trkpt lat="46.41545" lon="5.58673">
        <ele>424</ele>
        <time>2022-02-24T08:12:31Z</time>
      </trkpt>
      <trkpt lat="46.4154" lon="5.58671">
        <ele>424</ele>
        <time>2022-02-24T08:12:32Z</time>
      </trkpt>
      <trkpt lat="46.41534" lon="5.58669">
        <ele>424</ele>
        <time>2022-02-24T08:12:33Z</time>
      </trkpt>
      <trkpt lat="46.41529" lon="5.58666">
        <ele>424</ele>
        <time>2022-02-24T08:12:34Z</time>
      </trkpt>
      <trkpt lat="46.41524" lon="5.58664">
        <ele>424</ele>
        <time>2022-02-24T08:12:35Z</time>
      </trkpt>
      <trkpt lat="46.41518" lon="5.58661">
        <ele>424</ele>
        <time>2022-02-24T08:12:36Z</time>
      </trkpt>
      <trkpt lat="46.41512" lon="5.58659">
        <ele>424</ele>
        <time>2022-02-24T08:12:37Z</time>
      </trkpt>
      <trkpt lat="46.41506" lon="5.58658">
        <ele>423.8</ele>
        <time>2022-02-24T08:12:38Z</time>
      </trkpt>
      <trkpt lat="46.41499" lon="5.58659">
        <ele>423.4</ele>
        <time>2022-02-24T08:12:39Z</time>
      </trkpt>
      <trkpt lat="46.41493" lon="5.5866">
        <ele>423.2</ele>
        <time>2022-02-24T08:12:40Z</time>
      </trkpt>
      <trkpt lat="46.41486" lon="5.58662">
        <ele>422.8</ele>
        <time>2022-02-24T08:12:41Z</time>
      </trkpt>
      <trkpt lat="46.4148" lon="5.58666">
        <ele>422.4</ele>
        <time>2022-02-24T08:12:42Z</time>
      </trkpt>
      <trkpt lat="46.41473" lon="5.5867">
        <ele>422</ele>
        <time>2022-02-24T08:12:43Z</time>
      </trkpt>
      <trkpt lat="46.41466" lon="5.58674">
        <ele>421.6</ele>
        <time>2022-02-24T08:12:44Z</time>
      </trkpt>
      <trkpt lat="46.41459" lon="5.58679">
        <ele>421.2</ele>
        <time>2022-02-24T08:12:45Z</time>
      </trkpt>
      <trkpt lat="46.41451" lon="5.58684">
        <ele>420.6</ele>
        <time>2022-02-24T08:12:46Z</time>
      </trkpt>
      <trkpt lat="46.41444" lon="5.58689">
        <ele>420.2</ele>
        <time>2022-02-24T08:12:47Z</time>
      </trkpt>
      <trkpt lat="46.41436" lon="5.58694">
        <ele>419.6</ele>
        <time>2022-02-24T08:12:48Z</time>
      </trkpt>
      <trkpt lat="46.41428" lon="5.58699">
        <ele>419</ele>
        <time>2022-02-24T08:12:49Z</time>
      </trkpt>
      <trkpt lat="46.4142" lon="5.58704">
        <ele>418.4</ele>
        <time>2022-02-24T08:12:50Z</time>
      </trkpt>
      <trkpt lat="46.41411" lon="5.5871">
        <ele>417.8</ele>
        <time>2022-02-24T08:12:51Z</time>
      </trkpt>
      <trkpt lat="46.41402" lon="5.58716">
        <ele>417.2</ele>
        <time>2022-02-24T08:12:52Z</time>
      </trkpt>
      <trkpt lat="46.41394" lon="5.58721">
        <ele>416.8</ele>
        <time>2022-02-24T08:12:53Z</time>
      </trkpt>
      <trkpt lat="46.41385" lon="5.58726">
        <ele>416.4</ele>
        <time>2022-02-24T08:12:54Z</time>
      </trkpt>
      <trkpt lat="46.41377" lon="5.58732">
        <ele>415.8</ele>
        <time>2022-02-24T08:12:55Z</time>
      </trkpt>
      <trkpt lat="46.4137" lon="5.58736">
        <ele>415.6</ele>
        <time>2022-02-24T08:12:56Z</time>
      </trkpt>
      <trkpt lat="46.41363" lon="5.58739">
        <ele>415.6</ele>
        <time>2022-02-24T08:12:57Z</time>
      </trkpt>
      <trkpt lat="46.41357" lon="5.58739">
        <ele>415.4</ele>
        <time>2022-02-24T08:12:58Z</time>
      </trkpt>
      <trkpt lat="46.41351" lon="5.58738">
        <ele>415.4</ele>
        <time>2022-02-24T08:12:59Z</time>
      </trkpt>
      <trkpt lat="46.41348" lon="5.58732">
        <ele>415.4</ele>
        <time>2022-02-24T08:13:00Z</time>
      </trkpt>
      <trkpt lat="46.41347" lon="5.58726">
        <ele>415.4</ele>
        <time>2022-02-24T08:13:01Z</time>
      </trkpt>
      <trkpt lat="46.41347" lon="5.58719">
        <ele>415.4</ele>
        <time>2022-02-24T08:13:02Z</time>
      </trkpt>
      <trkpt lat="46.41347" lon="5.58713">
        <ele>415.8</ele>
        <time>2022-02-24T08:13:03Z</time>
      </trkpt>
      <trkpt lat="46.41349" lon="5.58708">
        <ele>416</ele>
        <time>2022-02-24T08:13:04Z</time>
      </trkpt>
      <trkpt lat="46.41351" lon="5.58703">
        <ele>416</ele>
        <time>2022-02-24T08:13:05Z</time>
      </trkpt>
      <trkpt lat="46.41353" lon="5.58698">
        <ele>416.4</ele>
        <time>2022-02-24T08:13:06Z</time>
      </trkpt>
      <trkpt lat="46.41355" lon="5.58694">
        <ele>416.6</ele>
        <time>2022-02-24T08:13:07Z</time>
      </trkpt>
      <trkpt lat="46.41357" lon="5.5869">
        <ele>416.8</ele>
        <time>2022-02-24T08:13:08Z</time>
      </trkpt>
      <trkpt lat="46.4136" lon="5.58685">
        <ele>417.2</ele>
        <time>2022-02-24T08:13:09Z</time>
      </trkpt>
      <trkpt lat="46.41362" lon="5.58681">
        <ele>417.2</ele>
        <time>2022-02-24T08:13:10Z</time>
      </trkpt>
      <trkpt lat="46.41364" lon="5.58678">
        <ele>417.6</ele>
        <time>2022-02-24T08:13:11Z</time>
      </trkpt>
      <trkpt lat="46.41366" lon="5.58674">
        <ele>417.8</ele>
        <time>2022-02-24T08:13:12Z</time>
      </trkpt>
      <trkpt lat="46.41368" lon="5.5867">
        <ele>418</ele>
        <time>2022-02-24T08:13:13Z</time>
      </trkpt>
      <trkpt lat="46.41369" lon="5.58666">
        <ele>418</ele>
        <time>2022-02-24T08:13:14Z</time>
      </trkpt>
      <trkpt lat="46.41371" lon="5.58662">
        <ele>418.4</ele>
        <time>2022-02-24T08:13:15Z</time>
      </trkpt>
      <trkpt lat="46.41373" lon="5.58658">
        <ele>418.8</ele>
        <time>2022-02-24T08:13:16Z</time>
      </trkpt>
      <trkpt lat="46.41375" lon="5.58654">
        <ele>418.8</ele>
        <time>2022-02-24T08:13:17Z</time>
      </trkpt>
      <trkpt lat="46.41376" lon="5.5865">
        <ele>419</ele>
        <time>2022-02-24T08:13:18Z</time>
      </trkpt>
      <trkpt lat="46.41378" lon="5.58646">
        <ele>419</ele>
        <time>2022-02-24T08:13:19Z</time>
      </trkpt>
      <trkpt lat="46.41379" lon="5.58642">
        <ele>419.6</ele>
        <time>2022-02-24T08:13:20Z</time>
      </trkpt>
      <trkpt lat="46.41381" lon="5.58638">
        <ele>419.8</ele>
        <time>2022-02-24T08:13:21Z</time>
      </trkpt>
      <trkpt lat="46.41382" lon="5.58633">
        <ele>420</ele>
        <time>2022-02-24T08:13:22Z</time>
      </trkpt>
      <trkpt lat="46.41383" lon="5.58629">
        <ele>420</ele>
        <time>2022-02-24T08:13:23Z</time>
      </trkpt>
      <trkpt lat="46.41384" lon="5.58625">
        <ele>420.6</ele>
        <time>2022-02-24T08:13:24Z</time>
      </trkpt>
      <trkpt lat="46.41385" lon="5.58621">
        <ele>420.8</ele>
        <time>2022-02-24T08:13:25Z</time>
      </trkpt>
      <trkpt lat="46.41386" lon="5.58617">
        <ele>421</ele>
        <time>2022-02-24T08:13:26Z</time>
      </trkpt>
      <trkpt lat="46.41387" lon="5.58613">
        <ele>421.2</ele>
        <time>2022-02-24T08:13:27Z</time>
      </trkpt>
      <trkpt lat="46.41388" lon="5.58609">
        <ele>421.2</ele>
        <time>2022-02-24T08:13:28Z</time>
      </trkpt>
      <trkpt lat="46.41389" lon="5.58606">
        <ele>421.6</ele>
        <time>2022-02-24T08:13:29Z</time>
      </trkpt>
      <trkpt lat="46.4139" lon="5.58602">
        <ele>421.6</ele>
        <time>2022-02-24T08:13:30Z</time>
      </trkpt>
      <trkpt lat="46.4139" lon="5.58598">
        <ele>422</ele>
        <time>2022-02-24T08:13:31Z</time>
      </trkpt>
      <trkpt lat="46.41391" lon="5.58594">
        <ele>422</ele>
        <time>2022-02-24T08:13:32Z</time>
      </trkpt>
      <trkpt lat="46.41392" lon="5.58589">
        <ele>422.4</ele>
        <time>2022-02-24T08:13:33Z</time>
      </trkpt>
      <trkpt lat="46.41393" lon="5.58585">
        <ele>422.4</ele>
        <time>2022-02-24T08:13:34Z</time>
      </trkpt>
      <trkpt lat="46.41394" lon="5.58582">
        <ele>422.8</ele>
        <time>2022-02-24T08:13:35Z</time>
      </trkpt>
      <trkpt lat="46.41395" lon="5.58578">
        <ele>423</ele>
        <time>2022-02-24T08:13:36Z</time>
      </trkpt>
      <trkpt lat="46.41395" lon="5.58574">
        <ele>423.2</ele>
        <time>2022-02-24T08:13:37Z</time>
      </trkpt>
      <trkpt lat="46.41396" lon="5.5857">
        <ele>423.6</ele>
        <time>2022-02-24T08:13:38Z</time>
      </trkpt>
      <trkpt lat="46.41397" lon="5.58567">
        <ele>423.8</ele>
        <time>2022-02-24T08:13:39Z</time>
      </trkpt>
      <trkpt lat="46.41398" lon="5.58563">
        <ele>424</ele>
        <time>2022-02-24T08:13:40Z</time>
      </trkpt>
      <trkpt lat="46.41399" lon="5.5856">
        <ele>424.2</ele>
        <time>2022-02-24T08:13:41Z</time>
      </trkpt>
      <trkpt lat="46.414" lon="5.58557">
        <ele>424.6</ele>
        <time>2022-02-24T08:13:42Z</time>
      </trkpt>
      <trkpt lat="46.414" lon="5.58553">
        <ele>424.8</ele>
        <time>2022-02-24T08:13:43Z</time>
      </trkpt>
      <trkpt lat="46.41401" lon="5.58549">
        <ele>424.8</ele>
        <time>2022-02-24T08:13:44Z</time>
      </trkpt>
      <trkpt lat="46.41402" lon="5.58545">
        <ele>425</ele>
        <time>2022-02-24T08:13:45Z</time>
      </trkpt>
      <trkpt lat="46.41402" lon="5.5854">
        <ele>425</ele>
        <time>2022-02-24T08:13:46Z</time>
      </trkpt>
      <trkpt lat="46.41403" lon="5.58536">
        <ele>425.4</ele>
        <time>2022-02-24T08:13:47Z</time>
      </trkpt>
      <trkpt lat="46.41403" lon="5.58532">
        <ele>425.4</ele>
        <time>2022-02-24T08:13:48Z</time>
      </trkpt>
      <trkpt lat="46.41402" lon="5.58528">
        <ele>425.8</ele>
        <time>2022-02-24T08:13:49Z</time>
      </trkpt>
      <trkpt lat="46.41402" lon="5.58524">
        <ele>425.8</ele>
        <time>2022-02-24T08:13:50Z</time>
      </trkpt>
      <trkpt lat="46.41401" lon="5.5852">
        <ele>426.2</ele>
        <time>2022-02-24T08:13:51Z</time>
      </trkpt>
      <trkpt lat="46.414" lon="5.58516">
        <ele>426.2</ele>
        <time>2022-02-24T08:13:52Z</time>
      </trkpt>
      <trkpt lat="46.41399" lon="5.58512">
        <ele>426.4</ele>
        <time>2022-02-24T08:13:53Z</time>
      </trkpt>
      <trkpt lat="46.41398" lon="5.58508">
        <ele>426.6</ele>
        <time>2022-02-24T08:13:54Z</time>
      </trkpt>
      <trkpt lat="46.41396" lon="5.58504">
        <ele>426.6</ele>
        <time>2022-02-24T08:13:55Z</time>
      </trkpt>
      <trkpt lat="46.41394" lon="5.585">
        <ele>426.8</ele>
        <time>2022-02-24T08:13:56Z</time>
      </trkpt>
      <trkpt lat="46.41393" lon="5.58497">
        <ele>426.8</ele>
        <time>2022-02-24T08:13:57Z</time>
      </trkpt>
      <trkpt lat="46.41391" lon="5.58493">
        <ele>427</ele>
        <time>2022-02-24T08:13:58Z</time>
      </trkpt>
      <trkpt lat="46.41388" lon="5.5849">
        <ele>427</ele>
        <time>2022-02-24T08:13:59Z</time>
      </trkpt>
      <trkpt lat="46.41386" lon="5.58487">
        <ele>427.4</ele>
        <time>2022-02-24T08:14:00Z</time>
      </trkpt>
      <trkpt lat="46.41384" lon="5.58484">
        <ele>427.4</ele>
        <time>2022-02-24T08:14:01Z</time>
      </trkpt>
      <trkpt lat="46.41382" lon="5.58481">
        <ele>427.8</ele>
        <time>2022-02-24T08:14:02Z</time>
      </trkpt>
      <trkpt lat="46.41379" lon="5.58478">
        <ele>427.8</ele>
        <time>2022-02-24T08:14:03Z</time>
      </trkpt>
      <trkpt lat="46.41377" lon="5.58475">
        <ele>428</ele>
        <time>2022-02-24T08:14:04Z</time>
      </trkpt>
      <trkpt lat="46.41375" lon="5.58471">
        <ele>428</ele>
        <time>2022-02-24T08:14:05Z</time>
      </trkpt>
      <trkpt lat="46.41373" lon="5.58468">
        <ele>428</ele>
        <time>2022-02-24T08:14:06Z</time>
      </trkpt>
      <trkpt lat="46.41371" lon="5.58464">
        <ele>428</ele>
        <time>2022-02-24T08:14:07Z</time>
      </trkpt>
      <trkpt lat="46.41368" lon="5.58461">
        <ele>428</ele>
        <time>2022-02-24T08:14:08Z</time>
      </trkpt>
      <trkpt lat="46.41366" lon="5.58457">
        <ele>428.2</ele>
        <time>2022-02-24T08:14:09Z</time>
      </trkpt>
      <trkpt lat="46.41363" lon="5.58454">
        <ele>428.2</ele>
        <time>2022-02-24T08:14:10Z</time>
      </trkpt>
      <trkpt lat="46.41361" lon="5.5845">
        <ele>428.6</ele>
        <time>2022-02-24T08:14:11Z</time>
      </trkpt>
      <trkpt lat="46.41358" lon="5.58447">
        <ele>428.6</ele>
        <time>2022-02-24T08:14:12Z</time>
      </trkpt>
      <trkpt lat="46.41355" lon="5.58443">
        <ele>428.6</ele>
        <time>2022-02-24T08:14:13Z</time>
      </trkpt>
      <trkpt lat="46.41352" lon="5.58439">
        <ele>428.6</ele>
        <time>2022-02-24T08:14:14Z</time>
      </trkpt>
      <trkpt lat="46.41349" lon="5.58435">
        <ele>428.6</ele>
        <time>2022-02-24T08:14:15Z</time>
      </trkpt>
      <trkpt lat="46.41346" lon="5.58431">
        <ele>428.6</ele>
        <time>2022-02-24T08:14:16Z</time>
      </trkpt>
      <trkpt lat="46.41343" lon="5.58426">
        <ele>428.6</ele>
        <time>2022-02-24T08:14:18Z</time>
      </trkpt>
      <trkpt lat="46.41339" lon="5.58421">
        <ele>428.6</ele>
        <time>2022-02-24T08:14:19Z</time>
      </trkpt>
      <trkpt lat="46.41336" lon="5.58416">
        <ele>428.6</ele>
        <time>2022-02-24T08:14:20Z</time>
      </trkpt>
      <trkpt lat="46.41332" lon="5.58411">
        <ele>428.6</ele>
        <time>2022-02-24T08:14:21Z</time>
      </trkpt>
      <trkpt lat="46.41328" lon="5.58405">
        <ele>428.6</ele>
        <time>2022-02-24T08:14:22Z</time>
      </trkpt>
      <trkpt lat="46.41324" lon="5.584">
        <ele>428.6</ele>
        <time>2022-02-24T08:14:23Z</time>
      </trkpt>
      <trkpt lat="46.4132" lon="5.58394">
        <ele>428.6</ele>
        <time>2022-02-24T08:14:24Z</time>
      </trkpt>
      <trkpt lat="46.41316" lon="5.58388">
        <ele>428.2</ele>
        <time>2022-02-24T08:14:25Z</time>
      </trkpt>
      <trkpt lat="46.41312" lon="5.58383">
        <ele>428.2</ele>
        <time>2022-02-24T08:14:26Z</time>
      </trkpt>
      <trkpt lat="46.41308" lon="5.58377">
        <ele>428.2</ele>
        <time>2022-02-24T08:14:27Z</time>
      </trkpt>
      <trkpt lat="46.41305" lon="5.58372">
        <ele>428</ele>
        <time>2022-02-24T08:14:28Z</time>
      </trkpt>
      <trkpt lat="46.41301" lon="5.58366">
        <ele>428</ele>
        <time>2022-02-24T08:14:29Z</time>
      </trkpt>
      <trkpt lat="46.41297" lon="5.5836">
        <ele>428</ele>
        <time>2022-02-24T08:14:30Z</time>
      </trkpt>
      <trkpt lat="46.41293" lon="5.58354">
        <ele>428</ele>
        <time>2022-02-24T08:14:31Z</time>
      </trkpt>
      <trkpt lat="46.41289" lon="5.58349">
        <ele>427.8</ele>
        <time>2022-02-24T08:14:32Z</time>
      </trkpt>
      <trkpt lat="46.41285" lon="5.58343">
        <ele>427.8</ele>
        <time>2022-02-24T08:14:33Z</time>
      </trkpt>
      <trkpt lat="46.41282" lon="5.58338">
        <ele>427.8</ele>
        <time>2022-02-24T08:14:34Z</time>
      </trkpt>
      <trkpt lat="46.41278" lon="5.58333">
        <ele>427.8</ele>
        <time>2022-02-24T08:14:35Z</time>
      </trkpt>
      <trkpt lat="46.41274" lon="5.58327">
        <ele>428</ele>
        <time>2022-02-24T08:14:36Z</time>
      </trkpt>
      <trkpt lat="46.41271" lon="5.58322">
        <ele>428</ele>
        <time>2022-02-24T08:14:37Z</time>
      </trkpt>
      <trkpt lat="46.41267" lon="5.58317">
        <ele>428</ele>
        <time>2022-02-24T08:14:38Z</time>
      </trkpt>
      <trkpt lat="46.41264" lon="5.58311">
        <ele>428</ele>
        <time>2022-02-24T08:14:39Z</time>
      </trkpt>
      <trkpt lat="46.41261" lon="5.58305">
        <ele>428.2</ele>
        <time>2022-02-24T08:14:40Z</time>
      </trkpt>
      <trkpt lat="46.41257" lon="5.583">
        <ele>428.2</ele>
        <time>2022-02-24T08:14:41Z</time>
      </trkpt>
      <trkpt lat="46.41251" lon="5.58289">
        <ele>428.4</ele>
        <time>2022-02-24T08:14:42Z</time>
      </trkpt>
      <trkpt lat="46.41248" lon="5.58283">
        <ele>428.4</ele>
        <time>2022-02-24T08:14:43Z</time>
      </trkpt>
      <trkpt lat="46.41245" lon="5.58277">
        <ele>428.4</ele>
        <time>2022-02-24T08:14:44Z</time>
      </trkpt>
      <trkpt lat="46.41242" lon="5.58272">
        <ele>428.4</ele>
        <time>2022-02-24T08:14:45Z</time>
      </trkpt>
      <trkpt lat="46.41239" lon="5.58267">
        <ele>428.4</ele>
        <time>2022-02-24T08:14:46Z</time>
      </trkpt>
      <trkpt lat="46.41237" lon="5.58262">
        <ele>428.6</ele>
        <time>2022-02-24T08:14:47Z</time>
      </trkpt>
      <trkpt lat="46.41235" lon="5.58256">
        <ele>428.6</ele>
        <time>2022-02-24T08:14:48Z</time>
      </trkpt>
      <trkpt lat="46.41233" lon="5.58251">
        <ele>429</ele>
        <time>2022-02-24T08:14:49Z</time>
      </trkpt>
      <trkpt lat="46.41231" lon="5.58246">
        <ele>429</ele>
        <time>2022-02-24T08:14:50Z</time>
      </trkpt>
      <trkpt lat="46.41229" lon="5.58241">
        <ele>429.4</ele>
        <time>2022-02-24T08:14:51Z</time>
      </trkpt>
      <trkpt lat="46.41227" lon="5.58236">
        <ele>429.4</ele>
        <time>2022-02-24T08:14:52Z</time>
      </trkpt>
      <trkpt lat="46.41225" lon="5.58231">
        <ele>429.4</ele>
        <time>2022-02-24T08:14:53Z</time>
      </trkpt>
      <trkpt lat="46.41223" lon="5.58225">
        <ele>429.6</ele>
        <time>2022-02-24T08:14:54Z</time>
      </trkpt>
      <trkpt lat="46.41221" lon="5.5822">
        <ele>429.6</ele>
        <time>2022-02-24T08:14:55Z</time>
      </trkpt>
      <trkpt lat="46.41219" lon="5.58215">
        <ele>429.6</ele>
        <time>2022-02-24T08:14:56Z</time>
      </trkpt>
      <trkpt lat="46.41217" lon="5.5821">
        <ele>429.6</ele>
        <time>2022-02-24T08:14:57Z</time>
      </trkpt>
      <trkpt lat="46.41215" lon="5.58205">
        <ele>429.6</ele>
        <time>2022-02-24T08:14:58Z</time>
      </trkpt>
      <trkpt lat="46.41213" lon="5.58201">
        <ele>429.8</ele>
        <time>2022-02-24T08:14:59Z</time>
      </trkpt>
      <trkpt lat="46.41211" lon="5.58196">
        <ele>429.8</ele>
        <time>2022-02-24T08:15:00Z</time>
      </trkpt>
      <trkpt lat="46.41209" lon="5.58192">
        <ele>429.8</ele>
        <time>2022-02-24T08:15:01Z</time>
      </trkpt>
      <trkpt lat="46.41207" lon="5.58189">
        <ele>429.8</ele>
        <time>2022-02-24T08:15:02Z</time>
      </trkpt>
      <trkpt lat="46.41205" lon="5.58186">
        <ele>429.8</ele>
        <time>2022-02-24T08:15:03Z</time>
      </trkpt>
      <trkpt lat="46.41203" lon="5.58184">
        <ele>429.8</ele>
        <time>2022-02-24T08:15:04Z</time>
      </trkpt>
      <trkpt lat="46.41202" lon="5.58182">
        <ele>429.8</ele>
        <time>2022-02-24T08:15:05Z</time>
      </trkpt>
      <trkpt lat="46.41201" lon="5.58181">
        <ele>429.8</ele>
        <time>2022-02-24T08:15:06Z</time>
      </trkpt>
      <trkpt lat="46.41201" lon="5.58174">
        <ele>429.6</ele>
        <time>2022-02-24T08:16:00Z</time>
      </trkpt>
      <trkpt lat="46.412" lon="5.58171">
        <ele>429.6</ele>
        <time>2022-02-24T08:16:01Z</time>
      </trkpt>
      <trkpt lat="46.412" lon="5.58168">
        <ele>429.6</ele>
        <time>2022-02-24T08:16:02Z</time>
      </trkpt>
      <trkpt lat="46.41199" lon="5.58164">
        <ele>429.6</ele>
        <time>2022-02-24T08:16:03Z</time>
      </trkpt>
      <trkpt lat="46.41198" lon="5.5816">
        <ele>429.6</ele>
        <time>2022-02-24T08:16:04Z</time>
      </trkpt>
      <trkpt lat="46.41196" lon="5.58155">
        <ele>429.6</ele>
        <time>2022-02-24T08:16:05Z</time>
      </trkpt>
      <trkpt lat="46.41194" lon="5.5815">
        <ele>429.4</ele>
        <time>2022-02-24T08:16:06Z</time>
      </trkpt>
      <trkpt lat="46.41192" lon="5.58145">
        <ele>429.2</ele>
        <time>2022-02-24T08:16:07Z</time>
      </trkpt>
      <trkpt lat="46.41189" lon="5.58139">
        <ele>429.2</ele>
        <time>2022-02-24T08:16:08Z</time>
      </trkpt>
      <trkpt lat="46.41187" lon="5.58133">
        <ele>428.6</ele>
        <time>2022-02-24T08:16:09Z</time>
      </trkpt>
      <trkpt lat="46.41185" lon="5.58126">
        <ele>428.4</ele>
        <time>2022-02-24T08:16:10Z</time>
      </trkpt>
      <trkpt lat="46.41182" lon="5.58119">
        <ele>428.4</ele>
        <time>2022-02-24T08:16:11Z</time>
      </trkpt>
      <trkpt lat="46.41179" lon="5.58112">
        <ele>428</ele>
        <time>2022-02-24T08:16:12Z</time>
      </trkpt>
      <trkpt lat="46.41176" lon="5.58106">
        <ele>427.8</ele>
        <time>2022-02-24T08:16:13Z</time>
      </trkpt>
      <trkpt lat="46.41173" lon="5.58099">
        <ele>427.8</ele>
        <time>2022-02-24T08:16:14Z</time>
      </trkpt>
      <trkpt lat="46.4117" lon="5.58092">
        <ele>427.6</ele>
        <time>2022-02-24T08:16:15Z</time>
      </trkpt>
      <trkpt lat="46.41166" lon="5.58085">
        <ele>427.6</ele>
        <time>2022-02-24T08:16:16Z</time>
      </trkpt>
      <trkpt lat="46.41163" lon="5.58078">
        <ele>427.6</ele>
        <time>2022-02-24T08:16:17Z</time>
      </trkpt>
      <trkpt lat="46.41159" lon="5.58072">
        <ele>427.4</ele>
        <time>2022-02-24T08:16:18Z</time>
      </trkpt>
      <trkpt lat="46.41155" lon="5.58066">
        <ele>427.4</ele>
        <time>2022-02-24T08:16:19Z</time>
      </trkpt>
      <trkpt lat="46.4115" lon="5.58059">
        <ele>427.4</ele>
        <time>2022-02-24T08:16:20Z</time>
      </trkpt>
      <trkpt lat="46.41146" lon="5.58053">
        <ele>427</ele>
        <time>2022-02-24T08:16:21Z</time>
      </trkpt>
      <trkpt lat="46.41142" lon="5.58047">
        <ele>427</ele>
        <time>2022-02-24T08:16:22Z</time>
      </trkpt>
      <trkpt lat="46.41137" lon="5.58041">
        <ele>426.8</ele>
        <time>2022-02-24T08:16:23Z</time>
      </trkpt>
      <trkpt lat="46.41132" lon="5.58036">
        <ele>426.8</ele>
        <time>2022-02-24T08:16:24Z</time>
      </trkpt>
      <trkpt lat="46.41127" lon="5.58031">
        <ele>426.6</ele>
        <time>2022-02-24T08:16:25Z</time>
      </trkpt>
      <trkpt lat="46.41123" lon="5.58026">
        <ele>426.6</ele>
        <time>2022-02-24T08:16:26Z</time>
      </trkpt>
      <trkpt lat="46.41118" lon="5.58021">
        <ele>426.6</ele>
        <time>2022-02-24T08:16:27Z</time>
      </trkpt>
      <trkpt lat="46.41113" lon="5.58016">
        <ele>426.6</ele>
        <time>2022-02-24T08:16:28Z</time>
      </trkpt>
      <trkpt lat="46.41108" lon="5.58012">
        <ele>426.2</ele>
        <time>2022-02-24T08:16:29Z</time>
      </trkpt>
      <trkpt lat="46.41103" lon="5.58007">
        <ele>426.2</ele>
        <time>2022-02-24T08:16:30Z</time>
      </trkpt>
      <trkpt lat="46.41098" lon="5.58003">
        <ele>425.8</ele>
        <time>2022-02-24T08:16:31Z</time>
      </trkpt>
      <trkpt lat="46.41093" lon="5.57999">
        <ele>425.6</ele>
        <time>2022-02-24T08:16:32Z</time>
      </trkpt>
      <trkpt lat="46.41088" lon="5.57995">
        <ele>425.6</ele>
        <time>2022-02-24T08:16:33Z</time>
      </trkpt>
      <trkpt lat="46.41083" lon="5.57991">
        <ele>425.6</ele>
        <time>2022-02-24T08:16:34Z</time>
      </trkpt>
      <trkpt lat="46.41078" lon="5.57987">
        <ele>425.6</ele>
        <time>2022-02-24T08:16:35Z</time>
      </trkpt>
      <trkpt lat="46.41073" lon="5.57982">
        <ele>425.4</ele>
        <time>2022-02-24T08:16:36Z</time>
      </trkpt>
      <trkpt lat="46.41068" lon="5.57978">
        <ele>425.4</ele>
        <time>2022-02-24T08:16:37Z</time>
      </trkpt>
      <trkpt lat="46.41063" lon="5.57974">
        <ele>425.4</ele>
        <time>2022-02-24T08:16:38Z</time>
      </trkpt>
      <trkpt lat="46.41059" lon="5.57969">
        <ele>425.4</ele>
        <time>2022-02-24T08:16:39Z</time>
      </trkpt>
      <trkpt lat="46.41054" lon="5.57965">
        <ele>425.4</ele>
        <time>2022-02-24T08:16:40Z</time>
      </trkpt>
      <trkpt lat="46.41049" lon="5.5796">
        <ele>425.2</ele>
        <time>2022-02-24T08:16:41Z</time>
      </trkpt>
      <trkpt lat="46.41044" lon="5.57956">
        <ele>425.2</ele>
        <time>2022-02-24T08:16:42Z</time>
      </trkpt>
      <trkpt lat="46.4104" lon="5.57952">
        <ele>425.2</ele>
        <time>2022-02-24T08:16:43Z</time>
      </trkpt>
      <trkpt lat="46.41035" lon="5.57947">
        <ele>425.2</ele>
        <time>2022-02-24T08:16:44Z</time>
      </trkpt>
      <trkpt lat="46.4103" lon="5.57942">
        <ele>425.2</ele>
        <time>2022-02-24T08:16:45Z</time>
      </trkpt>
      <trkpt lat="46.41026" lon="5.57938">
        <ele>425.2</ele>
        <time>2022-02-24T08:16:46Z</time>
      </trkpt>
      <trkpt lat="46.41021" lon="5.57933">
        <ele>425.2</ele>
        <time>2022-02-24T08:16:47Z</time>
      </trkpt>
      <trkpt lat="46.41016" lon="5.57929">
        <ele>425.2</ele>
        <time>2022-02-24T08:16:48Z</time>
      </trkpt>
      <trkpt lat="46.41012" lon="5.57924">
        <ele>425.2</ele>
        <time>2022-02-24T08:16:49Z</time>
      </trkpt>
      <trkpt lat="46.41007" lon="5.5792">
        <ele>425.2</ele>
        <time>2022-02-24T08:16:50Z</time>
      </trkpt>
      <trkpt lat="46.41003" lon="5.57915">
        <ele>425.2</ele>
        <time>2022-02-24T08:16:51Z</time>
      </trkpt>
      <trkpt lat="46.40998" lon="5.57911">
        <ele>425.2</ele>
        <time>2022-02-24T08:16:52Z</time>
      </trkpt>
      <trkpt lat="46.40994" lon="5.57906">
        <ele>425.2</ele>
        <time>2022-02-24T08:16:53Z</time>
      </trkpt>
      <trkpt lat="46.4099" lon="5.57901">
        <ele>425.2</ele>
        <time>2022-02-24T08:16:54Z</time>
      </trkpt>
      <trkpt lat="46.40985" lon="5.57897">
        <ele>425.2</ele>
        <time>2022-02-24T08:16:55Z</time>
      </trkpt>
      <trkpt lat="46.40981" lon="5.57892">
        <ele>425.2</ele>
        <time>2022-02-24T08:16:56Z</time>
      </trkpt>
      <trkpt lat="46.40976" lon="5.57887">
        <ele>424.8</ele>
        <time>2022-02-24T08:16:57Z</time>
      </trkpt>
      <trkpt lat="46.40971" lon="5.57882">
        <ele>424.4</ele>
        <time>2022-02-24T08:16:58Z</time>
      </trkpt>
      <trkpt lat="46.40965" lon="5.57876">
        <ele>424</ele>
        <time>2022-02-24T08:16:59Z</time>
      </trkpt>
      <trkpt lat="46.4096" lon="5.57871">
        <ele>423.8</ele>
        <time>2022-02-24T08:17:00Z</time>
      </trkpt>
      <trkpt lat="46.40954" lon="5.57865">
        <ele>423.4</ele>
        <time>2022-02-24T08:17:01Z</time>
      </trkpt>
      <trkpt lat="46.40948" lon="5.5786">
        <ele>423.2</ele>
        <time>2022-02-24T08:17:02Z</time>
      </trkpt>
      <trkpt lat="46.40942" lon="5.57854">
        <ele>423</ele>
        <time>2022-02-24T08:17:03Z</time>
      </trkpt>
      <trkpt lat="46.40936" lon="5.57849">
        <ele>423</ele>
        <time>2022-02-24T08:17:04Z</time>
      </trkpt>
      <trkpt lat="46.4093" lon="5.57843">
        <ele>422.6</ele>
        <time>2022-02-24T08:17:05Z</time>
      </trkpt>
      <trkpt lat="46.40925" lon="5.57837">
        <ele>422.6</ele>
        <time>2022-02-24T08:17:06Z</time>
      </trkpt>
      <trkpt lat="46.40919" lon="5.57832">
        <ele>422.4</ele>
        <time>2022-02-24T08:17:07Z</time>
      </trkpt>
      <trkpt lat="46.40913" lon="5.57826">
        <ele>422.4</ele>
        <time>2022-02-24T08:17:08Z</time>
      </trkpt>
      <trkpt lat="46.40907" lon="5.5782">
        <ele>422.4</ele>
        <time>2022-02-24T08:17:09Z</time>
      </trkpt>
      <trkpt lat="46.40901" lon="5.57815">
        <ele>422</ele>
        <time>2022-02-24T08:17:10Z</time>
      </trkpt>
      <trkpt lat="46.40895" lon="5.57809">
        <ele>422</ele>
        <time>2022-02-24T08:17:11Z</time>
      </trkpt>
      <trkpt lat="46.40889" lon="5.57804">
        <ele>422</ele>
        <time>2022-02-24T08:17:12Z</time>
      </trkpt>
      <trkpt lat="46.40883" lon="5.57798">
        <ele>421.8</ele>
        <time>2022-02-24T08:17:13Z</time>
      </trkpt>
      <trkpt lat="46.40877" lon="5.57792">
        <ele>421.8</ele>
        <time>2022-02-24T08:17:14Z</time>
      </trkpt>
      <trkpt lat="46.40871" lon="5.57786">
        <ele>421.4</ele>
        <time>2022-02-24T08:17:15Z</time>
      </trkpt>
      <trkpt lat="46.40865" lon="5.5778">
        <ele>421.2</ele>
        <time>2022-02-24T08:17:16Z</time>
      </trkpt>
      <trkpt lat="46.4086" lon="5.57774">
        <ele>421.2</ele>
        <time>2022-02-24T08:17:17Z</time>
      </trkpt>
      <trkpt lat="46.40854" lon="5.57767">
        <ele>420.8</ele>
        <time>2022-02-24T08:17:18Z</time>
      </trkpt>
      <trkpt lat="46.40849" lon="5.57761">
        <ele>420.8</ele>
        <time>2022-02-24T08:17:19Z</time>
      </trkpt>
      <trkpt lat="46.40843" lon="5.57754">
        <ele>420.6</ele>
        <time>2022-02-24T08:17:20Z</time>
      </trkpt>
      <trkpt lat="46.40838" lon="5.57748">
        <ele>420.6</ele>
        <time>2022-02-24T08:17:21Z</time>
      </trkpt>
      <trkpt lat="46.40832" lon="5.57742">
        <ele>420.6</ele>
        <time>2022-02-24T08:17:22Z</time>
      </trkpt>
      <trkpt lat="46.40827" lon="5.57736">
        <ele>420.4</ele>
        <time>2022-02-24T08:17:23Z</time>
      </trkpt>
      <trkpt lat="46.40821" lon="5.57731">
        <ele>420.4</ele>
        <time>2022-02-24T08:17:24Z</time>
      </trkpt>
      <trkpt lat="46.40815" lon="5.57725">
        <ele>420</ele>
        <time>2022-02-24T08:17:25Z</time>
      </trkpt>
      <trkpt lat="46.40809" lon="5.5772">
        <ele>420</ele>
        <time>2022-02-24T08:17:26Z</time>
      </trkpt>
      <trkpt lat="46.40803" lon="5.57716">
        <ele>419.6</ele>
        <time>2022-02-24T08:17:27Z</time>
      </trkpt>
      <trkpt lat="46.40796" lon="5.57711">
        <ele>419.4</ele>
        <time>2022-02-24T08:17:28Z</time>
      </trkpt>
      <trkpt lat="46.4079" lon="5.57707">
        <ele>419.4</ele>
        <time>2022-02-24T08:17:29Z</time>
      </trkpt>
      <trkpt lat="46.40783" lon="5.57703">
        <ele>419</ele>
        <time>2022-02-24T08:17:30Z</time>
      </trkpt>
      <trkpt lat="46.40776" lon="5.57699">
        <ele>419</ele>
        <time>2022-02-24T08:17:31Z</time>
      </trkpt>
      <trkpt lat="46.40769" lon="5.57695">
        <ele>418.6</ele>
        <time>2022-02-24T08:17:32Z</time>
      </trkpt>
      <trkpt lat="46.40762" lon="5.57691">
        <ele>418.6</ele>
        <time>2022-02-24T08:17:33Z</time>
      </trkpt>
      <trkpt lat="46.40756" lon="5.57687">
        <ele>418.2</ele>
        <time>2022-02-24T08:17:34Z</time>
      </trkpt>
      <trkpt lat="46.40749" lon="5.57683">
        <ele>418</ele>
        <time>2022-02-24T08:17:35Z</time>
      </trkpt>
      <trkpt lat="46.40742" lon="5.57679">
        <ele>417.8</ele>
        <time>2022-02-24T08:17:36Z</time>
      </trkpt>
      <trkpt lat="46.40735" lon="5.57675">
        <ele>417.8</ele>
        <time>2022-02-24T08:17:37Z</time>
      </trkpt>
      <trkpt lat="46.40728" lon="5.57671">
        <ele>417.8</ele>
        <time>2022-02-24T08:17:38Z</time>
      </trkpt>
      <trkpt lat="46.40721" lon="5.57667">
        <ele>417.4</ele>
        <time>2022-02-24T08:17:39Z</time>
      </trkpt>
      <trkpt lat="46.40715" lon="5.57662">
        <ele>417.4</ele>
        <time>2022-02-24T08:17:40Z</time>
      </trkpt>
      <trkpt lat="46.40708" lon="5.57658">
        <ele>417</ele>
        <time>2022-02-24T08:17:41Z</time>
      </trkpt>
      <trkpt lat="46.40701" lon="5.57654">
        <ele>417</ele>
        <time>2022-02-24T08:17:42Z</time>
      </trkpt>
      <trkpt lat="46.40694" lon="5.5765">
        <ele>417</ele>
        <time>2022-02-24T08:17:43Z</time>
      </trkpt>
      <trkpt lat="46.40688" lon="5.57646">
        <ele>416.8</ele>
        <time>2022-02-24T08:17:44Z</time>
      </trkpt>
      <trkpt lat="46.40681" lon="5.57642">
        <ele>416.8</ele>
        <time>2022-02-24T08:17:45Z</time>
      </trkpt>
      <trkpt lat="46.40675" lon="5.57639">
        <ele>416.8</ele>
        <time>2022-02-24T08:17:46Z</time>
      </trkpt>
      <trkpt lat="46.40669" lon="5.57635">
        <ele>416.6</ele>
        <time>2022-02-24T08:17:47Z</time>
      </trkpt>
      <trkpt lat="46.40663" lon="5.57631">
        <ele>416.6</ele>
        <time>2022-02-24T08:17:48Z</time>
      </trkpt>
      <trkpt lat="46.40657" lon="5.57627">
        <ele>416.6</ele>
        <time>2022-02-24T08:17:49Z</time>
      </trkpt>
      <trkpt lat="46.40651" lon="5.57623">
        <ele>416.6</ele>
        <time>2022-02-24T08:17:50Z</time>
      </trkpt>
      <trkpt lat="46.40645" lon="5.57619">
        <ele>416.6</ele>
        <time>2022-02-24T08:17:51Z</time>
      </trkpt>
      <trkpt lat="46.40639" lon="5.57615">
        <ele>416.6</ele>
        <time>2022-02-24T08:17:52Z</time>
      </trkpt>
      <trkpt lat="46.40634" lon="5.57611">
        <ele>416.6</ele>
        <time>2022-02-24T08:17:53Z</time>
      </trkpt>
      <trkpt lat="46.40628" lon="5.57607">
        <ele>416.8</ele>
        <time>2022-02-24T08:17:54Z</time>
      </trkpt>
      <trkpt lat="46.40623" lon="5.57603">
        <ele>416.8</ele>
        <time>2022-02-24T08:17:55Z</time>
      </trkpt>
      <trkpt lat="46.40618" lon="5.576">
        <ele>416.8</ele>
        <time>2022-02-24T08:17:56Z</time>
      </trkpt>
      <trkpt lat="46.40613" lon="5.57596">
        <ele>416.8</ele>
        <time>2022-02-24T08:17:57Z</time>
      </trkpt>
      <trkpt lat="46.40608" lon="5.57593">
        <ele>416.8</ele>
        <time>2022-02-24T08:17:58Z</time>
      </trkpt>
      <trkpt lat="46.40603" lon="5.57589">
        <ele>416.8</ele>
        <time>2022-02-24T08:17:59Z</time>
      </trkpt>
      <trkpt lat="46.40599" lon="5.57586">
        <ele>417.4</ele>
        <time>2022-02-24T08:18:00Z</time>
      </trkpt>
      <trkpt lat="46.40594" lon="5.57583">
        <ele>417.6</ele>
        <time>2022-02-24T08:18:01Z</time>
      </trkpt>
      <trkpt lat="46.40589" lon="5.5758">
        <ele>418</ele>
        <time>2022-02-24T08:18:02Z</time>
      </trkpt>
      <trkpt lat="46.40584" lon="5.57577">
        <ele>418.2</ele>
        <time>2022-02-24T08:18:03Z</time>
      </trkpt>
      <trkpt lat="46.40578" lon="5.57574">
        <ele>418.2</ele>
        <time>2022-02-24T08:18:04Z</time>
      </trkpt>
      <trkpt lat="46.40573" lon="5.57571">
        <ele>418.6</ele>
        <time>2022-02-24T08:18:05Z</time>
      </trkpt>
      <trkpt lat="46.40568" lon="5.57568">
        <ele>418.6</ele>
        <time>2022-02-24T08:18:06Z</time>
      </trkpt>
      <trkpt lat="46.40563" lon="5.57566">
        <ele>418.8</ele>
        <time>2022-02-24T08:18:07Z</time>
      </trkpt>
      <trkpt lat="46.40558" lon="5.57563">
        <ele>418.8</ele>
        <time>2022-02-24T08:18:08Z</time>
      </trkpt>
      <trkpt lat="46.40552" lon="5.5756">
        <ele>418.8</ele>
        <time>2022-02-24T08:18:09Z</time>
      </trkpt>
      <trkpt lat="46.40547" lon="5.57557">
        <ele>418.8</ele>
        <time>2022-02-24T08:18:10Z</time>
      </trkpt>
      <trkpt lat="46.40542" lon="5.57554">
        <ele>418.8</ele>
        <time>2022-02-24T08:18:11Z</time>
      </trkpt>
      <trkpt lat="46.40536" lon="5.57551">
        <ele>418.8</ele>
        <time>2022-02-24T08:18:12Z</time>
      </trkpt>
      <trkpt lat="46.4053" lon="5.57547">
        <ele>418.4</ele>
        <time>2022-02-24T08:18:13Z</time>
      </trkpt>
      <trkpt lat="46.40524" lon="5.57544">
        <ele>418.4</ele>
        <time>2022-02-24T08:18:14Z</time>
      </trkpt>
      <trkpt lat="46.40518" lon="5.57541">
        <ele>418</ele>
        <time>2022-02-24T08:18:15Z</time>
      </trkpt>
      <trkpt lat="46.40512" lon="5.57537">
        <ele>418</ele>
        <time>2022-02-24T08:18:16Z</time>
      </trkpt>
      <trkpt lat="46.40505" lon="5.57534">
        <ele>417.6</ele>
        <time>2022-02-24T08:18:17Z</time>
      </trkpt>
      <trkpt lat="46.40498" lon="5.57531">
        <ele>417.2</ele>
        <time>2022-02-24T08:18:18Z</time>
      </trkpt>
      <trkpt lat="46.40492" lon="5.57527">
        <ele>417.2</ele>
        <time>2022-02-24T08:18:19Z</time>
      </trkpt>
      <trkpt lat="46.40485" lon="5.57523">
        <ele>417</ele>
        <time>2022-02-24T08:18:20Z</time>
      </trkpt>
      <trkpt lat="46.40478" lon="5.5752">
        <ele>416.6</ele>
        <time>2022-02-24T08:18:21Z</time>
      </trkpt>
      <trkpt lat="46.40472" lon="5.57516">
        <ele>416.6</ele>
        <time>2022-02-24T08:18:22Z</time>
      </trkpt>
      <trkpt lat="46.40465" lon="5.57512">
        <ele>416.4</ele>
        <time>2022-02-24T08:18:23Z</time>
      </trkpt>
      <trkpt lat="46.40458" lon="5.57509">
        <ele>416.4</ele>
        <time>2022-02-24T08:18:24Z</time>
      </trkpt>
      <trkpt lat="46.40452" lon="5.57505">
        <ele>416.2</ele>
        <time>2022-02-24T08:18:25Z</time>
      </trkpt>
      <trkpt lat="46.40445" lon="5.57501">
        <ele>416.2</ele>
        <time>2022-02-24T08:18:26Z</time>
      </trkpt>
      <trkpt lat="46.40439" lon="5.57498">
        <ele>416</ele>
        <time>2022-02-24T08:18:27Z</time>
      </trkpt>
      <trkpt lat="46.40432" lon="5.57494">
        <ele>416</ele>
        <time>2022-02-24T08:18:28Z</time>
      </trkpt>
      <trkpt lat="46.40432" lon="5.57494">
        <ele>415.8</ele>
        <time>2022-02-24T08:18:29Z</time>
      </trkpt>
      <trkpt lat="46.40426" lon="5.57491">
        <ele>415.8</ele>
        <time>2022-02-24T08:18:30Z</time>
      </trkpt>
      <trkpt lat="46.4042" lon="5.57487">
        <ele>415.8</ele>
        <time>2022-02-24T08:18:31Z</time>
      </trkpt>
      <trkpt lat="46.40414" lon="5.57484">
        <ele>415.8</ele>
        <time>2022-02-24T08:18:32Z</time>
      </trkpt>
      <trkpt lat="46.40408" lon="5.5748">
        <ele>415.8</ele>
        <time>2022-02-24T08:18:33Z</time>
      </trkpt>
      <trkpt lat="46.40402" lon="5.57477">
        <ele>415.8</ele>
        <time>2022-02-24T08:18:34Z</time>
      </trkpt>
      <trkpt lat="46.40396" lon="5.57473">
        <ele>415.8</ele>
        <time>2022-02-24T08:18:35Z</time>
      </trkpt>
      <trkpt lat="46.4039" lon="5.5747">
        <ele>416</ele>
        <time>2022-02-24T08:18:36Z</time>
      </trkpt>
      <trkpt lat="46.40385" lon="5.57467">
        <ele>416</ele>
        <time>2022-02-24T08:18:37Z</time>
      </trkpt>
      <trkpt lat="46.40379" lon="5.57463">
        <ele>416</ele>
        <time>2022-02-24T08:18:38Z</time>
      </trkpt>
      <trkpt lat="46.40373" lon="5.5746">
        <ele>416</ele>
        <time>2022-02-24T08:18:39Z</time>
      </trkpt>
      <trkpt lat="46.40367" lon="5.57456">
        <ele>416</ele>
        <time>2022-02-24T08:18:40Z</time>
      </trkpt>
      <trkpt lat="46.40361" lon="5.57453">
        <ele>416</ele>
        <time>2022-02-24T08:18:41Z</time>
      </trkpt>
      <trkpt lat="46.40355" lon="5.57449">
        <ele>416</ele>
        <time>2022-02-24T08:18:42Z</time>
      </trkpt>
      <trkpt lat="46.40349" lon="5.57446">
        <ele>416</ele>
        <time>2022-02-24T08:18:43Z</time>
      </trkpt>
      <trkpt lat="46.40343" lon="5.57442">
        <ele>416</ele>
        <time>2022-02-24T08:18:44Z</time>
      </trkpt>
      <trkpt lat="46.40337" lon="5.57439">
        <ele>416</ele>
        <time>2022-02-24T08:18:45Z</time>
      </trkpt>
      <trkpt lat="46.40331" lon="5.57435">
        <ele>416</ele>
        <time>2022-02-24T08:18:46Z</time>
      </trkpt>
      <trkpt lat="46.40325" lon="5.57432">
        <ele>416</ele>
        <time>2022-02-24T08:18:47Z</time>
      </trkpt>
      <trkpt lat="46.40319" lon="5.57428">
        <ele>416</ele>
        <time>2022-02-24T08:18:48Z</time>
      </trkpt>
      <trkpt lat="46.40314" lon="5.57425">
        <ele>416</ele>
        <time>2022-02-24T08:18:49Z</time>
      </trkpt>
      <trkpt lat="46.40308" lon="5.57421">
        <ele>416</ele>
        <time>2022-02-24T08:18:50Z</time>
      </trkpt>
      <trkpt lat="46.40302" lon="5.57418">
        <ele>416</ele>
        <time>2022-02-24T08:18:51Z</time>
      </trkpt>
      <trkpt lat="46.40297" lon="5.57415">
        <ele>416.4</ele>
        <time>2022-02-24T08:18:52Z</time>
      </trkpt>
      <trkpt lat="46.40292" lon="5.57412">
        <ele>416.4</ele>
        <time>2022-02-24T08:18:53Z</time>
      </trkpt>
      <trkpt lat="46.40287" lon="5.57408">
        <ele>416.8</ele>
        <time>2022-02-24T08:18:54Z</time>
      </trkpt>
      <trkpt lat="46.40281" lon="5.57405">
        <ele>417</ele>
        <time>2022-02-24T08:18:55Z</time>
      </trkpt>
      <trkpt lat="46.40277" lon="5.57402">
        <ele>417.2</ele>
        <time>2022-02-24T08:18:56Z</time>
      </trkpt>
      <trkpt lat="46.40272" lon="5.57399">
        <ele>417.2</ele>
        <time>2022-02-24T08:18:57Z</time>
      </trkpt>
      <trkpt lat="46.40268" lon="5.57396">
        <ele>417.6</ele>
        <time>2022-02-24T08:18:58Z</time>
      </trkpt>
      <trkpt lat="46.40263" lon="5.57394">
        <ele>417.8</ele>
        <time>2022-02-24T08:18:59Z</time>
      </trkpt>
      <trkpt lat="46.40258" lon="5.57391">
        <ele>418</ele>
        <time>2022-02-24T08:19:00Z</time>
      </trkpt>
      <trkpt lat="46.40253" lon="5.57388">
        <ele>418.4</ele>
        <time>2022-02-24T08:19:01Z</time>
      </trkpt>
      <trkpt lat="46.40248" lon="5.57385">
        <ele>418.6</ele>
        <time>2022-02-24T08:19:02Z</time>
      </trkpt>
      <trkpt lat="46.40243" lon="5.57382">
        <ele>418.8</ele>
        <time>2022-02-24T08:19:03Z</time>
      </trkpt>
      <trkpt lat="46.40238" lon="5.57379">
        <ele>418.8</ele>
        <time>2022-02-24T08:19:04Z</time>
      </trkpt>
      <trkpt lat="46.40234" lon="5.57376">
        <ele>419.2</ele>
        <time>2022-02-24T08:19:05Z</time>
      </trkpt>
      <trkpt lat="46.40229" lon="5.57373">
        <ele>419.4</ele>
        <time>2022-02-24T08:19:06Z</time>
      </trkpt>
      <trkpt lat="46.40225" lon="5.5737">
        <ele>419.4</ele>
        <time>2022-02-24T08:19:07Z</time>
      </trkpt>
      <trkpt lat="46.4022" lon="5.57368">
        <ele>419.8</ele>
        <time>2022-02-24T08:19:08Z</time>
      </trkpt>
      <trkpt lat="46.40216" lon="5.57365">
        <ele>420</ele>
        <time>2022-02-24T08:19:09Z</time>
      </trkpt>
      <trkpt lat="46.40212" lon="5.57362">
        <ele>420</ele>
        <time>2022-02-24T08:19:10Z</time>
      </trkpt>
      <trkpt lat="46.40208" lon="5.5736">
        <ele>420.4</ele>
        <time>2022-02-24T08:19:11Z</time>
      </trkpt>
      <trkpt lat="46.40204" lon="5.57357">
        <ele>420.4</ele>
        <time>2022-02-24T08:19:12Z</time>
      </trkpt>
      <trkpt lat="46.402" lon="5.57355">
        <ele>420.6</ele>
        <time>2022-02-24T08:19:13Z</time>
      </trkpt>
      <trkpt lat="46.40196" lon="5.57353">
        <ele>420.6</ele>
        <time>2022-02-24T08:19:14Z</time>
      </trkpt>
      <trkpt lat="46.40193" lon="5.5735">
        <ele>421</ele>
        <time>2022-02-24T08:19:15Z</time>
      </trkpt>
      <trkpt lat="46.40189" lon="5.57348">
        <ele>421</ele>
        <time>2022-02-24T08:19:16Z</time>
      </trkpt>
      <trkpt lat="46.40185" lon="5.57346">
        <ele>421</ele>
        <time>2022-02-24T08:19:17Z</time>
      </trkpt>
      <trkpt lat="46.40181" lon="5.57343">
        <ele>421</ele>
        <time>2022-02-24T08:19:18Z</time>
      </trkpt>
      <trkpt lat="46.40176" lon="5.57341">
        <ele>421</ele>
        <time>2022-02-24T08:19:19Z</time>
      </trkpt>
      <trkpt lat="46.40172" lon="5.57338">
        <ele>421</ele>
        <time>2022-02-24T08:19:20Z</time>
      </trkpt>
      <trkpt lat="46.40167" lon="5.57336">
        <ele>421</ele>
        <time>2022-02-24T08:19:21Z</time>
      </trkpt>
      <trkpt lat="46.40162" lon="5.57332">
        <ele>420.6</ele>
        <time>2022-02-24T08:19:22Z</time>
      </trkpt>
      <trkpt lat="46.40157" lon="5.57329">
        <ele>420.6</ele>
        <time>2022-02-24T08:19:23Z</time>
      </trkpt>
      <trkpt lat="46.40151" lon="5.57326">
        <ele>420.4</ele>
        <time>2022-02-24T08:19:24Z</time>
      </trkpt>
      <trkpt lat="46.40146" lon="5.57323">
        <ele>420.4</ele>
        <time>2022-02-24T08:19:25Z</time>
      </trkpt>
      <trkpt lat="46.4014" lon="5.5732">
        <ele>420</ele>
        <time>2022-02-24T08:19:26Z</time>
      </trkpt>
      <trkpt lat="46.40134" lon="5.57316">
        <ele>420</ele>
        <time>2022-02-24T08:19:27Z</time>
      </trkpt>
      <trkpt lat="46.40128" lon="5.57313">
        <ele>419.8</ele>
        <time>2022-02-24T08:19:28Z</time>
      </trkpt>
      <trkpt lat="46.40122" lon="5.57309">
        <ele>419.8</ele>
        <time>2022-02-24T08:19:29Z</time>
      </trkpt>
      <trkpt lat="46.40115" lon="5.57305">
        <ele>419.4</ele>
        <time>2022-02-24T08:19:30Z</time>
      </trkpt>
      <trkpt lat="46.40109" lon="5.57302">
        <ele>419.4</ele>
        <time>2022-02-24T08:19:31Z</time>
      </trkpt>
      <trkpt lat="46.40103" lon="5.57299">
        <ele>419.2</ele>
        <time>2022-02-24T08:19:32Z</time>
      </trkpt>
      <trkpt lat="46.40096" lon="5.57295">
        <ele>419.2</ele>
        <time>2022-02-24T08:19:33Z</time>
      </trkpt>
      <trkpt lat="46.4009" lon="5.57291">
        <ele>418.8</ele>
        <time>2022-02-24T08:19:34Z</time>
      </trkpt>
      <trkpt lat="46.40083" lon="5.57287">
        <ele>418.6</ele>
        <time>2022-02-24T08:19:35Z</time>
      </trkpt>
      <trkpt lat="46.40077" lon="5.57284">
        <ele>418.2</ele>
        <time>2022-02-24T08:19:36Z</time>
      </trkpt>
      <trkpt lat="46.4007" lon="5.57281">
        <ele>418.2</ele>
        <time>2022-02-24T08:19:37Z</time>
      </trkpt>
      <trkpt lat="46.40063" lon="5.57278">
        <ele>417.8</ele>
        <time>2022-02-24T08:19:38Z</time>
      </trkpt>
      <trkpt lat="46.40055" lon="5.57275">
        <ele>417.4</ele>
        <time>2022-02-24T08:19:39Z</time>
      </trkpt>
      <trkpt lat="46.40048" lon="5.57273">
        <ele>417</ele>
        <time>2022-02-24T08:19:40Z</time>
      </trkpt>
      <trkpt lat="46.4004" lon="5.57271">
        <ele>416.8</ele>
        <time>2022-02-24T08:19:41Z</time>
      </trkpt>
      <trkpt lat="46.40032" lon="5.57269">
        <ele>416.4</ele>
        <time>2022-02-24T08:19:42Z</time>
      </trkpt>
      <trkpt lat="46.40025" lon="5.57267">
        <ele>416</ele>
        <time>2022-02-24T08:19:43Z</time>
      </trkpt>
      <trkpt lat="46.40017" lon="5.57265">
        <ele>415.4</ele>
        <time>2022-02-24T08:19:44Z</time>
      </trkpt>
      <trkpt lat="46.40009" lon="5.57262">
        <ele>415.2</ele>
        <time>2022-02-24T08:19:45Z</time>
      </trkpt>
      <trkpt lat="46.40001" lon="5.57259">
        <ele>414.8</ele>
        <time>2022-02-24T08:19:46Z</time>
      </trkpt>
      <trkpt lat="46.39993" lon="5.57256">
        <ele>414.8</ele>
        <time>2022-02-24T08:19:47Z</time>
      </trkpt>
      <trkpt lat="46.39985" lon="5.57252">
        <ele>414.4</ele>
        <time>2022-02-24T08:19:48Z</time>
      </trkpt>
      <trkpt lat="46.39978" lon="5.57247">
        <ele>414.2</ele>
        <time>2022-02-24T08:19:49Z</time>
      </trkpt>
      <trkpt lat="46.39971" lon="5.57242">
        <ele>414.2</ele>
        <time>2022-02-24T08:19:50Z</time>
      </trkpt>
      <trkpt lat="46.39964" lon="5.57237">
        <ele>414</ele>
        <time>2022-02-24T08:19:51Z</time>
      </trkpt>
      <trkpt lat="46.39958" lon="5.57232">
        <ele>414</ele>
        <time>2022-02-24T08:19:52Z</time>
      </trkpt>
      <trkpt lat="46.39951" lon="5.57227">
        <ele>414</ele>
        <time>2022-02-24T08:19:53Z</time>
      </trkpt>
      <trkpt lat="46.39945" lon="5.57221">
        <ele>414</ele>
        <time>2022-02-24T08:19:54Z</time>
      </trkpt>
      <trkpt lat="46.39939" lon="5.57216">
        <ele>414</ele>
        <time>2022-02-24T08:19:55Z</time>
      </trkpt>
      <trkpt lat="46.39933" lon="5.57212">
        <ele>414.2</ele>
        <time>2022-02-24T08:19:56Z</time>
      </trkpt>
      <trkpt lat="46.39927" lon="5.57208">
        <ele>414.2</ele>
        <time>2022-02-24T08:19:57Z</time>
      </trkpt>
      <trkpt lat="46.39922" lon="5.57203">
        <ele>414.6</ele>
        <time>2022-02-24T08:19:58Z</time>
      </trkpt>
      <trkpt lat="46.39917" lon="5.572">
        <ele>414.8</ele>
        <time>2022-02-24T08:19:59Z</time>
      </trkpt>
      <trkpt lat="46.39913" lon="5.57196">
        <ele>415.2</ele>
        <time>2022-02-24T08:20:00Z</time>
      </trkpt>
      <trkpt lat="46.39909" lon="5.57193">
        <ele>415.4</ele>
        <time>2022-02-24T08:20:01Z</time>
      </trkpt>
      <trkpt lat="46.39905" lon="5.57189">
        <ele>415.8</ele>
        <time>2022-02-24T08:20:02Z</time>
      </trkpt>
      <trkpt lat="46.39901" lon="5.57186">
        <ele>416</ele>
        <time>2022-02-24T08:20:03Z</time>
      </trkpt>
      <trkpt lat="46.39894" lon="5.57181">
        <ele>416.4</ele>
        <time>2022-02-24T08:20:04Z</time>
      </trkpt>
      <trkpt lat="46.3989" lon="5.57178">
        <ele>416.8</ele>
        <time>2022-02-24T08:20:05Z</time>
      </trkpt>
      <trkpt lat="46.39887" lon="5.57175">
        <ele>417</ele>
        <time>2022-02-24T08:20:06Z</time>
      </trkpt>
      <trkpt lat="46.39884" lon="5.57173">
        <ele>417.4</ele>
        <time>2022-02-24T08:20:07Z</time>
      </trkpt>
      <trkpt lat="46.39881" lon="5.57171">
        <ele>417.6</ele>
        <time>2022-02-24T08:20:08Z</time>
      </trkpt>
      <trkpt lat="46.39878" lon="5.57168">
        <ele>417.8</ele>
        <time>2022-02-24T08:20:09Z</time>
      </trkpt>
      <trkpt lat="46.39875" lon="5.57166">
        <ele>418.2</ele>
        <time>2022-02-24T08:20:10Z</time>
      </trkpt>
      <trkpt lat="46.39873" lon="5.57164">
        <ele>418.4</ele>
        <time>2022-02-24T08:20:11Z</time>
      </trkpt>
      <trkpt lat="46.3987" lon="5.57162">
        <ele>418.6</ele>
        <time>2022-02-24T08:20:12Z</time>
      </trkpt>
      <trkpt lat="46.39867" lon="5.5716">
        <ele>419</ele>
        <time>2022-02-24T08:20:13Z</time>
      </trkpt>
      <trkpt lat="46.39864" lon="5.57158">
        <ele>419.2</ele>
        <time>2022-02-24T08:20:14Z</time>
      </trkpt>
      <trkpt lat="46.39861" lon="5.57155">
        <ele>419.4</ele>
        <time>2022-02-24T08:20:15Z</time>
      </trkpt>
      <trkpt lat="46.39859" lon="5.57153">
        <ele>419.6</ele>
        <time>2022-02-24T08:20:16Z</time>
      </trkpt>
      <trkpt lat="46.39856" lon="5.57151">
        <ele>419.8</ele>
        <time>2022-02-24T08:20:17Z</time>
      </trkpt>
      <trkpt lat="46.39853" lon="5.57149">
        <ele>420</ele>
        <time>2022-02-24T08:20:18Z</time>
      </trkpt>
      <trkpt lat="46.39851" lon="5.57146">
        <ele>420.2</ele>
        <time>2022-02-24T08:20:19Z</time>
      </trkpt>
      <trkpt lat="46.39848" lon="5.57144">
        <ele>420.6</ele>
        <time>2022-02-24T08:20:20Z</time>
      </trkpt>
      <trkpt lat="46.39845" lon="5.57143">
        <ele>420.8</ele>
        <time>2022-02-24T08:20:21Z</time>
      </trkpt>
      <trkpt lat="46.39843" lon="5.57141">
        <ele>421</ele>
        <time>2022-02-24T08:20:22Z</time>
      </trkpt>
      <trkpt lat="46.3984" lon="5.57138">
        <ele>421.2</ele>
        <time>2022-02-24T08:20:23Z</time>
      </trkpt>
      <trkpt lat="46.39838" lon="5.57136">
        <ele>421.6</ele>
        <time>2022-02-24T08:20:24Z</time>
      </trkpt>
      <trkpt lat="46.39836" lon="5.57133">
        <ele>421.8</ele>
        <time>2022-02-24T08:20:25Z</time>
      </trkpt>
      <trkpt lat="46.39833" lon="5.57131">
        <ele>422</ele>
        <time>2022-02-24T08:20:26Z</time>
      </trkpt>
      <trkpt lat="46.3983" lon="5.57129">
        <ele>422.2</ele>
        <time>2022-02-24T08:20:27Z</time>
      </trkpt>
      <trkpt lat="46.39828" lon="5.57127">
        <ele>422.6</ele>
        <time>2022-02-24T08:20:28Z</time>
      </trkpt>
      <trkpt lat="46.39825" lon="5.57126">
        <ele>422.8</ele>
        <time>2022-02-24T08:20:29Z</time>
      </trkpt>
      <trkpt lat="46.39823" lon="5.57124">
        <ele>422.8</ele>
        <time>2022-02-24T08:20:30Z</time>
      </trkpt>
      <trkpt lat="46.3982" lon="5.57122">
        <ele>423</ele>
        <time>2022-02-24T08:20:31Z</time>
      </trkpt>
      <trkpt lat="46.39817" lon="5.5712">
        <ele>423</ele>
        <time>2022-02-24T08:20:32Z</time>
      </trkpt>
      <trkpt lat="46.39814" lon="5.57118">
        <ele>423.6</ele>
        <time>2022-02-24T08:20:33Z</time>
      </trkpt>
      <trkpt lat="46.39812" lon="5.57116">
        <ele>423.8</ele>
        <time>2022-02-24T08:20:34Z</time>
      </trkpt>
      <trkpt lat="46.39809" lon="5.57114">
        <ele>423.8</ele>
        <time>2022-02-24T08:20:35Z</time>
      </trkpt>
      <trkpt lat="46.39807" lon="5.57112">
        <ele>424.2</ele>
        <time>2022-02-24T08:20:36Z</time>
      </trkpt>
      <trkpt lat="46.39804" lon="5.5711">
        <ele>424.4</ele>
        <time>2022-02-24T08:20:37Z</time>
      </trkpt>
      <trkpt lat="46.39802" lon="5.57108">
        <ele>424.8</ele>
        <time>2022-02-24T08:20:38Z</time>
      </trkpt>
      <trkpt lat="46.39799" lon="5.57106">
        <ele>425</ele>
        <time>2022-02-24T08:20:39Z</time>
      </trkpt>
      <trkpt lat="46.39797" lon="5.57104">
        <ele>425.4</ele>
        <time>2022-02-24T08:20:40Z</time>
      </trkpt>
      <trkpt lat="46.39794" lon="5.57102">
        <ele>425.6</ele>
        <time>2022-02-24T08:20:41Z</time>
      </trkpt>
      <trkpt lat="46.39792" lon="5.571">
        <ele>426</ele>
        <time>2022-02-24T08:20:42Z</time>
      </trkpt>
      <trkpt lat="46.39789" lon="5.57098">
        <ele>426.2</ele>
        <time>2022-02-24T08:20:43Z</time>
      </trkpt>
      <trkpt lat="46.39787" lon="5.57095">
        <ele>426.6</ele>
        <time>2022-02-24T08:20:44Z</time>
      </trkpt>
      <trkpt lat="46.39784" lon="5.57093">
        <ele>427</ele>
        <time>2022-02-24T08:20:45Z</time>
      </trkpt>
      <trkpt lat="46.39782" lon="5.5709">
        <ele>427.2</ele>
        <time>2022-02-24T08:20:46Z</time>
      </trkpt>
      <trkpt lat="46.3978" lon="5.57088">
        <ele>427.4</ele>
        <time>2022-02-24T08:20:47Z</time>
      </trkpt>
      <trkpt lat="46.39777" lon="5.57086">
        <ele>427.8</ele>
        <time>2022-02-24T08:20:48Z</time>
      </trkpt>
      <trkpt lat="46.39775" lon="5.57084">
        <ele>428</ele>
        <time>2022-02-24T08:20:49Z</time>
      </trkpt>
      <trkpt lat="46.39772" lon="5.57082">
        <ele>428.2</ele>
        <time>2022-02-24T08:20:50Z</time>
      </trkpt>
      <trkpt lat="46.39769" lon="5.5708">
        <ele>428.6</ele>
        <time>2022-02-24T08:20:51Z</time>
      </trkpt>
      <trkpt lat="46.39766" lon="5.57079">
        <ele>428.8</ele>
        <time>2022-02-24T08:20:52Z</time>
      </trkpt>
      <trkpt lat="46.39764" lon="5.57077">
        <ele>429</ele>
        <time>2022-02-24T08:20:53Z</time>
      </trkpt>
      <trkpt lat="46.39761" lon="5.57075">
        <ele>429</ele>
        <time>2022-02-24T08:20:54Z</time>
      </trkpt>
      <trkpt lat="46.39759" lon="5.57073">
        <ele>429.4</ele>
        <time>2022-02-24T08:20:55Z</time>
      </trkpt>
      <trkpt lat="46.39756" lon="5.57071">
        <ele>429.6</ele>
        <time>2022-02-24T08:20:56Z</time>
      </trkpt>
      <trkpt lat="46.39754" lon="5.57069">
        <ele>429.6</ele>
        <time>2022-02-24T08:20:57Z</time>
      </trkpt>
      <trkpt lat="46.39751" lon="5.57067">
        <ele>430</ele>
        <time>2022-02-24T08:20:58Z</time>
      </trkpt>
      <trkpt lat="46.39748" lon="5.57065">
        <ele>430.2</ele>
        <time>2022-02-24T08:20:59Z</time>
      </trkpt>
      <trkpt lat="46.39745" lon="5.57063">
        <ele>430.6</ele>
        <time>2022-02-24T08:21:00Z</time>
      </trkpt>
      <trkpt lat="46.39742" lon="5.57061">
        <ele>431</ele>
        <time>2022-02-24T08:21:01Z</time>
      </trkpt>
      <trkpt lat="46.3974" lon="5.5706">
        <ele>431.2</ele>
        <time>2022-02-24T08:21:02Z</time>
      </trkpt>
      <trkpt lat="46.39737" lon="5.57058">
        <ele>431.6</ele>
        <time>2022-02-24T08:21:03Z</time>
      </trkpt>
      <trkpt lat="46.39734" lon="5.57055">
        <ele>431.8</ele>
        <time>2022-02-24T08:21:04Z</time>
      </trkpt>
      <trkpt lat="46.39731" lon="5.57053">
        <ele>432</ele>
        <time>2022-02-24T08:21:05Z</time>
      </trkpt>
      <trkpt lat="46.39729" lon="5.57051">
        <ele>432</ele>
        <time>2022-02-24T08:21:06Z</time>
      </trkpt>
      <trkpt lat="46.39726" lon="5.57049">
        <ele>432.4</ele>
        <time>2022-02-24T08:21:07Z</time>
      </trkpt>
      <trkpt lat="46.39724" lon="5.57048">
        <ele>432.4</ele>
        <time>2022-02-24T08:21:08Z</time>
      </trkpt>
      <trkpt lat="46.39721" lon="5.57046">
        <ele>432.8</ele>
        <time>2022-02-24T08:21:09Z</time>
      </trkpt>
      <trkpt lat="46.39718" lon="5.57044">
        <ele>433.2</ele>
        <time>2022-02-24T08:21:10Z</time>
      </trkpt>
      <trkpt lat="46.39716" lon="5.57042">
        <ele>433.4</ele>
        <time>2022-02-24T08:21:11Z</time>
      </trkpt>
      <trkpt lat="46.39714" lon="5.5704">
        <ele>433.4</ele>
        <time>2022-02-24T08:21:12Z</time>
      </trkpt>
      <trkpt lat="46.39711" lon="5.57038">
        <ele>433.6</ele>
        <time>2022-02-24T08:21:13Z</time>
      </trkpt>
      <trkpt lat="46.39708" lon="5.57036">
        <ele>433.6</ele>
        <time>2022-02-24T08:21:14Z</time>
      </trkpt>
      <trkpt lat="46.39706" lon="5.57034">
        <ele>434</ele>
        <time>2022-02-24T08:21:15Z</time>
      </trkpt>
      <trkpt lat="46.39703" lon="5.57032">
        <ele>434.2</ele>
        <time>2022-02-24T08:21:16Z</time>
      </trkpt>
      <trkpt lat="46.39701" lon="5.5703">
        <ele>434.2</ele>
        <time>2022-02-24T08:21:17Z</time>
      </trkpt>
      <trkpt lat="46.39698" lon="5.57028">
        <ele>434.6</ele>
        <time>2022-02-24T08:21:18Z</time>
      </trkpt>
      <trkpt lat="46.39695" lon="5.57026">
        <ele>434.6</ele>
        <time>2022-02-24T08:21:19Z</time>
      </trkpt>
      <trkpt lat="46.39693" lon="5.57024">
        <ele>435</ele>
        <time>2022-02-24T08:21:20Z</time>
      </trkpt>
      <trkpt lat="46.3969" lon="5.57022">
        <ele>435</ele>
        <time>2022-02-24T08:21:21Z</time>
      </trkpt>
      <trkpt lat="46.39687" lon="5.5702">
        <ele>435.2</ele>
        <time>2022-02-24T08:21:22Z</time>
      </trkpt>
      <trkpt lat="46.39684" lon="5.57018">
        <ele>435.2</ele>
        <time>2022-02-24T08:21:23Z</time>
      </trkpt>
      <trkpt lat="46.39682" lon="5.57016">
        <ele>435.6</ele>
        <time>2022-02-24T08:21:24Z</time>
      </trkpt>
      <trkpt lat="46.39679" lon="5.57014">
        <ele>435.6</ele>
        <time>2022-02-24T08:21:25Z</time>
      </trkpt>
      <trkpt lat="46.39677" lon="5.57011">
        <ele>436</ele>
        <time>2022-02-24T08:21:26Z</time>
      </trkpt>
      <trkpt lat="46.39674" lon="5.57009">
        <ele>436.2</ele>
        <time>2022-02-24T08:21:27Z</time>
      </trkpt>
      <trkpt lat="46.39672" lon="5.57007">
        <ele>436.2</ele>
        <time>2022-02-24T08:21:28Z</time>
      </trkpt>
      <trkpt lat="46.39669" lon="5.57005">
        <ele>436.6</ele>
        <time>2022-02-24T08:21:29Z</time>
      </trkpt>
      <trkpt lat="46.39666" lon="5.57003">
        <ele>436.6</ele>
        <time>2022-02-24T08:21:30Z</time>
      </trkpt>
      <trkpt lat="46.39663" lon="5.57002">
        <ele>436.8</ele>
        <time>2022-02-24T08:21:31Z</time>
      </trkpt>
      <trkpt lat="46.39661" lon="5.57">
        <ele>436.8</ele>
        <time>2022-02-24T08:21:32Z</time>
      </trkpt>
      <trkpt lat="46.39658" lon="5.56997">
        <ele>437.2</ele>
        <time>2022-02-24T08:21:33Z</time>
      </trkpt>
      <trkpt lat="46.39656" lon="5.56995">
        <ele>437.2</ele>
        <time>2022-02-24T08:21:34Z</time>
      </trkpt>
      <trkpt lat="46.39653" lon="5.56993">
        <ele>437.4</ele>
        <time>2022-02-24T08:21:35Z</time>
      </trkpt>
      <trkpt lat="46.3965" lon="5.56991">
        <ele>437.4</ele>
        <time>2022-02-24T08:21:36Z</time>
      </trkpt>
      <trkpt lat="46.39647" lon="5.56989">
        <ele>437.8</ele>
        <time>2022-02-24T08:21:37Z</time>
      </trkpt>
      <trkpt lat="46.39645" lon="5.56987">
        <ele>437.8</ele>
        <time>2022-02-24T08:21:38Z</time>
      </trkpt>
      <trkpt lat="46.39642" lon="5.56985">
        <ele>438.2</ele>
        <time>2022-02-24T08:21:39Z</time>
      </trkpt>
      <trkpt lat="46.39639" lon="5.56983">
        <ele>438.2</ele>
        <time>2022-02-24T08:21:40Z</time>
      </trkpt>
      <trkpt lat="46.39636" lon="5.56981">
        <ele>438.4</ele>
        <time>2022-02-24T08:21:41Z</time>
      </trkpt>
      <trkpt lat="46.39634" lon="5.56979">
        <ele>438.4</ele>
        <time>2022-02-24T08:21:42Z</time>
      </trkpt>
      <trkpt lat="46.39631" lon="5.56977">
        <ele>438.6</ele>
        <time>2022-02-24T08:21:43Z</time>
      </trkpt>
      <trkpt lat="46.39628" lon="5.56975">
        <ele>438.6</ele>
        <time>2022-02-24T08:21:44Z</time>
      </trkpt>
      <trkpt lat="46.39625" lon="5.56972">
        <ele>439</ele>
        <time>2022-02-24T08:21:45Z</time>
      </trkpt>
      <trkpt lat="46.39622" lon="5.5697">
        <ele>439</ele>
        <time>2022-02-24T08:21:46Z</time>
      </trkpt>
      <trkpt lat="46.39619" lon="5.56968">
        <ele>439.2</ele>
        <time>2022-02-24T08:21:47Z</time>
      </trkpt>
      <trkpt lat="46.39616" lon="5.56966">
        <ele>439.2</ele>
        <time>2022-02-24T08:21:48Z</time>
      </trkpt>
      <trkpt lat="46.39614" lon="5.56964">
        <ele>439.6</ele>
        <time>2022-02-24T08:21:49Z</time>
      </trkpt>
      <trkpt lat="46.39611" lon="5.56962">
        <ele>439.6</ele>
        <time>2022-02-24T08:21:50Z</time>
      </trkpt>
      <trkpt lat="46.39608" lon="5.5696">
        <ele>439.8</ele>
        <time>2022-02-24T08:21:51Z</time>
      </trkpt>
      <trkpt lat="46.39605" lon="5.56958">
        <ele>439.8</ele>
        <time>2022-02-24T08:21:52Z</time>
      </trkpt>
      <trkpt lat="46.39603" lon="5.56955">
        <ele>440.2</ele>
        <time>2022-02-24T08:21:53Z</time>
      </trkpt>
      <trkpt lat="46.396" lon="5.56953">
        <ele>440.2</ele>
        <time>2022-02-24T08:21:54Z</time>
      </trkpt>
      <trkpt lat="46.39597" lon="5.56951">
        <ele>440.4</ele>
        <time>2022-02-24T08:21:55Z</time>
      </trkpt>
      <trkpt lat="46.39594" lon="5.56949">
        <ele>440.6</ele>
        <time>2022-02-24T08:21:56Z</time>
      </trkpt>
      <trkpt lat="46.39591" lon="5.56946">
        <ele>440.6</ele>
        <time>2022-02-24T08:21:57Z</time>
      </trkpt>
      <trkpt lat="46.39588" lon="5.56944">
        <ele>441</ele>
        <time>2022-02-24T08:21:58Z</time>
      </trkpt>
      <trkpt lat="46.39585" lon="5.56942">
        <ele>441</ele>
        <time>2022-02-24T08:21:59Z</time>
      </trkpt>
      <trkpt lat="46.39582" lon="5.5694">
        <ele>441.2</ele>
        <time>2022-02-24T08:22:00Z</time>
      </trkpt>
      <trkpt lat="46.39579" lon="5.56938">
        <ele>441.2</ele>
        <time>2022-02-24T08:22:01Z</time>
      </trkpt>
      <trkpt lat="46.39576" lon="5.56935">
        <ele>441.2</ele>
        <time>2022-02-24T08:22:02Z</time>
      </trkpt>
      <trkpt lat="46.39573" lon="5.56933">
        <ele>441.6</ele>
        <time>2022-02-24T08:22:03Z</time>
      </trkpt>
      <trkpt lat="46.3957" lon="5.56931">
        <ele>441.6</ele>
        <time>2022-02-24T08:22:04Z</time>
      </trkpt>
      <trkpt lat="46.39567" lon="5.56929">
        <ele>441.8</ele>
        <time>2022-02-24T08:22:05Z</time>
      </trkpt>
      <trkpt lat="46.39565" lon="5.56926">
        <ele>441.8</ele>
        <time>2022-02-24T08:22:06Z</time>
      </trkpt>
      <trkpt lat="46.39562" lon="5.56924">
        <ele>442.2</ele>
        <time>2022-02-24T08:22:07Z</time>
      </trkpt>
      <trkpt lat="46.39559" lon="5.56922">
        <ele>442.2</ele>
        <time>2022-02-24T08:22:08Z</time>
      </trkpt>
      <trkpt lat="46.39556" lon="5.5692">
        <ele>442.4</ele>
        <time>2022-02-24T08:22:09Z</time>
      </trkpt>
      <trkpt lat="46.39553" lon="5.56918">
        <ele>442.4</ele>
        <time>2022-02-24T08:22:10Z</time>
      </trkpt>
      <trkpt lat="46.3955" lon="5.56916">
        <ele>442.6</ele>
        <time>2022-02-24T08:22:11Z</time>
      </trkpt>
      <trkpt lat="46.39547" lon="5.56914">
        <ele>442.6</ele>
        <time>2022-02-24T08:22:12Z</time>
      </trkpt>
      <trkpt lat="46.39545" lon="5.56912">
        <ele>443</ele>
        <time>2022-02-24T08:22:13Z</time>
      </trkpt>
      <trkpt lat="46.39542" lon="5.5691">
        <ele>443</ele>
        <time>2022-02-24T08:22:14Z</time>
      </trkpt>
      <trkpt lat="46.39539" lon="5.56907">
        <ele>443</ele>
        <time>2022-02-24T08:22:15Z</time>
      </trkpt>
      <trkpt lat="46.39536" lon="5.56905">
        <ele>443.4</ele>
        <time>2022-02-24T08:22:16Z</time>
      </trkpt>
      <trkpt lat="46.39533" lon="5.56903">
        <ele>443.4</ele>
        <time>2022-02-24T08:22:17Z</time>
      </trkpt>
      <trkpt lat="46.3953" lon="5.569">
        <ele>443.6</ele>
        <time>2022-02-24T08:22:18Z</time>
      </trkpt>
      <trkpt lat="46.39527" lon="5.56898">
        <ele>443.8</ele>
        <time>2022-02-24T08:22:19Z</time>
      </trkpt>
      <trkpt lat="46.39524" lon="5.56896">
        <ele>443.8</ele>
        <time>2022-02-24T08:22:20Z</time>
      </trkpt>
      <trkpt lat="46.39521" lon="5.56894">
        <ele>444.2</ele>
        <time>2022-02-24T08:22:21Z</time>
      </trkpt>
      <trkpt lat="46.39518" lon="5.56891">
        <ele>444.2</ele>
        <time>2022-02-24T08:22:22Z</time>
      </trkpt>
      <trkpt lat="46.39515" lon="5.56889">
        <ele>444.4</ele>
        <time>2022-02-24T08:22:23Z</time>
      </trkpt>
      <trkpt lat="46.39512" lon="5.56887">
        <ele>444.6</ele>
        <time>2022-02-24T08:22:24Z</time>
      </trkpt>
      <trkpt lat="46.39509" lon="5.56884">
        <ele>444.6</ele>
        <time>2022-02-24T08:22:25Z</time>
      </trkpt>
      <trkpt lat="46.39506" lon="5.56882">
        <ele>444.8</ele>
        <time>2022-02-24T08:22:26Z</time>
      </trkpt>
      <trkpt lat="46.39503" lon="5.56879">
        <ele>445</ele>
        <time>2022-02-24T08:22:27Z</time>
      </trkpt>
      <trkpt lat="46.395" lon="5.56877">
        <ele>445</ele>
        <time>2022-02-24T08:22:28Z</time>
      </trkpt>
      <trkpt lat="46.39497" lon="5.56875">
        <ele>445.4</ele>
        <time>2022-02-24T08:22:29Z</time>
      </trkpt>
      <trkpt lat="46.39494" lon="5.56873">
        <ele>445.4</ele>
        <time>2022-02-24T08:22:30Z</time>
      </trkpt>
      <trkpt lat="46.39491" lon="5.5687">
        <ele>445.6</ele>
        <time>2022-02-24T08:22:31Z</time>
      </trkpt>
      <trkpt lat="46.39491" lon="5.5687">
        <ele>445.6</ele>
        <time>2022-02-24T08:22:32Z</time>
      </trkpt>
      <trkpt lat="46.39487" lon="5.56868">
        <ele>445.8</ele>
        <time>2022-02-24T08:22:33Z</time>
      </trkpt>
      <trkpt lat="46.39484" lon="5.56866">
        <ele>445.8</ele>
        <time>2022-02-24T08:22:34Z</time>
      </trkpt>
      <trkpt lat="46.39481" lon="5.56863">
        <ele>446</ele>
        <time>2022-02-24T08:22:35Z</time>
      </trkpt>
      <trkpt lat="46.39478" lon="5.56861">
        <ele>446</ele>
        <time>2022-02-24T08:22:36Z</time>
      </trkpt>
      <trkpt lat="46.39475" lon="5.56858">
        <ele>446.2</ele>
        <time>2022-02-24T08:22:37Z</time>
      </trkpt>
      <trkpt lat="46.39472" lon="5.56856">
        <ele>446.2</ele>
        <time>2022-02-24T08:22:38Z</time>
      </trkpt>
      <trkpt lat="46.39469" lon="5.56853">
        <ele>446.6</ele>
        <time>2022-02-24T08:22:39Z</time>
      </trkpt>
      <trkpt lat="46.39466" lon="5.56851">
        <ele>446.6</ele>
        <time>2022-02-24T08:22:40Z</time>
      </trkpt>
      <trkpt lat="46.39463" lon="5.56848">
        <ele>446.6</ele>
        <time>2022-02-24T08:22:41Z</time>
      </trkpt>
      <trkpt lat="46.39459" lon="5.56846">
        <ele>446.8</ele>
        <time>2022-02-24T08:22:42Z</time>
      </trkpt>
      <trkpt lat="46.39456" lon="5.56843">
        <ele>446.8</ele>
        <time>2022-02-24T08:22:43Z</time>
      </trkpt>
      <trkpt lat="46.39452" lon="5.56841">
        <ele>447</ele>
        <time>2022-02-24T08:22:44Z</time>
      </trkpt>
      <trkpt lat="46.39449" lon="5.56839">
        <ele>447</ele>
        <time>2022-02-24T08:22:45Z</time>
      </trkpt>
      <trkpt lat="46.39446" lon="5.56837">
        <ele>447.4</ele>
        <time>2022-02-24T08:22:46Z</time>
      </trkpt>
      <trkpt lat="46.39442" lon="5.56834">
        <ele>447.4</ele>
        <time>2022-02-24T08:22:47Z</time>
      </trkpt>
      <trkpt lat="46.39439" lon="5.56832">
        <ele>447.6</ele>
        <time>2022-02-24T08:22:48Z</time>
      </trkpt>
      <trkpt lat="46.39435" lon="5.56829">
        <ele>447.6</ele>
        <time>2022-02-24T08:22:49Z</time>
      </trkpt>
      <trkpt lat="46.39432" lon="5.56826">
        <ele>448</ele>
        <time>2022-02-24T08:22:50Z</time>
      </trkpt>
      <trkpt lat="46.39429" lon="5.56824">
        <ele>448</ele>
        <time>2022-02-24T08:22:51Z</time>
      </trkpt>
      <trkpt lat="46.39426" lon="5.56822">
        <ele>448</ele>
        <time>2022-02-24T08:22:52Z</time>
      </trkpt>
      <trkpt lat="46.39423" lon="5.56819">
        <ele>448</ele>
        <time>2022-02-24T08:22:53Z</time>
      </trkpt>
      <trkpt lat="46.3942" lon="5.56816">
        <ele>448</ele>
        <time>2022-02-24T08:22:54Z</time>
      </trkpt>
      <trkpt lat="46.39417" lon="5.56813">
        <ele>448</ele>
        <time>2022-02-24T08:22:55Z</time>
      </trkpt>
      <trkpt lat="46.39414" lon="5.56809">
        <ele>448</ele>
        <time>2022-02-24T08:22:56Z</time>
      </trkpt>
      <trkpt lat="46.39411" lon="5.56806">
        <ele>448</ele>
        <time>2022-02-24T08:22:57Z</time>
      </trkpt>
      <trkpt lat="46.39409" lon="5.56803">
        <ele>448</ele>
        <time>2022-02-24T08:22:58Z</time>
      </trkpt>
      <trkpt lat="46.39406" lon="5.56801">
        <ele>448</ele>
        <time>2022-02-24T08:22:59Z</time>
      </trkpt>
      <trkpt lat="46.39404" lon="5.56799">
        <ele>447.8</ele>
        <time>2022-02-24T08:23:00Z</time>
      </trkpt>
      <trkpt lat="46.39402" lon="5.56796">
        <ele>447.8</ele>
        <time>2022-02-24T08:23:01Z</time>
      </trkpt>
      <trkpt lat="46.394" lon="5.56794">
        <ele>447.8</ele>
        <time>2022-02-24T08:23:02Z</time>
      </trkpt>
      <trkpt lat="46.39397" lon="5.56791">
        <ele>447.8</ele>
        <time>2022-02-24T08:23:03Z</time>
      </trkpt>
      <trkpt lat="46.39394" lon="5.56787">
        <ele>447.6</ele>
        <time>2022-02-24T08:23:04Z</time>
      </trkpt>
      <trkpt lat="46.39392" lon="5.56784">
        <ele>447.6</ele>
        <time>2022-02-24T08:23:05Z</time>
      </trkpt>
      <trkpt lat="46.39389" lon="5.56781">
        <ele>447.6</ele>
        <time>2022-02-24T08:23:06Z</time>
      </trkpt>
      <trkpt lat="46.39386" lon="5.56778">
        <ele>447.6</ele>
        <time>2022-02-24T08:23:07Z</time>
      </trkpt>
      <trkpt lat="46.39382" lon="5.56776">
        <ele>447.6</ele>
        <time>2022-02-24T08:23:08Z</time>
      </trkpt>
      <trkpt lat="46.39379" lon="5.56775">
        <ele>447.6</ele>
        <time>2022-02-24T08:23:09Z</time>
      </trkpt>
      <trkpt lat="46.39375" lon="5.56774">
        <ele>447.6</ele>
        <time>2022-02-24T08:23:10Z</time>
      </trkpt>
      <trkpt lat="46.39372" lon="5.56772">
        <ele>447.6</ele>
        <time>2022-02-24T08:23:11Z</time>
      </trkpt>
      <trkpt lat="46.39369" lon="5.56771">
        <ele>447.6</ele>
        <time>2022-02-24T08:23:12Z</time>
      </trkpt>
      <trkpt lat="46.39366" lon="5.56769">
        <ele>447.6</ele>
        <time>2022-02-24T08:23:13Z</time>
      </trkpt>
      <trkpt lat="46.39363" lon="5.56768">
        <ele>447.6</ele>
        <time>2022-02-24T08:23:14Z</time>
      </trkpt>
      <trkpt lat="46.3936" lon="5.56766">
        <ele>447.6</ele>
        <time>2022-02-24T08:23:15Z</time>
      </trkpt>
      <trkpt lat="46.39357" lon="5.56764">
        <ele>447.6</ele>
        <time>2022-02-24T08:23:16Z</time>
      </trkpt>
      <trkpt lat="46.39355" lon="5.56761">
        <ele>447.2</ele>
        <time>2022-02-24T08:23:17Z</time>
      </trkpt>
      <trkpt lat="46.39352" lon="5.56759">
        <ele>447.2</ele>
        <time>2022-02-24T08:23:18Z</time>
      </trkpt>
      <trkpt lat="46.39349" lon="5.56757">
        <ele>447.2</ele>
        <time>2022-02-24T08:23:19Z</time>
      </trkpt>
      <trkpt lat="46.39346" lon="5.56755">
        <ele>447.2</ele>
        <time>2022-02-24T08:23:20Z</time>
      </trkpt>
      <trkpt lat="46.39343" lon="5.56752">
        <ele>447.6</ele>
        <time>2022-02-24T08:23:21Z</time>
      </trkpt>
      <trkpt lat="46.3934" lon="5.56749">
        <ele>447.6</ele>
        <time>2022-02-24T08:23:22Z</time>
      </trkpt>
      <trkpt lat="46.39337" lon="5.56746">
        <ele>447.6</ele>
        <time>2022-02-24T08:23:23Z</time>
      </trkpt>
      <trkpt lat="46.39334" lon="5.56743">
        <ele>447.6</ele>
        <time>2022-02-24T08:23:24Z</time>
      </trkpt>
      <trkpt lat="46.39332" lon="5.56741">
        <ele>447.2</ele>
        <time>2022-02-24T08:23:25Z</time>
      </trkpt>
      <trkpt lat="46.3933" lon="5.56738">
        <ele>447.2</ele>
        <time>2022-02-24T08:23:26Z</time>
      </trkpt>
      <trkpt lat="46.3933" lon="5.56734">
        <ele>447.2</ele>
        <time>2022-02-24T08:23:27Z</time>
      </trkpt>
      <trkpt lat="46.3933" lon="5.5673">
        <ele>447.2</ele>
        <time>2022-02-24T08:23:28Z</time>
      </trkpt>
      <trkpt lat="46.39331" lon="5.56726">
        <ele>447.2</ele>
        <time>2022-02-24T08:23:29Z</time>
      </trkpt>
      <trkpt lat="46.39332" lon="5.56722">
        <ele>447.2</ele>
        <time>2022-02-24T08:23:30Z</time>
      </trkpt>
      <trkpt lat="46.39333" lon="5.56718">
        <ele>447</ele>
        <time>2022-02-24T08:23:31Z</time>
      </trkpt>
      <trkpt lat="46.39333" lon="5.56715">
        <ele>447</ele>
        <time>2022-02-24T08:23:32Z</time>
      </trkpt>
      <trkpt lat="46.39333" lon="5.56711">
        <ele>447</ele>
        <time>2022-02-24T08:23:33Z</time>
      </trkpt>
      <trkpt lat="46.39334" lon="5.56707">
        <ele>446.8</ele>
        <time>2022-02-24T08:23:34Z</time>
      </trkpt>
      <trkpt lat="46.39335" lon="5.56703">
        <ele>446.8</ele>
        <time>2022-02-24T08:23:35Z</time>
      </trkpt>
      <trkpt lat="46.39337" lon="5.56698">
        <ele>446.6</ele>
        <time>2022-02-24T08:23:36Z</time>
      </trkpt>
      <trkpt lat="46.3934" lon="5.56694">
        <ele>446.6</ele>
        <time>2022-02-24T08:23:37Z</time>
      </trkpt>
      <trkpt lat="46.39342" lon="5.56689">
        <ele>446.2</ele>
        <time>2022-02-24T08:23:38Z</time>
      </trkpt>
      <trkpt lat="46.39343" lon="5.56684">
        <ele>446.2</ele>
        <time>2022-02-24T08:23:39Z</time>
      </trkpt>
      <trkpt lat="46.39344" lon="5.56679">
        <ele>446</ele>
        <time>2022-02-24T08:23:40Z</time>
      </trkpt>
      <trkpt lat="46.39345" lon="5.56674">
        <ele>446</ele>
        <time>2022-02-24T08:23:41Z</time>
      </trkpt>
      <trkpt lat="46.39346" lon="5.56669">
        <ele>445.6</ele>
        <time>2022-02-24T08:23:42Z</time>
      </trkpt>
      <trkpt lat="46.39346" lon="5.56664">
        <ele>445.6</ele>
        <time>2022-02-24T08:23:43Z</time>
      </trkpt>
      <trkpt lat="46.39347" lon="5.56659">
        <ele>445.4</ele>
        <time>2022-02-24T08:23:44Z</time>
      </trkpt>
      <trkpt lat="46.39347" lon="5.56654">
        <ele>445.4</ele>
        <time>2022-02-24T08:23:45Z</time>
      </trkpt>
      <trkpt lat="46.39347" lon="5.56649">
        <ele>445.2</ele>
        <time>2022-02-24T08:23:46Z</time>
      </trkpt>
      <trkpt lat="46.39347" lon="5.56644">
        <ele>445.2</ele>
        <time>2022-02-24T08:23:47Z</time>
      </trkpt>
      <trkpt lat="46.39347" lon="5.56639">
        <ele>444.8</ele>
        <time>2022-02-24T08:23:48Z</time>
      </trkpt>
      <trkpt lat="46.39346" lon="5.56634">
        <ele>444.8</ele>
        <time>2022-02-24T08:23:49Z</time>
      </trkpt>
      <trkpt lat="46.39345" lon="5.5663">
        <ele>444.8</ele>
        <time>2022-02-24T08:23:50Z</time>
      </trkpt>
      <trkpt lat="46.39344" lon="5.56626">
        <ele>444.4</ele>
        <time>2022-02-24T08:23:51Z</time>
      </trkpt>
      <trkpt lat="46.39343" lon="5.56622">
        <ele>444.4</ele>
        <time>2022-02-24T08:23:52Z</time>
      </trkpt>
      <trkpt lat="46.39342" lon="5.56618">
        <ele>444.4</ele>
        <time>2022-02-24T08:23:53Z</time>
      </trkpt>
      <trkpt lat="46.39341" lon="5.56615">
        <ele>444.4</ele>
        <time>2022-02-24T08:23:54Z</time>
      </trkpt>
      <trkpt lat="46.39341" lon="5.56613">
        <ele>444.4</ele>
        <time>2022-02-24T08:23:55Z</time>
      </trkpt>
      <trkpt lat="46.39341" lon="5.56611">
        <ele>444.4</ele>
        <time>2022-02-24T08:23:56Z</time>
      </trkpt>
      <trkpt lat="46.39341" lon="5.56609">
        <ele>444.4</ele>
        <time>2022-02-24T08:23:57Z</time>
      </trkpt>
      <trkpt lat="46.39341" lon="5.56607">
        <ele>444.4</ele>
        <time>2022-02-24T08:23:58Z</time>
      </trkpt>
      <trkpt lat="46.39341" lon="5.56605">
        <ele>444.4</ele>
        <time>2022-02-24T08:23:59Z</time>
      </trkpt>
      <trkpt lat="46.39341" lon="5.56604">
        <ele>444.4</ele>
        <time>2022-02-24T08:24:00Z</time>
      </trkpt>
      <trkpt lat="46.39346" lon="5.56604">
        <ele>444.2</ele>
        <time>2022-02-24T08:24:14Z</time>
      </trkpt>
      <trkpt lat="46.39346" lon="5.56604">
        <ele>444.2</ele>
        <time>2022-02-24T08:24:15Z</time>
      </trkpt>
      <trkpt lat="46.39349" lon="5.56606">
        <ele>444</ele>
        <time>2022-02-24T08:24:18Z</time>
      </trkpt>
      <trkpt lat="46.3935" lon="5.56606">
        <ele>444</ele>
        <time>2022-02-24T08:24:19Z</time>
      </trkpt>
      <trkpt lat="46.39352" lon="5.56607">
        <ele>444</ele>
        <time>2022-02-24T08:24:20Z</time>
      </trkpt>
      <trkpt lat="46.39353" lon="5.56608">
        <ele>444</ele>
        <time>2022-02-24T08:24:21Z</time>
      </trkpt>
      <trkpt lat="46.39356" lon="5.56613">
        <ele>443.8</ele>
        <time>2022-02-24T08:24:32Z</time>
      </trkpt>
      <trkpt lat="46.39356" lon="5.56613">
        <ele>443.8</ele>
        <time>2022-02-24T08:24:33Z</time>
      </trkpt>
      <trkpt lat="46.39356" lon="5.56614">
        <ele>443.8</ele>
        <time>2022-02-24T08:24:34Z</time>
      </trkpt>
      <trkpt lat="46.3936" lon="5.56605">
        <ele>443.2</ele>
        <time>2022-02-24T08:25:49Z</time>
      </trkpt>
      <trkpt lat="46.39362" lon="5.56601">
        <ele>443</ele>
        <time>2022-02-24T08:25:50Z</time>
      </trkpt>
      <trkpt lat="46.39364" lon="5.56596">
        <ele>443</ele>
        <time>2022-02-24T08:25:51Z</time>
      </trkpt>
      <trkpt lat="46.39367" lon="5.56592">
        <ele>442.6</ele>
        <time>2022-02-24T08:25:52Z</time>
      </trkpt>
      <trkpt lat="46.3937" lon="5.56589">
        <ele>442.4</ele>
        <time>2022-02-24T08:25:53Z</time>
      </trkpt>
      <trkpt lat="46.39373" lon="5.56584">
        <ele>442</ele>
        <time>2022-02-24T08:25:54Z</time>
      </trkpt>
      <trkpt lat="46.39375" lon="5.56579">
        <ele>442</ele>
        <time>2022-02-24T08:25:55Z</time>
      </trkpt>
      <trkpt lat="46.39376" lon="5.56573">
        <ele>441.6</ele>
        <time>2022-02-24T08:25:56Z</time>
      </trkpt>
      <trkpt lat="46.39377" lon="5.56566">
        <ele>441.4</ele>
        <time>2022-02-24T08:25:57Z</time>
      </trkpt>
      <trkpt lat="46.39377" lon="5.56559">
        <ele>441.4</ele>
        <time>2022-02-24T08:25:58Z</time>
      </trkpt>
      <trkpt lat="46.39377" lon="5.56553">
        <ele>441.2</ele>
        <time>2022-02-24T08:25:59Z</time>
      </trkpt>
      <trkpt lat="46.39376" lon="5.56548">
        <ele>441.2</ele>
        <time>2022-02-24T08:26:00Z</time>
      </trkpt>
      <trkpt lat="46.39376" lon="5.56543">
        <ele>440.8</ele>
        <time>2022-02-24T08:26:01Z</time>
      </trkpt>
      <trkpt lat="46.39376" lon="5.56538">
        <ele>440.6</ele>
        <time>2022-02-24T08:26:02Z</time>
      </trkpt>
      <trkpt lat="46.39375" lon="5.56533">
        <ele>440.6</ele>
        <time>2022-02-24T08:26:03Z</time>
      </trkpt>
      <trkpt lat="46.39374" lon="5.56527">
        <ele>440.6</ele>
        <time>2022-02-24T08:26:04Z</time>
      </trkpt>
      <trkpt lat="46.39371" lon="5.56518">
        <ele>440.4</ele>
        <time>2022-02-24T08:26:05Z</time>
      </trkpt>
      <trkpt lat="46.3937" lon="5.56515">
        <ele>440.4</ele>
        <time>2022-02-24T08:26:06Z</time>
      </trkpt>
      <trkpt lat="46.39369" lon="5.56511">
        <ele>440</ele>
        <time>2022-02-24T08:26:07Z</time>
      </trkpt>
      <trkpt lat="46.39367" lon="5.56507">
        <ele>440</ele>
        <time>2022-02-24T08:26:08Z</time>
      </trkpt>
      <trkpt lat="46.39366" lon="5.56503">
        <ele>440</ele>
        <time>2022-02-24T08:26:09Z</time>
      </trkpt>
      <trkpt lat="46.39365" lon="5.565">
        <ele>439.8</ele>
        <time>2022-02-24T08:26:10Z</time>
      </trkpt>
      <trkpt lat="46.39362" lon="5.56497">
        <ele>439.8</ele>
        <time>2022-02-24T08:26:11Z</time>
      </trkpt>
      <trkpt lat="46.39359" lon="5.56494">
        <ele>439.6</ele>
        <time>2022-02-24T08:26:12Z</time>
      </trkpt>
      <trkpt lat="46.39356" lon="5.56491">
        <ele>439.6</ele>
        <time>2022-02-24T08:26:13Z</time>
      </trkpt>
      <trkpt lat="46.39353" lon="5.56488">
        <ele>439.6</ele>
        <time>2022-02-24T08:26:14Z</time>
      </trkpt>
      <trkpt lat="46.3935" lon="5.56486">
        <ele>439.2</ele>
        <time>2022-02-24T08:26:15Z</time>
      </trkpt>
      <trkpt lat="46.39346" lon="5.56482">
        <ele>439.2</ele>
        <time>2022-02-24T08:26:16Z</time>
      </trkpt>
      <trkpt lat="46.39344" lon="5.56479">
        <ele>439</ele>
        <time>2022-02-24T08:26:17Z</time>
      </trkpt>
      <trkpt lat="46.39341" lon="5.56476">
        <ele>439</ele>
        <time>2022-02-24T08:26:18Z</time>
      </trkpt>
      <trkpt lat="46.39338" lon="5.56471">
        <ele>438.6</ele>
        <time>2022-02-24T08:26:19Z</time>
      </trkpt>
      <trkpt lat="46.39334" lon="5.56466">
        <ele>438.6</ele>
        <time>2022-02-24T08:26:20Z</time>
      </trkpt>
      <trkpt lat="46.3933" lon="5.5646">
        <ele>438.2</ele>
        <time>2022-02-24T08:26:21Z</time>
      </trkpt>
      <trkpt lat="46.39325" lon="5.56455">
        <ele>438</ele>
        <time>2022-02-24T08:26:22Z</time>
      </trkpt>
      <trkpt lat="46.39321" lon="5.5645">
        <ele>437.6</ele>
        <time>2022-02-24T08:26:23Z</time>
      </trkpt>
      <trkpt lat="46.39316" lon="5.56445">
        <ele>437.2</ele>
        <time>2022-02-24T08:26:24Z</time>
      </trkpt>
      <trkpt lat="46.39311" lon="5.5644">
        <ele>436.6</ele>
        <time>2022-02-24T08:26:25Z</time>
      </trkpt>
      <trkpt lat="46.39305" lon="5.56437">
        <ele>436.2</ele>
        <time>2022-02-24T08:26:26Z</time>
      </trkpt>
      <trkpt lat="46.39299" lon="5.56435">
        <ele>435.8</ele>
        <time>2022-02-24T08:26:27Z</time>
      </trkpt>
      <trkpt lat="46.39292" lon="5.56435">
        <ele>435.4</ele>
        <time>2022-02-24T08:26:28Z</time>
      </trkpt>
      <trkpt lat="46.39286" lon="5.56437">
        <ele>435</ele>
        <time>2022-02-24T08:26:29Z</time>
      </trkpt>
      <trkpt lat="46.39286" lon="5.56437">
        <ele>434.8</ele>
        <time>2022-02-24T08:26:30Z</time>
      </trkpt>
      <trkpt lat="46.39279" lon="5.56438">
        <ele>434.6</ele>
        <time>2022-02-24T08:26:31Z</time>
      </trkpt>
      <trkpt lat="46.39273" lon="5.56439">
        <ele>434.2</ele>
        <time>2022-02-24T08:26:32Z</time>
      </trkpt>
      <trkpt lat="46.39266" lon="5.56439">
        <ele>434</ele>
        <time>2022-02-24T08:26:33Z</time>
      </trkpt>
      <trkpt lat="46.3926" lon="5.5644">
        <ele>434</ele>
        <time>2022-02-24T08:26:34Z</time>
      </trkpt>
      <trkpt lat="46.39253" lon="5.56441">
        <ele>434</ele>
        <time>2022-02-24T08:26:35Z</time>
      </trkpt>
      <trkpt lat="46.39247" lon="5.56442">
        <ele>434</ele>
        <time>2022-02-24T08:26:36Z</time>
      </trkpt>
      <trkpt lat="46.39241" lon="5.56443">
        <ele>434</ele>
        <time>2022-02-24T08:26:37Z</time>
      </trkpt>
      <trkpt lat="46.39235" lon="5.56445">
        <ele>434</ele>
        <time>2022-02-24T08:26:38Z</time>
      </trkpt>
      <trkpt lat="46.39229" lon="5.56446">
        <ele>434</ele>
        <time>2022-02-24T08:26:39Z</time>
      </trkpt>
      <trkpt lat="46.39224" lon="5.56448">
        <ele>434</ele>
        <time>2022-02-24T08:26:40Z</time>
      </trkpt>
      <trkpt lat="46.39218" lon="5.56449">
        <ele>434</ele>
        <time>2022-02-24T08:26:41Z</time>
      </trkpt>
      <trkpt lat="46.39213" lon="5.5645">
        <ele>434.2</ele>
        <time>2022-02-24T08:26:42Z</time>
      </trkpt>
      <trkpt lat="46.39208" lon="5.5645">
        <ele>434.2</ele>
        <time>2022-02-24T08:26:43Z</time>
      </trkpt>
      <trkpt lat="46.39203" lon="5.56451">
        <ele>434.6</ele>
        <time>2022-02-24T08:26:44Z</time>
      </trkpt>
      <trkpt lat="46.39199" lon="5.56452">
        <ele>434.6</ele>
        <time>2022-02-24T08:26:45Z</time>
      </trkpt>
      <trkpt lat="46.39194" lon="5.56452">
        <ele>435</ele>
        <time>2022-02-24T08:26:46Z</time>
      </trkpt>
      <trkpt lat="46.39191" lon="5.56452">
        <ele>435.2</ele>
        <time>2022-02-24T08:26:47Z</time>
      </trkpt>
      <trkpt lat="46.39187" lon="5.56453">
        <ele>435.4</ele>
        <time>2022-02-24T08:26:48Z</time>
      </trkpt>
      <trkpt lat="46.39184" lon="5.56453">
        <ele>435.6</ele>
        <time>2022-02-24T08:26:49Z</time>
      </trkpt>
      <trkpt lat="46.39182" lon="5.56453">
        <ele>436</ele>
        <time>2022-02-24T08:26:50Z</time>
      </trkpt>
      <trkpt lat="46.39179" lon="5.56453">
        <ele>436.2</ele>
        <time>2022-02-24T08:26:51Z</time>
      </trkpt>
      <trkpt lat="46.39176" lon="5.56454">
        <ele>436.4</ele>
        <time>2022-02-24T08:26:52Z</time>
      </trkpt>
      <trkpt lat="46.39174" lon="5.56453">
        <ele>436.6</ele>
        <time>2022-02-24T08:26:53Z</time>
      </trkpt>
      <trkpt lat="46.39171" lon="5.56452">
        <ele>436.6</ele>
        <time>2022-02-24T08:26:54Z</time>
      </trkpt>
      <trkpt lat="46.39168" lon="5.56451">
        <ele>437.2</ele>
        <time>2022-02-24T08:26:55Z</time>
      </trkpt>
      <trkpt lat="46.39165" lon="5.5645">
        <ele>437.4</ele>
        <time>2022-02-24T08:26:56Z</time>
      </trkpt>
      <trkpt lat="46.39162" lon="5.56449">
        <ele>437.8</ele>
        <time>2022-02-24T08:26:57Z</time>
      </trkpt>
      <trkpt lat="46.39159" lon="5.56448">
        <ele>438</ele>
        <time>2022-02-24T08:26:58Z</time>
      </trkpt>
      <trkpt lat="46.39156" lon="5.56447">
        <ele>438.4</ele>
        <time>2022-02-24T08:26:59Z</time>
      </trkpt>
      <trkpt lat="46.39153" lon="5.56446">
        <ele>438.6</ele>
        <time>2022-02-24T08:27:00Z</time>
      </trkpt>
      <trkpt lat="46.3915" lon="5.56445">
        <ele>438.8</ele>
        <time>2022-02-24T08:27:01Z</time>
      </trkpt>
      <trkpt lat="46.39146" lon="5.56445">
        <ele>439.2</ele>
        <time>2022-02-24T08:27:02Z</time>
      </trkpt>
      <trkpt lat="46.39143" lon="5.56444">
        <ele>439.4</ele>
        <time>2022-02-24T08:27:03Z</time>
      </trkpt>
      <trkpt lat="46.3914" lon="5.56443">
        <ele>439.4</ele>
        <time>2022-02-24T08:27:04Z</time>
      </trkpt>
      <trkpt lat="46.39136" lon="5.56442">
        <ele>439.8</ele>
        <time>2022-02-24T08:27:05Z</time>
      </trkpt>
      <trkpt lat="46.39133" lon="5.56441">
        <ele>439.8</ele>
        <time>2022-02-24T08:27:06Z</time>
      </trkpt>
      <trkpt lat="46.3913" lon="5.5644">
        <ele>440.2</ele>
        <time>2022-02-24T08:27:07Z</time>
      </trkpt>
      <trkpt lat="46.39126" lon="5.56439">
        <ele>440.4</ele>
        <time>2022-02-24T08:27:08Z</time>
      </trkpt>
      <trkpt lat="46.39123" lon="5.56438">
        <ele>440.4</ele>
        <time>2022-02-24T08:27:09Z</time>
      </trkpt>
      <trkpt lat="46.3912" lon="5.56437">
        <ele>440.6</ele>
        <time>2022-02-24T08:27:10Z</time>
      </trkpt>
      <trkpt lat="46.39117" lon="5.56436">
        <ele>440.6</ele>
        <time>2022-02-24T08:27:11Z</time>
      </trkpt>
      <trkpt lat="46.39113" lon="5.56436">
        <ele>440.6</ele>
        <time>2022-02-24T08:27:12Z</time>
      </trkpt>
      <trkpt lat="46.3911" lon="5.56435">
        <ele>440.8</ele>
        <time>2022-02-24T08:27:13Z</time>
      </trkpt>
      <trkpt lat="46.39106" lon="5.56434">
        <ele>440.8</ele>
        <time>2022-02-24T08:27:14Z</time>
      </trkpt>
      <trkpt lat="46.39102" lon="5.56433">
        <ele>440.8</ele>
        <time>2022-02-24T08:27:15Z</time>
      </trkpt>
      <trkpt lat="46.39098" lon="5.56433">
        <ele>441.2</ele>
        <time>2022-02-24T08:27:16Z</time>
      </trkpt>
      <trkpt lat="46.39095" lon="5.56432">
        <ele>441.2</ele>
        <time>2022-02-24T08:27:17Z</time>
      </trkpt>
      <trkpt lat="46.39091" lon="5.56432">
        <ele>441.2</ele>
        <time>2022-02-24T08:27:18Z</time>
      </trkpt>
      <trkpt lat="46.39086" lon="5.56431">
        <ele>441.2</ele>
        <time>2022-02-24T08:27:19Z</time>
      </trkpt>
      <trkpt lat="46.39082" lon="5.56431">
        <ele>441.2</ele>
        <time>2022-02-24T08:27:20Z</time>
      </trkpt>
      <trkpt lat="46.39077" lon="5.56431">
        <ele>440.8</ele>
        <time>2022-02-24T08:27:21Z</time>
      </trkpt>
      <trkpt lat="46.39072" lon="5.56431">
        <ele>440.8</ele>
        <time>2022-02-24T08:27:22Z</time>
      </trkpt>
      <trkpt lat="46.39067" lon="5.56431">
        <ele>440.6</ele>
        <time>2022-02-24T08:27:23Z</time>
      </trkpt>
      <trkpt lat="46.39061" lon="5.56431">
        <ele>440.6</ele>
        <time>2022-02-24T08:27:24Z</time>
      </trkpt>
      <trkpt lat="46.39056" lon="5.56431">
        <ele>440.6</ele>
        <time>2022-02-24T08:27:25Z</time>
      </trkpt>
      <trkpt lat="46.39051" lon="5.56432">
        <ele>440.6</ele>
        <time>2022-02-24T08:27:26Z</time>
      </trkpt>
      <trkpt lat="46.39045" lon="5.56432">
        <ele>440.6</ele>
        <time>2022-02-24T08:27:27Z</time>
      </trkpt>
      <trkpt lat="46.39039" lon="5.56433">
        <ele>440.6</ele>
        <time>2022-02-24T08:27:28Z</time>
      </trkpt>
      <trkpt lat="46.39034" lon="5.56433">
        <ele>440.6</ele>
        <time>2022-02-24T08:27:29Z</time>
      </trkpt>
      <trkpt lat="46.39028" lon="5.56433">
        <ele>440.6</ele>
        <time>2022-02-24T08:27:30Z</time>
      </trkpt>
      <trkpt lat="46.39023" lon="5.56433">
        <ele>440.6</ele>
        <time>2022-02-24T08:27:31Z</time>
      </trkpt>
      <trkpt lat="46.39017" lon="5.56433">
        <ele>440.6</ele>
        <time>2022-02-24T08:27:32Z</time>
      </trkpt>
      <trkpt lat="46.39011" lon="5.56433">
        <ele>440.6</ele>
        <time>2022-02-24T08:27:33Z</time>
      </trkpt>
      <trkpt lat="46.39005" lon="5.56433">
        <ele>440.6</ele>
        <time>2022-02-24T08:27:34Z</time>
      </trkpt>
      <trkpt lat="46.38999" lon="5.56433">
        <ele>440.6</ele>
        <time>2022-02-24T08:27:35Z</time>
      </trkpt>
      <trkpt lat="46.38993" lon="5.56433">
        <ele>440.4</ele>
        <time>2022-02-24T08:27:36Z</time>
      </trkpt>
      <trkpt lat="46.38987" lon="5.56433">
        <ele>440.2</ele>
        <time>2022-02-24T08:27:37Z</time>
      </trkpt>
      <trkpt lat="46.3898" lon="5.56433">
        <ele>440</ele>
        <time>2022-02-24T08:27:38Z</time>
      </trkpt>
      <trkpt lat="46.38974" lon="5.56433">
        <ele>440</ele>
        <time>2022-02-24T08:27:39Z</time>
      </trkpt>
      <trkpt lat="46.38967" lon="5.56434">
        <ele>439.6</ele>
        <time>2022-02-24T08:27:40Z</time>
      </trkpt>
      <trkpt lat="46.38961" lon="5.56434">
        <ele>439.6</ele>
        <time>2022-02-24T08:27:41Z</time>
      </trkpt>
      <trkpt lat="46.38954" lon="5.56434">
        <ele>439.2</ele>
        <time>2022-02-24T08:27:42Z</time>
      </trkpt>
      <trkpt lat="46.38947" lon="5.56434">
        <ele>439.2</ele>
        <time>2022-02-24T08:27:43Z</time>
      </trkpt>
      <trkpt lat="46.3894" lon="5.56434">
        <ele>439</ele>
        <time>2022-02-24T08:27:44Z</time>
      </trkpt>
      <trkpt lat="46.38933" lon="5.56434">
        <ele>438.6</ele>
        <time>2022-02-24T08:27:45Z</time>
      </trkpt>
      <trkpt lat="46.38926" lon="5.56433">
        <ele>438.4</ele>
        <time>2022-02-24T08:27:46Z</time>
      </trkpt>
      <trkpt lat="46.38918" lon="5.56433">
        <ele>438.2</ele>
        <time>2022-02-24T08:27:47Z</time>
      </trkpt>
      <trkpt lat="46.38911" lon="5.56433">
        <ele>437.8</ele>
        <time>2022-02-24T08:27:48Z</time>
      </trkpt>
      <trkpt lat="46.38903" lon="5.56433">
        <ele>437.6</ele>
        <time>2022-02-24T08:27:49Z</time>
      </trkpt>
      <trkpt lat="46.38896" lon="5.56433">
        <ele>437.4</ele>
        <time>2022-02-24T08:27:50Z</time>
      </trkpt>
      <trkpt lat="46.38888" lon="5.56433">
        <ele>437</ele>
        <time>2022-02-24T08:27:51Z</time>
      </trkpt>
      <trkpt lat="46.3888" lon="5.56433">
        <ele>436.6</ele>
        <time>2022-02-24T08:27:52Z</time>
      </trkpt>
      <trkpt lat="46.38873" lon="5.56433">
        <ele>436.6</ele>
        <time>2022-02-24T08:27:53Z</time>
      </trkpt>
      <trkpt lat="46.38865" lon="5.56433">
        <ele>436.2</ele>
        <time>2022-02-24T08:27:54Z</time>
      </trkpt>
      <trkpt lat="46.38857" lon="5.56433">
        <ele>436</ele>
        <time>2022-02-24T08:27:55Z</time>
      </trkpt>
      <trkpt lat="46.3885" lon="5.56433">
        <ele>435.6</ele>
        <time>2022-02-24T08:27:56Z</time>
      </trkpt>
      <trkpt lat="46.38842" lon="5.56433">
        <ele>435.6</ele>
        <time>2022-02-24T08:27:57Z</time>
      </trkpt>
      <trkpt lat="46.38835" lon="5.56434">
        <ele>435.4</ele>
        <time>2022-02-24T08:27:58Z</time>
      </trkpt>
      <trkpt lat="46.38828" lon="5.56434">
        <ele>435.4</ele>
        <time>2022-02-24T08:27:59Z</time>
      </trkpt>
      <trkpt lat="46.3882" lon="5.56434">
        <ele>435.4</ele>
        <time>2022-02-24T08:28:00Z</time>
      </trkpt>
      <trkpt lat="46.38813" lon="5.56434">
        <ele>435.2</ele>
        <time>2022-02-24T08:28:01Z</time>
      </trkpt>
      <trkpt lat="46.38806" lon="5.56434">
        <ele>435.2</ele>
        <time>2022-02-24T08:28:02Z</time>
      </trkpt>
      <trkpt lat="46.38799" lon="5.56434">
        <ele>434.8</ele>
        <time>2022-02-24T08:28:03Z</time>
      </trkpt>
      <trkpt lat="46.38792" lon="5.56434">
        <ele>434.8</ele>
        <time>2022-02-24T08:28:04Z</time>
      </trkpt>
      <trkpt lat="46.38784" lon="5.56434">
        <ele>434.2</ele>
        <time>2022-02-24T08:28:05Z</time>
      </trkpt>
      <trkpt lat="46.38777" lon="5.56434">
        <ele>434</ele>
        <time>2022-02-24T08:28:06Z</time>
      </trkpt>
      <trkpt lat="46.3877" lon="5.56434">
        <ele>433.8</ele>
        <time>2022-02-24T08:28:07Z</time>
      </trkpt>
      <trkpt lat="46.38763" lon="5.56434">
        <ele>433.8</ele>
        <time>2022-02-24T08:28:08Z</time>
      </trkpt>
      <trkpt lat="46.38755" lon="5.56435">
        <ele>433.4</ele>
        <time>2022-02-24T08:28:09Z</time>
      </trkpt>
      <trkpt lat="46.38748" lon="5.56435">
        <ele>433.4</ele>
        <time>2022-02-24T08:28:10Z</time>
      </trkpt>
      <trkpt lat="46.38741" lon="5.56435">
        <ele>433.2</ele>
        <time>2022-02-24T08:28:11Z</time>
      </trkpt>
      <trkpt lat="46.38735" lon="5.56435">
        <ele>433.2</ele>
        <time>2022-02-24T08:28:12Z</time>
      </trkpt>
      <trkpt lat="46.38728" lon="5.56435">
        <ele>432.8</ele>
        <time>2022-02-24T08:28:13Z</time>
      </trkpt>
      <trkpt lat="46.38721" lon="5.56435">
        <ele>432.6</ele>
        <time>2022-02-24T08:28:14Z</time>
      </trkpt>
      <trkpt lat="46.38714" lon="5.56435">
        <ele>432.6</ele>
        <time>2022-02-24T08:28:15Z</time>
      </trkpt>
      <trkpt lat="46.38707" lon="5.56435">
        <ele>432.4</ele>
        <time>2022-02-24T08:28:16Z</time>
      </trkpt>
      <trkpt lat="46.387" lon="5.56435">
        <ele>432.4</ele>
        <time>2022-02-24T08:28:17Z</time>
      </trkpt>
      <trkpt lat="46.38694" lon="5.56435">
        <ele>432.4</ele>
        <time>2022-02-24T08:28:18Z</time>
      </trkpt>
      <trkpt lat="46.38687" lon="5.56435">
        <ele>432.4</ele>
        <time>2022-02-24T08:28:19Z</time>
      </trkpt>
      <trkpt lat="46.3868" lon="5.56435">
        <ele>432.4</ele>
        <time>2022-02-24T08:28:20Z</time>
      </trkpt>
      <trkpt lat="46.38674" lon="5.56436">
        <ele>432.2</ele>
        <time>2022-02-24T08:28:21Z</time>
      </trkpt>
      <trkpt lat="46.38667" lon="5.56436">
        <ele>432.2</ele>
        <time>2022-02-24T08:28:22Z</time>
      </trkpt>
      <trkpt lat="46.38661" lon="5.56436">
        <ele>432.2</ele>
        <time>2022-02-24T08:28:23Z</time>
      </trkpt>
      <trkpt lat="46.38655" lon="5.56436">
        <ele>432.2</ele>
        <time>2022-02-24T08:28:24Z</time>
      </trkpt>
      <trkpt lat="46.38648" lon="5.56436">
        <ele>432</ele>
        <time>2022-02-24T08:28:25Z</time>
      </trkpt>
      <trkpt lat="46.38642" lon="5.56436">
        <ele>432</ele>
        <time>2022-02-24T08:28:26Z</time>
      </trkpt>
      <trkpt lat="46.38636" lon="5.56436">
        <ele>432</ele>
        <time>2022-02-24T08:28:27Z</time>
      </trkpt>
      <trkpt lat="46.3863" lon="5.56436">
        <ele>432</ele>
        <time>2022-02-24T08:28:28Z</time>
      </trkpt>
      <trkpt lat="46.38623" lon="5.56436">
        <ele>432</ele>
        <time>2022-02-24T08:28:29Z</time>
      </trkpt>
      <trkpt lat="46.38617" lon="5.56436">
        <ele>432</ele>
        <time>2022-02-24T08:28:30Z</time>
      </trkpt>
      <trkpt lat="46.38611" lon="5.56436">
        <ele>432</ele>
        <time>2022-02-24T08:28:31Z</time>
      </trkpt>
      <trkpt lat="46.38605" lon="5.56436">
        <ele>432</ele>
        <time>2022-02-24T08:28:32Z</time>
      </trkpt>
      <trkpt lat="46.386" lon="5.56437">
        <ele>432</ele>
        <time>2022-02-24T08:28:33Z</time>
      </trkpt>
      <trkpt lat="46.38594" lon="5.56437">
        <ele>432</ele>
        <time>2022-02-24T08:28:34Z</time>
      </trkpt>
      <trkpt lat="46.38588" lon="5.56437">
        <ele>432</ele>
        <time>2022-02-24T08:28:35Z</time>
      </trkpt>
      <trkpt lat="46.38583" lon="5.56437">
        <ele>432</ele>
        <time>2022-02-24T08:28:36Z</time>
      </trkpt>
      <trkpt lat="46.38577" lon="5.56437">
        <ele>432</ele>
        <time>2022-02-24T08:28:37Z</time>
      </trkpt>
      <trkpt lat="46.38572" lon="5.56437">
        <ele>432</ele>
        <time>2022-02-24T08:28:38Z</time>
      </trkpt>
      <trkpt lat="46.38566" lon="5.56437">
        <ele>432</ele>
        <time>2022-02-24T08:28:39Z</time>
      </trkpt>
      <trkpt lat="46.38561" lon="5.56437">
        <ele>432.2</ele>
        <time>2022-02-24T08:28:40Z</time>
      </trkpt>
      <trkpt lat="46.38555" lon="5.56437">
        <ele>432.2</ele>
        <time>2022-02-24T08:28:41Z</time>
      </trkpt>
      <trkpt lat="46.3855" lon="5.56437">
        <ele>432.2</ele>
        <time>2022-02-24T08:28:42Z</time>
      </trkpt>
      <trkpt lat="46.38545" lon="5.56437">
        <ele>432.2</ele>
        <time>2022-02-24T08:28:43Z</time>
      </trkpt>
      <trkpt lat="46.38539" lon="5.56437">
        <ele>432.4</ele>
        <time>2022-02-24T08:28:44Z</time>
      </trkpt>
      <trkpt lat="46.38534" lon="5.56437">
        <ele>432.4</ele>
        <time>2022-02-24T08:28:45Z</time>
      </trkpt>
      <trkpt lat="46.38528" lon="5.56437">
        <ele>432.4</ele>
        <time>2022-02-24T08:28:46Z</time>
      </trkpt>
      <trkpt lat="46.38523" lon="5.56437">
        <ele>432.6</ele>
        <time>2022-02-24T08:28:47Z</time>
      </trkpt>
      <trkpt lat="46.38517" lon="5.56437">
        <ele>432.6</ele>
        <time>2022-02-24T08:28:48Z</time>
      </trkpt>
      <trkpt lat="46.38512" lon="5.56437">
        <ele>432.6</ele>
        <time>2022-02-24T08:28:49Z</time>
      </trkpt>
      <trkpt lat="46.38507" lon="5.56437">
        <ele>433</ele>
        <time>2022-02-24T08:28:50Z</time>
      </trkpt>
      <trkpt lat="46.38501" lon="5.56437">
        <ele>433</ele>
        <time>2022-02-24T08:28:51Z</time>
      </trkpt>
      <trkpt lat="46.38496" lon="5.56437">
        <ele>433.2</ele>
        <time>2022-02-24T08:28:52Z</time>
      </trkpt>
      <trkpt lat="46.38491" lon="5.56438">
        <ele>433.2</ele>
        <time>2022-02-24T08:28:53Z</time>
      </trkpt>
      <trkpt lat="46.38485" lon="5.56438">
        <ele>433.6</ele>
        <time>2022-02-24T08:28:54Z</time>
      </trkpt>
      <trkpt lat="46.3848" lon="5.56438">
        <ele>433.6</ele>
        <time>2022-02-24T08:28:55Z</time>
      </trkpt>
      <trkpt lat="46.38475" lon="5.56438">
        <ele>434</ele>
        <time>2022-02-24T08:28:56Z</time>
      </trkpt>
      <trkpt lat="46.3847" lon="5.56438">
        <ele>434.2</ele>
        <time>2022-02-24T08:28:57Z</time>
      </trkpt>
      <trkpt lat="46.38465" lon="5.56438">
        <ele>434.2</ele>
        <time>2022-02-24T08:28:58Z</time>
      </trkpt>
      <trkpt lat="46.3846" lon="5.56438">
        <ele>434.6</ele>
        <time>2022-02-24T08:28:59Z</time>
      </trkpt>
      <trkpt lat="46.38455" lon="5.56438">
        <ele>434.6</ele>
        <time>2022-02-24T08:29:00Z</time>
      </trkpt>
      <trkpt lat="46.3845" lon="5.56438">
        <ele>434.8</ele>
        <time>2022-02-24T08:29:01Z</time>
      </trkpt>
      <trkpt lat="46.38445" lon="5.56438">
        <ele>435.2</ele>
        <time>2022-02-24T08:29:02Z</time>
      </trkpt>
      <trkpt lat="46.38441" lon="5.56438">
        <ele>435.2</ele>
        <time>2022-02-24T08:29:03Z</time>
      </trkpt>
      <trkpt lat="46.38436" lon="5.56438">
        <ele>435.4</ele>
        <time>2022-02-24T08:29:04Z</time>
      </trkpt>
      <trkpt lat="46.38431" lon="5.56438">
        <ele>435.4</ele>
        <time>2022-02-24T08:29:05Z</time>
      </trkpt>
      <trkpt lat="46.38427" lon="5.56438">
        <ele>435.8</ele>
        <time>2022-02-24T08:29:06Z</time>
      </trkpt>
      <trkpt lat="46.38422" lon="5.56438">
        <ele>435.8</ele>
        <time>2022-02-24T08:29:07Z</time>
      </trkpt>
      <trkpt lat="46.38418" lon="5.56438">
        <ele>436.2</ele>
        <time>2022-02-24T08:29:08Z</time>
      </trkpt>
      <trkpt lat="46.38414" lon="5.56438">
        <ele>436.2</ele>
        <time>2022-02-24T08:29:09Z</time>
      </trkpt>
      <trkpt lat="46.38409" lon="5.56438">
        <ele>436.4</ele>
        <time>2022-02-24T08:29:10Z</time>
      </trkpt>
      <trkpt lat="46.38405" lon="5.56438">
        <ele>436.4</ele>
        <time>2022-02-24T08:29:11Z</time>
      </trkpt>
      <trkpt lat="46.38401" lon="5.56438">
        <ele>436.4</ele>
        <time>2022-02-24T08:29:12Z</time>
      </trkpt>
      <trkpt lat="46.38397" lon="5.56438">
        <ele>436.8</ele>
        <time>2022-02-24T08:29:13Z</time>
      </trkpt>
      <trkpt lat="46.38393" lon="5.56438">
        <ele>437</ele>
        <time>2022-02-24T08:29:14Z</time>
      </trkpt>
      <trkpt lat="46.38389" lon="5.56438">
        <ele>437</ele>
        <time>2022-02-24T08:29:15Z</time>
      </trkpt>
      <trkpt lat="46.38385" lon="5.56438">
        <ele>437.2</ele>
        <time>2022-02-24T08:29:16Z</time>
      </trkpt>
      <trkpt lat="46.3838" lon="5.56438">
        <ele>437.2</ele>
        <time>2022-02-24T08:29:17Z</time>
      </trkpt>
      <trkpt lat="46.38376" lon="5.56438">
        <ele>437.2</ele>
        <time>2022-02-24T08:29:18Z</time>
      </trkpt>
      <trkpt lat="46.38372" lon="5.56438">
        <ele>437.6</ele>
        <time>2022-02-24T08:29:19Z</time>
      </trkpt>
      <trkpt lat="46.38368" lon="5.56438">
        <ele>437.6</ele>
        <time>2022-02-24T08:29:20Z</time>
      </trkpt>
      <trkpt lat="46.38364" lon="5.56438">
        <ele>437.6</ele>
        <time>2022-02-24T08:29:21Z</time>
      </trkpt>
      <trkpt lat="46.3836" lon="5.56438">
        <ele>437.6</ele>
        <time>2022-02-24T08:29:22Z</time>
      </trkpt>
      <trkpt lat="46.38356" lon="5.56438">
        <ele>437.8</ele>
        <time>2022-02-24T08:29:23Z</time>
      </trkpt>
      <trkpt lat="46.38352" lon="5.56438">
        <ele>437.8</ele>
        <time>2022-02-24T08:29:24Z</time>
      </trkpt>
      <trkpt lat="46.38348" lon="5.56439">
        <ele>437.8</ele>
        <time>2022-02-24T08:29:25Z</time>
      </trkpt>
      <trkpt lat="46.38344" lon="5.56439">
        <ele>438.2</ele>
        <time>2022-02-24T08:29:26Z</time>
      </trkpt>
      <trkpt lat="46.3834" lon="5.56439">
        <ele>438.2</ele>
        <time>2022-02-24T08:29:27Z</time>
      </trkpt>
      <trkpt lat="46.38335" lon="5.56439">
        <ele>438.2</ele>
        <time>2022-02-24T08:29:28Z</time>
      </trkpt>
      <trkpt lat="46.38331" lon="5.56439">
        <ele>438.2</ele>
        <time>2022-02-24T08:29:29Z</time>
      </trkpt>
      <trkpt lat="46.38327" lon="5.56439">
        <ele>438.2</ele>
        <time>2022-02-24T08:29:30Z</time>
      </trkpt>
      <trkpt lat="46.38322" lon="5.56439">
        <ele>438.2</ele>
        <time>2022-02-24T08:29:31Z</time>
      </trkpt>
      <trkpt lat="46.38318" lon="5.56439">
        <ele>438.4</ele>
        <time>2022-02-24T08:29:32Z</time>
      </trkpt>
      <trkpt lat="46.38314" lon="5.56439">
        <ele>438.4</ele>
        <time>2022-02-24T08:29:33Z</time>
      </trkpt>
      <trkpt lat="46.38309" lon="5.56439">
        <ele>438.4</ele>
        <time>2022-02-24T08:29:34Z</time>
      </trkpt>
      <trkpt lat="46.38304" lon="5.56439">
        <ele>438.4</ele>
        <time>2022-02-24T08:29:35Z</time>
      </trkpt>
      <trkpt lat="46.38299" lon="5.56439">
        <ele>438.6</ele>
        <time>2022-02-24T08:29:36Z</time>
      </trkpt>
      <trkpt lat="46.38294" lon="5.56439">
        <ele>438.8</ele>
        <time>2022-02-24T08:29:37Z</time>
      </trkpt>
      <trkpt lat="46.38289" lon="5.56439">
        <ele>438.8</ele>
        <time>2022-02-24T08:29:38Z</time>
      </trkpt>
      <trkpt lat="46.38283" lon="5.56439">
        <ele>439.2</ele>
        <time>2022-02-24T08:29:39Z</time>
      </trkpt>
      <trkpt lat="46.38278" lon="5.56439">
        <ele>439.2</ele>
        <time>2022-02-24T08:29:40Z</time>
      </trkpt>
      <trkpt lat="46.38273" lon="5.56439">
        <ele>439.4</ele>
        <time>2022-02-24T08:29:41Z</time>
      </trkpt>
      <trkpt lat="46.38269" lon="5.56439">
        <ele>439.4</ele>
        <time>2022-02-24T08:29:42Z</time>
      </trkpt>
      <trkpt lat="46.38264" lon="5.56439">
        <ele>439.8</ele>
        <time>2022-02-24T08:29:43Z</time>
      </trkpt>
      <trkpt lat="46.38259" lon="5.56439">
        <ele>439.8</ele>
        <time>2022-02-24T08:29:44Z</time>
      </trkpt>
      <trkpt lat="46.38255" lon="5.56439">
        <ele>440</ele>
        <time>2022-02-24T08:29:45Z</time>
      </trkpt>
      <trkpt lat="46.3825" lon="5.5644">
        <ele>440</ele>
        <time>2022-02-24T08:29:46Z</time>
      </trkpt>
      <trkpt lat="46.38246" lon="5.5644">
        <ele>440</ele>
        <time>2022-02-24T08:29:47Z</time>
      </trkpt>
      <trkpt lat="46.38241" lon="5.56439">
        <ele>440.2</ele>
        <time>2022-02-24T08:29:48Z</time>
      </trkpt>
      <trkpt lat="46.38236" lon="5.56439">
        <ele>440.2</ele>
        <time>2022-02-24T08:29:49Z</time>
      </trkpt>
      <trkpt lat="46.38232" lon="5.56439">
        <ele>440.2</ele>
        <time>2022-02-24T08:29:50Z</time>
      </trkpt>
      <trkpt lat="46.38227" lon="5.56439">
        <ele>440.4</ele>
        <time>2022-02-24T08:29:51Z</time>
      </trkpt>
      <trkpt lat="46.38222" lon="5.5644">
        <ele>440.4</ele>
        <time>2022-02-24T08:29:52Z</time>
      </trkpt>
      <trkpt lat="46.38218" lon="5.5644">
        <ele>440.4</ele>
        <time>2022-02-24T08:29:53Z</time>
      </trkpt>
      <trkpt lat="46.38213" lon="5.5644">
        <ele>440.4</ele>
        <time>2022-02-24T08:29:54Z</time>
      </trkpt>
      <trkpt lat="46.38209" lon="5.5644">
        <ele>440.8</ele>
        <time>2022-02-24T08:29:55Z</time>
      </trkpt>
      <trkpt lat="46.38204" lon="5.5644">
        <ele>440.8</ele>
        <time>2022-02-24T08:29:56Z</time>
      </trkpt>
      <trkpt lat="46.38199" lon="5.5644">
        <ele>440.8</ele>
        <time>2022-02-24T08:29:57Z</time>
      </trkpt>
      <trkpt lat="46.38195" lon="5.5644">
        <ele>441</ele>
        <time>2022-02-24T08:29:58Z</time>
      </trkpt>
      <trkpt lat="46.3819" lon="5.5644">
        <ele>441.2</ele>
        <time>2022-02-24T08:29:59Z</time>
      </trkpt>
      <trkpt lat="46.38185" lon="5.56439">
        <ele>441.4</ele>
        <time>2022-02-24T08:30:00Z</time>
      </trkpt>
      <trkpt lat="46.38181" lon="5.56439">
        <ele>441.4</ele>
        <time>2022-02-24T08:30:01Z</time>
      </trkpt>
      <trkpt lat="46.38176" lon="5.56439">
        <ele>441.6</ele>
        <time>2022-02-24T08:30:02Z</time>
      </trkpt>
      <trkpt lat="46.38172" lon="5.56439">
        <ele>441.8</ele>
        <time>2022-02-24T08:30:03Z</time>
      </trkpt>
      <trkpt lat="46.38167" lon="5.56439">
        <ele>441.8</ele>
        <time>2022-02-24T08:30:04Z</time>
      </trkpt>
      <trkpt lat="46.38163" lon="5.56439">
        <ele>442.2</ele>
        <time>2022-02-24T08:30:05Z</time>
      </trkpt>
      <trkpt lat="46.38159" lon="5.56439">
        <ele>442.2</ele>
        <time>2022-02-24T08:30:06Z</time>
      </trkpt>
      <trkpt lat="46.38154" lon="5.56439">
        <ele>442.4</ele>
        <time>2022-02-24T08:30:07Z</time>
      </trkpt>
      <trkpt lat="46.3815" lon="5.56439">
        <ele>442.4</ele>
        <time>2022-02-24T08:30:08Z</time>
      </trkpt>
      <trkpt lat="46.38145" lon="5.56438">
        <ele>442.4</ele>
        <time>2022-02-24T08:30:09Z</time>
      </trkpt>
      <trkpt lat="46.38141" lon="5.56437">
        <ele>442.6</ele>
        <time>2022-02-24T08:30:10Z</time>
      </trkpt>
      <trkpt lat="46.38136" lon="5.56436">
        <ele>442.6</ele>
        <time>2022-02-24T08:30:11Z</time>
      </trkpt>
      <trkpt lat="46.38132" lon="5.56435">
        <ele>442.6</ele>
        <time>2022-02-24T08:30:12Z</time>
      </trkpt>
      <trkpt lat="46.38127" lon="5.56434">
        <ele>442.8</ele>
        <time>2022-02-24T08:30:13Z</time>
      </trkpt>
      <trkpt lat="46.38123" lon="5.56432">
        <ele>442.8</ele>
        <time>2022-02-24T08:30:14Z</time>
      </trkpt>
      <trkpt lat="46.38118" lon="5.56431">
        <ele>442.8</ele>
        <time>2022-02-24T08:30:15Z</time>
      </trkpt>
      <trkpt lat="46.38114" lon="5.5643">
        <ele>443</ele>
        <time>2022-02-24T08:30:16Z</time>
      </trkpt>
      <trkpt lat="46.38109" lon="5.56429">
        <ele>443</ele>
        <time>2022-02-24T08:30:17Z</time>
      </trkpt>
      <trkpt lat="46.38105" lon="5.56427">
        <ele>443.4</ele>
        <time>2022-02-24T08:30:18Z</time>
      </trkpt>
      <trkpt lat="46.381" lon="5.56426">
        <ele>443.4</ele>
        <time>2022-02-24T08:30:19Z</time>
      </trkpt>
      <trkpt lat="46.38095" lon="5.56424">
        <ele>443.4</ele>
        <time>2022-02-24T08:30:20Z</time>
      </trkpt>
      <trkpt lat="46.38091" lon="5.56422">
        <ele>443.4</ele>
        <time>2022-02-24T08:30:21Z</time>
      </trkpt>
      <trkpt lat="46.38086" lon="5.5642">
        <ele>443.4</ele>
        <time>2022-02-24T08:30:22Z</time>
      </trkpt>
      <trkpt lat="46.38081" lon="5.56419">
        <ele>443.4</ele>
        <time>2022-02-24T08:30:23Z</time>
      </trkpt>
      <trkpt lat="46.38076" lon="5.56417">
        <ele>443.6</ele>
        <time>2022-02-24T08:30:24Z</time>
      </trkpt>
      <trkpt lat="46.38071" lon="5.56415">
        <ele>443.6</ele>
        <time>2022-02-24T08:30:25Z</time>
      </trkpt>
      <trkpt lat="46.38066" lon="5.56413">
        <ele>443.6</ele>
        <time>2022-02-24T08:30:26Z</time>
      </trkpt>
      <trkpt lat="46.38061" lon="5.56411">
        <ele>443.6</ele>
        <time>2022-02-24T08:30:27Z</time>
      </trkpt>
      <trkpt lat="46.38056" lon="5.5641">
        <ele>443.6</ele>
        <time>2022-02-24T08:30:28Z</time>
      </trkpt>
      <trkpt lat="46.38051" lon="5.56408">
        <ele>443.6</ele>
        <time>2022-02-24T08:30:29Z</time>
      </trkpt>
      <trkpt lat="46.38045" lon="5.56406">
        <ele>444</ele>
        <time>2022-02-24T08:30:30Z</time>
      </trkpt>
      <trkpt lat="46.3804" lon="5.56405">
        <ele>444</ele>
        <time>2022-02-24T08:30:31Z</time>
      </trkpt>
      <trkpt lat="46.38035" lon="5.56404">
        <ele>444</ele>
        <time>2022-02-24T08:30:32Z</time>
      </trkpt>
      <trkpt lat="46.3803" lon="5.56403">
        <ele>444</ele>
        <time>2022-02-24T08:30:33Z</time>
      </trkpt>
      <trkpt lat="46.38024" lon="5.56401">
        <ele>444</ele>
        <time>2022-02-24T08:30:34Z</time>
      </trkpt>
      <trkpt lat="46.38019" lon="5.564">
        <ele>444</ele>
        <time>2022-02-24T08:30:35Z</time>
      </trkpt>
      <trkpt lat="46.38014" lon="5.56397">
        <ele>444</ele>
        <time>2022-02-24T08:30:36Z</time>
      </trkpt>
      <trkpt lat="46.38009" lon="5.56395">
        <ele>444</ele>
        <time>2022-02-24T08:30:37Z</time>
      </trkpt>
      <trkpt lat="46.38004" lon="5.56392">
        <ele>443.8</ele>
        <time>2022-02-24T08:30:38Z</time>
      </trkpt>
      <trkpt lat="46.37998" lon="5.5639">
        <ele>443.8</ele>
        <time>2022-02-24T08:30:39Z</time>
      </trkpt>
      <trkpt lat="46.37993" lon="5.56388">
        <ele>443.8</ele>
        <time>2022-02-24T08:30:40Z</time>
      </trkpt>
      <trkpt lat="46.37988" lon="5.56385">
        <ele>443.8</ele>
        <time>2022-02-24T08:30:41Z</time>
      </trkpt>
      <trkpt lat="46.37982" lon="5.56383">
        <ele>443.8</ele>
        <time>2022-02-24T08:30:42Z</time>
      </trkpt>
      <trkpt lat="46.37977" lon="5.56381">
        <ele>443.8</ele>
        <time>2022-02-24T08:30:43Z</time>
      </trkpt>
      <trkpt lat="46.37972" lon="5.56379">
        <ele>444</ele>
        <time>2022-02-24T08:30:44Z</time>
      </trkpt>
      <trkpt lat="46.37967" lon="5.56377">
        <ele>444</ele>
        <time>2022-02-24T08:30:45Z</time>
      </trkpt>
      <trkpt lat="46.37963" lon="5.56374">
        <ele>444</ele>
        <time>2022-02-24T08:30:46Z</time>
      </trkpt>
      <trkpt lat="46.37953" lon="5.5637">
        <ele>444.2</ele>
        <time>2022-02-24T08:30:47Z</time>
      </trkpt>
      <trkpt lat="46.37948" lon="5.56368">
        <ele>444.2</ele>
        <time>2022-02-24T08:30:48Z</time>
      </trkpt>
      <trkpt lat="46.37943" lon="5.56366">
        <ele>444.2</ele>
        <time>2022-02-24T08:30:49Z</time>
      </trkpt>
      <trkpt lat="46.37939" lon="5.56364">
        <ele>444.6</ele>
        <time>2022-02-24T08:30:50Z</time>
      </trkpt>
      <trkpt lat="46.37934" lon="5.56362">
        <ele>444.6</ele>
        <time>2022-02-24T08:30:51Z</time>
      </trkpt>
      <trkpt lat="46.37929" lon="5.56361">
        <ele>444.6</ele>
        <time>2022-02-24T08:30:52Z</time>
      </trkpt>
      <trkpt lat="46.37924" lon="5.56359">
        <ele>444.6</ele>
        <time>2022-02-24T08:30:53Z</time>
      </trkpt>
      <trkpt lat="46.3792" lon="5.56358">
        <ele>444.6</ele>
        <time>2022-02-24T08:30:54Z</time>
      </trkpt>
      <trkpt lat="46.37915" lon="5.56357">
        <ele>444.6</ele>
        <time>2022-02-24T08:30:55Z</time>
      </trkpt>
      <trkpt lat="46.37911" lon="5.56356">
        <ele>444.6</ele>
        <time>2022-02-24T08:30:56Z</time>
      </trkpt>
      <trkpt lat="46.37907" lon="5.56354">
        <ele>444.6</ele>
        <time>2022-02-24T08:30:57Z</time>
      </trkpt>
      <trkpt lat="46.37903" lon="5.56353">
        <ele>444.8</ele>
        <time>2022-02-24T08:30:58Z</time>
      </trkpt>
      <trkpt lat="46.379" lon="5.56352">
        <ele>444.8</ele>
        <time>2022-02-24T08:30:59Z</time>
      </trkpt>
      <trkpt lat="46.37897" lon="5.5635">
        <ele>444.8</ele>
        <time>2022-02-24T08:31:00Z</time>
      </trkpt>
      <trkpt lat="46.37896" lon="5.56346">
        <ele>444.8</ele>
        <time>2022-02-24T08:31:01Z</time>
      </trkpt>
      <trkpt lat="46.37896" lon="5.56342">
        <ele>444.8</ele>
        <time>2022-02-24T08:31:02Z</time>
      </trkpt>
      <trkpt lat="46.37897" lon="5.56337">
        <ele>444.8</ele>
        <time>2022-02-24T08:31:03Z</time>
      </trkpt>
      <trkpt lat="46.37898" lon="5.56333">
        <ele>444.8</ele>
        <time>2022-02-24T08:31:04Z</time>
      </trkpt>
      <trkpt lat="46.379" lon="5.56328">
        <ele>444.8</ele>
        <time>2022-02-24T08:31:05Z</time>
      </trkpt>
      <trkpt lat="46.37902" lon="5.56323">
        <ele>444.8</ele>
        <time>2022-02-24T08:31:06Z</time>
      </trkpt>
      <trkpt lat="46.37904" lon="5.56317">
        <ele>444.6</ele>
        <time>2022-02-24T08:31:07Z</time>
      </trkpt>
      <trkpt lat="46.37906" lon="5.56312">
        <ele>444.6</ele>
        <time>2022-02-24T08:31:08Z</time>
      </trkpt>
      <trkpt lat="46.37908" lon="5.56306">
        <ele>444.2</ele>
        <time>2022-02-24T08:31:09Z</time>
      </trkpt>
      <trkpt lat="46.3791" lon="5.56301">
        <ele>444.2</ele>
        <time>2022-02-24T08:31:10Z</time>
      </trkpt>
      <trkpt lat="46.37912" lon="5.56295">
        <ele>443.8</ele>
        <time>2022-02-24T08:31:11Z</time>
      </trkpt>
      <trkpt lat="46.37914" lon="5.56289">
        <ele>443.8</ele>
        <time>2022-02-24T08:31:12Z</time>
      </trkpt>
      <trkpt lat="46.37916" lon="5.56283">
        <ele>443.4</ele>
        <time>2022-02-24T08:31:13Z</time>
      </trkpt>
      <trkpt lat="46.37918" lon="5.56276">
        <ele>443.2</ele>
        <time>2022-02-24T08:31:14Z</time>
      </trkpt>
      <trkpt lat="46.37919" lon="5.56268">
        <ele>442.8</ele>
        <time>2022-02-24T08:31:15Z</time>
      </trkpt>
      <trkpt lat="46.37921" lon="5.5626">
        <ele>442.4</ele>
        <time>2022-02-24T08:31:16Z</time>
      </trkpt>
      <trkpt lat="46.37922" lon="5.56252">
        <ele>442</ele>
        <time>2022-02-24T08:31:17Z</time>
      </trkpt>
      <trkpt lat="46.37923" lon="5.56244">
        <ele>441.6</ele>
        <time>2022-02-24T08:31:18Z</time>
      </trkpt>
      <trkpt lat="46.37923" lon="5.56236">
        <ele>441.2</ele>
        <time>2022-02-24T08:31:19Z</time>
      </trkpt>
      <trkpt lat="46.37921" lon="5.56227">
        <ele>440.6</ele>
        <time>2022-02-24T08:31:20Z</time>
      </trkpt>
      <trkpt lat="46.37918" lon="5.56218">
        <ele>440</ele>
        <time>2022-02-24T08:31:21Z</time>
      </trkpt>
      <trkpt lat="46.37913" lon="5.56209">
        <ele>439.4</ele>
        <time>2022-02-24T08:31:22Z</time>
      </trkpt>
      <trkpt lat="46.37908" lon="5.56199">
        <ele>438.8</ele>
        <time>2022-02-24T08:31:23Z</time>
      </trkpt>
      <trkpt lat="46.37903" lon="5.56188">
        <ele>438</ele>
        <time>2022-02-24T08:31:24Z</time>
      </trkpt>
      <trkpt lat="46.37897" lon="5.56177">
        <ele>437.4</ele>
        <time>2022-02-24T08:31:25Z</time>
      </trkpt>
      <trkpt lat="46.37891" lon="5.56165">
        <ele>436.6</ele>
        <time>2022-02-24T08:31:26Z</time>
      </trkpt>
      <trkpt lat="46.37885" lon="5.56152">
        <ele>436</ele>
        <time>2022-02-24T08:31:27Z</time>
      </trkpt>
      <trkpt lat="46.37875" lon="5.56139">
        <ele>435.2</ele>
        <time>2022-02-24T08:31:28Z</time>
      </trkpt>
      <trkpt lat="46.37868" lon="5.56127">
        <ele>434.6</ele>
        <time>2022-02-24T08:31:29Z</time>
      </trkpt>
      <trkpt lat="46.37861" lon="5.56117">
        <ele>434</ele>
        <time>2022-02-24T08:31:30Z</time>
      </trkpt>
      <trkpt lat="46.37854" lon="5.56105">
        <ele>433.4</ele>
        <time>2022-02-24T08:31:31Z</time>
      </trkpt>
      <trkpt lat="46.37848" lon="5.56093">
        <ele>432.8</ele>
        <time>2022-02-24T08:31:32Z</time>
      </trkpt>
      <trkpt lat="46.37842" lon="5.56082">
        <ele>432.6</ele>
        <time>2022-02-24T08:31:33Z</time>
      </trkpt>
      <trkpt lat="46.37837" lon="5.56071">
        <ele>432.2</ele>
        <time>2022-02-24T08:31:34Z</time>
      </trkpt>
      <trkpt lat="46.37837" lon="5.56071">
        <ele>431.8</ele>
        <time>2022-02-24T08:31:35Z</time>
      </trkpt>
      <trkpt lat="46.37832" lon="5.5606">
        <ele>431.6</ele>
        <time>2022-02-24T08:31:36Z</time>
      </trkpt>
      <trkpt lat="46.37828" lon="5.56049">
        <ele>431.4</ele>
        <time>2022-02-24T08:31:37Z</time>
      </trkpt>
      <trkpt lat="46.37825" lon="5.56037">
        <ele>431.4</ele>
        <time>2022-02-24T08:31:38Z</time>
      </trkpt>
      <trkpt lat="46.37823" lon="5.56025">
        <ele>431</ele>
        <time>2022-02-24T08:31:39Z</time>
      </trkpt>
      <trkpt lat="46.37824" lon="5.56014">
        <ele>431</ele>
        <time>2022-02-24T08:31:40Z</time>
      </trkpt>
      <trkpt lat="46.37825" lon="5.56002">
        <ele>430.8</ele>
        <time>2022-02-24T08:31:41Z</time>
      </trkpt>
      <trkpt lat="46.37827" lon="5.5599">
        <ele>430.8</ele>
        <time>2022-02-24T08:31:42Z</time>
      </trkpt>
      <trkpt lat="46.37829" lon="5.55978">
        <ele>430.4</ele>
        <time>2022-02-24T08:31:43Z</time>
      </trkpt>
      <trkpt lat="46.37832" lon="5.55967">
        <ele>430.2</ele>
        <time>2022-02-24T08:31:44Z</time>
      </trkpt>
      <trkpt lat="46.37834" lon="5.55955">
        <ele>429.8</ele>
        <time>2022-02-24T08:31:45Z</time>
      </trkpt>
      <trkpt lat="46.37837" lon="5.55943">
        <ele>429.6</ele>
        <time>2022-02-24T08:31:46Z</time>
      </trkpt>
      <trkpt lat="46.3784" lon="5.55931">
        <ele>429.2</ele>
        <time>2022-02-24T08:31:47Z</time>
      </trkpt>
      <trkpt lat="46.37842" lon="5.55918">
        <ele>429</ele>
        <time>2022-02-24T08:31:48Z</time>
      </trkpt>
      <trkpt lat="46.37844" lon="5.55904">
        <ele>428.4</ele>
        <time>2022-02-24T08:31:49Z</time>
      </trkpt>
      <trkpt lat="46.37843" lon="5.55891">
        <ele>428</ele>
        <time>2022-02-24T08:31:50Z</time>
      </trkpt>
      <trkpt lat="46.37842" lon="5.55877">
        <ele>427.6</ele>
        <time>2022-02-24T08:31:51Z</time>
      </trkpt>
      <trkpt lat="46.37839" lon="5.55863">
        <ele>427.2</ele>
        <time>2022-02-24T08:31:52Z</time>
      </trkpt>
      <trkpt lat="46.37835" lon="5.5585">
        <ele>426.8</ele>
        <time>2022-02-24T08:31:53Z</time>
      </trkpt>
      <trkpt lat="46.3783" lon="5.55838">
        <ele>426.6</ele>
        <time>2022-02-24T08:31:54Z</time>
      </trkpt>
      <trkpt lat="46.37825" lon="5.55825">
        <ele>426.2</ele>
        <time>2022-02-24T08:31:55Z</time>
      </trkpt>
      <trkpt lat="46.3782" lon="5.55813">
        <ele>425.8</ele>
        <time>2022-02-24T08:31:56Z</time>
      </trkpt>
      <trkpt lat="46.37816" lon="5.558">
        <ele>425.4</ele>
        <time>2022-02-24T08:31:57Z</time>
      </trkpt>
      <trkpt lat="46.37811" lon="5.55788">
        <ele>425.2</ele>
        <time>2022-02-24T08:31:58Z</time>
      </trkpt>
      <trkpt lat="46.37808" lon="5.55776">
        <ele>425.2</ele>
        <time>2022-02-24T08:31:59Z</time>
      </trkpt>
      <trkpt lat="46.37804" lon="5.55762">
        <ele>424.8</ele>
        <time>2022-02-24T08:32:00Z</time>
      </trkpt>
      <trkpt lat="46.37802" lon="5.5575">
        <ele>424.8</ele>
        <time>2022-02-24T08:32:01Z</time>
      </trkpt>
      <trkpt lat="46.37801" lon="5.55738">
        <ele>424.6</ele>
        <time>2022-02-24T08:32:02Z</time>
      </trkpt>
      <trkpt lat="46.37801" lon="5.55725">
        <ele>424.6</ele>
        <time>2022-02-24T08:32:03Z</time>
      </trkpt>
      <trkpt lat="46.37802" lon="5.55713">
        <ele>424.6</ele>
        <time>2022-02-24T08:32:04Z</time>
      </trkpt>
      <trkpt lat="46.37804" lon="5.557">
        <ele>424.4</ele>
        <time>2022-02-24T08:32:05Z</time>
      </trkpt>
      <trkpt lat="46.37807" lon="5.55688">
        <ele>424.2</ele>
        <time>2022-02-24T08:32:06Z</time>
      </trkpt>
      <trkpt lat="46.3781" lon="5.55676">
        <ele>423.8</ele>
        <time>2022-02-24T08:32:07Z</time>
      </trkpt>
      <trkpt lat="46.37813" lon="5.55664">
        <ele>423.2</ele>
        <time>2022-02-24T08:32:08Z</time>
      </trkpt>
      <trkpt lat="46.37816" lon="5.55652">
        <ele>422.6</ele>
        <time>2022-02-24T08:32:09Z</time>
      </trkpt>
      <trkpt lat="46.3782" lon="5.55639">
        <ele>422.2</ele>
        <time>2022-02-24T08:32:10Z</time>
      </trkpt>
      <trkpt lat="46.37823" lon="5.55625">
        <ele>421.8</ele>
        <time>2022-02-24T08:32:11Z</time>
      </trkpt>
      <trkpt lat="46.37826" lon="5.55611">
        <ele>421.4</ele>
        <time>2022-02-24T08:32:12Z</time>
      </trkpt>
      <trkpt lat="46.37829" lon="5.55597">
        <ele>420.8</ele>
        <time>2022-02-24T08:32:13Z</time>
      </trkpt>
      <trkpt lat="46.37831" lon="5.55582">
        <ele>420.2</ele>
        <time>2022-02-24T08:32:14Z</time>
      </trkpt>
      <trkpt lat="46.37834" lon="5.55566">
        <ele>419.4</ele>
        <time>2022-02-24T08:32:15Z</time>
      </trkpt>
      <trkpt lat="46.37837" lon="5.55551">
        <ele>419</ele>
        <time>2022-02-24T08:32:16Z</time>
      </trkpt>
      <trkpt lat="46.37838" lon="5.55535">
        <ele>418.4</ele>
        <time>2022-02-24T08:32:17Z</time>
      </trkpt>
      <trkpt lat="46.37839" lon="5.5552">
        <ele>417.6</ele>
        <time>2022-02-24T08:32:18Z</time>
      </trkpt>
      <trkpt lat="46.37841" lon="5.55505">
        <ele>417</ele>
        <time>2022-02-24T08:32:19Z</time>
      </trkpt>
      <trkpt lat="46.37842" lon="5.5549">
        <ele>416.4</ele>
        <time>2022-02-24T08:32:20Z</time>
      </trkpt>
      <trkpt lat="46.37843" lon="5.55474">
        <ele>415.8</ele>
        <time>2022-02-24T08:32:21Z</time>
      </trkpt>
      <trkpt lat="46.37842" lon="5.55459">
        <ele>415.2</ele>
        <time>2022-02-24T08:32:22Z</time>
      </trkpt>
      <trkpt lat="46.37841" lon="5.55445">
        <ele>414.8</ele>
        <time>2022-02-24T08:32:23Z</time>
      </trkpt>
      <trkpt lat="46.3784" lon="5.5543">
        <ele>414.2</ele>
        <time>2022-02-24T08:32:24Z</time>
      </trkpt>
      <trkpt lat="46.37837" lon="5.55415">
        <ele>414</ele>
        <time>2022-02-24T08:32:25Z</time>
      </trkpt>
      <trkpt lat="46.37834" lon="5.55402">
        <ele>413.8</ele>
        <time>2022-02-24T08:32:26Z</time>
      </trkpt>
      <trkpt lat="46.3783" lon="5.55389">
        <ele>413.8</ele>
        <time>2022-02-24T08:32:27Z</time>
      </trkpt>
      <trkpt lat="46.37826" lon="5.55377">
        <ele>413.4</ele>
        <time>2022-02-24T08:32:28Z</time>
      </trkpt>
      <trkpt lat="46.37821" lon="5.55365">
        <ele>413.4</ele>
        <time>2022-02-24T08:32:29Z</time>
      </trkpt>
      <trkpt lat="46.37816" lon="5.55353">
        <ele>413.4</ele>
        <time>2022-02-24T08:32:30Z</time>
      </trkpt>
      <trkpt lat="46.37812" lon="5.55342">
        <ele>413.4</ele>
        <time>2022-02-24T08:32:31Z</time>
      </trkpt>
      <trkpt lat="46.37807" lon="5.55331">
        <ele>413.2</ele>
        <time>2022-02-24T08:32:32Z</time>
      </trkpt>
      <trkpt lat="46.37803" lon="5.55321">
        <ele>413.2</ele>
        <time>2022-02-24T08:32:33Z</time>
      </trkpt>
      <trkpt lat="46.37798" lon="5.55312">
        <ele>413.2</ele>
        <time>2022-02-24T08:32:34Z</time>
      </trkpt>
      <trkpt lat="46.37793" lon="5.55302">
        <ele>413.2</ele>
        <time>2022-02-24T08:32:35Z</time>
      </trkpt>
      <trkpt lat="46.37789" lon="5.55293">
        <ele>413.2</ele>
        <time>2022-02-24T08:32:36Z</time>
      </trkpt>
      <trkpt lat="46.37784" lon="5.55284">
        <ele>413.2</ele>
        <time>2022-02-24T08:32:37Z</time>
      </trkpt>
      <trkpt lat="46.3778" lon="5.55275">
        <ele>413.2</ele>
        <time>2022-02-24T08:32:38Z</time>
      </trkpt>
      <trkpt lat="46.37776" lon="5.55266">
        <ele>413.2</ele>
        <time>2022-02-24T08:32:39Z</time>
      </trkpt>
      <trkpt lat="46.37771" lon="5.55257">
        <ele>413.2</ele>
        <time>2022-02-24T08:32:40Z</time>
      </trkpt>
      <trkpt lat="46.37766" lon="5.55248">
        <ele>413.2</ele>
        <time>2022-02-24T08:32:41Z</time>
      </trkpt>
      <trkpt lat="46.37762" lon="5.55238">
        <ele>412.8</ele>
        <time>2022-02-24T08:32:42Z</time>
      </trkpt>
      <trkpt lat="46.37757" lon="5.55229">
        <ele>412.8</ele>
        <time>2022-02-24T08:32:43Z</time>
      </trkpt>
      <trkpt lat="46.37753" lon="5.5522">
        <ele>412.6</ele>
        <time>2022-02-24T08:32:44Z</time>
      </trkpt>
      <trkpt lat="46.37748" lon="5.5521">
        <ele>412.6</ele>
        <time>2022-02-24T08:32:45Z</time>
      </trkpt>
      <trkpt lat="46.37743" lon="5.55201">
        <ele>412.2</ele>
        <time>2022-02-24T08:32:46Z</time>
      </trkpt>
      <trkpt lat="46.37739" lon="5.55192">
        <ele>412.2</ele>
        <time>2022-02-24T08:32:47Z</time>
      </trkpt>
      <trkpt lat="46.37734" lon="5.55183">
        <ele>411.8</ele>
        <time>2022-02-24T08:32:48Z</time>
      </trkpt>
      <trkpt lat="46.37729" lon="5.55173">
        <ele>411.8</ele>
        <time>2022-02-24T08:32:49Z</time>
      </trkpt>
      <trkpt lat="46.37724" lon="5.55164">
        <ele>411.4</ele>
        <time>2022-02-24T08:32:50Z</time>
      </trkpt>
      <trkpt lat="46.37719" lon="5.55155">
        <ele>411.4</ele>
        <time>2022-02-24T08:32:51Z</time>
      </trkpt>
      <trkpt lat="46.37714" lon="5.55146">
        <ele>411.2</ele>
        <time>2022-02-24T08:32:52Z</time>
      </trkpt>
      <trkpt lat="46.37709" lon="5.55136">
        <ele>411.2</ele>
        <time>2022-02-24T08:32:53Z</time>
      </trkpt>
      <trkpt lat="46.37704" lon="5.55127">
        <ele>411.2</ele>
        <time>2022-02-24T08:32:54Z</time>
      </trkpt>
      <trkpt lat="46.37699" lon="5.55118">
        <ele>410.8</ele>
        <time>2022-02-24T08:32:55Z</time>
      </trkpt>
      <trkpt lat="46.37695" lon="5.55108">
        <ele>410.8</ele>
        <time>2022-02-24T08:32:56Z</time>
      </trkpt>
      <trkpt lat="46.37691" lon="5.55098">
        <ele>410.8</ele>
        <time>2022-02-24T08:32:57Z</time>
      </trkpt>
      <trkpt lat="46.37688" lon="5.55089">
        <ele>410.8</ele>
        <time>2022-02-24T08:32:58Z</time>
      </trkpt>
      <trkpt lat="46.37686" lon="5.55079">
        <ele>410.8</ele>
        <time>2022-02-24T08:32:59Z</time>
      </trkpt>
      <trkpt lat="46.37685" lon="5.55069">
        <ele>411.2</ele>
        <time>2022-02-24T08:33:00Z</time>
      </trkpt>
      <trkpt lat="46.37683" lon="5.55059">
        <ele>411.2</ele>
        <time>2022-02-24T08:33:01Z</time>
      </trkpt>
      <trkpt lat="46.37682" lon="5.55049">
        <ele>411.2</ele>
        <time>2022-02-24T08:33:02Z</time>
      </trkpt>
      <trkpt lat="46.37681" lon="5.55039">
        <ele>411.2</ele>
        <time>2022-02-24T08:33:03Z</time>
      </trkpt>
      <trkpt lat="46.37681" lon="5.55029">
        <ele>411.4</ele>
        <time>2022-02-24T08:33:04Z</time>
      </trkpt>
      <trkpt lat="46.37681" lon="5.55018">
        <ele>411.4</ele>
        <time>2022-02-24T08:33:05Z</time>
      </trkpt>
      <trkpt lat="46.37681" lon="5.55008">
        <ele>411.4</ele>
        <time>2022-02-24T08:33:06Z</time>
      </trkpt>
      <trkpt lat="46.3768" lon="5.54997">
        <ele>411.4</ele>
        <time>2022-02-24T08:33:07Z</time>
      </trkpt>
      <trkpt lat="46.3768" lon="5.54987">
        <ele>411.2</ele>
        <time>2022-02-24T08:33:08Z</time>
      </trkpt>
      <trkpt lat="46.3768" lon="5.54976">
        <ele>411.2</ele>
        <time>2022-02-24T08:33:09Z</time>
      </trkpt>
      <trkpt lat="46.37679" lon="5.54965">
        <ele>410.8</ele>
        <time>2022-02-24T08:33:10Z</time>
      </trkpt>
      <trkpt lat="46.37679" lon="5.54953">
        <ele>410.4</ele>
        <time>2022-02-24T08:33:11Z</time>
      </trkpt>
      <trkpt lat="46.37678" lon="5.54941">
        <ele>410</ele>
        <time>2022-02-24T08:33:12Z</time>
      </trkpt>
      <trkpt lat="46.37678" lon="5.54929">
        <ele>409.6</ele>
        <time>2022-02-24T08:33:13Z</time>
      </trkpt>
      <trkpt lat="46.37677" lon="5.54916">
        <ele>409.4</ele>
        <time>2022-02-24T08:33:14Z</time>
      </trkpt>
      <trkpt lat="46.37677" lon="5.54903">
        <ele>409.2</ele>
        <time>2022-02-24T08:33:15Z</time>
      </trkpt>
      <trkpt lat="46.37677" lon="5.5489">
        <ele>408.8</ele>
        <time>2022-02-24T08:33:16Z</time>
      </trkpt>
      <trkpt lat="46.37678" lon="5.54877">
        <ele>408.8</ele>
        <time>2022-02-24T08:33:17Z</time>
      </trkpt>
      <trkpt lat="46.37679" lon="5.54864">
        <ele>408.2</ele>
        <time>2022-02-24T08:33:18Z</time>
      </trkpt>
      <trkpt lat="46.37681" lon="5.5485">
        <ele>408.2</ele>
        <time>2022-02-24T08:33:19Z</time>
      </trkpt>
      <trkpt lat="46.37682" lon="5.54837">
        <ele>407.8</ele>
        <time>2022-02-24T08:33:20Z</time>
      </trkpt>
      <trkpt lat="46.37684" lon="5.54824">
        <ele>407.4</ele>
        <time>2022-02-24T08:33:21Z</time>
      </trkpt>
      <trkpt lat="46.37686" lon="5.54811">
        <ele>407</ele>
        <time>2022-02-24T08:33:22Z</time>
      </trkpt>
      <trkpt lat="46.37689" lon="5.54799">
        <ele>406.6</ele>
        <time>2022-02-24T08:33:23Z</time>
      </trkpt>
      <trkpt lat="46.37692" lon="5.54785">
        <ele>406.6</ele>
        <time>2022-02-24T08:33:24Z</time>
      </trkpt>
      <trkpt lat="46.37693" lon="5.54772">
        <ele>406.4</ele>
        <time>2022-02-24T08:33:25Z</time>
      </trkpt>
      <trkpt lat="46.37696" lon="5.5476">
        <ele>406.2</ele>
        <time>2022-02-24T08:33:26Z</time>
      </trkpt>
      <trkpt lat="46.37698" lon="5.54747">
        <ele>405.8</ele>
        <time>2022-02-24T08:33:27Z</time>
      </trkpt>
      <trkpt lat="46.37701" lon="5.54735">
        <ele>405.4</ele>
        <time>2022-02-24T08:33:28Z</time>
      </trkpt>
      <trkpt lat="46.37703" lon="5.54722">
        <ele>405.2</ele>
        <time>2022-02-24T08:33:29Z</time>
      </trkpt>
      <trkpt lat="46.37706" lon="5.5471">
        <ele>404.8</ele>
        <time>2022-02-24T08:33:30Z</time>
      </trkpt>
      <trkpt lat="46.37708" lon="5.54698">
        <ele>404.6</ele>
        <time>2022-02-24T08:33:31Z</time>
      </trkpt>
      <trkpt lat="46.37711" lon="5.54685">
        <ele>404.4</ele>
        <time>2022-02-24T08:33:32Z</time>
      </trkpt>
      <trkpt lat="46.37714" lon="5.54673">
        <ele>404</ele>
        <time>2022-02-24T08:33:33Z</time>
      </trkpt>
      <trkpt lat="46.37718" lon="5.54661">
        <ele>403.8</ele>
        <time>2022-02-24T08:33:34Z</time>
      </trkpt>
      <trkpt lat="46.37722" lon="5.5465">
        <ele>403.4</ele>
        <time>2022-02-24T08:33:35Z</time>
      </trkpt>
      <trkpt lat="46.37726" lon="5.54638">
        <ele>403.2</ele>
        <time>2022-02-24T08:33:36Z</time>
      </trkpt>
      <trkpt lat="46.37731" lon="5.54625">
        <ele>403</ele>
        <time>2022-02-24T08:33:37Z</time>
      </trkpt>
      <trkpt lat="46.37736" lon="5.54613">
        <ele>402.6</ele>
        <time>2022-02-24T08:33:38Z</time>
      </trkpt>
      <trkpt lat="46.37741" lon="5.54602">
        <ele>402.4</ele>
        <time>2022-02-24T08:33:39Z</time>
      </trkpt>
      <trkpt lat="46.37745" lon="5.5459">
        <ele>402.2</ele>
        <time>2022-02-24T08:33:40Z</time>
      </trkpt>
      <trkpt lat="46.37749" lon="5.54578">
        <ele>402</ele>
        <time>2022-02-24T08:33:42Z</time>
      </trkpt>
      <trkpt lat="46.37754" lon="5.54566">
        <ele>401.6</ele>
        <time>2022-02-24T08:33:43Z</time>
      </trkpt>
      <trkpt lat="46.37759" lon="5.54555">
        <ele>401.4</ele>
        <time>2022-02-24T08:33:44Z</time>
      </trkpt>
      <trkpt lat="46.37763" lon="5.54544">
        <ele>401.4</ele>
        <time>2022-02-24T08:33:45Z</time>
      </trkpt>
      <trkpt lat="46.37772" lon="5.54521">
        <ele>401</ele>
        <time>2022-02-24T08:33:46Z</time>
      </trkpt>
      <trkpt lat="46.37776" lon="5.5451">
        <ele>400.8</ele>
        <time>2022-02-24T08:33:47Z</time>
      </trkpt>
      <trkpt lat="46.37783" lon="5.54493">
        <ele>400.8</ele>
        <time>2022-02-24T08:33:48Z</time>
      </trkpt>
      <trkpt lat="46.37785" lon="5.54487">
        <ele>400.2</ele>
        <time>2022-02-24T08:33:49Z</time>
      </trkpt>
      <trkpt lat="46.3779" lon="5.54475">
        <ele>400</ele>
        <time>2022-02-24T08:33:50Z</time>
      </trkpt>
      <trkpt lat="46.37795" lon="5.54457">
        <ele>399.6</ele>
        <time>2022-02-24T08:33:51Z</time>
      </trkpt>
      <trkpt lat="46.37797" lon="5.54451">
        <ele>399.4</ele>
        <time>2022-02-24T08:33:52Z</time>
      </trkpt>
      <trkpt lat="46.37802" lon="5.54433">
        <ele>399.2</ele>
        <time>2022-02-24T08:33:53Z</time>
      </trkpt>
      <trkpt lat="46.37804" lon="5.54427">
        <ele>398.8</ele>
        <time>2022-02-24T08:33:54Z</time>
      </trkpt>
      <trkpt lat="46.37808" lon="5.54414">
        <ele>398.6</ele>
        <time>2022-02-24T08:33:55Z</time>
      </trkpt>
      <trkpt lat="46.37811" lon="5.54402">
        <ele>398.2</ele>
        <time>2022-02-24T08:33:56Z</time>
      </trkpt>
      <trkpt lat="46.37815" lon="5.5439">
        <ele>397.8</ele>
        <time>2022-02-24T08:33:57Z</time>
      </trkpt>
      <trkpt lat="46.37819" lon="5.54378">
        <ele>397.6</ele>
        <time>2022-02-24T08:33:58Z</time>
      </trkpt>
      <trkpt lat="46.37823" lon="5.54365">
        <ele>397</ele>
        <time>2022-02-24T08:33:59Z</time>
      </trkpt>
      <trkpt lat="46.37828" lon="5.54353">
        <ele>396.4</ele>
        <time>2022-02-24T08:34:00Z</time>
      </trkpt>
      <trkpt lat="46.37834" lon="5.5434">
        <ele>395.8</ele>
        <time>2022-02-24T08:34:01Z</time>
      </trkpt>
      <trkpt lat="46.37841" lon="5.54328">
        <ele>395.2</ele>
        <time>2022-02-24T08:34:02Z</time>
      </trkpt>
      <trkpt lat="46.3785" lon="5.54319">
        <ele>394.8</ele>
        <time>2022-02-24T08:34:03Z</time>
      </trkpt>
      <trkpt lat="46.37858" lon="5.54311">
        <ele>394</ele>
        <time>2022-02-24T08:34:04Z</time>
      </trkpt>
      <trkpt lat="46.37868" lon="5.54304">
        <ele>393.4</ele>
        <time>2022-02-24T08:34:05Z</time>
      </trkpt>
      <trkpt lat="46.37877" lon="5.54299">
        <ele>392.4</ele>
        <time>2022-02-24T08:34:06Z</time>
      </trkpt>
      <trkpt lat="46.37886" lon="5.54295">
        <ele>391.8</ele>
        <time>2022-02-24T08:34:07Z</time>
      </trkpt>
      <trkpt lat="46.37895" lon="5.54294">
        <ele>391</ele>
        <time>2022-02-24T08:34:08Z</time>
      </trkpt>
      <trkpt lat="46.37905" lon="5.54296">
        <ele>390.4</ele>
        <time>2022-02-24T08:34:09Z</time>
      </trkpt>
      <trkpt lat="46.37913" lon="5.543">
        <ele>390</ele>
        <time>2022-02-24T08:34:10Z</time>
      </trkpt>
      <trkpt lat="46.3792" lon="5.54303">
        <ele>389.4</ele>
        <time>2022-02-24T08:34:11Z</time>
      </trkpt>
      <trkpt lat="46.37926" lon="5.54305">
        <ele>389</ele>
        <time>2022-02-24T08:34:12Z</time>
      </trkpt>
      <trkpt lat="46.37931" lon="5.54304">
        <ele>388.6</ele>
        <time>2022-02-24T08:34:13Z</time>
      </trkpt>
      <trkpt lat="46.37935" lon="5.54299">
        <ele>388.2</ele>
        <time>2022-02-24T08:34:14Z</time>
      </trkpt>
      <trkpt lat="46.37937" lon="5.54291">
        <ele>387.6</ele>
        <time>2022-02-24T08:34:15Z</time>
      </trkpt>
      <trkpt lat="46.37937" lon="5.54291">
        <ele>387.2</ele>
        <time>2022-02-24T08:34:16Z</time>
      </trkpt>
      <trkpt lat="46.37938" lon="5.54283">
        <ele>386.6</ele>
        <time>2022-02-24T08:34:17Z</time>
      </trkpt>
      <trkpt lat="46.37936" lon="5.54276">
        <ele>386.2</ele>
        <time>2022-02-24T08:34:18Z</time>
      </trkpt>
      <trkpt lat="46.37933" lon="5.54269">
        <ele>385.6</ele>
        <time>2022-02-24T08:34:19Z</time>
      </trkpt>
      <trkpt lat="46.37928" lon="5.54263">
        <ele>385.2</ele>
        <time>2022-02-24T08:34:20Z</time>
      </trkpt>
      <trkpt lat="46.37922" lon="5.54256">
        <ele>384.8</ele>
        <time>2022-02-24T08:34:21Z</time>
      </trkpt>
      <trkpt lat="46.37915" lon="5.54249">
        <ele>384.4</ele>
        <time>2022-02-24T08:34:22Z</time>
      </trkpt>
      <trkpt lat="46.37908" lon="5.54241">
        <ele>383.8</ele>
        <time>2022-02-24T08:34:23Z</time>
      </trkpt>
      <trkpt lat="46.37901" lon="5.54234">
        <ele>383.4</ele>
        <time>2022-02-24T08:34:24Z</time>
      </trkpt>
      <trkpt lat="46.37894" lon="5.54226">
        <ele>383</ele>
        <time>2022-02-24T08:34:25Z</time>
      </trkpt>
      <trkpt lat="46.37888" lon="5.54218">
        <ele>382.4</ele>
        <time>2022-02-24T08:34:26Z</time>
      </trkpt>
      <trkpt lat="46.37881" lon="5.5421">
        <ele>382</ele>
        <time>2022-02-24T08:34:27Z</time>
      </trkpt>
      <trkpt lat="46.37874" lon="5.54202">
        <ele>381.4</ele>
        <time>2022-02-24T08:34:28Z</time>
      </trkpt>
      <trkpt lat="46.37867" lon="5.54193">
        <ele>380.8</ele>
        <time>2022-02-24T08:34:29Z</time>
      </trkpt>
      <trkpt lat="46.3786" lon="5.54184">
        <ele>380.2</ele>
        <time>2022-02-24T08:34:30Z</time>
      </trkpt>
      <trkpt lat="46.37851" lon="5.54175">
        <ele>379.2</ele>
        <time>2022-02-24T08:34:31Z</time>
      </trkpt>
      <trkpt lat="46.37842" lon="5.54165">
        <ele>378.6</ele>
        <time>2022-02-24T08:34:32Z</time>
      </trkpt>
      <trkpt lat="46.37833" lon="5.54156">
        <ele>377.8</ele>
        <time>2022-02-24T08:34:33Z</time>
      </trkpt>
      <trkpt lat="46.37824" lon="5.54146">
        <ele>377</ele>
        <time>2022-02-24T08:34:34Z</time>
      </trkpt>
      <trkpt lat="46.37816" lon="5.54138">
        <ele>376.2</ele>
        <time>2022-02-24T08:34:35Z</time>
      </trkpt>
      <trkpt lat="46.37806" lon="5.54128">
        <ele>375.6</ele>
        <time>2022-02-24T08:34:36Z</time>
      </trkpt>
      <trkpt lat="46.37797" lon="5.54119">
        <ele>374.8</ele>
        <time>2022-02-24T08:34:37Z</time>
      </trkpt>
      <trkpt lat="46.37786" lon="5.54111">
        <ele>374</ele>
        <time>2022-02-24T08:34:38Z</time>
      </trkpt>
      <trkpt lat="46.37776" lon="5.54104">
        <ele>373.2</ele>
        <time>2022-02-24T08:34:39Z</time>
      </trkpt>
      <trkpt lat="46.37765" lon="5.54098">
        <ele>372.4</ele>
        <time>2022-02-24T08:34:40Z</time>
      </trkpt>
      <trkpt lat="46.37754" lon="5.54092">
        <ele>371.6</ele>
        <time>2022-02-24T08:34:41Z</time>
      </trkpt>
      <trkpt lat="46.37744" lon="5.54085">
        <ele>370.8</ele>
        <time>2022-02-24T08:34:42Z</time>
      </trkpt>
      <trkpt lat="46.37733" lon="5.5408">
        <ele>370</ele>
        <time>2022-02-24T08:34:43Z</time>
      </trkpt>
      <trkpt lat="46.37722" lon="5.54075">
        <ele>369.2</ele>
        <time>2022-02-24T08:34:44Z</time>
      </trkpt>
      <trkpt lat="46.37711" lon="5.5407">
        <ele>368.4</ele>
        <time>2022-02-24T08:34:45Z</time>
      </trkpt>
      <trkpt lat="46.37699" lon="5.54064">
        <ele>367.6</ele>
        <time>2022-02-24T08:34:46Z</time>
      </trkpt>
      <trkpt lat="46.37688" lon="5.54058">
        <ele>366.8</ele>
        <time>2022-02-24T08:34:47Z</time>
      </trkpt>
      <trkpt lat="46.37677" lon="5.54053">
        <ele>366.2</ele>
        <time>2022-02-24T08:34:48Z</time>
      </trkpt>
      <trkpt lat="46.37667" lon="5.54048">
        <ele>365.4</ele>
        <time>2022-02-24T08:34:49Z</time>
      </trkpt>
      <trkpt lat="46.37656" lon="5.54045">
        <ele>364.4</ele>
        <time>2022-02-24T08:34:50Z</time>
      </trkpt>
      <trkpt lat="46.37645" lon="5.54042">
        <ele>363.6</ele>
        <time>2022-02-24T08:34:51Z</time>
      </trkpt>
      <trkpt lat="46.37622" lon="5.54043">
        <ele>362.8</ele>
        <time>2022-02-24T08:34:52Z</time>
      </trkpt>
      <trkpt lat="46.3761" lon="5.54047">
        <ele>362</ele>
        <time>2022-02-24T08:34:53Z</time>
      </trkpt>
      <trkpt lat="46.376" lon="5.54052">
        <ele>361.2</ele>
        <time>2022-02-24T08:34:54Z</time>
      </trkpt>
      <trkpt lat="46.37588" lon="5.54056">
        <ele>360.4</ele>
        <time>2022-02-24T08:34:55Z</time>
      </trkpt>
      <trkpt lat="46.37576" lon="5.54062">
        <ele>359.6</ele>
        <time>2022-02-24T08:34:56Z</time>
      </trkpt>
      <trkpt lat="46.37565" lon="5.54066">
        <ele>358.8</ele>
        <time>2022-02-24T08:34:57Z</time>
      </trkpt>
      <trkpt lat="46.37554" lon="5.54069">
        <ele>358</ele>
        <time>2022-02-24T08:34:58Z</time>
      </trkpt>
      <trkpt lat="46.37542" lon="5.54073">
        <ele>357.2</ele>
        <time>2022-02-24T08:34:59Z</time>
      </trkpt>
      <trkpt lat="46.3753" lon="5.54077">
        <ele>356.4</ele>
        <time>2022-02-24T08:35:00Z</time>
      </trkpt>
      <trkpt lat="46.37519" lon="5.54081">
        <ele>355.6</ele>
        <time>2022-02-24T08:35:01Z</time>
      </trkpt>
      <trkpt lat="46.37507" lon="5.54086">
        <ele>354.6</ele>
        <time>2022-02-24T08:35:02Z</time>
      </trkpt>
      <trkpt lat="46.37496" lon="5.54091">
        <ele>353.8</ele>
        <time>2022-02-24T08:35:03Z</time>
      </trkpt>
      <trkpt lat="46.37484" lon="5.54097">
        <ele>352.8</ele>
        <time>2022-02-24T08:35:04Z</time>
      </trkpt>
      <trkpt lat="46.37472" lon="5.54102">
        <ele>351.8</ele>
        <time>2022-02-24T08:35:05Z</time>
      </trkpt>
      <trkpt lat="46.3746" lon="5.54108">
        <ele>351</ele>
        <time>2022-02-24T08:35:06Z</time>
      </trkpt>
      <trkpt lat="46.37449" lon="5.54114">
        <ele>350</ele>
        <time>2022-02-24T08:35:07Z</time>
      </trkpt>
      <trkpt lat="46.37437" lon="5.54121">
        <ele>349.2</ele>
        <time>2022-02-24T08:35:08Z</time>
      </trkpt>
      <trkpt lat="46.37425" lon="5.54128">
        <ele>348.4</ele>
        <time>2022-02-24T08:35:09Z</time>
      </trkpt>
      <trkpt lat="46.37413" lon="5.54135">
        <ele>347.4</ele>
        <time>2022-02-24T08:35:10Z</time>
      </trkpt>
      <trkpt lat="46.37401" lon="5.54143">
        <ele>346.4</ele>
        <time>2022-02-24T08:35:11Z</time>
      </trkpt>
      <trkpt lat="46.3739" lon="5.5415">
        <ele>345.4</ele>
        <time>2022-02-24T08:35:12Z</time>
      </trkpt>
      <trkpt lat="46.37378" lon="5.54157">
        <ele>344.6</ele>
        <time>2022-02-24T08:35:13Z</time>
      </trkpt>
      <trkpt lat="46.37365" lon="5.54162">
        <ele>343.6</ele>
        <time>2022-02-24T08:35:14Z</time>
      </trkpt>
      <trkpt lat="46.37352" lon="5.54164">
        <ele>342.8</ele>
        <time>2022-02-24T08:35:15Z</time>
      </trkpt>
      <trkpt lat="46.3734" lon="5.54167">
        <ele>341.8</ele>
        <time>2022-02-24T08:35:16Z</time>
      </trkpt>
      <trkpt lat="46.37327" lon="5.54167">
        <ele>341.2</ele>
        <time>2022-02-24T08:35:17Z</time>
      </trkpt>
      <trkpt lat="46.37315" lon="5.54166">
        <ele>340.4</ele>
        <time>2022-02-24T08:35:18Z</time>
      </trkpt>
      <trkpt lat="46.37303" lon="5.54164">
        <ele>340.4</ele>
        <time>2022-02-24T08:35:19Z</time>
      </trkpt>
      <trkpt lat="46.37291" lon="5.54163">
        <ele>339.6</ele>
        <time>2022-02-24T08:35:20Z</time>
      </trkpt>
      <trkpt lat="46.37279" lon="5.5416">
        <ele>338.8</ele>
        <time>2022-02-24T08:35:21Z</time>
      </trkpt>
      <trkpt lat="46.37267" lon="5.54158">
        <ele>338.2</ele>
        <time>2022-02-24T08:35:22Z</time>
      </trkpt>
      <trkpt lat="46.37255" lon="5.54155">
        <ele>337.6</ele>
        <time>2022-02-24T08:35:23Z</time>
      </trkpt>
      <trkpt lat="46.37244" lon="5.54149">
        <ele>337</ele>
        <time>2022-02-24T08:35:24Z</time>
      </trkpt>
      <trkpt lat="46.37233" lon="5.54144">
        <ele>336.2</ele>
        <time>2022-02-24T08:35:25Z</time>
      </trkpt>
      <trkpt lat="46.37223" lon="5.54137">
        <ele>335.6</ele>
        <time>2022-02-24T08:35:26Z</time>
      </trkpt>
      <trkpt lat="46.37212" lon="5.5413">
        <ele>335.2</ele>
        <time>2022-02-24T08:35:27Z</time>
      </trkpt>
      <trkpt lat="46.37202" lon="5.54123">
        <ele>334.4</ele>
        <time>2022-02-24T08:35:28Z</time>
      </trkpt>
      <trkpt lat="46.37192" lon="5.54115">
        <ele>334</ele>
        <time>2022-02-24T08:35:29Z</time>
      </trkpt>
      <trkpt lat="46.37181" lon="5.54108">
        <ele>333.2</ele>
        <time>2022-02-24T08:35:30Z</time>
      </trkpt>
      <trkpt lat="46.37171" lon="5.541">
        <ele>332.6</ele>
        <time>2022-02-24T08:35:31Z</time>
      </trkpt>
      <trkpt lat="46.37161" lon="5.54093">
        <ele>332</ele>
        <time>2022-02-24T08:35:32Z</time>
      </trkpt>
      <trkpt lat="46.37151" lon="5.54085">
        <ele>331.4</ele>
        <time>2022-02-24T08:35:33Z</time>
      </trkpt>
      <trkpt lat="46.37141" lon="5.54077">
        <ele>331</ele>
        <time>2022-02-24T08:35:34Z</time>
      </trkpt>
      <trkpt lat="46.37132" lon="5.54068">
        <ele>330.4</ele>
        <time>2022-02-24T08:35:35Z</time>
      </trkpt>
      <trkpt lat="46.37122" lon="5.5406">
        <ele>330</ele>
        <time>2022-02-24T08:35:36Z</time>
      </trkpt>
      <trkpt lat="46.37113" lon="5.54051">
        <ele>329.6</ele>
        <time>2022-02-24T08:35:37Z</time>
      </trkpt>
      <trkpt lat="46.37104" lon="5.54041">
        <ele>329</ele>
        <time>2022-02-24T08:35:38Z</time>
      </trkpt>
      <trkpt lat="46.37094" lon="5.54031">
        <ele>328.4</ele>
        <time>2022-02-24T08:35:39Z</time>
      </trkpt>
      <trkpt lat="46.37086" lon="5.54022">
        <ele>327.8</ele>
        <time>2022-02-24T08:35:40Z</time>
      </trkpt>
      <trkpt lat="46.37077" lon="5.54011">
        <ele>327.2</ele>
        <time>2022-02-24T08:35:41Z</time>
      </trkpt>
      <trkpt lat="46.3707" lon="5.54">
        <ele>326.8</ele>
        <time>2022-02-24T08:35:42Z</time>
      </trkpt>
      <trkpt lat="46.37062" lon="5.5399">
        <ele>326.4</ele>
        <time>2022-02-24T08:35:43Z</time>
      </trkpt>
      <trkpt lat="46.37055" lon="5.53978">
        <ele>326</ele>
        <time>2022-02-24T08:35:44Z</time>
      </trkpt>
      <trkpt lat="46.37049" lon="5.53966">
        <ele>325.8</ele>
        <time>2022-02-24T08:35:45Z</time>
      </trkpt>
      <trkpt lat="46.37046" lon="5.53953">
        <ele>325.6</ele>
        <time>2022-02-24T08:35:46Z</time>
      </trkpt>
      <trkpt lat="46.37043" lon="5.5394">
        <ele>325.6</ele>
        <time>2022-02-24T08:35:47Z</time>
      </trkpt>
      <trkpt lat="46.37041" lon="5.53927">
        <ele>325.2</ele>
        <time>2022-02-24T08:35:48Z</time>
      </trkpt>
      <trkpt lat="46.37041" lon="5.53913">
        <ele>325.2</ele>
        <time>2022-02-24T08:35:49Z</time>
      </trkpt>
      <trkpt lat="46.3704" lon="5.539">
        <ele>325.2</ele>
        <time>2022-02-24T08:35:50Z</time>
      </trkpt>
      <trkpt lat="46.3704" lon="5.53888">
        <ele>325.2</ele>
        <time>2022-02-24T08:35:51Z</time>
      </trkpt>
      <trkpt lat="46.3704" lon="5.53877">
        <ele>325.2</ele>
        <time>2022-02-24T08:35:52Z</time>
      </trkpt>
      <trkpt lat="46.3704" lon="5.53867">
        <ele>325.2</ele>
        <time>2022-02-24T08:35:53Z</time>
      </trkpt>
      <trkpt lat="46.3704" lon="5.53856">
        <ele>325.2</ele>
        <time>2022-02-24T08:35:54Z</time>
      </trkpt>
      <trkpt lat="46.3704" lon="5.53846">
        <ele>325.2</ele>
        <time>2022-02-24T08:35:55Z</time>
      </trkpt>
      <trkpt lat="46.3704" lon="5.53836">
        <ele>325.6</ele>
        <time>2022-02-24T08:35:56Z</time>
      </trkpt>
      <trkpt lat="46.3704" lon="5.53825">
        <ele>325.6</ele>
        <time>2022-02-24T08:35:57Z</time>
      </trkpt>
      <trkpt lat="46.3704" lon="5.53815">
        <ele>325.6</ele>
        <time>2022-02-24T08:35:58Z</time>
      </trkpt>
      <trkpt lat="46.3704" lon="5.53805">
        <ele>325.6</ele>
        <time>2022-02-24T08:35:59Z</time>
      </trkpt>
      <trkpt lat="46.3704" lon="5.53795">
        <ele>325.6</ele>
        <time>2022-02-24T08:36:00Z</time>
      </trkpt>
      <trkpt lat="46.3704" lon="5.53785">
        <ele>325.6</ele>
        <time>2022-02-24T08:36:01Z</time>
      </trkpt>
      <trkpt lat="46.3704" lon="5.53775">
        <ele>325.6</ele>
        <time>2022-02-24T08:36:02Z</time>
      </trkpt>
      <trkpt lat="46.3704" lon="5.53765">
        <ele>325.8</ele>
        <time>2022-02-24T08:36:03Z</time>
      </trkpt>
      <trkpt lat="46.3704" lon="5.53756">
        <ele>325.8</ele>
        <time>2022-02-24T08:36:04Z</time>
      </trkpt>
      <trkpt lat="46.3704" lon="5.53747">
        <ele>326</ele>
        <time>2022-02-24T08:36:05Z</time>
      </trkpt>
      <trkpt lat="46.3704" lon="5.53737">
        <ele>326.2</ele>
        <time>2022-02-24T08:36:06Z</time>
      </trkpt>
      <trkpt lat="46.3704" lon="5.53728">
        <ele>326.2</ele>
        <time>2022-02-24T08:36:07Z</time>
      </trkpt>
      <trkpt lat="46.3704" lon="5.5372">
        <ele>326.6</ele>
        <time>2022-02-24T08:36:08Z</time>
      </trkpt>
      <trkpt lat="46.37039" lon="5.53711">
        <ele>326.8</ele>
        <time>2022-02-24T08:36:09Z</time>
      </trkpt>
      <trkpt lat="46.37039" lon="5.53703">
        <ele>326.8</ele>
        <time>2022-02-24T08:36:10Z</time>
      </trkpt>
      <trkpt lat="46.37039" lon="5.53695">
        <ele>327.2</ele>
        <time>2022-02-24T08:36:11Z</time>
      </trkpt>
      <trkpt lat="46.3704" lon="5.53687">
        <ele>327.4</ele>
        <time>2022-02-24T08:36:12Z</time>
      </trkpt>
      <trkpt lat="46.3704" lon="5.53679">
        <ele>327.6</ele>
        <time>2022-02-24T08:36:13Z</time>
      </trkpt>
      <trkpt lat="46.3704" lon="5.53672">
        <ele>327.6</ele>
        <time>2022-02-24T08:36:14Z</time>
      </trkpt>
      <trkpt lat="46.3704" lon="5.53665">
        <ele>327.8</ele>
        <time>2022-02-24T08:36:15Z</time>
      </trkpt>
      <trkpt lat="46.3704" lon="5.53657">
        <ele>328.2</ele>
        <time>2022-02-24T08:36:16Z</time>
      </trkpt>
      <trkpt lat="46.37039" lon="5.5365">
        <ele>328.2</ele>
        <time>2022-02-24T08:36:17Z</time>
      </trkpt>
      <trkpt lat="46.37039" lon="5.53643">
        <ele>328.4</ele>
        <time>2022-02-24T08:36:18Z</time>
      </trkpt>
      <trkpt lat="46.37039" lon="5.53636">
        <ele>328.4</ele>
        <time>2022-02-24T08:36:19Z</time>
      </trkpt>
      <trkpt lat="46.37039" lon="5.53629">
        <ele>328.6</ele>
        <time>2022-02-24T08:36:20Z</time>
      </trkpt>
      <trkpt lat="46.37038" lon="5.53621">
        <ele>328.6</ele>
        <time>2022-02-24T08:36:21Z</time>
      </trkpt>
      <trkpt lat="46.37038" lon="5.53613">
        <ele>328.8</ele>
        <time>2022-02-24T08:36:22Z</time>
      </trkpt>
      <trkpt lat="46.37038" lon="5.53605">
        <ele>328.8</ele>
        <time>2022-02-24T08:36:23Z</time>
      </trkpt>
      <trkpt lat="46.37038" lon="5.53597">
        <ele>329.2</ele>
        <time>2022-02-24T08:36:24Z</time>
      </trkpt>
      <trkpt lat="46.37037" lon="5.53589">
        <ele>329.2</ele>
        <time>2022-02-24T08:36:25Z</time>
      </trkpt>
      <trkpt lat="46.37036" lon="5.53581">
        <ele>329.4</ele>
        <time>2022-02-24T08:36:26Z</time>
      </trkpt>
      <trkpt lat="46.37035" lon="5.53573">
        <ele>329.4</ele>
        <time>2022-02-24T08:36:27Z</time>
      </trkpt>
      <trkpt lat="46.37035" lon="5.53565">
        <ele>329.8</ele>
        <time>2022-02-24T08:36:28Z</time>
      </trkpt>
      <trkpt lat="46.37034" lon="5.53557">
        <ele>329.8</ele>
        <time>2022-02-24T08:36:29Z</time>
      </trkpt>
      <trkpt lat="46.37032" lon="5.5355">
        <ele>330.2</ele>
        <time>2022-02-24T08:36:30Z</time>
      </trkpt>
      <trkpt lat="46.37029" lon="5.53544">
        <ele>330.2</ele>
        <time>2022-02-24T08:36:31Z</time>
      </trkpt>
      <trkpt lat="46.37026" lon="5.5354">
        <ele>330.4</ele>
        <time>2022-02-24T08:36:32Z</time>
      </trkpt>
      <trkpt lat="46.37021" lon="5.53537">
        <ele>330.4</ele>
        <time>2022-02-24T08:36:33Z</time>
      </trkpt>
      <trkpt lat="46.37017" lon="5.53535">
        <ele>330.8</ele>
        <time>2022-02-24T08:36:34Z</time>
      </trkpt>
      <trkpt lat="46.37012" lon="5.53534">
        <ele>330.8</ele>
        <time>2022-02-24T08:36:35Z</time>
      </trkpt>
      <trkpt lat="46.37006" lon="5.53531">
        <ele>330.8</ele>
        <time>2022-02-24T08:36:36Z</time>
      </trkpt>
      <trkpt lat="46.37001" lon="5.53528">
        <ele>330.8</ele>
        <time>2022-02-24T08:36:37Z</time>
      </trkpt>
      <trkpt lat="46.36996" lon="5.53525">
        <ele>330.8</ele>
        <time>2022-02-24T08:36:38Z</time>
      </trkpt>
      <trkpt lat="46.36991" lon="5.53522">
        <ele>330.8</ele>
        <time>2022-02-24T08:36:39Z</time>
      </trkpt>
      <trkpt lat="46.36985" lon="5.5352">
        <ele>330.6</ele>
        <time>2022-02-24T08:36:40Z</time>
      </trkpt>
      <trkpt lat="46.36979" lon="5.53517">
        <ele>330.6</ele>
        <time>2022-02-24T08:36:41Z</time>
      </trkpt>
      <trkpt lat="46.36974" lon="5.53514">
        <ele>330.6</ele>
        <time>2022-02-24T08:36:42Z</time>
      </trkpt>
      <trkpt lat="46.36968" lon="5.5351">
        <ele>330.6</ele>
        <time>2022-02-24T08:36:43Z</time>
      </trkpt>
      <trkpt lat="46.36963" lon="5.53506">
        <ele>330.6</ele>
        <time>2022-02-24T08:36:44Z</time>
      </trkpt>
      <trkpt lat="46.36957" lon="5.53503">
        <ele>330.6</ele>
        <time>2022-02-24T08:36:45Z</time>
      </trkpt>
      <trkpt lat="46.36952" lon="5.535">
        <ele>330.6</ele>
        <time>2022-02-24T08:36:46Z</time>
      </trkpt>
      <trkpt lat="46.36947" lon="5.53497">
        <ele>330.6</ele>
        <time>2022-02-24T08:36:47Z</time>
      </trkpt>
      <trkpt lat="46.36942" lon="5.53494">
        <ele>330.8</ele>
        <time>2022-02-24T08:36:48Z</time>
      </trkpt>
      <trkpt lat="46.36938" lon="5.53492">
        <ele>330.8</ele>
        <time>2022-02-24T08:36:49Z</time>
      </trkpt>
      <trkpt lat="46.36933" lon="5.53489">
        <ele>331.2</ele>
        <time>2022-02-24T08:36:50Z</time>
      </trkpt>
      <trkpt lat="46.36928" lon="5.53486">
        <ele>331.4</ele>
        <time>2022-02-24T08:36:51Z</time>
      </trkpt>
      <trkpt lat="46.36924" lon="5.53484">
        <ele>331.4</ele>
        <time>2022-02-24T08:36:52Z</time>
      </trkpt>
      <trkpt lat="46.3692" lon="5.53482">
        <ele>331.8</ele>
        <time>2022-02-24T08:36:53Z</time>
      </trkpt>
      <trkpt lat="46.36916" lon="5.53479">
        <ele>332</ele>
        <time>2022-02-24T08:36:54Z</time>
      </trkpt>
      <trkpt lat="46.36912" lon="5.53477">
        <ele>332.2</ele>
        <time>2022-02-24T08:36:55Z</time>
      </trkpt>
      <trkpt lat="46.36908" lon="5.53475">
        <ele>332.4</ele>
        <time>2022-02-24T08:36:56Z</time>
      </trkpt>
      <trkpt lat="46.36905" lon="5.53473">
        <ele>332.8</ele>
        <time>2022-02-24T08:36:57Z</time>
      </trkpt>
      <trkpt lat="46.36901" lon="5.53471">
        <ele>333</ele>
        <time>2022-02-24T08:36:58Z</time>
      </trkpt>
      <trkpt lat="46.36897" lon="5.53469">
        <ele>333.2</ele>
        <time>2022-02-24T08:36:59Z</time>
      </trkpt>
      <trkpt lat="46.36894" lon="5.53467">
        <ele>333.6</ele>
        <time>2022-02-24T08:37:00Z</time>
      </trkpt>
      <trkpt lat="46.3689" lon="5.53465">
        <ele>333.6</ele>
        <time>2022-02-24T08:37:01Z</time>
      </trkpt>
      <trkpt lat="46.36887" lon="5.53463">
        <ele>334.2</ele>
        <time>2022-02-24T08:37:02Z</time>
      </trkpt>
      <trkpt lat="46.36884" lon="5.53462">
        <ele>334.4</ele>
        <time>2022-02-24T08:37:03Z</time>
      </trkpt>
      <trkpt lat="46.3688" lon="5.5346">
        <ele>334.8</ele>
        <time>2022-02-24T08:37:04Z</time>
      </trkpt>
      <trkpt lat="46.36877" lon="5.53458">
        <ele>335</ele>
        <time>2022-02-24T08:37:05Z</time>
      </trkpt>
      <trkpt lat="46.36874" lon="5.53457">
        <ele>335.2</ele>
        <time>2022-02-24T08:37:06Z</time>
      </trkpt>
      <trkpt lat="46.36871" lon="5.53456">
        <ele>335.6</ele>
        <time>2022-02-24T08:37:07Z</time>
      </trkpt>
      <trkpt lat="46.36867" lon="5.53456">
        <ele>335.8</ele>
        <time>2022-02-24T08:37:08Z</time>
      </trkpt>
      <trkpt lat="46.36864" lon="5.53456">
        <ele>336.2</ele>
        <time>2022-02-24T08:37:09Z</time>
      </trkpt>
      <trkpt lat="46.36861" lon="5.53456">
        <ele>336.4</ele>
        <time>2022-02-24T08:37:10Z</time>
      </trkpt>
      <trkpt lat="46.36858" lon="5.53456">
        <ele>336.6</ele>
        <time>2022-02-24T08:37:11Z</time>
      </trkpt>
      <trkpt lat="46.36854" lon="5.53456">
        <ele>336.8</ele>
        <time>2022-02-24T08:37:12Z</time>
      </trkpt>
      <trkpt lat="46.36851" lon="5.53456">
        <ele>336.8</ele>
        <time>2022-02-24T08:37:13Z</time>
      </trkpt>
      <trkpt lat="46.36848" lon="5.53456">
        <ele>337.2</ele>
        <time>2022-02-24T08:37:14Z</time>
      </trkpt>
      <trkpt lat="46.36845" lon="5.53456">
        <ele>337.4</ele>
        <time>2022-02-24T08:37:15Z</time>
      </trkpt>
      <trkpt lat="46.36843" lon="5.53457">
        <ele>337.6</ele>
        <time>2022-02-24T08:37:16Z</time>
      </trkpt>
      <trkpt lat="46.3684" lon="5.53458">
        <ele>337.8</ele>
        <time>2022-02-24T08:37:17Z</time>
      </trkpt>
      <trkpt lat="46.36837" lon="5.53459">
        <ele>337.8</ele>
        <time>2022-02-24T08:37:18Z</time>
      </trkpt>
      <trkpt lat="46.36835" lon="5.53461">
        <ele>338.2</ele>
        <time>2022-02-24T08:37:19Z</time>
      </trkpt>
      <trkpt lat="46.36832" lon="5.53462">
        <ele>338.4</ele>
        <time>2022-02-24T08:37:20Z</time>
      </trkpt>
      <trkpt lat="46.36829" lon="5.53463">
        <ele>338.8</ele>
        <time>2022-02-24T08:37:21Z</time>
      </trkpt>
      <trkpt lat="46.36826" lon="5.53464">
        <ele>339</ele>
        <time>2022-02-24T08:37:22Z</time>
      </trkpt>
      <trkpt lat="46.36824" lon="5.53466">
        <ele>339</ele>
        <time>2022-02-24T08:37:23Z</time>
      </trkpt>
      <trkpt lat="46.36822" lon="5.53467">
        <ele>339.4</ele>
        <time>2022-02-24T08:37:24Z</time>
      </trkpt>
      <trkpt lat="46.36819" lon="5.53468">
        <ele>339.4</ele>
        <time>2022-02-24T08:37:25Z</time>
      </trkpt>
      <trkpt lat="46.36816" lon="5.5347">
        <ele>339.8</ele>
        <time>2022-02-24T08:37:26Z</time>
      </trkpt>
      <trkpt lat="46.36813" lon="5.53471">
        <ele>340</ele>
        <time>2022-02-24T08:37:27Z</time>
      </trkpt>
      <trkpt lat="46.3681" lon="5.53473">
        <ele>340.2</ele>
        <time>2022-02-24T08:37:28Z</time>
      </trkpt>
      <trkpt lat="46.36808" lon="5.53475">
        <ele>340.6</ele>
        <time>2022-02-24T08:37:29Z</time>
      </trkpt>
      <trkpt lat="46.36806" lon="5.53476">
        <ele>340.6</ele>
        <time>2022-02-24T08:37:30Z</time>
      </trkpt>
      <trkpt lat="46.36803" lon="5.53478">
        <ele>341</ele>
        <time>2022-02-24T08:37:31Z</time>
      </trkpt>
      <trkpt lat="46.36801" lon="5.5348">
        <ele>341.2</ele>
        <time>2022-02-24T08:37:32Z</time>
      </trkpt>
      <trkpt lat="46.36798" lon="5.53482">
        <ele>341.4</ele>
        <time>2022-02-24T08:37:33Z</time>
      </trkpt>
      <trkpt lat="46.36795" lon="5.53484">
        <ele>341.6</ele>
        <time>2022-02-24T08:37:34Z</time>
      </trkpt>
      <trkpt lat="46.36793" lon="5.53486">
        <ele>342</ele>
        <time>2022-02-24T08:37:35Z</time>
      </trkpt>
      <trkpt lat="46.3679" lon="5.53487">
        <ele>342</ele>
        <time>2022-02-24T08:37:36Z</time>
      </trkpt>
      <trkpt lat="46.36787" lon="5.53489">
        <ele>342.2</ele>
        <time>2022-02-24T08:37:37Z</time>
      </trkpt>
      <trkpt lat="46.36784" lon="5.53491">
        <ele>342.4</ele>
        <time>2022-02-24T08:37:38Z</time>
      </trkpt>
      <trkpt lat="46.36781" lon="5.53493">
        <ele>342.4</ele>
        <time>2022-02-24T08:37:39Z</time>
      </trkpt>
      <trkpt lat="46.36779" lon="5.53495">
        <ele>342.8</ele>
        <time>2022-02-24T08:37:40Z</time>
      </trkpt>
      <trkpt lat="46.36776" lon="5.53496">
        <ele>343</ele>
        <time>2022-02-24T08:37:41Z</time>
      </trkpt>
      <trkpt lat="46.36774" lon="5.53498">
        <ele>343.4</ele>
        <time>2022-02-24T08:37:42Z</time>
      </trkpt>
      <trkpt lat="46.36771" lon="5.535">
        <ele>343.6</ele>
        <time>2022-02-24T08:37:43Z</time>
      </trkpt>
      <trkpt lat="46.36767" lon="5.53502">
        <ele>343.8</ele>
        <time>2022-02-24T08:37:44Z</time>
      </trkpt>
      <trkpt lat="46.36764" lon="5.53503">
        <ele>344</ele>
        <time>2022-02-24T08:37:45Z</time>
      </trkpt>
      <trkpt lat="46.36762" lon="5.53505">
        <ele>344.4</ele>
        <time>2022-02-24T08:37:46Z</time>
      </trkpt>
      <trkpt lat="46.36759" lon="5.53507">
        <ele>344.4</ele>
        <time>2022-02-24T08:37:47Z</time>
      </trkpt>
      <trkpt lat="46.36756" lon="5.53508">
        <ele>344.8</ele>
        <time>2022-02-24T08:37:48Z</time>
      </trkpt>
      <trkpt lat="46.36753" lon="5.53509">
        <ele>344.8</ele>
        <time>2022-02-24T08:37:49Z</time>
      </trkpt>
      <trkpt lat="46.3675" lon="5.53511">
        <ele>345.2</ele>
        <time>2022-02-24T08:37:50Z</time>
      </trkpt>
      <trkpt lat="46.36747" lon="5.53513">
        <ele>345.4</ele>
        <time>2022-02-24T08:37:51Z</time>
      </trkpt>
      <trkpt lat="46.36744" lon="5.53515">
        <ele>345.6</ele>
        <time>2022-02-24T08:37:52Z</time>
      </trkpt>
      <trkpt lat="46.3674" lon="5.53517">
        <ele>345.6</ele>
        <time>2022-02-24T08:37:53Z</time>
      </trkpt>
      <trkpt lat="46.36737" lon="5.53519">
        <ele>346</ele>
        <time>2022-02-24T08:37:54Z</time>
      </trkpt>
      <trkpt lat="46.36734" lon="5.53522">
        <ele>346</ele>
        <time>2022-02-24T08:37:55Z</time>
      </trkpt>
      <trkpt lat="46.3673" lon="5.53524">
        <ele>346.4</ele>
        <time>2022-02-24T08:37:56Z</time>
      </trkpt>
      <trkpt lat="46.36726" lon="5.53525">
        <ele>346.4</ele>
        <time>2022-02-24T08:37:57Z</time>
      </trkpt>
      <trkpt lat="46.36723" lon="5.53527">
        <ele>346.8</ele>
        <time>2022-02-24T08:37:58Z</time>
      </trkpt>
      <trkpt lat="46.3672" lon="5.53529">
        <ele>347</ele>
        <time>2022-02-24T08:37:59Z</time>
      </trkpt>
      <trkpt lat="46.36717" lon="5.53531">
        <ele>347.2</ele>
        <time>2022-02-24T08:38:00Z</time>
      </trkpt>
      <trkpt lat="46.36714" lon="5.53533">
        <ele>347.4</ele>
        <time>2022-02-24T08:38:01Z</time>
      </trkpt>
      <trkpt lat="46.36711" lon="5.53536">
        <ele>347.4</ele>
        <time>2022-02-24T08:38:02Z</time>
      </trkpt>
      <trkpt lat="46.36709" lon="5.53538">
        <ele>347.8</ele>
        <time>2022-02-24T08:38:03Z</time>
      </trkpt>
      <trkpt lat="46.36706" lon="5.5354">
        <ele>348</ele>
        <time>2022-02-24T08:38:04Z</time>
      </trkpt>
      <trkpt lat="46.36703" lon="5.53542">
        <ele>348.2</ele>
        <time>2022-02-24T08:38:05Z</time>
      </trkpt>
      <trkpt lat="46.36701" lon="5.53545">
        <ele>348.2</ele>
        <time>2022-02-24T08:38:06Z</time>
      </trkpt>
      <trkpt lat="46.36699" lon="5.53547">
        <ele>348.8</ele>
        <time>2022-02-24T08:38:07Z</time>
      </trkpt>
      <trkpt lat="46.36696" lon="5.5355">
        <ele>349</ele>
        <time>2022-02-24T08:38:08Z</time>
      </trkpt>
      <trkpt lat="46.36694" lon="5.53552">
        <ele>349.2</ele>
        <time>2022-02-24T08:38:09Z</time>
      </trkpt>
      <trkpt lat="46.36691" lon="5.53555">
        <ele>349.6</ele>
        <time>2022-02-24T08:38:10Z</time>
      </trkpt>
      <trkpt lat="46.36689" lon="5.53557">
        <ele>349.8</ele>
        <time>2022-02-24T08:38:11Z</time>
      </trkpt>
      <trkpt lat="46.36686" lon="5.53559">
        <ele>350</ele>
        <time>2022-02-24T08:38:12Z</time>
      </trkpt>
      <trkpt lat="46.36683" lon="5.53561">
        <ele>350</ele>
        <time>2022-02-24T08:38:13Z</time>
      </trkpt>
      <trkpt lat="46.3668" lon="5.53563">
        <ele>350.2</ele>
        <time>2022-02-24T08:38:14Z</time>
      </trkpt>
      <trkpt lat="46.36677" lon="5.53565">
        <ele>350.4</ele>
        <time>2022-02-24T08:38:15Z</time>
      </trkpt>
      <trkpt lat="46.36674" lon="5.53567">
        <ele>350.6</ele>
        <time>2022-02-24T08:38:16Z</time>
      </trkpt>
      <trkpt lat="46.36671" lon="5.53569">
        <ele>351</ele>
        <time>2022-02-24T08:38:17Z</time>
      </trkpt>
      <trkpt lat="46.36668" lon="5.53571">
        <ele>351.2</ele>
        <time>2022-02-24T08:38:18Z</time>
      </trkpt>
      <trkpt lat="46.36665" lon="5.53572">
        <ele>351.4</ele>
        <time>2022-02-24T08:38:19Z</time>
      </trkpt>
      <trkpt lat="46.36662" lon="5.53573">
        <ele>351.8</ele>
        <time>2022-02-24T08:38:20Z</time>
      </trkpt>
      <trkpt lat="46.36659" lon="5.53574">
        <ele>352</ele>
        <time>2022-02-24T08:38:21Z</time>
      </trkpt>
      <trkpt lat="46.36656" lon="5.53575">
        <ele>352.2</ele>
        <time>2022-02-24T08:38:22Z</time>
      </trkpt>
      <trkpt lat="46.36653" lon="5.53576">
        <ele>352.4</ele>
        <time>2022-02-24T08:38:23Z</time>
      </trkpt>
      <trkpt lat="46.3665" lon="5.53577">
        <ele>352.4</ele>
        <time>2022-02-24T08:38:24Z</time>
      </trkpt>
      <trkpt lat="46.36647" lon="5.53578">
        <ele>352.4</ele>
        <time>2022-02-24T08:38:25Z</time>
      </trkpt>
      <trkpt lat="46.36644" lon="5.53579">
        <ele>352.8</ele>
        <time>2022-02-24T08:38:26Z</time>
      </trkpt>
      <trkpt lat="46.36641" lon="5.5358">
        <ele>353</ele>
        <time>2022-02-24T08:38:27Z</time>
      </trkpt>
      <trkpt lat="46.36638" lon="5.53581">
        <ele>353.2</ele>
        <time>2022-02-24T08:38:28Z</time>
      </trkpt>
      <trkpt lat="46.36636" lon="5.53581">
        <ele>353.4</ele>
        <time>2022-02-24T08:38:29Z</time>
      </trkpt>
      <trkpt lat="46.36633" lon="5.53582">
        <ele>353.6</ele>
        <time>2022-02-24T08:38:30Z</time>
      </trkpt>
      <trkpt lat="46.3663" lon="5.53583">
        <ele>353.8</ele>
        <time>2022-02-24T08:38:31Z</time>
      </trkpt>
      <trkpt lat="46.36628" lon="5.53584">
        <ele>354</ele>
        <time>2022-02-24T08:38:32Z</time>
      </trkpt>
      <trkpt lat="46.36625" lon="5.53585">
        <ele>354.2</ele>
        <time>2022-02-24T08:38:33Z</time>
      </trkpt>
      <trkpt lat="46.36623" lon="5.53585">
        <ele>354.6</ele>
        <time>2022-02-24T08:38:34Z</time>
      </trkpt>
      <trkpt lat="46.3662" lon="5.53586">
        <ele>354.6</ele>
        <time>2022-02-24T08:38:35Z</time>
      </trkpt>
      <trkpt lat="46.36618" lon="5.53587">
        <ele>355</ele>
        <time>2022-02-24T08:38:36Z</time>
      </trkpt>
      <trkpt lat="46.36614" lon="5.53588">
        <ele>355</ele>
        <time>2022-02-24T08:38:37Z</time>
      </trkpt>
      <trkpt lat="46.36611" lon="5.5359">
        <ele>355.2</ele>
        <time>2022-02-24T08:38:38Z</time>
      </trkpt>
      <trkpt lat="46.36608" lon="5.53591">
        <ele>355.4</ele>
        <time>2022-02-24T08:38:39Z</time>
      </trkpt>
      <trkpt lat="46.36605" lon="5.53592">
        <ele>355.8</ele>
        <time>2022-02-24T08:38:40Z</time>
      </trkpt>
      <trkpt lat="46.36602" lon="5.53593">
        <ele>356</ele>
        <time>2022-02-24T08:38:41Z</time>
      </trkpt>
      <trkpt lat="46.36599" lon="5.53594">
        <ele>356.2</ele>
        <time>2022-02-24T08:38:42Z</time>
      </trkpt>
      <trkpt lat="46.36596" lon="5.53595">
        <ele>356.2</ele>
        <time>2022-02-24T08:38:43Z</time>
      </trkpt>
      <trkpt lat="46.36593" lon="5.53596">
        <ele>356.6</ele>
        <time>2022-02-24T08:38:44Z</time>
      </trkpt>
      <trkpt lat="46.3659" lon="5.53597">
        <ele>356.8</ele>
        <time>2022-02-24T08:38:45Z</time>
      </trkpt>
      <trkpt lat="46.36587" lon="5.53598">
        <ele>356.8</ele>
        <time>2022-02-24T08:38:46Z</time>
      </trkpt>
      <trkpt lat="46.36584" lon="5.53598">
        <ele>357.2</ele>
        <time>2022-02-24T08:38:47Z</time>
      </trkpt>
      <trkpt lat="46.36581" lon="5.53599">
        <ele>357.4</ele>
        <time>2022-02-24T08:38:48Z</time>
      </trkpt>
      <trkpt lat="46.36578" lon="5.536">
        <ele>357.4</ele>
        <time>2022-02-24T08:38:49Z</time>
      </trkpt>
      <trkpt lat="46.36575" lon="5.536">
        <ele>357.8</ele>
        <time>2022-02-24T08:38:50Z</time>
      </trkpt>
      <trkpt lat="46.36571" lon="5.53601">
        <ele>358</ele>
        <time>2022-02-24T08:38:51Z</time>
      </trkpt>
      <trkpt lat="46.36568" lon="5.53601">
        <ele>358</ele>
        <time>2022-02-24T08:38:52Z</time>
      </trkpt>
      <trkpt lat="46.36565" lon="5.53602">
        <ele>358.2</ele>
        <time>2022-02-24T08:38:53Z</time>
      </trkpt>
      <trkpt lat="46.36562" lon="5.53602">
        <ele>358.6</ele>
        <time>2022-02-24T08:38:54Z</time>
      </trkpt>
      <trkpt lat="46.36558" lon="5.53603">
        <ele>358.8</ele>
        <time>2022-02-24T08:38:55Z</time>
      </trkpt>
      <trkpt lat="46.36555" lon="5.53603">
        <ele>359.2</ele>
        <time>2022-02-24T08:38:56Z</time>
      </trkpt>
      <trkpt lat="46.36552" lon="5.53604">
        <ele>359.6</ele>
        <time>2022-02-24T08:38:57Z</time>
      </trkpt>
      <trkpt lat="46.36549" lon="5.53604">
        <ele>359.8</ele>
        <time>2022-02-24T08:38:58Z</time>
      </trkpt>
      <trkpt lat="46.36546" lon="5.53604">
        <ele>360.2</ele>
        <time>2022-02-24T08:38:59Z</time>
      </trkpt>
      <trkpt lat="46.36543" lon="5.53603">
        <ele>360.4</ele>
        <time>2022-02-24T08:39:00Z</time>
      </trkpt>
      <trkpt lat="46.3654" lon="5.53603">
        <ele>360.6</ele>
        <time>2022-02-24T08:39:01Z</time>
      </trkpt>
      <trkpt lat="46.36537" lon="5.53603">
        <ele>360.8</ele>
        <time>2022-02-24T08:39:02Z</time>
      </trkpt>
      <trkpt lat="46.36534" lon="5.53603">
        <ele>361.2</ele>
        <time>2022-02-24T08:39:03Z</time>
      </trkpt>
      <trkpt lat="46.36531" lon="5.53603">
        <ele>361.4</ele>
        <time>2022-02-24T08:39:04Z</time>
      </trkpt>
      <trkpt lat="46.36529" lon="5.53603">
        <ele>361.6</ele>
        <time>2022-02-24T08:39:05Z</time>
      </trkpt>
      <trkpt lat="46.36526" lon="5.53602">
        <ele>361.6</ele>
        <time>2022-02-24T08:39:06Z</time>
      </trkpt>
      <trkpt lat="46.36524" lon="5.53602">
        <ele>361.8</ele>
        <time>2022-02-24T08:39:07Z</time>
      </trkpt>
      <trkpt lat="46.36521" lon="5.53602">
        <ele>361.8</ele>
        <time>2022-02-24T08:39:08Z</time>
      </trkpt>
      <trkpt lat="46.36518" lon="5.53602">
        <ele>362.2</ele>
        <time>2022-02-24T08:39:09Z</time>
      </trkpt>
      <trkpt lat="46.36515" lon="5.53601">
        <ele>362.2</ele>
        <time>2022-02-24T08:39:10Z</time>
      </trkpt>
      <trkpt lat="46.36512" lon="5.53601">
        <ele>362.6</ele>
        <time>2022-02-24T08:39:11Z</time>
      </trkpt>
      <trkpt lat="46.36509" lon="5.53601">
        <ele>362.8</ele>
        <time>2022-02-24T08:39:12Z</time>
      </trkpt>
      <trkpt lat="46.36506" lon="5.536">
        <ele>363</ele>
        <time>2022-02-24T08:39:13Z</time>
      </trkpt>
      <trkpt lat="46.36503" lon="5.536">
        <ele>363</ele>
        <time>2022-02-24T08:39:14Z</time>
      </trkpt>
      <trkpt lat="46.36499" lon="5.536">
        <ele>363.4</ele>
        <time>2022-02-24T08:39:15Z</time>
      </trkpt>
      <trkpt lat="46.36497" lon="5.53599">
        <ele>363.6</ele>
        <time>2022-02-24T08:39:16Z</time>
      </trkpt>
      <trkpt lat="46.36494" lon="5.53599">
        <ele>363.8</ele>
        <time>2022-02-24T08:39:17Z</time>
      </trkpt>
      <trkpt lat="46.36491" lon="5.53598">
        <ele>363.8</ele>
        <time>2022-02-24T08:39:18Z</time>
      </trkpt>
      <trkpt lat="46.36488" lon="5.53598">
        <ele>364.2</ele>
        <time>2022-02-24T08:39:19Z</time>
      </trkpt>
      <trkpt lat="46.36484" lon="5.53598">
        <ele>364.4</ele>
        <time>2022-02-24T08:39:20Z</time>
      </trkpt>
      <trkpt lat="46.36481" lon="5.53598">
        <ele>364.6</ele>
        <time>2022-02-24T08:39:21Z</time>
      </trkpt>
      <trkpt lat="46.36478" lon="5.53598">
        <ele>364.8</ele>
        <time>2022-02-24T08:39:22Z</time>
      </trkpt>
      <trkpt lat="46.36475" lon="5.53598">
        <ele>365.2</ele>
        <time>2022-02-24T08:39:23Z</time>
      </trkpt>
      <trkpt lat="46.36473" lon="5.53598">
        <ele>365.4</ele>
        <time>2022-02-24T08:39:24Z</time>
      </trkpt>
      <trkpt lat="46.3647" lon="5.53598">
        <ele>365.6</ele>
        <time>2022-02-24T08:39:25Z</time>
      </trkpt>
      <trkpt lat="46.36467" lon="5.53598">
        <ele>365.8</ele>
        <time>2022-02-24T08:39:26Z</time>
      </trkpt>
      <trkpt lat="46.36464" lon="5.53597">
        <ele>365.8</ele>
        <time>2022-02-24T08:39:27Z</time>
      </trkpt>
      <trkpt lat="46.36464" lon="5.53597">
        <ele>366.2</ele>
        <time>2022-02-24T08:39:28Z</time>
      </trkpt>
      <trkpt lat="46.36462" lon="5.53596">
        <ele>366.2</ele>
        <time>2022-02-24T08:39:29Z</time>
      </trkpt>
      <trkpt lat="46.36456" lon="5.53595">
        <ele>366.4</ele>
        <time>2022-02-24T08:39:30Z</time>
      </trkpt>
      <trkpt lat="46.36453" lon="5.53595">
        <ele>366.4</ele>
        <time>2022-02-24T08:39:31Z</time>
      </trkpt>
      <trkpt lat="46.3645" lon="5.53595">
        <ele>366.8</ele>
        <time>2022-02-24T08:39:32Z</time>
      </trkpt>
      <trkpt lat="46.36447" lon="5.53595">
        <ele>366.8</ele>
        <time>2022-02-24T08:39:33Z</time>
      </trkpt>
      <trkpt lat="46.36445" lon="5.53594">
        <ele>367.2</ele>
        <time>2022-02-24T08:39:34Z</time>
      </trkpt>
      <trkpt lat="46.36442" lon="5.53594">
        <ele>367.2</ele>
        <time>2022-02-24T08:39:35Z</time>
      </trkpt>
      <trkpt lat="46.36439" lon="5.53594">
        <ele>367.6</ele>
        <time>2022-02-24T08:39:36Z</time>
      </trkpt>
      <trkpt lat="46.36436" lon="5.53594">
        <ele>367.6</ele>
        <time>2022-02-24T08:39:37Z</time>
      </trkpt>
      <trkpt lat="46.36433" lon="5.53593">
        <ele>368</ele>
        <time>2022-02-24T08:39:38Z</time>
      </trkpt>
      <trkpt lat="46.36431" lon="5.53593">
        <ele>368</ele>
        <time>2022-02-24T08:39:39Z</time>
      </trkpt>
      <trkpt lat="46.36428" lon="5.53594">
        <ele>368.2</ele>
        <time>2022-02-24T08:39:40Z</time>
      </trkpt>
      <trkpt lat="46.36425" lon="5.53594">
        <ele>368.2</ele>
        <time>2022-02-24T08:39:41Z</time>
      </trkpt>
      <trkpt lat="46.36422" lon="5.53595">
        <ele>368.6</ele>
        <time>2022-02-24T08:39:42Z</time>
      </trkpt>
      <trkpt lat="46.36419" lon="5.53595">
        <ele>368.6</ele>
        <time>2022-02-24T08:39:43Z</time>
      </trkpt>
      <trkpt lat="46.36416" lon="5.53595">
        <ele>368.8</ele>
        <time>2022-02-24T08:39:44Z</time>
      </trkpt>
      <trkpt lat="46.36414" lon="5.53595">
        <ele>368.8</ele>
        <time>2022-02-24T08:39:45Z</time>
      </trkpt>
      <trkpt lat="46.36411" lon="5.53595">
        <ele>369.2</ele>
        <time>2022-02-24T08:39:46Z</time>
      </trkpt>
      <trkpt lat="46.36408" lon="5.53596">
        <ele>369.6</ele>
        <time>2022-02-24T08:39:47Z</time>
      </trkpt>
      <trkpt lat="46.36405" lon="5.53597">
        <ele>369.8</ele>
        <time>2022-02-24T08:39:48Z</time>
      </trkpt>
      <trkpt lat="46.36402" lon="5.53597">
        <ele>370</ele>
        <time>2022-02-24T08:39:49Z</time>
      </trkpt>
      <trkpt lat="46.36399" lon="5.53598">
        <ele>370.2</ele>
        <time>2022-02-24T08:39:50Z</time>
      </trkpt>
      <trkpt lat="46.36396" lon="5.53597">
        <ele>370.4</ele>
        <time>2022-02-24T08:39:51Z</time>
      </trkpt>
      <trkpt lat="46.36393" lon="5.53598">
        <ele>370.6</ele>
        <time>2022-02-24T08:39:52Z</time>
      </trkpt>
      <trkpt lat="46.3639" lon="5.53597">
        <ele>370.8</ele>
        <time>2022-02-24T08:39:53Z</time>
      </trkpt>
      <trkpt lat="46.36386" lon="5.53598">
        <ele>370.8</ele>
        <time>2022-02-24T08:39:54Z</time>
      </trkpt>
      <trkpt lat="46.36383" lon="5.53598">
        <ele>371.2</ele>
        <time>2022-02-24T08:39:55Z</time>
      </trkpt>
      <trkpt lat="46.36381" lon="5.53598">
        <ele>371.4</ele>
        <time>2022-02-24T08:39:56Z</time>
      </trkpt>
      <trkpt lat="46.36378" lon="5.53598">
        <ele>371.4</ele>
        <time>2022-02-24T08:39:57Z</time>
      </trkpt>
      <trkpt lat="46.36375" lon="5.53599">
        <ele>371.8</ele>
        <time>2022-02-24T08:39:58Z</time>
      </trkpt>
      <trkpt lat="46.36372" lon="5.536">
        <ele>371.8</ele>
        <time>2022-02-24T08:39:59Z</time>
      </trkpt>
      <trkpt lat="46.36369" lon="5.536">
        <ele>372</ele>
        <time>2022-02-24T08:40:00Z</time>
      </trkpt>
      <trkpt lat="46.36366" lon="5.53601">
        <ele>372</ele>
        <time>2022-02-24T08:40:01Z</time>
      </trkpt>
      <trkpt lat="46.36364" lon="5.53602">
        <ele>372.4</ele>
        <time>2022-02-24T08:40:02Z</time>
      </trkpt>
      <trkpt lat="46.36361" lon="5.53603">
        <ele>372.6</ele>
        <time>2022-02-24T08:40:03Z</time>
      </trkpt>
      <trkpt lat="46.36358" lon="5.53604">
        <ele>372.8</ele>
        <time>2022-02-24T08:40:04Z</time>
      </trkpt>
      <trkpt lat="46.36355" lon="5.53606">
        <ele>373</ele>
        <time>2022-02-24T08:40:05Z</time>
      </trkpt>
      <trkpt lat="46.36352" lon="5.53607">
        <ele>373</ele>
        <time>2022-02-24T08:40:06Z</time>
      </trkpt>
      <trkpt lat="46.36349" lon="5.53609">
        <ele>373.4</ele>
        <time>2022-02-24T08:40:07Z</time>
      </trkpt>
      <trkpt lat="46.36346" lon="5.5361">
        <ele>373.6</ele>
        <time>2022-02-24T08:40:08Z</time>
      </trkpt>
      <trkpt lat="46.36344" lon="5.53612">
        <ele>373.6</ele>
        <time>2022-02-24T08:40:09Z</time>
      </trkpt>
      <trkpt lat="46.36341" lon="5.53614">
        <ele>374</ele>
        <time>2022-02-24T08:40:10Z</time>
      </trkpt>
      <trkpt lat="46.36339" lon="5.53616">
        <ele>374</ele>
        <time>2022-02-24T08:40:11Z</time>
      </trkpt>
      <trkpt lat="46.36336" lon="5.53618">
        <ele>374.4</ele>
        <time>2022-02-24T08:40:12Z</time>
      </trkpt>
      <trkpt lat="46.36333" lon="5.5362">
        <ele>374.4</ele>
        <time>2022-02-24T08:40:13Z</time>
      </trkpt>
      <trkpt lat="46.36331" lon="5.53621">
        <ele>374.6</ele>
        <time>2022-02-24T08:40:14Z</time>
      </trkpt>
      <trkpt lat="46.36328" lon="5.53623">
        <ele>374.6</ele>
        <time>2022-02-24T08:40:15Z</time>
      </trkpt>
      <trkpt lat="46.36325" lon="5.53625">
        <ele>375.2</ele>
        <time>2022-02-24T08:40:16Z</time>
      </trkpt>
      <trkpt lat="46.36323" lon="5.53626">
        <ele>375.2</ele>
        <time>2022-02-24T08:40:17Z</time>
      </trkpt>
      <trkpt lat="46.3632" lon="5.53628">
        <ele>375.6</ele>
        <time>2022-02-24T08:40:18Z</time>
      </trkpt>
      <trkpt lat="46.36318" lon="5.5363">
        <ele>375.6</ele>
        <time>2022-02-24T08:40:19Z</time>
      </trkpt>
      <trkpt lat="46.36315" lon="5.53632">
        <ele>375.8</ele>
        <time>2022-02-24T08:40:20Z</time>
      </trkpt>
      <trkpt lat="46.36313" lon="5.53635">
        <ele>376.2</ele>
        <time>2022-02-24T08:40:21Z</time>
      </trkpt>
      <trkpt lat="46.36311" lon="5.53637">
        <ele>376.4</ele>
        <time>2022-02-24T08:40:22Z</time>
      </trkpt>
      <trkpt lat="46.36309" lon="5.53639">
        <ele>376.4</ele>
        <time>2022-02-24T08:40:23Z</time>
      </trkpt>
      <trkpt lat="46.36306" lon="5.5364">
        <ele>376.8</ele>
        <time>2022-02-24T08:40:24Z</time>
      </trkpt>
      <trkpt lat="46.36304" lon="5.53642">
        <ele>376.8</ele>
        <time>2022-02-24T08:40:25Z</time>
      </trkpt>
      <trkpt lat="46.36302" lon="5.53644">
        <ele>377.2</ele>
        <time>2022-02-24T08:40:26Z</time>
      </trkpt>
      <trkpt lat="46.36299" lon="5.53646">
        <ele>377.4</ele>
        <time>2022-02-24T08:40:27Z</time>
      </trkpt>
      <trkpt lat="46.36297" lon="5.53647">
        <ele>377.6</ele>
        <time>2022-02-24T08:40:28Z</time>
      </trkpt>
      <trkpt lat="46.36294" lon="5.53649">
        <ele>377.8</ele>
        <time>2022-02-24T08:40:29Z</time>
      </trkpt>
      <trkpt lat="46.36291" lon="5.5365">
        <ele>377.8</ele>
        <time>2022-02-24T08:40:30Z</time>
      </trkpt>
      <trkpt lat="46.36288" lon="5.53651">
        <ele>378.2</ele>
        <time>2022-02-24T08:40:31Z</time>
      </trkpt>
      <trkpt lat="46.36285" lon="5.53652">
        <ele>378.2</ele>
        <time>2022-02-24T08:40:32Z</time>
      </trkpt>
      <trkpt lat="46.36283" lon="5.53653">
        <ele>378.4</ele>
        <time>2022-02-24T08:40:33Z</time>
      </trkpt>
      <trkpt lat="46.3628" lon="5.53653">
        <ele>378.4</ele>
        <time>2022-02-24T08:40:34Z</time>
      </trkpt>
      <trkpt lat="46.36276" lon="5.53651">
        <ele>378.8</ele>
        <time>2022-02-24T08:40:35Z</time>
      </trkpt>
      <trkpt lat="46.36273" lon="5.5365">
        <ele>378.8</ele>
        <time>2022-02-24T08:40:36Z</time>
      </trkpt>
      <trkpt lat="46.36271" lon="5.53647">
        <ele>378.8</ele>
        <time>2022-02-24T08:40:37Z</time>
      </trkpt>
      <trkpt lat="46.36269" lon="5.53643">
        <ele>379.2</ele>
        <time>2022-02-24T08:40:38Z</time>
      </trkpt>
      <trkpt lat="46.36267" lon="5.53639">
        <ele>379.2</ele>
        <time>2022-02-24T08:40:39Z</time>
      </trkpt>
      <trkpt lat="46.36265" lon="5.53635">
        <ele>379.4</ele>
        <time>2022-02-24T08:40:40Z</time>
      </trkpt>
      <trkpt lat="46.36264" lon="5.53631">
        <ele>379.4</ele>
        <time>2022-02-24T08:40:41Z</time>
      </trkpt>
      <trkpt lat="46.36263" lon="5.53627">
        <ele>379.6</ele>
        <time>2022-02-24T08:40:42Z</time>
      </trkpt>
      <trkpt lat="46.36262" lon="5.53623">
        <ele>379.6</ele>
        <time>2022-02-24T08:40:43Z</time>
      </trkpt>
      <trkpt lat="46.36261" lon="5.53618">
        <ele>380</ele>
        <time>2022-02-24T08:40:44Z</time>
      </trkpt>
      <trkpt lat="46.36259" lon="5.53614">
        <ele>380</ele>
        <time>2022-02-24T08:40:45Z</time>
      </trkpt>
      <trkpt lat="46.36258" lon="5.5361">
        <ele>380.2</ele>
        <time>2022-02-24T08:40:46Z</time>
      </trkpt>
      <trkpt lat="46.36256" lon="5.53606">
        <ele>380.2</ele>
        <time>2022-02-24T08:40:47Z</time>
      </trkpt>
      <trkpt lat="46.36254" lon="5.53603">
        <ele>380.4</ele>
        <time>2022-02-24T08:40:48Z</time>
      </trkpt>
      <trkpt lat="46.36252" lon="5.53599">
        <ele>380.4</ele>
        <time>2022-02-24T08:40:49Z</time>
      </trkpt>
      <trkpt lat="46.36249" lon="5.53596">
        <ele>380.8</ele>
        <time>2022-02-24T08:40:50Z</time>
      </trkpt>
      <trkpt lat="46.36246" lon="5.53594">
        <ele>380.8</ele>
        <time>2022-02-24T08:40:51Z</time>
      </trkpt>
      <trkpt lat="46.36243" lon="5.53592">
        <ele>380.8</ele>
        <time>2022-02-24T08:40:52Z</time>
      </trkpt>
      <trkpt lat="46.3624" lon="5.53591">
        <ele>381.2</ele>
        <time>2022-02-24T08:40:53Z</time>
      </trkpt>
      <trkpt lat="46.36237" lon="5.53591">
        <ele>381.2</ele>
        <time>2022-02-24T08:40:54Z</time>
      </trkpt>
      <trkpt lat="46.36234" lon="5.53591">
        <ele>381.6</ele>
        <time>2022-02-24T08:40:55Z</time>
      </trkpt>
      <trkpt lat="46.36231" lon="5.53592">
        <ele>381.6</ele>
        <time>2022-02-24T08:40:56Z</time>
      </trkpt>
      <trkpt lat="46.36228" lon="5.53595">
        <ele>381.8</ele>
        <time>2022-02-24T08:40:57Z</time>
      </trkpt>
      <trkpt lat="46.36225" lon="5.53597">
        <ele>382</ele>
        <time>2022-02-24T08:40:58Z</time>
      </trkpt>
      <trkpt lat="46.36223" lon="5.536">
        <ele>382.4</ele>
        <time>2022-02-24T08:40:59Z</time>
      </trkpt>
      <trkpt lat="46.36221" lon="5.53603">
        <ele>382.4</ele>
        <time>2022-02-24T08:41:00Z</time>
      </trkpt>
      <trkpt lat="46.36219" lon="5.53606">
        <ele>382.6</ele>
        <time>2022-02-24T08:41:01Z</time>
      </trkpt>
      <trkpt lat="46.36217" lon="5.53609">
        <ele>383</ele>
        <time>2022-02-24T08:41:02Z</time>
      </trkpt>
      <trkpt lat="46.36215" lon="5.53612">
        <ele>383</ele>
        <time>2022-02-24T08:41:03Z</time>
      </trkpt>
      <trkpt lat="46.36212" lon="5.53614">
        <ele>383.4</ele>
        <time>2022-02-24T08:41:04Z</time>
      </trkpt>
      <trkpt lat="46.3621" lon="5.53617">
        <ele>383.4</ele>
        <time>2022-02-24T08:41:05Z</time>
      </trkpt>
      <trkpt lat="46.36208" lon="5.53619">
        <ele>383.8</ele>
        <time>2022-02-24T08:41:06Z</time>
      </trkpt>
      <trkpt lat="46.36206" lon="5.53622">
        <ele>383.8</ele>
        <time>2022-02-24T08:41:07Z</time>
      </trkpt>
      <trkpt lat="46.36204" lon="5.53625">
        <ele>384</ele>
        <time>2022-02-24T08:41:08Z</time>
      </trkpt>
      <trkpt lat="46.36201" lon="5.53627">
        <ele>384.4</ele>
        <time>2022-02-24T08:41:09Z</time>
      </trkpt>
      <trkpt lat="46.36199" lon="5.5363">
        <ele>384.4</ele>
        <time>2022-02-24T08:41:10Z</time>
      </trkpt>
      <trkpt lat="46.36196" lon="5.53633">
        <ele>384.6</ele>
        <time>2022-02-24T08:41:11Z</time>
      </trkpt>
      <trkpt lat="46.36194" lon="5.53635">
        <ele>384.8</ele>
        <time>2022-02-24T08:41:12Z</time>
      </trkpt>
      <trkpt lat="46.36192" lon="5.53638">
        <ele>384.8</ele>
        <time>2022-02-24T08:41:13Z</time>
      </trkpt>
      <trkpt lat="46.36189" lon="5.5364">
        <ele>385.2</ele>
        <time>2022-02-24T08:41:14Z</time>
      </trkpt>
      <trkpt lat="46.36187" lon="5.53642">
        <ele>385.2</ele>
        <time>2022-02-24T08:41:15Z</time>
      </trkpt>
      <trkpt lat="46.36185" lon="5.53643">
        <ele>385.4</ele>
        <time>2022-02-24T08:41:16Z</time>
      </trkpt>
      <trkpt lat="46.36182" lon="5.53644">
        <ele>385.4</ele>
        <time>2022-02-24T08:41:17Z</time>
      </trkpt>
      <trkpt lat="46.3618" lon="5.53646">
        <ele>386</ele>
        <time>2022-02-24T08:41:18Z</time>
      </trkpt>
      <trkpt lat="46.36178" lon="5.53647">
        <ele>386.2</ele>
        <time>2022-02-24T08:41:19Z</time>
      </trkpt>
      <trkpt lat="46.36176" lon="5.53648">
        <ele>386.2</ele>
        <time>2022-02-24T08:41:20Z</time>
      </trkpt>
      <trkpt lat="46.36173" lon="5.53649">
        <ele>386.6</ele>
        <time>2022-02-24T08:41:21Z</time>
      </trkpt>
      <trkpt lat="46.36171" lon="5.5365">
        <ele>386.8</ele>
        <time>2022-02-24T08:41:22Z</time>
      </trkpt>
      <trkpt lat="46.36168" lon="5.53651">
        <ele>386.8</ele>
        <time>2022-02-24T08:41:23Z</time>
      </trkpt>
      <trkpt lat="46.36166" lon="5.53652">
        <ele>387.2</ele>
        <time>2022-02-24T08:41:24Z</time>
      </trkpt>
      <trkpt lat="46.36163" lon="5.53653">
        <ele>387.2</ele>
        <time>2022-02-24T08:41:25Z</time>
      </trkpt>
      <trkpt lat="46.36161" lon="5.53653">
        <ele>387.2</ele>
        <time>2022-02-24T08:41:26Z</time>
      </trkpt>
      <trkpt lat="46.36158" lon="5.53654">
        <ele>387.4</ele>
        <time>2022-02-24T08:41:27Z</time>
      </trkpt>
      <trkpt lat="46.36155" lon="5.53655">
        <ele>387.4</ele>
        <time>2022-02-24T08:41:28Z</time>
      </trkpt>
      <trkpt lat="46.36152" lon="5.53655">
        <ele>387.8</ele>
        <time>2022-02-24T08:41:29Z</time>
      </trkpt>
      <trkpt lat="46.3615" lon="5.53655">
        <ele>388</ele>
        <time>2022-02-24T08:41:30Z</time>
      </trkpt>
      <trkpt lat="46.36147" lon="5.53655">
        <ele>388.2</ele>
        <time>2022-02-24T08:41:31Z</time>
      </trkpt>
      <trkpt lat="46.36144" lon="5.53654">
        <ele>388.4</ele>
        <time>2022-02-24T08:41:32Z</time>
      </trkpt>
      <trkpt lat="46.36141" lon="5.53653">
        <ele>388.6</ele>
        <time>2022-02-24T08:41:33Z</time>
      </trkpt>
      <trkpt lat="46.36139" lon="5.53652">
        <ele>389</ele>
        <time>2022-02-24T08:41:34Z</time>
      </trkpt>
      <trkpt lat="46.36136" lon="5.5365">
        <ele>389.2</ele>
        <time>2022-02-24T08:41:35Z</time>
      </trkpt>
      <trkpt lat="46.36133" lon="5.53649">
        <ele>389.4</ele>
        <time>2022-02-24T08:41:36Z</time>
      </trkpt>
      <trkpt lat="46.36131" lon="5.53647">
        <ele>389.4</ele>
        <time>2022-02-24T08:41:37Z</time>
      </trkpt>
      <trkpt lat="46.36128" lon="5.53645">
        <ele>389.8</ele>
        <time>2022-02-24T08:41:38Z</time>
      </trkpt>
      <trkpt lat="46.36126" lon="5.53643">
        <ele>390.2</ele>
        <time>2022-02-24T08:41:39Z</time>
      </trkpt>
      <trkpt lat="46.36123" lon="5.53641">
        <ele>390.4</ele>
        <time>2022-02-24T08:41:40Z</time>
      </trkpt>
      <trkpt lat="46.3612" lon="5.53639">
        <ele>390.8</ele>
        <time>2022-02-24T08:41:41Z</time>
      </trkpt>
      <trkpt lat="46.36118" lon="5.53638">
        <ele>390.8</ele>
        <time>2022-02-24T08:41:42Z</time>
      </trkpt>
      <trkpt lat="46.36115" lon="5.53636">
        <ele>391.2</ele>
        <time>2022-02-24T08:41:43Z</time>
      </trkpt>
      <trkpt lat="46.36112" lon="5.53635">
        <ele>391.2</ele>
        <time>2022-02-24T08:41:44Z</time>
      </trkpt>
      <trkpt lat="46.3611" lon="5.53633">
        <ele>391.6</ele>
        <time>2022-02-24T08:41:45Z</time>
      </trkpt>
      <trkpt lat="46.36107" lon="5.53632">
        <ele>391.6</ele>
        <time>2022-02-24T08:41:46Z</time>
      </trkpt>
      <trkpt lat="46.36104" lon="5.5363">
        <ele>392</ele>
        <time>2022-02-24T08:41:47Z</time>
      </trkpt>
      <trkpt lat="46.36102" lon="5.53628">
        <ele>392</ele>
        <time>2022-02-24T08:41:48Z</time>
      </trkpt>
      <trkpt lat="46.36099" lon="5.53626">
        <ele>392.4</ele>
        <time>2022-02-24T08:41:49Z</time>
      </trkpt>
      <trkpt lat="46.36097" lon="5.53625">
        <ele>392.4</ele>
        <time>2022-02-24T08:41:50Z</time>
      </trkpt>
      <trkpt lat="46.36094" lon="5.53623">
        <ele>392.8</ele>
        <time>2022-02-24T08:41:51Z</time>
      </trkpt>
      <trkpt lat="46.36092" lon="5.53621">
        <ele>393</ele>
        <time>2022-02-24T08:41:52Z</time>
      </trkpt>
      <trkpt lat="46.36089" lon="5.53619">
        <ele>393</ele>
        <time>2022-02-24T08:41:53Z</time>
      </trkpt>
      <trkpt lat="46.36087" lon="5.53618">
        <ele>393.2</ele>
        <time>2022-02-24T08:41:54Z</time>
      </trkpt>
      <trkpt lat="46.36084" lon="5.53616">
        <ele>393.6</ele>
        <time>2022-02-24T08:41:55Z</time>
      </trkpt>
      <trkpt lat="46.36082" lon="5.53614">
        <ele>393.8</ele>
        <time>2022-02-24T08:41:56Z</time>
      </trkpt>
      <trkpt lat="46.36079" lon="5.53613">
        <ele>394</ele>
        <time>2022-02-24T08:41:57Z</time>
      </trkpt>
      <trkpt lat="46.36077" lon="5.53611">
        <ele>394</ele>
        <time>2022-02-24T08:41:58Z</time>
      </trkpt>
      <trkpt lat="46.36074" lon="5.53609">
        <ele>394.4</ele>
        <time>2022-02-24T08:41:59Z</time>
      </trkpt>
      <trkpt lat="46.36072" lon="5.53608">
        <ele>394.4</ele>
        <time>2022-02-24T08:42:00Z</time>
      </trkpt>
      <trkpt lat="46.36069" lon="5.53606">
        <ele>394.8</ele>
        <time>2022-02-24T08:42:01Z</time>
      </trkpt>
      <trkpt lat="46.36067" lon="5.53604">
        <ele>395</ele>
        <time>2022-02-24T08:42:02Z</time>
      </trkpt>
      <trkpt lat="46.36064" lon="5.53602">
        <ele>395</ele>
        <time>2022-02-24T08:42:03Z</time>
      </trkpt>
      <trkpt lat="46.36061" lon="5.53601">
        <ele>395.4</ele>
        <time>2022-02-24T08:42:04Z</time>
      </trkpt>
      <trkpt lat="46.36059" lon="5.53599">
        <ele>395.8</ele>
        <time>2022-02-24T08:42:05Z</time>
      </trkpt>
      <trkpt lat="46.36056" lon="5.53598">
        <ele>395.8</ele>
        <time>2022-02-24T08:42:06Z</time>
      </trkpt>
      <trkpt lat="46.36054" lon="5.53596">
        <ele>396</ele>
        <time>2022-02-24T08:42:07Z</time>
      </trkpt>
      <trkpt lat="46.36051" lon="5.53594">
        <ele>396.2</ele>
        <time>2022-02-24T08:42:08Z</time>
      </trkpt>
      <trkpt lat="46.36049" lon="5.53593">
        <ele>396.4</ele>
        <time>2022-02-24T08:42:09Z</time>
      </trkpt>
      <trkpt lat="46.36046" lon="5.53592">
        <ele>396.4</ele>
        <time>2022-02-24T08:42:10Z</time>
      </trkpt>
      <trkpt lat="46.36043" lon="5.5359">
        <ele>396.6</ele>
        <time>2022-02-24T08:42:11Z</time>
      </trkpt>
      <trkpt lat="46.36041" lon="5.53588">
        <ele>396.8</ele>
        <time>2022-02-24T08:42:12Z</time>
      </trkpt>
      <trkpt lat="46.36038" lon="5.53587">
        <ele>397.2</ele>
        <time>2022-02-24T08:42:13Z</time>
      </trkpt>
      <trkpt lat="46.36035" lon="5.53585">
        <ele>397.4</ele>
        <time>2022-02-24T08:42:14Z</time>
      </trkpt>
      <trkpt lat="46.36033" lon="5.53583">
        <ele>397.4</ele>
        <time>2022-02-24T08:42:15Z</time>
      </trkpt>
      <trkpt lat="46.3603" lon="5.53582">
        <ele>397.8</ele>
        <time>2022-02-24T08:42:16Z</time>
      </trkpt>
      <trkpt lat="46.36028" lon="5.5358">
        <ele>398</ele>
        <time>2022-02-24T08:42:17Z</time>
      </trkpt>
      <trkpt lat="46.36025" lon="5.53578">
        <ele>398</ele>
        <time>2022-02-24T08:42:18Z</time>
      </trkpt>
      <trkpt lat="46.36023" lon="5.53577">
        <ele>398.4</ele>
        <time>2022-02-24T08:42:19Z</time>
      </trkpt>
      <trkpt lat="46.36021" lon="5.53575">
        <ele>398.4</ele>
        <time>2022-02-24T08:42:20Z</time>
      </trkpt>
      <trkpt lat="46.36018" lon="5.53574">
        <ele>398.6</ele>
        <time>2022-02-24T08:42:21Z</time>
      </trkpt>
      <trkpt lat="46.36015" lon="5.53572">
        <ele>398.6</ele>
        <time>2022-02-24T08:42:22Z</time>
      </trkpt>
      <trkpt lat="46.36013" lon="5.53571">
        <ele>399</ele>
        <time>2022-02-24T08:42:23Z</time>
      </trkpt>
      <trkpt lat="46.3601" lon="5.5357">
        <ele>399.2</ele>
        <time>2022-02-24T08:42:24Z</time>
      </trkpt>
      <trkpt lat="46.36008" lon="5.53568">
        <ele>399.2</ele>
        <time>2022-02-24T08:42:25Z</time>
      </trkpt>
      <trkpt lat="46.36006" lon="5.53566">
        <ele>399.6</ele>
        <time>2022-02-24T08:42:26Z</time>
      </trkpt>
      <trkpt lat="46.36004" lon="5.53564">
        <ele>399.6</ele>
        <time>2022-02-24T08:42:27Z</time>
      </trkpt>
      <trkpt lat="46.36002" lon="5.53562">
        <ele>400</ele>
        <time>2022-02-24T08:42:28Z</time>
      </trkpt>
      <trkpt lat="46.35999" lon="5.53561">
        <ele>400.4</ele>
        <time>2022-02-24T08:42:29Z</time>
      </trkpt>
      <trkpt lat="46.35997" lon="5.53559">
        <ele>400.6</ele>
        <time>2022-02-24T08:42:30Z</time>
      </trkpt>
      <trkpt lat="46.35994" lon="5.53558">
        <ele>400.8</ele>
        <time>2022-02-24T08:42:31Z</time>
      </trkpt>
      <trkpt lat="46.35992" lon="5.53556">
        <ele>401</ele>
        <time>2022-02-24T08:42:32Z</time>
      </trkpt>
      <trkpt lat="46.35989" lon="5.53555">
        <ele>401.2</ele>
        <time>2022-02-24T08:42:33Z</time>
      </trkpt>
      <trkpt lat="46.35987" lon="5.53553">
        <ele>401.2</ele>
        <time>2022-02-24T08:42:34Z</time>
      </trkpt>
      <trkpt lat="46.35984" lon="5.53552">
        <ele>401.6</ele>
        <time>2022-02-24T08:42:35Z</time>
      </trkpt>
      <trkpt lat="46.35982" lon="5.5355">
        <ele>401.6</ele>
        <time>2022-02-24T08:42:36Z</time>
      </trkpt>
      <trkpt lat="46.35979" lon="5.53549">
        <ele>402</ele>
        <time>2022-02-24T08:42:37Z</time>
      </trkpt>
      <trkpt lat="46.35977" lon="5.53547">
        <ele>402.2</ele>
        <time>2022-02-24T08:42:38Z</time>
      </trkpt>
      <trkpt lat="46.35974" lon="5.53546">
        <ele>402.4</ele>
        <time>2022-02-24T08:42:39Z</time>
      </trkpt>
      <trkpt lat="46.35971" lon="5.53545">
        <ele>402.4</ele>
        <time>2022-02-24T08:42:40Z</time>
      </trkpt>
      <trkpt lat="46.35969" lon="5.53543">
        <ele>402.8</ele>
        <time>2022-02-24T08:42:41Z</time>
      </trkpt>
      <trkpt lat="46.35967" lon="5.53542">
        <ele>402.8</ele>
        <time>2022-02-24T08:42:42Z</time>
      </trkpt>
      <trkpt lat="46.35964" lon="5.5354">
        <ele>403</ele>
        <time>2022-02-24T08:42:43Z</time>
      </trkpt>
      <trkpt lat="46.35962" lon="5.53538">
        <ele>403</ele>
        <time>2022-02-24T08:42:44Z</time>
      </trkpt>
      <trkpt lat="46.35959" lon="5.53537">
        <ele>403.4</ele>
        <time>2022-02-24T08:42:45Z</time>
      </trkpt>
      <trkpt lat="46.35957" lon="5.53535">
        <ele>403.6</ele>
        <time>2022-02-24T08:42:46Z</time>
      </trkpt>
      <trkpt lat="46.35955" lon="5.53534">
        <ele>403.6</ele>
        <time>2022-02-24T08:42:47Z</time>
      </trkpt>
      <trkpt lat="46.35952" lon="5.53532">
        <ele>404</ele>
        <time>2022-02-24T08:42:48Z</time>
      </trkpt>
      <trkpt lat="46.3595" lon="5.53531">
        <ele>404</ele>
        <time>2022-02-24T08:42:49Z</time>
      </trkpt>
      <trkpt lat="46.35947" lon="5.53529">
        <ele>404.2</ele>
        <time>2022-02-24T08:42:50Z</time>
      </trkpt>
      <trkpt lat="46.35945" lon="5.53528">
        <ele>404.6</ele>
        <time>2022-02-24T08:42:51Z</time>
      </trkpt>
      <trkpt lat="46.35942" lon="5.53527">
        <ele>404.6</ele>
        <time>2022-02-24T08:42:52Z</time>
      </trkpt>
      <trkpt lat="46.3594" lon="5.53525">
        <ele>404.8</ele>
        <time>2022-02-24T08:42:53Z</time>
      </trkpt>
      <trkpt lat="46.35938" lon="5.53524">
        <ele>405</ele>
        <time>2022-02-24T08:42:54Z</time>
      </trkpt>
      <trkpt lat="46.35936" lon="5.53522">
        <ele>405</ele>
        <time>2022-02-24T08:42:55Z</time>
      </trkpt>
      <trkpt lat="46.35933" lon="5.5352">
        <ele>405.4</ele>
        <time>2022-02-24T08:42:56Z</time>
      </trkpt>
      <trkpt lat="46.35931" lon="5.53518">
        <ele>405.8</ele>
        <time>2022-02-24T08:42:57Z</time>
      </trkpt>
      <trkpt lat="46.35929" lon="5.53516">
        <ele>406</ele>
        <time>2022-02-24T08:42:58Z</time>
      </trkpt>
      <trkpt lat="46.35927" lon="5.53515">
        <ele>406</ele>
        <time>2022-02-24T08:42:59Z</time>
      </trkpt>
      <trkpt lat="46.35924" lon="5.53513">
        <ele>406.4</ele>
        <time>2022-02-24T08:43:00Z</time>
      </trkpt>
      <trkpt lat="46.35922" lon="5.53512">
        <ele>406.4</ele>
        <time>2022-02-24T08:43:01Z</time>
      </trkpt>
      <trkpt lat="46.35919" lon="5.5351">
        <ele>406.6</ele>
        <time>2022-02-24T08:43:02Z</time>
      </trkpt>
      <trkpt lat="46.35917" lon="5.53509">
        <ele>406.6</ele>
        <time>2022-02-24T08:43:03Z</time>
      </trkpt>
      <trkpt lat="46.35914" lon="5.53508">
        <ele>407</ele>
        <time>2022-02-24T08:43:04Z</time>
      </trkpt>
      <trkpt lat="46.35912" lon="5.53507">
        <ele>407</ele>
        <time>2022-02-24T08:43:05Z</time>
      </trkpt>
      <trkpt lat="46.35909" lon="5.53505">
        <ele>407.4</ele>
        <time>2022-02-24T08:43:06Z</time>
      </trkpt>
      <trkpt lat="46.35907" lon="5.53503">
        <ele>407.6</ele>
        <time>2022-02-24T08:43:07Z</time>
      </trkpt>
      <trkpt lat="46.35905" lon="5.53502">
        <ele>407.8</ele>
        <time>2022-02-24T08:43:08Z</time>
      </trkpt>
      <trkpt lat="46.35902" lon="5.535">
        <ele>408</ele>
        <time>2022-02-24T08:43:09Z</time>
      </trkpt>
      <trkpt lat="46.359" lon="5.53498">
        <ele>408</ele>
        <time>2022-02-24T08:43:10Z</time>
      </trkpt>
      <trkpt lat="46.35898" lon="5.53497">
        <ele>408.4</ele>
        <time>2022-02-24T08:43:11Z</time>
      </trkpt>
      <trkpt lat="46.35895" lon="5.53495">
        <ele>408.4</ele>
        <time>2022-02-24T08:43:12Z</time>
      </trkpt>
      <trkpt lat="46.35893" lon="5.53494">
        <ele>408.8</ele>
        <time>2022-02-24T08:43:13Z</time>
      </trkpt>
      <trkpt lat="46.35891" lon="5.53492">
        <ele>409.2</ele>
        <time>2022-02-24T08:43:14Z</time>
      </trkpt>
      <trkpt lat="46.35888" lon="5.53491">
        <ele>409.4</ele>
        <time>2022-02-24T08:43:15Z</time>
      </trkpt>
      <trkpt lat="46.35886" lon="5.5349">
        <ele>409.6</ele>
        <time>2022-02-24T08:43:16Z</time>
      </trkpt>
      <trkpt lat="46.35883" lon="5.53488">
        <ele>410</ele>
        <time>2022-02-24T08:43:17Z</time>
      </trkpt>
      <trkpt lat="46.35881" lon="5.53487">
        <ele>410.2</ele>
        <time>2022-02-24T08:43:18Z</time>
      </trkpt>
      <trkpt lat="46.35879" lon="5.53485">
        <ele>410.4</ele>
        <time>2022-02-24T08:43:19Z</time>
      </trkpt>
      <trkpt lat="46.35876" lon="5.53483">
        <ele>410.4</ele>
        <time>2022-02-24T08:43:20Z</time>
      </trkpt>
      <trkpt lat="46.35874" lon="5.53481">
        <ele>410.6</ele>
        <time>2022-02-24T08:43:21Z</time>
      </trkpt>
      <trkpt lat="46.35871" lon="5.53479">
        <ele>411</ele>
        <time>2022-02-24T08:43:22Z</time>
      </trkpt>
      <trkpt lat="46.35868" lon="5.53478">
        <ele>411.2</ele>
        <time>2022-02-24T08:43:23Z</time>
      </trkpt>
      <trkpt lat="46.35866" lon="5.53476">
        <ele>411.2</ele>
        <time>2022-02-24T08:43:24Z</time>
      </trkpt>
      <trkpt lat="46.35863" lon="5.53474">
        <ele>411.6</ele>
        <time>2022-02-24T08:43:25Z</time>
      </trkpt>
      <trkpt lat="46.3586" lon="5.53473">
        <ele>411.6</ele>
        <time>2022-02-24T08:43:26Z</time>
      </trkpt>
      <trkpt lat="46.35858" lon="5.53471">
        <ele>412</ele>
        <time>2022-02-24T08:43:27Z</time>
      </trkpt>
      <trkpt lat="46.35855" lon="5.53469">
        <ele>412</ele>
        <time>2022-02-24T08:43:28Z</time>
      </trkpt>
      <trkpt lat="46.35853" lon="5.53467">
        <ele>412.2</ele>
        <time>2022-02-24T08:43:29Z</time>
      </trkpt>
      <trkpt lat="46.3585" lon="5.53465">
        <ele>412.6</ele>
        <time>2022-02-24T08:43:30Z</time>
      </trkpt>
      <trkpt lat="46.35848" lon="5.53463">
        <ele>412.8</ele>
        <time>2022-02-24T08:43:31Z</time>
      </trkpt>
      <trkpt lat="46.35845" lon="5.53461">
        <ele>413</ele>
        <time>2022-02-24T08:43:32Z</time>
      </trkpt>
      <trkpt lat="46.35842" lon="5.5346">
        <ele>413</ele>
        <time>2022-02-24T08:43:33Z</time>
      </trkpt>
      <trkpt lat="46.35839" lon="5.53458">
        <ele>413.4</ele>
        <time>2022-02-24T08:43:34Z</time>
      </trkpt>
      <trkpt lat="46.35836" lon="5.53456">
        <ele>413.4</ele>
        <time>2022-02-24T08:43:35Z</time>
      </trkpt>
      <trkpt lat="46.35834" lon="5.53454">
        <ele>413.8</ele>
        <time>2022-02-24T08:43:36Z</time>
      </trkpt>
      <trkpt lat="46.35831" lon="5.53452">
        <ele>414</ele>
        <time>2022-02-24T08:43:37Z</time>
      </trkpt>
      <trkpt lat="46.35828" lon="5.5345">
        <ele>414.2</ele>
        <time>2022-02-24T08:43:38Z</time>
      </trkpt>
      <trkpt lat="46.35826" lon="5.53448">
        <ele>414.4</ele>
        <time>2022-02-24T08:43:39Z</time>
      </trkpt>
      <trkpt lat="46.35823" lon="5.53446">
        <ele>414.6</ele>
        <time>2022-02-24T08:43:40Z</time>
      </trkpt>
      <trkpt lat="46.35821" lon="5.53444">
        <ele>414.6</ele>
        <time>2022-02-24T08:43:41Z</time>
      </trkpt>
      <trkpt lat="46.35818" lon="5.53441">
        <ele>415</ele>
        <time>2022-02-24T08:43:42Z</time>
      </trkpt>
      <trkpt lat="46.35816" lon="5.53438">
        <ele>415</ele>
        <time>2022-02-24T08:43:43Z</time>
      </trkpt>
      <trkpt lat="46.35814" lon="5.53435">
        <ele>415.4</ele>
        <time>2022-02-24T08:43:44Z</time>
      </trkpt>
      <trkpt lat="46.35812" lon="5.53432">
        <ele>415.4</ele>
        <time>2022-02-24T08:43:45Z</time>
      </trkpt>
      <trkpt lat="46.3581" lon="5.53428">
        <ele>415.8</ele>
        <time>2022-02-24T08:43:46Z</time>
      </trkpt>
      <trkpt lat="46.35807" lon="5.53421">
        <ele>415.8</ele>
        <time>2022-02-24T08:43:47Z</time>
      </trkpt>
      <trkpt lat="46.35807" lon="5.53421">
        <ele>416</ele>
        <time>2022-02-24T08:43:48Z</time>
      </trkpt>
      <trkpt lat="46.35805" lon="5.53418">
        <ele>416</ele>
        <time>2022-02-24T08:43:49Z</time>
      </trkpt>
      <trkpt lat="46.35804" lon="5.53414">
        <ele>416.4</ele>
        <time>2022-02-24T08:43:50Z</time>
      </trkpt>
      <trkpt lat="46.35804" lon="5.5341">
        <ele>416.4</ele>
        <time>2022-02-24T08:43:51Z</time>
      </trkpt>
      <trkpt lat="46.35803" lon="5.53405">
        <ele>416.6</ele>
        <time>2022-02-24T08:43:52Z</time>
      </trkpt>
      <trkpt lat="46.35802" lon="5.53401">
        <ele>417</ele>
        <time>2022-02-24T08:43:53Z</time>
      </trkpt>
      <trkpt lat="46.35801" lon="5.53397">
        <ele>417.4</ele>
        <time>2022-02-24T08:43:54Z</time>
      </trkpt>
      <trkpt lat="46.358" lon="5.53393">
        <ele>417.6</ele>
        <time>2022-02-24T08:43:55Z</time>
      </trkpt>
      <trkpt lat="46.35799" lon="5.53389">
        <ele>417.8</ele>
        <time>2022-02-24T08:43:56Z</time>
      </trkpt>
      <trkpt lat="46.35798" lon="5.53385">
        <ele>418</ele>
        <time>2022-02-24T08:43:57Z</time>
      </trkpt>
      <trkpt lat="46.35798" lon="5.5338">
        <ele>418</ele>
        <time>2022-02-24T08:43:58Z</time>
      </trkpt>
      <trkpt lat="46.35797" lon="5.53376">
        <ele>418.4</ele>
        <time>2022-02-24T08:43:59Z</time>
      </trkpt>
      <trkpt lat="46.35797" lon="5.53372">
        <ele>418.8</ele>
        <time>2022-02-24T08:44:00Z</time>
      </trkpt>
      <trkpt lat="46.35796" lon="5.53368">
        <ele>419</ele>
        <time>2022-02-24T08:44:01Z</time>
      </trkpt>
      <trkpt lat="46.35796" lon="5.53364">
        <ele>419</ele>
        <time>2022-02-24T08:44:02Z</time>
      </trkpt>
      <trkpt lat="46.35795" lon="5.5336">
        <ele>419.4</ele>
        <time>2022-02-24T08:44:03Z</time>
      </trkpt>
      <trkpt lat="46.35795" lon="5.53355">
        <ele>419.6</ele>
        <time>2022-02-24T08:44:04Z</time>
      </trkpt>
      <trkpt lat="46.35794" lon="5.53351">
        <ele>419.6</ele>
        <time>2022-02-24T08:44:05Z</time>
      </trkpt>
      <trkpt lat="46.35794" lon="5.53347">
        <ele>420</ele>
        <time>2022-02-24T08:44:06Z</time>
      </trkpt>
      <trkpt lat="46.35793" lon="5.53343">
        <ele>420</ele>
        <time>2022-02-24T08:44:07Z</time>
      </trkpt>
      <trkpt lat="46.35793" lon="5.53339">
        <ele>420.4</ele>
        <time>2022-02-24T08:44:08Z</time>
      </trkpt>
      <trkpt lat="46.35792" lon="5.53335">
        <ele>420.4</ele>
        <time>2022-02-24T08:44:09Z</time>
      </trkpt>
      <trkpt lat="46.35791" lon="5.53331">
        <ele>420.8</ele>
        <time>2022-02-24T08:44:10Z</time>
      </trkpt>
      <trkpt lat="46.35791" lon="5.53327">
        <ele>420.8</ele>
        <time>2022-02-24T08:44:11Z</time>
      </trkpt>
      <trkpt lat="46.3579" lon="5.53322">
        <ele>421</ele>
        <time>2022-02-24T08:44:12Z</time>
      </trkpt>
      <trkpt lat="46.35789" lon="5.53318">
        <ele>421</ele>
        <time>2022-02-24T08:44:13Z</time>
      </trkpt>
      <trkpt lat="46.35788" lon="5.53314">
        <ele>421.4</ele>
        <time>2022-02-24T08:44:14Z</time>
      </trkpt>
      <trkpt lat="46.35786" lon="5.5331">
        <ele>421.4</ele>
        <time>2022-02-24T08:44:15Z</time>
      </trkpt>
      <trkpt lat="46.35785" lon="5.53307">
        <ele>421.8</ele>
        <time>2022-02-24T08:44:16Z</time>
      </trkpt>
      <trkpt lat="46.35784" lon="5.53302">
        <ele>421.8</ele>
        <time>2022-02-24T08:44:17Z</time>
      </trkpt>
      <trkpt lat="46.35783" lon="5.53298">
        <ele>422</ele>
        <time>2022-02-24T08:44:18Z</time>
      </trkpt>
      <trkpt lat="46.35781" lon="5.53294">
        <ele>422</ele>
        <time>2022-02-24T08:44:19Z</time>
      </trkpt>
      <trkpt lat="46.3578" lon="5.53291">
        <ele>422.2</ele>
        <time>2022-02-24T08:44:20Z</time>
      </trkpt>
      <trkpt lat="46.35778" lon="5.53287">
        <ele>422.2</ele>
        <time>2022-02-24T08:44:21Z</time>
      </trkpt>
      <trkpt lat="46.35776" lon="5.53283">
        <ele>422.6</ele>
        <time>2022-02-24T08:44:22Z</time>
      </trkpt>
      <trkpt lat="46.35774" lon="5.5328">
        <ele>422.6</ele>
        <time>2022-02-24T08:44:23Z</time>
      </trkpt>
      <trkpt lat="46.35772" lon="5.53277">
        <ele>422.8</ele>
        <time>2022-02-24T08:44:24Z</time>
      </trkpt>
      <trkpt lat="46.3577" lon="5.53273">
        <ele>422.8</ele>
        <time>2022-02-24T08:44:25Z</time>
      </trkpt>
      <trkpt lat="46.35768" lon="5.53269">
        <ele>423.2</ele>
        <time>2022-02-24T08:44:26Z</time>
      </trkpt>
      <trkpt lat="46.35766" lon="5.53266">
        <ele>423.4</ele>
        <time>2022-02-24T08:44:27Z</time>
      </trkpt>
      <trkpt lat="46.35764" lon="5.53262">
        <ele>423.4</ele>
        <time>2022-02-24T08:44:28Z</time>
      </trkpt>
      <trkpt lat="46.35762" lon="5.53259">
        <ele>423.8</ele>
        <time>2022-02-24T08:44:29Z</time>
      </trkpt>
      <trkpt lat="46.35759" lon="5.53257">
        <ele>423.8</ele>
        <time>2022-02-24T08:44:30Z</time>
      </trkpt>
      <trkpt lat="46.35756" lon="5.53254">
        <ele>424</ele>
        <time>2022-02-24T08:44:31Z</time>
      </trkpt>
      <trkpt lat="46.35754" lon="5.53251">
        <ele>424</ele>
        <time>2022-02-24T08:44:32Z</time>
      </trkpt>
      <trkpt lat="46.35752" lon="5.53248">
        <ele>424.2</ele>
        <time>2022-02-24T08:44:33Z</time>
      </trkpt>
      <trkpt lat="46.3575" lon="5.53245">
        <ele>424.2</ele>
        <time>2022-02-24T08:44:34Z</time>
      </trkpt>
      <trkpt lat="46.35748" lon="5.53242">
        <ele>424.6</ele>
        <time>2022-02-24T08:44:35Z</time>
      </trkpt>
      <trkpt lat="46.35745" lon="5.53239">
        <ele>424.6</ele>
        <time>2022-02-24T08:44:36Z</time>
      </trkpt>
      <trkpt lat="46.35743" lon="5.53236">
        <ele>425</ele>
        <time>2022-02-24T08:44:37Z</time>
      </trkpt>
      <trkpt lat="46.3574" lon="5.53234">
        <ele>425</ele>
        <time>2022-02-24T08:44:38Z</time>
      </trkpt>
      <trkpt lat="46.35738" lon="5.53231">
        <ele>425</ele>
        <time>2022-02-24T08:44:39Z</time>
      </trkpt>
      <trkpt lat="46.35735" lon="5.53228">
        <ele>425</ele>
        <time>2022-02-24T08:44:40Z</time>
      </trkpt>
      <trkpt lat="46.35732" lon="5.53225">
        <ele>425</ele>
        <time>2022-02-24T08:44:41Z</time>
      </trkpt>
      <trkpt lat="46.35729" lon="5.53222">
        <ele>425</ele>
        <time>2022-02-24T08:44:42Z</time>
      </trkpt>
      <trkpt lat="46.35726" lon="5.53219">
        <ele>425.2</ele>
        <time>2022-02-24T08:44:43Z</time>
      </trkpt>
      <trkpt lat="46.35724" lon="5.53216">
        <ele>425.2</ele>
        <time>2022-02-24T08:44:44Z</time>
      </trkpt>
      <trkpt lat="46.35721" lon="5.53214">
        <ele>425.4</ele>
        <time>2022-02-24T08:44:45Z</time>
      </trkpt>
      <trkpt lat="46.35718" lon="5.53212">
        <ele>425.4</ele>
        <time>2022-02-24T08:44:46Z</time>
      </trkpt>
      <trkpt lat="46.35715" lon="5.53209">
        <ele>425.4</ele>
        <time>2022-02-24T08:44:47Z</time>
      </trkpt>
      <trkpt lat="46.35712" lon="5.53207">
        <ele>425.8</ele>
        <time>2022-02-24T08:44:48Z</time>
      </trkpt>
      <trkpt lat="46.35709" lon="5.53204">
        <ele>425.8</ele>
        <time>2022-02-24T08:44:49Z</time>
      </trkpt>
      <trkpt lat="46.35706" lon="5.53201">
        <ele>426</ele>
        <time>2022-02-24T08:44:50Z</time>
      </trkpt>
      <trkpt lat="46.35703" lon="5.53198">
        <ele>426</ele>
        <time>2022-02-24T08:44:51Z</time>
      </trkpt>
      <trkpt lat="46.35699" lon="5.53196">
        <ele>426</ele>
        <time>2022-02-24T08:44:52Z</time>
      </trkpt>
      <trkpt lat="46.35696" lon="5.53194">
        <ele>426.2</ele>
        <time>2022-02-24T08:44:53Z</time>
      </trkpt>
      <trkpt lat="46.35692" lon="5.53192">
        <ele>426.2</ele>
        <time>2022-02-24T08:44:54Z</time>
      </trkpt>
      <trkpt lat="46.35689" lon="5.5319">
        <ele>426.2</ele>
        <time>2022-02-24T08:44:55Z</time>
      </trkpt>
      <trkpt lat="46.35685" lon="5.53188">
        <ele>426.2</ele>
        <time>2022-02-24T08:44:56Z</time>
      </trkpt>
      <trkpt lat="46.35681" lon="5.53187">
        <ele>426.6</ele>
        <time>2022-02-24T08:44:57Z</time>
      </trkpt>
      <trkpt lat="46.35677" lon="5.53185">
        <ele>426.6</ele>
        <time>2022-02-24T08:44:58Z</time>
      </trkpt>
      <trkpt lat="46.35674" lon="5.53183">
        <ele>426.6</ele>
        <time>2022-02-24T08:44:59Z</time>
      </trkpt>
      <trkpt lat="46.35669" lon="5.53182">
        <ele>426.6</ele>
        <time>2022-02-24T08:45:00Z</time>
      </trkpt>
      <trkpt lat="46.35665" lon="5.53181">
        <ele>426.8</ele>
        <time>2022-02-24T08:45:01Z</time>
      </trkpt>
      <trkpt lat="46.35661" lon="5.5318">
        <ele>426.8</ele>
        <time>2022-02-24T08:45:02Z</time>
      </trkpt>
      <trkpt lat="46.35656" lon="5.53179">
        <ele>426.8</ele>
        <time>2022-02-24T08:45:03Z</time>
      </trkpt>
      <trkpt lat="46.35652" lon="5.53178">
        <ele>426.8</ele>
        <time>2022-02-24T08:45:04Z</time>
      </trkpt>
      <trkpt lat="46.35647" lon="5.53177">
        <ele>426.8</ele>
        <time>2022-02-24T08:45:05Z</time>
      </trkpt>
      <trkpt lat="46.35643" lon="5.53177">
        <ele>426.8</ele>
        <time>2022-02-24T08:45:06Z</time>
      </trkpt>
      <trkpt lat="46.35638" lon="5.53176">
        <ele>427.2</ele>
        <time>2022-02-24T08:45:07Z</time>
      </trkpt>
      <trkpt lat="46.35634" lon="5.53175">
        <ele>427.2</ele>
        <time>2022-02-24T08:45:08Z</time>
      </trkpt>
      <trkpt lat="46.35629" lon="5.53174">
        <ele>427.2</ele>
        <time>2022-02-24T08:45:09Z</time>
      </trkpt>
      <trkpt lat="46.35624" lon="5.53173">
        <ele>427.2</ele>
        <time>2022-02-24T08:45:10Z</time>
      </trkpt>
      <trkpt lat="46.3562" lon="5.53173">
        <ele>427.2</ele>
        <time>2022-02-24T08:45:11Z</time>
      </trkpt>
      <trkpt lat="46.35615" lon="5.53172">
        <ele>427.2</ele>
        <time>2022-02-24T08:45:12Z</time>
      </trkpt>
      <trkpt lat="46.35611" lon="5.53172">
        <ele>427.4</ele>
        <time>2022-02-24T08:45:13Z</time>
      </trkpt>
      <trkpt lat="46.35606" lon="5.53171">
        <ele>427.4</ele>
        <time>2022-02-24T08:45:14Z</time>
      </trkpt>
      <trkpt lat="46.35602" lon="5.5317">
        <ele>427.6</ele>
        <time>2022-02-24T08:45:15Z</time>
      </trkpt>
      <trkpt lat="46.35597" lon="5.5317">
        <ele>427.6</ele>
        <time>2022-02-24T08:45:16Z</time>
      </trkpt>
      <trkpt lat="46.35593" lon="5.53169">
        <ele>427.8</ele>
        <time>2022-02-24T08:45:17Z</time>
      </trkpt>
      <trkpt lat="46.35588" lon="5.53169">
        <ele>427.8</ele>
        <time>2022-02-24T08:45:18Z</time>
      </trkpt>
      <trkpt lat="46.35584" lon="5.53168">
        <ele>427.8</ele>
        <time>2022-02-24T08:45:19Z</time>
      </trkpt>
      <trkpt lat="46.35579" lon="5.53168">
        <ele>428.2</ele>
        <time>2022-02-24T08:45:20Z</time>
      </trkpt>
      <trkpt lat="46.35575" lon="5.53168">
        <ele>428.2</ele>
        <time>2022-02-24T08:45:21Z</time>
      </trkpt>
      <trkpt lat="46.35571" lon="5.53167">
        <ele>428.4</ele>
        <time>2022-02-24T08:45:22Z</time>
      </trkpt>
      <trkpt lat="46.35567" lon="5.53166">
        <ele>428.4</ele>
        <time>2022-02-24T08:45:23Z</time>
      </trkpt>
      <trkpt lat="46.35563" lon="5.53166">
        <ele>428.4</ele>
        <time>2022-02-24T08:45:24Z</time>
      </trkpt>
      <trkpt lat="46.35558" lon="5.53165">
        <ele>428.8</ele>
        <time>2022-02-24T08:45:25Z</time>
      </trkpt>
      <trkpt lat="46.35554" lon="5.53164">
        <ele>428.8</ele>
        <time>2022-02-24T08:45:26Z</time>
      </trkpt>
      <trkpt lat="46.3555" lon="5.53164">
        <ele>428.8</ele>
        <time>2022-02-24T08:45:27Z</time>
      </trkpt>
      <trkpt lat="46.35545" lon="5.53164">
        <ele>429</ele>
        <time>2022-02-24T08:45:28Z</time>
      </trkpt>
      <trkpt lat="46.35541" lon="5.53164">
        <ele>429</ele>
        <time>2022-02-24T08:45:29Z</time>
      </trkpt>
      <trkpt lat="46.35537" lon="5.53163">
        <ele>429</ele>
        <time>2022-02-24T08:45:30Z</time>
      </trkpt>
      <trkpt lat="46.35533" lon="5.53163">
        <ele>429</ele>
        <time>2022-02-24T08:45:31Z</time>
      </trkpt>
      <trkpt lat="46.35528" lon="5.53163">
        <ele>429.2</ele>
        <time>2022-02-24T08:45:32Z</time>
      </trkpt>
      <trkpt lat="46.35524" lon="5.53163">
        <ele>429.2</ele>
        <time>2022-02-24T08:45:33Z</time>
      </trkpt>
      <trkpt lat="46.3552" lon="5.53164">
        <ele>429.2</ele>
        <time>2022-02-24T08:45:34Z</time>
      </trkpt>
      <trkpt lat="46.35515" lon="5.53164">
        <ele>429.2</ele>
        <time>2022-02-24T08:45:35Z</time>
      </trkpt>
      <trkpt lat="46.35511" lon="5.53165">
        <ele>429.2</ele>
        <time>2022-02-24T08:45:36Z</time>
      </trkpt>
      <trkpt lat="46.35507" lon="5.53165">
        <ele>429.2</ele>
        <time>2022-02-24T08:45:37Z</time>
      </trkpt>
      <trkpt lat="46.35503" lon="5.53166">
        <ele>429.2</ele>
        <time>2022-02-24T08:45:38Z</time>
      </trkpt>
      <trkpt lat="46.35499" lon="5.53167">
        <ele>429.2</ele>
        <time>2022-02-24T08:45:39Z</time>
      </trkpt>
      <trkpt lat="46.35495" lon="5.53168">
        <ele>429.2</ele>
        <time>2022-02-24T08:45:40Z</time>
      </trkpt>
      <trkpt lat="46.35492" lon="5.53168">
        <ele>429.4</ele>
        <time>2022-02-24T08:45:41Z</time>
      </trkpt>
      <trkpt lat="46.35489" lon="5.53169">
        <ele>429.4</ele>
        <time>2022-02-24T08:45:42Z</time>
      </trkpt>
      <trkpt lat="46.35486" lon="5.53169">
        <ele>429.4</ele>
        <time>2022-02-24T08:45:43Z</time>
      </trkpt>
      <trkpt lat="46.35483" lon="5.5317">
        <ele>429.4</ele>
        <time>2022-02-24T08:45:44Z</time>
      </trkpt>
      <trkpt lat="46.35481" lon="5.5317">
        <ele>429.6</ele>
        <time>2022-02-24T08:45:45Z</time>
      </trkpt>
      <trkpt lat="46.3548" lon="5.5317">
        <ele>429.6</ele>
        <time>2022-02-24T08:45:46Z</time>
      </trkpt>
      <trkpt lat="46.35479" lon="5.5317">
        <ele>429.6</ele>
        <time>2022-02-24T08:45:47Z</time>
      </trkpt>
      <trkpt lat="46.35475" lon="5.53172">
        <ele>430</ele>
        <time>2022-02-24T08:47:15Z</time>
      </trkpt>
      <trkpt lat="46.35473" lon="5.53173">
        <ele>429.8</ele>
        <time>2022-02-24T08:47:16Z</time>
      </trkpt>
      <trkpt lat="46.35471" lon="5.53174">
        <ele>429.8</ele>
        <time>2022-02-24T08:47:17Z</time>
      </trkpt>
      <trkpt lat="46.35469" lon="5.53176">
        <ele>429.8</ele>
        <time>2022-02-24T08:47:18Z</time>
      </trkpt>
      <trkpt lat="46.35466" lon="5.53177">
        <ele>429.8</ele>
        <time>2022-02-24T08:47:19Z</time>
      </trkpt>
      <trkpt lat="46.35464" lon="5.53179">
        <ele>429.8</ele>
        <time>2022-02-24T08:47:20Z</time>
      </trkpt>
      <trkpt lat="46.35461" lon="5.53181">
        <ele>429.8</ele>
        <time>2022-02-24T08:47:21Z</time>
      </trkpt>
      <trkpt lat="46.35458" lon="5.53183">
        <ele>429.8</ele>
        <time>2022-02-24T08:47:22Z</time>
      </trkpt>
      <trkpt lat="46.35455" lon="5.53185">
        <ele>429.8</ele>
        <time>2022-02-24T08:47:23Z</time>
      </trkpt>
      <trkpt lat="46.35452" lon="5.53187">
        <ele>430</ele>
        <time>2022-02-24T08:47:24Z</time>
      </trkpt>
      <trkpt lat="46.35448" lon="5.53189">
        <ele>430</ele>
        <time>2022-02-24T08:47:25Z</time>
      </trkpt>
      <trkpt lat="46.35445" lon="5.53191">
        <ele>430</ele>
        <time>2022-02-24T08:47:26Z</time>
      </trkpt>
      <trkpt lat="46.35441" lon="5.53192">
        <ele>430.2</ele>
        <time>2022-02-24T08:47:27Z</time>
      </trkpt>
      <trkpt lat="46.35438" lon="5.53194">
        <ele>430.2</ele>
        <time>2022-02-24T08:47:28Z</time>
      </trkpt>
      <trkpt lat="46.35434" lon="5.53196">
        <ele>430.2</ele>
        <time>2022-02-24T08:47:29Z</time>
      </trkpt>
      <trkpt lat="46.35431" lon="5.53198">
        <ele>430.6</ele>
        <time>2022-02-24T08:47:30Z</time>
      </trkpt>
      <trkpt lat="46.35427" lon="5.53199">
        <ele>430.6</ele>
        <time>2022-02-24T08:47:31Z</time>
      </trkpt>
      <trkpt lat="46.35423" lon="5.532">
        <ele>430.6</ele>
        <time>2022-02-24T08:47:32Z</time>
      </trkpt>
      <trkpt lat="46.35419" lon="5.53201">
        <ele>430.6</ele>
        <time>2022-02-24T08:47:33Z</time>
      </trkpt>
      <trkpt lat="46.35415" lon="5.53201">
        <ele>431</ele>
        <time>2022-02-24T08:47:34Z</time>
      </trkpt>
      <trkpt lat="46.35412" lon="5.53202">
        <ele>431.2</ele>
        <time>2022-02-24T08:47:35Z</time>
      </trkpt>
      <trkpt lat="46.35408" lon="5.53202">
        <ele>431.2</ele>
        <time>2022-02-24T08:47:36Z</time>
      </trkpt>
      <trkpt lat="46.35404" lon="5.53202">
        <ele>431.6</ele>
        <time>2022-02-24T08:47:37Z</time>
      </trkpt>
      <trkpt lat="46.35401" lon="5.53202">
        <ele>431.8</ele>
        <time>2022-02-24T08:47:38Z</time>
      </trkpt>
      <trkpt lat="46.35397" lon="5.53202">
        <ele>432</ele>
        <time>2022-02-24T08:47:39Z</time>
      </trkpt>
      <trkpt lat="46.35394" lon="5.53202">
        <ele>432.4</ele>
        <time>2022-02-24T08:47:40Z</time>
      </trkpt>
      <trkpt lat="46.3539" lon="5.53202">
        <ele>432.6</ele>
        <time>2022-02-24T08:47:41Z</time>
      </trkpt>
      <trkpt lat="46.35387" lon="5.53202">
        <ele>432.8</ele>
        <time>2022-02-24T08:47:42Z</time>
      </trkpt>
      <trkpt lat="46.35383" lon="5.53201">
        <ele>432.8</ele>
        <time>2022-02-24T08:47:43Z</time>
      </trkpt>
      <trkpt lat="46.3538" lon="5.53199">
        <ele>433.2</ele>
        <time>2022-02-24T08:47:44Z</time>
      </trkpt>
      <trkpt lat="46.35376" lon="5.53198">
        <ele>433.2</ele>
        <time>2022-02-24T08:47:45Z</time>
      </trkpt>
      <trkpt lat="46.35373" lon="5.53197">
        <ele>433.6</ele>
        <time>2022-02-24T08:47:46Z</time>
      </trkpt>
      <trkpt lat="46.35369" lon="5.53198">
        <ele>433.8</ele>
        <time>2022-02-24T08:47:47Z</time>
      </trkpt>
      <trkpt lat="46.35366" lon="5.53199">
        <ele>434</ele>
        <time>2022-02-24T08:47:48Z</time>
      </trkpt>
      <trkpt lat="46.35362" lon="5.532">
        <ele>434</ele>
        <time>2022-02-24T08:47:49Z</time>
      </trkpt>
      <trkpt lat="46.35359" lon="5.53203">
        <ele>434.4</ele>
        <time>2022-02-24T08:47:50Z</time>
      </trkpt>
      <trkpt lat="46.35356" lon="5.53205">
        <ele>434.6</ele>
        <time>2022-02-24T08:47:51Z</time>
      </trkpt>
      <trkpt lat="46.35353" lon="5.53207">
        <ele>434.8</ele>
        <time>2022-02-24T08:47:52Z</time>
      </trkpt>
      <trkpt lat="46.35349" lon="5.5321">
        <ele>434.8</ele>
        <time>2022-02-24T08:47:53Z</time>
      </trkpt>
      <trkpt lat="46.35346" lon="5.53212">
        <ele>435.2</ele>
        <time>2022-02-24T08:47:54Z</time>
      </trkpt>
      <trkpt lat="46.35343" lon="5.53215">
        <ele>435.2</ele>
        <time>2022-02-24T08:47:55Z</time>
      </trkpt>
      <trkpt lat="46.3534" lon="5.53217">
        <ele>435.2</ele>
        <time>2022-02-24T08:47:56Z</time>
      </trkpt>
      <trkpt lat="46.35336" lon="5.53218">
        <ele>435.6</ele>
        <time>2022-02-24T08:47:57Z</time>
      </trkpt>
      <trkpt lat="46.35333" lon="5.53219">
        <ele>435.6</ele>
        <time>2022-02-24T08:47:58Z</time>
      </trkpt>
      <trkpt lat="46.3533" lon="5.53221">
        <ele>435.8</ele>
        <time>2022-02-24T08:47:59Z</time>
      </trkpt>
      <trkpt lat="46.35327" lon="5.53222">
        <ele>435.8</ele>
        <time>2022-02-24T08:48:00Z</time>
      </trkpt>
      <trkpt lat="46.35323" lon="5.53223">
        <ele>436.2</ele>
        <time>2022-02-24T08:48:01Z</time>
      </trkpt>
      <trkpt lat="46.3532" lon="5.53225">
        <ele>436.4</ele>
        <time>2022-02-24T08:48:02Z</time>
      </trkpt>
      <trkpt lat="46.35316" lon="5.53227">
        <ele>436.4</ele>
        <time>2022-02-24T08:48:03Z</time>
      </trkpt>
      <trkpt lat="46.35316" lon="5.53227">
        <ele>436.8</ele>
        <time>2022-02-24T08:48:04Z</time>
      </trkpt>
      <trkpt lat="46.35312" lon="5.5323">
        <ele>436.8</ele>
        <time>2022-02-24T08:48:05Z</time>
      </trkpt>
      <trkpt lat="46.35309" lon="5.53232">
        <ele>437</ele>
        <time>2022-02-24T08:48:06Z</time>
      </trkpt>
      <trkpt lat="46.35305" lon="5.53233">
        <ele>437.2</ele>
        <time>2022-02-24T08:48:07Z</time>
      </trkpt>
      <trkpt lat="46.35301" lon="5.53236">
        <ele>437.2</ele>
        <time>2022-02-24T08:48:08Z</time>
      </trkpt>
      <trkpt lat="46.35297" lon="5.53238">
        <ele>437.6</ele>
        <time>2022-02-24T08:48:09Z</time>
      </trkpt>
      <trkpt lat="46.35293" lon="5.5324">
        <ele>437.6</ele>
        <time>2022-02-24T08:48:10Z</time>
      </trkpt>
      <trkpt lat="46.35289" lon="5.53241">
        <ele>437.8</ele>
        <time>2022-02-24T08:48:11Z</time>
      </trkpt>
      <trkpt lat="46.35286" lon="5.53241">
        <ele>437.8</ele>
        <time>2022-02-24T08:48:12Z</time>
      </trkpt>
      <trkpt lat="46.35282" lon="5.53241">
        <ele>438.2</ele>
        <time>2022-02-24T08:48:13Z</time>
      </trkpt>
      <trkpt lat="46.35279" lon="5.5324">
        <ele>438.4</ele>
        <time>2022-02-24T08:48:14Z</time>
      </trkpt>
      <trkpt lat="46.35276" lon="5.53239">
        <ele>438.4</ele>
        <time>2022-02-24T08:48:15Z</time>
      </trkpt>
      <trkpt lat="46.35272" lon="5.53237">
        <ele>438.8</ele>
        <time>2022-02-24T08:48:16Z</time>
      </trkpt>
      <trkpt lat="46.35269" lon="5.53236">
        <ele>439</ele>
        <time>2022-02-24T08:48:17Z</time>
      </trkpt>
      <trkpt lat="46.35266" lon="5.53234">
        <ele>439</ele>
        <time>2022-02-24T08:48:18Z</time>
      </trkpt>
      <trkpt lat="46.35263" lon="5.53232">
        <ele>439.2</ele>
        <time>2022-02-24T08:48:19Z</time>
      </trkpt>
      <trkpt lat="46.35259" lon="5.53231">
        <ele>439.2</ele>
        <time>2022-02-24T08:48:20Z</time>
      </trkpt>
      <trkpt lat="46.35256" lon="5.53229">
        <ele>439.4</ele>
        <time>2022-02-24T08:48:21Z</time>
      </trkpt>
      <trkpt lat="46.35253" lon="5.53227">
        <ele>439.4</ele>
        <time>2022-02-24T08:48:22Z</time>
      </trkpt>
      <trkpt lat="46.3525" lon="5.53225">
        <ele>439.8</ele>
        <time>2022-02-24T08:48:23Z</time>
      </trkpt>
      <trkpt lat="46.35247" lon="5.53223">
        <ele>439.8</ele>
        <time>2022-02-24T08:48:24Z</time>
      </trkpt>
      <trkpt lat="46.35244" lon="5.53221">
        <ele>440</ele>
        <time>2022-02-24T08:48:25Z</time>
      </trkpt>
      <trkpt lat="46.35241" lon="5.53219">
        <ele>440</ele>
        <time>2022-02-24T08:48:26Z</time>
      </trkpt>
      <trkpt lat="46.35238" lon="5.53218">
        <ele>440.4</ele>
        <time>2022-02-24T08:48:27Z</time>
      </trkpt>
      <trkpt lat="46.35235" lon="5.53216">
        <ele>440.4</ele>
        <time>2022-02-24T08:48:28Z</time>
      </trkpt>
      <trkpt lat="46.35232" lon="5.53215">
        <ele>440.6</ele>
        <time>2022-02-24T08:48:29Z</time>
      </trkpt>
      <trkpt lat="46.35229" lon="5.53213">
        <ele>440.6</ele>
        <time>2022-02-24T08:48:30Z</time>
      </trkpt>
      <trkpt lat="46.35226" lon="5.53212">
        <ele>441</ele>
        <time>2022-02-24T08:48:31Z</time>
      </trkpt>
      <trkpt lat="46.35223" lon="5.5321">
        <ele>441</ele>
        <time>2022-02-24T08:48:32Z</time>
      </trkpt>
      <trkpt lat="46.35221" lon="5.53207">
        <ele>441.2</ele>
        <time>2022-02-24T08:48:33Z</time>
      </trkpt>
      <trkpt lat="46.35218" lon="5.53206">
        <ele>441.2</ele>
        <time>2022-02-24T08:48:34Z</time>
      </trkpt>
      <trkpt lat="46.35215" lon="5.53203">
        <ele>441.6</ele>
        <time>2022-02-24T08:48:35Z</time>
      </trkpt>
      <trkpt lat="46.35212" lon="5.53201">
        <ele>441.6</ele>
        <time>2022-02-24T08:48:36Z</time>
      </trkpt>
      <trkpt lat="46.3521" lon="5.53198">
        <ele>441.8</ele>
        <time>2022-02-24T08:48:37Z</time>
      </trkpt>
      <trkpt lat="46.35207" lon="5.53197">
        <ele>441.8</ele>
        <time>2022-02-24T08:48:38Z</time>
      </trkpt>
      <trkpt lat="46.35204" lon="5.53195">
        <ele>442.2</ele>
        <time>2022-02-24T08:48:39Z</time>
      </trkpt>
      <trkpt lat="46.352" lon="5.53194">
        <ele>442.2</ele>
        <time>2022-02-24T08:48:40Z</time>
      </trkpt>
      <trkpt lat="46.35197" lon="5.53192">
        <ele>442.4</ele>
        <time>2022-02-24T08:48:41Z</time>
      </trkpt>
      <trkpt lat="46.35194" lon="5.53191">
        <ele>442.6</ele>
        <time>2022-02-24T08:48:42Z</time>
      </trkpt>
      <trkpt lat="46.35191" lon="5.53189">
        <ele>442.6</ele>
        <time>2022-02-24T08:48:43Z</time>
      </trkpt>
      <trkpt lat="46.35188" lon="5.53188">
        <ele>443</ele>
        <time>2022-02-24T08:48:44Z</time>
      </trkpt>
      <trkpt lat="46.35185" lon="5.53186">
        <ele>443.2</ele>
        <time>2022-02-24T08:48:45Z</time>
      </trkpt>
      <trkpt lat="46.35182" lon="5.53185">
        <ele>443.2</ele>
        <time>2022-02-24T08:48:46Z</time>
      </trkpt>
      <trkpt lat="46.35178" lon="5.53185">
        <ele>443.4</ele>
        <time>2022-02-24T08:48:47Z</time>
      </trkpt>
      <trkpt lat="46.35175" lon="5.53185">
        <ele>443.4</ele>
        <time>2022-02-24T08:48:48Z</time>
      </trkpt>
      <trkpt lat="46.35172" lon="5.53184">
        <ele>443.6</ele>
        <time>2022-02-24T08:48:49Z</time>
      </trkpt>
      <trkpt lat="46.35168" lon="5.53184">
        <ele>443.6</ele>
        <time>2022-02-24T08:48:50Z</time>
      </trkpt>
      <trkpt lat="46.35165" lon="5.53184">
        <ele>444</ele>
        <time>2022-02-24T08:48:51Z</time>
      </trkpt>
      <trkpt lat="46.35162" lon="5.53185">
        <ele>444</ele>
        <time>2022-02-24T08:48:52Z</time>
      </trkpt>
      <trkpt lat="46.35159" lon="5.53186">
        <ele>444.2</ele>
        <time>2022-02-24T08:48:53Z</time>
      </trkpt>
      <trkpt lat="46.35156" lon="5.53188">
        <ele>444.2</ele>
        <time>2022-02-24T08:48:54Z</time>
      </trkpt>
      <trkpt lat="46.35153" lon="5.53189">
        <ele>444.4</ele>
        <time>2022-02-24T08:48:55Z</time>
      </trkpt>
      <trkpt lat="46.3515" lon="5.53191">
        <ele>444.4</ele>
        <time>2022-02-24T08:48:56Z</time>
      </trkpt>
      <trkpt lat="46.35147" lon="5.53193">
        <ele>444.8</ele>
        <time>2022-02-24T08:48:57Z</time>
      </trkpt>
      <trkpt lat="46.35144" lon="5.53195">
        <ele>444.8</ele>
        <time>2022-02-24T08:48:58Z</time>
      </trkpt>
      <trkpt lat="46.35141" lon="5.53197">
        <ele>445.2</ele>
        <time>2022-02-24T08:48:59Z</time>
      </trkpt>
      <trkpt lat="46.35139" lon="5.532">
        <ele>445.2</ele>
        <time>2022-02-24T08:49:00Z</time>
      </trkpt>
      <trkpt lat="46.35136" lon="5.53203">
        <ele>445.4</ele>
        <time>2022-02-24T08:49:01Z</time>
      </trkpt>
      <trkpt lat="46.35134" lon="5.53205">
        <ele>445.4</ele>
        <time>2022-02-24T08:49:02Z</time>
      </trkpt>
      <trkpt lat="46.35131" lon="5.53208">
        <ele>445.8</ele>
        <time>2022-02-24T08:49:03Z</time>
      </trkpt>
      <trkpt lat="46.35129" lon="5.5321">
        <ele>445.8</ele>
        <time>2022-02-24T08:49:04Z</time>
      </trkpt>
      <trkpt lat="46.35126" lon="5.53213">
        <ele>446</ele>
        <time>2022-02-24T08:49:05Z</time>
      </trkpt>
      <trkpt lat="46.35124" lon="5.53215">
        <ele>446</ele>
        <time>2022-02-24T08:49:06Z</time>
      </trkpt>
      <trkpt lat="46.35121" lon="5.53218">
        <ele>446.2</ele>
        <time>2022-02-24T08:49:07Z</time>
      </trkpt>
      <trkpt lat="46.35119" lon="5.5322">
        <ele>446.2</ele>
        <time>2022-02-24T08:49:08Z</time>
      </trkpt>
      <trkpt lat="46.35116" lon="5.53222">
        <ele>446.6</ele>
        <time>2022-02-24T08:49:09Z</time>
      </trkpt>
      <trkpt lat="46.35114" lon="5.53224">
        <ele>446.6</ele>
        <time>2022-02-24T08:49:10Z</time>
      </trkpt>
      <trkpt lat="46.35111" lon="5.53227">
        <ele>446.6</ele>
        <time>2022-02-24T08:49:11Z</time>
      </trkpt>
      <trkpt lat="46.35108" lon="5.53229">
        <ele>446.8</ele>
        <time>2022-02-24T08:49:12Z</time>
      </trkpt>
      <trkpt lat="46.35106" lon="5.5323">
        <ele>446.8</ele>
        <time>2022-02-24T08:49:13Z</time>
      </trkpt>
      <trkpt lat="46.35103" lon="5.53232">
        <ele>447</ele>
        <time>2022-02-24T08:49:14Z</time>
      </trkpt>
      <trkpt lat="46.351" lon="5.53234">
        <ele>447.2</ele>
        <time>2022-02-24T08:49:15Z</time>
      </trkpt>
      <trkpt lat="46.35097" lon="5.53235">
        <ele>447.4</ele>
        <time>2022-02-24T08:49:16Z</time>
      </trkpt>
      <trkpt lat="46.35095" lon="5.53237">
        <ele>447.4</ele>
        <time>2022-02-24T08:49:17Z</time>
      </trkpt>
      <trkpt lat="46.35092" lon="5.53238">
        <ele>447.8</ele>
        <time>2022-02-24T08:49:18Z</time>
      </trkpt>
      <trkpt lat="46.35089" lon="5.53239">
        <ele>448</ele>
        <time>2022-02-24T08:49:19Z</time>
      </trkpt>
      <trkpt lat="46.35086" lon="5.53239">
        <ele>448</ele>
        <time>2022-02-24T08:49:20Z</time>
      </trkpt>
      <trkpt lat="46.35083" lon="5.53239">
        <ele>448.4</ele>
        <time>2022-02-24T08:49:21Z</time>
      </trkpt>
      <trkpt lat="46.3508" lon="5.53239">
        <ele>448.4</ele>
        <time>2022-02-24T08:49:22Z</time>
      </trkpt>
      <trkpt lat="46.35077" lon="5.53239">
        <ele>448.6</ele>
        <time>2022-02-24T08:49:23Z</time>
      </trkpt>
      <trkpt lat="46.35074" lon="5.53239">
        <ele>448.6</ele>
        <time>2022-02-24T08:49:24Z</time>
      </trkpt>
      <trkpt lat="46.35071" lon="5.53239">
        <ele>448.6</ele>
        <time>2022-02-24T08:49:25Z</time>
      </trkpt>
      <trkpt lat="46.35068" lon="5.53239">
        <ele>449</ele>
        <time>2022-02-24T08:49:26Z</time>
      </trkpt>
      <trkpt lat="46.35065" lon="5.53239">
        <ele>449</ele>
        <time>2022-02-24T08:49:27Z</time>
      </trkpt>
      <trkpt lat="46.35062" lon="5.53239">
        <ele>449.2</ele>
        <time>2022-02-24T08:49:28Z</time>
      </trkpt>
      <trkpt lat="46.35059" lon="5.53238">
        <ele>449.2</ele>
        <time>2022-02-24T08:49:29Z</time>
      </trkpt>
      <trkpt lat="46.35056" lon="5.53238">
        <ele>449.6</ele>
        <time>2022-02-24T08:49:30Z</time>
      </trkpt>
      <trkpt lat="46.35054" lon="5.53236">
        <ele>449.6</ele>
        <time>2022-02-24T08:49:31Z</time>
      </trkpt>
      <trkpt lat="46.35051" lon="5.53235">
        <ele>449.8</ele>
        <time>2022-02-24T08:49:32Z</time>
      </trkpt>
      <trkpt lat="46.35048" lon="5.53234">
        <ele>449.8</ele>
        <time>2022-02-24T08:49:33Z</time>
      </trkpt>
      <trkpt lat="46.35045" lon="5.53232">
        <ele>450.2</ele>
        <time>2022-02-24T08:49:34Z</time>
      </trkpt>
      <trkpt lat="46.35043" lon="5.53231">
        <ele>450.2</ele>
        <time>2022-02-24T08:49:35Z</time>
      </trkpt>
      <trkpt lat="46.3504" lon="5.5323">
        <ele>450.6</ele>
        <time>2022-02-24T08:49:36Z</time>
      </trkpt>
      <trkpt lat="46.35037" lon="5.53229">
        <ele>450.6</ele>
        <time>2022-02-24T08:49:37Z</time>
      </trkpt>
      <trkpt lat="46.35034" lon="5.53228">
        <ele>450.8</ele>
        <time>2022-02-24T08:49:38Z</time>
      </trkpt>
      <trkpt lat="46.35032" lon="5.53227">
        <ele>450.8</ele>
        <time>2022-02-24T08:49:39Z</time>
      </trkpt>
      <trkpt lat="46.35032" lon="5.53227">
        <ele>451</ele>
        <time>2022-02-24T08:49:40Z</time>
      </trkpt>
      <trkpt lat="46.35029" lon="5.53226">
        <ele>451</ele>
        <time>2022-02-24T08:49:41Z</time>
      </trkpt>
      <trkpt lat="46.35026" lon="5.53225">
        <ele>451</ele>
        <time>2022-02-24T08:49:42Z</time>
      </trkpt>
      <trkpt lat="46.35023" lon="5.53224">
        <ele>451.4</ele>
        <time>2022-02-24T08:49:43Z</time>
      </trkpt>
      <trkpt lat="46.3502" lon="5.53223">
        <ele>451.4</ele>
        <time>2022-02-24T08:49:44Z</time>
      </trkpt>
      <trkpt lat="46.35017" lon="5.53223">
        <ele>451.8</ele>
        <time>2022-02-24T08:49:45Z</time>
      </trkpt>
      <trkpt lat="46.35014" lon="5.53222">
        <ele>451.8</ele>
        <time>2022-02-24T08:49:46Z</time>
      </trkpt>
      <trkpt lat="46.35011" lon="5.53221">
        <ele>452.2</ele>
        <time>2022-02-24T08:49:47Z</time>
      </trkpt>
      <trkpt lat="46.35008" lon="5.5322">
        <ele>452.2</ele>
        <time>2022-02-24T08:49:48Z</time>
      </trkpt>
      <trkpt lat="46.35006" lon="5.53219">
        <ele>452.4</ele>
        <time>2022-02-24T08:49:49Z</time>
      </trkpt>
      <trkpt lat="46.35003" lon="5.53218">
        <ele>452.4</ele>
        <time>2022-02-24T08:49:50Z</time>
      </trkpt>
      <trkpt lat="46.35" lon="5.53217">
        <ele>452.8</ele>
        <time>2022-02-24T08:49:51Z</time>
      </trkpt>
      <trkpt lat="46.34997" lon="5.53216">
        <ele>452.8</ele>
        <time>2022-02-24T08:49:52Z</time>
      </trkpt>
      <trkpt lat="46.34995" lon="5.53215">
        <ele>453</ele>
        <time>2022-02-24T08:49:53Z</time>
      </trkpt>
      <trkpt lat="46.34992" lon="5.53214">
        <ele>453.4</ele>
        <time>2022-02-24T08:49:54Z</time>
      </trkpt>
      <trkpt lat="46.34989" lon="5.53213">
        <ele>453.4</ele>
        <time>2022-02-24T08:49:55Z</time>
      </trkpt>
      <trkpt lat="46.34987" lon="5.53212">
        <ele>453.6</ele>
        <time>2022-02-24T08:49:56Z</time>
      </trkpt>
      <trkpt lat="46.34984" lon="5.53211">
        <ele>453.8</ele>
        <time>2022-02-24T08:49:57Z</time>
      </trkpt>
      <trkpt lat="46.34981" lon="5.5321">
        <ele>453.8</ele>
        <time>2022-02-24T08:49:58Z</time>
      </trkpt>
      <trkpt lat="46.34978" lon="5.53209">
        <ele>454.2</ele>
        <time>2022-02-24T08:49:59Z</time>
      </trkpt>
      <trkpt lat="46.34975" lon="5.53208">
        <ele>454.2</ele>
        <time>2022-02-24T08:50:00Z</time>
      </trkpt>
      <trkpt lat="46.34973" lon="5.53207">
        <ele>454.4</ele>
        <time>2022-02-24T08:50:01Z</time>
      </trkpt>
      <trkpt lat="46.3497" lon="5.53207">
        <ele>454.4</ele>
        <time>2022-02-24T08:50:02Z</time>
      </trkpt>
      <trkpt lat="46.34967" lon="5.53206">
        <ele>454.8</ele>
        <time>2022-02-24T08:50:03Z</time>
      </trkpt>
      <trkpt lat="46.34964" lon="5.53206">
        <ele>454.8</ele>
        <time>2022-02-24T08:50:04Z</time>
      </trkpt>
      <trkpt lat="46.3496" lon="5.53205">
        <ele>455.2</ele>
        <time>2022-02-24T08:50:05Z</time>
      </trkpt>
      <trkpt lat="46.34957" lon="5.53205">
        <ele>455.2</ele>
        <time>2022-02-24T08:50:06Z</time>
      </trkpt>
      <trkpt lat="46.34954" lon="5.53204">
        <ele>455.6</ele>
        <time>2022-02-24T08:50:07Z</time>
      </trkpt>
      <trkpt lat="46.34951" lon="5.53204">
        <ele>455.6</ele>
        <time>2022-02-24T08:50:08Z</time>
      </trkpt>
      <trkpt lat="46.34947" lon="5.53204">
        <ele>456</ele>
        <time>2022-02-24T08:50:09Z</time>
      </trkpt>
      <trkpt lat="46.34944" lon="5.53204">
        <ele>456.2</ele>
        <time>2022-02-24T08:50:10Z</time>
      </trkpt>
      <trkpt lat="46.34941" lon="5.53204">
        <ele>456.4</ele>
        <time>2022-02-24T08:50:11Z</time>
      </trkpt>
      <trkpt lat="46.34937" lon="5.53205">
        <ele>456.4</ele>
        <time>2022-02-24T08:50:12Z</time>
      </trkpt>
      <trkpt lat="46.34931" lon="5.53205">
        <ele>456.8</ele>
        <time>2022-02-24T08:50:13Z</time>
      </trkpt>
      <trkpt lat="46.34927" lon="5.53206">
        <ele>457</ele>
        <time>2022-02-24T08:50:14Z</time>
      </trkpt>
      <trkpt lat="46.34924" lon="5.53206">
        <ele>457.2</ele>
        <time>2022-02-24T08:50:15Z</time>
      </trkpt>
      <trkpt lat="46.34921" lon="5.53207">
        <ele>457.4</ele>
        <time>2022-02-24T08:50:16Z</time>
      </trkpt>
      <trkpt lat="46.34918" lon="5.53208">
        <ele>457.4</ele>
        <time>2022-02-24T08:50:17Z</time>
      </trkpt>
      <trkpt lat="46.34914" lon="5.53208">
        <ele>457.4</ele>
        <time>2022-02-24T08:50:18Z</time>
      </trkpt>
      <trkpt lat="46.34911" lon="5.53209">
        <ele>457.4</ele>
        <time>2022-02-24T08:50:19Z</time>
      </trkpt>
      <trkpt lat="46.34908" lon="5.53209">
        <ele>457.4</ele>
        <time>2022-02-24T08:50:20Z</time>
      </trkpt>
      <trkpt lat="46.34905" lon="5.5321">
        <ele>457.4</ele>
        <time>2022-02-24T08:50:21Z</time>
      </trkpt>
      <trkpt lat="46.34901" lon="5.53211">
        <ele>457.6</ele>
        <time>2022-02-24T08:50:22Z</time>
      </trkpt>
      <trkpt lat="46.34898" lon="5.53211">
        <ele>457.6</ele>
        <time>2022-02-24T08:50:23Z</time>
      </trkpt>
      <trkpt lat="46.34895" lon="5.53212">
        <ele>458</ele>
        <time>2022-02-24T08:50:24Z</time>
      </trkpt>
      <trkpt lat="46.34892" lon="5.53212">
        <ele>458</ele>
        <time>2022-02-24T08:50:25Z</time>
      </trkpt>
      <trkpt lat="46.34889" lon="5.53213">
        <ele>458.4</ele>
        <time>2022-02-24T08:50:26Z</time>
      </trkpt>
      <trkpt lat="46.34886" lon="5.53214">
        <ele>458.4</ele>
        <time>2022-02-24T08:50:27Z</time>
      </trkpt>
      <trkpt lat="46.34883" lon="5.53214">
        <ele>458.6</ele>
        <time>2022-02-24T08:50:28Z</time>
      </trkpt>
      <trkpt lat="46.34879" lon="5.53215">
        <ele>458.6</ele>
        <time>2022-02-24T08:50:29Z</time>
      </trkpt>
      <trkpt lat="46.34876" lon="5.53216">
        <ele>459</ele>
        <time>2022-02-24T08:50:30Z</time>
      </trkpt>
      <trkpt lat="46.34873" lon="5.53217">
        <ele>459</ele>
        <time>2022-02-24T08:50:31Z</time>
      </trkpt>
      <trkpt lat="46.3487" lon="5.53218">
        <ele>459.2</ele>
        <time>2022-02-24T08:50:32Z</time>
      </trkpt>
      <trkpt lat="46.34867" lon="5.53219">
        <ele>459.2</ele>
        <time>2022-02-24T08:50:33Z</time>
      </trkpt>
      <trkpt lat="46.34864" lon="5.5322">
        <ele>459.6</ele>
        <time>2022-02-24T08:50:34Z</time>
      </trkpt>
      <trkpt lat="46.34861" lon="5.5322">
        <ele>459.6</ele>
        <time>2022-02-24T08:50:35Z</time>
      </trkpt>
      <trkpt lat="46.34858" lon="5.53221">
        <ele>459.8</ele>
        <time>2022-02-24T08:50:36Z</time>
      </trkpt>
      <trkpt lat="46.34855" lon="5.53222">
        <ele>460</ele>
        <time>2022-02-24T08:50:37Z</time>
      </trkpt>
      <trkpt lat="46.34851" lon="5.53223">
        <ele>460</ele>
        <time>2022-02-24T08:50:38Z</time>
      </trkpt>
      <trkpt lat="46.34848" lon="5.53223">
        <ele>460.4</ele>
        <time>2022-02-24T08:50:39Z</time>
      </trkpt>
      <trkpt lat="46.34845" lon="5.53224">
        <ele>460.4</ele>
        <time>2022-02-24T08:50:40Z</time>
      </trkpt>
      <trkpt lat="46.34842" lon="5.53225">
        <ele>460.8</ele>
        <time>2022-02-24T08:50:41Z</time>
      </trkpt>
      <trkpt lat="46.34839" lon="5.53226">
        <ele>460.8</ele>
        <time>2022-02-24T08:50:42Z</time>
      </trkpt>
      <trkpt lat="46.34836" lon="5.53226">
        <ele>461.2</ele>
        <time>2022-02-24T08:50:43Z</time>
      </trkpt>
      <trkpt lat="46.34833" lon="5.53227">
        <ele>461.2</ele>
        <time>2022-02-24T08:50:44Z</time>
      </trkpt>
      <trkpt lat="46.3483" lon="5.53227">
        <ele>461.4</ele>
        <time>2022-02-24T08:50:45Z</time>
      </trkpt>
      <trkpt lat="46.34827" lon="5.53228">
        <ele>461.4</ele>
        <time>2022-02-24T08:50:46Z</time>
      </trkpt>
      <trkpt lat="46.34824" lon="5.53228">
        <ele>461.8</ele>
        <time>2022-02-24T08:50:47Z</time>
      </trkpt>
      <trkpt lat="46.34821" lon="5.53229">
        <ele>461.8</ele>
        <time>2022-02-24T08:50:48Z</time>
      </trkpt>
      <trkpt lat="46.34818" lon="5.5323">
        <ele>462.2</ele>
        <time>2022-02-24T08:50:49Z</time>
      </trkpt>
      <trkpt lat="46.34815" lon="5.5323">
        <ele>462.2</ele>
        <time>2022-02-24T08:50:50Z</time>
      </trkpt>
      <trkpt lat="46.34811" lon="5.53231">
        <ele>462.4</ele>
        <time>2022-02-24T08:50:51Z</time>
      </trkpt>
      <trkpt lat="46.34808" lon="5.53232">
        <ele>462.8</ele>
        <time>2022-02-24T08:50:52Z</time>
      </trkpt>
      <trkpt lat="46.34805" lon="5.53233">
        <ele>463</ele>
        <time>2022-02-24T08:50:53Z</time>
      </trkpt>
      <trkpt lat="46.34802" lon="5.53233">
        <ele>463</ele>
        <time>2022-02-24T08:50:54Z</time>
      </trkpt>
      <trkpt lat="46.348" lon="5.53234">
        <ele>463.2</ele>
        <time>2022-02-24T08:50:55Z</time>
      </trkpt>
      <trkpt lat="46.34797" lon="5.53234">
        <ele>463.2</ele>
        <time>2022-02-24T08:50:56Z</time>
      </trkpt>
      <trkpt lat="46.34793" lon="5.53235">
        <ele>463.6</ele>
        <time>2022-02-24T08:50:57Z</time>
      </trkpt>
      <trkpt lat="46.34791" lon="5.53236">
        <ele>463.8</ele>
        <time>2022-02-24T08:50:58Z</time>
      </trkpt>
      <trkpt lat="46.34788" lon="5.53237">
        <ele>464</ele>
        <time>2022-02-24T08:50:59Z</time>
      </trkpt>
      <trkpt lat="46.34785" lon="5.53238">
        <ele>464</ele>
        <time>2022-02-24T08:51:00Z</time>
      </trkpt>
      <trkpt lat="46.34782" lon="5.53238">
        <ele>464.2</ele>
        <time>2022-02-24T08:51:01Z</time>
      </trkpt>
      <trkpt lat="46.34779" lon="5.53238">
        <ele>464.2</ele>
        <time>2022-02-24T08:51:02Z</time>
      </trkpt>
      <trkpt lat="46.34775" lon="5.53239">
        <ele>464.4</ele>
        <time>2022-02-24T08:51:03Z</time>
      </trkpt>
      <trkpt lat="46.34772" lon="5.53239">
        <ele>464.4</ele>
        <time>2022-02-24T08:51:04Z</time>
      </trkpt>
      <trkpt lat="46.34772" lon="5.53239">
        <ele>464.4</ele>
        <time>2022-02-24T08:51:05Z</time>
      </trkpt>
      <trkpt lat="46.34769" lon="5.53241">
        <ele>464.6</ele>
        <time>2022-02-24T08:51:06Z</time>
      </trkpt>
      <trkpt lat="46.34765" lon="5.53241">
        <ele>464.6</ele>
        <time>2022-02-24T08:51:07Z</time>
      </trkpt>
      <trkpt lat="46.34762" lon="5.53242">
        <ele>465</ele>
        <time>2022-02-24T08:51:08Z</time>
      </trkpt>
      <trkpt lat="46.34758" lon="5.53242">
        <ele>465.2</ele>
        <time>2022-02-24T08:51:09Z</time>
      </trkpt>
      <trkpt lat="46.34755" lon="5.53243">
        <ele>465.4</ele>
        <time>2022-02-24T08:51:10Z</time>
      </trkpt>
      <trkpt lat="46.34751" lon="5.53243">
        <ele>465.4</ele>
        <time>2022-02-24T08:51:11Z</time>
      </trkpt>
      <trkpt lat="46.34748" lon="5.53244">
        <ele>465.8</ele>
        <time>2022-02-24T08:51:12Z</time>
      </trkpt>
      <trkpt lat="46.34744" lon="5.53245">
        <ele>465.8</ele>
        <time>2022-02-24T08:51:13Z</time>
      </trkpt>
      <trkpt lat="46.34741" lon="5.53245">
        <ele>466</ele>
        <time>2022-02-24T08:51:14Z</time>
      </trkpt>
      <trkpt lat="46.34737" lon="5.53246">
        <ele>466</ele>
        <time>2022-02-24T08:51:15Z</time>
      </trkpt>
      <trkpt lat="46.34734" lon="5.53246">
        <ele>466</ele>
        <time>2022-02-24T08:51:16Z</time>
      </trkpt>
      <trkpt lat="46.3473" lon="5.53246">
        <ele>466.2</ele>
        <time>2022-02-24T08:51:17Z</time>
      </trkpt>
      <trkpt lat="46.34726" lon="5.53246">
        <ele>466.2</ele>
        <time>2022-02-24T08:51:18Z</time>
      </trkpt>
      <trkpt lat="46.34723" lon="5.53246">
        <ele>466.6</ele>
        <time>2022-02-24T08:51:19Z</time>
      </trkpt>
      <trkpt lat="46.3472" lon="5.53246">
        <ele>466.6</ele>
        <time>2022-02-24T08:51:20Z</time>
      </trkpt>
      <trkpt lat="46.34717" lon="5.53246">
        <ele>467</ele>
        <time>2022-02-24T08:51:21Z</time>
      </trkpt>
      <trkpt lat="46.34711" lon="5.53245">
        <ele>467</ele>
        <time>2022-02-24T08:51:22Z</time>
      </trkpt>
      <trkpt lat="46.34708" lon="5.53245">
        <ele>467.4</ele>
        <time>2022-02-24T08:51:23Z</time>
      </trkpt>
      <trkpt lat="46.34704" lon="5.53244">
        <ele>467.4</ele>
        <time>2022-02-24T08:51:24Z</time>
      </trkpt>
      <trkpt lat="46.34701" lon="5.53244">
        <ele>467.6</ele>
        <time>2022-02-24T08:51:25Z</time>
      </trkpt>
      <trkpt lat="46.34698" lon="5.53243">
        <ele>468</ele>
        <time>2022-02-24T08:51:26Z</time>
      </trkpt>
      <trkpt lat="46.34695" lon="5.53242">
        <ele>468.2</ele>
        <time>2022-02-24T08:51:27Z</time>
      </trkpt>
      <trkpt lat="46.34692" lon="5.53241">
        <ele>468.2</ele>
        <time>2022-02-24T08:51:28Z</time>
      </trkpt>
      <trkpt lat="46.34689" lon="5.5324">
        <ele>468.4</ele>
        <time>2022-02-24T08:51:29Z</time>
      </trkpt>
      <trkpt lat="46.34686" lon="5.53239">
        <ele>468.4</ele>
        <time>2022-02-24T08:51:30Z</time>
      </trkpt>
      <trkpt lat="46.34682" lon="5.53238">
        <ele>468.4</ele>
        <time>2022-02-24T08:51:31Z</time>
      </trkpt>
      <trkpt lat="46.34679" lon="5.53237">
        <ele>468.8</ele>
        <time>2022-02-24T08:51:32Z</time>
      </trkpt>
      <trkpt lat="46.34676" lon="5.53236">
        <ele>469</ele>
        <time>2022-02-24T08:51:33Z</time>
      </trkpt>
      <trkpt lat="46.34673" lon="5.53235">
        <ele>469</ele>
        <time>2022-02-24T08:51:34Z</time>
      </trkpt>
      <trkpt lat="46.3467" lon="5.53234">
        <ele>469.2</ele>
        <time>2022-02-24T08:51:35Z</time>
      </trkpt>
      <trkpt lat="46.34666" lon="5.53233">
        <ele>469.4</ele>
        <time>2022-02-24T08:51:36Z</time>
      </trkpt>
      <trkpt lat="46.34663" lon="5.53232">
        <ele>469.4</ele>
        <time>2022-02-24T08:51:37Z</time>
      </trkpt>
      <trkpt lat="46.3466" lon="5.53232">
        <ele>469.8</ele>
        <time>2022-02-24T08:51:38Z</time>
      </trkpt>
      <trkpt lat="46.34657" lon="5.53231">
        <ele>469.8</ele>
        <time>2022-02-24T08:51:39Z</time>
      </trkpt>
      <trkpt lat="46.34654" lon="5.5323">
        <ele>470.2</ele>
        <time>2022-02-24T08:51:40Z</time>
      </trkpt>
      <trkpt lat="46.34651" lon="5.53229">
        <ele>470.4</ele>
        <time>2022-02-24T08:51:41Z</time>
      </trkpt>
      <trkpt lat="46.34648" lon="5.53228">
        <ele>470.4</ele>
        <time>2022-02-24T08:51:42Z</time>
      </trkpt>
      <trkpt lat="46.34645" lon="5.53227">
        <ele>470.8</ele>
        <time>2022-02-24T08:51:43Z</time>
      </trkpt>
      <trkpt lat="46.34642" lon="5.53226">
        <ele>471</ele>
        <time>2022-02-24T08:51:44Z</time>
      </trkpt>
      <trkpt lat="46.34639" lon="5.53225">
        <ele>471.4</ele>
        <time>2022-02-24T08:51:45Z</time>
      </trkpt>
      <trkpt lat="46.34636" lon="5.53225">
        <ele>471.4</ele>
        <time>2022-02-24T08:51:46Z</time>
      </trkpt>
      <trkpt lat="46.34633" lon="5.53224">
        <ele>471.6</ele>
        <time>2022-02-24T08:51:47Z</time>
      </trkpt>
      <trkpt lat="46.3463" lon="5.53224">
        <ele>471.6</ele>
        <time>2022-02-24T08:51:48Z</time>
      </trkpt>
      <trkpt lat="46.34627" lon="5.53223">
        <ele>472</ele>
        <time>2022-02-24T08:51:49Z</time>
      </trkpt>
      <trkpt lat="46.34623" lon="5.53223">
        <ele>472</ele>
        <time>2022-02-24T08:51:50Z</time>
      </trkpt>
      <trkpt lat="46.3462" lon="5.53223">
        <ele>472.2</ele>
        <time>2022-02-24T08:51:51Z</time>
      </trkpt>
      <trkpt lat="46.34617" lon="5.53223">
        <ele>472.2</ele>
        <time>2022-02-24T08:51:52Z</time>
      </trkpt>
      <trkpt lat="46.34614" lon="5.53224">
        <ele>472.6</ele>
        <time>2022-02-24T08:51:53Z</time>
      </trkpt>
      <trkpt lat="46.34611" lon="5.53224">
        <ele>472.8</ele>
        <time>2022-02-24T08:51:54Z</time>
      </trkpt>
      <trkpt lat="46.34608" lon="5.53225">
        <ele>473</ele>
        <time>2022-02-24T08:51:55Z</time>
      </trkpt>
      <trkpt lat="46.34605" lon="5.53226">
        <ele>473.2</ele>
        <time>2022-02-24T08:51:56Z</time>
      </trkpt>
      <trkpt lat="46.34602" lon="5.53226">
        <ele>473.6</ele>
        <time>2022-02-24T08:51:57Z</time>
      </trkpt>
      <trkpt lat="46.34599" lon="5.53228">
        <ele>473.8</ele>
        <time>2022-02-24T08:51:58Z</time>
      </trkpt>
      <trkpt lat="46.34596" lon="5.53229">
        <ele>474</ele>
        <time>2022-02-24T08:51:59Z</time>
      </trkpt>
      <trkpt lat="46.34593" lon="5.53231">
        <ele>474</ele>
        <time>2022-02-24T08:52:00Z</time>
      </trkpt>
      <trkpt lat="46.3459" lon="5.53232">
        <ele>474.4</ele>
        <time>2022-02-24T08:52:01Z</time>
      </trkpt>
      <trkpt lat="46.34586" lon="5.53233">
        <ele>474.4</ele>
        <time>2022-02-24T08:52:02Z</time>
      </trkpt>
      <trkpt lat="46.34584" lon="5.53235">
        <ele>474.6</ele>
        <time>2022-02-24T08:52:03Z</time>
      </trkpt>
      <trkpt lat="46.34581" lon="5.53236">
        <ele>474.8</ele>
        <time>2022-02-24T08:52:04Z</time>
      </trkpt>
      <trkpt lat="46.34578" lon="5.53238">
        <ele>475.2</ele>
        <time>2022-02-24T08:52:05Z</time>
      </trkpt>
      <trkpt lat="46.34575" lon="5.5324">
        <ele>475.4</ele>
        <time>2022-02-24T08:52:06Z</time>
      </trkpt>
      <trkpt lat="46.34571" lon="5.53241">
        <ele>475.4</ele>
        <time>2022-02-24T08:52:07Z</time>
      </trkpt>
      <trkpt lat="46.34569" lon="5.53243">
        <ele>475.8</ele>
        <time>2022-02-24T08:52:08Z</time>
      </trkpt>
      <trkpt lat="46.34566" lon="5.53244">
        <ele>476</ele>
        <time>2022-02-24T08:52:09Z</time>
      </trkpt>
      <trkpt lat="46.34563" lon="5.53246">
        <ele>476.4</ele>
        <time>2022-02-24T08:52:10Z</time>
      </trkpt>
      <trkpt lat="46.3456" lon="5.53248">
        <ele>476.6</ele>
        <time>2022-02-24T08:52:11Z</time>
      </trkpt>
      <trkpt lat="46.34557" lon="5.5325">
        <ele>476.6</ele>
        <time>2022-02-24T08:52:12Z</time>
      </trkpt>
      <trkpt lat="46.34554" lon="5.53251">
        <ele>477</ele>
        <time>2022-02-24T08:52:13Z</time>
      </trkpt>
      <trkpt lat="46.34552" lon="5.53253">
        <ele>477</ele>
        <time>2022-02-24T08:52:14Z</time>
      </trkpt>
      <trkpt lat="46.34549" lon="5.53255">
        <ele>477.4</ele>
        <time>2022-02-24T08:52:15Z</time>
      </trkpt>
      <trkpt lat="46.34546" lon="5.53256">
        <ele>477.6</ele>
        <time>2022-02-24T08:52:16Z</time>
      </trkpt>
      <trkpt lat="46.34543" lon="5.53259">
        <ele>477.6</ele>
        <time>2022-02-24T08:52:17Z</time>
      </trkpt>
      <trkpt lat="46.34541" lon="5.5326">
        <ele>478</ele>
        <time>2022-02-24T08:52:18Z</time>
      </trkpt>
      <trkpt lat="46.34538" lon="5.53262">
        <ele>478.2</ele>
        <time>2022-02-24T08:52:19Z</time>
      </trkpt>
      <trkpt lat="46.34535" lon="5.53264">
        <ele>478.4</ele>
        <time>2022-02-24T08:52:20Z</time>
      </trkpt>
      <trkpt lat="46.34533" lon="5.53266">
        <ele>478.6</ele>
        <time>2022-02-24T08:52:21Z</time>
      </trkpt>
      <trkpt lat="46.3453" lon="5.53267">
        <ele>478.6</ele>
        <time>2022-02-24T08:52:22Z</time>
      </trkpt>
      <trkpt lat="46.34527" lon="5.53269">
        <ele>479</ele>
        <time>2022-02-24T08:52:23Z</time>
      </trkpt>
      <trkpt lat="46.34524" lon="5.53271">
        <ele>479.2</ele>
        <time>2022-02-24T08:52:24Z</time>
      </trkpt>
      <trkpt lat="46.34521" lon="5.53272">
        <ele>479.2</ele>
        <time>2022-02-24T08:52:25Z</time>
      </trkpt>
      <trkpt lat="46.34519" lon="5.53274">
        <ele>479.6</ele>
        <time>2022-02-24T08:52:26Z</time>
      </trkpt>
      <trkpt lat="46.34516" lon="5.53275">
        <ele>480</ele>
        <time>2022-02-24T08:52:27Z</time>
      </trkpt>
      <trkpt lat="46.34513" lon="5.53276">
        <ele>480.4</ele>
        <time>2022-02-24T08:52:28Z</time>
      </trkpt>
      <trkpt lat="46.3451" lon="5.53277">
        <ele>480.6</ele>
        <time>2022-02-24T08:52:29Z</time>
      </trkpt>
      <trkpt lat="46.34507" lon="5.53279">
        <ele>480.8</ele>
        <time>2022-02-24T08:52:30Z</time>
      </trkpt>
      <trkpt lat="46.34504" lon="5.5328">
        <ele>480.8</ele>
        <time>2022-02-24T08:52:31Z</time>
      </trkpt>
      <trkpt lat="46.34501" lon="5.53282">
        <ele>481.2</ele>
        <time>2022-02-24T08:52:32Z</time>
      </trkpt>
      <trkpt lat="46.34498" lon="5.53284">
        <ele>481.4</ele>
        <time>2022-02-24T08:52:33Z</time>
      </trkpt>
      <trkpt lat="46.34495" lon="5.53285">
        <ele>481.4</ele>
        <time>2022-02-24T08:52:34Z</time>
      </trkpt>
      <trkpt lat="46.34493" lon="5.53287">
        <ele>482</ele>
        <time>2022-02-24T08:52:35Z</time>
      </trkpt>
      <trkpt lat="46.3449" lon="5.53289">
        <ele>482.2</ele>
        <time>2022-02-24T08:52:36Z</time>
      </trkpt>
      <trkpt lat="46.34487" lon="5.5329">
        <ele>482.2</ele>
        <time>2022-02-24T08:52:37Z</time>
      </trkpt>
      <trkpt lat="46.34484" lon="5.53291">
        <ele>482.6</ele>
        <time>2022-02-24T08:52:38Z</time>
      </trkpt>
      <trkpt lat="46.34481" lon="5.53292">
        <ele>482.6</ele>
        <time>2022-02-24T08:52:39Z</time>
      </trkpt>
      <trkpt lat="46.34478" lon="5.53293">
        <ele>483</ele>
        <time>2022-02-24T08:52:40Z</time>
      </trkpt>
      <trkpt lat="46.34475" lon="5.53295">
        <ele>483</ele>
        <time>2022-02-24T08:52:41Z</time>
      </trkpt>
      <trkpt lat="46.34472" lon="5.53296">
        <ele>483.2</ele>
        <time>2022-02-24T08:52:42Z</time>
      </trkpt>
      <trkpt lat="46.3447" lon="5.53297">
        <ele>483.4</ele>
        <time>2022-02-24T08:52:43Z</time>
      </trkpt>
      <trkpt lat="46.34467" lon="5.53297">
        <ele>483.4</ele>
        <time>2022-02-24T08:52:44Z</time>
      </trkpt>
      <trkpt lat="46.34464" lon="5.53298">
        <ele>483.8</ele>
        <time>2022-02-24T08:52:45Z</time>
      </trkpt>
      <trkpt lat="46.34461" lon="5.53298">
        <ele>483.8</ele>
        <time>2022-02-24T08:52:46Z</time>
      </trkpt>
      <trkpt lat="46.34458" lon="5.53298">
        <ele>484.2</ele>
        <time>2022-02-24T08:52:47Z</time>
      </trkpt>
      <trkpt lat="46.34455" lon="5.53298">
        <ele>484.2</ele>
        <time>2022-02-24T08:52:48Z</time>
      </trkpt>
      <trkpt lat="46.34453" lon="5.53297">
        <ele>484.6</ele>
        <time>2022-02-24T08:52:49Z</time>
      </trkpt>
      <trkpt lat="46.3445" lon="5.53296">
        <ele>484.8</ele>
        <time>2022-02-24T08:52:50Z</time>
      </trkpt>
      <trkpt lat="46.34447" lon="5.53295">
        <ele>484.8</ele>
        <time>2022-02-24T08:52:51Z</time>
      </trkpt>
      <trkpt lat="46.34444" lon="5.53293">
        <ele>485</ele>
        <time>2022-02-24T08:52:52Z</time>
      </trkpt>
      <trkpt lat="46.34442" lon="5.53291">
        <ele>485.2</ele>
        <time>2022-02-24T08:52:53Z</time>
      </trkpt>
      <trkpt lat="46.3444" lon="5.53288">
        <ele>485.2</ele>
        <time>2022-02-24T08:52:54Z</time>
      </trkpt>
      <trkpt lat="46.34437" lon="5.53285">
        <ele>485.6</ele>
        <time>2022-02-24T08:52:55Z</time>
      </trkpt>
      <trkpt lat="46.34435" lon="5.53283">
        <ele>485.8</ele>
        <time>2022-02-24T08:52:56Z</time>
      </trkpt>
      <trkpt lat="46.34433" lon="5.53279">
        <ele>486</ele>
        <time>2022-02-24T08:52:57Z</time>
      </trkpt>
      <trkpt lat="46.34431" lon="5.53276">
        <ele>486.4</ele>
        <time>2022-02-24T08:52:58Z</time>
      </trkpt>
      <trkpt lat="46.34429" lon="5.53273">
        <ele>486.6</ele>
        <time>2022-02-24T08:52:59Z</time>
      </trkpt>
      <trkpt lat="46.34427" lon="5.5327">
        <ele>486.6</ele>
        <time>2022-02-24T08:53:00Z</time>
      </trkpt>
      <trkpt lat="46.34426" lon="5.53267">
        <ele>487</ele>
        <time>2022-02-24T08:53:01Z</time>
      </trkpt>
      <trkpt lat="46.34424" lon="5.53263">
        <ele>487</ele>
        <time>2022-02-24T08:53:02Z</time>
      </trkpt>
      <trkpt lat="46.34423" lon="5.5326">
        <ele>487.2</ele>
        <time>2022-02-24T08:53:03Z</time>
      </trkpt>
      <trkpt lat="46.34422" lon="5.53255">
        <ele>487.4</ele>
        <time>2022-02-24T08:53:04Z</time>
      </trkpt>
      <trkpt lat="46.34421" lon="5.53251">
        <ele>487.4</ele>
        <time>2022-02-24T08:53:05Z</time>
      </trkpt>
      <trkpt lat="46.34421" lon="5.53247">
        <ele>487.8</ele>
        <time>2022-02-24T08:53:06Z</time>
      </trkpt>
      <trkpt lat="46.3442" lon="5.53243">
        <ele>487.8</ele>
        <time>2022-02-24T08:53:07Z</time>
      </trkpt>
      <trkpt lat="46.34419" lon="5.53239">
        <ele>488.2</ele>
        <time>2022-02-24T08:53:08Z</time>
      </trkpt>
      <trkpt lat="46.34418" lon="5.53235">
        <ele>488.2</ele>
        <time>2022-02-24T08:53:09Z</time>
      </trkpt>
      <trkpt lat="46.34418" lon="5.53235">
        <ele>488.6</ele>
        <time>2022-02-24T08:53:10Z</time>
      </trkpt>
      <trkpt lat="46.34418" lon="5.53231">
        <ele>488.6</ele>
        <time>2022-02-24T08:53:11Z</time>
      </trkpt>
      <trkpt lat="46.34417" lon="5.53227">
        <ele>488.8</ele>
        <time>2022-02-24T08:53:12Z</time>
      </trkpt>
      <trkpt lat="46.34417" lon="5.53223">
        <ele>489</ele>
        <time>2022-02-24T08:53:13Z</time>
      </trkpt>
      <trkpt lat="46.34417" lon="5.53218">
        <ele>489</ele>
        <time>2022-02-24T08:53:14Z</time>
      </trkpt>
      <trkpt lat="46.34416" lon="5.53214">
        <ele>489.4</ele>
        <time>2022-02-24T08:53:15Z</time>
      </trkpt>
      <trkpt lat="46.34416" lon="5.5321">
        <ele>489.4</ele>
        <time>2022-02-24T08:53:16Z</time>
      </trkpt>
      <trkpt lat="46.34415" lon="5.53206">
        <ele>489.6</ele>
        <time>2022-02-24T08:53:17Z</time>
      </trkpt>
      <trkpt lat="46.34415" lon="5.53202">
        <ele>489.6</ele>
        <time>2022-02-24T08:53:18Z</time>
      </trkpt>
      <trkpt lat="46.34414" lon="5.53198">
        <ele>489.8</ele>
        <time>2022-02-24T08:53:19Z</time>
      </trkpt>
      <trkpt lat="46.34413" lon="5.53194">
        <ele>489.8</ele>
        <time>2022-02-24T08:53:20Z</time>
      </trkpt>
      <trkpt lat="46.34412" lon="5.5319">
        <ele>490.2</ele>
        <time>2022-02-24T08:53:21Z</time>
      </trkpt>
      <trkpt lat="46.34411" lon="5.53186">
        <ele>490.2</ele>
        <time>2022-02-24T08:53:22Z</time>
      </trkpt>
      <trkpt lat="46.3441" lon="5.53182">
        <ele>490.4</ele>
        <time>2022-02-24T08:53:23Z</time>
      </trkpt>
      <trkpt lat="46.34409" lon="5.53178">
        <ele>490.4</ele>
        <time>2022-02-24T08:53:24Z</time>
      </trkpt>
      <trkpt lat="46.34408" lon="5.53173">
        <ele>490.4</ele>
        <time>2022-02-24T08:53:25Z</time>
      </trkpt>
      <trkpt lat="46.34407" lon="5.53169">
        <ele>490.4</ele>
        <time>2022-02-24T08:53:26Z</time>
      </trkpt>
      <trkpt lat="46.34405" lon="5.53165">
        <ele>490.8</ele>
        <time>2022-02-24T08:53:27Z</time>
      </trkpt>
      <trkpt lat="46.34404" lon="5.53162">
        <ele>490.8</ele>
        <time>2022-02-24T08:53:28Z</time>
      </trkpt>
      <trkpt lat="46.34402" lon="5.53158">
        <ele>491</ele>
        <time>2022-02-24T08:53:29Z</time>
      </trkpt>
      <trkpt lat="46.344" lon="5.53154">
        <ele>491</ele>
        <time>2022-02-24T08:53:30Z</time>
      </trkpt>
      <trkpt lat="46.34399" lon="5.53151">
        <ele>491.4</ele>
        <time>2022-02-24T08:53:31Z</time>
      </trkpt>
      <trkpt lat="46.34397" lon="5.53147">
        <ele>491.6</ele>
        <time>2022-02-24T08:53:32Z</time>
      </trkpt>
      <trkpt lat="46.34395" lon="5.53144">
        <ele>491.6</ele>
        <time>2022-02-24T08:53:33Z</time>
      </trkpt>
      <trkpt lat="46.34393" lon="5.53141">
        <ele>492</ele>
        <time>2022-02-24T08:53:34Z</time>
      </trkpt>
      <trkpt lat="46.34391" lon="5.53139">
        <ele>492.2</ele>
        <time>2022-02-24T08:53:35Z</time>
      </trkpt>
      <trkpt lat="46.34388" lon="5.53136">
        <ele>492.4</ele>
        <time>2022-02-24T08:53:36Z</time>
      </trkpt>
      <trkpt lat="46.34386" lon="5.53134">
        <ele>492.4</ele>
        <time>2022-02-24T08:53:37Z</time>
      </trkpt>
      <trkpt lat="46.34384" lon="5.53132">
        <ele>492.8</ele>
        <time>2022-02-24T08:53:38Z</time>
      </trkpt>
      <trkpt lat="46.34381" lon="5.5313">
        <ele>492.8</ele>
        <time>2022-02-24T08:53:39Z</time>
      </trkpt>
      <trkpt lat="46.34378" lon="5.53129">
        <ele>493.2</ele>
        <time>2022-02-24T08:53:40Z</time>
      </trkpt>
      <trkpt lat="46.34375" lon="5.53128">
        <ele>493.4</ele>
        <time>2022-02-24T08:53:41Z</time>
      </trkpt>
      <trkpt lat="46.34373" lon="5.53127">
        <ele>493.4</ele>
        <time>2022-02-24T08:53:42Z</time>
      </trkpt>
      <trkpt lat="46.3437" lon="5.53126">
        <ele>493.8</ele>
        <time>2022-02-24T08:53:43Z</time>
      </trkpt>
      <trkpt lat="46.34367" lon="5.53125">
        <ele>493.8</ele>
        <time>2022-02-24T08:53:44Z</time>
      </trkpt>
      <trkpt lat="46.34365" lon="5.53124">
        <ele>494.2</ele>
        <time>2022-02-24T08:53:45Z</time>
      </trkpt>
      <trkpt lat="46.34362" lon="5.53123">
        <ele>494.2</ele>
        <time>2022-02-24T08:53:46Z</time>
      </trkpt>
      <trkpt lat="46.3436" lon="5.53122">
        <ele>494.6</ele>
        <time>2022-02-24T08:53:47Z</time>
      </trkpt>
      <trkpt lat="46.34357" lon="5.53121">
        <ele>494.6</ele>
        <time>2022-02-24T08:53:48Z</time>
      </trkpt>
      <trkpt lat="46.34354" lon="5.5312">
        <ele>495</ele>
        <time>2022-02-24T08:53:49Z</time>
      </trkpt>
      <trkpt lat="46.34352" lon="5.5312">
        <ele>495</ele>
        <time>2022-02-24T08:53:50Z</time>
      </trkpt>
      <trkpt lat="46.34349" lon="5.5312">
        <ele>495.2</ele>
        <time>2022-02-24T08:53:51Z</time>
      </trkpt>
      <trkpt lat="46.34346" lon="5.5312">
        <ele>495.2</ele>
        <time>2022-02-24T08:53:52Z</time>
      </trkpt>
      <trkpt lat="46.34344" lon="5.53119">
        <ele>495.6</ele>
        <time>2022-02-24T08:53:53Z</time>
      </trkpt>
      <trkpt lat="46.34341" lon="5.53119">
        <ele>495.8</ele>
        <time>2022-02-24T08:53:54Z</time>
      </trkpt>
      <trkpt lat="46.34338" lon="5.53118">
        <ele>496</ele>
        <time>2022-02-24T08:53:55Z</time>
      </trkpt>
      <trkpt lat="46.34336" lon="5.53117">
        <ele>496</ele>
        <time>2022-02-24T08:53:56Z</time>
      </trkpt>
      <trkpt lat="46.34333" lon="5.53116">
        <ele>496.4</ele>
        <time>2022-02-24T08:53:57Z</time>
      </trkpt>
      <trkpt lat="46.3433" lon="5.53116">
        <ele>496.4</ele>
        <time>2022-02-24T08:53:58Z</time>
      </trkpt>
      <trkpt lat="46.34328" lon="5.53115">
        <ele>496.8</ele>
        <time>2022-02-24T08:53:59Z</time>
      </trkpt>
      <trkpt lat="46.34325" lon="5.53114">
        <ele>496.8</ele>
        <time>2022-02-24T08:54:00Z</time>
      </trkpt>
      <trkpt lat="46.34322" lon="5.53113">
        <ele>497.2</ele>
        <time>2022-02-24T08:54:01Z</time>
      </trkpt>
      <trkpt lat="46.3432" lon="5.53112">
        <ele>497.2</ele>
        <time>2022-02-24T08:54:02Z</time>
      </trkpt>
      <trkpt lat="46.34317" lon="5.53111">
        <ele>497.4</ele>
        <time>2022-02-24T08:54:03Z</time>
      </trkpt>
      <trkpt lat="46.34314" lon="5.53109">
        <ele>497.4</ele>
        <time>2022-02-24T08:54:04Z</time>
      </trkpt>
      <trkpt lat="46.34312" lon="5.53107">
        <ele>497.8</ele>
        <time>2022-02-24T08:54:05Z</time>
      </trkpt>
      <trkpt lat="46.3431" lon="5.53104">
        <ele>497.8</ele>
        <time>2022-02-24T08:54:06Z</time>
      </trkpt>
      <trkpt lat="46.34307" lon="5.53102">
        <ele>498.2</ele>
        <time>2022-02-24T08:54:07Z</time>
      </trkpt>
      <trkpt lat="46.34305" lon="5.531">
        <ele>498.4</ele>
        <time>2022-02-24T08:54:08Z</time>
      </trkpt>
      <trkpt lat="46.34303" lon="5.53097">
        <ele>498.6</ele>
        <time>2022-02-24T08:54:09Z</time>
      </trkpt>
      <trkpt lat="46.34301" lon="5.53094">
        <ele>498.6</ele>
        <time>2022-02-24T08:54:10Z</time>
      </trkpt>
      <trkpt lat="46.34299" lon="5.53092">
        <ele>499</ele>
        <time>2022-02-24T08:54:11Z</time>
      </trkpt>
      <trkpt lat="46.34297" lon="5.53089">
        <ele>499</ele>
        <time>2022-02-24T08:54:12Z</time>
      </trkpt>
      <trkpt lat="46.34294" lon="5.53087">
        <ele>499.2</ele>
        <time>2022-02-24T08:54:13Z</time>
      </trkpt>
      <trkpt lat="46.34292" lon="5.53085">
        <ele>499.2</ele>
        <time>2022-02-24T08:54:14Z</time>
      </trkpt>
      <trkpt lat="46.3429" lon="5.53082">
        <ele>499.4</ele>
        <time>2022-02-24T08:54:15Z</time>
      </trkpt>
      <trkpt lat="46.34288" lon="5.5308">
        <ele>499.4</ele>
        <time>2022-02-24T08:54:16Z</time>
      </trkpt>
      <trkpt lat="46.34286" lon="5.53077">
        <ele>499.8</ele>
        <time>2022-02-24T08:54:17Z</time>
      </trkpt>
      <trkpt lat="46.34285" lon="5.53074">
        <ele>499.8</ele>
        <time>2022-02-24T08:54:18Z</time>
      </trkpt>
      <trkpt lat="46.34283" lon="5.53071">
        <ele>500</ele>
        <time>2022-02-24T08:54:19Z</time>
      </trkpt>
      <trkpt lat="46.34281" lon="5.53068">
        <ele>500</ele>
        <time>2022-02-24T08:54:20Z</time>
      </trkpt>
      <trkpt lat="46.3428" lon="5.53064">
        <ele>500.4</ele>
        <time>2022-02-24T08:54:21Z</time>
      </trkpt>
      <trkpt lat="46.34279" lon="5.53061">
        <ele>500.4</ele>
        <time>2022-02-24T08:54:22Z</time>
      </trkpt>
      <trkpt lat="46.34277" lon="5.53058">
        <ele>500.6</ele>
        <time>2022-02-24T08:54:23Z</time>
      </trkpt>
      <trkpt lat="46.34276" lon="5.53055">
        <ele>500.6</ele>
        <time>2022-02-24T08:54:24Z</time>
      </trkpt>
      <trkpt lat="46.34275" lon="5.53051">
        <ele>501</ele>
        <time>2022-02-24T08:54:25Z</time>
      </trkpt>
      <trkpt lat="46.34274" lon="5.53048">
        <ele>501.2</ele>
        <time>2022-02-24T08:54:26Z</time>
      </trkpt>
      <trkpt lat="46.34273" lon="5.53045">
        <ele>501.4</ele>
        <time>2022-02-24T08:54:27Z</time>
      </trkpt>
      <trkpt lat="46.34271" lon="5.53041">
        <ele>501.6</ele>
        <time>2022-02-24T08:54:28Z</time>
      </trkpt>
      <trkpt lat="46.3427" lon="5.53038">
        <ele>501.6</ele>
        <time>2022-02-24T08:54:29Z</time>
      </trkpt>
      <trkpt lat="46.34268" lon="5.53034">
        <ele>502</ele>
        <time>2022-02-24T08:54:30Z</time>
      </trkpt>
      <trkpt lat="46.34267" lon="5.5303">
        <ele>502</ele>
        <time>2022-02-24T08:54:31Z</time>
      </trkpt>
      <trkpt lat="46.34266" lon="5.53027">
        <ele>502.4</ele>
        <time>2022-02-24T08:54:32Z</time>
      </trkpt>
      <trkpt lat="46.34265" lon="5.53023">
        <ele>502.4</ele>
        <time>2022-02-24T08:54:33Z</time>
      </trkpt>
      <trkpt lat="46.34263" lon="5.53019">
        <ele>502.8</ele>
        <time>2022-02-24T08:54:34Z</time>
      </trkpt>
      <trkpt lat="46.34262" lon="5.53016">
        <ele>502.8</ele>
        <time>2022-02-24T08:54:35Z</time>
      </trkpt>
      <trkpt lat="46.34261" lon="5.53012">
        <ele>503.2</ele>
        <time>2022-02-24T08:54:36Z</time>
      </trkpt>
      <trkpt lat="46.3426" lon="5.53008">
        <ele>503.2</ele>
        <time>2022-02-24T08:54:37Z</time>
      </trkpt>
      <trkpt lat="46.34259" lon="5.53005">
        <ele>503.6</ele>
        <time>2022-02-24T08:54:38Z</time>
      </trkpt>
      <trkpt lat="46.34258" lon="5.53001">
        <ele>503.6</ele>
        <time>2022-02-24T08:54:39Z</time>
      </trkpt>
      <trkpt lat="46.34257" lon="5.52997">
        <ele>504</ele>
        <time>2022-02-24T08:54:40Z</time>
      </trkpt>
      <trkpt lat="46.34256" lon="5.52993">
        <ele>504</ele>
        <time>2022-02-24T08:54:41Z</time>
      </trkpt>
      <trkpt lat="46.34255" lon="5.52989">
        <ele>504.2</ele>
        <time>2022-02-24T08:54:42Z</time>
      </trkpt>
      <trkpt lat="46.34254" lon="5.52985">
        <ele>504.4</ele>
        <time>2022-02-24T08:54:43Z</time>
      </trkpt>
      <trkpt lat="46.34254" lon="5.52981">
        <ele>504.4</ele>
        <time>2022-02-24T08:54:44Z</time>
      </trkpt>
      <trkpt lat="46.34253" lon="5.52977">
        <ele>504.8</ele>
        <time>2022-02-24T08:54:45Z</time>
      </trkpt>
      <trkpt lat="46.34252" lon="5.52973">
        <ele>504.8</ele>
        <time>2022-02-24T08:54:46Z</time>
      </trkpt>
      <trkpt lat="46.34252" lon="5.52969">
        <ele>505.2</ele>
        <time>2022-02-24T08:54:47Z</time>
      </trkpt>
      <trkpt lat="46.34252" lon="5.52965">
        <ele>505.2</ele>
        <time>2022-02-24T08:54:48Z</time>
      </trkpt>
      <trkpt lat="46.34251" lon="5.5296">
        <ele>505.4</ele>
        <time>2022-02-24T08:54:49Z</time>
      </trkpt>
      <trkpt lat="46.34251" lon="5.52956">
        <ele>505.6</ele>
        <time>2022-02-24T08:54:50Z</time>
      </trkpt>
      <trkpt lat="46.34251" lon="5.52952">
        <ele>505.8</ele>
        <time>2022-02-24T08:54:51Z</time>
      </trkpt>
      <trkpt lat="46.34251" lon="5.52948">
        <ele>505.8</ele>
        <time>2022-02-24T08:54:52Z</time>
      </trkpt>
      <trkpt lat="46.3425" lon="5.52944">
        <ele>506.2</ele>
        <time>2022-02-24T08:54:53Z</time>
      </trkpt>
      <trkpt lat="46.3425" lon="5.52939">
        <ele>506.4</ele>
        <time>2022-02-24T08:54:54Z</time>
      </trkpt>
      <trkpt lat="46.3425" lon="5.52935">
        <ele>506.8</ele>
        <time>2022-02-24T08:54:55Z</time>
      </trkpt>
      <trkpt lat="46.3425" lon="5.52931">
        <ele>507</ele>
        <time>2022-02-24T08:54:56Z</time>
      </trkpt>
      <trkpt lat="46.3425" lon="5.52926">
        <ele>507.2</ele>
        <time>2022-02-24T08:54:57Z</time>
      </trkpt>
      <trkpt lat="46.34249" lon="5.52922">
        <ele>507.4</ele>
        <time>2022-02-24T08:54:58Z</time>
      </trkpt>
      <trkpt lat="46.34249" lon="5.52918">
        <ele>507.6</ele>
        <time>2022-02-24T08:54:59Z</time>
      </trkpt>
      <trkpt lat="46.34249" lon="5.52914">
        <ele>508</ele>
        <time>2022-02-24T08:55:00Z</time>
      </trkpt>
      <trkpt lat="46.34249" lon="5.5291">
        <ele>508.2</ele>
        <time>2022-02-24T08:55:01Z</time>
      </trkpt>
      <trkpt lat="46.34249" lon="5.52906">
        <ele>508.2</ele>
        <time>2022-02-24T08:55:02Z</time>
      </trkpt>
      <trkpt lat="46.34249" lon="5.52902">
        <ele>508.4</ele>
        <time>2022-02-24T08:55:03Z</time>
      </trkpt>
      <trkpt lat="46.34248" lon="5.52898">
        <ele>508.4</ele>
        <time>2022-02-24T08:55:04Z</time>
      </trkpt>
      <trkpt lat="46.34248" lon="5.52894">
        <ele>508.8</ele>
        <time>2022-02-24T08:55:05Z</time>
      </trkpt>
      <trkpt lat="46.34248" lon="5.5289">
        <ele>508.8</ele>
        <time>2022-02-24T08:55:06Z</time>
      </trkpt>
      <trkpt lat="46.34247" lon="5.52885">
        <ele>508.8</ele>
        <time>2022-02-24T08:55:07Z</time>
      </trkpt>
      <trkpt lat="46.34247" lon="5.52881">
        <ele>509</ele>
        <time>2022-02-24T08:55:08Z</time>
      </trkpt>
      <trkpt lat="46.34247" lon="5.52877">
        <ele>509</ele>
        <time>2022-02-24T08:55:09Z</time>
      </trkpt>
      <trkpt lat="46.34247" lon="5.52873">
        <ele>509.2</ele>
        <time>2022-02-24T08:55:10Z</time>
      </trkpt>
      <trkpt lat="46.34246" lon="5.52869">
        <ele>509.2</ele>
        <time>2022-02-24T08:55:11Z</time>
      </trkpt>
      <trkpt lat="46.34246" lon="5.5286">
        <ele>509.6</ele>
        <time>2022-02-24T08:55:12Z</time>
      </trkpt>
      <trkpt lat="46.34245" lon="5.52856">
        <ele>509.6</ele>
        <time>2022-02-24T08:55:13Z</time>
      </trkpt>
      <trkpt lat="46.34245" lon="5.52852">
        <ele>509.8</ele>
        <time>2022-02-24T08:55:14Z</time>
      </trkpt>
      <trkpt lat="46.34245" lon="5.52847">
        <ele>510</ele>
        <time>2022-02-24T08:55:15Z</time>
      </trkpt>
      <trkpt lat="46.34244" lon="5.52843">
        <ele>510.4</ele>
        <time>2022-02-24T08:55:16Z</time>
      </trkpt>
      <trkpt lat="46.34244" lon="5.52839">
        <ele>510.4</ele>
        <time>2022-02-24T08:55:17Z</time>
      </trkpt>
      <trkpt lat="46.34243" lon="5.52835">
        <ele>510.6</ele>
        <time>2022-02-24T08:55:18Z</time>
      </trkpt>
      <trkpt lat="46.34243" lon="5.52831">
        <ele>511</ele>
        <time>2022-02-24T08:55:19Z</time>
      </trkpt>
      <trkpt lat="46.34242" lon="5.52827">
        <ele>511</ele>
        <time>2022-02-24T08:55:20Z</time>
      </trkpt>
      <trkpt lat="46.34241" lon="5.52824">
        <ele>511.2</ele>
        <time>2022-02-24T08:55:21Z</time>
      </trkpt>
      <trkpt lat="46.3424" lon="5.5282">
        <ele>511.2</ele>
        <time>2022-02-24T08:55:22Z</time>
      </trkpt>
      <trkpt lat="46.3424" lon="5.52816">
        <ele>511.4</ele>
        <time>2022-02-24T08:55:23Z</time>
      </trkpt>
      <trkpt lat="46.3424" lon="5.52813">
        <ele>511.4</ele>
        <time>2022-02-24T08:55:24Z</time>
      </trkpt>
      <trkpt lat="46.34239" lon="5.5281">
        <ele>511.4</ele>
        <time>2022-02-24T08:55:25Z</time>
      </trkpt>
      <trkpt lat="46.34239" lon="5.52809">
        <ele>511.8</ele>
        <time>2022-02-24T08:55:26Z</time>
      </trkpt>
      <trkpt lat="46.34239" lon="5.52808">
        <ele>511.8</ele>
        <time>2022-02-24T08:55:27Z</time>
      </trkpt>
      <trkpt lat="46.34239" lon="5.52803">
        <ele>512.4</ele>
        <time>2022-02-24T08:56:11Z</time>
      </trkpt>
      <trkpt lat="46.3424" lon="5.52801">
        <ele>512.4</ele>
        <time>2022-02-24T08:56:12Z</time>
      </trkpt>
      <trkpt lat="46.3424" lon="5.52798">
        <ele>512.4</ele>
        <time>2022-02-24T08:56:13Z</time>
      </trkpt>
      <trkpt lat="46.3424" lon="5.52795">
        <ele>512.4</ele>
        <time>2022-02-24T08:56:14Z</time>
      </trkpt>
      <trkpt lat="46.3424" lon="5.52792">
        <ele>512.8</ele>
        <time>2022-02-24T08:56:15Z</time>
      </trkpt>
      <trkpt lat="46.3424" lon="5.52788">
        <ele>512.8</ele>
        <time>2022-02-24T08:56:16Z</time>
      </trkpt>
      <trkpt lat="46.3424" lon="5.52785">
        <ele>512.8</ele>
        <time>2022-02-24T08:56:17Z</time>
      </trkpt>
      <trkpt lat="46.3424" lon="5.52781">
        <ele>513</ele>
        <time>2022-02-24T08:56:18Z</time>
      </trkpt>
      <trkpt lat="46.3424" lon="5.52778">
        <ele>513</ele>
        <time>2022-02-24T08:56:19Z</time>
      </trkpt>
      <trkpt lat="46.3424" lon="5.52775">
        <ele>513.2</ele>
        <time>2022-02-24T08:56:20Z</time>
      </trkpt>
      <trkpt lat="46.34239" lon="5.52771">
        <ele>513.2</ele>
        <time>2022-02-24T08:56:21Z</time>
      </trkpt>
      <trkpt lat="46.34239" lon="5.52768">
        <ele>513.6</ele>
        <time>2022-02-24T08:56:22Z</time>
      </trkpt>
      <trkpt lat="46.34239" lon="5.52765">
        <ele>513.8</ele>
        <time>2022-02-24T08:56:23Z</time>
      </trkpt>
      <trkpt lat="46.34238" lon="5.52761">
        <ele>514</ele>
        <time>2022-02-24T08:56:24Z</time>
      </trkpt>
      <trkpt lat="46.34238" lon="5.52758">
        <ele>514</ele>
        <time>2022-02-24T08:56:25Z</time>
      </trkpt>
      <trkpt lat="46.34237" lon="5.52755">
        <ele>514.4</ele>
        <time>2022-02-24T08:56:26Z</time>
      </trkpt>
      <trkpt lat="46.34236" lon="5.52751">
        <ele>514.6</ele>
        <time>2022-02-24T08:56:27Z</time>
      </trkpt>
      <trkpt lat="46.34235" lon="5.52748">
        <ele>514.6</ele>
        <time>2022-02-24T08:56:28Z</time>
      </trkpt>
      <trkpt lat="46.34234" lon="5.52744">
        <ele>514.6</ele>
        <time>2022-02-24T08:56:29Z</time>
      </trkpt>
      <trkpt lat="46.34234" lon="5.52741">
        <ele>514.8</ele>
        <time>2022-02-24T08:56:30Z</time>
      </trkpt>
      <trkpt lat="46.34233" lon="5.52737">
        <ele>514.8</ele>
        <time>2022-02-24T08:56:31Z</time>
      </trkpt>
      <trkpt lat="46.34232" lon="5.52733">
        <ele>514.8</ele>
        <time>2022-02-24T08:56:32Z</time>
      </trkpt>
      <trkpt lat="46.34232" lon="5.52729">
        <ele>515.2</ele>
        <time>2022-02-24T08:56:33Z</time>
      </trkpt>
      <trkpt lat="46.34231" lon="5.52725">
        <ele>515.2</ele>
        <time>2022-02-24T08:56:34Z</time>
      </trkpt>
      <trkpt lat="46.3423" lon="5.52721">
        <ele>515.4</ele>
        <time>2022-02-24T08:56:35Z</time>
      </trkpt>
      <trkpt lat="46.34229" lon="5.52717">
        <ele>515.6</ele>
        <time>2022-02-24T08:56:36Z</time>
      </trkpt>
      <trkpt lat="46.34228" lon="5.52714">
        <ele>515.6</ele>
        <time>2022-02-24T08:56:37Z</time>
      </trkpt>
      <trkpt lat="46.34227" lon="5.5271">
        <ele>515.8</ele>
        <time>2022-02-24T08:56:38Z</time>
      </trkpt>
      <trkpt lat="46.34226" lon="5.52706">
        <ele>515.8</ele>
        <time>2022-02-24T08:56:39Z</time>
      </trkpt>
      <trkpt lat="46.34225" lon="5.52703">
        <ele>516.2</ele>
        <time>2022-02-24T08:56:40Z</time>
      </trkpt>
      <trkpt lat="46.34224" lon="5.52699">
        <ele>516.2</ele>
        <time>2022-02-24T08:56:41Z</time>
      </trkpt>
      <trkpt lat="46.34222" lon="5.52696">
        <ele>516.4</ele>
        <time>2022-02-24T08:56:42Z</time>
      </trkpt>
      <trkpt lat="46.3422" lon="5.52693">
        <ele>516.4</ele>
        <time>2022-02-24T08:56:43Z</time>
      </trkpt>
      <trkpt lat="46.34218" lon="5.5269">
        <ele>516.8</ele>
        <time>2022-02-24T08:56:44Z</time>
      </trkpt>
      <trkpt lat="46.34216" lon="5.52686">
        <ele>516.8</ele>
        <time>2022-02-24T08:56:45Z</time>
      </trkpt>
      <trkpt lat="46.34215" lon="5.52683">
        <ele>517</ele>
        <time>2022-02-24T08:56:46Z</time>
      </trkpt>
      <trkpt lat="46.34213" lon="5.52679">
        <ele>517</ele>
        <time>2022-02-24T08:56:47Z</time>
      </trkpt>
      <trkpt lat="46.34211" lon="5.52676">
        <ele>517.2</ele>
        <time>2022-02-24T08:56:48Z</time>
      </trkpt>
      <trkpt lat="46.34209" lon="5.52672">
        <ele>517.4</ele>
        <time>2022-02-24T08:56:49Z</time>
      </trkpt>
      <trkpt lat="46.34207" lon="5.52669">
        <ele>517.4</ele>
        <time>2022-02-24T08:56:50Z</time>
      </trkpt>
      <trkpt lat="46.34205" lon="5.52666">
        <ele>517.8</ele>
        <time>2022-02-24T08:56:51Z</time>
      </trkpt>
      <trkpt lat="46.34203" lon="5.52663">
        <ele>517.8</ele>
        <time>2022-02-24T08:56:52Z</time>
      </trkpt>
      <trkpt lat="46.342" lon="5.52659">
        <ele>518.2</ele>
        <time>2022-02-24T08:56:53Z</time>
      </trkpt>
      <trkpt lat="46.34198" lon="5.52656">
        <ele>518.2</ele>
        <time>2022-02-24T08:56:54Z</time>
      </trkpt>
      <trkpt lat="46.34195" lon="5.52653">
        <ele>518.2</ele>
        <time>2022-02-24T08:56:55Z</time>
      </trkpt>
      <trkpt lat="46.34193" lon="5.5265">
        <ele>518.4</ele>
        <time>2022-02-24T08:56:56Z</time>
      </trkpt>
      <trkpt lat="46.34191" lon="5.52647">
        <ele>518.4</ele>
        <time>2022-02-24T08:56:57Z</time>
      </trkpt>
      <trkpt lat="46.34188" lon="5.52643">
        <ele>518.4</ele>
        <time>2022-02-24T08:56:58Z</time>
      </trkpt>
      <trkpt lat="46.34186" lon="5.5264">
        <ele>518.6</ele>
        <time>2022-02-24T08:56:59Z</time>
      </trkpt>
      <trkpt lat="46.34184" lon="5.52636">
        <ele>518.6</ele>
        <time>2022-02-24T08:57:00Z</time>
      </trkpt>
      <trkpt lat="46.34181" lon="5.52633">
        <ele>518.6</ele>
        <time>2022-02-24T08:57:01Z</time>
      </trkpt>
      <trkpt lat="46.34178" lon="5.52629">
        <ele>518.8</ele>
        <time>2022-02-24T08:57:02Z</time>
      </trkpt>
      <trkpt lat="46.34176" lon="5.52626">
        <ele>518.8</ele>
        <time>2022-02-24T08:57:03Z</time>
      </trkpt>
      <trkpt lat="46.34174" lon="5.52622">
        <ele>518.8</ele>
        <time>2022-02-24T08:57:04Z</time>
      </trkpt>
      <trkpt lat="46.34172" lon="5.52619">
        <ele>518.8</ele>
        <time>2022-02-24T08:57:05Z</time>
      </trkpt>
      <trkpt lat="46.34169" lon="5.52616">
        <ele>518.8</ele>
        <time>2022-02-24T08:57:06Z</time>
      </trkpt>
      <trkpt lat="46.34167" lon="5.52613">
        <ele>519</ele>
        <time>2022-02-24T08:57:07Z</time>
      </trkpt>
      <trkpt lat="46.34164" lon="5.52609">
        <ele>519</ele>
        <time>2022-02-24T08:57:08Z</time>
      </trkpt>
      <trkpt lat="46.34162" lon="5.52606">
        <ele>519</ele>
        <time>2022-02-24T08:57:09Z</time>
      </trkpt>
      <trkpt lat="46.34159" lon="5.52602">
        <ele>519.2</ele>
        <time>2022-02-24T08:57:10Z</time>
      </trkpt>
      <trkpt lat="46.34156" lon="5.52599">
        <ele>519.6</ele>
        <time>2022-02-24T08:57:11Z</time>
      </trkpt>
      <trkpt lat="46.34154" lon="5.52595">
        <ele>519.6</ele>
        <time>2022-02-24T08:57:12Z</time>
      </trkpt>
      <trkpt lat="46.34151" lon="5.52592">
        <ele>519.8</ele>
        <time>2022-02-24T08:57:13Z</time>
      </trkpt>
      <trkpt lat="46.34149" lon="5.52588">
        <ele>519.8</ele>
        <time>2022-02-24T08:57:14Z</time>
      </trkpt>
      <trkpt lat="46.34147" lon="5.52585">
        <ele>520</ele>
        <time>2022-02-24T08:57:15Z</time>
      </trkpt>
      <trkpt lat="46.34144" lon="5.52581">
        <ele>520</ele>
        <time>2022-02-24T08:57:16Z</time>
      </trkpt>
      <trkpt lat="46.34142" lon="5.52578">
        <ele>520.4</ele>
        <time>2022-02-24T08:57:17Z</time>
      </trkpt>
      <trkpt lat="46.34139" lon="5.52575">
        <ele>520.6</ele>
        <time>2022-02-24T08:57:18Z</time>
      </trkpt>
      <trkpt lat="46.34137" lon="5.52571">
        <ele>520.6</ele>
        <time>2022-02-24T08:57:19Z</time>
      </trkpt>
      <trkpt lat="46.34134" lon="5.52568">
        <ele>520.6</ele>
        <time>2022-02-24T08:57:20Z</time>
      </trkpt>
      <trkpt lat="46.34132" lon="5.52564">
        <ele>520.6</ele>
        <time>2022-02-24T08:57:21Z</time>
      </trkpt>
      <trkpt lat="46.3413" lon="5.5256">
        <ele>520.6</ele>
        <time>2022-02-24T08:57:22Z</time>
      </trkpt>
      <trkpt lat="46.34127" lon="5.52555">
        <ele>520.6</ele>
        <time>2022-02-24T08:57:23Z</time>
      </trkpt>
      <trkpt lat="46.34125" lon="5.52551">
        <ele>520.4</ele>
        <time>2022-02-24T08:57:24Z</time>
      </trkpt>
      <trkpt lat="46.34122" lon="5.52547">
        <ele>520.4</ele>
        <time>2022-02-24T08:57:25Z</time>
      </trkpt>
      <trkpt lat="46.3412" lon="5.52544">
        <ele>520.4</ele>
        <time>2022-02-24T08:57:26Z</time>
      </trkpt>
      <trkpt lat="46.34117" lon="5.5254">
        <ele>520.4</ele>
        <time>2022-02-24T08:57:27Z</time>
      </trkpt>
      <trkpt lat="46.34115" lon="5.52536">
        <ele>520.4</ele>
        <time>2022-02-24T08:57:28Z</time>
      </trkpt>
      <trkpt lat="46.34112" lon="5.52532">
        <ele>520.4</ele>
        <time>2022-02-24T08:57:29Z</time>
      </trkpt>
      <trkpt lat="46.34109" lon="5.52528">
        <ele>520.4</ele>
        <time>2022-02-24T08:57:30Z</time>
      </trkpt>
      <trkpt lat="46.34107" lon="5.52524">
        <ele>520.6</ele>
        <time>2022-02-24T08:57:31Z</time>
      </trkpt>
      <trkpt lat="46.34105" lon="5.5252">
        <ele>520.6</ele>
        <time>2022-02-24T08:57:32Z</time>
      </trkpt>
      <trkpt lat="46.34103" lon="5.52516">
        <ele>520.6</ele>
        <time>2022-02-24T08:57:33Z</time>
      </trkpt>
      <trkpt lat="46.34102" lon="5.52512">
        <ele>521</ele>
        <time>2022-02-24T08:57:34Z</time>
      </trkpt>
      <trkpt lat="46.341" lon="5.52508">
        <ele>521</ele>
        <time>2022-02-24T08:57:35Z</time>
      </trkpt>
      <trkpt lat="46.34098" lon="5.52505">
        <ele>521.2</ele>
        <time>2022-02-24T08:57:36Z</time>
      </trkpt>
      <trkpt lat="46.34095" lon="5.52501">
        <ele>521.2</ele>
        <time>2022-02-24T08:57:37Z</time>
      </trkpt>
      <trkpt lat="46.34093" lon="5.52499">
        <ele>521.6</ele>
        <time>2022-02-24T08:57:38Z</time>
      </trkpt>
      <trkpt lat="46.3409" lon="5.52496">
        <ele>521.6</ele>
        <time>2022-02-24T08:57:39Z</time>
      </trkpt>
      <trkpt lat="46.34087" lon="5.52494">
        <ele>521.6</ele>
        <time>2022-02-24T08:57:40Z</time>
      </trkpt>
      <trkpt lat="46.34085" lon="5.52491">
        <ele>521.8</ele>
        <time>2022-02-24T08:57:41Z</time>
      </trkpt>
      <trkpt lat="46.34082" lon="5.52489">
        <ele>521.8</ele>
        <time>2022-02-24T08:57:42Z</time>
      </trkpt>
      <trkpt lat="46.34079" lon="5.52486">
        <ele>522.2</ele>
        <time>2022-02-24T08:57:43Z</time>
      </trkpt>
      <trkpt lat="46.34077" lon="5.52483">
        <ele>522.2</ele>
        <time>2022-02-24T08:57:44Z</time>
      </trkpt>
      <trkpt lat="46.34074" lon="5.5248">
        <ele>522.4</ele>
        <time>2022-02-24T08:57:45Z</time>
      </trkpt>
      <trkpt lat="46.34072" lon="5.52477">
        <ele>522.4</ele>
        <time>2022-02-24T08:57:46Z</time>
      </trkpt>
      <trkpt lat="46.34069" lon="5.52475">
        <ele>522.8</ele>
        <time>2022-02-24T08:57:47Z</time>
      </trkpt>
      <trkpt lat="46.34067" lon="5.52472">
        <ele>522.8</ele>
        <time>2022-02-24T08:57:48Z</time>
      </trkpt>
      <trkpt lat="46.34064" lon="5.52469">
        <ele>523.2</ele>
        <time>2022-02-24T08:57:49Z</time>
      </trkpt>
      <trkpt lat="46.34062" lon="5.52467">
        <ele>523.2</ele>
        <time>2022-02-24T08:57:50Z</time>
      </trkpt>
      <trkpt lat="46.34059" lon="5.52465">
        <ele>523.4</ele>
        <time>2022-02-24T08:57:51Z</time>
      </trkpt>
      <trkpt lat="46.34056" lon="5.52463">
        <ele>523.8</ele>
        <time>2022-02-24T08:57:52Z</time>
      </trkpt>
      <trkpt lat="46.34053" lon="5.52462">
        <ele>523.8</ele>
        <time>2022-02-24T08:57:53Z</time>
      </trkpt>
      <trkpt lat="46.3405" lon="5.52461">
        <ele>524</ele>
        <time>2022-02-24T08:57:54Z</time>
      </trkpt>
      <trkpt lat="46.34047" lon="5.52461">
        <ele>524</ele>
        <time>2022-02-24T08:57:55Z</time>
      </trkpt>
      <trkpt lat="46.34044" lon="5.5246">
        <ele>524.2</ele>
        <time>2022-02-24T08:57:56Z</time>
      </trkpt>
      <trkpt lat="46.34041" lon="5.52459">
        <ele>524.2</ele>
        <time>2022-02-24T08:57:57Z</time>
      </trkpt>
      <trkpt lat="46.34038" lon="5.52458">
        <ele>524.4</ele>
        <time>2022-02-24T08:57:58Z</time>
      </trkpt>
      <trkpt lat="46.34035" lon="5.52458">
        <ele>524.4</ele>
        <time>2022-02-24T08:57:59Z</time>
      </trkpt>
      <trkpt lat="46.34032" lon="5.52457">
        <ele>524.6</ele>
        <time>2022-02-24T08:58:00Z</time>
      </trkpt>
      <trkpt lat="46.34029" lon="5.52457">
        <ele>524.6</ele>
        <time>2022-02-24T08:58:01Z</time>
      </trkpt>
      <trkpt lat="46.34029" lon="5.52457">
        <ele>524.6</ele>
        <time>2022-02-24T08:58:02Z</time>
      </trkpt>
      <trkpt lat="46.34026" lon="5.52457">
        <ele>525</ele>
        <time>2022-02-24T08:58:03Z</time>
      </trkpt>
      <trkpt lat="46.34024" lon="5.52456">
        <ele>525</ele>
        <time>2022-02-24T08:58:04Z</time>
      </trkpt>
      <trkpt lat="46.34021" lon="5.52455">
        <ele>525.2</ele>
        <time>2022-02-24T08:58:05Z</time>
      </trkpt>
      <trkpt lat="46.34018" lon="5.52454">
        <ele>525.2</ele>
        <time>2022-02-24T08:58:06Z</time>
      </trkpt>
      <trkpt lat="46.34016" lon="5.52453">
        <ele>525.4</ele>
        <time>2022-02-24T08:58:07Z</time>
      </trkpt>
      <trkpt lat="46.34014" lon="5.52451">
        <ele>525.8</ele>
        <time>2022-02-24T08:58:08Z</time>
      </trkpt>
      <trkpt lat="46.34011" lon="5.5245">
        <ele>525.8</ele>
        <time>2022-02-24T08:58:09Z</time>
      </trkpt>
      <trkpt lat="46.34009" lon="5.52449">
        <ele>526</ele>
        <time>2022-02-24T08:58:10Z</time>
      </trkpt>
      <trkpt lat="46.34006" lon="5.52448">
        <ele>526</ele>
        <time>2022-02-24T08:58:11Z</time>
      </trkpt>
      <trkpt lat="46.34003" lon="5.52447">
        <ele>526.2</ele>
        <time>2022-02-24T08:58:12Z</time>
      </trkpt>
      <trkpt lat="46.34001" lon="5.52446">
        <ele>526.2</ele>
        <time>2022-02-24T08:58:13Z</time>
      </trkpt>
      <trkpt lat="46.33998" lon="5.52445">
        <ele>526.6</ele>
        <time>2022-02-24T08:58:14Z</time>
      </trkpt>
      <trkpt lat="46.33996" lon="5.52444">
        <ele>526.6</ele>
        <time>2022-02-24T08:58:15Z</time>
      </trkpt>
      <trkpt lat="46.33993" lon="5.52443">
        <ele>526.6</ele>
        <time>2022-02-24T08:58:16Z</time>
      </trkpt>
      <trkpt lat="46.33991" lon="5.52443">
        <ele>526.8</ele>
        <time>2022-02-24T08:58:17Z</time>
      </trkpt>
      <trkpt lat="46.33989" lon="5.52445">
        <ele>526.8</ele>
        <time>2022-02-24T08:58:18Z</time>
      </trkpt>
      <trkpt lat="46.33987" lon="5.52447">
        <ele>526.8</ele>
        <time>2022-02-24T08:58:19Z</time>
      </trkpt>
      <trkpt lat="46.33985" lon="5.5245">
        <ele>526.8</ele>
        <time>2022-02-24T08:58:20Z</time>
      </trkpt>
      <trkpt lat="46.33984" lon="5.52453">
        <ele>526.4</ele>
        <time>2022-02-24T08:58:21Z</time>
      </trkpt>
      <trkpt lat="46.33982" lon="5.52458">
        <ele>526.4</ele>
        <time>2022-02-24T08:58:22Z</time>
      </trkpt>
      <trkpt lat="46.3398" lon="5.52462">
        <ele>526</ele>
        <time>2022-02-24T08:58:23Z</time>
      </trkpt>
      <trkpt lat="46.33977" lon="5.52467">
        <ele>525.8</ele>
        <time>2022-02-24T08:58:24Z</time>
      </trkpt>
      <trkpt lat="46.33974" lon="5.52473">
        <ele>525.4</ele>
        <time>2022-02-24T08:58:25Z</time>
      </trkpt>
      <trkpt lat="46.33972" lon="5.52478">
        <ele>524.8</ele>
        <time>2022-02-24T08:58:26Z</time>
      </trkpt>
      <trkpt lat="46.33969" lon="5.52483">
        <ele>524.4</ele>
        <time>2022-02-24T08:58:27Z</time>
      </trkpt>
      <trkpt lat="46.33965" lon="5.52488">
        <ele>523.8</ele>
        <time>2022-02-24T08:58:28Z</time>
      </trkpt>
      <trkpt lat="46.33961" lon="5.52494">
        <ele>523</ele>
        <time>2022-02-24T08:58:29Z</time>
      </trkpt>
      <trkpt lat="46.33956" lon="5.525">
        <ele>522.2</ele>
        <time>2022-02-24T08:58:30Z</time>
      </trkpt>
      <trkpt lat="46.3395" lon="5.52506">
        <ele>521.4</ele>
        <time>2022-02-24T08:58:31Z</time>
      </trkpt>
      <trkpt lat="46.33942" lon="5.52511">
        <ele>520.6</ele>
        <time>2022-02-24T08:58:32Z</time>
      </trkpt>
      <trkpt lat="46.33934" lon="5.52517">
        <ele>519.6</ele>
        <time>2022-02-24T08:58:33Z</time>
      </trkpt>
      <trkpt lat="46.33925" lon="5.52522">
        <ele>519</ele>
        <time>2022-02-24T08:58:34Z</time>
      </trkpt>
      <trkpt lat="46.33916" lon="5.52525">
        <ele>518.2</ele>
        <time>2022-02-24T08:58:35Z</time>
      </trkpt>
      <trkpt lat="46.33906" lon="5.52528">
        <ele>517.4</ele>
        <time>2022-02-24T08:58:36Z</time>
      </trkpt>
      <trkpt lat="46.33897" lon="5.5253">
        <ele>516.8</ele>
        <time>2022-02-24T08:58:37Z</time>
      </trkpt>
      <trkpt lat="46.33888" lon="5.52532">
        <ele>515.8</ele>
        <time>2022-02-24T08:58:38Z</time>
      </trkpt>
      <trkpt lat="46.33879" lon="5.52534">
        <ele>515.2</ele>
        <time>2022-02-24T08:58:39Z</time>
      </trkpt>
      <trkpt lat="46.33869" lon="5.52537">
        <ele>514.6</ele>
        <time>2022-02-24T08:58:40Z</time>
      </trkpt>
      <trkpt lat="46.3386" lon="5.52541">
        <ele>513.8</ele>
        <time>2022-02-24T08:58:41Z</time>
      </trkpt>
      <trkpt lat="46.3385" lon="5.52544">
        <ele>513.2</ele>
        <time>2022-02-24T08:58:42Z</time>
      </trkpt>
      <trkpt lat="46.3384" lon="5.52548">
        <ele>512.4</ele>
        <time>2022-02-24T08:58:43Z</time>
      </trkpt>
      <trkpt lat="46.33831" lon="5.52551">
        <ele>511.8</ele>
        <time>2022-02-24T08:58:44Z</time>
      </trkpt>
      <trkpt lat="46.33822" lon="5.52555">
        <ele>511.2</ele>
        <time>2022-02-24T08:58:45Z</time>
      </trkpt>
      <trkpt lat="46.33813" lon="5.52558">
        <ele>510.8</ele>
        <time>2022-02-24T08:58:46Z</time>
      </trkpt>
      <trkpt lat="46.33804" lon="5.52562">
        <ele>510.4</ele>
        <time>2022-02-24T08:58:47Z</time>
      </trkpt>
      <trkpt lat="46.33795" lon="5.52565">
        <ele>510</ele>
        <time>2022-02-24T08:58:48Z</time>
      </trkpt>
      <trkpt lat="46.33786" lon="5.52568">
        <ele>509.8</ele>
        <time>2022-02-24T08:58:49Z</time>
      </trkpt>
      <trkpt lat="46.33778" lon="5.52571">
        <ele>509.8</ele>
        <time>2022-02-24T08:58:50Z</time>
      </trkpt>
      <trkpt lat="46.3377" lon="5.52574">
        <ele>509.4</ele>
        <time>2022-02-24T08:58:51Z</time>
      </trkpt>
      <trkpt lat="46.33762" lon="5.52576">
        <ele>509.4</ele>
        <time>2022-02-24T08:58:52Z</time>
      </trkpt>
      <trkpt lat="46.33754" lon="5.52578">
        <ele>509.4</ele>
        <time>2022-02-24T08:58:53Z</time>
      </trkpt>
      <trkpt lat="46.33746" lon="5.5258">
        <ele>509.2</ele>
        <time>2022-02-24T08:58:54Z</time>
      </trkpt>
      <trkpt lat="46.33739" lon="5.52583">
        <ele>509.2</ele>
        <time>2022-02-24T08:58:55Z</time>
      </trkpt>
      <trkpt lat="46.33731" lon="5.52585">
        <ele>508.8</ele>
        <time>2022-02-24T08:58:56Z</time>
      </trkpt>
      <trkpt lat="46.33723" lon="5.52587">
        <ele>508.4</ele>
        <time>2022-02-24T08:58:57Z</time>
      </trkpt>
      <trkpt lat="46.33715" lon="5.52589">
        <ele>508.2</ele>
        <time>2022-02-24T08:58:58Z</time>
      </trkpt>
      <trkpt lat="46.33707" lon="5.5259">
        <ele>507.8</ele>
        <time>2022-02-24T08:58:59Z</time>
      </trkpt>
      <trkpt lat="46.33698" lon="5.52591">
        <ele>507.6</ele>
        <time>2022-02-24T08:59:00Z</time>
      </trkpt>
      <trkpt lat="46.3369" lon="5.52592">
        <ele>507.2</ele>
        <time>2022-02-24T08:59:01Z</time>
      </trkpt>
      <trkpt lat="46.33682" lon="5.52593">
        <ele>507</ele>
        <time>2022-02-24T08:59:02Z</time>
      </trkpt>
      <trkpt lat="46.33673" lon="5.52593">
        <ele>506.6</ele>
        <time>2022-02-24T08:59:03Z</time>
      </trkpt>
      <trkpt lat="46.33665" lon="5.52592">
        <ele>506.6</ele>
        <time>2022-02-24T08:59:04Z</time>
      </trkpt>
      <trkpt lat="46.33657" lon="5.52592">
        <ele>506.2</ele>
        <time>2022-02-24T08:59:05Z</time>
      </trkpt>
      <trkpt lat="46.33648" lon="5.52591">
        <ele>506.2</ele>
        <time>2022-02-24T08:59:06Z</time>
      </trkpt>
      <trkpt lat="46.3364" lon="5.5259">
        <ele>505.8</ele>
        <time>2022-02-24T08:59:07Z</time>
      </trkpt>
      <trkpt lat="46.33632" lon="5.52589">
        <ele>505.6</ele>
        <time>2022-02-24T08:59:08Z</time>
      </trkpt>
      <trkpt lat="46.33624" lon="5.52589">
        <ele>505.6</ele>
        <time>2022-02-24T08:59:09Z</time>
      </trkpt>
      <trkpt lat="46.33616" lon="5.52588">
        <ele>505.2</ele>
        <time>2022-02-24T08:59:10Z</time>
      </trkpt>
      <trkpt lat="46.33608" lon="5.52589">
        <ele>505.2</ele>
        <time>2022-02-24T08:59:11Z</time>
      </trkpt>
      <trkpt lat="46.336" lon="5.5259">
        <ele>504.8</ele>
        <time>2022-02-24T08:59:12Z</time>
      </trkpt>
      <trkpt lat="46.33593" lon="5.52591">
        <ele>504.6</ele>
        <time>2022-02-24T08:59:13Z</time>
      </trkpt>
      <trkpt lat="46.33585" lon="5.52593">
        <ele>504.4</ele>
        <time>2022-02-24T08:59:14Z</time>
      </trkpt>
      <trkpt lat="46.33576" lon="5.52595">
        <ele>504</ele>
        <time>2022-02-24T08:59:15Z</time>
      </trkpt>
      <trkpt lat="46.33568" lon="5.52597">
        <ele>503.8</ele>
        <time>2022-02-24T08:59:16Z</time>
      </trkpt>
      <trkpt lat="46.33559" lon="5.52598">
        <ele>503.4</ele>
        <time>2022-02-24T08:59:17Z</time>
      </trkpt>
      <trkpt lat="46.33551" lon="5.52599">
        <ele>503</ele>
        <time>2022-02-24T08:59:18Z</time>
      </trkpt>
      <trkpt lat="46.33542" lon="5.526">
        <ele>502.8</ele>
        <time>2022-02-24T08:59:19Z</time>
      </trkpt>
      <trkpt lat="46.33533" lon="5.526">
        <ele>502.8</ele>
        <time>2022-02-24T08:59:20Z</time>
      </trkpt>
      <trkpt lat="46.33525" lon="5.52601">
        <ele>502.4</ele>
        <time>2022-02-24T08:59:21Z</time>
      </trkpt>
      <trkpt lat="46.33516" lon="5.52602">
        <ele>502.2</ele>
        <time>2022-02-24T08:59:22Z</time>
      </trkpt>
      <trkpt lat="46.33508" lon="5.52603">
        <ele>502</ele>
        <time>2022-02-24T08:59:23Z</time>
      </trkpt>
      <trkpt lat="46.335" lon="5.52604">
        <ele>501.6</ele>
        <time>2022-02-24T08:59:24Z</time>
      </trkpt>
      <trkpt lat="46.33492" lon="5.52605">
        <ele>501.6</ele>
        <time>2022-02-24T08:59:25Z</time>
      </trkpt>
      <trkpt lat="46.33484" lon="5.52606">
        <ele>501.2</ele>
        <time>2022-02-24T08:59:26Z</time>
      </trkpt>
      <trkpt lat="46.33475" lon="5.52607">
        <ele>500.8</ele>
        <time>2022-02-24T08:59:27Z</time>
      </trkpt>
      <trkpt lat="46.33467" lon="5.52609">
        <ele>500.2</ele>
        <time>2022-02-24T08:59:28Z</time>
      </trkpt>
      <trkpt lat="46.33458" lon="5.5261">
        <ele>499.6</ele>
        <time>2022-02-24T08:59:29Z</time>
      </trkpt>
      <trkpt lat="46.3345" lon="5.52612">
        <ele>499.2</ele>
        <time>2022-02-24T08:59:30Z</time>
      </trkpt>
      <trkpt lat="46.33441" lon="5.52613">
        <ele>498.6</ele>
        <time>2022-02-24T08:59:31Z</time>
      </trkpt>
      <trkpt lat="46.33431" lon="5.52616">
        <ele>498</ele>
        <time>2022-02-24T08:59:32Z</time>
      </trkpt>
      <trkpt lat="46.33421" lon="5.52619">
        <ele>497.2</ele>
        <time>2022-02-24T08:59:33Z</time>
      </trkpt>
      <trkpt lat="46.33412" lon="5.52621">
        <ele>496.4</ele>
        <time>2022-02-24T08:59:34Z</time>
      </trkpt>
      <trkpt lat="46.33402" lon="5.52623">
        <ele>495.4</ele>
        <time>2022-02-24T08:59:35Z</time>
      </trkpt>
      <trkpt lat="46.33392" lon="5.52626">
        <ele>494.6</ele>
        <time>2022-02-24T08:59:36Z</time>
      </trkpt>
      <trkpt lat="46.33381" lon="5.52628">
        <ele>493.6</ele>
        <time>2022-02-24T08:59:37Z</time>
      </trkpt>
      <trkpt lat="46.3337" lon="5.52631">
        <ele>492.8</ele>
        <time>2022-02-24T08:59:38Z</time>
      </trkpt>
      <trkpt lat="46.3336" lon="5.52635">
        <ele>492.2</ele>
        <time>2022-02-24T08:59:39Z</time>
      </trkpt>
      <trkpt lat="46.33349" lon="5.52639">
        <ele>491.4</ele>
        <time>2022-02-24T08:59:40Z</time>
      </trkpt>
      <trkpt lat="46.33328" lon="5.52647">
        <ele>490.8</ele>
        <time>2022-02-24T08:59:41Z</time>
      </trkpt>
      <trkpt lat="46.33317" lon="5.52651">
        <ele>490</ele>
        <time>2022-02-24T08:59:42Z</time>
      </trkpt>
      <trkpt lat="46.33307" lon="5.52654">
        <ele>489.2</ele>
        <time>2022-02-24T08:59:43Z</time>
      </trkpt>
      <trkpt lat="46.33297" lon="5.52658">
        <ele>488.6</ele>
        <time>2022-02-24T08:59:44Z</time>
      </trkpt>
      <trkpt lat="46.33286" lon="5.52661">
        <ele>488</ele>
        <time>2022-02-24T08:59:45Z</time>
      </trkpt>
      <trkpt lat="46.33286" lon="5.52661">
        <ele>487.2</ele>
        <time>2022-02-24T08:59:46Z</time>
      </trkpt>
      <trkpt lat="46.33276" lon="5.52665">
        <ele>486.8</ele>
        <time>2022-02-24T08:59:47Z</time>
      </trkpt>
      <trkpt lat="46.33265" lon="5.52668">
        <ele>486.2</ele>
        <time>2022-02-24T08:59:48Z</time>
      </trkpt>
      <trkpt lat="46.33255" lon="5.52672">
        <ele>485.6</ele>
        <time>2022-02-24T08:59:49Z</time>
      </trkpt>
      <trkpt lat="46.33245" lon="5.52676">
        <ele>485.2</ele>
        <time>2022-02-24T08:59:50Z</time>
      </trkpt>
      <trkpt lat="46.33236" lon="5.5268">
        <ele>484.8</ele>
        <time>2022-02-24T08:59:51Z</time>
      </trkpt>
      <trkpt lat="46.33226" lon="5.52685">
        <ele>484.4</ele>
        <time>2022-02-24T08:59:52Z</time>
      </trkpt>
      <trkpt lat="46.33216" lon="5.52689">
        <ele>484</ele>
        <time>2022-02-24T08:59:53Z</time>
      </trkpt>
      <trkpt lat="46.33206" lon="5.52692">
        <ele>483.4</ele>
        <time>2022-02-24T08:59:54Z</time>
      </trkpt>
      <trkpt lat="46.33196" lon="5.52695">
        <ele>482.8</ele>
        <time>2022-02-24T08:59:55Z</time>
      </trkpt>
      <trkpt lat="46.33186" lon="5.52697">
        <ele>482.4</ele>
        <time>2022-02-24T08:59:56Z</time>
      </trkpt>
      <trkpt lat="46.33176" lon="5.52698">
        <ele>481.8</ele>
        <time>2022-02-24T08:59:57Z</time>
      </trkpt>
      <trkpt lat="46.33166" lon="5.52701">
        <ele>481.4</ele>
        <time>2022-02-24T08:59:58Z</time>
      </trkpt>
      <trkpt lat="46.33156" lon="5.52702">
        <ele>480.8</ele>
        <time>2022-02-24T08:59:59Z</time>
      </trkpt>
      <trkpt lat="46.33147" lon="5.52704">
        <ele>480.4</ele>
        <time>2022-02-24T09:00:00Z</time>
      </trkpt>
      <trkpt lat="46.33136" lon="5.52706">
        <ele>480</ele>
        <time>2022-02-24T09:00:01Z</time>
      </trkpt>
      <trkpt lat="46.33126" lon="5.52708">
        <ele>479.4</ele>
        <time>2022-02-24T09:00:02Z</time>
      </trkpt>
      <trkpt lat="46.33116" lon="5.5271">
        <ele>479</ele>
        <time>2022-02-24T09:00:03Z</time>
      </trkpt>
      <trkpt lat="46.33106" lon="5.52712">
        <ele>478.4</ele>
        <time>2022-02-24T09:00:04Z</time>
      </trkpt>
      <trkpt lat="46.33095" lon="5.52713">
        <ele>477.8</ele>
        <time>2022-02-24T09:00:05Z</time>
      </trkpt>
      <trkpt lat="46.33085" lon="5.52712">
        <ele>477.4</ele>
        <time>2022-02-24T09:00:06Z</time>
      </trkpt>
      <trkpt lat="46.33075" lon="5.52711">
        <ele>476.8</ele>
        <time>2022-02-24T09:00:07Z</time>
      </trkpt>
      <trkpt lat="46.33065" lon="5.52709">
        <ele>476</ele>
        <time>2022-02-24T09:00:08Z</time>
      </trkpt>
      <trkpt lat="46.33055" lon="5.52706">
        <ele>475.6</ele>
        <time>2022-02-24T09:00:09Z</time>
      </trkpt>
      <trkpt lat="46.33045" lon="5.52702">
        <ele>475</ele>
        <time>2022-02-24T09:00:10Z</time>
      </trkpt>
      <trkpt lat="46.33035" lon="5.52699">
        <ele>474.2</ele>
        <time>2022-02-24T09:00:11Z</time>
      </trkpt>
      <trkpt lat="46.33026" lon="5.52696">
        <ele>473.6</ele>
        <time>2022-02-24T09:00:12Z</time>
      </trkpt>
      <trkpt lat="46.33016" lon="5.52694">
        <ele>473</ele>
        <time>2022-02-24T09:00:13Z</time>
      </trkpt>
      <trkpt lat="46.33007" lon="5.52693">
        <ele>472.4</ele>
        <time>2022-02-24T09:00:14Z</time>
      </trkpt>
      <trkpt lat="46.32997" lon="5.52693">
        <ele>471.8</ele>
        <time>2022-02-24T09:00:15Z</time>
      </trkpt>
      <trkpt lat="46.32986" lon="5.52691">
        <ele>471.2</ele>
        <time>2022-02-24T09:00:16Z</time>
      </trkpt>
      <trkpt lat="46.32975" lon="5.52691">
        <ele>470.6</ele>
        <time>2022-02-24T09:00:17Z</time>
      </trkpt>
      <trkpt lat="46.32965" lon="5.52692">
        <ele>470.2</ele>
        <time>2022-02-24T09:00:18Z</time>
      </trkpt>
      <trkpt lat="46.32955" lon="5.52692">
        <ele>469.8</ele>
        <time>2022-02-24T09:00:19Z</time>
      </trkpt>
      <trkpt lat="46.32945" lon="5.5269">
        <ele>469.2</ele>
        <time>2022-02-24T09:00:20Z</time>
      </trkpt>
      <trkpt lat="46.32936" lon="5.52687">
        <ele>468.8</ele>
        <time>2022-02-24T09:00:21Z</time>
      </trkpt>
      <trkpt lat="46.32926" lon="5.52684">
        <ele>468.4</ele>
        <time>2022-02-24T09:00:22Z</time>
      </trkpt>
      <trkpt lat="46.32916" lon="5.52681">
        <ele>467.8</ele>
        <time>2022-02-24T09:00:23Z</time>
      </trkpt>
      <trkpt lat="46.32906" lon="5.52678">
        <ele>467.4</ele>
        <time>2022-02-24T09:00:24Z</time>
      </trkpt>
      <trkpt lat="46.32897" lon="5.52675">
        <ele>466.8</ele>
        <time>2022-02-24T09:00:25Z</time>
      </trkpt>
      <trkpt lat="46.32887" lon="5.52672">
        <ele>466.4</ele>
        <time>2022-02-24T09:00:26Z</time>
      </trkpt>
      <trkpt lat="46.32877" lon="5.52668">
        <ele>465.8</ele>
        <time>2022-02-24T09:00:27Z</time>
      </trkpt>
      <trkpt lat="46.32868" lon="5.52666">
        <ele>465.4</ele>
        <time>2022-02-24T09:00:28Z</time>
      </trkpt>
      <trkpt lat="46.32858" lon="5.52665">
        <ele>465</ele>
        <time>2022-02-24T09:00:29Z</time>
      </trkpt>
      <trkpt lat="46.32848" lon="5.52663">
        <ele>464.6</ele>
        <time>2022-02-24T09:00:30Z</time>
      </trkpt>
      <trkpt lat="46.32838" lon="5.52662">
        <ele>464.4</ele>
        <time>2022-02-24T09:00:31Z</time>
      </trkpt>
      <trkpt lat="46.32828" lon="5.5266">
        <ele>463.8</ele>
        <time>2022-02-24T09:00:32Z</time>
      </trkpt>
      <trkpt lat="46.32819" lon="5.52661">
        <ele>463.4</ele>
        <time>2022-02-24T09:00:33Z</time>
      </trkpt>
      <trkpt lat="46.32809" lon="5.5266">
        <ele>462.8</ele>
        <time>2022-02-24T09:00:34Z</time>
      </trkpt>
      <trkpt lat="46.32799" lon="5.5266">
        <ele>462.8</ele>
        <time>2022-02-24T09:00:35Z</time>
      </trkpt>
      <trkpt lat="46.32788" lon="5.52659">
        <ele>462.2</ele>
        <time>2022-02-24T09:00:36Z</time>
      </trkpt>
      <trkpt lat="46.32778" lon="5.52657">
        <ele>461.8</ele>
        <time>2022-02-24T09:00:37Z</time>
      </trkpt>
      <trkpt lat="46.32767" lon="5.52654">
        <ele>461.2</ele>
        <time>2022-02-24T09:00:38Z</time>
      </trkpt>
      <trkpt lat="46.32747" lon="5.52647">
        <ele>460.6</ele>
        <time>2022-02-24T09:00:39Z</time>
      </trkpt>
      <trkpt lat="46.32737" lon="5.52643">
        <ele>460.2</ele>
        <time>2022-02-24T09:00:40Z</time>
      </trkpt>
      <trkpt lat="46.32728" lon="5.52637">
        <ele>459.8</ele>
        <time>2022-02-24T09:00:41Z</time>
      </trkpt>
      <trkpt lat="46.32719" lon="5.52633">
        <ele>459.8</ele>
        <time>2022-02-24T09:00:42Z</time>
      </trkpt>
      <trkpt lat="46.3271" lon="5.52629">
        <ele>459.6</ele>
        <time>2022-02-24T09:00:43Z</time>
      </trkpt>
      <trkpt lat="46.32701" lon="5.52625">
        <ele>459.6</ele>
        <time>2022-02-24T09:00:44Z</time>
      </trkpt>
      <trkpt lat="46.32693" lon="5.52622">
        <ele>459.6</ele>
        <time>2022-02-24T09:00:45Z</time>
      </trkpt>
      <trkpt lat="46.32685" lon="5.5262">
        <ele>459.6</ele>
        <time>2022-02-24T09:00:46Z</time>
      </trkpt>
      <trkpt lat="46.32678" lon="5.52618">
        <ele>459.6</ele>
        <time>2022-02-24T09:00:47Z</time>
      </trkpt>
      <trkpt lat="46.32671" lon="5.52616">
        <ele>459.8</ele>
        <time>2022-02-24T09:00:48Z</time>
      </trkpt>
      <trkpt lat="46.32665" lon="5.52616">
        <ele>460.4</ele>
        <time>2022-02-24T09:00:49Z</time>
      </trkpt>
      <trkpt lat="46.32659" lon="5.52615">
        <ele>460.8</ele>
        <time>2022-02-24T09:00:50Z</time>
      </trkpt>
      <trkpt lat="46.32653" lon="5.52615">
        <ele>461.2</ele>
        <time>2022-02-24T09:00:51Z</time>
      </trkpt>
      <trkpt lat="46.32648" lon="5.52614">
        <ele>461.4</ele>
        <time>2022-02-24T09:00:52Z</time>
      </trkpt>
      <trkpt lat="46.32643" lon="5.52613">
        <ele>461.8</ele>
        <time>2022-02-24T09:00:53Z</time>
      </trkpt>
      <trkpt lat="46.32638" lon="5.52613">
        <ele>462.2</ele>
        <time>2022-02-24T09:00:54Z</time>
      </trkpt>
      <trkpt lat="46.32634" lon="5.52613">
        <ele>462.4</ele>
        <time>2022-02-24T09:00:55Z</time>
      </trkpt>
      <trkpt lat="46.32629" lon="5.52614">
        <ele>462.4</ele>
        <time>2022-02-24T09:00:56Z</time>
      </trkpt>
      <trkpt lat="46.32624" lon="5.52616">
        <ele>462.8</ele>
        <time>2022-02-24T09:00:57Z</time>
      </trkpt>
      <trkpt lat="46.32619" lon="5.52618">
        <ele>463</ele>
        <time>2022-02-24T09:00:58Z</time>
      </trkpt>
      <trkpt lat="46.32615" lon="5.52619">
        <ele>463</ele>
        <time>2022-02-24T09:00:59Z</time>
      </trkpt>
      <trkpt lat="46.3261" lon="5.52622">
        <ele>463.4</ele>
        <time>2022-02-24T09:01:00Z</time>
      </trkpt>
      <trkpt lat="46.32606" lon="5.52625">
        <ele>463.4</ele>
        <time>2022-02-24T09:01:01Z</time>
      </trkpt>
      <trkpt lat="46.32601" lon="5.52628">
        <ele>463.8</ele>
        <time>2022-02-24T09:01:02Z</time>
      </trkpt>
      <trkpt lat="46.32597" lon="5.52631">
        <ele>463.8</ele>
        <time>2022-02-24T09:01:03Z</time>
      </trkpt>
      <trkpt lat="46.32594" lon="5.52633">
        <ele>464.2</ele>
        <time>2022-02-24T09:01:04Z</time>
      </trkpt>
      <trkpt lat="46.32592" lon="5.52636">
        <ele>464.6</ele>
        <time>2022-02-24T09:01:05Z</time>
      </trkpt>
      <trkpt lat="46.32591" lon="5.52638">
        <ele>464.6</ele>
        <time>2022-02-24T09:01:06Z</time>
      </trkpt>
      <trkpt lat="46.3259" lon="5.52639">
        <ele>464.8</ele>
        <time>2022-02-24T09:01:07Z</time>
      </trkpt>
      <trkpt lat="46.32584" lon="5.5264">
        <ele>465.6</ele>
        <time>2022-02-24T09:01:51Z</time>
      </trkpt>
      <trkpt lat="46.32582" lon="5.52641">
        <ele>465.6</ele>
        <time>2022-02-24T09:01:52Z</time>
      </trkpt>
      <trkpt lat="46.32581" lon="5.52642">
        <ele>465.6</ele>
        <time>2022-02-24T09:01:53Z</time>
      </trkpt>
      <trkpt lat="46.32579" lon="5.52643">
        <ele>465.8</ele>
        <time>2022-02-24T09:01:54Z</time>
      </trkpt>
      <trkpt lat="46.32578" lon="5.52643">
        <ele>465.8</ele>
        <time>2022-02-24T09:01:55Z</time>
      </trkpt>
      <trkpt lat="46.32576" lon="5.52645">
        <ele>466.2</ele>
        <time>2022-02-24T09:01:56Z</time>
      </trkpt>
      <trkpt lat="46.32574" lon="5.52646">
        <ele>466.2</ele>
        <time>2022-02-24T09:01:57Z</time>
      </trkpt>
      <trkpt lat="46.32573" lon="5.52646">
        <ele>466.4</ele>
        <time>2022-02-24T09:01:58Z</time>
      </trkpt>
      <trkpt lat="46.32571" lon="5.52647">
        <ele>466.4</ele>
        <time>2022-02-24T09:01:59Z</time>
      </trkpt>
      <trkpt lat="46.32569" lon="5.52648">
        <ele>466.8</ele>
        <time>2022-02-24T09:02:00Z</time>
      </trkpt>
      <trkpt lat="46.32566" lon="5.52649">
        <ele>467</ele>
        <time>2022-02-24T09:02:01Z</time>
      </trkpt>
      <trkpt lat="46.32564" lon="5.52649">
        <ele>467</ele>
        <time>2022-02-24T09:02:02Z</time>
      </trkpt>
      <trkpt lat="46.32562" lon="5.52649">
        <ele>467.4</ele>
        <time>2022-02-24T09:02:03Z</time>
      </trkpt>
      <trkpt lat="46.3256" lon="5.5265">
        <ele>467.6</ele>
        <time>2022-02-24T09:02:04Z</time>
      </trkpt>
      <trkpt lat="46.32559" lon="5.5265">
        <ele>467.6</ele>
        <time>2022-02-24T09:02:05Z</time>
      </trkpt>
      <trkpt lat="46.32557" lon="5.52651">
        <ele>468</ele>
        <time>2022-02-24T09:02:06Z</time>
      </trkpt>
      <trkpt lat="46.32556" lon="5.52651">
        <ele>468</ele>
        <time>2022-02-24T09:02:07Z</time>
      </trkpt>
      <trkpt lat="46.32554" lon="5.52651">
        <ele>468.2</ele>
        <time>2022-02-24T09:02:08Z</time>
      </trkpt>
      <trkpt lat="46.32552" lon="5.52652">
        <ele>468.2</ele>
        <time>2022-02-24T09:02:09Z</time>
      </trkpt>
      <trkpt lat="46.3255" lon="5.52652">
        <ele>468.6</ele>
        <time>2022-02-24T09:02:10Z</time>
      </trkpt>
      <trkpt lat="46.32547" lon="5.52652">
        <ele>468.6</ele>
        <time>2022-02-24T09:02:11Z</time>
      </trkpt>
      <trkpt lat="46.32545" lon="5.52652">
        <ele>469</ele>
        <time>2022-02-24T09:02:12Z</time>
      </trkpt>
      <trkpt lat="46.32543" lon="5.52651">
        <ele>469</ele>
        <time>2022-02-24T09:02:13Z</time>
      </trkpt>
      <trkpt lat="46.32541" lon="5.52651">
        <ele>469.2</ele>
        <time>2022-02-24T09:02:14Z</time>
      </trkpt>
      <trkpt lat="46.32538" lon="5.52651">
        <ele>469.2</ele>
        <time>2022-02-24T09:02:15Z</time>
      </trkpt>
      <trkpt lat="46.32536" lon="5.5265">
        <ele>469.6</ele>
        <time>2022-02-24T09:02:16Z</time>
      </trkpt>
      <trkpt lat="46.32533" lon="5.52651">
        <ele>469.6</ele>
        <time>2022-02-24T09:02:17Z</time>
      </trkpt>
      <trkpt lat="46.32531" lon="5.52651">
        <ele>470</ele>
        <time>2022-02-24T09:02:18Z</time>
      </trkpt>
      <trkpt lat="46.32528" lon="5.52651">
        <ele>470</ele>
        <time>2022-02-24T09:02:19Z</time>
      </trkpt>
      <trkpt lat="46.32525" lon="5.5265">
        <ele>470.2</ele>
        <time>2022-02-24T09:02:20Z</time>
      </trkpt>
      <trkpt lat="46.32523" lon="5.5265">
        <ele>470.2</ele>
        <time>2022-02-24T09:02:21Z</time>
      </trkpt>
      <trkpt lat="46.3252" lon="5.5265">
        <ele>470.6</ele>
        <time>2022-02-24T09:02:22Z</time>
      </trkpt>
      <trkpt lat="46.32517" lon="5.52649">
        <ele>470.6</ele>
        <time>2022-02-24T09:02:23Z</time>
      </trkpt>
      <trkpt lat="46.32515" lon="5.52648">
        <ele>471</ele>
        <time>2022-02-24T09:02:24Z</time>
      </trkpt>
      <trkpt lat="46.32512" lon="5.52647">
        <ele>471.2</ele>
        <time>2022-02-24T09:02:25Z</time>
      </trkpt>
      <trkpt lat="46.32509" lon="5.52646">
        <ele>471.4</ele>
        <time>2022-02-24T09:02:26Z</time>
      </trkpt>
      <trkpt lat="46.32506" lon="5.52645">
        <ele>471.8</ele>
        <time>2022-02-24T09:02:27Z</time>
      </trkpt>
      <trkpt lat="46.32504" lon="5.52645">
        <ele>472</ele>
        <time>2022-02-24T09:02:28Z</time>
      </trkpt>
      <trkpt lat="46.32501" lon="5.52644">
        <ele>472.2</ele>
        <time>2022-02-24T09:02:29Z</time>
      </trkpt>
      <trkpt lat="46.32499" lon="5.52643">
        <ele>472.4</ele>
        <time>2022-02-24T09:02:30Z</time>
      </trkpt>
      <trkpt lat="46.32496" lon="5.52643">
        <ele>472.8</ele>
        <time>2022-02-24T09:02:31Z</time>
      </trkpt>
      <trkpt lat="46.32494" lon="5.52642">
        <ele>473</ele>
        <time>2022-02-24T09:02:32Z</time>
      </trkpt>
      <trkpt lat="46.32491" lon="5.52641">
        <ele>473</ele>
        <time>2022-02-24T09:02:33Z</time>
      </trkpt>
      <trkpt lat="46.32488" lon="5.52641">
        <ele>473.4</ele>
        <time>2022-02-24T09:02:34Z</time>
      </trkpt>
      <trkpt lat="46.32486" lon="5.5264">
        <ele>473.4</ele>
        <time>2022-02-24T09:02:35Z</time>
      </trkpt>
      <trkpt lat="46.32484" lon="5.5264">
        <ele>473.6</ele>
        <time>2022-02-24T09:02:36Z</time>
      </trkpt>
      <trkpt lat="46.32484" lon="5.5264">
        <ele>473.6</ele>
        <time>2022-02-24T09:02:37Z</time>
      </trkpt>
      <trkpt lat="46.32483" lon="5.5264">
        <ele>473.6</ele>
        <time>2022-02-24T09:02:38Z</time>
      </trkpt>
      <trkpt lat="46.32479" lon="5.52637">
        <ele>473.8</ele>
        <time>2022-02-24T09:02:55Z</time>
      </trkpt>
      <trkpt lat="46.32478" lon="5.52638">
        <ele>473.8</ele>
        <time>2022-02-24T09:02:56Z</time>
      </trkpt>
      <trkpt lat="46.32476" lon="5.52638">
        <ele>473.8</ele>
        <time>2022-02-24T09:02:57Z</time>
      </trkpt>
      <trkpt lat="46.32475" lon="5.52637">
        <ele>473.8</ele>
        <time>2022-02-24T09:02:58Z</time>
      </trkpt>
      <trkpt lat="46.32474" lon="5.52637">
        <ele>474.2</ele>
        <time>2022-02-24T09:02:59Z</time>
      </trkpt>
      <trkpt lat="46.32473" lon="5.52637">
        <ele>474.2</ele>
        <time>2022-02-24T09:03:00Z</time>
      </trkpt>
      <trkpt lat="46.32471" lon="5.52637">
        <ele>474.2</ele>
        <time>2022-02-24T09:03:01Z</time>
      </trkpt>
      <trkpt lat="46.3247" lon="5.52636">
        <ele>474.6</ele>
        <time>2022-02-24T09:03:02Z</time>
      </trkpt>
      <trkpt lat="46.32469" lon="5.52635">
        <ele>474.6</ele>
        <time>2022-02-24T09:03:03Z</time>
      </trkpt>
      <trkpt lat="46.32468" lon="5.52635">
        <ele>474.6</ele>
        <time>2022-02-24T09:03:04Z</time>
      </trkpt>
      <trkpt lat="46.32467" lon="5.52635">
        <ele>474.6</ele>
        <time>2022-02-24T09:03:05Z</time>
      </trkpt>
      <trkpt lat="46.32464" lon="5.52634">
        <ele>475</ele>
        <time>2022-02-24T09:03:35Z</time>
      </trkpt>
      <trkpt lat="46.32462" lon="5.52634">
        <ele>475</ele>
        <time>2022-02-24T09:03:36Z</time>
      </trkpt>
      <trkpt lat="46.3246" lon="5.52634">
        <ele>475</ele>
        <time>2022-02-24T09:03:37Z</time>
      </trkpt>
      <trkpt lat="46.32459" lon="5.52634">
        <ele>475.2</ele>
        <time>2022-02-24T09:03:38Z</time>
      </trkpt>
      <trkpt lat="46.32457" lon="5.52634">
        <ele>475.2</ele>
        <time>2022-02-24T09:03:39Z</time>
      </trkpt>
      <trkpt lat="46.32455" lon="5.52634">
        <ele>475.4</ele>
        <time>2022-02-24T09:03:40Z</time>
      </trkpt>
      <trkpt lat="46.32452" lon="5.52633">
        <ele>475.4</ele>
        <time>2022-02-24T09:03:41Z</time>
      </trkpt>
      <trkpt lat="46.3245" lon="5.52633">
        <ele>475.8</ele>
        <time>2022-02-24T09:03:42Z</time>
      </trkpt>
      <trkpt lat="46.32447" lon="5.52632">
        <ele>475.8</ele>
        <time>2022-02-24T09:03:43Z</time>
      </trkpt>
      <trkpt lat="46.32445" lon="5.52631">
        <ele>476</ele>
        <time>2022-02-24T09:03:44Z</time>
      </trkpt>
      <trkpt lat="46.32442" lon="5.52629">
        <ele>476</ele>
        <time>2022-02-24T09:03:45Z</time>
      </trkpt>
      <trkpt lat="46.3244" lon="5.52627">
        <ele>476.4</ele>
        <time>2022-02-24T09:03:46Z</time>
      </trkpt>
      <trkpt lat="46.32437" lon="5.52626">
        <ele>476.4</ele>
        <time>2022-02-24T09:03:47Z</time>
      </trkpt>
      <trkpt lat="46.32435" lon="5.52624">
        <ele>476.6</ele>
        <time>2022-02-24T09:03:48Z</time>
      </trkpt>
      <trkpt lat="46.32432" lon="5.52623">
        <ele>476.6</ele>
        <time>2022-02-24T09:03:49Z</time>
      </trkpt>
      <trkpt lat="46.3243" lon="5.52622">
        <ele>476.8</ele>
        <time>2022-02-24T09:03:50Z</time>
      </trkpt>
      <trkpt lat="46.32427" lon="5.52621">
        <ele>476.8</ele>
        <time>2022-02-24T09:03:51Z</time>
      </trkpt>
      <trkpt lat="46.32425" lon="5.5262">
        <ele>477.2</ele>
        <time>2022-02-24T09:03:52Z</time>
      </trkpt>
      <trkpt lat="46.32423" lon="5.52619">
        <ele>477.2</ele>
        <time>2022-02-24T09:03:53Z</time>
      </trkpt>
      <trkpt lat="46.32421" lon="5.52617">
        <ele>477.4</ele>
        <time>2022-02-24T09:03:54Z</time>
      </trkpt>
      <trkpt lat="46.32419" lon="5.52617">
        <ele>477.4</ele>
        <time>2022-02-24T09:03:55Z</time>
      </trkpt>
      <trkpt lat="46.32417" lon="5.52615">
        <ele>477.8</ele>
        <time>2022-02-24T09:03:56Z</time>
      </trkpt>
      <trkpt lat="46.32415" lon="5.52614">
        <ele>477.8</ele>
        <time>2022-02-24T09:03:57Z</time>
      </trkpt>
      <trkpt lat="46.32413" lon="5.52612">
        <ele>478</ele>
        <time>2022-02-24T09:03:58Z</time>
      </trkpt>
      <trkpt lat="46.3241" lon="5.5261">
        <ele>478</ele>
        <time>2022-02-24T09:03:59Z</time>
      </trkpt>
      <trkpt lat="46.32408" lon="5.52607">
        <ele>478.2</ele>
        <time>2022-02-24T09:04:00Z</time>
      </trkpt>
      <trkpt lat="46.32405" lon="5.52605">
        <ele>478.2</ele>
        <time>2022-02-24T09:04:01Z</time>
      </trkpt>
      <trkpt lat="46.32402" lon="5.52602">
        <ele>478.2</ele>
        <time>2022-02-24T09:04:02Z</time>
      </trkpt>
      <trkpt lat="46.324" lon="5.52599">
        <ele>478.2</ele>
        <time>2022-02-24T09:04:03Z</time>
      </trkpt>
      <trkpt lat="46.32397" lon="5.52596">
        <ele>478.2</ele>
        <time>2022-02-24T09:04:04Z</time>
      </trkpt>
      <trkpt lat="46.32394" lon="5.52593">
        <ele>478.4</ele>
        <time>2022-02-24T09:04:05Z</time>
      </trkpt>
      <trkpt lat="46.32391" lon="5.5259">
        <ele>478.4</ele>
        <time>2022-02-24T09:04:06Z</time>
      </trkpt>
      <trkpt lat="46.32389" lon="5.52587">
        <ele>478.4</ele>
        <time>2022-02-24T09:04:07Z</time>
      </trkpt>
      <trkpt lat="46.32385" lon="5.52583">
        <ele>478.8</ele>
        <time>2022-02-24T09:04:08Z</time>
      </trkpt>
      <trkpt lat="46.32382" lon="5.52579">
        <ele>478.8</ele>
        <time>2022-02-24T09:04:09Z</time>
      </trkpt>
      <trkpt lat="46.32379" lon="5.52576">
        <ele>478.8</ele>
        <time>2022-02-24T09:04:10Z</time>
      </trkpt>
      <trkpt lat="46.32376" lon="5.52572">
        <ele>478.8</ele>
        <time>2022-02-24T09:04:11Z</time>
      </trkpt>
      <trkpt lat="46.32373" lon="5.52569">
        <ele>479</ele>
        <time>2022-02-24T09:04:12Z</time>
      </trkpt>
      <trkpt lat="46.3237" lon="5.52566">
        <ele>479</ele>
        <time>2022-02-24T09:04:13Z</time>
      </trkpt>
      <trkpt lat="46.32367" lon="5.52562">
        <ele>479</ele>
        <time>2022-02-24T09:04:14Z</time>
      </trkpt>
      <trkpt lat="46.32363" lon="5.52558">
        <ele>479</ele>
        <time>2022-02-24T09:04:15Z</time>
      </trkpt>
      <trkpt lat="46.32358" lon="5.52554">
        <ele>478.8</ele>
        <time>2022-02-24T09:04:16Z</time>
      </trkpt>
      <trkpt lat="46.32354" lon="5.5255">
        <ele>478.8</ele>
        <time>2022-02-24T09:04:17Z</time>
      </trkpt>
      <trkpt lat="46.32349" lon="5.52547">
        <ele>478.8</ele>
        <time>2022-02-24T09:04:18Z</time>
      </trkpt>
      <trkpt lat="46.32344" lon="5.52544">
        <ele>478.8</ele>
        <time>2022-02-24T09:04:19Z</time>
      </trkpt>
      <trkpt lat="46.32338" lon="5.52541">
        <ele>478.8</ele>
        <time>2022-02-24T09:04:20Z</time>
      </trkpt>
      <trkpt lat="46.32333" lon="5.52539">
        <ele>478.8</ele>
        <time>2022-02-24T09:04:21Z</time>
      </trkpt>
      <trkpt lat="46.32328" lon="5.52537">
        <ele>478.8</ele>
        <time>2022-02-24T09:04:22Z</time>
      </trkpt>
      <trkpt lat="46.32322" lon="5.52536">
        <ele>478.8</ele>
        <time>2022-02-24T09:04:23Z</time>
      </trkpt>
      <trkpt lat="46.32317" lon="5.52535">
        <ele>478.8</ele>
        <time>2022-02-24T09:04:24Z</time>
      </trkpt>
      <trkpt lat="46.32312" lon="5.52535">
        <ele>478.8</ele>
        <time>2022-02-24T09:04:25Z</time>
      </trkpt>
      <trkpt lat="46.32306" lon="5.52534">
        <ele>478.8</ele>
        <time>2022-02-24T09:04:26Z</time>
      </trkpt>
      <trkpt lat="46.32301" lon="5.52533">
        <ele>478.8</ele>
        <time>2022-02-24T09:04:27Z</time>
      </trkpt>
      <trkpt lat="46.32296" lon="5.52532">
        <ele>479</ele>
        <time>2022-02-24T09:04:28Z</time>
      </trkpt>
      <trkpt lat="46.32291" lon="5.52531">
        <ele>479</ele>
        <time>2022-02-24T09:04:29Z</time>
      </trkpt>
      <trkpt lat="46.32287" lon="5.5253">
        <ele>479.2</ele>
        <time>2022-02-24T09:04:30Z</time>
      </trkpt>
      <trkpt lat="46.32282" lon="5.52528">
        <ele>479.2</ele>
        <time>2022-02-24T09:04:31Z</time>
      </trkpt>
      <trkpt lat="46.32277" lon="5.52526">
        <ele>479.2</ele>
        <time>2022-02-24T09:04:32Z</time>
      </trkpt>
      <trkpt lat="46.32273" lon="5.52524">
        <ele>479.2</ele>
        <time>2022-02-24T09:04:33Z</time>
      </trkpt>
      <trkpt lat="46.32269" lon="5.52522">
        <ele>479.6</ele>
        <time>2022-02-24T09:04:34Z</time>
      </trkpt>
      <trkpt lat="46.32265" lon="5.5252">
        <ele>479.6</ele>
        <time>2022-02-24T09:04:35Z</time>
      </trkpt>
      <trkpt lat="46.32261" lon="5.52517">
        <ele>479.6</ele>
        <time>2022-02-24T09:04:36Z</time>
      </trkpt>
      <trkpt lat="46.32256" lon="5.52516">
        <ele>479.6</ele>
        <time>2022-02-24T09:04:37Z</time>
      </trkpt>
      <trkpt lat="46.32252" lon="5.52514">
        <ele>479.2</ele>
        <time>2022-02-24T09:04:38Z</time>
      </trkpt>
      <trkpt lat="46.32247" lon="5.52513">
        <ele>479.2</ele>
        <time>2022-02-24T09:04:39Z</time>
      </trkpt>
      <trkpt lat="46.32242" lon="5.52511">
        <ele>479</ele>
        <time>2022-02-24T09:04:40Z</time>
      </trkpt>
      <trkpt lat="46.32237" lon="5.5251">
        <ele>478.8</ele>
        <time>2022-02-24T09:04:41Z</time>
      </trkpt>
      <trkpt lat="46.32231" lon="5.52508">
        <ele>478.4</ele>
        <time>2022-02-24T09:04:42Z</time>
      </trkpt>
      <trkpt lat="46.32224" lon="5.52507">
        <ele>478</ele>
        <time>2022-02-24T09:04:43Z</time>
      </trkpt>
      <trkpt lat="46.32218" lon="5.52505">
        <ele>477.4</ele>
        <time>2022-02-24T09:04:44Z</time>
      </trkpt>
      <trkpt lat="46.3221" lon="5.52504">
        <ele>477</ele>
        <time>2022-02-24T09:04:45Z</time>
      </trkpt>
      <trkpt lat="46.32204" lon="5.52503">
        <ele>476.6</ele>
        <time>2022-02-24T09:04:46Z</time>
      </trkpt>
      <trkpt lat="46.32198" lon="5.52502">
        <ele>476.2</ele>
        <time>2022-02-24T09:04:47Z</time>
      </trkpt>
      <trkpt lat="46.32195" lon="5.52501">
        <ele>475.8</ele>
        <time>2022-02-24T09:04:48Z</time>
      </trkpt>
      <trkpt lat="46.32193" lon="5.52501">
        <ele>475.4</ele>
        <time>2022-02-24T09:04:49Z</time>
      </trkpt>
      <trkpt lat="46.32192" lon="5.52501">
        <ele>475.2</ele>
        <time>2022-02-24T09:04:50Z</time>
      </trkpt>
      <trkpt lat="46.32188" lon="5.525">
        <ele>474.4</ele>
        <time>2022-02-24T09:05:49Z</time>
      </trkpt>
      <trkpt lat="46.32187" lon="5.52501">
        <ele>474.4</ele>
        <time>2022-02-24T09:05:50Z</time>
      </trkpt>
      <trkpt lat="46.32185" lon="5.52502">
        <ele>474.4</ele>
        <time>2022-02-24T09:05:51Z</time>
      </trkpt>
      <trkpt lat="46.32183" lon="5.52504">
        <ele>474.4</ele>
        <time>2022-02-24T09:05:52Z</time>
      </trkpt>
      <trkpt lat="46.32181" lon="5.52506">
        <ele>474.4</ele>
        <time>2022-02-24T09:05:53Z</time>
      </trkpt>
      <trkpt lat="46.32178" lon="5.52508">
        <ele>474.2</ele>
        <time>2022-02-24T09:05:54Z</time>
      </trkpt>
      <trkpt lat="46.32176" lon="5.52512">
        <ele>474.2</ele>
        <time>2022-02-24T09:05:55Z</time>
      </trkpt>
      <trkpt lat="46.32173" lon="5.52516">
        <ele>474</ele>
        <time>2022-02-24T09:05:56Z</time>
      </trkpt>
      <trkpt lat="46.32171" lon="5.52522">
        <ele>474</ele>
        <time>2022-02-24T09:05:57Z</time>
      </trkpt>
      <trkpt lat="46.32168" lon="5.52528">
        <ele>473.6</ele>
        <time>2022-02-24T09:05:58Z</time>
      </trkpt>
      <trkpt lat="46.32166" lon="5.52535">
        <ele>473.4</ele>
        <time>2022-02-24T09:05:59Z</time>
      </trkpt>
      <trkpt lat="46.32163" lon="5.52542">
        <ele>473</ele>
        <time>2022-02-24T09:06:00Z</time>
      </trkpt>
      <trkpt lat="46.3216" lon="5.5255">
        <ele>472.6</ele>
        <time>2022-02-24T09:06:01Z</time>
      </trkpt>
      <trkpt lat="46.32156" lon="5.52558">
        <ele>472.2</ele>
        <time>2022-02-24T09:06:02Z</time>
      </trkpt>
      <trkpt lat="46.32152" lon="5.52567">
        <ele>471.6</ele>
        <time>2022-02-24T09:06:03Z</time>
      </trkpt>
      <trkpt lat="46.32147" lon="5.52575">
        <ele>471</ele>
        <time>2022-02-24T09:06:04Z</time>
      </trkpt>
      <trkpt lat="46.32141" lon="5.52583">
        <ele>470.4</ele>
        <time>2022-02-24T09:06:05Z</time>
      </trkpt>
      <trkpt lat="46.32134" lon="5.5259">
        <ele>469.8</ele>
        <time>2022-02-24T09:06:06Z</time>
      </trkpt>
      <trkpt lat="46.32127" lon="5.52595">
        <ele>469.4</ele>
        <time>2022-02-24T09:06:07Z</time>
      </trkpt>
      <trkpt lat="46.32119" lon="5.52599">
        <ele>469</ele>
        <time>2022-02-24T09:06:08Z</time>
      </trkpt>
      <trkpt lat="46.32111" lon="5.52603">
        <ele>468.6</ele>
        <time>2022-02-24T09:06:09Z</time>
      </trkpt>
      <trkpt lat="46.32103" lon="5.52605">
        <ele>468.2</ele>
        <time>2022-02-24T09:06:10Z</time>
      </trkpt>
      <trkpt lat="46.32095" lon="5.52606">
        <ele>467.8</ele>
        <time>2022-02-24T09:06:11Z</time>
      </trkpt>
      <trkpt lat="46.32087" lon="5.52608">
        <ele>467.4</ele>
        <time>2022-02-24T09:06:12Z</time>
      </trkpt>
      <trkpt lat="46.32079" lon="5.52609">
        <ele>467.2</ele>
        <time>2022-02-24T09:06:13Z</time>
      </trkpt>
      <trkpt lat="46.32071" lon="5.5261">
        <ele>466.8</ele>
        <time>2022-02-24T09:06:14Z</time>
      </trkpt>
      <trkpt lat="46.32064" lon="5.52611">
        <ele>466.8</ele>
        <time>2022-02-24T09:06:15Z</time>
      </trkpt>
      <trkpt lat="46.32057" lon="5.52612">
        <ele>466.8</ele>
        <time>2022-02-24T09:06:16Z</time>
      </trkpt>
      <trkpt lat="46.3205" lon="5.52612">
        <ele>466.8</ele>
        <time>2022-02-24T09:06:17Z</time>
      </trkpt>
      <trkpt lat="46.32043" lon="5.52612">
        <ele>466.8</ele>
        <time>2022-02-24T09:06:18Z</time>
      </trkpt>
      <trkpt lat="46.32037" lon="5.52613">
        <ele>466.8</ele>
        <time>2022-02-24T09:06:19Z</time>
      </trkpt>
      <trkpt lat="46.32031" lon="5.52613">
        <ele>466.8</ele>
        <time>2022-02-24T09:06:20Z</time>
      </trkpt>
      <trkpt lat="46.32024" lon="5.52613">
        <ele>467</ele>
        <time>2022-02-24T09:06:21Z</time>
      </trkpt>
      <trkpt lat="46.32018" lon="5.52614">
        <ele>467</ele>
        <time>2022-02-24T09:06:22Z</time>
      </trkpt>
      <trkpt lat="46.32012" lon="5.52615">
        <ele>467</ele>
        <time>2022-02-24T09:06:23Z</time>
      </trkpt>
      <trkpt lat="46.32005" lon="5.52615">
        <ele>467</ele>
        <time>2022-02-24T09:06:24Z</time>
      </trkpt>
      <trkpt lat="46.31999" lon="5.52616">
        <ele>467</ele>
        <time>2022-02-24T09:06:25Z</time>
      </trkpt>
      <trkpt lat="46.31993" lon="5.52616">
        <ele>467</ele>
        <time>2022-02-24T09:06:26Z</time>
      </trkpt>
      <trkpt lat="46.31987" lon="5.52616">
        <ele>467</ele>
        <time>2022-02-24T09:06:27Z</time>
      </trkpt>
      <trkpt lat="46.31981" lon="5.52616">
        <ele>467</ele>
        <time>2022-02-24T09:06:28Z</time>
      </trkpt>
      <trkpt lat="46.31975" lon="5.52616">
        <ele>466.8</ele>
        <time>2022-02-24T09:06:29Z</time>
      </trkpt>
      <trkpt lat="46.31969" lon="5.52616">
        <ele>466.8</ele>
        <time>2022-02-24T09:06:30Z</time>
      </trkpt>
      <trkpt lat="46.31963" lon="5.52615">
        <ele>466.8</ele>
        <time>2022-02-24T09:06:31Z</time>
      </trkpt>
      <trkpt lat="46.31957" lon="5.52613">
        <ele>467.2</ele>
        <time>2022-02-24T09:06:32Z</time>
      </trkpt>
      <trkpt lat="46.31952" lon="5.52611">
        <ele>467.2</ele>
        <time>2022-02-24T09:06:33Z</time>
      </trkpt>
      <trkpt lat="46.31947" lon="5.52608">
        <ele>467.2</ele>
        <time>2022-02-24T09:06:34Z</time>
      </trkpt>
      <trkpt lat="46.31942" lon="5.52605">
        <ele>467.4</ele>
        <time>2022-02-24T09:06:35Z</time>
      </trkpt>
      <trkpt lat="46.31936" lon="5.52602">
        <ele>467.4</ele>
        <time>2022-02-24T09:06:36Z</time>
      </trkpt>
      <trkpt lat="46.31931" lon="5.52598">
        <ele>467.4</ele>
        <time>2022-02-24T09:06:37Z</time>
      </trkpt>
      <trkpt lat="46.31926" lon="5.52595">
        <ele>467.4</ele>
        <time>2022-02-24T09:06:38Z</time>
      </trkpt>
      <trkpt lat="46.3192" lon="5.52592">
        <ele>467.4</ele>
        <time>2022-02-24T09:06:39Z</time>
      </trkpt>
      <trkpt lat="46.31916" lon="5.52588">
        <ele>467.4</ele>
        <time>2022-02-24T09:06:40Z</time>
      </trkpt>
      <trkpt lat="46.31911" lon="5.52586">
        <ele>467.4</ele>
        <time>2022-02-24T09:06:41Z</time>
      </trkpt>
      <trkpt lat="46.31906" lon="5.52583">
        <ele>467.6</ele>
        <time>2022-02-24T09:06:42Z</time>
      </trkpt>
      <trkpt lat="46.31902" lon="5.5258">
        <ele>467.6</ele>
        <time>2022-02-24T09:06:43Z</time>
      </trkpt>
      <trkpt lat="46.31897" lon="5.52578">
        <ele>468</ele>
        <time>2022-02-24T09:06:44Z</time>
      </trkpt>
      <trkpt lat="46.31892" lon="5.52575">
        <ele>468</ele>
        <time>2022-02-24T09:06:45Z</time>
      </trkpt>
      <trkpt lat="46.31887" lon="5.52573">
        <ele>468</ele>
        <time>2022-02-24T09:06:46Z</time>
      </trkpt>
      <trkpt lat="46.31882" lon="5.52571">
        <ele>468</ele>
        <time>2022-02-24T09:06:47Z</time>
      </trkpt>
      <trkpt lat="46.31877" lon="5.5257">
        <ele>468</ele>
        <time>2022-02-24T09:06:48Z</time>
      </trkpt>
      <trkpt lat="46.31871" lon="5.52569">
        <ele>468</ele>
        <time>2022-02-24T09:06:49Z</time>
      </trkpt>
      <trkpt lat="46.31866" lon="5.52567">
        <ele>468</ele>
        <time>2022-02-24T09:06:50Z</time>
      </trkpt>
      <trkpt lat="46.3186" lon="5.52566">
        <ele>468</ele>
        <time>2022-02-24T09:06:51Z</time>
      </trkpt>
      <trkpt lat="46.31854" lon="5.52563">
        <ele>467.6</ele>
        <time>2022-02-24T09:06:52Z</time>
      </trkpt>
      <trkpt lat="46.31848" lon="5.5256">
        <ele>467.4</ele>
        <time>2022-02-24T09:06:53Z</time>
      </trkpt>
      <trkpt lat="46.31843" lon="5.52555">
        <ele>467.4</ele>
        <time>2022-02-24T09:06:54Z</time>
      </trkpt>
      <trkpt lat="46.31837" lon="5.5255">
        <ele>467.4</ele>
        <time>2022-02-24T09:06:55Z</time>
      </trkpt>
      <trkpt lat="46.31832" lon="5.52544">
        <ele>467.2</ele>
        <time>2022-02-24T09:06:56Z</time>
      </trkpt>
      <trkpt lat="46.31827" lon="5.52538">
        <ele>467.2</ele>
        <time>2022-02-24T09:06:57Z</time>
      </trkpt>
      <trkpt lat="46.31821" lon="5.52533">
        <ele>466.8</ele>
        <time>2022-02-24T09:06:58Z</time>
      </trkpt>
      <trkpt lat="46.31816" lon="5.52529">
        <ele>466.8</ele>
        <time>2022-02-24T09:06:59Z</time>
      </trkpt>
      <trkpt lat="46.3181" lon="5.52527">
        <ele>466.8</ele>
        <time>2022-02-24T09:07:00Z</time>
      </trkpt>
      <trkpt lat="46.31803" lon="5.52526">
        <ele>466.8</ele>
        <time>2022-02-24T09:07:01Z</time>
      </trkpt>
      <trkpt lat="46.31797" lon="5.52526">
        <ele>466.8</ele>
        <time>2022-02-24T09:07:02Z</time>
      </trkpt>
      <trkpt lat="46.31792" lon="5.52526">
        <ele>466.8</ele>
        <time>2022-02-24T09:07:03Z</time>
      </trkpt>
      <trkpt lat="46.31786" lon="5.52525">
        <ele>466.8</ele>
        <time>2022-02-24T09:07:04Z</time>
      </trkpt>
      <trkpt lat="46.31781" lon="5.52525">
        <ele>467</ele>
        <time>2022-02-24T09:07:05Z</time>
      </trkpt>
      <trkpt lat="46.31776" lon="5.52524">
        <ele>467</ele>
        <time>2022-02-24T09:07:06Z</time>
      </trkpt>
      <trkpt lat="46.31771" lon="5.52524">
        <ele>467.4</ele>
        <time>2022-02-24T09:07:07Z</time>
      </trkpt>
      <trkpt lat="46.31767" lon="5.52523">
        <ele>467.4</ele>
        <time>2022-02-24T09:07:08Z</time>
      </trkpt>
      <trkpt lat="46.31763" lon="5.52522">
        <ele>467.6</ele>
        <time>2022-02-24T09:07:09Z</time>
      </trkpt>
      <trkpt lat="46.31759" lon="5.52521">
        <ele>467.8</ele>
        <time>2022-02-24T09:07:10Z</time>
      </trkpt>
      <trkpt lat="46.31756" lon="5.5252">
        <ele>467.8</ele>
        <time>2022-02-24T09:07:11Z</time>
      </trkpt>
      <trkpt lat="46.31752" lon="5.52519">
        <ele>468.4</ele>
        <time>2022-02-24T09:07:12Z</time>
      </trkpt>
      <trkpt lat="46.31748" lon="5.52518">
        <ele>468.8</ele>
        <time>2022-02-24T09:07:13Z</time>
      </trkpt>
      <trkpt lat="46.31744" lon="5.52518">
        <ele>469</ele>
        <time>2022-02-24T09:07:14Z</time>
      </trkpt>
      <trkpt lat="46.3174" lon="5.52518">
        <ele>469.4</ele>
        <time>2022-02-24T09:07:15Z</time>
      </trkpt>
      <trkpt lat="46.31737" lon="5.52519">
        <ele>469.8</ele>
        <time>2022-02-24T09:07:16Z</time>
      </trkpt>
      <trkpt lat="46.31733" lon="5.5252">
        <ele>470</ele>
        <time>2022-02-24T09:07:17Z</time>
      </trkpt>
      <trkpt lat="46.3173" lon="5.52521">
        <ele>470.4</ele>
        <time>2022-02-24T09:07:18Z</time>
      </trkpt>
      <trkpt lat="46.31726" lon="5.52522">
        <ele>470.6</ele>
        <time>2022-02-24T09:07:19Z</time>
      </trkpt>
      <trkpt lat="46.31723" lon="5.52523">
        <ele>471</ele>
        <time>2022-02-24T09:07:20Z</time>
      </trkpt>
      <trkpt lat="46.31719" lon="5.52524">
        <ele>471.4</ele>
        <time>2022-02-24T09:07:21Z</time>
      </trkpt>
      <trkpt lat="46.31716" lon="5.52524">
        <ele>471.6</ele>
        <time>2022-02-24T09:07:22Z</time>
      </trkpt>
      <trkpt lat="46.31713" lon="5.52524">
        <ele>471.8</ele>
        <time>2022-02-24T09:07:23Z</time>
      </trkpt>
      <trkpt lat="46.31709" lon="5.52524">
        <ele>472</ele>
        <time>2022-02-24T09:07:24Z</time>
      </trkpt>
      <trkpt lat="46.31706" lon="5.52524">
        <ele>472</ele>
        <time>2022-02-24T09:07:25Z</time>
      </trkpt>
      <trkpt lat="46.31702" lon="5.52523">
        <ele>472.4</ele>
        <time>2022-02-24T09:07:26Z</time>
      </trkpt>
      <trkpt lat="46.31699" lon="5.52523">
        <ele>472.4</ele>
        <time>2022-02-24T09:07:27Z</time>
      </trkpt>
      <trkpt lat="46.31696" lon="5.52523">
        <ele>472.8</ele>
        <time>2022-02-24T09:07:28Z</time>
      </trkpt>
      <trkpt lat="46.31693" lon="5.52523">
        <ele>472.8</ele>
        <time>2022-02-24T09:07:29Z</time>
      </trkpt>
      <trkpt lat="46.3169" lon="5.52522">
        <ele>473.2</ele>
        <time>2022-02-24T09:07:30Z</time>
      </trkpt>
      <trkpt lat="46.31686" lon="5.52522">
        <ele>473.6</ele>
        <time>2022-02-24T09:07:31Z</time>
      </trkpt>
      <trkpt lat="46.31683" lon="5.52522">
        <ele>473.8</ele>
        <time>2022-02-24T09:07:32Z</time>
      </trkpt>
      <trkpt lat="46.3168" lon="5.52522">
        <ele>474.2</ele>
        <time>2022-02-24T09:07:33Z</time>
      </trkpt>
      <trkpt lat="46.31677" lon="5.52521">
        <ele>474.4</ele>
        <time>2022-02-24T09:07:34Z</time>
      </trkpt>
      <trkpt lat="46.31674" lon="5.5252">
        <ele>474.4</ele>
        <time>2022-02-24T09:07:35Z</time>
      </trkpt>
      <trkpt lat="46.31671" lon="5.52519">
        <ele>474.8</ele>
        <time>2022-02-24T09:07:36Z</time>
      </trkpt>
      <trkpt lat="46.31669" lon="5.52517">
        <ele>475</ele>
        <time>2022-02-24T09:07:37Z</time>
      </trkpt>
      <trkpt lat="46.31666" lon="5.52515">
        <ele>475.2</ele>
        <time>2022-02-24T09:07:38Z</time>
      </trkpt>
      <trkpt lat="46.31663" lon="5.52513">
        <ele>475.6</ele>
        <time>2022-02-24T09:07:39Z</time>
      </trkpt>
      <trkpt lat="46.31661" lon="5.52511">
        <ele>476</ele>
        <time>2022-02-24T09:07:41Z</time>
      </trkpt>
      <trkpt lat="46.31658" lon="5.5251">
        <ele>476.2</ele>
        <time>2022-02-24T09:07:42Z</time>
      </trkpt>
      <trkpt lat="46.31655" lon="5.52508">
        <ele>476.4</ele>
        <time>2022-02-24T09:07:43Z</time>
      </trkpt>
      <trkpt lat="46.31653" lon="5.52506">
        <ele>476.4</ele>
        <time>2022-02-24T09:07:44Z</time>
      </trkpt>
      <trkpt lat="46.31651" lon="5.52502">
        <ele>476.8</ele>
        <time>2022-02-24T09:07:45Z</time>
      </trkpt>
      <trkpt lat="46.31649" lon="5.52499">
        <ele>477</ele>
        <time>2022-02-24T09:07:46Z</time>
      </trkpt>
      <trkpt lat="46.31646" lon="5.52496">
        <ele>477</ele>
        <time>2022-02-24T09:07:47Z</time>
      </trkpt>
      <trkpt lat="46.31643" lon="5.52493">
        <ele>477.4</ele>
        <time>2022-02-24T09:07:48Z</time>
      </trkpt>
      <trkpt lat="46.31641" lon="5.5249">
        <ele>477.4</ele>
        <time>2022-02-24T09:07:49Z</time>
      </trkpt>
      <trkpt lat="46.31638" lon="5.52488">
        <ele>477.6</ele>
        <time>2022-02-24T09:07:50Z</time>
      </trkpt>
      <trkpt lat="46.31635" lon="5.52485">
        <ele>477.8</ele>
        <time>2022-02-24T09:07:51Z</time>
      </trkpt>
      <trkpt lat="46.31632" lon="5.52483">
        <ele>477.8</ele>
        <time>2022-02-24T09:07:52Z</time>
      </trkpt>
      <trkpt lat="46.31626" lon="5.52479">
        <ele>478.2</ele>
        <time>2022-02-24T09:07:53Z</time>
      </trkpt>
      <trkpt lat="46.31622" lon="5.52477">
        <ele>478.4</ele>
        <time>2022-02-24T09:07:54Z</time>
      </trkpt>
      <trkpt lat="46.31619" lon="5.52475">
        <ele>478.6</ele>
        <time>2022-02-24T09:07:55Z</time>
      </trkpt>
      <trkpt lat="46.31616" lon="5.52473">
        <ele>478.8</ele>
        <time>2022-02-24T09:07:56Z</time>
      </trkpt>
      <trkpt lat="46.31613" lon="5.52471">
        <ele>479.2</ele>
        <time>2022-02-24T09:07:57Z</time>
      </trkpt>
      <trkpt lat="46.3161" lon="5.5247">
        <ele>479.4</ele>
        <time>2022-02-24T09:07:58Z</time>
      </trkpt>
      <trkpt lat="46.31607" lon="5.52469">
        <ele>479.6</ele>
        <time>2022-02-24T09:07:59Z</time>
      </trkpt>
      <trkpt lat="46.31603" lon="5.52468">
        <ele>479.8</ele>
        <time>2022-02-24T09:08:00Z</time>
      </trkpt>
      <trkpt lat="46.316" lon="5.52467">
        <ele>480.2</ele>
        <time>2022-02-24T09:08:01Z</time>
      </trkpt>
      <trkpt lat="46.31597" lon="5.52466">
        <ele>480.2</ele>
        <time>2022-02-24T09:08:02Z</time>
      </trkpt>
      <trkpt lat="46.31594" lon="5.52465">
        <ele>480.4</ele>
        <time>2022-02-24T09:08:03Z</time>
      </trkpt>
      <trkpt lat="46.3159" lon="5.52465">
        <ele>480.4</ele>
        <time>2022-02-24T09:08:04Z</time>
      </trkpt>
      <trkpt lat="46.31587" lon="5.52464">
        <ele>480.6</ele>
        <time>2022-02-24T09:08:05Z</time>
      </trkpt>
      <trkpt lat="46.31584" lon="5.52463">
        <ele>480.6</ele>
        <time>2022-02-24T09:08:06Z</time>
      </trkpt>
      <trkpt lat="46.3158" lon="5.52462">
        <ele>481</ele>
        <time>2022-02-24T09:08:07Z</time>
      </trkpt>
      <trkpt lat="46.31577" lon="5.52462">
        <ele>481</ele>
        <time>2022-02-24T09:08:08Z</time>
      </trkpt>
      <trkpt lat="46.31573" lon="5.52461">
        <ele>481.4</ele>
        <time>2022-02-24T09:08:09Z</time>
      </trkpt>
      <trkpt lat="46.3157" lon="5.5246">
        <ele>481.6</ele>
        <time>2022-02-24T09:08:10Z</time>
      </trkpt>
      <trkpt lat="46.31566" lon="5.5246">
        <ele>481.6</ele>
        <time>2022-02-24T09:08:11Z</time>
      </trkpt>
      <trkpt lat="46.31563" lon="5.52459">
        <ele>482</ele>
        <time>2022-02-24T09:08:12Z</time>
      </trkpt>
      <trkpt lat="46.31559" lon="5.52458">
        <ele>482.2</ele>
        <time>2022-02-24T09:08:13Z</time>
      </trkpt>
      <trkpt lat="46.31556" lon="5.52457">
        <ele>482.6</ele>
        <time>2022-02-24T09:08:14Z</time>
      </trkpt>
      <trkpt lat="46.31552" lon="5.52456">
        <ele>482.8</ele>
        <time>2022-02-24T09:08:15Z</time>
      </trkpt>
      <trkpt lat="46.31549" lon="5.52456">
        <ele>483.2</ele>
        <time>2022-02-24T09:08:16Z</time>
      </trkpt>
      <trkpt lat="46.31546" lon="5.52454">
        <ele>483.6</ele>
        <time>2022-02-24T09:08:17Z</time>
      </trkpt>
      <trkpt lat="46.31543" lon="5.52453">
        <ele>483.8</ele>
        <time>2022-02-24T09:08:18Z</time>
      </trkpt>
      <trkpt lat="46.31539" lon="5.52452">
        <ele>484.2</ele>
        <time>2022-02-24T09:08:19Z</time>
      </trkpt>
      <trkpt lat="46.31536" lon="5.52451">
        <ele>484.4</ele>
        <time>2022-02-24T09:08:20Z</time>
      </trkpt>
      <trkpt lat="46.31533" lon="5.5245">
        <ele>484.6</ele>
        <time>2022-02-24T09:08:21Z</time>
      </trkpt>
      <trkpt lat="46.31529" lon="5.52449">
        <ele>485</ele>
        <time>2022-02-24T09:08:22Z</time>
      </trkpt>
      <trkpt lat="46.31526" lon="5.52448">
        <ele>485.2</ele>
        <time>2022-02-24T09:08:23Z</time>
      </trkpt>
      <trkpt lat="46.31524" lon="5.52447">
        <ele>485.4</ele>
        <time>2022-02-24T09:08:24Z</time>
      </trkpt>
      <trkpt lat="46.31521" lon="5.52446">
        <ele>485.6</ele>
        <time>2022-02-24T09:08:25Z</time>
      </trkpt>
      <trkpt lat="46.31518" lon="5.52445">
        <ele>485.6</ele>
        <time>2022-02-24T09:08:26Z</time>
      </trkpt>
      <trkpt lat="46.31515" lon="5.52443">
        <ele>485.6</ele>
        <time>2022-02-24T09:08:27Z</time>
      </trkpt>
      <trkpt lat="46.31512" lon="5.52442">
        <ele>486</ele>
        <time>2022-02-24T09:08:28Z</time>
      </trkpt>
      <trkpt lat="46.31512" lon="5.52442">
        <ele>486</ele>
        <time>2022-02-24T09:08:29Z</time>
      </trkpt>
      <trkpt lat="46.31509" lon="5.52441">
        <ele>486.4</ele>
        <time>2022-02-24T09:08:30Z</time>
      </trkpt>
      <trkpt lat="46.31506" lon="5.5244">
        <ele>486.6</ele>
        <time>2022-02-24T09:08:31Z</time>
      </trkpt>
      <trkpt lat="46.31503" lon="5.52438">
        <ele>486.8</ele>
        <time>2022-02-24T09:08:32Z</time>
      </trkpt>
      <trkpt lat="46.315" lon="5.52437">
        <ele>486.8</ele>
        <time>2022-02-24T09:08:33Z</time>
      </trkpt>
      <trkpt lat="46.31497" lon="5.52436">
        <ele>487.2</ele>
        <time>2022-02-24T09:08:34Z</time>
      </trkpt>
      <trkpt lat="46.31494" lon="5.52435">
        <ele>487.2</ele>
        <time>2022-02-24T09:08:35Z</time>
      </trkpt>
      <trkpt lat="46.31491" lon="5.52433">
        <ele>487.4</ele>
        <time>2022-02-24T09:08:36Z</time>
      </trkpt>
      <trkpt lat="46.31488" lon="5.52432">
        <ele>487.4</ele>
        <time>2022-02-24T09:08:37Z</time>
      </trkpt>
      <trkpt lat="46.31484" lon="5.52431">
        <ele>487.4</ele>
        <time>2022-02-24T09:08:38Z</time>
      </trkpt>
      <trkpt lat="46.31481" lon="5.52429">
        <ele>487.6</ele>
        <time>2022-02-24T09:08:39Z</time>
      </trkpt>
      <trkpt lat="46.31478" lon="5.52428">
        <ele>487.6</ele>
        <time>2022-02-24T09:08:40Z</time>
      </trkpt>
      <trkpt lat="46.31474" lon="5.52426">
        <ele>487.8</ele>
        <time>2022-02-24T09:08:41Z</time>
      </trkpt>
      <trkpt lat="46.3147" lon="5.52425">
        <ele>487.8</ele>
        <time>2022-02-24T09:08:42Z</time>
      </trkpt>
      <trkpt lat="46.31467" lon="5.52423">
        <ele>487.8</ele>
        <time>2022-02-24T09:08:43Z</time>
      </trkpt>
      <trkpt lat="46.31463" lon="5.52422">
        <ele>487.8</ele>
        <time>2022-02-24T09:08:44Z</time>
      </trkpt>
      <trkpt lat="46.31458" lon="5.5242">
        <ele>487.8</ele>
        <time>2022-02-24T09:08:45Z</time>
      </trkpt>
      <trkpt lat="46.31453" lon="5.52418">
        <ele>487.8</ele>
        <time>2022-02-24T09:08:46Z</time>
      </trkpt>
      <trkpt lat="46.31448" lon="5.52416">
        <ele>487.4</ele>
        <time>2022-02-24T09:08:47Z</time>
      </trkpt>
      <trkpt lat="46.31443" lon="5.52414">
        <ele>487.4</ele>
        <time>2022-02-24T09:08:48Z</time>
      </trkpt>
      <trkpt lat="46.31438" lon="5.52411">
        <ele>487.2</ele>
        <time>2022-02-24T09:08:49Z</time>
      </trkpt>
      <trkpt lat="46.31432" lon="5.52409">
        <ele>487.2</ele>
        <time>2022-02-24T09:08:50Z</time>
      </trkpt>
      <trkpt lat="46.31427" lon="5.52407">
        <ele>487</ele>
        <time>2022-02-24T09:08:51Z</time>
      </trkpt>
      <trkpt lat="46.31421" lon="5.52405">
        <ele>487</ele>
        <time>2022-02-24T09:08:52Z</time>
      </trkpt>
      <trkpt lat="46.31416" lon="5.52402">
        <ele>487</ele>
        <time>2022-02-24T09:08:53Z</time>
      </trkpt>
      <trkpt lat="46.31411" lon="5.524">
        <ele>487</ele>
        <time>2022-02-24T09:08:54Z</time>
      </trkpt>
      <trkpt lat="46.31405" lon="5.52398">
        <ele>487</ele>
        <time>2022-02-24T09:08:55Z</time>
      </trkpt>
      <trkpt lat="46.314" lon="5.52396">
        <ele>486.8</ele>
        <time>2022-02-24T09:08:56Z</time>
      </trkpt>
      <trkpt lat="46.31394" lon="5.52393">
        <ele>486.8</ele>
        <time>2022-02-24T09:08:57Z</time>
      </trkpt>
      <trkpt lat="46.31388" lon="5.52391">
        <ele>486.8</ele>
        <time>2022-02-24T09:08:58Z</time>
      </trkpt>
      <trkpt lat="46.31383" lon="5.52389">
        <ele>486.6</ele>
        <time>2022-02-24T09:08:59Z</time>
      </trkpt>
      <trkpt lat="46.31377" lon="5.52388">
        <ele>486.6</ele>
        <time>2022-02-24T09:09:00Z</time>
      </trkpt>
      <trkpt lat="46.31372" lon="5.52387">
        <ele>486.6</ele>
        <time>2022-02-24T09:09:01Z</time>
      </trkpt>
      <trkpt lat="46.31366" lon="5.52385">
        <ele>486.6</ele>
        <time>2022-02-24T09:09:02Z</time>
      </trkpt>
      <trkpt lat="46.31361" lon="5.52384">
        <ele>486.2</ele>
        <time>2022-02-24T09:09:03Z</time>
      </trkpt>
      <trkpt lat="46.31355" lon="5.52383">
        <ele>486.2</ele>
        <time>2022-02-24T09:09:04Z</time>
      </trkpt>
      <trkpt lat="46.31349" lon="5.52382">
        <ele>486.2</ele>
        <time>2022-02-24T09:09:05Z</time>
      </trkpt>
      <trkpt lat="46.31343" lon="5.52381">
        <ele>486</ele>
        <time>2022-02-24T09:09:06Z</time>
      </trkpt>
      <trkpt lat="46.31337" lon="5.5238">
        <ele>486</ele>
        <time>2022-02-24T09:09:07Z</time>
      </trkpt>
      <trkpt lat="46.31331" lon="5.5238">
        <ele>486</ele>
        <time>2022-02-24T09:09:08Z</time>
      </trkpt>
      <trkpt lat="46.31325" lon="5.52378">
        <ele>486</ele>
        <time>2022-02-24T09:09:09Z</time>
      </trkpt>
      <trkpt lat="46.31319" lon="5.52377">
        <ele>486</ele>
        <time>2022-02-24T09:09:10Z</time>
      </trkpt>
      <trkpt lat="46.31313" lon="5.52376">
        <ele>486</ele>
        <time>2022-02-24T09:09:11Z</time>
      </trkpt>
      <trkpt lat="46.31307" lon="5.52374">
        <ele>486</ele>
        <time>2022-02-24T09:09:12Z</time>
      </trkpt>
      <trkpt lat="46.31302" lon="5.52372">
        <ele>486</ele>
        <time>2022-02-24T09:09:13Z</time>
      </trkpt>
      <trkpt lat="46.31296" lon="5.52369">
        <ele>486</ele>
        <time>2022-02-24T09:09:14Z</time>
      </trkpt>
      <trkpt lat="46.31291" lon="5.52366">
        <ele>486</ele>
        <time>2022-02-24T09:09:15Z</time>
      </trkpt>
      <trkpt lat="46.31286" lon="5.52363">
        <ele>486</ele>
        <time>2022-02-24T09:09:16Z</time>
      </trkpt>
      <trkpt lat="46.31281" lon="5.52359">
        <ele>486</ele>
        <time>2022-02-24T09:09:17Z</time>
      </trkpt>
      <trkpt lat="46.31276" lon="5.52355">
        <ele>486</ele>
        <time>2022-02-24T09:09:18Z</time>
      </trkpt>
      <trkpt lat="46.31272" lon="5.52352">
        <ele>486</ele>
        <time>2022-02-24T09:09:19Z</time>
      </trkpt>
      <trkpt lat="46.31268" lon="5.52348">
        <ele>486</ele>
        <time>2022-02-24T09:09:20Z</time>
      </trkpt>
      <trkpt lat="46.31264" lon="5.52344">
        <ele>486.4</ele>
        <time>2022-02-24T09:09:21Z</time>
      </trkpt>
      <trkpt lat="46.3126" lon="5.52341">
        <ele>486.4</ele>
        <time>2022-02-24T09:09:22Z</time>
      </trkpt>
      <trkpt lat="46.31256" lon="5.52338">
        <ele>486.8</ele>
        <time>2022-02-24T09:09:23Z</time>
      </trkpt>
      <trkpt lat="46.31253" lon="5.52334">
        <ele>486.8</ele>
        <time>2022-02-24T09:09:24Z</time>
      </trkpt>
      <trkpt lat="46.31249" lon="5.52331">
        <ele>487</ele>
        <time>2022-02-24T09:09:25Z</time>
      </trkpt>
      <trkpt lat="46.31245" lon="5.52328">
        <ele>487</ele>
        <time>2022-02-24T09:09:26Z</time>
      </trkpt>
      <trkpt lat="46.31241" lon="5.52325">
        <ele>487.2</ele>
        <time>2022-02-24T09:09:27Z</time>
      </trkpt>
      <trkpt lat="46.31237" lon="5.52323">
        <ele>487.2</ele>
        <time>2022-02-24T09:09:28Z</time>
      </trkpt>
      <trkpt lat="46.31233" lon="5.52321">
        <ele>487.6</ele>
        <time>2022-02-24T09:09:29Z</time>
      </trkpt>
      <trkpt lat="46.31228" lon="5.52319">
        <ele>487.6</ele>
        <time>2022-02-24T09:09:30Z</time>
      </trkpt>
      <trkpt lat="46.31224" lon="5.52317">
        <ele>487.8</ele>
        <time>2022-02-24T09:09:31Z</time>
      </trkpt>
      <trkpt lat="46.3122" lon="5.52315">
        <ele>488.2</ele>
        <time>2022-02-24T09:09:32Z</time>
      </trkpt>
      <trkpt lat="46.31212" lon="5.52312">
        <ele>488.4</ele>
        <time>2022-02-24T09:09:33Z</time>
      </trkpt>
      <trkpt lat="46.31207" lon="5.5231">
        <ele>488.4</ele>
        <time>2022-02-24T09:09:34Z</time>
      </trkpt>
      <trkpt lat="46.31203" lon="5.52308">
        <ele>488.4</ele>
        <time>2022-02-24T09:09:35Z</time>
      </trkpt>
      <trkpt lat="46.31199" lon="5.52306">
        <ele>488.4</ele>
        <time>2022-02-24T09:09:36Z</time>
      </trkpt>
      <trkpt lat="46.31194" lon="5.52304">
        <ele>488.6</ele>
        <time>2022-02-24T09:09:37Z</time>
      </trkpt>
      <trkpt lat="46.3119" lon="5.52302">
        <ele>488.6</ele>
        <time>2022-02-24T09:09:38Z</time>
      </trkpt>
      <trkpt lat="46.31185" lon="5.523">
        <ele>488.6</ele>
        <time>2022-02-24T09:09:39Z</time>
      </trkpt>
      <trkpt lat="46.3118" lon="5.52299">
        <ele>488.6</ele>
        <time>2022-02-24T09:09:40Z</time>
      </trkpt>
      <trkpt lat="46.31175" lon="5.52297">
        <ele>488.6</ele>
        <time>2022-02-24T09:09:41Z</time>
      </trkpt>
      <trkpt lat="46.3117" lon="5.52295">
        <ele>488.6</ele>
        <time>2022-02-24T09:09:42Z</time>
      </trkpt>
      <trkpt lat="46.31166" lon="5.52294">
        <ele>488.6</ele>
        <time>2022-02-24T09:09:43Z</time>
      </trkpt>
      <trkpt lat="46.31161" lon="5.52293">
        <ele>488.6</ele>
        <time>2022-02-24T09:09:44Z</time>
      </trkpt>
      <trkpt lat="46.31156" lon="5.52291">
        <ele>488.6</ele>
        <time>2022-02-24T09:09:45Z</time>
      </trkpt>
      <trkpt lat="46.31151" lon="5.52289">
        <ele>488.6</ele>
        <time>2022-02-24T09:09:46Z</time>
      </trkpt>
      <trkpt lat="46.31146" lon="5.52287">
        <ele>488.6</ele>
        <time>2022-02-24T09:09:47Z</time>
      </trkpt>
      <trkpt lat="46.31141" lon="5.52285">
        <ele>488.8</ele>
        <time>2022-02-24T09:09:48Z</time>
      </trkpt>
      <trkpt lat="46.31136" lon="5.52283">
        <ele>488.8</ele>
        <time>2022-02-24T09:09:49Z</time>
      </trkpt>
      <trkpt lat="46.31131" lon="5.52281">
        <ele>489.2</ele>
        <time>2022-02-24T09:09:50Z</time>
      </trkpt>
      <trkpt lat="46.31126" lon="5.52278">
        <ele>489.2</ele>
        <time>2022-02-24T09:09:51Z</time>
      </trkpt>
      <trkpt lat="46.31121" lon="5.52275">
        <ele>489.2</ele>
        <time>2022-02-24T09:09:52Z</time>
      </trkpt>
      <trkpt lat="46.31116" lon="5.52273">
        <ele>489.2</ele>
        <time>2022-02-24T09:09:53Z</time>
      </trkpt>
      <trkpt lat="46.31111" lon="5.5227">
        <ele>489.2</ele>
        <time>2022-02-24T09:09:54Z</time>
      </trkpt>
      <trkpt lat="46.31106" lon="5.52267">
        <ele>489.2</ele>
        <time>2022-02-24T09:09:55Z</time>
      </trkpt>
      <trkpt lat="46.31101" lon="5.52264">
        <ele>489.2</ele>
        <time>2022-02-24T09:09:56Z</time>
      </trkpt>
      <trkpt lat="46.31096" lon="5.52262">
        <ele>489.2</ele>
        <time>2022-02-24T09:09:57Z</time>
      </trkpt>
      <trkpt lat="46.31091" lon="5.52259">
        <ele>489.4</ele>
        <time>2022-02-24T09:09:58Z</time>
      </trkpt>
      <trkpt lat="46.31087" lon="5.52257">
        <ele>489.4</ele>
        <time>2022-02-24T09:09:59Z</time>
      </trkpt>
      <trkpt lat="46.31082" lon="5.52255">
        <ele>489.6</ele>
        <time>2022-02-24T09:10:00Z</time>
      </trkpt>
      <trkpt lat="46.31077" lon="5.52253">
        <ele>489.6</ele>
        <time>2022-02-24T09:10:01Z</time>
      </trkpt>
      <trkpt lat="46.31072" lon="5.52251">
        <ele>489.6</ele>
        <time>2022-02-24T09:10:02Z</time>
      </trkpt>
      <trkpt lat="46.31067" lon="5.52249">
        <ele>489.8</ele>
        <time>2022-02-24T09:10:03Z</time>
      </trkpt>
      <trkpt lat="46.31061" lon="5.52247">
        <ele>489.8</ele>
        <time>2022-02-24T09:10:04Z</time>
      </trkpt>
      <trkpt lat="46.31056" lon="5.52245">
        <ele>490.2</ele>
        <time>2022-02-24T09:10:05Z</time>
      </trkpt>
      <trkpt lat="46.31051" lon="5.52243">
        <ele>490.2</ele>
        <time>2022-02-24T09:10:06Z</time>
      </trkpt>
      <trkpt lat="46.31045" lon="5.52241">
        <ele>490.2</ele>
        <time>2022-02-24T09:10:07Z</time>
      </trkpt>
      <trkpt lat="46.3104" lon="5.52239">
        <ele>490.2</ele>
        <time>2022-02-24T09:10:08Z</time>
      </trkpt>
      <trkpt lat="46.31034" lon="5.52237">
        <ele>490.2</ele>
        <time>2022-02-24T09:10:09Z</time>
      </trkpt>
      <trkpt lat="46.31029" lon="5.52234">
        <ele>490.2</ele>
        <time>2022-02-24T09:10:10Z</time>
      </trkpt>
      <trkpt lat="46.31025" lon="5.52231">
        <ele>490.4</ele>
        <time>2022-02-24T09:10:11Z</time>
      </trkpt>
      <trkpt lat="46.3102" lon="5.52228">
        <ele>490.4</ele>
        <time>2022-02-24T09:10:12Z</time>
      </trkpt>
      <trkpt lat="46.31015" lon="5.52225">
        <ele>490.4</ele>
        <time>2022-02-24T09:10:13Z</time>
      </trkpt>
      <trkpt lat="46.31011" lon="5.52222">
        <ele>490.6</ele>
        <time>2022-02-24T09:10:14Z</time>
      </trkpt>
      <trkpt lat="46.31006" lon="5.5222">
        <ele>490.6</ele>
        <time>2022-02-24T09:10:15Z</time>
      </trkpt>
      <trkpt lat="46.31002" lon="5.52217">
        <ele>490.6</ele>
        <time>2022-02-24T09:10:16Z</time>
      </trkpt>
      <trkpt lat="46.30997" lon="5.52215">
        <ele>490.6</ele>
        <time>2022-02-24T09:10:17Z</time>
      </trkpt>
      <trkpt lat="46.30993" lon="5.52212">
        <ele>490.6</ele>
        <time>2022-02-24T09:10:18Z</time>
      </trkpt>
      <trkpt lat="46.30989" lon="5.5221">
        <ele>491</ele>
        <time>2022-02-24T09:10:19Z</time>
      </trkpt>
      <trkpt lat="46.30984" lon="5.52208">
        <ele>491</ele>
        <time>2022-02-24T09:10:20Z</time>
      </trkpt>
      <trkpt lat="46.30979" lon="5.52206">
        <ele>491</ele>
        <time>2022-02-24T09:10:21Z</time>
      </trkpt>
      <trkpt lat="46.30974" lon="5.52204">
        <ele>491</ele>
        <time>2022-02-24T09:10:22Z</time>
      </trkpt>
      <trkpt lat="46.3097" lon="5.52203">
        <ele>491</ele>
        <time>2022-02-24T09:10:23Z</time>
      </trkpt>
      <trkpt lat="46.30965" lon="5.52202">
        <ele>491.2</ele>
        <time>2022-02-24T09:10:24Z</time>
      </trkpt>
      <trkpt lat="46.3096" lon="5.52201">
        <ele>491.2</ele>
        <time>2022-02-24T09:10:25Z</time>
      </trkpt>
      <trkpt lat="46.30955" lon="5.52201">
        <ele>491.2</ele>
        <time>2022-02-24T09:10:26Z</time>
      </trkpt>
      <trkpt lat="46.30949" lon="5.52201">
        <ele>491.2</ele>
        <time>2022-02-24T09:10:27Z</time>
      </trkpt>
      <trkpt lat="46.30944" lon="5.52202">
        <ele>491</ele>
        <time>2022-02-24T09:10:28Z</time>
      </trkpt>
      <trkpt lat="46.30938" lon="5.52204">
        <ele>491</ele>
        <time>2022-02-24T09:10:29Z</time>
      </trkpt>
      <trkpt lat="46.30931" lon="5.52206">
        <ele>490.6</ele>
        <time>2022-02-24T09:10:30Z</time>
      </trkpt>
      <trkpt lat="46.30925" lon="5.52208">
        <ele>490.4</ele>
        <time>2022-02-24T09:10:31Z</time>
      </trkpt>
      <trkpt lat="46.30919" lon="5.52211">
        <ele>490.4</ele>
        <time>2022-02-24T09:10:32Z</time>
      </trkpt>
      <trkpt lat="46.30913" lon="5.52214">
        <ele>490.4</ele>
        <time>2022-02-24T09:10:33Z</time>
      </trkpt>
      <trkpt lat="46.30906" lon="5.52216">
        <ele>490.4</ele>
        <time>2022-02-24T09:10:34Z</time>
      </trkpt>
      <trkpt lat="46.309" lon="5.52219">
        <ele>490.4</ele>
        <time>2022-02-24T09:10:35Z</time>
      </trkpt>
      <trkpt lat="46.30894" lon="5.5222">
        <ele>490.4</ele>
        <time>2022-02-24T09:10:36Z</time>
      </trkpt>
      <trkpt lat="46.30885" lon="5.52222">
        <ele>490.4</ele>
        <time>2022-02-24T09:10:37Z</time>
      </trkpt>
      <trkpt lat="46.30883" lon="5.52222">
        <ele>490.4</ele>
        <time>2022-02-24T09:10:38Z</time>
      </trkpt>
      <trkpt lat="46.30883" lon="5.52222">
        <ele>490.4</ele>
        <time>2022-02-24T09:10:39Z</time>
      </trkpt>
      <trkpt lat="46.30877" lon="5.52223">
        <ele>490.4</ele>
        <time>2022-02-24T09:10:40Z</time>
      </trkpt>
      <trkpt lat="46.30866" lon="5.52223">
        <ele>490.4</ele>
        <time>2022-02-24T09:10:41Z</time>
      </trkpt>
      <trkpt lat="46.30861" lon="5.52223">
        <ele>490.4</ele>
        <time>2022-02-24T09:10:42Z</time>
      </trkpt>
      <trkpt lat="46.30856" lon="5.52223">
        <ele>490.4</ele>
        <time>2022-02-24T09:10:43Z</time>
      </trkpt>
      <trkpt lat="46.3085" lon="5.52223">
        <ele>490.6</ele>
        <time>2022-02-24T09:10:44Z</time>
      </trkpt>
      <trkpt lat="46.30845" lon="5.52223">
        <ele>490.6</ele>
        <time>2022-02-24T09:10:45Z</time>
      </trkpt>
      <trkpt lat="46.3084" lon="5.52224">
        <ele>490.6</ele>
        <time>2022-02-24T09:10:46Z</time>
      </trkpt>
      <trkpt lat="46.30835" lon="5.52224">
        <ele>490.6</ele>
        <time>2022-02-24T09:10:47Z</time>
      </trkpt>
      <trkpt lat="46.3083" lon="5.52224">
        <ele>490.6</ele>
        <time>2022-02-24T09:10:48Z</time>
      </trkpt>
      <trkpt lat="46.30825" lon="5.52224">
        <ele>491</ele>
        <time>2022-02-24T09:10:49Z</time>
      </trkpt>
      <trkpt lat="46.30821" lon="5.52224">
        <ele>491</ele>
        <time>2022-02-24T09:10:50Z</time>
      </trkpt>
      <trkpt lat="46.30817" lon="5.52225">
        <ele>491.4</ele>
        <time>2022-02-24T09:10:51Z</time>
      </trkpt>
      <trkpt lat="46.30813" lon="5.52225">
        <ele>491.6</ele>
        <time>2022-02-24T09:10:52Z</time>
      </trkpt>
      <trkpt lat="46.3081" lon="5.52226">
        <ele>491.8</ele>
        <time>2022-02-24T09:10:53Z</time>
      </trkpt>
      <trkpt lat="46.30806" lon="5.52226">
        <ele>492</ele>
        <time>2022-02-24T09:10:54Z</time>
      </trkpt>
      <trkpt lat="46.30803" lon="5.52227">
        <ele>492.4</ele>
        <time>2022-02-24T09:10:55Z</time>
      </trkpt>
      <trkpt lat="46.30799" lon="5.52228">
        <ele>492.6</ele>
        <time>2022-02-24T09:10:56Z</time>
      </trkpt>
      <trkpt lat="46.30796" lon="5.52229">
        <ele>493</ele>
        <time>2022-02-24T09:10:57Z</time>
      </trkpt>
      <trkpt lat="46.30793" lon="5.52231">
        <ele>493.4</ele>
        <time>2022-02-24T09:10:58Z</time>
      </trkpt>
      <trkpt lat="46.3079" lon="5.52232">
        <ele>493.6</ele>
        <time>2022-02-24T09:10:59Z</time>
      </trkpt>
      <trkpt lat="46.30787" lon="5.52233">
        <ele>494</ele>
        <time>2022-02-24T09:11:00Z</time>
      </trkpt>
      <trkpt lat="46.30784" lon="5.52234">
        <ele>494.2</ele>
        <time>2022-02-24T09:11:01Z</time>
      </trkpt>
      <trkpt lat="46.30782" lon="5.52235">
        <ele>494.6</ele>
        <time>2022-02-24T09:11:02Z</time>
      </trkpt>
      <trkpt lat="46.30778" lon="5.52236">
        <ele>495</ele>
        <time>2022-02-24T09:11:03Z</time>
      </trkpt>
      <trkpt lat="46.30776" lon="5.52237">
        <ele>495.2</ele>
        <time>2022-02-24T09:11:04Z</time>
      </trkpt>
      <trkpt lat="46.30773" lon="5.52238">
        <ele>495.6</ele>
        <time>2022-02-24T09:11:05Z</time>
      </trkpt>
      <trkpt lat="46.3077" lon="5.52239">
        <ele>495.8</ele>
        <time>2022-02-24T09:11:06Z</time>
      </trkpt>
      <trkpt lat="46.30767" lon="5.5224">
        <ele>496</ele>
        <time>2022-02-24T09:11:07Z</time>
      </trkpt>
      <trkpt lat="46.30765" lon="5.52242">
        <ele>496.4</ele>
        <time>2022-02-24T09:11:08Z</time>
      </trkpt>
      <trkpt lat="46.30762" lon="5.52243">
        <ele>496.6</ele>
        <time>2022-02-24T09:11:09Z</time>
      </trkpt>
      <trkpt lat="46.30759" lon="5.52244">
        <ele>496.8</ele>
        <time>2022-02-24T09:11:10Z</time>
      </trkpt>
      <trkpt lat="46.30757" lon="5.52245">
        <ele>497.2</ele>
        <time>2022-02-24T09:11:11Z</time>
      </trkpt>
      <trkpt lat="46.30754" lon="5.52246">
        <ele>497.2</ele>
        <time>2022-02-24T09:11:12Z</time>
      </trkpt>
      <trkpt lat="46.30752" lon="5.52247">
        <ele>497.4</ele>
        <time>2022-02-24T09:11:13Z</time>
      </trkpt>
      <trkpt lat="46.30749" lon="5.52248">
        <ele>497.6</ele>
        <time>2022-02-24T09:11:14Z</time>
      </trkpt>
      <trkpt lat="46.30747" lon="5.52249">
        <ele>497.6</ele>
        <time>2022-02-24T09:11:15Z</time>
      </trkpt>
      <trkpt lat="46.30744" lon="5.5225">
        <ele>498</ele>
        <time>2022-02-24T09:11:16Z</time>
      </trkpt>
      <trkpt lat="46.30742" lon="5.52251">
        <ele>498.2</ele>
        <time>2022-02-24T09:11:17Z</time>
      </trkpt>
      <trkpt lat="46.3074" lon="5.52252">
        <ele>498.2</ele>
        <time>2022-02-24T09:11:18Z</time>
      </trkpt>
      <trkpt lat="46.30737" lon="5.52253">
        <ele>498.6</ele>
        <time>2022-02-24T09:11:19Z</time>
      </trkpt>
      <trkpt lat="46.30735" lon="5.52254">
        <ele>498.6</ele>
        <time>2022-02-24T09:11:20Z</time>
      </trkpt>
      <trkpt lat="46.30732" lon="5.52254">
        <ele>498.8</ele>
        <time>2022-02-24T09:11:21Z</time>
      </trkpt>
      <trkpt lat="46.3073" lon="5.52254">
        <ele>499</ele>
        <time>2022-02-24T09:11:22Z</time>
      </trkpt>
      <trkpt lat="46.30727" lon="5.52254">
        <ele>499</ele>
        <time>2022-02-24T09:11:23Z</time>
      </trkpt>
      <trkpt lat="46.30724" lon="5.52254">
        <ele>499</ele>
        <time>2022-02-24T09:11:24Z</time>
      </trkpt>
      <trkpt lat="46.30721" lon="5.52254">
        <ele>499</ele>
        <time>2022-02-24T09:11:25Z</time>
      </trkpt>
      <trkpt lat="46.30718" lon="5.52254">
        <ele>499</ele>
        <time>2022-02-24T09:11:26Z</time>
      </trkpt>
      <trkpt lat="46.30714" lon="5.52253">
        <ele>499</ele>
        <time>2022-02-24T09:11:27Z</time>
      </trkpt>
      <trkpt lat="46.30711" lon="5.52253">
        <ele>499</ele>
        <time>2022-02-24T09:11:28Z</time>
      </trkpt>
      <trkpt lat="46.30707" lon="5.52253">
        <ele>499</ele>
        <time>2022-02-24T09:11:29Z</time>
      </trkpt>
      <trkpt lat="46.30703" lon="5.52252">
        <ele>499</ele>
        <time>2022-02-24T09:11:30Z</time>
      </trkpt>
      <trkpt lat="46.30699" lon="5.52252">
        <ele>498.8</ele>
        <time>2022-02-24T09:11:31Z</time>
      </trkpt>
      <trkpt lat="46.30695" lon="5.52251">
        <ele>498.8</ele>
        <time>2022-02-24T09:11:32Z</time>
      </trkpt>
      <trkpt lat="46.3069" lon="5.5225">
        <ele>498.4</ele>
        <time>2022-02-24T09:11:33Z</time>
      </trkpt>
      <trkpt lat="46.30685" lon="5.52249">
        <ele>498</ele>
        <time>2022-02-24T09:11:34Z</time>
      </trkpt>
      <trkpt lat="46.30679" lon="5.52248">
        <ele>497.6</ele>
        <time>2022-02-24T09:11:35Z</time>
      </trkpt>
      <trkpt lat="46.30673" lon="5.52246">
        <ele>497.2</ele>
        <time>2022-02-24T09:11:36Z</time>
      </trkpt>
      <trkpt lat="46.30665" lon="5.52246">
        <ele>496.6</ele>
        <time>2022-02-24T09:11:37Z</time>
      </trkpt>
      <trkpt lat="46.30658" lon="5.52245">
        <ele>496</ele>
        <time>2022-02-24T09:11:38Z</time>
      </trkpt>
      <trkpt lat="46.3065" lon="5.52245">
        <ele>495.6</ele>
        <time>2022-02-24T09:11:39Z</time>
      </trkpt>
      <trkpt lat="46.30642" lon="5.52245">
        <ele>494.8</ele>
        <time>2022-02-24T09:11:40Z</time>
      </trkpt>
      <trkpt lat="46.30633" lon="5.52245">
        <ele>494</ele>
        <time>2022-02-24T09:11:41Z</time>
      </trkpt>
      <trkpt lat="46.30623" lon="5.52246">
        <ele>493.2</ele>
        <time>2022-02-24T09:11:42Z</time>
      </trkpt>
      <trkpt lat="46.30613" lon="5.52248">
        <ele>492.2</ele>
        <time>2022-02-24T09:11:43Z</time>
      </trkpt>
      <trkpt lat="46.30603" lon="5.5225">
        <ele>491.4</ele>
        <time>2022-02-24T09:11:44Z</time>
      </trkpt>
      <trkpt lat="46.30593" lon="5.52252">
        <ele>490.4</ele>
        <time>2022-02-24T09:11:45Z</time>
      </trkpt>
      <trkpt lat="46.30583" lon="5.52254">
        <ele>489.4</ele>
        <time>2022-02-24T09:11:46Z</time>
      </trkpt>
      <trkpt lat="46.30573" lon="5.52257">
        <ele>488.4</ele>
        <time>2022-02-24T09:11:47Z</time>
      </trkpt>
      <trkpt lat="46.30563" lon="5.5226">
        <ele>487.6</ele>
        <time>2022-02-24T09:11:48Z</time>
      </trkpt>
      <trkpt lat="46.30552" lon="5.52263">
        <ele>486.4</ele>
        <time>2022-02-24T09:11:49Z</time>
      </trkpt>
      <trkpt lat="46.30535" lon="5.5227">
        <ele>485.2</ele>
        <time>2022-02-24T09:11:50Z</time>
      </trkpt>
      <trkpt lat="46.30518" lon="5.52277">
        <ele>484.2</ele>
        <time>2022-02-24T09:11:51Z</time>
      </trkpt>
      <trkpt lat="46.30506" lon="5.52281">
        <ele>482.8</ele>
        <time>2022-02-24T09:11:52Z</time>
      </trkpt>
      <trkpt lat="46.30492" lon="5.52283">
        <ele>481.6</ele>
        <time>2022-02-24T09:11:53Z</time>
      </trkpt>
      <trkpt lat="46.30479" lon="5.52284">
        <ele>480.6</ele>
        <time>2022-02-24T09:11:54Z</time>
      </trkpt>
      <trkpt lat="46.30465" lon="5.52285">
        <ele>479.2</ele>
        <time>2022-02-24T09:11:55Z</time>
      </trkpt>
      <trkpt lat="46.30451" lon="5.52287">
        <ele>477.6</ele>
        <time>2022-02-24T09:11:56Z</time>
      </trkpt>
      <trkpt lat="46.30437" lon="5.5229">
        <ele>476.2</ele>
        <time>2022-02-24T09:11:57Z</time>
      </trkpt>
      <trkpt lat="46.30423" lon="5.5229">
        <ele>474.8</ele>
        <time>2022-02-24T09:11:58Z</time>
      </trkpt>
      <trkpt lat="46.30409" lon="5.52291">
        <ele>473.6</ele>
        <time>2022-02-24T09:11:59Z</time>
      </trkpt>
      <trkpt lat="46.30395" lon="5.52292">
        <ele>472.6</ele>
        <time>2022-02-24T09:12:00Z</time>
      </trkpt>
      <trkpt lat="46.30381" lon="5.52293">
        <ele>471.4</ele>
        <time>2022-02-24T09:12:01Z</time>
      </trkpt>
      <trkpt lat="46.30368" lon="5.52293">
        <ele>470.4</ele>
        <time>2022-02-24T09:12:02Z</time>
      </trkpt>
      <trkpt lat="46.30356" lon="5.52294">
        <ele>469.4</ele>
        <time>2022-02-24T09:12:03Z</time>
      </trkpt>
      <trkpt lat="46.30343" lon="5.52296">
        <ele>468.4</ele>
        <time>2022-02-24T09:12:04Z</time>
      </trkpt>
      <trkpt lat="46.30332" lon="5.52299">
        <ele>467.6</ele>
        <time>2022-02-24T09:12:05Z</time>
      </trkpt>
      <trkpt lat="46.30321" lon="5.52302">
        <ele>466.8</ele>
        <time>2022-02-24T09:12:06Z</time>
      </trkpt>
      <trkpt lat="46.3031" lon="5.52307">
        <ele>465.8</ele>
        <time>2022-02-24T09:12:07Z</time>
      </trkpt>
      <trkpt lat="46.30298" lon="5.52312">
        <ele>464.8</ele>
        <time>2022-02-24T09:12:08Z</time>
      </trkpt>
      <trkpt lat="46.30287" lon="5.52316">
        <ele>463.8</ele>
        <time>2022-02-24T09:12:09Z</time>
      </trkpt>
      <trkpt lat="46.30276" lon="5.52317">
        <ele>463</ele>
        <time>2022-02-24T09:12:10Z</time>
      </trkpt>
      <trkpt lat="46.30265" lon="5.52318">
        <ele>462.6</ele>
        <time>2022-02-24T09:12:11Z</time>
      </trkpt>
      <trkpt lat="46.30254" lon="5.52318">
        <ele>462</ele>
        <time>2022-02-24T09:12:12Z</time>
      </trkpt>
      <trkpt lat="46.30243" lon="5.52317">
        <ele>461.6</ele>
        <time>2022-02-24T09:12:13Z</time>
      </trkpt>
      <trkpt lat="46.30231" lon="5.52315">
        <ele>461.2</ele>
        <time>2022-02-24T09:12:14Z</time>
      </trkpt>
      <trkpt lat="46.3022" lon="5.5231">
        <ele>460.4</ele>
        <time>2022-02-24T09:12:15Z</time>
      </trkpt>
      <trkpt lat="46.30209" lon="5.52303">
        <ele>459.6</ele>
        <time>2022-02-24T09:12:16Z</time>
      </trkpt>
      <trkpt lat="46.30199" lon="5.52294">
        <ele>459</ele>
        <time>2022-02-24T09:12:17Z</time>
      </trkpt>
      <trkpt lat="46.30191" lon="5.52285">
        <ele>458.4</ele>
        <time>2022-02-24T09:12:18Z</time>
      </trkpt>
      <trkpt lat="46.30184" lon="5.52273">
        <ele>458</ele>
        <time>2022-02-24T09:12:19Z</time>
      </trkpt>
      <trkpt lat="46.30178" lon="5.52263">
        <ele>457.8</ele>
        <time>2022-02-24T09:12:20Z</time>
      </trkpt>
      <trkpt lat="46.30171" lon="5.52253">
        <ele>457.8</ele>
        <time>2022-02-24T09:12:21Z</time>
      </trkpt>
      <trkpt lat="46.30171" lon="5.52253">
        <ele>457.8</ele>
        <time>2022-02-24T09:12:22Z</time>
      </trkpt>
      <trkpt lat="46.30165" lon="5.52246">
        <ele>457.8</ele>
        <time>2022-02-24T09:12:23Z</time>
      </trkpt>
      <trkpt lat="46.30158" lon="5.5224">
        <ele>458</ele>
        <time>2022-02-24T09:12:24Z</time>
      </trkpt>
      <trkpt lat="46.30152" lon="5.52236">
        <ele>458.4</ele>
        <time>2022-02-24T09:12:25Z</time>
      </trkpt>
      <trkpt lat="46.30145" lon="5.52233">
        <ele>458.8</ele>
        <time>2022-02-24T09:12:26Z</time>
      </trkpt>
      <trkpt lat="46.30139" lon="5.5223">
        <ele>459.2</ele>
        <time>2022-02-24T09:12:27Z</time>
      </trkpt>
      <trkpt lat="46.30133" lon="5.52229">
        <ele>459.4</ele>
        <time>2022-02-24T09:12:28Z</time>
      </trkpt>
      <trkpt lat="46.30126" lon="5.52227">
        <ele>459.8</ele>
        <time>2022-02-24T09:12:29Z</time>
      </trkpt>
      <trkpt lat="46.3012" lon="5.52227">
        <ele>460</ele>
        <time>2022-02-24T09:12:30Z</time>
      </trkpt>
      <trkpt lat="46.30114" lon="5.52226">
        <ele>460</ele>
        <time>2022-02-24T09:12:31Z</time>
      </trkpt>
      <trkpt lat="46.30108" lon="5.52226">
        <ele>460.4</ele>
        <time>2022-02-24T09:12:32Z</time>
      </trkpt>
      <trkpt lat="46.30102" lon="5.52226">
        <ele>460.4</ele>
        <time>2022-02-24T09:12:33Z</time>
      </trkpt>
      <trkpt lat="46.30095" lon="5.52225">
        <ele>460.4</ele>
        <time>2022-02-24T09:12:34Z</time>
      </trkpt>
      <trkpt lat="46.30089" lon="5.52225">
        <ele>460.6</ele>
        <time>2022-02-24T09:12:35Z</time>
      </trkpt>
      <trkpt lat="46.30083" lon="5.52225">
        <ele>460.6</ele>
        <time>2022-02-24T09:12:36Z</time>
      </trkpt>
      <trkpt lat="46.30077" lon="5.52226">
        <ele>460.6</ele>
        <time>2022-02-24T09:12:37Z</time>
      </trkpt>
      <trkpt lat="46.3007" lon="5.52226">
        <ele>460.6</ele>
        <time>2022-02-24T09:12:38Z</time>
      </trkpt>
      <trkpt lat="46.30064" lon="5.52227">
        <ele>460.6</ele>
        <time>2022-02-24T09:12:39Z</time>
      </trkpt>
      <trkpt lat="46.30058" lon="5.52227">
        <ele>460.4</ele>
        <time>2022-02-24T09:12:40Z</time>
      </trkpt>
      <trkpt lat="46.30051" lon="5.52228">
        <ele>460.4</ele>
        <time>2022-02-24T09:12:41Z</time>
      </trkpt>
      <trkpt lat="46.30045" lon="5.52228">
        <ele>460.4</ele>
        <time>2022-02-24T09:12:42Z</time>
      </trkpt>
      <trkpt lat="46.30038" lon="5.52229">
        <ele>460</ele>
        <time>2022-02-24T09:12:43Z</time>
      </trkpt>
      <trkpt lat="46.30031" lon="5.5223">
        <ele>460</ele>
        <time>2022-02-24T09:12:44Z</time>
      </trkpt>
      <trkpt lat="46.30024" lon="5.5223">
        <ele>460</ele>
        <time>2022-02-24T09:12:45Z</time>
      </trkpt>
      <trkpt lat="46.30018" lon="5.52231">
        <ele>460</ele>
        <time>2022-02-24T09:12:46Z</time>
      </trkpt>
      <trkpt lat="46.30011" lon="5.52232">
        <ele>460</ele>
        <time>2022-02-24T09:12:47Z</time>
      </trkpt>
      <trkpt lat="46.30005" lon="5.52233">
        <ele>460</ele>
        <time>2022-02-24T09:12:48Z</time>
      </trkpt>
      <trkpt lat="46.29998" lon="5.52234">
        <ele>459.8</ele>
        <time>2022-02-24T09:12:49Z</time>
      </trkpt>
      <trkpt lat="46.29992" lon="5.52235">
        <ele>459.8</ele>
        <time>2022-02-24T09:12:50Z</time>
      </trkpt>
      <trkpt lat="46.29982" lon="5.52236">
        <ele>459.8</ele>
        <time>2022-02-24T09:12:51Z</time>
      </trkpt>
      <trkpt lat="46.29979" lon="5.52236">
        <ele>459.8</ele>
        <time>2022-02-24T09:12:52Z</time>
      </trkpt>
      <trkpt lat="46.29972" lon="5.52237">
        <ele>459.8</ele>
        <time>2022-02-24T09:12:53Z</time>
      </trkpt>
      <trkpt lat="46.29966" lon="5.52237">
        <ele>459.6</ele>
        <time>2022-02-24T09:12:54Z</time>
      </trkpt>
      <trkpt lat="46.29959" lon="5.52238">
        <ele>459.6</ele>
        <time>2022-02-24T09:12:55Z</time>
      </trkpt>
      <trkpt lat="46.29952" lon="5.52239">
        <ele>459.2</ele>
        <time>2022-02-24T09:12:56Z</time>
      </trkpt>
      <trkpt lat="46.29946" lon="5.5224">
        <ele>459.2</ele>
        <time>2022-02-24T09:12:57Z</time>
      </trkpt>
      <trkpt lat="46.29939" lon="5.52241">
        <ele>459.2</ele>
        <time>2022-02-24T09:12:58Z</time>
      </trkpt>
      <trkpt lat="46.29932" lon="5.52242">
        <ele>459</ele>
        <time>2022-02-24T09:12:59Z</time>
      </trkpt>
      <trkpt lat="46.29926" lon="5.52243">
        <ele>459</ele>
        <time>2022-02-24T09:13:00Z</time>
      </trkpt>
      <trkpt lat="46.29919" lon="5.52243">
        <ele>459</ele>
        <time>2022-02-24T09:13:01Z</time>
      </trkpt>
      <trkpt lat="46.29913" lon="5.52244">
        <ele>459</ele>
        <time>2022-02-24T09:13:02Z</time>
      </trkpt>
      <trkpt lat="46.29907" lon="5.52244">
        <ele>459</ele>
        <time>2022-02-24T09:13:03Z</time>
      </trkpt>
      <trkpt lat="46.299" lon="5.52245">
        <ele>459</ele>
        <time>2022-02-24T09:13:04Z</time>
      </trkpt>
      <trkpt lat="46.29894" lon="5.52245">
        <ele>459</ele>
        <time>2022-02-24T09:13:05Z</time>
      </trkpt>
      <trkpt lat="46.29888" lon="5.52246">
        <ele>459</ele>
        <time>2022-02-24T09:13:06Z</time>
      </trkpt>
      <trkpt lat="46.29882" lon="5.52246">
        <ele>459</ele>
        <time>2022-02-24T09:13:07Z</time>
      </trkpt>
      <trkpt lat="46.29876" lon="5.52247">
        <ele>459</ele>
        <time>2022-02-24T09:13:08Z</time>
      </trkpt>
      <trkpt lat="46.29871" lon="5.52247">
        <ele>459.2</ele>
        <time>2022-02-24T09:13:09Z</time>
      </trkpt>
      <trkpt lat="46.29865" lon="5.52247">
        <ele>459.2</ele>
        <time>2022-02-24T09:13:10Z</time>
      </trkpt>
      <trkpt lat="46.2986" lon="5.52248">
        <ele>459.6</ele>
        <time>2022-02-24T09:13:11Z</time>
      </trkpt>
      <trkpt lat="46.29854" lon="5.52248">
        <ele>459.6</ele>
        <time>2022-02-24T09:13:12Z</time>
      </trkpt>
      <trkpt lat="46.29849" lon="5.52248">
        <ele>459.6</ele>
        <time>2022-02-24T09:13:13Z</time>
      </trkpt>
      <trkpt lat="46.29844" lon="5.52249">
        <ele>459.8</ele>
        <time>2022-02-24T09:13:14Z</time>
      </trkpt>
      <trkpt lat="46.29838" lon="5.52249">
        <ele>459.8</ele>
        <time>2022-02-24T09:13:15Z</time>
      </trkpt>
      <trkpt lat="46.29833" lon="5.52249">
        <ele>459.8</ele>
        <time>2022-02-24T09:13:16Z</time>
      </trkpt>
      <trkpt lat="46.29828" lon="5.52249">
        <ele>460.2</ele>
        <time>2022-02-24T09:13:17Z</time>
      </trkpt>
      <trkpt lat="46.29823" lon="5.52249">
        <ele>460.2</ele>
        <time>2022-02-24T09:13:18Z</time>
      </trkpt>
      <trkpt lat="46.29818" lon="5.52249">
        <ele>460.4</ele>
        <time>2022-02-24T09:13:19Z</time>
      </trkpt>
      <trkpt lat="46.29813" lon="5.52249">
        <ele>460.4</ele>
        <time>2022-02-24T09:13:20Z</time>
      </trkpt>
      <trkpt lat="46.29813" lon="5.52249">
        <ele>460.8</ele>
        <time>2022-02-24T09:13:21Z</time>
      </trkpt>
      <trkpt lat="46.29809" lon="5.52249">
        <ele>460.8</ele>
        <time>2022-02-24T09:13:22Z</time>
      </trkpt>
      <trkpt lat="46.29804" lon="5.52249">
        <ele>460.8</ele>
        <time>2022-02-24T09:13:23Z</time>
      </trkpt>
      <trkpt lat="46.298" lon="5.52249">
        <ele>461</ele>
        <time>2022-02-24T09:13:24Z</time>
      </trkpt>
      <trkpt lat="46.29795" lon="5.52249">
        <ele>461</ele>
        <time>2022-02-24T09:13:25Z</time>
      </trkpt>
      <trkpt lat="46.2979" lon="5.52249">
        <ele>461</ele>
        <time>2022-02-24T09:13:26Z</time>
      </trkpt>
      <trkpt lat="46.29786" lon="5.52249">
        <ele>461</ele>
        <time>2022-02-24T09:13:27Z</time>
      </trkpt>
      <trkpt lat="46.29781" lon="5.52248">
        <ele>461</ele>
        <time>2022-02-24T09:13:28Z</time>
      </trkpt>
      <trkpt lat="46.29777" lon="5.52248">
        <ele>461</ele>
        <time>2022-02-24T09:13:29Z</time>
      </trkpt>
      <trkpt lat="46.29772" lon="5.52248">
        <ele>461</ele>
        <time>2022-02-24T09:13:30Z</time>
      </trkpt>
      <trkpt lat="46.29768" lon="5.52247">
        <ele>461</ele>
        <time>2022-02-24T09:13:31Z</time>
      </trkpt>
      <trkpt lat="46.29762" lon="5.52246">
        <ele>461</ele>
        <time>2022-02-24T09:13:32Z</time>
      </trkpt>
      <trkpt lat="46.29757" lon="5.52245">
        <ele>461</ele>
        <time>2022-02-24T09:13:33Z</time>
      </trkpt>
      <trkpt lat="46.29752" lon="5.52244">
        <ele>460.8</ele>
        <time>2022-02-24T09:13:34Z</time>
      </trkpt>
      <trkpt lat="46.29746" lon="5.52244">
        <ele>460.8</ele>
        <time>2022-02-24T09:13:35Z</time>
      </trkpt>
      <trkpt lat="46.2974" lon="5.52243">
        <ele>460.6</ele>
        <time>2022-02-24T09:13:36Z</time>
      </trkpt>
      <trkpt lat="46.29735" lon="5.52242">
        <ele>460.6</ele>
        <time>2022-02-24T09:13:37Z</time>
      </trkpt>
      <trkpt lat="46.29729" lon="5.52241">
        <ele>460.2</ele>
        <time>2022-02-24T09:13:38Z</time>
      </trkpt>
      <trkpt lat="46.29723" lon="5.5224">
        <ele>460.2</ele>
        <time>2022-02-24T09:13:39Z</time>
      </trkpt>
      <trkpt lat="46.29718" lon="5.52239">
        <ele>460</ele>
        <time>2022-02-24T09:13:40Z</time>
      </trkpt>
      <trkpt lat="46.29712" lon="5.52237">
        <ele>460</ele>
        <time>2022-02-24T09:13:41Z</time>
      </trkpt>
      <trkpt lat="46.29706" lon="5.52237">
        <ele>459.4</ele>
        <time>2022-02-24T09:13:42Z</time>
      </trkpt>
      <trkpt lat="46.29699" lon="5.52237">
        <ele>459.4</ele>
        <time>2022-02-24T09:13:43Z</time>
      </trkpt>
      <trkpt lat="46.29693" lon="5.52237">
        <ele>459.2</ele>
        <time>2022-02-24T09:13:44Z</time>
      </trkpt>
      <trkpt lat="46.29687" lon="5.52236">
        <ele>459.2</ele>
        <time>2022-02-24T09:13:45Z</time>
      </trkpt>
      <trkpt lat="46.29681" lon="5.52236">
        <ele>459</ele>
        <time>2022-02-24T09:13:46Z</time>
      </trkpt>
      <trkpt lat="46.29674" lon="5.52235">
        <ele>459</ele>
        <time>2022-02-24T09:13:47Z</time>
      </trkpt>
      <trkpt lat="46.29668" lon="5.52236">
        <ele>458.4</ele>
        <time>2022-02-24T09:13:48Z</time>
      </trkpt>
      <trkpt lat="46.29661" lon="5.52236">
        <ele>458.2</ele>
        <time>2022-02-24T09:13:49Z</time>
      </trkpt>
      <trkpt lat="46.29654" lon="5.52235">
        <ele>457.8</ele>
        <time>2022-02-24T09:13:50Z</time>
      </trkpt>
      <trkpt lat="46.29646" lon="5.52234">
        <ele>457.6</ele>
        <time>2022-02-24T09:13:51Z</time>
      </trkpt>
      <trkpt lat="46.29639" lon="5.52233">
        <ele>457.4</ele>
        <time>2022-02-24T09:13:52Z</time>
      </trkpt>
      <trkpt lat="46.29632" lon="5.52233">
        <ele>457</ele>
        <time>2022-02-24T09:13:53Z</time>
      </trkpt>
      <trkpt lat="46.29624" lon="5.52233">
        <ele>456.8</ele>
        <time>2022-02-24T09:13:54Z</time>
      </trkpt>
      <trkpt lat="46.29616" lon="5.52232">
        <ele>456.4</ele>
        <time>2022-02-24T09:13:55Z</time>
      </trkpt>
      <trkpt lat="46.29608" lon="5.52232">
        <ele>456</ele>
        <time>2022-02-24T09:13:56Z</time>
      </trkpt>
      <trkpt lat="46.296" lon="5.52234">
        <ele>455.4</ele>
        <time>2022-02-24T09:13:57Z</time>
      </trkpt>
      <trkpt lat="46.29592" lon="5.52235">
        <ele>455</ele>
        <time>2022-02-24T09:13:58Z</time>
      </trkpt>
      <trkpt lat="46.29583" lon="5.52238">
        <ele>454.4</ele>
        <time>2022-02-24T09:13:59Z</time>
      </trkpt>
      <trkpt lat="46.29575" lon="5.5224">
        <ele>454</ele>
        <time>2022-02-24T09:14:00Z</time>
      </trkpt>
      <trkpt lat="46.29566" lon="5.52243">
        <ele>453.4</ele>
        <time>2022-02-24T09:14:01Z</time>
      </trkpt>
      <trkpt lat="46.29557" lon="5.52246">
        <ele>453</ele>
        <time>2022-02-24T09:14:02Z</time>
      </trkpt>
      <trkpt lat="46.29549" lon="5.52248">
        <ele>452.6</ele>
        <time>2022-02-24T09:14:03Z</time>
      </trkpt>
      <trkpt lat="46.2954" lon="5.52251">
        <ele>452</ele>
        <time>2022-02-24T09:14:04Z</time>
      </trkpt>
      <trkpt lat="46.29531" lon="5.52254">
        <ele>451.4</ele>
        <time>2022-02-24T09:14:05Z</time>
      </trkpt>
      <trkpt lat="46.29522" lon="5.52257">
        <ele>450.8</ele>
        <time>2022-02-24T09:14:06Z</time>
      </trkpt>
      <trkpt lat="46.29513" lon="5.52259">
        <ele>450</ele>
        <time>2022-02-24T09:14:07Z</time>
      </trkpt>
      <trkpt lat="46.29504" lon="5.52261">
        <ele>449.4</ele>
        <time>2022-02-24T09:14:08Z</time>
      </trkpt>
      <trkpt lat="46.29495" lon="5.52263">
        <ele>448.4</ele>
        <time>2022-02-24T09:14:09Z</time>
      </trkpt>
      <trkpt lat="46.29487" lon="5.52266">
        <ele>447.6</ele>
        <time>2022-02-24T09:14:10Z</time>
      </trkpt>
      <trkpt lat="46.29478" lon="5.52268">
        <ele>446.6</ele>
        <time>2022-02-24T09:14:11Z</time>
      </trkpt>
      <trkpt lat="46.29469" lon="5.5227">
        <ele>445.6</ele>
        <time>2022-02-24T09:14:12Z</time>
      </trkpt>
      <trkpt lat="46.29459" lon="5.52271">
        <ele>444.6</ele>
        <time>2022-02-24T09:14:13Z</time>
      </trkpt>
      <trkpt lat="46.29449" lon="5.52271">
        <ele>443.4</ele>
        <time>2022-02-24T09:14:14Z</time>
      </trkpt>
      <trkpt lat="46.29439" lon="5.5227">
        <ele>442</ele>
        <time>2022-02-24T09:14:15Z</time>
      </trkpt>
      <trkpt lat="46.29427" lon="5.52268">
        <ele>440.6</ele>
        <time>2022-02-24T09:14:16Z</time>
      </trkpt>
      <trkpt lat="46.29415" lon="5.52265">
        <ele>439</ele>
        <time>2022-02-24T09:14:17Z</time>
      </trkpt>
      <trkpt lat="46.29403" lon="5.52261">
        <ele>437.6</ele>
        <time>2022-02-24T09:14:18Z</time>
      </trkpt>
      <trkpt lat="46.2939" lon="5.52257">
        <ele>435.8</ele>
        <time>2022-02-24T09:14:19Z</time>
      </trkpt>
      <trkpt lat="46.29376" lon="5.52253">
        <ele>434</ele>
        <time>2022-02-24T09:14:20Z</time>
      </trkpt>
      <trkpt lat="46.29361" lon="5.52248">
        <ele>432.2</ele>
        <time>2022-02-24T09:14:21Z</time>
      </trkpt>
      <trkpt lat="46.29347" lon="5.52243">
        <ele>430.6</ele>
        <time>2022-02-24T09:14:22Z</time>
      </trkpt>
      <trkpt lat="46.29332" lon="5.52236">
        <ele>429</ele>
        <time>2022-02-24T09:14:23Z</time>
      </trkpt>
      <trkpt lat="46.29303" lon="5.52224">
        <ele>427.2</ele>
        <time>2022-02-24T09:14:24Z</time>
      </trkpt>
      <trkpt lat="46.29288" lon="5.52219">
        <ele>425.2</ele>
        <time>2022-02-24T09:14:25Z</time>
      </trkpt>
      <trkpt lat="46.29274" lon="5.52214">
        <ele>423.4</ele>
        <time>2022-02-24T09:14:26Z</time>
      </trkpt>
      <trkpt lat="46.29259" lon="5.52209">
        <ele>421.4</ele>
        <time>2022-02-24T09:14:27Z</time>
      </trkpt>
      <trkpt lat="46.29245" lon="5.52206">
        <ele>419.6</ele>
        <time>2022-02-24T09:14:28Z</time>
      </trkpt>
      <trkpt lat="46.29231" lon="5.52203">
        <ele>418</ele>
        <time>2022-02-24T09:14:29Z</time>
      </trkpt>
      <trkpt lat="46.29217" lon="5.52202">
        <ele>416.6</ele>
        <time>2022-02-24T09:14:30Z</time>
      </trkpt>
      <trkpt lat="46.29203" lon="5.522">
        <ele>415</ele>
        <time>2022-02-24T09:14:31Z</time>
      </trkpt>
      <trkpt lat="46.29188" lon="5.52199">
        <ele>413.2</ele>
        <time>2022-02-24T09:14:32Z</time>
      </trkpt>
      <trkpt lat="46.29173" lon="5.52197">
        <ele>411.2</ele>
        <time>2022-02-24T09:14:33Z</time>
      </trkpt>
      <trkpt lat="46.29157" lon="5.52194">
        <ele>409</ele>
        <time>2022-02-24T09:14:34Z</time>
      </trkpt>
      <trkpt lat="46.29142" lon="5.52191">
        <ele>407</ele>
        <time>2022-02-24T09:14:35Z</time>
      </trkpt>
      <trkpt lat="46.29126" lon="5.52189">
        <ele>404.6</ele>
        <time>2022-02-24T09:14:36Z</time>
      </trkpt>
      <trkpt lat="46.2911" lon="5.52186">
        <ele>402.4</ele>
        <time>2022-02-24T09:14:37Z</time>
      </trkpt>
      <trkpt lat="46.29093" lon="5.52183">
        <ele>400.2</ele>
        <time>2022-02-24T09:14:38Z</time>
      </trkpt>
      <trkpt lat="46.29078" lon="5.5218">
        <ele>398.6</ele>
        <time>2022-02-24T09:14:39Z</time>
      </trkpt>
      <trkpt lat="46.29063" lon="5.52178">
        <ele>397</ele>
        <time>2022-02-24T09:14:40Z</time>
      </trkpt>
      <trkpt lat="46.29049" lon="5.52175">
        <ele>395.6</ele>
        <time>2022-02-24T09:14:41Z</time>
      </trkpt>
      <trkpt lat="46.29036" lon="5.52173">
        <ele>394.4</ele>
        <time>2022-02-24T09:14:42Z</time>
      </trkpt>
      <trkpt lat="46.29024" lon="5.52169">
        <ele>393.2</ele>
        <time>2022-02-24T09:14:43Z</time>
      </trkpt>
      <trkpt lat="46.29012" lon="5.52165">
        <ele>392.2</ele>
        <time>2022-02-24T09:14:44Z</time>
      </trkpt>
      <trkpt lat="46.28999" lon="5.52159">
        <ele>391.4</ele>
        <time>2022-02-24T09:14:45Z</time>
      </trkpt>
      <trkpt lat="46.28988" lon="5.52153">
        <ele>390.8</ele>
        <time>2022-02-24T09:14:46Z</time>
      </trkpt>
      <trkpt lat="46.28977" lon="5.52146">
        <ele>390.2</ele>
        <time>2022-02-24T09:14:47Z</time>
      </trkpt>
      <trkpt lat="46.28966" lon="5.52142">
        <ele>389.6</ele>
        <time>2022-02-24T09:14:48Z</time>
      </trkpt>
      <trkpt lat="46.28955" lon="5.52139">
        <ele>389.2</ele>
        <time>2022-02-24T09:14:49Z</time>
      </trkpt>
      <trkpt lat="46.28944" lon="5.52138">
        <ele>388.6</ele>
        <time>2022-02-24T09:14:50Z</time>
      </trkpt>
      <trkpt lat="46.28933" lon="5.52136">
        <ele>388</ele>
        <time>2022-02-24T09:14:51Z</time>
      </trkpt>
      <trkpt lat="46.28923" lon="5.52134">
        <ele>387.4</ele>
        <time>2022-02-24T09:14:52Z</time>
      </trkpt>
      <trkpt lat="46.28912" lon="5.52131">
        <ele>386.8</ele>
        <time>2022-02-24T09:14:53Z</time>
      </trkpt>
      <trkpt lat="46.289" lon="5.52129">
        <ele>386</ele>
        <time>2022-02-24T09:14:54Z</time>
      </trkpt>
      <trkpt lat="46.28889" lon="5.52127">
        <ele>385.2</ele>
        <time>2022-02-24T09:14:55Z</time>
      </trkpt>
      <trkpt lat="46.28879" lon="5.52126">
        <ele>384.2</ele>
        <time>2022-02-24T09:14:56Z</time>
      </trkpt>
      <trkpt lat="46.28869" lon="5.52127">
        <ele>383.2</ele>
        <time>2022-02-24T09:14:57Z</time>
      </trkpt>
      <trkpt lat="46.28869" lon="5.52127">
        <ele>382.2</ele>
        <time>2022-02-24T09:14:58Z</time>
      </trkpt>
      <trkpt lat="46.28859" lon="5.52128">
        <ele>381.4</ele>
        <time>2022-02-24T09:14:59Z</time>
      </trkpt>
      <trkpt lat="46.28849" lon="5.52129">
        <ele>380.4</ele>
        <time>2022-02-24T09:15:00Z</time>
      </trkpt>
      <trkpt lat="46.2884" lon="5.5213">
        <ele>379.2</ele>
        <time>2022-02-24T09:15:01Z</time>
      </trkpt>
      <trkpt lat="46.28832" lon="5.5213">
        <ele>378.2</ele>
        <time>2022-02-24T09:15:02Z</time>
      </trkpt>
      <trkpt lat="46.28823" lon="5.52131">
        <ele>377</ele>
        <time>2022-02-24T09:15:03Z</time>
      </trkpt>
      <trkpt lat="46.28815" lon="5.52131">
        <ele>375.8</ele>
        <time>2022-02-24T09:15:04Z</time>
      </trkpt>
      <trkpt lat="46.28806" lon="5.5213">
        <ele>374.4</ele>
        <time>2022-02-24T09:15:05Z</time>
      </trkpt>
      <trkpt lat="46.28798" lon="5.52128">
        <ele>372.8</ele>
        <time>2022-02-24T09:15:06Z</time>
      </trkpt>
      <trkpt lat="46.28787" lon="5.52124">
        <ele>371.2</ele>
        <time>2022-02-24T09:15:07Z</time>
      </trkpt>
      <trkpt lat="46.28777" lon="5.52119">
        <ele>369.6</ele>
        <time>2022-02-24T09:15:08Z</time>
      </trkpt>
      <trkpt lat="46.28766" lon="5.52112">
        <ele>367.8</ele>
        <time>2022-02-24T09:15:09Z</time>
      </trkpt>
      <trkpt lat="46.28755" lon="5.52106">
        <ele>365.8</ele>
        <time>2022-02-24T09:15:10Z</time>
      </trkpt>
      <trkpt lat="46.28744" lon="5.52099">
        <ele>363.8</ele>
        <time>2022-02-24T09:15:11Z</time>
      </trkpt>
      <trkpt lat="46.28733" lon="5.52093">
        <ele>361.6</ele>
        <time>2022-02-24T09:15:12Z</time>
      </trkpt>
      <trkpt lat="46.2872" lon="5.52089">
        <ele>359.6</ele>
        <time>2022-02-24T09:15:13Z</time>
      </trkpt>
      <trkpt lat="46.28707" lon="5.52086">
        <ele>357.6</ele>
        <time>2022-02-24T09:15:14Z</time>
      </trkpt>
      <trkpt lat="46.28693" lon="5.52084">
        <ele>355.8</ele>
        <time>2022-02-24T09:15:15Z</time>
      </trkpt>
      <trkpt lat="46.28678" lon="5.52082">
        <ele>354</ele>
        <time>2022-02-24T09:15:16Z</time>
      </trkpt>
      <trkpt lat="46.28663" lon="5.52081">
        <ele>352</ele>
        <time>2022-02-24T09:15:17Z</time>
      </trkpt>
      <trkpt lat="46.28648" lon="5.52078">
        <ele>350.4</ele>
        <time>2022-02-24T09:15:18Z</time>
      </trkpt>
      <trkpt lat="46.28634" lon="5.52075">
        <ele>348.6</ele>
        <time>2022-02-24T09:15:19Z</time>
      </trkpt>
      <trkpt lat="46.28619" lon="5.52071">
        <ele>347.2</ele>
        <time>2022-02-24T09:15:20Z</time>
      </trkpt>
      <trkpt lat="46.28605" lon="5.52067">
        <ele>345.4</ele>
        <time>2022-02-24T09:15:21Z</time>
      </trkpt>
      <trkpt lat="46.28589" lon="5.52063">
        <ele>343.8</ele>
        <time>2022-02-24T09:15:22Z</time>
      </trkpt>
      <trkpt lat="46.28575" lon="5.52059">
        <ele>342.6</ele>
        <time>2022-02-24T09:15:23Z</time>
      </trkpt>
      <trkpt lat="46.28559" lon="5.52054">
        <ele>341.4</ele>
        <time>2022-02-24T09:15:24Z</time>
      </trkpt>
      <trkpt lat="46.28545" lon="5.52051">
        <ele>340.6</ele>
        <time>2022-02-24T09:15:25Z</time>
      </trkpt>
      <trkpt lat="46.28532" lon="5.52047">
        <ele>339.6</ele>
        <time>2022-02-24T09:15:26Z</time>
      </trkpt>
      <trkpt lat="46.28521" lon="5.52043">
        <ele>338.8</ele>
        <time>2022-02-24T09:15:27Z</time>
      </trkpt>
      <trkpt lat="46.28508" lon="5.52039">
        <ele>337.8</ele>
        <time>2022-02-24T09:15:28Z</time>
      </trkpt>
      <trkpt lat="46.28496" lon="5.52034">
        <ele>336.8</ele>
        <time>2022-02-24T09:15:29Z</time>
      </trkpt>
      <trkpt lat="46.28485" lon="5.5203">
        <ele>336</ele>
        <time>2022-02-24T09:15:30Z</time>
      </trkpt>
      <trkpt lat="46.28473" lon="5.52026">
        <ele>335</ele>
        <time>2022-02-24T09:15:31Z</time>
      </trkpt>
      <trkpt lat="46.28462" lon="5.52023">
        <ele>334</ele>
        <time>2022-02-24T09:15:32Z</time>
      </trkpt>
      <trkpt lat="46.28451" lon="5.5202">
        <ele>333.2</ele>
        <time>2022-02-24T09:15:33Z</time>
      </trkpt>
      <trkpt lat="46.28441" lon="5.52017">
        <ele>332.4</ele>
        <time>2022-02-24T09:15:34Z</time>
      </trkpt>
      <trkpt lat="46.28431" lon="5.52012">
        <ele>331.4</ele>
        <time>2022-02-24T09:15:35Z</time>
      </trkpt>
      <trkpt lat="46.28423" lon="5.52009">
        <ele>330.6</ele>
        <time>2022-02-24T09:15:36Z</time>
      </trkpt>
      <trkpt lat="46.28415" lon="5.52005">
        <ele>330</ele>
        <time>2022-02-24T09:15:37Z</time>
      </trkpt>
      <trkpt lat="46.28407" lon="5.52001">
        <ele>329.4</ele>
        <time>2022-02-24T09:15:38Z</time>
      </trkpt>
      <trkpt lat="46.28401" lon="5.51997">
        <ele>328.8</ele>
        <time>2022-02-24T09:15:39Z</time>
      </trkpt>
      <trkpt lat="46.28396" lon="5.51993">
        <ele>328.4</ele>
        <time>2022-02-24T09:15:40Z</time>
      </trkpt>
      <trkpt lat="46.28391" lon="5.51987">
        <ele>328</ele>
        <time>2022-02-24T09:15:41Z</time>
      </trkpt>
      <trkpt lat="46.28387" lon="5.51982">
        <ele>327.8</ele>
        <time>2022-02-24T09:15:42Z</time>
      </trkpt>
      <trkpt lat="46.28383" lon="5.51976">
        <ele>327.8</ele>
        <time>2022-02-24T09:15:43Z</time>
      </trkpt>
      <trkpt lat="46.2838" lon="5.5197">
        <ele>327.4</ele>
        <time>2022-02-24T09:15:44Z</time>
      </trkpt>
      <trkpt lat="46.28378" lon="5.51963">
        <ele>327.4</ele>
        <time>2022-02-24T09:15:45Z</time>
      </trkpt>
      <trkpt lat="46.28376" lon="5.51955">
        <ele>327</ele>
        <time>2022-02-24T09:15:46Z</time>
      </trkpt>
      <trkpt lat="46.28373" lon="5.51948">
        <ele>326.6</ele>
        <time>2022-02-24T09:15:47Z</time>
      </trkpt>
      <trkpt lat="46.2837" lon="5.51941">
        <ele>326.6</ele>
        <time>2022-02-24T09:15:48Z</time>
      </trkpt>
      <trkpt lat="46.28367" lon="5.51934">
        <ele>326.2</ele>
        <time>2022-02-24T09:15:49Z</time>
      </trkpt>
      <trkpt lat="46.28363" lon="5.51927">
        <ele>326</ele>
        <time>2022-02-24T09:15:50Z</time>
      </trkpt>
      <trkpt lat="46.28359" lon="5.51921">
        <ele>325.8</ele>
        <time>2022-02-24T09:15:51Z</time>
      </trkpt>
      <trkpt lat="46.28354" lon="5.51916">
        <ele>325.8</ele>
        <time>2022-02-24T09:15:52Z</time>
      </trkpt>
      <trkpt lat="46.28346" lon="5.5191">
        <ele>325.4</ele>
        <time>2022-02-24T09:15:53Z</time>
      </trkpt>
      <trkpt lat="46.28342" lon="5.5191">
        <ele>325.4</ele>
        <time>2022-02-24T09:15:54Z</time>
      </trkpt>
      <trkpt lat="46.28337" lon="5.51912">
        <ele>325</ele>
        <time>2022-02-24T09:15:55Z</time>
      </trkpt>
      <trkpt lat="46.28334" lon="5.51917">
        <ele>325</ele>
        <time>2022-02-24T09:15:56Z</time>
      </trkpt>
      <trkpt lat="46.28331" lon="5.51922">
        <ele>324.6</ele>
        <time>2022-02-24T09:15:57Z</time>
      </trkpt>
      <trkpt lat="46.28328" lon="5.51928">
        <ele>324.6</ele>
        <time>2022-02-24T09:15:58Z</time>
      </trkpt>
      <trkpt lat="46.28325" lon="5.51934">
        <ele>324.6</ele>
        <time>2022-02-24T09:15:59Z</time>
      </trkpt>
      <trkpt lat="46.28322" lon="5.5194">
        <ele>324.4</ele>
        <time>2022-02-24T09:16:00Z</time>
      </trkpt>
      <trkpt lat="46.28319" lon="5.51945">
        <ele>324.4</ele>
        <time>2022-02-24T09:16:01Z</time>
      </trkpt>
      <trkpt lat="46.28316" lon="5.5195">
        <ele>324.4</ele>
        <time>2022-02-24T09:16:02Z</time>
      </trkpt>
      <trkpt lat="46.28313" lon="5.51956">
        <ele>324</ele>
        <time>2022-02-24T09:16:03Z</time>
      </trkpt>
      <trkpt lat="46.2831" lon="5.51962">
        <ele>324</ele>
        <time>2022-02-24T09:16:04Z</time>
      </trkpt>
      <trkpt lat="46.28306" lon="5.51968">
        <ele>324</ele>
        <time>2022-02-24T09:16:05Z</time>
      </trkpt>
      <trkpt lat="46.28303" lon="5.51973">
        <ele>323.8</ele>
        <time>2022-02-24T09:16:06Z</time>
      </trkpt>
      <trkpt lat="46.283" lon="5.51978">
        <ele>323.8</ele>
        <time>2022-02-24T09:16:07Z</time>
      </trkpt>
      <trkpt lat="46.28296" lon="5.51983">
        <ele>323.6</ele>
        <time>2022-02-24T09:16:08Z</time>
      </trkpt>
      <trkpt lat="46.28293" lon="5.51986">
        <ele>323.6</ele>
        <time>2022-02-24T09:16:09Z</time>
      </trkpt>
      <trkpt lat="46.28289" lon="5.51987">
        <ele>323.2</ele>
        <time>2022-02-24T09:16:10Z</time>
      </trkpt>
      <trkpt lat="46.28285" lon="5.51985">
        <ele>323.2</ele>
        <time>2022-02-24T09:16:11Z</time>
      </trkpt>
      <trkpt lat="46.28282" lon="5.51983">
        <ele>323.2</ele>
        <time>2022-02-24T09:16:12Z</time>
      </trkpt>
      <trkpt lat="46.28279" lon="5.51979">
        <ele>323.2</ele>
        <time>2022-02-24T09:16:13Z</time>
      </trkpt>
      <trkpt lat="46.28276" lon="5.51976">
        <ele>323.2</ele>
        <time>2022-02-24T09:16:14Z</time>
      </trkpt>
      <trkpt lat="46.28273" lon="5.51973">
        <ele>323.6</ele>
        <time>2022-02-24T09:16:15Z</time>
      </trkpt>
      <trkpt lat="46.28271" lon="5.51969">
        <ele>323.6</ele>
        <time>2022-02-24T09:16:16Z</time>
      </trkpt>
      <trkpt lat="46.28269" lon="5.51964">
        <ele>323.8</ele>
        <time>2022-02-24T09:16:17Z</time>
      </trkpt>
      <trkpt lat="46.28268" lon="5.5196">
        <ele>323.8</ele>
        <time>2022-02-24T09:16:18Z</time>
      </trkpt>
      <trkpt lat="46.28267" lon="5.51955">
        <ele>324.2</ele>
        <time>2022-02-24T09:16:19Z</time>
      </trkpt>
      <trkpt lat="46.28266" lon="5.5195">
        <ele>324.2</ele>
        <time>2022-02-24T09:16:20Z</time>
      </trkpt>
      <trkpt lat="46.28265" lon="5.51944">
        <ele>324.2</ele>
        <time>2022-02-24T09:16:21Z</time>
      </trkpt>
      <trkpt lat="46.28264" lon="5.51939">
        <ele>324.4</ele>
        <time>2022-02-24T09:16:22Z</time>
      </trkpt>
      <trkpt lat="46.28262" lon="5.51933">
        <ele>324.4</ele>
        <time>2022-02-24T09:16:23Z</time>
      </trkpt>
      <trkpt lat="46.2826" lon="5.51927">
        <ele>324.4</ele>
        <time>2022-02-24T09:16:24Z</time>
      </trkpt>
      <trkpt lat="46.28257" lon="5.51921">
        <ele>324.4</ele>
        <time>2022-02-24T09:16:25Z</time>
      </trkpt>
      <trkpt lat="46.28255" lon="5.51914">
        <ele>324</ele>
        <time>2022-02-24T09:16:26Z</time>
      </trkpt>
      <trkpt lat="46.28252" lon="5.51907">
        <ele>323.8</ele>
        <time>2022-02-24T09:16:27Z</time>
      </trkpt>
      <trkpt lat="46.2825" lon="5.519">
        <ele>323.6</ele>
        <time>2022-02-24T09:16:28Z</time>
      </trkpt>
      <trkpt lat="46.28247" lon="5.51893">
        <ele>323.6</ele>
        <time>2022-02-24T09:16:29Z</time>
      </trkpt>
      <trkpt lat="46.28245" lon="5.51886">
        <ele>323.4</ele>
        <time>2022-02-24T09:16:30Z</time>
      </trkpt>
      <trkpt lat="46.28243" lon="5.51878">
        <ele>323.4</ele>
        <time>2022-02-24T09:16:31Z</time>
      </trkpt>
      <trkpt lat="46.28241" lon="5.51871">
        <ele>323.4</ele>
        <time>2022-02-24T09:16:32Z</time>
      </trkpt>
      <trkpt lat="46.28239" lon="5.51865">
        <ele>323.4</ele>
        <time>2022-02-24T09:16:33Z</time>
      </trkpt>
      <trkpt lat="46.28238" lon="5.51859">
        <ele>323.4</ele>
        <time>2022-02-24T09:16:34Z</time>
      </trkpt>
      <trkpt lat="46.28236" lon="5.51852">
        <ele>323.4</ele>
        <time>2022-02-24T09:16:35Z</time>
      </trkpt>
      <trkpt lat="46.28235" lon="5.51846">
        <ele>323.4</ele>
        <time>2022-02-24T09:16:36Z</time>
      </trkpt>
      <trkpt lat="46.28234" lon="5.5184">
        <ele>323.4</ele>
        <time>2022-02-24T09:16:37Z</time>
      </trkpt>
      <trkpt lat="46.28232" lon="5.51835">
        <ele>323.6</ele>
        <time>2022-02-24T09:16:38Z</time>
      </trkpt>
      <trkpt lat="46.2823" lon="5.5183">
        <ele>323.6</ele>
        <time>2022-02-24T09:16:39Z</time>
      </trkpt>
      <trkpt lat="46.28227" lon="5.51826">
        <ele>323.6</ele>
        <time>2022-02-24T09:16:40Z</time>
      </trkpt>
      <trkpt lat="46.28225" lon="5.51822">
        <ele>323.6</ele>
        <time>2022-02-24T09:16:41Z</time>
      </trkpt>
      <trkpt lat="46.28222" lon="5.51819">
        <ele>323.6</ele>
        <time>2022-02-24T09:16:42Z</time>
      </trkpt>
      <trkpt lat="46.28218" lon="5.51815">
        <ele>323.4</ele>
        <time>2022-02-24T09:16:43Z</time>
      </trkpt>
      <trkpt lat="46.28215" lon="5.51811">
        <ele>323.4</ele>
        <time>2022-02-24T09:16:44Z</time>
      </trkpt>
      <trkpt lat="46.28212" lon="5.51807">
        <ele>323.4</ele>
        <time>2022-02-24T09:16:45Z</time>
      </trkpt>
      <trkpt lat="46.28209" lon="5.51803">
        <ele>323.4</ele>
        <time>2022-02-24T09:16:46Z</time>
      </trkpt>
      <trkpt lat="46.28206" lon="5.518">
        <ele>323.4</ele>
        <time>2022-02-24T09:16:47Z</time>
      </trkpt>
      <trkpt lat="46.28203" lon="5.51796">
        <ele>323.6</ele>
        <time>2022-02-24T09:16:48Z</time>
      </trkpt>
      <trkpt lat="46.282" lon="5.51794">
        <ele>323.6</ele>
        <time>2022-02-24T09:16:49Z</time>
      </trkpt>
      <trkpt lat="46.28197" lon="5.51791">
        <ele>323.6</ele>
        <time>2022-02-24T09:16:50Z</time>
      </trkpt>
      <trkpt lat="46.28194" lon="5.51789">
        <ele>323.6</ele>
        <time>2022-02-24T09:16:51Z</time>
      </trkpt>
      <trkpt lat="46.2819" lon="5.51787">
        <ele>323.6</ele>
        <time>2022-02-24T09:16:52Z</time>
      </trkpt>
      <trkpt lat="46.28186" lon="5.51786">
        <ele>323.6</ele>
        <time>2022-02-24T09:16:53Z</time>
      </trkpt>
      <trkpt lat="46.28181" lon="5.51784">
        <ele>323.4</ele>
        <time>2022-02-24T09:16:54Z</time>
      </trkpt>
      <trkpt lat="46.28176" lon="5.51783">
        <ele>323.4</ele>
        <time>2022-02-24T09:16:55Z</time>
      </trkpt>
      <trkpt lat="46.2817" lon="5.51781">
        <ele>323</ele>
        <time>2022-02-24T09:16:56Z</time>
      </trkpt>
      <trkpt lat="46.28164" lon="5.51779">
        <ele>322.8</ele>
        <time>2022-02-24T09:16:57Z</time>
      </trkpt>
      <trkpt lat="46.28158" lon="5.51778">
        <ele>322.2</ele>
        <time>2022-02-24T09:16:58Z</time>
      </trkpt>
      <trkpt lat="46.28152" lon="5.51776">
        <ele>321.8</ele>
        <time>2022-02-24T09:16:59Z</time>
      </trkpt>
      <trkpt lat="46.28145" lon="5.51773">
        <ele>321.2</ele>
        <time>2022-02-24T09:17:00Z</time>
      </trkpt>
      <trkpt lat="46.28138" lon="5.51769">
        <ele>320.8</ele>
        <time>2022-02-24T09:17:01Z</time>
      </trkpt>
      <trkpt lat="46.28131" lon="5.51765">
        <ele>320.4</ele>
        <time>2022-02-24T09:17:02Z</time>
      </trkpt>
      <trkpt lat="46.28124" lon="5.51761">
        <ele>319.8</ele>
        <time>2022-02-24T09:17:03Z</time>
      </trkpt>
      <trkpt lat="46.28117" lon="5.51756">
        <ele>319.2</ele>
        <time>2022-02-24T09:17:04Z</time>
      </trkpt>
      <trkpt lat="46.28109" lon="5.51751">
        <ele>318.4</ele>
        <time>2022-02-24T09:17:05Z</time>
      </trkpt>
      <trkpt lat="46.281" lon="5.51746">
        <ele>317.8</ele>
        <time>2022-02-24T09:17:06Z</time>
      </trkpt>
      <trkpt lat="46.28091" lon="5.51741">
        <ele>317</ele>
        <time>2022-02-24T09:17:07Z</time>
      </trkpt>
      <trkpt lat="46.28082" lon="5.51736">
        <ele>316.4</ele>
        <time>2022-02-24T09:17:08Z</time>
      </trkpt>
      <trkpt lat="46.28072" lon="5.51732">
        <ele>315.8</ele>
        <time>2022-02-24T09:17:09Z</time>
      </trkpt>
      <trkpt lat="46.28062" lon="5.51727">
        <ele>315</ele>
        <time>2022-02-24T09:17:10Z</time>
      </trkpt>
      <trkpt lat="46.28052" lon="5.51723">
        <ele>314.2</ele>
        <time>2022-02-24T09:17:11Z</time>
      </trkpt>
      <trkpt lat="46.28042" lon="5.51717">
        <ele>313.4</ele>
        <time>2022-02-24T09:17:12Z</time>
      </trkpt>
      <trkpt lat="46.28033" lon="5.5171">
        <ele>312.6</ele>
        <time>2022-02-24T09:17:13Z</time>
      </trkpt>
      <trkpt lat="46.28024" lon="5.51703">
        <ele>312</ele>
        <time>2022-02-24T09:17:14Z</time>
      </trkpt>
      <trkpt lat="46.28015" lon="5.51696">
        <ele>311.4</ele>
        <time>2022-02-24T09:17:15Z</time>
      </trkpt>
      <trkpt lat="46.28007" lon="5.51689">
        <ele>310.8</ele>
        <time>2022-02-24T09:17:16Z</time>
      </trkpt>
      <trkpt lat="46.27998" lon="5.51682">
        <ele>310.4</ele>
        <time>2022-02-24T09:17:17Z</time>
      </trkpt>
      <trkpt lat="46.27988" lon="5.5168">
        <ele>310</ele>
        <time>2022-02-24T09:17:18Z</time>
      </trkpt>
      <trkpt lat="46.27979" lon="5.51683">
        <ele>309.6</ele>
        <time>2022-02-24T09:17:19Z</time>
      </trkpt>
      <trkpt lat="46.27971" lon="5.51686">
        <ele>309.2</ele>
        <time>2022-02-24T09:17:20Z</time>
      </trkpt>
      <trkpt lat="46.27963" lon="5.51692">
        <ele>309</ele>
        <time>2022-02-24T09:17:21Z</time>
      </trkpt>
      <trkpt lat="46.27955" lon="5.51698">
        <ele>308.8</ele>
        <time>2022-02-24T09:17:22Z</time>
      </trkpt>
      <trkpt lat="46.27947" lon="5.51703">
        <ele>308.8</ele>
        <time>2022-02-24T09:17:23Z</time>
      </trkpt>
      <trkpt lat="46.2794" lon="5.51708">
        <ele>308.4</ele>
        <time>2022-02-24T09:17:24Z</time>
      </trkpt>
      <trkpt lat="46.27932" lon="5.51713">
        <ele>308.4</ele>
        <time>2022-02-24T09:17:25Z</time>
      </trkpt>
      <trkpt lat="46.27925" lon="5.51717">
        <ele>308.4</ele>
        <time>2022-02-24T09:17:26Z</time>
      </trkpt>
      <trkpt lat="46.27918" lon="5.51721">
        <ele>308</ele>
        <time>2022-02-24T09:17:27Z</time>
      </trkpt>
      <trkpt lat="46.27911" lon="5.51722">
        <ele>308</ele>
        <time>2022-02-24T09:17:28Z</time>
      </trkpt>
      <trkpt lat="46.27904" lon="5.51721">
        <ele>307.8</ele>
        <time>2022-02-24T09:17:29Z</time>
      </trkpt>
      <trkpt lat="46.27898" lon="5.51715">
        <ele>307.8</ele>
        <time>2022-02-24T09:17:30Z</time>
      </trkpt>
      <trkpt lat="46.27893" lon="5.51708">
        <ele>307.8</ele>
        <time>2022-02-24T09:17:31Z</time>
      </trkpt>
      <trkpt lat="46.27889" lon="5.51701">
        <ele>307.8</ele>
        <time>2022-02-24T09:17:32Z</time>
      </trkpt>
      <trkpt lat="46.27884" lon="5.51695">
        <ele>307.8</ele>
        <time>2022-02-24T09:17:33Z</time>
      </trkpt>
      <trkpt lat="46.27879" lon="5.51689">
        <ele>307.8</ele>
        <time>2022-02-24T09:17:34Z</time>
      </trkpt>
      <trkpt lat="46.27874" lon="5.51683">
        <ele>307.8</ele>
        <time>2022-02-24T09:17:35Z</time>
      </trkpt>
      <trkpt lat="46.27869" lon="5.51678">
        <ele>307.8</ele>
        <time>2022-02-24T09:17:36Z</time>
      </trkpt>
      <trkpt lat="46.27864" lon="5.51673">
        <ele>307.8</ele>
        <time>2022-02-24T09:17:37Z</time>
      </trkpt>
      <trkpt lat="46.27858" lon="5.51668">
        <ele>307.8</ele>
        <time>2022-02-24T09:17:38Z</time>
      </trkpt>
      <trkpt lat="46.27853" lon="5.51664">
        <ele>307.8</ele>
        <time>2022-02-24T09:17:39Z</time>
      </trkpt>
      <trkpt lat="46.27847" lon="5.51659">
        <ele>307.8</ele>
        <time>2022-02-24T09:17:40Z</time>
      </trkpt>
      <trkpt lat="46.27842" lon="5.51655">
        <ele>307.6</ele>
        <time>2022-02-24T09:17:41Z</time>
      </trkpt>
      <trkpt lat="46.27836" lon="5.51651">
        <ele>307.6</ele>
        <time>2022-02-24T09:17:42Z</time>
      </trkpt>
      <trkpt lat="46.27831" lon="5.51646">
        <ele>307.6</ele>
        <time>2022-02-24T09:17:43Z</time>
      </trkpt>
      <trkpt lat="46.27826" lon="5.51641">
        <ele>307.6</ele>
        <time>2022-02-24T09:17:44Z</time>
      </trkpt>
      <trkpt lat="46.27822" lon="5.51635">
        <ele>307.6</ele>
        <time>2022-02-24T09:17:45Z</time>
      </trkpt>
      <trkpt lat="46.27818" lon="5.51628">
        <ele>307.6</ele>
        <time>2022-02-24T09:17:46Z</time>
      </trkpt>
      <trkpt lat="46.27814" lon="5.51621">
        <ele>307.6</ele>
        <time>2022-02-24T09:17:47Z</time>
      </trkpt>
      <trkpt lat="46.27811" lon="5.51614">
        <ele>307.6</ele>
        <time>2022-02-24T09:17:48Z</time>
      </trkpt>
      <trkpt lat="46.27808" lon="5.51607">
        <ele>307.6</ele>
        <time>2022-02-24T09:17:49Z</time>
      </trkpt>
      <trkpt lat="46.27805" lon="5.516">
        <ele>307.8</ele>
        <time>2022-02-24T09:17:50Z</time>
      </trkpt>
      <trkpt lat="46.27802" lon="5.51593">
        <ele>307.8</ele>
        <time>2022-02-24T09:17:51Z</time>
      </trkpt>
      <trkpt lat="46.27799" lon="5.51586">
        <ele>307.8</ele>
        <time>2022-02-24T09:17:52Z</time>
      </trkpt>
      <trkpt lat="46.27797" lon="5.51578">
        <ele>307.8</ele>
        <time>2022-02-24T09:17:53Z</time>
      </trkpt>
      <trkpt lat="46.27795" lon="5.5157">
        <ele>307.8</ele>
        <time>2022-02-24T09:17:54Z</time>
      </trkpt>
      <trkpt lat="46.27793" lon="5.51563">
        <ele>307.6</ele>
        <time>2022-02-24T09:17:55Z</time>
      </trkpt>
      <trkpt lat="46.27791" lon="5.51554">
        <ele>307.6</ele>
        <time>2022-02-24T09:17:56Z</time>
      </trkpt>
      <trkpt lat="46.27788" lon="5.51546">
        <ele>307.4</ele>
        <time>2022-02-24T09:17:57Z</time>
      </trkpt>
      <trkpt lat="46.27785" lon="5.51538">
        <ele>307.4</ele>
        <time>2022-02-24T09:17:58Z</time>
      </trkpt>
      <trkpt lat="46.27782" lon="5.5153">
        <ele>307</ele>
        <time>2022-02-24T09:17:59Z</time>
      </trkpt>
      <trkpt lat="46.27779" lon="5.51522">
        <ele>307</ele>
        <time>2022-02-24T09:18:00Z</time>
      </trkpt>
      <trkpt lat="46.27776" lon="5.51513">
        <ele>306.8</ele>
        <time>2022-02-24T09:18:01Z</time>
      </trkpt>
      <trkpt lat="46.27772" lon="5.51504">
        <ele>306.4</ele>
        <time>2022-02-24T09:18:02Z</time>
      </trkpt>
      <trkpt lat="46.27769" lon="5.51494">
        <ele>306</ele>
        <time>2022-02-24T09:18:03Z</time>
      </trkpt>
      <trkpt lat="46.27764" lon="5.51485">
        <ele>305.6</ele>
        <time>2022-02-24T09:18:04Z</time>
      </trkpt>
      <trkpt lat="46.27759" lon="5.51474">
        <ele>304.8</ele>
        <time>2022-02-24T09:18:05Z</time>
      </trkpt>
      <trkpt lat="46.27754" lon="5.51465">
        <ele>304.2</ele>
        <time>2022-02-24T09:18:06Z</time>
      </trkpt>
      <trkpt lat="46.27747" lon="5.51455">
        <ele>303.8</ele>
        <time>2022-02-24T09:18:07Z</time>
      </trkpt>
      <trkpt lat="46.27739" lon="5.51447">
        <ele>303.2</ele>
        <time>2022-02-24T09:18:08Z</time>
      </trkpt>
      <trkpt lat="46.27731" lon="5.51439">
        <ele>302.6</ele>
        <time>2022-02-24T09:18:09Z</time>
      </trkpt>
      <trkpt lat="46.27722" lon="5.51432">
        <ele>302</ele>
        <time>2022-02-24T09:18:10Z</time>
      </trkpt>
      <trkpt lat="46.27714" lon="5.51425">
        <ele>301.2</ele>
        <time>2022-02-24T09:18:11Z</time>
      </trkpt>
      <trkpt lat="46.27705" lon="5.51417">
        <ele>300.6</ele>
        <time>2022-02-24T09:18:12Z</time>
      </trkpt>
      <trkpt lat="46.27695" lon="5.5141">
        <ele>300</ele>
        <time>2022-02-24T09:18:13Z</time>
      </trkpt>
      <trkpt lat="46.27685" lon="5.51403">
        <ele>299.4</ele>
        <time>2022-02-24T09:18:14Z</time>
      </trkpt>
      <trkpt lat="46.27676" lon="5.51396">
        <ele>298.6</ele>
        <time>2022-02-24T09:18:15Z</time>
      </trkpt>
      <trkpt lat="46.27666" lon="5.5139">
        <ele>297.8</ele>
        <time>2022-02-24T09:18:16Z</time>
      </trkpt>
      <trkpt lat="46.27655" lon="5.51385">
        <ele>297</ele>
        <time>2022-02-24T09:18:17Z</time>
      </trkpt>
      <trkpt lat="46.27644" lon="5.51381">
        <ele>296.2</ele>
        <time>2022-02-24T09:18:18Z</time>
      </trkpt>
      <trkpt lat="46.27633" lon="5.51379">
        <ele>295.4</ele>
        <time>2022-02-24T09:18:19Z</time>
      </trkpt>
      <trkpt lat="46.27623" lon="5.51379">
        <ele>294.6</ele>
        <time>2022-02-24T09:18:20Z</time>
      </trkpt>
      <trkpt lat="46.27612" lon="5.5138">
        <ele>293.8</ele>
        <time>2022-02-24T09:18:21Z</time>
      </trkpt>
      <trkpt lat="46.27601" lon="5.51378">
        <ele>293</ele>
        <time>2022-02-24T09:18:22Z</time>
      </trkpt>
      <trkpt lat="46.27591" lon="5.51376">
        <ele>292.2</ele>
        <time>2022-02-24T09:18:23Z</time>
      </trkpt>
      <trkpt lat="46.27581" lon="5.51376">
        <ele>291.2</ele>
        <time>2022-02-24T09:18:24Z</time>
      </trkpt>
      <trkpt lat="46.27571" lon="5.51375">
        <ele>290.6</ele>
        <time>2022-02-24T09:18:25Z</time>
      </trkpt>
      <trkpt lat="46.27563" lon="5.51374">
        <ele>290</ele>
        <time>2022-02-24T09:18:26Z</time>
      </trkpt>
      <trkpt lat="46.27556" lon="5.51373">
        <ele>289.4</ele>
        <time>2022-02-24T09:18:27Z</time>
      </trkpt>
      <trkpt lat="46.2755" lon="5.51372">
        <ele>289</ele>
        <time>2022-02-24T09:18:28Z</time>
      </trkpt>
      <trkpt lat="46.27544" lon="5.51371">
        <ele>288.6</ele>
        <time>2022-02-24T09:18:29Z</time>
      </trkpt>
      <trkpt lat="46.27539" lon="5.51369">
        <ele>288</ele>
        <time>2022-02-24T09:18:30Z</time>
      </trkpt>
      <trkpt lat="46.27535" lon="5.51367">
        <ele>287.6</ele>
        <time>2022-02-24T09:18:31Z</time>
      </trkpt>
      <trkpt lat="46.27531" lon="5.51364">
        <ele>287.4</ele>
        <time>2022-02-24T09:18:32Z</time>
      </trkpt>
      <trkpt lat="46.2753" lon="5.51359">
        <ele>287.2</ele>
        <time>2022-02-24T09:18:33Z</time>
      </trkpt>
      <trkpt lat="46.27529" lon="5.51354">
        <ele>287.2</ele>
        <time>2022-02-24T09:18:34Z</time>
      </trkpt>
      <trkpt lat="46.27531" lon="5.51349">
        <ele>287</ele>
        <time>2022-02-24T09:18:35Z</time>
      </trkpt>
      <trkpt lat="46.27534" lon="5.51345">
        <ele>287</ele>
        <time>2022-02-24T09:18:36Z</time>
      </trkpt>
      <trkpt lat="46.27537" lon="5.51342">
        <ele>287</ele>
        <time>2022-02-24T09:18:37Z</time>
      </trkpt>
      <trkpt lat="46.2754" lon="5.51339">
        <ele>287</ele>
        <time>2022-02-24T09:18:38Z</time>
      </trkpt>
      <trkpt lat="46.27543" lon="5.51336">
        <ele>287</ele>
        <time>2022-02-24T09:18:39Z</time>
      </trkpt>
      <trkpt lat="46.27546" lon="5.51334">
        <ele>287</ele>
        <time>2022-02-24T09:18:40Z</time>
      </trkpt>
      <trkpt lat="46.27548" lon="5.51331">
        <ele>287</ele>
        <time>2022-02-24T09:18:41Z</time>
      </trkpt>
      <trkpt lat="46.27549" lon="5.51329">
        <ele>287</ele>
        <time>2022-02-24T09:18:42Z</time>
      </trkpt>
      <trkpt lat="46.2755" lon="5.51328">
        <ele>287</ele>
        <time>2022-02-24T09:18:43Z</time>
      </trkpt>
      <trkpt lat="46.2755" lon="5.51328">
        <ele>287</ele>
        <time>2022-02-24T09:18:44Z</time>
      </trkpt>
      <trkpt lat="46.27543" lon="5.51339">
        <ele>287.2</ele>
        <time>2022-02-24T09:18:59Z</time>
      </trkpt>
      <trkpt lat="46.27542" lon="5.51341">
        <ele>287</ele>
        <time>2022-02-24T09:19:00Z</time>
      </trkpt>
      <trkpt lat="46.27542" lon="5.51342">
        <ele>287</ele>
        <time>2022-02-24T09:19:01Z</time>
      </trkpt>
      <trkpt lat="46.27541" lon="5.51343">
        <ele>287</ele>
        <time>2022-02-24T09:19:02Z</time>
      </trkpt>
      <trkpt lat="46.27542" lon="5.51341">
        <ele>286</ele>
        <time>2022-02-24T09:25:22Z</time>
      </trkpt>
      <trkpt lat="46.27543" lon="5.5134">
        <ele>286</ele>
        <time>2022-02-24T09:25:23Z</time>
      </trkpt>
      <trkpt lat="46.27543" lon="5.51338">
        <ele>286</ele>
        <time>2022-02-24T09:25:24Z</time>
      </trkpt>
      <trkpt lat="46.27544" lon="5.51336">
        <ele>286.2</ele>
        <time>2022-02-24T09:25:25Z</time>
      </trkpt>
      <trkpt lat="46.27546" lon="5.51335">
        <ele>286.2</ele>
        <time>2022-02-24T09:25:26Z</time>
      </trkpt>
      <trkpt lat="46.27547" lon="5.51333">
        <ele>286.2</ele>
        <time>2022-02-24T09:25:27Z</time>
      </trkpt>
      <trkpt lat="46.27549" lon="5.51331">
        <ele>286.2</ele>
        <time>2022-02-24T09:25:28Z</time>
      </trkpt>
      <trkpt lat="46.2755" lon="5.51328">
        <ele>286.2</ele>
        <time>2022-02-24T09:25:29Z</time>
      </trkpt>
      <trkpt lat="46.27552" lon="5.51326">
        <ele>286.2</ele>
        <time>2022-02-24T09:25:30Z</time>
      </trkpt>
      <trkpt lat="46.27555" lon="5.51323">
        <ele>286.2</ele>
        <time>2022-02-24T09:25:31Z</time>
      </trkpt>
      <trkpt lat="46.27557" lon="5.5132">
        <ele>286.2</ele>
        <time>2022-02-24T09:25:32Z</time>
      </trkpt>
      <trkpt lat="46.2756" lon="5.51317">
        <ele>286.2</ele>
        <time>2022-02-24T09:25:33Z</time>
      </trkpt>
      <trkpt lat="46.27563" lon="5.51313">
        <ele>286.4</ele>
        <time>2022-02-24T09:25:34Z</time>
      </trkpt>
      <trkpt lat="46.27566" lon="5.51309">
        <ele>286.4</ele>
        <time>2022-02-24T09:25:35Z</time>
      </trkpt>
      <trkpt lat="46.27569" lon="5.51305">
        <ele>286.4</ele>
        <time>2022-02-24T09:25:36Z</time>
      </trkpt>
      <trkpt lat="46.27572" lon="5.51301">
        <ele>286.8</ele>
        <time>2022-02-24T09:25:37Z</time>
      </trkpt>
      <trkpt lat="46.27576" lon="5.51297">
        <ele>286.8</ele>
        <time>2022-02-24T09:25:38Z</time>
      </trkpt>
      <trkpt lat="46.27579" lon="5.51292">
        <ele>287.2</ele>
        <time>2022-02-24T09:25:39Z</time>
      </trkpt>
      <trkpt lat="46.27582" lon="5.51288">
        <ele>287.2</ele>
        <time>2022-02-24T09:25:40Z</time>
      </trkpt>
      <trkpt lat="46.27585" lon="5.51283">
        <ele>287.6</ele>
        <time>2022-02-24T09:25:41Z</time>
      </trkpt>
      <trkpt lat="46.27588" lon="5.51279">
        <ele>287.8</ele>
        <time>2022-02-24T09:25:42Z</time>
      </trkpt>
      <trkpt lat="46.27591" lon="5.51275">
        <ele>288</ele>
        <time>2022-02-24T09:25:43Z</time>
      </trkpt>
      <trkpt lat="46.27594" lon="5.51272">
        <ele>288.2</ele>
        <time>2022-02-24T09:25:44Z</time>
      </trkpt>
      <trkpt lat="46.27597" lon="5.51268">
        <ele>288.6</ele>
        <time>2022-02-24T09:25:45Z</time>
      </trkpt>
      <trkpt lat="46.276" lon="5.51264">
        <ele>288.8</ele>
        <time>2022-02-24T09:25:46Z</time>
      </trkpt>
      <trkpt lat="46.27602" lon="5.51261">
        <ele>289.2</ele>
        <time>2022-02-24T09:25:47Z</time>
      </trkpt>
      <trkpt lat="46.27605" lon="5.51258">
        <ele>289.6</ele>
        <time>2022-02-24T09:25:48Z</time>
      </trkpt>
      <trkpt lat="46.27607" lon="5.51254">
        <ele>289.8</ele>
        <time>2022-02-24T09:25:49Z</time>
      </trkpt>
      <trkpt lat="46.2761" lon="5.51251">
        <ele>290</ele>
        <time>2022-02-24T09:25:50Z</time>
      </trkpt>
      <trkpt lat="46.27612" lon="5.51247">
        <ele>290.2</ele>
        <time>2022-02-24T09:25:51Z</time>
      </trkpt>
      <trkpt lat="46.27614" lon="5.51243">
        <ele>290.6</ele>
        <time>2022-02-24T09:25:52Z</time>
      </trkpt>
      <trkpt lat="46.27615" lon="5.51239">
        <ele>290.8</ele>
        <time>2022-02-24T09:25:53Z</time>
      </trkpt>
      <trkpt lat="46.27618" lon="5.51235">
        <ele>291</ele>
        <time>2022-02-24T09:25:54Z</time>
      </trkpt>
      <trkpt lat="46.27619" lon="5.51232">
        <ele>291</ele>
        <time>2022-02-24T09:25:55Z</time>
      </trkpt>
      <trkpt lat="46.2762" lon="5.51228">
        <ele>291.4</ele>
        <time>2022-02-24T09:25:56Z</time>
      </trkpt>
      <trkpt lat="46.2762" lon="5.51224">
        <ele>291.4</ele>
        <time>2022-02-24T09:25:57Z</time>
      </trkpt>
      <trkpt lat="46.27619" lon="5.51219">
        <ele>291.6</ele>
        <time>2022-02-24T09:25:58Z</time>
      </trkpt>
      <trkpt lat="46.27617" lon="5.51215">
        <ele>291.6</ele>
        <time>2022-02-24T09:25:59Z</time>
      </trkpt>
      <trkpt lat="46.27615" lon="5.51209">
        <ele>291.6</ele>
        <time>2022-02-24T09:26:00Z</time>
      </trkpt>
      <trkpt lat="46.27614" lon="5.51202">
        <ele>291.6</ele>
        <time>2022-02-24T09:26:01Z</time>
      </trkpt>
      <trkpt lat="46.27612" lon="5.51195">
        <ele>291.6</ele>
        <time>2022-02-24T09:26:02Z</time>
      </trkpt>
      <trkpt lat="46.2761" lon="5.51187">
        <ele>291.4</ele>
        <time>2022-02-24T09:26:03Z</time>
      </trkpt>
      <trkpt lat="46.27608" lon="5.51179">
        <ele>291.4</ele>
        <time>2022-02-24T09:26:04Z</time>
      </trkpt>
      <trkpt lat="46.27606" lon="5.5117">
        <ele>290.8</ele>
        <time>2022-02-24T09:26:05Z</time>
      </trkpt>
      <trkpt lat="46.27605" lon="5.51161">
        <ele>290.6</ele>
        <time>2022-02-24T09:26:06Z</time>
      </trkpt>
      <trkpt lat="46.27602" lon="5.51152">
        <ele>290.4</ele>
        <time>2022-02-24T09:26:07Z</time>
      </trkpt>
      <trkpt lat="46.27599" lon="5.51143">
        <ele>290.2</ele>
        <time>2022-02-24T09:26:08Z</time>
      </trkpt>
      <trkpt lat="46.27596" lon="5.51134">
        <ele>289.8</ele>
        <time>2022-02-24T09:26:09Z</time>
      </trkpt>
      <trkpt lat="46.27591" lon="5.51126">
        <ele>289.8</ele>
        <time>2022-02-24T09:26:10Z</time>
      </trkpt>
      <trkpt lat="46.27586" lon="5.51118">
        <ele>289.4</ele>
        <time>2022-02-24T09:26:11Z</time>
      </trkpt>
      <trkpt lat="46.27582" lon="5.51109">
        <ele>289.2</ele>
        <time>2022-02-24T09:26:12Z</time>
      </trkpt>
      <trkpt lat="46.27577" lon="5.51101">
        <ele>289</ele>
        <time>2022-02-24T09:26:13Z</time>
      </trkpt>
      <trkpt lat="46.27572" lon="5.51093">
        <ele>288.8</ele>
        <time>2022-02-24T09:26:14Z</time>
      </trkpt>
      <trkpt lat="46.27566" lon="5.51085">
        <ele>288.8</ele>
        <time>2022-02-24T09:26:15Z</time>
      </trkpt>
      <trkpt lat="46.27561" lon="5.51077">
        <ele>288.4</ele>
        <time>2022-02-24T09:26:16Z</time>
      </trkpt>
      <trkpt lat="46.27556" lon="5.51069">
        <ele>288.4</ele>
        <time>2022-02-24T09:26:17Z</time>
      </trkpt>
      <trkpt lat="46.27551" lon="5.51061">
        <ele>288</ele>
        <time>2022-02-24T09:26:18Z</time>
      </trkpt>
      <trkpt lat="46.27547" lon="5.51053">
        <ele>288</ele>
        <time>2022-02-24T09:26:19Z</time>
      </trkpt>
      <trkpt lat="46.27542" lon="5.51046">
        <ele>287.8</ele>
        <time>2022-02-24T09:26:20Z</time>
      </trkpt>
      <trkpt lat="46.27537" lon="5.51038">
        <ele>287.8</ele>
        <time>2022-02-24T09:26:21Z</time>
      </trkpt>
      <trkpt lat="46.27532" lon="5.51029">
        <ele>287.4</ele>
        <time>2022-02-24T09:26:22Z</time>
      </trkpt>
      <trkpt lat="46.27528" lon="5.51021">
        <ele>287.4</ele>
        <time>2022-02-24T09:26:23Z</time>
      </trkpt>
      <trkpt lat="46.27523" lon="5.51012">
        <ele>287</ele>
        <time>2022-02-24T09:26:24Z</time>
      </trkpt>
      <trkpt lat="46.27518" lon="5.51004">
        <ele>287</ele>
        <time>2022-02-24T09:26:25Z</time>
      </trkpt>
      <trkpt lat="46.27513" lon="5.50996">
        <ele>286.6</ele>
        <time>2022-02-24T09:26:26Z</time>
      </trkpt>
      <trkpt lat="46.27509" lon="5.50987">
        <ele>286.6</ele>
        <time>2022-02-24T09:26:27Z</time>
      </trkpt>
      <trkpt lat="46.27504" lon="5.50979">
        <ele>286.4</ele>
        <time>2022-02-24T09:26:28Z</time>
      </trkpt>
      <trkpt lat="46.27499" lon="5.5097">
        <ele>286.4</ele>
        <time>2022-02-24T09:26:29Z</time>
      </trkpt>
      <trkpt lat="46.27495" lon="5.50961">
        <ele>286.2</ele>
        <time>2022-02-24T09:26:30Z</time>
      </trkpt>
      <trkpt lat="46.2749" lon="5.50952">
        <ele>286.2</ele>
        <time>2022-02-24T09:26:31Z</time>
      </trkpt>
      <trkpt lat="46.27486" lon="5.50943">
        <ele>285.8</ele>
        <time>2022-02-24T09:26:32Z</time>
      </trkpt>
      <trkpt lat="46.27481" lon="5.50932">
        <ele>285.4</ele>
        <time>2022-02-24T09:26:33Z</time>
      </trkpt>
      <trkpt lat="46.27476" lon="5.50922">
        <ele>285</ele>
        <time>2022-02-24T09:26:34Z</time>
      </trkpt>
      <trkpt lat="46.27471" lon="5.50911">
        <ele>284.6</ele>
        <time>2022-02-24T09:26:35Z</time>
      </trkpt>
      <trkpt lat="46.27466" lon="5.50901">
        <ele>284.4</ele>
        <time>2022-02-24T09:26:36Z</time>
      </trkpt>
      <trkpt lat="46.2746" lon="5.50891">
        <ele>284.2</ele>
        <time>2022-02-24T09:26:37Z</time>
      </trkpt>
      <trkpt lat="46.27454" lon="5.50881">
        <ele>284</ele>
        <time>2022-02-24T09:26:38Z</time>
      </trkpt>
      <trkpt lat="46.27448" lon="5.50873">
        <ele>284</ele>
        <time>2022-02-24T09:26:39Z</time>
      </trkpt>
      <trkpt lat="46.27442" lon="5.50865">
        <ele>284</ele>
        <time>2022-02-24T09:26:40Z</time>
      </trkpt>
      <trkpt lat="46.27437" lon="5.50858">
        <ele>284</ele>
        <time>2022-02-24T09:26:41Z</time>
      </trkpt>
      <trkpt lat="46.27431" lon="5.50851">
        <ele>284</ele>
        <time>2022-02-24T09:26:42Z</time>
      </trkpt>
      <trkpt lat="46.27427" lon="5.50844">
        <ele>284.2</ele>
        <time>2022-02-24T09:26:43Z</time>
      </trkpt>
      <trkpt lat="46.27423" lon="5.50837">
        <ele>284.2</ele>
        <time>2022-02-24T09:26:44Z</time>
      </trkpt>
      <trkpt lat="46.27419" lon="5.5083">
        <ele>284.6</ele>
        <time>2022-02-24T09:26:45Z</time>
      </trkpt>
      <trkpt lat="46.27415" lon="5.50824">
        <ele>284.8</ele>
        <time>2022-02-24T09:26:46Z</time>
      </trkpt>
      <trkpt lat="46.27411" lon="5.50818">
        <ele>284.8</ele>
        <time>2022-02-24T09:26:47Z</time>
      </trkpt>
      <trkpt lat="46.27407" lon="5.50812">
        <ele>285.2</ele>
        <time>2022-02-24T09:26:48Z</time>
      </trkpt>
      <trkpt lat="46.27403" lon="5.50807">
        <ele>285.6</ele>
        <time>2022-02-24T09:26:49Z</time>
      </trkpt>
      <trkpt lat="46.27399" lon="5.50802">
        <ele>286</ele>
        <time>2022-02-24T09:26:50Z</time>
      </trkpt>
      <trkpt lat="46.27394" lon="5.50799">
        <ele>286.2</ele>
        <time>2022-02-24T09:26:51Z</time>
      </trkpt>
      <trkpt lat="46.2739" lon="5.50797">
        <ele>286.6</ele>
        <time>2022-02-24T09:26:52Z</time>
      </trkpt>
      <trkpt lat="46.27386" lon="5.50795">
        <ele>287</ele>
        <time>2022-02-24T09:26:53Z</time>
      </trkpt>
      <trkpt lat="46.27382" lon="5.50793">
        <ele>287.2</ele>
        <time>2022-02-24T09:26:54Z</time>
      </trkpt>
      <trkpt lat="46.27378" lon="5.50791">
        <ele>287.2</ele>
        <time>2022-02-24T09:26:55Z</time>
      </trkpt>
      <trkpt lat="46.27375" lon="5.50789">
        <ele>287.6</ele>
        <time>2022-02-24T09:26:56Z</time>
      </trkpt>
      <trkpt lat="46.27371" lon="5.50787">
        <ele>287.8</ele>
        <time>2022-02-24T09:26:57Z</time>
      </trkpt>
      <trkpt lat="46.27367" lon="5.50785">
        <ele>287.8</ele>
        <time>2022-02-24T09:26:58Z</time>
      </trkpt>
      <trkpt lat="46.27363" lon="5.50783">
        <ele>288</ele>
        <time>2022-02-24T09:26:59Z</time>
      </trkpt>
      <trkpt lat="46.27359" lon="5.50781">
        <ele>288</ele>
        <time>2022-02-24T09:27:00Z</time>
      </trkpt>
      <trkpt lat="46.27355" lon="5.50779">
        <ele>288</ele>
        <time>2022-02-24T09:27:01Z</time>
      </trkpt>
      <trkpt lat="46.2735" lon="5.50776">
        <ele>288</ele>
        <time>2022-02-24T09:27:02Z</time>
      </trkpt>
      <trkpt lat="46.27345" lon="5.50775">
        <ele>287.8</ele>
        <time>2022-02-24T09:27:03Z</time>
      </trkpt>
      <trkpt lat="46.27339" lon="5.50773">
        <ele>287.8</ele>
        <time>2022-02-24T09:27:04Z</time>
      </trkpt>
      <trkpt lat="46.27333" lon="5.5077">
        <ele>287.4</ele>
        <time>2022-02-24T09:27:05Z</time>
      </trkpt>
      <trkpt lat="46.27326" lon="5.50767">
        <ele>287.2</ele>
        <time>2022-02-24T09:27:06Z</time>
      </trkpt>
      <trkpt lat="46.2732" lon="5.50764">
        <ele>286.8</ele>
        <time>2022-02-24T09:27:07Z</time>
      </trkpt>
      <trkpt lat="46.27313" lon="5.50761">
        <ele>286.6</ele>
        <time>2022-02-24T09:27:08Z</time>
      </trkpt>
      <trkpt lat="46.27306" lon="5.50757">
        <ele>286.4</ele>
        <time>2022-02-24T09:27:09Z</time>
      </trkpt>
      <trkpt lat="46.27299" lon="5.50753">
        <ele>286.2</ele>
        <time>2022-02-24T09:27:10Z</time>
      </trkpt>
      <trkpt lat="46.27293" lon="5.5075">
        <ele>286.2</ele>
        <time>2022-02-24T09:27:11Z</time>
      </trkpt>
      <trkpt lat="46.27286" lon="5.50746">
        <ele>285.8</ele>
        <time>2022-02-24T09:27:12Z</time>
      </trkpt>
      <trkpt lat="46.2728" lon="5.50743">
        <ele>285.8</ele>
        <time>2022-02-24T09:27:13Z</time>
      </trkpt>
      <trkpt lat="46.27274" lon="5.50739">
        <ele>285.8</ele>
        <time>2022-02-24T09:27:14Z</time>
      </trkpt>
      <trkpt lat="46.27269" lon="5.50735">
        <ele>286.2</ele>
        <time>2022-02-24T09:27:15Z</time>
      </trkpt>
      <trkpt lat="46.27263" lon="5.5073">
        <ele>286.2</ele>
        <time>2022-02-24T09:27:16Z</time>
      </trkpt>
      <trkpt lat="46.27258" lon="5.50725">
        <ele>286.2</ele>
        <time>2022-02-24T09:27:17Z</time>
      </trkpt>
      <trkpt lat="46.27254" lon="5.5072">
        <ele>286.2</ele>
        <time>2022-02-24T09:27:18Z</time>
      </trkpt>
      <trkpt lat="46.27249" lon="5.50715">
        <ele>286.2</ele>
        <time>2022-02-24T09:27:19Z</time>
      </trkpt>
      <trkpt lat="46.27244" lon="5.5071">
        <ele>286.2</ele>
        <time>2022-02-24T09:27:20Z</time>
      </trkpt>
      <trkpt lat="46.27238" lon="5.50707">
        <ele>286.2</ele>
        <time>2022-02-24T09:27:21Z</time>
      </trkpt>
      <trkpt lat="46.27233" lon="5.50704">
        <ele>286.2</ele>
        <time>2022-02-24T09:27:22Z</time>
      </trkpt>
      <trkpt lat="46.27227" lon="5.507">
        <ele>286.2</ele>
        <time>2022-02-24T09:27:23Z</time>
      </trkpt>
      <trkpt lat="46.27222" lon="5.50697">
        <ele>286.2</ele>
        <time>2022-02-24T09:27:24Z</time>
      </trkpt>
      <trkpt lat="46.27217" lon="5.50694">
        <ele>286</ele>
        <time>2022-02-24T09:27:25Z</time>
      </trkpt>
      <trkpt lat="46.27211" lon="5.50691">
        <ele>286</ele>
        <time>2022-02-24T09:27:26Z</time>
      </trkpt>
      <trkpt lat="46.27205" lon="5.50687">
        <ele>285.6</ele>
        <time>2022-02-24T09:27:27Z</time>
      </trkpt>
      <trkpt lat="46.27199" lon="5.50682">
        <ele>285.6</ele>
        <time>2022-02-24T09:27:28Z</time>
      </trkpt>
      <trkpt lat="46.27193" lon="5.50676">
        <ele>285.2</ele>
        <time>2022-02-24T09:27:29Z</time>
      </trkpt>
      <trkpt lat="46.27188" lon="5.5067">
        <ele>285.2</ele>
        <time>2022-02-24T09:27:30Z</time>
      </trkpt>
      <trkpt lat="46.27183" lon="5.50663">
        <ele>285</ele>
        <time>2022-02-24T09:27:31Z</time>
      </trkpt>
      <trkpt lat="46.27178" lon="5.50656">
        <ele>284.6</ele>
        <time>2022-02-24T09:27:32Z</time>
      </trkpt>
      <trkpt lat="46.27174" lon="5.50649">
        <ele>284.4</ele>
        <time>2022-02-24T09:27:33Z</time>
      </trkpt>
      <trkpt lat="46.27168" lon="5.50641">
        <ele>284</ele>
        <time>2022-02-24T09:27:34Z</time>
      </trkpt>
      <trkpt lat="46.27163" lon="5.50634">
        <ele>283.8</ele>
        <time>2022-02-24T09:27:35Z</time>
      </trkpt>
      <trkpt lat="46.27158" lon="5.50626">
        <ele>283.6</ele>
        <time>2022-02-24T09:27:36Z</time>
      </trkpt>
      <trkpt lat="46.27154" lon="5.50618">
        <ele>283.4</ele>
        <time>2022-02-24T09:27:37Z</time>
      </trkpt>
      <trkpt lat="46.2715" lon="5.5061">
        <ele>283.4</ele>
        <time>2022-02-24T09:27:38Z</time>
      </trkpt>
      <trkpt lat="46.27146" lon="5.50601">
        <ele>283</ele>
        <time>2022-02-24T09:27:39Z</time>
      </trkpt>
      <trkpt lat="46.27142" lon="5.50592">
        <ele>282.6</ele>
        <time>2022-02-24T09:27:40Z</time>
      </trkpt>
      <trkpt lat="46.27138" lon="5.50583">
        <ele>282.4</ele>
        <time>2022-02-24T09:27:41Z</time>
      </trkpt>
      <trkpt lat="46.27135" lon="5.50573">
        <ele>282</ele>
        <time>2022-02-24T09:27:42Z</time>
      </trkpt>
      <trkpt lat="46.27131" lon="5.50563">
        <ele>281.8</ele>
        <time>2022-02-24T09:27:43Z</time>
      </trkpt>
      <trkpt lat="46.27128" lon="5.50553">
        <ele>281.6</ele>
        <time>2022-02-24T09:27:44Z</time>
      </trkpt>
      <trkpt lat="46.27125" lon="5.50543">
        <ele>281.4</ele>
        <time>2022-02-24T09:27:45Z</time>
      </trkpt>
      <trkpt lat="46.27122" lon="5.50532">
        <ele>281.4</ele>
        <time>2022-02-24T09:27:46Z</time>
      </trkpt>
      <trkpt lat="46.2712" lon="5.50522">
        <ele>281</ele>
        <time>2022-02-24T09:27:47Z</time>
      </trkpt>
      <trkpt lat="46.27117" lon="5.50512">
        <ele>281</ele>
        <time>2022-02-24T09:27:48Z</time>
      </trkpt>
      <trkpt lat="46.27114" lon="5.50502">
        <ele>281</ele>
        <time>2022-02-24T09:27:49Z</time>
      </trkpt>
      <trkpt lat="46.27112" lon="5.50492">
        <ele>280.8</ele>
        <time>2022-02-24T09:27:50Z</time>
      </trkpt>
      <trkpt lat="46.27109" lon="5.50483">
        <ele>280.8</ele>
        <time>2022-02-24T09:27:51Z</time>
      </trkpt>
      <trkpt lat="46.27105" lon="5.50474">
        <ele>280.8</ele>
        <time>2022-02-24T09:27:52Z</time>
      </trkpt>
      <trkpt lat="46.271" lon="5.50467">
        <ele>280.8</ele>
        <time>2022-02-24T09:27:53Z</time>
      </trkpt>
      <trkpt lat="46.27095" lon="5.5046">
        <ele>280.8</ele>
        <time>2022-02-24T09:27:54Z</time>
      </trkpt>
      <trkpt lat="46.2709" lon="5.50455">
        <ele>280.8</ele>
        <time>2022-02-24T09:27:55Z</time>
      </trkpt>
      <trkpt lat="46.27085" lon="5.50451">
        <ele>280.8</ele>
        <time>2022-02-24T09:27:56Z</time>
      </trkpt>
      <trkpt lat="46.2708" lon="5.50446">
        <ele>280.8</ele>
        <time>2022-02-24T09:27:57Z</time>
      </trkpt>
      <trkpt lat="46.27076" lon="5.50441">
        <ele>280.8</ele>
        <time>2022-02-24T09:27:58Z</time>
      </trkpt>
      <trkpt lat="46.27071" lon="5.50437">
        <ele>280.8</ele>
        <time>2022-02-24T09:27:59Z</time>
      </trkpt>
      <trkpt lat="46.27066" lon="5.50432">
        <ele>280.8</ele>
        <time>2022-02-24T09:28:00Z</time>
      </trkpt>
      <trkpt lat="46.27061" lon="5.50427">
        <ele>280.8</ele>
        <time>2022-02-24T09:28:01Z</time>
      </trkpt>
      <trkpt lat="46.27055" lon="5.50423">
        <ele>280.6</ele>
        <time>2022-02-24T09:28:02Z</time>
      </trkpt>
      <trkpt lat="46.2705" lon="5.50418">
        <ele>280.6</ele>
        <time>2022-02-24T09:28:03Z</time>
      </trkpt>
      <trkpt lat="46.27045" lon="5.50414">
        <ele>280.6</ele>
        <time>2022-02-24T09:28:04Z</time>
      </trkpt>
      <trkpt lat="46.27039" lon="5.50409">
        <ele>280.2</ele>
        <time>2022-02-24T09:28:05Z</time>
      </trkpt>
      <trkpt lat="46.27034" lon="5.50404">
        <ele>280.2</ele>
        <time>2022-02-24T09:28:06Z</time>
      </trkpt>
      <trkpt lat="46.27029" lon="5.50399">
        <ele>280</ele>
        <time>2022-02-24T09:28:07Z</time>
      </trkpt>
      <trkpt lat="46.27024" lon="5.50394">
        <ele>280</ele>
        <time>2022-02-24T09:28:08Z</time>
      </trkpt>
      <trkpt lat="46.27019" lon="5.50389">
        <ele>280</ele>
        <time>2022-02-24T09:28:09Z</time>
      </trkpt>
      <trkpt lat="46.27014" lon="5.50384">
        <ele>279.8</ele>
        <time>2022-02-24T09:28:10Z</time>
      </trkpt>
      <trkpt lat="46.27009" lon="5.50379">
        <ele>279.8</ele>
        <time>2022-02-24T09:28:11Z</time>
      </trkpt>
      <trkpt lat="46.27003" lon="5.50375">
        <ele>279.8</ele>
        <time>2022-02-24T09:28:12Z</time>
      </trkpt>
      <trkpt lat="46.26999" lon="5.50371">
        <ele>279.6</ele>
        <time>2022-02-24T09:28:13Z</time>
      </trkpt>
      <trkpt lat="46.26994" lon="5.50367">
        <ele>279.6</ele>
        <time>2022-02-24T09:28:14Z</time>
      </trkpt>
      <trkpt lat="46.26989" lon="5.50364">
        <ele>279.6</ele>
        <time>2022-02-24T09:28:15Z</time>
      </trkpt>
      <trkpt lat="46.26986" lon="5.50362">
        <ele>279.6</ele>
        <time>2022-02-24T09:28:16Z</time>
      </trkpt>
      <trkpt lat="46.26983" lon="5.50359">
        <ele>279.6</ele>
        <time>2022-02-24T09:28:17Z</time>
      </trkpt>
      <trkpt lat="46.26981" lon="5.50359">
        <ele>279.6</ele>
        <time>2022-02-24T09:28:18Z</time>
      </trkpt>
      <trkpt lat="46.2698" lon="5.5036">
        <ele>279.6</ele>
        <time>2022-02-24T09:28:19Z</time>
      </trkpt>
      <trkpt lat="46.26981" lon="5.50362">
        <ele>279.6</ele>
        <time>2022-02-24T09:28:20Z</time>
      </trkpt>
      <trkpt lat="46.26982" lon="5.50363">
        <ele>279.2</ele>
        <time>2022-02-24T09:28:21Z</time>
      </trkpt>
      <trkpt lat="46.26982" lon="5.50363">
        <ele>279.2</ele>
        <time>2022-02-24T09:28:22Z</time>
      </trkpt>
      <trkpt lat="46.26984" lon="5.50363">
        <ele>279.2</ele>
        <time>2022-02-24T09:28:23Z</time>
      </trkpt>
      <trkpt lat="46.26986" lon="5.50364">
        <ele>279.2</ele>
        <time>2022-02-24T09:28:24Z</time>
      </trkpt>
      <trkpt lat="46.26989" lon="5.50365">
        <ele>279.2</ele>
        <time>2022-02-24T09:28:25Z</time>
      </trkpt>
      <trkpt lat="46.26992" lon="5.50367">
        <ele>279.2</ele>
        <time>2022-02-24T09:28:26Z</time>
      </trkpt>
      <trkpt lat="46.26996" lon="5.50369">
        <ele>279.2</ele>
        <time>2022-02-24T09:28:27Z</time>
      </trkpt>
      <trkpt lat="46.26999" lon="5.50372">
        <ele>279.2</ele>
        <time>2022-02-24T09:28:28Z</time>
      </trkpt>
      <trkpt lat="46.27003" lon="5.50374">
        <ele>279.2</ele>
        <time>2022-02-24T09:28:29Z</time>
      </trkpt>
      <trkpt lat="46.27006" lon="5.50377">
        <ele>279.2</ele>
        <time>2022-02-24T09:28:30Z</time>
      </trkpt>
      <trkpt lat="46.2701" lon="5.50381">
        <ele>279.2</ele>
        <time>2022-02-24T09:28:31Z</time>
      </trkpt>
      <trkpt lat="46.27014" lon="5.50384">
        <ele>279.2</ele>
        <time>2022-02-24T09:28:32Z</time>
      </trkpt>
      <trkpt lat="46.27018" lon="5.50388">
        <ele>279.2</ele>
        <time>2022-02-24T09:28:33Z</time>
      </trkpt>
      <trkpt lat="46.27021" lon="5.50391">
        <ele>279.2</ele>
        <time>2022-02-24T09:28:34Z</time>
      </trkpt>
      <trkpt lat="46.27024" lon="5.50395">
        <ele>279.2</ele>
        <time>2022-02-24T09:28:35Z</time>
      </trkpt>
      <trkpt lat="46.27028" lon="5.50398">
        <ele>279.2</ele>
        <time>2022-02-24T09:28:36Z</time>
      </trkpt>
      <trkpt lat="46.27031" lon="5.50401">
        <ele>279.4</ele>
        <time>2022-02-24T09:28:37Z</time>
      </trkpt>
      <trkpt lat="46.27033" lon="5.50403">
        <ele>279.4</ele>
        <time>2022-02-24T09:28:38Z</time>
      </trkpt>
      <trkpt lat="46.27035" lon="5.50405">
        <ele>279.4</ele>
        <time>2022-02-24T09:28:39Z</time>
      </trkpt>
      <trkpt lat="46.27035" lon="5.50406">
        <ele>279.4</ele>
        <time>2022-02-24T09:28:40Z</time>
      </trkpt>
      <trkpt lat="46.27031" lon="5.504">
        <ele>280</ele>
        <time>2022-02-24T09:29:24Z</time>
      </trkpt>
      <trkpt lat="46.27029" lon="5.50398">
        <ele>280</ele>
        <time>2022-02-24T09:29:25Z</time>
      </trkpt>
      <trkpt lat="46.27026" lon="5.50395">
        <ele>280</ele>
        <time>2022-02-24T09:29:26Z</time>
      </trkpt>
      <trkpt lat="46.27023" lon="5.50392">
        <ele>279.6</ele>
        <time>2022-02-24T09:29:27Z</time>
      </trkpt>
      <trkpt lat="46.2702" lon="5.50388">
        <ele>279.6</ele>
        <time>2022-02-24T09:29:28Z</time>
      </trkpt>
      <trkpt lat="46.27017" lon="5.50384">
        <ele>279.4</ele>
        <time>2022-02-24T09:29:29Z</time>
      </trkpt>
      <trkpt lat="46.27014" lon="5.50381">
        <ele>279.4</ele>
        <time>2022-02-24T09:29:30Z</time>
      </trkpt>
      <trkpt lat="46.2701" lon="5.50378">
        <ele>279.4</ele>
        <time>2022-02-24T09:29:31Z</time>
      </trkpt>
      <trkpt lat="46.27006" lon="5.50375">
        <ele>279.4</ele>
        <time>2022-02-24T09:29:32Z</time>
      </trkpt>
      <trkpt lat="46.27002" lon="5.50371">
        <ele>279.4</ele>
        <time>2022-02-24T09:29:33Z</time>
      </trkpt>
      <trkpt lat="46.26998" lon="5.50369">
        <ele>279.4</ele>
        <time>2022-02-24T09:29:34Z</time>
      </trkpt>
      <trkpt lat="46.26994" lon="5.50367">
        <ele>279.4</ele>
        <time>2022-02-24T09:29:35Z</time>
      </trkpt>
      <trkpt lat="46.2699" lon="5.50364">
        <ele>279.4</ele>
        <time>2022-02-24T09:29:36Z</time>
      </trkpt>
      <trkpt lat="46.26985" lon="5.50362">
        <ele>279.4</ele>
        <time>2022-02-24T09:29:37Z</time>
      </trkpt>
      <trkpt lat="46.26981" lon="5.5036">
        <ele>279.4</ele>
        <time>2022-02-24T09:29:38Z</time>
      </trkpt>
      <trkpt lat="46.26977" lon="5.50358">
        <ele>279.4</ele>
        <time>2022-02-24T09:29:39Z</time>
      </trkpt>
      <trkpt lat="46.26972" lon="5.50357">
        <ele>279.4</ele>
        <time>2022-02-24T09:29:40Z</time>
      </trkpt>
      <trkpt lat="46.26968" lon="5.50356">
        <ele>279.4</ele>
        <time>2022-02-24T09:29:41Z</time>
      </trkpt>
      <trkpt lat="46.26964" lon="5.50355">
        <ele>279.8</ele>
        <time>2022-02-24T09:29:42Z</time>
      </trkpt>
      <trkpt lat="46.26959" lon="5.50354">
        <ele>279.8</ele>
        <time>2022-02-24T09:29:43Z</time>
      </trkpt>
      <trkpt lat="46.26955" lon="5.50352">
        <ele>279.8</ele>
        <time>2022-02-24T09:29:44Z</time>
      </trkpt>
      <trkpt lat="46.2695" lon="5.50351">
        <ele>280</ele>
        <time>2022-02-24T09:29:45Z</time>
      </trkpt>
      <trkpt lat="46.26946" lon="5.5035">
        <ele>280</ele>
        <time>2022-02-24T09:29:46Z</time>
      </trkpt>
      <trkpt lat="46.26942" lon="5.50348">
        <ele>280</ele>
        <time>2022-02-24T09:29:47Z</time>
      </trkpt>
      <trkpt lat="46.26937" lon="5.50346">
        <ele>280</ele>
        <time>2022-02-24T09:29:48Z</time>
      </trkpt>
      <trkpt lat="46.26933" lon="5.50345">
        <ele>280</ele>
        <time>2022-02-24T09:29:49Z</time>
      </trkpt>
      <trkpt lat="46.26928" lon="5.50344">
        <ele>280</ele>
        <time>2022-02-24T09:29:50Z</time>
      </trkpt>
      <trkpt lat="46.26923" lon="5.50342">
        <ele>280</ele>
        <time>2022-02-24T09:29:51Z</time>
      </trkpt>
      <trkpt lat="46.26919" lon="5.5034">
        <ele>280</ele>
        <time>2022-02-24T09:29:52Z</time>
      </trkpt>
      <trkpt lat="46.26914" lon="5.50339">
        <ele>280</ele>
        <time>2022-02-24T09:29:53Z</time>
      </trkpt>
      <trkpt lat="46.26909" lon="5.50337">
        <ele>280</ele>
        <time>2022-02-24T09:29:54Z</time>
      </trkpt>
      <trkpt lat="46.26904" lon="5.50335">
        <ele>280</ele>
        <time>2022-02-24T09:29:55Z</time>
      </trkpt>
      <trkpt lat="46.26899" lon="5.50334">
        <ele>280</ele>
        <time>2022-02-24T09:29:56Z</time>
      </trkpt>
      <trkpt lat="46.26894" lon="5.50331">
        <ele>280</ele>
        <time>2022-02-24T09:29:57Z</time>
      </trkpt>
      <trkpt lat="46.26889" lon="5.50329">
        <ele>280</ele>
        <time>2022-02-24T09:29:58Z</time>
      </trkpt>
      <trkpt lat="46.26884" lon="5.50327">
        <ele>280</ele>
        <time>2022-02-24T09:29:59Z</time>
      </trkpt>
      <trkpt lat="46.26879" lon="5.50325">
        <ele>280.2</ele>
        <time>2022-02-24T09:30:00Z</time>
      </trkpt>
      <trkpt lat="46.26874" lon="5.50324">
        <ele>280.2</ele>
        <time>2022-02-24T09:30:01Z</time>
      </trkpt>
      <trkpt lat="46.26869" lon="5.50323">
        <ele>280.2</ele>
        <time>2022-02-24T09:30:02Z</time>
      </trkpt>
      <trkpt lat="46.26865" lon="5.50322">
        <ele>280.2</ele>
        <time>2022-02-24T09:30:03Z</time>
      </trkpt>
      <trkpt lat="46.2686" lon="5.50321">
        <ele>280.2</ele>
        <time>2022-02-24T09:30:04Z</time>
      </trkpt>
      <trkpt lat="46.26855" lon="5.5032">
        <ele>280.2</ele>
        <time>2022-02-24T09:30:05Z</time>
      </trkpt>
      <trkpt lat="46.26851" lon="5.50319">
        <ele>280.2</ele>
        <time>2022-02-24T09:30:06Z</time>
      </trkpt>
      <trkpt lat="46.26847" lon="5.50319">
        <ele>280.4</ele>
        <time>2022-02-24T09:30:07Z</time>
      </trkpt>
      <trkpt lat="46.26843" lon="5.50318">
        <ele>280.4</ele>
        <time>2022-02-24T09:30:08Z</time>
      </trkpt>
      <trkpt lat="46.26839" lon="5.50317">
        <ele>280.6</ele>
        <time>2022-02-24T09:30:09Z</time>
      </trkpt>
      <trkpt lat="46.26836" lon="5.50317">
        <ele>280.6</ele>
        <time>2022-02-24T09:30:10Z</time>
      </trkpt>
      <trkpt lat="46.26832" lon="5.50317">
        <ele>280.6</ele>
        <time>2022-02-24T09:30:11Z</time>
      </trkpt>
      <trkpt lat="46.26828" lon="5.50316">
        <ele>280.6</ele>
        <time>2022-02-24T09:30:12Z</time>
      </trkpt>
      <trkpt lat="46.26825" lon="5.50316">
        <ele>280.6</ele>
        <time>2022-02-24T09:30:13Z</time>
      </trkpt>
      <trkpt lat="46.26821" lon="5.50316">
        <ele>280.8</ele>
        <time>2022-02-24T09:30:14Z</time>
      </trkpt>
      <trkpt lat="46.26817" lon="5.50317">
        <ele>280.8</ele>
        <time>2022-02-24T09:30:15Z</time>
      </trkpt>
      <trkpt lat="46.26813" lon="5.50317">
        <ele>281.2</ele>
        <time>2022-02-24T09:30:16Z</time>
      </trkpt>
      <trkpt lat="46.2681" lon="5.50316">
        <ele>281.2</ele>
        <time>2022-02-24T09:30:17Z</time>
      </trkpt>
      <trkpt lat="46.26807" lon="5.50316">
        <ele>281.2</ele>
        <time>2022-02-24T09:30:18Z</time>
      </trkpt>
      <trkpt lat="46.26805" lon="5.50316">
        <ele>281.4</ele>
        <time>2022-02-24T09:30:19Z</time>
      </trkpt>
      <trkpt lat="46.26802" lon="5.50316">
        <ele>281.4</ele>
        <time>2022-02-24T09:30:20Z</time>
      </trkpt>
      <trkpt lat="46.268" lon="5.50317">
        <ele>281.4</ele>
        <time>2022-02-24T09:30:21Z</time>
      </trkpt>
      <trkpt lat="46.26797" lon="5.50317">
        <ele>281.8</ele>
        <time>2022-02-24T09:30:22Z</time>
      </trkpt>
      <trkpt lat="46.26794" lon="5.50317">
        <ele>281.8</ele>
        <time>2022-02-24T09:30:23Z</time>
      </trkpt>
      <trkpt lat="46.26791" lon="5.50317">
        <ele>282</ele>
        <time>2022-02-24T09:30:24Z</time>
      </trkpt>
      <trkpt lat="46.26788" lon="5.50318">
        <ele>282</ele>
        <time>2022-02-24T09:30:25Z</time>
      </trkpt>
      <trkpt lat="46.26785" lon="5.50318">
        <ele>282.2</ele>
        <time>2022-02-24T09:30:26Z</time>
      </trkpt>
      <trkpt lat="46.26781" lon="5.50318">
        <ele>282.2</ele>
        <time>2022-02-24T09:30:27Z</time>
      </trkpt>
      <trkpt lat="46.26777" lon="5.50318">
        <ele>282.6</ele>
        <time>2022-02-24T09:30:28Z</time>
      </trkpt>
      <trkpt lat="46.26773" lon="5.50319">
        <ele>282.8</ele>
        <time>2022-02-24T09:30:29Z</time>
      </trkpt>
      <trkpt lat="46.2677" lon="5.50318">
        <ele>282.8</ele>
        <time>2022-02-24T09:30:30Z</time>
      </trkpt>
      <trkpt lat="46.26766" lon="5.50318">
        <ele>283</ele>
        <time>2022-02-24T09:30:31Z</time>
      </trkpt>
      <trkpt lat="46.26762" lon="5.50319">
        <ele>283.2</ele>
        <time>2022-02-24T09:30:32Z</time>
      </trkpt>
      <trkpt lat="46.26758" lon="5.50319">
        <ele>283.6</ele>
        <time>2022-02-24T09:30:33Z</time>
      </trkpt>
      <trkpt lat="46.26755" lon="5.50319">
        <ele>283.6</ele>
        <time>2022-02-24T09:30:34Z</time>
      </trkpt>
      <trkpt lat="46.26751" lon="5.50319">
        <ele>284</ele>
        <time>2022-02-24T09:30:35Z</time>
      </trkpt>
      <trkpt lat="46.26747" lon="5.50319">
        <ele>284.2</ele>
        <time>2022-02-24T09:30:36Z</time>
      </trkpt>
      <trkpt lat="46.26743" lon="5.50319">
        <ele>284.6</ele>
        <time>2022-02-24T09:30:37Z</time>
      </trkpt>
      <trkpt lat="46.26739" lon="5.5032">
        <ele>284.8</ele>
        <time>2022-02-24T09:30:38Z</time>
      </trkpt>
      <trkpt lat="46.26734" lon="5.5032">
        <ele>285</ele>
        <time>2022-02-24T09:30:39Z</time>
      </trkpt>
      <trkpt lat="46.2673" lon="5.50319">
        <ele>285.4</ele>
        <time>2022-02-24T09:30:40Z</time>
      </trkpt>
      <trkpt lat="46.26726" lon="5.5032">
        <ele>285.4</ele>
        <time>2022-02-24T09:30:41Z</time>
      </trkpt>
      <trkpt lat="46.26721" lon="5.5032">
        <ele>285.8</ele>
        <time>2022-02-24T09:30:42Z</time>
      </trkpt>
      <trkpt lat="46.26717" lon="5.5032">
        <ele>285.8</ele>
        <time>2022-02-24T09:30:43Z</time>
      </trkpt>
      <trkpt lat="46.26713" lon="5.50321">
        <ele>286.2</ele>
        <time>2022-02-24T09:30:44Z</time>
      </trkpt>
      <trkpt lat="46.26709" lon="5.50321">
        <ele>286.4</ele>
        <time>2022-02-24T09:30:45Z</time>
      </trkpt>
      <trkpt lat="46.26705" lon="5.50321">
        <ele>286.4</ele>
        <time>2022-02-24T09:30:46Z</time>
      </trkpt>
      <trkpt lat="46.26701" lon="5.50321">
        <ele>286.4</ele>
        <time>2022-02-24T09:30:47Z</time>
      </trkpt>
      <trkpt lat="46.26697" lon="5.50321">
        <ele>286.8</ele>
        <time>2022-02-24T09:30:48Z</time>
      </trkpt>
      <trkpt lat="46.26693" lon="5.5032">
        <ele>286.8</ele>
        <time>2022-02-24T09:30:49Z</time>
      </trkpt>
      <trkpt lat="46.26689" lon="5.5032">
        <ele>286.8</ele>
        <time>2022-02-24T09:30:50Z</time>
      </trkpt>
      <trkpt lat="46.26685" lon="5.50319">
        <ele>287</ele>
        <time>2022-02-24T09:30:51Z</time>
      </trkpt>
      <trkpt lat="46.2668" lon="5.50318">
        <ele>287</ele>
        <time>2022-02-24T09:30:52Z</time>
      </trkpt>
      <trkpt lat="46.26676" lon="5.50317">
        <ele>287.2</ele>
        <time>2022-02-24T09:30:53Z</time>
      </trkpt>
      <trkpt lat="46.26671" lon="5.50316">
        <ele>287.2</ele>
        <time>2022-02-24T09:30:54Z</time>
      </trkpt>
      <trkpt lat="46.26666" lon="5.50315">
        <ele>287.2</ele>
        <time>2022-02-24T09:30:55Z</time>
      </trkpt>
      <trkpt lat="46.26661" lon="5.50315">
        <ele>287.2</ele>
        <time>2022-02-24T09:30:56Z</time>
      </trkpt>
      <trkpt lat="46.26655" lon="5.50315">
        <ele>287.2</ele>
        <time>2022-02-24T09:30:57Z</time>
      </trkpt>
      <trkpt lat="46.2665" lon="5.50314">
        <ele>287.2</ele>
        <time>2022-02-24T09:30:58Z</time>
      </trkpt>
      <trkpt lat="46.26644" lon="5.50314">
        <ele>287.2</ele>
        <time>2022-02-24T09:30:59Z</time>
      </trkpt>
      <trkpt lat="46.26638" lon="5.50314">
        <ele>287.2</ele>
        <time>2022-02-24T09:31:00Z</time>
      </trkpt>
      <trkpt lat="46.26632" lon="5.50314">
        <ele>287</ele>
        <time>2022-02-24T09:31:01Z</time>
      </trkpt>
      <trkpt lat="46.26626" lon="5.50314">
        <ele>287</ele>
        <time>2022-02-24T09:31:02Z</time>
      </trkpt>
      <trkpt lat="46.2662" lon="5.50314">
        <ele>286.8</ele>
        <time>2022-02-24T09:31:03Z</time>
      </trkpt>
      <trkpt lat="46.26614" lon="5.50313">
        <ele>286.8</ele>
        <time>2022-02-24T09:31:04Z</time>
      </trkpt>
      <trkpt lat="46.26608" lon="5.50313">
        <ele>286.6</ele>
        <time>2022-02-24T09:31:05Z</time>
      </trkpt>
      <trkpt lat="46.26602" lon="5.50314">
        <ele>286.6</ele>
        <time>2022-02-24T09:31:06Z</time>
      </trkpt>
      <trkpt lat="46.26596" lon="5.50314">
        <ele>286.6</ele>
        <time>2022-02-24T09:31:07Z</time>
      </trkpt>
      <trkpt lat="46.2659" lon="5.50314">
        <ele>286.4</ele>
        <time>2022-02-24T09:31:08Z</time>
      </trkpt>
      <trkpt lat="46.26584" lon="5.50314">
        <ele>286.4</ele>
        <time>2022-02-24T09:31:09Z</time>
      </trkpt>
      <trkpt lat="46.26577" lon="5.50315">
        <ele>286</ele>
        <time>2022-02-24T09:31:10Z</time>
      </trkpt>
      <trkpt lat="46.26571" lon="5.50315">
        <ele>286</ele>
        <time>2022-02-24T09:31:11Z</time>
      </trkpt>
      <trkpt lat="46.26564" lon="5.50316">
        <ele>285.6</ele>
        <time>2022-02-24T09:31:12Z</time>
      </trkpt>
      <trkpt lat="46.26558" lon="5.50317">
        <ele>285.6</ele>
        <time>2022-02-24T09:31:13Z</time>
      </trkpt>
      <trkpt lat="46.26551" lon="5.50318">
        <ele>285.2</ele>
        <time>2022-02-24T09:31:14Z</time>
      </trkpt>
      <trkpt lat="46.26544" lon="5.50319">
        <ele>285.2</ele>
        <time>2022-02-24T09:31:15Z</time>
      </trkpt>
      <trkpt lat="46.26537" lon="5.5032">
        <ele>285</ele>
        <time>2022-02-24T09:31:16Z</time>
      </trkpt>
      <trkpt lat="46.2653" lon="5.50321">
        <ele>285</ele>
        <time>2022-02-24T09:31:17Z</time>
      </trkpt>
      <trkpt lat="46.26523" lon="5.50323">
        <ele>284.6</ele>
        <time>2022-02-24T09:31:18Z</time>
      </trkpt>
      <trkpt lat="46.26516" lon="5.50324">
        <ele>284.6</ele>
        <time>2022-02-24T09:31:19Z</time>
      </trkpt>
      <trkpt lat="46.26509" lon="5.50325">
        <ele>284.4</ele>
        <time>2022-02-24T09:31:20Z</time>
      </trkpt>
      <trkpt lat="46.26502" lon="5.50326">
        <ele>284</ele>
        <time>2022-02-24T09:31:21Z</time>
      </trkpt>
      <trkpt lat="46.26495" lon="5.50328">
        <ele>283.8</ele>
        <time>2022-02-24T09:31:22Z</time>
      </trkpt>
      <trkpt lat="46.26487" lon="5.5033">
        <ele>283.4</ele>
        <time>2022-02-24T09:31:23Z</time>
      </trkpt>
      <trkpt lat="46.26479" lon="5.50331">
        <ele>283</ele>
        <time>2022-02-24T09:31:24Z</time>
      </trkpt>
      <trkpt lat="46.26471" lon="5.50333">
        <ele>282.6</ele>
        <time>2022-02-24T09:31:25Z</time>
      </trkpt>
      <trkpt lat="46.26463" lon="5.50336">
        <ele>282.4</ele>
        <time>2022-02-24T09:31:26Z</time>
      </trkpt>
      <trkpt lat="46.26455" lon="5.50338">
        <ele>282</ele>
        <time>2022-02-24T09:31:27Z</time>
      </trkpt>
      <trkpt lat="46.26447" lon="5.50341">
        <ele>281.8</ele>
        <time>2022-02-24T09:31:28Z</time>
      </trkpt>
      <trkpt lat="46.26439" lon="5.50345">
        <ele>281.4</ele>
        <time>2022-02-24T09:31:29Z</time>
      </trkpt>
      <trkpt lat="46.2643" lon="5.50348">
        <ele>281.2</ele>
        <time>2022-02-24T09:31:30Z</time>
      </trkpt>
      <trkpt lat="46.26422" lon="5.50351">
        <ele>280.8</ele>
        <time>2022-02-24T09:31:31Z</time>
      </trkpt>
      <trkpt lat="46.26415" lon="5.50354">
        <ele>280.8</ele>
        <time>2022-02-24T09:31:32Z</time>
      </trkpt>
      <trkpt lat="46.26408" lon="5.50358">
        <ele>280.8</ele>
        <time>2022-02-24T09:31:33Z</time>
      </trkpt>
      <trkpt lat="46.264" lon="5.50361">
        <ele>280.8</ele>
        <time>2022-02-24T09:31:34Z</time>
      </trkpt>
      <trkpt lat="46.26393" lon="5.50364">
        <ele>280.8</ele>
        <time>2022-02-24T09:31:35Z</time>
      </trkpt>
      <trkpt lat="46.26386" lon="5.50367">
        <ele>280.8</ele>
        <time>2022-02-24T09:31:36Z</time>
      </trkpt>
      <trkpt lat="46.26379" lon="5.50369">
        <ele>280.6</ele>
        <time>2022-02-24T09:31:37Z</time>
      </trkpt>
      <trkpt lat="46.26373" lon="5.50372">
        <ele>280.6</ele>
        <time>2022-02-24T09:31:38Z</time>
      </trkpt>
      <trkpt lat="46.26366" lon="5.50374">
        <ele>280.6</ele>
        <time>2022-02-24T09:31:39Z</time>
      </trkpt>
      <trkpt lat="46.26361" lon="5.50376">
        <ele>280.6</ele>
        <time>2022-02-24T09:31:40Z</time>
      </trkpt>
      <trkpt lat="46.26355" lon="5.50378">
        <ele>280.6</ele>
        <time>2022-02-24T09:31:41Z</time>
      </trkpt>
      <trkpt lat="46.26349" lon="5.5038">
        <ele>280.8</ele>
        <time>2022-02-24T09:31:42Z</time>
      </trkpt>
      <trkpt lat="46.26344" lon="5.50381">
        <ele>280.8</ele>
        <time>2022-02-24T09:31:43Z</time>
      </trkpt>
      <trkpt lat="46.26339" lon="5.50381">
        <ele>281.2</ele>
        <time>2022-02-24T09:31:44Z</time>
      </trkpt>
      <trkpt lat="46.26334" lon="5.50382">
        <ele>281.2</ele>
        <time>2022-02-24T09:31:45Z</time>
      </trkpt>
      <trkpt lat="46.26329" lon="5.50383">
        <ele>281.4</ele>
        <time>2022-02-24T09:31:46Z</time>
      </trkpt>
      <trkpt lat="46.26324" lon="5.50384">
        <ele>281.4</ele>
        <time>2022-02-24T09:31:47Z</time>
      </trkpt>
      <trkpt lat="46.2632" lon="5.50384">
        <ele>281.8</ele>
        <time>2022-02-24T09:31:48Z</time>
      </trkpt>
      <trkpt lat="46.26315" lon="5.50384">
        <ele>282</ele>
        <time>2022-02-24T09:31:49Z</time>
      </trkpt>
      <trkpt lat="46.2631" lon="5.50384">
        <ele>282.2</ele>
        <time>2022-02-24T09:31:50Z</time>
      </trkpt>
      <trkpt lat="46.26306" lon="5.50385">
        <ele>282.6</ele>
        <time>2022-02-24T09:31:51Z</time>
      </trkpt>
      <trkpt lat="46.26301" lon="5.50386">
        <ele>283</ele>
        <time>2022-02-24T09:31:52Z</time>
      </trkpt>
      <trkpt lat="46.26297" lon="5.50387">
        <ele>283.2</ele>
        <time>2022-02-24T09:31:53Z</time>
      </trkpt>
      <trkpt lat="46.26293" lon="5.50388">
        <ele>283.6</ele>
        <time>2022-02-24T09:31:54Z</time>
      </trkpt>
      <trkpt lat="46.26289" lon="5.5039">
        <ele>283.8</ele>
        <time>2022-02-24T09:31:55Z</time>
      </trkpt>
      <trkpt lat="46.26285" lon="5.50391">
        <ele>284</ele>
        <time>2022-02-24T09:31:56Z</time>
      </trkpt>
      <trkpt lat="46.26281" lon="5.50392">
        <ele>284.2</ele>
        <time>2022-02-24T09:31:57Z</time>
      </trkpt>
      <trkpt lat="46.26277" lon="5.50393">
        <ele>284.2</ele>
        <time>2022-02-24T09:31:58Z</time>
      </trkpt>
      <trkpt lat="46.26273" lon="5.50395">
        <ele>284.6</ele>
        <time>2022-02-24T09:31:59Z</time>
      </trkpt>
      <trkpt lat="46.2627" lon="5.50396">
        <ele>284.6</ele>
        <time>2022-02-24T09:32:00Z</time>
      </trkpt>
      <trkpt lat="46.26266" lon="5.50396">
        <ele>284.8</ele>
        <time>2022-02-24T09:32:01Z</time>
      </trkpt>
      <trkpt lat="46.26263" lon="5.50397">
        <ele>285</ele>
        <time>2022-02-24T09:32:02Z</time>
      </trkpt>
      <trkpt lat="46.2626" lon="5.50398">
        <ele>285</ele>
        <time>2022-02-24T09:32:03Z</time>
      </trkpt>
      <trkpt lat="46.26257" lon="5.50398">
        <ele>285</ele>
        <time>2022-02-24T09:32:04Z</time>
      </trkpt>
      <trkpt lat="46.26255" lon="5.50399">
        <ele>285.2</ele>
        <time>2022-02-24T09:32:05Z</time>
      </trkpt>
      <trkpt lat="46.26254" lon="5.504">
        <ele>285.2</ele>
        <time>2022-02-24T09:32:06Z</time>
      </trkpt>
      <trkpt lat="46.26254" lon="5.50401">
        <ele>285.2</ele>
        <time>2022-02-24T09:32:07Z</time>
      </trkpt>
      <trkpt lat="46.26255" lon="5.50401">
        <ele>285.2</ele>
        <time>2022-02-24T09:32:08Z</time>
      </trkpt>
      <trkpt lat="46.26256" lon="5.504">
        <ele>285.2</ele>
        <time>2022-02-24T09:32:09Z</time>
      </trkpt>
      <trkpt lat="46.26258" lon="5.50399">
        <ele>285.2</ele>
        <time>2022-02-24T09:32:10Z</time>
      </trkpt>
      <trkpt lat="46.26259" lon="5.50397">
        <ele>285.2</ele>
        <time>2022-02-24T09:32:11Z</time>
      </trkpt>
      <trkpt lat="46.2626" lon="5.50396">
        <ele>285.2</ele>
        <time>2022-02-24T09:32:12Z</time>
      </trkpt>
      <trkpt lat="46.26262" lon="5.50395">
        <ele>285.2</ele>
        <time>2022-02-24T09:32:13Z</time>
      </trkpt>
      <trkpt lat="46.26264" lon="5.50394">
        <ele>285.2</ele>
        <time>2022-02-24T09:32:14Z</time>
      </trkpt>
      <trkpt lat="46.26266" lon="5.50394">
        <ele>285.2</ele>
        <time>2022-02-24T09:32:15Z</time>
      </trkpt>
      <trkpt lat="46.26267" lon="5.50395">
        <ele>285.2</ele>
        <time>2022-02-24T09:32:16Z</time>
      </trkpt>
      <trkpt lat="46.26267" lon="5.50396">
        <ele>285</ele>
        <time>2022-02-24T09:32:17Z</time>
      </trkpt>
      <trkpt lat="46.26268" lon="5.50398">
        <ele>285</ele>
        <time>2022-02-24T09:32:18Z</time>
      </trkpt>
      <trkpt lat="46.26267" lon="5.504">
        <ele>284.6</ele>
        <time>2022-02-24T09:32:19Z</time>
      </trkpt>
      <trkpt lat="46.26265" lon="5.50401">
        <ele>284.6</ele>
        <time>2022-02-24T09:32:20Z</time>
      </trkpt>
      <trkpt lat="46.26263" lon="5.50402">
        <ele>284.4</ele>
        <time>2022-02-24T09:32:21Z</time>
      </trkpt>
      <trkpt lat="46.2626" lon="5.50405">
        <ele>284.4</ele>
        <time>2022-02-24T09:32:22Z</time>
      </trkpt>
      <trkpt lat="46.26257" lon="5.50407">
        <ele>284</ele>
        <time>2022-02-24T09:32:23Z</time>
      </trkpt>
      <trkpt lat="46.26254" lon="5.5041">
        <ele>284</ele>
        <time>2022-02-24T09:32:24Z</time>
      </trkpt>
      <trkpt lat="46.26251" lon="5.50412">
        <ele>284</ele>
        <time>2022-02-24T09:32:25Z</time>
      </trkpt>
      <trkpt lat="46.26248" lon="5.50415">
        <ele>284</ele>
        <time>2022-02-24T09:32:26Z</time>
      </trkpt>
      <trkpt lat="46.26248" lon="5.50415">
        <ele>283.8</ele>
        <time>2022-02-24T09:32:27Z</time>
      </trkpt>
      <trkpt lat="46.26245" lon="5.50418">
        <ele>283.8</ele>
        <time>2022-02-24T09:32:28Z</time>
      </trkpt>
      <trkpt lat="46.26242" lon="5.50422">
        <ele>283.4</ele>
        <time>2022-02-24T09:32:29Z</time>
      </trkpt>
      <trkpt lat="46.26238" lon="5.50425">
        <ele>283.4</ele>
        <time>2022-02-24T09:32:30Z</time>
      </trkpt>
      <trkpt lat="46.26235" lon="5.50428">
        <ele>283.2</ele>
        <time>2022-02-24T09:32:31Z</time>
      </trkpt>
      <trkpt lat="46.26231" lon="5.50432">
        <ele>283</ele>
        <time>2022-02-24T09:32:32Z</time>
      </trkpt>
      <trkpt lat="46.26228" lon="5.50434">
        <ele>282.6</ele>
        <time>2022-02-24T09:32:33Z</time>
      </trkpt>
      <trkpt lat="46.26225" lon="5.50437">
        <ele>282.4</ele>
        <time>2022-02-24T09:32:34Z</time>
      </trkpt>
      <trkpt lat="46.26223" lon="5.5044">
        <ele>282.2</ele>
        <time>2022-02-24T09:32:35Z</time>
      </trkpt>
      <trkpt lat="46.26219" lon="5.50442">
        <ele>281.8</ele>
        <time>2022-02-24T09:32:36Z</time>
      </trkpt>
      <trkpt lat="46.26216" lon="5.50445">
        <ele>281.4</ele>
        <time>2022-02-24T09:32:37Z</time>
      </trkpt>
      <trkpt lat="46.26213" lon="5.50449">
        <ele>281</ele>
        <time>2022-02-24T09:32:38Z</time>
      </trkpt>
      <trkpt lat="46.2621" lon="5.50454">
        <ele>280.6</ele>
        <time>2022-02-24T09:32:39Z</time>
      </trkpt>
      <trkpt lat="46.26207" lon="5.50458">
        <ele>280.2</ele>
        <time>2022-02-24T09:32:40Z</time>
      </trkpt>
      <trkpt lat="46.26204" lon="5.50463">
        <ele>280</ele>
        <time>2022-02-24T09:32:41Z</time>
      </trkpt>
      <trkpt lat="46.26202" lon="5.50469">
        <ele>279.6</ele>
        <time>2022-02-24T09:32:42Z</time>
      </trkpt>
      <trkpt lat="46.26199" lon="5.50475">
        <ele>279.4</ele>
        <time>2022-02-24T09:32:43Z</time>
      </trkpt>
      <trkpt lat="46.26197" lon="5.50482">
        <ele>279.2</ele>
        <time>2022-02-24T09:32:44Z</time>
      </trkpt>
      <trkpt lat="46.26195" lon="5.50488">
        <ele>279.2</ele>
        <time>2022-02-24T09:32:45Z</time>
      </trkpt>
      <trkpt lat="46.26192" lon="5.50495">
        <ele>278.8</ele>
        <time>2022-02-24T09:32:46Z</time>
      </trkpt>
      <trkpt lat="46.26189" lon="5.505">
        <ele>278.6</ele>
        <time>2022-02-24T09:32:47Z</time>
      </trkpt>
      <trkpt lat="46.26187" lon="5.50506">
        <ele>278.6</ele>
        <time>2022-02-24T09:32:48Z</time>
      </trkpt>
      <trkpt lat="46.26185" lon="5.50511">
        <ele>278.4</ele>
        <time>2022-02-24T09:32:49Z</time>
      </trkpt>
      <trkpt lat="46.26183" lon="5.50516">
        <ele>278.4</ele>
        <time>2022-02-24T09:32:50Z</time>
      </trkpt>
      <trkpt lat="46.26181" lon="5.50521">
        <ele>278</ele>
        <time>2022-02-24T09:32:51Z</time>
      </trkpt>
      <trkpt lat="46.26179" lon="5.50524">
        <ele>278</ele>
        <time>2022-02-24T09:32:52Z</time>
      </trkpt>
      <trkpt lat="46.26177" lon="5.50527">
        <ele>278</ele>
        <time>2022-02-24T09:32:53Z</time>
      </trkpt>
      <trkpt lat="46.26177" lon="5.5053">
        <ele>278</ele>
        <time>2022-02-24T09:32:54Z</time>
      </trkpt>
      <trkpt lat="46.26178" lon="5.50532">
        <ele>277.8</ele>
        <time>2022-02-24T09:32:55Z</time>
      </trkpt>
      <trkpt lat="46.2618" lon="5.50531">
        <ele>277.8</ele>
        <time>2022-02-24T09:32:56Z</time>
      </trkpt>
      <trkpt lat="46.26181" lon="5.5053">
        <ele>277.8</ele>
        <time>2022-02-24T09:32:57Z</time>
      </trkpt>
      <trkpt lat="46.26182" lon="5.50527">
        <ele>277.8</ele>
        <time>2022-02-24T09:32:58Z</time>
      </trkpt>
      <trkpt lat="46.26182" lon="5.50524">
        <ele>277.8</ele>
        <time>2022-02-24T09:32:59Z</time>
      </trkpt>
      <trkpt lat="46.26182" lon="5.50521">
        <ele>277.8</ele>
        <time>2022-02-24T09:33:00Z</time>
      </trkpt>
      <trkpt lat="46.26182" lon="5.50517">
        <ele>277.8</ele>
        <time>2022-02-24T09:33:01Z</time>
      </trkpt>
      <trkpt lat="46.26183" lon="5.50515">
        <ele>277.8</ele>
        <time>2022-02-24T09:33:02Z</time>
      </trkpt>
      <trkpt lat="46.26184" lon="5.50512">
        <ele>277.8</ele>
        <time>2022-02-24T09:33:03Z</time>
      </trkpt>
      <trkpt lat="46.26186" lon="5.50509">
        <ele>277.8</ele>
        <time>2022-02-24T09:33:04Z</time>
      </trkpt>
      <trkpt lat="46.26187" lon="5.50505">
        <ele>277.8</ele>
        <time>2022-02-24T09:33:05Z</time>
      </trkpt>
      <trkpt lat="46.26189" lon="5.50502">
        <ele>277.8</ele>
        <time>2022-02-24T09:33:06Z</time>
      </trkpt>
      <trkpt lat="46.2619" lon="5.50498">
        <ele>277.8</ele>
        <time>2022-02-24T09:33:07Z</time>
      </trkpt>
      <trkpt lat="46.26193" lon="5.5049">
        <ele>277.8</ele>
        <time>2022-02-24T09:33:08Z</time>
      </trkpt>
      <trkpt lat="46.26194" lon="5.50486">
        <ele>277.8</ele>
        <time>2022-02-24T09:33:09Z</time>
      </trkpt>
      <trkpt lat="46.26196" lon="5.50482">
        <ele>277.8</ele>
        <time>2022-02-24T09:33:10Z</time>
      </trkpt>
      <trkpt lat="46.26198" lon="5.50477">
        <ele>277.8</ele>
        <time>2022-02-24T09:33:11Z</time>
      </trkpt>
      <trkpt lat="46.262" lon="5.50473">
        <ele>277.8</ele>
        <time>2022-02-24T09:33:12Z</time>
      </trkpt>
      <trkpt lat="46.26202" lon="5.50468">
        <ele>278.2</ele>
        <time>2022-02-24T09:33:13Z</time>
      </trkpt>
      <trkpt lat="46.26204" lon="5.50463">
        <ele>278.2</ele>
        <time>2022-02-24T09:33:14Z</time>
      </trkpt>
      <trkpt lat="46.26207" lon="5.50458">
        <ele>278.6</ele>
        <time>2022-02-24T09:33:15Z</time>
      </trkpt>
      <trkpt lat="46.2621" lon="5.50453">
        <ele>278.8</ele>
        <time>2022-02-24T09:33:16Z</time>
      </trkpt>
      <trkpt lat="46.26213" lon="5.5045">
        <ele>279.2</ele>
        <time>2022-02-24T09:33:17Z</time>
      </trkpt>
      <trkpt lat="46.26215" lon="5.50448">
        <ele>279.6</ele>
        <time>2022-02-24T09:33:18Z</time>
      </trkpt>
      <trkpt lat="46.26218" lon="5.50446">
        <ele>279.8</ele>
        <time>2022-02-24T09:33:19Z</time>
      </trkpt>
      <trkpt lat="46.26221" lon="5.50444">
        <ele>280.2</ele>
        <time>2022-02-24T09:33:20Z</time>
      </trkpt>
      <trkpt lat="46.26223" lon="5.50442">
        <ele>280.6</ele>
        <time>2022-02-24T09:33:21Z</time>
      </trkpt>
      <trkpt lat="46.26225" lon="5.5044">
        <ele>280.8</ele>
        <time>2022-02-24T09:33:22Z</time>
      </trkpt>
      <trkpt lat="46.26228" lon="5.50438">
        <ele>281.2</ele>
        <time>2022-02-24T09:33:23Z</time>
      </trkpt>
      <trkpt lat="46.2623" lon="5.50435">
        <ele>281.4</ele>
        <time>2022-02-24T09:33:24Z</time>
      </trkpt>
      <trkpt lat="46.26233" lon="5.50433">
        <ele>281.8</ele>
        <time>2022-02-24T09:33:25Z</time>
      </trkpt>
      <trkpt lat="46.26236" lon="5.5043">
        <ele>282</ele>
        <time>2022-02-24T09:33:26Z</time>
      </trkpt>
      <trkpt lat="46.2624" lon="5.50427">
        <ele>282.2</ele>
        <time>2022-02-24T09:33:27Z</time>
      </trkpt>
      <trkpt lat="46.26243" lon="5.50425">
        <ele>282.6</ele>
        <time>2022-02-24T09:33:28Z</time>
      </trkpt>
      <trkpt lat="46.26245" lon="5.50422">
        <ele>282.8</ele>
        <time>2022-02-24T09:33:29Z</time>
      </trkpt>
      <trkpt lat="46.26247" lon="5.5042">
        <ele>283</ele>
        <time>2022-02-24T09:33:30Z</time>
      </trkpt>
      <trkpt lat="46.2625" lon="5.50418">
        <ele>283</ele>
        <time>2022-02-24T09:33:31Z</time>
      </trkpt>
      <trkpt lat="46.26253" lon="5.50416">
        <ele>283.2</ele>
        <time>2022-02-24T09:33:32Z</time>
      </trkpt>
      <trkpt lat="46.26256" lon="5.50414">
        <ele>283.2</ele>
        <time>2022-02-24T09:33:33Z</time>
      </trkpt>
      <trkpt lat="46.26259" lon="5.50412">
        <ele>283.2</ele>
        <time>2022-02-24T09:33:34Z</time>
      </trkpt>
      <trkpt lat="46.26261" lon="5.5041">
        <ele>283.2</ele>
        <time>2022-02-24T09:33:35Z</time>
      </trkpt>
      <trkpt lat="46.26263" lon="5.50409">
        <ele>283.2</ele>
        <time>2022-02-24T09:33:36Z</time>
      </trkpt>
      <trkpt lat="46.26265" lon="5.50407">
        <ele>283.6</ele>
        <time>2022-02-24T09:33:37Z</time>
      </trkpt>
      <trkpt lat="46.26266" lon="5.50405">
        <ele>283.6</ele>
        <time>2022-02-24T09:33:38Z</time>
      </trkpt>
      <trkpt lat="46.26266" lon="5.50403">
        <ele>283.8</ele>
        <time>2022-02-24T09:33:39Z</time>
      </trkpt>
      <trkpt lat="46.26265" lon="5.50402">
        <ele>283.8</ele>
        <time>2022-02-24T09:33:40Z</time>
      </trkpt>
      <trkpt lat="46.26261" lon="5.50402">
        <ele>284.6</ele>
        <time>2022-02-24T09:33:43Z</time>
      </trkpt>
      <trkpt lat="46.26258" lon="5.50403">
        <ele>284.6</ele>
        <time>2022-02-24T09:33:44Z</time>
      </trkpt>
      <trkpt lat="46.26256" lon="5.50404">
        <ele>284.6</ele>
        <time>2022-02-24T09:33:45Z</time>
      </trkpt>
      <trkpt lat="46.26253" lon="5.50406">
        <ele>284.8</ele>
        <time>2022-02-24T09:33:46Z</time>
      </trkpt>
      <trkpt lat="46.26249" lon="5.50407">
        <ele>284.8</ele>
        <time>2022-02-24T09:33:47Z</time>
      </trkpt>
      <trkpt lat="46.26246" lon="5.50408">
        <ele>285</ele>
        <time>2022-02-24T09:33:48Z</time>
      </trkpt>
      <trkpt lat="46.26243" lon="5.5041">
        <ele>285</ele>
        <time>2022-02-24T09:33:49Z</time>
      </trkpt>
      <trkpt lat="46.2624" lon="5.50411">
        <ele>285</ele>
        <time>2022-02-24T09:33:50Z</time>
      </trkpt>
      <trkpt lat="46.26236" lon="5.50412">
        <ele>285.2</ele>
        <time>2022-02-24T09:33:51Z</time>
      </trkpt>
      <trkpt lat="46.26232" lon="5.50413">
        <ele>285.2</ele>
        <time>2022-02-24T09:33:52Z</time>
      </trkpt>
      <trkpt lat="46.26228" lon="5.50414">
        <ele>285.6</ele>
        <time>2022-02-24T09:33:53Z</time>
      </trkpt>
      <trkpt lat="46.26225" lon="5.50416">
        <ele>285.6</ele>
        <time>2022-02-24T09:33:54Z</time>
      </trkpt>
      <trkpt lat="46.26221" lon="5.50417">
        <ele>286</ele>
        <time>2022-02-24T09:33:55Z</time>
      </trkpt>
      <trkpt lat="46.26218" lon="5.50417">
        <ele>286</ele>
        <time>2022-02-24T09:33:56Z</time>
      </trkpt>
      <trkpt lat="46.26214" lon="5.50417">
        <ele>286.2</ele>
        <time>2022-02-24T09:33:57Z</time>
      </trkpt>
      <trkpt lat="46.2621" lon="5.50418">
        <ele>286.2</ele>
        <time>2022-02-24T09:33:58Z</time>
      </trkpt>
      <trkpt lat="46.26207" lon="5.50418">
        <ele>286.4</ele>
        <time>2022-02-24T09:33:59Z</time>
      </trkpt>
      <trkpt lat="46.26203" lon="5.50419">
        <ele>286.4</ele>
        <time>2022-02-24T09:34:00Z</time>
      </trkpt>
      <trkpt lat="46.262" lon="5.50419">
        <ele>286.4</ele>
        <time>2022-02-24T09:34:01Z</time>
      </trkpt>
      <trkpt lat="46.26196" lon="5.50419">
        <ele>286.8</ele>
        <time>2022-02-24T09:34:02Z</time>
      </trkpt>
      <trkpt lat="46.26193" lon="5.5042">
        <ele>286.8</ele>
        <time>2022-02-24T09:34:03Z</time>
      </trkpt>
      <trkpt lat="46.2619" lon="5.5042">
        <ele>286.8</ele>
        <time>2022-02-24T09:34:04Z</time>
      </trkpt>
      <trkpt lat="46.26186" lon="5.5042">
        <ele>287</ele>
        <time>2022-02-24T09:34:05Z</time>
      </trkpt>
      <trkpt lat="46.26183" lon="5.5042">
        <ele>287</ele>
        <time>2022-02-24T09:34:06Z</time>
      </trkpt>
      <trkpt lat="46.2618" lon="5.50421">
        <ele>287.4</ele>
        <time>2022-02-24T09:34:07Z</time>
      </trkpt>
      <trkpt lat="46.26177" lon="5.50421">
        <ele>287.4</ele>
        <time>2022-02-24T09:34:08Z</time>
      </trkpt>
      <trkpt lat="46.26174" lon="5.50421">
        <ele>287.8</ele>
        <time>2022-02-24T09:34:09Z</time>
      </trkpt>
      <trkpt lat="46.26171" lon="5.5042">
        <ele>287.8</ele>
        <time>2022-02-24T09:34:10Z</time>
      </trkpt>
      <trkpt lat="46.26168" lon="5.5042">
        <ele>288</ele>
        <time>2022-02-24T09:34:11Z</time>
      </trkpt>
      <trkpt lat="46.26164" lon="5.50421">
        <ele>288</ele>
        <time>2022-02-24T09:34:12Z</time>
      </trkpt>
      <trkpt lat="46.26161" lon="5.50421">
        <ele>288.4</ele>
        <time>2022-02-24T09:34:13Z</time>
      </trkpt>
      <trkpt lat="46.26157" lon="5.50421">
        <ele>288.6</ele>
        <time>2022-02-24T09:34:14Z</time>
      </trkpt>
      <trkpt lat="46.26154" lon="5.50421">
        <ele>288.6</ele>
        <time>2022-02-24T09:34:15Z</time>
      </trkpt>
      <trkpt lat="46.2615" lon="5.50421">
        <ele>289</ele>
        <time>2022-02-24T09:34:16Z</time>
      </trkpt>
      <trkpt lat="46.26147" lon="5.50422">
        <ele>289</ele>
        <time>2022-02-24T09:34:17Z</time>
      </trkpt>
      <trkpt lat="46.26143" lon="5.50422">
        <ele>289.2</ele>
        <time>2022-02-24T09:34:18Z</time>
      </trkpt>
      <trkpt lat="46.26139" lon="5.50422">
        <ele>289.2</ele>
        <time>2022-02-24T09:34:19Z</time>
      </trkpt>
      <trkpt lat="46.26136" lon="5.50422">
        <ele>289.6</ele>
        <time>2022-02-24T09:34:20Z</time>
      </trkpt>
      <trkpt lat="46.26133" lon="5.50422">
        <ele>289.6</ele>
        <time>2022-02-24T09:34:21Z</time>
      </trkpt>
      <trkpt lat="46.2613" lon="5.50422">
        <ele>289.8</ele>
        <time>2022-02-24T09:34:22Z</time>
      </trkpt>
      <trkpt lat="46.26127" lon="5.50421">
        <ele>289.8</ele>
        <time>2022-02-24T09:34:23Z</time>
      </trkpt>
      <trkpt lat="46.26123" lon="5.50421">
        <ele>290.2</ele>
        <time>2022-02-24T09:34:24Z</time>
      </trkpt>
      <trkpt lat="46.2612" lon="5.5042">
        <ele>290.2</ele>
        <time>2022-02-24T09:34:25Z</time>
      </trkpt>
      <trkpt lat="46.26117" lon="5.5042">
        <ele>290.6</ele>
        <time>2022-02-24T09:34:26Z</time>
      </trkpt>
      <trkpt lat="46.26114" lon="5.5042">
        <ele>291</ele>
        <time>2022-02-24T09:34:27Z</time>
      </trkpt>
      <trkpt lat="46.26111" lon="5.50419">
        <ele>291</ele>
        <time>2022-02-24T09:34:28Z</time>
      </trkpt>
      <trkpt lat="46.26108" lon="5.50419">
        <ele>291.4</ele>
        <time>2022-02-24T09:34:29Z</time>
      </trkpt>
      <trkpt lat="46.26104" lon="5.50419">
        <ele>291.4</ele>
        <time>2022-02-24T09:34:30Z</time>
      </trkpt>
      <trkpt lat="46.26101" lon="5.50419">
        <ele>291.6</ele>
        <time>2022-02-24T09:34:31Z</time>
      </trkpt>
      <trkpt lat="46.26097" lon="5.50418">
        <ele>291.8</ele>
        <time>2022-02-24T09:34:32Z</time>
      </trkpt>
      <trkpt lat="46.26094" lon="5.50418">
        <ele>291.8</ele>
        <time>2022-02-24T09:34:33Z</time>
      </trkpt>
      <trkpt lat="46.2609" lon="5.50418">
        <ele>292.2</ele>
        <time>2022-02-24T09:34:34Z</time>
      </trkpt>
      <trkpt lat="46.26087" lon="5.50417">
        <ele>292.2</ele>
        <time>2022-02-24T09:34:35Z</time>
      </trkpt>
      <trkpt lat="46.26083" lon="5.50417">
        <ele>292.4</ele>
        <time>2022-02-24T09:34:36Z</time>
      </trkpt>
      <trkpt lat="46.26079" lon="5.50417">
        <ele>292.6</ele>
        <time>2022-02-24T09:34:37Z</time>
      </trkpt>
      <trkpt lat="46.26076" lon="5.50417">
        <ele>292.6</ele>
        <time>2022-02-24T09:34:38Z</time>
      </trkpt>
      <trkpt lat="46.26072" lon="5.50417">
        <ele>293</ele>
        <time>2022-02-24T09:34:39Z</time>
      </trkpt>
      <trkpt lat="46.26068" lon="5.50416">
        <ele>293</ele>
        <time>2022-02-24T09:34:40Z</time>
      </trkpt>
      <trkpt lat="46.26065" lon="5.50416">
        <ele>293.4</ele>
        <time>2022-02-24T09:34:41Z</time>
      </trkpt>
      <trkpt lat="46.26061" lon="5.50416">
        <ele>293.4</ele>
        <time>2022-02-24T09:34:42Z</time>
      </trkpt>
      <trkpt lat="46.26058" lon="5.50415">
        <ele>293.8</ele>
        <time>2022-02-24T09:34:43Z</time>
      </trkpt>
      <trkpt lat="46.26054" lon="5.50415">
        <ele>293.8</ele>
        <time>2022-02-24T09:34:44Z</time>
      </trkpt>
      <trkpt lat="46.2605" lon="5.50415">
        <ele>294</ele>
        <time>2022-02-24T09:34:45Z</time>
      </trkpt>
      <trkpt lat="46.26047" lon="5.50415">
        <ele>294</ele>
        <time>2022-02-24T09:34:46Z</time>
      </trkpt>
      <trkpt lat="46.26043" lon="5.50415">
        <ele>294.2</ele>
        <time>2022-02-24T09:34:47Z</time>
      </trkpt>
      <trkpt lat="46.2604" lon="5.50414">
        <ele>294.2</ele>
        <time>2022-02-24T09:34:48Z</time>
      </trkpt>
      <trkpt lat="46.26036" lon="5.50414">
        <ele>294.6</ele>
        <time>2022-02-24T09:34:49Z</time>
      </trkpt>
      <trkpt lat="46.26033" lon="5.50413">
        <ele>294.6</ele>
        <time>2022-02-24T09:34:50Z</time>
      </trkpt>
      <trkpt lat="46.26029" lon="5.50413">
        <ele>294.8</ele>
        <time>2022-02-24T09:34:51Z</time>
      </trkpt>
      <trkpt lat="46.26025" lon="5.50413">
        <ele>294.8</ele>
        <time>2022-02-24T09:34:52Z</time>
      </trkpt>
      <trkpt lat="46.26022" lon="5.50412">
        <ele>295.2</ele>
        <time>2022-02-24T09:34:53Z</time>
      </trkpt>
      <trkpt lat="46.26018" lon="5.50412">
        <ele>295.2</ele>
        <time>2022-02-24T09:34:54Z</time>
      </trkpt>
      <trkpt lat="46.26014" lon="5.50412">
        <ele>295.6</ele>
        <time>2022-02-24T09:34:55Z</time>
      </trkpt>
      <trkpt lat="46.2601" lon="5.50412">
        <ele>295.6</ele>
        <time>2022-02-24T09:34:56Z</time>
      </trkpt>
      <trkpt lat="46.26006" lon="5.50412">
        <ele>296</ele>
        <time>2022-02-24T09:34:57Z</time>
      </trkpt>
      <trkpt lat="46.26002" lon="5.50412">
        <ele>296</ele>
        <time>2022-02-24T09:34:58Z</time>
      </trkpt>
      <trkpt lat="46.25999" lon="5.50413">
        <ele>296</ele>
        <time>2022-02-24T09:34:59Z</time>
      </trkpt>
      <trkpt lat="46.25995" lon="5.50413">
        <ele>296.2</ele>
        <time>2022-02-24T09:35:00Z</time>
      </trkpt>
      <trkpt lat="46.2599" lon="5.50415">
        <ele>296.2</ele>
        <time>2022-02-24T09:35:01Z</time>
      </trkpt>
      <trkpt lat="46.25986" lon="5.50416">
        <ele>296.6</ele>
        <time>2022-02-24T09:35:02Z</time>
      </trkpt>
      <trkpt lat="46.25982" lon="5.50417">
        <ele>296.6</ele>
        <time>2022-02-24T09:35:03Z</time>
      </trkpt>
      <trkpt lat="46.25978" lon="5.50417">
        <ele>296.8</ele>
        <time>2022-02-24T09:35:04Z</time>
      </trkpt>
      <trkpt lat="46.25974" lon="5.50419">
        <ele>296.8</ele>
        <time>2022-02-24T09:35:05Z</time>
      </trkpt>
      <trkpt lat="46.25971" lon="5.5042">
        <ele>297.2</ele>
        <time>2022-02-24T09:35:06Z</time>
      </trkpt>
      <trkpt lat="46.25967" lon="5.50421">
        <ele>297.2</ele>
        <time>2022-02-24T09:35:07Z</time>
      </trkpt>
      <trkpt lat="46.25963" lon="5.50421">
        <ele>297.4</ele>
        <time>2022-02-24T09:35:08Z</time>
      </trkpt>
      <trkpt lat="46.25959" lon="5.50421">
        <ele>297.4</ele>
        <time>2022-02-24T09:35:09Z</time>
      </trkpt>
      <trkpt lat="46.25955" lon="5.50421">
        <ele>297.8</ele>
        <time>2022-02-24T09:35:10Z</time>
      </trkpt>
      <trkpt lat="46.25951" lon="5.50422">
        <ele>297.8</ele>
        <time>2022-02-24T09:35:11Z</time>
      </trkpt>
      <trkpt lat="46.25947" lon="5.50422">
        <ele>298.2</ele>
        <time>2022-02-24T09:35:12Z</time>
      </trkpt>
      <trkpt lat="46.25943" lon="5.50422">
        <ele>298.2</ele>
        <time>2022-02-24T09:35:13Z</time>
      </trkpt>
      <trkpt lat="46.2594" lon="5.50422">
        <ele>298.4</ele>
        <time>2022-02-24T09:35:14Z</time>
      </trkpt>
      <trkpt lat="46.25936" lon="5.50422">
        <ele>298.8</ele>
        <time>2022-02-24T09:35:15Z</time>
      </trkpt>
      <trkpt lat="46.25932" lon="5.50423">
        <ele>298.8</ele>
        <time>2022-02-24T09:35:16Z</time>
      </trkpt>
      <trkpt lat="46.25929" lon="5.50423">
        <ele>299</ele>
        <time>2022-02-24T09:35:17Z</time>
      </trkpt>
      <trkpt lat="46.25925" lon="5.50423">
        <ele>299</ele>
        <time>2022-02-24T09:35:18Z</time>
      </trkpt>
      <trkpt lat="46.25921" lon="5.50424">
        <ele>299.4</ele>
        <time>2022-02-24T09:35:19Z</time>
      </trkpt>
      <trkpt lat="46.25916" lon="5.50424">
        <ele>299.4</ele>
        <time>2022-02-24T09:35:20Z</time>
      </trkpt>
      <trkpt lat="46.25912" lon="5.50424">
        <ele>299.6</ele>
        <time>2022-02-24T09:35:21Z</time>
      </trkpt>
      <trkpt lat="46.25909" lon="5.50424">
        <ele>299.6</ele>
        <time>2022-02-24T09:35:22Z</time>
      </trkpt>
      <trkpt lat="46.25905" lon="5.50424">
        <ele>300</ele>
        <time>2022-02-24T09:35:23Z</time>
      </trkpt>
      <trkpt lat="46.25901" lon="5.50425">
        <ele>300</ele>
        <time>2022-02-24T09:35:24Z</time>
      </trkpt>
      <trkpt lat="46.25897" lon="5.50426">
        <ele>300.2</ele>
        <time>2022-02-24T09:35:25Z</time>
      </trkpt>
      <trkpt lat="46.25893" lon="5.50426">
        <ele>300.2</ele>
        <time>2022-02-24T09:35:26Z</time>
      </trkpt>
      <trkpt lat="46.2589" lon="5.50426">
        <ele>300.6</ele>
        <time>2022-02-24T09:35:27Z</time>
      </trkpt>
      <trkpt lat="46.25886" lon="5.50427">
        <ele>300.8</ele>
        <time>2022-02-24T09:35:28Z</time>
      </trkpt>
      <trkpt lat="46.25881" lon="5.50427">
        <ele>300.8</ele>
        <time>2022-02-24T09:35:29Z</time>
      </trkpt>
      <trkpt lat="46.25877" lon="5.50427">
        <ele>301</ele>
        <time>2022-02-24T09:35:30Z</time>
      </trkpt>
      <trkpt lat="46.25873" lon="5.50427">
        <ele>301</ele>
        <time>2022-02-24T09:35:31Z</time>
      </trkpt>
      <trkpt lat="46.25869" lon="5.50427">
        <ele>301.4</ele>
        <time>2022-02-24T09:35:32Z</time>
      </trkpt>
      <trkpt lat="46.25866" lon="5.50427">
        <ele>301.4</ele>
        <time>2022-02-24T09:35:33Z</time>
      </trkpt>
      <trkpt lat="46.25862" lon="5.50427">
        <ele>301.6</ele>
        <time>2022-02-24T09:35:34Z</time>
      </trkpt>
      <trkpt lat="46.25858" lon="5.50428">
        <ele>301.6</ele>
        <time>2022-02-24T09:35:35Z</time>
      </trkpt>
      <trkpt lat="46.25855" lon="5.50428">
        <ele>302</ele>
        <time>2022-02-24T09:35:36Z</time>
      </trkpt>
      <trkpt lat="46.25851" lon="5.50428">
        <ele>302</ele>
        <time>2022-02-24T09:35:37Z</time>
      </trkpt>
      <trkpt lat="46.25847" lon="5.50429">
        <ele>302.2</ele>
        <time>2022-02-24T09:35:38Z</time>
      </trkpt>
      <trkpt lat="46.25843" lon="5.50428">
        <ele>302.2</ele>
        <time>2022-02-24T09:35:39Z</time>
      </trkpt>
      <trkpt lat="46.25839" lon="5.50428">
        <ele>302.6</ele>
        <time>2022-02-24T09:35:40Z</time>
      </trkpt>
      <trkpt lat="46.25836" lon="5.50428">
        <ele>302.6</ele>
        <time>2022-02-24T09:35:41Z</time>
      </trkpt>
      <trkpt lat="46.25833" lon="5.50428">
        <ele>303</ele>
        <time>2022-02-24T09:35:42Z</time>
      </trkpt>
      <trkpt lat="46.25829" lon="5.50429">
        <ele>303</ele>
        <time>2022-02-24T09:35:43Z</time>
      </trkpt>
      <trkpt lat="46.25826" lon="5.50429">
        <ele>303.2</ele>
        <time>2022-02-24T09:35:44Z</time>
      </trkpt>
      <trkpt lat="46.25823" lon="5.50429">
        <ele>303.2</ele>
        <time>2022-02-24T09:35:45Z</time>
      </trkpt>
      <trkpt lat="46.25819" lon="5.50428">
        <ele>303.6</ele>
        <time>2022-02-24T09:35:46Z</time>
      </trkpt>
      <trkpt lat="46.25816" lon="5.50428">
        <ele>303.6</ele>
        <time>2022-02-24T09:35:47Z</time>
      </trkpt>
      <trkpt lat="46.25813" lon="5.50429">
        <ele>303.8</ele>
        <time>2022-02-24T09:35:48Z</time>
      </trkpt>
      <trkpt lat="46.25809" lon="5.50429">
        <ele>303.8</ele>
        <time>2022-02-24T09:35:49Z</time>
      </trkpt>
      <trkpt lat="46.25806" lon="5.50429">
        <ele>304.2</ele>
        <time>2022-02-24T09:35:50Z</time>
      </trkpt>
      <trkpt lat="46.25803" lon="5.50429">
        <ele>304.2</ele>
        <time>2022-02-24T09:35:51Z</time>
      </trkpt>
      <trkpt lat="46.25799" lon="5.50429">
        <ele>304.4</ele>
        <time>2022-02-24T09:35:52Z</time>
      </trkpt>
      <trkpt lat="46.25795" lon="5.50429">
        <ele>304.4</ele>
        <time>2022-02-24T09:35:53Z</time>
      </trkpt>
      <trkpt lat="46.25791" lon="5.50429">
        <ele>304.8</ele>
        <time>2022-02-24T09:35:54Z</time>
      </trkpt>
      <trkpt lat="46.25787" lon="5.50429">
        <ele>305</ele>
        <time>2022-02-24T09:35:55Z</time>
      </trkpt>
      <trkpt lat="46.25784" lon="5.50429">
        <ele>305</ele>
        <time>2022-02-24T09:35:56Z</time>
      </trkpt>
      <trkpt lat="46.2578" lon="5.50429">
        <ele>305.2</ele>
        <time>2022-02-24T09:35:57Z</time>
      </trkpt>
      <trkpt lat="46.25777" lon="5.50428">
        <ele>305.2</ele>
        <time>2022-02-24T09:35:58Z</time>
      </trkpt>
      <trkpt lat="46.25773" lon="5.50426">
        <ele>305.6</ele>
        <time>2022-02-24T09:35:59Z</time>
      </trkpt>
      <trkpt lat="46.25769" lon="5.50426">
        <ele>305.6</ele>
        <time>2022-02-24T09:36:00Z</time>
      </trkpt>
      <trkpt lat="46.25766" lon="5.50426">
        <ele>305.8</ele>
        <time>2022-02-24T09:36:01Z</time>
      </trkpt>
      <trkpt lat="46.25762" lon="5.50425">
        <ele>305.8</ele>
        <time>2022-02-24T09:36:02Z</time>
      </trkpt>
      <trkpt lat="46.25758" lon="5.50425">
        <ele>306.2</ele>
        <time>2022-02-24T09:36:03Z</time>
      </trkpt>
      <trkpt lat="46.25755" lon="5.50424">
        <ele>306.2</ele>
        <time>2022-02-24T09:36:04Z</time>
      </trkpt>
      <trkpt lat="46.25751" lon="5.50423">
        <ele>306.4</ele>
        <time>2022-02-24T09:36:05Z</time>
      </trkpt>
      <trkpt lat="46.25748" lon="5.50422">
        <ele>306.6</ele>
        <time>2022-02-24T09:36:06Z</time>
      </trkpt>
      <trkpt lat="46.25744" lon="5.50421">
        <ele>306.6</ele>
        <time>2022-02-24T09:36:07Z</time>
      </trkpt>
      <trkpt lat="46.2574" lon="5.50421">
        <ele>307</ele>
        <time>2022-02-24T09:36:08Z</time>
      </trkpt>
      <trkpt lat="46.25737" lon="5.5042">
        <ele>307</ele>
        <time>2022-02-24T09:36:09Z</time>
      </trkpt>
      <trkpt lat="46.25733" lon="5.5042">
        <ele>307.4</ele>
        <time>2022-02-24T09:36:10Z</time>
      </trkpt>
      <trkpt lat="46.2573" lon="5.50419">
        <ele>307.4</ele>
        <time>2022-02-24T09:36:11Z</time>
      </trkpt>
      <trkpt lat="46.25726" lon="5.50418">
        <ele>307.8</ele>
        <time>2022-02-24T09:36:12Z</time>
      </trkpt>
      <trkpt lat="46.25723" lon="5.50417">
        <ele>307.8</ele>
        <time>2022-02-24T09:36:13Z</time>
      </trkpt>
      <trkpt lat="46.2572" lon="5.50417">
        <ele>308</ele>
        <time>2022-02-24T09:36:14Z</time>
      </trkpt>
      <trkpt lat="46.25716" lon="5.50416">
        <ele>308</ele>
        <time>2022-02-24T09:36:15Z</time>
      </trkpt>
      <trkpt lat="46.25713" lon="5.50416">
        <ele>308.4</ele>
        <time>2022-02-24T09:36:16Z</time>
      </trkpt>
      <trkpt lat="46.2571" lon="5.50416">
        <ele>308.4</ele>
        <time>2022-02-24T09:36:17Z</time>
      </trkpt>
      <trkpt lat="46.25706" lon="5.50415">
        <ele>308.4</ele>
        <time>2022-02-24T09:36:18Z</time>
      </trkpt>
      <trkpt lat="46.25703" lon="5.50414">
        <ele>308.6</ele>
        <time>2022-02-24T09:36:19Z</time>
      </trkpt>
      <trkpt lat="46.25703" lon="5.50414">
        <ele>308.6</ele>
        <time>2022-02-24T09:36:20Z</time>
      </trkpt>
      <trkpt lat="46.25699" lon="5.50413">
        <ele>309</ele>
        <time>2022-02-24T09:36:21Z</time>
      </trkpt>
      <trkpt lat="46.25696" lon="5.50413">
        <ele>309.2</ele>
        <time>2022-02-24T09:36:22Z</time>
      </trkpt>
      <trkpt lat="46.25692" lon="5.50413">
        <ele>309.4</ele>
        <time>2022-02-24T09:36:23Z</time>
      </trkpt>
      <trkpt lat="46.25688" lon="5.50413">
        <ele>309.6</ele>
        <time>2022-02-24T09:36:24Z</time>
      </trkpt>
      <trkpt lat="46.25685" lon="5.50413">
        <ele>309.6</ele>
        <time>2022-02-24T09:36:25Z</time>
      </trkpt>
      <trkpt lat="46.25681" lon="5.50414">
        <ele>310</ele>
        <time>2022-02-24T09:36:26Z</time>
      </trkpt>
      <trkpt lat="46.25677" lon="5.50414">
        <ele>310</ele>
        <time>2022-02-24T09:36:27Z</time>
      </trkpt>
      <trkpt lat="46.25674" lon="5.50415">
        <ele>310.4</ele>
        <time>2022-02-24T09:36:28Z</time>
      </trkpt>
      <trkpt lat="46.25671" lon="5.50416">
        <ele>310.4</ele>
        <time>2022-02-24T09:36:29Z</time>
      </trkpt>
      <trkpt lat="46.25667" lon="5.50417">
        <ele>310.8</ele>
        <time>2022-02-24T09:36:30Z</time>
      </trkpt>
      <trkpt lat="46.25664" lon="5.50418">
        <ele>310.8</ele>
        <time>2022-02-24T09:36:31Z</time>
      </trkpt>
      <trkpt lat="46.25661" lon="5.50419">
        <ele>311</ele>
        <time>2022-02-24T09:36:32Z</time>
      </trkpt>
      <trkpt lat="46.25658" lon="5.5042">
        <ele>311</ele>
        <time>2022-02-24T09:36:33Z</time>
      </trkpt>
      <trkpt lat="46.25655" lon="5.5042">
        <ele>311.2</ele>
        <time>2022-02-24T09:36:34Z</time>
      </trkpt>
      <trkpt lat="46.25651" lon="5.50421">
        <ele>311.2</ele>
        <time>2022-02-24T09:36:35Z</time>
      </trkpt>
      <trkpt lat="46.25648" lon="5.50422">
        <ele>311.4</ele>
        <time>2022-02-24T09:36:36Z</time>
      </trkpt>
      <trkpt lat="46.25645" lon="5.50423">
        <ele>311.4</ele>
        <time>2022-02-24T09:36:37Z</time>
      </trkpt>
      <trkpt lat="46.25641" lon="5.50424">
        <ele>311.8</ele>
        <time>2022-02-24T09:36:38Z</time>
      </trkpt>
      <trkpt lat="46.25638" lon="5.50424">
        <ele>311.8</ele>
        <time>2022-02-24T09:36:39Z</time>
      </trkpt>
      <trkpt lat="46.25635" lon="5.50425">
        <ele>312</ele>
        <time>2022-02-24T09:36:40Z</time>
      </trkpt>
      <trkpt lat="46.25632" lon="5.50425">
        <ele>312</ele>
        <time>2022-02-24T09:36:41Z</time>
      </trkpt>
      <trkpt lat="46.25629" lon="5.50424">
        <ele>312.2</ele>
        <time>2022-02-24T09:36:42Z</time>
      </trkpt>
      <trkpt lat="46.25625" lon="5.50424">
        <ele>312.2</ele>
        <time>2022-02-24T09:36:43Z</time>
      </trkpt>
      <trkpt lat="46.25622" lon="5.50425">
        <ele>312.6</ele>
        <time>2022-02-24T09:36:44Z</time>
      </trkpt>
      <trkpt lat="46.25618" lon="5.50425">
        <ele>312.6</ele>
        <time>2022-02-24T09:36:45Z</time>
      </trkpt>
      <trkpt lat="46.25615" lon="5.50425">
        <ele>313</ele>
        <time>2022-02-24T09:36:46Z</time>
      </trkpt>
      <trkpt lat="46.25612" lon="5.50425">
        <ele>313</ele>
        <time>2022-02-24T09:36:47Z</time>
      </trkpt>
      <trkpt lat="46.25608" lon="5.50426">
        <ele>313.2</ele>
        <time>2022-02-24T09:36:48Z</time>
      </trkpt>
      <trkpt lat="46.25604" lon="5.50426">
        <ele>313.2</ele>
        <time>2022-02-24T09:36:49Z</time>
      </trkpt>
      <trkpt lat="46.25601" lon="5.50426">
        <ele>313.6</ele>
        <time>2022-02-24T09:36:50Z</time>
      </trkpt>
      <trkpt lat="46.25597" lon="5.50426">
        <ele>313.6</ele>
        <time>2022-02-24T09:36:51Z</time>
      </trkpt>
      <trkpt lat="46.25593" lon="5.50426">
        <ele>313.8</ele>
        <time>2022-02-24T09:36:52Z</time>
      </trkpt>
      <trkpt lat="46.2559" lon="5.50425">
        <ele>313.8</ele>
        <time>2022-02-24T09:36:53Z</time>
      </trkpt>
      <trkpt lat="46.25586" lon="5.50425">
        <ele>314.2</ele>
        <time>2022-02-24T09:36:54Z</time>
      </trkpt>
      <trkpt lat="46.25582" lon="5.50424">
        <ele>314.4</ele>
        <time>2022-02-24T09:36:55Z</time>
      </trkpt>
      <trkpt lat="46.25578" lon="5.50424">
        <ele>314.8</ele>
        <time>2022-02-24T09:36:56Z</time>
      </trkpt>
      <trkpt lat="46.25574" lon="5.50423">
        <ele>315</ele>
        <time>2022-02-24T09:36:57Z</time>
      </trkpt>
      <trkpt lat="46.2557" lon="5.50423">
        <ele>315</ele>
        <time>2022-02-24T09:36:58Z</time>
      </trkpt>
      <trkpt lat="46.25566" lon="5.50423">
        <ele>315.4</ele>
        <time>2022-02-24T09:36:59Z</time>
      </trkpt>
      <trkpt lat="46.25562" lon="5.50422">
        <ele>315.4</ele>
        <time>2022-02-24T09:37:00Z</time>
      </trkpt>
      <trkpt lat="46.25558" lon="5.50422">
        <ele>315.6</ele>
        <time>2022-02-24T09:37:01Z</time>
      </trkpt>
      <trkpt lat="46.25555" lon="5.50422">
        <ele>315.8</ele>
        <time>2022-02-24T09:37:02Z</time>
      </trkpt>
      <trkpt lat="46.25549" lon="5.50421">
        <ele>316</ele>
        <time>2022-02-24T09:37:03Z</time>
      </trkpt>
      <trkpt lat="46.25547" lon="5.50421">
        <ele>316</ele>
        <time>2022-02-24T09:37:04Z</time>
      </trkpt>
      <trkpt lat="46.25545" lon="5.5042">
        <ele>316.2</ele>
        <time>2022-02-24T09:37:05Z</time>
      </trkpt>
      <trkpt lat="46.25543" lon="5.5042">
        <ele>316.2</ele>
        <time>2022-02-24T09:37:06Z</time>
      </trkpt>
      <trkpt lat="46.25542" lon="5.5042">
        <ele>316.6</ele>
        <time>2022-02-24T09:37:07Z</time>
      </trkpt>
      <trkpt lat="46.25536" lon="5.50421">
        <ele>316.8</ele>
        <time>2022-02-24T09:37:58Z</time>
      </trkpt>
      <trkpt lat="46.25534" lon="5.50421">
        <ele>316.8</ele>
        <time>2022-02-24T09:37:59Z</time>
      </trkpt>
      <trkpt lat="46.25533" lon="5.5042">
        <ele>316.8</ele>
        <time>2022-02-24T09:38:00Z</time>
      </trkpt>
      <trkpt lat="46.25531" lon="5.5042">
        <ele>316.8</ele>
        <time>2022-02-24T09:38:01Z</time>
      </trkpt>
      <trkpt lat="46.25529" lon="5.50419">
        <ele>316.8</ele>
        <time>2022-02-24T09:38:02Z</time>
      </trkpt>
      <trkpt lat="46.25526" lon="5.50419">
        <ele>317</ele>
        <time>2022-02-24T09:38:03Z</time>
      </trkpt>
      <trkpt lat="46.25523" lon="5.50418">
        <ele>317</ele>
        <time>2022-02-24T09:38:04Z</time>
      </trkpt>
      <trkpt lat="46.25521" lon="5.50418">
        <ele>317.2</ele>
        <time>2022-02-24T09:38:05Z</time>
      </trkpt>
      <trkpt lat="46.25518" lon="5.50417">
        <ele>317.2</ele>
        <time>2022-02-24T09:38:06Z</time>
      </trkpt>
      <trkpt lat="46.25514" lon="5.50417">
        <ele>317.4</ele>
        <time>2022-02-24T09:38:07Z</time>
      </trkpt>
      <trkpt lat="46.25511" lon="5.50416">
        <ele>317.4</ele>
        <time>2022-02-24T09:38:08Z</time>
      </trkpt>
      <trkpt lat="46.25507" lon="5.50415">
        <ele>317.8</ele>
        <time>2022-02-24T09:38:09Z</time>
      </trkpt>
      <trkpt lat="46.25503" lon="5.50414">
        <ele>317.8</ele>
        <time>2022-02-24T09:38:10Z</time>
      </trkpt>
      <trkpt lat="46.25499" lon="5.50414">
        <ele>318.2</ele>
        <time>2022-02-24T09:38:11Z</time>
      </trkpt>
      <trkpt lat="46.25496" lon="5.50414">
        <ele>318.2</ele>
        <time>2022-02-24T09:38:12Z</time>
      </trkpt>
      <trkpt lat="46.25492" lon="5.50413">
        <ele>318.4</ele>
        <time>2022-02-24T09:38:13Z</time>
      </trkpt>
      <trkpt lat="46.25488" lon="5.50413">
        <ele>318.4</ele>
        <time>2022-02-24T09:38:14Z</time>
      </trkpt>
      <trkpt lat="46.25484" lon="5.50412">
        <ele>318.8</ele>
        <time>2022-02-24T09:38:15Z</time>
      </trkpt>
      <trkpt lat="46.25481" lon="5.5041">
        <ele>318.8</ele>
        <time>2022-02-24T09:38:16Z</time>
      </trkpt>
      <trkpt lat="46.25477" lon="5.5041">
        <ele>319</ele>
        <time>2022-02-24T09:38:17Z</time>
      </trkpt>
      <trkpt lat="46.25474" lon="5.50411">
        <ele>319</ele>
        <time>2022-02-24T09:38:18Z</time>
      </trkpt>
      <trkpt lat="46.25471" lon="5.5041">
        <ele>319.4</ele>
        <time>2022-02-24T09:38:19Z</time>
      </trkpt>
      <trkpt lat="46.25467" lon="5.50409">
        <ele>319.4</ele>
        <time>2022-02-24T09:38:20Z</time>
      </trkpt>
      <trkpt lat="46.25464" lon="5.50409">
        <ele>319.6</ele>
        <time>2022-02-24T09:38:21Z</time>
      </trkpt>
      <trkpt lat="46.2546" lon="5.50409">
        <ele>319.6</ele>
        <time>2022-02-24T09:38:22Z</time>
      </trkpt>
      <trkpt lat="46.25456" lon="5.50409">
        <ele>320</ele>
        <time>2022-02-24T09:38:23Z</time>
      </trkpt>
      <trkpt lat="46.25452" lon="5.50408">
        <ele>320.2</ele>
        <time>2022-02-24T09:38:24Z</time>
      </trkpt>
      <trkpt lat="46.25447" lon="5.50407">
        <ele>320.4</ele>
        <time>2022-02-24T09:38:25Z</time>
      </trkpt>
      <trkpt lat="46.25444" lon="5.50406">
        <ele>320.6</ele>
        <time>2022-02-24T09:38:26Z</time>
      </trkpt>
      <trkpt lat="46.2544" lon="5.50405">
        <ele>320.8</ele>
        <time>2022-02-24T09:38:27Z</time>
      </trkpt>
      <trkpt lat="46.25436" lon="5.50405">
        <ele>320.8</ele>
        <time>2022-02-24T09:38:28Z</time>
      </trkpt>
      <trkpt lat="46.25433" lon="5.50404">
        <ele>321.2</ele>
        <time>2022-02-24T09:38:29Z</time>
      </trkpt>
      <trkpt lat="46.25429" lon="5.50404">
        <ele>321.2</ele>
        <time>2022-02-24T09:38:30Z</time>
      </trkpt>
      <trkpt lat="46.25426" lon="5.50403">
        <ele>321.2</ele>
        <time>2022-02-24T09:38:31Z</time>
      </trkpt>
      <trkpt lat="46.25422" lon="5.50402">
        <ele>321.2</ele>
        <time>2022-02-24T09:38:32Z</time>
      </trkpt>
      <trkpt lat="46.25418" lon="5.50401">
        <ele>321.4</ele>
        <time>2022-02-24T09:38:33Z</time>
      </trkpt>
      <trkpt lat="46.25414" lon="5.504">
        <ele>321.4</ele>
        <time>2022-02-24T09:38:34Z</time>
      </trkpt>
      <trkpt lat="46.2541" lon="5.50399">
        <ele>321.4</ele>
        <time>2022-02-24T09:38:35Z</time>
      </trkpt>
      <trkpt lat="46.25406" lon="5.50398">
        <ele>321.4</ele>
        <time>2022-02-24T09:38:36Z</time>
      </trkpt>
      <trkpt lat="46.25402" lon="5.50397">
        <ele>321.4</ele>
        <time>2022-02-24T09:38:37Z</time>
      </trkpt>
      <trkpt lat="46.25397" lon="5.50395">
        <ele>321.4</ele>
        <time>2022-02-24T09:38:38Z</time>
      </trkpt>
      <trkpt lat="46.25393" lon="5.50394">
        <ele>321.4</ele>
        <time>2022-02-24T09:38:39Z</time>
      </trkpt>
      <trkpt lat="46.25388" lon="5.50393">
        <ele>321.4</ele>
        <time>2022-02-24T09:38:40Z</time>
      </trkpt>
      <trkpt lat="46.25383" lon="5.50392">
        <ele>321.4</ele>
        <time>2022-02-24T09:38:41Z</time>
      </trkpt>
      <trkpt lat="46.25379" lon="5.5039">
        <ele>321.4</ele>
        <time>2022-02-24T09:38:42Z</time>
      </trkpt>
      <trkpt lat="46.25374" lon="5.50388">
        <ele>321.4</ele>
        <time>2022-02-24T09:38:43Z</time>
      </trkpt>
      <trkpt lat="46.25369" lon="5.50386">
        <ele>321.2</ele>
        <time>2022-02-24T09:38:44Z</time>
      </trkpt>
      <trkpt lat="46.25364" lon="5.50383">
        <ele>321.2</ele>
        <time>2022-02-24T09:38:45Z</time>
      </trkpt>
      <trkpt lat="46.25359" lon="5.50381">
        <ele>321.2</ele>
        <time>2022-02-24T09:38:46Z</time>
      </trkpt>
      <trkpt lat="46.25354" lon="5.50379">
        <ele>321.2</ele>
        <time>2022-02-24T09:38:47Z</time>
      </trkpt>
      <trkpt lat="46.25349" lon="5.50376">
        <ele>321</ele>
        <time>2022-02-24T09:38:48Z</time>
      </trkpt>
      <trkpt lat="46.25343" lon="5.50373">
        <ele>321</ele>
        <time>2022-02-24T09:38:49Z</time>
      </trkpt>
      <trkpt lat="46.25337" lon="5.5037">
        <ele>320.8</ele>
        <time>2022-02-24T09:38:50Z</time>
      </trkpt>
      <trkpt lat="46.25332" lon="5.50366">
        <ele>320.8</ele>
        <time>2022-02-24T09:38:51Z</time>
      </trkpt>
      <trkpt lat="46.25327" lon="5.50364">
        <ele>320.8</ele>
        <time>2022-02-24T09:38:52Z</time>
      </trkpt>
      <trkpt lat="46.25321" lon="5.50361">
        <ele>320.8</ele>
        <time>2022-02-24T09:38:53Z</time>
      </trkpt>
      <trkpt lat="46.25316" lon="5.50358">
        <ele>320.8</ele>
        <time>2022-02-24T09:38:54Z</time>
      </trkpt>
      <trkpt lat="46.2531" lon="5.50355">
        <ele>320.8</ele>
        <time>2022-02-24T09:38:55Z</time>
      </trkpt>
      <trkpt lat="46.25305" lon="5.50352">
        <ele>320.8</ele>
        <time>2022-02-24T09:38:56Z</time>
      </trkpt>
      <trkpt lat="46.25299" lon="5.50349">
        <ele>320.8</ele>
        <time>2022-02-24T09:38:57Z</time>
      </trkpt>
      <trkpt lat="46.25294" lon="5.50346">
        <ele>320.8</ele>
        <time>2022-02-24T09:38:58Z</time>
      </trkpt>
      <trkpt lat="46.25289" lon="5.50343">
        <ele>320.8</ele>
        <time>2022-02-24T09:38:59Z</time>
      </trkpt>
      <trkpt lat="46.25284" lon="5.50339">
        <ele>320.8</ele>
        <time>2022-02-24T09:39:00Z</time>
      </trkpt>
      <trkpt lat="46.25279" lon="5.50336">
        <ele>320.8</ele>
        <time>2022-02-24T09:39:01Z</time>
      </trkpt>
      <trkpt lat="46.25274" lon="5.50333">
        <ele>320.8</ele>
        <time>2022-02-24T09:39:02Z</time>
      </trkpt>
      <trkpt lat="46.25268" lon="5.50329">
        <ele>320.8</ele>
        <time>2022-02-24T09:39:03Z</time>
      </trkpt>
      <trkpt lat="46.25263" lon="5.50326">
        <ele>320.8</ele>
        <time>2022-02-24T09:39:04Z</time>
      </trkpt>
      <trkpt lat="46.25258" lon="5.50323">
        <ele>320.8</ele>
        <time>2022-02-24T09:39:05Z</time>
      </trkpt>
      <trkpt lat="46.25252" lon="5.5032">
        <ele>320.8</ele>
        <time>2022-02-24T09:39:06Z</time>
      </trkpt>
      <trkpt lat="46.25246" lon="5.50316">
        <ele>320.8</ele>
        <time>2022-02-24T09:39:07Z</time>
      </trkpt>
      <trkpt lat="46.25241" lon="5.50313">
        <ele>320.4</ele>
        <time>2022-02-24T09:39:08Z</time>
      </trkpt>
      <trkpt lat="46.25235" lon="5.50308">
        <ele>320.4</ele>
        <time>2022-02-24T09:39:09Z</time>
      </trkpt>
      <trkpt lat="46.25229" lon="5.50304">
        <ele>320.4</ele>
        <time>2022-02-24T09:39:10Z</time>
      </trkpt>
      <trkpt lat="46.25223" lon="5.503">
        <ele>320.2</ele>
        <time>2022-02-24T09:39:11Z</time>
      </trkpt>
      <trkpt lat="46.25218" lon="5.50297">
        <ele>320.2</ele>
        <time>2022-02-24T09:39:12Z</time>
      </trkpt>
      <trkpt lat="46.25212" lon="5.50293">
        <ele>320.2</ele>
        <time>2022-02-24T09:39:13Z</time>
      </trkpt>
      <trkpt lat="46.25206" lon="5.50289">
        <ele>320</ele>
        <time>2022-02-24T09:39:14Z</time>
      </trkpt>
      <trkpt lat="46.25201" lon="5.50285">
        <ele>320</ele>
        <time>2022-02-24T09:39:15Z</time>
      </trkpt>
      <trkpt lat="46.25195" lon="5.50282">
        <ele>320</ele>
        <time>2022-02-24T09:39:16Z</time>
      </trkpt>
      <trkpt lat="46.2519" lon="5.50278">
        <ele>320</ele>
        <time>2022-02-24T09:39:17Z</time>
      </trkpt>
      <trkpt lat="46.25184" lon="5.50275">
        <ele>320</ele>
        <time>2022-02-24T09:39:18Z</time>
      </trkpt>
      <trkpt lat="46.25179" lon="5.50272">
        <ele>320</ele>
        <time>2022-02-24T09:39:19Z</time>
      </trkpt>
      <trkpt lat="46.25174" lon="5.50268">
        <ele>320</ele>
        <time>2022-02-24T09:39:20Z</time>
      </trkpt>
      <trkpt lat="46.25169" lon="5.50265">
        <ele>320</ele>
        <time>2022-02-24T09:39:21Z</time>
      </trkpt>
      <trkpt lat="46.25164" lon="5.50261">
        <ele>320</ele>
        <time>2022-02-24T09:39:22Z</time>
      </trkpt>
      <trkpt lat="46.25158" lon="5.50258">
        <ele>320</ele>
        <time>2022-02-24T09:39:23Z</time>
      </trkpt>
      <trkpt lat="46.25153" lon="5.50254">
        <ele>320</ele>
        <time>2022-02-24T09:39:24Z</time>
      </trkpt>
      <trkpt lat="46.25148" lon="5.5025">
        <ele>320</ele>
        <time>2022-02-24T09:39:25Z</time>
      </trkpt>
      <trkpt lat="46.25143" lon="5.50246">
        <ele>320</ele>
        <time>2022-02-24T09:39:26Z</time>
      </trkpt>
      <trkpt lat="46.25138" lon="5.50242">
        <ele>320</ele>
        <time>2022-02-24T09:39:27Z</time>
      </trkpt>
      <trkpt lat="46.25133" lon="5.50238">
        <ele>320</ele>
        <time>2022-02-24T09:39:28Z</time>
      </trkpt>
      <trkpt lat="46.25128" lon="5.50235">
        <ele>319.8</ele>
        <time>2022-02-24T09:39:29Z</time>
      </trkpt>
      <trkpt lat="46.25122" lon="5.50231">
        <ele>319.8</ele>
        <time>2022-02-24T09:39:30Z</time>
      </trkpt>
      <trkpt lat="46.25117" lon="5.50227">
        <ele>319.8</ele>
        <time>2022-02-24T09:39:31Z</time>
      </trkpt>
      <trkpt lat="46.25112" lon="5.50222">
        <ele>319.8</ele>
        <time>2022-02-24T09:39:32Z</time>
      </trkpt>
      <trkpt lat="46.25107" lon="5.50218">
        <ele>319.8</ele>
        <time>2022-02-24T09:39:33Z</time>
      </trkpt>
      <trkpt lat="46.25101" lon="5.50215">
        <ele>319.8</ele>
        <time>2022-02-24T09:39:34Z</time>
      </trkpt>
      <trkpt lat="46.25096" lon="5.50211">
        <ele>319.8</ele>
        <time>2022-02-24T09:39:35Z</time>
      </trkpt>
      <trkpt lat="46.2509" lon="5.50207">
        <ele>319.8</ele>
        <time>2022-02-24T09:39:36Z</time>
      </trkpt>
      <trkpt lat="46.25085" lon="5.50203">
        <ele>319.8</ele>
        <time>2022-02-24T09:39:37Z</time>
      </trkpt>
      <trkpt lat="46.2508" lon="5.50199">
        <ele>319.8</ele>
        <time>2022-02-24T09:39:38Z</time>
      </trkpt>
      <trkpt lat="46.25075" lon="5.50195">
        <ele>319.8</ele>
        <time>2022-02-24T09:39:39Z</time>
      </trkpt>
      <trkpt lat="46.2507" lon="5.50191">
        <ele>319.8</ele>
        <time>2022-02-24T09:39:40Z</time>
      </trkpt>
      <trkpt lat="46.25065" lon="5.50187">
        <ele>319.8</ele>
        <time>2022-02-24T09:39:41Z</time>
      </trkpt>
      <trkpt lat="46.2506" lon="5.50183">
        <ele>319.8</ele>
        <time>2022-02-24T09:39:42Z</time>
      </trkpt>
      <trkpt lat="46.25055" lon="5.5018">
        <ele>319.8</ele>
        <time>2022-02-24T09:39:43Z</time>
      </trkpt>
      <trkpt lat="46.2505" lon="5.50176">
        <ele>319.8</ele>
        <time>2022-02-24T09:39:44Z</time>
      </trkpt>
      <trkpt lat="46.25045" lon="5.50172">
        <ele>319.8</ele>
        <time>2022-02-24T09:39:45Z</time>
      </trkpt>
      <trkpt lat="46.2504" lon="5.50169">
        <ele>319.8</ele>
        <time>2022-02-24T09:39:46Z</time>
      </trkpt>
      <trkpt lat="46.25035" lon="5.50166">
        <ele>319.8</ele>
        <time>2022-02-24T09:39:47Z</time>
      </trkpt>
      <trkpt lat="46.2503" lon="5.50163">
        <ele>319.8</ele>
        <time>2022-02-24T09:39:48Z</time>
      </trkpt>
      <trkpt lat="46.25025" lon="5.50159">
        <ele>319.8</ele>
        <time>2022-02-24T09:39:49Z</time>
      </trkpt>
      <trkpt lat="46.2502" lon="5.50156">
        <ele>319.6</ele>
        <time>2022-02-24T09:39:50Z</time>
      </trkpt>
      <trkpt lat="46.25015" lon="5.50151">
        <ele>319.6</ele>
        <time>2022-02-24T09:39:51Z</time>
      </trkpt>
      <trkpt lat="46.25011" lon="5.50147">
        <ele>319.2</ele>
        <time>2022-02-24T09:39:52Z</time>
      </trkpt>
      <trkpt lat="46.25007" lon="5.50142">
        <ele>319.2</ele>
        <time>2022-02-24T09:39:53Z</time>
      </trkpt>
      <trkpt lat="46.25002" lon="5.50138">
        <ele>319</ele>
        <time>2022-02-24T09:39:54Z</time>
      </trkpt>
      <trkpt lat="46.24997" lon="5.50135">
        <ele>319</ele>
        <time>2022-02-24T09:39:55Z</time>
      </trkpt>
      <trkpt lat="46.24993" lon="5.50132">
        <ele>319</ele>
        <time>2022-02-24T09:39:56Z</time>
      </trkpt>
      <trkpt lat="46.24988" lon="5.50128">
        <ele>318.8</ele>
        <time>2022-02-24T09:39:57Z</time>
      </trkpt>
      <trkpt lat="46.24984" lon="5.50124">
        <ele>318.8</ele>
        <time>2022-02-24T09:39:58Z</time>
      </trkpt>
      <trkpt lat="46.24979" lon="5.5012">
        <ele>318.8</ele>
        <time>2022-02-24T09:39:59Z</time>
      </trkpt>
      <trkpt lat="46.24975" lon="5.50116">
        <ele>318.8</ele>
        <time>2022-02-24T09:40:00Z</time>
      </trkpt>
      <trkpt lat="46.24971" lon="5.50112">
        <ele>318.8</ele>
        <time>2022-02-24T09:40:01Z</time>
      </trkpt>
      <trkpt lat="46.24966" lon="5.50109">
        <ele>319</ele>
        <time>2022-02-24T09:40:02Z</time>
      </trkpt>
      <trkpt lat="46.24961" lon="5.50106">
        <ele>319</ele>
        <time>2022-02-24T09:40:03Z</time>
      </trkpt>
      <trkpt lat="46.24957" lon="5.50103">
        <ele>319</ele>
        <time>2022-02-24T09:40:04Z</time>
      </trkpt>
      <trkpt lat="46.24952" lon="5.501">
        <ele>319</ele>
        <time>2022-02-24T09:40:05Z</time>
      </trkpt>
      <trkpt lat="46.24948" lon="5.50097">
        <ele>319</ele>
        <time>2022-02-24T09:40:06Z</time>
      </trkpt>
      <trkpt lat="46.24943" lon="5.50095">
        <ele>319</ele>
        <time>2022-02-24T09:40:07Z</time>
      </trkpt>
      <trkpt lat="46.24938" lon="5.50092">
        <ele>319</ele>
        <time>2022-02-24T09:40:08Z</time>
      </trkpt>
      <trkpt lat="46.24933" lon="5.50089">
        <ele>319</ele>
        <time>2022-02-24T09:40:09Z</time>
      </trkpt>
      <trkpt lat="46.24928" lon="5.50087">
        <ele>319</ele>
        <time>2022-02-24T09:40:10Z</time>
      </trkpt>
      <trkpt lat="46.24923" lon="5.50084">
        <ele>318.6</ele>
        <time>2022-02-24T09:40:11Z</time>
      </trkpt>
      <trkpt lat="46.24918" lon="5.50081">
        <ele>318.6</ele>
        <time>2022-02-24T09:40:12Z</time>
      </trkpt>
      <trkpt lat="46.24912" lon="5.50079">
        <ele>318.6</ele>
        <time>2022-02-24T09:40:13Z</time>
      </trkpt>
      <trkpt lat="46.24908" lon="5.50077">
        <ele>318.6</ele>
        <time>2022-02-24T09:40:14Z</time>
      </trkpt>
      <trkpt lat="46.24904" lon="5.50074">
        <ele>318.6</ele>
        <time>2022-02-24T09:40:15Z</time>
      </trkpt>
      <trkpt lat="46.249" lon="5.50071">
        <ele>318.6</ele>
        <time>2022-02-24T09:40:16Z</time>
      </trkpt>
      <trkpt lat="46.24896" lon="5.50068">
        <ele>318.4</ele>
        <time>2022-02-24T09:40:17Z</time>
      </trkpt>
      <trkpt lat="46.24892" lon="5.50065">
        <ele>318.4</ele>
        <time>2022-02-24T09:40:18Z</time>
      </trkpt>
      <trkpt lat="46.24888" lon="5.50061">
        <ele>318.4</ele>
        <time>2022-02-24T09:40:19Z</time>
      </trkpt>
      <trkpt lat="46.24884" lon="5.50056">
        <ele>318.4</ele>
        <time>2022-02-24T09:40:20Z</time>
      </trkpt>
      <trkpt lat="46.2488" lon="5.50051">
        <ele>318</ele>
        <time>2022-02-24T09:40:21Z</time>
      </trkpt>
      <trkpt lat="46.24877" lon="5.50047">
        <ele>318</ele>
        <time>2022-02-24T09:40:22Z</time>
      </trkpt>
      <trkpt lat="46.24873" lon="5.50042">
        <ele>317.4</ele>
        <time>2022-02-24T09:40:23Z</time>
      </trkpt>
      <trkpt lat="46.24869" lon="5.50037">
        <ele>317.4</ele>
        <time>2022-02-24T09:40:24Z</time>
      </trkpt>
      <trkpt lat="46.24866" lon="5.50033">
        <ele>317.4</ele>
        <time>2022-02-24T09:40:25Z</time>
      </trkpt>
      <trkpt lat="46.24863" lon="5.50028">
        <ele>317.4</ele>
        <time>2022-02-24T09:40:26Z</time>
      </trkpt>
      <trkpt lat="46.2486" lon="5.50025">
        <ele>317.4</ele>
        <time>2022-02-24T09:40:27Z</time>
      </trkpt>
      <trkpt lat="46.24858" lon="5.50022">
        <ele>317.4</ele>
        <time>2022-02-24T09:40:28Z</time>
      </trkpt>
      <trkpt lat="46.24857" lon="5.5002">
        <ele>317.8</ele>
        <time>2022-02-24T09:40:29Z</time>
      </trkpt>
      <trkpt lat="46.24856" lon="5.50019">
        <ele>317.8</ele>
        <time>2022-02-24T09:40:30Z</time>
      </trkpt>
      <trkpt lat="46.24856" lon="5.50018">
        <ele>317.8</ele>
        <time>2022-02-24T09:40:31Z</time>
      </trkpt>
      <trkpt lat="46.24857" lon="5.50023">
        <ele>317.8</ele>
        <time>2022-02-24T09:40:40Z</time>
      </trkpt>
      <trkpt lat="46.24859" lon="5.50024">
        <ele>317.8</ele>
        <time>2022-02-24T09:40:41Z</time>
      </trkpt>
      <trkpt lat="46.24861" lon="5.50026">
        <ele>317.8</ele>
        <time>2022-02-24T09:40:42Z</time>
      </trkpt>
      <trkpt lat="46.24862" lon="5.50029">
        <ele>318</ele>
        <time>2022-02-24T09:40:43Z</time>
      </trkpt>
      <trkpt lat="46.24864" lon="5.50032">
        <ele>318</ele>
        <time>2022-02-24T09:40:44Z</time>
      </trkpt>
      <trkpt lat="46.24864" lon="5.50034">
        <ele>318</ele>
        <time>2022-02-24T09:40:45Z</time>
      </trkpt>
      <trkpt lat="46.24864" lon="5.50037">
        <ele>318</ele>
        <time>2022-02-24T09:40:46Z</time>
      </trkpt>
      <trkpt lat="46.24863" lon="5.5004">
        <ele>318</ele>
        <time>2022-02-24T09:40:47Z</time>
      </trkpt>
      <trkpt lat="46.2486" lon="5.50041">
        <ele>318</ele>
        <time>2022-02-24T09:40:48Z</time>
      </trkpt>
      <trkpt lat="46.24858" lon="5.5004">
        <ele>318</ele>
        <time>2022-02-24T09:40:49Z</time>
      </trkpt>
      <trkpt lat="46.24855" lon="5.50038">
        <ele>318</ele>
        <time>2022-02-24T09:40:50Z</time>
      </trkpt>
      <trkpt lat="46.24853" lon="5.50035">
        <ele>317.8</ele>
        <time>2022-02-24T09:40:51Z</time>
      </trkpt>
      <trkpt lat="46.2485" lon="5.50032">
        <ele>317.8</ele>
        <time>2022-02-24T09:40:52Z</time>
      </trkpt>
      <trkpt lat="46.24847" lon="5.50029">
        <ele>317.4</ele>
        <time>2022-02-24T09:40:53Z</time>
      </trkpt>
      <trkpt lat="46.24843" lon="5.50026">
        <ele>317.4</ele>
        <time>2022-02-24T09:40:54Z</time>
      </trkpt>
      <trkpt lat="46.2484" lon="5.50022">
        <ele>317</ele>
        <time>2022-02-24T09:40:55Z</time>
      </trkpt>
      <trkpt lat="46.24836" lon="5.50017">
        <ele>317</ele>
        <time>2022-02-24T09:40:56Z</time>
      </trkpt>
      <trkpt lat="46.24832" lon="5.50012">
        <ele>316.6</ele>
        <time>2022-02-24T09:40:57Z</time>
      </trkpt>
      <trkpt lat="46.24828" lon="5.50008">
        <ele>316.6</ele>
        <time>2022-02-24T09:40:58Z</time>
      </trkpt>
      <trkpt lat="46.24823" lon="5.50004">
        <ele>316.4</ele>
        <time>2022-02-24T09:40:59Z</time>
      </trkpt>
      <trkpt lat="46.24818" lon="5.49999">
        <ele>316.4</ele>
        <time>2022-02-24T09:41:00Z</time>
      </trkpt>
      <trkpt lat="46.24813" lon="5.49995">
        <ele>316.2</ele>
        <time>2022-02-24T09:41:01Z</time>
      </trkpt>
      <trkpt lat="46.24808" lon="5.49991">
        <ele>316.2</ele>
        <time>2022-02-24T09:41:02Z</time>
      </trkpt>
      <trkpt lat="46.24803" lon="5.49986">
        <ele>315.8</ele>
        <time>2022-02-24T09:41:03Z</time>
      </trkpt>
      <trkpt lat="46.24797" lon="5.49981">
        <ele>315.8</ele>
        <time>2022-02-24T09:41:04Z</time>
      </trkpt>
      <trkpt lat="46.24792" lon="5.49976">
        <ele>315.4</ele>
        <time>2022-02-24T09:41:05Z</time>
      </trkpt>
      <trkpt lat="46.24786" lon="5.49971">
        <ele>315.2</ele>
        <time>2022-02-24T09:41:06Z</time>
      </trkpt>
      <trkpt lat="46.2478" lon="5.49966">
        <ele>315</ele>
        <time>2022-02-24T09:41:07Z</time>
      </trkpt>
      <trkpt lat="46.24774" lon="5.49961">
        <ele>315</ele>
        <time>2022-02-24T09:41:08Z</time>
      </trkpt>
      <trkpt lat="46.24768" lon="5.49956">
        <ele>314.8</ele>
        <time>2022-02-24T09:41:09Z</time>
      </trkpt>
      <trkpt lat="46.24761" lon="5.49952">
        <ele>314.8</ele>
        <time>2022-02-24T09:41:10Z</time>
      </trkpt>
      <trkpt lat="46.24755" lon="5.49948">
        <ele>314.4</ele>
        <time>2022-02-24T09:41:11Z</time>
      </trkpt>
      <trkpt lat="46.24749" lon="5.49943">
        <ele>314.4</ele>
        <time>2022-02-24T09:41:12Z</time>
      </trkpt>
      <trkpt lat="46.24742" lon="5.49939">
        <ele>314.2</ele>
        <time>2022-02-24T09:41:13Z</time>
      </trkpt>
      <trkpt lat="46.24736" lon="5.49935">
        <ele>314.2</ele>
        <time>2022-02-24T09:41:14Z</time>
      </trkpt>
      <trkpt lat="46.2473" lon="5.49931">
        <ele>314</ele>
        <time>2022-02-24T09:41:15Z</time>
      </trkpt>
      <trkpt lat="46.24723" lon="5.49928">
        <ele>314</ele>
        <time>2022-02-24T09:41:16Z</time>
      </trkpt>
      <trkpt lat="46.24716" lon="5.49925">
        <ele>314</ele>
        <time>2022-02-24T09:41:17Z</time>
      </trkpt>
      <trkpt lat="46.24709" lon="5.49922">
        <ele>314</ele>
        <time>2022-02-24T09:41:18Z</time>
      </trkpt>
      <trkpt lat="46.24703" lon="5.49918">
        <ele>313.6</ele>
        <time>2022-02-24T09:41:19Z</time>
      </trkpt>
      <trkpt lat="46.24696" lon="5.49915">
        <ele>313.4</ele>
        <time>2022-02-24T09:41:20Z</time>
      </trkpt>
      <trkpt lat="46.24689" lon="5.49911">
        <ele>313.2</ele>
        <time>2022-02-24T09:41:21Z</time>
      </trkpt>
      <trkpt lat="46.24682" lon="5.49906">
        <ele>313</ele>
        <time>2022-02-24T09:41:22Z</time>
      </trkpt>
      <trkpt lat="46.24675" lon="5.49902">
        <ele>312.6</ele>
        <time>2022-02-24T09:41:23Z</time>
      </trkpt>
      <trkpt lat="46.24669" lon="5.49897">
        <ele>312.4</ele>
        <time>2022-02-24T09:41:24Z</time>
      </trkpt>
      <trkpt lat="46.24663" lon="5.49893">
        <ele>312.4</ele>
        <time>2022-02-24T09:41:25Z</time>
      </trkpt>
      <trkpt lat="46.24656" lon="5.49889">
        <ele>312.4</ele>
        <time>2022-02-24T09:41:26Z</time>
      </trkpt>
      <trkpt lat="46.2465" lon="5.49884">
        <ele>312.4</ele>
        <time>2022-02-24T09:41:27Z</time>
      </trkpt>
      <trkpt lat="46.24645" lon="5.49879">
        <ele>312.4</ele>
        <time>2022-02-24T09:41:28Z</time>
      </trkpt>
      <trkpt lat="46.24639" lon="5.49875">
        <ele>312</ele>
        <time>2022-02-24T09:41:29Z</time>
      </trkpt>
      <trkpt lat="46.24634" lon="5.49869">
        <ele>312</ele>
        <time>2022-02-24T09:41:30Z</time>
      </trkpt>
      <trkpt lat="46.2463" lon="5.49864">
        <ele>311.6</ele>
        <time>2022-02-24T09:41:31Z</time>
      </trkpt>
      <trkpt lat="46.24625" lon="5.49858">
        <ele>311.6</ele>
        <time>2022-02-24T09:41:32Z</time>
      </trkpt>
      <trkpt lat="46.2462" lon="5.49853">
        <ele>311.6</ele>
        <time>2022-02-24T09:41:33Z</time>
      </trkpt>
      <trkpt lat="46.24615" lon="5.49848">
        <ele>311.4</ele>
        <time>2022-02-24T09:41:34Z</time>
      </trkpt>
      <trkpt lat="46.2461" lon="5.49842">
        <ele>311.4</ele>
        <time>2022-02-24T09:41:35Z</time>
      </trkpt>
      <trkpt lat="46.24605" lon="5.49837">
        <ele>311.4</ele>
        <time>2022-02-24T09:41:36Z</time>
      </trkpt>
      <trkpt lat="46.246" lon="5.49832">
        <ele>311.4</ele>
        <time>2022-02-24T09:41:37Z</time>
      </trkpt>
      <trkpt lat="46.24594" lon="5.49826">
        <ele>311.2</ele>
        <time>2022-02-24T09:41:38Z</time>
      </trkpt>
      <trkpt lat="46.24589" lon="5.49821">
        <ele>311.2</ele>
        <time>2022-02-24T09:41:39Z</time>
      </trkpt>
      <trkpt lat="46.24583" lon="5.49815">
        <ele>311.2</ele>
        <time>2022-02-24T09:41:40Z</time>
      </trkpt>
      <trkpt lat="46.24577" lon="5.4981">
        <ele>311</ele>
        <time>2022-02-24T09:41:41Z</time>
      </trkpt>
      <trkpt lat="46.24571" lon="5.49805">
        <ele>311</ele>
        <time>2022-02-24T09:41:42Z</time>
      </trkpt>
      <trkpt lat="46.24565" lon="5.49799">
        <ele>310.6</ele>
        <time>2022-02-24T09:41:43Z</time>
      </trkpt>
      <trkpt lat="46.24559" lon="5.49792">
        <ele>310.4</ele>
        <time>2022-02-24T09:41:44Z</time>
      </trkpt>
      <trkpt lat="46.24553" lon="5.49785">
        <ele>309.8</ele>
        <time>2022-02-24T09:41:45Z</time>
      </trkpt>
      <trkpt lat="46.24548" lon="5.49777">
        <ele>309.4</ele>
        <time>2022-02-24T09:41:46Z</time>
      </trkpt>
      <trkpt lat="46.24542" lon="5.49769">
        <ele>309</ele>
        <time>2022-02-24T09:41:47Z</time>
      </trkpt>
      <trkpt lat="46.24538" lon="5.4976">
        <ele>308.6</ele>
        <time>2022-02-24T09:41:48Z</time>
      </trkpt>
      <trkpt lat="46.24533" lon="5.4975">
        <ele>308.2</ele>
        <time>2022-02-24T09:41:49Z</time>
      </trkpt>
      <trkpt lat="46.24529" lon="5.49739">
        <ele>308</ele>
        <time>2022-02-24T09:41:50Z</time>
      </trkpt>
      <trkpt lat="46.24526" lon="5.49728">
        <ele>307.6</ele>
        <time>2022-02-24T09:41:51Z</time>
      </trkpt>
      <trkpt lat="46.24522" lon="5.49717">
        <ele>307.2</ele>
        <time>2022-02-24T09:41:52Z</time>
      </trkpt>
      <trkpt lat="46.24519" lon="5.49707">
        <ele>306.8</ele>
        <time>2022-02-24T09:41:53Z</time>
      </trkpt>
      <trkpt lat="46.24515" lon="5.49696">
        <ele>306.4</ele>
        <time>2022-02-24T09:41:54Z</time>
      </trkpt>
      <trkpt lat="46.24512" lon="5.49685">
        <ele>306</ele>
        <time>2022-02-24T09:41:55Z</time>
      </trkpt>
      <trkpt lat="46.2451" lon="5.49674">
        <ele>305.6</ele>
        <time>2022-02-24T09:41:56Z</time>
      </trkpt>
      <trkpt lat="46.24507" lon="5.49664">
        <ele>305.2</ele>
        <time>2022-02-24T09:41:57Z</time>
      </trkpt>
      <trkpt lat="46.24504" lon="5.49654">
        <ele>305</ele>
        <time>2022-02-24T09:41:58Z</time>
      </trkpt>
      <trkpt lat="46.245" lon="5.49645">
        <ele>304.6</ele>
        <time>2022-02-24T09:41:59Z</time>
      </trkpt>
      <trkpt lat="46.24496" lon="5.49635">
        <ele>304.4</ele>
        <time>2022-02-24T09:42:00Z</time>
      </trkpt>
      <trkpt lat="46.24493" lon="5.49624">
        <ele>304</ele>
        <time>2022-02-24T09:42:01Z</time>
      </trkpt>
      <trkpt lat="46.24488" lon="5.49614">
        <ele>303.6</ele>
        <time>2022-02-24T09:42:02Z</time>
      </trkpt>
      <trkpt lat="46.24483" lon="5.49604">
        <ele>303.2</ele>
        <time>2022-02-24T09:42:03Z</time>
      </trkpt>
      <trkpt lat="46.24478" lon="5.49595">
        <ele>302.8</ele>
        <time>2022-02-24T09:42:04Z</time>
      </trkpt>
      <trkpt lat="46.24473" lon="5.49585">
        <ele>302.2</ele>
        <time>2022-02-24T09:42:05Z</time>
      </trkpt>
      <trkpt lat="46.24467" lon="5.49576">
        <ele>301.8</ele>
        <time>2022-02-24T09:42:06Z</time>
      </trkpt>
      <trkpt lat="46.2446" lon="5.49568">
        <ele>301.4</ele>
        <time>2022-02-24T09:42:07Z</time>
      </trkpt>
      <trkpt lat="46.24452" lon="5.49561">
        <ele>301</ele>
        <time>2022-02-24T09:42:08Z</time>
      </trkpt>
      <trkpt lat="46.24445" lon="5.49553">
        <ele>300.4</ele>
        <time>2022-02-24T09:42:09Z</time>
      </trkpt>
      <trkpt lat="46.24437" lon="5.49546">
        <ele>299.8</ele>
        <time>2022-02-24T09:42:10Z</time>
      </trkpt>
      <trkpt lat="46.24429" lon="5.49539">
        <ele>299.4</ele>
        <time>2022-02-24T09:42:11Z</time>
      </trkpt>
      <trkpt lat="46.24421" lon="5.49533">
        <ele>299.4</ele>
        <time>2022-02-24T09:42:12Z</time>
      </trkpt>
      <trkpt lat="46.24413" lon="5.49526">
        <ele>299</ele>
        <time>2022-02-24T09:42:13Z</time>
      </trkpt>
      <trkpt lat="46.24405" lon="5.49518">
        <ele>298.6</ele>
        <time>2022-02-24T09:42:14Z</time>
      </trkpt>
      <trkpt lat="46.24398" lon="5.49511">
        <ele>298.2</ele>
        <time>2022-02-24T09:42:15Z</time>
      </trkpt>
      <trkpt lat="46.2439" lon="5.49504">
        <ele>297.8</ele>
        <time>2022-02-24T09:42:16Z</time>
      </trkpt>
      <trkpt lat="46.24382" lon="5.49497">
        <ele>297.4</ele>
        <time>2022-02-24T09:42:17Z</time>
      </trkpt>
      <trkpt lat="46.24374" lon="5.4949">
        <ele>297.2</ele>
        <time>2022-02-24T09:42:18Z</time>
      </trkpt>
      <trkpt lat="46.24367" lon="5.49483">
        <ele>296.6</ele>
        <time>2022-02-24T09:42:19Z</time>
      </trkpt>
      <trkpt lat="46.2436" lon="5.49474">
        <ele>296.2</ele>
        <time>2022-02-24T09:42:20Z</time>
      </trkpt>
      <trkpt lat="46.24353" lon="5.49464">
        <ele>295.6</ele>
        <time>2022-02-24T09:42:21Z</time>
      </trkpt>
      <trkpt lat="46.24346" lon="5.49454">
        <ele>295</ele>
        <time>2022-02-24T09:42:22Z</time>
      </trkpt>
      <trkpt lat="46.2434" lon="5.49443">
        <ele>294.4</ele>
        <time>2022-02-24T09:42:23Z</time>
      </trkpt>
      <trkpt lat="46.24333" lon="5.49432">
        <ele>294</ele>
        <time>2022-02-24T09:42:24Z</time>
      </trkpt>
      <trkpt lat="46.24327" lon="5.49422">
        <ele>293.4</ele>
        <time>2022-02-24T09:42:25Z</time>
      </trkpt>
      <trkpt lat="46.2432" lon="5.4941">
        <ele>292.6</ele>
        <time>2022-02-24T09:42:26Z</time>
      </trkpt>
      <trkpt lat="46.24314" lon="5.49399">
        <ele>292.2</ele>
        <time>2022-02-24T09:42:27Z</time>
      </trkpt>
      <trkpt lat="46.24308" lon="5.49388">
        <ele>291.6</ele>
        <time>2022-02-24T09:42:28Z</time>
      </trkpt>
      <trkpt lat="46.24303" lon="5.49375">
        <ele>291</ele>
        <time>2022-02-24T09:42:29Z</time>
      </trkpt>
      <trkpt lat="46.24298" lon="5.49361">
        <ele>290.4</ele>
        <time>2022-02-24T09:42:30Z</time>
      </trkpt>
      <trkpt lat="46.24294" lon="5.49349">
        <ele>289.8</ele>
        <time>2022-02-24T09:42:31Z</time>
      </trkpt>
      <trkpt lat="46.24289" lon="5.49335">
        <ele>289.2</ele>
        <time>2022-02-24T09:42:32Z</time>
      </trkpt>
      <trkpt lat="46.24284" lon="5.49321">
        <ele>288.8</ele>
        <time>2022-02-24T09:42:33Z</time>
      </trkpt>
      <trkpt lat="46.24279" lon="5.49307">
        <ele>288.4</ele>
        <time>2022-02-24T09:42:34Z</time>
      </trkpt>
      <trkpt lat="46.24274" lon="5.49292">
        <ele>288</ele>
        <time>2022-02-24T09:42:35Z</time>
      </trkpt>
      <trkpt lat="46.2427" lon="5.49279">
        <ele>287.6</ele>
        <time>2022-02-24T09:42:36Z</time>
      </trkpt>
      <trkpt lat="46.24265" lon="5.49266">
        <ele>287</ele>
        <time>2022-02-24T09:42:37Z</time>
      </trkpt>
      <trkpt lat="46.2426" lon="5.49253">
        <ele>286.6</ele>
        <time>2022-02-24T09:42:38Z</time>
      </trkpt>
      <trkpt lat="46.24255" lon="5.4924">
        <ele>286</ele>
        <time>2022-02-24T09:42:39Z</time>
      </trkpt>
      <trkpt lat="46.24249" lon="5.49227">
        <ele>285.6</ele>
        <time>2022-02-24T09:42:40Z</time>
      </trkpt>
      <trkpt lat="46.24242" lon="5.49215">
        <ele>285</ele>
        <time>2022-02-24T09:42:41Z</time>
      </trkpt>
      <trkpt lat="46.24234" lon="5.49203">
        <ele>284.4</ele>
        <time>2022-02-24T09:42:42Z</time>
      </trkpt>
      <trkpt lat="46.24226" lon="5.49192">
        <ele>283.6</ele>
        <time>2022-02-24T09:42:43Z</time>
      </trkpt>
      <trkpt lat="46.24217" lon="5.49182">
        <ele>283</ele>
        <time>2022-02-24T09:42:44Z</time>
      </trkpt>
      <trkpt lat="46.24208" lon="5.49172">
        <ele>282.2</ele>
        <time>2022-02-24T09:42:45Z</time>
      </trkpt>
      <trkpt lat="46.24199" lon="5.49162">
        <ele>281.4</ele>
        <time>2022-02-24T09:42:46Z</time>
      </trkpt>
      <trkpt lat="46.2419" lon="5.49151">
        <ele>280.8</ele>
        <time>2022-02-24T09:42:47Z</time>
      </trkpt>
      <trkpt lat="46.2418" lon="5.49142">
        <ele>280</ele>
        <time>2022-02-24T09:42:48Z</time>
      </trkpt>
      <trkpt lat="46.24171" lon="5.49132">
        <ele>279.2</ele>
        <time>2022-02-24T09:42:49Z</time>
      </trkpt>
      <trkpt lat="46.24161" lon="5.49123">
        <ele>278.6</ele>
        <time>2022-02-24T09:42:50Z</time>
      </trkpt>
      <trkpt lat="46.24152" lon="5.49114">
        <ele>278</ele>
        <time>2022-02-24T09:42:51Z</time>
      </trkpt>
      <trkpt lat="46.24142" lon="5.49105">
        <ele>277.2</ele>
        <time>2022-02-24T09:42:52Z</time>
      </trkpt>
      <trkpt lat="46.24133" lon="5.49096">
        <ele>276.6</ele>
        <time>2022-02-24T09:42:53Z</time>
      </trkpt>
      <trkpt lat="46.24123" lon="5.49087">
        <ele>275.2</ele>
        <time>2022-02-24T09:42:54Z</time>
      </trkpt>
      <trkpt lat="46.24113" lon="5.49078">
        <ele>274.8</ele>
        <time>2022-02-24T09:42:55Z</time>
      </trkpt>
      <trkpt lat="46.24104" lon="5.49069">
        <ele>274.4</ele>
        <time>2022-02-24T09:42:56Z</time>
      </trkpt>
      <trkpt lat="46.24095" lon="5.4906">
        <ele>274.2</ele>
        <time>2022-02-24T09:42:57Z</time>
      </trkpt>
      <trkpt lat="46.24087" lon="5.49052">
        <ele>274.2</ele>
        <time>2022-02-24T09:42:58Z</time>
      </trkpt>
      <trkpt lat="46.24078" lon="5.49045">
        <ele>273.8</ele>
        <time>2022-02-24T09:42:59Z</time>
      </trkpt>
      <trkpt lat="46.2407" lon="5.49039">
        <ele>273.8</ele>
        <time>2022-02-24T09:43:00Z</time>
      </trkpt>
      <trkpt lat="46.24062" lon="5.49034">
        <ele>273.8</ele>
        <time>2022-02-24T09:43:01Z</time>
      </trkpt>
      <trkpt lat="46.24053" lon="5.4903">
        <ele>273.8</ele>
        <time>2022-02-24T09:43:02Z</time>
      </trkpt>
      <trkpt lat="46.24045" lon="5.49026">
        <ele>273.8</ele>
        <time>2022-02-24T09:43:03Z</time>
      </trkpt>
      <trkpt lat="46.24036" lon="5.49023">
        <ele>273.8</ele>
        <time>2022-02-24T09:43:04Z</time>
      </trkpt>
      <trkpt lat="46.24028" lon="5.4902">
        <ele>273.8</ele>
        <time>2022-02-24T09:43:05Z</time>
      </trkpt>
      <trkpt lat="46.24019" lon="5.49017">
        <ele>273.8</ele>
        <time>2022-02-24T09:43:06Z</time>
      </trkpt>
      <trkpt lat="46.24011" lon="5.49014">
        <ele>273.8</ele>
        <time>2022-02-24T09:43:07Z</time>
      </trkpt>
      <trkpt lat="46.24003" lon="5.49012">
        <ele>273.8</ele>
        <time>2022-02-24T09:43:08Z</time>
      </trkpt>
      <trkpt lat="46.23995" lon="5.4901">
        <ele>273.8</ele>
        <time>2022-02-24T09:43:09Z</time>
      </trkpt>
      <trkpt lat="46.23988" lon="5.49009">
        <ele>273.8</ele>
        <time>2022-02-24T09:43:10Z</time>
      </trkpt>
      <trkpt lat="46.2398" lon="5.49008">
        <ele>273.8</ele>
        <time>2022-02-24T09:43:11Z</time>
      </trkpt>
      <trkpt lat="46.23972" lon="5.49006">
        <ele>273.8</ele>
        <time>2022-02-24T09:43:12Z</time>
      </trkpt>
      <trkpt lat="46.23964" lon="5.49005">
        <ele>273.8</ele>
        <time>2022-02-24T09:43:13Z</time>
      </trkpt>
      <trkpt lat="46.23957" lon="5.49003">
        <ele>273.8</ele>
        <time>2022-02-24T09:43:14Z</time>
      </trkpt>
      <trkpt lat="46.23949" lon="5.49001">
        <ele>273.8</ele>
        <time>2022-02-24T09:43:15Z</time>
      </trkpt>
      <trkpt lat="46.23942" lon="5.49">
        <ele>273.8</ele>
        <time>2022-02-24T09:43:16Z</time>
      </trkpt>
      <trkpt lat="46.23935" lon="5.48999">
        <ele>273.8</ele>
        <time>2022-02-24T09:43:17Z</time>
      </trkpt>
      <trkpt lat="46.23927" lon="5.48997">
        <ele>273.8</ele>
        <time>2022-02-24T09:43:18Z</time>
      </trkpt>
      <trkpt lat="46.2392" lon="5.48997">
        <ele>273.8</ele>
        <time>2022-02-24T09:43:19Z</time>
      </trkpt>
      <trkpt lat="46.23913" lon="5.48996">
        <ele>273.8</ele>
        <time>2022-02-24T09:43:20Z</time>
      </trkpt>
      <trkpt lat="46.23906" lon="5.48995">
        <ele>273.8</ele>
        <time>2022-02-24T09:43:21Z</time>
      </trkpt>
      <trkpt lat="46.23899" lon="5.48993">
        <ele>273.8</ele>
        <time>2022-02-24T09:43:22Z</time>
      </trkpt>
      <trkpt lat="46.23893" lon="5.48991">
        <ele>273.8</ele>
        <time>2022-02-24T09:43:23Z</time>
      </trkpt>
      <trkpt lat="46.23886" lon="5.4899">
        <ele>273.8</ele>
        <time>2022-02-24T09:43:24Z</time>
      </trkpt>
      <trkpt lat="46.23879" lon="5.48989">
        <ele>273.8</ele>
        <time>2022-02-24T09:43:25Z</time>
      </trkpt>
      <trkpt lat="46.23872" lon="5.48988">
        <ele>273.8</ele>
        <time>2022-02-24T09:43:26Z</time>
      </trkpt>
      <trkpt lat="46.23866" lon="5.48987">
        <ele>273.8</ele>
        <time>2022-02-24T09:43:27Z</time>
      </trkpt>
      <trkpt lat="46.23859" lon="5.48985">
        <ele>273.8</ele>
        <time>2022-02-24T09:43:28Z</time>
      </trkpt>
      <trkpt lat="46.23853" lon="5.48984">
        <ele>273.8</ele>
        <time>2022-02-24T09:43:29Z</time>
      </trkpt>
      <trkpt lat="46.23846" lon="5.48983">
        <ele>274</ele>
        <time>2022-02-24T09:43:30Z</time>
      </trkpt>
      <trkpt lat="46.2384" lon="5.48981">
        <ele>274</ele>
        <time>2022-02-24T09:43:31Z</time>
      </trkpt>
      <trkpt lat="46.23833" lon="5.4898">
        <ele>274</ele>
        <time>2022-02-24T09:43:32Z</time>
      </trkpt>
      <trkpt lat="46.23827" lon="5.48979">
        <ele>274</ele>
        <time>2022-02-24T09:43:33Z</time>
      </trkpt>
      <trkpt lat="46.2382" lon="5.48978">
        <ele>274</ele>
        <time>2022-02-24T09:43:34Z</time>
      </trkpt>
      <trkpt lat="46.23814" lon="5.48977">
        <ele>274</ele>
        <time>2022-02-24T09:43:35Z</time>
      </trkpt>
      <trkpt lat="46.23807" lon="5.48976">
        <ele>274</ele>
        <time>2022-02-24T09:43:36Z</time>
      </trkpt>
      <trkpt lat="46.238" lon="5.48975">
        <ele>274</ele>
        <time>2022-02-24T09:43:37Z</time>
      </trkpt>
      <trkpt lat="46.23794" lon="5.48975">
        <ele>274</ele>
        <time>2022-02-24T09:43:38Z</time>
      </trkpt>
      <trkpt lat="46.23787" lon="5.48975">
        <ele>274</ele>
        <time>2022-02-24T09:43:39Z</time>
      </trkpt>
      <trkpt lat="46.23781" lon="5.48975">
        <ele>274</ele>
        <time>2022-02-24T09:43:40Z</time>
      </trkpt>
      <trkpt lat="46.23774" lon="5.48976">
        <ele>274</ele>
        <time>2022-02-24T09:43:41Z</time>
      </trkpt>
      <trkpt lat="46.23768" lon="5.48976">
        <ele>274</ele>
        <time>2022-02-24T09:43:42Z</time>
      </trkpt>
      <trkpt lat="46.23763" lon="5.48976">
        <ele>274</ele>
        <time>2022-02-24T09:43:43Z</time>
      </trkpt>
      <trkpt lat="46.23757" lon="5.48975">
        <ele>274</ele>
        <time>2022-02-24T09:43:44Z</time>
      </trkpt>
      <trkpt lat="46.23751" lon="5.48974">
        <ele>274.4</ele>
        <time>2022-02-24T09:43:45Z</time>
      </trkpt>
      <trkpt lat="46.23745" lon="5.48973">
        <ele>274.6</ele>
        <time>2022-02-24T09:43:46Z</time>
      </trkpt>
      <trkpt lat="46.2374" lon="5.48972">
        <ele>274.8</ele>
        <time>2022-02-24T09:43:47Z</time>
      </trkpt>
      <trkpt lat="46.23735" lon="5.48971">
        <ele>275</ele>
        <time>2022-02-24T09:43:48Z</time>
      </trkpt>
      <trkpt lat="46.2373" lon="5.48971">
        <ele>275.4</ele>
        <time>2022-02-24T09:43:49Z</time>
      </trkpt>
      <trkpt lat="46.23726" lon="5.4897">
        <ele>275.8</ele>
        <time>2022-02-24T09:43:50Z</time>
      </trkpt>
      <trkpt lat="46.23722" lon="5.48969">
        <ele>276</ele>
        <time>2022-02-24T09:43:51Z</time>
      </trkpt>
      <trkpt lat="46.23717" lon="5.48967">
        <ele>276.4</ele>
        <time>2022-02-24T09:43:52Z</time>
      </trkpt>
      <trkpt lat="46.23713" lon="5.48966">
        <ele>276.8</ele>
        <time>2022-02-24T09:43:53Z</time>
      </trkpt>
      <trkpt lat="46.23708" lon="5.48966">
        <ele>277</ele>
        <time>2022-02-24T09:43:54Z</time>
      </trkpt>
      <trkpt lat="46.23704" lon="5.48966">
        <ele>277.2</ele>
        <time>2022-02-24T09:43:55Z</time>
      </trkpt>
      <trkpt lat="46.237" lon="5.48965">
        <ele>277.6</ele>
        <time>2022-02-24T09:43:56Z</time>
      </trkpt>
      <trkpt lat="46.23696" lon="5.48963">
        <ele>277.8</ele>
        <time>2022-02-24T09:43:57Z</time>
      </trkpt>
      <trkpt lat="46.23692" lon="5.48961">
        <ele>278.2</ele>
        <time>2022-02-24T09:43:58Z</time>
      </trkpt>
      <trkpt lat="46.23688" lon="5.4896">
        <ele>278.2</ele>
        <time>2022-02-24T09:43:59Z</time>
      </trkpt>
      <trkpt lat="46.23684" lon="5.48958">
        <ele>278.4</ele>
        <time>2022-02-24T09:44:00Z</time>
      </trkpt>
      <trkpt lat="46.2368" lon="5.48955">
        <ele>278.4</ele>
        <time>2022-02-24T09:44:01Z</time>
      </trkpt>
      <trkpt lat="46.23676" lon="5.48952">
        <ele>278.4</ele>
        <time>2022-02-24T09:44:02Z</time>
      </trkpt>
      <trkpt lat="46.23672" lon="5.4895">
        <ele>278.8</ele>
        <time>2022-02-24T09:44:03Z</time>
      </trkpt>
      <trkpt lat="46.23668" lon="5.48948">
        <ele>278.8</ele>
        <time>2022-02-24T09:44:04Z</time>
      </trkpt>
      <trkpt lat="46.23664" lon="5.48947">
        <ele>279.2</ele>
        <time>2022-02-24T09:44:05Z</time>
      </trkpt>
      <trkpt lat="46.2366" lon="5.48946">
        <ele>279.6</ele>
        <time>2022-02-24T09:44:06Z</time>
      </trkpt>
      <trkpt lat="46.23656" lon="5.48945">
        <ele>280</ele>
        <time>2022-02-24T09:44:07Z</time>
      </trkpt>
      <trkpt lat="46.23652" lon="5.48944">
        <ele>280.2</ele>
        <time>2022-02-24T09:44:08Z</time>
      </trkpt>
      <trkpt lat="46.23648" lon="5.48943">
        <ele>280.2</ele>
        <time>2022-02-24T09:44:09Z</time>
      </trkpt>
      <trkpt lat="46.23644" lon="5.48942">
        <ele>280.4</ele>
        <time>2022-02-24T09:44:10Z</time>
      </trkpt>
      <trkpt lat="46.2364" lon="5.48942">
        <ele>280.4</ele>
        <time>2022-02-24T09:44:11Z</time>
      </trkpt>
      <trkpt lat="46.23635" lon="5.48942">
        <ele>280.4</ele>
        <time>2022-02-24T09:44:12Z</time>
      </trkpt>
      <trkpt lat="46.23631" lon="5.48941">
        <ele>280.4</ele>
        <time>2022-02-24T09:44:13Z</time>
      </trkpt>
      <trkpt lat="46.23626" lon="5.4894">
        <ele>280.2</ele>
        <time>2022-02-24T09:44:14Z</time>
      </trkpt>
      <trkpt lat="46.23621" lon="5.48939">
        <ele>280</ele>
        <time>2022-02-24T09:44:15Z</time>
      </trkpt>
      <trkpt lat="46.23615" lon="5.48938">
        <ele>280</ele>
        <time>2022-02-24T09:44:16Z</time>
      </trkpt>
      <trkpt lat="46.23609" lon="5.48936">
        <ele>279.6</ele>
        <time>2022-02-24T09:44:17Z</time>
      </trkpt>
      <trkpt lat="46.23604" lon="5.48935">
        <ele>279.6</ele>
        <time>2022-02-24T09:44:18Z</time>
      </trkpt>
      <trkpt lat="46.23598" lon="5.48933">
        <ele>279.2</ele>
        <time>2022-02-24T09:44:19Z</time>
      </trkpt>
      <trkpt lat="46.23592" lon="5.48931">
        <ele>279</ele>
        <time>2022-02-24T09:44:20Z</time>
      </trkpt>
      <trkpt lat="46.23586" lon="5.48929">
        <ele>278.8</ele>
        <time>2022-02-24T09:44:21Z</time>
      </trkpt>
      <trkpt lat="46.2358" lon="5.48927">
        <ele>278.8</ele>
        <time>2022-02-24T09:44:22Z</time>
      </trkpt>
      <trkpt lat="46.23574" lon="5.48925">
        <ele>278.8</ele>
        <time>2022-02-24T09:44:23Z</time>
      </trkpt>
      <trkpt lat="46.23567" lon="5.48922">
        <ele>278.6</ele>
        <time>2022-02-24T09:44:24Z</time>
      </trkpt>
      <trkpt lat="46.23561" lon="5.4892">
        <ele>278.6</ele>
        <time>2022-02-24T09:44:25Z</time>
      </trkpt>
      <trkpt lat="46.23555" lon="5.48917">
        <ele>278.6</ele>
        <time>2022-02-24T09:44:26Z</time>
      </trkpt>
      <trkpt lat="46.23549" lon="5.48915">
        <ele>278.6</ele>
        <time>2022-02-24T09:44:27Z</time>
      </trkpt>
      <trkpt lat="46.23543" lon="5.48913">
        <ele>278.2</ele>
        <time>2022-02-24T09:44:28Z</time>
      </trkpt>
      <trkpt lat="46.23537" lon="5.4891">
        <ele>278.2</ele>
        <time>2022-02-24T09:44:29Z</time>
      </trkpt>
      <trkpt lat="46.23531" lon="5.48907">
        <ele>278.2</ele>
        <time>2022-02-24T09:44:30Z</time>
      </trkpt>
      <trkpt lat="46.23525" lon="5.48904">
        <ele>278.2</ele>
        <time>2022-02-24T09:44:31Z</time>
      </trkpt>
      <trkpt lat="46.23519" lon="5.48901">
        <ele>278.2</ele>
        <time>2022-02-24T09:44:32Z</time>
      </trkpt>
      <trkpt lat="46.23512" lon="5.48897">
        <ele>278</ele>
        <time>2022-02-24T09:44:33Z</time>
      </trkpt>
      <trkpt lat="46.23507" lon="5.48893">
        <ele>278</ele>
        <time>2022-02-24T09:44:34Z</time>
      </trkpt>
      <trkpt lat="46.23501" lon="5.4889">
        <ele>278</ele>
        <time>2022-02-24T09:44:35Z</time>
      </trkpt>
      <trkpt lat="46.23495" lon="5.48886">
        <ele>278</ele>
        <time>2022-02-24T09:44:36Z</time>
      </trkpt>
      <trkpt lat="46.2349" lon="5.48882">
        <ele>278</ele>
        <time>2022-02-24T09:44:37Z</time>
      </trkpt>
      <trkpt lat="46.23484" lon="5.48879">
        <ele>278</ele>
        <time>2022-02-24T09:44:38Z</time>
      </trkpt>
      <trkpt lat="46.23478" lon="5.48875">
        <ele>278</ele>
        <time>2022-02-24T09:44:39Z</time>
      </trkpt>
      <trkpt lat="46.23473" lon="5.48872">
        <ele>278</ele>
        <time>2022-02-24T09:44:40Z</time>
      </trkpt>
      <trkpt lat="46.23467" lon="5.48868">
        <ele>278</ele>
        <time>2022-02-24T09:44:41Z</time>
      </trkpt>
      <trkpt lat="46.23462" lon="5.48865">
        <ele>278</ele>
        <time>2022-02-24T09:44:42Z</time>
      </trkpt>
      <trkpt lat="46.23456" lon="5.48861">
        <ele>278</ele>
        <time>2022-02-24T09:44:43Z</time>
      </trkpt>
      <trkpt lat="46.23451" lon="5.48857">
        <ele>278.2</ele>
        <time>2022-02-24T09:44:44Z</time>
      </trkpt>
      <trkpt lat="46.23446" lon="5.48853">
        <ele>278.2</ele>
        <time>2022-02-24T09:44:45Z</time>
      </trkpt>
      <trkpt lat="46.23442" lon="5.48849">
        <ele>278.2</ele>
        <time>2022-02-24T09:44:46Z</time>
      </trkpt>
      <trkpt lat="46.23437" lon="5.48844">
        <ele>278.2</ele>
        <time>2022-02-24T09:44:47Z</time>
      </trkpt>
      <trkpt lat="46.23432" lon="5.4884">
        <ele>278.2</ele>
        <time>2022-02-24T09:44:48Z</time>
      </trkpt>
      <trkpt lat="46.23427" lon="5.48836">
        <ele>278.6</ele>
        <time>2022-02-24T09:44:49Z</time>
      </trkpt>
      <trkpt lat="46.23421" lon="5.48832">
        <ele>278.6</ele>
        <time>2022-02-24T09:44:50Z</time>
      </trkpt>
      <trkpt lat="46.23421" lon="5.48832">
        <ele>278.6</ele>
        <time>2022-02-24T09:44:51Z</time>
      </trkpt>
      <trkpt lat="46.23416" lon="5.48829">
        <ele>278.6</ele>
        <time>2022-02-24T09:44:52Z</time>
      </trkpt>
      <trkpt lat="46.23411" lon="5.48825">
        <ele>278.6</ele>
        <time>2022-02-24T09:44:53Z</time>
      </trkpt>
      <trkpt lat="46.23407" lon="5.48821">
        <ele>279</ele>
        <time>2022-02-24T09:44:54Z</time>
      </trkpt>
      <trkpt lat="46.23402" lon="5.48817">
        <ele>279</ele>
        <time>2022-02-24T09:44:55Z</time>
      </trkpt>
      <trkpt lat="46.23397" lon="5.48813">
        <ele>279</ele>
        <time>2022-02-24T09:44:56Z</time>
      </trkpt>
      <trkpt lat="46.23393" lon="5.48809">
        <ele>279.2</ele>
        <time>2022-02-24T09:44:57Z</time>
      </trkpt>
      <trkpt lat="46.23388" lon="5.48805">
        <ele>279.2</ele>
        <time>2022-02-24T09:44:58Z</time>
      </trkpt>
      <trkpt lat="46.23384" lon="5.48801">
        <ele>279.6</ele>
        <time>2022-02-24T09:44:59Z</time>
      </trkpt>
      <trkpt lat="46.2338" lon="5.48797">
        <ele>279.6</ele>
        <time>2022-02-24T09:45:00Z</time>
      </trkpt>
      <trkpt lat="46.23376" lon="5.48791">
        <ele>279.8</ele>
        <time>2022-02-24T09:45:01Z</time>
      </trkpt>
      <trkpt lat="46.23372" lon="5.48786">
        <ele>279.8</ele>
        <time>2022-02-24T09:45:02Z</time>
      </trkpt>
      <trkpt lat="46.23368" lon="5.4878">
        <ele>279.8</ele>
        <time>2022-02-24T09:45:03Z</time>
      </trkpt>
      <trkpt lat="46.23365" lon="5.48774">
        <ele>280</ele>
        <time>2022-02-24T09:45:04Z</time>
      </trkpt>
      <trkpt lat="46.23362" lon="5.48768">
        <ele>280</ele>
        <time>2022-02-24T09:45:05Z</time>
      </trkpt>
      <trkpt lat="46.23358" lon="5.48761">
        <ele>280</ele>
        <time>2022-02-24T09:45:06Z</time>
      </trkpt>
      <trkpt lat="46.23355" lon="5.48754">
        <ele>280</ele>
        <time>2022-02-24T09:45:07Z</time>
      </trkpt>
      <trkpt lat="46.23352" lon="5.48746">
        <ele>280</ele>
        <time>2022-02-24T09:45:08Z</time>
      </trkpt>
      <trkpt lat="46.2335" lon="5.48738">
        <ele>280</ele>
        <time>2022-02-24T09:45:09Z</time>
      </trkpt>
      <trkpt lat="46.23348" lon="5.4873">
        <ele>280</ele>
        <time>2022-02-24T09:45:10Z</time>
      </trkpt>
      <trkpt lat="46.23345" lon="5.48723">
        <ele>279.8</ele>
        <time>2022-02-24T09:45:11Z</time>
      </trkpt>
      <trkpt lat="46.23341" lon="5.48718">
        <ele>279.8</ele>
        <time>2022-02-24T09:45:12Z</time>
      </trkpt>
      <trkpt lat="46.23338" lon="5.48714">
        <ele>279.8</ele>
        <time>2022-02-24T09:45:13Z</time>
      </trkpt>
      <trkpt lat="46.23335" lon="5.48711">
        <ele>279.8</ele>
        <time>2022-02-24T09:45:14Z</time>
      </trkpt>
      <trkpt lat="46.2333" lon="5.48709">
        <ele>279.4</ele>
        <time>2022-02-24T09:45:15Z</time>
      </trkpt>
      <trkpt lat="46.23325" lon="5.48708">
        <ele>279.4</ele>
        <time>2022-02-24T09:45:16Z</time>
      </trkpt>
      <trkpt lat="46.23321" lon="5.48708">
        <ele>279.4</ele>
        <time>2022-02-24T09:45:17Z</time>
      </trkpt>
      <trkpt lat="46.23316" lon="5.48709">
        <ele>279.4</ele>
        <time>2022-02-24T09:45:18Z</time>
      </trkpt>
      <trkpt lat="46.23311" lon="5.48712">
        <ele>279.2</ele>
        <time>2022-02-24T09:45:19Z</time>
      </trkpt>
      <trkpt lat="46.23306" lon="5.48713">
        <ele>279.2</ele>
        <time>2022-02-24T09:45:20Z</time>
      </trkpt>
      <trkpt lat="46.233" lon="5.48713">
        <ele>279.2</ele>
        <time>2022-02-24T09:45:21Z</time>
      </trkpt>
      <trkpt lat="46.23295" lon="5.48712">
        <ele>279.2</ele>
        <time>2022-02-24T09:45:22Z</time>
      </trkpt>
      <trkpt lat="46.23289" lon="5.48711">
        <ele>279</ele>
        <time>2022-02-24T09:45:23Z</time>
      </trkpt>
      <trkpt lat="46.23282" lon="5.48709">
        <ele>279</ele>
        <time>2022-02-24T09:45:24Z</time>
      </trkpt>
      <trkpt lat="46.23276" lon="5.48708">
        <ele>278.6</ele>
        <time>2022-02-24T09:45:25Z</time>
      </trkpt>
      <trkpt lat="46.2327" lon="5.48706">
        <ele>278.4</ele>
        <time>2022-02-24T09:45:26Z</time>
      </trkpt>
      <trkpt lat="46.23263" lon="5.48704">
        <ele>278.4</ele>
        <time>2022-02-24T09:45:27Z</time>
      </trkpt>
      <trkpt lat="46.23257" lon="5.48701">
        <ele>278.2</ele>
        <time>2022-02-24T09:45:28Z</time>
      </trkpt>
      <trkpt lat="46.2325" lon="5.48698">
        <ele>278</ele>
        <time>2022-02-24T09:45:29Z</time>
      </trkpt>
      <trkpt lat="46.23243" lon="5.48694">
        <ele>277.6</ele>
        <time>2022-02-24T09:45:30Z</time>
      </trkpt>
      <trkpt lat="46.23236" lon="5.48689">
        <ele>277.4</ele>
        <time>2022-02-24T09:45:31Z</time>
      </trkpt>
      <trkpt lat="46.23222" lon="5.48679">
        <ele>277</ele>
        <time>2022-02-24T09:45:32Z</time>
      </trkpt>
      <trkpt lat="46.23215" lon="5.48674">
        <ele>276.8</ele>
        <time>2022-02-24T09:45:33Z</time>
      </trkpt>
      <trkpt lat="46.23209" lon="5.48668">
        <ele>276.8</ele>
        <time>2022-02-24T09:45:34Z</time>
      </trkpt>
      <trkpt lat="46.23203" lon="5.48663">
        <ele>276.6</ele>
        <time>2022-02-24T09:45:35Z</time>
      </trkpt>
      <trkpt lat="46.23197" lon="5.48657">
        <ele>276.6</ele>
        <time>2022-02-24T09:45:36Z</time>
      </trkpt>
      <trkpt lat="46.23191" lon="5.48651">
        <ele>276.2</ele>
        <time>2022-02-24T09:45:37Z</time>
      </trkpt>
      <trkpt lat="46.23186" lon="5.48645">
        <ele>276.2</ele>
        <time>2022-02-24T09:45:38Z</time>
      </trkpt>
      <trkpt lat="46.23181" lon="5.48639">
        <ele>276.2</ele>
        <time>2022-02-24T09:45:39Z</time>
      </trkpt>
      <trkpt lat="46.23176" lon="5.48632">
        <ele>276.2</ele>
        <time>2022-02-24T09:45:40Z</time>
      </trkpt>
      <trkpt lat="46.23171" lon="5.48626">
        <ele>276.2</ele>
        <time>2022-02-24T09:45:41Z</time>
      </trkpt>
      <trkpt lat="46.23166" lon="5.4862">
        <ele>276.2</ele>
        <time>2022-02-24T09:45:42Z</time>
      </trkpt>
      <trkpt lat="46.23161" lon="5.48614">
        <ele>276.2</ele>
        <time>2022-02-24T09:45:43Z</time>
      </trkpt>
      <trkpt lat="46.23156" lon="5.48608">
        <ele>276.2</ele>
        <time>2022-02-24T09:45:44Z</time>
      </trkpt>
      <trkpt lat="46.23151" lon="5.48602">
        <ele>276.2</ele>
        <time>2022-02-24T09:45:45Z</time>
      </trkpt>
      <trkpt lat="46.23147" lon="5.48596">
        <ele>276.2</ele>
        <time>2022-02-24T09:45:46Z</time>
      </trkpt>
      <trkpt lat="46.23142" lon="5.4859">
        <ele>276.2</ele>
        <time>2022-02-24T09:45:47Z</time>
      </trkpt>
      <trkpt lat="46.23137" lon="5.48584">
        <ele>276.2</ele>
        <time>2022-02-24T09:45:48Z</time>
      </trkpt>
      <trkpt lat="46.23132" lon="5.48578">
        <ele>276</ele>
        <time>2022-02-24T09:45:49Z</time>
      </trkpt>
      <trkpt lat="46.23128" lon="5.48572">
        <ele>276</ele>
        <time>2022-02-24T09:45:50Z</time>
      </trkpt>
      <trkpt lat="46.23124" lon="5.48566">
        <ele>275.6</ele>
        <time>2022-02-24T09:45:51Z</time>
      </trkpt>
      <trkpt lat="46.23119" lon="5.48559">
        <ele>275.6</ele>
        <time>2022-02-24T09:45:52Z</time>
      </trkpt>
      <trkpt lat="46.23115" lon="5.48553">
        <ele>275.4</ele>
        <time>2022-02-24T09:45:53Z</time>
      </trkpt>
      <trkpt lat="46.23111" lon="5.48546">
        <ele>275.4</ele>
        <time>2022-02-24T09:45:54Z</time>
      </trkpt>
      <trkpt lat="46.23106" lon="5.48539">
        <ele>275.2</ele>
        <time>2022-02-24T09:45:55Z</time>
      </trkpt>
      <trkpt lat="46.23102" lon="5.48533">
        <ele>275.2</ele>
        <time>2022-02-24T09:45:56Z</time>
      </trkpt>
      <trkpt lat="46.23098" lon="5.48526">
        <ele>275</ele>
        <time>2022-02-24T09:45:57Z</time>
      </trkpt>
      <trkpt lat="46.23094" lon="5.48519">
        <ele>275</ele>
        <time>2022-02-24T09:45:58Z</time>
      </trkpt>
      <trkpt lat="46.2309" lon="5.48512">
        <ele>274.6</ele>
        <time>2022-02-24T09:45:59Z</time>
      </trkpt>
      <trkpt lat="46.23085" lon="5.48506">
        <ele>274.4</ele>
        <time>2022-02-24T09:46:00Z</time>
      </trkpt>
      <trkpt lat="46.23081" lon="5.48499">
        <ele>274.4</ele>
        <time>2022-02-24T09:46:01Z</time>
      </trkpt>
      <trkpt lat="46.23076" lon="5.48493">
        <ele>274</ele>
        <time>2022-02-24T09:46:02Z</time>
      </trkpt>
      <trkpt lat="46.23072" lon="5.48486">
        <ele>274</ele>
        <time>2022-02-24T09:46:03Z</time>
      </trkpt>
      <trkpt lat="46.23067" lon="5.4848">
        <ele>274</ele>
        <time>2022-02-24T09:46:04Z</time>
      </trkpt>
      <trkpt lat="46.23063" lon="5.48473">
        <ele>274</ele>
        <time>2022-02-24T09:46:05Z</time>
      </trkpt>
      <trkpt lat="46.23058" lon="5.48466">
        <ele>274</ele>
        <time>2022-02-24T09:46:06Z</time>
      </trkpt>
      <trkpt lat="46.23054" lon="5.4846">
        <ele>274</ele>
        <time>2022-02-24T09:46:07Z</time>
      </trkpt>
      <trkpt lat="46.2305" lon="5.48453">
        <ele>274</ele>
        <time>2022-02-24T09:46:08Z</time>
      </trkpt>
      <trkpt lat="46.23046" lon="5.48446">
        <ele>274</ele>
        <time>2022-02-24T09:46:09Z</time>
      </trkpt>
      <trkpt lat="46.23042" lon="5.48439">
        <ele>273.8</ele>
        <time>2022-02-24T09:46:10Z</time>
      </trkpt>
      <trkpt lat="46.23038" lon="5.48433">
        <ele>273.8</ele>
        <time>2022-02-24T09:46:11Z</time>
      </trkpt>
      <trkpt lat="46.23035" lon="5.48426">
        <ele>273.8</ele>
        <time>2022-02-24T09:46:12Z</time>
      </trkpt>
      <trkpt lat="46.23031" lon="5.48419">
        <ele>273.8</ele>
        <time>2022-02-24T09:46:13Z</time>
      </trkpt>
      <trkpt lat="46.23028" lon="5.48413">
        <ele>273.8</ele>
        <time>2022-02-24T09:46:14Z</time>
      </trkpt>
      <trkpt lat="46.23025" lon="5.48408">
        <ele>273.8</ele>
        <time>2022-02-24T09:46:15Z</time>
      </trkpt>
      <trkpt lat="46.23022" lon="5.48403">
        <ele>273.8</ele>
        <time>2022-02-24T09:46:16Z</time>
      </trkpt>
      <trkpt lat="46.2302" lon="5.48398">
        <ele>273.8</ele>
        <time>2022-02-24T09:46:17Z</time>
      </trkpt>
      <trkpt lat="46.23017" lon="5.48393">
        <ele>273.8</ele>
        <time>2022-02-24T09:46:18Z</time>
      </trkpt>
      <trkpt lat="46.23015" lon="5.48389">
        <ele>273.8</ele>
        <time>2022-02-24T09:46:19Z</time>
      </trkpt>
      <trkpt lat="46.23012" lon="5.48385">
        <ele>273.8</ele>
        <time>2022-02-24T09:46:20Z</time>
      </trkpt>
      <trkpt lat="46.2301" lon="5.48381">
        <ele>273.8</ele>
        <time>2022-02-24T09:46:21Z</time>
      </trkpt>
      <trkpt lat="46.23008" lon="5.48379">
        <ele>273.8</ele>
        <time>2022-02-24T09:46:22Z</time>
      </trkpt>
      <trkpt lat="46.23007" lon="5.48377">
        <ele>273.8</ele>
        <time>2022-02-24T09:46:23Z</time>
      </trkpt>
      <trkpt lat="46.23007" lon="5.48376">
        <ele>273.8</ele>
        <time>2022-02-24T09:46:24Z</time>
      </trkpt>
      <trkpt lat="46.23007" lon="5.48375">
        <ele>273.8</ele>
        <time>2022-02-24T09:46:25Z</time>
      </trkpt>
      <trkpt lat="46.23001" lon="5.48367">
        <ele>274</ele>
        <time>2022-02-24T09:46:57Z</time>
      </trkpt>
      <trkpt lat="46.22999" lon="5.48365">
        <ele>274</ele>
        <time>2022-02-24T09:46:58Z</time>
      </trkpt>
      <trkpt lat="46.22997" lon="5.48361">
        <ele>274</ele>
        <time>2022-02-24T09:46:59Z</time>
      </trkpt>
      <trkpt lat="46.22995" lon="5.48357">
        <ele>274</ele>
        <time>2022-02-24T09:47:00Z</time>
      </trkpt>
      <trkpt lat="46.22994" lon="5.48352">
        <ele>274</ele>
        <time>2022-02-24T09:47:01Z</time>
      </trkpt>
      <trkpt lat="46.22992" lon="5.48347">
        <ele>273.8</ele>
        <time>2022-02-24T09:47:02Z</time>
      </trkpt>
      <trkpt lat="46.22989" lon="5.48341">
        <ele>273.8</ele>
        <time>2022-02-24T09:47:03Z</time>
      </trkpt>
      <trkpt lat="46.22987" lon="5.48335">
        <ele>273.8</ele>
        <time>2022-02-24T09:47:04Z</time>
      </trkpt>
      <trkpt lat="46.22984" lon="5.4833">
        <ele>273.4</ele>
        <time>2022-02-24T09:47:05Z</time>
      </trkpt>
      <trkpt lat="46.22981" lon="5.48323">
        <ele>273.4</ele>
        <time>2022-02-24T09:47:06Z</time>
      </trkpt>
      <trkpt lat="46.22977" lon="5.48317">
        <ele>273.4</ele>
        <time>2022-02-24T09:47:07Z</time>
      </trkpt>
      <trkpt lat="46.22974" lon="5.48311">
        <ele>273.4</ele>
        <time>2022-02-24T09:47:08Z</time>
      </trkpt>
      <trkpt lat="46.22971" lon="5.48305">
        <ele>273.4</ele>
        <time>2022-02-24T09:47:09Z</time>
      </trkpt>
      <trkpt lat="46.22968" lon="5.48299">
        <ele>273.4</ele>
        <time>2022-02-24T09:47:10Z</time>
      </trkpt>
      <trkpt lat="46.22965" lon="5.48292">
        <ele>273.4</ele>
        <time>2022-02-24T09:47:11Z</time>
      </trkpt>
      <trkpt lat="46.22962" lon="5.48285">
        <ele>273.4</ele>
        <time>2022-02-24T09:47:12Z</time>
      </trkpt>
      <trkpt lat="46.22959" lon="5.48277">
        <ele>273.2</ele>
        <time>2022-02-24T09:47:13Z</time>
      </trkpt>
      <trkpt lat="46.22957" lon="5.48268">
        <ele>273.2</ele>
        <time>2022-02-24T09:47:14Z</time>
      </trkpt>
      <trkpt lat="46.22953" lon="5.4826">
        <ele>273.2</ele>
        <time>2022-02-24T09:47:15Z</time>
      </trkpt>
      <trkpt lat="46.2295" lon="5.48252">
        <ele>273.2</ele>
        <time>2022-02-24T09:47:16Z</time>
      </trkpt>
      <trkpt lat="46.22947" lon="5.48245">
        <ele>273.2</ele>
        <time>2022-02-24T09:47:17Z</time>
      </trkpt>
      <trkpt lat="46.22943" lon="5.48236">
        <ele>273.2</ele>
        <time>2022-02-24T09:47:18Z</time>
      </trkpt>
      <trkpt lat="46.22939" lon="5.48229">
        <ele>273.2</ele>
        <time>2022-02-24T09:47:19Z</time>
      </trkpt>
      <trkpt lat="46.22936" lon="5.48221">
        <ele>273.2</ele>
        <time>2022-02-24T09:47:20Z</time>
      </trkpt>
      <trkpt lat="46.22932" lon="5.48213">
        <ele>273.2</ele>
        <time>2022-02-24T09:47:21Z</time>
      </trkpt>
      <trkpt lat="46.22928" lon="5.48206">
        <ele>273.2</ele>
        <time>2022-02-24T09:47:22Z</time>
      </trkpt>
      <trkpt lat="46.22924" lon="5.48198">
        <ele>273.2</ele>
        <time>2022-02-24T09:47:23Z</time>
      </trkpt>
      <trkpt lat="46.2292" lon="5.4819">
        <ele>273.2</ele>
        <time>2022-02-24T09:47:24Z</time>
      </trkpt>
      <trkpt lat="46.22916" lon="5.48182">
        <ele>273.2</ele>
        <time>2022-02-24T09:47:25Z</time>
      </trkpt>
      <trkpt lat="46.22912" lon="5.48175">
        <ele>273.2</ele>
        <time>2022-02-24T09:47:26Z</time>
      </trkpt>
      <trkpt lat="46.22907" lon="5.48167">
        <ele>273.2</ele>
        <time>2022-02-24T09:47:27Z</time>
      </trkpt>
      <trkpt lat="46.22903" lon="5.48159">
        <ele>273.2</ele>
        <time>2022-02-24T09:47:28Z</time>
      </trkpt>
      <trkpt lat="46.22899" lon="5.48152">
        <ele>273.2</ele>
        <time>2022-02-24T09:47:29Z</time>
      </trkpt>
      <trkpt lat="46.22894" lon="5.48144">
        <ele>273.2</ele>
        <time>2022-02-24T09:47:30Z</time>
      </trkpt>
      <trkpt lat="46.2289" lon="5.48136">
        <ele>273.2</ele>
        <time>2022-02-24T09:47:31Z</time>
      </trkpt>
      <trkpt lat="46.22885" lon="5.48129">
        <ele>273.2</ele>
        <time>2022-02-24T09:47:32Z</time>
      </trkpt>
      <trkpt lat="46.22881" lon="5.48122">
        <ele>273.2</ele>
        <time>2022-02-24T09:47:33Z</time>
      </trkpt>
      <trkpt lat="46.22876" lon="5.48115">
        <ele>273.2</ele>
        <time>2022-02-24T09:47:34Z</time>
      </trkpt>
      <trkpt lat="46.22871" lon="5.48107">
        <ele>273.2</ele>
        <time>2022-02-24T09:47:35Z</time>
      </trkpt>
      <trkpt lat="46.22866" lon="5.481">
        <ele>273.2</ele>
        <time>2022-02-24T09:47:36Z</time>
      </trkpt>
      <trkpt lat="46.22861" lon="5.48093">
        <ele>273.2</ele>
        <time>2022-02-24T09:47:37Z</time>
      </trkpt>
      <trkpt lat="46.22856" lon="5.48086">
        <ele>273.6</ele>
        <time>2022-02-24T09:47:38Z</time>
      </trkpt>
      <trkpt lat="46.22851" lon="5.48079">
        <ele>273.6</ele>
        <time>2022-02-24T09:47:39Z</time>
      </trkpt>
      <trkpt lat="46.22846" lon="5.48072">
        <ele>273.6</ele>
        <time>2022-02-24T09:47:40Z</time>
      </trkpt>
      <trkpt lat="46.22841" lon="5.48064">
        <ele>273.6</ele>
        <time>2022-02-24T09:47:41Z</time>
      </trkpt>
      <trkpt lat="46.22836" lon="5.48057">
        <ele>273.6</ele>
        <time>2022-02-24T09:47:42Z</time>
      </trkpt>
      <trkpt lat="46.22831" lon="5.4805">
        <ele>273.6</ele>
        <time>2022-02-24T09:47:43Z</time>
      </trkpt>
      <trkpt lat="46.22825" lon="5.48043">
        <ele>273.6</ele>
        <time>2022-02-24T09:47:44Z</time>
      </trkpt>
      <trkpt lat="46.2282" lon="5.48036">
        <ele>273.4</ele>
        <time>2022-02-24T09:47:45Z</time>
      </trkpt>
      <trkpt lat="46.22815" lon="5.48029">
        <ele>273.4</ele>
        <time>2022-02-24T09:47:46Z</time>
      </trkpt>
      <trkpt lat="46.22811" lon="5.48022">
        <ele>273.4</ele>
        <time>2022-02-24T09:47:47Z</time>
      </trkpt>
      <trkpt lat="46.22806" lon="5.48014">
        <ele>273.4</ele>
        <time>2022-02-24T09:47:48Z</time>
      </trkpt>
      <trkpt lat="46.22801" lon="5.48006">
        <ele>273.4</ele>
        <time>2022-02-24T09:47:49Z</time>
      </trkpt>
      <trkpt lat="46.22797" lon="5.47999">
        <ele>273.4</ele>
        <time>2022-02-24T09:47:50Z</time>
      </trkpt>
      <trkpt lat="46.22793" lon="5.47991">
        <ele>273.4</ele>
        <time>2022-02-24T09:47:51Z</time>
      </trkpt>
      <trkpt lat="46.22789" lon="5.47982">
        <ele>273.4</ele>
        <time>2022-02-24T09:47:52Z</time>
      </trkpt>
      <trkpt lat="46.22785" lon="5.47974">
        <ele>273.4</ele>
        <time>2022-02-24T09:47:53Z</time>
      </trkpt>
      <trkpt lat="46.22781" lon="5.47966">
        <ele>273</ele>
        <time>2022-02-24T09:47:54Z</time>
      </trkpt>
      <trkpt lat="46.22777" lon="5.47958">
        <ele>273</ele>
        <time>2022-02-24T09:47:55Z</time>
      </trkpt>
      <trkpt lat="46.22772" lon="5.47951">
        <ele>272.8</ele>
        <time>2022-02-24T09:47:56Z</time>
      </trkpt>
      <trkpt lat="46.22767" lon="5.47944">
        <ele>272.8</ele>
        <time>2022-02-24T09:47:57Z</time>
      </trkpt>
      <trkpt lat="46.22762" lon="5.47937">
        <ele>272.8</ele>
        <time>2022-02-24T09:47:58Z</time>
      </trkpt>
      <trkpt lat="46.22756" lon="5.4793">
        <ele>272.8</ele>
        <time>2022-02-24T09:47:59Z</time>
      </trkpt>
      <trkpt lat="46.22751" lon="5.47923">
        <ele>272.8</ele>
        <time>2022-02-24T09:48:00Z</time>
      </trkpt>
      <trkpt lat="46.22745" lon="5.47916">
        <ele>272.8</ele>
        <time>2022-02-24T09:48:01Z</time>
      </trkpt>
      <trkpt lat="46.2274" lon="5.47909">
        <ele>272.8</ele>
        <time>2022-02-24T09:48:02Z</time>
      </trkpt>
      <trkpt lat="46.22734" lon="5.47903">
        <ele>272.8</ele>
        <time>2022-02-24T09:48:03Z</time>
      </trkpt>
      <trkpt lat="46.22728" lon="5.47897">
        <ele>272.8</ele>
        <time>2022-02-24T09:48:04Z</time>
      </trkpt>
      <trkpt lat="46.22722" lon="5.47891">
        <ele>272.8</ele>
        <time>2022-02-24T09:48:05Z</time>
      </trkpt>
      <trkpt lat="46.22716" lon="5.47885">
        <ele>272.8</ele>
        <time>2022-02-24T09:48:06Z</time>
      </trkpt>
      <trkpt lat="46.22711" lon="5.47879">
        <ele>272.8</ele>
        <time>2022-02-24T09:48:07Z</time>
      </trkpt>
      <trkpt lat="46.22705" lon="5.47873">
        <ele>272.8</ele>
        <time>2022-02-24T09:48:08Z</time>
      </trkpt>
      <trkpt lat="46.22699" lon="5.47868">
        <ele>272.8</ele>
        <time>2022-02-24T09:48:09Z</time>
      </trkpt>
      <trkpt lat="46.22693" lon="5.47862">
        <ele>272.8</ele>
        <time>2022-02-24T09:48:10Z</time>
      </trkpt>
      <trkpt lat="46.22687" lon="5.47856">
        <ele>272.8</ele>
        <time>2022-02-24T09:48:11Z</time>
      </trkpt>
      <trkpt lat="46.22682" lon="5.4785">
        <ele>272.8</ele>
        <time>2022-02-24T09:48:12Z</time>
      </trkpt>
      <trkpt lat="46.22676" lon="5.47844">
        <ele>272.8</ele>
        <time>2022-02-24T09:48:13Z</time>
      </trkpt>
      <trkpt lat="46.2267" lon="5.47838">
        <ele>272.8</ele>
        <time>2022-02-24T09:48:14Z</time>
      </trkpt>
      <trkpt lat="46.22664" lon="5.47832">
        <ele>272.8</ele>
        <time>2022-02-24T09:48:15Z</time>
      </trkpt>
      <trkpt lat="46.22658" lon="5.47827">
        <ele>272.8</ele>
        <time>2022-02-24T09:48:16Z</time>
      </trkpt>
      <trkpt lat="46.22651" lon="5.47822">
        <ele>272.8</ele>
        <time>2022-02-24T09:48:17Z</time>
      </trkpt>
      <trkpt lat="46.22645" lon="5.47816">
        <ele>272.8</ele>
        <time>2022-02-24T09:48:18Z</time>
      </trkpt>
      <trkpt lat="46.2264" lon="5.47811">
        <ele>272.8</ele>
        <time>2022-02-24T09:48:19Z</time>
      </trkpt>
      <trkpt lat="46.22634" lon="5.47806">
        <ele>272.8</ele>
        <time>2022-02-24T09:48:20Z</time>
      </trkpt>
      <trkpt lat="46.22628" lon="5.478">
        <ele>272.8</ele>
        <time>2022-02-24T09:48:21Z</time>
      </trkpt>
      <trkpt lat="46.22622" lon="5.47795">
        <ele>272.8</ele>
        <time>2022-02-24T09:48:22Z</time>
      </trkpt>
      <trkpt lat="46.22616" lon="5.4779">
        <ele>272.8</ele>
        <time>2022-02-24T09:48:23Z</time>
      </trkpt>
      <trkpt lat="46.2261" lon="5.47784">
        <ele>272.8</ele>
        <time>2022-02-24T09:48:24Z</time>
      </trkpt>
      <trkpt lat="46.22603" lon="5.47779">
        <ele>272.8</ele>
        <time>2022-02-24T09:48:25Z</time>
      </trkpt>
      <trkpt lat="46.22597" lon="5.47774">
        <ele>272.8</ele>
        <time>2022-02-24T09:48:26Z</time>
      </trkpt>
      <trkpt lat="46.22591" lon="5.47768">
        <ele>272.8</ele>
        <time>2022-02-24T09:48:27Z</time>
      </trkpt>
      <trkpt lat="46.22585" lon="5.47763">
        <ele>272.8</ele>
        <time>2022-02-24T09:48:28Z</time>
      </trkpt>
      <trkpt lat="46.22579" lon="5.47758">
        <ele>272.8</ele>
        <time>2022-02-24T09:48:29Z</time>
      </trkpt>
      <trkpt lat="46.22572" lon="5.47753">
        <ele>272.8</ele>
        <time>2022-02-24T09:48:30Z</time>
      </trkpt>
      <trkpt lat="46.22566" lon="5.47749">
        <ele>272.8</ele>
        <time>2022-02-24T09:48:31Z</time>
      </trkpt>
      <trkpt lat="46.2256" lon="5.47745">
        <ele>272.8</ele>
        <time>2022-02-24T09:48:32Z</time>
      </trkpt>
      <trkpt lat="46.22553" lon="5.47741">
        <ele>272.8</ele>
        <time>2022-02-24T09:48:33Z</time>
      </trkpt>
      <trkpt lat="46.22547" lon="5.47737">
        <ele>272.8</ele>
        <time>2022-02-24T09:48:34Z</time>
      </trkpt>
      <trkpt lat="46.22542" lon="5.47732">
        <ele>273</ele>
        <time>2022-02-24T09:48:35Z</time>
      </trkpt>
      <trkpt lat="46.22536" lon="5.47727">
        <ele>273</ele>
        <time>2022-02-24T09:48:36Z</time>
      </trkpt>
      <trkpt lat="46.2253" lon="5.47722">
        <ele>273</ele>
        <time>2022-02-24T09:48:37Z</time>
      </trkpt>
      <trkpt lat="46.22524" lon="5.47717">
        <ele>273</ele>
        <time>2022-02-24T09:48:38Z</time>
      </trkpt>
      <trkpt lat="46.22519" lon="5.47712">
        <ele>273</ele>
        <time>2022-02-24T09:48:39Z</time>
      </trkpt>
      <trkpt lat="46.22513" lon="5.47707">
        <ele>273</ele>
        <time>2022-02-24T09:48:40Z</time>
      </trkpt>
      <trkpt lat="46.22507" lon="5.47702">
        <ele>273</ele>
        <time>2022-02-24T09:48:41Z</time>
      </trkpt>
      <trkpt lat="46.22501" lon="5.47696">
        <ele>273</ele>
        <time>2022-02-24T09:48:42Z</time>
      </trkpt>
      <trkpt lat="46.22495" lon="5.47691">
        <ele>273</ele>
        <time>2022-02-24T09:48:43Z</time>
      </trkpt>
      <trkpt lat="46.22489" lon="5.47685">
        <ele>273</ele>
        <time>2022-02-24T09:48:44Z</time>
      </trkpt>
      <trkpt lat="46.22483" lon="5.4768">
        <ele>273</ele>
        <time>2022-02-24T09:48:45Z</time>
      </trkpt>
      <trkpt lat="46.22477" lon="5.47674">
        <ele>273</ele>
        <time>2022-02-24T09:48:46Z</time>
      </trkpt>
      <trkpt lat="46.22471" lon="5.47669">
        <ele>273</ele>
        <time>2022-02-24T09:48:47Z</time>
      </trkpt>
      <trkpt lat="46.22466" lon="5.47664">
        <ele>273</ele>
        <time>2022-02-24T09:48:48Z</time>
      </trkpt>
      <trkpt lat="46.2246" lon="5.47659">
        <ele>273</ele>
        <time>2022-02-24T09:48:49Z</time>
      </trkpt>
      <trkpt lat="46.22454" lon="5.47654">
        <ele>273</ele>
        <time>2022-02-24T09:48:50Z</time>
      </trkpt>
      <trkpt lat="46.22449" lon="5.47649">
        <ele>273</ele>
        <time>2022-02-24T09:48:51Z</time>
      </trkpt>
      <trkpt lat="46.22443" lon="5.47643">
        <ele>272.8</ele>
        <time>2022-02-24T09:48:52Z</time>
      </trkpt>
      <trkpt lat="46.22437" lon="5.47638">
        <ele>272.8</ele>
        <time>2022-02-24T09:48:53Z</time>
      </trkpt>
      <trkpt lat="46.22431" lon="5.47634">
        <ele>272.8</ele>
        <time>2022-02-24T09:48:54Z</time>
      </trkpt>
      <trkpt lat="46.22425" lon="5.4763">
        <ele>272.8</ele>
        <time>2022-02-24T09:48:55Z</time>
      </trkpt>
      <trkpt lat="46.22419" lon="5.47626">
        <ele>272.8</ele>
        <time>2022-02-24T09:48:56Z</time>
      </trkpt>
      <trkpt lat="46.22413" lon="5.47621">
        <ele>272.8</ele>
        <time>2022-02-24T09:48:57Z</time>
      </trkpt>
      <trkpt lat="46.22407" lon="5.47617">
        <ele>272.8</ele>
        <time>2022-02-24T09:48:58Z</time>
      </trkpt>
      <trkpt lat="46.22402" lon="5.47613">
        <ele>272.8</ele>
        <time>2022-02-24T09:48:59Z</time>
      </trkpt>
      <trkpt lat="46.22396" lon="5.4761">
        <ele>272.8</ele>
        <time>2022-02-24T09:49:00Z</time>
      </trkpt>
      <trkpt lat="46.2239" lon="5.47606">
        <ele>272.8</ele>
        <time>2022-02-24T09:49:01Z</time>
      </trkpt>
      <trkpt lat="46.22384" lon="5.47603">
        <ele>272.8</ele>
        <time>2022-02-24T09:49:02Z</time>
      </trkpt>
      <trkpt lat="46.22379" lon="5.47599">
        <ele>272.8</ele>
        <time>2022-02-24T09:49:03Z</time>
      </trkpt>
      <trkpt lat="46.22373" lon="5.47596">
        <ele>273</ele>
        <time>2022-02-24T09:49:04Z</time>
      </trkpt>
      <trkpt lat="46.22367" lon="5.47592">
        <ele>273</ele>
        <time>2022-02-24T09:49:05Z</time>
      </trkpt>
      <trkpt lat="46.22361" lon="5.47588">
        <ele>273</ele>
        <time>2022-02-24T09:49:06Z</time>
      </trkpt>
      <trkpt lat="46.22355" lon="5.47584">
        <ele>273</ele>
        <time>2022-02-24T09:49:07Z</time>
      </trkpt>
      <trkpt lat="46.22349" lon="5.47579">
        <ele>273</ele>
        <time>2022-02-24T09:49:08Z</time>
      </trkpt>
      <trkpt lat="46.22342" lon="5.47575">
        <ele>272.8</ele>
        <time>2022-02-24T09:49:09Z</time>
      </trkpt>
      <trkpt lat="46.22336" lon="5.47572">
        <ele>272.8</ele>
        <time>2022-02-24T09:49:10Z</time>
      </trkpt>
      <trkpt lat="46.2233" lon="5.47567">
        <ele>272.8</ele>
        <time>2022-02-24T09:49:11Z</time>
      </trkpt>
      <trkpt lat="46.22324" lon="5.47564">
        <ele>272.8</ele>
        <time>2022-02-24T09:49:12Z</time>
      </trkpt>
      <trkpt lat="46.22318" lon="5.47559">
        <ele>272.8</ele>
        <time>2022-02-24T09:49:13Z</time>
      </trkpt>
      <trkpt lat="46.22312" lon="5.47555">
        <ele>273</ele>
        <time>2022-02-24T09:49:14Z</time>
      </trkpt>
      <trkpt lat="46.22306" lon="5.4755">
        <ele>273</ele>
        <time>2022-02-24T09:49:15Z</time>
      </trkpt>
      <trkpt lat="46.22299" lon="5.47545">
        <ele>273</ele>
        <time>2022-02-24T09:49:16Z</time>
      </trkpt>
      <trkpt lat="46.22293" lon="5.4754">
        <ele>273</ele>
        <time>2022-02-24T09:49:17Z</time>
      </trkpt>
      <trkpt lat="46.22287" lon="5.47536">
        <ele>273.2</ele>
        <time>2022-02-24T09:49:18Z</time>
      </trkpt>
      <trkpt lat="46.22281" lon="5.47531">
        <ele>273.2</ele>
        <time>2022-02-24T09:49:19Z</time>
      </trkpt>
      <trkpt lat="46.22275" lon="5.47527">
        <ele>273.2</ele>
        <time>2022-02-24T09:49:20Z</time>
      </trkpt>
      <trkpt lat="46.22268" lon="5.47522">
        <ele>273.2</ele>
        <time>2022-02-24T09:49:21Z</time>
      </trkpt>
      <trkpt lat="46.22262" lon="5.47517">
        <ele>273.2</ele>
        <time>2022-02-24T09:49:22Z</time>
      </trkpt>
      <trkpt lat="46.22256" lon="5.47513">
        <ele>273.2</ele>
        <time>2022-02-24T09:49:23Z</time>
      </trkpt>
      <trkpt lat="46.2225" lon="5.47508">
        <ele>273.2</ele>
        <time>2022-02-24T09:49:24Z</time>
      </trkpt>
      <trkpt lat="46.22243" lon="5.47503">
        <ele>273.2</ele>
        <time>2022-02-24T09:49:25Z</time>
      </trkpt>
      <trkpt lat="46.22237" lon="5.47498">
        <ele>273.2</ele>
        <time>2022-02-24T09:49:26Z</time>
      </trkpt>
      <trkpt lat="46.22231" lon="5.47493">
        <ele>273.2</ele>
        <time>2022-02-24T09:49:27Z</time>
      </trkpt>
      <trkpt lat="46.22225" lon="5.47488">
        <ele>273.2</ele>
        <time>2022-02-24T09:49:28Z</time>
      </trkpt>
      <trkpt lat="46.22219" lon="5.47483">
        <ele>273.2</ele>
        <time>2022-02-24T09:49:29Z</time>
      </trkpt>
      <trkpt lat="46.22214" lon="5.47478">
        <ele>273.2</ele>
        <time>2022-02-24T09:49:30Z</time>
      </trkpt>
      <trkpt lat="46.22208" lon="5.47473">
        <ele>273.2</ele>
        <time>2022-02-24T09:49:31Z</time>
      </trkpt>
      <trkpt lat="46.22202" lon="5.47467">
        <ele>273.2</ele>
        <time>2022-02-24T09:49:32Z</time>
      </trkpt>
      <trkpt lat="46.22196" lon="5.47463">
        <ele>273.2</ele>
        <time>2022-02-24T09:49:33Z</time>
      </trkpt>
      <trkpt lat="46.22189" lon="5.47458">
        <ele>273.2</ele>
        <time>2022-02-24T09:49:34Z</time>
      </trkpt>
      <trkpt lat="46.22183" lon="5.47454">
        <ele>273.2</ele>
        <time>2022-02-24T09:49:35Z</time>
      </trkpt>
      <trkpt lat="46.22177" lon="5.47449">
        <ele>273.2</ele>
        <time>2022-02-24T09:49:36Z</time>
      </trkpt>
      <trkpt lat="46.2217" lon="5.47446">
        <ele>273.2</ele>
        <time>2022-02-24T09:49:37Z</time>
      </trkpt>
      <trkpt lat="46.22164" lon="5.47442">
        <ele>273.2</ele>
        <time>2022-02-24T09:49:38Z</time>
      </trkpt>
      <trkpt lat="46.22158" lon="5.47439">
        <ele>273.2</ele>
        <time>2022-02-24T09:49:39Z</time>
      </trkpt>
      <trkpt lat="46.22151" lon="5.47436">
        <ele>273.2</ele>
        <time>2022-02-24T09:49:40Z</time>
      </trkpt>
      <trkpt lat="46.22145" lon="5.47432">
        <ele>273.4</ele>
        <time>2022-02-24T09:49:41Z</time>
      </trkpt>
      <trkpt lat="46.22138" lon="5.4743">
        <ele>273.4</ele>
        <time>2022-02-24T09:49:42Z</time>
      </trkpt>
      <trkpt lat="46.22131" lon="5.47428">
        <ele>273.4</ele>
        <time>2022-02-24T09:49:43Z</time>
      </trkpt>
      <trkpt lat="46.22121" lon="5.47424">
        <ele>273.4</ele>
        <time>2022-02-24T09:49:44Z</time>
      </trkpt>
      <trkpt lat="46.22117" lon="5.47422">
        <ele>273.4</ele>
        <time>2022-02-24T09:49:45Z</time>
      </trkpt>
      <trkpt lat="46.22111" lon="5.47418">
        <ele>273.2</ele>
        <time>2022-02-24T09:49:46Z</time>
      </trkpt>
      <trkpt lat="46.22104" lon="5.47414">
        <ele>273.2</ele>
        <time>2022-02-24T09:49:47Z</time>
      </trkpt>
      <trkpt lat="46.22098" lon="5.47409">
        <ele>273.2</ele>
        <time>2022-02-24T09:49:48Z</time>
      </trkpt>
      <trkpt lat="46.22093" lon="5.47405">
        <ele>273.2</ele>
        <time>2022-02-24T09:49:49Z</time>
      </trkpt>
      <trkpt lat="46.22085" lon="5.47398">
        <ele>273.2</ele>
        <time>2022-02-24T09:49:50Z</time>
      </trkpt>
      <trkpt lat="46.22082" lon="5.47396">
        <ele>273.2</ele>
        <time>2022-02-24T09:49:51Z</time>
      </trkpt>
      <trkpt lat="46.22076" lon="5.47391">
        <ele>273.2</ele>
        <time>2022-02-24T09:49:52Z</time>
      </trkpt>
      <trkpt lat="46.22071" lon="5.47386">
        <ele>273</ele>
        <time>2022-02-24T09:49:53Z</time>
      </trkpt>
      <trkpt lat="46.22065" lon="5.47381">
        <ele>273</ele>
        <time>2022-02-24T09:49:54Z</time>
      </trkpt>
      <trkpt lat="46.2206" lon="5.47377">
        <ele>273</ele>
        <time>2022-02-24T09:49:55Z</time>
      </trkpt>
      <trkpt lat="46.22054" lon="5.47373">
        <ele>273</ele>
        <time>2022-02-24T09:49:56Z</time>
      </trkpt>
      <trkpt lat="46.22049" lon="5.47368">
        <ele>273</ele>
        <time>2022-02-24T09:49:57Z</time>
      </trkpt>
      <trkpt lat="46.22043" lon="5.47364">
        <ele>273</ele>
        <time>2022-02-24T09:49:58Z</time>
      </trkpt>
      <trkpt lat="46.22038" lon="5.47359">
        <ele>273</ele>
        <time>2022-02-24T09:49:59Z</time>
      </trkpt>
      <trkpt lat="46.22032" lon="5.47355">
        <ele>273</ele>
        <time>2022-02-24T09:50:00Z</time>
      </trkpt>
      <trkpt lat="46.22027" lon="5.4735">
        <ele>273.2</ele>
        <time>2022-02-24T09:50:01Z</time>
      </trkpt>
      <trkpt lat="46.22022" lon="5.47345">
        <ele>273.2</ele>
        <time>2022-02-24T09:50:02Z</time>
      </trkpt>
      <trkpt lat="46.22017" lon="5.4734">
        <ele>273.2</ele>
        <time>2022-02-24T09:50:03Z</time>
      </trkpt>
      <trkpt lat="46.22012" lon="5.47335">
        <ele>273.2</ele>
        <time>2022-02-24T09:50:04Z</time>
      </trkpt>
      <trkpt lat="46.22006" lon="5.47331">
        <ele>273.2</ele>
        <time>2022-02-24T09:50:05Z</time>
      </trkpt>
      <trkpt lat="46.22001" lon="5.47326">
        <ele>273.2</ele>
        <time>2022-02-24T09:50:06Z</time>
      </trkpt>
      <trkpt lat="46.21995" lon="5.47321">
        <ele>273.2</ele>
        <time>2022-02-24T09:50:07Z</time>
      </trkpt>
      <trkpt lat="46.2199" lon="5.47316">
        <ele>273.2</ele>
        <time>2022-02-24T09:50:08Z</time>
      </trkpt>
      <trkpt lat="46.21984" lon="5.47312">
        <ele>273.2</ele>
        <time>2022-02-24T09:50:09Z</time>
      </trkpt>
      <trkpt lat="46.21979" lon="5.47308">
        <ele>273.2</ele>
        <time>2022-02-24T09:50:10Z</time>
      </trkpt>
      <trkpt lat="46.21973" lon="5.47303">
        <ele>273.2</ele>
        <time>2022-02-24T09:50:11Z</time>
      </trkpt>
      <trkpt lat="46.21965" lon="5.47296">
        <ele>273.2</ele>
        <time>2022-02-24T09:50:12Z</time>
      </trkpt>
      <trkpt lat="46.21963" lon="5.47294">
        <ele>273.2</ele>
        <time>2022-02-24T09:50:13Z</time>
      </trkpt>
      <trkpt lat="46.21957" lon="5.47289">
        <ele>273.2</ele>
        <time>2022-02-24T09:50:14Z</time>
      </trkpt>
      <trkpt lat="46.21952" lon="5.47285">
        <ele>273.2</ele>
        <time>2022-02-24T09:50:15Z</time>
      </trkpt>
      <trkpt lat="46.21947" lon="5.4728">
        <ele>273.2</ele>
        <time>2022-02-24T09:50:16Z</time>
      </trkpt>
      <trkpt lat="46.21941" lon="5.47277">
        <ele>273.2</ele>
        <time>2022-02-24T09:50:17Z</time>
      </trkpt>
      <trkpt lat="46.21935" lon="5.47273">
        <ele>273.2</ele>
        <time>2022-02-24T09:50:18Z</time>
      </trkpt>
      <trkpt lat="46.2193" lon="5.47269">
        <ele>273.2</ele>
        <time>2022-02-24T09:50:19Z</time>
      </trkpt>
      <trkpt lat="46.21925" lon="5.47265">
        <ele>273.2</ele>
        <time>2022-02-24T09:50:20Z</time>
      </trkpt>
      <trkpt lat="46.2192" lon="5.4726">
        <ele>273.2</ele>
        <time>2022-02-24T09:50:21Z</time>
      </trkpt>
      <trkpt lat="46.21914" lon="5.47257">
        <ele>273.2</ele>
        <time>2022-02-24T09:50:22Z</time>
      </trkpt>
      <trkpt lat="46.21909" lon="5.47253">
        <ele>273.2</ele>
        <time>2022-02-24T09:50:23Z</time>
      </trkpt>
      <trkpt lat="46.21901" lon="5.47248">
        <ele>273.2</ele>
        <time>2022-02-24T09:50:24Z</time>
      </trkpt>
      <trkpt lat="46.21899" lon="5.47246">
        <ele>273.2</ele>
        <time>2022-02-24T09:50:25Z</time>
      </trkpt>
      <trkpt lat="46.21893" lon="5.47242">
        <ele>273.2</ele>
        <time>2022-02-24T09:50:26Z</time>
      </trkpt>
      <trkpt lat="46.21885" lon="5.47238">
        <ele>273.2</ele>
        <time>2022-02-24T09:50:27Z</time>
      </trkpt>
      <trkpt lat="46.21882" lon="5.47236">
        <ele>273.2</ele>
        <time>2022-02-24T09:50:28Z</time>
      </trkpt>
      <trkpt lat="46.21877" lon="5.47234">
        <ele>273.2</ele>
        <time>2022-02-24T09:50:29Z</time>
      </trkpt>
      <trkpt lat="46.21872" lon="5.47231">
        <ele>273.2</ele>
        <time>2022-02-24T09:50:30Z</time>
      </trkpt>
      <trkpt lat="46.21867" lon="5.47229">
        <ele>273.4</ele>
        <time>2022-02-24T09:50:31Z</time>
      </trkpt>
      <trkpt lat="46.21862" lon="5.47227">
        <ele>273.4</ele>
        <time>2022-02-24T09:50:32Z</time>
      </trkpt>
      <trkpt lat="46.21857" lon="5.47224">
        <ele>273.6</ele>
        <time>2022-02-24T09:50:33Z</time>
      </trkpt>
      <trkpt lat="46.21848" lon="5.47219">
        <ele>273.6</ele>
        <time>2022-02-24T09:50:34Z</time>
      </trkpt>
      <trkpt lat="46.21846" lon="5.47218">
        <ele>273.6</ele>
        <time>2022-02-24T09:50:35Z</time>
      </trkpt>
      <trkpt lat="46.2184" lon="5.47215">
        <ele>273.6</ele>
        <time>2022-02-24T09:50:36Z</time>
      </trkpt>
      <trkpt lat="46.21835" lon="5.47213">
        <ele>273.6</ele>
        <time>2022-02-24T09:50:37Z</time>
      </trkpt>
      <trkpt lat="46.21829" lon="5.4721">
        <ele>273.4</ele>
        <time>2022-02-24T09:50:38Z</time>
      </trkpt>
      <trkpt lat="46.21824" lon="5.47207">
        <ele>273.4</ele>
        <time>2022-02-24T09:50:39Z</time>
      </trkpt>
      <trkpt lat="46.21819" lon="5.47203">
        <ele>273.2</ele>
        <time>2022-02-24T09:50:40Z</time>
      </trkpt>
      <trkpt lat="46.21814" lon="5.47199">
        <ele>273.2</ele>
        <time>2022-02-24T09:50:41Z</time>
      </trkpt>
      <trkpt lat="46.2181" lon="5.47196">
        <ele>273.2</ele>
        <time>2022-02-24T09:50:42Z</time>
      </trkpt>
      <trkpt lat="46.21806" lon="5.47193">
        <ele>273.2</ele>
        <time>2022-02-24T09:50:43Z</time>
      </trkpt>
      <trkpt lat="46.21802" lon="5.4719">
        <ele>273.2</ele>
        <time>2022-02-24T09:50:44Z</time>
      </trkpt>
      <trkpt lat="46.21799" lon="5.47187">
        <ele>273.2</ele>
        <time>2022-02-24T09:50:45Z</time>
      </trkpt>
      <trkpt lat="46.21796" lon="5.47185">
        <ele>273.2</ele>
        <time>2022-02-24T09:50:46Z</time>
      </trkpt>
      <trkpt lat="46.21793" lon="5.47182">
        <ele>273.6</ele>
        <time>2022-02-24T09:50:47Z</time>
      </trkpt>
      <trkpt lat="46.2179" lon="5.4718">
        <ele>273.8</ele>
        <time>2022-02-24T09:50:48Z</time>
      </trkpt>
      <trkpt lat="46.21787" lon="5.47178">
        <ele>274.2</ele>
        <time>2022-02-24T09:50:49Z</time>
      </trkpt>
      <trkpt lat="46.21784" lon="5.47174">
        <ele>274.4</ele>
        <time>2022-02-24T09:50:50Z</time>
      </trkpt>
      <trkpt lat="46.21782" lon="5.4717">
        <ele>274.6</ele>
        <time>2022-02-24T09:50:51Z</time>
      </trkpt>
      <trkpt lat="46.21779" lon="5.47167">
        <ele>274.6</ele>
        <time>2022-02-24T09:50:52Z</time>
      </trkpt>
      <trkpt lat="46.21777" lon="5.47165">
        <ele>275</ele>
        <time>2022-02-24T09:50:53Z</time>
      </trkpt>
      <trkpt lat="46.21774" lon="5.47161">
        <ele>275.2</ele>
        <time>2022-02-24T09:50:54Z</time>
      </trkpt>
      <trkpt lat="46.21772" lon="5.47157">
        <ele>275.2</ele>
        <time>2022-02-24T09:50:55Z</time>
      </trkpt>
      <trkpt lat="46.21769" lon="5.47154">
        <ele>275.6</ele>
        <time>2022-02-24T09:50:56Z</time>
      </trkpt>
      <trkpt lat="46.21765" lon="5.47151">
        <ele>276</ele>
        <time>2022-02-24T09:50:57Z</time>
      </trkpt>
      <trkpt lat="46.21762" lon="5.47148">
        <ele>276.2</ele>
        <time>2022-02-24T09:50:58Z</time>
      </trkpt>
      <trkpt lat="46.21759" lon="5.47145">
        <ele>276.6</ele>
        <time>2022-02-24T09:50:59Z</time>
      </trkpt>
      <trkpt lat="46.21756" lon="5.47142">
        <ele>276.8</ele>
        <time>2022-02-24T09:51:00Z</time>
      </trkpt>
      <trkpt lat="46.21753" lon="5.47139">
        <ele>277.2</ele>
        <time>2022-02-24T09:51:01Z</time>
      </trkpt>
      <trkpt lat="46.2175" lon="5.47137">
        <ele>277.4</ele>
        <time>2022-02-24T09:51:02Z</time>
      </trkpt>
      <trkpt lat="46.21746" lon="5.47134">
        <ele>277.8</ele>
        <time>2022-02-24T09:51:03Z</time>
      </trkpt>
      <trkpt lat="46.21743" lon="5.47132">
        <ele>278</ele>
        <time>2022-02-24T09:51:04Z</time>
      </trkpt>
      <trkpt lat="46.2174" lon="5.47129">
        <ele>278.4</ele>
        <time>2022-02-24T09:51:05Z</time>
      </trkpt>
      <trkpt lat="46.21737" lon="5.47127">
        <ele>278.6</ele>
        <time>2022-02-24T09:51:06Z</time>
      </trkpt>
      <trkpt lat="46.21735" lon="5.47124">
        <ele>278.8</ele>
        <time>2022-02-24T09:51:07Z</time>
      </trkpt>
      <trkpt lat="46.21732" lon="5.47121">
        <ele>279.2</ele>
        <time>2022-02-24T09:51:08Z</time>
      </trkpt>
      <trkpt lat="46.21729" lon="5.47118">
        <ele>279.4</ele>
        <time>2022-02-24T09:51:09Z</time>
      </trkpt>
      <trkpt lat="46.21726" lon="5.47116">
        <ele>279.6</ele>
        <time>2022-02-24T09:51:10Z</time>
      </trkpt>
      <trkpt lat="46.21723" lon="5.47114">
        <ele>279.8</ele>
        <time>2022-02-24T09:51:11Z</time>
      </trkpt>
      <trkpt lat="46.2172" lon="5.47111">
        <ele>280</ele>
        <time>2022-02-24T09:51:12Z</time>
      </trkpt>
      <trkpt lat="46.21717" lon="5.47108">
        <ele>280</ele>
        <time>2022-02-24T09:51:13Z</time>
      </trkpt>
      <trkpt lat="46.21714" lon="5.47106">
        <ele>280.4</ele>
        <time>2022-02-24T09:51:14Z</time>
      </trkpt>
      <trkpt lat="46.21711" lon="5.47104">
        <ele>280.6</ele>
        <time>2022-02-24T09:51:15Z</time>
      </trkpt>
      <trkpt lat="46.21708" lon="5.47101">
        <ele>281</ele>
        <time>2022-02-24T09:51:16Z</time>
      </trkpt>
      <trkpt lat="46.21705" lon="5.47099">
        <ele>281</ele>
        <time>2022-02-24T09:51:17Z</time>
      </trkpt>
      <trkpt lat="46.21702" lon="5.47096">
        <ele>281.2</ele>
        <time>2022-02-24T09:51:18Z</time>
      </trkpt>
      <trkpt lat="46.217" lon="5.47094">
        <ele>281.4</ele>
        <time>2022-02-24T09:51:19Z</time>
      </trkpt>
      <trkpt lat="46.21697" lon="5.47091">
        <ele>281.8</ele>
        <time>2022-02-24T09:51:20Z</time>
      </trkpt>
      <trkpt lat="46.21694" lon="5.47089">
        <ele>282</ele>
        <time>2022-02-24T09:51:21Z</time>
      </trkpt>
      <trkpt lat="46.21692" lon="5.47086">
        <ele>282</ele>
        <time>2022-02-24T09:51:22Z</time>
      </trkpt>
      <trkpt lat="46.2169" lon="5.47084">
        <ele>282.4</ele>
        <time>2022-02-24T09:51:23Z</time>
      </trkpt>
      <trkpt lat="46.2169" lon="5.47084">
        <ele>282.6</ele>
        <time>2022-02-24T09:51:24Z</time>
      </trkpt>
      <trkpt lat="46.21685" lon="5.4708">
        <ele>282.6</ele>
        <time>2022-02-24T09:51:25Z</time>
      </trkpt>
      <trkpt lat="46.21682" lon="5.47078">
        <ele>283</ele>
        <time>2022-02-24T09:51:26Z</time>
      </trkpt>
      <trkpt lat="46.21679" lon="5.47075">
        <ele>283</ele>
        <time>2022-02-24T09:51:27Z</time>
      </trkpt>
      <trkpt lat="46.21676" lon="5.47073">
        <ele>283.4</ele>
        <time>2022-02-24T09:51:28Z</time>
      </trkpt>
      <trkpt lat="46.21674" lon="5.47071">
        <ele>283.6</ele>
        <time>2022-02-24T09:51:29Z</time>
      </trkpt>
      <trkpt lat="46.21671" lon="5.47069">
        <ele>284</ele>
        <time>2022-02-24T09:51:30Z</time>
      </trkpt>
      <trkpt lat="46.21668" lon="5.47067">
        <ele>284.2</ele>
        <time>2022-02-24T09:51:31Z</time>
      </trkpt>
      <trkpt lat="46.21665" lon="5.47064">
        <ele>284.4</ele>
        <time>2022-02-24T09:51:32Z</time>
      </trkpt>
      <trkpt lat="46.21663" lon="5.47062">
        <ele>284.4</ele>
        <time>2022-02-24T09:51:33Z</time>
      </trkpt>
      <trkpt lat="46.2166" lon="5.47061">
        <ele>284.8</ele>
        <time>2022-02-24T09:51:34Z</time>
      </trkpt>
      <trkpt lat="46.21657" lon="5.47058">
        <ele>285</ele>
        <time>2022-02-24T09:51:35Z</time>
      </trkpt>
      <trkpt lat="46.21654" lon="5.47056">
        <ele>285.4</ele>
        <time>2022-02-24T09:51:36Z</time>
      </trkpt>
      <trkpt lat="46.21651" lon="5.47054">
        <ele>285.6</ele>
        <time>2022-02-24T09:51:37Z</time>
      </trkpt>
      <trkpt lat="46.21649" lon="5.47051">
        <ele>285.8</ele>
        <time>2022-02-24T09:51:38Z</time>
      </trkpt>
      <trkpt lat="46.21646" lon="5.47049">
        <ele>286</ele>
        <time>2022-02-24T09:51:39Z</time>
      </trkpt>
      <trkpt lat="46.21643" lon="5.47047">
        <ele>286.2</ele>
        <time>2022-02-24T09:51:40Z</time>
      </trkpt>
      <trkpt lat="46.21641" lon="5.47044">
        <ele>286.4</ele>
        <time>2022-02-24T09:51:41Z</time>
      </trkpt>
      <trkpt lat="46.21638" lon="5.47041">
        <ele>286.4</ele>
        <time>2022-02-24T09:51:42Z</time>
      </trkpt>
      <trkpt lat="46.21635" lon="5.47038">
        <ele>286.8</ele>
        <time>2022-02-24T09:51:43Z</time>
      </trkpt>
      <trkpt lat="46.21633" lon="5.47036">
        <ele>286.8</ele>
        <time>2022-02-24T09:51:44Z</time>
      </trkpt>
      <trkpt lat="46.2163" lon="5.47033">
        <ele>287.2</ele>
        <time>2022-02-24T09:51:45Z</time>
      </trkpt>
      <trkpt lat="46.21627" lon="5.4703">
        <ele>287.2</ele>
        <time>2022-02-24T09:51:46Z</time>
      </trkpt>
      <trkpt lat="46.21624" lon="5.47027">
        <ele>287.4</ele>
        <time>2022-02-24T09:51:47Z</time>
      </trkpt>
      <trkpt lat="46.21621" lon="5.47025">
        <ele>287.4</ele>
        <time>2022-02-24T09:51:48Z</time>
      </trkpt>
      <trkpt lat="46.21618" lon="5.47022">
        <ele>287.8</ele>
        <time>2022-02-24T09:51:49Z</time>
      </trkpt>
      <trkpt lat="46.21615" lon="5.4702">
        <ele>287.8</ele>
        <time>2022-02-24T09:51:50Z</time>
      </trkpt>
      <trkpt lat="46.21613" lon="5.47017">
        <ele>288.2</ele>
        <time>2022-02-24T09:51:51Z</time>
      </trkpt>
      <trkpt lat="46.2161" lon="5.47014">
        <ele>288.4</ele>
        <time>2022-02-24T09:51:52Z</time>
      </trkpt>
      <trkpt lat="46.21607" lon="5.47011">
        <ele>288.6</ele>
        <time>2022-02-24T09:51:53Z</time>
      </trkpt>
      <trkpt lat="46.21604" lon="5.47007">
        <ele>288.6</ele>
        <time>2022-02-24T09:51:54Z</time>
      </trkpt>
      <trkpt lat="46.21601" lon="5.47004">
        <ele>289.2</ele>
        <time>2022-02-24T09:51:55Z</time>
      </trkpt>
      <trkpt lat="46.21599" lon="5.47">
        <ele>289.2</ele>
        <time>2022-02-24T09:51:56Z</time>
      </trkpt>
      <trkpt lat="46.21596" lon="5.46997">
        <ele>289.4</ele>
        <time>2022-02-24T09:51:57Z</time>
      </trkpt>
      <trkpt lat="46.21593" lon="5.46994">
        <ele>289.4</ele>
        <time>2022-02-24T09:51:58Z</time>
      </trkpt>
      <trkpt lat="46.21591" lon="5.46991">
        <ele>289.4</ele>
        <time>2022-02-24T09:51:59Z</time>
      </trkpt>
      <trkpt lat="46.21588" lon="5.46988">
        <ele>289.6</ele>
        <time>2022-02-24T09:52:00Z</time>
      </trkpt>
      <trkpt lat="46.21585" lon="5.46985">
        <ele>289.6</ele>
        <time>2022-02-24T09:52:01Z</time>
      </trkpt>
      <trkpt lat="46.21582" lon="5.46982">
        <ele>290</ele>
        <time>2022-02-24T09:52:02Z</time>
      </trkpt>
      <trkpt lat="46.21579" lon="5.46979">
        <ele>290</ele>
        <time>2022-02-24T09:52:03Z</time>
      </trkpt>
      <trkpt lat="46.21577" lon="5.46975">
        <ele>290.2</ele>
        <time>2022-02-24T09:52:04Z</time>
      </trkpt>
      <trkpt lat="46.21575" lon="5.46972">
        <ele>290.2</ele>
        <time>2022-02-24T09:52:05Z</time>
      </trkpt>
      <trkpt lat="46.21572" lon="5.46969">
        <ele>290.6</ele>
        <time>2022-02-24T09:52:06Z</time>
      </trkpt>
      <trkpt lat="46.2157" lon="5.46966">
        <ele>290.6</ele>
        <time>2022-02-24T09:52:07Z</time>
      </trkpt>
      <trkpt lat="46.21568" lon="5.46963">
        <ele>291</ele>
        <time>2022-02-24T09:52:08Z</time>
      </trkpt>
      <trkpt lat="46.21566" lon="5.4696">
        <ele>291</ele>
        <time>2022-02-24T09:52:09Z</time>
      </trkpt>
      <trkpt lat="46.21563" lon="5.46957">
        <ele>291.2</ele>
        <time>2022-02-24T09:52:10Z</time>
      </trkpt>
      <trkpt lat="46.21561" lon="5.46953">
        <ele>291.2</ele>
        <time>2022-02-24T09:52:11Z</time>
      </trkpt>
      <trkpt lat="46.21559" lon="5.4695">
        <ele>291.6</ele>
        <time>2022-02-24T09:52:12Z</time>
      </trkpt>
      <trkpt lat="46.21556" lon="5.46947">
        <ele>291.6</ele>
        <time>2022-02-24T09:52:13Z</time>
      </trkpt>
      <trkpt lat="46.21554" lon="5.46945">
        <ele>291.6</ele>
        <time>2022-02-24T09:52:14Z</time>
      </trkpt>
      <trkpt lat="46.21552" lon="5.46942">
        <ele>291.6</ele>
        <time>2022-02-24T09:52:15Z</time>
      </trkpt>
      <trkpt lat="46.2155" lon="5.46939">
        <ele>292</ele>
        <time>2022-02-24T09:52:16Z</time>
      </trkpt>
      <trkpt lat="46.21548" lon="5.46935">
        <ele>292</ele>
        <time>2022-02-24T09:52:17Z</time>
      </trkpt>
      <trkpt lat="46.21545" lon="5.46933">
        <ele>292.2</ele>
        <time>2022-02-24T09:52:18Z</time>
      </trkpt>
      <trkpt lat="46.21543" lon="5.4693">
        <ele>292.2</ele>
        <time>2022-02-24T09:52:19Z</time>
      </trkpt>
      <trkpt lat="46.21541" lon="5.46927">
        <ele>292.8</ele>
        <time>2022-02-24T09:52:20Z</time>
      </trkpt>
      <trkpt lat="46.21538" lon="5.46924">
        <ele>293</ele>
        <time>2022-02-24T09:52:21Z</time>
      </trkpt>
      <trkpt lat="46.21536" lon="5.46921">
        <ele>293.2</ele>
        <time>2022-02-24T09:52:22Z</time>
      </trkpt>
      <trkpt lat="46.21534" lon="5.46918">
        <ele>293.4</ele>
        <time>2022-02-24T09:52:23Z</time>
      </trkpt>
      <trkpt lat="46.21531" lon="5.46915">
        <ele>293.4</ele>
        <time>2022-02-24T09:52:24Z</time>
      </trkpt>
      <trkpt lat="46.21529" lon="5.46912">
        <ele>293.8</ele>
        <time>2022-02-24T09:52:25Z</time>
      </trkpt>
      <trkpt lat="46.21527" lon="5.46908">
        <ele>293.8</ele>
        <time>2022-02-24T09:52:26Z</time>
      </trkpt>
      <trkpt lat="46.21525" lon="5.46904">
        <ele>293.8</ele>
        <time>2022-02-24T09:52:27Z</time>
      </trkpt>
      <trkpt lat="46.21523" lon="5.46901">
        <ele>294</ele>
        <time>2022-02-24T09:52:28Z</time>
      </trkpt>
      <trkpt lat="46.21521" lon="5.46897">
        <ele>294</ele>
        <time>2022-02-24T09:52:29Z</time>
      </trkpt>
      <trkpt lat="46.21518" lon="5.46895">
        <ele>294.2</ele>
        <time>2022-02-24T09:52:30Z</time>
      </trkpt>
      <trkpt lat="46.21516" lon="5.46892">
        <ele>294.4</ele>
        <time>2022-02-24T09:52:31Z</time>
      </trkpt>
      <trkpt lat="46.21514" lon="5.46888">
        <ele>294.8</ele>
        <time>2022-02-24T09:52:32Z</time>
      </trkpt>
      <trkpt lat="46.21512" lon="5.46885">
        <ele>295.2</ele>
        <time>2022-02-24T09:52:33Z</time>
      </trkpt>
      <trkpt lat="46.2151" lon="5.46882">
        <ele>295.4</ele>
        <time>2022-02-24T09:52:34Z</time>
      </trkpt>
      <trkpt lat="46.21508" lon="5.46878">
        <ele>295.8</ele>
        <time>2022-02-24T09:52:35Z</time>
      </trkpt>
      <trkpt lat="46.21506" lon="5.46875">
        <ele>295.8</ele>
        <time>2022-02-24T09:52:36Z</time>
      </trkpt>
      <trkpt lat="46.21504" lon="5.46871">
        <ele>296.2</ele>
        <time>2022-02-24T09:52:37Z</time>
      </trkpt>
      <trkpt lat="46.21502" lon="5.46867">
        <ele>296.4</ele>
        <time>2022-02-24T09:52:38Z</time>
      </trkpt>
      <trkpt lat="46.215" lon="5.46863">
        <ele>296.6</ele>
        <time>2022-02-24T09:52:39Z</time>
      </trkpt>
      <trkpt lat="46.21498" lon="5.46859">
        <ele>296.8</ele>
        <time>2022-02-24T09:52:40Z</time>
      </trkpt>
      <trkpt lat="46.21496" lon="5.46856">
        <ele>296.8</ele>
        <time>2022-02-24T09:52:41Z</time>
      </trkpt>
      <trkpt lat="46.21494" lon="5.46852">
        <ele>297.2</ele>
        <time>2022-02-24T09:52:42Z</time>
      </trkpt>
      <trkpt lat="46.21491" lon="5.46849">
        <ele>297.2</ele>
        <time>2022-02-24T09:52:43Z</time>
      </trkpt>
      <trkpt lat="46.21489" lon="5.46846">
        <ele>297.6</ele>
        <time>2022-02-24T09:52:44Z</time>
      </trkpt>
      <trkpt lat="46.21486" lon="5.46842">
        <ele>297.6</ele>
        <time>2022-02-24T09:52:45Z</time>
      </trkpt>
      <trkpt lat="46.21484" lon="5.46839">
        <ele>298</ele>
        <time>2022-02-24T09:52:46Z</time>
      </trkpt>
      <trkpt lat="46.21482" lon="5.46836">
        <ele>298.2</ele>
        <time>2022-02-24T09:52:47Z</time>
      </trkpt>
      <trkpt lat="46.2148" lon="5.46833">
        <ele>298.4</ele>
        <time>2022-02-24T09:52:48Z</time>
      </trkpt>
      <trkpt lat="46.21478" lon="5.46829">
        <ele>298.4</ele>
        <time>2022-02-24T09:52:49Z</time>
      </trkpt>
      <trkpt lat="46.21476" lon="5.46826">
        <ele>298.8</ele>
        <time>2022-02-24T09:52:50Z</time>
      </trkpt>
      <trkpt lat="46.21474" lon="5.46822">
        <ele>299.2</ele>
        <time>2022-02-24T09:52:51Z</time>
      </trkpt>
      <trkpt lat="46.21472" lon="5.46819">
        <ele>299.6</ele>
        <time>2022-02-24T09:52:52Z</time>
      </trkpt>
      <trkpt lat="46.21471" lon="5.46815">
        <ele>299.8</ele>
        <time>2022-02-24T09:52:53Z</time>
      </trkpt>
      <trkpt lat="46.21469" lon="5.46811">
        <ele>300</ele>
        <time>2022-02-24T09:52:54Z</time>
      </trkpt>
      <trkpt lat="46.21467" lon="5.46807">
        <ele>300.4</ele>
        <time>2022-02-24T09:52:55Z</time>
      </trkpt>
      <trkpt lat="46.21465" lon="5.46803">
        <ele>300.6</ele>
        <time>2022-02-24T09:52:56Z</time>
      </trkpt>
      <trkpt lat="46.21463" lon="5.46799">
        <ele>300.8</ele>
        <time>2022-02-24T09:52:57Z</time>
      </trkpt>
      <trkpt lat="46.2146" lon="5.46795">
        <ele>300.8</ele>
        <time>2022-02-24T09:52:58Z</time>
      </trkpt>
      <trkpt lat="46.21458" lon="5.46792">
        <ele>301.2</ele>
        <time>2022-02-24T09:52:59Z</time>
      </trkpt>
      <trkpt lat="46.21456" lon="5.46789">
        <ele>301.4</ele>
        <time>2022-02-24T09:53:00Z</time>
      </trkpt>
      <trkpt lat="46.21454" lon="5.46785">
        <ele>301.6</ele>
        <time>2022-02-24T09:53:01Z</time>
      </trkpt>
      <trkpt lat="46.21452" lon="5.46781">
        <ele>301.6</ele>
        <time>2022-02-24T09:53:02Z</time>
      </trkpt>
      <trkpt lat="46.2145" lon="5.46777">
        <ele>302</ele>
        <time>2022-02-24T09:53:03Z</time>
      </trkpt>
      <trkpt lat="46.21448" lon="5.46773">
        <ele>302</ele>
        <time>2022-02-24T09:53:04Z</time>
      </trkpt>
      <trkpt lat="46.21446" lon="5.46769">
        <ele>302.4</ele>
        <time>2022-02-24T09:53:05Z</time>
      </trkpt>
      <trkpt lat="46.21443" lon="5.46765">
        <ele>302.4</ele>
        <time>2022-02-24T09:53:06Z</time>
      </trkpt>
      <trkpt lat="46.21441" lon="5.46761">
        <ele>302.6</ele>
        <time>2022-02-24T09:53:07Z</time>
      </trkpt>
      <trkpt lat="46.21439" lon="5.46757">
        <ele>302.8</ele>
        <time>2022-02-24T09:53:08Z</time>
      </trkpt>
      <trkpt lat="46.21437" lon="5.46753">
        <ele>302.8</ele>
        <time>2022-02-24T09:53:09Z</time>
      </trkpt>
      <trkpt lat="46.21436" lon="5.46749">
        <ele>303</ele>
        <time>2022-02-24T09:53:10Z</time>
      </trkpt>
      <trkpt lat="46.21434" lon="5.46745">
        <ele>303</ele>
        <time>2022-02-24T09:53:11Z</time>
      </trkpt>
      <trkpt lat="46.21433" lon="5.46741">
        <ele>303</ele>
        <time>2022-02-24T09:53:12Z</time>
      </trkpt>
      <trkpt lat="46.21431" lon="5.46737">
        <ele>303.2</ele>
        <time>2022-02-24T09:53:13Z</time>
      </trkpt>
      <trkpt lat="46.21429" lon="5.46733">
        <ele>303.2</ele>
        <time>2022-02-24T09:53:14Z</time>
      </trkpt>
      <trkpt lat="46.21428" lon="5.4673">
        <ele>303.6</ele>
        <time>2022-02-24T09:53:15Z</time>
      </trkpt>
      <trkpt lat="46.21426" lon="5.46727">
        <ele>303.6</ele>
        <time>2022-02-24T09:53:16Z</time>
      </trkpt>
      <trkpt lat="46.21425" lon="5.46723">
        <ele>303.8</ele>
        <time>2022-02-24T09:53:17Z</time>
      </trkpt>
      <trkpt lat="46.21423" lon="5.46719">
        <ele>303.8</ele>
        <time>2022-02-24T09:53:18Z</time>
      </trkpt>
      <trkpt lat="46.21421" lon="5.46716">
        <ele>303.8</ele>
        <time>2022-02-24T09:53:19Z</time>
      </trkpt>
      <trkpt lat="46.2142" lon="5.46713">
        <ele>303.8</ele>
        <time>2022-02-24T09:53:20Z</time>
      </trkpt>
      <trkpt lat="46.21419" lon="5.4671">
        <ele>303.8</ele>
        <time>2022-02-24T09:53:21Z</time>
      </trkpt>
      <trkpt lat="46.21417" lon="5.46706">
        <ele>303.8</ele>
        <time>2022-02-24T09:53:22Z</time>
      </trkpt>
      <trkpt lat="46.21416" lon="5.46702">
        <ele>304.2</ele>
        <time>2022-02-24T09:53:23Z</time>
      </trkpt>
      <trkpt lat="46.21416" lon="5.46698">
        <ele>304.4</ele>
        <time>2022-02-24T09:53:24Z</time>
      </trkpt>
      <trkpt lat="46.21415" lon="5.46694">
        <ele>304.4</ele>
        <time>2022-02-24T09:53:25Z</time>
      </trkpt>
      <trkpt lat="46.21414" lon="5.4669">
        <ele>304.8</ele>
        <time>2022-02-24T09:53:26Z</time>
      </trkpt>
      <trkpt lat="46.21413" lon="5.46685">
        <ele>304.8</ele>
        <time>2022-02-24T09:53:27Z</time>
      </trkpt>
      <trkpt lat="46.21412" lon="5.46681">
        <ele>305.2</ele>
        <time>2022-02-24T09:53:28Z</time>
      </trkpt>
      <trkpt lat="46.21411" lon="5.46677">
        <ele>305.4</ele>
        <time>2022-02-24T09:53:29Z</time>
      </trkpt>
      <trkpt lat="46.21411" lon="5.46673">
        <ele>305.8</ele>
        <time>2022-02-24T09:53:30Z</time>
      </trkpt>
      <trkpt lat="46.2141" lon="5.46669">
        <ele>305.8</ele>
        <time>2022-02-24T09:53:31Z</time>
      </trkpt>
      <trkpt lat="46.2141" lon="5.46664">
        <ele>306</ele>
        <time>2022-02-24T09:53:32Z</time>
      </trkpt>
      <trkpt lat="46.2141" lon="5.4666">
        <ele>306</ele>
        <time>2022-02-24T09:53:33Z</time>
      </trkpt>
      <trkpt lat="46.2141" lon="5.46656">
        <ele>306</ele>
        <time>2022-02-24T09:53:34Z</time>
      </trkpt>
      <trkpt lat="46.21409" lon="5.46652">
        <ele>306.4</ele>
        <time>2022-02-24T09:53:35Z</time>
      </trkpt>
      <trkpt lat="46.21408" lon="5.46647">
        <ele>306.4</ele>
        <time>2022-02-24T09:53:36Z</time>
      </trkpt>
      <trkpt lat="46.21408" lon="5.46643">
        <ele>306.4</ele>
        <time>2022-02-24T09:53:37Z</time>
      </trkpt>
      <trkpt lat="46.21408" lon="5.46638">
        <ele>306.6</ele>
        <time>2022-02-24T09:53:38Z</time>
      </trkpt>
      <trkpt lat="46.21408" lon="5.46634">
        <ele>306.6</ele>
        <time>2022-02-24T09:53:39Z</time>
      </trkpt>
      <trkpt lat="46.21408" lon="5.4663">
        <ele>306.8</ele>
        <time>2022-02-24T09:53:40Z</time>
      </trkpt>
      <trkpt lat="46.21408" lon="5.46625">
        <ele>306.8</ele>
        <time>2022-02-24T09:53:41Z</time>
      </trkpt>
      <trkpt lat="46.21408" lon="5.46621">
        <ele>307.2</ele>
        <time>2022-02-24T09:53:42Z</time>
      </trkpt>
      <trkpt lat="46.21408" lon="5.46617">
        <ele>307.4</ele>
        <time>2022-02-24T09:53:43Z</time>
      </trkpt>
      <trkpt lat="46.21408" lon="5.46612">
        <ele>307.6</ele>
        <time>2022-02-24T09:53:44Z</time>
      </trkpt>
      <trkpt lat="46.21408" lon="5.46609">
        <ele>307.6</ele>
        <time>2022-02-24T09:53:45Z</time>
      </trkpt>
      <trkpt lat="46.21408" lon="5.46605">
        <ele>308</ele>
        <time>2022-02-24T09:53:46Z</time>
      </trkpt>
      <trkpt lat="46.21408" lon="5.46601">
        <ele>308</ele>
        <time>2022-02-24T09:53:47Z</time>
      </trkpt>
      <trkpt lat="46.21408" lon="5.46596">
        <ele>308.2</ele>
        <time>2022-02-24T09:53:48Z</time>
      </trkpt>
      <trkpt lat="46.21409" lon="5.46592">
        <ele>308.2</ele>
        <time>2022-02-24T09:53:49Z</time>
      </trkpt>
      <trkpt lat="46.2141" lon="5.46589">
        <ele>308.6</ele>
        <time>2022-02-24T09:53:50Z</time>
      </trkpt>
      <trkpt lat="46.2141" lon="5.46584">
        <ele>308.6</ele>
        <time>2022-02-24T09:53:51Z</time>
      </trkpt>
      <trkpt lat="46.2141" lon="5.4658">
        <ele>308.8</ele>
        <time>2022-02-24T09:53:52Z</time>
      </trkpt>
      <trkpt lat="46.21411" lon="5.46576">
        <ele>308.8</ele>
        <time>2022-02-24T09:53:53Z</time>
      </trkpt>
      <trkpt lat="46.21411" lon="5.46572">
        <ele>309.2</ele>
        <time>2022-02-24T09:53:54Z</time>
      </trkpt>
      <trkpt lat="46.21411" lon="5.46567">
        <ele>309.4</ele>
        <time>2022-02-24T09:53:55Z</time>
      </trkpt>
      <trkpt lat="46.21411" lon="5.46563">
        <ele>309.4</ele>
        <time>2022-02-24T09:53:56Z</time>
      </trkpt>
      <trkpt lat="46.21412" lon="5.46558">
        <ele>309.8</ele>
        <time>2022-02-24T09:53:57Z</time>
      </trkpt>
      <trkpt lat="46.21412" lon="5.46554">
        <ele>309.8</ele>
        <time>2022-02-24T09:53:58Z</time>
      </trkpt>
      <trkpt lat="46.21413" lon="5.4655">
        <ele>310</ele>
        <time>2022-02-24T09:53:59Z</time>
      </trkpt>
      <trkpt lat="46.21413" lon="5.46545">
        <ele>310.4</ele>
        <time>2022-02-24T09:54:00Z</time>
      </trkpt>
      <trkpt lat="46.21413" lon="5.4654">
        <ele>310.4</ele>
        <time>2022-02-24T09:54:01Z</time>
      </trkpt>
      <trkpt lat="46.21413" lon="5.46536">
        <ele>310.6</ele>
        <time>2022-02-24T09:54:02Z</time>
      </trkpt>
      <trkpt lat="46.21414" lon="5.46531">
        <ele>310.6</ele>
        <time>2022-02-24T09:54:03Z</time>
      </trkpt>
      <trkpt lat="46.21414" lon="5.46526">
        <ele>311</ele>
        <time>2022-02-24T09:54:04Z</time>
      </trkpt>
      <trkpt lat="46.21414" lon="5.46522">
        <ele>311</ele>
        <time>2022-02-24T09:54:05Z</time>
      </trkpt>
      <trkpt lat="46.21414" lon="5.46517">
        <ele>311.4</ele>
        <time>2022-02-24T09:54:06Z</time>
      </trkpt>
      <trkpt lat="46.21415" lon="5.46512">
        <ele>311.4</ele>
        <time>2022-02-24T09:54:07Z</time>
      </trkpt>
      <trkpt lat="46.21415" lon="5.46508">
        <ele>311.6</ele>
        <time>2022-02-24T09:54:08Z</time>
      </trkpt>
      <trkpt lat="46.21414" lon="5.46503">
        <ele>311.6</ele>
        <time>2022-02-24T09:54:09Z</time>
      </trkpt>
      <trkpt lat="46.21414" lon="5.46498">
        <ele>312</ele>
        <time>2022-02-24T09:54:10Z</time>
      </trkpt>
      <trkpt lat="46.21414" lon="5.46493">
        <ele>312</ele>
        <time>2022-02-24T09:54:11Z</time>
      </trkpt>
      <trkpt lat="46.21414" lon="5.46489">
        <ele>312.2</ele>
        <time>2022-02-24T09:54:12Z</time>
      </trkpt>
      <trkpt lat="46.21414" lon="5.46484">
        <ele>312.2</ele>
        <time>2022-02-24T09:54:13Z</time>
      </trkpt>
      <trkpt lat="46.21414" lon="5.4648">
        <ele>312.2</ele>
        <time>2022-02-24T09:54:14Z</time>
      </trkpt>
      <trkpt lat="46.21414" lon="5.46475">
        <ele>312.6</ele>
        <time>2022-02-24T09:54:15Z</time>
      </trkpt>
      <trkpt lat="46.21415" lon="5.46471">
        <ele>312.6</ele>
        <time>2022-02-24T09:54:16Z</time>
      </trkpt>
      <trkpt lat="46.21415" lon="5.46466">
        <ele>312.6</ele>
        <time>2022-02-24T09:54:17Z</time>
      </trkpt>
      <trkpt lat="46.21414" lon="5.46461">
        <ele>312.8</ele>
        <time>2022-02-24T09:54:18Z</time>
      </trkpt>
      <trkpt lat="46.21414" lon="5.46457">
        <ele>313</ele>
        <time>2022-02-24T09:54:19Z</time>
      </trkpt>
      <trkpt lat="46.21414" lon="5.46452">
        <ele>313.4</ele>
        <time>2022-02-24T09:54:20Z</time>
      </trkpt>
      <trkpt lat="46.21414" lon="5.46447">
        <ele>313.4</ele>
        <time>2022-02-24T09:54:21Z</time>
      </trkpt>
      <trkpt lat="46.21414" lon="5.46442">
        <ele>313.6</ele>
        <time>2022-02-24T09:54:22Z</time>
      </trkpt>
      <trkpt lat="46.21414" lon="5.46437">
        <ele>313.6</ele>
        <time>2022-02-24T09:54:23Z</time>
      </trkpt>
      <trkpt lat="46.21414" lon="5.46433">
        <ele>314</ele>
        <time>2022-02-24T09:54:24Z</time>
      </trkpt>
      <trkpt lat="46.21414" lon="5.46428">
        <ele>314</ele>
        <time>2022-02-24T09:54:25Z</time>
      </trkpt>
      <trkpt lat="46.21413" lon="5.46424">
        <ele>314.4</ele>
        <time>2022-02-24T09:54:26Z</time>
      </trkpt>
      <trkpt lat="46.21413" lon="5.4642">
        <ele>314.4</ele>
        <time>2022-02-24T09:54:27Z</time>
      </trkpt>
      <trkpt lat="46.21412" lon="5.46415">
        <ele>314.8</ele>
        <time>2022-02-24T09:54:28Z</time>
      </trkpt>
      <trkpt lat="46.21412" lon="5.46411">
        <ele>314.8</ele>
        <time>2022-02-24T09:54:29Z</time>
      </trkpt>
      <trkpt lat="46.21412" lon="5.46407">
        <ele>315.2</ele>
        <time>2022-02-24T09:54:30Z</time>
      </trkpt>
      <trkpt lat="46.21412" lon="5.46402">
        <ele>315.4</ele>
        <time>2022-02-24T09:54:31Z</time>
      </trkpt>
      <trkpt lat="46.21412" lon="5.46398">
        <ele>315.4</ele>
        <time>2022-02-24T09:54:32Z</time>
      </trkpt>
      <trkpt lat="46.21411" lon="5.46394">
        <ele>315.6</ele>
        <time>2022-02-24T09:54:33Z</time>
      </trkpt>
      <trkpt lat="46.2141" lon="5.4639">
        <ele>315.6</ele>
        <time>2022-02-24T09:54:34Z</time>
      </trkpt>
      <trkpt lat="46.2141" lon="5.46386">
        <ele>316</ele>
        <time>2022-02-24T09:54:35Z</time>
      </trkpt>
      <trkpt lat="46.21409" lon="5.46381">
        <ele>316</ele>
        <time>2022-02-24T09:54:36Z</time>
      </trkpt>
      <trkpt lat="46.21408" lon="5.46377">
        <ele>316.4</ele>
        <time>2022-02-24T09:54:37Z</time>
      </trkpt>
      <trkpt lat="46.21408" lon="5.46372">
        <ele>316.4</ele>
        <time>2022-02-24T09:54:38Z</time>
      </trkpt>
      <trkpt lat="46.21408" lon="5.46368">
        <ele>316.6</ele>
        <time>2022-02-24T09:54:39Z</time>
      </trkpt>
      <trkpt lat="46.21407" lon="5.46363">
        <ele>316.6</ele>
        <time>2022-02-24T09:54:40Z</time>
      </trkpt>
      <trkpt lat="46.21407" lon="5.46359">
        <ele>317</ele>
        <time>2022-02-24T09:54:41Z</time>
      </trkpt>
      <trkpt lat="46.21407" lon="5.46354">
        <ele>317</ele>
        <time>2022-02-24T09:54:42Z</time>
      </trkpt>
      <trkpt lat="46.21408" lon="5.4635">
        <ele>317.2</ele>
        <time>2022-02-24T09:54:43Z</time>
      </trkpt>
      <trkpt lat="46.21408" lon="5.46345">
        <ele>317.2</ele>
        <time>2022-02-24T09:54:44Z</time>
      </trkpt>
      <trkpt lat="46.21409" lon="5.4634">
        <ele>317.4</ele>
        <time>2022-02-24T09:54:45Z</time>
      </trkpt>
      <trkpt lat="46.21409" lon="5.46335">
        <ele>317.4</ele>
        <time>2022-02-24T09:54:46Z</time>
      </trkpt>
      <trkpt lat="46.2141" lon="5.4633">
        <ele>317.4</ele>
        <time>2022-02-24T09:54:47Z</time>
      </trkpt>
      <trkpt lat="46.21411" lon="5.46325">
        <ele>317.4</ele>
        <time>2022-02-24T09:54:48Z</time>
      </trkpt>
      <trkpt lat="46.21412" lon="5.4632">
        <ele>317.6</ele>
        <time>2022-02-24T09:54:49Z</time>
      </trkpt>
      <trkpt lat="46.21413" lon="5.46315">
        <ele>317.6</ele>
        <time>2022-02-24T09:54:50Z</time>
      </trkpt>
      <trkpt lat="46.21414" lon="5.46311">
        <ele>318</ele>
        <time>2022-02-24T09:54:51Z</time>
      </trkpt>
      <trkpt lat="46.21416" lon="5.46307">
        <ele>318</ele>
        <time>2022-02-24T09:54:52Z</time>
      </trkpt>
      <trkpt lat="46.21417" lon="5.46302">
        <ele>318.2</ele>
        <time>2022-02-24T09:54:53Z</time>
      </trkpt>
      <trkpt lat="46.21418" lon="5.46298">
        <ele>318.2</ele>
        <time>2022-02-24T09:54:54Z</time>
      </trkpt>
      <trkpt lat="46.21419" lon="5.46294">
        <ele>318.2</ele>
        <time>2022-02-24T09:54:55Z</time>
      </trkpt>
      <trkpt lat="46.21421" lon="5.46289">
        <ele>318.2</ele>
        <time>2022-02-24T09:54:56Z</time>
      </trkpt>
      <trkpt lat="46.21422" lon="5.46285">
        <ele>318.6</ele>
        <time>2022-02-24T09:54:57Z</time>
      </trkpt>
      <trkpt lat="46.21423" lon="5.46282">
        <ele>318.6</ele>
        <time>2022-02-24T09:54:58Z</time>
      </trkpt>
      <trkpt lat="46.21425" lon="5.46278">
        <ele>318.6</ele>
        <time>2022-02-24T09:54:59Z</time>
      </trkpt>
      <trkpt lat="46.21426" lon="5.46274">
        <ele>319</ele>
        <time>2022-02-24T09:55:00Z</time>
      </trkpt>
      <trkpt lat="46.21428" lon="5.46271">
        <ele>319</ele>
        <time>2022-02-24T09:55:01Z</time>
      </trkpt>
      <trkpt lat="46.21429" lon="5.46268">
        <ele>319.2</ele>
        <time>2022-02-24T09:55:02Z</time>
      </trkpt>
      <trkpt lat="46.21431" lon="5.46265">
        <ele>319.2</ele>
        <time>2022-02-24T09:55:03Z</time>
      </trkpt>
      <trkpt lat="46.21432" lon="5.46262">
        <ele>319.6</ele>
        <time>2022-02-24T09:55:04Z</time>
      </trkpt>
      <trkpt lat="46.21434" lon="5.46259">
        <ele>319.6</ele>
        <time>2022-02-24T09:55:05Z</time>
      </trkpt>
      <trkpt lat="46.21436" lon="5.46256">
        <ele>320</ele>
        <time>2022-02-24T09:55:06Z</time>
      </trkpt>
      <trkpt lat="46.21438" lon="5.46252">
        <ele>320</ele>
        <time>2022-02-24T09:55:07Z</time>
      </trkpt>
      <trkpt lat="46.2144" lon="5.46249">
        <ele>320.2</ele>
        <time>2022-02-24T09:55:08Z</time>
      </trkpt>
      <trkpt lat="46.21442" lon="5.46246">
        <ele>320.2</ele>
        <time>2022-02-24T09:55:09Z</time>
      </trkpt>
      <trkpt lat="46.21444" lon="5.46242">
        <ele>320.2</ele>
        <time>2022-02-24T09:55:10Z</time>
      </trkpt>
      <trkpt lat="46.21446" lon="5.46238">
        <ele>320</ele>
        <time>2022-02-24T09:55:11Z</time>
      </trkpt>
      <trkpt lat="46.21448" lon="5.46235">
        <ele>320</ele>
        <time>2022-02-24T09:55:12Z</time>
      </trkpt>
      <trkpt lat="46.21451" lon="5.46231">
        <ele>320</ele>
        <time>2022-02-24T09:55:13Z</time>
      </trkpt>
      <trkpt lat="46.21453" lon="5.46228">
        <ele>320</ele>
        <time>2022-02-24T09:55:14Z</time>
      </trkpt>
      <trkpt lat="46.21456" lon="5.46224">
        <ele>320</ele>
        <time>2022-02-24T09:55:15Z</time>
      </trkpt>
      <trkpt lat="46.21459" lon="5.4622">
        <ele>320</ele>
        <time>2022-02-24T09:55:16Z</time>
      </trkpt>
      <trkpt lat="46.21462" lon="5.46217">
        <ele>320</ele>
        <time>2022-02-24T09:55:17Z</time>
      </trkpt>
      <trkpt lat="46.21465" lon="5.46213">
        <ele>320</ele>
        <time>2022-02-24T09:55:18Z</time>
      </trkpt>
      <trkpt lat="46.21469" lon="5.4621">
        <ele>319.8</ele>
        <time>2022-02-24T09:55:19Z</time>
      </trkpt>
      <trkpt lat="46.21472" lon="5.46206">
        <ele>319.8</ele>
        <time>2022-02-24T09:55:20Z</time>
      </trkpt>
      <trkpt lat="46.21475" lon="5.46203">
        <ele>319.8</ele>
        <time>2022-02-24T09:55:21Z</time>
      </trkpt>
      <trkpt lat="46.21479" lon="5.462">
        <ele>320</ele>
        <time>2022-02-24T09:55:22Z</time>
      </trkpt>
      <trkpt lat="46.21484" lon="5.46196">
        <ele>320</ele>
        <time>2022-02-24T09:55:23Z</time>
      </trkpt>
      <trkpt lat="46.21486" lon="5.46195">
        <ele>320.4</ele>
        <time>2022-02-24T09:55:24Z</time>
      </trkpt>
      <trkpt lat="46.2149" lon="5.46192">
        <ele>320.4</ele>
        <time>2022-02-24T09:55:25Z</time>
      </trkpt>
      <trkpt lat="46.21494" lon="5.4619">
        <ele>320.4</ele>
        <time>2022-02-24T09:55:26Z</time>
      </trkpt>
      <trkpt lat="46.21498" lon="5.46187">
        <ele>320.4</ele>
        <time>2022-02-24T09:55:27Z</time>
      </trkpt>
      <trkpt lat="46.21502" lon="5.46185">
        <ele>320.6</ele>
        <time>2022-02-24T09:55:28Z</time>
      </trkpt>
      <trkpt lat="46.21506" lon="5.46182">
        <ele>320.6</ele>
        <time>2022-02-24T09:55:29Z</time>
      </trkpt>
      <trkpt lat="46.2151" lon="5.4618">
        <ele>320.6</ele>
        <time>2022-02-24T09:55:30Z</time>
      </trkpt>
      <trkpt lat="46.21514" lon="5.46179">
        <ele>320.6</ele>
        <time>2022-02-24T09:55:31Z</time>
      </trkpt>
      <trkpt lat="46.21518" lon="5.46177">
        <ele>320.8</ele>
        <time>2022-02-24T09:55:32Z</time>
      </trkpt>
      <trkpt lat="46.21522" lon="5.46176">
        <ele>320.8</ele>
        <time>2022-02-24T09:55:33Z</time>
      </trkpt>
      <trkpt lat="46.21526" lon="5.46175">
        <ele>320.8</ele>
        <time>2022-02-24T09:55:34Z</time>
      </trkpt>
      <trkpt lat="46.21529" lon="5.46173">
        <ele>320.8</ele>
        <time>2022-02-24T09:55:35Z</time>
      </trkpt>
      <trkpt lat="46.21533" lon="5.46172">
        <ele>321.2</ele>
        <time>2022-02-24T09:55:36Z</time>
      </trkpt>
      <trkpt lat="46.21536" lon="5.46171">
        <ele>321.2</ele>
        <time>2022-02-24T09:55:37Z</time>
      </trkpt>
      <trkpt lat="46.21539" lon="5.46171">
        <ele>321.4</ele>
        <time>2022-02-24T09:55:38Z</time>
      </trkpt>
      <trkpt lat="46.21543" lon="5.46171">
        <ele>321.4</ele>
        <time>2022-02-24T09:55:39Z</time>
      </trkpt>
      <trkpt lat="46.21546" lon="5.46171">
        <ele>321.6</ele>
        <time>2022-02-24T09:55:40Z</time>
      </trkpt>
      <trkpt lat="46.2155" lon="5.46171">
        <ele>321.8</ele>
        <time>2022-02-24T09:55:41Z</time>
      </trkpt>
      <trkpt lat="46.21553" lon="5.46172">
        <ele>321.8</ele>
        <time>2022-02-24T09:55:42Z</time>
      </trkpt>
      <trkpt lat="46.21557" lon="5.46172">
        <ele>322.2</ele>
        <time>2022-02-24T09:55:43Z</time>
      </trkpt>
      <trkpt lat="46.2156" lon="5.46172">
        <ele>322.4</ele>
        <time>2022-02-24T09:55:44Z</time>
      </trkpt>
      <trkpt lat="46.21564" lon="5.46172">
        <ele>322.6</ele>
        <time>2022-02-24T09:55:45Z</time>
      </trkpt>
      <trkpt lat="46.21564" lon="5.46172">
        <ele>322.6</ele>
        <time>2022-02-24T09:55:46Z</time>
      </trkpt>
      <trkpt lat="46.21567" lon="5.46172">
        <ele>323.2</ele>
        <time>2022-02-24T09:55:47Z</time>
      </trkpt>
      <trkpt lat="46.21571" lon="5.46172">
        <ele>323.4</ele>
        <time>2022-02-24T09:55:48Z</time>
      </trkpt>
      <trkpt lat="46.21577" lon="5.4617">
        <ele>323.6</ele>
        <time>2022-02-24T09:55:49Z</time>
      </trkpt>
      <trkpt lat="46.2158" lon="5.46169">
        <ele>323.8</ele>
        <time>2022-02-24T09:55:50Z</time>
      </trkpt>
      <trkpt lat="46.21583" lon="5.46167">
        <ele>324</ele>
        <time>2022-02-24T09:55:51Z</time>
      </trkpt>
      <trkpt lat="46.21586" lon="5.46166">
        <ele>324.4</ele>
        <time>2022-02-24T09:55:52Z</time>
      </trkpt>
      <trkpt lat="46.21588" lon="5.46163">
        <ele>324.6</ele>
        <time>2022-02-24T09:55:53Z</time>
      </trkpt>
      <trkpt lat="46.21591" lon="5.46161">
        <ele>324.8</ele>
        <time>2022-02-24T09:55:54Z</time>
      </trkpt>
      <trkpt lat="46.21593" lon="5.46158">
        <ele>325.2</ele>
        <time>2022-02-24T09:55:55Z</time>
      </trkpt>
      <trkpt lat="46.21595" lon="5.46155">
        <ele>325.4</ele>
        <time>2022-02-24T09:55:56Z</time>
      </trkpt>
      <trkpt lat="46.21598" lon="5.46152">
        <ele>325.8</ele>
        <time>2022-02-24T09:55:57Z</time>
      </trkpt>
      <trkpt lat="46.216" lon="5.46148">
        <ele>326</ele>
        <time>2022-02-24T09:55:58Z</time>
      </trkpt>
      <trkpt lat="46.21601" lon="5.46145">
        <ele>326</ele>
        <time>2022-02-24T09:55:59Z</time>
      </trkpt>
      <trkpt lat="46.21603" lon="5.46141">
        <ele>326.2</ele>
        <time>2022-02-24T09:56:00Z</time>
      </trkpt>
      <trkpt lat="46.21605" lon="5.46138">
        <ele>326.2</ele>
        <time>2022-02-24T09:56:01Z</time>
      </trkpt>
      <trkpt lat="46.21607" lon="5.46135">
        <ele>326.6</ele>
        <time>2022-02-24T09:56:02Z</time>
      </trkpt>
      <trkpt lat="46.21609" lon="5.46132">
        <ele>326.6</ele>
        <time>2022-02-24T09:56:03Z</time>
      </trkpt>
      <trkpt lat="46.21611" lon="5.46128">
        <ele>326.8</ele>
        <time>2022-02-24T09:56:04Z</time>
      </trkpt>
      <trkpt lat="46.21613" lon="5.46125">
        <ele>327.2</ele>
        <time>2022-02-24T09:56:05Z</time>
      </trkpt>
      <trkpt lat="46.21615" lon="5.46122">
        <ele>327.2</ele>
        <time>2022-02-24T09:56:06Z</time>
      </trkpt>
      <trkpt lat="46.21617" lon="5.4612">
        <ele>327.4</ele>
        <time>2022-02-24T09:56:07Z</time>
      </trkpt>
      <trkpt lat="46.2162" lon="5.46117">
        <ele>327.4</ele>
        <time>2022-02-24T09:56:08Z</time>
      </trkpt>
      <trkpt lat="46.21622" lon="5.46115">
        <ele>327.6</ele>
        <time>2022-02-24T09:56:09Z</time>
      </trkpt>
      <trkpt lat="46.21624" lon="5.46112">
        <ele>327.6</ele>
        <time>2022-02-24T09:56:10Z</time>
      </trkpt>
      <trkpt lat="46.21627" lon="5.4611">
        <ele>328</ele>
        <time>2022-02-24T09:56:11Z</time>
      </trkpt>
      <trkpt lat="46.21629" lon="5.46108">
        <ele>328</ele>
        <time>2022-02-24T09:56:12Z</time>
      </trkpt>
      <trkpt lat="46.21632" lon="5.46106">
        <ele>328</ele>
        <time>2022-02-24T09:56:13Z</time>
      </trkpt>
      <trkpt lat="46.21635" lon="5.46104">
        <ele>328</ele>
        <time>2022-02-24T09:56:14Z</time>
      </trkpt>
      <trkpt lat="46.21638" lon="5.46103">
        <ele>328.4</ele>
        <time>2022-02-24T09:56:15Z</time>
      </trkpt>
      <trkpt lat="46.2164" lon="5.46102">
        <ele>328.8</ele>
        <time>2022-02-24T09:56:16Z</time>
      </trkpt>
      <trkpt lat="46.21643" lon="5.461">
        <ele>329.2</ele>
        <time>2022-02-24T09:56:17Z</time>
      </trkpt>
      <trkpt lat="46.21646" lon="5.46099">
        <ele>329.6</ele>
        <time>2022-02-24T09:56:18Z</time>
      </trkpt>
      <trkpt lat="46.21649" lon="5.46097">
        <ele>329.8</ele>
        <time>2022-02-24T09:56:19Z</time>
      </trkpt>
      <trkpt lat="46.21652" lon="5.46096">
        <ele>330</ele>
        <time>2022-02-24T09:56:20Z</time>
      </trkpt>
      <trkpt lat="46.21655" lon="5.46095">
        <ele>330</ele>
        <time>2022-02-24T09:56:21Z</time>
      </trkpt>
      <trkpt lat="46.21658" lon="5.46093">
        <ele>330.4</ele>
        <time>2022-02-24T09:56:22Z</time>
      </trkpt>
      <trkpt lat="46.21661" lon="5.46091">
        <ele>330.4</ele>
        <time>2022-02-24T09:56:23Z</time>
      </trkpt>
      <trkpt lat="46.21664" lon="5.4609">
        <ele>330.4</ele>
        <time>2022-02-24T09:56:24Z</time>
      </trkpt>
      <trkpt lat="46.21667" lon="5.46088">
        <ele>330.6</ele>
        <time>2022-02-24T09:56:25Z</time>
      </trkpt>
      <trkpt lat="46.2167" lon="5.46086">
        <ele>330.6</ele>
        <time>2022-02-24T09:56:26Z</time>
      </trkpt>
      <trkpt lat="46.21672" lon="5.46085">
        <ele>331</ele>
        <time>2022-02-24T09:56:27Z</time>
      </trkpt>
      <trkpt lat="46.21675" lon="5.46083">
        <ele>331</ele>
        <time>2022-02-24T09:56:28Z</time>
      </trkpt>
      <trkpt lat="46.21678" lon="5.46081">
        <ele>331.2</ele>
        <time>2022-02-24T09:56:29Z</time>
      </trkpt>
      <trkpt lat="46.21681" lon="5.46079">
        <ele>331.2</ele>
        <time>2022-02-24T09:56:30Z</time>
      </trkpt>
      <trkpt lat="46.21684" lon="5.46077">
        <ele>331.2</ele>
        <time>2022-02-24T09:56:31Z</time>
      </trkpt>
      <trkpt lat="46.21687" lon="5.46075">
        <ele>331.2</ele>
        <time>2022-02-24T09:56:32Z</time>
      </trkpt>
      <trkpt lat="46.2169" lon="5.46073">
        <ele>331.2</ele>
        <time>2022-02-24T09:56:33Z</time>
      </trkpt>
      <trkpt lat="46.21694" lon="5.46071">
        <ele>331.2</ele>
        <time>2022-02-24T09:56:34Z</time>
      </trkpt>
      <trkpt lat="46.21697" lon="5.46069">
        <ele>331.4</ele>
        <time>2022-02-24T09:56:35Z</time>
      </trkpt>
      <trkpt lat="46.217" lon="5.46066">
        <ele>331.4</ele>
        <time>2022-02-24T09:56:36Z</time>
      </trkpt>
      <trkpt lat="46.21703" lon="5.46064">
        <ele>331.8</ele>
        <time>2022-02-24T09:56:37Z</time>
      </trkpt>
      <trkpt lat="46.21706" lon="5.4606">
        <ele>331.8</ele>
        <time>2022-02-24T09:56:38Z</time>
      </trkpt>
      <trkpt lat="46.21709" lon="5.46057">
        <ele>331.8</ele>
        <time>2022-02-24T09:56:39Z</time>
      </trkpt>
      <trkpt lat="46.21712" lon="5.46053">
        <ele>331.8</ele>
        <time>2022-02-24T09:56:40Z</time>
      </trkpt>
      <trkpt lat="46.21715" lon="5.46049">
        <ele>331.8</ele>
        <time>2022-02-24T09:56:41Z</time>
      </trkpt>
      <trkpt lat="46.21717" lon="5.46043">
        <ele>331.8</ele>
        <time>2022-02-24T09:56:42Z</time>
      </trkpt>
      <trkpt lat="46.21719" lon="5.46038">
        <ele>331.4</ele>
        <time>2022-02-24T09:56:43Z</time>
      </trkpt>
      <trkpt lat="46.2172" lon="5.46031">
        <ele>331.2</ele>
        <time>2022-02-24T09:56:44Z</time>
      </trkpt>
      <trkpt lat="46.21723" lon="5.46024">
        <ele>330.8</ele>
        <time>2022-02-24T09:56:45Z</time>
      </trkpt>
      <trkpt lat="46.21725" lon="5.46017">
        <ele>330.6</ele>
        <time>2022-02-24T09:56:46Z</time>
      </trkpt>
      <trkpt lat="46.21729" lon="5.4601">
        <ele>330.2</ele>
        <time>2022-02-24T09:56:47Z</time>
      </trkpt>
      <trkpt lat="46.21732" lon="5.46003">
        <ele>329.8</ele>
        <time>2022-02-24T09:56:48Z</time>
      </trkpt>
      <trkpt lat="46.21737" lon="5.45996">
        <ele>329.4</ele>
        <time>2022-02-24T09:56:49Z</time>
      </trkpt>
      <trkpt lat="46.21741" lon="5.45989">
        <ele>329</ele>
        <time>2022-02-24T09:56:50Z</time>
      </trkpt>
      <trkpt lat="46.21747" lon="5.45982">
        <ele>328.6</ele>
        <time>2022-02-24T09:56:51Z</time>
      </trkpt>
      <trkpt lat="46.21752" lon="5.45976">
        <ele>328.2</ele>
        <time>2022-02-24T09:56:52Z</time>
      </trkpt>
      <trkpt lat="46.21758" lon="5.4597">
        <ele>327.8</ele>
        <time>2022-02-24T09:56:53Z</time>
      </trkpt>
      <trkpt lat="46.21765" lon="5.45963">
        <ele>327.2</ele>
        <time>2022-02-24T09:56:54Z</time>
      </trkpt>
      <trkpt lat="46.21771" lon="5.45955">
        <ele>326.6</ele>
        <time>2022-02-24T09:56:55Z</time>
      </trkpt>
      <trkpt lat="46.21777" lon="5.45946">
        <ele>326.2</ele>
        <time>2022-02-24T09:56:56Z</time>
      </trkpt>
      <trkpt lat="46.21782" lon="5.45936">
        <ele>325.8</ele>
        <time>2022-02-24T09:56:57Z</time>
      </trkpt>
      <trkpt lat="46.21787" lon="5.45926">
        <ele>325.2</ele>
        <time>2022-02-24T09:56:58Z</time>
      </trkpt>
      <trkpt lat="46.21792" lon="5.45916">
        <ele>324.8</ele>
        <time>2022-02-24T09:56:59Z</time>
      </trkpt>
      <trkpt lat="46.21799" lon="5.45908">
        <ele>324.2</ele>
        <time>2022-02-24T09:57:00Z</time>
      </trkpt>
      <trkpt lat="46.21806" lon="5.45901">
        <ele>323.6</ele>
        <time>2022-02-24T09:57:01Z</time>
      </trkpt>
      <trkpt lat="46.21814" lon="5.45895">
        <ele>323</ele>
        <time>2022-02-24T09:57:02Z</time>
      </trkpt>
      <trkpt lat="46.21823" lon="5.45891">
        <ele>322.6</ele>
        <time>2022-02-24T09:57:03Z</time>
      </trkpt>
      <trkpt lat="46.21835" lon="5.45889">
        <ele>322.2</ele>
        <time>2022-02-24T09:57:04Z</time>
      </trkpt>
      <trkpt lat="46.21839" lon="5.45889">
        <ele>321.8</ele>
        <time>2022-02-24T09:57:05Z</time>
      </trkpt>
      <trkpt lat="46.21846" lon="5.45887">
        <ele>321.6</ele>
        <time>2022-02-24T09:57:06Z</time>
      </trkpt>
      <trkpt lat="46.21852" lon="5.45884">
        <ele>321.4</ele>
        <time>2022-02-24T09:57:07Z</time>
      </trkpt>
      <trkpt lat="46.21857" lon="5.45878">
        <ele>321</ele>
        <time>2022-02-24T09:57:08Z</time>
      </trkpt>
      <trkpt lat="46.2186" lon="5.4587">
        <ele>320.6</ele>
        <time>2022-02-24T09:57:09Z</time>
      </trkpt>
      <trkpt lat="46.2186" lon="5.45861">
        <ele>320.2</ele>
        <time>2022-02-24T09:57:10Z</time>
      </trkpt>
      <trkpt lat="46.21858" lon="5.45846">
        <ele>319.8</ele>
        <time>2022-02-24T09:57:11Z</time>
      </trkpt>
      <trkpt lat="46.21856" lon="5.45841">
        <ele>319.6</ele>
        <time>2022-02-24T09:57:12Z</time>
      </trkpt>
      <trkpt lat="46.21852" lon="5.45833">
        <ele>319.4</ele>
        <time>2022-02-24T09:57:13Z</time>
      </trkpt>
      <trkpt lat="46.21847" lon="5.45824">
        <ele>319.2</ele>
        <time>2022-02-24T09:57:14Z</time>
      </trkpt>
      <trkpt lat="46.21842" lon="5.45815">
        <ele>318.8</ele>
        <time>2022-02-24T09:57:15Z</time>
      </trkpt>
      <trkpt lat="46.21837" lon="5.45806">
        <ele>318.4</ele>
        <time>2022-02-24T09:57:16Z</time>
      </trkpt>
      <trkpt lat="46.21832" lon="5.45797">
        <ele>318</ele>
        <time>2022-02-24T09:57:17Z</time>
      </trkpt>
      <trkpt lat="46.21827" lon="5.45789">
        <ele>317.8</ele>
        <time>2022-02-24T09:57:18Z</time>
      </trkpt>
      <trkpt lat="46.21822" lon="5.4578">
        <ele>317.4</ele>
        <time>2022-02-24T09:57:19Z</time>
      </trkpt>
      <trkpt lat="46.21816" lon="5.45771">
        <ele>317</ele>
        <time>2022-02-24T09:57:20Z</time>
      </trkpt>
      <trkpt lat="46.21812" lon="5.45762">
        <ele>316.8</ele>
        <time>2022-02-24T09:57:21Z</time>
      </trkpt>
      <trkpt lat="46.21808" lon="5.45751">
        <ele>316.6</ele>
        <time>2022-02-24T09:57:22Z</time>
      </trkpt>
      <trkpt lat="46.21805" lon="5.45741">
        <ele>316.2</ele>
        <time>2022-02-24T09:57:23Z</time>
      </trkpt>
      <trkpt lat="46.21803" lon="5.45729">
        <ele>316</ele>
        <time>2022-02-24T09:57:24Z</time>
      </trkpt>
      <trkpt lat="46.21801" lon="5.45718">
        <ele>315.8</ele>
        <time>2022-02-24T09:57:25Z</time>
      </trkpt>
      <trkpt lat="46.21801" lon="5.45705">
        <ele>315.8</ele>
        <time>2022-02-24T09:57:26Z</time>
      </trkpt>
      <trkpt lat="46.21801" lon="5.45694">
        <ele>315.4</ele>
        <time>2022-02-24T09:57:27Z</time>
      </trkpt>
      <trkpt lat="46.21801" lon="5.45682">
        <ele>315.4</ele>
        <time>2022-02-24T09:57:28Z</time>
      </trkpt>
      <trkpt lat="46.218" lon="5.45671">
        <ele>315</ele>
        <time>2022-02-24T09:57:29Z</time>
      </trkpt>
      <trkpt lat="46.21801" lon="5.4566">
        <ele>315</ele>
        <time>2022-02-24T09:57:30Z</time>
      </trkpt>
      <trkpt lat="46.21801" lon="5.45649">
        <ele>314.8</ele>
        <time>2022-02-24T09:57:31Z</time>
      </trkpt>
      <trkpt lat="46.21801" lon="5.4564">
        <ele>314.8</ele>
        <time>2022-02-24T09:57:32Z</time>
      </trkpt>
      <trkpt lat="46.21802" lon="5.45633">
        <ele>314.4</ele>
        <time>2022-02-24T09:57:33Z</time>
      </trkpt>
      <trkpt lat="46.21802" lon="5.45628">
        <ele>314.4</ele>
        <time>2022-02-24T09:57:34Z</time>
      </trkpt>
      <trkpt lat="46.21803" lon="5.45624">
        <ele>314.2</ele>
        <time>2022-02-24T09:57:35Z</time>
      </trkpt>
      <trkpt lat="46.21803" lon="5.45622">
        <ele>314.2</ele>
        <time>2022-02-24T09:57:36Z</time>
      </trkpt>
      <trkpt lat="46.21802" lon="5.45621">
        <ele>314</ele>
        <time>2022-02-24T09:57:37Z</time>
      </trkpt>
      <trkpt lat="46.21802" lon="5.45629">
        <ele>314</ele>
        <time>2022-02-24T09:57:42Z</time>
      </trkpt>
      <trkpt lat="46.21802" lon="5.45632">
        <ele>314</ele>
        <time>2022-02-24T09:57:43Z</time>
      </trkpt>
      <trkpt lat="46.21803" lon="5.45634">
        <ele>314</ele>
        <time>2022-02-24T09:57:44Z</time>
      </trkpt>
      <trkpt lat="46.21803" lon="5.45637">
        <ele>314</ele>
        <time>2022-02-24T09:57:45Z</time>
      </trkpt>
      <trkpt lat="46.21803" lon="5.45641">
        <ele>314</ele>
        <time>2022-02-24T09:57:46Z</time>
      </trkpt>
      <trkpt lat="46.21802" lon="5.45645">
        <ele>314.2</ele>
        <time>2022-02-24T09:57:47Z</time>
      </trkpt>
      <trkpt lat="46.21802" lon="5.45647">
        <ele>314.2</ele>
        <time>2022-02-24T09:57:48Z</time>
      </trkpt>
      <trkpt lat="46.21802" lon="5.4565">
        <ele>314.2</ele>
        <time>2022-02-24T09:57:49Z</time>
      </trkpt>
      <trkpt lat="46.21801" lon="5.45653">
        <ele>314.2</ele>
        <time>2022-02-24T09:57:50Z</time>
      </trkpt>
      <trkpt lat="46.21801" lon="5.45656">
        <ele>314.2</ele>
        <time>2022-02-24T09:57:51Z</time>
      </trkpt>
      <trkpt lat="46.21801" lon="5.45659">
        <ele>314.4</ele>
        <time>2022-02-24T09:57:52Z</time>
      </trkpt>
      <trkpt lat="46.21801" lon="5.45662">
        <ele>314.4</ele>
        <time>2022-02-24T09:57:53Z</time>
      </trkpt>
      <trkpt lat="46.218" lon="5.45666">
        <ele>314.6</ele>
        <time>2022-02-24T09:57:54Z</time>
      </trkpt>
      <trkpt lat="46.218" lon="5.45669">
        <ele>314.6</ele>
        <time>2022-02-24T09:57:55Z</time>
      </trkpt>
      <trkpt lat="46.218" lon="5.45671">
        <ele>314.6</ele>
        <time>2022-02-24T09:57:56Z</time>
      </trkpt>
      <trkpt lat="46.218" lon="5.45673">
        <ele>314.6</ele>
        <time>2022-02-24T09:57:57Z</time>
      </trkpt>
      <trkpt lat="46.218" lon="5.45673">
        <ele>314.8</ele>
        <time>2022-02-24T09:57:58Z</time>
      </trkpt>
      <trkpt lat="46.218" lon="5.45667">
        <ele>314.4</ele>
        <time>2022-02-24T09:58:56Z</time>
      </trkpt>
      <trkpt lat="46.218" lon="5.45665">
        <ele>314.4</ele>
        <time>2022-02-24T09:58:57Z</time>
      </trkpt>
      <trkpt lat="46.21801" lon="5.45662">
        <ele>314.4</ele>
        <time>2022-02-24T09:58:58Z</time>
      </trkpt>
      <trkpt lat="46.21801" lon="5.45659">
        <ele>314.4</ele>
        <time>2022-02-24T09:58:59Z</time>
      </trkpt>
      <trkpt lat="46.21801" lon="5.45656">
        <ele>314.4</ele>
        <time>2022-02-24T09:59:00Z</time>
      </trkpt>
      <trkpt lat="46.21802" lon="5.45651">
        <ele>314.4</ele>
        <time>2022-02-24T09:59:01Z</time>
      </trkpt>
      <trkpt lat="46.21802" lon="5.45647">
        <ele>314.4</ele>
        <time>2022-02-24T09:59:02Z</time>
      </trkpt>
      <trkpt lat="46.21802" lon="5.45642">
        <ele>314.4</ele>
        <time>2022-02-24T09:59:03Z</time>
      </trkpt>
      <trkpt lat="46.21802" lon="5.45637">
        <ele>314</ele>
        <time>2022-02-24T09:59:04Z</time>
      </trkpt>
      <trkpt lat="46.21803" lon="5.45631">
        <ele>314</ele>
        <time>2022-02-24T09:59:05Z</time>
      </trkpt>
      <trkpt lat="46.21804" lon="5.45625">
        <ele>314</ele>
        <time>2022-02-24T09:59:06Z</time>
      </trkpt>
      <trkpt lat="46.21804" lon="5.45619">
        <ele>313.8</ele>
        <time>2022-02-24T09:59:07Z</time>
      </trkpt>
      <trkpt lat="46.21804" lon="5.45613">
        <ele>313.8</ele>
        <time>2022-02-24T09:59:08Z</time>
      </trkpt>
      <trkpt lat="46.21805" lon="5.45606">
        <ele>313.4</ele>
        <time>2022-02-24T09:59:09Z</time>
      </trkpt>
      <trkpt lat="46.21805" lon="5.45599">
        <ele>313.4</ele>
        <time>2022-02-24T09:59:10Z</time>
      </trkpt>
      <trkpt lat="46.21805" lon="5.45592">
        <ele>313.4</ele>
        <time>2022-02-24T09:59:11Z</time>
      </trkpt>
      <trkpt lat="46.21805" lon="5.45585">
        <ele>313.2</ele>
        <time>2022-02-24T09:59:12Z</time>
      </trkpt>
      <trkpt lat="46.21805" lon="5.45577">
        <ele>313.2</ele>
        <time>2022-02-24T09:59:13Z</time>
      </trkpt>
      <trkpt lat="46.21805" lon="5.45569">
        <ele>312.8</ele>
        <time>2022-02-24T09:59:14Z</time>
      </trkpt>
      <trkpt lat="46.21805" lon="5.45561">
        <ele>312.4</ele>
        <time>2022-02-24T09:59:15Z</time>
      </trkpt>
      <trkpt lat="46.21804" lon="5.45552">
        <ele>312.2</ele>
        <time>2022-02-24T09:59:16Z</time>
      </trkpt>
      <trkpt lat="46.21803" lon="5.45543">
        <ele>311.6</ele>
        <time>2022-02-24T09:59:17Z</time>
      </trkpt>
      <trkpt lat="46.21802" lon="5.45534">
        <ele>311</ele>
        <time>2022-02-24T09:59:18Z</time>
      </trkpt>
      <trkpt lat="46.21801" lon="5.45524">
        <ele>310.6</ele>
        <time>2022-02-24T09:59:19Z</time>
      </trkpt>
      <trkpt lat="46.218" lon="5.45514">
        <ele>310</ele>
        <time>2022-02-24T09:59:20Z</time>
      </trkpt>
      <trkpt lat="46.21798" lon="5.45503">
        <ele>309.6</ele>
        <time>2022-02-24T09:59:21Z</time>
      </trkpt>
      <trkpt lat="46.21797" lon="5.45491">
        <ele>309</ele>
        <time>2022-02-24T09:59:22Z</time>
      </trkpt>
      <trkpt lat="46.21795" lon="5.4548">
        <ele>308.4</ele>
        <time>2022-02-24T09:59:23Z</time>
      </trkpt>
      <trkpt lat="46.21794" lon="5.45468">
        <ele>307.8</ele>
        <time>2022-02-24T09:59:24Z</time>
      </trkpt>
      <trkpt lat="46.21793" lon="5.45455">
        <ele>307</ele>
        <time>2022-02-24T09:59:25Z</time>
      </trkpt>
      <trkpt lat="46.21792" lon="5.45442">
        <ele>306.4</ele>
        <time>2022-02-24T09:59:26Z</time>
      </trkpt>
      <trkpt lat="46.2179" lon="5.45429">
        <ele>305.6</ele>
        <time>2022-02-24T09:59:27Z</time>
      </trkpt>
      <trkpt lat="46.21789" lon="5.45417">
        <ele>304.8</ele>
        <time>2022-02-24T09:59:28Z</time>
      </trkpt>
      <trkpt lat="46.21785" lon="5.45404">
        <ele>304</ele>
        <time>2022-02-24T09:59:29Z</time>
      </trkpt>
      <trkpt lat="46.21782" lon="5.4539">
        <ele>303.2</ele>
        <time>2022-02-24T09:59:30Z</time>
      </trkpt>
      <trkpt lat="46.21777" lon="5.45378">
        <ele>302.2</ele>
        <time>2022-02-24T09:59:31Z</time>
      </trkpt>
      <trkpt lat="46.21771" lon="5.45365">
        <ele>301.4</ele>
        <time>2022-02-24T09:59:32Z</time>
      </trkpt>
      <trkpt lat="46.21765" lon="5.45353">
        <ele>300.4</ele>
        <time>2022-02-24T09:59:33Z</time>
      </trkpt>
      <trkpt lat="46.21759" lon="5.45339">
        <ele>299.4</ele>
        <time>2022-02-24T09:59:34Z</time>
      </trkpt>
      <trkpt lat="46.21754" lon="5.45325">
        <ele>298</ele>
        <time>2022-02-24T09:59:35Z</time>
      </trkpt>
      <trkpt lat="46.21748" lon="5.4531">
        <ele>296.4</ele>
        <time>2022-02-24T09:59:36Z</time>
      </trkpt>
      <trkpt lat="46.21742" lon="5.45295">
        <ele>295.2</ele>
        <time>2022-02-24T09:59:37Z</time>
      </trkpt>
      <trkpt lat="46.21736" lon="5.4528">
        <ele>294</ele>
        <time>2022-02-24T09:59:38Z</time>
      </trkpt>
      <trkpt lat="46.21731" lon="5.45264">
        <ele>293</ele>
        <time>2022-02-24T09:59:39Z</time>
      </trkpt>
      <trkpt lat="46.21726" lon="5.45247">
        <ele>291.8</ele>
        <time>2022-02-24T09:59:40Z</time>
      </trkpt>
      <trkpt lat="46.21721" lon="5.4523">
        <ele>290.6</ele>
        <time>2022-02-24T09:59:41Z</time>
      </trkpt>
      <trkpt lat="46.21716" lon="5.45214">
        <ele>289.4</ele>
        <time>2022-02-24T09:59:42Z</time>
      </trkpt>
      <trkpt lat="46.2171" lon="5.45198">
        <ele>288.4</ele>
        <time>2022-02-24T09:59:43Z</time>
      </trkpt>
      <trkpt lat="46.21703" lon="5.45182">
        <ele>287.4</ele>
        <time>2022-02-24T09:59:44Z</time>
      </trkpt>
      <trkpt lat="46.21696" lon="5.45168">
        <ele>286.2</ele>
        <time>2022-02-24T09:59:45Z</time>
      </trkpt>
      <trkpt lat="46.21689" lon="5.45153">
        <ele>285</ele>
        <time>2022-02-24T09:59:46Z</time>
      </trkpt>
      <trkpt lat="46.21681" lon="5.4514">
        <ele>284</ele>
        <time>2022-02-24T09:59:47Z</time>
      </trkpt>
      <trkpt lat="46.21673" lon="5.45127">
        <ele>282.8</ele>
        <time>2022-02-24T09:59:48Z</time>
      </trkpt>
      <trkpt lat="46.21665" lon="5.45115">
        <ele>281.6</ele>
        <time>2022-02-24T09:59:49Z</time>
      </trkpt>
      <trkpt lat="46.21657" lon="5.45102">
        <ele>280.6</ele>
        <time>2022-02-24T09:59:50Z</time>
      </trkpt>
      <trkpt lat="46.21649" lon="5.45088">
        <ele>279.6</ele>
        <time>2022-02-24T09:59:51Z</time>
      </trkpt>
      <trkpt lat="46.21641" lon="5.45075">
        <ele>278.6</ele>
        <time>2022-02-24T09:59:52Z</time>
      </trkpt>
      <trkpt lat="46.21634" lon="5.45062">
        <ele>277.6</ele>
        <time>2022-02-24T09:59:53Z</time>
      </trkpt>
      <trkpt lat="46.21625" lon="5.45049">
        <ele>276.6</ele>
        <time>2022-02-24T09:59:54Z</time>
      </trkpt>
      <trkpt lat="46.21617" lon="5.45037">
        <ele>275.6</ele>
        <time>2022-02-24T09:59:55Z</time>
      </trkpt>
      <trkpt lat="46.21608" lon="5.45026">
        <ele>274.4</ele>
        <time>2022-02-24T09:59:56Z</time>
      </trkpt>
      <trkpt lat="46.21599" lon="5.45016">
        <ele>273.4</ele>
        <time>2022-02-24T09:59:57Z</time>
      </trkpt>
      <trkpt lat="46.21589" lon="5.45007">
        <ele>272.6</ele>
        <time>2022-02-24T09:59:58Z</time>
      </trkpt>
      <trkpt lat="46.21579" lon="5.44998">
        <ele>271.8</ele>
        <time>2022-02-24T09:59:59Z</time>
      </trkpt>
      <trkpt lat="46.21569" lon="5.44989">
        <ele>271</ele>
        <time>2022-02-24T10:00:00Z</time>
      </trkpt>
      <trkpt lat="46.21558" lon="5.4498">
        <ele>270.2</ele>
        <time>2022-02-24T10:00:01Z</time>
      </trkpt>
      <trkpt lat="46.21548" lon="5.4497">
        <ele>269.6</ele>
        <time>2022-02-24T10:00:02Z</time>
      </trkpt>
      <trkpt lat="46.21538" lon="5.44959">
        <ele>269</ele>
        <time>2022-02-24T10:00:03Z</time>
      </trkpt>
      <trkpt lat="46.21529" lon="5.44948">
        <ele>268.8</ele>
        <time>2022-02-24T10:00:04Z</time>
      </trkpt>
      <trkpt lat="46.21521" lon="5.44937">
        <ele>268.4</ele>
        <time>2022-02-24T10:00:05Z</time>
      </trkpt>
      <trkpt lat="46.21513" lon="5.44926">
        <ele>268</ele>
        <time>2022-02-24T10:00:06Z</time>
      </trkpt>
      <trkpt lat="46.21504" lon="5.44916">
        <ele>267.6</ele>
        <time>2022-02-24T10:00:07Z</time>
      </trkpt>
      <trkpt lat="46.21495" lon="5.44908">
        <ele>267.4</ele>
        <time>2022-02-24T10:00:08Z</time>
      </trkpt>
      <trkpt lat="46.21481" lon="5.44897">
        <ele>267.4</ele>
        <time>2022-02-24T10:00:09Z</time>
      </trkpt>
      <trkpt lat="46.21477" lon="5.44894">
        <ele>267.4</ele>
        <time>2022-02-24T10:00:10Z</time>
      </trkpt>
      <trkpt lat="46.21467" lon="5.44888">
        <ele>267.4</ele>
        <time>2022-02-24T10:00:11Z</time>
      </trkpt>
      <trkpt lat="46.21458" lon="5.44883">
        <ele>267.4</ele>
        <time>2022-02-24T10:00:12Z</time>
      </trkpt>
      <trkpt lat="46.21449" lon="5.44878">
        <ele>267.4</ele>
        <time>2022-02-24T10:00:13Z</time>
      </trkpt>
      <trkpt lat="46.21441" lon="5.44874">
        <ele>267.4</ele>
        <time>2022-02-24T10:00:14Z</time>
      </trkpt>
      <trkpt lat="46.21432" lon="5.4487">
        <ele>267.4</ele>
        <time>2022-02-24T10:00:15Z</time>
      </trkpt>
      <trkpt lat="46.21423" lon="5.44867">
        <ele>267.4</ele>
        <time>2022-02-24T10:00:16Z</time>
      </trkpt>
      <trkpt lat="46.21414" lon="5.44864">
        <ele>267.4</ele>
        <time>2022-02-24T10:00:17Z</time>
      </trkpt>
      <trkpt lat="46.21406" lon="5.44861">
        <ele>267.4</ele>
        <time>2022-02-24T10:00:18Z</time>
      </trkpt>
      <trkpt lat="46.21397" lon="5.44859">
        <ele>267.2</ele>
        <time>2022-02-24T10:00:19Z</time>
      </trkpt>
      <trkpt lat="46.21389" lon="5.44856">
        <ele>267.2</ele>
        <time>2022-02-24T10:00:20Z</time>
      </trkpt>
      <trkpt lat="46.21381" lon="5.44853">
        <ele>267.2</ele>
        <time>2022-02-24T10:00:21Z</time>
      </trkpt>
      <trkpt lat="46.21373" lon="5.4485">
        <ele>267.2</ele>
        <time>2022-02-24T10:00:22Z</time>
      </trkpt>
      <trkpt lat="46.21365" lon="5.44847">
        <ele>266.8</ele>
        <time>2022-02-24T10:00:23Z</time>
      </trkpt>
      <trkpt lat="46.21357" lon="5.44843">
        <ele>266.8</ele>
        <time>2022-02-24T10:00:24Z</time>
      </trkpt>
      <trkpt lat="46.21349" lon="5.4484">
        <ele>266.8</ele>
        <time>2022-02-24T10:00:25Z</time>
      </trkpt>
      <trkpt lat="46.21341" lon="5.44838">
        <ele>266.8</ele>
        <time>2022-02-24T10:00:26Z</time>
      </trkpt>
      <trkpt lat="46.21333" lon="5.44835">
        <ele>266.8</ele>
        <time>2022-02-24T10:00:27Z</time>
      </trkpt>
      <trkpt lat="46.21326" lon="5.44833">
        <ele>266.8</ele>
        <time>2022-02-24T10:00:28Z</time>
      </trkpt>
      <trkpt lat="46.21319" lon="5.4483">
        <ele>266.6</ele>
        <time>2022-02-24T10:00:29Z</time>
      </trkpt>
      <trkpt lat="46.21312" lon="5.44828">
        <ele>266.6</ele>
        <time>2022-02-24T10:00:30Z</time>
      </trkpt>
      <trkpt lat="46.21304" lon="5.44826">
        <ele>266.6</ele>
        <time>2022-02-24T10:00:31Z</time>
      </trkpt>
      <trkpt lat="46.21297" lon="5.44824">
        <ele>266.6</ele>
        <time>2022-02-24T10:00:32Z</time>
      </trkpt>
      <trkpt lat="46.21289" lon="5.44823">
        <ele>266.6</ele>
        <time>2022-02-24T10:00:33Z</time>
      </trkpt>
      <trkpt lat="46.21282" lon="5.44821">
        <ele>266.6</ele>
        <time>2022-02-24T10:00:34Z</time>
      </trkpt>
      <trkpt lat="46.21275" lon="5.4482">
        <ele>266.6</ele>
        <time>2022-02-24T10:00:35Z</time>
      </trkpt>
      <trkpt lat="46.21267" lon="5.4482">
        <ele>266.6</ele>
        <time>2022-02-24T10:00:36Z</time>
      </trkpt>
      <trkpt lat="46.21259" lon="5.44819">
        <ele>266.6</ele>
        <time>2022-02-24T10:00:37Z</time>
      </trkpt>
      <trkpt lat="46.21252" lon="5.44818">
        <ele>266.6</ele>
        <time>2022-02-24T10:00:38Z</time>
      </trkpt>
      <trkpt lat="46.21245" lon="5.44817">
        <ele>266.6</ele>
        <time>2022-02-24T10:00:39Z</time>
      </trkpt>
      <trkpt lat="46.21237" lon="5.44816">
        <ele>266.6</ele>
        <time>2022-02-24T10:00:40Z</time>
      </trkpt>
      <trkpt lat="46.2123" lon="5.44815">
        <ele>266.6</ele>
        <time>2022-02-24T10:00:41Z</time>
      </trkpt>
      <trkpt lat="46.21222" lon="5.44815">
        <ele>266.6</ele>
        <time>2022-02-24T10:00:42Z</time>
      </trkpt>
      <trkpt lat="46.21215" lon="5.44814">
        <ele>266.4</ele>
        <time>2022-02-24T10:00:43Z</time>
      </trkpt>
      <trkpt lat="46.21208" lon="5.44813">
        <ele>266.4</ele>
        <time>2022-02-24T10:00:44Z</time>
      </trkpt>
      <trkpt lat="46.21201" lon="5.44812">
        <ele>266.4</ele>
        <time>2022-02-24T10:00:45Z</time>
      </trkpt>
      <trkpt lat="46.21193" lon="5.44812">
        <ele>266.2</ele>
        <time>2022-02-24T10:00:46Z</time>
      </trkpt>
      <trkpt lat="46.21187" lon="5.44811">
        <ele>266.2</ele>
        <time>2022-02-24T10:00:47Z</time>
      </trkpt>
      <trkpt lat="46.21179" lon="5.4481">
        <ele>266.2</ele>
        <time>2022-02-24T10:00:48Z</time>
      </trkpt>
      <trkpt lat="46.21172" lon="5.44809">
        <ele>266</ele>
        <time>2022-02-24T10:00:49Z</time>
      </trkpt>
      <trkpt lat="46.21165" lon="5.44808">
        <ele>266</ele>
        <time>2022-02-24T10:00:50Z</time>
      </trkpt>
      <trkpt lat="46.21158" lon="5.44808">
        <ele>265.6</ele>
        <time>2022-02-24T10:00:51Z</time>
      </trkpt>
      <trkpt lat="46.21151" lon="5.44808">
        <ele>265.6</ele>
        <time>2022-02-24T10:00:52Z</time>
      </trkpt>
      <trkpt lat="46.21144" lon="5.44807">
        <ele>265.6</ele>
        <time>2022-02-24T10:00:53Z</time>
      </trkpt>
      <trkpt lat="46.21137" lon="5.44807">
        <ele>265.6</ele>
        <time>2022-02-24T10:00:54Z</time>
      </trkpt>
      <trkpt lat="46.2113" lon="5.44807">
        <ele>265.6</ele>
        <time>2022-02-24T10:00:55Z</time>
      </trkpt>
      <trkpt lat="46.21123" lon="5.44807">
        <ele>266</ele>
        <time>2022-02-24T10:00:56Z</time>
      </trkpt>
      <trkpt lat="46.21116" lon="5.44807">
        <ele>266</ele>
        <time>2022-02-24T10:00:57Z</time>
      </trkpt>
      <trkpt lat="46.2111" lon="5.44808">
        <ele>266.2</ele>
        <time>2022-02-24T10:00:58Z</time>
      </trkpt>
      <trkpt lat="46.21104" lon="5.44808">
        <ele>266.2</ele>
        <time>2022-02-24T10:00:59Z</time>
      </trkpt>
      <trkpt lat="46.21098" lon="5.44808">
        <ele>266.2</ele>
        <time>2022-02-24T10:01:00Z</time>
      </trkpt>
      <trkpt lat="46.21089" lon="5.44809">
        <ele>266.4</ele>
        <time>2022-02-24T10:01:01Z</time>
      </trkpt>
      <trkpt lat="46.21086" lon="5.44809">
        <ele>266.6</ele>
        <time>2022-02-24T10:01:02Z</time>
      </trkpt>
      <trkpt lat="46.2108" lon="5.4481">
        <ele>266.6</ele>
        <time>2022-02-24T10:01:03Z</time>
      </trkpt>
      <trkpt lat="46.21074" lon="5.44811">
        <ele>267</ele>
        <time>2022-02-24T10:01:04Z</time>
      </trkpt>
      <trkpt lat="46.21068" lon="5.44811">
        <ele>267</ele>
        <time>2022-02-24T10:01:05Z</time>
      </trkpt>
      <trkpt lat="46.21063" lon="5.44811">
        <ele>267.2</ele>
        <time>2022-02-24T10:01:06Z</time>
      </trkpt>
      <trkpt lat="46.21057" lon="5.44812">
        <ele>267.2</ele>
        <time>2022-02-24T10:01:07Z</time>
      </trkpt>
      <trkpt lat="46.21051" lon="5.44813">
        <ele>267.2</ele>
        <time>2022-02-24T10:01:08Z</time>
      </trkpt>
      <trkpt lat="46.21045" lon="5.44814">
        <ele>267.6</ele>
        <time>2022-02-24T10:01:09Z</time>
      </trkpt>
      <trkpt lat="46.2104" lon="5.44815">
        <ele>267.6</ele>
        <time>2022-02-24T10:01:10Z</time>
      </trkpt>
      <trkpt lat="46.21034" lon="5.44817">
        <ele>267.6</ele>
        <time>2022-02-24T10:01:11Z</time>
      </trkpt>
      <trkpt lat="46.21029" lon="5.44818">
        <ele>267.8</ele>
        <time>2022-02-24T10:01:12Z</time>
      </trkpt>
      <trkpt lat="46.21024" lon="5.4482">
        <ele>267.8</ele>
        <time>2022-02-24T10:01:13Z</time>
      </trkpt>
      <trkpt lat="46.21018" lon="5.44821">
        <ele>268</ele>
        <time>2022-02-24T10:01:14Z</time>
      </trkpt>
      <trkpt lat="46.21013" lon="5.44822">
        <ele>268</ele>
        <time>2022-02-24T10:01:15Z</time>
      </trkpt>
      <trkpt lat="46.21008" lon="5.44824">
        <ele>268.4</ele>
        <time>2022-02-24T10:01:16Z</time>
      </trkpt>
      <trkpt lat="46.21003" lon="5.44826">
        <ele>268.6</ele>
        <time>2022-02-24T10:01:17Z</time>
      </trkpt>
      <trkpt lat="46.20999" lon="5.44828">
        <ele>269</ele>
        <time>2022-02-24T10:01:18Z</time>
      </trkpt>
      <trkpt lat="46.20994" lon="5.4483">
        <ele>269</ele>
        <time>2022-02-24T10:01:19Z</time>
      </trkpt>
      <trkpt lat="46.20989" lon="5.44832">
        <ele>269.2</ele>
        <time>2022-02-24T10:01:20Z</time>
      </trkpt>
      <trkpt lat="46.20984" lon="5.44834">
        <ele>269.6</ele>
        <time>2022-02-24T10:01:21Z</time>
      </trkpt>
      <trkpt lat="46.2098" lon="5.44836">
        <ele>270</ele>
        <time>2022-02-24T10:01:22Z</time>
      </trkpt>
      <trkpt lat="46.20976" lon="5.44838">
        <ele>270.4</ele>
        <time>2022-02-24T10:01:23Z</time>
      </trkpt>
      <trkpt lat="46.20972" lon="5.44839">
        <ele>270.6</ele>
        <time>2022-02-24T10:01:24Z</time>
      </trkpt>
      <trkpt lat="46.20969" lon="5.4484">
        <ele>270.8</ele>
        <time>2022-02-24T10:01:25Z</time>
      </trkpt>
      <trkpt lat="46.20966" lon="5.44841">
        <ele>271.2</ele>
        <time>2022-02-24T10:01:26Z</time>
      </trkpt>
      <trkpt lat="46.20964" lon="5.44842">
        <ele>271.4</ele>
        <time>2022-02-24T10:01:27Z</time>
      </trkpt>
      <trkpt lat="46.20961" lon="5.44843">
        <ele>271.6</ele>
        <time>2022-02-24T10:01:28Z</time>
      </trkpt>
      <trkpt lat="46.20958" lon="5.44844">
        <ele>271.8</ele>
        <time>2022-02-24T10:01:29Z</time>
      </trkpt>
      <trkpt lat="46.20956" lon="5.44845">
        <ele>271.8</ele>
        <time>2022-02-24T10:01:30Z</time>
      </trkpt>
      <trkpt lat="46.20953" lon="5.44847">
        <ele>272.2</ele>
        <time>2022-02-24T10:01:31Z</time>
      </trkpt>
      <trkpt lat="46.20951" lon="5.44848">
        <ele>272.2</ele>
        <time>2022-02-24T10:01:32Z</time>
      </trkpt>
      <trkpt lat="46.20948" lon="5.44849">
        <ele>272.6</ele>
        <time>2022-02-24T10:01:33Z</time>
      </trkpt>
      <trkpt lat="46.20945" lon="5.44849">
        <ele>272.8</ele>
        <time>2022-02-24T10:01:34Z</time>
      </trkpt>
      <trkpt lat="46.20943" lon="5.44851">
        <ele>273</ele>
        <time>2022-02-24T10:01:35Z</time>
      </trkpt>
      <trkpt lat="46.2094" lon="5.44852">
        <ele>273.2</ele>
        <time>2022-02-24T10:01:36Z</time>
      </trkpt>
      <trkpt lat="46.20938" lon="5.44853">
        <ele>273.2</ele>
        <time>2022-02-24T10:01:37Z</time>
      </trkpt>
      <trkpt lat="46.20935" lon="5.44854">
        <ele>273.6</ele>
        <time>2022-02-24T10:01:38Z</time>
      </trkpt>
      <trkpt lat="46.20933" lon="5.44855">
        <ele>273.6</ele>
        <time>2022-02-24T10:01:39Z</time>
      </trkpt>
      <trkpt lat="46.2093" lon="5.44857">
        <ele>274</ele>
        <time>2022-02-24T10:01:40Z</time>
      </trkpt>
      <trkpt lat="46.20928" lon="5.44858">
        <ele>274</ele>
        <time>2022-02-24T10:01:41Z</time>
      </trkpt>
      <trkpt lat="46.20925" lon="5.4486">
        <ele>274.2</ele>
        <time>2022-02-24T10:01:42Z</time>
      </trkpt>
      <trkpt lat="46.20922" lon="5.44861">
        <ele>274.6</ele>
        <time>2022-02-24T10:01:43Z</time>
      </trkpt>
      <trkpt lat="46.2092" lon="5.44863">
        <ele>274.6</ele>
        <time>2022-02-24T10:01:44Z</time>
      </trkpt>
      <trkpt lat="46.20917" lon="5.44863">
        <ele>275</ele>
        <time>2022-02-24T10:01:45Z</time>
      </trkpt>
      <trkpt lat="46.20915" lon="5.44864">
        <ele>275</ele>
        <time>2022-02-24T10:01:46Z</time>
      </trkpt>
      <trkpt lat="46.20912" lon="5.44864">
        <ele>275.2</ele>
        <time>2022-02-24T10:01:47Z</time>
      </trkpt>
      <trkpt lat="46.20909" lon="5.44865">
        <ele>275.2</ele>
        <time>2022-02-24T10:01:48Z</time>
      </trkpt>
      <trkpt lat="46.20907" lon="5.44867">
        <ele>275.6</ele>
        <time>2022-02-24T10:01:49Z</time>
      </trkpt>
      <trkpt lat="46.20905" lon="5.44868">
        <ele>275.6</ele>
        <time>2022-02-24T10:01:50Z</time>
      </trkpt>
      <trkpt lat="46.20902" lon="5.44869">
        <ele>276</ele>
        <time>2022-02-24T10:01:51Z</time>
      </trkpt>
      <trkpt lat="46.20899" lon="5.4487">
        <ele>276.2</ele>
        <time>2022-02-24T10:01:52Z</time>
      </trkpt>
      <trkpt lat="46.20897" lon="5.44871">
        <ele>276.6</ele>
        <time>2022-02-24T10:01:53Z</time>
      </trkpt>
      <trkpt lat="46.20894" lon="5.44872">
        <ele>276.8</ele>
        <time>2022-02-24T10:01:54Z</time>
      </trkpt>
      <trkpt lat="46.20892" lon="5.44873">
        <ele>276.8</ele>
        <time>2022-02-24T10:01:55Z</time>
      </trkpt>
      <trkpt lat="46.20889" lon="5.44874">
        <ele>277</ele>
        <time>2022-02-24T10:01:56Z</time>
      </trkpt>
      <trkpt lat="46.20887" lon="5.44876">
        <ele>277</ele>
        <time>2022-02-24T10:01:57Z</time>
      </trkpt>
      <trkpt lat="46.20884" lon="5.44877">
        <ele>277.4</ele>
        <time>2022-02-24T10:01:58Z</time>
      </trkpt>
      <trkpt lat="46.20881" lon="5.44878">
        <ele>277.6</ele>
        <time>2022-02-24T10:01:59Z</time>
      </trkpt>
      <trkpt lat="46.20879" lon="5.4488">
        <ele>277.6</ele>
        <time>2022-02-24T10:02:00Z</time>
      </trkpt>
      <trkpt lat="46.20877" lon="5.44881">
        <ele>277.8</ele>
        <time>2022-02-24T10:02:01Z</time>
      </trkpt>
      <trkpt lat="46.20874" lon="5.44883">
        <ele>277.8</ele>
        <time>2022-02-24T10:02:02Z</time>
      </trkpt>
      <trkpt lat="46.20872" lon="5.44885">
        <ele>278</ele>
        <time>2022-02-24T10:02:03Z</time>
      </trkpt>
      <trkpt lat="46.20869" lon="5.44887">
        <ele>278</ele>
        <time>2022-02-24T10:02:04Z</time>
      </trkpt>
      <trkpt lat="46.20867" lon="5.44888">
        <ele>278.4</ele>
        <time>2022-02-24T10:02:05Z</time>
      </trkpt>
      <trkpt lat="46.20865" lon="5.4489">
        <ele>278.6</ele>
        <time>2022-02-24T10:02:06Z</time>
      </trkpt>
      <trkpt lat="46.20863" lon="5.44892">
        <ele>278.6</ele>
        <time>2022-02-24T10:02:07Z</time>
      </trkpt>
      <trkpt lat="46.20861" lon="5.44893">
        <ele>279</ele>
        <time>2022-02-24T10:02:08Z</time>
      </trkpt>
      <trkpt lat="46.2086" lon="5.44895">
        <ele>279</ele>
        <time>2022-02-24T10:02:09Z</time>
      </trkpt>
      <trkpt lat="46.20858" lon="5.44897">
        <ele>279.2</ele>
        <time>2022-02-24T10:02:10Z</time>
      </trkpt>
      <trkpt lat="46.20856" lon="5.44898">
        <ele>279.4</ele>
        <time>2022-02-24T10:02:11Z</time>
      </trkpt>
      <trkpt lat="46.20854" lon="5.44898">
        <ele>279.4</ele>
        <time>2022-02-24T10:02:12Z</time>
      </trkpt>
      <trkpt lat="46.20852" lon="5.44898">
        <ele>279.6</ele>
        <time>2022-02-24T10:02:13Z</time>
      </trkpt>
      <trkpt lat="46.2085" lon="5.44897">
        <ele>279.6</ele>
        <time>2022-02-24T10:02:14Z</time>
      </trkpt>
      <trkpt lat="46.20849" lon="5.44895">
        <ele>280</ele>
        <time>2022-02-24T10:02:15Z</time>
      </trkpt>
      <trkpt lat="46.20848" lon="5.44893">
        <ele>280</ele>
        <time>2022-02-24T10:02:16Z</time>
      </trkpt>
      <trkpt lat="46.20847" lon="5.44891">
        <ele>280.4</ele>
        <time>2022-02-24T10:02:17Z</time>
      </trkpt>
      <trkpt lat="46.20845" lon="5.4489">
        <ele>280.6</ele>
        <time>2022-02-24T10:02:18Z</time>
      </trkpt>
      <trkpt lat="46.20843" lon="5.44888">
        <ele>281</ele>
        <time>2022-02-24T10:02:19Z</time>
      </trkpt>
      <trkpt lat="46.20841" lon="5.44887">
        <ele>281.2</ele>
        <time>2022-02-24T10:02:20Z</time>
      </trkpt>
      <trkpt lat="46.20839" lon="5.44886">
        <ele>281.6</ele>
        <time>2022-02-24T10:02:21Z</time>
      </trkpt>
      <trkpt lat="46.20838" lon="5.44886">
        <ele>282</ele>
        <time>2022-02-24T10:02:22Z</time>
      </trkpt>
      <trkpt lat="46.20836" lon="5.44885">
        <ele>282.2</ele>
        <time>2022-02-24T10:02:23Z</time>
      </trkpt>
      <trkpt lat="46.20834" lon="5.44885">
        <ele>282.6</ele>
        <time>2022-02-24T10:02:24Z</time>
      </trkpt>
      <trkpt lat="46.20832" lon="5.44885">
        <ele>283.2</ele>
        <time>2022-02-24T10:02:25Z</time>
      </trkpt>
      <trkpt lat="46.20829" lon="5.44884">
        <ele>283.4</ele>
        <time>2022-02-24T10:02:26Z</time>
      </trkpt>
      <trkpt lat="46.20827" lon="5.44883">
        <ele>284</ele>
        <time>2022-02-24T10:02:27Z</time>
      </trkpt>
      <trkpt lat="46.20825" lon="5.44883">
        <ele>284.4</ele>
        <time>2022-02-24T10:02:28Z</time>
      </trkpt>
      <trkpt lat="46.20822" lon="5.44882">
        <ele>284.8</ele>
        <time>2022-02-24T10:02:29Z</time>
      </trkpt>
      <trkpt lat="46.2082" lon="5.44882">
        <ele>285.4</ele>
        <time>2022-02-24T10:02:30Z</time>
      </trkpt>
      <trkpt lat="46.20819" lon="5.44881">
        <ele>286</ele>
        <time>2022-02-24T10:02:31Z</time>
      </trkpt>
      <trkpt lat="46.20817" lon="5.4488">
        <ele>286.4</ele>
        <time>2022-02-24T10:02:32Z</time>
      </trkpt>
      <trkpt lat="46.20816" lon="5.44879">
        <ele>287</ele>
        <time>2022-02-24T10:02:33Z</time>
      </trkpt>
      <trkpt lat="46.20814" lon="5.44878">
        <ele>287.4</ele>
        <time>2022-02-24T10:02:34Z</time>
      </trkpt>
      <trkpt lat="46.20813" lon="5.44876">
        <ele>287.8</ele>
        <time>2022-02-24T10:02:35Z</time>
      </trkpt>
      <trkpt lat="46.20811" lon="5.44874">
        <ele>288.2</ele>
        <time>2022-02-24T10:02:36Z</time>
      </trkpt>
      <trkpt lat="46.2081" lon="5.44872">
        <ele>288.4</ele>
        <time>2022-02-24T10:02:37Z</time>
      </trkpt>
      <trkpt lat="46.20808" lon="5.44869">
        <ele>288.8</ele>
        <time>2022-02-24T10:02:38Z</time>
      </trkpt>
      <trkpt lat="46.20807" lon="5.44867">
        <ele>289</ele>
        <time>2022-02-24T10:02:39Z</time>
      </trkpt>
      <trkpt lat="46.20806" lon="5.44865">
        <ele>289.4</ele>
        <time>2022-02-24T10:02:40Z</time>
      </trkpt>
      <trkpt lat="46.20805" lon="5.44862">
        <ele>289.6</ele>
        <time>2022-02-24T10:02:41Z</time>
      </trkpt>
      <trkpt lat="46.20803" lon="5.4486">
        <ele>289.8</ele>
        <time>2022-02-24T10:02:42Z</time>
      </trkpt>
      <trkpt lat="46.20802" lon="5.44857">
        <ele>290.2</ele>
        <time>2022-02-24T10:02:43Z</time>
      </trkpt>
      <trkpt lat="46.208" lon="5.44855">
        <ele>290.4</ele>
        <time>2022-02-24T10:02:44Z</time>
      </trkpt>
      <trkpt lat="46.20799" lon="5.44854">
        <ele>290.6</ele>
        <time>2022-02-24T10:02:45Z</time>
      </trkpt>
      <trkpt lat="46.20797" lon="5.44851">
        <ele>290.8</ele>
        <time>2022-02-24T10:02:46Z</time>
      </trkpt>
      <trkpt lat="46.20796" lon="5.44849">
        <ele>290.8</ele>
        <time>2022-02-24T10:02:47Z</time>
      </trkpt>
      <trkpt lat="46.20795" lon="5.44846">
        <ele>291</ele>
        <time>2022-02-24T10:02:48Z</time>
      </trkpt>
      <trkpt lat="46.20793" lon="5.44844">
        <ele>291</ele>
        <time>2022-02-24T10:02:49Z</time>
      </trkpt>
      <trkpt lat="46.20791" lon="5.44842">
        <ele>291.4</ele>
        <time>2022-02-24T10:02:50Z</time>
      </trkpt>
      <trkpt lat="46.20789" lon="5.4484">
        <ele>291.4</ele>
        <time>2022-02-24T10:02:51Z</time>
      </trkpt>
      <trkpt lat="46.20787" lon="5.44838">
        <ele>291.4</ele>
        <time>2022-02-24T10:02:52Z</time>
      </trkpt>
      <trkpt lat="46.20785" lon="5.44837">
        <ele>291.8</ele>
        <time>2022-02-24T10:02:53Z</time>
      </trkpt>
      <trkpt lat="46.20783" lon="5.44835">
        <ele>291.8</ele>
        <time>2022-02-24T10:02:54Z</time>
      </trkpt>
      <trkpt lat="46.2078" lon="5.44834">
        <ele>292</ele>
        <time>2022-02-24T10:02:55Z</time>
      </trkpt>
      <trkpt lat="46.20778" lon="5.44832">
        <ele>292</ele>
        <time>2022-02-24T10:02:56Z</time>
      </trkpt>
      <trkpt lat="46.20776" lon="5.44831">
        <ele>292.4</ele>
        <time>2022-02-24T10:02:57Z</time>
      </trkpt>
      <trkpt lat="46.20774" lon="5.4483">
        <ele>292.6</ele>
        <time>2022-02-24T10:02:58Z</time>
      </trkpt>
      <trkpt lat="46.20772" lon="5.44829">
        <ele>292.6</ele>
        <time>2022-02-24T10:02:59Z</time>
      </trkpt>
      <trkpt lat="46.2077" lon="5.44827">
        <ele>293</ele>
        <time>2022-02-24T10:03:00Z</time>
      </trkpt>
      <trkpt lat="46.20768" lon="5.44826">
        <ele>293</ele>
        <time>2022-02-24T10:03:01Z</time>
      </trkpt>
      <trkpt lat="46.20766" lon="5.44824">
        <ele>293.4</ele>
        <time>2022-02-24T10:03:02Z</time>
      </trkpt>
      <trkpt lat="46.20764" lon="5.44823">
        <ele>293.6</ele>
        <time>2022-02-24T10:03:03Z</time>
      </trkpt>
      <trkpt lat="46.20763" lon="5.44822">
        <ele>293.8</ele>
        <time>2022-02-24T10:03:04Z</time>
      </trkpt>
      <trkpt lat="46.20761" lon="5.44821">
        <ele>293.8</ele>
        <time>2022-02-24T10:03:05Z</time>
      </trkpt>
      <trkpt lat="46.20759" lon="5.44819">
        <ele>294.2</ele>
        <time>2022-02-24T10:03:06Z</time>
      </trkpt>
      <trkpt lat="46.20757" lon="5.44818">
        <ele>294.4</ele>
        <time>2022-02-24T10:03:07Z</time>
      </trkpt>
      <trkpt lat="46.20755" lon="5.44816">
        <ele>294.6</ele>
        <time>2022-02-24T10:03:08Z</time>
      </trkpt>
      <trkpt lat="46.20754" lon="5.44814">
        <ele>294.8</ele>
        <time>2022-02-24T10:03:09Z</time>
      </trkpt>
      <trkpt lat="46.20752" lon="5.44813">
        <ele>294.8</ele>
        <time>2022-02-24T10:03:10Z</time>
      </trkpt>
      <trkpt lat="46.2075" lon="5.44811">
        <ele>295.2</ele>
        <time>2022-02-24T10:03:11Z</time>
      </trkpt>
      <trkpt lat="46.20748" lon="5.44809">
        <ele>295.2</ele>
        <time>2022-02-24T10:03:12Z</time>
      </trkpt>
      <trkpt lat="46.20745" lon="5.44807">
        <ele>295.2</ele>
        <time>2022-02-24T10:03:13Z</time>
      </trkpt>
      <trkpt lat="46.20743" lon="5.44806">
        <ele>295.2</ele>
        <time>2022-02-24T10:03:14Z</time>
      </trkpt>
      <trkpt lat="46.20741" lon="5.44804">
        <ele>295.4</ele>
        <time>2022-02-24T10:03:15Z</time>
      </trkpt>
      <trkpt lat="46.20738" lon="5.44802">
        <ele>295.4</ele>
        <time>2022-02-24T10:03:16Z</time>
      </trkpt>
      <trkpt lat="46.20736" lon="5.448">
        <ele>295.6</ele>
        <time>2022-02-24T10:03:17Z</time>
      </trkpt>
      <trkpt lat="46.20734" lon="5.44798">
        <ele>295.6</ele>
        <time>2022-02-24T10:03:18Z</time>
      </trkpt>
      <trkpt lat="46.20731" lon="5.44796">
        <ele>295.8</ele>
        <time>2022-02-24T10:03:19Z</time>
      </trkpt>
      <trkpt lat="46.20728" lon="5.44794">
        <ele>295.8</ele>
        <time>2022-02-24T10:03:20Z</time>
      </trkpt>
      <trkpt lat="46.20726" lon="5.44793">
        <ele>295.8</ele>
        <time>2022-02-24T10:03:21Z</time>
      </trkpt>
      <trkpt lat="46.20723" lon="5.44791">
        <ele>295.8</ele>
        <time>2022-02-24T10:03:22Z</time>
      </trkpt>
      <trkpt lat="46.20721" lon="5.44788">
        <ele>296</ele>
        <time>2022-02-24T10:03:23Z</time>
      </trkpt>
      <trkpt lat="46.20718" lon="5.44786">
        <ele>296.2</ele>
        <time>2022-02-24T10:03:24Z</time>
      </trkpt>
      <trkpt lat="46.20716" lon="5.44785">
        <ele>296.2</ele>
        <time>2022-02-24T10:03:25Z</time>
      </trkpt>
      <trkpt lat="46.20714" lon="5.44783">
        <ele>296.6</ele>
        <time>2022-02-24T10:03:26Z</time>
      </trkpt>
      <trkpt lat="46.20711" lon="5.44781">
        <ele>296.6</ele>
        <time>2022-02-24T10:03:27Z</time>
      </trkpt>
      <trkpt lat="46.20709" lon="5.44779">
        <ele>297</ele>
        <time>2022-02-24T10:03:28Z</time>
      </trkpt>
      <trkpt lat="46.20706" lon="5.44777">
        <ele>297.4</ele>
        <time>2022-02-24T10:03:29Z</time>
      </trkpt>
      <trkpt lat="46.20704" lon="5.44776">
        <ele>297.6</ele>
        <time>2022-02-24T10:03:30Z</time>
      </trkpt>
      <trkpt lat="46.20702" lon="5.44774">
        <ele>298</ele>
        <time>2022-02-24T10:03:31Z</time>
      </trkpt>
      <trkpt lat="46.207" lon="5.44773">
        <ele>298.4</ele>
        <time>2022-02-24T10:03:32Z</time>
      </trkpt>
      <trkpt lat="46.20698" lon="5.44772">
        <ele>298.8</ele>
        <time>2022-02-24T10:03:33Z</time>
      </trkpt>
      <trkpt lat="46.20696" lon="5.4477">
        <ele>299.2</ele>
        <time>2022-02-24T10:03:34Z</time>
      </trkpt>
      <trkpt lat="46.20695" lon="5.44769">
        <ele>299.6</ele>
        <time>2022-02-24T10:03:35Z</time>
      </trkpt>
      <trkpt lat="46.20693" lon="5.44767">
        <ele>299.8</ele>
        <time>2022-02-24T10:03:36Z</time>
      </trkpt>
      <trkpt lat="46.20691" lon="5.44766">
        <ele>300.2</ele>
        <time>2022-02-24T10:03:37Z</time>
      </trkpt>
      <trkpt lat="46.20689" lon="5.44764">
        <ele>300.6</ele>
        <time>2022-02-24T10:03:38Z</time>
      </trkpt>
      <trkpt lat="46.20687" lon="5.44763">
        <ele>300.8</ele>
        <time>2022-02-24T10:03:39Z</time>
      </trkpt>
      <trkpt lat="46.20685" lon="5.44762">
        <ele>301.2</ele>
        <time>2022-02-24T10:03:40Z</time>
      </trkpt>
      <trkpt lat="46.20683" lon="5.44761">
        <ele>301.4</ele>
        <time>2022-02-24T10:03:41Z</time>
      </trkpt>
      <trkpt lat="46.20681" lon="5.44759">
        <ele>301.8</ele>
        <time>2022-02-24T10:03:42Z</time>
      </trkpt>
      <trkpt lat="46.2068" lon="5.44758">
        <ele>302</ele>
        <time>2022-02-24T10:03:43Z</time>
      </trkpt>
      <trkpt lat="46.20678" lon="5.44756">
        <ele>302.4</ele>
        <time>2022-02-24T10:03:44Z</time>
      </trkpt>
      <trkpt lat="46.20675" lon="5.44755">
        <ele>302.6</ele>
        <time>2022-02-24T10:03:45Z</time>
      </trkpt>
      <trkpt lat="46.20673" lon="5.44754">
        <ele>302.8</ele>
        <time>2022-02-24T10:03:46Z</time>
      </trkpt>
      <trkpt lat="46.20671" lon="5.44753">
        <ele>302.8</ele>
        <time>2022-02-24T10:03:47Z</time>
      </trkpt>
      <trkpt lat="46.20669" lon="5.44751">
        <ele>303.2</ele>
        <time>2022-02-24T10:03:48Z</time>
      </trkpt>
      <trkpt lat="46.20669" lon="5.44751">
        <ele>303.4</ele>
        <time>2022-02-24T10:03:49Z</time>
      </trkpt>
      <trkpt lat="46.20667" lon="5.44749">
        <ele>303.6</ele>
        <time>2022-02-24T10:03:50Z</time>
      </trkpt>
      <trkpt lat="46.20664" lon="5.44746">
        <ele>303.6</ele>
        <time>2022-02-24T10:03:51Z</time>
      </trkpt>
      <trkpt lat="46.20662" lon="5.44745">
        <ele>304</ele>
        <time>2022-02-24T10:03:52Z</time>
      </trkpt>
      <trkpt lat="46.2066" lon="5.44744">
        <ele>304</ele>
        <time>2022-02-24T10:03:53Z</time>
      </trkpt>
      <trkpt lat="46.20659" lon="5.44743">
        <ele>304</ele>
        <time>2022-02-24T10:03:54Z</time>
      </trkpt>
      <trkpt lat="46.20657" lon="5.44742">
        <ele>304.4</ele>
        <time>2022-02-24T10:03:55Z</time>
      </trkpt>
      <trkpt lat="46.20655" lon="5.44741">
        <ele>304.8</ele>
        <time>2022-02-24T10:03:56Z</time>
      </trkpt>
      <trkpt lat="46.20653" lon="5.4474">
        <ele>304.8</ele>
        <time>2022-02-24T10:03:57Z</time>
      </trkpt>
      <trkpt lat="46.20651" lon="5.44741">
        <ele>305</ele>
        <time>2022-02-24T10:03:58Z</time>
      </trkpt>
      <trkpt lat="46.20649" lon="5.44742">
        <ele>305.4</ele>
        <time>2022-02-24T10:03:59Z</time>
      </trkpt>
      <trkpt lat="46.20648" lon="5.44743">
        <ele>305.6</ele>
        <time>2022-02-24T10:04:00Z</time>
      </trkpt>
      <trkpt lat="46.20646" lon="5.44745">
        <ele>306</ele>
        <time>2022-02-24T10:04:01Z</time>
      </trkpt>
      <trkpt lat="46.20644" lon="5.44746">
        <ele>306.2</ele>
        <time>2022-02-24T10:04:02Z</time>
      </trkpt>
      <trkpt lat="46.20643" lon="5.44748">
        <ele>306.4</ele>
        <time>2022-02-24T10:04:03Z</time>
      </trkpt>
      <trkpt lat="46.20641" lon="5.44749">
        <ele>306.6</ele>
        <time>2022-02-24T10:04:04Z</time>
      </trkpt>
      <trkpt lat="46.2064" lon="5.44749">
        <ele>306.8</ele>
        <time>2022-02-24T10:04:05Z</time>
      </trkpt>
      <trkpt lat="46.20638" lon="5.4475">
        <ele>307.4</ele>
        <time>2022-02-24T10:04:06Z</time>
      </trkpt>
      <trkpt lat="46.20637" lon="5.44751">
        <ele>307.6</ele>
        <time>2022-02-24T10:04:07Z</time>
      </trkpt>
      <trkpt lat="46.20635" lon="5.44752">
        <ele>307.8</ele>
        <time>2022-02-24T10:04:08Z</time>
      </trkpt>
      <trkpt lat="46.20634" lon="5.44753">
        <ele>307.8</ele>
        <time>2022-02-24T10:04:09Z</time>
      </trkpt>
      <trkpt lat="46.20633" lon="5.44754">
        <ele>308.2</ele>
        <time>2022-02-24T10:04:10Z</time>
      </trkpt>
      <trkpt lat="46.20631" lon="5.44756">
        <ele>308.4</ele>
        <time>2022-02-24T10:04:11Z</time>
      </trkpt>
      <trkpt lat="46.2063" lon="5.44757">
        <ele>308.4</ele>
        <time>2022-02-24T10:04:12Z</time>
      </trkpt>
      <trkpt lat="46.20628" lon="5.44758">
        <ele>309</ele>
        <time>2022-02-24T10:04:13Z</time>
      </trkpt>
      <trkpt lat="46.20627" lon="5.44759">
        <ele>309.2</ele>
        <time>2022-02-24T10:04:14Z</time>
      </trkpt>
      <trkpt lat="46.20625" lon="5.4476">
        <ele>309.2</ele>
        <time>2022-02-24T10:04:15Z</time>
      </trkpt>
      <trkpt lat="46.20624" lon="5.4476">
        <ele>309.6</ele>
        <time>2022-02-24T10:04:16Z</time>
      </trkpt>
      <trkpt lat="46.20622" lon="5.4476">
        <ele>310</ele>
        <time>2022-02-24T10:04:17Z</time>
      </trkpt>
      <trkpt lat="46.20621" lon="5.44761">
        <ele>310.2</ele>
        <time>2022-02-24T10:04:18Z</time>
      </trkpt>
      <trkpt lat="46.20619" lon="5.44762">
        <ele>310.6</ele>
        <time>2022-02-24T10:04:19Z</time>
      </trkpt>
      <trkpt lat="46.20618" lon="5.44763">
        <ele>311</ele>
        <time>2022-02-24T10:04:20Z</time>
      </trkpt>
      <trkpt lat="46.20616" lon="5.44764">
        <ele>311.2</ele>
        <time>2022-02-24T10:04:21Z</time>
      </trkpt>
      <trkpt lat="46.20615" lon="5.44765">
        <ele>311.6</ele>
        <time>2022-02-24T10:04:22Z</time>
      </trkpt>
      <trkpt lat="46.20614" lon="5.44766">
        <ele>311.8</ele>
        <time>2022-02-24T10:04:23Z</time>
      </trkpt>
      <trkpt lat="46.20612" lon="5.44767">
        <ele>312</ele>
        <time>2022-02-24T10:04:24Z</time>
      </trkpt>
      <trkpt lat="46.20611" lon="5.44768">
        <ele>312.4</ele>
        <time>2022-02-24T10:04:25Z</time>
      </trkpt>
      <trkpt lat="46.2061" lon="5.44769">
        <ele>312.4</ele>
        <time>2022-02-24T10:04:26Z</time>
      </trkpt>
      <trkpt lat="46.20609" lon="5.4477">
        <ele>312.6</ele>
        <time>2022-02-24T10:04:27Z</time>
      </trkpt>
      <trkpt lat="46.20608" lon="5.44771">
        <ele>313</ele>
        <time>2022-02-24T10:04:28Z</time>
      </trkpt>
      <trkpt lat="46.20606" lon="5.44772">
        <ele>313.2</ele>
        <time>2022-02-24T10:04:29Z</time>
      </trkpt>
      <trkpt lat="46.20605" lon="5.44773">
        <ele>313.2</ele>
        <time>2022-02-24T10:04:30Z</time>
      </trkpt>
      <trkpt lat="46.20604" lon="5.44773">
        <ele>313.4</ele>
        <time>2022-02-24T10:04:31Z</time>
      </trkpt>
      <trkpt lat="46.20602" lon="5.44772">
        <ele>313.4</ele>
        <time>2022-02-24T10:04:32Z</time>
      </trkpt>
      <trkpt lat="46.20601" lon="5.44772">
        <ele>313.8</ele>
        <time>2022-02-24T10:04:33Z</time>
      </trkpt>
      <trkpt lat="46.20599" lon="5.44771">
        <ele>314</ele>
        <time>2022-02-24T10:04:34Z</time>
      </trkpt>
      <trkpt lat="46.20598" lon="5.4477">
        <ele>314.4</ele>
        <time>2022-02-24T10:04:35Z</time>
      </trkpt>
      <trkpt lat="46.20596" lon="5.44769">
        <ele>314.4</ele>
        <time>2022-02-24T10:04:36Z</time>
      </trkpt>
      <trkpt lat="46.20595" lon="5.44768">
        <ele>314.6</ele>
        <time>2022-02-24T10:04:37Z</time>
      </trkpt>
      <trkpt lat="46.20594" lon="5.44767">
        <ele>314.6</ele>
        <time>2022-02-24T10:04:38Z</time>
      </trkpt>
      <trkpt lat="46.20592" lon="5.44765">
        <ele>315</ele>
        <time>2022-02-24T10:04:39Z</time>
      </trkpt>
      <trkpt lat="46.20591" lon="5.44763">
        <ele>315</ele>
        <time>2022-02-24T10:04:40Z</time>
      </trkpt>
      <trkpt lat="46.2059" lon="5.44761">
        <ele>315</ele>
        <time>2022-02-24T10:04:41Z</time>
      </trkpt>
      <trkpt lat="46.20589" lon="5.44759">
        <ele>315.2</ele>
        <time>2022-02-24T10:04:42Z</time>
      </trkpt>
      <trkpt lat="46.20587" lon="5.44758">
        <ele>315.2</ele>
        <time>2022-02-24T10:04:43Z</time>
      </trkpt>
      <trkpt lat="46.20586" lon="5.44756">
        <ele>315.6</ele>
        <time>2022-02-24T10:04:44Z</time>
      </trkpt>
      <trkpt lat="46.20584" lon="5.44755">
        <ele>315.6</ele>
        <time>2022-02-24T10:04:45Z</time>
      </trkpt>
      <trkpt lat="46.20582" lon="5.44753">
        <ele>315.6</ele>
        <time>2022-02-24T10:04:46Z</time>
      </trkpt>
      <trkpt lat="46.2058" lon="5.44752">
        <ele>315.6</ele>
        <time>2022-02-24T10:04:47Z</time>
      </trkpt>
      <trkpt lat="46.20578" lon="5.4475">
        <ele>315.6</ele>
        <time>2022-02-24T10:04:48Z</time>
      </trkpt>
      <trkpt lat="46.20576" lon="5.44749">
        <ele>315.6</ele>
        <time>2022-02-24T10:04:49Z</time>
      </trkpt>
      <trkpt lat="46.20574" lon="5.44748">
        <ele>315.6</ele>
        <time>2022-02-24T10:04:50Z</time>
      </trkpt>
      <trkpt lat="46.20571" lon="5.44746">
        <ele>315.6</ele>
        <time>2022-02-24T10:04:51Z</time>
      </trkpt>
      <trkpt lat="46.20568" lon="5.44745">
        <ele>315.6</ele>
        <time>2022-02-24T10:04:52Z</time>
      </trkpt>
      <trkpt lat="46.20566" lon="5.44744">
        <ele>315.6</ele>
        <time>2022-02-24T10:04:53Z</time>
      </trkpt>
      <trkpt lat="46.20563" lon="5.44742">
        <ele>315.6</ele>
        <time>2022-02-24T10:04:54Z</time>
      </trkpt>
      <trkpt lat="46.2056" lon="5.44741">
        <ele>315.6</ele>
        <time>2022-02-24T10:04:55Z</time>
      </trkpt>
      <trkpt lat="46.20557" lon="5.4474">
        <ele>315.8</ele>
        <time>2022-02-24T10:04:56Z</time>
      </trkpt>
      <trkpt lat="46.20554" lon="5.44739">
        <ele>315.8</ele>
        <time>2022-02-24T10:04:57Z</time>
      </trkpt>
      <trkpt lat="46.20551" lon="5.44737">
        <ele>315.8</ele>
        <time>2022-02-24T10:04:58Z</time>
      </trkpt>
      <trkpt lat="46.20548" lon="5.44736">
        <ele>315.8</ele>
        <time>2022-02-24T10:04:59Z</time>
      </trkpt>
      <trkpt lat="46.20546" lon="5.44734">
        <ele>315.8</ele>
        <time>2022-02-24T10:05:00Z</time>
      </trkpt>
      <trkpt lat="46.20544" lon="5.44734">
        <ele>315.8</ele>
        <time>2022-02-24T10:05:01Z</time>
      </trkpt>
      <trkpt lat="46.20542" lon="5.44733">
        <ele>315.8</ele>
        <time>2022-02-24T10:05:02Z</time>
      </trkpt>
      <trkpt lat="46.2054" lon="5.44733">
        <ele>315.8</ele>
        <time>2022-02-24T10:05:03Z</time>
      </trkpt>
      <trkpt lat="46.20538" lon="5.44733">
        <ele>315.4</ele>
        <time>2022-02-24T10:05:04Z</time>
      </trkpt>
      <trkpt lat="46.20536" lon="5.44734">
        <ele>315.4</ele>
        <time>2022-02-24T10:05:05Z</time>
      </trkpt>
      <trkpt lat="46.20534" lon="5.44735">
        <ele>315.4</ele>
        <time>2022-02-24T10:05:06Z</time>
      </trkpt>
      <trkpt lat="46.20531" lon="5.44736">
        <ele>315.4</ele>
        <time>2022-02-24T10:05:07Z</time>
      </trkpt>
      <trkpt lat="46.20528" lon="5.44737">
        <ele>315.4</ele>
        <time>2022-02-24T10:05:08Z</time>
      </trkpt>
      <trkpt lat="46.20525" lon="5.44738">
        <ele>315.4</ele>
        <time>2022-02-24T10:05:09Z</time>
      </trkpt>
      <trkpt lat="46.20522" lon="5.44739">
        <ele>315.4</ele>
        <time>2022-02-24T10:05:10Z</time>
      </trkpt>
      <trkpt lat="46.20518" lon="5.44741">
        <ele>315.4</ele>
        <time>2022-02-24T10:05:11Z</time>
      </trkpt>
      <trkpt lat="46.20515" lon="5.44741">
        <ele>315.4</ele>
        <time>2022-02-24T10:05:12Z</time>
      </trkpt>
      <trkpt lat="46.20511" lon="5.44741">
        <ele>315.4</ele>
        <time>2022-02-24T10:05:13Z</time>
      </trkpt>
      <trkpt lat="46.20507" lon="5.44741">
        <ele>315.4</ele>
        <time>2022-02-24T10:05:14Z</time>
      </trkpt>
      <trkpt lat="46.20503" lon="5.44741">
        <ele>315.4</ele>
        <time>2022-02-24T10:05:15Z</time>
      </trkpt>
      <trkpt lat="46.20498" lon="5.44741">
        <ele>315</ele>
        <time>2022-02-24T10:05:16Z</time>
      </trkpt>
      <trkpt lat="46.20494" lon="5.4474">
        <ele>315</ele>
        <time>2022-02-24T10:05:17Z</time>
      </trkpt>
      <trkpt lat="46.2049" lon="5.44739">
        <ele>315</ele>
        <time>2022-02-24T10:05:18Z</time>
      </trkpt>
      <trkpt lat="46.20486" lon="5.44738">
        <ele>315</ele>
        <time>2022-02-24T10:05:19Z</time>
      </trkpt>
      <trkpt lat="46.20481" lon="5.44737">
        <ele>315</ele>
        <time>2022-02-24T10:05:20Z</time>
      </trkpt>
      <trkpt lat="46.20477" lon="5.44736">
        <ele>315</ele>
        <time>2022-02-24T10:05:21Z</time>
      </trkpt>
      <trkpt lat="46.20472" lon="5.44735">
        <ele>315</ele>
        <time>2022-02-24T10:05:22Z</time>
      </trkpt>
      <trkpt lat="46.20467" lon="5.44734">
        <ele>315</ele>
        <time>2022-02-24T10:05:23Z</time>
      </trkpt>
      <trkpt lat="46.20463" lon="5.44733">
        <ele>315</ele>
        <time>2022-02-24T10:05:24Z</time>
      </trkpt>
      <trkpt lat="46.20458" lon="5.44731">
        <ele>315</ele>
        <time>2022-02-24T10:05:25Z</time>
      </trkpt>
      <trkpt lat="46.20453" lon="5.44729">
        <ele>315</ele>
        <time>2022-02-24T10:05:26Z</time>
      </trkpt>
      <trkpt lat="46.20448" lon="5.44728">
        <ele>314.8</ele>
        <time>2022-02-24T10:05:27Z</time>
      </trkpt>
      <trkpt lat="46.20443" lon="5.44726">
        <ele>314.8</ele>
        <time>2022-02-24T10:05:28Z</time>
      </trkpt>
      <trkpt lat="46.20438" lon="5.44725">
        <ele>314.8</ele>
        <time>2022-02-24T10:05:29Z</time>
      </trkpt>
      <trkpt lat="46.20432" lon="5.44723">
        <ele>314.8</ele>
        <time>2022-02-24T10:05:30Z</time>
      </trkpt>
      <trkpt lat="46.20427" lon="5.44721">
        <ele>314.8</ele>
        <time>2022-02-24T10:05:31Z</time>
      </trkpt>
      <trkpt lat="46.20422" lon="5.44719">
        <ele>314.8</ele>
        <time>2022-02-24T10:05:32Z</time>
      </trkpt>
      <trkpt lat="46.20416" lon="5.44717">
        <ele>314.6</ele>
        <time>2022-02-24T10:05:33Z</time>
      </trkpt>
      <trkpt lat="46.20411" lon="5.44715">
        <ele>314.6</ele>
        <time>2022-02-24T10:05:34Z</time>
      </trkpt>
      <trkpt lat="46.20406" lon="5.44713">
        <ele>314.2</ele>
        <time>2022-02-24T10:05:35Z</time>
      </trkpt>
      <trkpt lat="46.204" lon="5.44711">
        <ele>314.2</ele>
        <time>2022-02-24T10:05:36Z</time>
      </trkpt>
      <trkpt lat="46.20395" lon="5.4471">
        <ele>314.2</ele>
        <time>2022-02-24T10:05:37Z</time>
      </trkpt>
      <trkpt lat="46.2039" lon="5.44709">
        <ele>314.2</ele>
        <time>2022-02-24T10:05:38Z</time>
      </trkpt>
      <trkpt lat="46.20384" lon="5.44707">
        <ele>314</ele>
        <time>2022-02-24T10:05:39Z</time>
      </trkpt>
      <trkpt lat="46.20379" lon="5.44705">
        <ele>314</ele>
        <time>2022-02-24T10:05:40Z</time>
      </trkpt>
      <trkpt lat="46.20374" lon="5.44704">
        <ele>314.2</ele>
        <time>2022-02-24T10:05:41Z</time>
      </trkpt>
      <trkpt lat="46.20369" lon="5.44702">
        <ele>314.2</ele>
        <time>2022-02-24T10:05:42Z</time>
      </trkpt>
      <trkpt lat="46.20363" lon="5.44701">
        <ele>314.2</ele>
        <time>2022-02-24T10:05:43Z</time>
      </trkpt>
      <trkpt lat="46.20358" lon="5.44701">
        <ele>314.2</ele>
        <time>2022-02-24T10:05:44Z</time>
      </trkpt>
      <trkpt lat="46.20353" lon="5.447">
        <ele>314.2</ele>
        <time>2022-02-24T10:05:45Z</time>
      </trkpt>
      <trkpt lat="46.20345" lon="5.44699">
        <ele>313.8</ele>
        <time>2022-02-24T10:05:46Z</time>
      </trkpt>
      <trkpt lat="46.20342" lon="5.44699">
        <ele>313.6</ele>
        <time>2022-02-24T10:05:47Z</time>
      </trkpt>
      <trkpt lat="46.20336" lon="5.44699">
        <ele>313.2</ele>
        <time>2022-02-24T10:05:48Z</time>
      </trkpt>
      <trkpt lat="46.20331" lon="5.44699">
        <ele>313</ele>
        <time>2022-02-24T10:05:49Z</time>
      </trkpt>
      <trkpt lat="46.20325" lon="5.44699">
        <ele>312.6</ele>
        <time>2022-02-24T10:05:50Z</time>
      </trkpt>
      <trkpt lat="46.20319" lon="5.44699">
        <ele>312</ele>
        <time>2022-02-24T10:05:51Z</time>
      </trkpt>
      <trkpt lat="46.20313" lon="5.447">
        <ele>311.4</ele>
        <time>2022-02-24T10:05:52Z</time>
      </trkpt>
      <trkpt lat="46.20307" lon="5.44701">
        <ele>310.8</ele>
        <time>2022-02-24T10:05:53Z</time>
      </trkpt>
      <trkpt lat="46.203" lon="5.44702">
        <ele>310</ele>
        <time>2022-02-24T10:05:54Z</time>
      </trkpt>
      <trkpt lat="46.20294" lon="5.44703">
        <ele>309.2</ele>
        <time>2022-02-24T10:05:55Z</time>
      </trkpt>
      <trkpt lat="46.20286" lon="5.44703">
        <ele>308.4</ele>
        <time>2022-02-24T10:05:56Z</time>
      </trkpt>
      <trkpt lat="46.20278" lon="5.44702">
        <ele>307.8</ele>
        <time>2022-02-24T10:05:57Z</time>
      </trkpt>
      <trkpt lat="46.20271" lon="5.447">
        <ele>307.2</ele>
        <time>2022-02-24T10:05:58Z</time>
      </trkpt>
      <trkpt lat="46.20263" lon="5.44697">
        <ele>306.8</ele>
        <time>2022-02-24T10:05:59Z</time>
      </trkpt>
      <trkpt lat="46.20256" lon="5.44694">
        <ele>306.4</ele>
        <time>2022-02-24T10:06:00Z</time>
      </trkpt>
      <trkpt lat="46.20248" lon="5.44691">
        <ele>306</ele>
        <time>2022-02-24T10:06:01Z</time>
      </trkpt>
      <trkpt lat="46.20241" lon="5.44688">
        <ele>305.8</ele>
        <time>2022-02-24T10:06:02Z</time>
      </trkpt>
      <trkpt lat="46.20235" lon="5.44685">
        <ele>305.8</ele>
        <time>2022-02-24T10:06:03Z</time>
      </trkpt>
      <trkpt lat="46.20228" lon="5.44682">
        <ele>305.4</ele>
        <time>2022-02-24T10:06:04Z</time>
      </trkpt>
      <trkpt lat="46.20222" lon="5.44679">
        <ele>305.4</ele>
        <time>2022-02-24T10:06:05Z</time>
      </trkpt>
      <trkpt lat="46.20215" lon="5.44675">
        <ele>305.2</ele>
        <time>2022-02-24T10:06:06Z</time>
      </trkpt>
      <trkpt lat="46.20209" lon="5.44672">
        <ele>305.2</ele>
        <time>2022-02-24T10:06:07Z</time>
      </trkpt>
      <trkpt lat="46.20203" lon="5.4467">
        <ele>305</ele>
        <time>2022-02-24T10:06:08Z</time>
      </trkpt>
      <trkpt lat="46.20197" lon="5.44667">
        <ele>305</ele>
        <time>2022-02-24T10:06:09Z</time>
      </trkpt>
      <trkpt lat="46.20192" lon="5.44664">
        <ele>305</ele>
        <time>2022-02-24T10:06:10Z</time>
      </trkpt>
      <trkpt lat="46.20187" lon="5.44661">
        <ele>305</ele>
        <time>2022-02-24T10:06:11Z</time>
      </trkpt>
      <trkpt lat="46.20181" lon="5.44659">
        <ele>305</ele>
        <time>2022-02-24T10:06:12Z</time>
      </trkpt>
      <trkpt lat="46.20176" lon="5.44656">
        <ele>305</ele>
        <time>2022-02-24T10:06:13Z</time>
      </trkpt>
      <trkpt lat="46.20171" lon="5.44654">
        <ele>305</ele>
        <time>2022-02-24T10:06:14Z</time>
      </trkpt>
      <trkpt lat="46.20166" lon="5.44651">
        <ele>305</ele>
        <time>2022-02-24T10:06:15Z</time>
      </trkpt>
      <trkpt lat="46.20161" lon="5.44649">
        <ele>305</ele>
        <time>2022-02-24T10:06:16Z</time>
      </trkpt>
      <trkpt lat="46.20157" lon="5.44647">
        <ele>305</ele>
        <time>2022-02-24T10:06:17Z</time>
      </trkpt>
      <trkpt lat="46.20152" lon="5.44645">
        <ele>305</ele>
        <time>2022-02-24T10:06:18Z</time>
      </trkpt>
      <trkpt lat="46.20147" lon="5.44642">
        <ele>305</ele>
        <time>2022-02-24T10:06:19Z</time>
      </trkpt>
      <trkpt lat="46.20142" lon="5.4464">
        <ele>305.2</ele>
        <time>2022-02-24T10:06:20Z</time>
      </trkpt>
      <trkpt lat="46.20138" lon="5.44638">
        <ele>305.2</ele>
        <time>2022-02-24T10:06:21Z</time>
      </trkpt>
      <trkpt lat="46.20133" lon="5.44636">
        <ele>305.2</ele>
        <time>2022-02-24T10:06:22Z</time>
      </trkpt>
      <trkpt lat="46.20128" lon="5.44633">
        <ele>305.2</ele>
        <time>2022-02-24T10:06:23Z</time>
      </trkpt>
      <trkpt lat="46.20124" lon="5.44631">
        <ele>305.4</ele>
        <time>2022-02-24T10:06:24Z</time>
      </trkpt>
      <trkpt lat="46.20119" lon="5.44628">
        <ele>305.4</ele>
        <time>2022-02-24T10:06:25Z</time>
      </trkpt>
      <trkpt lat="46.20115" lon="5.44625">
        <ele>305.4</ele>
        <time>2022-02-24T10:06:26Z</time>
      </trkpt>
      <trkpt lat="46.20108" lon="5.44622">
        <ele>305.6</ele>
        <time>2022-02-24T10:06:27Z</time>
      </trkpt>
      <trkpt lat="46.20105" lon="5.44621">
        <ele>305.6</ele>
        <time>2022-02-24T10:06:28Z</time>
      </trkpt>
      <trkpt lat="46.20101" lon="5.44618">
        <ele>305.6</ele>
        <time>2022-02-24T10:06:29Z</time>
      </trkpt>
      <trkpt lat="46.20097" lon="5.44616">
        <ele>305.6</ele>
        <time>2022-02-24T10:06:30Z</time>
      </trkpt>
      <trkpt lat="46.20092" lon="5.44613">
        <ele>305.6</ele>
        <time>2022-02-24T10:06:31Z</time>
      </trkpt>
      <trkpt lat="46.20088" lon="5.44611">
        <ele>305.8</ele>
        <time>2022-02-24T10:06:32Z</time>
      </trkpt>
      <trkpt lat="46.20084" lon="5.44608">
        <ele>305.8</ele>
        <time>2022-02-24T10:06:33Z</time>
      </trkpt>
      <trkpt lat="46.2008" lon="5.44606">
        <ele>305.8</ele>
        <time>2022-02-24T10:06:34Z</time>
      </trkpt>
      <trkpt lat="46.20076" lon="5.44603">
        <ele>306.2</ele>
        <time>2022-02-24T10:06:35Z</time>
      </trkpt>
      <trkpt lat="46.20072" lon="5.44601">
        <ele>306.2</ele>
        <time>2022-02-24T10:06:36Z</time>
      </trkpt>
      <trkpt lat="46.20068" lon="5.44599">
        <ele>306.4</ele>
        <time>2022-02-24T10:06:37Z</time>
      </trkpt>
      <trkpt lat="46.20065" lon="5.44596">
        <ele>306.4</ele>
        <time>2022-02-24T10:06:38Z</time>
      </trkpt>
      <trkpt lat="46.20061" lon="5.44594">
        <ele>306.4</ele>
        <time>2022-02-24T10:06:39Z</time>
      </trkpt>
      <trkpt lat="46.20057" lon="5.44592">
        <ele>306.6</ele>
        <time>2022-02-24T10:06:40Z</time>
      </trkpt>
      <trkpt lat="46.20054" lon="5.4459">
        <ele>306.6</ele>
        <time>2022-02-24T10:06:41Z</time>
      </trkpt>
      <trkpt lat="46.20051" lon="5.44588">
        <ele>306.6</ele>
        <time>2022-02-24T10:06:42Z</time>
      </trkpt>
      <trkpt lat="46.20047" lon="5.44586">
        <ele>307</ele>
        <time>2022-02-24T10:06:43Z</time>
      </trkpt>
      <trkpt lat="46.20044" lon="5.44584">
        <ele>307</ele>
        <time>2022-02-24T10:06:44Z</time>
      </trkpt>
      <trkpt lat="46.20041" lon="5.44582">
        <ele>307.2</ele>
        <time>2022-02-24T10:06:45Z</time>
      </trkpt>
      <trkpt lat="46.20038" lon="5.44581">
        <ele>307.2</ele>
        <time>2022-02-24T10:06:46Z</time>
      </trkpt>
      <trkpt lat="46.20035" lon="5.44579">
        <ele>307.4</ele>
        <time>2022-02-24T10:06:47Z</time>
      </trkpt>
      <trkpt lat="46.20032" lon="5.44577">
        <ele>307.4</ele>
        <time>2022-02-24T10:06:48Z</time>
      </trkpt>
      <trkpt lat="46.20028" lon="5.44574">
        <ele>307.6</ele>
        <time>2022-02-24T10:06:49Z</time>
      </trkpt>
      <trkpt lat="46.20027" lon="5.44574">
        <ele>307.6</ele>
        <time>2022-02-24T10:06:50Z</time>
      </trkpt>
      <trkpt lat="46.20025" lon="5.44572">
        <ele>307.6</ele>
        <time>2022-02-24T10:06:51Z</time>
      </trkpt>
      <trkpt lat="46.20023" lon="5.44571">
        <ele>307.8</ele>
        <time>2022-02-24T10:06:52Z</time>
      </trkpt>
      <trkpt lat="46.20022" lon="5.4457">
        <ele>307.8</ele>
        <time>2022-02-24T10:06:53Z</time>
      </trkpt>
      <trkpt lat="46.20022" lon="5.4457">
        <ele>307.8</ele>
        <time>2022-02-24T10:06:54Z</time>
      </trkpt>
      <trkpt lat="46.20022" lon="5.4457">
        <ele>307.8</ele>
        <time>2022-02-24T10:06:55Z</time>
      </trkpt>
      <trkpt lat="46.20019" lon="5.44569">
        <ele>307.6</ele>
        <time>2022-02-24T10:09:22Z</time>
      </trkpt>
      <trkpt lat="46.20018" lon="5.44568">
        <ele>307.6</ele>
        <time>2022-02-24T10:09:23Z</time>
      </trkpt>
      <trkpt lat="46.20016" lon="5.44568">
        <ele>307.6</ele>
        <time>2022-02-24T10:09:24Z</time>
      </trkpt>
      <trkpt lat="46.20014" lon="5.44567">
        <ele>307.6</ele>
        <time>2022-02-24T10:09:25Z</time>
      </trkpt>
      <trkpt lat="46.20012" lon="5.44565">
        <ele>307.6</ele>
        <time>2022-02-24T10:09:26Z</time>
      </trkpt>
      <trkpt lat="46.2001" lon="5.44564">
        <ele>307.6</ele>
        <time>2022-02-24T10:09:27Z</time>
      </trkpt>
      <trkpt lat="46.20008" lon="5.44563">
        <ele>307.6</ele>
        <time>2022-02-24T10:09:28Z</time>
      </trkpt>
      <trkpt lat="46.20005" lon="5.44561">
        <ele>307.6</ele>
        <time>2022-02-24T10:09:29Z</time>
      </trkpt>
      <trkpt lat="46.20002" lon="5.44558">
        <ele>307.6</ele>
        <time>2022-02-24T10:09:30Z</time>
      </trkpt>
      <trkpt lat="46.19998" lon="5.44556">
        <ele>307.6</ele>
        <time>2022-02-24T10:09:31Z</time>
      </trkpt>
      <trkpt lat="46.19994" lon="5.44554">
        <ele>307.6</ele>
        <time>2022-02-24T10:09:32Z</time>
      </trkpt>
      <trkpt lat="46.19989" lon="5.44551">
        <ele>307.6</ele>
        <time>2022-02-24T10:09:33Z</time>
      </trkpt>
      <trkpt lat="46.19987" lon="5.44549">
        <ele>307.6</ele>
        <time>2022-02-24T10:09:34Z</time>
      </trkpt>
      <trkpt lat="46.19982" lon="5.44547">
        <ele>307.6</ele>
        <time>2022-02-24T10:09:35Z</time>
      </trkpt>
      <trkpt lat="46.19978" lon="5.44544">
        <ele>307.6</ele>
        <time>2022-02-24T10:09:36Z</time>
      </trkpt>
      <trkpt lat="46.19974" lon="5.44541">
        <ele>307.6</ele>
        <time>2022-02-24T10:09:37Z</time>
      </trkpt>
      <trkpt lat="46.19969" lon="5.44538">
        <ele>307.4</ele>
        <time>2022-02-24T10:09:38Z</time>
      </trkpt>
      <trkpt lat="46.19962" lon="5.44533">
        <ele>307.2</ele>
        <time>2022-02-24T10:09:39Z</time>
      </trkpt>
      <trkpt lat="46.1996" lon="5.44531">
        <ele>307.2</ele>
        <time>2022-02-24T10:09:40Z</time>
      </trkpt>
      <trkpt lat="46.19953" lon="5.44526">
        <ele>307.2</ele>
        <time>2022-02-24T10:09:41Z</time>
      </trkpt>
      <trkpt lat="46.1995" lon="5.44525">
        <ele>306.8</ele>
        <time>2022-02-24T10:09:42Z</time>
      </trkpt>
      <trkpt lat="46.19943" lon="5.44519">
        <ele>306.6</ele>
        <time>2022-02-24T10:09:43Z</time>
      </trkpt>
      <trkpt lat="46.19941" lon="5.44518">
        <ele>306.6</ele>
        <time>2022-02-24T10:09:44Z</time>
      </trkpt>
      <trkpt lat="46.19933" lon="5.44512">
        <ele>306.6</ele>
        <time>2022-02-24T10:09:45Z</time>
      </trkpt>
      <trkpt lat="46.1993" lon="5.4451">
        <ele>306.6</ele>
        <time>2022-02-24T10:09:46Z</time>
      </trkpt>
      <trkpt lat="46.19926" lon="5.44507">
        <ele>306.6</ele>
        <time>2022-02-24T10:09:47Z</time>
      </trkpt>
      <trkpt lat="46.1992" lon="5.44503">
        <ele>306.6</ele>
        <time>2022-02-24T10:09:48Z</time>
      </trkpt>
      <trkpt lat="46.19915" lon="5.44499">
        <ele>306.6</ele>
        <time>2022-02-24T10:09:49Z</time>
      </trkpt>
      <trkpt lat="46.1991" lon="5.44496">
        <ele>306.6</ele>
        <time>2022-02-24T10:09:50Z</time>
      </trkpt>
      <trkpt lat="46.19905" lon="5.44492">
        <ele>306.6</ele>
        <time>2022-02-24T10:09:51Z</time>
      </trkpt>
      <trkpt lat="46.19901" lon="5.44488">
        <ele>306.6</ele>
        <time>2022-02-24T10:09:52Z</time>
      </trkpt>
      <trkpt lat="46.19896" lon="5.44484">
        <ele>307</ele>
        <time>2022-02-24T10:09:53Z</time>
      </trkpt>
      <trkpt lat="46.19891" lon="5.4448">
        <ele>307</ele>
        <time>2022-02-24T10:09:54Z</time>
      </trkpt>
      <trkpt lat="46.19887" lon="5.44477">
        <ele>307</ele>
        <time>2022-02-24T10:09:55Z</time>
      </trkpt>
      <trkpt lat="46.19882" lon="5.44473">
        <ele>307.2</ele>
        <time>2022-02-24T10:09:56Z</time>
      </trkpt>
      <trkpt lat="46.19878" lon="5.44469">
        <ele>307.2</ele>
        <time>2022-02-24T10:09:57Z</time>
      </trkpt>
      <trkpt lat="46.19873" lon="5.44466">
        <ele>307.4</ele>
        <time>2022-02-24T10:09:58Z</time>
      </trkpt>
      <trkpt lat="46.19869" lon="5.44462">
        <ele>307.4</ele>
        <time>2022-02-24T10:09:59Z</time>
      </trkpt>
      <trkpt lat="46.19865" lon="5.44458">
        <ele>307.8</ele>
        <time>2022-02-24T10:10:00Z</time>
      </trkpt>
      <trkpt lat="46.1986" lon="5.44454">
        <ele>308</ele>
        <time>2022-02-24T10:10:01Z</time>
      </trkpt>
      <trkpt lat="46.19856" lon="5.4445">
        <ele>308</ele>
        <time>2022-02-24T10:10:02Z</time>
      </trkpt>
      <trkpt lat="46.19852" lon="5.44447">
        <ele>308.2</ele>
        <time>2022-02-24T10:10:03Z</time>
      </trkpt>
      <trkpt lat="46.19848" lon="5.44443">
        <ele>308.4</ele>
        <time>2022-02-24T10:10:04Z</time>
      </trkpt>
      <trkpt lat="46.19844" lon="5.4444">
        <ele>308.6</ele>
        <time>2022-02-24T10:10:05Z</time>
      </trkpt>
      <trkpt lat="46.1984" lon="5.44436">
        <ele>308.8</ele>
        <time>2022-02-24T10:10:06Z</time>
      </trkpt>
      <trkpt lat="46.19836" lon="5.44433">
        <ele>308.8</ele>
        <time>2022-02-24T10:10:07Z</time>
      </trkpt>
      <trkpt lat="46.19833" lon="5.4443">
        <ele>309</ele>
        <time>2022-02-24T10:10:08Z</time>
      </trkpt>
      <trkpt lat="46.19829" lon="5.44426">
        <ele>309</ele>
        <time>2022-02-24T10:10:09Z</time>
      </trkpt>
      <trkpt lat="46.19826" lon="5.44422">
        <ele>309</ele>
        <time>2022-02-24T10:10:10Z</time>
      </trkpt>
      <trkpt lat="46.19822" lon="5.44419">
        <ele>309</ele>
        <time>2022-02-24T10:10:11Z</time>
      </trkpt>
      <trkpt lat="46.19818" lon="5.44415">
        <ele>309</ele>
        <time>2022-02-24T10:10:12Z</time>
      </trkpt>
      <trkpt lat="46.19814" lon="5.44411">
        <ele>309</ele>
        <time>2022-02-24T10:10:13Z</time>
      </trkpt>
      <trkpt lat="46.1981" lon="5.44407">
        <ele>309</ele>
        <time>2022-02-24T10:10:14Z</time>
      </trkpt>
      <trkpt lat="46.19806" lon="5.44403">
        <ele>309</ele>
        <time>2022-02-24T10:10:15Z</time>
      </trkpt>
      <trkpt lat="46.19802" lon="5.44398">
        <ele>309.4</ele>
        <time>2022-02-24T10:10:16Z</time>
      </trkpt>
      <trkpt lat="46.19798" lon="5.44394">
        <ele>309.6</ele>
        <time>2022-02-24T10:10:17Z</time>
      </trkpt>
      <trkpt lat="46.19794" lon="5.44389">
        <ele>309.8</ele>
        <time>2022-02-24T10:10:18Z</time>
      </trkpt>
      <trkpt lat="46.19789" lon="5.44382">
        <ele>309.8</ele>
        <time>2022-02-24T10:10:19Z</time>
      </trkpt>
      <trkpt lat="46.19787" lon="5.4438">
        <ele>310.2</ele>
        <time>2022-02-24T10:10:20Z</time>
      </trkpt>
      <trkpt lat="46.19784" lon="5.44376">
        <ele>310.2</ele>
        <time>2022-02-24T10:10:21Z</time>
      </trkpt>
      <trkpt lat="46.1978" lon="5.44371">
        <ele>310.4</ele>
        <time>2022-02-24T10:10:22Z</time>
      </trkpt>
      <trkpt lat="46.19777" lon="5.44367">
        <ele>310.4</ele>
        <time>2022-02-24T10:10:23Z</time>
      </trkpt>
      <trkpt lat="46.19773" lon="5.44362">
        <ele>310.6</ele>
        <time>2022-02-24T10:10:24Z</time>
      </trkpt>
      <trkpt lat="46.1977" lon="5.44358">
        <ele>310.6</ele>
        <time>2022-02-24T10:10:25Z</time>
      </trkpt>
      <trkpt lat="46.19766" lon="5.44353">
        <ele>310.6</ele>
        <time>2022-02-24T10:10:26Z</time>
      </trkpt>
      <trkpt lat="46.19762" lon="5.44349">
        <ele>310.6</ele>
        <time>2022-02-24T10:10:27Z</time>
      </trkpt>
      <trkpt lat="46.19759" lon="5.44344">
        <ele>310.6</ele>
        <time>2022-02-24T10:10:28Z</time>
      </trkpt>
      <trkpt lat="46.19755" lon="5.44339">
        <ele>310.2</ele>
        <time>2022-02-24T10:10:29Z</time>
      </trkpt>
      <trkpt lat="46.19751" lon="5.44333">
        <ele>310</ele>
        <time>2022-02-24T10:10:30Z</time>
      </trkpt>
      <trkpt lat="46.19746" lon="5.44328">
        <ele>310</ele>
        <time>2022-02-24T10:10:31Z</time>
      </trkpt>
      <trkpt lat="46.19742" lon="5.44323">
        <ele>309.8</ele>
        <time>2022-02-24T10:10:32Z</time>
      </trkpt>
      <trkpt lat="46.19738" lon="5.44317">
        <ele>309.8</ele>
        <time>2022-02-24T10:10:33Z</time>
      </trkpt>
      <trkpt lat="46.19734" lon="5.44311">
        <ele>309.8</ele>
        <time>2022-02-24T10:10:34Z</time>
      </trkpt>
      <trkpt lat="46.1973" lon="5.44306">
        <ele>309.8</ele>
        <time>2022-02-24T10:10:35Z</time>
      </trkpt>
      <trkpt lat="46.19726" lon="5.44301">
        <ele>309.8</ele>
        <time>2022-02-24T10:10:36Z</time>
      </trkpt>
      <trkpt lat="46.19723" lon="5.44296">
        <ele>309.6</ele>
        <time>2022-02-24T10:10:37Z</time>
      </trkpt>
      <trkpt lat="46.19719" lon="5.44291">
        <ele>309.6</ele>
        <time>2022-02-24T10:10:38Z</time>
      </trkpt>
      <trkpt lat="46.19715" lon="5.44286">
        <ele>309.4</ele>
        <time>2022-02-24T10:10:39Z</time>
      </trkpt>
      <trkpt lat="46.19712" lon="5.44281">
        <ele>309.4</ele>
        <time>2022-02-24T10:10:40Z</time>
      </trkpt>
      <trkpt lat="46.19708" lon="5.44276">
        <ele>309.4</ele>
        <time>2022-02-24T10:10:41Z</time>
      </trkpt>
      <trkpt lat="46.19705" lon="5.44272">
        <ele>309.6</ele>
        <time>2022-02-24T10:10:42Z</time>
      </trkpt>
      <trkpt lat="46.19701" lon="5.44268">
        <ele>310</ele>
        <time>2022-02-24T10:10:43Z</time>
      </trkpt>
      <trkpt lat="46.19697" lon="5.44264">
        <ele>310</ele>
        <time>2022-02-24T10:10:44Z</time>
      </trkpt>
      <trkpt lat="46.19694" lon="5.44261">
        <ele>310</ele>
        <time>2022-02-24T10:10:45Z</time>
      </trkpt>
      <trkpt lat="46.1969" lon="5.44257">
        <ele>310.4</ele>
        <time>2022-02-24T10:10:46Z</time>
      </trkpt>
      <trkpt lat="46.19687" lon="5.44254">
        <ele>310.4</ele>
        <time>2022-02-24T10:10:47Z</time>
      </trkpt>
      <trkpt lat="46.19683" lon="5.4425">
        <ele>310.4</ele>
        <time>2022-02-24T10:10:48Z</time>
      </trkpt>
      <trkpt lat="46.19679" lon="5.44247">
        <ele>310.6</ele>
        <time>2022-02-24T10:10:49Z</time>
      </trkpt>
      <trkpt lat="46.19675" lon="5.44244">
        <ele>310.6</ele>
        <time>2022-02-24T10:10:50Z</time>
      </trkpt>
      <trkpt lat="46.19671" lon="5.44242">
        <ele>310.6</ele>
        <time>2022-02-24T10:10:51Z</time>
      </trkpt>
      <trkpt lat="46.19667" lon="5.44239">
        <ele>310.8</ele>
        <time>2022-02-24T10:10:52Z</time>
      </trkpt>
      <trkpt lat="46.19663" lon="5.44236">
        <ele>310.8</ele>
        <time>2022-02-24T10:10:53Z</time>
      </trkpt>
      <trkpt lat="46.19658" lon="5.44233">
        <ele>310.8</ele>
        <time>2022-02-24T10:10:54Z</time>
      </trkpt>
      <trkpt lat="46.19654" lon="5.44231">
        <ele>310.8</ele>
        <time>2022-02-24T10:10:55Z</time>
      </trkpt>
      <trkpt lat="46.1965" lon="5.44228">
        <ele>310.8</ele>
        <time>2022-02-24T10:10:56Z</time>
      </trkpt>
      <trkpt lat="46.19645" lon="5.44225">
        <ele>310.8</ele>
        <time>2022-02-24T10:10:57Z</time>
      </trkpt>
      <trkpt lat="46.19641" lon="5.44222">
        <ele>310.8</ele>
        <time>2022-02-24T10:10:58Z</time>
      </trkpt>
      <trkpt lat="46.19636" lon="5.4422">
        <ele>310.6</ele>
        <time>2022-02-24T10:10:59Z</time>
      </trkpt>
      <trkpt lat="46.19632" lon="5.44217">
        <ele>310.6</ele>
        <time>2022-02-24T10:11:00Z</time>
      </trkpt>
      <trkpt lat="46.19627" lon="5.44214">
        <ele>310.6</ele>
        <time>2022-02-24T10:11:01Z</time>
      </trkpt>
      <trkpt lat="46.19623" lon="5.44211">
        <ele>310.6</ele>
        <time>2022-02-24T10:11:02Z</time>
      </trkpt>
      <trkpt lat="46.19619" lon="5.44209">
        <ele>310.6</ele>
        <time>2022-02-24T10:11:03Z</time>
      </trkpt>
      <trkpt lat="46.19615" lon="5.44206">
        <ele>310.6</ele>
        <time>2022-02-24T10:11:04Z</time>
      </trkpt>
      <trkpt lat="46.19611" lon="5.44203">
        <ele>310.6</ele>
        <time>2022-02-24T10:11:05Z</time>
      </trkpt>
      <trkpt lat="46.19607" lon="5.44201">
        <ele>310.8</ele>
        <time>2022-02-24T10:11:06Z</time>
      </trkpt>
      <trkpt lat="46.19603" lon="5.44198">
        <ele>310.8</ele>
        <time>2022-02-24T10:11:07Z</time>
      </trkpt>
      <trkpt lat="46.19599" lon="5.44195">
        <ele>311</ele>
        <time>2022-02-24T10:11:08Z</time>
      </trkpt>
      <trkpt lat="46.19595" lon="5.44193">
        <ele>311</ele>
        <time>2022-02-24T10:11:09Z</time>
      </trkpt>
      <trkpt lat="46.19591" lon="5.4419">
        <ele>311.4</ele>
        <time>2022-02-24T10:11:10Z</time>
      </trkpt>
      <trkpt lat="46.19587" lon="5.44188">
        <ele>311.4</ele>
        <time>2022-02-24T10:11:11Z</time>
      </trkpt>
      <trkpt lat="46.19583" lon="5.44186">
        <ele>311.6</ele>
        <time>2022-02-24T10:11:12Z</time>
      </trkpt>
      <trkpt lat="46.19579" lon="5.44183">
        <ele>312</ele>
        <time>2022-02-24T10:11:13Z</time>
      </trkpt>
      <trkpt lat="46.19575" lon="5.44181">
        <ele>312.2</ele>
        <time>2022-02-24T10:11:14Z</time>
      </trkpt>
      <trkpt lat="46.19571" lon="5.44178">
        <ele>312.2</ele>
        <time>2022-02-24T10:11:15Z</time>
      </trkpt>
      <trkpt lat="46.19567" lon="5.44176">
        <ele>312.4</ele>
        <time>2022-02-24T10:11:16Z</time>
      </trkpt>
      <trkpt lat="46.19563" lon="5.44175">
        <ele>312.4</ele>
        <time>2022-02-24T10:11:17Z</time>
      </trkpt>
      <trkpt lat="46.19559" lon="5.44173">
        <ele>312.4</ele>
        <time>2022-02-24T10:11:18Z</time>
      </trkpt>
      <trkpt lat="46.19554" lon="5.44172">
        <ele>312.4</ele>
        <time>2022-02-24T10:11:19Z</time>
      </trkpt>
      <trkpt lat="46.1955" lon="5.4417">
        <ele>312.4</ele>
        <time>2022-02-24T10:11:20Z</time>
      </trkpt>
      <trkpt lat="46.19545" lon="5.44169">
        <ele>312.4</ele>
        <time>2022-02-24T10:11:21Z</time>
      </trkpt>
      <trkpt lat="46.19541" lon="5.44167">
        <ele>312.4</ele>
        <time>2022-02-24T10:11:22Z</time>
      </trkpt>
      <trkpt lat="46.19536" lon="5.44166">
        <ele>312.4</ele>
        <time>2022-02-24T10:11:23Z</time>
      </trkpt>
      <trkpt lat="46.19531" lon="5.44165">
        <ele>312.2</ele>
        <time>2022-02-24T10:11:24Z</time>
      </trkpt>
      <trkpt lat="46.19525" lon="5.44164">
        <ele>312</ele>
        <time>2022-02-24T10:11:25Z</time>
      </trkpt>
      <trkpt lat="46.1952" lon="5.44164">
        <ele>312</ele>
        <time>2022-02-24T10:11:26Z</time>
      </trkpt>
      <trkpt lat="46.19514" lon="5.44164">
        <ele>312</ele>
        <time>2022-02-24T10:11:27Z</time>
      </trkpt>
      <trkpt lat="46.19508" lon="5.44164">
        <ele>311.6</ele>
        <time>2022-02-24T10:11:28Z</time>
      </trkpt>
      <trkpt lat="46.19502" lon="5.44165">
        <ele>311.6</ele>
        <time>2022-02-24T10:11:29Z</time>
      </trkpt>
      <trkpt lat="46.19496" lon="5.44167">
        <ele>311.6</ele>
        <time>2022-02-24T10:11:30Z</time>
      </trkpt>
      <trkpt lat="46.19489" lon="5.44168">
        <ele>311.4</ele>
        <time>2022-02-24T10:11:31Z</time>
      </trkpt>
      <trkpt lat="46.19483" lon="5.4417">
        <ele>311.4</ele>
        <time>2022-02-24T10:11:32Z</time>
      </trkpt>
      <trkpt lat="46.19477" lon="5.44172">
        <ele>311</ele>
        <time>2022-02-24T10:11:33Z</time>
      </trkpt>
      <trkpt lat="46.19471" lon="5.44173">
        <ele>311</ele>
        <time>2022-02-24T10:11:34Z</time>
      </trkpt>
      <trkpt lat="46.19465" lon="5.44175">
        <ele>311</ele>
        <time>2022-02-24T10:11:35Z</time>
      </trkpt>
      <trkpt lat="46.19459" lon="5.44177">
        <ele>310.8</ele>
        <time>2022-02-24T10:11:36Z</time>
      </trkpt>
      <trkpt lat="46.19453" lon="5.44179">
        <ele>310.8</ele>
        <time>2022-02-24T10:11:37Z</time>
      </trkpt>
      <trkpt lat="46.19448" lon="5.44181">
        <ele>310.8</ele>
        <time>2022-02-24T10:11:38Z</time>
      </trkpt>
      <trkpt lat="46.19442" lon="5.44182">
        <ele>310.8</ele>
        <time>2022-02-24T10:11:39Z</time>
      </trkpt>
      <trkpt lat="46.19437" lon="5.44184">
        <ele>310.8</ele>
        <time>2022-02-24T10:11:40Z</time>
      </trkpt>
      <trkpt lat="46.19432" lon="5.44185">
        <ele>311</ele>
        <time>2022-02-24T10:11:41Z</time>
      </trkpt>
      <trkpt lat="46.19428" lon="5.44186">
        <ele>311.2</ele>
        <time>2022-02-24T10:11:42Z</time>
      </trkpt>
      <trkpt lat="46.19423" lon="5.44187">
        <ele>311.2</ele>
        <time>2022-02-24T10:11:43Z</time>
      </trkpt>
      <trkpt lat="46.19419" lon="5.44188">
        <ele>311.2</ele>
        <time>2022-02-24T10:11:44Z</time>
      </trkpt>
      <trkpt lat="46.19414" lon="5.44188">
        <ele>311.4</ele>
        <time>2022-02-24T10:11:45Z</time>
      </trkpt>
      <trkpt lat="46.1941" lon="5.44188">
        <ele>311.4</ele>
        <time>2022-02-24T10:11:46Z</time>
      </trkpt>
      <trkpt lat="46.19406" lon="5.44188">
        <ele>311.4</ele>
        <time>2022-02-24T10:11:47Z</time>
      </trkpt>
      <trkpt lat="46.19401" lon="5.44188">
        <ele>312</ele>
        <time>2022-02-24T10:11:48Z</time>
      </trkpt>
      <trkpt lat="46.19397" lon="5.44188">
        <ele>312</ele>
        <time>2022-02-24T10:11:49Z</time>
      </trkpt>
      <trkpt lat="46.19393" lon="5.44188">
        <ele>312</ele>
        <time>2022-02-24T10:11:50Z</time>
      </trkpt>
      <trkpt lat="46.19389" lon="5.44188">
        <ele>312</ele>
        <time>2022-02-24T10:11:51Z</time>
      </trkpt>
      <trkpt lat="46.19385" lon="5.44188">
        <ele>312.2</ele>
        <time>2022-02-24T10:11:52Z</time>
      </trkpt>
      <trkpt lat="46.1938" lon="5.44187">
        <ele>312.2</ele>
        <time>2022-02-24T10:11:53Z</time>
      </trkpt>
      <trkpt lat="46.19376" lon="5.44187">
        <ele>312.4</ele>
        <time>2022-02-24T10:11:54Z</time>
      </trkpt>
      <trkpt lat="46.19371" lon="5.44186">
        <ele>312.4</ele>
        <time>2022-02-24T10:11:55Z</time>
      </trkpt>
      <trkpt lat="46.19367" lon="5.44185">
        <ele>312.8</ele>
        <time>2022-02-24T10:11:56Z</time>
      </trkpt>
      <trkpt lat="46.19363" lon="5.44184">
        <ele>312.8</ele>
        <time>2022-02-24T10:11:57Z</time>
      </trkpt>
      <trkpt lat="46.19359" lon="5.44183">
        <ele>313</ele>
        <time>2022-02-24T10:11:58Z</time>
      </trkpt>
      <trkpt lat="46.19355" lon="5.44183">
        <ele>313</ele>
        <time>2022-02-24T10:11:59Z</time>
      </trkpt>
      <trkpt lat="46.19351" lon="5.44183">
        <ele>313.2</ele>
        <time>2022-02-24T10:12:00Z</time>
      </trkpt>
      <trkpt lat="46.19347" lon="5.44182">
        <ele>313.2</ele>
        <time>2022-02-24T10:12:01Z</time>
      </trkpt>
      <trkpt lat="46.19343" lon="5.44181">
        <ele>313.2</ele>
        <time>2022-02-24T10:12:02Z</time>
      </trkpt>
      <trkpt lat="46.19339" lon="5.4418">
        <ele>313.2</ele>
        <time>2022-02-24T10:12:03Z</time>
      </trkpt>
      <trkpt lat="46.19335" lon="5.44179">
        <ele>313.4</ele>
        <time>2022-02-24T10:12:04Z</time>
      </trkpt>
      <trkpt lat="46.19332" lon="5.44179">
        <ele>313.4</ele>
        <time>2022-02-24T10:12:05Z</time>
      </trkpt>
      <trkpt lat="46.19328" lon="5.44178">
        <ele>313.6</ele>
        <time>2022-02-24T10:12:06Z</time>
      </trkpt>
      <trkpt lat="46.19324" lon="5.44177">
        <ele>313.6</ele>
        <time>2022-02-24T10:12:07Z</time>
      </trkpt>
      <trkpt lat="46.1932" lon="5.44177">
        <ele>313.8</ele>
        <time>2022-02-24T10:12:08Z</time>
      </trkpt>
      <trkpt lat="46.19316" lon="5.44176">
        <ele>313.8</ele>
        <time>2022-02-24T10:12:09Z</time>
      </trkpt>
      <trkpt lat="46.19313" lon="5.44176">
        <ele>314.2</ele>
        <time>2022-02-24T10:12:10Z</time>
      </trkpt>
      <trkpt lat="46.19309" lon="5.44175">
        <ele>314.2</ele>
        <time>2022-02-24T10:12:11Z</time>
      </trkpt>
      <trkpt lat="46.19306" lon="5.44175">
        <ele>314.4</ele>
        <time>2022-02-24T10:12:12Z</time>
      </trkpt>
      <trkpt lat="46.19302" lon="5.44174">
        <ele>314.6</ele>
        <time>2022-02-24T10:12:13Z</time>
      </trkpt>
      <trkpt lat="46.19299" lon="5.44174">
        <ele>314.6</ele>
        <time>2022-02-24T10:12:14Z</time>
      </trkpt>
      <trkpt lat="46.19296" lon="5.44173">
        <ele>315</ele>
        <time>2022-02-24T10:12:15Z</time>
      </trkpt>
      <trkpt lat="46.19293" lon="5.44172">
        <ele>315</ele>
        <time>2022-02-24T10:12:16Z</time>
      </trkpt>
      <trkpt lat="46.19289" lon="5.44172">
        <ele>315.4</ele>
        <time>2022-02-24T10:12:17Z</time>
      </trkpt>
      <trkpt lat="46.19286" lon="5.44171">
        <ele>315.4</ele>
        <time>2022-02-24T10:12:18Z</time>
      </trkpt>
      <trkpt lat="46.19283" lon="5.44171">
        <ele>315.6</ele>
        <time>2022-02-24T10:12:19Z</time>
      </trkpt>
      <trkpt lat="46.19279" lon="5.4417">
        <ele>315.6</ele>
        <time>2022-02-24T10:12:20Z</time>
      </trkpt>
      <trkpt lat="46.19276" lon="5.4417">
        <ele>315.8</ele>
        <time>2022-02-24T10:12:21Z</time>
      </trkpt>
      <trkpt lat="46.19272" lon="5.44169">
        <ele>315.8</ele>
        <time>2022-02-24T10:12:22Z</time>
      </trkpt>
      <trkpt lat="46.19268" lon="5.44169">
        <ele>316.2</ele>
        <time>2022-02-24T10:12:23Z</time>
      </trkpt>
      <trkpt lat="46.19265" lon="5.44168">
        <ele>316.2</ele>
        <time>2022-02-24T10:12:24Z</time>
      </trkpt>
      <trkpt lat="46.19261" lon="5.44168">
        <ele>316.4</ele>
        <time>2022-02-24T10:12:25Z</time>
      </trkpt>
      <trkpt lat="46.19257" lon="5.44167">
        <ele>316.8</ele>
        <time>2022-02-24T10:12:26Z</time>
      </trkpt>
      <trkpt lat="46.19254" lon="5.44167">
        <ele>316.8</ele>
        <time>2022-02-24T10:12:27Z</time>
      </trkpt>
      <trkpt lat="46.1925" lon="5.44167">
        <ele>317</ele>
        <time>2022-02-24T10:12:28Z</time>
      </trkpt>
      <trkpt lat="46.19247" lon="5.44166">
        <ele>317.4</ele>
        <time>2022-02-24T10:12:29Z</time>
      </trkpt>
      <trkpt lat="46.19243" lon="5.44166">
        <ele>317.4</ele>
        <time>2022-02-24T10:12:30Z</time>
      </trkpt>
      <trkpt lat="46.19239" lon="5.44165">
        <ele>317.4</ele>
        <time>2022-02-24T10:12:31Z</time>
      </trkpt>
      <trkpt lat="46.19236" lon="5.44164">
        <ele>317.6</ele>
        <time>2022-02-24T10:12:32Z</time>
      </trkpt>
      <trkpt lat="46.1923" lon="5.44163">
        <ele>317.6</ele>
        <time>2022-02-24T10:12:33Z</time>
      </trkpt>
      <trkpt lat="46.19228" lon="5.44163">
        <ele>317.8</ele>
        <time>2022-02-24T10:12:34Z</time>
      </trkpt>
      <trkpt lat="46.19224" lon="5.44162">
        <ele>317.8</ele>
        <time>2022-02-24T10:12:35Z</time>
      </trkpt>
      <trkpt lat="46.1922" lon="5.44161">
        <ele>318</ele>
        <time>2022-02-24T10:12:36Z</time>
      </trkpt>
      <trkpt lat="46.19216" lon="5.4416">
        <ele>318</ele>
        <time>2022-02-24T10:12:37Z</time>
      </trkpt>
      <trkpt lat="46.19212" lon="5.4416">
        <ele>318.2</ele>
        <time>2022-02-24T10:12:38Z</time>
      </trkpt>
      <trkpt lat="46.19205" lon="5.44159">
        <ele>318.2</ele>
        <time>2022-02-24T10:12:39Z</time>
      </trkpt>
      <trkpt lat="46.19203" lon="5.44159">
        <ele>318.4</ele>
        <time>2022-02-24T10:12:40Z</time>
      </trkpt>
      <trkpt lat="46.19199" lon="5.44158">
        <ele>318.4</ele>
        <time>2022-02-24T10:12:41Z</time>
      </trkpt>
      <trkpt lat="46.19195" lon="5.44158">
        <ele>318.4</ele>
        <time>2022-02-24T10:12:42Z</time>
      </trkpt>
      <trkpt lat="46.19191" lon="5.44157">
        <ele>318.8</ele>
        <time>2022-02-24T10:12:43Z</time>
      </trkpt>
      <trkpt lat="46.19187" lon="5.44157">
        <ele>318.8</ele>
        <time>2022-02-24T10:12:44Z</time>
      </trkpt>
      <trkpt lat="46.19183" lon="5.44156">
        <ele>318.8</ele>
        <time>2022-02-24T10:12:45Z</time>
      </trkpt>
      <trkpt lat="46.19178" lon="5.44156">
        <ele>318.8</ele>
        <time>2022-02-24T10:12:46Z</time>
      </trkpt>
      <trkpt lat="46.19174" lon="5.44155">
        <ele>319</ele>
        <time>2022-02-24T10:12:47Z</time>
      </trkpt>
      <trkpt lat="46.1917" lon="5.44155">
        <ele>319</ele>
        <time>2022-02-24T10:12:48Z</time>
      </trkpt>
      <trkpt lat="46.19166" lon="5.44155">
        <ele>319</ele>
        <time>2022-02-24T10:12:49Z</time>
      </trkpt>
      <trkpt lat="46.19161" lon="5.44155">
        <ele>319</ele>
        <time>2022-02-24T10:12:50Z</time>
      </trkpt>
      <trkpt lat="46.19155" lon="5.44155">
        <ele>319</ele>
        <time>2022-02-24T10:12:51Z</time>
      </trkpt>
      <trkpt lat="46.19153" lon="5.44155">
        <ele>319.2</ele>
        <time>2022-02-24T10:12:52Z</time>
      </trkpt>
      <trkpt lat="46.19148" lon="5.44155">
        <ele>319.2</ele>
        <time>2022-02-24T10:12:53Z</time>
      </trkpt>
      <trkpt lat="46.19144" lon="5.44155">
        <ele>319.2</ele>
        <time>2022-02-24T10:12:54Z</time>
      </trkpt>
      <trkpt lat="46.19139" lon="5.44155">
        <ele>319.4</ele>
        <time>2022-02-24T10:12:55Z</time>
      </trkpt>
      <trkpt lat="46.19132" lon="5.44155">
        <ele>319.4</ele>
        <time>2022-02-24T10:12:56Z</time>
      </trkpt>
      <trkpt lat="46.1913" lon="5.44154">
        <ele>319.4</ele>
        <time>2022-02-24T10:12:57Z</time>
      </trkpt>
      <trkpt lat="46.19125" lon="5.44154">
        <ele>319.8</ele>
        <time>2022-02-24T10:12:58Z</time>
      </trkpt>
      <trkpt lat="46.1912" lon="5.44154">
        <ele>319.8</ele>
        <time>2022-02-24T10:12:59Z</time>
      </trkpt>
      <trkpt lat="46.19115" lon="5.44154">
        <ele>319.8</ele>
        <time>2022-02-24T10:13:00Z</time>
      </trkpt>
      <trkpt lat="46.19108" lon="5.44154">
        <ele>319.8</ele>
        <time>2022-02-24T10:13:01Z</time>
      </trkpt>
      <trkpt lat="46.19105" lon="5.44154">
        <ele>319.8</ele>
        <time>2022-02-24T10:13:02Z</time>
      </trkpt>
      <trkpt lat="46.191" lon="5.44154">
        <ele>319.8</ele>
        <time>2022-02-24T10:13:03Z</time>
      </trkpt>
      <trkpt lat="46.19095" lon="5.44155">
        <ele>319.4</ele>
        <time>2022-02-24T10:13:04Z</time>
      </trkpt>
      <trkpt lat="46.19089" lon="5.44155">
        <ele>319.4</ele>
        <time>2022-02-24T10:13:05Z</time>
      </trkpt>
      <trkpt lat="46.19084" lon="5.44155">
        <ele>319</ele>
        <time>2022-02-24T10:13:06Z</time>
      </trkpt>
      <trkpt lat="46.19079" lon="5.44155">
        <ele>319</ele>
        <time>2022-02-24T10:13:07Z</time>
      </trkpt>
      <trkpt lat="46.19073" lon="5.44154">
        <ele>318.8</ele>
        <time>2022-02-24T10:13:08Z</time>
      </trkpt>
      <trkpt lat="46.19067" lon="5.44154">
        <ele>318.8</ele>
        <time>2022-02-24T10:13:09Z</time>
      </trkpt>
      <trkpt lat="46.19061" lon="5.44153">
        <ele>318.4</ele>
        <time>2022-02-24T10:13:10Z</time>
      </trkpt>
      <trkpt lat="46.19055" lon="5.44153">
        <ele>318.2</ele>
        <time>2022-02-24T10:13:11Z</time>
      </trkpt>
      <trkpt lat="46.19048" lon="5.44152">
        <ele>317.8</ele>
        <time>2022-02-24T10:13:12Z</time>
      </trkpt>
      <trkpt lat="46.19042" lon="5.4415">
        <ele>317.6</ele>
        <time>2022-02-24T10:13:13Z</time>
      </trkpt>
      <trkpt lat="46.19035" lon="5.44148">
        <ele>317.2</ele>
        <time>2022-02-24T10:13:14Z</time>
      </trkpt>
      <trkpt lat="46.19028" lon="5.44146">
        <ele>317</ele>
        <time>2022-02-24T10:13:15Z</time>
      </trkpt>
      <trkpt lat="46.1902" lon="5.44144">
        <ele>316.6</ele>
        <time>2022-02-24T10:13:16Z</time>
      </trkpt>
      <trkpt lat="46.19013" lon="5.4414">
        <ele>316.2</ele>
        <time>2022-02-24T10:13:17Z</time>
      </trkpt>
      <trkpt lat="46.19006" lon="5.44135">
        <ele>315.8</ele>
        <time>2022-02-24T10:13:18Z</time>
      </trkpt>
      <trkpt lat="46.18999" lon="5.4413">
        <ele>315.4</ele>
        <time>2022-02-24T10:13:19Z</time>
      </trkpt>
      <trkpt lat="46.18992" lon="5.44124">
        <ele>315</ele>
        <time>2022-02-24T10:13:20Z</time>
      </trkpt>
      <trkpt lat="46.18985" lon="5.44117">
        <ele>314.6</ele>
        <time>2022-02-24T10:13:21Z</time>
      </trkpt>
      <trkpt lat="46.18979" lon="5.4411">
        <ele>314.4</ele>
        <time>2022-02-24T10:13:22Z</time>
      </trkpt>
      <trkpt lat="46.18973" lon="5.44102">
        <ele>314.2</ele>
        <time>2022-02-24T10:13:23Z</time>
      </trkpt>
      <trkpt lat="46.18967" lon="5.44094">
        <ele>314.2</ele>
        <time>2022-02-24T10:13:24Z</time>
      </trkpt>
      <trkpt lat="46.18962" lon="5.44086">
        <ele>313.8</ele>
        <time>2022-02-24T10:13:25Z</time>
      </trkpt>
      <trkpt lat="46.18956" lon="5.44078">
        <ele>313.8</ele>
        <time>2022-02-24T10:13:26Z</time>
      </trkpt>
      <trkpt lat="46.18951" lon="5.44069">
        <ele>313.6</ele>
        <time>2022-02-24T10:13:27Z</time>
      </trkpt>
      <trkpt lat="46.18946" lon="5.44061">
        <ele>313.6</ele>
        <time>2022-02-24T10:13:28Z</time>
      </trkpt>
      <trkpt lat="46.18941" lon="5.44054">
        <ele>313.4</ele>
        <time>2022-02-24T10:13:29Z</time>
      </trkpt>
      <trkpt lat="46.18936" lon="5.44046">
        <ele>313.4</ele>
        <time>2022-02-24T10:13:30Z</time>
      </trkpt>
      <trkpt lat="46.18931" lon="5.44039">
        <ele>313</ele>
        <time>2022-02-24T10:13:31Z</time>
      </trkpt>
      <trkpt lat="46.18926" lon="5.44032">
        <ele>312.8</ele>
        <time>2022-02-24T10:13:32Z</time>
      </trkpt>
      <trkpt lat="46.18921" lon="5.44026">
        <ele>312.8</ele>
        <time>2022-02-24T10:13:33Z</time>
      </trkpt>
      <trkpt lat="46.18916" lon="5.44019">
        <ele>312.6</ele>
        <time>2022-02-24T10:13:34Z</time>
      </trkpt>
      <trkpt lat="46.1891" lon="5.44013">
        <ele>312.2</ele>
        <time>2022-02-24T10:13:35Z</time>
      </trkpt>
      <trkpt lat="46.18905" lon="5.44006">
        <ele>312</ele>
        <time>2022-02-24T10:13:36Z</time>
      </trkpt>
      <trkpt lat="46.189" lon="5.43999">
        <ele>311.8</ele>
        <time>2022-02-24T10:13:37Z</time>
      </trkpt>
      <trkpt lat="46.18894" lon="5.43993">
        <ele>311.4</ele>
        <time>2022-02-24T10:13:38Z</time>
      </trkpt>
      <trkpt lat="46.18886" lon="5.43983">
        <ele>311.2</ele>
        <time>2022-02-24T10:13:39Z</time>
      </trkpt>
      <trkpt lat="46.18883" lon="5.43979">
        <ele>311.2</ele>
        <time>2022-02-24T10:13:40Z</time>
      </trkpt>
      <trkpt lat="46.18875" lon="5.43969">
        <ele>310.6</ele>
        <time>2022-02-24T10:13:41Z</time>
      </trkpt>
      <trkpt lat="46.18872" lon="5.43966">
        <ele>310.2</ele>
        <time>2022-02-24T10:13:42Z</time>
      </trkpt>
      <trkpt lat="46.18866" lon="5.43959">
        <ele>309.8</ele>
        <time>2022-02-24T10:13:43Z</time>
      </trkpt>
      <trkpt lat="46.1886" lon="5.43952">
        <ele>309.4</ele>
        <time>2022-02-24T10:13:44Z</time>
      </trkpt>
      <trkpt lat="46.18851" lon="5.43942">
        <ele>309</ele>
        <time>2022-02-24T10:13:45Z</time>
      </trkpt>
      <trkpt lat="46.18848" lon="5.43938">
        <ele>308.6</ele>
        <time>2022-02-24T10:13:46Z</time>
      </trkpt>
      <trkpt lat="46.18842" lon="5.43931">
        <ele>308.4</ele>
        <time>2022-02-24T10:13:47Z</time>
      </trkpt>
      <trkpt lat="46.18836" lon="5.43924">
        <ele>308.2</ele>
        <time>2022-02-24T10:13:48Z</time>
      </trkpt>
      <trkpt lat="46.1883" lon="5.43916">
        <ele>307.8</ele>
        <time>2022-02-24T10:13:49Z</time>
      </trkpt>
      <trkpt lat="46.18822" lon="5.43906">
        <ele>307.4</ele>
        <time>2022-02-24T10:13:50Z</time>
      </trkpt>
      <trkpt lat="46.18819" lon="5.43903">
        <ele>307.2</ele>
        <time>2022-02-24T10:13:51Z</time>
      </trkpt>
      <trkpt lat="46.18813" lon="5.43896">
        <ele>307.2</ele>
        <time>2022-02-24T10:13:52Z</time>
      </trkpt>
      <trkpt lat="46.18807" lon="5.43889">
        <ele>306.8</ele>
        <time>2022-02-24T10:13:53Z</time>
      </trkpt>
      <trkpt lat="46.18802" lon="5.43883">
        <ele>306.6</ele>
        <time>2022-02-24T10:13:54Z</time>
      </trkpt>
      <trkpt lat="46.18794" lon="5.43874">
        <ele>306.6</ele>
        <time>2022-02-24T10:13:55Z</time>
      </trkpt>
      <trkpt lat="46.18791" lon="5.43871">
        <ele>306.4</ele>
        <time>2022-02-24T10:13:56Z</time>
      </trkpt>
      <trkpt lat="46.18783" lon="5.43863">
        <ele>306.4</ele>
        <time>2022-02-24T10:13:57Z</time>
      </trkpt>
      <trkpt lat="46.18781" lon="5.4386">
        <ele>306</ele>
        <time>2022-02-24T10:13:58Z</time>
      </trkpt>
      <trkpt lat="46.18776" lon="5.43855">
        <ele>306</ele>
        <time>2022-02-24T10:13:59Z</time>
      </trkpt>
      <trkpt lat="46.18768" lon="5.43847">
        <ele>306</ele>
        <time>2022-02-24T10:14:00Z</time>
      </trkpt>
      <trkpt lat="46.18766" lon="5.43845">
        <ele>305.8</ele>
        <time>2022-02-24T10:14:01Z</time>
      </trkpt>
      <trkpt lat="46.18761" lon="5.4384">
        <ele>305.8</ele>
        <time>2022-02-24T10:14:02Z</time>
      </trkpt>
      <trkpt lat="46.18753" lon="5.43833">
        <ele>305.6</ele>
        <time>2022-02-24T10:14:03Z</time>
      </trkpt>
      <trkpt lat="46.1875" lon="5.43831">
        <ele>305.6</ele>
        <time>2022-02-24T10:14:04Z</time>
      </trkpt>
      <trkpt lat="46.18743" lon="5.43824">
        <ele>305.6</ele>
        <time>2022-02-24T10:14:05Z</time>
      </trkpt>
      <trkpt lat="46.1874" lon="5.43822">
        <ele>305.2</ele>
        <time>2022-02-24T10:14:06Z</time>
      </trkpt>
      <trkpt lat="46.18735" lon="5.43818">
        <ele>305.2</ele>
        <time>2022-02-24T10:14:07Z</time>
      </trkpt>
      <trkpt lat="46.18727" lon="5.43812">
        <ele>305.2</ele>
        <time>2022-02-24T10:14:08Z</time>
      </trkpt>
      <trkpt lat="46.18725" lon="5.4381">
        <ele>305.2</ele>
        <time>2022-02-24T10:14:09Z</time>
      </trkpt>
      <trkpt lat="46.1872" lon="5.43806">
        <ele>305.2</ele>
        <time>2022-02-24T10:14:10Z</time>
      </trkpt>
      <trkpt lat="46.18712" lon="5.43799">
        <ele>305.2</ele>
        <time>2022-02-24T10:14:11Z</time>
      </trkpt>
      <trkpt lat="46.1871" lon="5.43797">
        <ele>305.2</ele>
        <time>2022-02-24T10:14:12Z</time>
      </trkpt>
      <trkpt lat="46.18705" lon="5.43793">
        <ele>305.2</ele>
        <time>2022-02-24T10:14:13Z</time>
      </trkpt>
      <trkpt lat="46.187" lon="5.43789">
        <ele>305.2</ele>
        <time>2022-02-24T10:14:14Z</time>
      </trkpt>
      <trkpt lat="46.18695" lon="5.43784">
        <ele>305.2</ele>
        <time>2022-02-24T10:14:15Z</time>
      </trkpt>
      <trkpt lat="46.1869" lon="5.4378">
        <ele>305.2</ele>
        <time>2022-02-24T10:14:16Z</time>
      </trkpt>
      <trkpt lat="46.18685" lon="5.43775">
        <ele>305.2</ele>
        <time>2022-02-24T10:14:17Z</time>
      </trkpt>
      <trkpt lat="46.1868" lon="5.43771">
        <ele>305.2</ele>
        <time>2022-02-24T10:14:18Z</time>
      </trkpt>
      <trkpt lat="46.18673" lon="5.43763">
        <ele>305.2</ele>
        <time>2022-02-24T10:14:19Z</time>
      </trkpt>
      <trkpt lat="46.1867" lon="5.43761">
        <ele>305.2</ele>
        <time>2022-02-24T10:14:20Z</time>
      </trkpt>
      <trkpt lat="46.18665" lon="5.43756">
        <ele>305.2</ele>
        <time>2022-02-24T10:14:21Z</time>
      </trkpt>
      <trkpt lat="46.1866" lon="5.43751">
        <ele>305</ele>
        <time>2022-02-24T10:14:22Z</time>
      </trkpt>
      <trkpt lat="46.18655" lon="5.43747">
        <ele>305</ele>
        <time>2022-02-24T10:14:23Z</time>
      </trkpt>
      <trkpt lat="46.1865" lon="5.43742">
        <ele>304.8</ele>
        <time>2022-02-24T10:14:24Z</time>
      </trkpt>
      <trkpt lat="46.18646" lon="5.43737">
        <ele>304.8</ele>
        <time>2022-02-24T10:14:25Z</time>
      </trkpt>
      <trkpt lat="46.18641" lon="5.43732">
        <ele>304.8</ele>
        <time>2022-02-24T10:14:26Z</time>
      </trkpt>
      <trkpt lat="46.18636" lon="5.43727">
        <ele>304.8</ele>
        <time>2022-02-24T10:14:27Z</time>
      </trkpt>
      <trkpt lat="46.18632" lon="5.43722">
        <ele>304.8</ele>
        <time>2022-02-24T10:14:28Z</time>
      </trkpt>
      <trkpt lat="46.18627" lon="5.43717">
        <ele>304.8</ele>
        <time>2022-02-24T10:14:29Z</time>
      </trkpt>
      <trkpt lat="46.18623" lon="5.43711">
        <ele>304.8</ele>
        <time>2022-02-24T10:14:30Z</time>
      </trkpt>
      <trkpt lat="46.18618" lon="5.43706">
        <ele>304.6</ele>
        <time>2022-02-24T10:14:31Z</time>
      </trkpt>
      <trkpt lat="46.18614" lon="5.43701">
        <ele>304.6</ele>
        <time>2022-02-24T10:14:32Z</time>
      </trkpt>
      <trkpt lat="46.18605" lon="5.4369">
        <ele>304.6</ele>
        <time>2022-02-24T10:14:34Z</time>
      </trkpt>
      <trkpt lat="46.18601" lon="5.43685">
        <ele>304.6</ele>
        <time>2022-02-24T10:14:35Z</time>
      </trkpt>
      <trkpt lat="46.18597" lon="5.43679">
        <ele>304.6</ele>
        <time>2022-02-24T10:14:36Z</time>
      </trkpt>
      <trkpt lat="46.18593" lon="5.43674">
        <ele>304.6</ele>
        <time>2022-02-24T10:14:37Z</time>
      </trkpt>
      <trkpt lat="46.18589" lon="5.43669">
        <ele>304.4</ele>
        <time>2022-02-24T10:14:38Z</time>
      </trkpt>
      <trkpt lat="46.18585" lon="5.43663">
        <ele>304.4</ele>
        <time>2022-02-24T10:14:39Z</time>
      </trkpt>
      <trkpt lat="46.18581" lon="5.43658">
        <ele>304.4</ele>
        <time>2022-02-24T10:14:40Z</time>
      </trkpt>
      <trkpt lat="46.18577" lon="5.43654">
        <ele>304.4</ele>
        <time>2022-02-24T10:14:41Z</time>
      </trkpt>
      <trkpt lat="46.18573" lon="5.43649">
        <ele>304.4</ele>
        <time>2022-02-24T10:14:42Z</time>
      </trkpt>
      <trkpt lat="46.1857" lon="5.43644">
        <ele>304.4</ele>
        <time>2022-02-24T10:14:43Z</time>
      </trkpt>
      <trkpt lat="46.18566" lon="5.43639">
        <ele>304.4</ele>
        <time>2022-02-24T10:14:44Z</time>
      </trkpt>
      <trkpt lat="46.18562" lon="5.43634">
        <ele>304.6</ele>
        <time>2022-02-24T10:14:45Z</time>
      </trkpt>
      <trkpt lat="46.18559" lon="5.4363">
        <ele>304.6</ele>
        <time>2022-02-24T10:14:46Z</time>
      </trkpt>
      <trkpt lat="46.18556" lon="5.43625">
        <ele>304.6</ele>
        <time>2022-02-24T10:14:47Z</time>
      </trkpt>
      <trkpt lat="46.18552" lon="5.4362">
        <ele>304.8</ele>
        <time>2022-02-24T10:14:48Z</time>
      </trkpt>
      <trkpt lat="46.18549" lon="5.43616">
        <ele>304.8</ele>
        <time>2022-02-24T10:14:49Z</time>
      </trkpt>
      <trkpt lat="46.18546" lon="5.43612">
        <ele>305</ele>
        <time>2022-02-24T10:14:50Z</time>
      </trkpt>
      <trkpt lat="46.18544" lon="5.43608">
        <ele>305</ele>
        <time>2022-02-24T10:14:51Z</time>
      </trkpt>
      <trkpt lat="46.18541" lon="5.43605">
        <ele>305</ele>
        <time>2022-02-24T10:14:52Z</time>
      </trkpt>
      <trkpt lat="46.18538" lon="5.43601">
        <ele>305.4</ele>
        <time>2022-02-24T10:14:53Z</time>
      </trkpt>
      <trkpt lat="46.18535" lon="5.43598">
        <ele>305.4</ele>
        <time>2022-02-24T10:14:54Z</time>
      </trkpt>
      <trkpt lat="46.18532" lon="5.43594">
        <ele>305.6</ele>
        <time>2022-02-24T10:14:55Z</time>
      </trkpt>
      <trkpt lat="46.18529" lon="5.43591">
        <ele>305.6</ele>
        <time>2022-02-24T10:14:56Z</time>
      </trkpt>
      <trkpt lat="46.18526" lon="5.43588">
        <ele>305.6</ele>
        <time>2022-02-24T10:14:57Z</time>
      </trkpt>
      <trkpt lat="46.18523" lon="5.43585">
        <ele>306</ele>
        <time>2022-02-24T10:14:58Z</time>
      </trkpt>
      <trkpt lat="46.1852" lon="5.43582">
        <ele>306</ele>
        <time>2022-02-24T10:14:59Z</time>
      </trkpt>
      <trkpt lat="46.18517" lon="5.43579">
        <ele>306</ele>
        <time>2022-02-24T10:15:00Z</time>
      </trkpt>
      <trkpt lat="46.18513" lon="5.43576">
        <ele>306</ele>
        <time>2022-02-24T10:15:01Z</time>
      </trkpt>
      <trkpt lat="46.1851" lon="5.43573">
        <ele>306</ele>
        <time>2022-02-24T10:15:02Z</time>
      </trkpt>
      <trkpt lat="46.18507" lon="5.4357">
        <ele>306</ele>
        <time>2022-02-24T10:15:03Z</time>
      </trkpt>
      <trkpt lat="46.18503" lon="5.43567">
        <ele>306.2</ele>
        <time>2022-02-24T10:15:04Z</time>
      </trkpt>
      <trkpt lat="46.185" lon="5.43564">
        <ele>306.2</ele>
        <time>2022-02-24T10:15:05Z</time>
      </trkpt>
      <trkpt lat="46.18497" lon="5.43562">
        <ele>306.2</ele>
        <time>2022-02-24T10:15:06Z</time>
      </trkpt>
      <trkpt lat="46.18493" lon="5.43559">
        <ele>306.4</ele>
        <time>2022-02-24T10:15:07Z</time>
      </trkpt>
      <trkpt lat="46.18489" lon="5.43556">
        <ele>306.4</ele>
        <time>2022-02-24T10:15:08Z</time>
      </trkpt>
      <trkpt lat="46.18486" lon="5.43553">
        <ele>306.4</ele>
        <time>2022-02-24T10:15:09Z</time>
      </trkpt>
      <trkpt lat="46.18482" lon="5.4355">
        <ele>306.8</ele>
        <time>2022-02-24T10:15:10Z</time>
      </trkpt>
      <trkpt lat="46.18478" lon="5.43548">
        <ele>306.8</ele>
        <time>2022-02-24T10:15:11Z</time>
      </trkpt>
      <trkpt lat="46.18475" lon="5.43545">
        <ele>306.8</ele>
        <time>2022-02-24T10:15:12Z</time>
      </trkpt>
      <trkpt lat="46.18471" lon="5.43543">
        <ele>307</ele>
        <time>2022-02-24T10:15:13Z</time>
      </trkpt>
      <trkpt lat="46.18467" lon="5.4354">
        <ele>307</ele>
        <time>2022-02-24T10:15:14Z</time>
      </trkpt>
      <trkpt lat="46.18463" lon="5.43537">
        <ele>307</ele>
        <time>2022-02-24T10:15:15Z</time>
      </trkpt>
      <trkpt lat="46.18459" lon="5.43535">
        <ele>307.2</ele>
        <time>2022-02-24T10:15:16Z</time>
      </trkpt>
      <trkpt lat="46.18455" lon="5.43532">
        <ele>307.2</ele>
        <time>2022-02-24T10:15:17Z</time>
      </trkpt>
      <trkpt lat="46.18451" lon="5.4353">
        <ele>307.2</ele>
        <time>2022-02-24T10:15:18Z</time>
      </trkpt>
      <trkpt lat="46.18448" lon="5.43527">
        <ele>307.2</ele>
        <time>2022-02-24T10:15:19Z</time>
      </trkpt>
      <trkpt lat="46.18444" lon="5.43525">
        <ele>307.2</ele>
        <time>2022-02-24T10:15:20Z</time>
      </trkpt>
      <trkpt lat="46.1844" lon="5.43522">
        <ele>307.2</ele>
        <time>2022-02-24T10:15:21Z</time>
      </trkpt>
      <trkpt lat="46.18436" lon="5.43519">
        <ele>307.4</ele>
        <time>2022-02-24T10:15:22Z</time>
      </trkpt>
      <trkpt lat="46.18431" lon="5.43515">
        <ele>307.4</ele>
        <time>2022-02-24T10:15:23Z</time>
      </trkpt>
      <trkpt lat="46.18429" lon="5.43513">
        <ele>307.4</ele>
        <time>2022-02-24T10:15:24Z</time>
      </trkpt>
      <trkpt lat="46.18425" lon="5.43511">
        <ele>307.6</ele>
        <time>2022-02-24T10:15:25Z</time>
      </trkpt>
      <trkpt lat="46.18421" lon="5.43508">
        <ele>307.6</ele>
        <time>2022-02-24T10:15:26Z</time>
      </trkpt>
      <trkpt lat="46.18418" lon="5.43505">
        <ele>307.6</ele>
        <time>2022-02-24T10:15:27Z</time>
      </trkpt>
      <trkpt lat="46.18414" lon="5.43502">
        <ele>307.6</ele>
        <time>2022-02-24T10:15:28Z</time>
      </trkpt>
      <trkpt lat="46.1841" lon="5.43499">
        <ele>307.6</ele>
        <time>2022-02-24T10:15:29Z</time>
      </trkpt>
      <trkpt lat="46.18406" lon="5.43497">
        <ele>308</ele>
        <time>2022-02-24T10:15:30Z</time>
      </trkpt>
      <trkpt lat="46.18402" lon="5.43494">
        <ele>308</ele>
        <time>2022-02-24T10:15:31Z</time>
      </trkpt>
      <trkpt lat="46.18398" lon="5.43491">
        <ele>308</ele>
        <time>2022-02-24T10:15:32Z</time>
      </trkpt>
      <trkpt lat="46.18394" lon="5.43488">
        <ele>308</ele>
        <time>2022-02-24T10:15:33Z</time>
      </trkpt>
      <trkpt lat="46.1839" lon="5.43485">
        <ele>308</ele>
        <time>2022-02-24T10:15:34Z</time>
      </trkpt>
      <trkpt lat="46.18386" lon="5.43483">
        <ele>308</ele>
        <time>2022-02-24T10:15:35Z</time>
      </trkpt>
      <trkpt lat="46.18382" lon="5.4348">
        <ele>308</ele>
        <time>2022-02-24T10:15:36Z</time>
      </trkpt>
      <trkpt lat="46.18379" lon="5.43478">
        <ele>308</ele>
        <time>2022-02-24T10:15:37Z</time>
      </trkpt>
      <trkpt lat="46.18375" lon="5.43475">
        <ele>308</ele>
        <time>2022-02-24T10:15:38Z</time>
      </trkpt>
      <trkpt lat="46.18371" lon="5.43473">
        <ele>308</ele>
        <time>2022-02-24T10:15:39Z</time>
      </trkpt>
      <trkpt lat="46.18367" lon="5.4347">
        <ele>308.4</ele>
        <time>2022-02-24T10:15:40Z</time>
      </trkpt>
      <trkpt lat="46.18364" lon="5.43468">
        <ele>308.4</ele>
        <time>2022-02-24T10:15:41Z</time>
      </trkpt>
      <trkpt lat="46.1836" lon="5.43466">
        <ele>308.4</ele>
        <time>2022-02-24T10:15:42Z</time>
      </trkpt>
      <trkpt lat="46.18356" lon="5.43463">
        <ele>308.4</ele>
        <time>2022-02-24T10:15:43Z</time>
      </trkpt>
      <trkpt lat="46.18353" lon="5.4346">
        <ele>308.4</ele>
        <time>2022-02-24T10:15:44Z</time>
      </trkpt>
      <trkpt lat="46.18349" lon="5.43458">
        <ele>308.4</ele>
        <time>2022-02-24T10:15:45Z</time>
      </trkpt>
      <trkpt lat="46.18345" lon="5.43456">
        <ele>308.4</ele>
        <time>2022-02-24T10:15:46Z</time>
      </trkpt>
      <trkpt lat="46.18342" lon="5.43453">
        <ele>308.6</ele>
        <time>2022-02-24T10:15:47Z</time>
      </trkpt>
      <trkpt lat="46.18338" lon="5.43451">
        <ele>308.6</ele>
        <time>2022-02-24T10:15:48Z</time>
      </trkpt>
      <trkpt lat="46.18335" lon="5.43448">
        <ele>308.6</ele>
        <time>2022-02-24T10:15:49Z</time>
      </trkpt>
      <trkpt lat="46.18331" lon="5.43446">
        <ele>309</ele>
        <time>2022-02-24T10:15:50Z</time>
      </trkpt>
      <trkpt lat="46.18328" lon="5.43443">
        <ele>309</ele>
        <time>2022-02-24T10:15:51Z</time>
      </trkpt>
      <trkpt lat="46.18324" lon="5.43441">
        <ele>309</ele>
        <time>2022-02-24T10:15:52Z</time>
      </trkpt>
      <trkpt lat="46.18321" lon="5.43439">
        <ele>309</ele>
        <time>2022-02-24T10:15:53Z</time>
      </trkpt>
      <trkpt lat="46.18317" lon="5.43437">
        <ele>309.2</ele>
        <time>2022-02-24T10:15:54Z</time>
      </trkpt>
      <trkpt lat="46.18314" lon="5.43434">
        <ele>309.6</ele>
        <time>2022-02-24T10:15:55Z</time>
      </trkpt>
      <trkpt lat="46.1831" lon="5.43432">
        <ele>309.8</ele>
        <time>2022-02-24T10:15:56Z</time>
      </trkpt>
      <trkpt lat="46.18307" lon="5.4343">
        <ele>309.8</ele>
        <time>2022-02-24T10:15:57Z</time>
      </trkpt>
      <trkpt lat="46.18303" lon="5.43428">
        <ele>310.2</ele>
        <time>2022-02-24T10:15:58Z</time>
      </trkpt>
      <trkpt lat="46.18298" lon="5.43425">
        <ele>310.2</ele>
        <time>2022-02-24T10:15:59Z</time>
      </trkpt>
      <trkpt lat="46.18296" lon="5.43424">
        <ele>310.2</ele>
        <time>2022-02-24T10:16:00Z</time>
      </trkpt>
      <trkpt lat="46.18293" lon="5.43422">
        <ele>310.2</ele>
        <time>2022-02-24T10:16:01Z</time>
      </trkpt>
      <trkpt lat="46.18289" lon="5.4342">
        <ele>310.2</ele>
        <time>2022-02-24T10:16:02Z</time>
      </trkpt>
      <trkpt lat="46.18286" lon="5.43418">
        <ele>310.2</ele>
        <time>2022-02-24T10:16:03Z</time>
      </trkpt>
      <trkpt lat="46.18282" lon="5.43416">
        <ele>310.2</ele>
        <time>2022-02-24T10:16:04Z</time>
      </trkpt>
      <trkpt lat="46.18279" lon="5.43413">
        <ele>310.2</ele>
        <time>2022-02-24T10:16:05Z</time>
      </trkpt>
      <trkpt lat="46.18275" lon="5.43411">
        <ele>310.2</ele>
        <time>2022-02-24T10:16:06Z</time>
      </trkpt>
      <trkpt lat="46.18272" lon="5.43409">
        <ele>310.2</ele>
        <time>2022-02-24T10:16:07Z</time>
      </trkpt>
      <trkpt lat="46.18269" lon="5.43407">
        <ele>310.2</ele>
        <time>2022-02-24T10:16:08Z</time>
      </trkpt>
      <trkpt lat="46.18266" lon="5.43405">
        <ele>310.2</ele>
        <time>2022-02-24T10:16:09Z</time>
      </trkpt>
      <trkpt lat="46.18263" lon="5.43404">
        <ele>310.4</ele>
        <time>2022-02-24T10:16:10Z</time>
      </trkpt>
      <trkpt lat="46.18261" lon="5.43402">
        <ele>310.4</ele>
        <time>2022-02-24T10:16:11Z</time>
      </trkpt>
      <trkpt lat="46.18259" lon="5.43401">
        <ele>310.4</ele>
        <time>2022-02-24T10:16:12Z</time>
      </trkpt>
      <trkpt lat="46.18259" lon="5.434">
        <ele>310.4</ele>
        <time>2022-02-24T10:16:13Z</time>
      </trkpt>
      <trkpt lat="46.18257" lon="5.43399">
        <ele>310.6</ele>
        <time>2022-02-24T10:17:32Z</time>
      </trkpt>
      <trkpt lat="46.18255" lon="5.43399">
        <ele>310.8</ele>
        <time>2022-02-24T10:17:33Z</time>
      </trkpt>
      <trkpt lat="46.18253" lon="5.43398">
        <ele>310.8</ele>
        <time>2022-02-24T10:17:34Z</time>
      </trkpt>
      <trkpt lat="46.18252" lon="5.43397">
        <ele>310.8</ele>
        <time>2022-02-24T10:17:35Z</time>
      </trkpt>
      <trkpt lat="46.1825" lon="5.43395">
        <ele>310.8</ele>
        <time>2022-02-24T10:17:36Z</time>
      </trkpt>
      <trkpt lat="46.18248" lon="5.43394">
        <ele>310.8</ele>
        <time>2022-02-24T10:17:37Z</time>
      </trkpt>
      <trkpt lat="46.18246" lon="5.43393">
        <ele>311</ele>
        <time>2022-02-24T10:17:38Z</time>
      </trkpt>
      <trkpt lat="46.18244" lon="5.43392">
        <ele>311</ele>
        <time>2022-02-24T10:17:39Z</time>
      </trkpt>
      <trkpt lat="46.18242" lon="5.4339">
        <ele>311</ele>
        <time>2022-02-24T10:17:40Z</time>
      </trkpt>
      <trkpt lat="46.1824" lon="5.43389">
        <ele>311</ele>
        <time>2022-02-24T10:17:41Z</time>
      </trkpt>
      <trkpt lat="46.18237" lon="5.43388">
        <ele>311</ele>
        <time>2022-02-24T10:17:42Z</time>
      </trkpt>
      <trkpt lat="46.18235" lon="5.43386">
        <ele>311.2</ele>
        <time>2022-02-24T10:17:43Z</time>
      </trkpt>
      <trkpt lat="46.18232" lon="5.43384">
        <ele>311.2</ele>
        <time>2022-02-24T10:17:44Z</time>
      </trkpt>
      <trkpt lat="46.1823" lon="5.43382">
        <ele>311.2</ele>
        <time>2022-02-24T10:17:45Z</time>
      </trkpt>
      <trkpt lat="46.18227" lon="5.4338">
        <ele>311.2</ele>
        <time>2022-02-24T10:17:46Z</time>
      </trkpt>
      <trkpt lat="46.18224" lon="5.43379">
        <ele>311.2</ele>
        <time>2022-02-24T10:17:47Z</time>
      </trkpt>
      <trkpt lat="46.18222" lon="5.43377">
        <ele>311.6</ele>
        <time>2022-02-24T10:17:48Z</time>
      </trkpt>
      <trkpt lat="46.18219" lon="5.43376">
        <ele>311.6</ele>
        <time>2022-02-24T10:17:49Z</time>
      </trkpt>
      <trkpt lat="46.18216" lon="5.43374">
        <ele>311.8</ele>
        <time>2022-02-24T10:17:50Z</time>
      </trkpt>
      <trkpt lat="46.18214" lon="5.43372">
        <ele>311.8</ele>
        <time>2022-02-24T10:17:51Z</time>
      </trkpt>
      <trkpt lat="46.18211" lon="5.4337">
        <ele>312.2</ele>
        <time>2022-02-24T10:17:52Z</time>
      </trkpt>
      <trkpt lat="46.18208" lon="5.43369">
        <ele>312.2</ele>
        <time>2022-02-24T10:17:53Z</time>
      </trkpt>
      <trkpt lat="46.18206" lon="5.43368">
        <ele>312.4</ele>
        <time>2022-02-24T10:17:54Z</time>
      </trkpt>
      <trkpt lat="46.18203" lon="5.43366">
        <ele>312.4</ele>
        <time>2022-02-24T10:17:55Z</time>
      </trkpt>
      <trkpt lat="46.18201" lon="5.43364">
        <ele>312.4</ele>
        <time>2022-02-24T10:17:56Z</time>
      </trkpt>
      <trkpt lat="46.18198" lon="5.43362">
        <ele>312.6</ele>
        <time>2022-02-24T10:17:57Z</time>
      </trkpt>
      <trkpt lat="46.18196" lon="5.4336">
        <ele>312.6</ele>
        <time>2022-02-24T10:17:58Z</time>
      </trkpt>
      <trkpt lat="46.18193" lon="5.43359">
        <ele>313</ele>
        <time>2022-02-24T10:17:59Z</time>
      </trkpt>
      <trkpt lat="46.1819" lon="5.43357">
        <ele>313.2</ele>
        <time>2022-02-24T10:18:00Z</time>
      </trkpt>
      <trkpt lat="46.18187" lon="5.43355">
        <ele>313.2</ele>
        <time>2022-02-24T10:18:01Z</time>
      </trkpt>
      <trkpt lat="46.18184" lon="5.43353">
        <ele>313.4</ele>
        <time>2022-02-24T10:18:02Z</time>
      </trkpt>
      <trkpt lat="46.18181" lon="5.43351">
        <ele>313.4</ele>
        <time>2022-02-24T10:18:03Z</time>
      </trkpt>
      <trkpt lat="46.18178" lon="5.43349">
        <ele>313.4</ele>
        <time>2022-02-24T10:18:04Z</time>
      </trkpt>
      <trkpt lat="46.18175" lon="5.43346">
        <ele>313.6</ele>
        <time>2022-02-24T10:18:05Z</time>
      </trkpt>
      <trkpt lat="46.18172" lon="5.43344">
        <ele>313.6</ele>
        <time>2022-02-24T10:18:06Z</time>
      </trkpt>
      <trkpt lat="46.18169" lon="5.43342">
        <ele>313.6</ele>
        <time>2022-02-24T10:18:07Z</time>
      </trkpt>
      <trkpt lat="46.18166" lon="5.4334">
        <ele>313.6</ele>
        <time>2022-02-24T10:18:08Z</time>
      </trkpt>
      <trkpt lat="46.18163" lon="5.43337">
        <ele>314</ele>
        <time>2022-02-24T10:18:09Z</time>
      </trkpt>
      <trkpt lat="46.1816" lon="5.43335">
        <ele>314.2</ele>
        <time>2022-02-24T10:18:10Z</time>
      </trkpt>
      <trkpt lat="46.18156" lon="5.43332">
        <ele>314.4</ele>
        <time>2022-02-24T10:18:11Z</time>
      </trkpt>
      <trkpt lat="46.18153" lon="5.4333">
        <ele>314.4</ele>
        <time>2022-02-24T10:18:12Z</time>
      </trkpt>
      <trkpt lat="46.1815" lon="5.43327">
        <ele>314.8</ele>
        <time>2022-02-24T10:18:13Z</time>
      </trkpt>
      <trkpt lat="46.18147" lon="5.43324">
        <ele>314.8</ele>
        <time>2022-02-24T10:18:14Z</time>
      </trkpt>
      <trkpt lat="46.18144" lon="5.43322">
        <ele>315</ele>
        <time>2022-02-24T10:18:15Z</time>
      </trkpt>
      <trkpt lat="46.1814" lon="5.4332">
        <ele>315</ele>
        <time>2022-02-24T10:18:16Z</time>
      </trkpt>
      <trkpt lat="46.18137" lon="5.43317">
        <ele>315</ele>
        <time>2022-02-24T10:18:17Z</time>
      </trkpt>
      <trkpt lat="46.18134" lon="5.43315">
        <ele>315</ele>
        <time>2022-02-24T10:18:18Z</time>
      </trkpt>
      <trkpt lat="46.18131" lon="5.43312">
        <ele>315.2</ele>
        <time>2022-02-24T10:18:19Z</time>
      </trkpt>
      <trkpt lat="46.18128" lon="5.4331">
        <ele>315.2</ele>
        <time>2022-02-24T10:18:20Z</time>
      </trkpt>
      <trkpt lat="46.18125" lon="5.43307">
        <ele>315.6</ele>
        <time>2022-02-24T10:18:21Z</time>
      </trkpt>
      <trkpt lat="46.18121" lon="5.43305">
        <ele>315.6</ele>
        <time>2022-02-24T10:18:22Z</time>
      </trkpt>
      <trkpt lat="46.18118" lon="5.43303">
        <ele>315.8</ele>
        <time>2022-02-24T10:18:23Z</time>
      </trkpt>
      <trkpt lat="46.18115" lon="5.43301">
        <ele>315.8</ele>
        <time>2022-02-24T10:18:24Z</time>
      </trkpt>
      <trkpt lat="46.18112" lon="5.43298">
        <ele>316.2</ele>
        <time>2022-02-24T10:18:25Z</time>
      </trkpt>
      <trkpt lat="46.18109" lon="5.43296">
        <ele>316.2</ele>
        <time>2022-02-24T10:18:26Z</time>
      </trkpt>
      <trkpt lat="46.18106" lon="5.43293">
        <ele>316.2</ele>
        <time>2022-02-24T10:18:27Z</time>
      </trkpt>
      <trkpt lat="46.18103" lon="5.43291">
        <ele>316.4</ele>
        <time>2022-02-24T10:18:28Z</time>
      </trkpt>
      <trkpt lat="46.181" lon="5.43289">
        <ele>316.4</ele>
        <time>2022-02-24T10:18:29Z</time>
      </trkpt>
      <trkpt lat="46.18097" lon="5.43287">
        <ele>316.6</ele>
        <time>2022-02-24T10:18:30Z</time>
      </trkpt>
      <trkpt lat="46.18094" lon="5.43285">
        <ele>316.6</ele>
        <time>2022-02-24T10:18:31Z</time>
      </trkpt>
      <trkpt lat="46.18091" lon="5.43282">
        <ele>316.6</ele>
        <time>2022-02-24T10:18:32Z</time>
      </trkpt>
      <trkpt lat="46.18088" lon="5.4328">
        <ele>317</ele>
        <time>2022-02-24T10:18:33Z</time>
      </trkpt>
      <trkpt lat="46.18085" lon="5.43278">
        <ele>317</ele>
        <time>2022-02-24T10:18:34Z</time>
      </trkpt>
      <trkpt lat="46.18082" lon="5.43275">
        <ele>317</ele>
        <time>2022-02-24T10:18:35Z</time>
      </trkpt>
      <trkpt lat="46.18079" lon="5.43273">
        <ele>317</ele>
        <time>2022-02-24T10:18:36Z</time>
      </trkpt>
      <trkpt lat="46.18076" lon="5.4327">
        <ele>317</ele>
        <time>2022-02-24T10:18:37Z</time>
      </trkpt>
      <trkpt lat="46.18073" lon="5.43268">
        <ele>317</ele>
        <time>2022-02-24T10:18:38Z</time>
      </trkpt>
      <trkpt lat="46.1807" lon="5.43266">
        <ele>317.2</ele>
        <time>2022-02-24T10:18:39Z</time>
      </trkpt>
      <trkpt lat="46.18067" lon="5.43264">
        <ele>317.4</ele>
        <time>2022-02-24T10:18:40Z</time>
      </trkpt>
      <trkpt lat="46.18064" lon="5.43262">
        <ele>317.4</ele>
        <time>2022-02-24T10:18:41Z</time>
      </trkpt>
      <trkpt lat="46.18061" lon="5.43259">
        <ele>317.6</ele>
        <time>2022-02-24T10:18:42Z</time>
      </trkpt>
      <trkpt lat="46.18059" lon="5.43257">
        <ele>317.6</ele>
        <time>2022-02-24T10:18:43Z</time>
      </trkpt>
      <trkpt lat="46.18056" lon="5.43255">
        <ele>317.8</ele>
        <time>2022-02-24T10:18:44Z</time>
      </trkpt>
      <trkpt lat="46.18053" lon="5.43253">
        <ele>317.8</ele>
        <time>2022-02-24T10:18:45Z</time>
      </trkpt>
      <trkpt lat="46.18051" lon="5.4325">
        <ele>317.8</ele>
        <time>2022-02-24T10:18:46Z</time>
      </trkpt>
      <trkpt lat="46.18048" lon="5.43248">
        <ele>318</ele>
        <time>2022-02-24T10:18:47Z</time>
      </trkpt>
      <trkpt lat="46.18045" lon="5.43246">
        <ele>318</ele>
        <time>2022-02-24T10:18:48Z</time>
      </trkpt>
      <trkpt lat="46.18043" lon="5.43243">
        <ele>318.2</ele>
        <time>2022-02-24T10:18:49Z</time>
      </trkpt>
      <trkpt lat="46.1804" lon="5.43241">
        <ele>318.6</ele>
        <time>2022-02-24T10:18:50Z</time>
      </trkpt>
      <trkpt lat="46.18038" lon="5.43238">
        <ele>318.6</ele>
        <time>2022-02-24T10:18:51Z</time>
      </trkpt>
      <trkpt lat="46.18035" lon="5.43236">
        <ele>318.6</ele>
        <time>2022-02-24T10:18:52Z</time>
      </trkpt>
      <trkpt lat="46.18033" lon="5.43233">
        <ele>318.6</ele>
        <time>2022-02-24T10:18:53Z</time>
      </trkpt>
      <trkpt lat="46.1803" lon="5.4323">
        <ele>318.8</ele>
        <time>2022-02-24T10:18:54Z</time>
      </trkpt>
      <trkpt lat="46.18027" lon="5.43227">
        <ele>318.8</ele>
        <time>2022-02-24T10:18:55Z</time>
      </trkpt>
      <trkpt lat="46.18024" lon="5.43224">
        <ele>318.8</ele>
        <time>2022-02-24T10:18:56Z</time>
      </trkpt>
      <trkpt lat="46.18022" lon="5.4322">
        <ele>318.8</ele>
        <time>2022-02-24T10:18:57Z</time>
      </trkpt>
      <trkpt lat="46.18019" lon="5.43217">
        <ele>319</ele>
        <time>2022-02-24T10:18:58Z</time>
      </trkpt>
      <trkpt lat="46.18016" lon="5.43213">
        <ele>319</ele>
        <time>2022-02-24T10:18:59Z</time>
      </trkpt>
      <trkpt lat="46.18013" lon="5.43209">
        <ele>319</ele>
        <time>2022-02-24T10:19:00Z</time>
      </trkpt>
      <trkpt lat="46.18011" lon="5.43206">
        <ele>319</ele>
        <time>2022-02-24T10:19:01Z</time>
      </trkpt>
      <trkpt lat="46.18008" lon="5.43202">
        <ele>319</ele>
        <time>2022-02-24T10:19:02Z</time>
      </trkpt>
      <trkpt lat="46.18005" lon="5.43198">
        <ele>319</ele>
        <time>2022-02-24T10:19:03Z</time>
      </trkpt>
      <trkpt lat="46.18002" lon="5.43195">
        <ele>319</ele>
        <time>2022-02-24T10:19:04Z</time>
      </trkpt>
      <trkpt lat="46.17999" lon="5.43191">
        <ele>319</ele>
        <time>2022-02-24T10:19:05Z</time>
      </trkpt>
      <trkpt lat="46.17996" lon="5.43187">
        <ele>319</ele>
        <time>2022-02-24T10:19:06Z</time>
      </trkpt>
      <trkpt lat="46.17993" lon="5.43184">
        <ele>319.2</ele>
        <time>2022-02-24T10:19:07Z</time>
      </trkpt>
      <trkpt lat="46.1799" lon="5.4318">
        <ele>319.2</ele>
        <time>2022-02-24T10:19:08Z</time>
      </trkpt>
      <trkpt lat="46.17988" lon="5.43176">
        <ele>319.6</ele>
        <time>2022-02-24T10:19:09Z</time>
      </trkpt>
      <trkpt lat="46.17985" lon="5.43172">
        <ele>319.6</ele>
        <time>2022-02-24T10:19:10Z</time>
      </trkpt>
      <trkpt lat="46.17982" lon="5.43168">
        <ele>319.6</ele>
        <time>2022-02-24T10:19:11Z</time>
      </trkpt>
      <trkpt lat="46.17978" lon="5.43164">
        <ele>319.6</ele>
        <time>2022-02-24T10:19:12Z</time>
      </trkpt>
      <trkpt lat="46.17975" lon="5.4316">
        <ele>319.8</ele>
        <time>2022-02-24T10:19:13Z</time>
      </trkpt>
      <trkpt lat="46.17972" lon="5.43155">
        <ele>319.8</ele>
        <time>2022-02-24T10:19:14Z</time>
      </trkpt>
      <trkpt lat="46.17969" lon="5.43151">
        <ele>319.8</ele>
        <time>2022-02-24T10:19:15Z</time>
      </trkpt>
      <trkpt lat="46.17966" lon="5.43147">
        <ele>319.8</ele>
        <time>2022-02-24T10:19:16Z</time>
      </trkpt>
      <trkpt lat="46.17961" lon="5.43142">
        <ele>320</ele>
        <time>2022-02-24T10:19:17Z</time>
      </trkpt>
      <trkpt lat="46.1796" lon="5.4314">
        <ele>320</ele>
        <time>2022-02-24T10:19:18Z</time>
      </trkpt>
      <trkpt lat="46.17956" lon="5.43137">
        <ele>320</ele>
        <time>2022-02-24T10:19:19Z</time>
      </trkpt>
      <trkpt lat="46.17953" lon="5.43134">
        <ele>320</ele>
        <time>2022-02-24T10:19:20Z</time>
      </trkpt>
      <trkpt lat="46.1795" lon="5.43131">
        <ele>320</ele>
        <time>2022-02-24T10:19:21Z</time>
      </trkpt>
      <trkpt lat="46.17947" lon="5.43128">
        <ele>320</ele>
        <time>2022-02-24T10:19:22Z</time>
      </trkpt>
      <trkpt lat="46.17944" lon="5.43126">
        <ele>320</ele>
        <time>2022-02-24T10:19:23Z</time>
      </trkpt>
      <trkpt lat="46.17941" lon="5.43123">
        <ele>320.2</ele>
        <time>2022-02-24T10:19:24Z</time>
      </trkpt>
      <trkpt lat="46.17937" lon="5.43121">
        <ele>320.2</ele>
        <time>2022-02-24T10:19:25Z</time>
      </trkpt>
      <trkpt lat="46.17934" lon="5.43118">
        <ele>320.2</ele>
        <time>2022-02-24T10:19:26Z</time>
      </trkpt>
      <trkpt lat="46.1793" lon="5.43115">
        <ele>320.6</ele>
        <time>2022-02-24T10:19:27Z</time>
      </trkpt>
      <trkpt lat="46.17927" lon="5.43113">
        <ele>321</ele>
        <time>2022-02-24T10:19:28Z</time>
      </trkpt>
      <trkpt lat="46.17924" lon="5.43111">
        <ele>321</ele>
        <time>2022-02-24T10:19:29Z</time>
      </trkpt>
      <trkpt lat="46.1792" lon="5.43109">
        <ele>321.2</ele>
        <time>2022-02-24T10:19:30Z</time>
      </trkpt>
      <trkpt lat="46.17917" lon="5.43107">
        <ele>321.4</ele>
        <time>2022-02-24T10:19:31Z</time>
      </trkpt>
      <trkpt lat="46.17914" lon="5.43105">
        <ele>321.8</ele>
        <time>2022-02-24T10:19:32Z</time>
      </trkpt>
      <trkpt lat="46.17911" lon="5.43104">
        <ele>322</ele>
        <time>2022-02-24T10:19:33Z</time>
      </trkpt>
      <trkpt lat="46.17908" lon="5.43102">
        <ele>322.4</ele>
        <time>2022-02-24T10:19:34Z</time>
      </trkpt>
      <trkpt lat="46.17905" lon="5.43101">
        <ele>322.6</ele>
        <time>2022-02-24T10:19:35Z</time>
      </trkpt>
      <trkpt lat="46.17902" lon="5.431">
        <ele>322.6</ele>
        <time>2022-02-24T10:19:36Z</time>
      </trkpt>
      <trkpt lat="46.179" lon="5.43099">
        <ele>323</ele>
        <time>2022-02-24T10:19:37Z</time>
      </trkpt>
      <trkpt lat="46.17897" lon="5.43098">
        <ele>323</ele>
        <time>2022-02-24T10:19:38Z</time>
      </trkpt>
      <trkpt lat="46.17894" lon="5.43096">
        <ele>323.2</ele>
        <time>2022-02-24T10:19:39Z</time>
      </trkpt>
      <trkpt lat="46.17891" lon="5.43095">
        <ele>323.6</ele>
        <time>2022-02-24T10:19:40Z</time>
      </trkpt>
      <trkpt lat="46.17889" lon="5.43093">
        <ele>323.6</ele>
        <time>2022-02-24T10:19:41Z</time>
      </trkpt>
      <trkpt lat="46.17886" lon="5.43091">
        <ele>323.8</ele>
        <time>2022-02-24T10:19:42Z</time>
      </trkpt>
      <trkpt lat="46.17883" lon="5.43089">
        <ele>323.8</ele>
        <time>2022-02-24T10:19:43Z</time>
      </trkpt>
      <trkpt lat="46.17881" lon="5.43087">
        <ele>324.2</ele>
        <time>2022-02-24T10:19:44Z</time>
      </trkpt>
      <trkpt lat="46.17878" lon="5.43086">
        <ele>324.2</ele>
        <time>2022-02-24T10:19:45Z</time>
      </trkpt>
      <trkpt lat="46.17875" lon="5.43084">
        <ele>324.2</ele>
        <time>2022-02-24T10:19:46Z</time>
      </trkpt>
      <trkpt lat="46.17872" lon="5.43082">
        <ele>324.4</ele>
        <time>2022-02-24T10:19:47Z</time>
      </trkpt>
      <trkpt lat="46.17869" lon="5.43081">
        <ele>324.4</ele>
        <time>2022-02-24T10:19:48Z</time>
      </trkpt>
      <trkpt lat="46.17866" lon="5.43079">
        <ele>324.4</ele>
        <time>2022-02-24T10:19:49Z</time>
      </trkpt>
      <trkpt lat="46.17863" lon="5.43077">
        <ele>324.6</ele>
        <time>2022-02-24T10:19:50Z</time>
      </trkpt>
      <trkpt lat="46.1786" lon="5.43076">
        <ele>324.6</ele>
        <time>2022-02-24T10:19:51Z</time>
      </trkpt>
      <trkpt lat="46.17857" lon="5.43075">
        <ele>324.6</ele>
        <time>2022-02-24T10:19:52Z</time>
      </trkpt>
      <trkpt lat="46.17854" lon="5.43073">
        <ele>324.8</ele>
        <time>2022-02-24T10:19:53Z</time>
      </trkpt>
      <trkpt lat="46.1785" lon="5.43071">
        <ele>324.8</ele>
        <time>2022-02-24T10:19:54Z</time>
      </trkpt>
      <trkpt lat="46.17847" lon="5.4307">
        <ele>324.8</ele>
        <time>2022-02-24T10:19:55Z</time>
      </trkpt>
      <trkpt lat="46.17844" lon="5.43068">
        <ele>324.8</ele>
        <time>2022-02-24T10:19:56Z</time>
      </trkpt>
      <trkpt lat="46.17841" lon="5.43066">
        <ele>324.8</ele>
        <time>2022-02-24T10:19:57Z</time>
      </trkpt>
      <trkpt lat="46.17838" lon="5.43064">
        <ele>324.8</ele>
        <time>2022-02-24T10:19:58Z</time>
      </trkpt>
      <trkpt lat="46.17835" lon="5.43063">
        <ele>324.8</ele>
        <time>2022-02-24T10:19:59Z</time>
      </trkpt>
      <trkpt lat="46.17831" lon="5.43061">
        <ele>324.8</ele>
        <time>2022-02-24T10:20:00Z</time>
      </trkpt>
      <trkpt lat="46.17828" lon="5.43059">
        <ele>324.8</ele>
        <time>2022-02-24T10:20:01Z</time>
      </trkpt>
      <trkpt lat="46.17825" lon="5.43057">
        <ele>325</ele>
        <time>2022-02-24T10:20:02Z</time>
      </trkpt>
      <trkpt lat="46.17822" lon="5.43055">
        <ele>325</ele>
        <time>2022-02-24T10:20:03Z</time>
      </trkpt>
      <trkpt lat="46.17819" lon="5.43054">
        <ele>325</ele>
        <time>2022-02-24T10:20:04Z</time>
      </trkpt>
      <trkpt lat="46.17816" lon="5.43052">
        <ele>325</ele>
        <time>2022-02-24T10:20:05Z</time>
      </trkpt>
      <trkpt lat="46.17813" lon="5.4305">
        <ele>325.4</ele>
        <time>2022-02-24T10:20:06Z</time>
      </trkpt>
      <trkpt lat="46.1781" lon="5.43048">
        <ele>325.4</ele>
        <time>2022-02-24T10:20:07Z</time>
      </trkpt>
      <trkpt lat="46.17806" lon="5.43047">
        <ele>325.6</ele>
        <time>2022-02-24T10:20:08Z</time>
      </trkpt>
      <trkpt lat="46.17803" lon="5.43045">
        <ele>325.6</ele>
        <time>2022-02-24T10:20:09Z</time>
      </trkpt>
      <trkpt lat="46.178" lon="5.43042">
        <ele>325.6</ele>
        <time>2022-02-24T10:20:10Z</time>
      </trkpt>
      <trkpt lat="46.17797" lon="5.4304">
        <ele>325.8</ele>
        <time>2022-02-24T10:20:11Z</time>
      </trkpt>
      <trkpt lat="46.17793" lon="5.43038">
        <ele>325.8</ele>
        <time>2022-02-24T10:20:12Z</time>
      </trkpt>
      <trkpt lat="46.1779" lon="5.43036">
        <ele>325.8</ele>
        <time>2022-02-24T10:20:13Z</time>
      </trkpt>
      <trkpt lat="46.17786" lon="5.43034">
        <ele>325.8</ele>
        <time>2022-02-24T10:20:14Z</time>
      </trkpt>
      <trkpt lat="46.17783" lon="5.43032">
        <ele>326</ele>
        <time>2022-02-24T10:20:15Z</time>
      </trkpt>
      <trkpt lat="46.17779" lon="5.4303">
        <ele>326</ele>
        <time>2022-02-24T10:20:16Z</time>
      </trkpt>
      <trkpt lat="46.17776" lon="5.43028">
        <ele>326</ele>
        <time>2022-02-24T10:20:17Z</time>
      </trkpt>
      <trkpt lat="46.17772" lon="5.43025">
        <ele>326</ele>
        <time>2022-02-24T10:20:18Z</time>
      </trkpt>
      <trkpt lat="46.17768" lon="5.43023">
        <ele>326</ele>
        <time>2022-02-24T10:20:19Z</time>
      </trkpt>
      <trkpt lat="46.17765" lon="5.43021">
        <ele>326.2</ele>
        <time>2022-02-24T10:20:20Z</time>
      </trkpt>
      <trkpt lat="46.17761" lon="5.43018">
        <ele>326.2</ele>
        <time>2022-02-24T10:20:21Z</time>
      </trkpt>
      <trkpt lat="46.17758" lon="5.43016">
        <ele>326.2</ele>
        <time>2022-02-24T10:20:22Z</time>
      </trkpt>
      <trkpt lat="46.17754" lon="5.43014">
        <ele>326.2</ele>
        <time>2022-02-24T10:20:23Z</time>
      </trkpt>
      <trkpt lat="46.1775" lon="5.43011">
        <ele>326.4</ele>
        <time>2022-02-24T10:20:24Z</time>
      </trkpt>
      <trkpt lat="46.17747" lon="5.43008">
        <ele>326.4</ele>
        <time>2022-02-24T10:20:25Z</time>
      </trkpt>
      <trkpt lat="46.17743" lon="5.43006">
        <ele>326.4</ele>
        <time>2022-02-24T10:20:26Z</time>
      </trkpt>
      <trkpt lat="46.17739" lon="5.43003">
        <ele>326.4</ele>
        <time>2022-02-24T10:20:27Z</time>
      </trkpt>
      <trkpt lat="46.17735" lon="5.43">
        <ele>326.4</ele>
        <time>2022-02-24T10:20:28Z</time>
      </trkpt>
      <trkpt lat="46.17731" lon="5.42998">
        <ele>326.8</ele>
        <time>2022-02-24T10:20:29Z</time>
      </trkpt>
      <trkpt lat="46.17725" lon="5.42994">
        <ele>326.8</ele>
        <time>2022-02-24T10:20:30Z</time>
      </trkpt>
      <trkpt lat="46.17724" lon="5.42993">
        <ele>326.8</ele>
        <time>2022-02-24T10:20:31Z</time>
      </trkpt>
      <trkpt lat="46.1772" lon="5.4299">
        <ele>326.8</ele>
        <time>2022-02-24T10:20:32Z</time>
      </trkpt>
      <trkpt lat="46.17716" lon="5.42988">
        <ele>327</ele>
        <time>2022-02-24T10:20:33Z</time>
      </trkpt>
      <trkpt lat="46.17712" lon="5.42986">
        <ele>327</ele>
        <time>2022-02-24T10:20:34Z</time>
      </trkpt>
      <trkpt lat="46.17708" lon="5.42983">
        <ele>327</ele>
        <time>2022-02-24T10:20:35Z</time>
      </trkpt>
      <trkpt lat="46.17704" lon="5.42981">
        <ele>327</ele>
        <time>2022-02-24T10:20:36Z</time>
      </trkpt>
      <trkpt lat="46.177" lon="5.42979">
        <ele>327</ele>
        <time>2022-02-24T10:20:37Z</time>
      </trkpt>
      <trkpt lat="46.17694" lon="5.42975">
        <ele>327</ele>
        <time>2022-02-24T10:20:38Z</time>
      </trkpt>
      <trkpt lat="46.17692" lon="5.42974">
        <ele>327.2</ele>
        <time>2022-02-24T10:20:39Z</time>
      </trkpt>
      <trkpt lat="46.17688" lon="5.42972">
        <ele>327.2</ele>
        <time>2022-02-24T10:20:40Z</time>
      </trkpt>
      <trkpt lat="46.17685" lon="5.4297">
        <ele>327.2</ele>
        <time>2022-02-24T10:20:41Z</time>
      </trkpt>
      <trkpt lat="46.17681" lon="5.42968">
        <ele>327.2</ele>
        <time>2022-02-24T10:20:42Z</time>
      </trkpt>
      <trkpt lat="46.17675" lon="5.42965">
        <ele>327.2</ele>
        <time>2022-02-24T10:20:43Z</time>
      </trkpt>
      <trkpt lat="46.17673" lon="5.42964">
        <ele>327.2</ele>
        <time>2022-02-24T10:20:44Z</time>
      </trkpt>
      <trkpt lat="46.1767" lon="5.42961">
        <ele>327.2</ele>
        <time>2022-02-24T10:20:45Z</time>
      </trkpt>
      <trkpt lat="46.17666" lon="5.42959">
        <ele>327.2</ele>
        <time>2022-02-24T10:20:46Z</time>
      </trkpt>
      <trkpt lat="46.17663" lon="5.42957">
        <ele>327.2</ele>
        <time>2022-02-24T10:20:47Z</time>
      </trkpt>
      <trkpt lat="46.17659" lon="5.42955">
        <ele>327.2</ele>
        <time>2022-02-24T10:20:48Z</time>
      </trkpt>
      <trkpt lat="46.17655" lon="5.42953">
        <ele>327.6</ele>
        <time>2022-02-24T10:20:49Z</time>
      </trkpt>
      <trkpt lat="46.17652" lon="5.4295">
        <ele>327.6</ele>
        <time>2022-02-24T10:20:50Z</time>
      </trkpt>
      <trkpt lat="46.17648" lon="5.42948">
        <ele>327.6</ele>
        <time>2022-02-24T10:20:51Z</time>
      </trkpt>
      <trkpt lat="46.17645" lon="5.42945">
        <ele>327.8</ele>
        <time>2022-02-24T10:20:52Z</time>
      </trkpt>
      <trkpt lat="46.17641" lon="5.42943">
        <ele>327.8</ele>
        <time>2022-02-24T10:20:53Z</time>
      </trkpt>
      <trkpt lat="46.17637" lon="5.4294">
        <ele>328</ele>
        <time>2022-02-24T10:20:54Z</time>
      </trkpt>
      <trkpt lat="46.17634" lon="5.42937">
        <ele>328</ele>
        <time>2022-02-24T10:20:55Z</time>
      </trkpt>
      <trkpt lat="46.1763" lon="5.42935">
        <ele>328</ele>
        <time>2022-02-24T10:20:56Z</time>
      </trkpt>
      <trkpt lat="46.17626" lon="5.42932">
        <ele>328</ele>
        <time>2022-02-24T10:20:57Z</time>
      </trkpt>
      <trkpt lat="46.17623" lon="5.42929">
        <ele>328.2</ele>
        <time>2022-02-24T10:20:58Z</time>
      </trkpt>
      <trkpt lat="46.17619" lon="5.42926">
        <ele>328.2</ele>
        <time>2022-02-24T10:20:59Z</time>
      </trkpt>
      <trkpt lat="46.17616" lon="5.42923">
        <ele>328.2</ele>
        <time>2022-02-24T10:21:00Z</time>
      </trkpt>
      <trkpt lat="46.17612" lon="5.42919">
        <ele>328.2</ele>
        <time>2022-02-24T10:21:01Z</time>
      </trkpt>
      <trkpt lat="46.17609" lon="5.42916">
        <ele>328.2</ele>
        <time>2022-02-24T10:21:02Z</time>
      </trkpt>
      <trkpt lat="46.17605" lon="5.42913">
        <ele>328.2</ele>
        <time>2022-02-24T10:21:03Z</time>
      </trkpt>
      <trkpt lat="46.17602" lon="5.4291">
        <ele>328.2</ele>
        <time>2022-02-24T10:21:04Z</time>
      </trkpt>
      <trkpt lat="46.17598" lon="5.42906">
        <ele>328.2</ele>
        <time>2022-02-24T10:21:05Z</time>
      </trkpt>
      <trkpt lat="46.17593" lon="5.42901">
        <ele>328.6</ele>
        <time>2022-02-24T10:21:06Z</time>
      </trkpt>
      <trkpt lat="46.17591" lon="5.42899">
        <ele>328.6</ele>
        <time>2022-02-24T10:21:07Z</time>
      </trkpt>
      <trkpt lat="46.17587" lon="5.42895">
        <ele>328.6</ele>
        <time>2022-02-24T10:21:08Z</time>
      </trkpt>
      <trkpt lat="46.17584" lon="5.42891">
        <ele>328.6</ele>
        <time>2022-02-24T10:21:09Z</time>
      </trkpt>
      <trkpt lat="46.1758" lon="5.42888">
        <ele>328.2</ele>
        <time>2022-02-24T10:21:10Z</time>
      </trkpt>
      <trkpt lat="46.17576" lon="5.42884">
        <ele>328.2</ele>
        <time>2022-02-24T10:21:11Z</time>
      </trkpt>
      <trkpt lat="46.17573" lon="5.4288">
        <ele>328</ele>
        <time>2022-02-24T10:21:12Z</time>
      </trkpt>
      <trkpt lat="46.17569" lon="5.42875">
        <ele>328</ele>
        <time>2022-02-24T10:21:13Z</time>
      </trkpt>
      <trkpt lat="46.17565" lon="5.42871">
        <ele>327.6</ele>
        <time>2022-02-24T10:21:14Z</time>
      </trkpt>
      <trkpt lat="46.17561" lon="5.42867">
        <ele>327.6</ele>
        <time>2022-02-24T10:21:15Z</time>
      </trkpt>
      <trkpt lat="46.17557" lon="5.42862">
        <ele>327.4</ele>
        <time>2022-02-24T10:21:16Z</time>
      </trkpt>
      <trkpt lat="46.17552" lon="5.42857">
        <ele>327.4</ele>
        <time>2022-02-24T10:21:17Z</time>
      </trkpt>
      <trkpt lat="46.17548" lon="5.42852">
        <ele>327</ele>
        <time>2022-02-24T10:21:18Z</time>
      </trkpt>
      <trkpt lat="46.17543" lon="5.42847">
        <ele>327</ele>
        <time>2022-02-24T10:21:19Z</time>
      </trkpt>
      <trkpt lat="46.17538" lon="5.42842">
        <ele>326.8</ele>
        <time>2022-02-24T10:21:20Z</time>
      </trkpt>
      <trkpt lat="46.17533" lon="5.42837">
        <ele>326.8</ele>
        <time>2022-02-24T10:21:21Z</time>
      </trkpt>
      <trkpt lat="46.17528" lon="5.42832">
        <ele>326.6</ele>
        <time>2022-02-24T10:21:22Z</time>
      </trkpt>
      <trkpt lat="46.17523" lon="5.42827">
        <ele>326.6</ele>
        <time>2022-02-24T10:21:23Z</time>
      </trkpt>
      <trkpt lat="46.17517" lon="5.42822">
        <ele>326.2</ele>
        <time>2022-02-24T10:21:24Z</time>
      </trkpt>
      <trkpt lat="46.17512" lon="5.42817">
        <ele>326.2</ele>
        <time>2022-02-24T10:21:25Z</time>
      </trkpt>
      <trkpt lat="46.17506" lon="5.42812">
        <ele>326</ele>
        <time>2022-02-24T10:21:26Z</time>
      </trkpt>
      <trkpt lat="46.175" lon="5.42807">
        <ele>326</ele>
        <time>2022-02-24T10:21:27Z</time>
      </trkpt>
      <trkpt lat="46.17495" lon="5.42801">
        <ele>325.6</ele>
        <time>2022-02-24T10:21:28Z</time>
      </trkpt>
      <trkpt lat="46.17489" lon="5.42796">
        <ele>325.6</ele>
        <time>2022-02-24T10:21:29Z</time>
      </trkpt>
      <trkpt lat="46.17484" lon="5.42791">
        <ele>325.4</ele>
        <time>2022-02-24T10:21:30Z</time>
      </trkpt>
      <trkpt lat="46.17479" lon="5.42786">
        <ele>325.4</ele>
        <time>2022-02-24T10:21:31Z</time>
      </trkpt>
      <trkpt lat="46.17473" lon="5.42782">
        <ele>325.4</ele>
        <time>2022-02-24T10:21:32Z</time>
      </trkpt>
      <trkpt lat="46.17468" lon="5.42777">
        <ele>325.4</ele>
        <time>2022-02-24T10:21:33Z</time>
      </trkpt>
      <trkpt lat="46.17463" lon="5.42773">
        <ele>325.4</ele>
        <time>2022-02-24T10:21:34Z</time>
      </trkpt>
      <trkpt lat="46.17458" lon="5.42768">
        <ele>325.4</ele>
        <time>2022-02-24T10:21:35Z</time>
      </trkpt>
      <trkpt lat="46.17452" lon="5.42764">
        <ele>325.4</ele>
        <time>2022-02-24T10:21:36Z</time>
      </trkpt>
      <trkpt lat="46.17447" lon="5.42759">
        <ele>325.4</ele>
        <time>2022-02-24T10:21:37Z</time>
      </trkpt>
      <trkpt lat="46.17442" lon="5.42755">
        <ele>325.4</ele>
        <time>2022-02-24T10:21:38Z</time>
      </trkpt>
      <trkpt lat="46.17437" lon="5.4275">
        <ele>325.2</ele>
        <time>2022-02-24T10:21:39Z</time>
      </trkpt>
      <trkpt lat="46.17432" lon="5.42746">
        <ele>325.2</ele>
        <time>2022-02-24T10:21:40Z</time>
      </trkpt>
      <trkpt lat="46.17427" lon="5.42742">
        <ele>325.2</ele>
        <time>2022-02-24T10:21:41Z</time>
      </trkpt>
      <trkpt lat="46.17422" lon="5.42738">
        <ele>325.2</ele>
        <time>2022-02-24T10:21:42Z</time>
      </trkpt>
      <trkpt lat="46.17417" lon="5.42734">
        <ele>325.2</ele>
        <time>2022-02-24T10:21:43Z</time>
      </trkpt>
      <trkpt lat="46.17412" lon="5.4273">
        <ele>325.2</ele>
        <time>2022-02-24T10:21:44Z</time>
      </trkpt>
      <trkpt lat="46.17407" lon="5.42726">
        <ele>325.2</ele>
        <time>2022-02-24T10:21:45Z</time>
      </trkpt>
      <trkpt lat="46.17402" lon="5.42722">
        <ele>325.2</ele>
        <time>2022-02-24T10:21:46Z</time>
      </trkpt>
      <trkpt lat="46.17397" lon="5.42718">
        <ele>325.2</ele>
        <time>2022-02-24T10:21:47Z</time>
      </trkpt>
      <trkpt lat="46.17393" lon="5.42713">
        <ele>325.2</ele>
        <time>2022-02-24T10:21:48Z</time>
      </trkpt>
      <trkpt lat="46.17388" lon="5.42709">
        <ele>325.2</ele>
        <time>2022-02-24T10:21:49Z</time>
      </trkpt>
      <trkpt lat="46.17384" lon="5.42705">
        <ele>325.2</ele>
        <time>2022-02-24T10:21:50Z</time>
      </trkpt>
      <trkpt lat="46.17379" lon="5.42701">
        <ele>325.2</ele>
        <time>2022-02-24T10:21:51Z</time>
      </trkpt>
      <trkpt lat="46.17375" lon="5.42697">
        <ele>325</ele>
        <time>2022-02-24T10:21:52Z</time>
      </trkpt>
      <trkpt lat="46.1737" lon="5.42693">
        <ele>325</ele>
        <time>2022-02-24T10:21:53Z</time>
      </trkpt>
      <trkpt lat="46.17366" lon="5.42688">
        <ele>324.8</ele>
        <time>2022-02-24T10:21:54Z</time>
      </trkpt>
      <trkpt lat="46.17361" lon="5.42684">
        <ele>324.8</ele>
        <time>2022-02-24T10:21:55Z</time>
      </trkpt>
      <trkpt lat="46.17356" lon="5.42679">
        <ele>324.4</ele>
        <time>2022-02-24T10:21:56Z</time>
      </trkpt>
      <trkpt lat="46.17351" lon="5.42675">
        <ele>324.4</ele>
        <time>2022-02-24T10:21:57Z</time>
      </trkpt>
      <trkpt lat="46.17346" lon="5.4267">
        <ele>324.2</ele>
        <time>2022-02-24T10:21:58Z</time>
      </trkpt>
      <trkpt lat="46.17342" lon="5.42666">
        <ele>324.2</ele>
        <time>2022-02-24T10:21:59Z</time>
      </trkpt>
      <trkpt lat="46.17336" lon="5.42661">
        <ele>323.8</ele>
        <time>2022-02-24T10:22:00Z</time>
      </trkpt>
      <trkpt lat="46.17331" lon="5.42656">
        <ele>323.4</ele>
        <time>2022-02-24T10:22:01Z</time>
      </trkpt>
      <trkpt lat="46.17326" lon="5.42651">
        <ele>323.2</ele>
        <time>2022-02-24T10:22:02Z</time>
      </trkpt>
      <trkpt lat="46.1732" lon="5.42646">
        <ele>322.8</ele>
        <time>2022-02-24T10:22:03Z</time>
      </trkpt>
      <trkpt lat="46.17315" lon="5.42641">
        <ele>322.4</ele>
        <time>2022-02-24T10:22:04Z</time>
      </trkpt>
      <trkpt lat="46.17309" lon="5.42635">
        <ele>322</ele>
        <time>2022-02-24T10:22:05Z</time>
      </trkpt>
      <trkpt lat="46.17303" lon="5.4263">
        <ele>321.6</ele>
        <time>2022-02-24T10:22:06Z</time>
      </trkpt>
      <trkpt lat="46.17298" lon="5.42624">
        <ele>321.4</ele>
        <time>2022-02-24T10:22:07Z</time>
      </trkpt>
      <trkpt lat="46.17292" lon="5.42618">
        <ele>321.4</ele>
        <time>2022-02-24T10:22:08Z</time>
      </trkpt>
      <trkpt lat="46.17286" lon="5.42611">
        <ele>320.8</ele>
        <time>2022-02-24T10:22:09Z</time>
      </trkpt>
      <trkpt lat="46.17281" lon="5.42605">
        <ele>320.6</ele>
        <time>2022-02-24T10:22:10Z</time>
      </trkpt>
      <trkpt lat="46.17275" lon="5.42598">
        <ele>320.6</ele>
        <time>2022-02-24T10:22:11Z</time>
      </trkpt>
      <trkpt lat="46.1727" lon="5.42592">
        <ele>320.2</ele>
        <time>2022-02-24T10:22:12Z</time>
      </trkpt>
      <trkpt lat="46.17264" lon="5.42585">
        <ele>320</ele>
        <time>2022-02-24T10:22:13Z</time>
      </trkpt>
      <trkpt lat="46.17259" lon="5.42579">
        <ele>319.8</ele>
        <time>2022-02-24T10:22:14Z</time>
      </trkpt>
      <trkpt lat="46.17254" lon="5.42572">
        <ele>319.8</ele>
        <time>2022-02-24T10:22:15Z</time>
      </trkpt>
      <trkpt lat="46.17249" lon="5.42566">
        <ele>319.4</ele>
        <time>2022-02-24T10:22:16Z</time>
      </trkpt>
      <trkpt lat="46.17244" lon="5.4256">
        <ele>319.4</ele>
        <time>2022-02-24T10:22:17Z</time>
      </trkpt>
      <trkpt lat="46.17239" lon="5.42555">
        <ele>319.2</ele>
        <time>2022-02-24T10:22:18Z</time>
      </trkpt>
      <trkpt lat="46.17233" lon="5.42549">
        <ele>319.2</ele>
        <time>2022-02-24T10:22:19Z</time>
      </trkpt>
      <trkpt lat="46.17228" lon="5.42544">
        <ele>319.2</ele>
        <time>2022-02-24T10:22:20Z</time>
      </trkpt>
      <trkpt lat="46.17223" lon="5.4254">
        <ele>319.2</ele>
        <time>2022-02-24T10:22:21Z</time>
      </trkpt>
      <trkpt lat="46.17217" lon="5.42535">
        <ele>319.2</ele>
        <time>2022-02-24T10:22:22Z</time>
      </trkpt>
      <trkpt lat="46.17212" lon="5.42532">
        <ele>319.2</ele>
        <time>2022-02-24T10:22:23Z</time>
      </trkpt>
      <trkpt lat="46.17207" lon="5.42528">
        <ele>319.2</ele>
        <time>2022-02-24T10:22:24Z</time>
      </trkpt>
      <trkpt lat="46.17201" lon="5.42525">
        <ele>319.2</ele>
        <time>2022-02-24T10:22:25Z</time>
      </trkpt>
      <trkpt lat="46.17196" lon="5.42523">
        <ele>319</ele>
        <time>2022-02-24T10:22:26Z</time>
      </trkpt>
      <trkpt lat="46.17188" lon="5.42518">
        <ele>319</ele>
        <time>2022-02-24T10:22:27Z</time>
      </trkpt>
      <trkpt lat="46.17185" lon="5.42517">
        <ele>319</ele>
        <time>2022-02-24T10:22:28Z</time>
      </trkpt>
      <trkpt lat="46.1718" lon="5.42513">
        <ele>319</ele>
        <time>2022-02-24T10:22:29Z</time>
      </trkpt>
      <trkpt lat="46.1718" lon="5.42513">
        <ele>319</ele>
        <time>2022-02-24T10:22:30Z</time>
      </trkpt>
      <trkpt lat="46.17174" lon="5.4251">
        <ele>319</ele>
        <time>2022-02-24T10:22:31Z</time>
      </trkpt>
      <trkpt lat="46.17169" lon="5.42507">
        <ele>319</ele>
        <time>2022-02-24T10:22:32Z</time>
      </trkpt>
      <trkpt lat="46.17158" lon="5.425">
        <ele>319</ele>
        <time>2022-02-24T10:22:33Z</time>
      </trkpt>
      <trkpt lat="46.17152" lon="5.42497">
        <ele>319</ele>
        <time>2022-02-24T10:22:34Z</time>
      </trkpt>
      <trkpt lat="46.17147" lon="5.42493">
        <ele>319</ele>
        <time>2022-02-24T10:22:35Z</time>
      </trkpt>
      <trkpt lat="46.17142" lon="5.42489">
        <ele>319</ele>
        <time>2022-02-24T10:22:36Z</time>
      </trkpt>
      <trkpt lat="46.17137" lon="5.42485">
        <ele>318.6</ele>
        <time>2022-02-24T10:22:37Z</time>
      </trkpt>
      <trkpt lat="46.17132" lon="5.42481">
        <ele>318.6</ele>
        <time>2022-02-24T10:22:38Z</time>
      </trkpt>
      <trkpt lat="46.17126" lon="5.42477">
        <ele>318.6</ele>
        <time>2022-02-24T10:22:39Z</time>
      </trkpt>
      <trkpt lat="46.17121" lon="5.42472">
        <ele>318.4</ele>
        <time>2022-02-24T10:22:40Z</time>
      </trkpt>
      <trkpt lat="46.17116" lon="5.42467">
        <ele>318.4</ele>
        <time>2022-02-24T10:22:41Z</time>
      </trkpt>
      <trkpt lat="46.17111" lon="5.42462">
        <ele>318.2</ele>
        <time>2022-02-24T10:22:42Z</time>
      </trkpt>
      <trkpt lat="46.17107" lon="5.42457">
        <ele>318.2</ele>
        <time>2022-02-24T10:22:43Z</time>
      </trkpt>
      <trkpt lat="46.17102" lon="5.42452">
        <ele>318</ele>
        <time>2022-02-24T10:22:44Z</time>
      </trkpt>
      <trkpt lat="46.17097" lon="5.42448">
        <ele>318</ele>
        <time>2022-02-24T10:22:45Z</time>
      </trkpt>
      <trkpt lat="46.17092" lon="5.42443">
        <ele>318</ele>
        <time>2022-02-24T10:22:46Z</time>
      </trkpt>
      <trkpt lat="46.17087" lon="5.42438">
        <ele>317.8</ele>
        <time>2022-02-24T10:22:47Z</time>
      </trkpt>
      <trkpt lat="46.17083" lon="5.42433">
        <ele>317.8</ele>
        <time>2022-02-24T10:22:48Z</time>
      </trkpt>
      <trkpt lat="46.17078" lon="5.42428">
        <ele>317.8</ele>
        <time>2022-02-24T10:22:49Z</time>
      </trkpt>
      <trkpt lat="46.17073" lon="5.42423">
        <ele>317.4</ele>
        <time>2022-02-24T10:22:50Z</time>
      </trkpt>
      <trkpt lat="46.17068" lon="5.42418">
        <ele>317.4</ele>
        <time>2022-02-24T10:22:51Z</time>
      </trkpt>
      <trkpt lat="46.17064" lon="5.42414">
        <ele>317.2</ele>
        <time>2022-02-24T10:22:52Z</time>
      </trkpt>
      <trkpt lat="46.17059" lon="5.42409">
        <ele>317.2</ele>
        <time>2022-02-24T10:22:53Z</time>
      </trkpt>
      <trkpt lat="46.17054" lon="5.42404">
        <ele>316.8</ele>
        <time>2022-02-24T10:22:54Z</time>
      </trkpt>
      <trkpt lat="46.17049" lon="5.424">
        <ele>316.8</ele>
        <time>2022-02-24T10:22:55Z</time>
      </trkpt>
      <trkpt lat="46.17045" lon="5.42395">
        <ele>316.8</ele>
        <time>2022-02-24T10:22:56Z</time>
      </trkpt>
      <trkpt lat="46.1704" lon="5.42391">
        <ele>316.8</ele>
        <time>2022-02-24T10:22:57Z</time>
      </trkpt>
      <trkpt lat="46.17035" lon="5.42387">
        <ele>316.8</ele>
        <time>2022-02-24T10:22:58Z</time>
      </trkpt>
      <trkpt lat="46.1703" lon="5.42383">
        <ele>316.8</ele>
        <time>2022-02-24T10:22:59Z</time>
      </trkpt>
      <trkpt lat="46.17025" lon="5.42379">
        <ele>316.8</ele>
        <time>2022-02-24T10:23:00Z</time>
      </trkpt>
      <trkpt lat="46.1702" lon="5.42375">
        <ele>316.8</ele>
        <time>2022-02-24T10:23:01Z</time>
      </trkpt>
      <trkpt lat="46.17015" lon="5.42372">
        <ele>316.6</ele>
        <time>2022-02-24T10:23:02Z</time>
      </trkpt>
      <trkpt lat="46.1701" lon="5.42369">
        <ele>316.6</ele>
        <time>2022-02-24T10:23:03Z</time>
      </trkpt>
      <trkpt lat="46.17005" lon="5.42366">
        <ele>316.6</ele>
        <time>2022-02-24T10:23:04Z</time>
      </trkpt>
      <trkpt lat="46.17" lon="5.42363">
        <ele>316.6</ele>
        <time>2022-02-24T10:23:05Z</time>
      </trkpt>
      <trkpt lat="46.16995" lon="5.4236">
        <ele>316.6</ele>
        <time>2022-02-24T10:23:06Z</time>
      </trkpt>
      <trkpt lat="46.1699" lon="5.42357">
        <ele>316.6</ele>
        <time>2022-02-24T10:23:07Z</time>
      </trkpt>
      <trkpt lat="46.16986" lon="5.42355">
        <ele>316.6</ele>
        <time>2022-02-24T10:23:08Z</time>
      </trkpt>
      <trkpt lat="46.16981" lon="5.42352">
        <ele>316.8</ele>
        <time>2022-02-24T10:23:09Z</time>
      </trkpt>
      <trkpt lat="46.16976" lon="5.4235">
        <ele>316.8</ele>
        <time>2022-02-24T10:23:10Z</time>
      </trkpt>
      <trkpt lat="46.16972" lon="5.42348">
        <ele>316.8</ele>
        <time>2022-02-24T10:23:11Z</time>
      </trkpt>
      <trkpt lat="46.16967" lon="5.42345">
        <ele>317.2</ele>
        <time>2022-02-24T10:23:12Z</time>
      </trkpt>
      <trkpt lat="46.16963" lon="5.42343">
        <ele>317.2</ele>
        <time>2022-02-24T10:23:13Z</time>
      </trkpt>
      <trkpt lat="46.16959" lon="5.42341">
        <ele>317.2</ele>
        <time>2022-02-24T10:23:14Z</time>
      </trkpt>
      <trkpt lat="46.16954" lon="5.42338">
        <ele>317.6</ele>
        <time>2022-02-24T10:23:15Z</time>
      </trkpt>
      <trkpt lat="46.1695" lon="5.42336">
        <ele>317.6</ele>
        <time>2022-02-24T10:23:16Z</time>
      </trkpt>
      <trkpt lat="46.16946" lon="5.42334">
        <ele>317.8</ele>
        <time>2022-02-24T10:23:17Z</time>
      </trkpt>
      <trkpt lat="46.16942" lon="5.42331">
        <ele>317.8</ele>
        <time>2022-02-24T10:23:18Z</time>
      </trkpt>
      <trkpt lat="46.16938" lon="5.42329">
        <ele>318</ele>
        <time>2022-02-24T10:23:19Z</time>
      </trkpt>
      <trkpt lat="46.16934" lon="5.42327">
        <ele>318</ele>
        <time>2022-02-24T10:23:20Z</time>
      </trkpt>
      <trkpt lat="46.1693" lon="5.42325">
        <ele>318.4</ele>
        <time>2022-02-24T10:23:21Z</time>
      </trkpt>
      <trkpt lat="46.16926" lon="5.42322">
        <ele>318.4</ele>
        <time>2022-02-24T10:23:22Z</time>
      </trkpt>
      <trkpt lat="46.16922" lon="5.4232">
        <ele>318.4</ele>
        <time>2022-02-24T10:23:23Z</time>
      </trkpt>
      <trkpt lat="46.16919" lon="5.42317">
        <ele>318.4</ele>
        <time>2022-02-24T10:23:24Z</time>
      </trkpt>
      <trkpt lat="46.16915" lon="5.42314">
        <ele>318.4</ele>
        <time>2022-02-24T10:23:25Z</time>
      </trkpt>
      <trkpt lat="46.16911" lon="5.42312">
        <ele>318.4</ele>
        <time>2022-02-24T10:23:26Z</time>
      </trkpt>
      <trkpt lat="46.16907" lon="5.42309">
        <ele>318.4</ele>
        <time>2022-02-24T10:23:27Z</time>
      </trkpt>
      <trkpt lat="46.16903" lon="5.42307">
        <ele>318.4</ele>
        <time>2022-02-24T10:23:28Z</time>
      </trkpt>
      <trkpt lat="46.16899" lon="5.42305">
        <ele>318.6</ele>
        <time>2022-02-24T10:23:29Z</time>
      </trkpt>
      <trkpt lat="46.16895" lon="5.42302">
        <ele>318.6</ele>
        <time>2022-02-24T10:23:30Z</time>
      </trkpt>
      <trkpt lat="46.16891" lon="5.42299">
        <ele>318.6</ele>
        <time>2022-02-24T10:23:31Z</time>
      </trkpt>
      <trkpt lat="46.16887" lon="5.42296">
        <ele>318.6</ele>
        <time>2022-02-24T10:23:32Z</time>
      </trkpt>
      <trkpt lat="46.16883" lon="5.42293">
        <ele>318.6</ele>
        <time>2022-02-24T10:23:33Z</time>
      </trkpt>
      <trkpt lat="46.16879" lon="5.4229">
        <ele>318.6</ele>
        <time>2022-02-24T10:23:34Z</time>
      </trkpt>
      <trkpt lat="46.16875" lon="5.42287">
        <ele>318.6</ele>
        <time>2022-02-24T10:23:35Z</time>
      </trkpt>
      <trkpt lat="46.16871" lon="5.42284">
        <ele>318.6</ele>
        <time>2022-02-24T10:23:36Z</time>
      </trkpt>
      <trkpt lat="46.16867" lon="5.42282">
        <ele>318.6</ele>
        <time>2022-02-24T10:23:37Z</time>
      </trkpt>
      <trkpt lat="46.16863" lon="5.42278">
        <ele>318.6</ele>
        <time>2022-02-24T10:23:38Z</time>
      </trkpt>
      <trkpt lat="46.16859" lon="5.42275">
        <ele>318.6</ele>
        <time>2022-02-24T10:23:39Z</time>
      </trkpt>
      <trkpt lat="46.16855" lon="5.42272">
        <ele>318.6</ele>
        <time>2022-02-24T10:23:40Z</time>
      </trkpt>
      <trkpt lat="46.16851" lon="5.42268">
        <ele>318.6</ele>
        <time>2022-02-24T10:23:41Z</time>
      </trkpt>
      <trkpt lat="46.16846" lon="5.42265">
        <ele>318.6</ele>
        <time>2022-02-24T10:23:42Z</time>
      </trkpt>
      <trkpt lat="46.16842" lon="5.42262">
        <ele>318.6</ele>
        <time>2022-02-24T10:23:43Z</time>
      </trkpt>
      <trkpt lat="46.16838" lon="5.42259">
        <ele>318.6</ele>
        <time>2022-02-24T10:23:44Z</time>
      </trkpt>
      <trkpt lat="46.16834" lon="5.42257">
        <ele>318.6</ele>
        <time>2022-02-24T10:23:45Z</time>
      </trkpt>
      <trkpt lat="46.16829" lon="5.42254">
        <ele>318.6</ele>
        <time>2022-02-24T10:23:46Z</time>
      </trkpt>
      <trkpt lat="46.16825" lon="5.4225">
        <ele>318.6</ele>
        <time>2022-02-24T10:23:47Z</time>
      </trkpt>
      <trkpt lat="46.16821" lon="5.42247">
        <ele>318.6</ele>
        <time>2022-02-24T10:23:48Z</time>
      </trkpt>
      <trkpt lat="46.16817" lon="5.42244">
        <ele>318.6</ele>
        <time>2022-02-24T10:23:49Z</time>
      </trkpt>
      <trkpt lat="46.16812" lon="5.42241">
        <ele>318.6</ele>
        <time>2022-02-24T10:23:50Z</time>
      </trkpt>
      <trkpt lat="46.16808" lon="5.42238">
        <ele>318.6</ele>
        <time>2022-02-24T10:23:51Z</time>
      </trkpt>
      <trkpt lat="46.16804" lon="5.42234">
        <ele>318.6</ele>
        <time>2022-02-24T10:23:52Z</time>
      </trkpt>
      <trkpt lat="46.168" lon="5.42231">
        <ele>318.8</ele>
        <time>2022-02-24T10:23:53Z</time>
      </trkpt>
      <trkpt lat="46.16796" lon="5.42228">
        <ele>318.8</ele>
        <time>2022-02-24T10:23:54Z</time>
      </trkpt>
      <trkpt lat="46.16791" lon="5.42225">
        <ele>319</ele>
        <time>2022-02-24T10:23:55Z</time>
      </trkpt>
      <trkpt lat="46.16787" lon="5.42222">
        <ele>319</ele>
        <time>2022-02-24T10:23:56Z</time>
      </trkpt>
      <trkpt lat="46.16783" lon="5.42219">
        <ele>319</ele>
        <time>2022-02-24T10:23:57Z</time>
      </trkpt>
      <trkpt lat="46.16779" lon="5.42216">
        <ele>319</ele>
        <time>2022-02-24T10:23:58Z</time>
      </trkpt>
      <trkpt lat="46.16775" lon="5.42213">
        <ele>319.2</ele>
        <time>2022-02-24T10:23:59Z</time>
      </trkpt>
      <trkpt lat="46.16771" lon="5.42211">
        <ele>319.2</ele>
        <time>2022-02-24T10:24:00Z</time>
      </trkpt>
      <trkpt lat="46.16768" lon="5.42208">
        <ele>319.6</ele>
        <time>2022-02-24T10:24:01Z</time>
      </trkpt>
      <trkpt lat="46.16764" lon="5.42205">
        <ele>320</ele>
        <time>2022-02-24T10:24:02Z</time>
      </trkpt>
      <trkpt lat="46.1676" lon="5.42202">
        <ele>320</ele>
        <time>2022-02-24T10:24:03Z</time>
      </trkpt>
      <trkpt lat="46.16756" lon="5.42199">
        <ele>320.2</ele>
        <time>2022-02-24T10:24:04Z</time>
      </trkpt>
      <trkpt lat="46.16752" lon="5.42196">
        <ele>320.2</ele>
        <time>2022-02-24T10:24:05Z</time>
      </trkpt>
      <trkpt lat="46.16748" lon="5.42194">
        <ele>320.2</ele>
        <time>2022-02-24T10:24:06Z</time>
      </trkpt>
      <trkpt lat="46.16744" lon="5.42191">
        <ele>320.2</ele>
        <time>2022-02-24T10:24:07Z</time>
      </trkpt>
      <trkpt lat="46.16741" lon="5.42188">
        <ele>320.4</ele>
        <time>2022-02-24T10:24:08Z</time>
      </trkpt>
      <trkpt lat="46.16737" lon="5.42185">
        <ele>320.4</ele>
        <time>2022-02-24T10:24:09Z</time>
      </trkpt>
      <trkpt lat="46.16733" lon="5.42182">
        <ele>320.4</ele>
        <time>2022-02-24T10:24:10Z</time>
      </trkpt>
      <trkpt lat="46.16729" lon="5.4218">
        <ele>320.8</ele>
        <time>2022-02-24T10:24:11Z</time>
      </trkpt>
      <trkpt lat="46.16725" lon="5.42178">
        <ele>320.8</ele>
        <time>2022-02-24T10:24:12Z</time>
      </trkpt>
      <trkpt lat="46.1672" lon="5.42176">
        <ele>321</ele>
        <time>2022-02-24T10:24:13Z</time>
      </trkpt>
      <trkpt lat="46.16716" lon="5.42174">
        <ele>321</ele>
        <time>2022-02-24T10:24:14Z</time>
      </trkpt>
      <trkpt lat="46.16712" lon="5.42171">
        <ele>321</ele>
        <time>2022-02-24T10:24:15Z</time>
      </trkpt>
      <trkpt lat="46.16708" lon="5.42169">
        <ele>321</ele>
        <time>2022-02-24T10:24:16Z</time>
      </trkpt>
      <trkpt lat="46.16704" lon="5.42167">
        <ele>321.2</ele>
        <time>2022-02-24T10:24:17Z</time>
      </trkpt>
      <trkpt lat="46.167" lon="5.42166">
        <ele>321.2</ele>
        <time>2022-02-24T10:24:18Z</time>
      </trkpt>
      <trkpt lat="46.16696" lon="5.42164">
        <ele>321.2</ele>
        <time>2022-02-24T10:24:19Z</time>
      </trkpt>
      <trkpt lat="46.16691" lon="5.42163">
        <ele>321.2</ele>
        <time>2022-02-24T10:24:20Z</time>
      </trkpt>
      <trkpt lat="46.16687" lon="5.42161">
        <ele>321.2</ele>
        <time>2022-02-24T10:24:21Z</time>
      </trkpt>
      <trkpt lat="46.16683" lon="5.42159">
        <ele>321.2</ele>
        <time>2022-02-24T10:24:22Z</time>
      </trkpt>
      <trkpt lat="46.16679" lon="5.42158">
        <ele>321.2</ele>
        <time>2022-02-24T10:24:23Z</time>
      </trkpt>
      <trkpt lat="46.16674" lon="5.42156">
        <ele>321.2</ele>
        <time>2022-02-24T10:24:24Z</time>
      </trkpt>
      <trkpt lat="46.1667" lon="5.42155">
        <ele>321.2</ele>
        <time>2022-02-24T10:24:25Z</time>
      </trkpt>
      <trkpt lat="46.16666" lon="5.42153">
        <ele>321.2</ele>
        <time>2022-02-24T10:24:26Z</time>
      </trkpt>
      <trkpt lat="46.16661" lon="5.42152">
        <ele>321.2</ele>
        <time>2022-02-24T10:24:27Z</time>
      </trkpt>
      <trkpt lat="46.16657" lon="5.4215">
        <ele>321.2</ele>
        <time>2022-02-24T10:24:28Z</time>
      </trkpt>
      <trkpt lat="46.16652" lon="5.42148">
        <ele>321.2</ele>
        <time>2022-02-24T10:24:29Z</time>
      </trkpt>
      <trkpt lat="46.16648" lon="5.42146">
        <ele>321.2</ele>
        <time>2022-02-24T10:24:30Z</time>
      </trkpt>
      <trkpt lat="46.16644" lon="5.42144">
        <ele>321.2</ele>
        <time>2022-02-24T10:24:31Z</time>
      </trkpt>
      <trkpt lat="46.16639" lon="5.42143">
        <ele>321.4</ele>
        <time>2022-02-24T10:24:32Z</time>
      </trkpt>
      <trkpt lat="46.16635" lon="5.42142">
        <ele>321.4</ele>
        <time>2022-02-24T10:24:33Z</time>
      </trkpt>
      <trkpt lat="46.16631" lon="5.4214">
        <ele>321.4</ele>
        <time>2022-02-24T10:24:34Z</time>
      </trkpt>
      <trkpt lat="46.16626" lon="5.42138">
        <ele>321.4</ele>
        <time>2022-02-24T10:24:35Z</time>
      </trkpt>
      <trkpt lat="46.16622" lon="5.42136">
        <ele>321.4</ele>
        <time>2022-02-24T10:24:36Z</time>
      </trkpt>
      <trkpt lat="46.16618" lon="5.42134">
        <ele>321.4</ele>
        <time>2022-02-24T10:24:37Z</time>
      </trkpt>
      <trkpt lat="46.16614" lon="5.42132">
        <ele>321.4</ele>
        <time>2022-02-24T10:24:38Z</time>
      </trkpt>
      <trkpt lat="46.1661" lon="5.4213">
        <ele>321.4</ele>
        <time>2022-02-24T10:24:39Z</time>
      </trkpt>
      <trkpt lat="46.16606" lon="5.42129">
        <ele>321.4</ele>
        <time>2022-02-24T10:24:40Z</time>
      </trkpt>
      <trkpt lat="46.16602" lon="5.42127">
        <ele>321.4</ele>
        <time>2022-02-24T10:24:41Z</time>
      </trkpt>
      <trkpt lat="46.16597" lon="5.42125">
        <ele>321.4</ele>
        <time>2022-02-24T10:24:42Z</time>
      </trkpt>
      <trkpt lat="46.16593" lon="5.42124">
        <ele>321.6</ele>
        <time>2022-02-24T10:24:43Z</time>
      </trkpt>
      <trkpt lat="46.1659" lon="5.42123">
        <ele>321.6</ele>
        <time>2022-02-24T10:24:44Z</time>
      </trkpt>
      <trkpt lat="46.16586" lon="5.42121">
        <ele>321.6</ele>
        <time>2022-02-24T10:24:45Z</time>
      </trkpt>
      <trkpt lat="46.16582" lon="5.42119">
        <ele>322</ele>
        <time>2022-02-24T10:24:46Z</time>
      </trkpt>
      <trkpt lat="46.16579" lon="5.42117">
        <ele>322</ele>
        <time>2022-02-24T10:24:47Z</time>
      </trkpt>
      <trkpt lat="46.16575" lon="5.42116">
        <ele>322.2</ele>
        <time>2022-02-24T10:24:48Z</time>
      </trkpt>
      <trkpt lat="46.16571" lon="5.42114">
        <ele>322.2</ele>
        <time>2022-02-24T10:24:49Z</time>
      </trkpt>
      <trkpt lat="46.16567" lon="5.42113">
        <ele>322.2</ele>
        <time>2022-02-24T10:24:50Z</time>
      </trkpt>
      <trkpt lat="46.16564" lon="5.42111">
        <ele>322.6</ele>
        <time>2022-02-24T10:24:51Z</time>
      </trkpt>
      <trkpt lat="46.1656" lon="5.4211">
        <ele>322.6</ele>
        <time>2022-02-24T10:24:52Z</time>
      </trkpt>
      <trkpt lat="46.16557" lon="5.42109">
        <ele>322.8</ele>
        <time>2022-02-24T10:24:53Z</time>
      </trkpt>
      <trkpt lat="46.16553" lon="5.42108">
        <ele>322.8</ele>
        <time>2022-02-24T10:24:54Z</time>
      </trkpt>
      <trkpt lat="46.1655" lon="5.42107">
        <ele>322.8</ele>
        <time>2022-02-24T10:24:55Z</time>
      </trkpt>
      <trkpt lat="46.16547" lon="5.42106">
        <ele>323</ele>
        <time>2022-02-24T10:24:56Z</time>
      </trkpt>
      <trkpt lat="46.16544" lon="5.42105">
        <ele>323</ele>
        <time>2022-02-24T10:24:57Z</time>
      </trkpt>
      <trkpt lat="46.1654" lon="5.42105">
        <ele>323.4</ele>
        <time>2022-02-24T10:24:58Z</time>
      </trkpt>
      <trkpt lat="46.16537" lon="5.42104">
        <ele>323.4</ele>
        <time>2022-02-24T10:24:59Z</time>
      </trkpt>
      <trkpt lat="46.16534" lon="5.42104">
        <ele>323.8</ele>
        <time>2022-02-24T10:25:00Z</time>
      </trkpt>
      <trkpt lat="46.16531" lon="5.42103">
        <ele>323.8</ele>
        <time>2022-02-24T10:25:01Z</time>
      </trkpt>
      <trkpt lat="46.16527" lon="5.42103">
        <ele>324</ele>
        <time>2022-02-24T10:25:02Z</time>
      </trkpt>
      <trkpt lat="46.16524" lon="5.42102">
        <ele>324</ele>
        <time>2022-02-24T10:25:03Z</time>
      </trkpt>
      <trkpt lat="46.16521" lon="5.42101">
        <ele>324.4</ele>
        <time>2022-02-24T10:25:04Z</time>
      </trkpt>
      <trkpt lat="46.16518" lon="5.42101">
        <ele>324.4</ele>
        <time>2022-02-24T10:25:05Z</time>
      </trkpt>
      <trkpt lat="46.16514" lon="5.421">
        <ele>324.8</ele>
        <time>2022-02-24T10:25:06Z</time>
      </trkpt>
      <trkpt lat="46.16511" lon="5.42099">
        <ele>324.8</ele>
        <time>2022-02-24T10:25:07Z</time>
      </trkpt>
      <trkpt lat="46.16508" lon="5.42099">
        <ele>325</ele>
        <time>2022-02-24T10:25:08Z</time>
      </trkpt>
      <trkpt lat="46.16505" lon="5.42099">
        <ele>325.2</ele>
        <time>2022-02-24T10:25:09Z</time>
      </trkpt>
      <trkpt lat="46.16502" lon="5.42098">
        <ele>325.4</ele>
        <time>2022-02-24T10:25:10Z</time>
      </trkpt>
      <trkpt lat="46.16499" lon="5.42098">
        <ele>325.8</ele>
        <time>2022-02-24T10:25:11Z</time>
      </trkpt>
      <trkpt lat="46.16496" lon="5.42097">
        <ele>325.8</ele>
        <time>2022-02-24T10:25:12Z</time>
      </trkpt>
      <trkpt lat="46.16492" lon="5.42096">
        <ele>326</ele>
        <time>2022-02-24T10:25:13Z</time>
      </trkpt>
      <trkpt lat="46.16489" lon="5.42096">
        <ele>326</ele>
        <time>2022-02-24T10:25:14Z</time>
      </trkpt>
      <trkpt lat="46.16486" lon="5.42095">
        <ele>326</ele>
        <time>2022-02-24T10:25:15Z</time>
      </trkpt>
      <trkpt lat="46.16482" lon="5.42094">
        <ele>326</ele>
        <time>2022-02-24T10:25:16Z</time>
      </trkpt>
      <trkpt lat="46.16479" lon="5.42094">
        <ele>326</ele>
        <time>2022-02-24T10:25:17Z</time>
      </trkpt>
      <trkpt lat="46.16475" lon="5.42093">
        <ele>326.2</ele>
        <time>2022-02-24T10:25:18Z</time>
      </trkpt>
      <trkpt lat="46.16472" lon="5.42092">
        <ele>326.2</ele>
        <time>2022-02-24T10:25:19Z</time>
      </trkpt>
      <trkpt lat="46.16468" lon="5.42091">
        <ele>326.2</ele>
        <time>2022-02-24T10:25:20Z</time>
      </trkpt>
      <trkpt lat="46.16464" lon="5.42091">
        <ele>326.4</ele>
        <time>2022-02-24T10:25:21Z</time>
      </trkpt>
      <trkpt lat="46.16461" lon="5.4209">
        <ele>326.4</ele>
        <time>2022-02-24T10:25:22Z</time>
      </trkpt>
      <trkpt lat="46.16457" lon="5.42089">
        <ele>326.4</ele>
        <time>2022-02-24T10:25:23Z</time>
      </trkpt>
      <trkpt lat="46.16454" lon="5.42089">
        <ele>326.4</ele>
        <time>2022-02-24T10:25:24Z</time>
      </trkpt>
      <trkpt lat="46.1645" lon="5.42088">
        <ele>326.8</ele>
        <time>2022-02-24T10:25:25Z</time>
      </trkpt>
      <trkpt lat="46.16447" lon="5.42088">
        <ele>326.8</ele>
        <time>2022-02-24T10:25:26Z</time>
      </trkpt>
      <trkpt lat="46.16443" lon="5.42087">
        <ele>326.8</ele>
        <time>2022-02-24T10:25:27Z</time>
      </trkpt>
      <trkpt lat="46.16439" lon="5.42086">
        <ele>326.8</ele>
        <time>2022-02-24T10:25:28Z</time>
      </trkpt>
      <trkpt lat="46.16436" lon="5.42086">
        <ele>326.8</ele>
        <time>2022-02-24T10:25:29Z</time>
      </trkpt>
      <trkpt lat="46.16432" lon="5.42086">
        <ele>326.8</ele>
        <time>2022-02-24T10:25:30Z</time>
      </trkpt>
      <trkpt lat="46.16428" lon="5.42085">
        <ele>326.8</ele>
        <time>2022-02-24T10:25:31Z</time>
      </trkpt>
      <trkpt lat="46.16424" lon="5.42084">
        <ele>326.6</ele>
        <time>2022-02-24T10:25:32Z</time>
      </trkpt>
      <trkpt lat="46.16421" lon="5.42084">
        <ele>326.6</ele>
        <time>2022-02-24T10:25:33Z</time>
      </trkpt>
      <trkpt lat="46.16417" lon="5.42084">
        <ele>326.6</ele>
        <time>2022-02-24T10:25:34Z</time>
      </trkpt>
      <trkpt lat="46.16413" lon="5.42084">
        <ele>326.6</ele>
        <time>2022-02-24T10:25:35Z</time>
      </trkpt>
      <trkpt lat="46.16409" lon="5.42083">
        <ele>326.6</ele>
        <time>2022-02-24T10:25:36Z</time>
      </trkpt>
      <trkpt lat="46.16405" lon="5.42083">
        <ele>326.6</ele>
        <time>2022-02-24T10:25:37Z</time>
      </trkpt>
      <trkpt lat="46.16402" lon="5.42082">
        <ele>326.6</ele>
        <time>2022-02-24T10:25:38Z</time>
      </trkpt>
      <trkpt lat="46.16398" lon="5.42081">
        <ele>326.8</ele>
        <time>2022-02-24T10:25:39Z</time>
      </trkpt>
      <trkpt lat="46.16394" lon="5.4208">
        <ele>326.8</ele>
        <time>2022-02-24T10:25:40Z</time>
      </trkpt>
      <trkpt lat="46.1639" lon="5.42079">
        <ele>327</ele>
        <time>2022-02-24T10:25:41Z</time>
      </trkpt>
      <trkpt lat="46.16387" lon="5.42079">
        <ele>327</ele>
        <time>2022-02-24T10:25:42Z</time>
      </trkpt>
      <trkpt lat="46.16383" lon="5.42078">
        <ele>327</ele>
        <time>2022-02-24T10:25:43Z</time>
      </trkpt>
      <trkpt lat="46.16379" lon="5.42078">
        <ele>327.4</ele>
        <time>2022-02-24T10:25:44Z</time>
      </trkpt>
      <trkpt lat="46.16376" lon="5.42077">
        <ele>327.4</ele>
        <time>2022-02-24T10:25:45Z</time>
      </trkpt>
      <trkpt lat="46.16372" lon="5.42076">
        <ele>327.4</ele>
        <time>2022-02-24T10:25:46Z</time>
      </trkpt>
      <trkpt lat="46.16369" lon="5.42075">
        <ele>327.6</ele>
        <time>2022-02-24T10:25:47Z</time>
      </trkpt>
      <trkpt lat="46.16365" lon="5.42074">
        <ele>327.6</ele>
        <time>2022-02-24T10:25:48Z</time>
      </trkpt>
      <trkpt lat="46.16362" lon="5.42073">
        <ele>327.6</ele>
        <time>2022-02-24T10:25:49Z</time>
      </trkpt>
      <trkpt lat="46.16359" lon="5.42071">
        <ele>327.8</ele>
        <time>2022-02-24T10:25:50Z</time>
      </trkpt>
      <trkpt lat="46.16355" lon="5.4207">
        <ele>327.8</ele>
        <time>2022-02-24T10:25:51Z</time>
      </trkpt>
      <trkpt lat="46.16352" lon="5.42068">
        <ele>327.8</ele>
        <time>2022-02-24T10:25:52Z</time>
      </trkpt>
      <trkpt lat="46.16349" lon="5.42067">
        <ele>328.2</ele>
        <time>2022-02-24T10:25:53Z</time>
      </trkpt>
      <trkpt lat="46.16345" lon="5.42065">
        <ele>328.2</ele>
        <time>2022-02-24T10:25:54Z</time>
      </trkpt>
      <trkpt lat="46.16342" lon="5.42063">
        <ele>328.2</ele>
        <time>2022-02-24T10:25:55Z</time>
      </trkpt>
      <trkpt lat="46.16339" lon="5.42061">
        <ele>328.2</ele>
        <time>2022-02-24T10:25:56Z</time>
      </trkpt>
      <trkpt lat="46.16336" lon="5.4206">
        <ele>328.4</ele>
        <time>2022-02-24T10:25:57Z</time>
      </trkpt>
      <trkpt lat="46.16333" lon="5.42058">
        <ele>328.4</ele>
        <time>2022-02-24T10:25:58Z</time>
      </trkpt>
      <trkpt lat="46.1633" lon="5.42055">
        <ele>328.6</ele>
        <time>2022-02-24T10:25:59Z</time>
      </trkpt>
      <trkpt lat="46.16327" lon="5.42053">
        <ele>328.6</ele>
        <time>2022-02-24T10:26:00Z</time>
      </trkpt>
      <trkpt lat="46.16324" lon="5.42051">
        <ele>328.8</ele>
        <time>2022-02-24T10:26:01Z</time>
      </trkpt>
      <trkpt lat="46.16321" lon="5.42049">
        <ele>329.2</ele>
        <time>2022-02-24T10:26:02Z</time>
      </trkpt>
      <trkpt lat="46.16318" lon="5.42047">
        <ele>329.2</ele>
        <time>2022-02-24T10:26:03Z</time>
      </trkpt>
      <trkpt lat="46.16315" lon="5.42044">
        <ele>329.2</ele>
        <time>2022-02-24T10:26:04Z</time>
      </trkpt>
      <trkpt lat="46.16312" lon="5.42042">
        <ele>329.4</ele>
        <time>2022-02-24T10:26:05Z</time>
      </trkpt>
      <trkpt lat="46.16309" lon="5.4204">
        <ele>329.4</ele>
        <time>2022-02-24T10:26:06Z</time>
      </trkpt>
      <trkpt lat="46.16307" lon="5.42037">
        <ele>329.4</ele>
        <time>2022-02-24T10:26:07Z</time>
      </trkpt>
      <trkpt lat="46.16304" lon="5.42035">
        <ele>329.8</ele>
        <time>2022-02-24T10:26:08Z</time>
      </trkpt>
      <trkpt lat="46.16301" lon="5.42033">
        <ele>329.8</ele>
        <time>2022-02-24T10:26:09Z</time>
      </trkpt>
      <trkpt lat="46.16299" lon="5.42031">
        <ele>330</ele>
        <time>2022-02-24T10:26:10Z</time>
      </trkpt>
      <trkpt lat="46.16296" lon="5.42028">
        <ele>330</ele>
        <time>2022-02-24T10:26:11Z</time>
      </trkpt>
      <trkpt lat="46.16294" lon="5.42026">
        <ele>330.4</ele>
        <time>2022-02-24T10:26:12Z</time>
      </trkpt>
      <trkpt lat="46.16291" lon="5.42023">
        <ele>330.4</ele>
        <time>2022-02-24T10:26:13Z</time>
      </trkpt>
      <trkpt lat="46.16289" lon="5.42021">
        <ele>330.6</ele>
        <time>2022-02-24T10:26:14Z</time>
      </trkpt>
      <trkpt lat="46.16286" lon="5.42019">
        <ele>330.6</ele>
        <time>2022-02-24T10:26:15Z</time>
      </trkpt>
      <trkpt lat="46.16284" lon="5.42016">
        <ele>331</ele>
        <time>2022-02-24T10:26:16Z</time>
      </trkpt>
      <trkpt lat="46.16281" lon="5.42014">
        <ele>331.2</ele>
        <time>2022-02-24T10:26:17Z</time>
      </trkpt>
      <trkpt lat="46.16278" lon="5.42011">
        <ele>331.4</ele>
        <time>2022-02-24T10:26:18Z</time>
      </trkpt>
      <trkpt lat="46.16276" lon="5.42008">
        <ele>331.8</ele>
        <time>2022-02-24T10:26:19Z</time>
      </trkpt>
      <trkpt lat="46.16274" lon="5.42005">
        <ele>332.2</ele>
        <time>2022-02-24T10:26:20Z</time>
      </trkpt>
      <trkpt lat="46.16271" lon="5.42002">
        <ele>332.2</ele>
        <time>2022-02-24T10:26:21Z</time>
      </trkpt>
      <trkpt lat="46.16269" lon="5.41999">
        <ele>332.4</ele>
        <time>2022-02-24T10:26:22Z</time>
      </trkpt>
      <trkpt lat="46.16266" lon="5.41997">
        <ele>332.4</ele>
        <time>2022-02-24T10:26:23Z</time>
      </trkpt>
      <trkpt lat="46.16264" lon="5.41994">
        <ele>332.8</ele>
        <time>2022-02-24T10:26:24Z</time>
      </trkpt>
      <trkpt lat="46.16263" lon="5.41991">
        <ele>332.8</ele>
        <time>2022-02-24T10:26:25Z</time>
      </trkpt>
      <trkpt lat="46.16261" lon="5.41987">
        <ele>333.2</ele>
        <time>2022-02-24T10:26:26Z</time>
      </trkpt>
      <trkpt lat="46.16259" lon="5.41984">
        <ele>333.4</ele>
        <time>2022-02-24T10:26:27Z</time>
      </trkpt>
      <trkpt lat="46.16257" lon="5.41981">
        <ele>333.4</ele>
        <time>2022-02-24T10:26:28Z</time>
      </trkpt>
      <trkpt lat="46.16255" lon="5.41978">
        <ele>333.8</ele>
        <time>2022-02-24T10:26:29Z</time>
      </trkpt>
      <trkpt lat="46.16253" lon="5.41975">
        <ele>333.8</ele>
        <time>2022-02-24T10:26:30Z</time>
      </trkpt>
      <trkpt lat="46.16252" lon="5.41971">
        <ele>334</ele>
        <time>2022-02-24T10:26:31Z</time>
      </trkpt>
      <trkpt lat="46.1625" lon="5.41968">
        <ele>334</ele>
        <time>2022-02-24T10:26:32Z</time>
      </trkpt>
      <trkpt lat="46.16249" lon="5.41964">
        <ele>334.4</ele>
        <time>2022-02-24T10:26:33Z</time>
      </trkpt>
      <trkpt lat="46.16247" lon="5.41961">
        <ele>334.4</ele>
        <time>2022-02-24T10:26:34Z</time>
      </trkpt>
      <trkpt lat="46.16245" lon="5.41958">
        <ele>334.6</ele>
        <time>2022-02-24T10:26:35Z</time>
      </trkpt>
      <trkpt lat="46.16243" lon="5.41954">
        <ele>334.6</ele>
        <time>2022-02-24T10:26:36Z</time>
      </trkpt>
      <trkpt lat="46.16241" lon="5.41951">
        <ele>335</ele>
        <time>2022-02-24T10:26:37Z</time>
      </trkpt>
      <trkpt lat="46.16239" lon="5.41948">
        <ele>335</ele>
        <time>2022-02-24T10:26:38Z</time>
      </trkpt>
      <trkpt lat="46.16237" lon="5.41944">
        <ele>335.2</ele>
        <time>2022-02-24T10:26:39Z</time>
      </trkpt>
      <trkpt lat="46.16235" lon="5.41941">
        <ele>335.2</ele>
        <time>2022-02-24T10:26:40Z</time>
      </trkpt>
      <trkpt lat="46.16233" lon="5.41938">
        <ele>335.6</ele>
        <time>2022-02-24T10:26:41Z</time>
      </trkpt>
      <trkpt lat="46.16231" lon="5.41934">
        <ele>335.6</ele>
        <time>2022-02-24T10:26:42Z</time>
      </trkpt>
      <trkpt lat="46.16229" lon="5.4193">
        <ele>336</ele>
        <time>2022-02-24T10:26:43Z</time>
      </trkpt>
      <trkpt lat="46.16227" lon="5.41927">
        <ele>336</ele>
        <time>2022-02-24T10:26:44Z</time>
      </trkpt>
      <trkpt lat="46.16224" lon="5.41924">
        <ele>336.2</ele>
        <time>2022-02-24T10:26:45Z</time>
      </trkpt>
      <trkpt lat="46.16222" lon="5.4192">
        <ele>336.2</ele>
        <time>2022-02-24T10:26:46Z</time>
      </trkpt>
      <trkpt lat="46.1622" lon="5.41917">
        <ele>336.6</ele>
        <time>2022-02-24T10:26:47Z</time>
      </trkpt>
      <trkpt lat="46.16218" lon="5.41914">
        <ele>336.6</ele>
        <time>2022-02-24T10:26:48Z</time>
      </trkpt>
      <trkpt lat="46.16216" lon="5.41911">
        <ele>336.6</ele>
        <time>2022-02-24T10:26:49Z</time>
      </trkpt>
      <trkpt lat="46.16214" lon="5.41908">
        <ele>337</ele>
        <time>2022-02-24T10:26:50Z</time>
      </trkpt>
      <trkpt lat="46.1621" lon="5.41902">
        <ele>337</ele>
        <time>2022-02-24T10:26:51Z</time>
      </trkpt>
      <trkpt lat="46.1621" lon="5.41902">
        <ele>337.2</ele>
        <time>2022-02-24T10:26:52Z</time>
      </trkpt>
      <trkpt lat="46.16208" lon="5.41899">
        <ele>337.4</ele>
        <time>2022-02-24T10:26:53Z</time>
      </trkpt>
      <trkpt lat="46.16206" lon="5.41897">
        <ele>337.6</ele>
        <time>2022-02-24T10:26:54Z</time>
      </trkpt>
      <trkpt lat="46.16204" lon="5.41894">
        <ele>337.6</ele>
        <time>2022-02-24T10:26:55Z</time>
      </trkpt>
      <trkpt lat="46.16202" lon="5.41892">
        <ele>338</ele>
        <time>2022-02-24T10:26:56Z</time>
      </trkpt>
      <trkpt lat="46.162" lon="5.41889">
        <ele>338.2</ele>
        <time>2022-02-24T10:26:57Z</time>
      </trkpt>
      <trkpt lat="46.16198" lon="5.41886">
        <ele>338.6</ele>
        <time>2022-02-24T10:26:58Z</time>
      </trkpt>
      <trkpt lat="46.16196" lon="5.41884">
        <ele>338.8</ele>
        <time>2022-02-24T10:26:59Z</time>
      </trkpt>
      <trkpt lat="46.16194" lon="5.41881">
        <ele>338.8</ele>
        <time>2022-02-24T10:27:00Z</time>
      </trkpt>
      <trkpt lat="46.16192" lon="5.41879">
        <ele>339.2</ele>
        <time>2022-02-24T10:27:01Z</time>
      </trkpt>
      <trkpt lat="46.1619" lon="5.41877">
        <ele>339.2</ele>
        <time>2022-02-24T10:27:02Z</time>
      </trkpt>
      <trkpt lat="46.16188" lon="5.41875">
        <ele>339.4</ele>
        <time>2022-02-24T10:27:03Z</time>
      </trkpt>
      <trkpt lat="46.16186" lon="5.41872">
        <ele>339.4</ele>
        <time>2022-02-24T10:27:04Z</time>
      </trkpt>
      <trkpt lat="46.16184" lon="5.4187">
        <ele>339.8</ele>
        <time>2022-02-24T10:27:05Z</time>
      </trkpt>
      <trkpt lat="46.16182" lon="5.41868">
        <ele>340</ele>
        <time>2022-02-24T10:27:06Z</time>
      </trkpt>
      <trkpt lat="46.1618" lon="5.41866">
        <ele>340.4</ele>
        <time>2022-02-24T10:27:07Z</time>
      </trkpt>
      <trkpt lat="46.16178" lon="5.41864">
        <ele>340.4</ele>
        <time>2022-02-24T10:27:08Z</time>
      </trkpt>
      <trkpt lat="46.16177" lon="5.41861">
        <ele>340.8</ele>
        <time>2022-02-24T10:27:09Z</time>
      </trkpt>
      <trkpt lat="46.16175" lon="5.41859">
        <ele>340.8</ele>
        <time>2022-02-24T10:27:10Z</time>
      </trkpt>
      <trkpt lat="46.16173" lon="5.41856">
        <ele>341.2</ele>
        <time>2022-02-24T10:27:11Z</time>
      </trkpt>
      <trkpt lat="46.16172" lon="5.41854">
        <ele>341.4</ele>
        <time>2022-02-24T10:27:12Z</time>
      </trkpt>
      <trkpt lat="46.1617" lon="5.41852">
        <ele>341.4</ele>
        <time>2022-02-24T10:27:13Z</time>
      </trkpt>
      <trkpt lat="46.16169" lon="5.4185">
        <ele>341.8</ele>
        <time>2022-02-24T10:27:14Z</time>
      </trkpt>
      <trkpt lat="46.16167" lon="5.41848">
        <ele>341.8</ele>
        <time>2022-02-24T10:27:15Z</time>
      </trkpt>
      <trkpt lat="46.16165" lon="5.41846">
        <ele>342</ele>
        <time>2022-02-24T10:27:16Z</time>
      </trkpt>
      <trkpt lat="46.16163" lon="5.41844">
        <ele>342.2</ele>
        <time>2022-02-24T10:27:17Z</time>
      </trkpt>
      <trkpt lat="46.16161" lon="5.41842">
        <ele>342.6</ele>
        <time>2022-02-24T10:27:18Z</time>
      </trkpt>
      <trkpt lat="46.1616" lon="5.41841">
        <ele>342.8</ele>
        <time>2022-02-24T10:27:19Z</time>
      </trkpt>
      <trkpt lat="46.16158" lon="5.41839">
        <ele>342.8</ele>
        <time>2022-02-24T10:27:20Z</time>
      </trkpt>
      <trkpt lat="46.16156" lon="5.41838">
        <ele>343</ele>
        <time>2022-02-24T10:27:21Z</time>
      </trkpt>
      <trkpt lat="46.16154" lon="5.41836">
        <ele>343</ele>
        <time>2022-02-24T10:27:22Z</time>
      </trkpt>
      <trkpt lat="46.16152" lon="5.41834">
        <ele>343.4</ele>
        <time>2022-02-24T10:27:23Z</time>
      </trkpt>
      <trkpt lat="46.1615" lon="5.41832">
        <ele>343.4</ele>
        <time>2022-02-24T10:27:24Z</time>
      </trkpt>
      <trkpt lat="46.16148" lon="5.4183">
        <ele>343.6</ele>
        <time>2022-02-24T10:27:25Z</time>
      </trkpt>
      <trkpt lat="46.16146" lon="5.41828">
        <ele>343.8</ele>
        <time>2022-02-24T10:27:26Z</time>
      </trkpt>
      <trkpt lat="46.16144" lon="5.41826">
        <ele>343.8</ele>
        <time>2022-02-24T10:27:27Z</time>
      </trkpt>
      <trkpt lat="46.16141" lon="5.41825">
        <ele>344.2</ele>
        <time>2022-02-24T10:27:28Z</time>
      </trkpt>
      <trkpt lat="46.16139" lon="5.41824">
        <ele>344.2</ele>
        <time>2022-02-24T10:27:29Z</time>
      </trkpt>
      <trkpt lat="46.16136" lon="5.41823">
        <ele>344.4</ele>
        <time>2022-02-24T10:27:30Z</time>
      </trkpt>
      <trkpt lat="46.16134" lon="5.41822">
        <ele>344.4</ele>
        <time>2022-02-24T10:27:31Z</time>
      </trkpt>
      <trkpt lat="46.16132" lon="5.41821">
        <ele>344.8</ele>
        <time>2022-02-24T10:27:32Z</time>
      </trkpt>
      <trkpt lat="46.16129" lon="5.4182">
        <ele>344.8</ele>
        <time>2022-02-24T10:27:33Z</time>
      </trkpt>
      <trkpt lat="46.16127" lon="5.41819">
        <ele>345</ele>
        <time>2022-02-24T10:27:34Z</time>
      </trkpt>
      <trkpt lat="46.16125" lon="5.41819">
        <ele>345</ele>
        <time>2022-02-24T10:27:35Z</time>
      </trkpt>
      <trkpt lat="46.16122" lon="5.41818">
        <ele>345.2</ele>
        <time>2022-02-24T10:27:36Z</time>
      </trkpt>
      <trkpt lat="46.1612" lon="5.41818">
        <ele>345.2</ele>
        <time>2022-02-24T10:27:37Z</time>
      </trkpt>
      <trkpt lat="46.16117" lon="5.41817">
        <ele>345.6</ele>
        <time>2022-02-24T10:27:38Z</time>
      </trkpt>
      <trkpt lat="46.16115" lon="5.41817">
        <ele>345.6</ele>
        <time>2022-02-24T10:27:39Z</time>
      </trkpt>
      <trkpt lat="46.16112" lon="5.41817">
        <ele>346</ele>
        <time>2022-02-24T10:27:40Z</time>
      </trkpt>
      <trkpt lat="46.16109" lon="5.41817">
        <ele>346</ele>
        <time>2022-02-24T10:27:41Z</time>
      </trkpt>
      <trkpt lat="46.16107" lon="5.41817">
        <ele>346.2</ele>
        <time>2022-02-24T10:27:42Z</time>
      </trkpt>
      <trkpt lat="46.16104" lon="5.41816">
        <ele>346.2</ele>
        <time>2022-02-24T10:27:43Z</time>
      </trkpt>
      <trkpt lat="46.16101" lon="5.41816">
        <ele>346.4</ele>
        <time>2022-02-24T10:27:44Z</time>
      </trkpt>
      <trkpt lat="46.16098" lon="5.41816">
        <ele>346.6</ele>
        <time>2022-02-24T10:27:45Z</time>
      </trkpt>
      <trkpt lat="46.16096" lon="5.41815">
        <ele>346.6</ele>
        <time>2022-02-24T10:27:46Z</time>
      </trkpt>
      <trkpt lat="46.16093" lon="5.41814">
        <ele>346.8</ele>
        <time>2022-02-24T10:27:47Z</time>
      </trkpt>
      <trkpt lat="46.16091" lon="5.41813">
        <ele>347.2</ele>
        <time>2022-02-24T10:27:48Z</time>
      </trkpt>
      <trkpt lat="46.16089" lon="5.41811">
        <ele>347.2</ele>
        <time>2022-02-24T10:27:49Z</time>
      </trkpt>
      <trkpt lat="46.16088" lon="5.41808">
        <ele>347.4</ele>
        <time>2022-02-24T10:27:50Z</time>
      </trkpt>
      <trkpt lat="46.16086" lon="5.41805">
        <ele>347.4</ele>
        <time>2022-02-24T10:27:51Z</time>
      </trkpt>
      <trkpt lat="46.16085" lon="5.41802">
        <ele>347.8</ele>
        <time>2022-02-24T10:27:52Z</time>
      </trkpt>
      <trkpt lat="46.16084" lon="5.41799">
        <ele>348</ele>
        <time>2022-02-24T10:27:53Z</time>
      </trkpt>
      <trkpt lat="46.16082" lon="5.41796">
        <ele>348</ele>
        <time>2022-02-24T10:27:54Z</time>
      </trkpt>
      <trkpt lat="46.1608" lon="5.41794">
        <ele>348.4</ele>
        <time>2022-02-24T10:27:55Z</time>
      </trkpt>
      <trkpt lat="46.16079" lon="5.41791">
        <ele>348.6</ele>
        <time>2022-02-24T10:27:56Z</time>
      </trkpt>
      <trkpt lat="46.16077" lon="5.41788">
        <ele>348.8</ele>
        <time>2022-02-24T10:27:57Z</time>
      </trkpt>
      <trkpt lat="46.16076" lon="5.41784">
        <ele>349</ele>
        <time>2022-02-24T10:27:58Z</time>
      </trkpt>
      <trkpt lat="46.16074" lon="5.41781">
        <ele>349</ele>
        <time>2022-02-24T10:27:59Z</time>
      </trkpt>
      <trkpt lat="46.16072" lon="5.41778">
        <ele>349.4</ele>
        <time>2022-02-24T10:28:00Z</time>
      </trkpt>
      <trkpt lat="46.16071" lon="5.41775">
        <ele>349.4</ele>
        <time>2022-02-24T10:28:01Z</time>
      </trkpt>
      <trkpt lat="46.16068" lon="5.41772">
        <ele>349.6</ele>
        <time>2022-02-24T10:28:02Z</time>
      </trkpt>
      <trkpt lat="46.16066" lon="5.4177">
        <ele>349.6</ele>
        <time>2022-02-24T10:28:03Z</time>
      </trkpt>
      <trkpt lat="46.16064" lon="5.41767">
        <ele>349.8</ele>
        <time>2022-02-24T10:28:04Z</time>
      </trkpt>
      <trkpt lat="46.16062" lon="5.41765">
        <ele>349.8</ele>
        <time>2022-02-24T10:28:05Z</time>
      </trkpt>
      <trkpt lat="46.1606" lon="5.41763">
        <ele>350</ele>
        <time>2022-02-24T10:28:06Z</time>
      </trkpt>
      <trkpt lat="46.16058" lon="5.4176">
        <ele>350</ele>
        <time>2022-02-24T10:28:07Z</time>
      </trkpt>
      <trkpt lat="46.16056" lon="5.41759">
        <ele>350.2</ele>
        <time>2022-02-24T10:28:08Z</time>
      </trkpt>
      <trkpt lat="46.16054" lon="5.41757">
        <ele>350.4</ele>
        <time>2022-02-24T10:28:09Z</time>
      </trkpt>
      <trkpt lat="46.16052" lon="5.41755">
        <ele>350.4</ele>
        <time>2022-02-24T10:28:10Z</time>
      </trkpt>
      <trkpt lat="46.1605" lon="5.41753">
        <ele>350.6</ele>
        <time>2022-02-24T10:28:11Z</time>
      </trkpt>
      <trkpt lat="46.16047" lon="5.41752">
        <ele>350.6</ele>
        <time>2022-02-24T10:28:12Z</time>
      </trkpt>
      <trkpt lat="46.16045" lon="5.4175">
        <ele>351</ele>
        <time>2022-02-24T10:28:13Z</time>
      </trkpt>
      <trkpt lat="46.16042" lon="5.41749">
        <ele>351</ele>
        <time>2022-02-24T10:28:14Z</time>
      </trkpt>
      <trkpt lat="46.1604" lon="5.41748">
        <ele>351.2</ele>
        <time>2022-02-24T10:28:15Z</time>
      </trkpt>
      <trkpt lat="46.16037" lon="5.41747">
        <ele>351.2</ele>
        <time>2022-02-24T10:28:16Z</time>
      </trkpt>
      <trkpt lat="46.16034" lon="5.41746">
        <ele>351.2</ele>
        <time>2022-02-24T10:28:17Z</time>
      </trkpt>
      <trkpt lat="46.16031" lon="5.41746">
        <ele>351.2</ele>
        <time>2022-02-24T10:28:18Z</time>
      </trkpt>
      <trkpt lat="46.16029" lon="5.41747">
        <ele>351.2</ele>
        <time>2022-02-24T10:28:19Z</time>
      </trkpt>
      <trkpt lat="46.16026" lon="5.41748">
        <ele>351.2</ele>
        <time>2022-02-24T10:28:20Z</time>
      </trkpt>
      <trkpt lat="46.16023" lon="5.41748">
        <ele>351.2</ele>
        <time>2022-02-24T10:28:21Z</time>
      </trkpt>
      <trkpt lat="46.1602" lon="5.41749">
        <ele>351.2</ele>
        <time>2022-02-24T10:28:22Z</time>
      </trkpt>
      <trkpt lat="46.16017" lon="5.41749">
        <ele>351.2</ele>
        <time>2022-02-24T10:28:23Z</time>
      </trkpt>
      <trkpt lat="46.16014" lon="5.41749">
        <ele>351</ele>
        <time>2022-02-24T10:28:24Z</time>
      </trkpt>
      <trkpt lat="46.16009" lon="5.41748">
        <ele>350.8</ele>
        <time>2022-02-24T10:28:25Z</time>
      </trkpt>
      <trkpt lat="46.16005" lon="5.41747">
        <ele>350.4</ele>
        <time>2022-02-24T10:28:26Z</time>
      </trkpt>
      <trkpt lat="46.16001" lon="5.41746">
        <ele>350.2</ele>
        <time>2022-02-24T10:28:27Z</time>
      </trkpt>
      <trkpt lat="46.15996" lon="5.41744">
        <ele>349.8</ele>
        <time>2022-02-24T10:28:28Z</time>
      </trkpt>
      <trkpt lat="46.15991" lon="5.41741">
        <ele>349.6</ele>
        <time>2022-02-24T10:28:29Z</time>
      </trkpt>
      <trkpt lat="46.15985" lon="5.41739">
        <ele>349.4</ele>
        <time>2022-02-24T10:28:30Z</time>
      </trkpt>
      <trkpt lat="46.1598" lon="5.41737">
        <ele>349</ele>
        <time>2022-02-24T10:28:31Z</time>
      </trkpt>
      <trkpt lat="46.15974" lon="5.41735">
        <ele>348.6</ele>
        <time>2022-02-24T10:28:32Z</time>
      </trkpt>
      <trkpt lat="46.15969" lon="5.41732">
        <ele>348.4</ele>
        <time>2022-02-24T10:28:33Z</time>
      </trkpt>
      <trkpt lat="46.15964" lon="5.4173">
        <ele>348</ele>
        <time>2022-02-24T10:28:34Z</time>
      </trkpt>
      <trkpt lat="46.1596" lon="5.41729">
        <ele>347.8</ele>
        <time>2022-02-24T10:28:35Z</time>
      </trkpt>
      <trkpt lat="46.15957" lon="5.41727">
        <ele>347.6</ele>
        <time>2022-02-24T10:28:36Z</time>
      </trkpt>
      <trkpt lat="46.15953" lon="5.41726">
        <ele>347.6</ele>
        <time>2022-02-24T10:28:37Z</time>
      </trkpt>
      <trkpt lat="46.15951" lon="5.41724">
        <ele>347.2</ele>
        <time>2022-02-24T10:28:38Z</time>
      </trkpt>
      <trkpt lat="46.15949" lon="5.41723">
        <ele>347.2</ele>
        <time>2022-02-24T10:28:39Z</time>
      </trkpt>
      <trkpt lat="46.15947" lon="5.41722">
        <ele>347.2</ele>
        <time>2022-02-24T10:28:40Z</time>
      </trkpt>
      <trkpt lat="46.15945" lon="5.41721">
        <ele>347</ele>
        <time>2022-02-24T10:28:41Z</time>
      </trkpt>
      <trkpt lat="46.15943" lon="5.41721">
        <ele>347</ele>
        <time>2022-02-24T10:28:42Z</time>
      </trkpt>
      <trkpt lat="46.1594" lon="5.4172">
        <ele>347</ele>
        <time>2022-02-24T10:28:43Z</time>
      </trkpt>
      <trkpt lat="46.15938" lon="5.4172">
        <ele>346.8</ele>
        <time>2022-02-24T10:28:44Z</time>
      </trkpt>
      <trkpt lat="46.15935" lon="5.41719">
        <ele>346.8</ele>
        <time>2022-02-24T10:28:45Z</time>
      </trkpt>
      <trkpt lat="46.15932" lon="5.41719">
        <ele>346.8</ele>
        <time>2022-02-24T10:28:46Z</time>
      </trkpt>
      <trkpt lat="46.15929" lon="5.41718">
        <ele>346.8</ele>
        <time>2022-02-24T10:28:47Z</time>
      </trkpt>
      <trkpt lat="46.15926" lon="5.41718">
        <ele>346.8</ele>
        <time>2022-02-24T10:28:48Z</time>
      </trkpt>
      <trkpt lat="46.15922" lon="5.41717">
        <ele>346.8</ele>
        <time>2022-02-24T10:28:49Z</time>
      </trkpt>
      <trkpt lat="46.15919" lon="5.41716">
        <ele>346.8</ele>
        <time>2022-02-24T10:28:50Z</time>
      </trkpt>
      <trkpt lat="46.15916" lon="5.41716">
        <ele>346.8</ele>
        <time>2022-02-24T10:28:51Z</time>
      </trkpt>
      <trkpt lat="46.15913" lon="5.41715">
        <ele>346.8</ele>
        <time>2022-02-24T10:28:52Z</time>
      </trkpt>
      <trkpt lat="46.15911" lon="5.41714">
        <ele>346.8</ele>
        <time>2022-02-24T10:28:53Z</time>
      </trkpt>
      <trkpt lat="46.15908" lon="5.41714">
        <ele>346.8</ele>
        <time>2022-02-24T10:28:54Z</time>
      </trkpt>
      <trkpt lat="46.15905" lon="5.41713">
        <ele>346.8</ele>
        <time>2022-02-24T10:28:55Z</time>
      </trkpt>
      <trkpt lat="46.15902" lon="5.41712">
        <ele>346.8</ele>
        <time>2022-02-24T10:28:56Z</time>
      </trkpt>
      <trkpt lat="46.15899" lon="5.41711">
        <ele>347</ele>
        <time>2022-02-24T10:28:57Z</time>
      </trkpt>
      <trkpt lat="46.15896" lon="5.4171">
        <ele>347</ele>
        <time>2022-02-24T10:28:58Z</time>
      </trkpt>
      <trkpt lat="46.15894" lon="5.41708">
        <ele>347</ele>
        <time>2022-02-24T10:28:59Z</time>
      </trkpt>
      <trkpt lat="46.15891" lon="5.41706">
        <ele>347.2</ele>
        <time>2022-02-24T10:29:00Z</time>
      </trkpt>
      <trkpt lat="46.15889" lon="5.41705">
        <ele>347.2</ele>
        <time>2022-02-24T10:29:01Z</time>
      </trkpt>
      <trkpt lat="46.15886" lon="5.41703">
        <ele>347.2</ele>
        <time>2022-02-24T10:29:02Z</time>
      </trkpt>
      <trkpt lat="46.15884" lon="5.41701">
        <ele>347.4</ele>
        <time>2022-02-24T10:29:03Z</time>
      </trkpt>
      <trkpt lat="46.15881" lon="5.417">
        <ele>347.4</ele>
        <time>2022-02-24T10:29:04Z</time>
      </trkpt>
      <trkpt lat="46.15879" lon="5.41698">
        <ele>347.4</ele>
        <time>2022-02-24T10:29:05Z</time>
      </trkpt>
      <trkpt lat="46.15877" lon="5.41696">
        <ele>347.8</ele>
        <time>2022-02-24T10:29:06Z</time>
      </trkpt>
      <trkpt lat="46.15875" lon="5.41694">
        <ele>348</ele>
        <time>2022-02-24T10:29:07Z</time>
      </trkpt>
      <trkpt lat="46.15873" lon="5.41694">
        <ele>348.2</ele>
        <time>2022-02-24T10:29:08Z</time>
      </trkpt>
      <trkpt lat="46.1587" lon="5.41693">
        <ele>348.2</ele>
        <time>2022-02-24T10:29:09Z</time>
      </trkpt>
      <trkpt lat="46.15868" lon="5.41692">
        <ele>348.8</ele>
        <time>2022-02-24T10:29:10Z</time>
      </trkpt>
      <trkpt lat="46.15866" lon="5.41691">
        <ele>348.8</ele>
        <time>2022-02-24T10:29:11Z</time>
      </trkpt>
      <trkpt lat="46.15863" lon="5.41689">
        <ele>349.2</ele>
        <time>2022-02-24T10:29:12Z</time>
      </trkpt>
      <trkpt lat="46.15861" lon="5.41688">
        <ele>349.4</ele>
        <time>2022-02-24T10:29:13Z</time>
      </trkpt>
      <trkpt lat="46.15858" lon="5.41687">
        <ele>349.4</ele>
        <time>2022-02-24T10:29:14Z</time>
      </trkpt>
      <trkpt lat="46.15855" lon="5.41687">
        <ele>350</ele>
        <time>2022-02-24T10:29:15Z</time>
      </trkpt>
      <trkpt lat="46.15853" lon="5.41686">
        <ele>350</ele>
        <time>2022-02-24T10:29:16Z</time>
      </trkpt>
      <trkpt lat="46.1585" lon="5.41686">
        <ele>350.2</ele>
        <time>2022-02-24T10:29:17Z</time>
      </trkpt>
      <trkpt lat="46.15848" lon="5.41685">
        <ele>350.2</ele>
        <time>2022-02-24T10:29:18Z</time>
      </trkpt>
      <trkpt lat="46.15845" lon="5.41685">
        <ele>350.6</ele>
        <time>2022-02-24T10:29:19Z</time>
      </trkpt>
      <trkpt lat="46.15843" lon="5.41684">
        <ele>350.6</ele>
        <time>2022-02-24T10:29:20Z</time>
      </trkpt>
      <trkpt lat="46.1584" lon="5.41684">
        <ele>350.8</ele>
        <time>2022-02-24T10:29:21Z</time>
      </trkpt>
      <trkpt lat="46.15838" lon="5.41684">
        <ele>351</ele>
        <time>2022-02-24T10:29:22Z</time>
      </trkpt>
      <trkpt lat="46.15835" lon="5.41684">
        <ele>351</ele>
        <time>2022-02-24T10:29:23Z</time>
      </trkpt>
      <trkpt lat="46.15833" lon="5.41684">
        <ele>351.4</ele>
        <time>2022-02-24T10:29:24Z</time>
      </trkpt>
      <trkpt lat="46.1583" lon="5.41684">
        <ele>351.4</ele>
        <time>2022-02-24T10:29:25Z</time>
      </trkpt>
      <trkpt lat="46.15828" lon="5.41685">
        <ele>351.6</ele>
        <time>2022-02-24T10:29:26Z</time>
      </trkpt>
      <trkpt lat="46.15825" lon="5.41685">
        <ele>351.6</ele>
        <time>2022-02-24T10:29:27Z</time>
      </trkpt>
      <trkpt lat="46.15823" lon="5.41686">
        <ele>351.8</ele>
        <time>2022-02-24T10:29:28Z</time>
      </trkpt>
      <trkpt lat="46.1582" lon="5.41687">
        <ele>351.8</ele>
        <time>2022-02-24T10:29:29Z</time>
      </trkpt>
      <trkpt lat="46.15817" lon="5.41688">
        <ele>352.2</ele>
        <time>2022-02-24T10:29:30Z</time>
      </trkpt>
      <trkpt lat="46.15815" lon="5.4169">
        <ele>352.2</ele>
        <time>2022-02-24T10:29:31Z</time>
      </trkpt>
      <trkpt lat="46.15812" lon="5.41691">
        <ele>352.4</ele>
        <time>2022-02-24T10:29:32Z</time>
      </trkpt>
      <trkpt lat="46.1581" lon="5.41693">
        <ele>352.4</ele>
        <time>2022-02-24T10:29:33Z</time>
      </trkpt>
      <trkpt lat="46.15807" lon="5.41694">
        <ele>352.4</ele>
        <time>2022-02-24T10:29:34Z</time>
      </trkpt>
      <trkpt lat="46.15804" lon="5.41695">
        <ele>352.6</ele>
        <time>2022-02-24T10:29:35Z</time>
      </trkpt>
      <trkpt lat="46.15802" lon="5.41697">
        <ele>352.6</ele>
        <time>2022-02-24T10:29:36Z</time>
      </trkpt>
      <trkpt lat="46.15799" lon="5.41698">
        <ele>353</ele>
        <time>2022-02-24T10:29:37Z</time>
      </trkpt>
      <trkpt lat="46.15797" lon="5.417">
        <ele>353</ele>
        <time>2022-02-24T10:29:38Z</time>
      </trkpt>
      <trkpt lat="46.15795" lon="5.41702">
        <ele>353.4</ele>
        <time>2022-02-24T10:29:39Z</time>
      </trkpt>
      <trkpt lat="46.15792" lon="5.41704">
        <ele>353.4</ele>
        <time>2022-02-24T10:29:40Z</time>
      </trkpt>
      <trkpt lat="46.1579" lon="5.41707">
        <ele>353.6</ele>
        <time>2022-02-24T10:29:41Z</time>
      </trkpt>
      <trkpt lat="46.15787" lon="5.41709">
        <ele>353.6</ele>
        <time>2022-02-24T10:29:42Z</time>
      </trkpt>
      <trkpt lat="46.15785" lon="5.41711">
        <ele>353.8</ele>
        <time>2022-02-24T10:29:43Z</time>
      </trkpt>
      <trkpt lat="46.15782" lon="5.41714">
        <ele>353.8</ele>
        <time>2022-02-24T10:29:44Z</time>
      </trkpt>
      <trkpt lat="46.1578" lon="5.41716">
        <ele>353.8</ele>
        <time>2022-02-24T10:29:45Z</time>
      </trkpt>
      <trkpt lat="46.15777" lon="5.41718">
        <ele>354</ele>
        <time>2022-02-24T10:29:46Z</time>
      </trkpt>
      <trkpt lat="46.15774" lon="5.4172">
        <ele>354</ele>
        <time>2022-02-24T10:29:47Z</time>
      </trkpt>
      <trkpt lat="46.15771" lon="5.41722">
        <ele>354</ele>
        <time>2022-02-24T10:29:48Z</time>
      </trkpt>
      <trkpt lat="46.15768" lon="5.41724">
        <ele>354.2</ele>
        <time>2022-02-24T10:29:49Z</time>
      </trkpt>
      <trkpt lat="46.15765" lon="5.41726">
        <ele>354.2</ele>
        <time>2022-02-24T10:29:50Z</time>
      </trkpt>
      <trkpt lat="46.15762" lon="5.41729">
        <ele>354.2</ele>
        <time>2022-02-24T10:29:51Z</time>
      </trkpt>
      <trkpt lat="46.15759" lon="5.41732">
        <ele>354.6</ele>
        <time>2022-02-24T10:29:52Z</time>
      </trkpt>
      <trkpt lat="46.15756" lon="5.41736">
        <ele>354.6</ele>
        <time>2022-02-24T10:29:53Z</time>
      </trkpt>
      <trkpt lat="46.15753" lon="5.41739">
        <ele>354.6</ele>
        <time>2022-02-24T10:29:54Z</time>
      </trkpt>
      <trkpt lat="46.15749" lon="5.41743">
        <ele>354.6</ele>
        <time>2022-02-24T10:29:55Z</time>
      </trkpt>
      <trkpt lat="46.15746" lon="5.41747">
        <ele>354.6</ele>
        <time>2022-02-24T10:29:56Z</time>
      </trkpt>
      <trkpt lat="46.15743" lon="5.41751">
        <ele>354.2</ele>
        <time>2022-02-24T10:29:57Z</time>
      </trkpt>
      <trkpt lat="46.15739" lon="5.41755">
        <ele>354.2</ele>
        <time>2022-02-24T10:29:58Z</time>
      </trkpt>
      <trkpt lat="46.15735" lon="5.41758">
        <ele>354.2</ele>
        <time>2022-02-24T10:29:59Z</time>
      </trkpt>
      <trkpt lat="46.15731" lon="5.41762">
        <ele>354.2</ele>
        <time>2022-02-24T10:30:00Z</time>
      </trkpt>
      <trkpt lat="46.15727" lon="5.41765">
        <ele>354</ele>
        <time>2022-02-24T10:30:01Z</time>
      </trkpt>
      <trkpt lat="46.15722" lon="5.41768">
        <ele>354</ele>
        <time>2022-02-24T10:30:02Z</time>
      </trkpt>
      <trkpt lat="46.15718" lon="5.41771">
        <ele>353.6</ele>
        <time>2022-02-24T10:30:03Z</time>
      </trkpt>
      <trkpt lat="46.15713" lon="5.41774">
        <ele>353.4</ele>
        <time>2022-02-24T10:30:04Z</time>
      </trkpt>
      <trkpt lat="46.15708" lon="5.41777">
        <ele>353.2</ele>
        <time>2022-02-24T10:30:05Z</time>
      </trkpt>
      <trkpt lat="46.15703" lon="5.41779">
        <ele>353.2</ele>
        <time>2022-02-24T10:30:06Z</time>
      </trkpt>
      <trkpt lat="46.15697" lon="5.41782">
        <ele>352.8</ele>
        <time>2022-02-24T10:30:07Z</time>
      </trkpt>
      <trkpt lat="46.15692" lon="5.41784">
        <ele>352.8</ele>
        <time>2022-02-24T10:30:08Z</time>
      </trkpt>
      <trkpt lat="46.15686" lon="5.41785">
        <ele>352.6</ele>
        <time>2022-02-24T10:30:09Z</time>
      </trkpt>
      <trkpt lat="46.1568" lon="5.41787">
        <ele>352.6</ele>
        <time>2022-02-24T10:30:10Z</time>
      </trkpt>
      <trkpt lat="46.15675" lon="5.41789">
        <ele>352.2</ele>
        <time>2022-02-24T10:30:11Z</time>
      </trkpt>
      <trkpt lat="46.15669" lon="5.41791">
        <ele>352.2</ele>
        <time>2022-02-24T10:30:12Z</time>
      </trkpt>
      <trkpt lat="46.15664" lon="5.41793">
        <ele>352.2</ele>
        <time>2022-02-24T10:30:13Z</time>
      </trkpt>
      <trkpt lat="46.15659" lon="5.41794">
        <ele>352</ele>
        <time>2022-02-24T10:30:14Z</time>
      </trkpt>
      <trkpt lat="46.15654" lon="5.41796">
        <ele>352</ele>
        <time>2022-02-24T10:30:15Z</time>
      </trkpt>
      <trkpt lat="46.15649" lon="5.41798">
        <ele>352</ele>
        <time>2022-02-24T10:30:16Z</time>
      </trkpt>
      <trkpt lat="46.15644" lon="5.418">
        <ele>352</ele>
        <time>2022-02-24T10:30:17Z</time>
      </trkpt>
      <trkpt lat="46.15639" lon="5.41802">
        <ele>352.2</ele>
        <time>2022-02-24T10:30:18Z</time>
      </trkpt>
      <trkpt lat="46.15634" lon="5.41803">
        <ele>352.2</ele>
        <time>2022-02-24T10:30:19Z</time>
      </trkpt>
      <trkpt lat="46.15629" lon="5.41805">
        <ele>352.4</ele>
        <time>2022-02-24T10:30:20Z</time>
      </trkpt>
      <trkpt lat="46.15625" lon="5.41806">
        <ele>352.4</ele>
        <time>2022-02-24T10:30:21Z</time>
      </trkpt>
      <trkpt lat="46.15621" lon="5.41808">
        <ele>352.4</ele>
        <time>2022-02-24T10:30:22Z</time>
      </trkpt>
      <trkpt lat="46.15616" lon="5.4181">
        <ele>352.8</ele>
        <time>2022-02-24T10:30:23Z</time>
      </trkpt>
      <trkpt lat="46.15612" lon="5.41811">
        <ele>353</ele>
        <time>2022-02-24T10:30:24Z</time>
      </trkpt>
      <trkpt lat="46.15608" lon="5.41812">
        <ele>353</ele>
        <time>2022-02-24T10:30:25Z</time>
      </trkpt>
      <trkpt lat="46.15605" lon="5.41814">
        <ele>353.4</ele>
        <time>2022-02-24T10:30:26Z</time>
      </trkpt>
      <trkpt lat="46.15601" lon="5.41815">
        <ele>353.6</ele>
        <time>2022-02-24T10:30:27Z</time>
      </trkpt>
      <trkpt lat="46.15598" lon="5.41817">
        <ele>353.6</ele>
        <time>2022-02-24T10:30:28Z</time>
      </trkpt>
      <trkpt lat="46.15594" lon="5.41818">
        <ele>353.8</ele>
        <time>2022-02-24T10:30:29Z</time>
      </trkpt>
      <trkpt lat="46.15591" lon="5.41819">
        <ele>354.2</ele>
        <time>2022-02-24T10:30:30Z</time>
      </trkpt>
      <trkpt lat="46.15587" lon="5.41821">
        <ele>354.2</ele>
        <time>2022-02-24T10:30:31Z</time>
      </trkpt>
      <trkpt lat="46.15584" lon="5.41822">
        <ele>354.4</ele>
        <time>2022-02-24T10:30:32Z</time>
      </trkpt>
      <trkpt lat="46.15581" lon="5.41823">
        <ele>354.6</ele>
        <time>2022-02-24T10:30:33Z</time>
      </trkpt>
      <trkpt lat="46.15578" lon="5.41825">
        <ele>354.6</ele>
        <time>2022-02-24T10:30:34Z</time>
      </trkpt>
      <trkpt lat="46.15574" lon="5.41826">
        <ele>355</ele>
        <time>2022-02-24T10:30:35Z</time>
      </trkpt>
      <trkpt lat="46.15571" lon="5.41828">
        <ele>355</ele>
        <time>2022-02-24T10:30:36Z</time>
      </trkpt>
      <trkpt lat="46.15567" lon="5.41829">
        <ele>355.4</ele>
        <time>2022-02-24T10:30:37Z</time>
      </trkpt>
      <trkpt lat="46.15564" lon="5.4183">
        <ele>355.6</ele>
        <time>2022-02-24T10:30:38Z</time>
      </trkpt>
      <trkpt lat="46.15561" lon="5.41832">
        <ele>356</ele>
        <time>2022-02-24T10:30:39Z</time>
      </trkpt>
      <trkpt lat="46.15558" lon="5.41834">
        <ele>356.2</ele>
        <time>2022-02-24T10:30:40Z</time>
      </trkpt>
      <trkpt lat="46.15554" lon="5.41836">
        <ele>356.4</ele>
        <time>2022-02-24T10:30:41Z</time>
      </trkpt>
      <trkpt lat="46.15551" lon="5.41837">
        <ele>356.8</ele>
        <time>2022-02-24T10:30:42Z</time>
      </trkpt>
      <trkpt lat="46.15547" lon="5.41839">
        <ele>357.2</ele>
        <time>2022-02-24T10:30:43Z</time>
      </trkpt>
      <trkpt lat="46.15544" lon="5.4184">
        <ele>357.6</ele>
        <time>2022-02-24T10:30:44Z</time>
      </trkpt>
      <trkpt lat="46.15541" lon="5.41842">
        <ele>357.8</ele>
        <time>2022-02-24T10:30:45Z</time>
      </trkpt>
      <trkpt lat="46.15537" lon="5.41844">
        <ele>358.2</ele>
        <time>2022-02-24T10:30:46Z</time>
      </trkpt>
      <trkpt lat="46.15534" lon="5.41845">
        <ele>358.6</ele>
        <time>2022-02-24T10:30:47Z</time>
      </trkpt>
      <trkpt lat="46.15531" lon="5.41847">
        <ele>358.8</ele>
        <time>2022-02-24T10:30:48Z</time>
      </trkpt>
      <trkpt lat="46.15528" lon="5.41848">
        <ele>359.2</ele>
        <time>2022-02-24T10:30:49Z</time>
      </trkpt>
      <trkpt lat="46.15525" lon="5.4185">
        <ele>359.2</ele>
        <time>2022-02-24T10:30:50Z</time>
      </trkpt>
      <trkpt lat="46.15522" lon="5.41852">
        <ele>359.6</ele>
        <time>2022-02-24T10:30:51Z</time>
      </trkpt>
      <trkpt lat="46.1552" lon="5.41853">
        <ele>359.8</ele>
        <time>2022-02-24T10:30:52Z</time>
      </trkpt>
      <trkpt lat="46.15517" lon="5.41855">
        <ele>359.8</ele>
        <time>2022-02-24T10:30:53Z</time>
      </trkpt>
      <trkpt lat="46.15514" lon="5.41856">
        <ele>360.2</ele>
        <time>2022-02-24T10:30:54Z</time>
      </trkpt>
      <trkpt lat="46.15511" lon="5.41857">
        <ele>360.2</ele>
        <time>2022-02-24T10:30:55Z</time>
      </trkpt>
      <trkpt lat="46.15509" lon="5.41859">
        <ele>360.4</ele>
        <time>2022-02-24T10:30:56Z</time>
      </trkpt>
      <trkpt lat="46.15506" lon="5.41859">
        <ele>360.8</ele>
        <time>2022-02-24T10:30:57Z</time>
      </trkpt>
      <trkpt lat="46.15503" lon="5.4186">
        <ele>360.8</ele>
        <time>2022-02-24T10:30:58Z</time>
      </trkpt>
      <trkpt lat="46.15501" lon="5.41861">
        <ele>361</ele>
        <time>2022-02-24T10:30:59Z</time>
      </trkpt>
      <trkpt lat="46.15501" lon="5.41861">
        <ele>361</ele>
        <time>2022-02-24T10:31:00Z</time>
      </trkpt>
      <trkpt lat="46.15498" lon="5.41862">
        <ele>361.2</ele>
        <time>2022-02-24T10:31:01Z</time>
      </trkpt>
      <trkpt lat="46.15492" lon="5.41865">
        <ele>361.2</ele>
        <time>2022-02-24T10:31:02Z</time>
      </trkpt>
      <trkpt lat="46.1549" lon="5.41866">
        <ele>361.4</ele>
        <time>2022-02-24T10:31:03Z</time>
      </trkpt>
      <trkpt lat="46.15487" lon="5.41867">
        <ele>361.4</ele>
        <time>2022-02-24T10:31:04Z</time>
      </trkpt>
      <trkpt lat="46.15484" lon="5.41868">
        <ele>361.8</ele>
        <time>2022-02-24T10:31:05Z</time>
      </trkpt>
      <trkpt lat="46.15481" lon="5.41868">
        <ele>361.8</ele>
        <time>2022-02-24T10:31:06Z</time>
      </trkpt>
      <trkpt lat="46.15478" lon="5.41869">
        <ele>362</ele>
        <time>2022-02-24T10:31:07Z</time>
      </trkpt>
      <trkpt lat="46.15475" lon="5.4187">
        <ele>362.4</ele>
        <time>2022-02-24T10:31:08Z</time>
      </trkpt>
      <trkpt lat="46.15473" lon="5.41871">
        <ele>362.4</ele>
        <time>2022-02-24T10:31:09Z</time>
      </trkpt>
      <trkpt lat="46.1547" lon="5.41871">
        <ele>362.6</ele>
        <time>2022-02-24T10:31:10Z</time>
      </trkpt>
      <trkpt lat="46.15467" lon="5.41872">
        <ele>362.6</ele>
        <time>2022-02-24T10:31:11Z</time>
      </trkpt>
      <trkpt lat="46.15464" lon="5.41873">
        <ele>362.8</ele>
        <time>2022-02-24T10:31:12Z</time>
      </trkpt>
      <trkpt lat="46.15461" lon="5.41874">
        <ele>362.8</ele>
        <time>2022-02-24T10:31:13Z</time>
      </trkpt>
      <trkpt lat="46.15458" lon="5.41874">
        <ele>363.2</ele>
        <time>2022-02-24T10:31:14Z</time>
      </trkpt>
      <trkpt lat="46.15455" lon="5.41875">
        <ele>363.2</ele>
        <time>2022-02-24T10:31:15Z</time>
      </trkpt>
      <trkpt lat="46.15453" lon="5.41874">
        <ele>363.4</ele>
        <time>2022-02-24T10:31:16Z</time>
      </trkpt>
      <trkpt lat="46.1545" lon="5.41874">
        <ele>363.4</ele>
        <time>2022-02-24T10:31:17Z</time>
      </trkpt>
      <trkpt lat="46.15447" lon="5.41873">
        <ele>363.6</ele>
        <time>2022-02-24T10:31:18Z</time>
      </trkpt>
      <trkpt lat="46.15444" lon="5.41873">
        <ele>363.6</ele>
        <time>2022-02-24T10:31:19Z</time>
      </trkpt>
      <trkpt lat="46.15441" lon="5.41872">
        <ele>363.8</ele>
        <time>2022-02-24T10:31:20Z</time>
      </trkpt>
      <trkpt lat="46.15438" lon="5.41872">
        <ele>363.8</ele>
        <time>2022-02-24T10:31:21Z</time>
      </trkpt>
      <trkpt lat="46.15435" lon="5.41872">
        <ele>364.2</ele>
        <time>2022-02-24T10:31:22Z</time>
      </trkpt>
      <trkpt lat="46.15432" lon="5.41872">
        <ele>364.2</ele>
        <time>2022-02-24T10:31:23Z</time>
      </trkpt>
      <trkpt lat="46.15429" lon="5.41872">
        <ele>364.6</ele>
        <time>2022-02-24T10:31:24Z</time>
      </trkpt>
      <trkpt lat="46.15427" lon="5.41872">
        <ele>364.8</ele>
        <time>2022-02-24T10:31:25Z</time>
      </trkpt>
      <trkpt lat="46.15424" lon="5.41872">
        <ele>364.8</ele>
        <time>2022-02-24T10:31:26Z</time>
      </trkpt>
      <trkpt lat="46.15421" lon="5.41872">
        <ele>365.2</ele>
        <time>2022-02-24T10:31:27Z</time>
      </trkpt>
      <trkpt lat="46.15418" lon="5.41872">
        <ele>365.2</ele>
        <time>2022-02-24T10:31:28Z</time>
      </trkpt>
      <trkpt lat="46.15415" lon="5.41871">
        <ele>365.6</ele>
        <time>2022-02-24T10:31:29Z</time>
      </trkpt>
      <trkpt lat="46.15413" lon="5.41872">
        <ele>365.6</ele>
        <time>2022-02-24T10:31:30Z</time>
      </trkpt>
      <trkpt lat="46.1541" lon="5.41872">
        <ele>366</ele>
        <time>2022-02-24T10:31:31Z</time>
      </trkpt>
      <trkpt lat="46.15408" lon="5.41872">
        <ele>366</ele>
        <time>2022-02-24T10:31:32Z</time>
      </trkpt>
      <trkpt lat="46.15405" lon="5.41871">
        <ele>366.2</ele>
        <time>2022-02-24T10:31:33Z</time>
      </trkpt>
      <trkpt lat="46.15402" lon="5.41871">
        <ele>366.6</ele>
        <time>2022-02-24T10:31:34Z</time>
      </trkpt>
      <trkpt lat="46.154" lon="5.4187">
        <ele>366.6</ele>
        <time>2022-02-24T10:31:35Z</time>
      </trkpt>
      <trkpt lat="46.15397" lon="5.4187">
        <ele>366.8</ele>
        <time>2022-02-24T10:31:36Z</time>
      </trkpt>
      <trkpt lat="46.15394" lon="5.41869">
        <ele>366.8</ele>
        <time>2022-02-24T10:31:37Z</time>
      </trkpt>
      <trkpt lat="46.15391" lon="5.41869">
        <ele>367.2</ele>
        <time>2022-02-24T10:31:38Z</time>
      </trkpt>
      <trkpt lat="46.15388" lon="5.41868">
        <ele>367.2</ele>
        <time>2022-02-24T10:31:39Z</time>
      </trkpt>
      <trkpt lat="46.15386" lon="5.41868">
        <ele>367.6</ele>
        <time>2022-02-24T10:31:40Z</time>
      </trkpt>
      <trkpt lat="46.15383" lon="5.41868">
        <ele>367.6</ele>
        <time>2022-02-24T10:31:41Z</time>
      </trkpt>
      <trkpt lat="46.15379" lon="5.41867">
        <ele>367.6</ele>
        <time>2022-02-24T10:31:42Z</time>
      </trkpt>
      <trkpt lat="46.15376" lon="5.41867">
        <ele>367.8</ele>
        <time>2022-02-24T10:31:43Z</time>
      </trkpt>
      <trkpt lat="46.15373" lon="5.41866">
        <ele>367.8</ele>
        <time>2022-02-24T10:31:44Z</time>
      </trkpt>
      <trkpt lat="46.15369" lon="5.41866">
        <ele>368.2</ele>
        <time>2022-02-24T10:31:45Z</time>
      </trkpt>
      <trkpt lat="46.15366" lon="5.41865">
        <ele>368.2</ele>
        <time>2022-02-24T10:31:46Z</time>
      </trkpt>
      <trkpt lat="46.15362" lon="5.41864">
        <ele>368.4</ele>
        <time>2022-02-24T10:31:47Z</time>
      </trkpt>
      <trkpt lat="46.15358" lon="5.41864">
        <ele>368.4</ele>
        <time>2022-02-24T10:31:48Z</time>
      </trkpt>
      <trkpt lat="46.15355" lon="5.41863">
        <ele>368.6</ele>
        <time>2022-02-24T10:31:49Z</time>
      </trkpt>
      <trkpt lat="46.15351" lon="5.41862">
        <ele>368.6</ele>
        <time>2022-02-24T10:31:50Z</time>
      </trkpt>
      <trkpt lat="46.15348" lon="5.41861">
        <ele>369</ele>
        <time>2022-02-24T10:31:51Z</time>
      </trkpt>
      <trkpt lat="46.15344" lon="5.41861">
        <ele>369</ele>
        <time>2022-02-24T10:31:52Z</time>
      </trkpt>
      <trkpt lat="46.15341" lon="5.4186">
        <ele>369.2</ele>
        <time>2022-02-24T10:31:53Z</time>
      </trkpt>
      <trkpt lat="46.15337" lon="5.4186">
        <ele>369.4</ele>
        <time>2022-02-24T10:31:54Z</time>
      </trkpt>
      <trkpt lat="46.15334" lon="5.41859">
        <ele>369.4</ele>
        <time>2022-02-24T10:31:55Z</time>
      </trkpt>
      <trkpt lat="46.1533" lon="5.41858">
        <ele>369.8</ele>
        <time>2022-02-24T10:31:56Z</time>
      </trkpt>
      <trkpt lat="46.15327" lon="5.41858">
        <ele>369.8</ele>
        <time>2022-02-24T10:31:57Z</time>
      </trkpt>
      <trkpt lat="46.15323" lon="5.41857">
        <ele>370</ele>
        <time>2022-02-24T10:31:58Z</time>
      </trkpt>
      <trkpt lat="46.1532" lon="5.41857">
        <ele>370.4</ele>
        <time>2022-02-24T10:31:59Z</time>
      </trkpt>
      <trkpt lat="46.15317" lon="5.41856">
        <ele>370.4</ele>
        <time>2022-02-24T10:32:00Z</time>
      </trkpt>
      <trkpt lat="46.15313" lon="5.41856">
        <ele>370.6</ele>
        <time>2022-02-24T10:32:01Z</time>
      </trkpt>
      <trkpt lat="46.1531" lon="5.41855">
        <ele>370.6</ele>
        <time>2022-02-24T10:32:02Z</time>
      </trkpt>
      <trkpt lat="46.15307" lon="5.41855">
        <ele>371</ele>
        <time>2022-02-24T10:32:03Z</time>
      </trkpt>
      <trkpt lat="46.15304" lon="5.41854">
        <ele>371</ele>
        <time>2022-02-24T10:32:04Z</time>
      </trkpt>
      <trkpt lat="46.15301" lon="5.41854">
        <ele>371.2</ele>
        <time>2022-02-24T10:32:05Z</time>
      </trkpt>
      <trkpt lat="46.15298" lon="5.41853">
        <ele>371.2</ele>
        <time>2022-02-24T10:32:06Z</time>
      </trkpt>
      <trkpt lat="46.15294" lon="5.41852">
        <ele>371.6</ele>
        <time>2022-02-24T10:32:07Z</time>
      </trkpt>
      <trkpt lat="46.15291" lon="5.41851">
        <ele>371.6</ele>
        <time>2022-02-24T10:32:08Z</time>
      </trkpt>
      <trkpt lat="46.15288" lon="5.4185">
        <ele>371.8</ele>
        <time>2022-02-24T10:32:09Z</time>
      </trkpt>
      <trkpt lat="46.15285" lon="5.41849">
        <ele>371.8</ele>
        <time>2022-02-24T10:32:10Z</time>
      </trkpt>
      <trkpt lat="46.15282" lon="5.41848">
        <ele>372.2</ele>
        <time>2022-02-24T10:32:11Z</time>
      </trkpt>
      <trkpt lat="46.15278" lon="5.41847">
        <ele>372.4</ele>
        <time>2022-02-24T10:32:12Z</time>
      </trkpt>
      <trkpt lat="46.15275" lon="5.41845">
        <ele>372.4</ele>
        <time>2022-02-24T10:32:13Z</time>
      </trkpt>
      <trkpt lat="46.15272" lon="5.41844">
        <ele>372.8</ele>
        <time>2022-02-24T10:32:14Z</time>
      </trkpt>
      <trkpt lat="46.15268" lon="5.41842">
        <ele>372.8</ele>
        <time>2022-02-24T10:32:15Z</time>
      </trkpt>
      <trkpt lat="46.15265" lon="5.41841">
        <ele>373.2</ele>
        <time>2022-02-24T10:32:16Z</time>
      </trkpt>
      <trkpt lat="46.15262" lon="5.41839">
        <ele>373.2</ele>
        <time>2022-02-24T10:32:17Z</time>
      </trkpt>
      <trkpt lat="46.15258" lon="5.41838">
        <ele>373.6</ele>
        <time>2022-02-24T10:32:18Z</time>
      </trkpt>
      <trkpt lat="46.15255" lon="5.41836">
        <ele>373.6</ele>
        <time>2022-02-24T10:32:19Z</time>
      </trkpt>
      <trkpt lat="46.15252" lon="5.41834">
        <ele>373.8</ele>
        <time>2022-02-24T10:32:20Z</time>
      </trkpt>
      <trkpt lat="46.15249" lon="5.41831">
        <ele>373.8</ele>
        <time>2022-02-24T10:32:21Z</time>
      </trkpt>
      <trkpt lat="46.15246" lon="5.41829">
        <ele>374.2</ele>
        <time>2022-02-24T10:32:22Z</time>
      </trkpt>
      <trkpt lat="46.15243" lon="5.41826">
        <ele>374.2</ele>
        <time>2022-02-24T10:32:23Z</time>
      </trkpt>
      <trkpt lat="46.1524" lon="5.41824">
        <ele>374.2</ele>
        <time>2022-02-24T10:32:24Z</time>
      </trkpt>
      <trkpt lat="46.15236" lon="5.41822">
        <ele>374.4</ele>
        <time>2022-02-24T10:32:25Z</time>
      </trkpt>
      <trkpt lat="46.15233" lon="5.41821">
        <ele>374.4</ele>
        <time>2022-02-24T10:32:26Z</time>
      </trkpt>
      <trkpt lat="46.1523" lon="5.4182">
        <ele>374.8</ele>
        <time>2022-02-24T10:32:27Z</time>
      </trkpt>
      <trkpt lat="46.15226" lon="5.4182">
        <ele>374.8</ele>
        <time>2022-02-24T10:32:28Z</time>
      </trkpt>
      <trkpt lat="46.15223" lon="5.41821">
        <ele>375.2</ele>
        <time>2022-02-24T10:32:29Z</time>
      </trkpt>
      <trkpt lat="46.1522" lon="5.41821">
        <ele>375.4</ele>
        <time>2022-02-24T10:32:30Z</time>
      </trkpt>
      <trkpt lat="46.15217" lon="5.41822">
        <ele>375.4</ele>
        <time>2022-02-24T10:32:31Z</time>
      </trkpt>
      <trkpt lat="46.15213" lon="5.41822">
        <ele>375.8</ele>
        <time>2022-02-24T10:32:32Z</time>
      </trkpt>
      <trkpt lat="46.1521" lon="5.41823">
        <ele>375.8</ele>
        <time>2022-02-24T10:32:33Z</time>
      </trkpt>
      <trkpt lat="46.15207" lon="5.41824">
        <ele>376.2</ele>
        <time>2022-02-24T10:32:34Z</time>
      </trkpt>
      <trkpt lat="46.15205" lon="5.41826">
        <ele>376.2</ele>
        <time>2022-02-24T10:32:35Z</time>
      </trkpt>
      <trkpt lat="46.15202" lon="5.41827">
        <ele>376.4</ele>
        <time>2022-02-24T10:32:36Z</time>
      </trkpt>
      <trkpt lat="46.15199" lon="5.41828">
        <ele>376.6</ele>
        <time>2022-02-24T10:32:37Z</time>
      </trkpt>
      <trkpt lat="46.15196" lon="5.41829">
        <ele>376.6</ele>
        <time>2022-02-24T10:32:38Z</time>
      </trkpt>
      <trkpt lat="46.15193" lon="5.4183">
        <ele>377</ele>
        <time>2022-02-24T10:32:39Z</time>
      </trkpt>
      <trkpt lat="46.1519" lon="5.41831">
        <ele>377</ele>
        <time>2022-02-24T10:32:40Z</time>
      </trkpt>
      <trkpt lat="46.15187" lon="5.41834">
        <ele>377.4</ele>
        <time>2022-02-24T10:32:41Z</time>
      </trkpt>
      <trkpt lat="46.15185" lon="5.41837">
        <ele>377.4</ele>
        <time>2022-02-24T10:32:42Z</time>
      </trkpt>
      <trkpt lat="46.15182" lon="5.4184">
        <ele>377.4</ele>
        <time>2022-02-24T10:32:43Z</time>
      </trkpt>
      <trkpt lat="46.15181" lon="5.41844">
        <ele>377.4</ele>
        <time>2022-02-24T10:32:44Z</time>
      </trkpt>
      <trkpt lat="46.15179" lon="5.41849">
        <ele>377.4</ele>
        <time>2022-02-24T10:32:45Z</time>
      </trkpt>
      <trkpt lat="46.15177" lon="5.41854">
        <ele>377.4</ele>
        <time>2022-02-24T10:32:46Z</time>
      </trkpt>
      <trkpt lat="46.15175" lon="5.4186">
        <ele>377.4</ele>
        <time>2022-02-24T10:32:47Z</time>
      </trkpt>
      <trkpt lat="46.15174" lon="5.41866">
        <ele>377.4</ele>
        <time>2022-02-24T10:32:48Z</time>
      </trkpt>
      <trkpt lat="46.15173" lon="5.41872">
        <ele>377.4</ele>
        <time>2022-02-24T10:32:49Z</time>
      </trkpt>
      <trkpt lat="46.15172" lon="5.41879">
        <ele>377.4</ele>
        <time>2022-02-24T10:32:50Z</time>
      </trkpt>
      <trkpt lat="46.15171" lon="5.41885">
        <ele>377.4</ele>
        <time>2022-02-24T10:32:51Z</time>
      </trkpt>
      <trkpt lat="46.15169" lon="5.41892">
        <ele>377.4</ele>
        <time>2022-02-24T10:32:52Z</time>
      </trkpt>
      <trkpt lat="46.15168" lon="5.41898">
        <ele>377.4</ele>
        <time>2022-02-24T10:32:53Z</time>
      </trkpt>
      <trkpt lat="46.15166" lon="5.41904">
        <ele>377.4</ele>
        <time>2022-02-24T10:32:54Z</time>
      </trkpt>
      <trkpt lat="46.15164" lon="5.41911">
        <ele>377.4</ele>
        <time>2022-02-24T10:32:55Z</time>
      </trkpt>
      <trkpt lat="46.15162" lon="5.41918">
        <ele>377.4</ele>
        <time>2022-02-24T10:32:56Z</time>
      </trkpt>
      <trkpt lat="46.15161" lon="5.41925">
        <ele>377.4</ele>
        <time>2022-02-24T10:32:57Z</time>
      </trkpt>
      <trkpt lat="46.1516" lon="5.41932">
        <ele>377.4</ele>
        <time>2022-02-24T10:32:58Z</time>
      </trkpt>
      <trkpt lat="46.15158" lon="5.41939">
        <ele>377.4</ele>
        <time>2022-02-24T10:32:59Z</time>
      </trkpt>
      <trkpt lat="46.15156" lon="5.41946">
        <ele>377.4</ele>
        <time>2022-02-24T10:33:00Z</time>
      </trkpt>
      <trkpt lat="46.15155" lon="5.41953">
        <ele>377.4</ele>
        <time>2022-02-24T10:33:01Z</time>
      </trkpt>
      <trkpt lat="46.15153" lon="5.4196">
        <ele>377.4</ele>
        <time>2022-02-24T10:33:02Z</time>
      </trkpt>
      <trkpt lat="46.15151" lon="5.41966">
        <ele>377.4</ele>
        <time>2022-02-24T10:33:03Z</time>
      </trkpt>
      <trkpt lat="46.15149" lon="5.41971">
        <ele>377.4</ele>
        <time>2022-02-24T10:33:04Z</time>
      </trkpt>
      <trkpt lat="46.15147" lon="5.41977">
        <ele>377.6</ele>
        <time>2022-02-24T10:33:05Z</time>
      </trkpt>
      <trkpt lat="46.15145" lon="5.41982">
        <ele>377.6</ele>
        <time>2022-02-24T10:33:06Z</time>
      </trkpt>
      <trkpt lat="46.15143" lon="5.41986">
        <ele>377.6</ele>
        <time>2022-02-24T10:33:07Z</time>
      </trkpt>
      <trkpt lat="46.1514" lon="5.41988">
        <ele>377.6</ele>
        <time>2022-02-24T10:33:08Z</time>
      </trkpt>
      <trkpt lat="46.15137" lon="5.41989">
        <ele>378</ele>
        <time>2022-02-24T10:33:09Z</time>
      </trkpt>
      <trkpt lat="46.15133" lon="5.4199">
        <ele>378</ele>
        <time>2022-02-24T10:33:10Z</time>
      </trkpt>
      <trkpt lat="46.1513" lon="5.41989">
        <ele>378</ele>
        <time>2022-02-24T10:33:11Z</time>
      </trkpt>
      <trkpt lat="46.15126" lon="5.41988">
        <ele>378</ele>
        <time>2022-02-24T10:33:12Z</time>
      </trkpt>
      <trkpt lat="46.15123" lon="5.41987">
        <ele>378.2</ele>
        <time>2022-02-24T10:33:13Z</time>
      </trkpt>
      <trkpt lat="46.15119" lon="5.41985">
        <ele>378.2</ele>
        <time>2022-02-24T10:33:14Z</time>
      </trkpt>
      <trkpt lat="46.15115" lon="5.41984">
        <ele>378.6</ele>
        <time>2022-02-24T10:33:15Z</time>
      </trkpt>
      <trkpt lat="46.15112" lon="5.41983">
        <ele>378.6</ele>
        <time>2022-02-24T10:33:16Z</time>
      </trkpt>
      <trkpt lat="46.15108" lon="5.41982">
        <ele>378.6</ele>
        <time>2022-02-24T10:33:17Z</time>
      </trkpt>
      <trkpt lat="46.15104" lon="5.41981">
        <ele>378.6</ele>
        <time>2022-02-24T10:33:18Z</time>
      </trkpt>
      <trkpt lat="46.151" lon="5.4198">
        <ele>378.6</ele>
        <time>2022-02-24T10:33:19Z</time>
      </trkpt>
      <trkpt lat="46.15096" lon="5.41978">
        <ele>378.6</ele>
        <time>2022-02-24T10:33:20Z</time>
      </trkpt>
      <trkpt lat="46.15092" lon="5.41977">
        <ele>378.6</ele>
        <time>2022-02-24T10:33:21Z</time>
      </trkpt>
      <trkpt lat="46.15088" lon="5.41975">
        <ele>378.6</ele>
        <time>2022-02-24T10:33:22Z</time>
      </trkpt>
      <trkpt lat="46.15084" lon="5.41973">
        <ele>378.6</ele>
        <time>2022-02-24T10:33:23Z</time>
      </trkpt>
      <trkpt lat="46.1508" lon="5.41971">
        <ele>378.8</ele>
        <time>2022-02-24T10:33:24Z</time>
      </trkpt>
      <trkpt lat="46.15077" lon="5.4197">
        <ele>378.8</ele>
        <time>2022-02-24T10:33:25Z</time>
      </trkpt>
      <trkpt lat="46.15073" lon="5.41968">
        <ele>378.8</ele>
        <time>2022-02-24T10:33:26Z</time>
      </trkpt>
      <trkpt lat="46.15069" lon="5.41965">
        <ele>379</ele>
        <time>2022-02-24T10:33:27Z</time>
      </trkpt>
      <trkpt lat="46.15065" lon="5.41963">
        <ele>379</ele>
        <time>2022-02-24T10:33:28Z</time>
      </trkpt>
      <trkpt lat="46.15061" lon="5.4196">
        <ele>379</ele>
        <time>2022-02-24T10:33:29Z</time>
      </trkpt>
      <trkpt lat="46.15057" lon="5.41958">
        <ele>379</ele>
        <time>2022-02-24T10:33:30Z</time>
      </trkpt>
      <trkpt lat="46.15053" lon="5.41956">
        <ele>379</ele>
        <time>2022-02-24T10:33:31Z</time>
      </trkpt>
      <trkpt lat="46.15049" lon="5.41954">
        <ele>379.2</ele>
        <time>2022-02-24T10:33:32Z</time>
      </trkpt>
      <trkpt lat="46.15046" lon="5.41953">
        <ele>379.2</ele>
        <time>2022-02-24T10:33:33Z</time>
      </trkpt>
      <trkpt lat="46.15042" lon="5.41952">
        <ele>379.4</ele>
        <time>2022-02-24T10:33:34Z</time>
      </trkpt>
      <trkpt lat="46.15038" lon="5.4195">
        <ele>379.6</ele>
        <time>2022-02-24T10:33:35Z</time>
      </trkpt>
      <trkpt lat="46.15034" lon="5.41949">
        <ele>379.6</ele>
        <time>2022-02-24T10:33:36Z</time>
      </trkpt>
      <trkpt lat="46.1503" lon="5.41948">
        <ele>379.6</ele>
        <time>2022-02-24T10:33:37Z</time>
      </trkpt>
      <trkpt lat="46.15027" lon="5.41947">
        <ele>379.6</ele>
        <time>2022-02-24T10:33:38Z</time>
      </trkpt>
      <trkpt lat="46.15023" lon="5.41945">
        <ele>379.6</ele>
        <time>2022-02-24T10:33:39Z</time>
      </trkpt>
      <trkpt lat="46.15019" lon="5.41944">
        <ele>379.6</ele>
        <time>2022-02-24T10:33:40Z</time>
      </trkpt>
      <trkpt lat="46.15015" lon="5.41942">
        <ele>379.6</ele>
        <time>2022-02-24T10:33:41Z</time>
      </trkpt>
      <trkpt lat="46.15011" lon="5.41941">
        <ele>379.6</ele>
        <time>2022-02-24T10:33:42Z</time>
      </trkpt>
      <trkpt lat="46.15007" lon="5.41939">
        <ele>379.6</ele>
        <time>2022-02-24T10:33:43Z</time>
      </trkpt>
      <trkpt lat="46.15003" lon="5.41938">
        <ele>379.6</ele>
        <time>2022-02-24T10:33:44Z</time>
      </trkpt>
      <trkpt lat="46.14999" lon="5.41937">
        <ele>379.6</ele>
        <time>2022-02-24T10:33:45Z</time>
      </trkpt>
      <trkpt lat="46.14994" lon="5.41935">
        <ele>379.6</ele>
        <time>2022-02-24T10:33:46Z</time>
      </trkpt>
      <trkpt lat="46.1499" lon="5.41934">
        <ele>379.6</ele>
        <time>2022-02-24T10:33:47Z</time>
      </trkpt>
      <trkpt lat="46.14986" lon="5.41932">
        <ele>379.6</ele>
        <time>2022-02-24T10:33:48Z</time>
      </trkpt>
      <trkpt lat="46.14982" lon="5.4193">
        <ele>379.6</ele>
        <time>2022-02-24T10:33:49Z</time>
      </trkpt>
      <trkpt lat="46.14978" lon="5.41928">
        <ele>380</ele>
        <time>2022-02-24T10:33:50Z</time>
      </trkpt>
      <trkpt lat="46.14973" lon="5.41926">
        <ele>380</ele>
        <time>2022-02-24T10:33:51Z</time>
      </trkpt>
      <trkpt lat="46.14969" lon="5.41925">
        <ele>380</ele>
        <time>2022-02-24T10:33:52Z</time>
      </trkpt>
      <trkpt lat="46.14965" lon="5.41923">
        <ele>380</ele>
        <time>2022-02-24T10:33:53Z</time>
      </trkpt>
      <trkpt lat="46.14961" lon="5.41922">
        <ele>380.2</ele>
        <time>2022-02-24T10:33:54Z</time>
      </trkpt>
      <trkpt lat="46.14957" lon="5.4192">
        <ele>380.2</ele>
        <time>2022-02-24T10:33:55Z</time>
      </trkpt>
      <trkpt lat="46.14953" lon="5.41919">
        <ele>380.4</ele>
        <time>2022-02-24T10:33:56Z</time>
      </trkpt>
      <trkpt lat="46.14949" lon="5.41918">
        <ele>380.4</ele>
        <time>2022-02-24T10:33:57Z</time>
      </trkpt>
      <trkpt lat="46.14945" lon="5.41917">
        <ele>380.4</ele>
        <time>2022-02-24T10:33:58Z</time>
      </trkpt>
      <trkpt lat="46.14941" lon="5.41916">
        <ele>380.6</ele>
        <time>2022-02-24T10:33:59Z</time>
      </trkpt>
      <trkpt lat="46.14937" lon="5.41915">
        <ele>380.6</ele>
        <time>2022-02-24T10:34:00Z</time>
      </trkpt>
      <trkpt lat="46.14933" lon="5.41914">
        <ele>381</ele>
        <time>2022-02-24T10:34:01Z</time>
      </trkpt>
      <trkpt lat="46.14929" lon="5.41913">
        <ele>381</ele>
        <time>2022-02-24T10:34:02Z</time>
      </trkpt>
      <trkpt lat="46.14925" lon="5.41912">
        <ele>381</ele>
        <time>2022-02-24T10:34:03Z</time>
      </trkpt>
      <trkpt lat="46.14922" lon="5.41912">
        <ele>381.2</ele>
        <time>2022-02-24T10:34:04Z</time>
      </trkpt>
      <trkpt lat="46.14918" lon="5.41911">
        <ele>381.2</ele>
        <time>2022-02-24T10:34:05Z</time>
      </trkpt>
      <trkpt lat="46.14915" lon="5.4191">
        <ele>381.6</ele>
        <time>2022-02-24T10:34:06Z</time>
      </trkpt>
      <trkpt lat="46.14911" lon="5.4191">
        <ele>381.6</ele>
        <time>2022-02-24T10:34:07Z</time>
      </trkpt>
      <trkpt lat="46.14908" lon="5.41909">
        <ele>381.6</ele>
        <time>2022-02-24T10:34:08Z</time>
      </trkpt>
      <trkpt lat="46.14904" lon="5.41909">
        <ele>381.8</ele>
        <time>2022-02-24T10:34:09Z</time>
      </trkpt>
      <trkpt lat="46.14901" lon="5.41908">
        <ele>381.8</ele>
        <time>2022-02-24T10:34:10Z</time>
      </trkpt>
      <trkpt lat="46.14897" lon="5.41908">
        <ele>382.2</ele>
        <time>2022-02-24T10:34:11Z</time>
      </trkpt>
      <trkpt lat="46.14894" lon="5.41907">
        <ele>382.2</ele>
        <time>2022-02-24T10:34:12Z</time>
      </trkpt>
      <trkpt lat="46.1489" lon="5.41906">
        <ele>382.4</ele>
        <time>2022-02-24T10:34:13Z</time>
      </trkpt>
      <trkpt lat="46.14887" lon="5.41906">
        <ele>382.4</ele>
        <time>2022-02-24T10:34:14Z</time>
      </trkpt>
      <trkpt lat="46.14883" lon="5.41905">
        <ele>382.6</ele>
        <time>2022-02-24T10:34:15Z</time>
      </trkpt>
      <trkpt lat="46.1488" lon="5.41904">
        <ele>382.6</ele>
        <time>2022-02-24T10:34:16Z</time>
      </trkpt>
      <trkpt lat="46.14877" lon="5.41904">
        <ele>383</ele>
        <time>2022-02-24T10:34:17Z</time>
      </trkpt>
      <trkpt lat="46.14874" lon="5.41903">
        <ele>383.2</ele>
        <time>2022-02-24T10:34:18Z</time>
      </trkpt>
      <trkpt lat="46.14871" lon="5.41903">
        <ele>383.6</ele>
        <time>2022-02-24T10:34:19Z</time>
      </trkpt>
      <trkpt lat="46.14868" lon="5.41902">
        <ele>383.6</ele>
        <time>2022-02-24T10:34:20Z</time>
      </trkpt>
      <trkpt lat="46.14865" lon="5.41901">
        <ele>384</ele>
        <time>2022-02-24T10:34:21Z</time>
      </trkpt>
      <trkpt lat="46.14863" lon="5.419">
        <ele>384.2</ele>
        <time>2022-02-24T10:34:22Z</time>
      </trkpt>
      <trkpt lat="46.1486" lon="5.41899">
        <ele>384.2</ele>
        <time>2022-02-24T10:34:23Z</time>
      </trkpt>
      <trkpt lat="46.14857" lon="5.41899">
        <ele>384.6</ele>
        <time>2022-02-24T10:34:24Z</time>
      </trkpt>
      <trkpt lat="46.14855" lon="5.41898">
        <ele>384.6</ele>
        <time>2022-02-24T10:34:25Z</time>
      </trkpt>
      <trkpt lat="46.14852" lon="5.41897">
        <ele>385</ele>
        <time>2022-02-24T10:34:26Z</time>
      </trkpt>
      <trkpt lat="46.14849" lon="5.41895">
        <ele>385.2</ele>
        <time>2022-02-24T10:34:27Z</time>
      </trkpt>
      <trkpt lat="46.14847" lon="5.41893">
        <ele>385.4</ele>
        <time>2022-02-24T10:34:28Z</time>
      </trkpt>
      <trkpt lat="46.14844" lon="5.41891">
        <ele>385.6</ele>
        <time>2022-02-24T10:34:29Z</time>
      </trkpt>
      <trkpt lat="46.14842" lon="5.41889">
        <ele>385.8</ele>
        <time>2022-02-24T10:34:30Z</time>
      </trkpt>
      <trkpt lat="46.14839" lon="5.41888">
        <ele>385.8</ele>
        <time>2022-02-24T10:34:31Z</time>
      </trkpt>
      <trkpt lat="46.14837" lon="5.41886">
        <ele>385.8</ele>
        <time>2022-02-24T10:34:32Z</time>
      </trkpt>
      <trkpt lat="46.14835" lon="5.41884">
        <ele>386.2</ele>
        <time>2022-02-24T10:34:33Z</time>
      </trkpt>
      <trkpt lat="46.14833" lon="5.41881">
        <ele>386.6</ele>
        <time>2022-02-24T10:34:34Z</time>
      </trkpt>
      <trkpt lat="46.14831" lon="5.41879">
        <ele>386.8</ele>
        <time>2022-02-24T10:34:35Z</time>
      </trkpt>
      <trkpt lat="46.14829" lon="5.41877">
        <ele>386.8</ele>
        <time>2022-02-24T10:34:36Z</time>
      </trkpt>
      <trkpt lat="46.14827" lon="5.41874">
        <ele>387</ele>
        <time>2022-02-24T10:34:37Z</time>
      </trkpt>
      <trkpt lat="46.14825" lon="5.41872">
        <ele>387</ele>
        <time>2022-02-24T10:34:38Z</time>
      </trkpt>
      <trkpt lat="46.14824" lon="5.41869">
        <ele>387.4</ele>
        <time>2022-02-24T10:34:39Z</time>
      </trkpt>
      <trkpt lat="46.14822" lon="5.41867">
        <ele>387.4</ele>
        <time>2022-02-24T10:34:40Z</time>
      </trkpt>
      <trkpt lat="46.14821" lon="5.41865">
        <ele>387.8</ele>
        <time>2022-02-24T10:34:41Z</time>
      </trkpt>
      <trkpt lat="46.14819" lon="5.41863">
        <ele>388</ele>
        <time>2022-02-24T10:34:42Z</time>
      </trkpt>
      <trkpt lat="46.14818" lon="5.41861">
        <ele>388.4</ele>
        <time>2022-02-24T10:34:43Z</time>
      </trkpt>
      <trkpt lat="46.14817" lon="5.41858">
        <ele>388.6</ele>
        <time>2022-02-24T10:34:44Z</time>
      </trkpt>
      <trkpt lat="46.14815" lon="5.41856">
        <ele>388.6</ele>
        <time>2022-02-24T10:34:45Z</time>
      </trkpt>
      <trkpt lat="46.14813" lon="5.41854">
        <ele>389</ele>
        <time>2022-02-24T10:34:46Z</time>
      </trkpt>
      <trkpt lat="46.14812" lon="5.41852">
        <ele>389</ele>
        <time>2022-02-24T10:34:47Z</time>
      </trkpt>
      <trkpt lat="46.1481" lon="5.4185">
        <ele>389.4</ele>
        <time>2022-02-24T10:34:48Z</time>
      </trkpt>
      <trkpt lat="46.14809" lon="5.41848">
        <ele>389.6</ele>
        <time>2022-02-24T10:34:49Z</time>
      </trkpt>
      <trkpt lat="46.14808" lon="5.41846">
        <ele>389.8</ele>
        <time>2022-02-24T10:34:50Z</time>
      </trkpt>
      <trkpt lat="46.14806" lon="5.41843">
        <ele>390</ele>
        <time>2022-02-24T10:34:51Z</time>
      </trkpt>
      <trkpt lat="46.14805" lon="5.4184">
        <ele>390.2</ele>
        <time>2022-02-24T10:34:52Z</time>
      </trkpt>
      <trkpt lat="46.14804" lon="5.41837">
        <ele>390.4</ele>
        <time>2022-02-24T10:34:53Z</time>
      </trkpt>
      <trkpt lat="46.14803" lon="5.41835">
        <ele>390.8</ele>
        <time>2022-02-24T10:34:54Z</time>
      </trkpt>
      <trkpt lat="46.14802" lon="5.41832">
        <ele>390.8</ele>
        <time>2022-02-24T10:34:55Z</time>
      </trkpt>
      <trkpt lat="46.14801" lon="5.4183">
        <ele>391</ele>
        <time>2022-02-24T10:34:56Z</time>
      </trkpt>
      <trkpt lat="46.148" lon="5.41827">
        <ele>391</ele>
        <time>2022-02-24T10:34:57Z</time>
      </trkpt>
      <trkpt lat="46.14799" lon="5.41824">
        <ele>391.4</ele>
        <time>2022-02-24T10:34:58Z</time>
      </trkpt>
      <trkpt lat="46.14798" lon="5.41822">
        <ele>391.6</ele>
        <time>2022-02-24T10:34:59Z</time>
      </trkpt>
      <trkpt lat="46.14797" lon="5.41819">
        <ele>392.4</ele>
        <time>2022-02-24T10:35:00Z</time>
      </trkpt>
      <trkpt lat="46.14795" lon="5.41816">
        <ele>392.6</ele>
        <time>2022-02-24T10:35:01Z</time>
      </trkpt>
      <trkpt lat="46.14794" lon="5.41814">
        <ele>392.6</ele>
        <time>2022-02-24T10:35:02Z</time>
      </trkpt>
      <trkpt lat="46.14793" lon="5.41811">
        <ele>392.8</ele>
        <time>2022-02-24T10:35:03Z</time>
      </trkpt>
      <trkpt lat="46.14792" lon="5.41808">
        <ele>392.8</ele>
        <time>2022-02-24T10:35:04Z</time>
      </trkpt>
      <trkpt lat="46.14791" lon="5.41805">
        <ele>393.2</ele>
        <time>2022-02-24T10:35:05Z</time>
      </trkpt>
      <trkpt lat="46.1479" lon="5.41802">
        <ele>393.2</ele>
        <time>2022-02-24T10:35:06Z</time>
      </trkpt>
      <trkpt lat="46.1479" lon="5.41798">
        <ele>393.4</ele>
        <time>2022-02-24T10:35:07Z</time>
      </trkpt>
      <trkpt lat="46.14789" lon="5.41795">
        <ele>393.8</ele>
        <time>2022-02-24T10:35:08Z</time>
      </trkpt>
      <trkpt lat="46.14788" lon="5.41792">
        <ele>393.8</ele>
        <time>2022-02-24T10:35:09Z</time>
      </trkpt>
      <trkpt lat="46.14787" lon="5.41789">
        <ele>394</ele>
        <time>2022-02-24T10:35:10Z</time>
      </trkpt>
      <trkpt lat="46.14786" lon="5.41786">
        <ele>394</ele>
        <time>2022-02-24T10:35:11Z</time>
      </trkpt>
      <trkpt lat="46.14785" lon="5.41784">
        <ele>394.4</ele>
        <time>2022-02-24T10:35:12Z</time>
      </trkpt>
      <trkpt lat="46.14783" lon="5.41781">
        <ele>394.6</ele>
        <time>2022-02-24T10:35:13Z</time>
      </trkpt>
      <trkpt lat="46.14783" lon="5.41781">
        <ele>394.6</ele>
        <time>2022-02-24T10:35:14Z</time>
      </trkpt>
      <trkpt lat="46.14782" lon="5.41778">
        <ele>395</ele>
        <time>2022-02-24T10:35:15Z</time>
      </trkpt>
      <trkpt lat="46.14781" lon="5.41771">
        <ele>395.2</ele>
        <time>2022-02-24T10:35:16Z</time>
      </trkpt>
      <trkpt lat="46.1478" lon="5.41768">
        <ele>395.2</ele>
        <time>2022-02-24T10:35:17Z</time>
      </trkpt>
      <trkpt lat="46.14779" lon="5.41765">
        <ele>395.4</ele>
        <time>2022-02-24T10:35:18Z</time>
      </trkpt>
      <trkpt lat="46.14778" lon="5.41762">
        <ele>395.4</ele>
        <time>2022-02-24T10:35:19Z</time>
      </trkpt>
      <trkpt lat="46.14777" lon="5.41759">
        <ele>395.8</ele>
        <time>2022-02-24T10:35:20Z</time>
      </trkpt>
      <trkpt lat="46.14776" lon="5.41757">
        <ele>396</ele>
        <time>2022-02-24T10:35:21Z</time>
      </trkpt>
      <trkpt lat="46.14775" lon="5.41754">
        <ele>396</ele>
        <time>2022-02-24T10:35:22Z</time>
      </trkpt>
      <trkpt lat="46.14774" lon="5.41751">
        <ele>396.4</ele>
        <time>2022-02-24T10:35:23Z</time>
      </trkpt>
      <trkpt lat="46.14773" lon="5.41748">
        <ele>396.4</ele>
        <time>2022-02-24T10:35:24Z</time>
      </trkpt>
      <trkpt lat="46.14772" lon="5.41745">
        <ele>396.6</ele>
        <time>2022-02-24T10:35:25Z</time>
      </trkpt>
      <trkpt lat="46.14771" lon="5.41743">
        <ele>396.8</ele>
        <time>2022-02-24T10:35:26Z</time>
      </trkpt>
      <trkpt lat="46.14771" lon="5.4174">
        <ele>396.8</ele>
        <time>2022-02-24T10:35:27Z</time>
      </trkpt>
      <trkpt lat="46.1477" lon="5.41737">
        <ele>397.2</ele>
        <time>2022-02-24T10:35:28Z</time>
      </trkpt>
      <trkpt lat="46.14769" lon="5.41734">
        <ele>397.4</ele>
        <time>2022-02-24T10:35:29Z</time>
      </trkpt>
      <trkpt lat="46.14768" lon="5.41731">
        <ele>397.4</ele>
        <time>2022-02-24T10:35:30Z</time>
      </trkpt>
      <trkpt lat="46.14767" lon="5.41728">
        <ele>397.6</ele>
        <time>2022-02-24T10:35:31Z</time>
      </trkpt>
      <trkpt lat="46.14765" lon="5.41725">
        <ele>397.6</ele>
        <time>2022-02-24T10:35:32Z</time>
      </trkpt>
      <trkpt lat="46.14764" lon="5.41721">
        <ele>397.8</ele>
        <time>2022-02-24T10:35:33Z</time>
      </trkpt>
      <trkpt lat="46.14763" lon="5.41718">
        <ele>398.2</ele>
        <time>2022-02-24T10:35:34Z</time>
      </trkpt>
      <trkpt lat="46.14762" lon="5.41715">
        <ele>398.2</ele>
        <time>2022-02-24T10:35:35Z</time>
      </trkpt>
      <trkpt lat="46.14761" lon="5.41711">
        <ele>398.4</ele>
        <time>2022-02-24T10:35:36Z</time>
      </trkpt>
      <trkpt lat="46.1476" lon="5.41708">
        <ele>398.6</ele>
        <time>2022-02-24T10:35:37Z</time>
      </trkpt>
      <trkpt lat="46.14759" lon="5.41704">
        <ele>398.6</ele>
        <time>2022-02-24T10:35:38Z</time>
      </trkpt>
      <trkpt lat="46.14758" lon="5.417">
        <ele>399</ele>
        <time>2022-02-24T10:35:39Z</time>
      </trkpt>
      <trkpt lat="46.14757" lon="5.41697">
        <ele>399</ele>
        <time>2022-02-24T10:35:40Z</time>
      </trkpt>
      <trkpt lat="46.14756" lon="5.41693">
        <ele>399.2</ele>
        <time>2022-02-24T10:35:41Z</time>
      </trkpt>
      <trkpt lat="46.14755" lon="5.4169">
        <ele>399.2</ele>
        <time>2022-02-24T10:35:42Z</time>
      </trkpt>
      <trkpt lat="46.14754" lon="5.41687">
        <ele>399.6</ele>
        <time>2022-02-24T10:35:43Z</time>
      </trkpt>
      <trkpt lat="46.14753" lon="5.41683">
        <ele>399.6</ele>
        <time>2022-02-24T10:35:44Z</time>
      </trkpt>
      <trkpt lat="46.14752" lon="5.41679">
        <ele>399.6</ele>
        <time>2022-02-24T10:35:45Z</time>
      </trkpt>
      <trkpt lat="46.14752" lon="5.41676">
        <ele>399.8</ele>
        <time>2022-02-24T10:35:46Z</time>
      </trkpt>
      <trkpt lat="46.14751" lon="5.41673">
        <ele>399.8</ele>
        <time>2022-02-24T10:35:47Z</time>
      </trkpt>
      <trkpt lat="46.1475" lon="5.41669">
        <ele>400.2</ele>
        <time>2022-02-24T10:35:48Z</time>
      </trkpt>
      <trkpt lat="46.14749" lon="5.41665">
        <ele>400.2</ele>
        <time>2022-02-24T10:35:49Z</time>
      </trkpt>
      <trkpt lat="46.14748" lon="5.41661">
        <ele>400.6</ele>
        <time>2022-02-24T10:35:50Z</time>
      </trkpt>
      <trkpt lat="46.14746" lon="5.41657">
        <ele>400.6</ele>
        <time>2022-02-24T10:35:51Z</time>
      </trkpt>
      <trkpt lat="46.14745" lon="5.41653">
        <ele>401</ele>
        <time>2022-02-24T10:35:52Z</time>
      </trkpt>
      <trkpt lat="46.14744" lon="5.41649">
        <ele>401.2</ele>
        <time>2022-02-24T10:35:53Z</time>
      </trkpt>
      <trkpt lat="46.14743" lon="5.41645">
        <ele>401.2</ele>
        <time>2022-02-24T10:35:54Z</time>
      </trkpt>
      <trkpt lat="46.14743" lon="5.41642">
        <ele>401.4</ele>
        <time>2022-02-24T10:35:55Z</time>
      </trkpt>
      <trkpt lat="46.14742" lon="5.41638">
        <ele>401.4</ele>
        <time>2022-02-24T10:35:56Z</time>
      </trkpt>
      <trkpt lat="46.14741" lon="5.41635">
        <ele>401.8</ele>
        <time>2022-02-24T10:35:57Z</time>
      </trkpt>
      <trkpt lat="46.1474" lon="5.41631">
        <ele>401.8</ele>
        <time>2022-02-24T10:35:58Z</time>
      </trkpt>
      <trkpt lat="46.1474" lon="5.41628">
        <ele>402.2</ele>
        <time>2022-02-24T10:35:59Z</time>
      </trkpt>
      <trkpt lat="46.14739" lon="5.41624">
        <ele>402.4</ele>
        <time>2022-02-24T10:36:00Z</time>
      </trkpt>
      <trkpt lat="46.14738" lon="5.41621">
        <ele>402.4</ele>
        <time>2022-02-24T10:36:01Z</time>
      </trkpt>
      <trkpt lat="46.14738" lon="5.41617">
        <ele>402.8</ele>
        <time>2022-02-24T10:36:02Z</time>
      </trkpt>
      <trkpt lat="46.14737" lon="5.41614">
        <ele>402.8</ele>
        <time>2022-02-24T10:36:03Z</time>
      </trkpt>
      <trkpt lat="46.14737" lon="5.4161">
        <ele>403</ele>
        <time>2022-02-24T10:36:04Z</time>
      </trkpt>
      <trkpt lat="46.14737" lon="5.41606">
        <ele>403</ele>
        <time>2022-02-24T10:36:05Z</time>
      </trkpt>
      <trkpt lat="46.14736" lon="5.41602">
        <ele>403.4</ele>
        <time>2022-02-24T10:36:06Z</time>
      </trkpt>
      <trkpt lat="46.14737" lon="5.41598">
        <ele>403.4</ele>
        <time>2022-02-24T10:36:07Z</time>
      </trkpt>
      <trkpt lat="46.14736" lon="5.41594">
        <ele>403.6</ele>
        <time>2022-02-24T10:36:08Z</time>
      </trkpt>
      <trkpt lat="46.14736" lon="5.4159">
        <ele>403.6</ele>
        <time>2022-02-24T10:36:09Z</time>
      </trkpt>
      <trkpt lat="46.14735" lon="5.41587">
        <ele>404</ele>
        <time>2022-02-24T10:36:10Z</time>
      </trkpt>
      <trkpt lat="46.14735" lon="5.41583">
        <ele>404</ele>
        <time>2022-02-24T10:36:11Z</time>
      </trkpt>
      <trkpt lat="46.14735" lon="5.4158">
        <ele>404.4</ele>
        <time>2022-02-24T10:36:12Z</time>
      </trkpt>
      <trkpt lat="46.14734" lon="5.41576">
        <ele>404.6</ele>
        <time>2022-02-24T10:36:13Z</time>
      </trkpt>
      <trkpt lat="46.14734" lon="5.41572">
        <ele>404.8</ele>
        <time>2022-02-24T10:36:14Z</time>
      </trkpt>
      <trkpt lat="46.14733" lon="5.41569">
        <ele>404.8</ele>
        <time>2022-02-24T10:36:15Z</time>
      </trkpt>
      <trkpt lat="46.14733" lon="5.41565">
        <ele>405.2</ele>
        <time>2022-02-24T10:36:16Z</time>
      </trkpt>
      <trkpt lat="46.14733" lon="5.41561">
        <ele>405.4</ele>
        <time>2022-02-24T10:36:17Z</time>
      </trkpt>
      <trkpt lat="46.14733" lon="5.41558">
        <ele>405.4</ele>
        <time>2022-02-24T10:36:18Z</time>
      </trkpt>
      <trkpt lat="46.14733" lon="5.41554">
        <ele>405.8</ele>
        <time>2022-02-24T10:36:19Z</time>
      </trkpt>
      <trkpt lat="46.14733" lon="5.4155">
        <ele>405.8</ele>
        <time>2022-02-24T10:36:20Z</time>
      </trkpt>
      <trkpt lat="46.14732" lon="5.41547">
        <ele>406.2</ele>
        <time>2022-02-24T10:36:21Z</time>
      </trkpt>
      <trkpt lat="46.14732" lon="5.41543">
        <ele>406.2</ele>
        <time>2022-02-24T10:36:22Z</time>
      </trkpt>
      <trkpt lat="46.14731" lon="5.4154">
        <ele>406.4</ele>
        <time>2022-02-24T10:36:23Z</time>
      </trkpt>
      <trkpt lat="46.14731" lon="5.41537">
        <ele>406.8</ele>
        <time>2022-02-24T10:36:24Z</time>
      </trkpt>
      <trkpt lat="46.14731" lon="5.41534">
        <ele>406.8</ele>
        <time>2022-02-24T10:36:25Z</time>
      </trkpt>
      <trkpt lat="46.14731" lon="5.41531">
        <ele>407</ele>
        <time>2022-02-24T10:36:26Z</time>
      </trkpt>
      <trkpt lat="46.1473" lon="5.41528">
        <ele>407</ele>
        <time>2022-02-24T10:36:27Z</time>
      </trkpt>
      <trkpt lat="46.1473" lon="5.41524">
        <ele>407.4</ele>
        <time>2022-02-24T10:36:28Z</time>
      </trkpt>
      <trkpt lat="46.14729" lon="5.41521">
        <ele>407.6</ele>
        <time>2022-02-24T10:36:29Z</time>
      </trkpt>
      <trkpt lat="46.14729" lon="5.41518">
        <ele>407.8</ele>
        <time>2022-02-24T10:36:30Z</time>
      </trkpt>
      <trkpt lat="46.14728" lon="5.41515">
        <ele>407.8</ele>
        <time>2022-02-24T10:36:31Z</time>
      </trkpt>
      <trkpt lat="46.14728" lon="5.41512">
        <ele>408.2</ele>
        <time>2022-02-24T10:36:32Z</time>
      </trkpt>
      <trkpt lat="46.14727" lon="5.41509">
        <ele>408.4</ele>
        <time>2022-02-24T10:36:33Z</time>
      </trkpt>
      <trkpt lat="46.14726" lon="5.41507">
        <ele>408.6</ele>
        <time>2022-02-24T10:36:34Z</time>
      </trkpt>
      <trkpt lat="46.14726" lon="5.41505">
        <ele>409</ele>
        <time>2022-02-24T10:36:35Z</time>
      </trkpt>
      <trkpt lat="46.14724" lon="5.41502">
        <ele>409.2</ele>
        <time>2022-02-24T10:36:36Z</time>
      </trkpt>
      <trkpt lat="46.14723" lon="5.415">
        <ele>409.2</ele>
        <time>2022-02-24T10:36:37Z</time>
      </trkpt>
      <trkpt lat="46.14722" lon="5.41497">
        <ele>409.4</ele>
        <time>2022-02-24T10:36:38Z</time>
      </trkpt>
      <trkpt lat="46.1472" lon="5.41493">
        <ele>409.4</ele>
        <time>2022-02-24T10:36:39Z</time>
      </trkpt>
      <trkpt lat="46.1472" lon="5.4149">
        <ele>409.8</ele>
        <time>2022-02-24T10:36:40Z</time>
      </trkpt>
      <trkpt lat="46.14719" lon="5.41487">
        <ele>409.8</ele>
        <time>2022-02-24T10:36:41Z</time>
      </trkpt>
      <trkpt lat="46.14718" lon="5.41484">
        <ele>410.2</ele>
        <time>2022-02-24T10:36:42Z</time>
      </trkpt>
      <trkpt lat="46.14717" lon="5.41482">
        <ele>410.4</ele>
        <time>2022-02-24T10:36:43Z</time>
      </trkpt>
      <trkpt lat="46.14715" lon="5.41479">
        <ele>410.4</ele>
        <time>2022-02-24T10:36:44Z</time>
      </trkpt>
      <trkpt lat="46.14714" lon="5.41477">
        <ele>410.6</ele>
        <time>2022-02-24T10:36:45Z</time>
      </trkpt>
      <trkpt lat="46.14714" lon="5.41473">
        <ele>410.6</ele>
        <time>2022-02-24T10:36:46Z</time>
      </trkpt>
      <trkpt lat="46.14713" lon="5.4147">
        <ele>410.8</ele>
        <time>2022-02-24T10:36:47Z</time>
      </trkpt>
      <trkpt lat="46.14712" lon="5.41467">
        <ele>410.8</ele>
        <time>2022-02-24T10:36:48Z</time>
      </trkpt>
      <trkpt lat="46.14711" lon="5.41463">
        <ele>410.8</ele>
        <time>2022-02-24T10:36:49Z</time>
      </trkpt>
      <trkpt lat="46.14711" lon="5.4146">
        <ele>411.2</ele>
        <time>2022-02-24T10:36:50Z</time>
      </trkpt>
      <trkpt lat="46.1471" lon="5.41457">
        <ele>411.2</ele>
        <time>2022-02-24T10:36:51Z</time>
      </trkpt>
      <trkpt lat="46.14709" lon="5.41453">
        <ele>411.4</ele>
        <time>2022-02-24T10:36:52Z</time>
      </trkpt>
      <trkpt lat="46.14708" lon="5.4145">
        <ele>411.4</ele>
        <time>2022-02-24T10:36:53Z</time>
      </trkpt>
      <trkpt lat="46.14707" lon="5.41446">
        <ele>411.8</ele>
        <time>2022-02-24T10:36:54Z</time>
      </trkpt>
      <trkpt lat="46.14706" lon="5.41444">
        <ele>411.8</ele>
        <time>2022-02-24T10:36:55Z</time>
      </trkpt>
      <trkpt lat="46.14705" lon="5.4144">
        <ele>412</ele>
        <time>2022-02-24T10:36:56Z</time>
      </trkpt>
      <trkpt lat="46.14705" lon="5.41437">
        <ele>412</ele>
        <time>2022-02-24T10:36:57Z</time>
      </trkpt>
      <trkpt lat="46.14705" lon="5.41433">
        <ele>412</ele>
        <time>2022-02-24T10:36:58Z</time>
      </trkpt>
      <trkpt lat="46.14704" lon="5.4143">
        <ele>412.4</ele>
        <time>2022-02-24T10:36:59Z</time>
      </trkpt>
      <trkpt lat="46.14704" lon="5.41426">
        <ele>412.4</ele>
        <time>2022-02-24T10:37:00Z</time>
      </trkpt>
      <trkpt lat="46.14704" lon="5.41423">
        <ele>412.6</ele>
        <time>2022-02-24T10:37:01Z</time>
      </trkpt>
      <trkpt lat="46.14704" lon="5.41419">
        <ele>412.6</ele>
        <time>2022-02-24T10:37:02Z</time>
      </trkpt>
      <trkpt lat="46.14704" lon="5.41415">
        <ele>413</ele>
        <time>2022-02-24T10:37:03Z</time>
      </trkpt>
      <trkpt lat="46.14703" lon="5.41411">
        <ele>413</ele>
        <time>2022-02-24T10:37:04Z</time>
      </trkpt>
      <trkpt lat="46.14703" lon="5.41407">
        <ele>413.2</ele>
        <time>2022-02-24T10:37:05Z</time>
      </trkpt>
      <trkpt lat="46.14703" lon="5.41403">
        <ele>413.2</ele>
        <time>2022-02-24T10:37:06Z</time>
      </trkpt>
      <trkpt lat="46.14703" lon="5.41399">
        <ele>413.6</ele>
        <time>2022-02-24T10:37:07Z</time>
      </trkpt>
      <trkpt lat="46.14703" lon="5.41395">
        <ele>413.6</ele>
        <time>2022-02-24T10:37:08Z</time>
      </trkpt>
      <trkpt lat="46.14703" lon="5.41392">
        <ele>414</ele>
        <time>2022-02-24T10:37:09Z</time>
      </trkpt>
      <trkpt lat="46.14703" lon="5.41388">
        <ele>414.2</ele>
        <time>2022-02-24T10:37:10Z</time>
      </trkpt>
      <trkpt lat="46.14703" lon="5.41384">
        <ele>414.2</ele>
        <time>2022-02-24T10:37:11Z</time>
      </trkpt>
      <trkpt lat="46.14703" lon="5.41381">
        <ele>414.4</ele>
        <time>2022-02-24T10:37:12Z</time>
      </trkpt>
      <trkpt lat="46.14703" lon="5.41377">
        <ele>414.4</ele>
        <time>2022-02-24T10:37:13Z</time>
      </trkpt>
      <trkpt lat="46.14703" lon="5.41374">
        <ele>414.6</ele>
        <time>2022-02-24T10:37:14Z</time>
      </trkpt>
      <trkpt lat="46.14704" lon="5.4137">
        <ele>414.6</ele>
        <time>2022-02-24T10:37:15Z</time>
      </trkpt>
      <trkpt lat="46.14704" lon="5.41367">
        <ele>415</ele>
        <time>2022-02-24T10:37:16Z</time>
      </trkpt>
      <trkpt lat="46.14704" lon="5.41363">
        <ele>415</ele>
        <time>2022-02-24T10:37:17Z</time>
      </trkpt>
      <trkpt lat="46.14704" lon="5.4136">
        <ele>415.2</ele>
        <time>2022-02-24T10:37:18Z</time>
      </trkpt>
      <trkpt lat="46.14704" lon="5.41356">
        <ele>415.2</ele>
        <time>2022-02-24T10:37:19Z</time>
      </trkpt>
      <trkpt lat="46.14704" lon="5.41353">
        <ele>415.6</ele>
        <time>2022-02-24T10:37:20Z</time>
      </trkpt>
      <trkpt lat="46.14704" lon="5.41349">
        <ele>415.8</ele>
        <time>2022-02-24T10:37:21Z</time>
      </trkpt>
      <trkpt lat="46.14704" lon="5.41346">
        <ele>415.8</ele>
        <time>2022-02-24T10:37:22Z</time>
      </trkpt>
      <trkpt lat="46.14704" lon="5.41343">
        <ele>416</ele>
        <time>2022-02-24T10:37:23Z</time>
      </trkpt>
      <trkpt lat="46.14704" lon="5.41339">
        <ele>416</ele>
        <time>2022-02-24T10:37:24Z</time>
      </trkpt>
      <trkpt lat="46.14704" lon="5.41336">
        <ele>416.4</ele>
        <time>2022-02-24T10:37:25Z</time>
      </trkpt>
      <trkpt lat="46.14704" lon="5.41332">
        <ele>416.4</ele>
        <time>2022-02-24T10:37:26Z</time>
      </trkpt>
      <trkpt lat="46.14704" lon="5.41329">
        <ele>416.8</ele>
        <time>2022-02-24T10:37:27Z</time>
      </trkpt>
      <trkpt lat="46.14703" lon="5.41326">
        <ele>416.8</ele>
        <time>2022-02-24T10:37:28Z</time>
      </trkpt>
      <trkpt lat="46.14703" lon="5.41322">
        <ele>417.2</ele>
        <time>2022-02-24T10:37:29Z</time>
      </trkpt>
      <trkpt lat="46.14702" lon="5.41319">
        <ele>417.2</ele>
        <time>2022-02-24T10:37:30Z</time>
      </trkpt>
      <trkpt lat="46.14701" lon="5.41316">
        <ele>417.6</ele>
        <time>2022-02-24T10:37:31Z</time>
      </trkpt>
      <trkpt lat="46.147" lon="5.41314">
        <ele>417.8</ele>
        <time>2022-02-24T10:37:32Z</time>
      </trkpt>
      <trkpt lat="46.14699" lon="5.41311">
        <ele>417.8</ele>
        <time>2022-02-24T10:37:33Z</time>
      </trkpt>
      <trkpt lat="46.14699" lon="5.41308">
        <ele>418</ele>
        <time>2022-02-24T10:37:34Z</time>
      </trkpt>
      <trkpt lat="46.14698" lon="5.41305">
        <ele>418</ele>
        <time>2022-02-24T10:37:35Z</time>
      </trkpt>
      <trkpt lat="46.14696" lon="5.41302">
        <ele>418.4</ele>
        <time>2022-02-24T10:37:36Z</time>
      </trkpt>
      <trkpt lat="46.14695" lon="5.41299">
        <ele>418.4</ele>
        <time>2022-02-24T10:37:37Z</time>
      </trkpt>
      <trkpt lat="46.14694" lon="5.41297">
        <ele>418.6</ele>
        <time>2022-02-24T10:37:38Z</time>
      </trkpt>
      <trkpt lat="46.14693" lon="5.41294">
        <ele>418.6</ele>
        <time>2022-02-24T10:37:39Z</time>
      </trkpt>
      <trkpt lat="46.14691" lon="5.41292">
        <ele>419</ele>
        <time>2022-02-24T10:37:40Z</time>
      </trkpt>
      <trkpt lat="46.1469" lon="5.4129">
        <ele>419</ele>
        <time>2022-02-24T10:37:41Z</time>
      </trkpt>
      <trkpt lat="46.14689" lon="5.41288">
        <ele>419.4</ele>
        <time>2022-02-24T10:37:42Z</time>
      </trkpt>
      <trkpt lat="46.14687" lon="5.41286">
        <ele>419.4</ele>
        <time>2022-02-24T10:37:43Z</time>
      </trkpt>
      <trkpt lat="46.14685" lon="5.41284">
        <ele>419.8</ele>
        <time>2022-02-24T10:37:44Z</time>
      </trkpt>
      <trkpt lat="46.14683" lon="5.41282">
        <ele>419.8</ele>
        <time>2022-02-24T10:37:45Z</time>
      </trkpt>
      <trkpt lat="46.14682" lon="5.4128">
        <ele>420.2</ele>
        <time>2022-02-24T10:37:46Z</time>
      </trkpt>
      <trkpt lat="46.1468" lon="5.41277">
        <ele>420.2</ele>
        <time>2022-02-24T10:37:47Z</time>
      </trkpt>
      <trkpt lat="46.14678" lon="5.41275">
        <ele>420.4</ele>
        <time>2022-02-24T10:37:48Z</time>
      </trkpt>
      <trkpt lat="46.14676" lon="5.41272">
        <ele>420.6</ele>
        <time>2022-02-24T10:37:49Z</time>
      </trkpt>
      <trkpt lat="46.14674" lon="5.4127">
        <ele>420.6</ele>
        <time>2022-02-24T10:37:50Z</time>
      </trkpt>
      <trkpt lat="46.14672" lon="5.41268">
        <ele>420.6</ele>
        <time>2022-02-24T10:37:51Z</time>
      </trkpt>
      <trkpt lat="46.1467" lon="5.41266">
        <ele>420.6</ele>
        <time>2022-02-24T10:37:52Z</time>
      </trkpt>
      <trkpt lat="46.14668" lon="5.41264">
        <ele>421</ele>
        <time>2022-02-24T10:37:53Z</time>
      </trkpt>
      <trkpt lat="46.14666" lon="5.41262">
        <ele>421</ele>
        <time>2022-02-24T10:37:54Z</time>
      </trkpt>
      <trkpt lat="46.14664" lon="5.4126">
        <ele>421.4</ele>
        <time>2022-02-24T10:37:55Z</time>
      </trkpt>
      <trkpt lat="46.14662" lon="5.41257">
        <ele>421.6</ele>
        <time>2022-02-24T10:37:56Z</time>
      </trkpt>
      <trkpt lat="46.14661" lon="5.41255">
        <ele>421.6</ele>
        <time>2022-02-24T10:37:57Z</time>
      </trkpt>
      <trkpt lat="46.14659" lon="5.41252">
        <ele>422</ele>
        <time>2022-02-24T10:37:58Z</time>
      </trkpt>
      <trkpt lat="46.14657" lon="5.41249">
        <ele>422.2</ele>
        <time>2022-02-24T10:37:59Z</time>
      </trkpt>
      <trkpt lat="46.14655" lon="5.41247">
        <ele>422.2</ele>
        <time>2022-02-24T10:38:00Z</time>
      </trkpt>
      <trkpt lat="46.14654" lon="5.41244">
        <ele>422.6</ele>
        <time>2022-02-24T10:38:01Z</time>
      </trkpt>
      <trkpt lat="46.14652" lon="5.41241">
        <ele>422.6</ele>
        <time>2022-02-24T10:38:02Z</time>
      </trkpt>
      <trkpt lat="46.1465" lon="5.41239">
        <ele>422.8</ele>
        <time>2022-02-24T10:38:03Z</time>
      </trkpt>
      <trkpt lat="46.14649" lon="5.41236">
        <ele>422.8</ele>
        <time>2022-02-24T10:38:04Z</time>
      </trkpt>
      <trkpt lat="46.14647" lon="5.41234">
        <ele>423</ele>
        <time>2022-02-24T10:38:05Z</time>
      </trkpt>
      <trkpt lat="46.14646" lon="5.41232">
        <ele>423</ele>
        <time>2022-02-24T10:38:06Z</time>
      </trkpt>
      <trkpt lat="46.14644" lon="5.41229">
        <ele>423.4</ele>
        <time>2022-02-24T10:38:07Z</time>
      </trkpt>
      <trkpt lat="46.14643" lon="5.41227">
        <ele>423.4</ele>
        <time>2022-02-24T10:38:08Z</time>
      </trkpt>
      <trkpt lat="46.14641" lon="5.41224">
        <ele>423.8</ele>
        <time>2022-02-24T10:38:09Z</time>
      </trkpt>
      <trkpt lat="46.1464" lon="5.41221">
        <ele>423.8</ele>
        <time>2022-02-24T10:38:10Z</time>
      </trkpt>
      <trkpt lat="46.14639" lon="5.41219">
        <ele>424</ele>
        <time>2022-02-24T10:38:11Z</time>
      </trkpt>
      <trkpt lat="46.14638" lon="5.41216">
        <ele>424</ele>
        <time>2022-02-24T10:38:12Z</time>
      </trkpt>
      <trkpt lat="46.14637" lon="5.41214">
        <ele>424.2</ele>
        <time>2022-02-24T10:38:13Z</time>
      </trkpt>
      <trkpt lat="46.14636" lon="5.41212">
        <ele>424.2</ele>
        <time>2022-02-24T10:38:14Z</time>
      </trkpt>
      <trkpt lat="46.14635" lon="5.41209">
        <ele>424.6</ele>
        <time>2022-02-24T10:38:15Z</time>
      </trkpt>
      <trkpt lat="46.14634" lon="5.41207">
        <ele>424.6</ele>
        <time>2022-02-24T10:38:16Z</time>
      </trkpt>
      <trkpt lat="46.14633" lon="5.41204">
        <ele>424.8</ele>
        <time>2022-02-24T10:38:17Z</time>
      </trkpt>
      <trkpt lat="46.14632" lon="5.41202">
        <ele>424.8</ele>
        <time>2022-02-24T10:38:18Z</time>
      </trkpt>
      <trkpt lat="46.14631" lon="5.41199">
        <ele>425</ele>
        <time>2022-02-24T10:38:19Z</time>
      </trkpt>
      <trkpt lat="46.1463" lon="5.41196">
        <ele>425.2</ele>
        <time>2022-02-24T10:38:20Z</time>
      </trkpt>
      <trkpt lat="46.14628" lon="5.41194">
        <ele>425.6</ele>
        <time>2022-02-24T10:38:21Z</time>
      </trkpt>
      <trkpt lat="46.14627" lon="5.41191">
        <ele>425.8</ele>
        <time>2022-02-24T10:38:22Z</time>
      </trkpt>
      <trkpt lat="46.14627" lon="5.41188">
        <ele>425.8</ele>
        <time>2022-02-24T10:38:23Z</time>
      </trkpt>
      <trkpt lat="46.14626" lon="5.41185">
        <ele>426.2</ele>
        <time>2022-02-24T10:38:24Z</time>
      </trkpt>
      <trkpt lat="46.14625" lon="5.41182">
        <ele>426.2</ele>
        <time>2022-02-24T10:38:25Z</time>
      </trkpt>
      <trkpt lat="46.14624" lon="5.41179">
        <ele>426.6</ele>
        <time>2022-02-24T10:38:26Z</time>
      </trkpt>
      <trkpt lat="46.14624" lon="5.41175">
        <ele>426.8</ele>
        <time>2022-02-24T10:38:27Z</time>
      </trkpt>
      <trkpt lat="46.14623" lon="5.41172">
        <ele>426.8</ele>
        <time>2022-02-24T10:38:28Z</time>
      </trkpt>
      <trkpt lat="46.14622" lon="5.41169">
        <ele>427.2</ele>
        <time>2022-02-24T10:38:29Z</time>
      </trkpt>
      <trkpt lat="46.14621" lon="5.41166">
        <ele>427.2</ele>
        <time>2022-02-24T10:38:30Z</time>
      </trkpt>
      <trkpt lat="46.14619" lon="5.41163">
        <ele>427.6</ele>
        <time>2022-02-24T10:38:31Z</time>
      </trkpt>
      <trkpt lat="46.14618" lon="5.4116">
        <ele>427.6</ele>
        <time>2022-02-24T10:38:32Z</time>
      </trkpt>
      <trkpt lat="46.14617" lon="5.41158">
        <ele>428</ele>
        <time>2022-02-24T10:38:33Z</time>
      </trkpt>
      <trkpt lat="46.14616" lon="5.41155">
        <ele>428</ele>
        <time>2022-02-24T10:38:34Z</time>
      </trkpt>
      <trkpt lat="46.14616" lon="5.41152">
        <ele>428.2</ele>
        <time>2022-02-24T10:38:35Z</time>
      </trkpt>
      <trkpt lat="46.14615" lon="5.41149">
        <ele>428.4</ele>
        <time>2022-02-24T10:38:36Z</time>
      </trkpt>
      <trkpt lat="46.14614" lon="5.41145">
        <ele>428.4</ele>
        <time>2022-02-24T10:38:37Z</time>
      </trkpt>
      <trkpt lat="46.14613" lon="5.41142">
        <ele>428.8</ele>
        <time>2022-02-24T10:38:38Z</time>
      </trkpt>
      <trkpt lat="46.14612" lon="5.41139">
        <ele>428.8</ele>
        <time>2022-02-24T10:38:39Z</time>
      </trkpt>
      <trkpt lat="46.1461" lon="5.41136">
        <ele>429</ele>
        <time>2022-02-24T10:38:40Z</time>
      </trkpt>
      <trkpt lat="46.14609" lon="5.41133">
        <ele>429</ele>
        <time>2022-02-24T10:38:41Z</time>
      </trkpt>
      <trkpt lat="46.14608" lon="5.4113">
        <ele>429</ele>
        <time>2022-02-24T10:38:42Z</time>
      </trkpt>
      <trkpt lat="46.14607" lon="5.41127">
        <ele>429.4</ele>
        <time>2022-02-24T10:38:43Z</time>
      </trkpt>
      <trkpt lat="46.14606" lon="5.41123">
        <ele>429.4</ele>
        <time>2022-02-24T10:38:44Z</time>
      </trkpt>
      <trkpt lat="46.14605" lon="5.4112">
        <ele>429.6</ele>
        <time>2022-02-24T10:38:45Z</time>
      </trkpt>
      <trkpt lat="46.14604" lon="5.41117">
        <ele>429.6</ele>
        <time>2022-02-24T10:38:46Z</time>
      </trkpt>
      <trkpt lat="46.14603" lon="5.41114">
        <ele>429.6</ele>
        <time>2022-02-24T10:38:47Z</time>
      </trkpt>
      <trkpt lat="46.14602" lon="5.41111">
        <ele>430</ele>
        <time>2022-02-24T10:38:48Z</time>
      </trkpt>
      <trkpt lat="46.14601" lon="5.41107">
        <ele>430</ele>
        <time>2022-02-24T10:38:49Z</time>
      </trkpt>
      <trkpt lat="46.146" lon="5.41104">
        <ele>430.2</ele>
        <time>2022-02-24T10:38:50Z</time>
      </trkpt>
      <trkpt lat="46.146" lon="5.411">
        <ele>430.2</ele>
        <time>2022-02-24T10:38:51Z</time>
      </trkpt>
      <trkpt lat="46.14599" lon="5.41096">
        <ele>430.6</ele>
        <time>2022-02-24T10:38:52Z</time>
      </trkpt>
      <trkpt lat="46.14598" lon="5.41092">
        <ele>430.8</ele>
        <time>2022-02-24T10:38:53Z</time>
      </trkpt>
      <trkpt lat="46.14598" lon="5.41089">
        <ele>431</ele>
        <time>2022-02-24T10:38:54Z</time>
      </trkpt>
      <trkpt lat="46.14597" lon="5.41085">
        <ele>431</ele>
        <time>2022-02-24T10:38:55Z</time>
      </trkpt>
      <trkpt lat="46.14596" lon="5.41081">
        <ele>431.2</ele>
        <time>2022-02-24T10:38:56Z</time>
      </trkpt>
      <trkpt lat="46.14596" lon="5.41078">
        <ele>431.2</ele>
        <time>2022-02-24T10:38:57Z</time>
      </trkpt>
      <trkpt lat="46.14595" lon="5.41074">
        <ele>431.2</ele>
        <time>2022-02-24T10:38:58Z</time>
      </trkpt>
      <trkpt lat="46.14594" lon="5.4107">
        <ele>431.6</ele>
        <time>2022-02-24T10:38:59Z</time>
      </trkpt>
      <trkpt lat="46.14593" lon="5.41067">
        <ele>431.8</ele>
        <time>2022-02-24T10:39:00Z</time>
      </trkpt>
      <trkpt lat="46.14593" lon="5.41062">
        <ele>431.8</ele>
        <time>2022-02-24T10:39:01Z</time>
      </trkpt>
      <trkpt lat="46.14592" lon="5.41058">
        <ele>431.8</ele>
        <time>2022-02-24T10:39:02Z</time>
      </trkpt>
      <trkpt lat="46.14592" lon="5.41054">
        <ele>432.2</ele>
        <time>2022-02-24T10:39:03Z</time>
      </trkpt>
      <trkpt lat="46.14592" lon="5.41051">
        <ele>432.2</ele>
        <time>2022-02-24T10:39:04Z</time>
      </trkpt>
      <trkpt lat="46.14591" lon="5.41047">
        <ele>432.2</ele>
        <time>2022-02-24T10:39:05Z</time>
      </trkpt>
      <trkpt lat="46.14591" lon="5.41043">
        <ele>432.4</ele>
        <time>2022-02-24T10:39:06Z</time>
      </trkpt>
      <trkpt lat="46.14591" lon="5.41043">
        <ele>432.4</ele>
        <time>2022-02-24T10:39:07Z</time>
      </trkpt>
      <trkpt lat="46.1459" lon="5.41039">
        <ele>432.6</ele>
        <time>2022-02-24T10:39:08Z</time>
      </trkpt>
      <trkpt lat="46.1459" lon="5.41032">
        <ele>432.8</ele>
        <time>2022-02-24T10:39:09Z</time>
      </trkpt>
      <trkpt lat="46.1459" lon="5.41028">
        <ele>432.8</ele>
        <time>2022-02-24T10:39:10Z</time>
      </trkpt>
      <trkpt lat="46.14589" lon="5.41025">
        <ele>433.2</ele>
        <time>2022-02-24T10:39:11Z</time>
      </trkpt>
      <trkpt lat="46.14589" lon="5.41021">
        <ele>433.4</ele>
        <time>2022-02-24T10:39:12Z</time>
      </trkpt>
      <trkpt lat="46.14588" lon="5.41017">
        <ele>433.4</ele>
        <time>2022-02-24T10:39:13Z</time>
      </trkpt>
      <trkpt lat="46.14588" lon="5.41014">
        <ele>433.6</ele>
        <time>2022-02-24T10:39:14Z</time>
      </trkpt>
      <trkpt lat="46.14587" lon="5.4101">
        <ele>434</ele>
        <time>2022-02-24T10:39:15Z</time>
      </trkpt>
      <trkpt lat="46.14587" lon="5.41007">
        <ele>434</ele>
        <time>2022-02-24T10:39:16Z</time>
      </trkpt>
      <trkpt lat="46.14587" lon="5.41003">
        <ele>434.2</ele>
        <time>2022-02-24T10:39:17Z</time>
      </trkpt>
      <trkpt lat="46.14586" lon="5.40999">
        <ele>434.2</ele>
        <time>2022-02-24T10:39:18Z</time>
      </trkpt>
      <trkpt lat="46.14586" lon="5.40996">
        <ele>434.8</ele>
        <time>2022-02-24T10:39:19Z</time>
      </trkpt>
      <trkpt lat="46.14585" lon="5.40993">
        <ele>434.8</ele>
        <time>2022-02-24T10:39:20Z</time>
      </trkpt>
      <trkpt lat="46.14584" lon="5.40989">
        <ele>435</ele>
        <time>2022-02-24T10:39:21Z</time>
      </trkpt>
      <trkpt lat="46.14583" lon="5.40986">
        <ele>435</ele>
        <time>2022-02-24T10:39:22Z</time>
      </trkpt>
      <trkpt lat="46.14582" lon="5.40983">
        <ele>435.4</ele>
        <time>2022-02-24T10:39:23Z</time>
      </trkpt>
      <trkpt lat="46.14581" lon="5.40979">
        <ele>435.4</ele>
        <time>2022-02-24T10:39:24Z</time>
      </trkpt>
      <trkpt lat="46.14579" lon="5.40976">
        <ele>435.6</ele>
        <time>2022-02-24T10:39:25Z</time>
      </trkpt>
      <trkpt lat="46.14578" lon="5.40973">
        <ele>435.6</ele>
        <time>2022-02-24T10:39:26Z</time>
      </trkpt>
      <trkpt lat="46.14576" lon="5.4097">
        <ele>436</ele>
        <time>2022-02-24T10:39:27Z</time>
      </trkpt>
      <trkpt lat="46.14574" lon="5.40967">
        <ele>436</ele>
        <time>2022-02-24T10:39:28Z</time>
      </trkpt>
      <trkpt lat="46.14573" lon="5.40964">
        <ele>436.4</ele>
        <time>2022-02-24T10:39:29Z</time>
      </trkpt>
      <trkpt lat="46.14571" lon="5.40961">
        <ele>436.4</ele>
        <time>2022-02-24T10:39:30Z</time>
      </trkpt>
      <trkpt lat="46.14569" lon="5.40959">
        <ele>436.6</ele>
        <time>2022-02-24T10:39:31Z</time>
      </trkpt>
      <trkpt lat="46.14567" lon="5.40956">
        <ele>436.6</ele>
        <time>2022-02-24T10:39:32Z</time>
      </trkpt>
      <trkpt lat="46.14564" lon="5.40954">
        <ele>436.8</ele>
        <time>2022-02-24T10:39:33Z</time>
      </trkpt>
      <trkpt lat="46.14562" lon="5.40952">
        <ele>436.8</ele>
        <time>2022-02-24T10:39:34Z</time>
      </trkpt>
      <trkpt lat="46.1456" lon="5.4095">
        <ele>437.2</ele>
        <time>2022-02-24T10:39:35Z</time>
      </trkpt>
      <trkpt lat="46.14558" lon="5.40948">
        <ele>437.2</ele>
        <time>2022-02-24T10:39:36Z</time>
      </trkpt>
      <trkpt lat="46.14555" lon="5.40946">
        <ele>437.4</ele>
        <time>2022-02-24T10:39:37Z</time>
      </trkpt>
      <trkpt lat="46.14553" lon="5.40944">
        <ele>437.4</ele>
        <time>2022-02-24T10:39:38Z</time>
      </trkpt>
      <trkpt lat="46.1455" lon="5.40942">
        <ele>437.6</ele>
        <time>2022-02-24T10:39:39Z</time>
      </trkpt>
      <trkpt lat="46.14548" lon="5.40941">
        <ele>437.6</ele>
        <time>2022-02-24T10:39:40Z</time>
      </trkpt>
      <trkpt lat="46.14545" lon="5.4094">
        <ele>437.8</ele>
        <time>2022-02-24T10:39:41Z</time>
      </trkpt>
      <trkpt lat="46.14542" lon="5.40939">
        <ele>438</ele>
        <time>2022-02-24T10:39:42Z</time>
      </trkpt>
      <trkpt lat="46.14539" lon="5.40938">
        <ele>438</ele>
        <time>2022-02-24T10:39:43Z</time>
      </trkpt>
      <trkpt lat="46.14537" lon="5.40937">
        <ele>438.4</ele>
        <time>2022-02-24T10:39:44Z</time>
      </trkpt>
      <trkpt lat="46.14534" lon="5.40936">
        <ele>438.4</ele>
        <time>2022-02-24T10:39:45Z</time>
      </trkpt>
      <trkpt lat="46.14531" lon="5.40936">
        <ele>438.6</ele>
        <time>2022-02-24T10:39:46Z</time>
      </trkpt>
      <trkpt lat="46.14528" lon="5.40935">
        <ele>438.6</ele>
        <time>2022-02-24T10:39:47Z</time>
      </trkpt>
      <trkpt lat="46.14525" lon="5.40935">
        <ele>438.6</ele>
        <time>2022-02-24T10:39:48Z</time>
      </trkpt>
      <trkpt lat="46.14521" lon="5.40935">
        <ele>438.6</ele>
        <time>2022-02-24T10:39:49Z</time>
      </trkpt>
      <trkpt lat="46.14518" lon="5.40935">
        <ele>438.6</ele>
        <time>2022-02-24T10:39:50Z</time>
      </trkpt>
      <trkpt lat="46.14515" lon="5.40935">
        <ele>438.8</ele>
        <time>2022-02-24T10:39:51Z</time>
      </trkpt>
      <trkpt lat="46.14511" lon="5.40935">
        <ele>438.8</ele>
        <time>2022-02-24T10:39:52Z</time>
      </trkpt>
      <trkpt lat="46.14508" lon="5.40935">
        <ele>438.8</ele>
        <time>2022-02-24T10:39:53Z</time>
      </trkpt>
      <trkpt lat="46.14504" lon="5.40934">
        <ele>439</ele>
        <time>2022-02-24T10:39:54Z</time>
      </trkpt>
      <trkpt lat="46.14501" lon="5.40934">
        <ele>439</ele>
        <time>2022-02-24T10:39:55Z</time>
      </trkpt>
      <trkpt lat="46.14498" lon="5.40934">
        <ele>439</ele>
        <time>2022-02-24T10:39:56Z</time>
      </trkpt>
      <trkpt lat="46.14494" lon="5.40934">
        <ele>439.4</ele>
        <time>2022-02-24T10:39:57Z</time>
      </trkpt>
      <trkpt lat="46.14491" lon="5.40933">
        <ele>439.4</ele>
        <time>2022-02-24T10:39:58Z</time>
      </trkpt>
      <trkpt lat="46.14487" lon="5.40933">
        <ele>439.4</ele>
        <time>2022-02-24T10:39:59Z</time>
      </trkpt>
      <trkpt lat="46.14484" lon="5.40933">
        <ele>439.6</ele>
        <time>2022-02-24T10:40:00Z</time>
      </trkpt>
      <trkpt lat="46.1448" lon="5.40932">
        <ele>439.6</ele>
        <time>2022-02-24T10:40:01Z</time>
      </trkpt>
      <trkpt lat="46.14477" lon="5.40932">
        <ele>439.6</ele>
        <time>2022-02-24T10:40:02Z</time>
      </trkpt>
      <trkpt lat="46.14471" lon="5.40931">
        <ele>439.6</ele>
        <time>2022-02-24T10:40:03Z</time>
      </trkpt>
      <trkpt lat="46.14469" lon="5.40931">
        <ele>439.6</ele>
        <time>2022-02-24T10:40:04Z</time>
      </trkpt>
      <trkpt lat="46.14465" lon="5.4093">
        <ele>439.6</ele>
        <time>2022-02-24T10:40:05Z</time>
      </trkpt>
      <trkpt lat="46.14461" lon="5.40929">
        <ele>439.6</ele>
        <time>2022-02-24T10:40:06Z</time>
      </trkpt>
      <trkpt lat="46.14457" lon="5.40929">
        <ele>439.6</ele>
        <time>2022-02-24T10:40:07Z</time>
      </trkpt>
      <trkpt lat="46.14451" lon="5.40928">
        <ele>439.6</ele>
        <time>2022-02-24T10:40:08Z</time>
      </trkpt>
      <trkpt lat="46.14449" lon="5.40927">
        <ele>439.4</ele>
        <time>2022-02-24T10:40:09Z</time>
      </trkpt>
      <trkpt lat="46.14444" lon="5.40927">
        <ele>439.2</ele>
        <time>2022-02-24T10:40:10Z</time>
      </trkpt>
      <trkpt lat="46.1444" lon="5.40925">
        <ele>438.8</ele>
        <time>2022-02-24T10:40:11Z</time>
      </trkpt>
      <trkpt lat="46.14435" lon="5.40924">
        <ele>438.6</ele>
        <time>2022-02-24T10:40:12Z</time>
      </trkpt>
      <trkpt lat="46.1443" lon="5.40923">
        <ele>438.4</ele>
        <time>2022-02-24T10:40:13Z</time>
      </trkpt>
      <trkpt lat="46.14425" lon="5.40921">
        <ele>438.4</ele>
        <time>2022-02-24T10:40:14Z</time>
      </trkpt>
      <trkpt lat="46.14419" lon="5.4092">
        <ele>438</ele>
        <time>2022-02-24T10:40:15Z</time>
      </trkpt>
      <trkpt lat="46.14412" lon="5.40918">
        <ele>437.6</ele>
        <time>2022-02-24T10:40:16Z</time>
      </trkpt>
      <trkpt lat="46.14406" lon="5.40916">
        <ele>437.2</ele>
        <time>2022-02-24T10:40:17Z</time>
      </trkpt>
      <trkpt lat="46.14399" lon="5.40914">
        <ele>436.8</ele>
        <time>2022-02-24T10:40:18Z</time>
      </trkpt>
      <trkpt lat="46.14392" lon="5.40912">
        <ele>436.6</ele>
        <time>2022-02-24T10:40:19Z</time>
      </trkpt>
      <trkpt lat="46.14385" lon="5.4091">
        <ele>436.6</ele>
        <time>2022-02-24T10:40:20Z</time>
      </trkpt>
      <trkpt lat="46.14377" lon="5.40907">
        <ele>436</ele>
        <time>2022-02-24T10:40:21Z</time>
      </trkpt>
      <trkpt lat="46.1437" lon="5.40904">
        <ele>435.6</ele>
        <time>2022-02-24T10:40:22Z</time>
      </trkpt>
      <trkpt lat="46.14363" lon="5.40901">
        <ele>435.2</ele>
        <time>2022-02-24T10:40:23Z</time>
      </trkpt>
      <trkpt lat="46.14356" lon="5.40897">
        <ele>434.8</ele>
        <time>2022-02-24T10:40:24Z</time>
      </trkpt>
      <trkpt lat="46.14348" lon="5.40892">
        <ele>434.2</ele>
        <time>2022-02-24T10:40:25Z</time>
      </trkpt>
      <trkpt lat="46.14341" lon="5.40888">
        <ele>433.8</ele>
        <time>2022-02-24T10:40:26Z</time>
      </trkpt>
      <trkpt lat="46.14334" lon="5.40883">
        <ele>433.4</ele>
        <time>2022-02-24T10:40:27Z</time>
      </trkpt>
      <trkpt lat="46.14326" lon="5.40879">
        <ele>433</ele>
        <time>2022-02-24T10:40:28Z</time>
      </trkpt>
      <trkpt lat="46.14319" lon="5.40874">
        <ele>432.6</ele>
        <time>2022-02-24T10:40:29Z</time>
      </trkpt>
      <trkpt lat="46.14312" lon="5.40869">
        <ele>432.2</ele>
        <time>2022-02-24T10:40:30Z</time>
      </trkpt>
      <trkpt lat="46.14304" lon="5.40864">
        <ele>431.6</ele>
        <time>2022-02-24T10:40:31Z</time>
      </trkpt>
      <trkpt lat="46.14297" lon="5.40859">
        <ele>431</ele>
        <time>2022-02-24T10:40:32Z</time>
      </trkpt>
      <trkpt lat="46.1429" lon="5.40852">
        <ele>430.6</ele>
        <time>2022-02-24T10:40:33Z</time>
      </trkpt>
      <trkpt lat="46.14284" lon="5.40845">
        <ele>430</ele>
        <time>2022-02-24T10:40:34Z</time>
      </trkpt>
      <trkpt lat="46.14277" lon="5.40837">
        <ele>429.6</ele>
        <time>2022-02-24T10:40:35Z</time>
      </trkpt>
      <trkpt lat="46.14271" lon="5.4083">
        <ele>429.2</ele>
        <time>2022-02-24T10:40:36Z</time>
      </trkpt>
      <trkpt lat="46.14264" lon="5.40824">
        <ele>428.6</ele>
        <time>2022-02-24T10:40:37Z</time>
      </trkpt>
      <trkpt lat="46.14256" lon="5.40819">
        <ele>428.2</ele>
        <time>2022-02-24T10:40:38Z</time>
      </trkpt>
      <trkpt lat="46.14249" lon="5.40814">
        <ele>428</ele>
        <time>2022-02-24T10:40:39Z</time>
      </trkpt>
      <trkpt lat="46.14241" lon="5.40809">
        <ele>427.6</ele>
        <time>2022-02-24T10:40:40Z</time>
      </trkpt>
      <trkpt lat="46.14233" lon="5.40803">
        <ele>427</ele>
        <time>2022-02-24T10:40:41Z</time>
      </trkpt>
      <trkpt lat="46.14226" lon="5.40799">
        <ele>426.2</ele>
        <time>2022-02-24T10:40:42Z</time>
      </trkpt>
      <trkpt lat="46.14217" lon="5.40795">
        <ele>425.8</ele>
        <time>2022-02-24T10:40:43Z</time>
      </trkpt>
      <trkpt lat="46.14209" lon="5.40791">
        <ele>425.4</ele>
        <time>2022-02-24T10:40:44Z</time>
      </trkpt>
      <trkpt lat="46.14201" lon="5.40787">
        <ele>425</ele>
        <time>2022-02-24T10:40:45Z</time>
      </trkpt>
      <trkpt lat="46.14193" lon="5.40783">
        <ele>424.6</ele>
        <time>2022-02-24T10:40:46Z</time>
      </trkpt>
      <trkpt lat="46.14184" lon="5.4078">
        <ele>424</ele>
        <time>2022-02-24T10:40:47Z</time>
      </trkpt>
      <trkpt lat="46.14176" lon="5.40776">
        <ele>423.6</ele>
        <time>2022-02-24T10:40:48Z</time>
      </trkpt>
      <trkpt lat="46.14167" lon="5.40772">
        <ele>423</ele>
        <time>2022-02-24T10:40:49Z</time>
      </trkpt>
      <trkpt lat="46.14158" lon="5.40769">
        <ele>422.6</ele>
        <time>2022-02-24T10:40:50Z</time>
      </trkpt>
      <trkpt lat="46.14149" lon="5.40766">
        <ele>422</ele>
        <time>2022-02-24T10:40:51Z</time>
      </trkpt>
      <trkpt lat="46.1414" lon="5.40763">
        <ele>421.6</ele>
        <time>2022-02-24T10:40:52Z</time>
      </trkpt>
      <trkpt lat="46.1413" lon="5.4076">
        <ele>421</ele>
        <time>2022-02-24T10:40:53Z</time>
      </trkpt>
      <trkpt lat="46.14122" lon="5.40758">
        <ele>420.4</ele>
        <time>2022-02-24T10:40:54Z</time>
      </trkpt>
      <trkpt lat="46.14112" lon="5.40756">
        <ele>419.8</ele>
        <time>2022-02-24T10:40:55Z</time>
      </trkpt>
      <trkpt lat="46.14103" lon="5.40753">
        <ele>419.2</ele>
        <time>2022-02-24T10:40:56Z</time>
      </trkpt>
      <trkpt lat="46.14093" lon="5.40752">
        <ele>418.8</ele>
        <time>2022-02-24T10:40:57Z</time>
      </trkpt>
      <trkpt lat="46.14084" lon="5.40749">
        <ele>418.2</ele>
        <time>2022-02-24T10:40:58Z</time>
      </trkpt>
      <trkpt lat="46.14074" lon="5.40746">
        <ele>417.6</ele>
        <time>2022-02-24T10:40:59Z</time>
      </trkpt>
      <trkpt lat="46.14064" lon="5.40742">
        <ele>417.2</ele>
        <time>2022-02-24T10:41:00Z</time>
      </trkpt>
      <trkpt lat="46.14054" lon="5.40738">
        <ele>416.8</ele>
        <time>2022-02-24T10:41:01Z</time>
      </trkpt>
      <trkpt lat="46.14045" lon="5.40735">
        <ele>416.4</ele>
        <time>2022-02-24T10:41:02Z</time>
      </trkpt>
      <trkpt lat="46.14035" lon="5.40732">
        <ele>415.8</ele>
        <time>2022-02-24T10:41:03Z</time>
      </trkpt>
      <trkpt lat="46.14025" lon="5.40729">
        <ele>415.4</ele>
        <time>2022-02-24T10:41:04Z</time>
      </trkpt>
      <trkpt lat="46.14015" lon="5.40727">
        <ele>414.6</ele>
        <time>2022-02-24T10:41:05Z</time>
      </trkpt>
      <trkpt lat="46.14004" lon="5.40724">
        <ele>414</ele>
        <time>2022-02-24T10:41:06Z</time>
      </trkpt>
      <trkpt lat="46.13994" lon="5.40722">
        <ele>413.2</ele>
        <time>2022-02-24T10:41:07Z</time>
      </trkpt>
      <trkpt lat="46.13983" lon="5.4072">
        <ele>412.6</ele>
        <time>2022-02-24T10:41:08Z</time>
      </trkpt>
      <trkpt lat="46.13974" lon="5.40716">
        <ele>411.8</ele>
        <time>2022-02-24T10:41:09Z</time>
      </trkpt>
      <trkpt lat="46.13964" lon="5.40715">
        <ele>411.2</ele>
        <time>2022-02-24T10:41:10Z</time>
      </trkpt>
      <trkpt lat="46.13955" lon="5.40712">
        <ele>410.8</ele>
        <time>2022-02-24T10:41:11Z</time>
      </trkpt>
      <trkpt lat="46.13945" lon="5.4071">
        <ele>410.2</ele>
        <time>2022-02-24T10:41:12Z</time>
      </trkpt>
      <trkpt lat="46.13936" lon="5.40708">
        <ele>409.6</ele>
        <time>2022-02-24T10:41:13Z</time>
      </trkpt>
      <trkpt lat="46.13926" lon="5.40706">
        <ele>409.2</ele>
        <time>2022-02-24T10:41:14Z</time>
      </trkpt>
      <trkpt lat="46.13916" lon="5.40704">
        <ele>408.4</ele>
        <time>2022-02-24T10:41:15Z</time>
      </trkpt>
      <trkpt lat="46.13907" lon="5.40704">
        <ele>408</ele>
        <time>2022-02-24T10:41:16Z</time>
      </trkpt>
      <trkpt lat="46.13898" lon="5.40703">
        <ele>407.6</ele>
        <time>2022-02-24T10:41:17Z</time>
      </trkpt>
      <trkpt lat="46.13888" lon="5.40701">
        <ele>407.2</ele>
        <time>2022-02-24T10:41:18Z</time>
      </trkpt>
      <trkpt lat="46.13879" lon="5.40702">
        <ele>406.6</ele>
        <time>2022-02-24T10:41:19Z</time>
      </trkpt>
      <trkpt lat="46.1387" lon="5.40702">
        <ele>406</ele>
        <time>2022-02-24T10:41:20Z</time>
      </trkpt>
      <trkpt lat="46.1386" lon="5.40703">
        <ele>405.6</ele>
        <time>2022-02-24T10:41:21Z</time>
      </trkpt>
      <trkpt lat="46.1385" lon="5.40706">
        <ele>405.2</ele>
        <time>2022-02-24T10:41:22Z</time>
      </trkpt>
      <trkpt lat="46.13841" lon="5.40709">
        <ele>404.6</ele>
        <time>2022-02-24T10:41:23Z</time>
      </trkpt>
      <trkpt lat="46.13831" lon="5.40711">
        <ele>404.2</ele>
        <time>2022-02-24T10:41:24Z</time>
      </trkpt>
      <trkpt lat="46.13821" lon="5.40714">
        <ele>403.6</ele>
        <time>2022-02-24T10:41:25Z</time>
      </trkpt>
      <trkpt lat="46.13811" lon="5.40718">
        <ele>403</ele>
        <time>2022-02-24T10:41:26Z</time>
      </trkpt>
      <trkpt lat="46.13801" lon="5.40721">
        <ele>402.4</ele>
        <time>2022-02-24T10:41:27Z</time>
      </trkpt>
      <trkpt lat="46.1379" lon="5.40724">
        <ele>401.8</ele>
        <time>2022-02-24T10:41:28Z</time>
      </trkpt>
      <trkpt lat="46.13779" lon="5.40727">
        <ele>401.2</ele>
        <time>2022-02-24T10:41:29Z</time>
      </trkpt>
      <trkpt lat="46.13768" lon="5.40731">
        <ele>400.6</ele>
        <time>2022-02-24T10:41:30Z</time>
      </trkpt>
      <trkpt lat="46.13758" lon="5.40733">
        <ele>399.8</ele>
        <time>2022-02-24T10:41:31Z</time>
      </trkpt>
      <trkpt lat="46.13747" lon="5.40733">
        <ele>399.2</ele>
        <time>2022-02-24T10:41:32Z</time>
      </trkpt>
      <trkpt lat="46.13736" lon="5.40733">
        <ele>398.6</ele>
        <time>2022-02-24T10:41:33Z</time>
      </trkpt>
      <trkpt lat="46.13726" lon="5.40732">
        <ele>398</ele>
        <time>2022-02-24T10:41:34Z</time>
      </trkpt>
      <trkpt lat="46.13716" lon="5.40732">
        <ele>397.4</ele>
        <time>2022-02-24T10:41:35Z</time>
      </trkpt>
      <trkpt lat="46.13705" lon="5.40731">
        <ele>397</ele>
        <time>2022-02-24T10:41:36Z</time>
      </trkpt>
      <trkpt lat="46.13695" lon="5.40731">
        <ele>396.4</ele>
        <time>2022-02-24T10:41:37Z</time>
      </trkpt>
      <trkpt lat="46.13684" lon="5.40732">
        <ele>396</ele>
        <time>2022-02-24T10:41:38Z</time>
      </trkpt>
      <trkpt lat="46.13674" lon="5.40731">
        <ele>395.2</ele>
        <time>2022-02-24T10:41:39Z</time>
      </trkpt>
      <trkpt lat="46.13662" lon="5.40731">
        <ele>394.6</ele>
        <time>2022-02-24T10:41:40Z</time>
      </trkpt>
      <trkpt lat="46.13651" lon="5.40732">
        <ele>394</ele>
        <time>2022-02-24T10:41:41Z</time>
      </trkpt>
      <trkpt lat="46.1364" lon="5.40732">
        <ele>393.4</ele>
        <time>2022-02-24T10:41:42Z</time>
      </trkpt>
      <trkpt lat="46.13629" lon="5.40732">
        <ele>392.6</ele>
        <time>2022-02-24T10:41:43Z</time>
      </trkpt>
      <trkpt lat="46.13618" lon="5.40732">
        <ele>391.8</ele>
        <time>2022-02-24T10:41:44Z</time>
      </trkpt>
      <trkpt lat="46.13607" lon="5.40732">
        <ele>391</ele>
        <time>2022-02-24T10:41:45Z</time>
      </trkpt>
      <trkpt lat="46.13597" lon="5.40731">
        <ele>390.4</ele>
        <time>2022-02-24T10:41:46Z</time>
      </trkpt>
      <trkpt lat="46.13586" lon="5.40729">
        <ele>390</ele>
        <time>2022-02-24T10:41:47Z</time>
      </trkpt>
      <trkpt lat="46.13575" lon="5.40725">
        <ele>389.6</ele>
        <time>2022-02-24T10:41:48Z</time>
      </trkpt>
      <trkpt lat="46.13558" lon="5.40718">
        <ele>389</ele>
        <time>2022-02-24T10:41:49Z</time>
      </trkpt>
      <trkpt lat="46.13553" lon="5.40715">
        <ele>388.6</ele>
        <time>2022-02-24T10:41:50Z</time>
      </trkpt>
      <trkpt lat="46.13542" lon="5.40708">
        <ele>388</ele>
        <time>2022-02-24T10:41:51Z</time>
      </trkpt>
      <trkpt lat="46.13531" lon="5.407">
        <ele>387.4</ele>
        <time>2022-02-24T10:41:52Z</time>
      </trkpt>
      <trkpt lat="46.13521" lon="5.40691">
        <ele>386.6</ele>
        <time>2022-02-24T10:41:53Z</time>
      </trkpt>
      <trkpt lat="46.13512" lon="5.40681">
        <ele>386</ele>
        <time>2022-02-24T10:41:54Z</time>
      </trkpt>
      <trkpt lat="46.13502" lon="5.40671">
        <ele>385.4</ele>
        <time>2022-02-24T10:41:55Z</time>
      </trkpt>
      <trkpt lat="46.13492" lon="5.40661">
        <ele>385</ele>
        <time>2022-02-24T10:41:56Z</time>
      </trkpt>
      <trkpt lat="46.13484" lon="5.4065">
        <ele>384.4</ele>
        <time>2022-02-24T10:41:57Z</time>
      </trkpt>
      <trkpt lat="46.13475" lon="5.4064">
        <ele>383.8</ele>
        <time>2022-02-24T10:41:58Z</time>
      </trkpt>
      <trkpt lat="46.13467" lon="5.4063">
        <ele>383.2</ele>
        <time>2022-02-24T10:41:59Z</time>
      </trkpt>
      <trkpt lat="46.13458" lon="5.40622">
        <ele>383</ele>
        <time>2022-02-24T10:42:00Z</time>
      </trkpt>
      <trkpt lat="46.13448" lon="5.40616">
        <ele>382.4</ele>
        <time>2022-02-24T10:42:01Z</time>
      </trkpt>
      <trkpt lat="46.13438" lon="5.4061">
        <ele>381.6</ele>
        <time>2022-02-24T10:42:02Z</time>
      </trkpt>
      <trkpt lat="46.13427" lon="5.40605">
        <ele>380.8</ele>
        <time>2022-02-24T10:42:03Z</time>
      </trkpt>
      <trkpt lat="46.13416" lon="5.40602">
        <ele>380.2</ele>
        <time>2022-02-24T10:42:04Z</time>
      </trkpt>
      <trkpt lat="46.13404" lon="5.406">
        <ele>379.4</ele>
        <time>2022-02-24T10:42:05Z</time>
      </trkpt>
      <trkpt lat="46.13393" lon="5.406">
        <ele>378.8</ele>
        <time>2022-02-24T10:42:06Z</time>
      </trkpt>
      <trkpt lat="46.13382" lon="5.406">
        <ele>378.2</ele>
        <time>2022-02-24T10:42:07Z</time>
      </trkpt>
      <trkpt lat="46.13371" lon="5.40598">
        <ele>377.6</ele>
        <time>2022-02-24T10:42:08Z</time>
      </trkpt>
      <trkpt lat="46.13359" lon="5.40599">
        <ele>376.8</ele>
        <time>2022-02-24T10:42:09Z</time>
      </trkpt>
      <trkpt lat="46.1335" lon="5.40604">
        <ele>376</ele>
        <time>2022-02-24T10:42:10Z</time>
      </trkpt>
      <trkpt lat="46.1334" lon="5.40607">
        <ele>375.4</ele>
        <time>2022-02-24T10:42:11Z</time>
      </trkpt>
      <trkpt lat="46.13329" lon="5.40611">
        <ele>374.8</ele>
        <time>2022-02-24T10:42:12Z</time>
      </trkpt>
      <trkpt lat="46.13318" lon="5.40614">
        <ele>374.4</ele>
        <time>2022-02-24T10:42:13Z</time>
      </trkpt>
      <trkpt lat="46.13308" lon="5.40618">
        <ele>373.6</ele>
        <time>2022-02-24T10:42:14Z</time>
      </trkpt>
      <trkpt lat="46.13299" lon="5.40621">
        <ele>373</ele>
        <time>2022-02-24T10:42:15Z</time>
      </trkpt>
      <trkpt lat="46.13289" lon="5.40624">
        <ele>372.4</ele>
        <time>2022-02-24T10:42:16Z</time>
      </trkpt>
      <trkpt lat="46.13279" lon="5.40627">
        <ele>371.8</ele>
        <time>2022-02-24T10:42:17Z</time>
      </trkpt>
      <trkpt lat="46.13268" lon="5.4063">
        <ele>371.4</ele>
        <time>2022-02-24T10:42:18Z</time>
      </trkpt>
      <trkpt lat="46.13258" lon="5.40633">
        <ele>371</ele>
        <time>2022-02-24T10:42:19Z</time>
      </trkpt>
      <trkpt lat="46.13247" lon="5.40636">
        <ele>370.2</ele>
        <time>2022-02-24T10:42:20Z</time>
      </trkpt>
      <trkpt lat="46.13236" lon="5.40637">
        <ele>369.8</ele>
        <time>2022-02-24T10:42:21Z</time>
      </trkpt>
      <trkpt lat="46.13225" lon="5.40639">
        <ele>369.4</ele>
        <time>2022-02-24T10:42:22Z</time>
      </trkpt>
      <trkpt lat="46.13214" lon="5.40641">
        <ele>368.8</ele>
        <time>2022-02-24T10:42:23Z</time>
      </trkpt>
      <trkpt lat="46.13203" lon="5.40643">
        <ele>368.2</ele>
        <time>2022-02-24T10:42:24Z</time>
      </trkpt>
      <trkpt lat="46.13191" lon="5.40643">
        <ele>367.6</ele>
        <time>2022-02-24T10:42:25Z</time>
      </trkpt>
      <trkpt lat="46.1318" lon="5.40643">
        <ele>367</ele>
        <time>2022-02-24T10:42:26Z</time>
      </trkpt>
      <trkpt lat="46.1317" lon="5.40643">
        <ele>366.6</ele>
        <time>2022-02-24T10:42:27Z</time>
      </trkpt>
      <trkpt lat="46.1316" lon="5.40642">
        <ele>365.8</ele>
        <time>2022-02-24T10:42:28Z</time>
      </trkpt>
      <trkpt lat="46.13149" lon="5.40641">
        <ele>365.2</ele>
        <time>2022-02-24T10:42:29Z</time>
      </trkpt>
      <trkpt lat="46.13138" lon="5.4064">
        <ele>364.6</ele>
        <time>2022-02-24T10:42:30Z</time>
      </trkpt>
      <trkpt lat="46.13126" lon="5.40639">
        <ele>364</ele>
        <time>2022-02-24T10:42:31Z</time>
      </trkpt>
      <trkpt lat="46.13116" lon="5.40639">
        <ele>363.2</ele>
        <time>2022-02-24T10:42:32Z</time>
      </trkpt>
      <trkpt lat="46.13105" lon="5.40638">
        <ele>362.6</ele>
        <time>2022-02-24T10:42:33Z</time>
      </trkpt>
      <trkpt lat="46.13095" lon="5.40637">
        <ele>362</ele>
        <time>2022-02-24T10:42:34Z</time>
      </trkpt>
      <trkpt lat="46.13083" lon="5.40635">
        <ele>361.4</ele>
        <time>2022-02-24T10:42:35Z</time>
      </trkpt>
      <trkpt lat="46.13073" lon="5.40634">
        <ele>360.8</ele>
        <time>2022-02-24T10:42:36Z</time>
      </trkpt>
      <trkpt lat="46.13062" lon="5.40633">
        <ele>360</ele>
        <time>2022-02-24T10:42:37Z</time>
      </trkpt>
      <trkpt lat="46.13051" lon="5.40632">
        <ele>359.4</ele>
        <time>2022-02-24T10:42:38Z</time>
      </trkpt>
      <trkpt lat="46.13034" lon="5.4063">
        <ele>358.8</ele>
        <time>2022-02-24T10:42:39Z</time>
      </trkpt>
      <trkpt lat="46.13028" lon="5.40629">
        <ele>358</ele>
        <time>2022-02-24T10:42:40Z</time>
      </trkpt>
      <trkpt lat="46.13017" lon="5.40628">
        <ele>357.2</ele>
        <time>2022-02-24T10:42:41Z</time>
      </trkpt>
      <trkpt lat="46.13005" lon="5.40627">
        <ele>356.6</ele>
        <time>2022-02-24T10:42:42Z</time>
      </trkpt>
      <trkpt lat="46.12994" lon="5.40625">
        <ele>355.8</ele>
        <time>2022-02-24T10:42:43Z</time>
      </trkpt>
      <trkpt lat="46.12983" lon="5.40624">
        <ele>355.2</ele>
        <time>2022-02-24T10:42:44Z</time>
      </trkpt>
      <trkpt lat="46.12972" lon="5.40623">
        <ele>354.4</ele>
        <time>2022-02-24T10:42:45Z</time>
      </trkpt>
      <trkpt lat="46.12961" lon="5.40623">
        <ele>354</ele>
        <time>2022-02-24T10:42:46Z</time>
      </trkpt>
      <trkpt lat="46.1295" lon="5.40622">
        <ele>353.4</ele>
        <time>2022-02-24T10:42:47Z</time>
      </trkpt>
      <trkpt lat="46.12939" lon="5.40622">
        <ele>352.8</ele>
        <time>2022-02-24T10:42:48Z</time>
      </trkpt>
      <trkpt lat="46.12928" lon="5.40621">
        <ele>352.4</ele>
        <time>2022-02-24T10:42:49Z</time>
      </trkpt>
      <trkpt lat="46.12911" lon="5.4062">
        <ele>351.8</ele>
        <time>2022-02-24T10:42:50Z</time>
      </trkpt>
      <trkpt lat="46.12905" lon="5.40618">
        <ele>351.4</ele>
        <time>2022-02-24T10:42:51Z</time>
      </trkpt>
      <trkpt lat="46.12894" lon="5.40616">
        <ele>350.8</ele>
        <time>2022-02-24T10:42:52Z</time>
      </trkpt>
      <trkpt lat="46.12883" lon="5.40616">
        <ele>350.2</ele>
        <time>2022-02-24T10:42:53Z</time>
      </trkpt>
      <trkpt lat="46.12874" lon="5.40614">
        <ele>349.8</ele>
        <time>2022-02-24T10:42:54Z</time>
      </trkpt>
      <trkpt lat="46.12865" lon="5.40612">
        <ele>349.4</ele>
        <time>2022-02-24T10:42:55Z</time>
      </trkpt>
      <trkpt lat="46.12856" lon="5.40607">
        <ele>348.8</ele>
        <time>2022-02-24T10:42:56Z</time>
      </trkpt>
      <trkpt lat="46.12847" lon="5.40599">
        <ele>348.2</ele>
        <time>2022-02-24T10:42:57Z</time>
      </trkpt>
      <trkpt lat="46.1284" lon="5.40588">
        <ele>347.6</ele>
        <time>2022-02-24T10:42:58Z</time>
      </trkpt>
      <trkpt lat="46.12835" lon="5.40574">
        <ele>347</ele>
        <time>2022-02-24T10:42:59Z</time>
      </trkpt>
      <trkpt lat="46.12831" lon="5.40559">
        <ele>346.4</ele>
        <time>2022-02-24T10:43:00Z</time>
      </trkpt>
      <trkpt lat="46.12829" lon="5.40544">
        <ele>346</ele>
        <time>2022-02-24T10:43:01Z</time>
      </trkpt>
      <trkpt lat="46.12827" lon="5.4053">
        <ele>345.4</ele>
        <time>2022-02-24T10:43:02Z</time>
      </trkpt>
      <trkpt lat="46.12825" lon="5.40516">
        <ele>344.8</ele>
        <time>2022-02-24T10:43:03Z</time>
      </trkpt>
      <trkpt lat="46.12823" lon="5.40502">
        <ele>344.4</ele>
        <time>2022-02-24T10:43:04Z</time>
      </trkpt>
      <trkpt lat="46.12821" lon="5.40488">
        <ele>344</ele>
        <time>2022-02-24T10:43:05Z</time>
      </trkpt>
      <trkpt lat="46.12818" lon="5.40475">
        <ele>343.6</ele>
        <time>2022-02-24T10:43:06Z</time>
      </trkpt>
      <trkpt lat="46.12815" lon="5.40462">
        <ele>343.4</ele>
        <time>2022-02-24T10:43:07Z</time>
      </trkpt>
      <trkpt lat="46.12811" lon="5.4045">
        <ele>343</ele>
        <time>2022-02-24T10:43:08Z</time>
      </trkpt>
      <trkpt lat="46.12806" lon="5.40439">
        <ele>342.8</ele>
        <time>2022-02-24T10:43:09Z</time>
      </trkpt>
      <trkpt lat="46.12801" lon="5.40429">
        <ele>342.4</ele>
        <time>2022-02-24T10:43:10Z</time>
      </trkpt>
      <trkpt lat="46.12795" lon="5.40419">
        <ele>342</ele>
        <time>2022-02-24T10:43:11Z</time>
      </trkpt>
      <trkpt lat="46.12789" lon="5.40409">
        <ele>341.8</ele>
        <time>2022-02-24T10:43:12Z</time>
      </trkpt>
      <trkpt lat="46.12783" lon="5.404">
        <ele>341.4</ele>
        <time>2022-02-24T10:43:13Z</time>
      </trkpt>
      <trkpt lat="46.12775" lon="5.40384">
        <ele>341.2</ele>
        <time>2022-02-24T10:43:14Z</time>
      </trkpt>
      <trkpt lat="46.12772" lon="5.40378">
        <ele>340.8</ele>
        <time>2022-02-24T10:43:15Z</time>
      </trkpt>
      <trkpt lat="46.12769" lon="5.40366">
        <ele>340.4</ele>
        <time>2022-02-24T10:43:16Z</time>
      </trkpt>
      <trkpt lat="46.12766" lon="5.40352">
        <ele>340.2</ele>
        <time>2022-02-24T10:43:17Z</time>
      </trkpt>
      <trkpt lat="46.12765" lon="5.40339">
        <ele>339.8</ele>
        <time>2022-02-24T10:43:18Z</time>
      </trkpt>
      <trkpt lat="46.12763" lon="5.40326">
        <ele>339.4</ele>
        <time>2022-02-24T10:43:19Z</time>
      </trkpt>
      <trkpt lat="46.12757" lon="5.40308">
        <ele>338.6</ele>
        <time>2022-02-24T10:43:20Z</time>
      </trkpt>
      <trkpt lat="46.12755" lon="5.40303">
        <ele>338.2</ele>
        <time>2022-02-24T10:43:21Z</time>
      </trkpt>
      <trkpt lat="46.1275" lon="5.40291">
        <ele>337.6</ele>
        <time>2022-02-24T10:43:22Z</time>
      </trkpt>
      <trkpt lat="46.12744" lon="5.4028">
        <ele>337.2</ele>
        <time>2022-02-24T10:43:23Z</time>
      </trkpt>
      <trkpt lat="46.12737" lon="5.4027">
        <ele>336.6</ele>
        <time>2022-02-24T10:43:24Z</time>
      </trkpt>
      <trkpt lat="46.12725" lon="5.40255">
        <ele>335.8</ele>
        <time>2022-02-24T10:43:25Z</time>
      </trkpt>
      <trkpt lat="46.1272" lon="5.4025">
        <ele>334.8</ele>
        <time>2022-02-24T10:43:26Z</time>
      </trkpt>
      <trkpt lat="46.1271" lon="5.40241">
        <ele>333.8</ele>
        <time>2022-02-24T10:43:27Z</time>
      </trkpt>
      <trkpt lat="46.12701" lon="5.40233">
        <ele>333</ele>
        <time>2022-02-24T10:43:28Z</time>
      </trkpt>
      <trkpt lat="46.12691" lon="5.40224">
        <ele>332</ele>
        <time>2022-02-24T10:43:29Z</time>
      </trkpt>
      <trkpt lat="46.12677" lon="5.40209">
        <ele>331.4</ele>
        <time>2022-02-24T10:43:30Z</time>
      </trkpt>
      <trkpt lat="46.12673" lon="5.40203">
        <ele>330.4</ele>
        <time>2022-02-24T10:43:31Z</time>
      </trkpt>
      <trkpt lat="46.12664" lon="5.40191">
        <ele>329.6</ele>
        <time>2022-02-24T10:43:32Z</time>
      </trkpt>
      <trkpt lat="46.12657" lon="5.40178">
        <ele>328.8</ele>
        <time>2022-02-24T10:43:33Z</time>
      </trkpt>
      <trkpt lat="46.12651" lon="5.40165">
        <ele>328.2</ele>
        <time>2022-02-24T10:43:34Z</time>
      </trkpt>
      <trkpt lat="46.12646" lon="5.40151">
        <ele>327.6</ele>
        <time>2022-02-24T10:43:35Z</time>
      </trkpt>
      <trkpt lat="46.12641" lon="5.40138">
        <ele>327</ele>
        <time>2022-02-24T10:43:36Z</time>
      </trkpt>
      <trkpt lat="46.12635" lon="5.40124">
        <ele>326.6</ele>
        <time>2022-02-24T10:43:37Z</time>
      </trkpt>
      <trkpt lat="46.1263" lon="5.40111">
        <ele>326.2</ele>
        <time>2022-02-24T10:43:38Z</time>
      </trkpt>
      <trkpt lat="46.12621" lon="5.401">
        <ele>325.8</ele>
        <time>2022-02-24T10:43:39Z</time>
      </trkpt>
      <trkpt lat="46.12615" lon="5.4009">
        <ele>325.4</ele>
        <time>2022-02-24T10:43:40Z</time>
      </trkpt>
      <trkpt lat="46.12606" lon="5.40083">
        <ele>325.2</ele>
        <time>2022-02-24T10:43:41Z</time>
      </trkpt>
      <trkpt lat="46.12595" lon="5.40076">
        <ele>325.2</ele>
        <time>2022-02-24T10:43:42Z</time>
      </trkpt>
      <trkpt lat="46.12586" lon="5.4007">
        <ele>325</ele>
        <time>2022-02-24T10:43:43Z</time>
      </trkpt>
      <trkpt lat="46.12578" lon="5.40064">
        <ele>324.8</ele>
        <time>2022-02-24T10:43:44Z</time>
      </trkpt>
      <trkpt lat="46.1257" lon="5.40058">
        <ele>324.4</ele>
        <time>2022-02-24T10:43:45Z</time>
      </trkpt>
      <trkpt lat="46.12563" lon="5.40052">
        <ele>324.2</ele>
        <time>2022-02-24T10:43:46Z</time>
      </trkpt>
      <trkpt lat="46.12556" lon="5.40046">
        <ele>323.8</ele>
        <time>2022-02-24T10:43:47Z</time>
      </trkpt>
      <trkpt lat="46.12549" lon="5.40038">
        <ele>323.6</ele>
        <time>2022-02-24T10:43:48Z</time>
      </trkpt>
      <trkpt lat="46.12543" lon="5.4003">
        <ele>323.4</ele>
        <time>2022-02-24T10:43:49Z</time>
      </trkpt>
      <trkpt lat="46.12538" lon="5.40021">
        <ele>323</ele>
        <time>2022-02-24T10:43:50Z</time>
      </trkpt>
      <trkpt lat="46.12534" lon="5.40011">
        <ele>322.8</ele>
        <time>2022-02-24T10:43:51Z</time>
      </trkpt>
      <trkpt lat="46.1253" lon="5.40001">
        <ele>322.6</ele>
        <time>2022-02-24T10:43:52Z</time>
      </trkpt>
      <trkpt lat="46.12527" lon="5.3999">
        <ele>322.4</ele>
        <time>2022-02-24T10:43:53Z</time>
      </trkpt>
      <trkpt lat="46.12523" lon="5.3998">
        <ele>322</ele>
        <time>2022-02-24T10:43:54Z</time>
      </trkpt>
      <trkpt lat="46.1252" lon="5.3997">
        <ele>321.8</ele>
        <time>2022-02-24T10:43:55Z</time>
      </trkpt>
      <trkpt lat="46.12517" lon="5.3996">
        <ele>321.6</ele>
        <time>2022-02-24T10:43:56Z</time>
      </trkpt>
      <trkpt lat="46.12514" lon="5.39949">
        <ele>321.6</ele>
        <time>2022-02-24T10:43:57Z</time>
      </trkpt>
      <trkpt lat="46.12511" lon="5.39939">
        <ele>321.2</ele>
        <time>2022-02-24T10:43:58Z</time>
      </trkpt>
      <trkpt lat="46.12507" lon="5.3993">
        <ele>321.2</ele>
        <time>2022-02-24T10:43:59Z</time>
      </trkpt>
      <trkpt lat="46.12503" lon="5.39921">
        <ele>320.8</ele>
        <time>2022-02-24T10:44:00Z</time>
      </trkpt>
      <trkpt lat="46.12498" lon="5.39913">
        <ele>320.8</ele>
        <time>2022-02-24T10:44:01Z</time>
      </trkpt>
      <trkpt lat="46.12493" lon="5.39907">
        <ele>320.6</ele>
        <time>2022-02-24T10:44:02Z</time>
      </trkpt>
      <trkpt lat="46.12486" lon="5.39902">
        <ele>320.6</ele>
        <time>2022-02-24T10:44:03Z</time>
      </trkpt>
      <trkpt lat="46.1248" lon="5.39898">
        <ele>320.6</ele>
        <time>2022-02-24T10:44:04Z</time>
      </trkpt>
      <trkpt lat="46.12473" lon="5.39896">
        <ele>320.6</ele>
        <time>2022-02-24T10:44:05Z</time>
      </trkpt>
      <trkpt lat="46.12466" lon="5.39895">
        <ele>320.6</ele>
        <time>2022-02-24T10:44:06Z</time>
      </trkpt>
      <trkpt lat="46.1246" lon="5.39894">
        <ele>320.6</ele>
        <time>2022-02-24T10:44:07Z</time>
      </trkpt>
      <trkpt lat="46.12453" lon="5.39894">
        <ele>320.8</ele>
        <time>2022-02-24T10:44:08Z</time>
      </trkpt>
      <trkpt lat="46.12447" lon="5.39894">
        <ele>321</ele>
        <time>2022-02-24T10:44:09Z</time>
      </trkpt>
      <trkpt lat="46.12439" lon="5.39894">
        <ele>321</ele>
        <time>2022-02-24T10:44:10Z</time>
      </trkpt>
      <trkpt lat="46.12436" lon="5.39894">
        <ele>321.4</ele>
        <time>2022-02-24T10:44:11Z</time>
      </trkpt>
      <trkpt lat="46.12431" lon="5.39894">
        <ele>321.6</ele>
        <time>2022-02-24T10:44:12Z</time>
      </trkpt>
      <trkpt lat="46.12426" lon="5.39894">
        <ele>321.8</ele>
        <time>2022-02-24T10:44:13Z</time>
      </trkpt>
      <trkpt lat="46.12421" lon="5.39893">
        <ele>322.2</ele>
        <time>2022-02-24T10:44:14Z</time>
      </trkpt>
      <trkpt lat="46.12416" lon="5.39892">
        <ele>322.4</ele>
        <time>2022-02-24T10:44:15Z</time>
      </trkpt>
      <trkpt lat="46.12411" lon="5.39891">
        <ele>322.4</ele>
        <time>2022-02-24T10:44:16Z</time>
      </trkpt>
      <trkpt lat="46.12406" lon="5.3989">
        <ele>322.8</ele>
        <time>2022-02-24T10:44:17Z</time>
      </trkpt>
      <trkpt lat="46.12401" lon="5.39889">
        <ele>323</ele>
        <time>2022-02-24T10:44:18Z</time>
      </trkpt>
      <trkpt lat="46.12396" lon="5.39888">
        <ele>323</ele>
        <time>2022-02-24T10:44:19Z</time>
      </trkpt>
      <trkpt lat="46.12396" lon="5.39888">
        <ele>323</ele>
        <time>2022-02-24T10:44:20Z</time>
      </trkpt>
      <trkpt lat="46.12385" lon="5.39887">
        <ele>323.2</ele>
        <time>2022-02-24T10:44:21Z</time>
      </trkpt>
      <trkpt lat="46.1238" lon="5.39886">
        <ele>323.2</ele>
        <time>2022-02-24T10:44:22Z</time>
      </trkpt>
      <trkpt lat="46.1237" lon="5.39885">
        <ele>323.2</ele>
        <time>2022-02-24T10:44:23Z</time>
      </trkpt>
      <trkpt lat="46.12367" lon="5.39885">
        <ele>322.8</ele>
        <time>2022-02-24T10:44:24Z</time>
      </trkpt>
      <trkpt lat="46.12361" lon="5.39885">
        <ele>322.4</ele>
        <time>2022-02-24T10:44:25Z</time>
      </trkpt>
      <trkpt lat="46.12354" lon="5.39885">
        <ele>322</ele>
        <time>2022-02-24T10:44:26Z</time>
      </trkpt>
      <trkpt lat="46.12347" lon="5.39885">
        <ele>321.8</ele>
        <time>2022-02-24T10:44:27Z</time>
      </trkpt>
      <trkpt lat="46.12336" lon="5.39887">
        <ele>321.4</ele>
        <time>2022-02-24T10:44:28Z</time>
      </trkpt>
      <trkpt lat="46.12333" lon="5.39887">
        <ele>321</ele>
        <time>2022-02-24T10:44:29Z</time>
      </trkpt>
      <trkpt lat="46.12326" lon="5.39889">
        <ele>320.8</ele>
        <time>2022-02-24T10:44:30Z</time>
      </trkpt>
      <trkpt lat="46.12318" lon="5.3989">
        <ele>320.4</ele>
        <time>2022-02-24T10:44:31Z</time>
      </trkpt>
      <trkpt lat="46.12311" lon="5.39892">
        <ele>320.2</ele>
        <time>2022-02-24T10:44:32Z</time>
      </trkpt>
      <trkpt lat="46.12304" lon="5.39893">
        <ele>319.8</ele>
        <time>2022-02-24T10:44:33Z</time>
      </trkpt>
      <trkpt lat="46.12296" lon="5.39893">
        <ele>319.4</ele>
        <time>2022-02-24T10:44:34Z</time>
      </trkpt>
      <trkpt lat="46.12284" lon="5.39892">
        <ele>318.8</ele>
        <time>2022-02-24T10:44:35Z</time>
      </trkpt>
      <trkpt lat="46.1228" lon="5.39892">
        <ele>318.6</ele>
        <time>2022-02-24T10:44:36Z</time>
      </trkpt>
      <trkpt lat="46.12272" lon="5.3989">
        <ele>318.2</ele>
        <time>2022-02-24T10:44:37Z</time>
      </trkpt>
      <trkpt lat="46.12264" lon="5.39888">
        <ele>317.6</ele>
        <time>2022-02-24T10:44:38Z</time>
      </trkpt>
      <trkpt lat="46.12252" lon="5.39883">
        <ele>317.2</ele>
        <time>2022-02-24T10:44:39Z</time>
      </trkpt>
      <trkpt lat="46.12248" lon="5.39881">
        <ele>316.8</ele>
        <time>2022-02-24T10:44:40Z</time>
      </trkpt>
      <trkpt lat="46.1224" lon="5.39878">
        <ele>316.6</ele>
        <time>2022-02-24T10:44:41Z</time>
      </trkpt>
      <trkpt lat="46.12232" lon="5.39874">
        <ele>316.4</ele>
        <time>2022-02-24T10:44:42Z</time>
      </trkpt>
      <trkpt lat="46.12224" lon="5.3987">
        <ele>316</ele>
        <time>2022-02-24T10:44:43Z</time>
      </trkpt>
      <trkpt lat="46.12216" lon="5.39866">
        <ele>315.8</ele>
        <time>2022-02-24T10:44:44Z</time>
      </trkpt>
      <trkpt lat="46.12204" lon="5.39859">
        <ele>315.8</ele>
        <time>2022-02-24T10:44:45Z</time>
      </trkpt>
      <trkpt lat="46.12201" lon="5.39857">
        <ele>315.8</ele>
        <time>2022-02-24T10:44:46Z</time>
      </trkpt>
      <trkpt lat="46.12193" lon="5.39853">
        <ele>315.4</ele>
        <time>2022-02-24T10:44:47Z</time>
      </trkpt>
      <trkpt lat="46.12186" lon="5.39849">
        <ele>315.4</ele>
        <time>2022-02-24T10:44:48Z</time>
      </trkpt>
      <trkpt lat="46.12178" lon="5.39846">
        <ele>315.2</ele>
        <time>2022-02-24T10:44:49Z</time>
      </trkpt>
      <trkpt lat="46.12171" lon="5.39843">
        <ele>315.2</ele>
        <time>2022-02-24T10:44:50Z</time>
      </trkpt>
      <trkpt lat="46.12163" lon="5.39842">
        <ele>315.2</ele>
        <time>2022-02-24T10:44:51Z</time>
      </trkpt>
      <trkpt lat="46.12156" lon="5.39841">
        <ele>315.2</ele>
        <time>2022-02-24T10:44:52Z</time>
      </trkpt>
      <trkpt lat="46.12149" lon="5.39841">
        <ele>315.2</ele>
        <time>2022-02-24T10:44:53Z</time>
      </trkpt>
      <trkpt lat="46.12142" lon="5.39841">
        <ele>315.2</ele>
        <time>2022-02-24T10:44:54Z</time>
      </trkpt>
      <trkpt lat="46.12136" lon="5.39842">
        <ele>315.2</ele>
        <time>2022-02-24T10:44:55Z</time>
      </trkpt>
      <trkpt lat="46.12129" lon="5.39842">
        <ele>315.2</ele>
        <time>2022-02-24T10:44:56Z</time>
      </trkpt>
      <trkpt lat="46.12123" lon="5.39842">
        <ele>315.4</ele>
        <time>2022-02-24T10:44:57Z</time>
      </trkpt>
      <trkpt lat="46.12116" lon="5.39842">
        <ele>315.4</ele>
        <time>2022-02-24T10:44:58Z</time>
      </trkpt>
      <trkpt lat="46.1211" lon="5.39843">
        <ele>315.8</ele>
        <time>2022-02-24T10:44:59Z</time>
      </trkpt>
      <trkpt lat="46.12104" lon="5.39844">
        <ele>316</ele>
        <time>2022-02-24T10:45:00Z</time>
      </trkpt>
      <trkpt lat="46.12098" lon="5.39844">
        <ele>316</ele>
        <time>2022-02-24T10:45:01Z</time>
      </trkpt>
      <trkpt lat="46.12092" lon="5.39844">
        <ele>316</ele>
        <time>2022-02-24T10:45:02Z</time>
      </trkpt>
      <trkpt lat="46.12086" lon="5.39845">
        <ele>316.2</ele>
        <time>2022-02-24T10:45:03Z</time>
      </trkpt>
      <trkpt lat="46.12081" lon="5.39845">
        <ele>316.2</ele>
        <time>2022-02-24T10:45:04Z</time>
      </trkpt>
      <trkpt lat="46.12075" lon="5.39846">
        <ele>316.4</ele>
        <time>2022-02-24T10:45:05Z</time>
      </trkpt>
      <trkpt lat="46.12069" lon="5.39847">
        <ele>316.4</ele>
        <time>2022-02-24T10:45:06Z</time>
      </trkpt>
      <trkpt lat="46.12064" lon="5.39849">
        <ele>317</ele>
        <time>2022-02-24T10:45:07Z</time>
      </trkpt>
      <trkpt lat="46.12059" lon="5.3985">
        <ele>317.2</ele>
        <time>2022-02-24T10:45:08Z</time>
      </trkpt>
      <trkpt lat="46.12054" lon="5.39852">
        <ele>317.6</ele>
        <time>2022-02-24T10:45:09Z</time>
      </trkpt>
      <trkpt lat="46.12049" lon="5.39853">
        <ele>317.8</ele>
        <time>2022-02-24T10:45:10Z</time>
      </trkpt>
      <trkpt lat="46.12044" lon="5.39855">
        <ele>318.2</ele>
        <time>2022-02-24T10:45:11Z</time>
      </trkpt>
      <trkpt lat="46.1204" lon="5.39857">
        <ele>318.4</ele>
        <time>2022-02-24T10:45:12Z</time>
      </trkpt>
      <trkpt lat="46.12035" lon="5.39858">
        <ele>318.6</ele>
        <time>2022-02-24T10:45:13Z</time>
      </trkpt>
      <trkpt lat="46.12031" lon="5.39859">
        <ele>318.8</ele>
        <time>2022-02-24T10:45:14Z</time>
      </trkpt>
      <trkpt lat="46.12027" lon="5.39862">
        <ele>319.2</ele>
        <time>2022-02-24T10:45:15Z</time>
      </trkpt>
      <trkpt lat="46.12022" lon="5.39864">
        <ele>319.4</ele>
        <time>2022-02-24T10:45:16Z</time>
      </trkpt>
      <trkpt lat="46.12018" lon="5.39866">
        <ele>319.6</ele>
        <time>2022-02-24T10:45:17Z</time>
      </trkpt>
      <trkpt lat="46.12013" lon="5.39868">
        <ele>319.6</ele>
        <time>2022-02-24T10:45:18Z</time>
      </trkpt>
      <trkpt lat="46.12009" lon="5.39869">
        <ele>320</ele>
        <time>2022-02-24T10:45:19Z</time>
      </trkpt>
      <trkpt lat="46.12005" lon="5.3987">
        <ele>320</ele>
        <time>2022-02-24T10:45:20Z</time>
      </trkpt>
      <trkpt lat="46.12002" lon="5.3987">
        <ele>320</ele>
        <time>2022-02-24T10:45:21Z</time>
      </trkpt>
      <trkpt lat="46.11997" lon="5.39871">
        <ele>320</ele>
        <time>2022-02-24T10:45:22Z</time>
      </trkpt>
      <trkpt lat="46.11993" lon="5.39872">
        <ele>320</ele>
        <time>2022-02-24T10:45:23Z</time>
      </trkpt>
      <trkpt lat="46.11989" lon="5.39873">
        <ele>320</ele>
        <time>2022-02-24T10:45:24Z</time>
      </trkpt>
      <trkpt lat="46.11985" lon="5.39874">
        <ele>320</ele>
        <time>2022-02-24T10:45:25Z</time>
      </trkpt>
      <trkpt lat="46.1198" lon="5.39876">
        <ele>320</ele>
        <time>2022-02-24T10:45:26Z</time>
      </trkpt>
      <trkpt lat="46.11976" lon="5.39877">
        <ele>320</ele>
        <time>2022-02-24T10:45:27Z</time>
      </trkpt>
      <trkpt lat="46.11972" lon="5.39877">
        <ele>320</ele>
        <time>2022-02-24T10:45:28Z</time>
      </trkpt>
      <trkpt lat="46.11968" lon="5.39878">
        <ele>320</ele>
        <time>2022-02-24T10:45:29Z</time>
      </trkpt>
      <trkpt lat="46.11963" lon="5.39879">
        <ele>320</ele>
        <time>2022-02-24T10:45:30Z</time>
      </trkpt>
      <trkpt lat="46.11959" lon="5.3988">
        <ele>320</ele>
        <time>2022-02-24T10:45:31Z</time>
      </trkpt>
      <trkpt lat="46.11955" lon="5.39881">
        <ele>320</ele>
        <time>2022-02-24T10:45:32Z</time>
      </trkpt>
      <trkpt lat="46.1195" lon="5.39882">
        <ele>320</ele>
        <time>2022-02-24T10:45:33Z</time>
      </trkpt>
      <trkpt lat="46.11946" lon="5.39883">
        <ele>320.4</ele>
        <time>2022-02-24T10:45:34Z</time>
      </trkpt>
      <trkpt lat="46.11941" lon="5.39884">
        <ele>320.4</ele>
        <time>2022-02-24T10:45:35Z</time>
      </trkpt>
      <trkpt lat="46.11937" lon="5.39886">
        <ele>320.8</ele>
        <time>2022-02-24T10:45:36Z</time>
      </trkpt>
      <trkpt lat="46.11932" lon="5.39888">
        <ele>320.8</ele>
        <time>2022-02-24T10:45:37Z</time>
      </trkpt>
      <trkpt lat="46.11927" lon="5.3989">
        <ele>321</ele>
        <time>2022-02-24T10:45:38Z</time>
      </trkpt>
      <trkpt lat="46.11922" lon="5.39891">
        <ele>321</ele>
        <time>2022-02-24T10:45:39Z</time>
      </trkpt>
      <trkpt lat="46.11917" lon="5.39892">
        <ele>321</ele>
        <time>2022-02-24T10:45:40Z</time>
      </trkpt>
      <trkpt lat="46.11913" lon="5.39894">
        <ele>321</ele>
        <time>2022-02-24T10:45:41Z</time>
      </trkpt>
      <trkpt lat="46.11908" lon="5.39895">
        <ele>321</ele>
        <time>2022-02-24T10:45:42Z</time>
      </trkpt>
      <trkpt lat="46.11903" lon="5.39897">
        <ele>321</ele>
        <time>2022-02-24T10:45:43Z</time>
      </trkpt>
      <trkpt lat="46.11898" lon="5.39899">
        <ele>321</ele>
        <time>2022-02-24T10:45:44Z</time>
      </trkpt>
      <trkpt lat="46.11893" lon="5.39901">
        <ele>321</ele>
        <time>2022-02-24T10:45:45Z</time>
      </trkpt>
      <trkpt lat="46.11889" lon="5.39902">
        <ele>321</ele>
        <time>2022-02-24T10:45:46Z</time>
      </trkpt>
      <trkpt lat="46.11884" lon="5.39904">
        <ele>321.2</ele>
        <time>2022-02-24T10:45:47Z</time>
      </trkpt>
      <trkpt lat="46.11879" lon="5.39906">
        <ele>321.2</ele>
        <time>2022-02-24T10:45:48Z</time>
      </trkpt>
      <trkpt lat="46.11875" lon="5.39908">
        <ele>321.2</ele>
        <time>2022-02-24T10:45:49Z</time>
      </trkpt>
      <trkpt lat="46.11868" lon="5.3991">
        <ele>321.2</ele>
        <time>2022-02-24T10:45:50Z</time>
      </trkpt>
      <trkpt lat="46.11866" lon="5.39911">
        <ele>321.6</ele>
        <time>2022-02-24T10:45:51Z</time>
      </trkpt>
      <trkpt lat="46.11861" lon="5.39913">
        <ele>321.6</ele>
        <time>2022-02-24T10:45:52Z</time>
      </trkpt>
      <trkpt lat="46.11857" lon="5.39915">
        <ele>321.6</ele>
        <time>2022-02-24T10:45:53Z</time>
      </trkpt>
      <trkpt lat="46.11852" lon="5.39917">
        <ele>321.8</ele>
        <time>2022-02-24T10:45:54Z</time>
      </trkpt>
      <trkpt lat="46.11847" lon="5.39919">
        <ele>321.8</ele>
        <time>2022-02-24T10:45:55Z</time>
      </trkpt>
      <trkpt lat="46.11843" lon="5.39921">
        <ele>322.2</ele>
        <time>2022-02-24T10:45:56Z</time>
      </trkpt>
      <trkpt lat="46.11838" lon="5.39924">
        <ele>322.2</ele>
        <time>2022-02-24T10:45:57Z</time>
      </trkpt>
      <trkpt lat="46.11833" lon="5.39926">
        <ele>322.2</ele>
        <time>2022-02-24T10:45:58Z</time>
      </trkpt>
      <trkpt lat="46.11828" lon="5.39928">
        <ele>322.2</ele>
        <time>2022-02-24T10:45:59Z</time>
      </trkpt>
      <trkpt lat="46.11822" lon="5.39931">
        <ele>322.2</ele>
        <time>2022-02-24T10:46:00Z</time>
      </trkpt>
      <trkpt lat="46.11817" lon="5.39934">
        <ele>321.8</ele>
        <time>2022-02-24T10:46:01Z</time>
      </trkpt>
      <trkpt lat="46.11811" lon="5.39938">
        <ele>321.8</ele>
        <time>2022-02-24T10:46:02Z</time>
      </trkpt>
      <trkpt lat="46.11805" lon="5.39941">
        <ele>321.6</ele>
        <time>2022-02-24T10:46:03Z</time>
      </trkpt>
      <trkpt lat="46.11799" lon="5.39945">
        <ele>321.4</ele>
        <time>2022-02-24T10:46:04Z</time>
      </trkpt>
      <trkpt lat="46.11792" lon="5.39947">
        <ele>321.4</ele>
        <time>2022-02-24T10:46:05Z</time>
      </trkpt>
      <trkpt lat="46.11786" lon="5.3995">
        <ele>321</ele>
        <time>2022-02-24T10:46:06Z</time>
      </trkpt>
      <trkpt lat="46.11779" lon="5.39952">
        <ele>320.6</ele>
        <time>2022-02-24T10:46:07Z</time>
      </trkpt>
      <trkpt lat="46.11772" lon="5.39953">
        <ele>320.6</ele>
        <time>2022-02-24T10:46:08Z</time>
      </trkpt>
      <trkpt lat="46.11764" lon="5.39954">
        <ele>320.4</ele>
        <time>2022-02-24T10:46:09Z</time>
      </trkpt>
      <trkpt lat="46.11757" lon="5.39954">
        <ele>320.4</ele>
        <time>2022-02-24T10:46:10Z</time>
      </trkpt>
      <trkpt lat="46.1175" lon="5.39954">
        <ele>320</ele>
        <time>2022-02-24T10:46:11Z</time>
      </trkpt>
      <trkpt lat="46.11743" lon="5.39953">
        <ele>319.8</ele>
        <time>2022-02-24T10:46:12Z</time>
      </trkpt>
      <trkpt lat="46.11736" lon="5.39952">
        <ele>319.6</ele>
        <time>2022-02-24T10:46:13Z</time>
      </trkpt>
      <trkpt lat="46.11729" lon="5.39951">
        <ele>319.6</ele>
        <time>2022-02-24T10:46:14Z</time>
      </trkpt>
      <trkpt lat="46.11722" lon="5.3995">
        <ele>319.6</ele>
        <time>2022-02-24T10:46:15Z</time>
      </trkpt>
      <trkpt lat="46.11714" lon="5.39949">
        <ele>319.2</ele>
        <time>2022-02-24T10:46:16Z</time>
      </trkpt>
      <trkpt lat="46.11707" lon="5.39948">
        <ele>319.2</ele>
        <time>2022-02-24T10:46:17Z</time>
      </trkpt>
      <trkpt lat="46.117" lon="5.39947">
        <ele>318.8</ele>
        <time>2022-02-24T10:46:18Z</time>
      </trkpt>
      <trkpt lat="46.11693" lon="5.39946">
        <ele>318.8</ele>
        <time>2022-02-24T10:46:19Z</time>
      </trkpt>
      <trkpt lat="46.11686" lon="5.39944">
        <ele>318.4</ele>
        <time>2022-02-24T10:46:20Z</time>
      </trkpt>
      <trkpt lat="46.11679" lon="5.39942">
        <ele>318.2</ele>
        <time>2022-02-24T10:46:21Z</time>
      </trkpt>
      <trkpt lat="46.11672" lon="5.39941">
        <ele>318.2</ele>
        <time>2022-02-24T10:46:22Z</time>
      </trkpt>
      <trkpt lat="46.11662" lon="5.39938">
        <ele>318</ele>
        <time>2022-02-24T10:46:23Z</time>
      </trkpt>
      <trkpt lat="46.11658" lon="5.39937">
        <ele>317.6</ele>
        <time>2022-02-24T10:46:24Z</time>
      </trkpt>
      <trkpt lat="46.11651" lon="5.39935">
        <ele>317.4</ele>
        <time>2022-02-24T10:46:25Z</time>
      </trkpt>
      <trkpt lat="46.11644" lon="5.39932">
        <ele>317.4</ele>
        <time>2022-02-24T10:46:26Z</time>
      </trkpt>
      <trkpt lat="46.11638" lon="5.39929">
        <ele>317.2</ele>
        <time>2022-02-24T10:46:27Z</time>
      </trkpt>
      <trkpt lat="46.11631" lon="5.39926">
        <ele>317.2</ele>
        <time>2022-02-24T10:46:28Z</time>
      </trkpt>
      <trkpt lat="46.11625" lon="5.39922">
        <ele>317</ele>
        <time>2022-02-24T10:46:29Z</time>
      </trkpt>
      <trkpt lat="46.11619" lon="5.39918">
        <ele>316.8</ele>
        <time>2022-02-24T10:46:30Z</time>
      </trkpt>
      <trkpt lat="46.11612" lon="5.39914">
        <ele>316.4</ele>
        <time>2022-02-24T10:46:31Z</time>
      </trkpt>
      <trkpt lat="46.11605" lon="5.39912">
        <ele>316.4</ele>
        <time>2022-02-24T10:46:32Z</time>
      </trkpt>
      <trkpt lat="46.11598" lon="5.39909">
        <ele>316.2</ele>
        <time>2022-02-24T10:46:33Z</time>
      </trkpt>
      <trkpt lat="46.1159" lon="5.39907">
        <ele>315.8</ele>
        <time>2022-02-24T10:46:34Z</time>
      </trkpt>
      <trkpt lat="46.11583" lon="5.39904">
        <ele>315.8</ele>
        <time>2022-02-24T10:46:35Z</time>
      </trkpt>
      <trkpt lat="46.11575" lon="5.39901">
        <ele>315.4</ele>
        <time>2022-02-24T10:46:36Z</time>
      </trkpt>
      <trkpt lat="46.11567" lon="5.39899">
        <ele>315</ele>
        <time>2022-02-24T10:46:37Z</time>
      </trkpt>
      <trkpt lat="46.1156" lon="5.39896">
        <ele>314.8</ele>
        <time>2022-02-24T10:46:38Z</time>
      </trkpt>
      <trkpt lat="46.11552" lon="5.39892">
        <ele>314.8</ele>
        <time>2022-02-24T10:46:39Z</time>
      </trkpt>
      <trkpt lat="46.11545" lon="5.39888">
        <ele>314.4</ele>
        <time>2022-02-24T10:46:40Z</time>
      </trkpt>
      <trkpt lat="46.11537" lon="5.39884">
        <ele>314</ele>
        <time>2022-02-24T10:46:41Z</time>
      </trkpt>
      <trkpt lat="46.11529" lon="5.3988">
        <ele>313.6</ele>
        <time>2022-02-24T10:46:42Z</time>
      </trkpt>
      <trkpt lat="46.11521" lon="5.39877">
        <ele>313.4</ele>
        <time>2022-02-24T10:46:43Z</time>
      </trkpt>
      <trkpt lat="46.11513" lon="5.39873">
        <ele>313</ele>
        <time>2022-02-24T10:46:44Z</time>
      </trkpt>
      <trkpt lat="46.11505" lon="5.39868">
        <ele>312.6</ele>
        <time>2022-02-24T10:46:45Z</time>
      </trkpt>
      <trkpt lat="46.11496" lon="5.39864">
        <ele>312</ele>
        <time>2022-02-24T10:46:46Z</time>
      </trkpt>
      <trkpt lat="46.11487" lon="5.3986">
        <ele>311.4</ele>
        <time>2022-02-24T10:46:47Z</time>
      </trkpt>
      <trkpt lat="46.11479" lon="5.39857">
        <ele>310.8</ele>
        <time>2022-02-24T10:46:48Z</time>
      </trkpt>
      <trkpt lat="46.11471" lon="5.39853">
        <ele>310.4</ele>
        <time>2022-02-24T10:46:49Z</time>
      </trkpt>
      <trkpt lat="46.11463" lon="5.39849">
        <ele>310</ele>
        <time>2022-02-24T10:46:50Z</time>
      </trkpt>
      <trkpt lat="46.11455" lon="5.39846">
        <ele>309.6</ele>
        <time>2022-02-24T10:46:51Z</time>
      </trkpt>
      <trkpt lat="46.11446" lon="5.39843">
        <ele>309.2</ele>
        <time>2022-02-24T10:46:52Z</time>
      </trkpt>
      <trkpt lat="46.11437" lon="5.3984">
        <ele>309</ele>
        <time>2022-02-24T10:46:53Z</time>
      </trkpt>
      <trkpt lat="46.11429" lon="5.39838">
        <ele>308.6</ele>
        <time>2022-02-24T10:46:54Z</time>
      </trkpt>
      <trkpt lat="46.1142" lon="5.39835">
        <ele>308.2</ele>
        <time>2022-02-24T10:46:55Z</time>
      </trkpt>
      <trkpt lat="46.11411" lon="5.39832">
        <ele>307.8</ele>
        <time>2022-02-24T10:46:56Z</time>
      </trkpt>
      <trkpt lat="46.11403" lon="5.39829">
        <ele>307.4</ele>
        <time>2022-02-24T10:46:57Z</time>
      </trkpt>
      <trkpt lat="46.11394" lon="5.39825">
        <ele>307</ele>
        <time>2022-02-24T10:46:58Z</time>
      </trkpt>
      <trkpt lat="46.11386" lon="5.39822">
        <ele>306.4</ele>
        <time>2022-02-24T10:46:59Z</time>
      </trkpt>
      <trkpt lat="46.11377" lon="5.39818">
        <ele>306</ele>
        <time>2022-02-24T10:47:00Z</time>
      </trkpt>
      <trkpt lat="46.11369" lon="5.39815">
        <ele>305.6</ele>
        <time>2022-02-24T10:47:01Z</time>
      </trkpt>
      <trkpt lat="46.1136" lon="5.39811">
        <ele>305.4</ele>
        <time>2022-02-24T10:47:02Z</time>
      </trkpt>
      <trkpt lat="46.11352" lon="5.39807">
        <ele>305</ele>
        <time>2022-02-24T10:47:03Z</time>
      </trkpt>
      <trkpt lat="46.11344" lon="5.39803">
        <ele>304.6</ele>
        <time>2022-02-24T10:47:04Z</time>
      </trkpt>
      <trkpt lat="46.11335" lon="5.39798">
        <ele>304.2</ele>
        <time>2022-02-24T10:47:05Z</time>
      </trkpt>
      <trkpt lat="46.11327" lon="5.39793">
        <ele>303.6</ele>
        <time>2022-02-24T10:47:06Z</time>
      </trkpt>
      <trkpt lat="46.11319" lon="5.39788">
        <ele>303.4</ele>
        <time>2022-02-24T10:47:07Z</time>
      </trkpt>
      <trkpt lat="46.11311" lon="5.39783">
        <ele>303</ele>
        <time>2022-02-24T10:47:08Z</time>
      </trkpt>
      <trkpt lat="46.11303" lon="5.39778">
        <ele>302.6</ele>
        <time>2022-02-24T10:47:09Z</time>
      </trkpt>
      <trkpt lat="46.11295" lon="5.39773">
        <ele>302.2</ele>
        <time>2022-02-24T10:47:10Z</time>
      </trkpt>
      <trkpt lat="46.11287" lon="5.39769">
        <ele>301.8</ele>
        <time>2022-02-24T10:47:11Z</time>
      </trkpt>
      <trkpt lat="46.11279" lon="5.39764">
        <ele>301.4</ele>
        <time>2022-02-24T10:47:12Z</time>
      </trkpt>
      <trkpt lat="46.11271" lon="5.39759">
        <ele>301.2</ele>
        <time>2022-02-24T10:47:13Z</time>
      </trkpt>
      <trkpt lat="46.11263" lon="5.39754">
        <ele>300.8</ele>
        <time>2022-02-24T10:47:14Z</time>
      </trkpt>
      <trkpt lat="46.11255" lon="5.39749">
        <ele>300.4</ele>
        <time>2022-02-24T10:47:15Z</time>
      </trkpt>
      <trkpt lat="46.11246" lon="5.39743">
        <ele>300</ele>
        <time>2022-02-24T10:47:16Z</time>
      </trkpt>
      <trkpt lat="46.11238" lon="5.39736">
        <ele>299.6</ele>
        <time>2022-02-24T10:47:17Z</time>
      </trkpt>
      <trkpt lat="46.1123" lon="5.39728">
        <ele>299</ele>
        <time>2022-02-24T10:47:18Z</time>
      </trkpt>
      <trkpt lat="46.11222" lon="5.39719">
        <ele>298.6</ele>
        <time>2022-02-24T10:47:19Z</time>
      </trkpt>
      <trkpt lat="46.11214" lon="5.3971">
        <ele>298.2</ele>
        <time>2022-02-24T10:47:20Z</time>
      </trkpt>
      <trkpt lat="46.11206" lon="5.397">
        <ele>297.8</ele>
        <time>2022-02-24T10:47:21Z</time>
      </trkpt>
      <trkpt lat="46.112" lon="5.39691">
        <ele>297.6</ele>
        <time>2022-02-24T10:47:22Z</time>
      </trkpt>
      <trkpt lat="46.11194" lon="5.39682">
        <ele>297.4</ele>
        <time>2022-02-24T10:47:23Z</time>
      </trkpt>
      <trkpt lat="46.11187" lon="5.39673">
        <ele>297</ele>
        <time>2022-02-24T10:47:24Z</time>
      </trkpt>
      <trkpt lat="46.1118" lon="5.39663">
        <ele>296.6</ele>
        <time>2022-02-24T10:47:25Z</time>
      </trkpt>
      <trkpt lat="46.11173" lon="5.39653">
        <ele>296.2</ele>
        <time>2022-02-24T10:47:26Z</time>
      </trkpt>
      <trkpt lat="46.11166" lon="5.39642">
        <ele>295.8</ele>
        <time>2022-02-24T10:47:27Z</time>
      </trkpt>
      <trkpt lat="46.11159" lon="5.39631">
        <ele>295.4</ele>
        <time>2022-02-24T10:47:28Z</time>
      </trkpt>
      <trkpt lat="46.11151" lon="5.39614">
        <ele>295</ele>
        <time>2022-02-24T10:47:29Z</time>
      </trkpt>
      <trkpt lat="46.11148" lon="5.39608">
        <ele>294.8</ele>
        <time>2022-02-24T10:47:30Z</time>
      </trkpt>
      <trkpt lat="46.11143" lon="5.39596">
        <ele>294.4</ele>
        <time>2022-02-24T10:47:31Z</time>
      </trkpt>
      <trkpt lat="46.11139" lon="5.39585">
        <ele>294.2</ele>
        <time>2022-02-24T10:47:32Z</time>
      </trkpt>
      <trkpt lat="46.11135" lon="5.39574">
        <ele>293.8</ele>
        <time>2022-02-24T10:47:33Z</time>
      </trkpt>
      <trkpt lat="46.11131" lon="5.39562">
        <ele>293.4</ele>
        <time>2022-02-24T10:47:34Z</time>
      </trkpt>
      <trkpt lat="46.11127" lon="5.39551">
        <ele>293</ele>
        <time>2022-02-24T10:47:35Z</time>
      </trkpt>
      <trkpt lat="46.11123" lon="5.39539">
        <ele>292.6</ele>
        <time>2022-02-24T10:47:36Z</time>
      </trkpt>
      <trkpt lat="46.11115" lon="5.39522">
        <ele>292.2</ele>
        <time>2022-02-24T10:47:37Z</time>
      </trkpt>
      <trkpt lat="46.11113" lon="5.39516">
        <ele>291.8</ele>
        <time>2022-02-24T10:47:38Z</time>
      </trkpt>
      <trkpt lat="46.11109" lon="5.39504">
        <ele>291.2</ele>
        <time>2022-02-24T10:47:39Z</time>
      </trkpt>
      <trkpt lat="46.11104" lon="5.39493">
        <ele>290.8</ele>
        <time>2022-02-24T10:47:40Z</time>
      </trkpt>
      <trkpt lat="46.11099" lon="5.39482">
        <ele>290.4</ele>
        <time>2022-02-24T10:47:41Z</time>
      </trkpt>
      <trkpt lat="46.11093" lon="5.39471">
        <ele>290</ele>
        <time>2022-02-24T10:47:42Z</time>
      </trkpt>
      <trkpt lat="46.11088" lon="5.3946">
        <ele>289.6</ele>
        <time>2022-02-24T10:47:43Z</time>
      </trkpt>
      <trkpt lat="46.11082" lon="5.3945">
        <ele>289.2</ele>
        <time>2022-02-24T10:47:44Z</time>
      </trkpt>
      <trkpt lat="46.11077" lon="5.39439">
        <ele>289</ele>
        <time>2022-02-24T10:47:45Z</time>
      </trkpt>
      <trkpt lat="46.11071" lon="5.39427">
        <ele>288.6</ele>
        <time>2022-02-24T10:47:46Z</time>
      </trkpt>
      <trkpt lat="46.11065" lon="5.39417">
        <ele>288.6</ele>
        <time>2022-02-24T10:47:47Z</time>
      </trkpt>
      <trkpt lat="46.1106" lon="5.39407">
        <ele>288.2</ele>
        <time>2022-02-24T10:47:48Z</time>
      </trkpt>
      <trkpt lat="46.11054" lon="5.39397">
        <ele>288.2</ele>
        <time>2022-02-24T10:47:49Z</time>
      </trkpt>
      <trkpt lat="46.11049" lon="5.39387">
        <ele>288</ele>
        <time>2022-02-24T10:47:50Z</time>
      </trkpt>
      <trkpt lat="46.11044" lon="5.39378">
        <ele>288</ele>
        <time>2022-02-24T10:47:51Z</time>
      </trkpt>
      <trkpt lat="46.1104" lon="5.39369">
        <ele>288</ele>
        <time>2022-02-24T10:47:52Z</time>
      </trkpt>
      <trkpt lat="46.11036" lon="5.39361">
        <ele>288</ele>
        <time>2022-02-24T10:47:53Z</time>
      </trkpt>
      <trkpt lat="46.11031" lon="5.39353">
        <ele>287.8</ele>
        <time>2022-02-24T10:47:54Z</time>
      </trkpt>
      <trkpt lat="46.11026" lon="5.39346">
        <ele>287.8</ele>
        <time>2022-02-24T10:47:55Z</time>
      </trkpt>
      <trkpt lat="46.11019" lon="5.39336">
        <ele>287.8</ele>
        <time>2022-02-24T10:47:56Z</time>
      </trkpt>
      <trkpt lat="46.11017" lon="5.39334">
        <ele>287.8</ele>
        <time>2022-02-24T10:47:57Z</time>
      </trkpt>
      <trkpt lat="46.11012" lon="5.39328">
        <ele>288</ele>
        <time>2022-02-24T10:47:58Z</time>
      </trkpt>
      <trkpt lat="46.11005" lon="5.39321">
        <ele>288</ele>
        <time>2022-02-24T10:47:59Z</time>
      </trkpt>
      <trkpt lat="46.11002" lon="5.39318">
        <ele>288</ele>
        <time>2022-02-24T10:48:00Z</time>
      </trkpt>
      <trkpt lat="46.10995" lon="5.39312">
        <ele>288.2</ele>
        <time>2022-02-24T10:48:01Z</time>
      </trkpt>
      <trkpt lat="46.10993" lon="5.3931">
        <ele>288.2</ele>
        <time>2022-02-24T10:48:02Z</time>
      </trkpt>
      <trkpt lat="46.10989" lon="5.39306">
        <ele>288.2</ele>
        <time>2022-02-24T10:48:03Z</time>
      </trkpt>
      <trkpt lat="46.10984" lon="5.39303">
        <ele>288.2</ele>
        <time>2022-02-24T10:48:04Z</time>
      </trkpt>
      <trkpt lat="46.1098" lon="5.393">
        <ele>288.4</ele>
        <time>2022-02-24T10:48:05Z</time>
      </trkpt>
      <trkpt lat="46.10976" lon="5.39296">
        <ele>288.4</ele>
        <time>2022-02-24T10:48:06Z</time>
      </trkpt>
      <trkpt lat="46.10973" lon="5.39293">
        <ele>288.4</ele>
        <time>2022-02-24T10:48:07Z</time>
      </trkpt>
      <trkpt lat="46.10969" lon="5.39289">
        <ele>288.4</ele>
        <time>2022-02-24T10:48:08Z</time>
      </trkpt>
      <trkpt lat="46.10965" lon="5.39286">
        <ele>288.4</ele>
        <time>2022-02-24T10:48:09Z</time>
      </trkpt>
      <trkpt lat="46.10961" lon="5.39282">
        <ele>288.4</ele>
        <time>2022-02-24T10:48:10Z</time>
      </trkpt>
      <trkpt lat="46.10957" lon="5.39279">
        <ele>288.4</ele>
        <time>2022-02-24T10:48:11Z</time>
      </trkpt>
      <trkpt lat="46.10952" lon="5.39275">
        <ele>288.4</ele>
        <time>2022-02-24T10:48:12Z</time>
      </trkpt>
      <trkpt lat="46.10948" lon="5.39272">
        <ele>288.4</ele>
        <time>2022-02-24T10:48:13Z</time>
      </trkpt>
      <trkpt lat="46.10943" lon="5.39268">
        <ele>288.4</ele>
        <time>2022-02-24T10:48:14Z</time>
      </trkpt>
      <trkpt lat="46.10939" lon="5.39265">
        <ele>288.2</ele>
        <time>2022-02-24T10:48:15Z</time>
      </trkpt>
      <trkpt lat="46.10934" lon="5.39262">
        <ele>288.2</ele>
        <time>2022-02-24T10:48:16Z</time>
      </trkpt>
      <trkpt lat="46.10929" lon="5.39259">
        <ele>288.2</ele>
        <time>2022-02-24T10:48:17Z</time>
      </trkpt>
      <trkpt lat="46.10923" lon="5.39257">
        <ele>288</ele>
        <time>2022-02-24T10:48:18Z</time>
      </trkpt>
      <trkpt lat="46.10918" lon="5.39254">
        <ele>288</ele>
        <time>2022-02-24T10:48:19Z</time>
      </trkpt>
      <trkpt lat="46.10909" lon="5.39251">
        <ele>287.8</ele>
        <time>2022-02-24T10:48:20Z</time>
      </trkpt>
      <trkpt lat="46.10907" lon="5.3925">
        <ele>287.4</ele>
        <time>2022-02-24T10:48:21Z</time>
      </trkpt>
      <trkpt lat="46.10901" lon="5.39248">
        <ele>287.2</ele>
        <time>2022-02-24T10:48:22Z</time>
      </trkpt>
      <trkpt lat="46.10892" lon="5.39245">
        <ele>287</ele>
        <time>2022-02-24T10:48:23Z</time>
      </trkpt>
      <trkpt lat="46.10889" lon="5.39244">
        <ele>287</ele>
        <time>2022-02-24T10:48:24Z</time>
      </trkpt>
      <trkpt lat="46.10883" lon="5.39241">
        <ele>286.8</ele>
        <time>2022-02-24T10:48:25Z</time>
      </trkpt>
      <trkpt lat="46.10877" lon="5.39239">
        <ele>286.6</ele>
        <time>2022-02-24T10:48:26Z</time>
      </trkpt>
      <trkpt lat="46.10871" lon="5.39236">
        <ele>286.6</ele>
        <time>2022-02-24T10:48:27Z</time>
      </trkpt>
      <trkpt lat="46.10865" lon="5.39234">
        <ele>286.4</ele>
        <time>2022-02-24T10:48:28Z</time>
      </trkpt>
      <trkpt lat="46.10859" lon="5.39232">
        <ele>286.4</ele>
        <time>2022-02-24T10:48:29Z</time>
      </trkpt>
      <trkpt lat="46.10853" lon="5.39229">
        <ele>286.2</ele>
        <time>2022-02-24T10:48:30Z</time>
      </trkpt>
      <trkpt lat="46.10847" lon="5.39226">
        <ele>285.8</ele>
        <time>2022-02-24T10:48:31Z</time>
      </trkpt>
      <trkpt lat="46.10841" lon="5.39223">
        <ele>285.8</ele>
        <time>2022-02-24T10:48:32Z</time>
      </trkpt>
      <trkpt lat="46.10835" lon="5.3922">
        <ele>285.6</ele>
        <time>2022-02-24T10:48:33Z</time>
      </trkpt>
      <trkpt lat="46.10828" lon="5.39218">
        <ele>285.2</ele>
        <time>2022-02-24T10:48:34Z</time>
      </trkpt>
      <trkpt lat="46.10821" lon="5.39215">
        <ele>285.2</ele>
        <time>2022-02-24T10:48:35Z</time>
      </trkpt>
      <trkpt lat="46.10815" lon="5.39212">
        <ele>285.2</ele>
        <time>2022-02-24T10:48:36Z</time>
      </trkpt>
      <trkpt lat="46.10808" lon="5.39208">
        <ele>284.8</ele>
        <time>2022-02-24T10:48:37Z</time>
      </trkpt>
      <trkpt lat="46.10801" lon="5.39204">
        <ele>284.6</ele>
        <time>2022-02-24T10:48:38Z</time>
      </trkpt>
      <trkpt lat="46.10794" lon="5.39199">
        <ele>284.2</ele>
        <time>2022-02-24T10:48:39Z</time>
      </trkpt>
      <trkpt lat="46.10788" lon="5.39193">
        <ele>283.8</ele>
        <time>2022-02-24T10:48:40Z</time>
      </trkpt>
      <trkpt lat="46.10781" lon="5.39187">
        <ele>283.8</ele>
        <time>2022-02-24T10:48:41Z</time>
      </trkpt>
      <trkpt lat="46.10775" lon="5.39182">
        <ele>283.6</ele>
        <time>2022-02-24T10:48:42Z</time>
      </trkpt>
      <trkpt lat="46.10768" lon="5.39177">
        <ele>283.6</ele>
        <time>2022-02-24T10:48:43Z</time>
      </trkpt>
      <trkpt lat="46.10761" lon="5.39172">
        <ele>283.6</ele>
        <time>2022-02-24T10:48:44Z</time>
      </trkpt>
      <trkpt lat="46.10754" lon="5.39168">
        <ele>283.6</ele>
        <time>2022-02-24T10:48:45Z</time>
      </trkpt>
      <trkpt lat="46.10747" lon="5.39165">
        <ele>283.6</ele>
        <time>2022-02-24T10:48:46Z</time>
      </trkpt>
      <trkpt lat="46.1074" lon="5.39163">
        <ele>283.8</ele>
        <time>2022-02-24T10:48:47Z</time>
      </trkpt>
      <trkpt lat="46.10733" lon="5.39161">
        <ele>283.8</ele>
        <time>2022-02-24T10:48:48Z</time>
      </trkpt>
      <trkpt lat="46.10727" lon="5.39158">
        <ele>283.8</ele>
        <time>2022-02-24T10:48:49Z</time>
      </trkpt>
      <trkpt lat="46.10721" lon="5.39156">
        <ele>283.8</ele>
        <time>2022-02-24T10:48:50Z</time>
      </trkpt>
      <trkpt lat="46.10715" lon="5.39153">
        <ele>283.8</ele>
        <time>2022-02-24T10:48:51Z</time>
      </trkpt>
      <trkpt lat="46.10709" lon="5.39151">
        <ele>283.8</ele>
        <time>2022-02-24T10:48:52Z</time>
      </trkpt>
      <trkpt lat="46.10703" lon="5.39148">
        <ele>283.8</ele>
        <time>2022-02-24T10:48:53Z</time>
      </trkpt>
      <trkpt lat="46.10698" lon="5.39145">
        <ele>283.8</ele>
        <time>2022-02-24T10:48:54Z</time>
      </trkpt>
      <trkpt lat="46.10692" lon="5.39143">
        <ele>283.8</ele>
        <time>2022-02-24T10:48:55Z</time>
      </trkpt>
      <trkpt lat="46.10686" lon="5.3914">
        <ele>283.8</ele>
        <time>2022-02-24T10:48:56Z</time>
      </trkpt>
      <trkpt lat="46.10681" lon="5.39136">
        <ele>283.8</ele>
        <time>2022-02-24T10:48:57Z</time>
      </trkpt>
      <trkpt lat="46.10675" lon="5.39133">
        <ele>283.8</ele>
        <time>2022-02-24T10:48:58Z</time>
      </trkpt>
      <trkpt lat="46.1067" lon="5.39129">
        <ele>283.8</ele>
        <time>2022-02-24T10:48:59Z</time>
      </trkpt>
      <trkpt lat="46.10665" lon="5.39126">
        <ele>283.8</ele>
        <time>2022-02-24T10:49:00Z</time>
      </trkpt>
      <trkpt lat="46.1066" lon="5.39122">
        <ele>283.8</ele>
        <time>2022-02-24T10:49:01Z</time>
      </trkpt>
      <trkpt lat="46.10655" lon="5.39118">
        <ele>284</ele>
        <time>2022-02-24T10:49:02Z</time>
      </trkpt>
      <trkpt lat="46.10651" lon="5.39113">
        <ele>284</ele>
        <time>2022-02-24T10:49:03Z</time>
      </trkpt>
      <trkpt lat="46.10646" lon="5.39108">
        <ele>284</ele>
        <time>2022-02-24T10:49:04Z</time>
      </trkpt>
      <trkpt lat="46.10642" lon="5.39103">
        <ele>284.4</ele>
        <time>2022-02-24T10:49:05Z</time>
      </trkpt>
      <trkpt lat="46.10638" lon="5.39097">
        <ele>284.4</ele>
        <time>2022-02-24T10:49:06Z</time>
      </trkpt>
      <trkpt lat="46.10634" lon="5.39092">
        <ele>284.4</ele>
        <time>2022-02-24T10:49:07Z</time>
      </trkpt>
      <trkpt lat="46.1063" lon="5.39086">
        <ele>284.6</ele>
        <time>2022-02-24T10:49:08Z</time>
      </trkpt>
      <trkpt lat="46.10626" lon="5.39081">
        <ele>284.8</ele>
        <time>2022-02-24T10:49:09Z</time>
      </trkpt>
      <trkpt lat="46.10622" lon="5.39075">
        <ele>285</ele>
        <time>2022-02-24T10:49:10Z</time>
      </trkpt>
      <trkpt lat="46.10617" lon="5.3907">
        <ele>285</ele>
        <time>2022-02-24T10:49:11Z</time>
      </trkpt>
      <trkpt lat="46.10613" lon="5.39065">
        <ele>284.8</ele>
        <time>2022-02-24T10:49:12Z</time>
      </trkpt>
      <trkpt lat="46.10608" lon="5.39059">
        <ele>284.6</ele>
        <time>2022-02-24T10:49:13Z</time>
      </trkpt>
      <trkpt lat="46.10602" lon="5.39053">
        <ele>284.2</ele>
        <time>2022-02-24T10:49:14Z</time>
      </trkpt>
      <trkpt lat="46.10597" lon="5.39048">
        <ele>284.2</ele>
        <time>2022-02-24T10:49:15Z</time>
      </trkpt>
      <trkpt lat="46.10591" lon="5.39042">
        <ele>284</ele>
        <time>2022-02-24T10:49:16Z</time>
      </trkpt>
      <trkpt lat="46.10585" lon="5.39037">
        <ele>284</ele>
        <time>2022-02-24T10:49:17Z</time>
      </trkpt>
      <trkpt lat="46.1058" lon="5.3903">
        <ele>284</ele>
        <time>2022-02-24T10:49:18Z</time>
      </trkpt>
      <trkpt lat="46.10574" lon="5.39024">
        <ele>283.8</ele>
        <time>2022-02-24T10:49:19Z</time>
      </trkpt>
      <trkpt lat="46.10569" lon="5.39017">
        <ele>283.8</ele>
        <time>2022-02-24T10:49:20Z</time>
      </trkpt>
      <trkpt lat="46.10564" lon="5.39011">
        <ele>283.8</ele>
        <time>2022-02-24T10:49:21Z</time>
      </trkpt>
      <trkpt lat="46.10559" lon="5.39004">
        <ele>283.8</ele>
        <time>2022-02-24T10:49:22Z</time>
      </trkpt>
      <trkpt lat="46.10555" lon="5.38997">
        <ele>283.8</ele>
        <time>2022-02-24T10:49:23Z</time>
      </trkpt>
      <trkpt lat="46.10551" lon="5.3899">
        <ele>283.8</ele>
        <time>2022-02-24T10:49:24Z</time>
      </trkpt>
      <trkpt lat="46.10547" lon="5.38983">
        <ele>283.8</ele>
        <time>2022-02-24T10:49:25Z</time>
      </trkpt>
      <trkpt lat="46.10543" lon="5.38977">
        <ele>283.8</ele>
        <time>2022-02-24T10:49:26Z</time>
      </trkpt>
      <trkpt lat="46.10539" lon="5.3897">
        <ele>284</ele>
        <time>2022-02-24T10:49:27Z</time>
      </trkpt>
      <trkpt lat="46.10535" lon="5.38964">
        <ele>284.2</ele>
        <time>2022-02-24T10:49:28Z</time>
      </trkpt>
      <trkpt lat="46.1053" lon="5.38958">
        <ele>284.2</ele>
        <time>2022-02-24T10:49:29Z</time>
      </trkpt>
      <trkpt lat="46.10526" lon="5.38951">
        <ele>284.2</ele>
        <time>2022-02-24T10:49:30Z</time>
      </trkpt>
      <trkpt lat="46.10519" lon="5.38943">
        <ele>284</ele>
        <time>2022-02-24T10:49:31Z</time>
      </trkpt>
      <trkpt lat="46.10517" lon="5.3894">
        <ele>284</ele>
        <time>2022-02-24T10:49:32Z</time>
      </trkpt>
      <trkpt lat="46.10512" lon="5.38935">
        <ele>283.6</ele>
        <time>2022-02-24T10:49:33Z</time>
      </trkpt>
      <trkpt lat="46.10507" lon="5.3893">
        <ele>283.4</ele>
        <time>2022-02-24T10:49:34Z</time>
      </trkpt>
      <trkpt lat="46.10502" lon="5.38925">
        <ele>283.4</ele>
        <time>2022-02-24T10:49:35Z</time>
      </trkpt>
      <trkpt lat="46.10502" lon="5.38925">
        <ele>283.4</ele>
        <time>2022-02-24T10:49:36Z</time>
      </trkpt>
      <trkpt lat="46.10497" lon="5.3892">
        <ele>283.4</ele>
        <time>2022-02-24T10:49:37Z</time>
      </trkpt>
      <trkpt lat="46.10492" lon="5.38916">
        <ele>283.2</ele>
        <time>2022-02-24T10:49:38Z</time>
      </trkpt>
      <trkpt lat="46.10481" lon="5.38908">
        <ele>283.2</ele>
        <time>2022-02-24T10:49:39Z</time>
      </trkpt>
      <trkpt lat="46.10476" lon="5.38905">
        <ele>283.2</ele>
        <time>2022-02-24T10:49:40Z</time>
      </trkpt>
      <trkpt lat="46.1047" lon="5.38902">
        <ele>283</ele>
        <time>2022-02-24T10:49:41Z</time>
      </trkpt>
      <trkpt lat="46.10465" lon="5.38899">
        <ele>283</ele>
        <time>2022-02-24T10:49:42Z</time>
      </trkpt>
      <trkpt lat="46.10459" lon="5.38897">
        <ele>282.6</ele>
        <time>2022-02-24T10:49:43Z</time>
      </trkpt>
      <trkpt lat="46.10453" lon="5.38894">
        <ele>282.6</ele>
        <time>2022-02-24T10:49:44Z</time>
      </trkpt>
      <trkpt lat="46.10447" lon="5.38892">
        <ele>282.6</ele>
        <time>2022-02-24T10:49:45Z</time>
      </trkpt>
      <trkpt lat="46.10441" lon="5.3889">
        <ele>282.4</ele>
        <time>2022-02-24T10:49:46Z</time>
      </trkpt>
      <trkpt lat="46.10435" lon="5.38887">
        <ele>282.4</ele>
        <time>2022-02-24T10:49:47Z</time>
      </trkpt>
      <trkpt lat="46.10426" lon="5.38884">
        <ele>282.4</ele>
        <time>2022-02-24T10:49:48Z</time>
      </trkpt>
      <trkpt lat="46.10423" lon="5.38883">
        <ele>282.4</ele>
        <time>2022-02-24T10:49:49Z</time>
      </trkpt>
      <trkpt lat="46.10417" lon="5.38881">
        <ele>282.8</ele>
        <time>2022-02-24T10:49:50Z</time>
      </trkpt>
      <trkpt lat="46.1041" lon="5.38879">
        <ele>282.8</ele>
        <time>2022-02-24T10:49:51Z</time>
      </trkpt>
      <trkpt lat="46.10404" lon="5.38876">
        <ele>282.8</ele>
        <time>2022-02-24T10:49:52Z</time>
      </trkpt>
      <trkpt lat="46.10398" lon="5.38874">
        <ele>282.4</ele>
        <time>2022-02-24T10:49:53Z</time>
      </trkpt>
      <trkpt lat="46.10392" lon="5.38872">
        <ele>282.4</ele>
        <time>2022-02-24T10:49:54Z</time>
      </trkpt>
      <trkpt lat="46.10386" lon="5.3887">
        <ele>282.4</ele>
        <time>2022-02-24T10:49:55Z</time>
      </trkpt>
      <trkpt lat="46.1038" lon="5.38867">
        <ele>282.4</ele>
        <time>2022-02-24T10:49:56Z</time>
      </trkpt>
      <trkpt lat="46.10374" lon="5.38865">
        <ele>282.4</ele>
        <time>2022-02-24T10:49:57Z</time>
      </trkpt>
      <trkpt lat="46.10368" lon="5.38863">
        <ele>282.2</ele>
        <time>2022-02-24T10:49:58Z</time>
      </trkpt>
      <trkpt lat="46.10362" lon="5.38861">
        <ele>282.2</ele>
        <time>2022-02-24T10:49:59Z</time>
      </trkpt>
      <trkpt lat="46.10356" lon="5.38859">
        <ele>282.2</ele>
        <time>2022-02-24T10:50:00Z</time>
      </trkpt>
      <trkpt lat="46.10351" lon="5.38856">
        <ele>282.2</ele>
        <time>2022-02-24T10:50:01Z</time>
      </trkpt>
      <trkpt lat="46.10345" lon="5.38854">
        <ele>282.2</ele>
        <time>2022-02-24T10:50:02Z</time>
      </trkpt>
      <trkpt lat="46.10339" lon="5.38852">
        <ele>282.2</ele>
        <time>2022-02-24T10:50:03Z</time>
      </trkpt>
      <trkpt lat="46.10333" lon="5.3885">
        <ele>282</ele>
        <time>2022-02-24T10:50:04Z</time>
      </trkpt>
      <trkpt lat="46.10327" lon="5.38848">
        <ele>282</ele>
        <time>2022-02-24T10:50:05Z</time>
      </trkpt>
      <trkpt lat="46.10321" lon="5.38846">
        <ele>282</ele>
        <time>2022-02-24T10:50:06Z</time>
      </trkpt>
      <trkpt lat="46.10316" lon="5.38844">
        <ele>282</ele>
        <time>2022-02-24T10:50:07Z</time>
      </trkpt>
      <trkpt lat="46.1031" lon="5.38842">
        <ele>282</ele>
        <time>2022-02-24T10:50:08Z</time>
      </trkpt>
      <trkpt lat="46.10304" lon="5.3884">
        <ele>282</ele>
        <time>2022-02-24T10:50:09Z</time>
      </trkpt>
      <trkpt lat="46.10298" lon="5.38837">
        <ele>282</ele>
        <time>2022-02-24T10:50:10Z</time>
      </trkpt>
      <trkpt lat="46.10292" lon="5.38835">
        <ele>282</ele>
        <time>2022-02-24T10:50:11Z</time>
      </trkpt>
      <trkpt lat="46.10286" lon="5.38832">
        <ele>282</ele>
        <time>2022-02-24T10:50:12Z</time>
      </trkpt>
      <trkpt lat="46.10281" lon="5.38829">
        <ele>282</ele>
        <time>2022-02-24T10:50:13Z</time>
      </trkpt>
      <trkpt lat="46.10275" lon="5.38826">
        <ele>281.8</ele>
        <time>2022-02-24T10:50:14Z</time>
      </trkpt>
      <trkpt lat="46.10269" lon="5.38822">
        <ele>281.8</ele>
        <time>2022-02-24T10:50:15Z</time>
      </trkpt>
      <trkpt lat="46.10264" lon="5.38818">
        <ele>281.8</ele>
        <time>2022-02-24T10:50:16Z</time>
      </trkpt>
      <trkpt lat="46.10258" lon="5.38814">
        <ele>281.8</ele>
        <time>2022-02-24T10:50:17Z</time>
      </trkpt>
      <trkpt lat="46.10253" lon="5.38809">
        <ele>281.8</ele>
        <time>2022-02-24T10:50:18Z</time>
      </trkpt>
      <trkpt lat="46.10248" lon="5.38804">
        <ele>281.8</ele>
        <time>2022-02-24T10:50:19Z</time>
      </trkpt>
      <trkpt lat="46.10243" lon="5.38798">
        <ele>281.6</ele>
        <time>2022-02-24T10:50:20Z</time>
      </trkpt>
      <trkpt lat="46.10238" lon="5.38792">
        <ele>281.6</ele>
        <time>2022-02-24T10:50:21Z</time>
      </trkpt>
      <trkpt lat="46.10233" lon="5.38785">
        <ele>281.2</ele>
        <time>2022-02-24T10:50:22Z</time>
      </trkpt>
      <trkpt lat="46.10228" lon="5.38778">
        <ele>281.2</ele>
        <time>2022-02-24T10:50:23Z</time>
      </trkpt>
      <trkpt lat="46.10223" lon="5.38771">
        <ele>280.8</ele>
        <time>2022-02-24T10:50:24Z</time>
      </trkpt>
      <trkpt lat="46.10218" lon="5.38764">
        <ele>280.8</ele>
        <time>2022-02-24T10:50:25Z</time>
      </trkpt>
      <trkpt lat="46.10214" lon="5.38756">
        <ele>280.8</ele>
        <time>2022-02-24T10:50:26Z</time>
      </trkpt>
      <trkpt lat="46.10209" lon="5.38748">
        <ele>280.6</ele>
        <time>2022-02-24T10:50:27Z</time>
      </trkpt>
      <trkpt lat="46.10205" lon="5.3874">
        <ele>280.6</ele>
        <time>2022-02-24T10:50:28Z</time>
      </trkpt>
      <trkpt lat="46.10202" lon="5.38732">
        <ele>280.6</ele>
        <time>2022-02-24T10:50:29Z</time>
      </trkpt>
      <trkpt lat="46.10198" lon="5.38724">
        <ele>280.2</ele>
        <time>2022-02-24T10:50:30Z</time>
      </trkpt>
      <trkpt lat="46.10193" lon="5.38716">
        <ele>280.2</ele>
        <time>2022-02-24T10:50:31Z</time>
      </trkpt>
      <trkpt lat="46.10189" lon="5.38708">
        <ele>280.2</ele>
        <time>2022-02-24T10:50:32Z</time>
      </trkpt>
      <trkpt lat="46.10185" lon="5.387">
        <ele>280.2</ele>
        <time>2022-02-24T10:50:33Z</time>
      </trkpt>
      <trkpt lat="46.10181" lon="5.38693">
        <ele>280.2</ele>
        <time>2022-02-24T10:50:34Z</time>
      </trkpt>
      <trkpt lat="46.10178" lon="5.38685">
        <ele>280.4</ele>
        <time>2022-02-24T10:50:35Z</time>
      </trkpt>
      <trkpt lat="46.10174" lon="5.38678">
        <ele>280.4</ele>
        <time>2022-02-24T10:50:36Z</time>
      </trkpt>
      <trkpt lat="46.1017" lon="5.38671">
        <ele>280.6</ele>
        <time>2022-02-24T10:50:37Z</time>
      </trkpt>
      <trkpt lat="46.10167" lon="5.38665">
        <ele>280.6</ele>
        <time>2022-02-24T10:50:38Z</time>
      </trkpt>
      <trkpt lat="46.10163" lon="5.38658">
        <ele>280.8</ele>
        <time>2022-02-24T10:50:39Z</time>
      </trkpt>
      <trkpt lat="46.10159" lon="5.38652">
        <ele>280.8</ele>
        <time>2022-02-24T10:50:40Z</time>
      </trkpt>
      <trkpt lat="46.10156" lon="5.38647">
        <ele>281.2</ele>
        <time>2022-02-24T10:50:41Z</time>
      </trkpt>
      <trkpt lat="46.10152" lon="5.38642">
        <ele>281.4</ele>
        <time>2022-02-24T10:50:42Z</time>
      </trkpt>
      <trkpt lat="46.10148" lon="5.38636">
        <ele>281.4</ele>
        <time>2022-02-24T10:50:43Z</time>
      </trkpt>
      <trkpt lat="46.10144" lon="5.38631">
        <ele>281.8</ele>
        <time>2022-02-24T10:50:44Z</time>
      </trkpt>
      <trkpt lat="46.1014" lon="5.38625">
        <ele>282</ele>
        <time>2022-02-24T10:50:45Z</time>
      </trkpt>
      <trkpt lat="46.10137" lon="5.3862">
        <ele>282.4</ele>
        <time>2022-02-24T10:50:46Z</time>
      </trkpt>
      <trkpt lat="46.10133" lon="5.38615">
        <ele>282.8</ele>
        <time>2022-02-24T10:50:47Z</time>
      </trkpt>
      <trkpt lat="46.10129" lon="5.3861">
        <ele>282.8</ele>
        <time>2022-02-24T10:50:48Z</time>
      </trkpt>
      <trkpt lat="46.10124" lon="5.38604">
        <ele>283</ele>
        <time>2022-02-24T10:50:49Z</time>
      </trkpt>
      <trkpt lat="46.10119" lon="5.38599">
        <ele>283</ele>
        <time>2022-02-24T10:50:50Z</time>
      </trkpt>
      <trkpt lat="46.10115" lon="5.38594">
        <ele>283</ele>
        <time>2022-02-24T10:50:51Z</time>
      </trkpt>
      <trkpt lat="46.1011" lon="5.38589">
        <ele>283.2</ele>
        <time>2022-02-24T10:50:52Z</time>
      </trkpt>
      <trkpt lat="46.10106" lon="5.38584">
        <ele>283.2</ele>
        <time>2022-02-24T10:50:53Z</time>
      </trkpt>
      <trkpt lat="46.10101" lon="5.3858">
        <ele>283.2</ele>
        <time>2022-02-24T10:50:54Z</time>
      </trkpt>
      <trkpt lat="46.10096" lon="5.38575">
        <ele>283.2</ele>
        <time>2022-02-24T10:50:55Z</time>
      </trkpt>
      <trkpt lat="46.10092" lon="5.3857">
        <ele>283.4</ele>
        <time>2022-02-24T10:50:56Z</time>
      </trkpt>
      <trkpt lat="46.10087" lon="5.38564">
        <ele>283.4</ele>
        <time>2022-02-24T10:50:57Z</time>
      </trkpt>
      <trkpt lat="46.10082" lon="5.38559">
        <ele>283.4</ele>
        <time>2022-02-24T10:50:58Z</time>
      </trkpt>
      <trkpt lat="46.10077" lon="5.38554">
        <ele>283.2</ele>
        <time>2022-02-24T10:50:59Z</time>
      </trkpt>
      <trkpt lat="46.10072" lon="5.38549">
        <ele>283.2</ele>
        <time>2022-02-24T10:51:00Z</time>
      </trkpt>
      <trkpt lat="46.10067" lon="5.38544">
        <ele>283</ele>
        <time>2022-02-24T10:51:01Z</time>
      </trkpt>
      <trkpt lat="46.10062" lon="5.38538">
        <ele>283</ele>
        <time>2022-02-24T10:51:02Z</time>
      </trkpt>
      <trkpt lat="46.10056" lon="5.38533">
        <ele>282.6</ele>
        <time>2022-02-24T10:51:03Z</time>
      </trkpt>
      <trkpt lat="46.10051" lon="5.38528">
        <ele>282.4</ele>
        <time>2022-02-24T10:51:04Z</time>
      </trkpt>
      <trkpt lat="46.10045" lon="5.38522">
        <ele>282.2</ele>
        <time>2022-02-24T10:51:05Z</time>
      </trkpt>
      <trkpt lat="46.10038" lon="5.38517">
        <ele>282</ele>
        <time>2022-02-24T10:51:06Z</time>
      </trkpt>
      <trkpt lat="46.10032" lon="5.38512">
        <ele>281.8</ele>
        <time>2022-02-24T10:51:07Z</time>
      </trkpt>
      <trkpt lat="46.10025" lon="5.38507">
        <ele>281.4</ele>
        <time>2022-02-24T10:51:08Z</time>
      </trkpt>
      <trkpt lat="46.10018" lon="5.38503">
        <ele>281.2</ele>
        <time>2022-02-24T10:51:09Z</time>
      </trkpt>
      <trkpt lat="46.10011" lon="5.38498">
        <ele>281.2</ele>
        <time>2022-02-24T10:51:10Z</time>
      </trkpt>
      <trkpt lat="46.10005" lon="5.38494">
        <ele>280.8</ele>
        <time>2022-02-24T10:51:11Z</time>
      </trkpt>
      <trkpt lat="46.09998" lon="5.38489">
        <ele>280.8</ele>
        <time>2022-02-24T10:51:12Z</time>
      </trkpt>
      <trkpt lat="46.09991" lon="5.38485">
        <ele>280.4</ele>
        <time>2022-02-24T10:51:13Z</time>
      </trkpt>
      <trkpt lat="46.09985" lon="5.3848">
        <ele>280.4</ele>
        <time>2022-02-24T10:51:14Z</time>
      </trkpt>
      <trkpt lat="46.09976" lon="5.38472">
        <ele>280.4</ele>
        <time>2022-02-24T10:51:15Z</time>
      </trkpt>
      <trkpt lat="46.09973" lon="5.38469">
        <ele>280.4</ele>
        <time>2022-02-24T10:51:16Z</time>
      </trkpt>
      <trkpt lat="46.09967" lon="5.38464">
        <ele>280.4</ele>
        <time>2022-02-24T10:51:17Z</time>
      </trkpt>
      <trkpt lat="46.09962" lon="5.38458">
        <ele>280.4</ele>
        <time>2022-02-24T10:51:18Z</time>
      </trkpt>
      <trkpt lat="46.09957" lon="5.38452">
        <ele>280.4</ele>
        <time>2022-02-24T10:51:19Z</time>
      </trkpt>
      <trkpt lat="46.09952" lon="5.38446">
        <ele>280.4</ele>
        <time>2022-02-24T10:51:20Z</time>
      </trkpt>
      <trkpt lat="46.09948" lon="5.3844">
        <ele>280.4</ele>
        <time>2022-02-24T10:51:21Z</time>
      </trkpt>
      <trkpt lat="46.09944" lon="5.38435">
        <ele>280.6</ele>
        <time>2022-02-24T10:51:22Z</time>
      </trkpt>
      <trkpt lat="46.09941" lon="5.38429">
        <ele>280.6</ele>
        <time>2022-02-24T10:51:23Z</time>
      </trkpt>
      <trkpt lat="46.09937" lon="5.38422">
        <ele>280.6</ele>
        <time>2022-02-24T10:51:24Z</time>
      </trkpt>
      <trkpt lat="46.09932" lon="5.38412">
        <ele>280.6</ele>
        <time>2022-02-24T10:51:25Z</time>
      </trkpt>
      <trkpt lat="46.0993" lon="5.38409">
        <ele>280.6</ele>
        <time>2022-02-24T10:51:26Z</time>
      </trkpt>
      <trkpt lat="46.09926" lon="5.38402">
        <ele>281</ele>
        <time>2022-02-24T10:51:27Z</time>
      </trkpt>
      <trkpt lat="46.09922" lon="5.38395">
        <ele>281</ele>
        <time>2022-02-24T10:51:28Z</time>
      </trkpt>
      <trkpt lat="46.09918" lon="5.38388">
        <ele>280.6</ele>
        <time>2022-02-24T10:51:29Z</time>
      </trkpt>
      <trkpt lat="46.09913" lon="5.3838">
        <ele>280.4</ele>
        <time>2022-02-24T10:51:30Z</time>
      </trkpt>
      <trkpt lat="46.09909" lon="5.38373">
        <ele>280.4</ele>
        <time>2022-02-24T10:51:31Z</time>
      </trkpt>
      <trkpt lat="46.09904" lon="5.38365">
        <ele>280</ele>
        <time>2022-02-24T10:51:32Z</time>
      </trkpt>
      <trkpt lat="46.09899" lon="5.38358">
        <ele>280</ele>
        <time>2022-02-24T10:51:33Z</time>
      </trkpt>
      <trkpt lat="46.09894" lon="5.38351">
        <ele>280</ele>
        <time>2022-02-24T10:51:34Z</time>
      </trkpt>
      <trkpt lat="46.09888" lon="5.38342">
        <ele>280</ele>
        <time>2022-02-24T10:51:35Z</time>
      </trkpt>
      <trkpt lat="46.09885" lon="5.38339">
        <ele>279.8</ele>
        <time>2022-02-24T10:51:36Z</time>
      </trkpt>
      <trkpt lat="46.09881" lon="5.38333">
        <ele>279.8</ele>
        <time>2022-02-24T10:51:37Z</time>
      </trkpt>
      <trkpt lat="46.09877" lon="5.38328">
        <ele>279.8</ele>
        <time>2022-02-24T10:51:38Z</time>
      </trkpt>
      <trkpt lat="46.09872" lon="5.38322">
        <ele>280</ele>
        <time>2022-02-24T10:51:39Z</time>
      </trkpt>
      <trkpt lat="46.09868" lon="5.38317">
        <ele>280</ele>
        <time>2022-02-24T10:51:40Z</time>
      </trkpt>
      <trkpt lat="46.09864" lon="5.38313">
        <ele>280.4</ele>
        <time>2022-02-24T10:51:41Z</time>
      </trkpt>
      <trkpt lat="46.0986" lon="5.38308">
        <ele>280.4</ele>
        <time>2022-02-24T10:51:42Z</time>
      </trkpt>
      <trkpt lat="46.09856" lon="5.38304">
        <ele>280.6</ele>
        <time>2022-02-24T10:51:43Z</time>
      </trkpt>
      <trkpt lat="46.09851" lon="5.383">
        <ele>280.6</ele>
        <time>2022-02-24T10:51:44Z</time>
      </trkpt>
      <trkpt lat="46.09847" lon="5.38295">
        <ele>281</ele>
        <time>2022-02-24T10:51:45Z</time>
      </trkpt>
      <trkpt lat="46.09841" lon="5.38289">
        <ele>281.2</ele>
        <time>2022-02-24T10:51:46Z</time>
      </trkpt>
      <trkpt lat="46.09839" lon="5.38287">
        <ele>281.2</ele>
        <time>2022-02-24T10:51:47Z</time>
      </trkpt>
      <trkpt lat="46.09835" lon="5.38284">
        <ele>281.2</ele>
        <time>2022-02-24T10:51:48Z</time>
      </trkpt>
      <trkpt lat="46.0983" lon="5.38279">
        <ele>281.2</ele>
        <time>2022-02-24T10:51:49Z</time>
      </trkpt>
      <trkpt lat="46.09826" lon="5.38275">
        <ele>281.2</ele>
        <time>2022-02-24T10:51:50Z</time>
      </trkpt>
      <trkpt lat="46.09822" lon="5.38271">
        <ele>281.2</ele>
        <time>2022-02-24T10:51:51Z</time>
      </trkpt>
      <trkpt lat="46.09817" lon="5.38267">
        <ele>281.2</ele>
        <time>2022-02-24T10:51:52Z</time>
      </trkpt>
      <trkpt lat="46.09813" lon="5.38263">
        <ele>281.2</ele>
        <time>2022-02-24T10:51:53Z</time>
      </trkpt>
      <trkpt lat="46.09808" lon="5.38259">
        <ele>281.2</ele>
        <time>2022-02-24T10:51:54Z</time>
      </trkpt>
      <trkpt lat="46.09803" lon="5.38256">
        <ele>281.2</ele>
        <time>2022-02-24T10:51:55Z</time>
      </trkpt>
      <trkpt lat="46.09799" lon="5.38252">
        <ele>281.2</ele>
        <time>2022-02-24T10:51:56Z</time>
      </trkpt>
      <trkpt lat="46.09794" lon="5.38249">
        <ele>281.2</ele>
        <time>2022-02-24T10:51:57Z</time>
      </trkpt>
      <trkpt lat="46.09789" lon="5.38246">
        <ele>281.2</ele>
        <time>2022-02-24T10:51:58Z</time>
      </trkpt>
      <trkpt lat="46.09784" lon="5.38244">
        <ele>281.2</ele>
        <time>2022-02-24T10:51:59Z</time>
      </trkpt>
      <trkpt lat="46.09779" lon="5.38241">
        <ele>281.2</ele>
        <time>2022-02-24T10:52:00Z</time>
      </trkpt>
      <trkpt lat="46.09774" lon="5.38239">
        <ele>281.2</ele>
        <time>2022-02-24T10:52:01Z</time>
      </trkpt>
      <trkpt lat="46.09769" lon="5.38238">
        <ele>281.2</ele>
        <time>2022-02-24T10:52:02Z</time>
      </trkpt>
      <trkpt lat="46.09764" lon="5.38236">
        <ele>281.2</ele>
        <time>2022-02-24T10:52:03Z</time>
      </trkpt>
      <trkpt lat="46.09759" lon="5.38235">
        <ele>281.2</ele>
        <time>2022-02-24T10:52:04Z</time>
      </trkpt>
      <trkpt lat="46.09753" lon="5.38233">
        <ele>281.2</ele>
        <time>2022-02-24T10:52:05Z</time>
      </trkpt>
      <trkpt lat="46.09748" lon="5.38232">
        <ele>281</ele>
        <time>2022-02-24T10:52:06Z</time>
      </trkpt>
      <trkpt lat="46.09742" lon="5.3823">
        <ele>281</ele>
        <time>2022-02-24T10:52:07Z</time>
      </trkpt>
      <trkpt lat="46.09737" lon="5.38228">
        <ele>281</ele>
        <time>2022-02-24T10:52:08Z</time>
      </trkpt>
      <trkpt lat="46.09731" lon="5.38226">
        <ele>280.8</ele>
        <time>2022-02-24T10:52:09Z</time>
      </trkpt>
      <trkpt lat="46.09726" lon="5.38223">
        <ele>280.8</ele>
        <time>2022-02-24T10:52:10Z</time>
      </trkpt>
      <trkpt lat="46.0972" lon="5.3822">
        <ele>280.8</ele>
        <time>2022-02-24T10:52:11Z</time>
      </trkpt>
      <trkpt lat="46.09715" lon="5.38216">
        <ele>280.8</ele>
        <time>2022-02-24T10:52:12Z</time>
      </trkpt>
      <trkpt lat="46.0971" lon="5.38212">
        <ele>280.8</ele>
        <time>2022-02-24T10:52:13Z</time>
      </trkpt>
      <trkpt lat="46.09705" lon="5.38208">
        <ele>280.6</ele>
        <time>2022-02-24T10:52:14Z</time>
      </trkpt>
      <trkpt lat="46.097" lon="5.38204">
        <ele>280.6</ele>
        <time>2022-02-24T10:52:15Z</time>
      </trkpt>
      <trkpt lat="46.09695" lon="5.382">
        <ele>280.6</ele>
        <time>2022-02-24T10:52:16Z</time>
      </trkpt>
      <trkpt lat="46.09691" lon="5.38196">
        <ele>280.6</ele>
        <time>2022-02-24T10:52:17Z</time>
      </trkpt>
      <trkpt lat="46.09687" lon="5.38193">
        <ele>280.8</ele>
        <time>2022-02-24T10:52:18Z</time>
      </trkpt>
      <trkpt lat="46.09683" lon="5.38189">
        <ele>281</ele>
        <time>2022-02-24T10:52:19Z</time>
      </trkpt>
      <trkpt lat="46.0968" lon="5.38185">
        <ele>281</ele>
        <time>2022-02-24T10:52:20Z</time>
      </trkpt>
      <trkpt lat="46.09676" lon="5.38182">
        <ele>281.4</ele>
        <time>2022-02-24T10:52:21Z</time>
      </trkpt>
      <trkpt lat="46.09673" lon="5.38178">
        <ele>281.4</ele>
        <time>2022-02-24T10:52:22Z</time>
      </trkpt>
      <trkpt lat="46.0967" lon="5.38175">
        <ele>281.4</ele>
        <time>2022-02-24T10:52:23Z</time>
      </trkpt>
      <trkpt lat="46.09666" lon="5.38172">
        <ele>281.6</ele>
        <time>2022-02-24T10:52:24Z</time>
      </trkpt>
      <trkpt lat="46.09663" lon="5.38169">
        <ele>281.6</ele>
        <time>2022-02-24T10:52:25Z</time>
      </trkpt>
      <trkpt lat="46.09659" lon="5.38166">
        <ele>281.6</ele>
        <time>2022-02-24T10:52:26Z</time>
      </trkpt>
      <trkpt lat="46.09656" lon="5.38163">
        <ele>282</ele>
        <time>2022-02-24T10:52:27Z</time>
      </trkpt>
      <trkpt lat="46.09653" lon="5.3816">
        <ele>282</ele>
        <time>2022-02-24T10:52:28Z</time>
      </trkpt>
      <trkpt lat="46.0965" lon="5.38158">
        <ele>282.4</ele>
        <time>2022-02-24T10:52:29Z</time>
      </trkpt>
      <trkpt lat="46.09646" lon="5.38155">
        <ele>282.4</ele>
        <time>2022-02-24T10:52:30Z</time>
      </trkpt>
      <trkpt lat="46.09643" lon="5.38152">
        <ele>282.6</ele>
        <time>2022-02-24T10:52:31Z</time>
      </trkpt>
      <trkpt lat="46.0964" lon="5.38149">
        <ele>282.6</ele>
        <time>2022-02-24T10:52:32Z</time>
      </trkpt>
      <trkpt lat="46.09638" lon="5.38145">
        <ele>283</ele>
        <time>2022-02-24T10:52:33Z</time>
      </trkpt>
      <trkpt lat="46.09635" lon="5.38142">
        <ele>283.2</ele>
        <time>2022-02-24T10:52:34Z</time>
      </trkpt>
      <trkpt lat="46.09632" lon="5.38138">
        <ele>283.2</ele>
        <time>2022-02-24T10:52:35Z</time>
      </trkpt>
      <trkpt lat="46.0963" lon="5.38135">
        <ele>283.6</ele>
        <time>2022-02-24T10:52:36Z</time>
      </trkpt>
      <trkpt lat="46.09627" lon="5.38132">
        <ele>283.6</ele>
        <time>2022-02-24T10:52:37Z</time>
      </trkpt>
      <trkpt lat="46.09625" lon="5.38128">
        <ele>284</ele>
        <time>2022-02-24T10:52:38Z</time>
      </trkpt>
      <trkpt lat="46.09623" lon="5.38125">
        <ele>284</ele>
        <time>2022-02-24T10:52:39Z</time>
      </trkpt>
      <trkpt lat="46.09621" lon="5.38121">
        <ele>284.4</ele>
        <time>2022-02-24T10:52:40Z</time>
      </trkpt>
      <trkpt lat="46.09619" lon="5.38117">
        <ele>284.6</ele>
        <time>2022-02-24T10:52:41Z</time>
      </trkpt>
      <trkpt lat="46.09617" lon="5.38113">
        <ele>285</ele>
        <time>2022-02-24T10:52:42Z</time>
      </trkpt>
      <trkpt lat="46.09614" lon="5.38109">
        <ele>285.2</ele>
        <time>2022-02-24T10:52:43Z</time>
      </trkpt>
      <trkpt lat="46.09612" lon="5.38106">
        <ele>285.4</ele>
        <time>2022-02-24T10:52:44Z</time>
      </trkpt>
      <trkpt lat="46.09609" lon="5.38102">
        <ele>285.8</ele>
        <time>2022-02-24T10:52:45Z</time>
      </trkpt>
      <trkpt lat="46.09607" lon="5.38099">
        <ele>286.4</ele>
        <time>2022-02-24T10:52:46Z</time>
      </trkpt>
      <trkpt lat="46.09604" lon="5.38096">
        <ele>286.4</ele>
        <time>2022-02-24T10:52:47Z</time>
      </trkpt>
      <trkpt lat="46.09601" lon="5.38093">
        <ele>286.6</ele>
        <time>2022-02-24T10:52:48Z</time>
      </trkpt>
      <trkpt lat="46.09599" lon="5.3809">
        <ele>286.8</ele>
        <time>2022-02-24T10:52:49Z</time>
      </trkpt>
      <trkpt lat="46.09596" lon="5.38087">
        <ele>287.2</ele>
        <time>2022-02-24T10:52:50Z</time>
      </trkpt>
      <trkpt lat="46.09593" lon="5.38084">
        <ele>287.4</ele>
        <time>2022-02-24T10:52:51Z</time>
      </trkpt>
      <trkpt lat="46.09591" lon="5.38081">
        <ele>287.6</ele>
        <time>2022-02-24T10:52:52Z</time>
      </trkpt>
      <trkpt lat="46.09588" lon="5.38077">
        <ele>287.8</ele>
        <time>2022-02-24T10:52:53Z</time>
      </trkpt>
      <trkpt lat="46.09586" lon="5.38074">
        <ele>288</ele>
        <time>2022-02-24T10:52:54Z</time>
      </trkpt>
      <trkpt lat="46.09584" lon="5.38071">
        <ele>288.2</ele>
        <time>2022-02-24T10:52:55Z</time>
      </trkpt>
      <trkpt lat="46.09581" lon="5.38068">
        <ele>288.4</ele>
        <time>2022-02-24T10:52:56Z</time>
      </trkpt>
      <trkpt lat="46.09579" lon="5.38065">
        <ele>288.4</ele>
        <time>2022-02-24T10:52:57Z</time>
      </trkpt>
      <trkpt lat="46.09577" lon="5.38062">
        <ele>288.8</ele>
        <time>2022-02-24T10:52:58Z</time>
      </trkpt>
      <trkpt lat="46.09574" lon="5.3806">
        <ele>289</ele>
        <time>2022-02-24T10:52:59Z</time>
      </trkpt>
      <trkpt lat="46.09572" lon="5.38057">
        <ele>289</ele>
        <time>2022-02-24T10:53:00Z</time>
      </trkpt>
      <trkpt lat="46.09569" lon="5.38055">
        <ele>289.4</ele>
        <time>2022-02-24T10:53:01Z</time>
      </trkpt>
      <trkpt lat="46.09566" lon="5.38052">
        <ele>289.6</ele>
        <time>2022-02-24T10:53:02Z</time>
      </trkpt>
      <trkpt lat="46.09564" lon="5.3805">
        <ele>289.6</ele>
        <time>2022-02-24T10:53:03Z</time>
      </trkpt>
      <trkpt lat="46.09561" lon="5.38048">
        <ele>290</ele>
        <time>2022-02-24T10:53:04Z</time>
      </trkpt>
      <trkpt lat="46.09558" lon="5.38045">
        <ele>290</ele>
        <time>2022-02-24T10:53:05Z</time>
      </trkpt>
      <trkpt lat="46.09556" lon="5.38043">
        <ele>290.4</ele>
        <time>2022-02-24T10:53:06Z</time>
      </trkpt>
      <trkpt lat="46.09553" lon="5.3804">
        <ele>290.8</ele>
        <time>2022-02-24T10:53:07Z</time>
      </trkpt>
      <trkpt lat="46.09551" lon="5.38038">
        <ele>291</ele>
        <time>2022-02-24T10:53:08Z</time>
      </trkpt>
      <trkpt lat="46.09549" lon="5.38035">
        <ele>291</ele>
        <time>2022-02-24T10:53:09Z</time>
      </trkpt>
      <trkpt lat="46.09547" lon="5.38032">
        <ele>291.4</ele>
        <time>2022-02-24T10:53:10Z</time>
      </trkpt>
      <trkpt lat="46.09545" lon="5.3803">
        <ele>291.6</ele>
        <time>2022-02-24T10:53:11Z</time>
      </trkpt>
      <trkpt lat="46.09542" lon="5.38027">
        <ele>291.8</ele>
        <time>2022-02-24T10:53:12Z</time>
      </trkpt>
      <trkpt lat="46.0954" lon="5.38025">
        <ele>291.8</ele>
        <time>2022-02-24T10:53:13Z</time>
      </trkpt>
      <trkpt lat="46.09538" lon="5.38022">
        <ele>292.2</ele>
        <time>2022-02-24T10:53:14Z</time>
      </trkpt>
      <trkpt lat="46.09536" lon="5.3802">
        <ele>292.4</ele>
        <time>2022-02-24T10:53:15Z</time>
      </trkpt>
      <trkpt lat="46.09534" lon="5.38018">
        <ele>292.4</ele>
        <time>2022-02-24T10:53:16Z</time>
      </trkpt>
      <trkpt lat="46.09532" lon="5.38016">
        <ele>292.8</ele>
        <time>2022-02-24T10:53:17Z</time>
      </trkpt>
      <trkpt lat="46.09529" lon="5.38014">
        <ele>292.8</ele>
        <time>2022-02-24T10:53:18Z</time>
      </trkpt>
      <trkpt lat="46.09527" lon="5.38011">
        <ele>293</ele>
        <time>2022-02-24T10:53:19Z</time>
      </trkpt>
      <trkpt lat="46.09525" lon="5.3801">
        <ele>293</ele>
        <time>2022-02-24T10:53:20Z</time>
      </trkpt>
      <trkpt lat="46.09523" lon="5.38008">
        <ele>293.4</ele>
        <time>2022-02-24T10:53:21Z</time>
      </trkpt>
      <trkpt lat="46.0952" lon="5.38006">
        <ele>293.4</ele>
        <time>2022-02-24T10:53:22Z</time>
      </trkpt>
      <trkpt lat="46.09518" lon="5.38004">
        <ele>293.8</ele>
        <time>2022-02-24T10:53:23Z</time>
      </trkpt>
      <trkpt lat="46.09516" lon="5.38003">
        <ele>294</ele>
        <time>2022-02-24T10:53:24Z</time>
      </trkpt>
      <trkpt lat="46.09513" lon="5.38001">
        <ele>294</ele>
        <time>2022-02-24T10:53:25Z</time>
      </trkpt>
      <trkpt lat="46.09511" lon="5.37999">
        <ele>294.4</ele>
        <time>2022-02-24T10:53:26Z</time>
      </trkpt>
      <trkpt lat="46.09508" lon="5.37998">
        <ele>294.4</ele>
        <time>2022-02-24T10:53:27Z</time>
      </trkpt>
      <trkpt lat="46.09505" lon="5.37996">
        <ele>294.6</ele>
        <time>2022-02-24T10:53:28Z</time>
      </trkpt>
      <trkpt lat="46.09503" lon="5.37994">
        <ele>294.6</ele>
        <time>2022-02-24T10:53:29Z</time>
      </trkpt>
      <trkpt lat="46.09501" lon="5.37992">
        <ele>295</ele>
        <time>2022-02-24T10:53:30Z</time>
      </trkpt>
      <trkpt lat="46.09498" lon="5.3799">
        <ele>295</ele>
        <time>2022-02-24T10:53:31Z</time>
      </trkpt>
      <trkpt lat="46.09496" lon="5.37988">
        <ele>295.2</ele>
        <time>2022-02-24T10:53:32Z</time>
      </trkpt>
      <trkpt lat="46.09494" lon="5.37985">
        <ele>295.2</ele>
        <time>2022-02-24T10:53:33Z</time>
      </trkpt>
      <trkpt lat="46.09491" lon="5.37983">
        <ele>295.2</ele>
        <time>2022-02-24T10:53:34Z</time>
      </trkpt>
      <trkpt lat="46.09488" lon="5.3798">
        <ele>295.2</ele>
        <time>2022-02-24T10:53:35Z</time>
      </trkpt>
      <trkpt lat="46.09485" lon="5.37977">
        <ele>295.4</ele>
        <time>2022-02-24T10:53:36Z</time>
      </trkpt>
      <trkpt lat="46.09483" lon="5.37975">
        <ele>295.4</ele>
        <time>2022-02-24T10:53:37Z</time>
      </trkpt>
      <trkpt lat="46.09483" lon="5.37975">
        <ele>295.4</ele>
        <time>2022-02-24T10:53:38Z</time>
      </trkpt>
      <trkpt lat="46.0948" lon="5.37972">
        <ele>295.8</ele>
        <time>2022-02-24T10:53:39Z</time>
      </trkpt>
      <trkpt lat="46.09477" lon="5.37969">
        <ele>295.8</ele>
        <time>2022-02-24T10:53:40Z</time>
      </trkpt>
      <trkpt lat="46.09471" lon="5.37964">
        <ele>296</ele>
        <time>2022-02-24T10:53:41Z</time>
      </trkpt>
      <trkpt lat="46.09468" lon="5.37961">
        <ele>296</ele>
        <time>2022-02-24T10:53:42Z</time>
      </trkpt>
      <trkpt lat="46.09465" lon="5.37957">
        <ele>296</ele>
        <time>2022-02-24T10:53:43Z</time>
      </trkpt>
      <trkpt lat="46.09463" lon="5.37954">
        <ele>296.2</ele>
        <time>2022-02-24T10:53:44Z</time>
      </trkpt>
      <trkpt lat="46.0946" lon="5.3795">
        <ele>296.2</ele>
        <time>2022-02-24T10:53:45Z</time>
      </trkpt>
      <trkpt lat="46.09458" lon="5.37947">
        <ele>296.6</ele>
        <time>2022-02-24T10:53:46Z</time>
      </trkpt>
      <trkpt lat="46.09455" lon="5.37943">
        <ele>297</ele>
        <time>2022-02-24T10:53:47Z</time>
      </trkpt>
      <trkpt lat="46.09452" lon="5.3794">
        <ele>297</ele>
        <time>2022-02-24T10:53:48Z</time>
      </trkpt>
      <trkpt lat="46.0945" lon="5.37938">
        <ele>297</ele>
        <time>2022-02-24T10:53:49Z</time>
      </trkpt>
      <trkpt lat="46.09447" lon="5.37935">
        <ele>297</ele>
        <time>2022-02-24T10:53:50Z</time>
      </trkpt>
      <trkpt lat="46.09444" lon="5.37932">
        <ele>297</ele>
        <time>2022-02-24T10:53:51Z</time>
      </trkpt>
      <trkpt lat="46.09441" lon="5.37929">
        <ele>297.2</ele>
        <time>2022-02-24T10:53:52Z</time>
      </trkpt>
      <trkpt lat="46.09438" lon="5.37926">
        <ele>297.2</ele>
        <time>2022-02-24T10:53:53Z</time>
      </trkpt>
      <trkpt lat="46.09435" lon="5.37923">
        <ele>297.2</ele>
        <time>2022-02-24T10:53:54Z</time>
      </trkpt>
      <trkpt lat="46.09433" lon="5.37919">
        <ele>297.2</ele>
        <time>2022-02-24T10:53:55Z</time>
      </trkpt>
      <trkpt lat="46.0943" lon="5.37916">
        <ele>297.2</ele>
        <time>2022-02-24T10:53:56Z</time>
      </trkpt>
      <trkpt lat="46.09427" lon="5.37913">
        <ele>297.2</ele>
        <time>2022-02-24T10:53:57Z</time>
      </trkpt>
      <trkpt lat="46.09424" lon="5.3791">
        <ele>297.6</ele>
        <time>2022-02-24T10:53:58Z</time>
      </trkpt>
      <trkpt lat="46.09421" lon="5.37907">
        <ele>297.6</ele>
        <time>2022-02-24T10:53:59Z</time>
      </trkpt>
      <trkpt lat="46.09418" lon="5.37903">
        <ele>297.6</ele>
        <time>2022-02-24T10:54:00Z</time>
      </trkpt>
      <trkpt lat="46.09415" lon="5.379">
        <ele>297.6</ele>
        <time>2022-02-24T10:54:01Z</time>
      </trkpt>
      <trkpt lat="46.09413" lon="5.37896">
        <ele>297.6</ele>
        <time>2022-02-24T10:54:02Z</time>
      </trkpt>
      <trkpt lat="46.0941" lon="5.37892">
        <ele>297.6</ele>
        <time>2022-02-24T10:54:03Z</time>
      </trkpt>
      <trkpt lat="46.09408" lon="5.37889">
        <ele>297.6</ele>
        <time>2022-02-24T10:54:04Z</time>
      </trkpt>
      <trkpt lat="46.09405" lon="5.37885">
        <ele>297.6</ele>
        <time>2022-02-24T10:54:05Z</time>
      </trkpt>
      <trkpt lat="46.09402" lon="5.37881">
        <ele>297.8</ele>
        <time>2022-02-24T10:54:06Z</time>
      </trkpt>
      <trkpt lat="46.094" lon="5.37878">
        <ele>297.8</ele>
        <time>2022-02-24T10:54:07Z</time>
      </trkpt>
      <trkpt lat="46.09397" lon="5.37875">
        <ele>297.8</ele>
        <time>2022-02-24T10:54:08Z</time>
      </trkpt>
      <trkpt lat="46.09394" lon="5.37873">
        <ele>297.8</ele>
        <time>2022-02-24T10:54:09Z</time>
      </trkpt>
      <trkpt lat="46.09391" lon="5.3787">
        <ele>298</ele>
        <time>2022-02-24T10:54:10Z</time>
      </trkpt>
      <trkpt lat="46.09388" lon="5.37867">
        <ele>298</ele>
        <time>2022-02-24T10:54:11Z</time>
      </trkpt>
      <trkpt lat="46.09385" lon="5.37864">
        <ele>298.2</ele>
        <time>2022-02-24T10:54:12Z</time>
      </trkpt>
      <trkpt lat="46.09382" lon="5.37861">
        <ele>298.2</ele>
        <time>2022-02-24T10:54:13Z</time>
      </trkpt>
      <trkpt lat="46.09379" lon="5.37857">
        <ele>298.2</ele>
        <time>2022-02-24T10:54:14Z</time>
      </trkpt>
      <trkpt lat="46.09376" lon="5.37854">
        <ele>298.6</ele>
        <time>2022-02-24T10:54:15Z</time>
      </trkpt>
      <trkpt lat="46.09373" lon="5.37851">
        <ele>298.6</ele>
        <time>2022-02-24T10:54:16Z</time>
      </trkpt>
      <trkpt lat="46.0937" lon="5.37848">
        <ele>298.8</ele>
        <time>2022-02-24T10:54:17Z</time>
      </trkpt>
      <trkpt lat="46.09367" lon="5.37845">
        <ele>298.8</ele>
        <time>2022-02-24T10:54:18Z</time>
      </trkpt>
      <trkpt lat="46.09364" lon="5.37841">
        <ele>299.2</ele>
        <time>2022-02-24T10:54:19Z</time>
      </trkpt>
      <trkpt lat="46.09361" lon="5.37838">
        <ele>299.2</ele>
        <time>2022-02-24T10:54:20Z</time>
      </trkpt>
      <trkpt lat="46.09357" lon="5.37835">
        <ele>299.2</ele>
        <time>2022-02-24T10:54:21Z</time>
      </trkpt>
      <trkpt lat="46.09354" lon="5.37833">
        <ele>299.4</ele>
        <time>2022-02-24T10:54:22Z</time>
      </trkpt>
      <trkpt lat="46.09351" lon="5.3783">
        <ele>299.4</ele>
        <time>2022-02-24T10:54:23Z</time>
      </trkpt>
      <trkpt lat="46.09348" lon="5.37827">
        <ele>299.8</ele>
        <time>2022-02-24T10:54:24Z</time>
      </trkpt>
      <trkpt lat="46.09345" lon="5.37825">
        <ele>300</ele>
        <time>2022-02-24T10:54:25Z</time>
      </trkpt>
      <trkpt lat="46.09341" lon="5.37822">
        <ele>300</ele>
        <time>2022-02-24T10:54:26Z</time>
      </trkpt>
      <trkpt lat="46.09338" lon="5.37819">
        <ele>300</ele>
        <time>2022-02-24T10:54:27Z</time>
      </trkpt>
      <trkpt lat="46.09334" lon="5.37816">
        <ele>300.4</ele>
        <time>2022-02-24T10:54:28Z</time>
      </trkpt>
      <trkpt lat="46.0933" lon="5.37814">
        <ele>300.4</ele>
        <time>2022-02-24T10:54:29Z</time>
      </trkpt>
      <trkpt lat="46.09326" lon="5.37812">
        <ele>300.4</ele>
        <time>2022-02-24T10:54:30Z</time>
      </trkpt>
      <trkpt lat="46.09322" lon="5.37809">
        <ele>300.4</ele>
        <time>2022-02-24T10:54:31Z</time>
      </trkpt>
      <trkpt lat="46.09318" lon="5.37807">
        <ele>300.4</ele>
        <time>2022-02-24T10:54:32Z</time>
      </trkpt>
      <trkpt lat="46.09314" lon="5.37804">
        <ele>300.4</ele>
        <time>2022-02-24T10:54:33Z</time>
      </trkpt>
      <trkpt lat="46.09311" lon="5.37801">
        <ele>300.4</ele>
        <time>2022-02-24T10:54:34Z</time>
      </trkpt>
      <trkpt lat="46.09307" lon="5.37799">
        <ele>300.4</ele>
        <time>2022-02-24T10:54:35Z</time>
      </trkpt>
      <trkpt lat="46.09303" lon="5.37797">
        <ele>300.4</ele>
        <time>2022-02-24T10:54:36Z</time>
      </trkpt>
      <trkpt lat="46.093" lon="5.37795">
        <ele>300.6</ele>
        <time>2022-02-24T10:54:37Z</time>
      </trkpt>
      <trkpt lat="46.09296" lon="5.37792">
        <ele>300.6</ele>
        <time>2022-02-24T10:54:38Z</time>
      </trkpt>
      <trkpt lat="46.09293" lon="5.3779">
        <ele>300.6</ele>
        <time>2022-02-24T10:54:39Z</time>
      </trkpt>
      <trkpt lat="46.09289" lon="5.37788">
        <ele>301</ele>
        <time>2022-02-24T10:54:40Z</time>
      </trkpt>
      <trkpt lat="46.09285" lon="5.37786">
        <ele>301</ele>
        <time>2022-02-24T10:54:41Z</time>
      </trkpt>
      <trkpt lat="46.09282" lon="5.37783">
        <ele>301</ele>
        <time>2022-02-24T10:54:42Z</time>
      </trkpt>
      <trkpt lat="46.09278" lon="5.3778">
        <ele>301</ele>
        <time>2022-02-24T10:54:43Z</time>
      </trkpt>
      <trkpt lat="46.09274" lon="5.37778">
        <ele>301</ele>
        <time>2022-02-24T10:54:44Z</time>
      </trkpt>
      <trkpt lat="46.0927" lon="5.37776">
        <ele>301.4</ele>
        <time>2022-02-24T10:54:45Z</time>
      </trkpt>
      <trkpt lat="46.09266" lon="5.37774">
        <ele>301.4</ele>
        <time>2022-02-24T10:54:46Z</time>
      </trkpt>
      <trkpt lat="46.09262" lon="5.37772">
        <ele>301.4</ele>
        <time>2022-02-24T10:54:47Z</time>
      </trkpt>
      <trkpt lat="46.09257" lon="5.37769">
        <ele>301.4</ele>
        <time>2022-02-24T10:54:48Z</time>
      </trkpt>
      <trkpt lat="46.09253" lon="5.37767">
        <ele>301.4</ele>
        <time>2022-02-24T10:54:49Z</time>
      </trkpt>
      <trkpt lat="46.09249" lon="5.37765">
        <ele>301.2</ele>
        <time>2022-02-24T10:54:50Z</time>
      </trkpt>
      <trkpt lat="46.09244" lon="5.37762">
        <ele>301.2</ele>
        <time>2022-02-24T10:54:51Z</time>
      </trkpt>
      <trkpt lat="46.0924" lon="5.3776">
        <ele>301.2</ele>
        <time>2022-02-24T10:54:52Z</time>
      </trkpt>
      <trkpt lat="46.09236" lon="5.37758">
        <ele>301.2</ele>
        <time>2022-02-24T10:54:53Z</time>
      </trkpt>
      <trkpt lat="46.09232" lon="5.37756">
        <ele>301.2</ele>
        <time>2022-02-24T10:54:54Z</time>
      </trkpt>
      <trkpt lat="46.09227" lon="5.37754">
        <ele>301.2</ele>
        <time>2022-02-24T10:54:55Z</time>
      </trkpt>
      <trkpt lat="46.09223" lon="5.37752">
        <ele>301.2</ele>
        <time>2022-02-24T10:54:56Z</time>
      </trkpt>
      <trkpt lat="46.09219" lon="5.37751">
        <ele>301.2</ele>
        <time>2022-02-24T10:54:57Z</time>
      </trkpt>
      <trkpt lat="46.09215" lon="5.3775">
        <ele>301.2</ele>
        <time>2022-02-24T10:54:58Z</time>
      </trkpt>
      <trkpt lat="46.09211" lon="5.37749">
        <ele>301.2</ele>
        <time>2022-02-24T10:54:59Z</time>
      </trkpt>
      <trkpt lat="46.09206" lon="5.37749">
        <ele>301.2</ele>
        <time>2022-02-24T10:55:00Z</time>
      </trkpt>
      <trkpt lat="46.09202" lon="5.37747">
        <ele>301.2</ele>
        <time>2022-02-24T10:55:01Z</time>
      </trkpt>
      <trkpt lat="46.09198" lon="5.37745">
        <ele>301.2</ele>
        <time>2022-02-24T10:55:02Z</time>
      </trkpt>
      <trkpt lat="46.09193" lon="5.37743">
        <ele>301.2</ele>
        <time>2022-02-24T10:55:03Z</time>
      </trkpt>
      <trkpt lat="46.09188" lon="5.3774">
        <ele>300.8</ele>
        <time>2022-02-24T10:55:04Z</time>
      </trkpt>
      <trkpt lat="46.09182" lon="5.37737">
        <ele>300.6</ele>
        <time>2022-02-24T10:55:05Z</time>
      </trkpt>
      <trkpt lat="46.09176" lon="5.37734">
        <ele>300.4</ele>
        <time>2022-02-24T10:55:06Z</time>
      </trkpt>
      <trkpt lat="46.0917" lon="5.3773">
        <ele>300</ele>
        <time>2022-02-24T10:55:07Z</time>
      </trkpt>
      <trkpt lat="46.09163" lon="5.37724">
        <ele>299.8</ele>
        <time>2022-02-24T10:55:08Z</time>
      </trkpt>
      <trkpt lat="46.09157" lon="5.37718">
        <ele>299.4</ele>
        <time>2022-02-24T10:55:09Z</time>
      </trkpt>
      <trkpt lat="46.09151" lon="5.37711">
        <ele>299.2</ele>
        <time>2022-02-24T10:55:10Z</time>
      </trkpt>
      <trkpt lat="46.09146" lon="5.37703">
        <ele>299.2</ele>
        <time>2022-02-24T10:55:11Z</time>
      </trkpt>
      <trkpt lat="46.09141" lon="5.37695">
        <ele>299</ele>
        <time>2022-02-24T10:55:12Z</time>
      </trkpt>
      <trkpt lat="46.09136" lon="5.37688">
        <ele>299</ele>
        <time>2022-02-24T10:55:13Z</time>
      </trkpt>
      <trkpt lat="46.09132" lon="5.3768">
        <ele>299</ele>
        <time>2022-02-24T10:55:14Z</time>
      </trkpt>
      <trkpt lat="46.09127" lon="5.37673">
        <ele>298.6</ele>
        <time>2022-02-24T10:55:15Z</time>
      </trkpt>
      <trkpt lat="46.09122" lon="5.37665">
        <ele>298.6</ele>
        <time>2022-02-24T10:55:16Z</time>
      </trkpt>
      <trkpt lat="46.09117" lon="5.37657">
        <ele>298.4</ele>
        <time>2022-02-24T10:55:17Z</time>
      </trkpt>
      <trkpt lat="46.09112" lon="5.37649">
        <ele>298.4</ele>
        <time>2022-02-24T10:55:18Z</time>
      </trkpt>
      <trkpt lat="46.09107" lon="5.37641">
        <ele>298</ele>
        <time>2022-02-24T10:55:19Z</time>
      </trkpt>
      <trkpt lat="46.09101" lon="5.37632">
        <ele>297.6</ele>
        <time>2022-02-24T10:55:20Z</time>
      </trkpt>
      <trkpt lat="46.09096" lon="5.37623">
        <ele>297.4</ele>
        <time>2022-02-24T10:55:21Z</time>
      </trkpt>
      <trkpt lat="46.09091" lon="5.37614">
        <ele>297.2</ele>
        <time>2022-02-24T10:55:22Z</time>
      </trkpt>
      <trkpt lat="46.09086" lon="5.37604">
        <ele>296.8</ele>
        <time>2022-02-24T10:55:23Z</time>
      </trkpt>
      <trkpt lat="46.09082" lon="5.37594">
        <ele>296.6</ele>
        <time>2022-02-24T10:55:24Z</time>
      </trkpt>
      <trkpt lat="46.09078" lon="5.37585">
        <ele>296.6</ele>
        <time>2022-02-24T10:55:25Z</time>
      </trkpt>
      <trkpt lat="46.09075" lon="5.37576">
        <ele>296.4</ele>
        <time>2022-02-24T10:55:26Z</time>
      </trkpt>
      <trkpt lat="46.09071" lon="5.37567">
        <ele>296.4</ele>
        <time>2022-02-24T10:55:27Z</time>
      </trkpt>
      <trkpt lat="46.09068" lon="5.3756">
        <ele>296.4</ele>
        <time>2022-02-24T10:55:28Z</time>
      </trkpt>
      <trkpt lat="46.09063" lon="5.37553">
        <ele>296.4</ele>
        <time>2022-02-24T10:55:29Z</time>
      </trkpt>
      <trkpt lat="46.09059" lon="5.37546">
        <ele>296.4</ele>
        <time>2022-02-24T10:55:30Z</time>
      </trkpt>
      <trkpt lat="46.09054" lon="5.37539">
        <ele>296.4</ele>
        <time>2022-02-24T10:55:31Z</time>
      </trkpt>
      <trkpt lat="46.0905" lon="5.37533">
        <ele>296.6</ele>
        <time>2022-02-24T10:55:32Z</time>
      </trkpt>
      <trkpt lat="46.09046" lon="5.37527">
        <ele>296.6</ele>
        <time>2022-02-24T10:55:33Z</time>
      </trkpt>
      <trkpt lat="46.09042" lon="5.37522">
        <ele>297</ele>
        <time>2022-02-24T10:55:34Z</time>
      </trkpt>
      <trkpt lat="46.09038" lon="5.37517">
        <ele>297</ele>
        <time>2022-02-24T10:55:35Z</time>
      </trkpt>
      <trkpt lat="46.09035" lon="5.37513">
        <ele>297.4</ele>
        <time>2022-02-24T10:55:36Z</time>
      </trkpt>
      <trkpt lat="46.09031" lon="5.37509">
        <ele>297.4</ele>
        <time>2022-02-24T10:55:37Z</time>
      </trkpt>
      <trkpt lat="46.09027" lon="5.37506">
        <ele>297.6</ele>
        <time>2022-02-24T10:55:38Z</time>
      </trkpt>
      <trkpt lat="46.09022" lon="5.37502">
        <ele>297.6</ele>
        <time>2022-02-24T10:55:39Z</time>
      </trkpt>
      <trkpt lat="46.09016" lon="5.37498">
        <ele>297.6</ele>
        <time>2022-02-24T10:55:40Z</time>
      </trkpt>
      <trkpt lat="46.09014" lon="5.37496">
        <ele>297.6</ele>
        <time>2022-02-24T10:55:41Z</time>
      </trkpt>
      <trkpt lat="46.09009" lon="5.37493">
        <ele>297.6</ele>
        <time>2022-02-24T10:55:42Z</time>
      </trkpt>
      <trkpt lat="46.09004" lon="5.3749">
        <ele>297.8</ele>
        <time>2022-02-24T10:55:43Z</time>
      </trkpt>
      <trkpt lat="46.08999" lon="5.37487">
        <ele>297.8</ele>
        <time>2022-02-24T10:55:44Z</time>
      </trkpt>
      <trkpt lat="46.08994" lon="5.37483">
        <ele>297.8</ele>
        <time>2022-02-24T10:55:45Z</time>
      </trkpt>
      <trkpt lat="46.08989" lon="5.3748">
        <ele>297.8</ele>
        <time>2022-02-24T10:55:46Z</time>
      </trkpt>
      <trkpt lat="46.08984" lon="5.37477">
        <ele>297.8</ele>
        <time>2022-02-24T10:55:47Z</time>
      </trkpt>
      <trkpt lat="46.08978" lon="5.37474">
        <ele>297.8</ele>
        <time>2022-02-24T10:55:48Z</time>
      </trkpt>
      <trkpt lat="46.08973" lon="5.37471">
        <ele>297.8</ele>
        <time>2022-02-24T10:55:49Z</time>
      </trkpt>
      <trkpt lat="46.08967" lon="5.37467">
        <ele>297.8</ele>
        <time>2022-02-24T10:55:50Z</time>
      </trkpt>
      <trkpt lat="46.08963" lon="5.37463">
        <ele>297.8</ele>
        <time>2022-02-24T10:55:51Z</time>
      </trkpt>
      <trkpt lat="46.08958" lon="5.37459">
        <ele>297.8</ele>
        <time>2022-02-24T10:55:52Z</time>
      </trkpt>
      <trkpt lat="46.08953" lon="5.37454">
        <ele>297.8</ele>
        <time>2022-02-24T10:55:53Z</time>
      </trkpt>
      <trkpt lat="46.08945" lon="5.37447">
        <ele>297.8</ele>
        <time>2022-02-24T10:55:54Z</time>
      </trkpt>
      <trkpt lat="46.08943" lon="5.37444">
        <ele>297.8</ele>
        <time>2022-02-24T10:55:55Z</time>
      </trkpt>
      <trkpt lat="46.08939" lon="5.37439">
        <ele>297.8</ele>
        <time>2022-02-24T10:55:56Z</time>
      </trkpt>
      <trkpt lat="46.08935" lon="5.37434">
        <ele>297.8</ele>
        <time>2022-02-24T10:55:57Z</time>
      </trkpt>
      <trkpt lat="46.08931" lon="5.37428">
        <ele>297.8</ele>
        <time>2022-02-24T10:55:58Z</time>
      </trkpt>
      <trkpt lat="46.08927" lon="5.37422">
        <ele>297.8</ele>
        <time>2022-02-24T10:55:59Z</time>
      </trkpt>
      <trkpt lat="46.08923" lon="5.37416">
        <ele>298</ele>
        <time>2022-02-24T10:56:00Z</time>
      </trkpt>
      <trkpt lat="46.08919" lon="5.37409">
        <ele>298</ele>
        <time>2022-02-24T10:56:01Z</time>
      </trkpt>
      <trkpt lat="46.08916" lon="5.37402">
        <ele>298.4</ele>
        <time>2022-02-24T10:56:02Z</time>
      </trkpt>
      <trkpt lat="46.08913" lon="5.37395">
        <ele>298.4</ele>
        <time>2022-02-24T10:56:03Z</time>
      </trkpt>
      <trkpt lat="46.0891" lon="5.37388">
        <ele>298.6</ele>
        <time>2022-02-24T10:56:04Z</time>
      </trkpt>
      <trkpt lat="46.08907" lon="5.37382">
        <ele>298.6</ele>
        <time>2022-02-24T10:56:05Z</time>
      </trkpt>
      <trkpt lat="46.08905" lon="5.37375">
        <ele>298.8</ele>
        <time>2022-02-24T10:56:06Z</time>
      </trkpt>
      <trkpt lat="46.08905" lon="5.37375">
        <ele>298.8</ele>
        <time>2022-02-24T10:56:07Z</time>
      </trkpt>
      <trkpt lat="46.08902" lon="5.37367">
        <ele>299.2</ele>
        <time>2022-02-24T10:56:08Z</time>
      </trkpt>
      <trkpt lat="46.089" lon="5.3736">
        <ele>299.2</ele>
        <time>2022-02-24T10:56:09Z</time>
      </trkpt>
      <trkpt lat="46.08898" lon="5.37353">
        <ele>299.4</ele>
        <time>2022-02-24T10:56:10Z</time>
      </trkpt>
      <trkpt lat="46.08896" lon="5.37346">
        <ele>299.4</ele>
        <time>2022-02-24T10:56:11Z</time>
      </trkpt>
      <trkpt lat="46.08893" lon="5.37339">
        <ele>299.6</ele>
        <time>2022-02-24T10:56:12Z</time>
      </trkpt>
      <trkpt lat="46.08891" lon="5.37332">
        <ele>299.6</ele>
        <time>2022-02-24T10:56:13Z</time>
      </trkpt>
      <trkpt lat="46.08889" lon="5.37325">
        <ele>299.6</ele>
        <time>2022-02-24T10:56:14Z</time>
      </trkpt>
      <trkpt lat="46.08887" lon="5.37319">
        <ele>299.8</ele>
        <time>2022-02-24T10:56:15Z</time>
      </trkpt>
      <trkpt lat="46.08885" lon="5.37313">
        <ele>299.8</ele>
        <time>2022-02-24T10:56:16Z</time>
      </trkpt>
      <trkpt lat="46.08882" lon="5.37306">
        <ele>300.2</ele>
        <time>2022-02-24T10:56:17Z</time>
      </trkpt>
      <trkpt lat="46.08879" lon="5.373">
        <ele>300.2</ele>
        <time>2022-02-24T10:56:18Z</time>
      </trkpt>
      <trkpt lat="46.08877" lon="5.37294">
        <ele>300.4</ele>
        <time>2022-02-24T10:56:19Z</time>
      </trkpt>
      <trkpt lat="46.08874" lon="5.37288">
        <ele>300.4</ele>
        <time>2022-02-24T10:56:20Z</time>
      </trkpt>
      <trkpt lat="46.08871" lon="5.37281">
        <ele>300.8</ele>
        <time>2022-02-24T10:56:21Z</time>
      </trkpt>
      <trkpt lat="46.08868" lon="5.37276">
        <ele>300.8</ele>
        <time>2022-02-24T10:56:22Z</time>
      </trkpt>
      <trkpt lat="46.08865" lon="5.3727">
        <ele>301</ele>
        <time>2022-02-24T10:56:23Z</time>
      </trkpt>
      <trkpt lat="46.08862" lon="5.37265">
        <ele>301</ele>
        <time>2022-02-24T10:56:24Z</time>
      </trkpt>
      <trkpt lat="46.08859" lon="5.3726">
        <ele>301.4</ele>
        <time>2022-02-24T10:56:25Z</time>
      </trkpt>
      <trkpt lat="46.08855" lon="5.37254">
        <ele>301.4</ele>
        <time>2022-02-24T10:56:26Z</time>
      </trkpt>
      <trkpt lat="46.08851" lon="5.37249">
        <ele>301.4</ele>
        <time>2022-02-24T10:56:27Z</time>
      </trkpt>
      <trkpt lat="46.08847" lon="5.37245">
        <ele>301.6</ele>
        <time>2022-02-24T10:56:28Z</time>
      </trkpt>
      <trkpt lat="46.08844" lon="5.37241">
        <ele>301.6</ele>
        <time>2022-02-24T10:56:29Z</time>
      </trkpt>
      <trkpt lat="46.0884" lon="5.37236">
        <ele>301.6</ele>
        <time>2022-02-24T10:56:30Z</time>
      </trkpt>
      <trkpt lat="46.08835" lon="5.37233">
        <ele>302</ele>
        <time>2022-02-24T10:56:31Z</time>
      </trkpt>
      <trkpt lat="46.08831" lon="5.37229">
        <ele>302</ele>
        <time>2022-02-24T10:56:32Z</time>
      </trkpt>
      <trkpt lat="46.08827" lon="5.37225">
        <ele>302</ele>
        <time>2022-02-24T10:56:33Z</time>
      </trkpt>
      <trkpt lat="46.08823" lon="5.37222">
        <ele>302</ele>
        <time>2022-02-24T10:56:34Z</time>
      </trkpt>
      <trkpt lat="46.08819" lon="5.37219">
        <ele>302.2</ele>
        <time>2022-02-24T10:56:35Z</time>
      </trkpt>
      <trkpt lat="46.08815" lon="5.37216">
        <ele>302.2</ele>
        <time>2022-02-24T10:56:36Z</time>
      </trkpt>
      <trkpt lat="46.08811" lon="5.37213">
        <ele>302.2</ele>
        <time>2022-02-24T10:56:37Z</time>
      </trkpt>
      <trkpt lat="46.08806" lon="5.37211">
        <ele>302.2</ele>
        <time>2022-02-24T10:56:38Z</time>
      </trkpt>
      <trkpt lat="46.08802" lon="5.37208">
        <ele>302.6</ele>
        <time>2022-02-24T10:56:39Z</time>
      </trkpt>
      <trkpt lat="46.08797" lon="5.37207">
        <ele>302.6</ele>
        <time>2022-02-24T10:56:40Z</time>
      </trkpt>
      <trkpt lat="46.08793" lon="5.37205">
        <ele>302.8</ele>
        <time>2022-02-24T10:56:41Z</time>
      </trkpt>
      <trkpt lat="46.08789" lon="5.37204">
        <ele>302.8</ele>
        <time>2022-02-24T10:56:42Z</time>
      </trkpt>
      <trkpt lat="46.08785" lon="5.37203">
        <ele>303</ele>
        <time>2022-02-24T10:56:43Z</time>
      </trkpt>
      <trkpt lat="46.0878" lon="5.37203">
        <ele>303.4</ele>
        <time>2022-02-24T10:56:44Z</time>
      </trkpt>
      <trkpt lat="46.08776" lon="5.37202">
        <ele>303.4</ele>
        <time>2022-02-24T10:56:45Z</time>
      </trkpt>
      <trkpt lat="46.08771" lon="5.37201">
        <ele>303.4</ele>
        <time>2022-02-24T10:56:46Z</time>
      </trkpt>
      <trkpt lat="46.08767" lon="5.37202">
        <ele>303.6</ele>
        <time>2022-02-24T10:56:47Z</time>
      </trkpt>
      <trkpt lat="46.08762" lon="5.37202">
        <ele>303.6</ele>
        <time>2022-02-24T10:56:48Z</time>
      </trkpt>
      <trkpt lat="46.08757" lon="5.37203">
        <ele>303.6</ele>
        <time>2022-02-24T10:56:49Z</time>
      </trkpt>
      <trkpt lat="46.08752" lon="5.37203">
        <ele>303.6</ele>
        <time>2022-02-24T10:56:50Z</time>
      </trkpt>
      <trkpt lat="46.08747" lon="5.37203">
        <ele>303.6</ele>
        <time>2022-02-24T10:56:51Z</time>
      </trkpt>
      <trkpt lat="46.08742" lon="5.37203">
        <ele>303.6</ele>
        <time>2022-02-24T10:56:52Z</time>
      </trkpt>
      <trkpt lat="46.08737" lon="5.37203">
        <ele>303.6</ele>
        <time>2022-02-24T10:56:53Z</time>
      </trkpt>
      <trkpt lat="46.08732" lon="5.37203">
        <ele>303.6</ele>
        <time>2022-02-24T10:56:54Z</time>
      </trkpt>
      <trkpt lat="46.08727" lon="5.37202">
        <ele>303.6</ele>
        <time>2022-02-24T10:56:55Z</time>
      </trkpt>
      <trkpt lat="46.08722" lon="5.37202">
        <ele>303.6</ele>
        <time>2022-02-24T10:56:56Z</time>
      </trkpt>
      <trkpt lat="46.08717" lon="5.37202">
        <ele>303.6</ele>
        <time>2022-02-24T10:56:57Z</time>
      </trkpt>
      <trkpt lat="46.08711" lon="5.37201">
        <ele>303.6</ele>
        <time>2022-02-24T10:56:58Z</time>
      </trkpt>
      <trkpt lat="46.08706" lon="5.37201">
        <ele>303.6</ele>
        <time>2022-02-24T10:56:59Z</time>
      </trkpt>
      <trkpt lat="46.087" lon="5.37201">
        <ele>303.6</ele>
        <time>2022-02-24T10:57:00Z</time>
      </trkpt>
      <trkpt lat="46.08695" lon="5.372">
        <ele>303.4</ele>
        <time>2022-02-24T10:57:01Z</time>
      </trkpt>
      <trkpt lat="46.08689" lon="5.37199">
        <ele>303.4</ele>
        <time>2022-02-24T10:57:02Z</time>
      </trkpt>
      <trkpt lat="46.08683" lon="5.37199">
        <ele>303.2</ele>
        <time>2022-02-24T10:57:03Z</time>
      </trkpt>
      <trkpt lat="46.08677" lon="5.37198">
        <ele>303.2</ele>
        <time>2022-02-24T10:57:04Z</time>
      </trkpt>
      <trkpt lat="46.0867" lon="5.37197">
        <ele>302.8</ele>
        <time>2022-02-24T10:57:05Z</time>
      </trkpt>
      <trkpt lat="46.08664" lon="5.37196">
        <ele>302.8</ele>
        <time>2022-02-24T10:57:06Z</time>
      </trkpt>
      <trkpt lat="46.08657" lon="5.37194">
        <ele>302.2</ele>
        <time>2022-02-24T10:57:07Z</time>
      </trkpt>
      <trkpt lat="46.0865" lon="5.37192">
        <ele>302</ele>
        <time>2022-02-24T10:57:08Z</time>
      </trkpt>
      <trkpt lat="46.08643" lon="5.37189">
        <ele>301.8</ele>
        <time>2022-02-24T10:57:09Z</time>
      </trkpt>
      <trkpt lat="46.08636" lon="5.37187">
        <ele>301.6</ele>
        <time>2022-02-24T10:57:10Z</time>
      </trkpt>
      <trkpt lat="46.08629" lon="5.37184">
        <ele>301.2</ele>
        <time>2022-02-24T10:57:11Z</time>
      </trkpt>
      <trkpt lat="46.08622" lon="5.37181">
        <ele>301</ele>
        <time>2022-02-24T10:57:12Z</time>
      </trkpt>
      <trkpt lat="46.08614" lon="5.37178">
        <ele>300.6</ele>
        <time>2022-02-24T10:57:13Z</time>
      </trkpt>
      <trkpt lat="46.08606" lon="5.37175">
        <ele>300.2</ele>
        <time>2022-02-24T10:57:14Z</time>
      </trkpt>
      <trkpt lat="46.08599" lon="5.37172">
        <ele>299.8</ele>
        <time>2022-02-24T10:57:15Z</time>
      </trkpt>
      <trkpt lat="46.08591" lon="5.37168">
        <ele>299.4</ele>
        <time>2022-02-24T10:57:16Z</time>
      </trkpt>
      <trkpt lat="46.08583" lon="5.37164">
        <ele>299.2</ele>
        <time>2022-02-24T10:57:17Z</time>
      </trkpt>
      <trkpt lat="46.08575" lon="5.3716">
        <ele>298.6</ele>
        <time>2022-02-24T10:57:18Z</time>
      </trkpt>
      <trkpt lat="46.08567" lon="5.37155">
        <ele>298</ele>
        <time>2022-02-24T10:57:19Z</time>
      </trkpt>
      <trkpt lat="46.08559" lon="5.37151">
        <ele>297.4</ele>
        <time>2022-02-24T10:57:20Z</time>
      </trkpt>
      <trkpt lat="46.08549" lon="5.37146">
        <ele>296.6</ele>
        <time>2022-02-24T10:57:21Z</time>
      </trkpt>
      <trkpt lat="46.08538" lon="5.37142">
        <ele>295.8</ele>
        <time>2022-02-24T10:57:22Z</time>
      </trkpt>
      <trkpt lat="46.08529" lon="5.37139">
        <ele>294.8</ele>
        <time>2022-02-24T10:57:23Z</time>
      </trkpt>
      <trkpt lat="46.08517" lon="5.37136">
        <ele>294</ele>
        <time>2022-02-24T10:57:24Z</time>
      </trkpt>
      <trkpt lat="46.08506" lon="5.37134">
        <ele>293.2</ele>
        <time>2022-02-24T10:57:25Z</time>
      </trkpt>
      <trkpt lat="46.08496" lon="5.37136">
        <ele>292.2</ele>
        <time>2022-02-24T10:57:26Z</time>
      </trkpt>
      <trkpt lat="46.08484" lon="5.37137">
        <ele>291.6</ele>
        <time>2022-02-24T10:57:27Z</time>
      </trkpt>
      <trkpt lat="46.08473" lon="5.37139">
        <ele>290.8</ele>
        <time>2022-02-24T10:57:28Z</time>
      </trkpt>
      <trkpt lat="46.08461" lon="5.3714">
        <ele>290</ele>
        <time>2022-02-24T10:57:29Z</time>
      </trkpt>
      <trkpt lat="46.0845" lon="5.37139">
        <ele>289.4</ele>
        <time>2022-02-24T10:57:30Z</time>
      </trkpt>
      <trkpt lat="46.08438" lon="5.37135">
        <ele>289</ele>
        <time>2022-02-24T10:57:31Z</time>
      </trkpt>
      <trkpt lat="46.08427" lon="5.3713">
        <ele>288.4</ele>
        <time>2022-02-24T10:57:32Z</time>
      </trkpt>
      <trkpt lat="46.08417" lon="5.37123">
        <ele>288</ele>
        <time>2022-02-24T10:57:33Z</time>
      </trkpt>
      <trkpt lat="46.08406" lon="5.37119">
        <ele>287.6</ele>
        <time>2022-02-24T10:57:34Z</time>
      </trkpt>
      <trkpt lat="46.08395" lon="5.37117">
        <ele>287.2</ele>
        <time>2022-02-24T10:57:35Z</time>
      </trkpt>
      <trkpt lat="46.08385" lon="5.37115">
        <ele>286.8</ele>
        <time>2022-02-24T10:57:36Z</time>
      </trkpt>
      <trkpt lat="46.08376" lon="5.37112">
        <ele>286.4</ele>
        <time>2022-02-24T10:57:37Z</time>
      </trkpt>
      <trkpt lat="46.08367" lon="5.37111">
        <ele>286.2</ele>
        <time>2022-02-24T10:57:38Z</time>
      </trkpt>
      <trkpt lat="46.08358" lon="5.37111">
        <ele>285.8</ele>
        <time>2022-02-24T10:57:39Z</time>
      </trkpt>
      <trkpt lat="46.08351" lon="5.37113">
        <ele>285.6</ele>
        <time>2022-02-24T10:57:40Z</time>
      </trkpt>
      <trkpt lat="46.08343" lon="5.37115">
        <ele>285.6</ele>
        <time>2022-02-24T10:57:41Z</time>
      </trkpt>
      <trkpt lat="46.08329" lon="5.37118">
        <ele>285.2</ele>
        <time>2022-02-24T10:57:42Z</time>
      </trkpt>
      <trkpt lat="46.08316" lon="5.37121">
        <ele>285</ele>
        <time>2022-02-24T10:57:43Z</time>
      </trkpt>
      <trkpt lat="46.08306" lon="5.37123">
        <ele>285</ele>
        <time>2022-02-24T10:57:44Z</time>
      </trkpt>
      <trkpt lat="46.08303" lon="5.37124">
        <ele>284.6</ele>
        <time>2022-02-24T10:57:45Z</time>
      </trkpt>
      <trkpt lat="46.08296" lon="5.37125">
        <ele>284.6</ele>
        <time>2022-02-24T10:57:46Z</time>
      </trkpt>
      <trkpt lat="46.08289" lon="5.37127">
        <ele>284.4</ele>
        <time>2022-02-24T10:57:47Z</time>
      </trkpt>
      <trkpt lat="46.08282" lon="5.37129">
        <ele>284.2</ele>
        <time>2022-02-24T10:57:48Z</time>
      </trkpt>
      <trkpt lat="46.08274" lon="5.37132">
        <ele>284</ele>
        <time>2022-02-24T10:57:49Z</time>
      </trkpt>
      <trkpt lat="46.08272" lon="5.37132">
        <ele>283.6</ele>
        <time>2022-02-24T10:57:50Z</time>
      </trkpt>
      <trkpt lat="46.08265" lon="5.37136">
        <ele>283.4</ele>
        <time>2022-02-24T10:57:51Z</time>
      </trkpt>
      <trkpt lat="46.08262" lon="5.37137">
        <ele>283</ele>
        <time>2022-02-24T10:57:52Z</time>
      </trkpt>
      <trkpt lat="46.08255" lon="5.37139">
        <ele>282.6</ele>
        <time>2022-02-24T10:57:53Z</time>
      </trkpt>
      <trkpt lat="46.08248" lon="5.37141">
        <ele>282.2</ele>
        <time>2022-02-24T10:57:54Z</time>
      </trkpt>
      <trkpt lat="46.08243" lon="5.37143">
        <ele>282</ele>
        <time>2022-02-24T10:57:55Z</time>
      </trkpt>
      <trkpt lat="46.08234" lon="5.37147">
        <ele>281.6</ele>
        <time>2022-02-24T10:57:56Z</time>
      </trkpt>
      <trkpt lat="46.08231" lon="5.37148">
        <ele>281.4</ele>
        <time>2022-02-24T10:57:57Z</time>
      </trkpt>
      <trkpt lat="46.08226" lon="5.3715">
        <ele>281.4</ele>
        <time>2022-02-24T10:57:58Z</time>
      </trkpt>
      <trkpt lat="46.08218" lon="5.37154">
        <ele>281.2</ele>
        <time>2022-02-24T10:57:59Z</time>
      </trkpt>
      <trkpt lat="46.08215" lon="5.37155">
        <ele>281.2</ele>
        <time>2022-02-24T10:58:00Z</time>
      </trkpt>
      <trkpt lat="46.08209" lon="5.37156">
        <ele>280.8</ele>
        <time>2022-02-24T10:58:01Z</time>
      </trkpt>
      <trkpt lat="46.08204" lon="5.37158">
        <ele>280.6</ele>
        <time>2022-02-24T10:58:02Z</time>
      </trkpt>
      <trkpt lat="46.08196" lon="5.37158">
        <ele>280.6</ele>
        <time>2022-02-24T10:58:03Z</time>
      </trkpt>
      <trkpt lat="46.08194" lon="5.37157">
        <ele>280.4</ele>
        <time>2022-02-24T10:58:04Z</time>
      </trkpt>
      <trkpt lat="46.08188" lon="5.37156">
        <ele>280.4</ele>
        <time>2022-02-24T10:58:05Z</time>
      </trkpt>
      <trkpt lat="46.08183" lon="5.37154">
        <ele>280.4</ele>
        <time>2022-02-24T10:58:06Z</time>
      </trkpt>
      <trkpt lat="46.08175" lon="5.37153">
        <ele>280.2</ele>
        <time>2022-02-24T10:58:07Z</time>
      </trkpt>
      <trkpt lat="46.08172" lon="5.37153">
        <ele>280.2</ele>
        <time>2022-02-24T10:58:08Z</time>
      </trkpt>
      <trkpt lat="46.08166" lon="5.37154">
        <ele>280.2</ele>
        <time>2022-02-24T10:58:09Z</time>
      </trkpt>
      <trkpt lat="46.08162" lon="5.37154">
        <ele>280.2</ele>
        <time>2022-02-24T10:58:10Z</time>
      </trkpt>
      <trkpt lat="46.08158" lon="5.37155">
        <ele>279.8</ele>
        <time>2022-02-24T10:58:11Z</time>
      </trkpt>
      <trkpt lat="46.08153" lon="5.37156">
        <ele>279.8</ele>
        <time>2022-02-24T10:58:12Z</time>
      </trkpt>
      <trkpt lat="46.0815" lon="5.37163">
        <ele>279.6</ele>
        <time>2022-02-24T10:58:13Z</time>
      </trkpt>
      <trkpt lat="46.08148" lon="5.37166">
        <ele>279.4</ele>
        <time>2022-02-24T10:58:14Z</time>
      </trkpt>
      <trkpt lat="46.08147" lon="5.37173">
        <ele>279</ele>
        <time>2022-02-24T10:58:15Z</time>
      </trkpt>
      <trkpt lat="46.08145" lon="5.37184">
        <ele>278.6</ele>
        <time>2022-02-24T10:58:16Z</time>
      </trkpt>
      <trkpt lat="46.08144" lon="5.37188">
        <ele>278</ele>
        <time>2022-02-24T10:58:17Z</time>
      </trkpt>
      <trkpt lat="46.08143" lon="5.37195">
        <ele>277.4</ele>
        <time>2022-02-24T10:58:18Z</time>
      </trkpt>
      <trkpt lat="46.08141" lon="5.37204">
        <ele>277</ele>
        <time>2022-02-24T10:58:19Z</time>
      </trkpt>
      <trkpt lat="46.08141" lon="5.37207">
        <ele>276.6</ele>
        <time>2022-02-24T10:58:20Z</time>
      </trkpt>
      <trkpt lat="46.08141" lon="5.37214">
        <ele>276.2</ele>
        <time>2022-02-24T10:58:21Z</time>
      </trkpt>
      <trkpt lat="46.08141" lon="5.37216">
        <ele>275.8</ele>
        <time>2022-02-24T10:58:22Z</time>
      </trkpt>
      <trkpt lat="46.08141" lon="5.3722">
        <ele>275.6</ele>
        <time>2022-02-24T10:58:23Z</time>
      </trkpt>
      <trkpt lat="46.08141" lon="5.37224">
        <ele>275.2</ele>
        <time>2022-02-24T10:58:24Z</time>
      </trkpt>
      <trkpt lat="46.08141" lon="5.37228">
        <ele>274.8</ele>
        <time>2022-02-24T10:58:25Z</time>
      </trkpt>
      <trkpt lat="46.0814" lon="5.37231">
        <ele>274.8</ele>
        <time>2022-02-24T10:58:26Z</time>
      </trkpt>
      <trkpt lat="46.08139" lon="5.37234">
        <ele>274.6</ele>
        <time>2022-02-24T10:58:27Z</time>
      </trkpt>
      <trkpt lat="46.08139" lon="5.37234">
        <ele>274.6</ele>
        <time>2022-02-24T10:58:28Z</time>
      </trkpt>
      <trkpt lat="46.08139" lon="5.37235">
        <ele>274.4</ele>
        <time>2022-02-24T10:58:29Z</time>
      </trkpt>
      <trkpt lat="46.08136" lon="5.37236">
        <ele>274.4</ele>
        <time>2022-02-24T10:58:32Z</time>
      </trkpt>
      <trkpt lat="46.08133" lon="5.37236">
        <ele>274</ele>
        <time>2022-02-24T10:58:33Z</time>
      </trkpt>
      <trkpt lat="46.08128" lon="5.37235">
        <ele>273.8</ele>
        <time>2022-02-24T10:58:34Z</time>
      </trkpt>
      <trkpt lat="46.08127" lon="5.37234">
        <ele>273.6</ele>
        <time>2022-02-24T10:58:35Z</time>
      </trkpt>
      <trkpt lat="46.0812" lon="5.37233">
        <ele>273.2</ele>
        <time>2022-02-24T10:58:36Z</time>
      </trkpt>
      <trkpt lat="46.08117" lon="5.37233">
        <ele>272.8</ele>
        <time>2022-02-24T10:58:37Z</time>
      </trkpt>
      <trkpt lat="46.08112" lon="5.37231">
        <ele>272.6</ele>
        <time>2022-02-24T10:58:38Z</time>
      </trkpt>
      <trkpt lat="46.08106" lon="5.3723">
        <ele>272.2</ele>
        <time>2022-02-24T10:58:39Z</time>
      </trkpt>
      <trkpt lat="46.081" lon="5.3723">
        <ele>271.6</ele>
        <time>2022-02-24T10:58:40Z</time>
      </trkpt>
      <trkpt lat="46.08092" lon="5.37232">
        <ele>271</ele>
        <time>2022-02-24T10:58:41Z</time>
      </trkpt>
      <trkpt lat="46.08081" lon="5.37234">
        <ele>270.4</ele>
        <time>2022-02-24T10:58:42Z</time>
      </trkpt>
      <trkpt lat="46.08077" lon="5.37235">
        <ele>269.8</ele>
        <time>2022-02-24T10:58:43Z</time>
      </trkpt>
      <trkpt lat="46.08069" lon="5.37236">
        <ele>269.2</ele>
        <time>2022-02-24T10:58:44Z</time>
      </trkpt>
      <trkpt lat="46.08055" lon="5.37238">
        <ele>268.6</ele>
        <time>2022-02-24T10:58:45Z</time>
      </trkpt>
      <trkpt lat="46.0805" lon="5.37239">
        <ele>267.8</ele>
        <time>2022-02-24T10:58:46Z</time>
      </trkpt>
      <trkpt lat="46.08035" lon="5.37239">
        <ele>267.2</ele>
        <time>2022-02-24T10:58:47Z</time>
      </trkpt>
      <trkpt lat="46.0803" lon="5.37239">
        <ele>266.8</ele>
        <time>2022-02-24T10:58:48Z</time>
      </trkpt>
      <trkpt lat="46.0802" lon="5.37238">
        <ele>266.4</ele>
        <time>2022-02-24T10:58:49Z</time>
      </trkpt>
      <trkpt lat="46.0801" lon="5.37234">
        <ele>266</ele>
        <time>2022-02-24T10:58:50Z</time>
      </trkpt>
      <trkpt lat="46.07997" lon="5.37229">
        <ele>265.8</ele>
        <time>2022-02-24T10:58:51Z</time>
      </trkpt>
      <trkpt lat="46.07992" lon="5.37228">
        <ele>265.6</ele>
        <time>2022-02-24T10:58:52Z</time>
      </trkpt>
      <trkpt lat="46.07983" lon="5.37224">
        <ele>265.2</ele>
        <time>2022-02-24T10:58:53Z</time>
      </trkpt>
      <trkpt lat="46.07974" lon="5.3722">
        <ele>265</ele>
        <time>2022-02-24T10:58:54Z</time>
      </trkpt>
      <trkpt lat="46.07966" lon="5.37216">
        <ele>264.6</ele>
        <time>2022-02-24T10:58:55Z</time>
      </trkpt>
      <trkpt lat="46.07952" lon="5.37211">
        <ele>264.2</ele>
        <time>2022-02-24T10:58:56Z</time>
      </trkpt>
      <trkpt lat="46.07948" lon="5.37209">
        <ele>263.8</ele>
        <time>2022-02-24T10:58:57Z</time>
      </trkpt>
      <trkpt lat="46.0794" lon="5.37207">
        <ele>263.4</ele>
        <time>2022-02-24T10:58:58Z</time>
      </trkpt>
      <trkpt lat="46.07932" lon="5.37206">
        <ele>263.2</ele>
        <time>2022-02-24T10:58:59Z</time>
      </trkpt>
      <trkpt lat="46.07924" lon="5.37206">
        <ele>263.2</ele>
        <time>2022-02-24T10:59:00Z</time>
      </trkpt>
      <trkpt lat="46.07917" lon="5.37208">
        <ele>262.8</ele>
        <time>2022-02-24T10:59:01Z</time>
      </trkpt>
      <trkpt lat="46.07911" lon="5.37212">
        <ele>262.8</ele>
        <time>2022-02-24T10:59:02Z</time>
      </trkpt>
      <trkpt lat="46.07906" lon="5.37218">
        <ele>262.4</ele>
        <time>2022-02-24T10:59:03Z</time>
      </trkpt>
      <trkpt lat="46.07902" lon="5.37231">
        <ele>262.4</ele>
        <time>2022-02-24T10:59:04Z</time>
      </trkpt>
      <trkpt lat="46.079" lon="5.37235">
        <ele>262.2</ele>
        <time>2022-02-24T10:59:05Z</time>
      </trkpt>
      <trkpt lat="46.07898" lon="5.37245">
        <ele>262</ele>
        <time>2022-02-24T10:59:06Z</time>
      </trkpt>
      <trkpt lat="46.07896" lon="5.37255">
        <ele>261.6</ele>
        <time>2022-02-24T10:59:07Z</time>
      </trkpt>
      <trkpt lat="46.07894" lon="5.37266">
        <ele>261.2</ele>
        <time>2022-02-24T10:59:08Z</time>
      </trkpt>
      <trkpt lat="46.07891" lon="5.37283">
        <ele>261</ele>
        <time>2022-02-24T10:59:09Z</time>
      </trkpt>
      <trkpt lat="46.0789" lon="5.37289">
        <ele>260.6</ele>
        <time>2022-02-24T10:59:10Z</time>
      </trkpt>
      <trkpt lat="46.07889" lon="5.37301">
        <ele>260.2</ele>
        <time>2022-02-24T10:59:11Z</time>
      </trkpt>
      <trkpt lat="46.07888" lon="5.3732">
        <ele>259.8</ele>
        <time>2022-02-24T10:59:12Z</time>
      </trkpt>
      <trkpt lat="46.07888" lon="5.37326">
        <ele>259.2</ele>
        <time>2022-02-24T10:59:13Z</time>
      </trkpt>
      <trkpt lat="46.07887" lon="5.37345">
        <ele>258.6</ele>
        <time>2022-02-24T10:59:14Z</time>
      </trkpt>
      <trkpt lat="46.07886" lon="5.37351">
        <ele>258</ele>
        <time>2022-02-24T10:59:15Z</time>
      </trkpt>
      <trkpt lat="46.07886" lon="5.37363">
        <ele>257.6</ele>
        <time>2022-02-24T10:59:16Z</time>
      </trkpt>
      <trkpt lat="46.07885" lon="5.37375">
        <ele>257</ele>
        <time>2022-02-24T10:59:17Z</time>
      </trkpt>
      <trkpt lat="46.07887" lon="5.37391">
        <ele>256.4</ele>
        <time>2022-02-24T10:59:18Z</time>
      </trkpt>
      <trkpt lat="46.07887" lon="5.37397">
        <ele>255.8</ele>
        <time>2022-02-24T10:59:19Z</time>
      </trkpt>
      <trkpt lat="46.07888" lon="5.37408">
        <ele>255.2</ele>
        <time>2022-02-24T10:59:20Z</time>
      </trkpt>
      <trkpt lat="46.07891" lon="5.37418">
        <ele>254.4</ele>
        <time>2022-02-24T10:59:21Z</time>
      </trkpt>
      <trkpt lat="46.07894" lon="5.37433">
        <ele>253.6</ele>
        <time>2022-02-24T10:59:22Z</time>
      </trkpt>
      <trkpt lat="46.07894" lon="5.37438">
        <ele>253</ele>
        <time>2022-02-24T10:59:23Z</time>
      </trkpt>
      <trkpt lat="46.07896" lon="5.37448">
        <ele>252.4</ele>
        <time>2022-02-24T10:59:24Z</time>
      </trkpt>
      <trkpt lat="46.07897" lon="5.37464">
        <ele>251.6</ele>
        <time>2022-02-24T10:59:25Z</time>
      </trkpt>
      <trkpt lat="46.07898" lon="5.3747">
        <ele>251</ele>
        <time>2022-02-24T10:59:26Z</time>
      </trkpt>
      <trkpt lat="46.07899" lon="5.37481">
        <ele>250.2</ele>
        <time>2022-02-24T10:59:27Z</time>
      </trkpt>
      <trkpt lat="46.079" lon="5.37493">
        <ele>249.2</ele>
        <time>2022-02-24T10:59:28Z</time>
      </trkpt>
      <trkpt lat="46.07902" lon="5.37506">
        <ele>248.4</ele>
        <time>2022-02-24T10:59:29Z</time>
      </trkpt>
      <trkpt lat="46.07903" lon="5.37525">
        <ele>247.6</ele>
        <time>2022-02-24T10:59:30Z</time>
      </trkpt>
      <trkpt lat="46.07903" lon="5.37532">
        <ele>246.8</ele>
        <time>2022-02-24T10:59:31Z</time>
      </trkpt>
      <trkpt lat="46.07904" lon="5.37545">
        <ele>246</ele>
        <time>2022-02-24T10:59:32Z</time>
      </trkpt>
      <trkpt lat="46.07905" lon="5.37564">
        <ele>245.2</ele>
        <time>2022-02-24T10:59:33Z</time>
      </trkpt>
      <trkpt lat="46.07906" lon="5.37569">
        <ele>244.6</ele>
        <time>2022-02-24T10:59:34Z</time>
      </trkpt>
      <trkpt lat="46.07907" lon="5.37579">
        <ele>244.2</ele>
        <time>2022-02-24T10:59:35Z</time>
      </trkpt>
      <trkpt lat="46.07909" lon="5.37592">
        <ele>243.8</ele>
        <time>2022-02-24T10:59:36Z</time>
      </trkpt>
      <trkpt lat="46.0791" lon="5.37596">
        <ele>243.2</ele>
        <time>2022-02-24T10:59:37Z</time>
      </trkpt>
      <trkpt lat="46.07911" lon="5.37604">
        <ele>242.8</ele>
        <time>2022-02-24T10:59:38Z</time>
      </trkpt>
      <trkpt lat="46.07913" lon="5.37611">
        <ele>242.6</ele>
        <time>2022-02-24T10:59:39Z</time>
      </trkpt>
      <trkpt lat="46.07915" lon="5.37618">
        <ele>242.6</ele>
        <time>2022-02-24T10:59:40Z</time>
      </trkpt>
      <trkpt lat="46.07916" lon="5.37621">
        <ele>242.4</ele>
        <time>2022-02-24T10:59:41Z</time>
      </trkpt>
      <trkpt lat="46.07916" lon="5.37626">
        <ele>242.4</ele>
        <time>2022-02-24T10:59:42Z</time>
      </trkpt>
      <trkpt lat="46.07917" lon="5.37632">
        <ele>242.4</ele>
        <time>2022-02-24T10:59:43Z</time>
      </trkpt>
      <trkpt lat="46.07917" lon="5.37634">
        <ele>242.4</ele>
        <time>2022-02-24T10:59:44Z</time>
      </trkpt>
      <trkpt lat="46.07917" lon="5.37636">
        <ele>242.4</ele>
        <time>2022-02-24T10:59:45Z</time>
      </trkpt>
      <trkpt lat="46.07917" lon="5.37637">
        <ele>242.4</ele>
        <time>2022-02-24T10:59:46Z</time>
      </trkpt>
      <trkpt lat="46.07918" lon="5.37643">
        <ele>242</ele>
        <time>2022-02-24T10:59:55Z</time>
      </trkpt>
      <trkpt lat="46.07918" lon="5.37643">
        <ele>242</ele>
        <time>2022-02-24T10:59:56Z</time>
      </trkpt>
      <trkpt lat="46.07919" lon="5.37644">
        <ele>242</ele>
        <time>2022-02-24T10:59:57Z</time>
      </trkpt>
      <trkpt lat="46.07921" lon="5.37644">
        <ele>242</ele>
        <time>2022-02-24T10:59:58Z</time>
      </trkpt>
      <trkpt lat="46.07923" lon="5.37644">
        <ele>242</ele>
        <time>2022-02-24T10:59:59Z</time>
      </trkpt>
      <trkpt lat="46.07924" lon="5.37644">
        <ele>242</ele>
        <time>2022-02-24T11:00:00Z</time>
      </trkpt>
      <trkpt lat="46.07925" lon="5.37644">
        <ele>242</ele>
        <time>2022-02-24T11:00:01Z</time>
      </trkpt>
      <trkpt lat="46.07927" lon="5.37644">
        <ele>242</ele>
        <time>2022-02-24T11:00:02Z</time>
      </trkpt>
      <trkpt lat="46.07929" lon="5.37644">
        <ele>242</ele>
        <time>2022-02-24T11:00:03Z</time>
      </trkpt>
      <trkpt lat="46.0793" lon="5.37643">
        <ele>242</ele>
        <time>2022-02-24T11:00:04Z</time>
      </trkpt>
      <trkpt lat="46.07931" lon="5.37643">
        <ele>242</ele>
        <time>2022-02-24T11:00:05Z</time>
      </trkpt>
      <trkpt lat="46.07936" lon="5.37642">
        <ele>243.8</ele>
        <time>2022-02-24T11:52:41Z</time>
      </trkpt>
      <trkpt lat="46.07936" lon="5.37642">
        <ele>243.6</ele>
        <time>2022-02-24T11:52:42Z</time>
      </trkpt>
      <trkpt lat="46.07934" lon="5.37642">
        <ele>243.6</ele>
        <time>2022-02-24T11:52:43Z</time>
      </trkpt>
      <trkpt lat="46.07932" lon="5.37642">
        <ele>243.6</ele>
        <time>2022-02-24T11:52:44Z</time>
      </trkpt>
      <trkpt lat="46.07931" lon="5.37642">
        <ele>243.6</ele>
        <time>2022-02-24T11:52:45Z</time>
      </trkpt>
      <trkpt lat="46.07928" lon="5.37642">
        <ele>243.6</ele>
        <time>2022-02-24T11:52:46Z</time>
      </trkpt>
      <trkpt lat="46.07926" lon="5.37643">
        <ele>243.6</ele>
        <time>2022-02-24T11:52:47Z</time>
      </trkpt>
      <trkpt lat="46.07924" lon="5.37643">
        <ele>243.6</ele>
        <time>2022-02-24T11:52:48Z</time>
      </trkpt>
      <trkpt lat="46.07921" lon="5.37643">
        <ele>243.6</ele>
        <time>2022-02-24T11:52:49Z</time>
      </trkpt>
      <trkpt lat="46.07918" lon="5.37643">
        <ele>243.6</ele>
        <time>2022-02-24T11:52:50Z</time>
      </trkpt>
      <trkpt lat="46.07915" lon="5.37643">
        <ele>243.6</ele>
        <time>2022-02-24T11:52:51Z</time>
      </trkpt>
      <trkpt lat="46.07912" lon="5.37644">
        <ele>243.6</ele>
        <time>2022-02-24T11:52:52Z</time>
      </trkpt>
      <trkpt lat="46.07907" lon="5.37645">
        <ele>243.6</ele>
        <time>2022-02-24T11:52:53Z</time>
      </trkpt>
      <trkpt lat="46.07903" lon="5.37647">
        <ele>243.6</ele>
        <time>2022-02-24T11:52:54Z</time>
      </trkpt>
      <trkpt lat="46.07899" lon="5.37648">
        <ele>243.2</ele>
        <time>2022-02-24T11:52:55Z</time>
      </trkpt>
      <trkpt lat="46.07895" lon="5.3765">
        <ele>243.2</ele>
        <time>2022-02-24T11:52:56Z</time>
      </trkpt>
      <trkpt lat="46.0789" lon="5.37651">
        <ele>243.6</ele>
        <time>2022-02-24T11:52:57Z</time>
      </trkpt>
      <trkpt lat="46.07886" lon="5.37651">
        <ele>243.6</ele>
        <time>2022-02-24T11:52:58Z</time>
      </trkpt>
      <trkpt lat="46.07878" lon="5.37652">
        <ele>243.6</ele>
        <time>2022-02-24T11:52:59Z</time>
      </trkpt>
      <trkpt lat="46.07876" lon="5.37652">
        <ele>243.2</ele>
        <time>2022-02-24T11:53:00Z</time>
      </trkpt>
      <trkpt lat="46.07871" lon="5.37653">
        <ele>243.2</ele>
        <time>2022-02-24T11:53:01Z</time>
      </trkpt>
      <trkpt lat="46.07866" lon="5.37653">
        <ele>243</ele>
        <time>2022-02-24T11:53:02Z</time>
      </trkpt>
      <trkpt lat="46.0786" lon="5.37654">
        <ele>243</ele>
        <time>2022-02-24T11:53:03Z</time>
      </trkpt>
      <trkpt lat="46.07855" lon="5.37655">
        <ele>242.6</ele>
        <time>2022-02-24T11:53:04Z</time>
      </trkpt>
      <trkpt lat="46.07849" lon="5.37656">
        <ele>242.6</ele>
        <time>2022-02-24T11:53:05Z</time>
      </trkpt>
      <trkpt lat="46.07844" lon="5.37657">
        <ele>242.6</ele>
        <time>2022-02-24T11:53:06Z</time>
      </trkpt>
      <trkpt lat="46.07838" lon="5.37659">
        <ele>242.6</ele>
        <time>2022-02-24T11:53:07Z</time>
      </trkpt>
      <trkpt lat="46.07833" lon="5.3766">
        <ele>242.2</ele>
        <time>2022-02-24T11:53:08Z</time>
      </trkpt>
      <trkpt lat="46.07827" lon="5.37661">
        <ele>242</ele>
        <time>2022-02-24T11:53:09Z</time>
      </trkpt>
      <trkpt lat="46.07821" lon="5.37661">
        <ele>242</ele>
        <time>2022-02-24T11:53:10Z</time>
      </trkpt>
      <trkpt lat="46.07815" lon="5.37662">
        <ele>241.8</ele>
        <time>2022-02-24T11:53:11Z</time>
      </trkpt>
      <trkpt lat="46.07809" lon="5.37662">
        <ele>241.8</ele>
        <time>2022-02-24T11:53:12Z</time>
      </trkpt>
      <trkpt lat="46.07803" lon="5.37662">
        <ele>241.6</ele>
        <time>2022-02-24T11:53:13Z</time>
      </trkpt>
      <trkpt lat="46.07797" lon="5.37661">
        <ele>241.6</ele>
        <time>2022-02-24T11:53:14Z</time>
      </trkpt>
      <trkpt lat="46.07791" lon="5.3766">
        <ele>241.4</ele>
        <time>2022-02-24T11:53:15Z</time>
      </trkpt>
      <trkpt lat="46.07785" lon="5.37659">
        <ele>241.4</ele>
        <time>2022-02-24T11:53:16Z</time>
      </trkpt>
      <trkpt lat="46.07778" lon="5.37658">
        <ele>241.4</ele>
        <time>2022-02-24T11:53:17Z</time>
      </trkpt>
      <trkpt lat="46.07772" lon="5.37657">
        <ele>241.4</ele>
        <time>2022-02-24T11:53:18Z</time>
      </trkpt>
      <trkpt lat="46.07766" lon="5.37655">
        <ele>241.2</ele>
        <time>2022-02-24T11:53:19Z</time>
      </trkpt>
      <trkpt lat="46.0776" lon="5.37654">
        <ele>241.2</ele>
        <time>2022-02-24T11:53:20Z</time>
      </trkpt>
      <trkpt lat="46.07753" lon="5.37653">
        <ele>240.8</ele>
        <time>2022-02-24T11:53:21Z</time>
      </trkpt>
      <trkpt lat="46.07747" lon="5.37653">
        <ele>240.8</ele>
        <time>2022-02-24T11:53:22Z</time>
      </trkpt>
      <trkpt lat="46.07741" lon="5.37653">
        <ele>240.8</ele>
        <time>2022-02-24T11:53:23Z</time>
      </trkpt>
      <trkpt lat="46.07736" lon="5.37652">
        <ele>240.8</ele>
        <time>2022-02-24T11:53:24Z</time>
      </trkpt>
      <trkpt lat="46.0773" lon="5.37652">
        <ele>240.8</ele>
        <time>2022-02-24T11:53:25Z</time>
      </trkpt>
      <trkpt lat="46.07724" lon="5.37652">
        <ele>240.8</ele>
        <time>2022-02-24T11:53:26Z</time>
      </trkpt>
      <trkpt lat="46.07718" lon="5.37651">
        <ele>240.8</ele>
        <time>2022-02-24T11:53:27Z</time>
      </trkpt>
      <trkpt lat="46.0771" lon="5.3765">
        <ele>240.8</ele>
        <time>2022-02-24T11:53:28Z</time>
      </trkpt>
      <trkpt lat="46.07707" lon="5.37649">
        <ele>240.8</ele>
        <time>2022-02-24T11:53:29Z</time>
      </trkpt>
      <trkpt lat="46.07701" lon="5.37648">
        <ele>240.8</ele>
        <time>2022-02-24T11:53:30Z</time>
      </trkpt>
      <trkpt lat="46.07695" lon="5.37648">
        <ele>240.8</ele>
        <time>2022-02-24T11:53:31Z</time>
      </trkpt>
      <trkpt lat="46.0769" lon="5.37647">
        <ele>240.8</ele>
        <time>2022-02-24T11:53:32Z</time>
      </trkpt>
      <trkpt lat="46.07683" lon="5.37646">
        <ele>240.8</ele>
        <time>2022-02-24T11:53:33Z</time>
      </trkpt>
      <trkpt lat="46.07677" lon="5.37646">
        <ele>240.8</ele>
        <time>2022-02-24T11:53:34Z</time>
      </trkpt>
      <trkpt lat="46.07671" lon="5.37646">
        <ele>241</ele>
        <time>2022-02-24T11:53:35Z</time>
      </trkpt>
      <trkpt lat="46.07665" lon="5.37645">
        <ele>241</ele>
        <time>2022-02-24T11:53:36Z</time>
      </trkpt>
      <trkpt lat="46.07658" lon="5.37644">
        <ele>241</ele>
        <time>2022-02-24T11:53:37Z</time>
      </trkpt>
      <trkpt lat="46.07652" lon="5.37644">
        <ele>241</ele>
        <time>2022-02-24T11:53:38Z</time>
      </trkpt>
      <trkpt lat="46.07643" lon="5.37643">
        <ele>241</ele>
        <time>2022-02-24T11:53:39Z</time>
      </trkpt>
      <trkpt lat="46.0764" lon="5.37643">
        <ele>241</ele>
        <time>2022-02-24T11:53:40Z</time>
      </trkpt>
      <trkpt lat="46.07634" lon="5.37643">
        <ele>241</ele>
        <time>2022-02-24T11:53:41Z</time>
      </trkpt>
      <trkpt lat="46.07628" lon="5.37642">
        <ele>241</ele>
        <time>2022-02-24T11:53:42Z</time>
      </trkpt>
      <trkpt lat="46.07618" lon="5.37642">
        <ele>241</ele>
        <time>2022-02-24T11:53:43Z</time>
      </trkpt>
      <trkpt lat="46.07615" lon="5.37641">
        <ele>241</ele>
        <time>2022-02-24T11:53:44Z</time>
      </trkpt>
      <trkpt lat="46.07609" lon="5.37641">
        <ele>241</ele>
        <time>2022-02-24T11:53:45Z</time>
      </trkpt>
      <trkpt lat="46.07603" lon="5.37641">
        <ele>241</ele>
        <time>2022-02-24T11:53:46Z</time>
      </trkpt>
      <trkpt lat="46.07597" lon="5.37641">
        <ele>241</ele>
        <time>2022-02-24T11:53:47Z</time>
      </trkpt>
      <trkpt lat="46.07591" lon="5.37641">
        <ele>241</ele>
        <time>2022-02-24T11:53:48Z</time>
      </trkpt>
      <trkpt lat="46.07585" lon="5.37641">
        <ele>241</ele>
        <time>2022-02-24T11:53:49Z</time>
      </trkpt>
      <trkpt lat="46.07579" lon="5.37641">
        <ele>241.2</ele>
        <time>2022-02-24T11:53:50Z</time>
      </trkpt>
      <trkpt lat="46.07573" lon="5.37641">
        <ele>241.2</ele>
        <time>2022-02-24T11:53:51Z</time>
      </trkpt>
      <trkpt lat="46.07567" lon="5.37641">
        <ele>241.2</ele>
        <time>2022-02-24T11:53:52Z</time>
      </trkpt>
      <trkpt lat="46.07561" lon="5.37641">
        <ele>241.2</ele>
        <time>2022-02-24T11:53:53Z</time>
      </trkpt>
      <trkpt lat="46.07555" lon="5.37641">
        <ele>241</ele>
        <time>2022-02-24T11:53:54Z</time>
      </trkpt>
      <trkpt lat="46.07549" lon="5.37641">
        <ele>241</ele>
        <time>2022-02-24T11:53:55Z</time>
      </trkpt>
      <trkpt lat="46.07543" lon="5.37641">
        <ele>241</ele>
        <time>2022-02-24T11:53:56Z</time>
      </trkpt>
      <trkpt lat="46.07537" lon="5.3764">
        <ele>241</ele>
        <time>2022-02-24T11:53:57Z</time>
      </trkpt>
      <trkpt lat="46.07531" lon="5.37639">
        <ele>241</ele>
        <time>2022-02-24T11:53:58Z</time>
      </trkpt>
      <trkpt lat="46.07525" lon="5.37638">
        <ele>240.8</ele>
        <time>2022-02-24T11:53:59Z</time>
      </trkpt>
      <trkpt lat="46.07519" lon="5.37638">
        <ele>240.8</ele>
        <time>2022-02-24T11:54:00Z</time>
      </trkpt>
      <trkpt lat="46.07513" lon="5.37637">
        <ele>241</ele>
        <time>2022-02-24T11:54:01Z</time>
      </trkpt>
      <trkpt lat="46.07507" lon="5.37637">
        <ele>241</ele>
        <time>2022-02-24T11:54:02Z</time>
      </trkpt>
      <trkpt lat="46.07495" lon="5.37635">
        <ele>241</ele>
        <time>2022-02-24T11:54:03Z</time>
      </trkpt>
      <trkpt lat="46.0749" lon="5.37634">
        <ele>241.2</ele>
        <time>2022-02-24T11:54:04Z</time>
      </trkpt>
      <trkpt lat="46.07485" lon="5.37634">
        <ele>241.2</ele>
        <time>2022-02-24T11:54:05Z</time>
      </trkpt>
      <trkpt lat="46.07485" lon="5.37634">
        <ele>241.2</ele>
        <time>2022-02-24T11:54:06Z</time>
      </trkpt>
      <trkpt lat="46.07479" lon="5.37633">
        <ele>241.2</ele>
        <time>2022-02-24T11:54:07Z</time>
      </trkpt>
      <trkpt lat="46.07474" lon="5.37632">
        <ele>241.2</ele>
        <time>2022-02-24T11:54:08Z</time>
      </trkpt>
      <trkpt lat="46.07469" lon="5.37631">
        <ele>241.2</ele>
        <time>2022-02-24T11:54:09Z</time>
      </trkpt>
      <trkpt lat="46.07464" lon="5.3763">
        <ele>241.2</ele>
        <time>2022-02-24T11:54:10Z</time>
      </trkpt>
      <trkpt lat="46.07459" lon="5.37629">
        <ele>241.2</ele>
        <time>2022-02-24T11:54:11Z</time>
      </trkpt>
      <trkpt lat="46.07454" lon="5.37628">
        <ele>241.2</ele>
        <time>2022-02-24T11:54:12Z</time>
      </trkpt>
      <trkpt lat="46.07449" lon="5.37627">
        <ele>241.2</ele>
        <time>2022-02-24T11:54:13Z</time>
      </trkpt>
      <trkpt lat="46.07444" lon="5.37626">
        <ele>241.2</ele>
        <time>2022-02-24T11:54:14Z</time>
      </trkpt>
      <trkpt lat="46.07438" lon="5.37625">
        <ele>241.2</ele>
        <time>2022-02-24T11:54:15Z</time>
      </trkpt>
      <trkpt lat="46.07433" lon="5.37625">
        <ele>241.6</ele>
        <time>2022-02-24T11:54:16Z</time>
      </trkpt>
      <trkpt lat="46.07428" lon="5.37624">
        <ele>241.6</ele>
        <time>2022-02-24T11:54:17Z</time>
      </trkpt>
      <trkpt lat="46.07423" lon="5.37623">
        <ele>241.8</ele>
        <time>2022-02-24T11:54:18Z</time>
      </trkpt>
      <trkpt lat="46.07418" lon="5.37622">
        <ele>241.8</ele>
        <time>2022-02-24T11:54:19Z</time>
      </trkpt>
      <trkpt lat="46.07412" lon="5.37621">
        <ele>241.8</ele>
        <time>2022-02-24T11:54:20Z</time>
      </trkpt>
      <trkpt lat="46.07407" lon="5.3762">
        <ele>241.6</ele>
        <time>2022-02-24T11:54:21Z</time>
      </trkpt>
      <trkpt lat="46.07402" lon="5.37619">
        <ele>241.6</ele>
        <time>2022-02-24T11:54:22Z</time>
      </trkpt>
      <trkpt lat="46.07397" lon="5.37618">
        <ele>241.6</ele>
        <time>2022-02-24T11:54:23Z</time>
      </trkpt>
      <trkpt lat="46.07391" lon="5.37616">
        <ele>241.6</ele>
        <time>2022-02-24T11:54:24Z</time>
      </trkpt>
      <trkpt lat="46.07386" lon="5.37615">
        <ele>241.6</ele>
        <time>2022-02-24T11:54:25Z</time>
      </trkpt>
      <trkpt lat="46.0738" lon="5.37614">
        <ele>241.6</ele>
        <time>2022-02-24T11:54:26Z</time>
      </trkpt>
      <trkpt lat="46.07375" lon="5.37612">
        <ele>241.4</ele>
        <time>2022-02-24T11:54:27Z</time>
      </trkpt>
      <trkpt lat="46.0737" lon="5.3761">
        <ele>241.4</ele>
        <time>2022-02-24T11:54:28Z</time>
      </trkpt>
      <trkpt lat="46.07364" lon="5.37609">
        <ele>241.4</ele>
        <time>2022-02-24T11:54:29Z</time>
      </trkpt>
      <trkpt lat="46.07359" lon="5.37607">
        <ele>241.4</ele>
        <time>2022-02-24T11:54:30Z</time>
      </trkpt>
      <trkpt lat="46.07354" lon="5.37605">
        <ele>241</ele>
        <time>2022-02-24T11:54:31Z</time>
      </trkpt>
      <trkpt lat="46.07349" lon="5.37603">
        <ele>241</ele>
        <time>2022-02-24T11:54:32Z</time>
      </trkpt>
      <trkpt lat="46.07343" lon="5.376">
        <ele>240.8</ele>
        <time>2022-02-24T11:54:33Z</time>
      </trkpt>
      <trkpt lat="46.07338" lon="5.37598">
        <ele>240.8</ele>
        <time>2022-02-24T11:54:34Z</time>
      </trkpt>
      <trkpt lat="46.07333" lon="5.37596">
        <ele>240.8</ele>
        <time>2022-02-24T11:54:35Z</time>
      </trkpt>
      <trkpt lat="46.07328" lon="5.37593">
        <ele>240.8</ele>
        <time>2022-02-24T11:54:36Z</time>
      </trkpt>
      <trkpt lat="46.07323" lon="5.37591">
        <ele>240.8</ele>
        <time>2022-02-24T11:54:37Z</time>
      </trkpt>
      <trkpt lat="46.07318" lon="5.37588">
        <ele>240.8</ele>
        <time>2022-02-24T11:54:38Z</time>
      </trkpt>
      <trkpt lat="46.07312" lon="5.37585">
        <ele>240.6</ele>
        <time>2022-02-24T11:54:39Z</time>
      </trkpt>
      <trkpt lat="46.07307" lon="5.37582">
        <ele>240.6</ele>
        <time>2022-02-24T11:54:40Z</time>
      </trkpt>
      <trkpt lat="46.07301" lon="5.37579">
        <ele>240.6</ele>
        <time>2022-02-24T11:54:41Z</time>
      </trkpt>
      <trkpt lat="46.07296" lon="5.37576">
        <ele>240.6</ele>
        <time>2022-02-24T11:54:42Z</time>
      </trkpt>
      <trkpt lat="46.0729" lon="5.37574">
        <ele>240.6</ele>
        <time>2022-02-24T11:54:43Z</time>
      </trkpt>
      <trkpt lat="46.07285" lon="5.37571">
        <ele>240.6</ele>
        <time>2022-02-24T11:54:44Z</time>
      </trkpt>
      <trkpt lat="46.07279" lon="5.37568">
        <ele>240.4</ele>
        <time>2022-02-24T11:54:45Z</time>
      </trkpt>
      <trkpt lat="46.07271" lon="5.37563">
        <ele>240.4</ele>
        <time>2022-02-24T11:54:46Z</time>
      </trkpt>
      <trkpt lat="46.07268" lon="5.37562">
        <ele>240.4</ele>
        <time>2022-02-24T11:54:47Z</time>
      </trkpt>
      <trkpt lat="46.07263" lon="5.37559">
        <ele>240</ele>
        <time>2022-02-24T11:54:48Z</time>
      </trkpt>
      <trkpt lat="46.07257" lon="5.37556">
        <ele>240</ele>
        <time>2022-02-24T11:54:49Z</time>
      </trkpt>
      <trkpt lat="46.07252" lon="5.37553">
        <ele>240</ele>
        <time>2022-02-24T11:54:50Z</time>
      </trkpt>
      <trkpt lat="46.07247" lon="5.37551">
        <ele>240</ele>
        <time>2022-02-24T11:54:51Z</time>
      </trkpt>
      <trkpt lat="46.07241" lon="5.37548">
        <ele>239.8</ele>
        <time>2022-02-24T11:54:52Z</time>
      </trkpt>
      <trkpt lat="46.07236" lon="5.37545">
        <ele>239.8</ele>
        <time>2022-02-24T11:54:53Z</time>
      </trkpt>
      <trkpt lat="46.07231" lon="5.37542">
        <ele>239.8</ele>
        <time>2022-02-24T11:54:54Z</time>
      </trkpt>
      <trkpt lat="46.07225" lon="5.37539">
        <ele>239.8</ele>
        <time>2022-02-24T11:54:55Z</time>
      </trkpt>
      <trkpt lat="46.0722" lon="5.37536">
        <ele>239.6</ele>
        <time>2022-02-24T11:54:56Z</time>
      </trkpt>
      <trkpt lat="46.07215" lon="5.37534">
        <ele>239.6</ele>
        <time>2022-02-24T11:54:57Z</time>
      </trkpt>
      <trkpt lat="46.07207" lon="5.3753">
        <ele>239.6</ele>
        <time>2022-02-24T11:54:58Z</time>
      </trkpt>
      <trkpt lat="46.07204" lon="5.37529">
        <ele>239.6</ele>
        <time>2022-02-24T11:54:59Z</time>
      </trkpt>
      <trkpt lat="46.07199" lon="5.37526">
        <ele>239.6</ele>
        <time>2022-02-24T11:55:00Z</time>
      </trkpt>
      <trkpt lat="46.07194" lon="5.37523">
        <ele>239.6</ele>
        <time>2022-02-24T11:55:01Z</time>
      </trkpt>
      <trkpt lat="46.07189" lon="5.37521">
        <ele>239.6</ele>
        <time>2022-02-24T11:55:02Z</time>
      </trkpt>
      <trkpt lat="46.07184" lon="5.37518">
        <ele>239.6</ele>
        <time>2022-02-24T11:55:03Z</time>
      </trkpt>
      <trkpt lat="46.07179" lon="5.37515">
        <ele>239.8</ele>
        <time>2022-02-24T11:55:04Z</time>
      </trkpt>
      <trkpt lat="46.07173" lon="5.37513">
        <ele>239.8</ele>
        <time>2022-02-24T11:55:05Z</time>
      </trkpt>
      <trkpt lat="46.07168" lon="5.3751">
        <ele>239.8</ele>
        <time>2022-02-24T11:55:06Z</time>
      </trkpt>
      <trkpt lat="46.07163" lon="5.37507">
        <ele>239.8</ele>
        <time>2022-02-24T11:55:07Z</time>
      </trkpt>
      <trkpt lat="46.07158" lon="5.37505">
        <ele>239.8</ele>
        <time>2022-02-24T11:55:08Z</time>
      </trkpt>
      <trkpt lat="46.07153" lon="5.37502">
        <ele>239.8</ele>
        <time>2022-02-24T11:55:09Z</time>
      </trkpt>
      <trkpt lat="46.07148" lon="5.37499">
        <ele>239.8</ele>
        <time>2022-02-24T11:55:10Z</time>
      </trkpt>
      <trkpt lat="46.07143" lon="5.37497">
        <ele>239.8</ele>
        <time>2022-02-24T11:55:11Z</time>
      </trkpt>
      <trkpt lat="46.07138" lon="5.37494">
        <ele>239.8</ele>
        <time>2022-02-24T11:55:12Z</time>
      </trkpt>
      <trkpt lat="46.07132" lon="5.37491">
        <ele>239.8</ele>
        <time>2022-02-24T11:55:13Z</time>
      </trkpt>
      <trkpt lat="46.07127" lon="5.37488">
        <ele>239.8</ele>
        <time>2022-02-24T11:55:14Z</time>
      </trkpt>
      <trkpt lat="46.07122" lon="5.37485">
        <ele>239.8</ele>
        <time>2022-02-24T11:55:15Z</time>
      </trkpt>
      <trkpt lat="46.07117" lon="5.37482">
        <ele>239.8</ele>
        <time>2022-02-24T11:55:16Z</time>
      </trkpt>
      <trkpt lat="46.07111" lon="5.37479">
        <ele>239.8</ele>
        <time>2022-02-24T11:55:17Z</time>
      </trkpt>
      <trkpt lat="46.07106" lon="5.37476">
        <ele>239.8</ele>
        <time>2022-02-24T11:55:18Z</time>
      </trkpt>
      <trkpt lat="46.07101" lon="5.37474">
        <ele>239.8</ele>
        <time>2022-02-24T11:55:19Z</time>
      </trkpt>
      <trkpt lat="46.07095" lon="5.37471">
        <ele>239.8</ele>
        <time>2022-02-24T11:55:20Z</time>
      </trkpt>
      <trkpt lat="46.0709" lon="5.37468">
        <ele>239.8</ele>
        <time>2022-02-24T11:55:21Z</time>
      </trkpt>
      <trkpt lat="46.07085" lon="5.37465">
        <ele>239.8</ele>
        <time>2022-02-24T11:55:22Z</time>
      </trkpt>
      <trkpt lat="46.07079" lon="5.37462">
        <ele>239.8</ele>
        <time>2022-02-24T11:55:23Z</time>
      </trkpt>
      <trkpt lat="46.07074" lon="5.3746">
        <ele>239.8</ele>
        <time>2022-02-24T11:55:24Z</time>
      </trkpt>
      <trkpt lat="46.07068" lon="5.37457">
        <ele>239.6</ele>
        <time>2022-02-24T11:55:25Z</time>
      </trkpt>
      <trkpt lat="46.07063" lon="5.37454">
        <ele>239.6</ele>
        <time>2022-02-24T11:55:26Z</time>
      </trkpt>
      <trkpt lat="46.07058" lon="5.37451">
        <ele>239.6</ele>
        <time>2022-02-24T11:55:27Z</time>
      </trkpt>
      <trkpt lat="46.07052" lon="5.37448">
        <ele>239.6</ele>
        <time>2022-02-24T11:55:28Z</time>
      </trkpt>
      <trkpt lat="46.07047" lon="5.37445">
        <ele>239.6</ele>
        <time>2022-02-24T11:55:29Z</time>
      </trkpt>
      <trkpt lat="46.07041" lon="5.37442">
        <ele>239.6</ele>
        <time>2022-02-24T11:55:30Z</time>
      </trkpt>
      <trkpt lat="46.07035" lon="5.37439">
        <ele>239.6</ele>
        <time>2022-02-24T11:55:31Z</time>
      </trkpt>
      <trkpt lat="46.0703" lon="5.37436">
        <ele>239.6</ele>
        <time>2022-02-24T11:55:32Z</time>
      </trkpt>
      <trkpt lat="46.07024" lon="5.37433">
        <ele>239.6</ele>
        <time>2022-02-24T11:55:33Z</time>
      </trkpt>
      <trkpt lat="46.07019" lon="5.3743">
        <ele>239.6</ele>
        <time>2022-02-24T11:55:34Z</time>
      </trkpt>
      <trkpt lat="46.07013" lon="5.37428">
        <ele>239.6</ele>
        <time>2022-02-24T11:55:35Z</time>
      </trkpt>
      <trkpt lat="46.07008" lon="5.37425">
        <ele>239.2</ele>
        <time>2022-02-24T11:55:36Z</time>
      </trkpt>
      <trkpt lat="46.07002" lon="5.37422">
        <ele>239.2</ele>
        <time>2022-02-24T11:55:37Z</time>
      </trkpt>
      <trkpt lat="46.06997" lon="5.37419">
        <ele>239.2</ele>
        <time>2022-02-24T11:55:38Z</time>
      </trkpt>
      <trkpt lat="46.06992" lon="5.37416">
        <ele>239.2</ele>
        <time>2022-02-24T11:55:39Z</time>
      </trkpt>
      <trkpt lat="46.06987" lon="5.37414">
        <ele>239.2</ele>
        <time>2022-02-24T11:55:40Z</time>
      </trkpt>
      <trkpt lat="46.06981" lon="5.37411">
        <ele>239.2</ele>
        <time>2022-02-24T11:55:41Z</time>
      </trkpt>
      <trkpt lat="46.06976" lon="5.37408">
        <ele>239.2</ele>
        <time>2022-02-24T11:55:42Z</time>
      </trkpt>
      <trkpt lat="46.06971" lon="5.37405">
        <ele>239</ele>
        <time>2022-02-24T11:55:43Z</time>
      </trkpt>
      <trkpt lat="46.06966" lon="5.37402">
        <ele>239</ele>
        <time>2022-02-24T11:55:44Z</time>
      </trkpt>
      <trkpt lat="46.0696" lon="5.37399">
        <ele>239</ele>
        <time>2022-02-24T11:55:45Z</time>
      </trkpt>
      <trkpt lat="46.06955" lon="5.37397">
        <ele>239</ele>
        <time>2022-02-24T11:55:46Z</time>
      </trkpt>
      <trkpt lat="46.0695" lon="5.37394">
        <ele>239</ele>
        <time>2022-02-24T11:55:47Z</time>
      </trkpt>
      <trkpt lat="46.06945" lon="5.37391">
        <ele>239</ele>
        <time>2022-02-24T11:55:48Z</time>
      </trkpt>
      <trkpt lat="46.0694" lon="5.37388">
        <ele>239</ele>
        <time>2022-02-24T11:55:49Z</time>
      </trkpt>
      <trkpt lat="46.06934" lon="5.37386">
        <ele>239</ele>
        <time>2022-02-24T11:55:50Z</time>
      </trkpt>
      <trkpt lat="46.06929" lon="5.37383">
        <ele>239</ele>
        <time>2022-02-24T11:55:51Z</time>
      </trkpt>
      <trkpt lat="46.06924" lon="5.3738">
        <ele>239</ele>
        <time>2022-02-24T11:55:52Z</time>
      </trkpt>
      <trkpt lat="46.06919" lon="5.37377">
        <ele>238.8</ele>
        <time>2022-02-24T11:55:53Z</time>
      </trkpt>
      <trkpt lat="46.06913" lon="5.37375">
        <ele>238.8</ele>
        <time>2022-02-24T11:55:54Z</time>
      </trkpt>
      <trkpt lat="46.06908" lon="5.37372">
        <ele>238.8</ele>
        <time>2022-02-24T11:55:55Z</time>
      </trkpt>
      <trkpt lat="46.06903" lon="5.37369">
        <ele>238.8</ele>
        <time>2022-02-24T11:55:56Z</time>
      </trkpt>
      <trkpt lat="46.06897" lon="5.37366">
        <ele>238.8</ele>
        <time>2022-02-24T11:55:57Z</time>
      </trkpt>
      <trkpt lat="46.06892" lon="5.37363">
        <ele>238.8</ele>
        <time>2022-02-24T11:55:58Z</time>
      </trkpt>
      <trkpt lat="46.06887" lon="5.3736">
        <ele>238.8</ele>
        <time>2022-02-24T11:55:59Z</time>
      </trkpt>
      <trkpt lat="46.06882" lon="5.37357">
        <ele>238.8</ele>
        <time>2022-02-24T11:56:00Z</time>
      </trkpt>
      <trkpt lat="46.06876" lon="5.37354">
        <ele>238.8</ele>
        <time>2022-02-24T11:56:01Z</time>
      </trkpt>
      <trkpt lat="46.06871" lon="5.37352">
        <ele>238.8</ele>
        <time>2022-02-24T11:56:02Z</time>
      </trkpt>
      <trkpt lat="46.06866" lon="5.37349">
        <ele>238.8</ele>
        <time>2022-02-24T11:56:03Z</time>
      </trkpt>
      <trkpt lat="46.0686" lon="5.37347">
        <ele>238.8</ele>
        <time>2022-02-24T11:56:04Z</time>
      </trkpt>
      <trkpt lat="46.06855" lon="5.37344">
        <ele>238.8</ele>
        <time>2022-02-24T11:56:05Z</time>
      </trkpt>
      <trkpt lat="46.0685" lon="5.37341">
        <ele>238.8</ele>
        <time>2022-02-24T11:56:06Z</time>
      </trkpt>
      <trkpt lat="46.06845" lon="5.37338">
        <ele>238.8</ele>
        <time>2022-02-24T11:56:07Z</time>
      </trkpt>
      <trkpt lat="46.0684" lon="5.37336">
        <ele>238.8</ele>
        <time>2022-02-24T11:56:08Z</time>
      </trkpt>
      <trkpt lat="46.06835" lon="5.37333">
        <ele>238.8</ele>
        <time>2022-02-24T11:56:09Z</time>
      </trkpt>
      <trkpt lat="46.0683" lon="5.3733">
        <ele>238.8</ele>
        <time>2022-02-24T11:56:10Z</time>
      </trkpt>
      <trkpt lat="46.06824" lon="5.37327">
        <ele>238.8</ele>
        <time>2022-02-24T11:56:11Z</time>
      </trkpt>
      <trkpt lat="46.06819" lon="5.37325">
        <ele>238.8</ele>
        <time>2022-02-24T11:56:12Z</time>
      </trkpt>
      <trkpt lat="46.06814" lon="5.37322">
        <ele>238.8</ele>
        <time>2022-02-24T11:56:13Z</time>
      </trkpt>
      <trkpt lat="46.06809" lon="5.37319">
        <ele>238.8</ele>
        <time>2022-02-24T11:56:14Z</time>
      </trkpt>
      <trkpt lat="46.06803" lon="5.37316">
        <ele>238.8</ele>
        <time>2022-02-24T11:56:15Z</time>
      </trkpt>
      <trkpt lat="46.06798" lon="5.37313">
        <ele>238.8</ele>
        <time>2022-02-24T11:56:16Z</time>
      </trkpt>
      <trkpt lat="46.0679" lon="5.37309">
        <ele>238.6</ele>
        <time>2022-02-24T11:56:17Z</time>
      </trkpt>
      <trkpt lat="46.06788" lon="5.37308">
        <ele>238.6</ele>
        <time>2022-02-24T11:56:18Z</time>
      </trkpt>
      <trkpt lat="46.06783" lon="5.37305">
        <ele>238.6</ele>
        <time>2022-02-24T11:56:19Z</time>
      </trkpt>
      <trkpt lat="46.06777" lon="5.37303">
        <ele>238.6</ele>
        <time>2022-02-24T11:56:20Z</time>
      </trkpt>
      <trkpt lat="46.06772" lon="5.373">
        <ele>238.6</ele>
        <time>2022-02-24T11:56:21Z</time>
      </trkpt>
      <trkpt lat="46.06767" lon="5.37297">
        <ele>238.6</ele>
        <time>2022-02-24T11:56:22Z</time>
      </trkpt>
      <trkpt lat="46.06762" lon="5.37295">
        <ele>238.6</ele>
        <time>2022-02-24T11:56:23Z</time>
      </trkpt>
      <trkpt lat="46.06757" lon="5.37292">
        <ele>238.6</ele>
        <time>2022-02-24T11:56:24Z</time>
      </trkpt>
      <trkpt lat="46.06752" lon="5.3729">
        <ele>238.2</ele>
        <time>2022-02-24T11:56:25Z</time>
      </trkpt>
      <trkpt lat="46.06747" lon="5.37287">
        <ele>238.2</ele>
        <time>2022-02-24T11:56:26Z</time>
      </trkpt>
      <trkpt lat="46.06742" lon="5.37285">
        <ele>238.2</ele>
        <time>2022-02-24T11:56:27Z</time>
      </trkpt>
      <trkpt lat="46.06738" lon="5.37282">
        <ele>238.2</ele>
        <time>2022-02-24T11:56:28Z</time>
      </trkpt>
      <trkpt lat="46.06733" lon="5.3728">
        <ele>238.6</ele>
        <time>2022-02-24T11:56:29Z</time>
      </trkpt>
      <trkpt lat="46.06728" lon="5.37277">
        <ele>238.6</ele>
        <time>2022-02-24T11:56:30Z</time>
      </trkpt>
      <trkpt lat="46.06724" lon="5.37275">
        <ele>238.6</ele>
        <time>2022-02-24T11:56:31Z</time>
      </trkpt>
      <trkpt lat="46.06719" lon="5.37272">
        <ele>238.8</ele>
        <time>2022-02-24T11:56:32Z</time>
      </trkpt>
      <trkpt lat="46.06714" lon="5.3727">
        <ele>238.6</ele>
        <time>2022-02-24T11:56:33Z</time>
      </trkpt>
      <trkpt lat="46.06709" lon="5.37267">
        <ele>238.6</ele>
        <time>2022-02-24T11:56:34Z</time>
      </trkpt>
      <trkpt lat="46.06704" lon="5.37265">
        <ele>238.6</ele>
        <time>2022-02-24T11:56:35Z</time>
      </trkpt>
      <trkpt lat="46.06699" lon="5.37262">
        <ele>238.6</ele>
        <time>2022-02-24T11:56:36Z</time>
      </trkpt>
      <trkpt lat="46.06694" lon="5.37259">
        <ele>238.6</ele>
        <time>2022-02-24T11:56:37Z</time>
      </trkpt>
      <trkpt lat="46.06689" lon="5.37256">
        <ele>238.6</ele>
        <time>2022-02-24T11:56:38Z</time>
      </trkpt>
      <trkpt lat="46.06684" lon="5.37253">
        <ele>238.6</ele>
        <time>2022-02-24T11:56:39Z</time>
      </trkpt>
      <trkpt lat="46.06678" lon="5.3725">
        <ele>238.6</ele>
        <time>2022-02-24T11:56:40Z</time>
      </trkpt>
      <trkpt lat="46.06673" lon="5.37247">
        <ele>238.2</ele>
        <time>2022-02-24T11:56:41Z</time>
      </trkpt>
      <trkpt lat="46.06667" lon="5.37245">
        <ele>238.2</ele>
        <time>2022-02-24T11:56:42Z</time>
      </trkpt>
      <trkpt lat="46.06659" lon="5.3724">
        <ele>238.2</ele>
        <time>2022-02-24T11:56:43Z</time>
      </trkpt>
      <trkpt lat="46.06656" lon="5.37239">
        <ele>238.2</ele>
        <time>2022-02-24T11:56:44Z</time>
      </trkpt>
      <trkpt lat="46.06651" lon="5.37236">
        <ele>238.2</ele>
        <time>2022-02-24T11:56:45Z</time>
      </trkpt>
      <trkpt lat="46.06645" lon="5.37233">
        <ele>238.2</ele>
        <time>2022-02-24T11:56:46Z</time>
      </trkpt>
      <trkpt lat="46.0664" lon="5.3723">
        <ele>238.2</ele>
        <time>2022-02-24T11:56:47Z</time>
      </trkpt>
      <trkpt lat="46.06634" lon="5.37227">
        <ele>238.2</ele>
        <time>2022-02-24T11:56:48Z</time>
      </trkpt>
      <trkpt lat="46.06629" lon="5.37224">
        <ele>238.2</ele>
        <time>2022-02-24T11:56:49Z</time>
      </trkpt>
      <trkpt lat="46.06623" lon="5.37221">
        <ele>238.4</ele>
        <time>2022-02-24T11:56:50Z</time>
      </trkpt>
      <trkpt lat="46.06617" lon="5.37218">
        <ele>238.4</ele>
        <time>2022-02-24T11:56:51Z</time>
      </trkpt>
      <trkpt lat="46.06612" lon="5.37215">
        <ele>238.4</ele>
        <time>2022-02-24T11:56:52Z</time>
      </trkpt>
      <trkpt lat="46.06606" lon="5.37212">
        <ele>238.4</ele>
        <time>2022-02-24T11:56:53Z</time>
      </trkpt>
      <trkpt lat="46.066" lon="5.37209">
        <ele>238.4</ele>
        <time>2022-02-24T11:56:54Z</time>
      </trkpt>
      <trkpt lat="46.06594" lon="5.37206">
        <ele>238.4</ele>
        <time>2022-02-24T11:56:55Z</time>
      </trkpt>
      <trkpt lat="46.06588" lon="5.37203">
        <ele>238.4</ele>
        <time>2022-02-24T11:56:56Z</time>
      </trkpt>
      <trkpt lat="46.06582" lon="5.372">
        <ele>238.4</ele>
        <time>2022-02-24T11:56:57Z</time>
      </trkpt>
      <trkpt lat="46.06576" lon="5.37197">
        <ele>238.4</ele>
        <time>2022-02-24T11:56:58Z</time>
      </trkpt>
      <trkpt lat="46.06567" lon="5.37192">
        <ele>238.4</ele>
        <time>2022-02-24T11:56:59Z</time>
      </trkpt>
      <trkpt lat="46.06564" lon="5.3719">
        <ele>238.4</ele>
        <time>2022-02-24T11:57:00Z</time>
      </trkpt>
      <trkpt lat="46.06558" lon="5.37186">
        <ele>238.2</ele>
        <time>2022-02-24T11:57:01Z</time>
      </trkpt>
      <trkpt lat="46.06552" lon="5.37183">
        <ele>238.2</ele>
        <time>2022-02-24T11:57:02Z</time>
      </trkpt>
      <trkpt lat="46.06545" lon="5.37179">
        <ele>238.2</ele>
        <time>2022-02-24T11:57:03Z</time>
      </trkpt>
      <trkpt lat="46.06539" lon="5.37175">
        <ele>238</ele>
        <time>2022-02-24T11:57:04Z</time>
      </trkpt>
      <trkpt lat="46.06532" lon="5.37172">
        <ele>238</ele>
        <time>2022-02-24T11:57:05Z</time>
      </trkpt>
      <trkpt lat="46.06526" lon="5.37169">
        <ele>238</ele>
        <time>2022-02-24T11:57:06Z</time>
      </trkpt>
      <trkpt lat="46.06519" lon="5.37165">
        <ele>238</ele>
        <time>2022-02-24T11:57:07Z</time>
      </trkpt>
      <trkpt lat="46.06513" lon="5.37162">
        <ele>237.8</ele>
        <time>2022-02-24T11:57:08Z</time>
      </trkpt>
      <trkpt lat="46.06507" lon="5.37159">
        <ele>237.8</ele>
        <time>2022-02-24T11:57:09Z</time>
      </trkpt>
      <trkpt lat="46.065" lon="5.37155">
        <ele>237.8</ele>
        <time>2022-02-24T11:57:10Z</time>
      </trkpt>
      <trkpt lat="46.06494" lon="5.37152">
        <ele>237.8</ele>
        <time>2022-02-24T11:57:11Z</time>
      </trkpt>
      <trkpt lat="46.06488" lon="5.37148">
        <ele>237.8</ele>
        <time>2022-02-24T11:57:12Z</time>
      </trkpt>
      <trkpt lat="46.06482" lon="5.37145">
        <ele>237.8</ele>
        <time>2022-02-24T11:57:13Z</time>
      </trkpt>
      <trkpt lat="46.06475" lon="5.37142">
        <ele>237.8</ele>
        <time>2022-02-24T11:57:14Z</time>
      </trkpt>
      <trkpt lat="46.06469" lon="5.37139">
        <ele>237.8</ele>
        <time>2022-02-24T11:57:15Z</time>
      </trkpt>
      <trkpt lat="46.06463" lon="5.37136">
        <ele>237.4</ele>
        <time>2022-02-24T11:57:16Z</time>
      </trkpt>
      <trkpt lat="46.06456" lon="5.37133">
        <ele>237.4</ele>
        <time>2022-02-24T11:57:17Z</time>
      </trkpt>
      <trkpt lat="46.0645" lon="5.3713">
        <ele>237.4</ele>
        <time>2022-02-24T11:57:18Z</time>
      </trkpt>
      <trkpt lat="46.06444" lon="5.37126">
        <ele>237.4</ele>
        <time>2022-02-24T11:57:19Z</time>
      </trkpt>
      <trkpt lat="46.06438" lon="5.37123">
        <ele>237.4</ele>
        <time>2022-02-24T11:57:20Z</time>
      </trkpt>
      <trkpt lat="46.06432" lon="5.3712">
        <ele>237.2</ele>
        <time>2022-02-24T11:57:21Z</time>
      </trkpt>
      <trkpt lat="46.06426" lon="5.37117">
        <ele>237.2</ele>
        <time>2022-02-24T11:57:22Z</time>
      </trkpt>
      <trkpt lat="46.0642" lon="5.37114">
        <ele>237.2</ele>
        <time>2022-02-24T11:57:23Z</time>
      </trkpt>
      <trkpt lat="46.06414" lon="5.37111">
        <ele>237.2</ele>
        <time>2022-02-24T11:57:24Z</time>
      </trkpt>
      <trkpt lat="46.06408" lon="5.37107">
        <ele>237.2</ele>
        <time>2022-02-24T11:57:25Z</time>
      </trkpt>
      <trkpt lat="46.06402" lon="5.37104">
        <ele>237</ele>
        <time>2022-02-24T11:57:26Z</time>
      </trkpt>
      <trkpt lat="46.06396" lon="5.37101">
        <ele>237</ele>
        <time>2022-02-24T11:57:27Z</time>
      </trkpt>
      <trkpt lat="46.0639" lon="5.37098">
        <ele>237</ele>
        <time>2022-02-24T11:57:28Z</time>
      </trkpt>
      <trkpt lat="46.06384" lon="5.37095">
        <ele>237</ele>
        <time>2022-02-24T11:57:29Z</time>
      </trkpt>
      <trkpt lat="46.06378" lon="5.37092">
        <ele>237</ele>
        <time>2022-02-24T11:57:30Z</time>
      </trkpt>
      <trkpt lat="46.06373" lon="5.37088">
        <ele>237</ele>
        <time>2022-02-24T11:57:31Z</time>
      </trkpt>
      <trkpt lat="46.06367" lon="5.37085">
        <ele>237</ele>
        <time>2022-02-24T11:57:32Z</time>
      </trkpt>
      <trkpt lat="46.06361" lon="5.37082">
        <ele>237</ele>
        <time>2022-02-24T11:57:33Z</time>
      </trkpt>
      <trkpt lat="46.06355" lon="5.37079">
        <ele>237</ele>
        <time>2022-02-24T11:57:34Z</time>
      </trkpt>
      <trkpt lat="46.06349" lon="5.37076">
        <ele>237</ele>
        <time>2022-02-24T11:57:35Z</time>
      </trkpt>
      <trkpt lat="46.06343" lon="5.37073">
        <ele>237</ele>
        <time>2022-02-24T11:57:36Z</time>
      </trkpt>
      <trkpt lat="46.06337" lon="5.3707">
        <ele>237</ele>
        <time>2022-02-24T11:57:37Z</time>
      </trkpt>
      <trkpt lat="46.06332" lon="5.37067">
        <ele>237</ele>
        <time>2022-02-24T11:57:38Z</time>
      </trkpt>
      <trkpt lat="46.06326" lon="5.37064">
        <ele>237</ele>
        <time>2022-02-24T11:57:39Z</time>
      </trkpt>
      <trkpt lat="46.0632" lon="5.37061">
        <ele>237</ele>
        <time>2022-02-24T11:57:40Z</time>
      </trkpt>
      <trkpt lat="46.06314" lon="5.37058">
        <ele>237</ele>
        <time>2022-02-24T11:57:41Z</time>
      </trkpt>
      <trkpt lat="46.06308" lon="5.37055">
        <ele>237</ele>
        <time>2022-02-24T11:57:42Z</time>
      </trkpt>
      <trkpt lat="46.06299" lon="5.3705">
        <ele>236.8</ele>
        <time>2022-02-24T11:57:43Z</time>
      </trkpt>
      <trkpt lat="46.06296" lon="5.37049">
        <ele>236.8</ele>
        <time>2022-02-24T11:57:44Z</time>
      </trkpt>
      <trkpt lat="46.0629" lon="5.37046">
        <ele>236.8</ele>
        <time>2022-02-24T11:57:45Z</time>
      </trkpt>
      <trkpt lat="46.06284" lon="5.37042">
        <ele>236.8</ele>
        <time>2022-02-24T11:57:46Z</time>
      </trkpt>
      <trkpt lat="46.06279" lon="5.37039">
        <ele>236.8</ele>
        <time>2022-02-24T11:57:47Z</time>
      </trkpt>
      <trkpt lat="46.06273" lon="5.37036">
        <ele>236.8</ele>
        <time>2022-02-24T11:57:48Z</time>
      </trkpt>
      <trkpt lat="46.06267" lon="5.37033">
        <ele>236.8</ele>
        <time>2022-02-24T11:57:49Z</time>
      </trkpt>
      <trkpt lat="46.06261" lon="5.3703">
        <ele>236.8</ele>
        <time>2022-02-24T11:57:50Z</time>
      </trkpt>
      <trkpt lat="46.06255" lon="5.37027">
        <ele>236.8</ele>
        <time>2022-02-24T11:57:51Z</time>
      </trkpt>
      <trkpt lat="46.06249" lon="5.37024">
        <ele>236.8</ele>
        <time>2022-02-24T11:57:52Z</time>
      </trkpt>
      <trkpt lat="46.06243" lon="5.37021">
        <ele>236.8</ele>
        <time>2022-02-24T11:57:53Z</time>
      </trkpt>
      <trkpt lat="46.06237" lon="5.37018">
        <ele>236.6</ele>
        <time>2022-02-24T11:57:54Z</time>
      </trkpt>
      <trkpt lat="46.06231" lon="5.37015">
        <ele>236.6</ele>
        <time>2022-02-24T11:57:55Z</time>
      </trkpt>
      <trkpt lat="46.06225" lon="5.37011">
        <ele>236.6</ele>
        <time>2022-02-24T11:57:56Z</time>
      </trkpt>
      <trkpt lat="46.06219" lon="5.37008">
        <ele>236.6</ele>
        <time>2022-02-24T11:57:57Z</time>
      </trkpt>
      <trkpt lat="46.06214" lon="5.37005">
        <ele>236.6</ele>
        <time>2022-02-24T11:57:58Z</time>
      </trkpt>
      <trkpt lat="46.06208" lon="5.37002">
        <ele>236.6</ele>
        <time>2022-02-24T11:57:59Z</time>
      </trkpt>
      <trkpt lat="46.06202" lon="5.36999">
        <ele>236.6</ele>
        <time>2022-02-24T11:58:00Z</time>
      </trkpt>
      <trkpt lat="46.06196" lon="5.36996">
        <ele>236.6</ele>
        <time>2022-02-24T11:58:01Z</time>
      </trkpt>
      <trkpt lat="46.0619" lon="5.36993">
        <ele>236.6</ele>
        <time>2022-02-24T11:58:02Z</time>
      </trkpt>
      <trkpt lat="46.06185" lon="5.3699">
        <ele>236.6</ele>
        <time>2022-02-24T11:58:03Z</time>
      </trkpt>
      <trkpt lat="46.06179" lon="5.36987">
        <ele>236.6</ele>
        <time>2022-02-24T11:58:04Z</time>
      </trkpt>
      <trkpt lat="46.06174" lon="5.36984">
        <ele>236.6</ele>
        <time>2022-02-24T11:58:05Z</time>
      </trkpt>
      <trkpt lat="46.06168" lon="5.36981">
        <ele>236.6</ele>
        <time>2022-02-24T11:58:06Z</time>
      </trkpt>
      <trkpt lat="46.06163" lon="5.36978">
        <ele>236.6</ele>
        <time>2022-02-24T11:58:07Z</time>
      </trkpt>
      <trkpt lat="46.06157" lon="5.36975">
        <ele>236.6</ele>
        <time>2022-02-24T11:58:08Z</time>
      </trkpt>
      <trkpt lat="46.06152" lon="5.36972">
        <ele>236.6</ele>
        <time>2022-02-24T11:58:09Z</time>
      </trkpt>
      <trkpt lat="46.06147" lon="5.3697">
        <ele>236.6</ele>
        <time>2022-02-24T11:58:10Z</time>
      </trkpt>
      <trkpt lat="46.06142" lon="5.36967">
        <ele>236.6</ele>
        <time>2022-02-24T11:58:11Z</time>
      </trkpt>
      <trkpt lat="46.06137" lon="5.36964">
        <ele>236.6</ele>
        <time>2022-02-24T11:58:12Z</time>
      </trkpt>
      <trkpt lat="46.06131" lon="5.36962">
        <ele>236.6</ele>
        <time>2022-02-24T11:58:13Z</time>
      </trkpt>
      <trkpt lat="46.06126" lon="5.36959">
        <ele>236.6</ele>
        <time>2022-02-24T11:58:14Z</time>
      </trkpt>
      <trkpt lat="46.06121" lon="5.36956">
        <ele>236.6</ele>
        <time>2022-02-24T11:58:15Z</time>
      </trkpt>
      <trkpt lat="46.06115" lon="5.36953">
        <ele>236.6</ele>
        <time>2022-02-24T11:58:16Z</time>
      </trkpt>
      <trkpt lat="46.0611" lon="5.3695">
        <ele>236.6</ele>
        <time>2022-02-24T11:58:17Z</time>
      </trkpt>
      <trkpt lat="46.06105" lon="5.36947">
        <ele>236.6</ele>
        <time>2022-02-24T11:58:18Z</time>
      </trkpt>
      <trkpt lat="46.06099" lon="5.36944">
        <ele>236.6</ele>
        <time>2022-02-24T11:58:19Z</time>
      </trkpt>
      <trkpt lat="46.06094" lon="5.36941">
        <ele>236.6</ele>
        <time>2022-02-24T11:58:20Z</time>
      </trkpt>
      <trkpt lat="46.06088" lon="5.36938">
        <ele>236.6</ele>
        <time>2022-02-24T11:58:21Z</time>
      </trkpt>
      <trkpt lat="46.06082" lon="5.36935">
        <ele>236.6</ele>
        <time>2022-02-24T11:58:22Z</time>
      </trkpt>
      <trkpt lat="46.06077" lon="5.36931">
        <ele>236.6</ele>
        <time>2022-02-24T11:58:23Z</time>
      </trkpt>
      <trkpt lat="46.06071" lon="5.36928">
        <ele>236.6</ele>
        <time>2022-02-24T11:58:24Z</time>
      </trkpt>
      <trkpt lat="46.06065" lon="5.36925">
        <ele>236.4</ele>
        <time>2022-02-24T11:58:25Z</time>
      </trkpt>
      <trkpt lat="46.06059" lon="5.36922">
        <ele>236.4</ele>
        <time>2022-02-24T11:58:26Z</time>
      </trkpt>
      <trkpt lat="46.06053" lon="5.36919">
        <ele>236.4</ele>
        <time>2022-02-24T11:58:27Z</time>
      </trkpt>
      <trkpt lat="46.06046" lon="5.36915">
        <ele>236.4</ele>
        <time>2022-02-24T11:58:28Z</time>
      </trkpt>
      <trkpt lat="46.0604" lon="5.36912">
        <ele>236</ele>
        <time>2022-02-24T11:58:29Z</time>
      </trkpt>
      <trkpt lat="46.06034" lon="5.36909">
        <ele>236</ele>
        <time>2022-02-24T11:58:30Z</time>
      </trkpt>
      <trkpt lat="46.06028" lon="5.36905">
        <ele>236</ele>
        <time>2022-02-24T11:58:31Z</time>
      </trkpt>
      <trkpt lat="46.06022" lon="5.36902">
        <ele>236</ele>
        <time>2022-02-24T11:58:32Z</time>
      </trkpt>
      <trkpt lat="46.06016" lon="5.36899">
        <ele>236</ele>
        <time>2022-02-24T11:58:33Z</time>
      </trkpt>
      <trkpt lat="46.0601" lon="5.36895">
        <ele>236</ele>
        <time>2022-02-24T11:58:34Z</time>
      </trkpt>
      <trkpt lat="46.06004" lon="5.36892">
        <ele>236</ele>
        <time>2022-02-24T11:58:35Z</time>
      </trkpt>
      <trkpt lat="46.05998" lon="5.36889">
        <ele>235.6</ele>
        <time>2022-02-24T11:58:36Z</time>
      </trkpt>
      <trkpt lat="46.05992" lon="5.36886">
        <ele>235.4</ele>
        <time>2022-02-24T11:58:37Z</time>
      </trkpt>
      <trkpt lat="46.05986" lon="5.36883">
        <ele>235.2</ele>
        <time>2022-02-24T11:58:38Z</time>
      </trkpt>
      <trkpt lat="46.0598" lon="5.36879">
        <ele>235.2</ele>
        <time>2022-02-24T11:58:39Z</time>
      </trkpt>
      <trkpt lat="46.05975" lon="5.36876">
        <ele>235.2</ele>
        <time>2022-02-24T11:58:40Z</time>
      </trkpt>
      <trkpt lat="46.05969" lon="5.36873">
        <ele>235</ele>
        <time>2022-02-24T11:58:41Z</time>
      </trkpt>
      <trkpt lat="46.05963" lon="5.36869">
        <ele>235</ele>
        <time>2022-02-24T11:58:42Z</time>
      </trkpt>
      <trkpt lat="46.05957" lon="5.36866">
        <ele>234.8</ele>
        <time>2022-02-24T11:58:43Z</time>
      </trkpt>
      <trkpt lat="46.05951" lon="5.36863">
        <ele>234.8</ele>
        <time>2022-02-24T11:58:44Z</time>
      </trkpt>
      <trkpt lat="46.05946" lon="5.3686">
        <ele>234.4</ele>
        <time>2022-02-24T11:58:45Z</time>
      </trkpt>
      <trkpt lat="46.0594" lon="5.36857">
        <ele>234.4</ele>
        <time>2022-02-24T11:58:46Z</time>
      </trkpt>
      <trkpt lat="46.05934" lon="5.36854">
        <ele>234.4</ele>
        <time>2022-02-24T11:58:47Z</time>
      </trkpt>
      <trkpt lat="46.05929" lon="5.36851">
        <ele>234.4</ele>
        <time>2022-02-24T11:58:48Z</time>
      </trkpt>
      <trkpt lat="46.05923" lon="5.36848">
        <ele>234.8</ele>
        <time>2022-02-24T11:58:49Z</time>
      </trkpt>
      <trkpt lat="46.05918" lon="5.36845">
        <ele>234.8</ele>
        <time>2022-02-24T11:58:50Z</time>
      </trkpt>
      <trkpt lat="46.05913" lon="5.36842">
        <ele>234.8</ele>
        <time>2022-02-24T11:58:51Z</time>
      </trkpt>
      <trkpt lat="46.05907" lon="5.36839">
        <ele>234.8</ele>
        <time>2022-02-24T11:58:52Z</time>
      </trkpt>
      <trkpt lat="46.05902" lon="5.36837">
        <ele>234.6</ele>
        <time>2022-02-24T11:58:53Z</time>
      </trkpt>
      <trkpt lat="46.05897" lon="5.36834">
        <ele>234.6</ele>
        <time>2022-02-24T11:58:54Z</time>
      </trkpt>
      <trkpt lat="46.05892" lon="5.36831">
        <ele>234.6</ele>
        <time>2022-02-24T11:58:55Z</time>
      </trkpt>
      <trkpt lat="46.05887" lon="5.36829">
        <ele>234.6</ele>
        <time>2022-02-24T11:58:56Z</time>
      </trkpt>
      <trkpt lat="46.05882" lon="5.36826">
        <ele>234.6</ele>
        <time>2022-02-24T11:58:57Z</time>
      </trkpt>
      <trkpt lat="46.05877" lon="5.36824">
        <ele>234.8</ele>
        <time>2022-02-24T11:58:58Z</time>
      </trkpt>
      <trkpt lat="46.05869" lon="5.3682">
        <ele>234.8</ele>
        <time>2022-02-24T11:58:59Z</time>
      </trkpt>
      <trkpt lat="46.05867" lon="5.36818">
        <ele>235.2</ele>
        <time>2022-02-24T11:59:00Z</time>
      </trkpt>
      <trkpt lat="46.05862" lon="5.36816">
        <ele>235.2</ele>
        <time>2022-02-24T11:59:01Z</time>
      </trkpt>
      <trkpt lat="46.05857" lon="5.36813">
        <ele>235.4</ele>
        <time>2022-02-24T11:59:02Z</time>
      </trkpt>
      <trkpt lat="46.05853" lon="5.36811">
        <ele>235.6</ele>
        <time>2022-02-24T11:59:03Z</time>
      </trkpt>
      <trkpt lat="46.05848" lon="5.36808">
        <ele>235.6</ele>
        <time>2022-02-24T11:59:04Z</time>
      </trkpt>
      <trkpt lat="46.05843" lon="5.36805">
        <ele>236</ele>
        <time>2022-02-24T11:59:05Z</time>
      </trkpt>
      <trkpt lat="46.05838" lon="5.36803">
        <ele>236</ele>
        <time>2022-02-24T11:59:06Z</time>
      </trkpt>
      <trkpt lat="46.05833" lon="5.368">
        <ele>236</ele>
        <time>2022-02-24T11:59:07Z</time>
      </trkpt>
      <trkpt lat="46.05829" lon="5.36797">
        <ele>236.2</ele>
        <time>2022-02-24T11:59:08Z</time>
      </trkpt>
      <trkpt lat="46.05824" lon="5.36795">
        <ele>236.4</ele>
        <time>2022-02-24T11:59:09Z</time>
      </trkpt>
      <trkpt lat="46.05819" lon="5.36792">
        <ele>236.4</ele>
        <time>2022-02-24T11:59:10Z</time>
      </trkpt>
      <trkpt lat="46.05814" lon="5.3679">
        <ele>236.6</ele>
        <time>2022-02-24T11:59:11Z</time>
      </trkpt>
      <trkpt lat="46.05809" lon="5.36787">
        <ele>236.6</ele>
        <time>2022-02-24T11:59:12Z</time>
      </trkpt>
      <trkpt lat="46.05804" lon="5.36784">
        <ele>237</ele>
        <time>2022-02-24T11:59:13Z</time>
      </trkpt>
      <trkpt lat="46.05795" lon="5.36778">
        <ele>237</ele>
        <time>2022-02-24T11:59:14Z</time>
      </trkpt>
      <trkpt lat="46.0579" lon="5.36774">
        <ele>237</ele>
        <time>2022-02-24T11:59:15Z</time>
      </trkpt>
      <trkpt lat="46.05785" lon="5.3677">
        <ele>237.2</ele>
        <time>2022-02-24T11:59:16Z</time>
      </trkpt>
      <trkpt lat="46.05781" lon="5.36766">
        <ele>237.2</ele>
        <time>2022-02-24T11:59:17Z</time>
      </trkpt>
      <trkpt lat="46.05781" lon="5.36766">
        <ele>237.4</ele>
        <time>2022-02-24T11:59:18Z</time>
      </trkpt>
      <trkpt lat="46.05776" lon="5.36762">
        <ele>237.4</ele>
        <time>2022-02-24T11:59:19Z</time>
      </trkpt>
      <trkpt lat="46.05772" lon="5.36757">
        <ele>237.4</ele>
        <time>2022-02-24T11:59:20Z</time>
      </trkpt>
      <trkpt lat="46.05768" lon="5.36753">
        <ele>237.8</ele>
        <time>2022-02-24T11:59:21Z</time>
      </trkpt>
      <trkpt lat="46.05764" lon="5.36748">
        <ele>237.8</ele>
        <time>2022-02-24T11:59:22Z</time>
      </trkpt>
      <trkpt lat="46.0576" lon="5.36743">
        <ele>237.8</ele>
        <time>2022-02-24T11:59:23Z</time>
      </trkpt>
      <trkpt lat="46.05756" lon="5.36737">
        <ele>237.8</ele>
        <time>2022-02-24T11:59:24Z</time>
      </trkpt>
      <trkpt lat="46.05753" lon="5.36732">
        <ele>237.8</ele>
        <time>2022-02-24T11:59:25Z</time>
      </trkpt>
      <trkpt lat="46.05749" lon="5.36726">
        <ele>237.8</ele>
        <time>2022-02-24T11:59:26Z</time>
      </trkpt>
      <trkpt lat="46.05745" lon="5.3672">
        <ele>238</ele>
        <time>2022-02-24T11:59:27Z</time>
      </trkpt>
      <trkpt lat="46.05742" lon="5.36714">
        <ele>238</ele>
        <time>2022-02-24T11:59:28Z</time>
      </trkpt>
      <trkpt lat="46.05739" lon="5.36708">
        <ele>238</ele>
        <time>2022-02-24T11:59:29Z</time>
      </trkpt>
      <trkpt lat="46.05735" lon="5.36702">
        <ele>238.4</ele>
        <time>2022-02-24T11:59:30Z</time>
      </trkpt>
      <trkpt lat="46.05732" lon="5.36695">
        <ele>238.4</ele>
        <time>2022-02-24T11:59:31Z</time>
      </trkpt>
      <trkpt lat="46.05729" lon="5.36688">
        <ele>238.6</ele>
        <time>2022-02-24T11:59:32Z</time>
      </trkpt>
      <trkpt lat="46.05726" lon="5.36681">
        <ele>238.6</ele>
        <time>2022-02-24T11:59:33Z</time>
      </trkpt>
      <trkpt lat="46.05723" lon="5.36675">
        <ele>238.8</ele>
        <time>2022-02-24T11:59:34Z</time>
      </trkpt>
      <trkpt lat="46.0572" lon="5.36668">
        <ele>238.8</ele>
        <time>2022-02-24T11:59:35Z</time>
      </trkpt>
      <trkpt lat="46.05718" lon="5.36661">
        <ele>239</ele>
        <time>2022-02-24T11:59:36Z</time>
      </trkpt>
      <trkpt lat="46.05715" lon="5.36654">
        <ele>239</ele>
        <time>2022-02-24T11:59:37Z</time>
      </trkpt>
      <trkpt lat="46.05712" lon="5.36647">
        <ele>239</ele>
        <time>2022-02-24T11:59:38Z</time>
      </trkpt>
      <trkpt lat="46.05709" lon="5.3664">
        <ele>239.4</ele>
        <time>2022-02-24T11:59:39Z</time>
      </trkpt>
      <trkpt lat="46.05706" lon="5.36633">
        <ele>239.4</ele>
        <time>2022-02-24T11:59:40Z</time>
      </trkpt>
      <trkpt lat="46.05704" lon="5.36625">
        <ele>239.4</ele>
        <time>2022-02-24T11:59:41Z</time>
      </trkpt>
      <trkpt lat="46.05701" lon="5.36618">
        <ele>239.4</ele>
        <time>2022-02-24T11:59:42Z</time>
      </trkpt>
      <trkpt lat="46.05699" lon="5.36611">
        <ele>239.4</ele>
        <time>2022-02-24T11:59:43Z</time>
      </trkpt>
      <trkpt lat="46.05696" lon="5.36604">
        <ele>239.4</ele>
        <time>2022-02-24T11:59:44Z</time>
      </trkpt>
      <trkpt lat="46.05693" lon="5.36596">
        <ele>239.6</ele>
        <time>2022-02-24T11:59:45Z</time>
      </trkpt>
      <trkpt lat="46.0569" lon="5.36589">
        <ele>239.6</ele>
        <time>2022-02-24T11:59:46Z</time>
      </trkpt>
      <trkpt lat="46.05687" lon="5.36582">
        <ele>239.6</ele>
        <time>2022-02-24T11:59:47Z</time>
      </trkpt>
      <trkpt lat="46.05684" lon="5.36574">
        <ele>239.6</ele>
        <time>2022-02-24T11:59:48Z</time>
      </trkpt>
      <trkpt lat="46.05682" lon="5.36567">
        <ele>239.6</ele>
        <time>2022-02-24T11:59:49Z</time>
      </trkpt>
      <trkpt lat="46.05679" lon="5.3656">
        <ele>239.8</ele>
        <time>2022-02-24T11:59:50Z</time>
      </trkpt>
      <trkpt lat="46.05677" lon="5.36553">
        <ele>239.8</ele>
        <time>2022-02-24T11:59:51Z</time>
      </trkpt>
      <trkpt lat="46.05675" lon="5.36546">
        <ele>240.2</ele>
        <time>2022-02-24T11:59:52Z</time>
      </trkpt>
      <trkpt lat="46.05672" lon="5.36539">
        <ele>240.2</ele>
        <time>2022-02-24T11:59:53Z</time>
      </trkpt>
      <trkpt lat="46.0567" lon="5.36531">
        <ele>240.4</ele>
        <time>2022-02-24T11:59:54Z</time>
      </trkpt>
      <trkpt lat="46.05667" lon="5.36523">
        <ele>240.4</ele>
        <time>2022-02-24T11:59:55Z</time>
      </trkpt>
      <trkpt lat="46.05664" lon="5.36516">
        <ele>240.4</ele>
        <time>2022-02-24T11:59:56Z</time>
      </trkpt>
      <trkpt lat="46.05662" lon="5.36508">
        <ele>240.4</ele>
        <time>2022-02-24T11:59:57Z</time>
      </trkpt>
      <trkpt lat="46.05659" lon="5.365">
        <ele>240.4</ele>
        <time>2022-02-24T11:59:58Z</time>
      </trkpt>
      <trkpt lat="46.05656" lon="5.36492">
        <ele>240.4</ele>
        <time>2022-02-24T11:59:59Z</time>
      </trkpt>
      <trkpt lat="46.05653" lon="5.36483">
        <ele>240.2</ele>
        <time>2022-02-24T12:00:00Z</time>
      </trkpt>
      <trkpt lat="46.05649" lon="5.36474">
        <ele>240.2</ele>
        <time>2022-02-24T12:00:01Z</time>
      </trkpt>
      <trkpt lat="46.05646" lon="5.36466">
        <ele>240.2</ele>
        <time>2022-02-24T12:00:02Z</time>
      </trkpt>
      <trkpt lat="46.05643" lon="5.36457">
        <ele>240.2</ele>
        <time>2022-02-24T12:00:03Z</time>
      </trkpt>
      <trkpt lat="46.05639" lon="5.36449">
        <ele>240.2</ele>
        <time>2022-02-24T12:00:04Z</time>
      </trkpt>
      <trkpt lat="46.05636" lon="5.3644">
        <ele>240</ele>
        <time>2022-02-24T12:00:05Z</time>
      </trkpt>
      <trkpt lat="46.05633" lon="5.36431">
        <ele>240</ele>
        <time>2022-02-24T12:00:06Z</time>
      </trkpt>
      <trkpt lat="46.0563" lon="5.36422">
        <ele>240</ele>
        <time>2022-02-24T12:00:07Z</time>
      </trkpt>
      <trkpt lat="46.05626" lon="5.36413">
        <ele>239.6</ele>
        <time>2022-02-24T12:00:08Z</time>
      </trkpt>
      <trkpt lat="46.05623" lon="5.36404">
        <ele>239.6</ele>
        <time>2022-02-24T12:00:09Z</time>
      </trkpt>
      <trkpt lat="46.0562" lon="5.36396">
        <ele>239.4</ele>
        <time>2022-02-24T12:00:10Z</time>
      </trkpt>
      <trkpt lat="46.05617" lon="5.36388">
        <ele>239.4</ele>
        <time>2022-02-24T12:00:11Z</time>
      </trkpt>
      <trkpt lat="46.05613" lon="5.3638">
        <ele>239.2</ele>
        <time>2022-02-24T12:00:12Z</time>
      </trkpt>
      <trkpt lat="46.0561" lon="5.36372">
        <ele>239.2</ele>
        <time>2022-02-24T12:00:13Z</time>
      </trkpt>
      <trkpt lat="46.05607" lon="5.36363">
        <ele>239.2</ele>
        <time>2022-02-24T12:00:14Z</time>
      </trkpt>
      <trkpt lat="46.05604" lon="5.36355">
        <ele>239.2</ele>
        <time>2022-02-24T12:00:15Z</time>
      </trkpt>
      <trkpt lat="46.05601" lon="5.36347">
        <ele>239.2</ele>
        <time>2022-02-24T12:00:16Z</time>
      </trkpt>
      <trkpt lat="46.05598" lon="5.36339">
        <ele>239.6</ele>
        <time>2022-02-24T12:00:17Z</time>
      </trkpt>
      <trkpt lat="46.05595" lon="5.36331">
        <ele>239.6</ele>
        <time>2022-02-24T12:00:18Z</time>
      </trkpt>
      <trkpt lat="46.05592" lon="5.36323">
        <ele>239.6</ele>
        <time>2022-02-24T12:00:19Z</time>
      </trkpt>
      <trkpt lat="46.05588" lon="5.36315">
        <ele>239.6</ele>
        <time>2022-02-24T12:00:20Z</time>
      </trkpt>
      <trkpt lat="46.05585" lon="5.36307">
        <ele>239.6</ele>
        <time>2022-02-24T12:00:21Z</time>
      </trkpt>
      <trkpt lat="46.05582" lon="5.36299">
        <ele>239.6</ele>
        <time>2022-02-24T12:00:22Z</time>
      </trkpt>
      <trkpt lat="46.05579" lon="5.36291">
        <ele>239.6</ele>
        <time>2022-02-24T12:00:23Z</time>
      </trkpt>
      <trkpt lat="46.05576" lon="5.36283">
        <ele>239.6</ele>
        <time>2022-02-24T12:00:24Z</time>
      </trkpt>
      <trkpt lat="46.05573" lon="5.36275">
        <ele>239.6</ele>
        <time>2022-02-24T12:00:25Z</time>
      </trkpt>
      <trkpt lat="46.0557" lon="5.36267">
        <ele>239.4</ele>
        <time>2022-02-24T12:00:26Z</time>
      </trkpt>
      <trkpt lat="46.05567" lon="5.36259">
        <ele>239.4</ele>
        <time>2022-02-24T12:00:27Z</time>
      </trkpt>
      <trkpt lat="46.05564" lon="5.36251">
        <ele>239.4</ele>
        <time>2022-02-24T12:00:28Z</time>
      </trkpt>
      <trkpt lat="46.05561" lon="5.36242">
        <ele>239.4</ele>
        <time>2022-02-24T12:00:29Z</time>
      </trkpt>
      <trkpt lat="46.05557" lon="5.3623">
        <ele>239</ele>
        <time>2022-02-24T12:00:30Z</time>
      </trkpt>
      <trkpt lat="46.05556" lon="5.36226">
        <ele>239</ele>
        <time>2022-02-24T12:00:31Z</time>
      </trkpt>
      <trkpt lat="46.05553" lon="5.36217">
        <ele>239</ele>
        <time>2022-02-24T12:00:32Z</time>
      </trkpt>
      <trkpt lat="46.05551" lon="5.36209">
        <ele>238.8</ele>
        <time>2022-02-24T12:00:33Z</time>
      </trkpt>
      <trkpt lat="46.05549" lon="5.362">
        <ele>238.8</ele>
        <time>2022-02-24T12:00:34Z</time>
      </trkpt>
      <trkpt lat="46.05547" lon="5.36192">
        <ele>238.8</ele>
        <time>2022-02-24T12:00:35Z</time>
      </trkpt>
      <trkpt lat="46.05545" lon="5.36184">
        <ele>238.4</ele>
        <time>2022-02-24T12:00:36Z</time>
      </trkpt>
      <trkpt lat="46.05544" lon="5.36175">
        <ele>238.4</ele>
        <time>2022-02-24T12:00:37Z</time>
      </trkpt>
      <trkpt lat="46.05542" lon="5.36167">
        <ele>238.4</ele>
        <time>2022-02-24T12:00:38Z</time>
      </trkpt>
      <trkpt lat="46.05541" lon="5.36158">
        <ele>238.6</ele>
        <time>2022-02-24T12:00:39Z</time>
      </trkpt>
      <trkpt lat="46.05541" lon="5.36149">
        <ele>238.6</ele>
        <time>2022-02-24T12:00:40Z</time>
      </trkpt>
      <trkpt lat="46.0554" lon="5.3614">
        <ele>238.8</ele>
        <time>2022-02-24T12:00:41Z</time>
      </trkpt>
      <trkpt lat="46.05539" lon="5.36132">
        <ele>238.8</ele>
        <time>2022-02-24T12:00:42Z</time>
      </trkpt>
      <trkpt lat="46.05539" lon="5.36123">
        <ele>238.8</ele>
        <time>2022-02-24T12:00:43Z</time>
      </trkpt>
      <trkpt lat="46.05538" lon="5.36115">
        <ele>238.8</ele>
        <time>2022-02-24T12:00:44Z</time>
      </trkpt>
      <trkpt lat="46.05538" lon="5.36106">
        <ele>238.8</ele>
        <time>2022-02-24T12:00:45Z</time>
      </trkpt>
      <trkpt lat="46.05537" lon="5.36098">
        <ele>238.8</ele>
        <time>2022-02-24T12:00:46Z</time>
      </trkpt>
      <trkpt lat="46.05537" lon="5.3609">
        <ele>238.8</ele>
        <time>2022-02-24T12:00:47Z</time>
      </trkpt>
      <trkpt lat="46.05536" lon="5.36081">
        <ele>239</ele>
        <time>2022-02-24T12:00:48Z</time>
      </trkpt>
      <trkpt lat="46.05536" lon="5.36073">
        <ele>239</ele>
        <time>2022-02-24T12:00:49Z</time>
      </trkpt>
      <trkpt lat="46.05536" lon="5.36065">
        <ele>239</ele>
        <time>2022-02-24T12:00:50Z</time>
      </trkpt>
      <trkpt lat="46.05536" lon="5.36056">
        <ele>239</ele>
        <time>2022-02-24T12:00:51Z</time>
      </trkpt>
      <trkpt lat="46.05536" lon="5.36048">
        <ele>239</ele>
        <time>2022-02-24T12:00:52Z</time>
      </trkpt>
      <trkpt lat="46.05535" lon="5.3604">
        <ele>239</ele>
        <time>2022-02-24T12:00:53Z</time>
      </trkpt>
      <trkpt lat="46.05535" lon="5.36032">
        <ele>239</ele>
        <time>2022-02-24T12:00:54Z</time>
      </trkpt>
      <trkpt lat="46.05535" lon="5.36024">
        <ele>239.4</ele>
        <time>2022-02-24T12:00:55Z</time>
      </trkpt>
      <trkpt lat="46.05535" lon="5.36016">
        <ele>239.4</ele>
        <time>2022-02-24T12:00:56Z</time>
      </trkpt>
      <trkpt lat="46.05535" lon="5.36007">
        <ele>239.6</ele>
        <time>2022-02-24T12:00:57Z</time>
      </trkpt>
      <trkpt lat="46.05535" lon="5.35999">
        <ele>239.6</ele>
        <time>2022-02-24T12:00:58Z</time>
      </trkpt>
      <trkpt lat="46.05535" lon="5.35987">
        <ele>240</ele>
        <time>2022-02-24T12:00:59Z</time>
      </trkpt>
      <trkpt lat="46.05535" lon="5.35983">
        <ele>240</ele>
        <time>2022-02-24T12:01:00Z</time>
      </trkpt>
      <trkpt lat="46.05535" lon="5.35975">
        <ele>240</ele>
        <time>2022-02-24T12:01:01Z</time>
      </trkpt>
      <trkpt lat="46.05535" lon="5.35966">
        <ele>240</ele>
        <time>2022-02-24T12:01:02Z</time>
      </trkpt>
      <trkpt lat="46.05534" lon="5.35958">
        <ele>240</ele>
        <time>2022-02-24T12:01:03Z</time>
      </trkpt>
      <trkpt lat="46.05534" lon="5.35949">
        <ele>240</ele>
        <time>2022-02-24T12:01:04Z</time>
      </trkpt>
      <trkpt lat="46.05534" lon="5.35941">
        <ele>240</ele>
        <time>2022-02-24T12:01:05Z</time>
      </trkpt>
      <trkpt lat="46.05534" lon="5.35932">
        <ele>240</ele>
        <time>2022-02-24T12:01:06Z</time>
      </trkpt>
      <trkpt lat="46.05533" lon="5.35924">
        <ele>240.2</ele>
        <time>2022-02-24T12:01:07Z</time>
      </trkpt>
      <trkpt lat="46.05533" lon="5.35915">
        <ele>240.6</ele>
        <time>2022-02-24T12:01:08Z</time>
      </trkpt>
      <trkpt lat="46.05533" lon="5.35907">
        <ele>240.6</ele>
        <time>2022-02-24T12:01:09Z</time>
      </trkpt>
      <trkpt lat="46.05533" lon="5.35898">
        <ele>240.6</ele>
        <time>2022-02-24T12:01:10Z</time>
      </trkpt>
      <trkpt lat="46.05533" lon="5.35889">
        <ele>240.4</ele>
        <time>2022-02-24T12:01:11Z</time>
      </trkpt>
      <trkpt lat="46.05533" lon="5.3588">
        <ele>240.2</ele>
        <time>2022-02-24T12:01:12Z</time>
      </trkpt>
      <trkpt lat="46.05532" lon="5.3587">
        <ele>240.2</ele>
        <time>2022-02-24T12:01:13Z</time>
      </trkpt>
      <trkpt lat="46.05532" lon="5.35861">
        <ele>239.8</ele>
        <time>2022-02-24T12:01:14Z</time>
      </trkpt>
      <trkpt lat="46.05532" lon="5.35851">
        <ele>239.8</ele>
        <time>2022-02-24T12:01:15Z</time>
      </trkpt>
      <trkpt lat="46.05532" lon="5.35841">
        <ele>239.4</ele>
        <time>2022-02-24T12:01:16Z</time>
      </trkpt>
      <trkpt lat="46.05531" lon="5.35831">
        <ele>239.4</ele>
        <time>2022-02-24T12:01:17Z</time>
      </trkpt>
      <trkpt lat="46.05531" lon="5.35821">
        <ele>239</ele>
        <time>2022-02-24T12:01:18Z</time>
      </trkpt>
      <trkpt lat="46.05531" lon="5.3581">
        <ele>239</ele>
        <time>2022-02-24T12:01:19Z</time>
      </trkpt>
      <trkpt lat="46.05531" lon="5.358">
        <ele>238.8</ele>
        <time>2022-02-24T12:01:20Z</time>
      </trkpt>
      <trkpt lat="46.05531" lon="5.35789">
        <ele>238.8</ele>
        <time>2022-02-24T12:01:21Z</time>
      </trkpt>
      <trkpt lat="46.0553" lon="5.35779">
        <ele>238.4</ele>
        <time>2022-02-24T12:01:22Z</time>
      </trkpt>
      <trkpt lat="46.0553" lon="5.35768">
        <ele>238.4</ele>
        <time>2022-02-24T12:01:23Z</time>
      </trkpt>
      <trkpt lat="46.0553" lon="5.35757">
        <ele>238.4</ele>
        <time>2022-02-24T12:01:24Z</time>
      </trkpt>
      <trkpt lat="46.0553" lon="5.35746">
        <ele>238.2</ele>
        <time>2022-02-24T12:01:25Z</time>
      </trkpt>
      <trkpt lat="46.05529" lon="5.35735">
        <ele>238.2</ele>
        <time>2022-02-24T12:01:26Z</time>
      </trkpt>
      <trkpt lat="46.05529" lon="5.35724">
        <ele>238.2</ele>
        <time>2022-02-24T12:01:27Z</time>
      </trkpt>
      <trkpt lat="46.05528" lon="5.35713">
        <ele>238.2</ele>
        <time>2022-02-24T12:01:28Z</time>
      </trkpt>
      <trkpt lat="46.05528" lon="5.35702">
        <ele>238.2</ele>
        <time>2022-02-24T12:01:29Z</time>
      </trkpt>
      <trkpt lat="46.05528" lon="5.35691">
        <ele>238.2</ele>
        <time>2022-02-24T12:01:30Z</time>
      </trkpt>
      <trkpt lat="46.05528" lon="5.3568">
        <ele>238.2</ele>
        <time>2022-02-24T12:01:31Z</time>
      </trkpt>
      <trkpt lat="46.05528" lon="5.35669">
        <ele>238.2</ele>
        <time>2022-02-24T12:01:32Z</time>
      </trkpt>
      <trkpt lat="46.05527" lon="5.35658">
        <ele>238.2</ele>
        <time>2022-02-24T12:01:33Z</time>
      </trkpt>
      <trkpt lat="46.05527" lon="5.35648">
        <ele>238.2</ele>
        <time>2022-02-24T12:01:34Z</time>
      </trkpt>
      <trkpt lat="46.05526" lon="5.35637">
        <ele>238.2</ele>
        <time>2022-02-24T12:01:35Z</time>
      </trkpt>
      <trkpt lat="46.05526" lon="5.35626">
        <ele>238.2</ele>
        <time>2022-02-24T12:01:36Z</time>
      </trkpt>
      <trkpt lat="46.05526" lon="5.35616">
        <ele>238</ele>
        <time>2022-02-24T12:01:37Z</time>
      </trkpt>
      <trkpt lat="46.05525" lon="5.35605">
        <ele>238</ele>
        <time>2022-02-24T12:01:38Z</time>
      </trkpt>
      <trkpt lat="46.05525" lon="5.35594">
        <ele>238</ele>
        <time>2022-02-24T12:01:39Z</time>
      </trkpt>
      <trkpt lat="46.05525" lon="5.35583">
        <ele>237.8</ele>
        <time>2022-02-24T12:01:40Z</time>
      </trkpt>
      <trkpt lat="46.05524" lon="5.35573">
        <ele>237.8</ele>
        <time>2022-02-24T12:01:41Z</time>
      </trkpt>
      <trkpt lat="46.05524" lon="5.35562">
        <ele>237.8</ele>
        <time>2022-02-24T12:01:42Z</time>
      </trkpt>
      <trkpt lat="46.05524" lon="5.35552">
        <ele>237.6</ele>
        <time>2022-02-24T12:01:43Z</time>
      </trkpt>
      <trkpt lat="46.05524" lon="5.35541">
        <ele>237.6</ele>
        <time>2022-02-24T12:01:44Z</time>
      </trkpt>
      <trkpt lat="46.05524" lon="5.35531">
        <ele>237.6</ele>
        <time>2022-02-24T12:01:45Z</time>
      </trkpt>
      <trkpt lat="46.05523" lon="5.3552">
        <ele>237.6</ele>
        <time>2022-02-24T12:01:46Z</time>
      </trkpt>
      <trkpt lat="46.05523" lon="5.3551">
        <ele>237.6</ele>
        <time>2022-02-24T12:01:47Z</time>
      </trkpt>
      <trkpt lat="46.05523" lon="5.355">
        <ele>237.6</ele>
        <time>2022-02-24T12:01:48Z</time>
      </trkpt>
      <trkpt lat="46.05523" lon="5.3549">
        <ele>237.6</ele>
        <time>2022-02-24T12:01:49Z</time>
      </trkpt>
      <trkpt lat="46.05523" lon="5.3548">
        <ele>237.6</ele>
        <time>2022-02-24T12:01:50Z</time>
      </trkpt>
      <trkpt lat="46.05522" lon="5.3547">
        <ele>237.6</ele>
        <time>2022-02-24T12:01:51Z</time>
      </trkpt>
      <trkpt lat="46.05522" lon="5.3546">
        <ele>237.6</ele>
        <time>2022-02-24T12:01:52Z</time>
      </trkpt>
      <trkpt lat="46.05521" lon="5.3545">
        <ele>237.6</ele>
        <time>2022-02-24T12:01:53Z</time>
      </trkpt>
      <trkpt lat="46.05521" lon="5.3544">
        <ele>237.6</ele>
        <time>2022-02-24T12:01:54Z</time>
      </trkpt>
      <trkpt lat="46.0552" lon="5.3543">
        <ele>237.4</ele>
        <time>2022-02-24T12:01:55Z</time>
      </trkpt>
      <trkpt lat="46.0552" lon="5.35421">
        <ele>237.4</ele>
        <time>2022-02-24T12:01:56Z</time>
      </trkpt>
      <trkpt lat="46.0552" lon="5.35411">
        <ele>237.4</ele>
        <time>2022-02-24T12:01:57Z</time>
      </trkpt>
      <trkpt lat="46.0552" lon="5.35401">
        <ele>237.4</ele>
        <time>2022-02-24T12:01:58Z</time>
      </trkpt>
      <trkpt lat="46.0552" lon="5.35391">
        <ele>237.4</ele>
        <time>2022-02-24T12:01:59Z</time>
      </trkpt>
      <trkpt lat="46.0552" lon="5.35382">
        <ele>237.4</ele>
        <time>2022-02-24T12:02:00Z</time>
      </trkpt>
      <trkpt lat="46.0552" lon="5.35372">
        <ele>237.4</ele>
        <time>2022-02-24T12:02:01Z</time>
      </trkpt>
      <trkpt lat="46.05519" lon="5.35363">
        <ele>237.4</ele>
        <time>2022-02-24T12:02:02Z</time>
      </trkpt>
      <trkpt lat="46.05519" lon="5.35353">
        <ele>237.6</ele>
        <time>2022-02-24T12:02:03Z</time>
      </trkpt>
      <trkpt lat="46.05519" lon="5.35343">
        <ele>237.6</ele>
        <time>2022-02-24T12:02:04Z</time>
      </trkpt>
      <trkpt lat="46.05519" lon="5.35333">
        <ele>237.6</ele>
        <time>2022-02-24T12:02:05Z</time>
      </trkpt>
      <trkpt lat="46.05519" lon="5.35323">
        <ele>237.6</ele>
        <time>2022-02-24T12:02:06Z</time>
      </trkpt>
      <trkpt lat="46.05518" lon="5.35314">
        <ele>237.6</ele>
        <time>2022-02-24T12:02:07Z</time>
      </trkpt>
      <trkpt lat="46.05518" lon="5.35304">
        <ele>237.4</ele>
        <time>2022-02-24T12:02:08Z</time>
      </trkpt>
      <trkpt lat="46.05518" lon="5.35295">
        <ele>237.4</ele>
        <time>2022-02-24T12:02:09Z</time>
      </trkpt>
      <trkpt lat="46.05518" lon="5.35285">
        <ele>237.4</ele>
        <time>2022-02-24T12:02:10Z</time>
      </trkpt>
      <trkpt lat="46.05517" lon="5.35275">
        <ele>237.4</ele>
        <time>2022-02-24T12:02:11Z</time>
      </trkpt>
      <trkpt lat="46.05516" lon="5.35266">
        <ele>237.4</ele>
        <time>2022-02-24T12:02:12Z</time>
      </trkpt>
      <trkpt lat="46.05515" lon="5.35256">
        <ele>237.4</ele>
        <time>2022-02-24T12:02:13Z</time>
      </trkpt>
      <trkpt lat="46.05514" lon="5.35246">
        <ele>237.4</ele>
        <time>2022-02-24T12:02:14Z</time>
      </trkpt>
      <trkpt lat="46.05513" lon="5.35237">
        <ele>237.4</ele>
        <time>2022-02-24T12:02:15Z</time>
      </trkpt>
      <trkpt lat="46.05512" lon="5.35227">
        <ele>237.4</ele>
        <time>2022-02-24T12:02:16Z</time>
      </trkpt>
      <trkpt lat="46.0551" lon="5.35218">
        <ele>237.4</ele>
        <time>2022-02-24T12:02:17Z</time>
      </trkpt>
      <trkpt lat="46.05508" lon="5.35208">
        <ele>237.4</ele>
        <time>2022-02-24T12:02:18Z</time>
      </trkpt>
      <trkpt lat="46.05507" lon="5.35199">
        <ele>237.4</ele>
        <time>2022-02-24T12:02:19Z</time>
      </trkpt>
      <trkpt lat="46.05505" lon="5.35191">
        <ele>237.4</ele>
        <time>2022-02-24T12:02:20Z</time>
      </trkpt>
      <trkpt lat="46.05505" lon="5.35182">
        <ele>237.6</ele>
        <time>2022-02-24T12:02:21Z</time>
      </trkpt>
      <trkpt lat="46.05504" lon="5.35173">
        <ele>237.6</ele>
        <time>2022-02-24T12:02:22Z</time>
      </trkpt>
      <trkpt lat="46.05503" lon="5.35165">
        <ele>237.6</ele>
        <time>2022-02-24T12:02:23Z</time>
      </trkpt>
      <trkpt lat="46.05502" lon="5.35157">
        <ele>237.6</ele>
        <time>2022-02-24T12:02:24Z</time>
      </trkpt>
      <trkpt lat="46.05501" lon="5.35149">
        <ele>237.8</ele>
        <time>2022-02-24T12:02:25Z</time>
      </trkpt>
      <trkpt lat="46.055" lon="5.35141">
        <ele>237.8</ele>
        <time>2022-02-24T12:02:26Z</time>
      </trkpt>
      <trkpt lat="46.05499" lon="5.35133">
        <ele>238</ele>
        <time>2022-02-24T12:02:27Z</time>
      </trkpt>
      <trkpt lat="46.05498" lon="5.35125">
        <ele>238</ele>
        <time>2022-02-24T12:02:28Z</time>
      </trkpt>
      <trkpt lat="46.05496" lon="5.35117">
        <ele>238</ele>
        <time>2022-02-24T12:02:29Z</time>
      </trkpt>
      <trkpt lat="46.05496" lon="5.35109">
        <ele>238</ele>
        <time>2022-02-24T12:02:30Z</time>
      </trkpt>
      <trkpt lat="46.05495" lon="5.35101">
        <ele>238</ele>
        <time>2022-02-24T12:02:31Z</time>
      </trkpt>
      <trkpt lat="46.05495" lon="5.35093">
        <ele>238.2</ele>
        <time>2022-02-24T12:02:32Z</time>
      </trkpt>
      <trkpt lat="46.05493" lon="5.35085">
        <ele>238.2</ele>
        <time>2022-02-24T12:02:33Z</time>
      </trkpt>
      <trkpt lat="46.05492" lon="5.35078">
        <ele>238.4</ele>
        <time>2022-02-24T12:02:34Z</time>
      </trkpt>
      <trkpt lat="46.05491" lon="5.3507">
        <ele>238.4</ele>
        <time>2022-02-24T12:02:35Z</time>
      </trkpt>
      <trkpt lat="46.05489" lon="5.35062">
        <ele>238.4</ele>
        <time>2022-02-24T12:02:36Z</time>
      </trkpt>
      <trkpt lat="46.05488" lon="5.35054">
        <ele>238.4</ele>
        <time>2022-02-24T12:02:37Z</time>
      </trkpt>
      <trkpt lat="46.05486" lon="5.35046">
        <ele>238.4</ele>
        <time>2022-02-24T12:02:38Z</time>
      </trkpt>
      <trkpt lat="46.05484" lon="5.35038">
        <ele>238.4</ele>
        <time>2022-02-24T12:02:39Z</time>
      </trkpt>
      <trkpt lat="46.05481" lon="5.35031">
        <ele>238.2</ele>
        <time>2022-02-24T12:02:40Z</time>
      </trkpt>
      <trkpt lat="46.05479" lon="5.35023">
        <ele>238.2</ele>
        <time>2022-02-24T12:02:41Z</time>
      </trkpt>
      <trkpt lat="46.05476" lon="5.35015">
        <ele>238.2</ele>
        <time>2022-02-24T12:02:42Z</time>
      </trkpt>
      <trkpt lat="46.05472" lon="5.35003">
        <ele>238.2</ele>
        <time>2022-02-24T12:02:43Z</time>
      </trkpt>
      <trkpt lat="46.0547" lon="5.34999">
        <ele>238.2</ele>
        <time>2022-02-24T12:02:44Z</time>
      </trkpt>
      <trkpt lat="46.05467" lon="5.34992">
        <ele>238.2</ele>
        <time>2022-02-24T12:02:45Z</time>
      </trkpt>
      <trkpt lat="46.05463" lon="5.34984">
        <ele>238.2</ele>
        <time>2022-02-24T12:02:46Z</time>
      </trkpt>
      <trkpt lat="46.05459" lon="5.34975">
        <ele>238.2</ele>
        <time>2022-02-24T12:02:47Z</time>
      </trkpt>
      <trkpt lat="46.05456" lon="5.34968">
        <ele>238.2</ele>
        <time>2022-02-24T12:02:48Z</time>
      </trkpt>
      <trkpt lat="46.05452" lon="5.3496">
        <ele>238.2</ele>
        <time>2022-02-24T12:02:49Z</time>
      </trkpt>
      <trkpt lat="46.05449" lon="5.34954">
        <ele>238.2</ele>
        <time>2022-02-24T12:02:50Z</time>
      </trkpt>
      <trkpt lat="46.05446" lon="5.34947">
        <ele>238.2</ele>
        <time>2022-02-24T12:02:51Z</time>
      </trkpt>
      <trkpt lat="46.05443" lon="5.34941">
        <ele>238.2</ele>
        <time>2022-02-24T12:02:52Z</time>
      </trkpt>
      <trkpt lat="46.0544" lon="5.34935">
        <ele>238.2</ele>
        <time>2022-02-24T12:02:53Z</time>
      </trkpt>
      <trkpt lat="46.05438" lon="5.3493">
        <ele>238.2</ele>
        <time>2022-02-24T12:02:54Z</time>
      </trkpt>
      <trkpt lat="46.05436" lon="5.34926">
        <ele>238.2</ele>
        <time>2022-02-24T12:02:55Z</time>
      </trkpt>
      <trkpt lat="46.05434" lon="5.34922">
        <ele>238.2</ele>
        <time>2022-02-24T12:02:56Z</time>
      </trkpt>
      <trkpt lat="46.05433" lon="5.34918">
        <ele>238.2</ele>
        <time>2022-02-24T12:02:57Z</time>
      </trkpt>
      <trkpt lat="46.05431" lon="5.34913">
        <ele>238.2</ele>
        <time>2022-02-24T12:02:58Z</time>
      </trkpt>
      <trkpt lat="46.05428" lon="5.34906">
        <ele>238.2</ele>
        <time>2022-02-24T12:02:59Z</time>
      </trkpt>
      <trkpt lat="46.05427" lon="5.34904">
        <ele>238.4</ele>
        <time>2022-02-24T12:03:00Z</time>
      </trkpt>
      <trkpt lat="46.05425" lon="5.34899">
        <ele>238.4</ele>
        <time>2022-02-24T12:03:01Z</time>
      </trkpt>
      <trkpt lat="46.05423" lon="5.34893">
        <ele>238.4</ele>
        <time>2022-02-24T12:03:02Z</time>
      </trkpt>
      <trkpt lat="46.05421" lon="5.34888">
        <ele>238.4</ele>
        <time>2022-02-24T12:03:03Z</time>
      </trkpt>
      <trkpt lat="46.05419" lon="5.34882">
        <ele>238.4</ele>
        <time>2022-02-24T12:03:04Z</time>
      </trkpt>
      <trkpt lat="46.05416" lon="5.34877">
        <ele>238.4</ele>
        <time>2022-02-24T12:03:05Z</time>
      </trkpt>
      <trkpt lat="46.05414" lon="5.34871">
        <ele>238.4</ele>
        <time>2022-02-24T12:03:06Z</time>
      </trkpt>
      <trkpt lat="46.05412" lon="5.34866">
        <ele>238.4</ele>
        <time>2022-02-24T12:03:07Z</time>
      </trkpt>
      <trkpt lat="46.05411" lon="5.3486">
        <ele>238.4</ele>
        <time>2022-02-24T12:03:08Z</time>
      </trkpt>
      <trkpt lat="46.05409" lon="5.34855">
        <ele>238.4</ele>
        <time>2022-02-24T12:03:09Z</time>
      </trkpt>
      <trkpt lat="46.05407" lon="5.3485">
        <ele>238.4</ele>
        <time>2022-02-24T12:03:10Z</time>
      </trkpt>
      <trkpt lat="46.05405" lon="5.34844">
        <ele>238.4</ele>
        <time>2022-02-24T12:03:11Z</time>
      </trkpt>
      <trkpt lat="46.05403" lon="5.34839">
        <ele>238.4</ele>
        <time>2022-02-24T12:03:12Z</time>
      </trkpt>
      <trkpt lat="46.05402" lon="5.34834">
        <ele>238.4</ele>
        <time>2022-02-24T12:03:13Z</time>
      </trkpt>
      <trkpt lat="46.054" lon="5.34829">
        <ele>238.4</ele>
        <time>2022-02-24T12:03:14Z</time>
      </trkpt>
      <trkpt lat="46.05398" lon="5.34824">
        <ele>238.4</ele>
        <time>2022-02-24T12:03:15Z</time>
      </trkpt>
      <trkpt lat="46.05396" lon="5.34819">
        <ele>238.4</ele>
        <time>2022-02-24T12:03:16Z</time>
      </trkpt>
      <trkpt lat="46.05394" lon="5.34814">
        <ele>238.4</ele>
        <time>2022-02-24T12:03:17Z</time>
      </trkpt>
      <trkpt lat="46.05392" lon="5.34806">
        <ele>238.4</ele>
        <time>2022-02-24T12:03:18Z</time>
      </trkpt>
      <trkpt lat="46.05391" lon="5.34804">
        <ele>238.4</ele>
        <time>2022-02-24T12:03:19Z</time>
      </trkpt>
      <trkpt lat="46.0539" lon="5.348">
        <ele>238.2</ele>
        <time>2022-02-24T12:03:20Z</time>
      </trkpt>
      <trkpt lat="46.05388" lon="5.34796">
        <ele>238.2</ele>
        <time>2022-02-24T12:03:21Z</time>
      </trkpt>
      <trkpt lat="46.05386" lon="5.34792">
        <ele>238.2</ele>
        <time>2022-02-24T12:03:22Z</time>
      </trkpt>
      <trkpt lat="46.05385" lon="5.34789">
        <ele>238.2</ele>
        <time>2022-02-24T12:03:23Z</time>
      </trkpt>
      <trkpt lat="46.05383" lon="5.34787">
        <ele>238.2</ele>
        <time>2022-02-24T12:03:24Z</time>
      </trkpt>
      <trkpt lat="46.05381" lon="5.34784">
        <ele>238.2</ele>
        <time>2022-02-24T12:03:25Z</time>
      </trkpt>
      <trkpt lat="46.0538" lon="5.34781">
        <ele>238.2</ele>
        <time>2022-02-24T12:03:26Z</time>
      </trkpt>
      <trkpt lat="46.0538" lon="5.34778">
        <ele>238.2</ele>
        <time>2022-02-24T12:03:27Z</time>
      </trkpt>
      <trkpt lat="46.05379" lon="5.34774">
        <ele>238</ele>
        <time>2022-02-24T12:03:28Z</time>
      </trkpt>
      <trkpt lat="46.05378" lon="5.3477">
        <ele>238</ele>
        <time>2022-02-24T12:03:29Z</time>
      </trkpt>
      <trkpt lat="46.05377" lon="5.34766">
        <ele>238</ele>
        <time>2022-02-24T12:03:30Z</time>
      </trkpt>
      <trkpt lat="46.05375" lon="5.34761">
        <ele>238</ele>
        <time>2022-02-24T12:03:31Z</time>
      </trkpt>
      <trkpt lat="46.05373" lon="5.34756">
        <ele>237.8</ele>
        <time>2022-02-24T12:03:32Z</time>
      </trkpt>
      <trkpt lat="46.05371" lon="5.34751">
        <ele>237.8</ele>
        <time>2022-02-24T12:03:33Z</time>
      </trkpt>
      <trkpt lat="46.05368" lon="5.34745">
        <ele>237.4</ele>
        <time>2022-02-24T12:03:34Z</time>
      </trkpt>
      <trkpt lat="46.05365" lon="5.34739">
        <ele>237.4</ele>
        <time>2022-02-24T12:03:35Z</time>
      </trkpt>
      <trkpt lat="46.05363" lon="5.34733">
        <ele>237.4</ele>
        <time>2022-02-24T12:03:36Z</time>
      </trkpt>
      <trkpt lat="46.0536" lon="5.34728">
        <ele>237.2</ele>
        <time>2022-02-24T12:03:37Z</time>
      </trkpt>
      <trkpt lat="46.05357" lon="5.34722">
        <ele>236.8</ele>
        <time>2022-02-24T12:03:38Z</time>
      </trkpt>
      <trkpt lat="46.05354" lon="5.34716">
        <ele>236.6</ele>
        <time>2022-02-24T12:03:39Z</time>
      </trkpt>
      <trkpt lat="46.05351" lon="5.34712">
        <ele>236.2</ele>
        <time>2022-02-24T12:03:40Z</time>
      </trkpt>
      <trkpt lat="46.05346" lon="5.34708">
        <ele>236</ele>
        <time>2022-02-24T12:03:41Z</time>
      </trkpt>
      <trkpt lat="46.05341" lon="5.34705">
        <ele>235.8</ele>
        <time>2022-02-24T12:03:42Z</time>
      </trkpt>
      <trkpt lat="46.05336" lon="5.34702">
        <ele>235.8</ele>
        <time>2022-02-24T12:03:43Z</time>
      </trkpt>
      <trkpt lat="46.0533" lon="5.347">
        <ele>235.4</ele>
        <time>2022-02-24T12:03:44Z</time>
      </trkpt>
      <trkpt lat="46.05324" lon="5.34698">
        <ele>235.4</ele>
        <time>2022-02-24T12:03:45Z</time>
      </trkpt>
      <trkpt lat="46.05317" lon="5.34697">
        <ele>235.4</ele>
        <time>2022-02-24T12:03:46Z</time>
      </trkpt>
      <trkpt lat="46.05311" lon="5.34695">
        <ele>235.4</ele>
        <time>2022-02-24T12:03:47Z</time>
      </trkpt>
      <trkpt lat="46.05304" lon="5.34692">
        <ele>235</ele>
        <time>2022-02-24T12:03:48Z</time>
      </trkpt>
      <trkpt lat="46.05298" lon="5.34689">
        <ele>234.8</ele>
        <time>2022-02-24T12:03:49Z</time>
      </trkpt>
      <trkpt lat="46.05293" lon="5.34683">
        <ele>234.6</ele>
        <time>2022-02-24T12:03:50Z</time>
      </trkpt>
      <trkpt lat="46.05287" lon="5.34677">
        <ele>234.2</ele>
        <time>2022-02-24T12:03:51Z</time>
      </trkpt>
      <trkpt lat="46.05282" lon="5.34671">
        <ele>234</ele>
        <time>2022-02-24T12:03:52Z</time>
      </trkpt>
      <trkpt lat="46.05276" lon="5.34666">
        <ele>233.6</ele>
        <time>2022-02-24T12:03:53Z</time>
      </trkpt>
      <trkpt lat="46.0527" lon="5.3466">
        <ele>233.2</ele>
        <time>2022-02-24T12:03:54Z</time>
      </trkpt>
      <trkpt lat="46.05264" lon="5.34654">
        <ele>232.8</ele>
        <time>2022-02-24T12:03:55Z</time>
      </trkpt>
      <trkpt lat="46.05258" lon="5.34645">
        <ele>232.4</ele>
        <time>2022-02-24T12:03:56Z</time>
      </trkpt>
      <trkpt lat="46.05252" lon="5.34637">
        <ele>232.2</ele>
        <time>2022-02-24T12:03:57Z</time>
      </trkpt>
      <trkpt lat="46.05246" lon="5.3463">
        <ele>232</ele>
        <time>2022-02-24T12:03:58Z</time>
      </trkpt>
      <trkpt lat="46.0524" lon="5.34623">
        <ele>232</ele>
        <time>2022-02-24T12:03:59Z</time>
      </trkpt>
      <trkpt lat="46.05234" lon="5.34617">
        <ele>231.8</ele>
        <time>2022-02-24T12:04:00Z</time>
      </trkpt>
      <trkpt lat="46.05228" lon="5.34612">
        <ele>231.8</ele>
        <time>2022-02-24T12:04:01Z</time>
      </trkpt>
      <trkpt lat="46.05222" lon="5.34607">
        <ele>231.8</ele>
        <time>2022-02-24T12:04:02Z</time>
      </trkpt>
      <trkpt lat="46.05215" lon="5.34602">
        <ele>231.8</ele>
        <time>2022-02-24T12:04:03Z</time>
      </trkpt>
      <trkpt lat="46.05209" lon="5.34597">
        <ele>231.8</ele>
        <time>2022-02-24T12:04:04Z</time>
      </trkpt>
      <trkpt lat="46.05203" lon="5.34592">
        <ele>231.8</ele>
        <time>2022-02-24T12:04:05Z</time>
      </trkpt>
      <trkpt lat="46.05196" lon="5.34587">
        <ele>231.8</ele>
        <time>2022-02-24T12:04:06Z</time>
      </trkpt>
      <trkpt lat="46.05192" lon="5.34581">
        <ele>231.8</ele>
        <time>2022-02-24T12:04:07Z</time>
      </trkpt>
      <trkpt lat="46.05187" lon="5.34576">
        <ele>231.8</ele>
        <time>2022-02-24T12:04:08Z</time>
      </trkpt>
      <trkpt lat="46.05182" lon="5.34571">
        <ele>231.8</ele>
        <time>2022-02-24T12:04:09Z</time>
      </trkpt>
      <trkpt lat="46.05176" lon="5.34566">
        <ele>231.8</ele>
        <time>2022-02-24T12:04:10Z</time>
      </trkpt>
      <trkpt lat="46.05171" lon="5.34561">
        <ele>231.8</ele>
        <time>2022-02-24T12:04:11Z</time>
      </trkpt>
      <trkpt lat="46.05166" lon="5.34557">
        <ele>231.8</ele>
        <time>2022-02-24T12:04:12Z</time>
      </trkpt>
      <trkpt lat="46.05162" lon="5.34552">
        <ele>231.8</ele>
        <time>2022-02-24T12:04:13Z</time>
      </trkpt>
      <trkpt lat="46.05157" lon="5.34547">
        <ele>231.8</ele>
        <time>2022-02-24T12:04:14Z</time>
      </trkpt>
      <trkpt lat="46.05152" lon="5.34542">
        <ele>231.4</ele>
        <time>2022-02-24T12:04:15Z</time>
      </trkpt>
      <trkpt lat="46.05149" lon="5.34536">
        <ele>231.4</ele>
        <time>2022-02-24T12:04:16Z</time>
      </trkpt>
      <trkpt lat="46.05144" lon="5.34529">
        <ele>231.2</ele>
        <time>2022-02-24T12:04:17Z</time>
      </trkpt>
      <trkpt lat="46.0514" lon="5.34523">
        <ele>231.2</ele>
        <time>2022-02-24T12:04:18Z</time>
      </trkpt>
      <trkpt lat="46.05137" lon="5.34517">
        <ele>231.2</ele>
        <time>2022-02-24T12:04:19Z</time>
      </trkpt>
      <trkpt lat="46.05133" lon="5.3451">
        <ele>231.2</ele>
        <time>2022-02-24T12:04:20Z</time>
      </trkpt>
      <trkpt lat="46.05125" lon="5.34495">
        <ele>231.6</ele>
        <time>2022-02-24T12:04:21Z</time>
      </trkpt>
      <trkpt lat="46.05125" lon="5.34495">
        <ele>231.6</ele>
        <time>2022-02-24T12:04:22Z</time>
      </trkpt>
      <trkpt lat="46.05121" lon="5.34489">
        <ele>231.8</ele>
        <time>2022-02-24T12:04:23Z</time>
      </trkpt>
      <trkpt lat="46.05118" lon="5.34482">
        <ele>231.8</ele>
        <time>2022-02-24T12:04:24Z</time>
      </trkpt>
      <trkpt lat="46.05115" lon="5.34474">
        <ele>231.8</ele>
        <time>2022-02-24T12:04:25Z</time>
      </trkpt>
      <trkpt lat="46.05112" lon="5.34467">
        <ele>232</ele>
        <time>2022-02-24T12:04:26Z</time>
      </trkpt>
      <trkpt lat="46.0511" lon="5.3446">
        <ele>232</ele>
        <time>2022-02-24T12:04:27Z</time>
      </trkpt>
      <trkpt lat="46.05108" lon="5.34452">
        <ele>232.2</ele>
        <time>2022-02-24T12:04:28Z</time>
      </trkpt>
      <trkpt lat="46.05106" lon="5.34445">
        <ele>232.2</ele>
        <time>2022-02-24T12:04:29Z</time>
      </trkpt>
      <trkpt lat="46.05106" lon="5.34436">
        <ele>232.2</ele>
        <time>2022-02-24T12:04:30Z</time>
      </trkpt>
      <trkpt lat="46.05105" lon="5.34428">
        <ele>232.6</ele>
        <time>2022-02-24T12:04:31Z</time>
      </trkpt>
      <trkpt lat="46.05104" lon="5.3442">
        <ele>232.6</ele>
        <time>2022-02-24T12:04:32Z</time>
      </trkpt>
      <trkpt lat="46.05104" lon="5.34413">
        <ele>233</ele>
        <time>2022-02-24T12:04:33Z</time>
      </trkpt>
      <trkpt lat="46.05102" lon="5.34406">
        <ele>233</ele>
        <time>2022-02-24T12:04:34Z</time>
      </trkpt>
      <trkpt lat="46.051" lon="5.344">
        <ele>233.2</ele>
        <time>2022-02-24T12:04:35Z</time>
      </trkpt>
      <trkpt lat="46.05099" lon="5.34393">
        <ele>233.2</ele>
        <time>2022-02-24T12:04:36Z</time>
      </trkpt>
      <trkpt lat="46.05097" lon="5.34387">
        <ele>233.2</ele>
        <time>2022-02-24T12:04:37Z</time>
      </trkpt>
      <trkpt lat="46.05094" lon="5.34383">
        <ele>233.2</ele>
        <time>2022-02-24T12:04:38Z</time>
      </trkpt>
      <trkpt lat="46.05091" lon="5.34378">
        <ele>233.2</ele>
        <time>2022-02-24T12:04:39Z</time>
      </trkpt>
      <trkpt lat="46.05088" lon="5.34374">
        <ele>233.2</ele>
        <time>2022-02-24T12:04:40Z</time>
      </trkpt>
      <trkpt lat="46.05085" lon="5.34369">
        <ele>233.2</ele>
        <time>2022-02-24T12:04:41Z</time>
      </trkpt>
      <trkpt lat="46.05083" lon="5.34365">
        <ele>233.2</ele>
        <time>2022-02-24T12:04:42Z</time>
      </trkpt>
      <trkpt lat="46.05076" lon="5.34354">
        <ele>233.2</ele>
        <time>2022-02-24T12:04:43Z</time>
      </trkpt>
      <trkpt lat="46.05074" lon="5.3435">
        <ele>233.2</ele>
        <time>2022-02-24T12:04:44Z</time>
      </trkpt>
      <trkpt lat="46.05069" lon="5.34342">
        <ele>233.2</ele>
        <time>2022-02-24T12:04:45Z</time>
      </trkpt>
      <trkpt lat="46.05066" lon="5.34335">
        <ele>233.2</ele>
        <time>2022-02-24T12:04:46Z</time>
      </trkpt>
      <trkpt lat="46.05063" lon="5.34328">
        <ele>233.2</ele>
        <time>2022-02-24T12:04:47Z</time>
      </trkpt>
      <trkpt lat="46.0506" lon="5.34321">
        <ele>233.2</ele>
        <time>2022-02-24T12:04:48Z</time>
      </trkpt>
      <trkpt lat="46.05057" lon="5.34315">
        <ele>233.2</ele>
        <time>2022-02-24T12:04:49Z</time>
      </trkpt>
      <trkpt lat="46.05054" lon="5.34308">
        <ele>233.2</ele>
        <time>2022-02-24T12:04:50Z</time>
      </trkpt>
      <trkpt lat="46.0505" lon="5.34301">
        <ele>232.8</ele>
        <time>2022-02-24T12:04:51Z</time>
      </trkpt>
      <trkpt lat="46.05046" lon="5.34292">
        <ele>232.8</ele>
        <time>2022-02-24T12:04:52Z</time>
      </trkpt>
      <trkpt lat="46.05043" lon="5.34285">
        <ele>232.8</ele>
        <time>2022-02-24T12:04:53Z</time>
      </trkpt>
      <trkpt lat="46.05039" lon="5.34277">
        <ele>232.6</ele>
        <time>2022-02-24T12:04:54Z</time>
      </trkpt>
      <trkpt lat="46.05036" lon="5.34269">
        <ele>232.6</ele>
        <time>2022-02-24T12:04:55Z</time>
      </trkpt>
      <trkpt lat="46.0503" lon="5.34261">
        <ele>232.6</ele>
        <time>2022-02-24T12:04:56Z</time>
      </trkpt>
      <trkpt lat="46.05026" lon="5.34254">
        <ele>232.6</ele>
        <time>2022-02-24T12:04:57Z</time>
      </trkpt>
      <trkpt lat="46.05023" lon="5.34247">
        <ele>232.6</ele>
        <time>2022-02-24T12:04:58Z</time>
      </trkpt>
      <trkpt lat="46.05019" lon="5.34236">
        <ele>232.6</ele>
        <time>2022-02-24T12:04:59Z</time>
      </trkpt>
      <trkpt lat="46.05017" lon="5.34233">
        <ele>232.6</ele>
        <time>2022-02-24T12:05:00Z</time>
      </trkpt>
      <trkpt lat="46.05015" lon="5.34226">
        <ele>232.6</ele>
        <time>2022-02-24T12:05:01Z</time>
      </trkpt>
      <trkpt lat="46.05013" lon="5.34219">
        <ele>232.6</ele>
        <time>2022-02-24T12:05:02Z</time>
      </trkpt>
      <trkpt lat="46.05011" lon="5.34212">
        <ele>232.6</ele>
        <time>2022-02-24T12:05:03Z</time>
      </trkpt>
      <trkpt lat="46.05008" lon="5.34205">
        <ele>232.6</ele>
        <time>2022-02-24T12:05:04Z</time>
      </trkpt>
      <trkpt lat="46.05006" lon="5.34198">
        <ele>232.6</ele>
        <time>2022-02-24T12:05:05Z</time>
      </trkpt>
      <trkpt lat="46.05004" lon="5.34191">
        <ele>232.6</ele>
        <time>2022-02-24T12:05:06Z</time>
      </trkpt>
      <trkpt lat="46.05002" lon="5.34184">
        <ele>232.8</ele>
        <time>2022-02-24T12:05:07Z</time>
      </trkpt>
      <trkpt lat="46.05001" lon="5.34178">
        <ele>232.8</ele>
        <time>2022-02-24T12:05:08Z</time>
      </trkpt>
      <trkpt lat="46.04999" lon="5.34171">
        <ele>232.8</ele>
        <time>2022-02-24T12:05:09Z</time>
      </trkpt>
      <trkpt lat="46.04997" lon="5.34164">
        <ele>232.8</ele>
        <time>2022-02-24T12:05:10Z</time>
      </trkpt>
      <trkpt lat="46.04995" lon="5.34158">
        <ele>232.8</ele>
        <time>2022-02-24T12:05:11Z</time>
      </trkpt>
      <trkpt lat="46.04993" lon="5.3415">
        <ele>233</ele>
        <time>2022-02-24T12:05:12Z</time>
      </trkpt>
      <trkpt lat="46.0499" lon="5.34143">
        <ele>233</ele>
        <time>2022-02-24T12:05:13Z</time>
      </trkpt>
      <trkpt lat="46.04987" lon="5.34135">
        <ele>233</ele>
        <time>2022-02-24T12:05:14Z</time>
      </trkpt>
      <trkpt lat="46.04986" lon="5.34128">
        <ele>233</ele>
        <time>2022-02-24T12:05:15Z</time>
      </trkpt>
      <trkpt lat="46.04984" lon="5.34116">
        <ele>233</ele>
        <time>2022-02-24T12:05:16Z</time>
      </trkpt>
      <trkpt lat="46.04983" lon="5.34112">
        <ele>233</ele>
        <time>2022-02-24T12:05:17Z</time>
      </trkpt>
      <trkpt lat="46.04982" lon="5.34104">
        <ele>233</ele>
        <time>2022-02-24T12:05:18Z</time>
      </trkpt>
      <trkpt lat="46.04981" lon="5.34096">
        <ele>233</ele>
        <time>2022-02-24T12:05:19Z</time>
      </trkpt>
      <trkpt lat="46.04979" lon="5.34088">
        <ele>233</ele>
        <time>2022-02-24T12:05:20Z</time>
      </trkpt>
      <trkpt lat="46.04977" lon="5.34081">
        <ele>233.2</ele>
        <time>2022-02-24T12:05:21Z</time>
      </trkpt>
      <trkpt lat="46.04976" lon="5.34073">
        <ele>233.2</ele>
        <time>2022-02-24T12:05:22Z</time>
      </trkpt>
      <trkpt lat="46.04975" lon="5.34066">
        <ele>233.2</ele>
        <time>2022-02-24T12:05:23Z</time>
      </trkpt>
      <trkpt lat="46.04975" lon="5.34058">
        <ele>233.2</ele>
        <time>2022-02-24T12:05:24Z</time>
      </trkpt>
      <trkpt lat="46.04974" lon="5.3405">
        <ele>233.2</ele>
        <time>2022-02-24T12:05:25Z</time>
      </trkpt>
      <trkpt lat="46.04973" lon="5.34043">
        <ele>233.2</ele>
        <time>2022-02-24T12:05:26Z</time>
      </trkpt>
      <trkpt lat="46.04972" lon="5.34034">
        <ele>233.2</ele>
        <time>2022-02-24T12:05:27Z</time>
      </trkpt>
      <trkpt lat="46.04971" lon="5.34026">
        <ele>233.2</ele>
        <time>2022-02-24T12:05:28Z</time>
      </trkpt>
      <trkpt lat="46.04969" lon="5.34018">
        <ele>233.2</ele>
        <time>2022-02-24T12:05:29Z</time>
      </trkpt>
      <trkpt lat="46.04968" lon="5.34009">
        <ele>233.2</ele>
        <time>2022-02-24T12:05:30Z</time>
      </trkpt>
      <trkpt lat="46.04966" lon="5.34">
        <ele>233.2</ele>
        <time>2022-02-24T12:05:31Z</time>
      </trkpt>
      <trkpt lat="46.04965" lon="5.33991">
        <ele>233.2</ele>
        <time>2022-02-24T12:05:32Z</time>
      </trkpt>
      <trkpt lat="46.04964" lon="5.33981">
        <ele>233.2</ele>
        <time>2022-02-24T12:05:33Z</time>
      </trkpt>
      <trkpt lat="46.04964" lon="5.33972">
        <ele>233.2</ele>
        <time>2022-02-24T12:05:34Z</time>
      </trkpt>
      <trkpt lat="46.04964" lon="5.33962">
        <ele>233.2</ele>
        <time>2022-02-24T12:05:35Z</time>
      </trkpt>
      <trkpt lat="46.04964" lon="5.33953">
        <ele>233</ele>
        <time>2022-02-24T12:05:36Z</time>
      </trkpt>
      <trkpt lat="46.04964" lon="5.33943">
        <ele>233</ele>
        <time>2022-02-24T12:05:37Z</time>
      </trkpt>
      <trkpt lat="46.04963" lon="5.33934">
        <ele>233</ele>
        <time>2022-02-24T12:05:38Z</time>
      </trkpt>
      <trkpt lat="46.04962" lon="5.33925">
        <ele>233</ele>
        <time>2022-02-24T12:05:39Z</time>
      </trkpt>
      <trkpt lat="46.04961" lon="5.33916">
        <ele>233</ele>
        <time>2022-02-24T12:05:40Z</time>
      </trkpt>
      <trkpt lat="46.04961" lon="5.33907">
        <ele>233</ele>
        <time>2022-02-24T12:05:41Z</time>
      </trkpt>
      <trkpt lat="46.04961" lon="5.33897">
        <ele>233</ele>
        <time>2022-02-24T12:05:42Z</time>
      </trkpt>
      <trkpt lat="46.0496" lon="5.33888">
        <ele>232.8</ele>
        <time>2022-02-24T12:05:43Z</time>
      </trkpt>
      <trkpt lat="46.04959" lon="5.3388">
        <ele>232.8</ele>
        <time>2022-02-24T12:05:44Z</time>
      </trkpt>
      <trkpt lat="46.04958" lon="5.33871">
        <ele>232.6</ele>
        <time>2022-02-24T12:05:45Z</time>
      </trkpt>
      <trkpt lat="46.04957" lon="5.33863">
        <ele>232.6</ele>
        <time>2022-02-24T12:05:46Z</time>
      </trkpt>
      <trkpt lat="46.04956" lon="5.33855">
        <ele>232.6</ele>
        <time>2022-02-24T12:05:47Z</time>
      </trkpt>
      <trkpt lat="46.04955" lon="5.33846">
        <ele>232.6</ele>
        <time>2022-02-24T12:05:48Z</time>
      </trkpt>
      <trkpt lat="46.04954" lon="5.33838">
        <ele>232.2</ele>
        <time>2022-02-24T12:05:49Z</time>
      </trkpt>
      <trkpt lat="46.04953" lon="5.3383">
        <ele>232.2</ele>
        <time>2022-02-24T12:05:50Z</time>
      </trkpt>
      <trkpt lat="46.04951" lon="5.33822">
        <ele>232</ele>
        <time>2022-02-24T12:05:51Z</time>
      </trkpt>
      <trkpt lat="46.04949" lon="5.33813">
        <ele>232</ele>
        <time>2022-02-24T12:05:52Z</time>
      </trkpt>
      <trkpt lat="46.04948" lon="5.33805">
        <ele>232</ele>
        <time>2022-02-24T12:05:53Z</time>
      </trkpt>
      <trkpt lat="46.04946" lon="5.33796">
        <ele>232</ele>
        <time>2022-02-24T12:05:54Z</time>
      </trkpt>
      <trkpt lat="46.04944" lon="5.33787">
        <ele>232.2</ele>
        <time>2022-02-24T12:05:55Z</time>
      </trkpt>
      <trkpt lat="46.04942" lon="5.33779">
        <ele>232.2</ele>
        <time>2022-02-24T12:05:56Z</time>
      </trkpt>
      <trkpt lat="46.0494" lon="5.3377">
        <ele>232.2</ele>
        <time>2022-02-24T12:05:57Z</time>
      </trkpt>
      <trkpt lat="46.04938" lon="5.33761">
        <ele>232.2</ele>
        <time>2022-02-24T12:05:58Z</time>
      </trkpt>
      <trkpt lat="46.04937" lon="5.33753">
        <ele>232.4</ele>
        <time>2022-02-24T12:05:59Z</time>
      </trkpt>
      <trkpt lat="46.04935" lon="5.33744">
        <ele>232.4</ele>
        <time>2022-02-24T12:06:00Z</time>
      </trkpt>
      <trkpt lat="46.04934" lon="5.33736">
        <ele>232.4</ele>
        <time>2022-02-24T12:06:01Z</time>
      </trkpt>
      <trkpt lat="46.04932" lon="5.33727">
        <ele>232.4</ele>
        <time>2022-02-24T12:06:02Z</time>
      </trkpt>
      <trkpt lat="46.04931" lon="5.33718">
        <ele>232.4</ele>
        <time>2022-02-24T12:06:03Z</time>
      </trkpt>
      <trkpt lat="46.0493" lon="5.3371">
        <ele>232.4</ele>
        <time>2022-02-24T12:06:04Z</time>
      </trkpt>
      <trkpt lat="46.04929" lon="5.33702">
        <ele>232.4</ele>
        <time>2022-02-24T12:06:05Z</time>
      </trkpt>
      <trkpt lat="46.04927" lon="5.33694">
        <ele>232.4</ele>
        <time>2022-02-24T12:06:06Z</time>
      </trkpt>
      <trkpt lat="46.04927" lon="5.33687">
        <ele>232.4</ele>
        <time>2022-02-24T12:06:07Z</time>
      </trkpt>
      <trkpt lat="46.04925" lon="5.33679">
        <ele>232.4</ele>
        <time>2022-02-24T12:06:08Z</time>
      </trkpt>
      <trkpt lat="46.04924" lon="5.33673">
        <ele>232.4</ele>
        <time>2022-02-24T12:06:09Z</time>
      </trkpt>
      <trkpt lat="46.04923" lon="5.33668">
        <ele>232.4</ele>
        <time>2022-02-24T12:06:10Z</time>
      </trkpt>
      <trkpt lat="46.04924" lon="5.33663">
        <ele>232.4</ele>
        <time>2022-02-24T12:06:11Z</time>
      </trkpt>
      <trkpt lat="46.04924" lon="5.33657">
        <ele>232.4</ele>
        <time>2022-02-24T12:06:12Z</time>
      </trkpt>
      <trkpt lat="46.04923" lon="5.33651">
        <ele>232.4</ele>
        <time>2022-02-24T12:06:13Z</time>
      </trkpt>
      <trkpt lat="46.04923" lon="5.33645">
        <ele>232.4</ele>
        <time>2022-02-24T12:06:14Z</time>
      </trkpt>
      <trkpt lat="46.04923" lon="5.33639">
        <ele>232.2</ele>
        <time>2022-02-24T12:06:15Z</time>
      </trkpt>
      <trkpt lat="46.04922" lon="5.33634">
        <ele>232.2</ele>
        <time>2022-02-24T12:06:16Z</time>
      </trkpt>
      <trkpt lat="46.04922" lon="5.3363">
        <ele>232.2</ele>
        <time>2022-02-24T12:06:17Z</time>
      </trkpt>
      <trkpt lat="46.04923" lon="5.33626">
        <ele>232</ele>
        <time>2022-02-24T12:06:18Z</time>
      </trkpt>
      <trkpt lat="46.04922" lon="5.33623">
        <ele>232</ele>
        <time>2022-02-24T12:06:19Z</time>
      </trkpt>
      <trkpt lat="46.04919" lon="5.3362">
        <ele>231.6</ele>
        <time>2022-02-24T12:06:20Z</time>
      </trkpt>
      <trkpt lat="46.04918" lon="5.33618">
        <ele>231.6</ele>
        <time>2022-02-24T12:06:21Z</time>
      </trkpt>
      <trkpt lat="46.04917" lon="5.33615">
        <ele>231.6</ele>
        <time>2022-02-24T12:06:22Z</time>
      </trkpt>
      <trkpt lat="46.04917" lon="5.33614">
        <ele>231.6</ele>
        <time>2022-02-24T12:06:23Z</time>
      </trkpt>
      <trkpt lat="46.04916" lon="5.33614">
        <ele>231.6</ele>
        <time>2022-02-24T12:06:24Z</time>
      </trkpt>
      <trkpt lat="46.04917" lon="5.33609">
        <ele>232.2</ele>
        <time>2022-02-24T12:07:05Z</time>
      </trkpt>
      <trkpt lat="46.04917" lon="5.33606">
        <ele>232</ele>
        <time>2022-02-24T12:07:06Z</time>
      </trkpt>
      <trkpt lat="46.04918" lon="5.33602">
        <ele>232</ele>
        <time>2022-02-24T12:07:07Z</time>
      </trkpt>
      <trkpt lat="46.0492" lon="5.33597">
        <ele>232</ele>
        <time>2022-02-24T12:07:08Z</time>
      </trkpt>
      <trkpt lat="46.04921" lon="5.33592">
        <ele>231.6</ele>
        <time>2022-02-24T12:07:09Z</time>
      </trkpt>
      <trkpt lat="46.04923" lon="5.33586">
        <ele>231.6</ele>
        <time>2022-02-24T12:07:10Z</time>
      </trkpt>
      <trkpt lat="46.04924" lon="5.33579">
        <ele>231.6</ele>
        <time>2022-02-24T12:07:11Z</time>
      </trkpt>
      <trkpt lat="46.04925" lon="5.33571">
        <ele>231.4</ele>
        <time>2022-02-24T12:07:12Z</time>
      </trkpt>
      <trkpt lat="46.04925" lon="5.33562">
        <ele>231.4</ele>
        <time>2022-02-24T12:07:13Z</time>
      </trkpt>
      <trkpt lat="46.04925" lon="5.33553">
        <ele>231.2</ele>
        <time>2022-02-24T12:07:14Z</time>
      </trkpt>
      <trkpt lat="46.04925" lon="5.33543">
        <ele>231</ele>
        <time>2022-02-24T12:07:15Z</time>
      </trkpt>
      <trkpt lat="46.04925" lon="5.33533">
        <ele>230.6</ele>
        <time>2022-02-24T12:07:16Z</time>
      </trkpt>
      <trkpt lat="46.04927" lon="5.33522">
        <ele>230.4</ele>
        <time>2022-02-24T12:07:17Z</time>
      </trkpt>
      <trkpt lat="46.04928" lon="5.33512">
        <ele>230.2</ele>
        <time>2022-02-24T12:07:18Z</time>
      </trkpt>
      <trkpt lat="46.04929" lon="5.33501">
        <ele>230.2</ele>
        <time>2022-02-24T12:07:19Z</time>
      </trkpt>
      <trkpt lat="46.0493" lon="5.33491">
        <ele>229.6</ele>
        <time>2022-02-24T12:07:20Z</time>
      </trkpt>
      <trkpt lat="46.04931" lon="5.3348">
        <ele>229.6</ele>
        <time>2022-02-24T12:07:21Z</time>
      </trkpt>
      <trkpt lat="46.04932" lon="5.3347">
        <ele>229.4</ele>
        <time>2022-02-24T12:07:22Z</time>
      </trkpt>
      <trkpt lat="46.04933" lon="5.3346">
        <ele>229.4</ele>
        <time>2022-02-24T12:07:23Z</time>
      </trkpt>
      <trkpt lat="46.04933" lon="5.3345">
        <ele>229.4</ele>
        <time>2022-02-24T12:07:24Z</time>
      </trkpt>
      <trkpt lat="46.04935" lon="5.33439">
        <ele>229.2</ele>
        <time>2022-02-24T12:07:25Z</time>
      </trkpt>
      <trkpt lat="46.04936" lon="5.33429">
        <ele>229.2</ele>
        <time>2022-02-24T12:07:26Z</time>
      </trkpt>
      <trkpt lat="46.04937" lon="5.33418">
        <ele>229.2</ele>
        <time>2022-02-24T12:07:27Z</time>
      </trkpt>
      <trkpt lat="46.04938" lon="5.33406">
        <ele>228.8</ele>
        <time>2022-02-24T12:07:28Z</time>
      </trkpt>
      <trkpt lat="46.0494" lon="5.33394">
        <ele>228.6</ele>
        <time>2022-02-24T12:07:29Z</time>
      </trkpt>
      <trkpt lat="46.04941" lon="5.33383">
        <ele>228.4</ele>
        <time>2022-02-24T12:07:30Z</time>
      </trkpt>
      <trkpt lat="46.04943" lon="5.33366">
        <ele>228.2</ele>
        <time>2022-02-24T12:07:31Z</time>
      </trkpt>
      <trkpt lat="46.04944" lon="5.3336">
        <ele>227.8</ele>
        <time>2022-02-24T12:07:32Z</time>
      </trkpt>
      <trkpt lat="46.04945" lon="5.33349">
        <ele>227.8</ele>
        <time>2022-02-24T12:07:33Z</time>
      </trkpt>
      <trkpt lat="46.04946" lon="5.33338">
        <ele>227.6</ele>
        <time>2022-02-24T12:07:34Z</time>
      </trkpt>
      <trkpt lat="46.04947" lon="5.33326">
        <ele>227.6</ele>
        <time>2022-02-24T12:07:35Z</time>
      </trkpt>
      <trkpt lat="46.04948" lon="5.33315">
        <ele>227.8</ele>
        <time>2022-02-24T12:07:36Z</time>
      </trkpt>
      <trkpt lat="46.04949" lon="5.33305">
        <ele>227.8</ele>
        <time>2022-02-24T12:07:37Z</time>
      </trkpt>
      <trkpt lat="46.0495" lon="5.33294">
        <ele>227.8</ele>
        <time>2022-02-24T12:07:38Z</time>
      </trkpt>
      <trkpt lat="46.04951" lon="5.33284">
        <ele>227.8</ele>
        <time>2022-02-24T12:07:39Z</time>
      </trkpt>
      <trkpt lat="46.04952" lon="5.33274">
        <ele>227.8</ele>
        <time>2022-02-24T12:07:40Z</time>
      </trkpt>
      <trkpt lat="46.04954" lon="5.33264">
        <ele>228.2</ele>
        <time>2022-02-24T12:07:41Z</time>
      </trkpt>
      <trkpt lat="46.04955" lon="5.33254">
        <ele>228.2</ele>
        <time>2022-02-24T12:07:42Z</time>
      </trkpt>
      <trkpt lat="46.04956" lon="5.33245">
        <ele>228.2</ele>
        <time>2022-02-24T12:07:43Z</time>
      </trkpt>
      <trkpt lat="46.04957" lon="5.33236">
        <ele>228.2</ele>
        <time>2022-02-24T12:07:44Z</time>
      </trkpt>
      <trkpt lat="46.04958" lon="5.33227">
        <ele>228.6</ele>
        <time>2022-02-24T12:07:45Z</time>
      </trkpt>
      <trkpt lat="46.04959" lon="5.33217">
        <ele>228.6</ele>
        <time>2022-02-24T12:07:46Z</time>
      </trkpt>
      <trkpt lat="46.0496" lon="5.33208">
        <ele>228.6</ele>
        <time>2022-02-24T12:07:47Z</time>
      </trkpt>
      <trkpt lat="46.04961" lon="5.33199">
        <ele>228.6</ele>
        <time>2022-02-24T12:07:48Z</time>
      </trkpt>
      <trkpt lat="46.04962" lon="5.33189">
        <ele>228.4</ele>
        <time>2022-02-24T12:07:49Z</time>
      </trkpt>
      <trkpt lat="46.04963" lon="5.3318">
        <ele>228.6</ele>
        <time>2022-02-24T12:07:50Z</time>
      </trkpt>
      <trkpt lat="46.04964" lon="5.3317">
        <ele>228.6</ele>
        <time>2022-02-24T12:07:51Z</time>
      </trkpt>
      <trkpt lat="46.04965" lon="5.33161">
        <ele>228.6</ele>
        <time>2022-02-24T12:07:52Z</time>
      </trkpt>
      <trkpt lat="46.04966" lon="5.33152">
        <ele>228.6</ele>
        <time>2022-02-24T12:07:53Z</time>
      </trkpt>
      <trkpt lat="46.04967" lon="5.33142">
        <ele>228.6</ele>
        <time>2022-02-24T12:07:54Z</time>
      </trkpt>
      <trkpt lat="46.04968" lon="5.33133">
        <ele>228.6</ele>
        <time>2022-02-24T12:07:55Z</time>
      </trkpt>
      <trkpt lat="46.04969" lon="5.33124">
        <ele>228.6</ele>
        <time>2022-02-24T12:07:56Z</time>
      </trkpt>
      <trkpt lat="46.0497" lon="5.33114">
        <ele>229</ele>
        <time>2022-02-24T12:07:57Z</time>
      </trkpt>
      <trkpt lat="46.04971" lon="5.33105">
        <ele>229</ele>
        <time>2022-02-24T12:07:58Z</time>
      </trkpt>
      <trkpt lat="46.04972" lon="5.33096">
        <ele>229</ele>
        <time>2022-02-24T12:07:59Z</time>
      </trkpt>
      <trkpt lat="46.04973" lon="5.33086">
        <ele>229</ele>
        <time>2022-02-24T12:08:00Z</time>
      </trkpt>
      <trkpt lat="46.04974" lon="5.33076">
        <ele>229</ele>
        <time>2022-02-24T12:08:01Z</time>
      </trkpt>
      <trkpt lat="46.04975" lon="5.33067">
        <ele>229</ele>
        <time>2022-02-24T12:08:02Z</time>
      </trkpt>
      <trkpt lat="46.04976" lon="5.33057">
        <ele>228.8</ele>
        <time>2022-02-24T12:08:03Z</time>
      </trkpt>
      <trkpt lat="46.04977" lon="5.33047">
        <ele>228.8</ele>
        <time>2022-02-24T12:08:04Z</time>
      </trkpt>
      <trkpt lat="46.04978" lon="5.33038">
        <ele>228.8</ele>
        <time>2022-02-24T12:08:05Z</time>
      </trkpt>
      <trkpt lat="46.0498" lon="5.33023">
        <ele>228.8</ele>
        <time>2022-02-24T12:08:06Z</time>
      </trkpt>
      <trkpt lat="46.0498" lon="5.33018">
        <ele>228.4</ele>
        <time>2022-02-24T12:08:07Z</time>
      </trkpt>
      <trkpt lat="46.04981" lon="5.33009">
        <ele>228.4</ele>
        <time>2022-02-24T12:08:08Z</time>
      </trkpt>
      <trkpt lat="46.04982" lon="5.32999">
        <ele>228.4</ele>
        <time>2022-02-24T12:08:09Z</time>
      </trkpt>
      <trkpt lat="46.04983" lon="5.3299">
        <ele>228.2</ele>
        <time>2022-02-24T12:08:10Z</time>
      </trkpt>
      <trkpt lat="46.04983" lon="5.32981">
        <ele>228.2</ele>
        <time>2022-02-24T12:08:11Z</time>
      </trkpt>
      <trkpt lat="46.04983" lon="5.32971">
        <ele>228.2</ele>
        <time>2022-02-24T12:08:12Z</time>
      </trkpt>
      <trkpt lat="46.04983" lon="5.32962">
        <ele>228.2</ele>
        <time>2022-02-24T12:08:13Z</time>
      </trkpt>
      <trkpt lat="46.04982" lon="5.32953">
        <ele>228.4</ele>
        <time>2022-02-24T12:08:14Z</time>
      </trkpt>
      <trkpt lat="46.04981" lon="5.32944">
        <ele>228.4</ele>
        <time>2022-02-24T12:08:15Z</time>
      </trkpt>
      <trkpt lat="46.0498" lon="5.32936">
        <ele>228.4</ele>
        <time>2022-02-24T12:08:16Z</time>
      </trkpt>
      <trkpt lat="46.04979" lon="5.32928">
        <ele>228.2</ele>
        <time>2022-02-24T12:08:17Z</time>
      </trkpt>
      <trkpt lat="46.04979" lon="5.32922">
        <ele>228.2</ele>
        <time>2022-02-24T12:08:18Z</time>
      </trkpt>
      <trkpt lat="46.04978" lon="5.32917">
        <ele>228.2</ele>
        <time>2022-02-24T12:08:19Z</time>
      </trkpt>
      <trkpt lat="46.04978" lon="5.32913">
        <ele>228.2</ele>
        <time>2022-02-24T12:08:20Z</time>
      </trkpt>
      <trkpt lat="46.04978" lon="5.32909">
        <ele>228.2</ele>
        <time>2022-02-24T12:08:21Z</time>
      </trkpt>
      <trkpt lat="46.04977" lon="5.32904">
        <ele>228.2</ele>
        <time>2022-02-24T12:08:22Z</time>
      </trkpt>
      <trkpt lat="46.04978" lon="5.32899">
        <ele>228</ele>
        <time>2022-02-24T12:08:23Z</time>
      </trkpt>
      <trkpt lat="46.04978" lon="5.32894">
        <ele>228</ele>
        <time>2022-02-24T12:08:24Z</time>
      </trkpt>
      <trkpt lat="46.0498" lon="5.32888">
        <ele>228</ele>
        <time>2022-02-24T12:08:25Z</time>
      </trkpt>
      <trkpt lat="46.04981" lon="5.32882">
        <ele>228</ele>
        <time>2022-02-24T12:08:26Z</time>
      </trkpt>
      <trkpt lat="46.04981" lon="5.32876">
        <ele>228</ele>
        <time>2022-02-24T12:08:27Z</time>
      </trkpt>
      <trkpt lat="46.0498" lon="5.32869">
        <ele>228</ele>
        <time>2022-02-24T12:08:28Z</time>
      </trkpt>
      <trkpt lat="46.04978" lon="5.32863">
        <ele>228</ele>
        <time>2022-02-24T12:08:29Z</time>
      </trkpt>
      <trkpt lat="46.04973" lon="5.32855">
        <ele>228</ele>
        <time>2022-02-24T12:08:30Z</time>
      </trkpt>
      <trkpt lat="46.04971" lon="5.32852">
        <ele>228.2</ele>
        <time>2022-02-24T12:08:31Z</time>
      </trkpt>
      <trkpt lat="46.04968" lon="5.32846">
        <ele>228.2</ele>
        <time>2022-02-24T12:08:32Z</time>
      </trkpt>
      <trkpt lat="46.04965" lon="5.3284">
        <ele>228.6</ele>
        <time>2022-02-24T12:08:33Z</time>
      </trkpt>
      <trkpt lat="46.04962" lon="5.32833">
        <ele>228.6</ele>
        <time>2022-02-24T12:08:34Z</time>
      </trkpt>
      <trkpt lat="46.0496" lon="5.32827">
        <ele>229</ele>
        <time>2022-02-24T12:08:35Z</time>
      </trkpt>
      <trkpt lat="46.04958" lon="5.3282">
        <ele>229</ele>
        <time>2022-02-24T12:08:36Z</time>
      </trkpt>
      <trkpt lat="46.04956" lon="5.32814">
        <ele>229</ele>
        <time>2022-02-24T12:08:37Z</time>
      </trkpt>
      <trkpt lat="46.04954" lon="5.32807">
        <ele>229.2</ele>
        <time>2022-02-24T12:08:38Z</time>
      </trkpt>
      <trkpt lat="46.04951" lon="5.32801">
        <ele>229.4</ele>
        <time>2022-02-24T12:08:39Z</time>
      </trkpt>
      <trkpt lat="46.04949" lon="5.32795">
        <ele>229.6</ele>
        <time>2022-02-24T12:08:40Z</time>
      </trkpt>
      <trkpt lat="46.04946" lon="5.32789">
        <ele>230</ele>
        <time>2022-02-24T12:08:41Z</time>
      </trkpt>
      <trkpt lat="46.04944" lon="5.32783">
        <ele>230.4</ele>
        <time>2022-02-24T12:08:42Z</time>
      </trkpt>
      <trkpt lat="46.04941" lon="5.32774">
        <ele>230.6</ele>
        <time>2022-02-24T12:08:43Z</time>
      </trkpt>
      <trkpt lat="46.0494" lon="5.32771">
        <ele>231</ele>
        <time>2022-02-24T12:08:44Z</time>
      </trkpt>
      <trkpt lat="46.04938" lon="5.32764">
        <ele>231.2</ele>
        <time>2022-02-24T12:08:45Z</time>
      </trkpt>
      <trkpt lat="46.04936" lon="5.32758">
        <ele>231.4</ele>
        <time>2022-02-24T12:08:46Z</time>
      </trkpt>
      <trkpt lat="46.04934" lon="5.32752">
        <ele>231.6</ele>
        <time>2022-02-24T12:08:47Z</time>
      </trkpt>
      <trkpt lat="46.04932" lon="5.32745">
        <ele>231.6</ele>
        <time>2022-02-24T12:08:48Z</time>
      </trkpt>
      <trkpt lat="46.04931" lon="5.32739">
        <ele>232</ele>
        <time>2022-02-24T12:08:49Z</time>
      </trkpt>
      <trkpt lat="46.04929" lon="5.32732">
        <ele>232</ele>
        <time>2022-02-24T12:08:50Z</time>
      </trkpt>
      <trkpt lat="46.04928" lon="5.32725">
        <ele>232.4</ele>
        <time>2022-02-24T12:08:51Z</time>
      </trkpt>
      <trkpt lat="46.04927" lon="5.32718">
        <ele>232.6</ele>
        <time>2022-02-24T12:08:52Z</time>
      </trkpt>
      <trkpt lat="46.04926" lon="5.3271">
        <ele>232.8</ele>
        <time>2022-02-24T12:08:53Z</time>
      </trkpt>
      <trkpt lat="46.04925" lon="5.32703">
        <ele>233.2</ele>
        <time>2022-02-24T12:08:54Z</time>
      </trkpt>
      <trkpt lat="46.04925" lon="5.32695">
        <ele>233.4</ele>
        <time>2022-02-24T12:08:55Z</time>
      </trkpt>
      <trkpt lat="46.04924" lon="5.32688">
        <ele>233.6</ele>
        <time>2022-02-24T12:08:56Z</time>
      </trkpt>
      <trkpt lat="46.04924" lon="5.3268">
        <ele>233.8</ele>
        <time>2022-02-24T12:08:57Z</time>
      </trkpt>
      <trkpt lat="46.04924" lon="5.32673">
        <ele>234.2</ele>
        <time>2022-02-24T12:08:58Z</time>
      </trkpt>
      <trkpt lat="46.04924" lon="5.32666">
        <ele>234.4</ele>
        <time>2022-02-24T12:08:59Z</time>
      </trkpt>
      <trkpt lat="46.04923" lon="5.32659">
        <ele>234.6</ele>
        <time>2022-02-24T12:09:00Z</time>
      </trkpt>
      <trkpt lat="46.04923" lon="5.32651">
        <ele>234.6</ele>
        <time>2022-02-24T12:09:01Z</time>
      </trkpt>
      <trkpt lat="46.04923" lon="5.32644">
        <ele>234.8</ele>
        <time>2022-02-24T12:09:02Z</time>
      </trkpt>
      <trkpt lat="46.04922" lon="5.32636">
        <ele>234.8</ele>
        <time>2022-02-24T12:09:03Z</time>
      </trkpt>
      <trkpt lat="46.04922" lon="5.32628">
        <ele>234.8</ele>
        <time>2022-02-24T12:09:04Z</time>
      </trkpt>
      <trkpt lat="46.04922" lon="5.32621">
        <ele>234.8</ele>
        <time>2022-02-24T12:09:05Z</time>
      </trkpt>
      <trkpt lat="46.04922" lon="5.32613">
        <ele>234.8</ele>
        <time>2022-02-24T12:09:06Z</time>
      </trkpt>
      <trkpt lat="46.04922" lon="5.32605">
        <ele>234.8</ele>
        <time>2022-02-24T12:09:07Z</time>
      </trkpt>
      <trkpt lat="46.04922" lon="5.32597">
        <ele>234.8</ele>
        <time>2022-02-24T12:09:08Z</time>
      </trkpt>
      <trkpt lat="46.04922" lon="5.32589">
        <ele>234.8</ele>
        <time>2022-02-24T12:09:09Z</time>
      </trkpt>
      <trkpt lat="46.04921" lon="5.32577">
        <ele>234.6</ele>
        <time>2022-02-24T12:09:10Z</time>
      </trkpt>
      <trkpt lat="46.04921" lon="5.32573">
        <ele>234.6</ele>
        <time>2022-02-24T12:09:11Z</time>
      </trkpt>
      <trkpt lat="46.04921" lon="5.32564">
        <ele>234.6</ele>
        <time>2022-02-24T12:09:12Z</time>
      </trkpt>
      <trkpt lat="46.04921" lon="5.32555">
        <ele>234.2</ele>
        <time>2022-02-24T12:09:13Z</time>
      </trkpt>
      <trkpt lat="46.04921" lon="5.32546">
        <ele>234.2</ele>
        <time>2022-02-24T12:09:14Z</time>
      </trkpt>
      <trkpt lat="46.04921" lon="5.32537">
        <ele>234.2</ele>
        <time>2022-02-24T12:09:15Z</time>
      </trkpt>
      <trkpt lat="46.04921" lon="5.32527">
        <ele>234</ele>
        <time>2022-02-24T12:09:16Z</time>
      </trkpt>
      <trkpt lat="46.04921" lon="5.32518">
        <ele>234</ele>
        <time>2022-02-24T12:09:17Z</time>
      </trkpt>
      <trkpt lat="46.0492" lon="5.32508">
        <ele>233.8</ele>
        <time>2022-02-24T12:09:18Z</time>
      </trkpt>
      <trkpt lat="46.0492" lon="5.32498">
        <ele>233.4</ele>
        <time>2022-02-24T12:09:19Z</time>
      </trkpt>
      <trkpt lat="46.0492" lon="5.32487">
        <ele>233.4</ele>
        <time>2022-02-24T12:09:20Z</time>
      </trkpt>
      <trkpt lat="46.0492" lon="5.32476">
        <ele>233.4</ele>
        <time>2022-02-24T12:09:21Z</time>
      </trkpt>
      <trkpt lat="46.0492" lon="5.32465">
        <ele>233</ele>
        <time>2022-02-24T12:09:22Z</time>
      </trkpt>
      <trkpt lat="46.04919" lon="5.32454">
        <ele>232.8</ele>
        <time>2022-02-24T12:09:23Z</time>
      </trkpt>
      <trkpt lat="46.04919" lon="5.32442">
        <ele>232.4</ele>
        <time>2022-02-24T12:09:24Z</time>
      </trkpt>
      <trkpt lat="46.04919" lon="5.3243">
        <ele>232</ele>
        <time>2022-02-24T12:09:25Z</time>
      </trkpt>
      <trkpt lat="46.04919" lon="5.32418">
        <ele>231.4</ele>
        <time>2022-02-24T12:09:26Z</time>
      </trkpt>
      <trkpt lat="46.04918" lon="5.32406">
        <ele>231.2</ele>
        <time>2022-02-24T12:09:27Z</time>
      </trkpt>
      <trkpt lat="46.04918" lon="5.32394">
        <ele>230.8</ele>
        <time>2022-02-24T12:09:28Z</time>
      </trkpt>
      <trkpt lat="46.04918" lon="5.32382">
        <ele>230.8</ele>
        <time>2022-02-24T12:09:29Z</time>
      </trkpt>
      <trkpt lat="46.04918" lon="5.3237">
        <ele>230.6</ele>
        <time>2022-02-24T12:09:30Z</time>
      </trkpt>
      <trkpt lat="46.04918" lon="5.32358">
        <ele>230.4</ele>
        <time>2022-02-24T12:09:31Z</time>
      </trkpt>
      <trkpt lat="46.04917" lon="5.32346">
        <ele>230</ele>
        <time>2022-02-24T12:09:32Z</time>
      </trkpt>
      <trkpt lat="46.04917" lon="5.32334">
        <ele>229.6</ele>
        <time>2022-02-24T12:09:33Z</time>
      </trkpt>
      <trkpt lat="46.04917" lon="5.32322">
        <ele>229.4</ele>
        <time>2022-02-24T12:09:34Z</time>
      </trkpt>
      <trkpt lat="46.04917" lon="5.3231">
        <ele>229.4</ele>
        <time>2022-02-24T12:09:35Z</time>
      </trkpt>
      <trkpt lat="46.04917" lon="5.32299">
        <ele>229.4</ele>
        <time>2022-02-24T12:09:36Z</time>
      </trkpt>
      <trkpt lat="46.04917" lon="5.32288">
        <ele>229.4</ele>
        <time>2022-02-24T12:09:37Z</time>
      </trkpt>
      <trkpt lat="46.04916" lon="5.32278">
        <ele>229.8</ele>
        <time>2022-02-24T12:09:38Z</time>
      </trkpt>
      <trkpt lat="46.04916" lon="5.32268">
        <ele>229.8</ele>
        <time>2022-02-24T12:09:39Z</time>
      </trkpt>
      <trkpt lat="46.04915" lon="5.32258">
        <ele>230</ele>
        <time>2022-02-24T12:09:40Z</time>
      </trkpt>
      <trkpt lat="46.04914" lon="5.32249">
        <ele>230</ele>
        <time>2022-02-24T12:09:41Z</time>
      </trkpt>
      <trkpt lat="46.04913" lon="5.3224">
        <ele>230.2</ele>
        <time>2022-02-24T12:09:42Z</time>
      </trkpt>
      <trkpt lat="46.0491" lon="5.32228">
        <ele>230.2</ele>
        <time>2022-02-24T12:09:43Z</time>
      </trkpt>
      <trkpt lat="46.04909" lon="5.32223">
        <ele>230.2</ele>
        <time>2022-02-24T12:09:44Z</time>
      </trkpt>
      <trkpt lat="46.04907" lon="5.32215">
        <ele>230.6</ele>
        <time>2022-02-24T12:09:45Z</time>
      </trkpt>
      <trkpt lat="46.04905" lon="5.32208">
        <ele>230.6</ele>
        <time>2022-02-24T12:09:46Z</time>
      </trkpt>
      <trkpt lat="46.04902" lon="5.32201">
        <ele>230.6</ele>
        <time>2022-02-24T12:09:47Z</time>
      </trkpt>
      <trkpt lat="46.04899" lon="5.32194">
        <ele>230.8</ele>
        <time>2022-02-24T12:09:48Z</time>
      </trkpt>
      <trkpt lat="46.04895" lon="5.32187">
        <ele>230.8</ele>
        <time>2022-02-24T12:09:49Z</time>
      </trkpt>
      <trkpt lat="46.04892" lon="5.32181">
        <ele>231</ele>
        <time>2022-02-24T12:09:50Z</time>
      </trkpt>
      <trkpt lat="46.04888" lon="5.32176">
        <ele>231</ele>
        <time>2022-02-24T12:09:51Z</time>
      </trkpt>
      <trkpt lat="46.04884" lon="5.3217">
        <ele>231.4</ele>
        <time>2022-02-24T12:09:52Z</time>
      </trkpt>
      <trkpt lat="46.04879" lon="5.32166">
        <ele>231.4</ele>
        <time>2022-02-24T12:09:53Z</time>
      </trkpt>
      <trkpt lat="46.04875" lon="5.32162">
        <ele>231.6</ele>
        <time>2022-02-24T12:09:54Z</time>
      </trkpt>
      <trkpt lat="46.0487" lon="5.32158">
        <ele>231.6</ele>
        <time>2022-02-24T12:09:55Z</time>
      </trkpt>
      <trkpt lat="46.04865" lon="5.32154">
        <ele>231.8</ele>
        <time>2022-02-24T12:09:56Z</time>
      </trkpt>
      <trkpt lat="46.0486" lon="5.32151">
        <ele>231.8</ele>
        <time>2022-02-24T12:09:57Z</time>
      </trkpt>
      <trkpt lat="46.04854" lon="5.32147">
        <ele>232.2</ele>
        <time>2022-02-24T12:09:58Z</time>
      </trkpt>
      <trkpt lat="46.04849" lon="5.32144">
        <ele>232.2</ele>
        <time>2022-02-24T12:09:59Z</time>
      </trkpt>
      <trkpt lat="46.04844" lon="5.32141">
        <ele>232.2</ele>
        <time>2022-02-24T12:10:00Z</time>
      </trkpt>
      <trkpt lat="46.0484" lon="5.32137">
        <ele>232.4</ele>
        <time>2022-02-24T12:10:01Z</time>
      </trkpt>
      <trkpt lat="46.04835" lon="5.32134">
        <ele>232.4</ele>
        <time>2022-02-24T12:10:02Z</time>
      </trkpt>
      <trkpt lat="46.0483" lon="5.32132">
        <ele>232.4</ele>
        <time>2022-02-24T12:10:03Z</time>
      </trkpt>
      <trkpt lat="46.04826" lon="5.32129">
        <ele>232.8</ele>
        <time>2022-02-24T12:10:04Z</time>
      </trkpt>
      <trkpt lat="46.04821" lon="5.32126">
        <ele>232.8</ele>
        <time>2022-02-24T12:10:05Z</time>
      </trkpt>
      <trkpt lat="46.04816" lon="5.32124">
        <ele>233</ele>
        <time>2022-02-24T12:10:06Z</time>
      </trkpt>
      <trkpt lat="46.04812" lon="5.32122">
        <ele>233</ele>
        <time>2022-02-24T12:10:07Z</time>
      </trkpt>
      <trkpt lat="46.04807" lon="5.3212">
        <ele>233.4</ele>
        <time>2022-02-24T12:10:08Z</time>
      </trkpt>
      <trkpt lat="46.04802" lon="5.32119">
        <ele>233.4</ele>
        <time>2022-02-24T12:10:09Z</time>
      </trkpt>
      <trkpt lat="46.04797" lon="5.32118">
        <ele>233.4</ele>
        <time>2022-02-24T12:10:10Z</time>
      </trkpt>
      <trkpt lat="46.04792" lon="5.32118">
        <ele>233.4</ele>
        <time>2022-02-24T12:10:11Z</time>
      </trkpt>
      <trkpt lat="46.04787" lon="5.32117">
        <ele>233.4</ele>
        <time>2022-02-24T12:10:12Z</time>
      </trkpt>
      <trkpt lat="46.04783" lon="5.32117">
        <ele>233.6</ele>
        <time>2022-02-24T12:10:13Z</time>
      </trkpt>
      <trkpt lat="46.04776" lon="5.32117">
        <ele>233.6</ele>
        <time>2022-02-24T12:10:14Z</time>
      </trkpt>
      <trkpt lat="46.04774" lon="5.32117">
        <ele>233.6</ele>
        <time>2022-02-24T12:10:15Z</time>
      </trkpt>
      <trkpt lat="46.0477" lon="5.32117">
        <ele>233.8</ele>
        <time>2022-02-24T12:10:16Z</time>
      </trkpt>
      <trkpt lat="46.04766" lon="5.32117">
        <ele>233.8</ele>
        <time>2022-02-24T12:10:17Z</time>
      </trkpt>
      <trkpt lat="46.04762" lon="5.32116">
        <ele>234.2</ele>
        <time>2022-02-24T12:10:18Z</time>
      </trkpt>
      <trkpt lat="46.04757" lon="5.32115">
        <ele>234.2</ele>
        <time>2022-02-24T12:10:19Z</time>
      </trkpt>
      <trkpt lat="46.04753" lon="5.32113">
        <ele>234.6</ele>
        <time>2022-02-24T12:10:20Z</time>
      </trkpt>
      <trkpt lat="46.0475" lon="5.32111">
        <ele>234.6</ele>
        <time>2022-02-24T12:10:21Z</time>
      </trkpt>
      <trkpt lat="46.04746" lon="5.32108">
        <ele>234.8</ele>
        <time>2022-02-24T12:10:22Z</time>
      </trkpt>
      <trkpt lat="46.04743" lon="5.32105">
        <ele>235.2</ele>
        <time>2022-02-24T12:10:23Z</time>
      </trkpt>
      <trkpt lat="46.04739" lon="5.32101">
        <ele>235.2</ele>
        <time>2022-02-24T12:10:24Z</time>
      </trkpt>
      <trkpt lat="46.04736" lon="5.32098">
        <ele>235.6</ele>
        <time>2022-02-24T12:10:25Z</time>
      </trkpt>
      <trkpt lat="46.04733" lon="5.32095">
        <ele>236</ele>
        <time>2022-02-24T12:10:26Z</time>
      </trkpt>
      <trkpt lat="46.0473" lon="5.32091">
        <ele>236.2</ele>
        <time>2022-02-24T12:10:27Z</time>
      </trkpt>
      <trkpt lat="46.04727" lon="5.32088">
        <ele>236.4</ele>
        <time>2022-02-24T12:10:28Z</time>
      </trkpt>
      <trkpt lat="46.04725" lon="5.32085">
        <ele>236.8</ele>
        <time>2022-02-24T12:10:29Z</time>
      </trkpt>
      <trkpt lat="46.04722" lon="5.32081">
        <ele>236.8</ele>
        <time>2022-02-24T12:10:30Z</time>
      </trkpt>
      <trkpt lat="46.04719" lon="5.32078">
        <ele>237</ele>
        <time>2022-02-24T12:10:31Z</time>
      </trkpt>
      <trkpt lat="46.04716" lon="5.32074">
        <ele>237</ele>
        <time>2022-02-24T12:10:32Z</time>
      </trkpt>
      <trkpt lat="46.04713" lon="5.3207">
        <ele>237.4</ele>
        <time>2022-02-24T12:10:33Z</time>
      </trkpt>
      <trkpt lat="46.0471" lon="5.32066">
        <ele>237.4</ele>
        <time>2022-02-24T12:10:34Z</time>
      </trkpt>
      <trkpt lat="46.04708" lon="5.32062">
        <ele>237.6</ele>
        <time>2022-02-24T12:10:35Z</time>
      </trkpt>
      <trkpt lat="46.04705" lon="5.32058">
        <ele>237.6</ele>
        <time>2022-02-24T12:10:36Z</time>
      </trkpt>
      <trkpt lat="46.04702" lon="5.32053">
        <ele>238</ele>
        <time>2022-02-24T12:10:37Z</time>
      </trkpt>
      <trkpt lat="46.04699" lon="5.32049">
        <ele>238</ele>
        <time>2022-02-24T12:10:38Z</time>
      </trkpt>
      <trkpt lat="46.04697" lon="5.32044">
        <ele>238</ele>
        <time>2022-02-24T12:10:39Z</time>
      </trkpt>
      <trkpt lat="46.04694" lon="5.32039">
        <ele>238</ele>
        <time>2022-02-24T12:10:40Z</time>
      </trkpt>
      <trkpt lat="46.04691" lon="5.32034">
        <ele>238</ele>
        <time>2022-02-24T12:10:41Z</time>
      </trkpt>
      <trkpt lat="46.04689" lon="5.32029">
        <ele>238</ele>
        <time>2022-02-24T12:10:42Z</time>
      </trkpt>
      <trkpt lat="46.04685" lon="5.32021">
        <ele>238.2</ele>
        <time>2022-02-24T12:10:43Z</time>
      </trkpt>
      <trkpt lat="46.04684" lon="5.32018">
        <ele>238.2</ele>
        <time>2022-02-24T12:10:44Z</time>
      </trkpt>
      <trkpt lat="46.04681" lon="5.32013">
        <ele>238.2</ele>
        <time>2022-02-24T12:10:45Z</time>
      </trkpt>
      <trkpt lat="46.04679" lon="5.32009">
        <ele>238.2</ele>
        <time>2022-02-24T12:10:46Z</time>
      </trkpt>
      <trkpt lat="46.04676" lon="5.32005">
        <ele>238.2</ele>
        <time>2022-02-24T12:10:47Z</time>
      </trkpt>
      <trkpt lat="46.04675" lon="5.32003">
        <ele>238.2</ele>
        <time>2022-02-24T12:10:48Z</time>
      </trkpt>
      <trkpt lat="46.04674" lon="5.32001">
        <ele>238.4</ele>
        <time>2022-02-24T12:10:49Z</time>
      </trkpt>
      <trkpt lat="46.04672" lon="5.31996">
        <ele>237.8</ele>
        <time>2022-02-24T12:11:27Z</time>
      </trkpt>
      <trkpt lat="46.04671" lon="5.31993">
        <ele>237.8</ele>
        <time>2022-02-24T12:11:28Z</time>
      </trkpt>
      <trkpt lat="46.04671" lon="5.31993">
        <ele>237.8</ele>
        <time>2022-02-24T12:11:29Z</time>
      </trkpt>
      <trkpt lat="46.04669" lon="5.3199">
        <ele>237.8</ele>
        <time>2022-02-24T12:11:30Z</time>
      </trkpt>
      <trkpt lat="46.04668" lon="5.31987">
        <ele>237.8</ele>
        <time>2022-02-24T12:11:31Z</time>
      </trkpt>
      <trkpt lat="46.04666" lon="5.31984">
        <ele>237.8</ele>
        <time>2022-02-24T12:11:32Z</time>
      </trkpt>
      <trkpt lat="46.04663" lon="5.31978">
        <ele>238.2</ele>
        <time>2022-02-24T12:11:33Z</time>
      </trkpt>
      <trkpt lat="46.04662" lon="5.31976">
        <ele>238.2</ele>
        <time>2022-02-24T12:11:34Z</time>
      </trkpt>
      <trkpt lat="46.0466" lon="5.31971">
        <ele>238.2</ele>
        <time>2022-02-24T12:11:35Z</time>
      </trkpt>
      <trkpt lat="46.04658" lon="5.31967">
        <ele>238.2</ele>
        <time>2022-02-24T12:11:36Z</time>
      </trkpt>
      <trkpt lat="46.04656" lon="5.31963">
        <ele>238.2</ele>
        <time>2022-02-24T12:11:37Z</time>
      </trkpt>
      <trkpt lat="46.04653" lon="5.31956">
        <ele>238.2</ele>
        <time>2022-02-24T12:11:38Z</time>
      </trkpt>
      <trkpt lat="46.04652" lon="5.31954">
        <ele>238.2</ele>
        <time>2022-02-24T12:11:39Z</time>
      </trkpt>
      <trkpt lat="46.04648" lon="5.31946">
        <ele>238.2</ele>
        <time>2022-02-24T12:11:40Z</time>
      </trkpt>
      <trkpt lat="46.04647" lon="5.31944">
        <ele>238.2</ele>
        <time>2022-02-24T12:11:41Z</time>
      </trkpt>
      <trkpt lat="46.04644" lon="5.31939">
        <ele>238.2</ele>
        <time>2022-02-24T12:11:42Z</time>
      </trkpt>
      <trkpt lat="46.04642" lon="5.31933">
        <ele>238.2</ele>
        <time>2022-02-24T12:11:43Z</time>
      </trkpt>
      <trkpt lat="46.04639" lon="5.31928">
        <ele>238.2</ele>
        <time>2022-02-24T12:11:44Z</time>
      </trkpt>
      <trkpt lat="46.04635" lon="5.31921">
        <ele>238.2</ele>
        <time>2022-02-24T12:11:45Z</time>
      </trkpt>
      <trkpt lat="46.04633" lon="5.31919">
        <ele>238.2</ele>
        <time>2022-02-24T12:11:46Z</time>
      </trkpt>
      <trkpt lat="46.0463" lon="5.31914">
        <ele>238.4</ele>
        <time>2022-02-24T12:11:47Z</time>
      </trkpt>
      <trkpt lat="46.04627" lon="5.31909">
        <ele>238.4</ele>
        <time>2022-02-24T12:11:48Z</time>
      </trkpt>
      <trkpt lat="46.04624" lon="5.31905">
        <ele>238.4</ele>
        <time>2022-02-24T12:11:49Z</time>
      </trkpt>
      <trkpt lat="46.04621" lon="5.31901">
        <ele>238.4</ele>
        <time>2022-02-24T12:11:50Z</time>
      </trkpt>
      <trkpt lat="46.04616" lon="5.31896">
        <ele>238.4</ele>
        <time>2022-02-24T12:11:51Z</time>
      </trkpt>
      <trkpt lat="46.04614" lon="5.31895">
        <ele>238.6</ele>
        <time>2022-02-24T12:11:52Z</time>
      </trkpt>
      <trkpt lat="46.04608" lon="5.31891">
        <ele>238.6</ele>
        <time>2022-02-24T12:11:53Z</time>
      </trkpt>
      <trkpt lat="46.04607" lon="5.3189">
        <ele>238.6</ele>
        <time>2022-02-24T12:11:54Z</time>
      </trkpt>
      <trkpt lat="46.04603" lon="5.31888">
        <ele>238.6</ele>
        <time>2022-02-24T12:11:55Z</time>
      </trkpt>
      <trkpt lat="46.04599" lon="5.31885">
        <ele>238.4</ele>
        <time>2022-02-24T12:11:56Z</time>
      </trkpt>
      <trkpt lat="46.04594" lon="5.31883">
        <ele>238.4</ele>
        <time>2022-02-24T12:11:57Z</time>
      </trkpt>
      <trkpt lat="46.04587" lon="5.3188">
        <ele>238.4</ele>
        <time>2022-02-24T12:11:58Z</time>
      </trkpt>
      <trkpt lat="46.04584" lon="5.31879">
        <ele>238.2</ele>
        <time>2022-02-24T12:11:59Z</time>
      </trkpt>
      <trkpt lat="46.04579" lon="5.31877">
        <ele>238.2</ele>
        <time>2022-02-24T12:12:00Z</time>
      </trkpt>
      <trkpt lat="46.04573" lon="5.31875">
        <ele>238.2</ele>
        <time>2022-02-24T12:12:01Z</time>
      </trkpt>
      <trkpt lat="46.04568" lon="5.31872">
        <ele>238.2</ele>
        <time>2022-02-24T12:12:02Z</time>
      </trkpt>
      <trkpt lat="46.04562" lon="5.3187">
        <ele>237.8</ele>
        <time>2022-02-24T12:12:03Z</time>
      </trkpt>
      <trkpt lat="46.04557" lon="5.31868">
        <ele>237.8</ele>
        <time>2022-02-24T12:12:04Z</time>
      </trkpt>
      <trkpt lat="46.04551" lon="5.31866">
        <ele>237.8</ele>
        <time>2022-02-24T12:12:05Z</time>
      </trkpt>
      <trkpt lat="46.04546" lon="5.31865">
        <ele>238.2</ele>
        <time>2022-02-24T12:12:06Z</time>
      </trkpt>
      <trkpt lat="46.04537" lon="5.31862">
        <ele>238.2</ele>
        <time>2022-02-24T12:12:07Z</time>
      </trkpt>
      <trkpt lat="46.04534" lon="5.31861">
        <ele>238.2</ele>
        <time>2022-02-24T12:12:08Z</time>
      </trkpt>
      <trkpt lat="46.04528" lon="5.31859">
        <ele>237.6</ele>
        <time>2022-02-24T12:12:09Z</time>
      </trkpt>
      <trkpt lat="46.04522" lon="5.31857">
        <ele>237.2</ele>
        <time>2022-02-24T12:12:10Z</time>
      </trkpt>
      <trkpt lat="46.04513" lon="5.31854">
        <ele>237</ele>
        <time>2022-02-24T12:12:11Z</time>
      </trkpt>
      <trkpt lat="46.0451" lon="5.31853">
        <ele>237</ele>
        <time>2022-02-24T12:12:12Z</time>
      </trkpt>
      <trkpt lat="46.04504" lon="5.31851">
        <ele>237</ele>
        <time>2022-02-24T12:12:13Z</time>
      </trkpt>
      <trkpt lat="46.04497" lon="5.31848">
        <ele>236.6</ele>
        <time>2022-02-24T12:12:14Z</time>
      </trkpt>
      <trkpt lat="46.04491" lon="5.31846">
        <ele>236.6</ele>
        <time>2022-02-24T12:12:15Z</time>
      </trkpt>
      <trkpt lat="46.04484" lon="5.31844">
        <ele>236.4</ele>
        <time>2022-02-24T12:12:16Z</time>
      </trkpt>
      <trkpt lat="46.04478" lon="5.31842">
        <ele>236.4</ele>
        <time>2022-02-24T12:12:17Z</time>
      </trkpt>
      <trkpt lat="46.04468" lon="5.31839">
        <ele>236</ele>
        <time>2022-02-24T12:12:18Z</time>
      </trkpt>
      <trkpt lat="46.04464" lon="5.31838">
        <ele>236</ele>
        <time>2022-02-24T12:12:19Z</time>
      </trkpt>
      <trkpt lat="46.04454" lon="5.31834">
        <ele>235.8</ele>
        <time>2022-02-24T12:12:20Z</time>
      </trkpt>
      <trkpt lat="46.04451" lon="5.31833">
        <ele>235.8</ele>
        <time>2022-02-24T12:12:21Z</time>
      </trkpt>
      <trkpt lat="46.04444" lon="5.31831">
        <ele>235.6</ele>
        <time>2022-02-24T12:12:22Z</time>
      </trkpt>
      <trkpt lat="46.04437" lon="5.31829">
        <ele>235.4</ele>
        <time>2022-02-24T12:12:23Z</time>
      </trkpt>
      <trkpt lat="46.04431" lon="5.31826">
        <ele>235</ele>
        <time>2022-02-24T12:12:24Z</time>
      </trkpt>
      <trkpt lat="46.04423" lon="5.31824">
        <ele>234.8</ele>
        <time>2022-02-24T12:12:25Z</time>
      </trkpt>
      <trkpt lat="46.04413" lon="5.3182">
        <ele>234.6</ele>
        <time>2022-02-24T12:12:26Z</time>
      </trkpt>
      <trkpt lat="46.0441" lon="5.31819">
        <ele>234.2</ele>
        <time>2022-02-24T12:12:27Z</time>
      </trkpt>
      <trkpt lat="46.04403" lon="5.31818">
        <ele>234.2</ele>
        <time>2022-02-24T12:12:28Z</time>
      </trkpt>
      <trkpt lat="46.04396" lon="5.31816">
        <ele>234</ele>
        <time>2022-02-24T12:12:29Z</time>
      </trkpt>
      <trkpt lat="46.04386" lon="5.31813">
        <ele>234</ele>
        <time>2022-02-24T12:12:30Z</time>
      </trkpt>
      <trkpt lat="46.04383" lon="5.31812">
        <ele>233.8</ele>
        <time>2022-02-24T12:12:31Z</time>
      </trkpt>
      <trkpt lat="46.04377" lon="5.3181">
        <ele>233.8</ele>
        <time>2022-02-24T12:12:32Z</time>
      </trkpt>
      <trkpt lat="46.0437" lon="5.31808">
        <ele>233.4</ele>
        <time>2022-02-24T12:12:33Z</time>
      </trkpt>
      <trkpt lat="46.04364" lon="5.31806">
        <ele>233.2</ele>
        <time>2022-02-24T12:12:34Z</time>
      </trkpt>
      <trkpt lat="46.04358" lon="5.31805">
        <ele>233.2</ele>
        <time>2022-02-24T12:12:35Z</time>
      </trkpt>
      <trkpt lat="46.04352" lon="5.31803">
        <ele>233.2</ele>
        <time>2022-02-24T12:12:36Z</time>
      </trkpt>
      <trkpt lat="46.04346" lon="5.318">
        <ele>232.6</ele>
        <time>2022-02-24T12:12:37Z</time>
      </trkpt>
      <trkpt lat="46.04339" lon="5.31798">
        <ele>232.6</ele>
        <time>2022-02-24T12:12:38Z</time>
      </trkpt>
      <trkpt lat="46.0433" lon="5.31795">
        <ele>232.4</ele>
        <time>2022-02-24T12:12:39Z</time>
      </trkpt>
      <trkpt lat="46.04327" lon="5.31794">
        <ele>232</ele>
        <time>2022-02-24T12:12:40Z</time>
      </trkpt>
      <trkpt lat="46.04321" lon="5.31792">
        <ele>231.8</ele>
        <time>2022-02-24T12:12:41Z</time>
      </trkpt>
      <trkpt lat="46.04311" lon="5.31789">
        <ele>231.8</ele>
        <time>2022-02-24T12:12:42Z</time>
      </trkpt>
      <trkpt lat="46.04308" lon="5.31789">
        <ele>231.6</ele>
        <time>2022-02-24T12:12:43Z</time>
      </trkpt>
      <trkpt lat="46.04302" lon="5.31787">
        <ele>231.4</ele>
        <time>2022-02-24T12:12:44Z</time>
      </trkpt>
      <trkpt lat="46.04292" lon="5.31783">
        <ele>231.4</ele>
        <time>2022-02-24T12:12:45Z</time>
      </trkpt>
      <trkpt lat="46.04289" lon="5.31782">
        <ele>231.2</ele>
        <time>2022-02-24T12:12:46Z</time>
      </trkpt>
      <trkpt lat="46.04283" lon="5.3178">
        <ele>231.4</ele>
        <time>2022-02-24T12:12:47Z</time>
      </trkpt>
      <trkpt lat="46.04276" lon="5.31778">
        <ele>231.4</ele>
        <time>2022-02-24T12:12:48Z</time>
      </trkpt>
      <trkpt lat="46.0427" lon="5.31776">
        <ele>231</ele>
        <time>2022-02-24T12:12:49Z</time>
      </trkpt>
      <trkpt lat="46.04264" lon="5.31775">
        <ele>231.4</ele>
        <time>2022-02-24T12:12:50Z</time>
      </trkpt>
      <trkpt lat="46.04255" lon="5.31772">
        <ele>231.4</ele>
        <time>2022-02-24T12:12:51Z</time>
      </trkpt>
      <trkpt lat="46.04252" lon="5.31771">
        <ele>231.4</ele>
        <time>2022-02-24T12:12:52Z</time>
      </trkpt>
      <trkpt lat="46.04243" lon="5.31768">
        <ele>231.4</ele>
        <time>2022-02-24T12:12:53Z</time>
      </trkpt>
      <trkpt lat="46.0424" lon="5.31767">
        <ele>231.4</ele>
        <time>2022-02-24T12:12:54Z</time>
      </trkpt>
      <trkpt lat="46.04234" lon="5.31765">
        <ele>231.6</ele>
        <time>2022-02-24T12:12:55Z</time>
      </trkpt>
      <trkpt lat="46.04228" lon="5.31764">
        <ele>231.6</ele>
        <time>2022-02-24T12:12:56Z</time>
      </trkpt>
      <trkpt lat="46.04219" lon="5.31761">
        <ele>231.6</ele>
        <time>2022-02-24T12:12:57Z</time>
      </trkpt>
      <trkpt lat="46.04216" lon="5.3176">
        <ele>231.6</ele>
        <time>2022-02-24T12:12:58Z</time>
      </trkpt>
      <trkpt lat="46.0421" lon="5.31758">
        <ele>231.6</ele>
        <time>2022-02-24T12:12:59Z</time>
      </trkpt>
      <trkpt lat="46.042" lon="5.31755">
        <ele>231.6</ele>
        <time>2022-02-24T12:13:00Z</time>
      </trkpt>
      <trkpt lat="46.04198" lon="5.31754">
        <ele>231.8</ele>
        <time>2022-02-24T12:13:01Z</time>
      </trkpt>
      <trkpt lat="46.04192" lon="5.31752">
        <ele>231.8</ele>
        <time>2022-02-24T12:13:02Z</time>
      </trkpt>
      <trkpt lat="46.04186" lon="5.31751">
        <ele>231.8</ele>
        <time>2022-02-24T12:13:03Z</time>
      </trkpt>
      <trkpt lat="46.0418" lon="5.31749">
        <ele>231.8</ele>
        <time>2022-02-24T12:13:04Z</time>
      </trkpt>
      <trkpt lat="46.04175" lon="5.31748">
        <ele>231.8</ele>
        <time>2022-02-24T12:13:05Z</time>
      </trkpt>
      <trkpt lat="46.04169" lon="5.31746">
        <ele>231.8</ele>
        <time>2022-02-24T12:13:06Z</time>
      </trkpt>
      <trkpt lat="46.04163" lon="5.31745">
        <ele>231.8</ele>
        <time>2022-02-24T12:13:07Z</time>
      </trkpt>
      <trkpt lat="46.04158" lon="5.31743">
        <ele>232.2</ele>
        <time>2022-02-24T12:13:08Z</time>
      </trkpt>
      <trkpt lat="46.04149" lon="5.31741">
        <ele>232.2</ele>
        <time>2022-02-24T12:13:09Z</time>
      </trkpt>
      <trkpt lat="46.04146" lon="5.31741">
        <ele>232.4</ele>
        <time>2022-02-24T12:13:10Z</time>
      </trkpt>
      <trkpt lat="46.04141" lon="5.31738">
        <ele>232.4</ele>
        <time>2022-02-24T12:13:11Z</time>
      </trkpt>
      <trkpt lat="46.04132" lon="5.31735">
        <ele>232.4</ele>
        <time>2022-02-24T12:13:12Z</time>
      </trkpt>
      <trkpt lat="46.04129" lon="5.31734">
        <ele>232.4</ele>
        <time>2022-02-24T12:13:13Z</time>
      </trkpt>
      <trkpt lat="46.04124" lon="5.31732">
        <ele>232.4</ele>
        <time>2022-02-24T12:13:14Z</time>
      </trkpt>
      <trkpt lat="46.04118" lon="5.31729">
        <ele>232.4</ele>
        <time>2022-02-24T12:13:15Z</time>
      </trkpt>
      <trkpt lat="46.04109" lon="5.31726">
        <ele>232.4</ele>
        <time>2022-02-24T12:13:16Z</time>
      </trkpt>
      <trkpt lat="46.04107" lon="5.31725">
        <ele>232.4</ele>
        <time>2022-02-24T12:13:17Z</time>
      </trkpt>
      <trkpt lat="46.04098" lon="5.31722">
        <ele>232.4</ele>
        <time>2022-02-24T12:13:18Z</time>
      </trkpt>
      <trkpt lat="46.04095" lon="5.31721">
        <ele>232.4</ele>
        <time>2022-02-24T12:13:19Z</time>
      </trkpt>
      <trkpt lat="46.04089" lon="5.31719">
        <ele>232.4</ele>
        <time>2022-02-24T12:13:20Z</time>
      </trkpt>
      <trkpt lat="46.04083" lon="5.31717">
        <ele>232.4</ele>
        <time>2022-02-24T12:13:21Z</time>
      </trkpt>
      <trkpt lat="46.04077" lon="5.31715">
        <ele>232.4</ele>
        <time>2022-02-24T12:13:22Z</time>
      </trkpt>
      <trkpt lat="46.04071" lon="5.31713">
        <ele>232.4</ele>
        <time>2022-02-24T12:13:23Z</time>
      </trkpt>
      <trkpt lat="46.04062" lon="5.3171">
        <ele>232.2</ele>
        <time>2022-02-24T12:13:24Z</time>
      </trkpt>
      <trkpt lat="46.04059" lon="5.31709">
        <ele>232.2</ele>
        <time>2022-02-24T12:13:25Z</time>
      </trkpt>
      <trkpt lat="46.04052" lon="5.31708">
        <ele>231.8</ele>
        <time>2022-02-24T12:13:26Z</time>
      </trkpt>
      <trkpt lat="46.04046" lon="5.31706">
        <ele>231.8</ele>
        <time>2022-02-24T12:13:27Z</time>
      </trkpt>
      <trkpt lat="46.0404" lon="5.31705">
        <ele>231.6</ele>
        <time>2022-02-24T12:13:28Z</time>
      </trkpt>
      <trkpt lat="46.04033" lon="5.31704">
        <ele>231.6</ele>
        <time>2022-02-24T12:13:29Z</time>
      </trkpt>
      <trkpt lat="46.04027" lon="5.31703">
        <ele>231.6</ele>
        <time>2022-02-24T12:13:30Z</time>
      </trkpt>
      <trkpt lat="46.04017" lon="5.31701">
        <ele>231.6</ele>
        <time>2022-02-24T12:13:31Z</time>
      </trkpt>
      <trkpt lat="46.04014" lon="5.31701">
        <ele>231.6</ele>
        <time>2022-02-24T12:13:32Z</time>
      </trkpt>
      <trkpt lat="46.04008" lon="5.317">
        <ele>231.4</ele>
        <time>2022-02-24T12:13:33Z</time>
      </trkpt>
      <trkpt lat="46.04" lon="5.31697">
        <ele>231.4</ele>
        <time>2022-02-24T12:13:34Z</time>
      </trkpt>
      <trkpt lat="46.03997" lon="5.31696">
        <ele>231.4</ele>
        <time>2022-02-24T12:13:35Z</time>
      </trkpt>
      <trkpt lat="46.03992" lon="5.31694">
        <ele>231.4</ele>
        <time>2022-02-24T12:13:36Z</time>
      </trkpt>
      <trkpt lat="46.03986" lon="5.31691">
        <ele>231</ele>
        <time>2022-02-24T12:13:37Z</time>
      </trkpt>
      <trkpt lat="46.03978" lon="5.31685">
        <ele>230.8</ele>
        <time>2022-02-24T12:13:38Z</time>
      </trkpt>
      <trkpt lat="46.03976" lon="5.31683">
        <ele>230.8</ele>
        <time>2022-02-24T12:13:39Z</time>
      </trkpt>
      <trkpt lat="46.03971" lon="5.31679">
        <ele>230.8</ele>
        <time>2022-02-24T12:13:40Z</time>
      </trkpt>
      <trkpt lat="46.03966" lon="5.31675">
        <ele>230.8</ele>
        <time>2022-02-24T12:13:41Z</time>
      </trkpt>
      <trkpt lat="46.0396" lon="5.31667">
        <ele>230.8</ele>
        <time>2022-02-24T12:13:42Z</time>
      </trkpt>
      <trkpt lat="46.03958" lon="5.31665">
        <ele>230.8</ele>
        <time>2022-02-24T12:13:43Z</time>
      </trkpt>
      <trkpt lat="46.03954" lon="5.3166">
        <ele>230.8</ele>
        <time>2022-02-24T12:13:44Z</time>
      </trkpt>
      <trkpt lat="46.03949" lon="5.31653">
        <ele>230.8</ele>
        <time>2022-02-24T12:13:45Z</time>
      </trkpt>
      <trkpt lat="46.03947" lon="5.3165">
        <ele>230.8</ele>
        <time>2022-02-24T12:13:46Z</time>
      </trkpt>
      <trkpt lat="46.03943" lon="5.31645">
        <ele>231.2</ele>
        <time>2022-02-24T12:13:47Z</time>
      </trkpt>
      <trkpt lat="46.03937" lon="5.31638">
        <ele>231.2</ele>
        <time>2022-02-24T12:13:48Z</time>
      </trkpt>
      <trkpt lat="46.03935" lon="5.31635">
        <ele>231.2</ele>
        <time>2022-02-24T12:13:49Z</time>
      </trkpt>
      <trkpt lat="46.03929" lon="5.31628">
        <ele>231.2</ele>
        <time>2022-02-24T12:13:50Z</time>
      </trkpt>
      <trkpt lat="46.03927" lon="5.31625">
        <ele>231.4</ele>
        <time>2022-02-24T12:13:51Z</time>
      </trkpt>
      <trkpt lat="46.03923" lon="5.3162">
        <ele>231.4</ele>
        <time>2022-02-24T12:13:52Z</time>
      </trkpt>
      <trkpt lat="46.03919" lon="5.31615">
        <ele>231.4</ele>
        <time>2022-02-24T12:13:53Z</time>
      </trkpt>
      <trkpt lat="46.03913" lon="5.31607">
        <ele>231.4</ele>
        <time>2022-02-24T12:13:54Z</time>
      </trkpt>
      <trkpt lat="46.03911" lon="5.31605">
        <ele>231.4</ele>
        <time>2022-02-24T12:13:55Z</time>
      </trkpt>
      <trkpt lat="46.03907" lon="5.316">
        <ele>231.4</ele>
        <time>2022-02-24T12:13:56Z</time>
      </trkpt>
      <trkpt lat="46.03902" lon="5.31593">
        <ele>231.4</ele>
        <time>2022-02-24T12:13:57Z</time>
      </trkpt>
      <trkpt lat="46.039" lon="5.31591">
        <ele>231.4</ele>
        <time>2022-02-24T12:13:58Z</time>
      </trkpt>
      <trkpt lat="46.03895" lon="5.31584">
        <ele>231.4</ele>
        <time>2022-02-24T12:13:59Z</time>
      </trkpt>
      <trkpt lat="46.03893" lon="5.31582">
        <ele>231.4</ele>
        <time>2022-02-24T12:14:00Z</time>
      </trkpt>
      <trkpt lat="46.03887" lon="5.31575">
        <ele>231.4</ele>
        <time>2022-02-24T12:14:01Z</time>
      </trkpt>
      <trkpt lat="46.03886" lon="5.31573">
        <ele>231.4</ele>
        <time>2022-02-24T12:14:02Z</time>
      </trkpt>
      <trkpt lat="46.03882" lon="5.31569">
        <ele>231.4</ele>
        <time>2022-02-24T12:14:03Z</time>
      </trkpt>
      <trkpt lat="46.03878" lon="5.31566">
        <ele>231.4</ele>
        <time>2022-02-24T12:14:04Z</time>
      </trkpt>
      <trkpt lat="46.03873" lon="5.31559">
        <ele>231.4</ele>
        <time>2022-02-24T12:14:05Z</time>
      </trkpt>
      <trkpt lat="46.03871" lon="5.31557">
        <ele>231.4</ele>
        <time>2022-02-24T12:14:06Z</time>
      </trkpt>
      <trkpt lat="46.03867" lon="5.31551">
        <ele>231.4</ele>
        <time>2022-02-24T12:14:07Z</time>
      </trkpt>
      <trkpt lat="46.03865" lon="5.31548">
        <ele>231.4</ele>
        <time>2022-02-24T12:14:08Z</time>
      </trkpt>
      <trkpt lat="46.03862" lon="5.31544">
        <ele>231.6</ele>
        <time>2022-02-24T12:14:09Z</time>
      </trkpt>
      <trkpt lat="46.03859" lon="5.31539">
        <ele>231.6</ele>
        <time>2022-02-24T12:14:10Z</time>
      </trkpt>
      <trkpt lat="46.03855" lon="5.31535">
        <ele>231.6</ele>
        <time>2022-02-24T12:14:11Z</time>
      </trkpt>
      <trkpt lat="46.03852" lon="5.31531">
        <ele>232</ele>
        <time>2022-02-24T12:14:12Z</time>
      </trkpt>
      <trkpt lat="46.03848" lon="5.31527">
        <ele>232</ele>
        <time>2022-02-24T12:14:13Z</time>
      </trkpt>
      <trkpt lat="46.03844" lon="5.31522">
        <ele>232.4</ele>
        <time>2022-02-24T12:14:14Z</time>
      </trkpt>
      <trkpt lat="46.03839" lon="5.31515">
        <ele>232.4</ele>
        <time>2022-02-24T12:14:15Z</time>
      </trkpt>
      <trkpt lat="46.03837" lon="5.31513">
        <ele>233</ele>
        <time>2022-02-24T12:14:16Z</time>
      </trkpt>
      <trkpt lat="46.03831" lon="5.31505">
        <ele>233.2</ele>
        <time>2022-02-24T12:14:17Z</time>
      </trkpt>
      <trkpt lat="46.03829" lon="5.31503">
        <ele>233.2</ele>
        <time>2022-02-24T12:14:18Z</time>
      </trkpt>
      <trkpt lat="46.03823" lon="5.31495">
        <ele>233.2</ele>
        <time>2022-02-24T12:14:19Z</time>
      </trkpt>
      <trkpt lat="46.03821" lon="5.31492">
        <ele>233.2</ele>
        <time>2022-02-24T12:14:20Z</time>
      </trkpt>
      <trkpt lat="46.03817" lon="5.31487">
        <ele>233.2</ele>
        <time>2022-02-24T12:14:21Z</time>
      </trkpt>
      <trkpt lat="46.03813" lon="5.31482">
        <ele>233</ele>
        <time>2022-02-24T12:14:22Z</time>
      </trkpt>
      <trkpt lat="46.03808" lon="5.31476">
        <ele>233</ele>
        <time>2022-02-24T12:14:23Z</time>
      </trkpt>
      <trkpt lat="46.03804" lon="5.31471">
        <ele>232.6</ele>
        <time>2022-02-24T12:14:24Z</time>
      </trkpt>
      <trkpt lat="46.03797" lon="5.31463">
        <ele>232.6</ele>
        <time>2022-02-24T12:14:25Z</time>
      </trkpt>
      <trkpt lat="46.03795" lon="5.3146">
        <ele>232.6</ele>
        <time>2022-02-24T12:14:26Z</time>
      </trkpt>
      <trkpt lat="46.03791" lon="5.31455">
        <ele>232.6</ele>
        <time>2022-02-24T12:14:27Z</time>
      </trkpt>
      <trkpt lat="46.03784" lon="5.31446">
        <ele>232.6</ele>
        <time>2022-02-24T12:14:28Z</time>
      </trkpt>
      <trkpt lat="46.03782" lon="5.31444">
        <ele>232.6</ele>
        <time>2022-02-24T12:14:29Z</time>
      </trkpt>
      <trkpt lat="46.03777" lon="5.31438">
        <ele>232.6</ele>
        <time>2022-02-24T12:14:30Z</time>
      </trkpt>
      <trkpt lat="46.0377" lon="5.31431">
        <ele>232.6</ele>
        <time>2022-02-24T12:14:31Z</time>
      </trkpt>
      <trkpt lat="46.03768" lon="5.31428">
        <ele>232.6</ele>
        <time>2022-02-24T12:14:32Z</time>
      </trkpt>
      <trkpt lat="46.03764" lon="5.31423">
        <ele>232.6</ele>
        <time>2022-02-24T12:14:33Z</time>
      </trkpt>
      <trkpt lat="46.03757" lon="5.31415">
        <ele>232.6</ele>
        <time>2022-02-24T12:14:34Z</time>
      </trkpt>
      <trkpt lat="46.03755" lon="5.31412">
        <ele>232.6</ele>
        <time>2022-02-24T12:14:35Z</time>
      </trkpt>
      <trkpt lat="46.03748" lon="5.31405">
        <ele>232.8</ele>
        <time>2022-02-24T12:14:36Z</time>
      </trkpt>
      <trkpt lat="46.03746" lon="5.31402">
        <ele>232.8</ele>
        <time>2022-02-24T12:14:37Z</time>
      </trkpt>
      <trkpt lat="46.03742" lon="5.31397">
        <ele>233</ele>
        <time>2022-02-24T12:14:38Z</time>
      </trkpt>
      <trkpt lat="46.03738" lon="5.31392">
        <ele>233</ele>
        <time>2022-02-24T12:14:39Z</time>
      </trkpt>
      <trkpt lat="46.03733" lon="5.31387">
        <ele>233</ele>
        <time>2022-02-24T12:14:40Z</time>
      </trkpt>
      <trkpt lat="46.03729" lon="5.31382">
        <ele>233.4</ele>
        <time>2022-02-24T12:14:41Z</time>
      </trkpt>
      <trkpt lat="46.03723" lon="5.31374">
        <ele>233.4</ele>
        <time>2022-02-24T12:14:42Z</time>
      </trkpt>
      <trkpt lat="46.03721" lon="5.31372">
        <ele>233.6</ele>
        <time>2022-02-24T12:14:43Z</time>
      </trkpt>
      <trkpt lat="46.03717" lon="5.31367">
        <ele>233.6</ele>
        <time>2022-02-24T12:14:44Z</time>
      </trkpt>
      <trkpt lat="46.0371" lon="5.31359">
        <ele>233.6</ele>
        <time>2022-02-24T12:14:45Z</time>
      </trkpt>
      <trkpt lat="46.03708" lon="5.31357">
        <ele>233.6</ele>
        <time>2022-02-24T12:14:46Z</time>
      </trkpt>
      <trkpt lat="46.03704" lon="5.31352">
        <ele>233.6</ele>
        <time>2022-02-24T12:14:47Z</time>
      </trkpt>
      <trkpt lat="46.03698" lon="5.31345">
        <ele>233.6</ele>
        <time>2022-02-24T12:14:48Z</time>
      </trkpt>
      <trkpt lat="46.03696" lon="5.31343">
        <ele>233.8</ele>
        <time>2022-02-24T12:14:49Z</time>
      </trkpt>
      <trkpt lat="46.03692" lon="5.31339">
        <ele>233.8</ele>
        <time>2022-02-24T12:14:50Z</time>
      </trkpt>
      <trkpt lat="46.03689" lon="5.31334">
        <ele>233.8</ele>
        <time>2022-02-24T12:14:51Z</time>
      </trkpt>
      <trkpt lat="46.03683" lon="5.31327">
        <ele>234.2</ele>
        <time>2022-02-24T12:14:52Z</time>
      </trkpt>
      <trkpt lat="46.03681" lon="5.31325">
        <ele>234.2</ele>
        <time>2022-02-24T12:14:53Z</time>
      </trkpt>
      <trkpt lat="46.03676" lon="5.31318">
        <ele>234.2</ele>
        <time>2022-02-24T12:14:54Z</time>
      </trkpt>
      <trkpt lat="46.03674" lon="5.31316">
        <ele>234.4</ele>
        <time>2022-02-24T12:14:55Z</time>
      </trkpt>
      <trkpt lat="46.03671" lon="5.31311">
        <ele>234.4</ele>
        <time>2022-02-24T12:14:56Z</time>
      </trkpt>
      <trkpt lat="46.03667" lon="5.31307">
        <ele>234.4</ele>
        <time>2022-02-24T12:14:57Z</time>
      </trkpt>
      <trkpt lat="46.03662" lon="5.31301">
        <ele>234.6</ele>
        <time>2022-02-24T12:14:58Z</time>
      </trkpt>
      <trkpt lat="46.0366" lon="5.31299">
        <ele>234.8</ele>
        <time>2022-02-24T12:14:59Z</time>
      </trkpt>
      <trkpt lat="46.03657" lon="5.31295">
        <ele>234.8</ele>
        <time>2022-02-24T12:15:00Z</time>
      </trkpt>
      <trkpt lat="46.03653" lon="5.31291">
        <ele>235.2</ele>
        <time>2022-02-24T12:15:01Z</time>
      </trkpt>
      <trkpt lat="46.0365" lon="5.31287">
        <ele>235.4</ele>
        <time>2022-02-24T12:15:02Z</time>
      </trkpt>
      <trkpt lat="46.03646" lon="5.31283">
        <ele>235.6</ele>
        <time>2022-02-24T12:15:03Z</time>
      </trkpt>
      <trkpt lat="46.03641" lon="5.31277">
        <ele>235.6</ele>
        <time>2022-02-24T12:15:04Z</time>
      </trkpt>
      <trkpt lat="46.03639" lon="5.31275">
        <ele>235.6</ele>
        <time>2022-02-24T12:15:05Z</time>
      </trkpt>
      <trkpt lat="46.03634" lon="5.31268">
        <ele>236</ele>
        <time>2022-02-24T12:15:06Z</time>
      </trkpt>
      <trkpt lat="46.03632" lon="5.31266">
        <ele>236</ele>
        <time>2022-02-24T12:15:07Z</time>
      </trkpt>
      <trkpt lat="46.03629" lon="5.31262">
        <ele>236</ele>
        <time>2022-02-24T12:15:08Z</time>
      </trkpt>
      <trkpt lat="46.03625" lon="5.31257">
        <ele>236</ele>
        <time>2022-02-24T12:15:09Z</time>
      </trkpt>
      <trkpt lat="46.03621" lon="5.31253">
        <ele>236</ele>
        <time>2022-02-24T12:15:10Z</time>
      </trkpt>
      <trkpt lat="46.03617" lon="5.31248">
        <ele>236</ele>
        <time>2022-02-24T12:15:11Z</time>
      </trkpt>
      <trkpt lat="46.03611" lon="5.31241">
        <ele>236</ele>
        <time>2022-02-24T12:15:12Z</time>
      </trkpt>
      <trkpt lat="46.03609" lon="5.31238">
        <ele>236</ele>
        <time>2022-02-24T12:15:13Z</time>
      </trkpt>
      <trkpt lat="46.03602" lon="5.31231">
        <ele>236</ele>
        <time>2022-02-24T12:15:14Z</time>
      </trkpt>
      <trkpt lat="46.036" lon="5.31228">
        <ele>235.8</ele>
        <time>2022-02-24T12:15:15Z</time>
      </trkpt>
      <trkpt lat="46.03596" lon="5.31223">
        <ele>235.8</ele>
        <time>2022-02-24T12:15:16Z</time>
      </trkpt>
      <trkpt lat="46.03589" lon="5.31214">
        <ele>235.8</ele>
        <time>2022-02-24T12:15:17Z</time>
      </trkpt>
      <trkpt lat="46.03587" lon="5.31211">
        <ele>235.8</ele>
        <time>2022-02-24T12:15:18Z</time>
      </trkpt>
      <trkpt lat="46.03582" lon="5.31205">
        <ele>235.4</ele>
        <time>2022-02-24T12:15:19Z</time>
      </trkpt>
      <trkpt lat="46.03577" lon="5.31199">
        <ele>235.2</ele>
        <time>2022-02-24T12:15:20Z</time>
      </trkpt>
      <trkpt lat="46.0357" lon="5.3119">
        <ele>235.2</ele>
        <time>2022-02-24T12:15:21Z</time>
      </trkpt>
      <trkpt lat="46.03567" lon="5.31187">
        <ele>234.8</ele>
        <time>2022-02-24T12:15:22Z</time>
      </trkpt>
      <trkpt lat="46.0356" lon="5.31178">
        <ele>234.8</ele>
        <time>2022-02-24T12:15:23Z</time>
      </trkpt>
      <trkpt lat="46.03558" lon="5.31175">
        <ele>234.8</ele>
        <time>2022-02-24T12:15:24Z</time>
      </trkpt>
      <trkpt lat="46.03553" lon="5.31169">
        <ele>234.4</ele>
        <time>2022-02-24T12:15:25Z</time>
      </trkpt>
      <trkpt lat="46.03549" lon="5.31163">
        <ele>234.4</ele>
        <time>2022-02-24T12:15:26Z</time>
      </trkpt>
      <trkpt lat="46.03542" lon="5.31155">
        <ele>234.4</ele>
        <time>2022-02-24T12:15:27Z</time>
      </trkpt>
      <trkpt lat="46.03539" lon="5.31152">
        <ele>234.4</ele>
        <time>2022-02-24T12:15:28Z</time>
      </trkpt>
      <trkpt lat="46.03533" lon="5.31144">
        <ele>234.4</ele>
        <time>2022-02-24T12:15:29Z</time>
      </trkpt>
      <trkpt lat="46.03531" lon="5.31141">
        <ele>234.4</ele>
        <time>2022-02-24T12:15:30Z</time>
      </trkpt>
      <trkpt lat="46.03526" lon="5.31136">
        <ele>234.4</ele>
        <time>2022-02-24T12:15:31Z</time>
      </trkpt>
      <trkpt lat="46.03522" lon="5.31131">
        <ele>234.4</ele>
        <time>2022-02-24T12:15:32Z</time>
      </trkpt>
      <trkpt lat="46.03517" lon="5.31126">
        <ele>234.4</ele>
        <time>2022-02-24T12:15:33Z</time>
      </trkpt>
      <trkpt lat="46.03513" lon="5.31121">
        <ele>234.4</ele>
        <time>2022-02-24T12:15:34Z</time>
      </trkpt>
      <trkpt lat="46.03507" lon="5.31113">
        <ele>234.4</ele>
        <time>2022-02-24T12:15:35Z</time>
      </trkpt>
      <trkpt lat="46.03505" lon="5.31111">
        <ele>234.4</ele>
        <time>2022-02-24T12:15:36Z</time>
      </trkpt>
      <trkpt lat="46.03501" lon="5.31106">
        <ele>234.6</ele>
        <time>2022-02-24T12:15:37Z</time>
      </trkpt>
      <trkpt lat="46.03497" lon="5.31101">
        <ele>234.6</ele>
        <time>2022-02-24T12:15:38Z</time>
      </trkpt>
      <trkpt lat="46.03493" lon="5.31096">
        <ele>234.6</ele>
        <time>2022-02-24T12:15:39Z</time>
      </trkpt>
      <trkpt lat="46.03488" lon="5.31089">
        <ele>234.6</ele>
        <time>2022-02-24T12:15:40Z</time>
      </trkpt>
      <trkpt lat="46.03486" lon="5.31086">
        <ele>234.8</ele>
        <time>2022-02-24T12:15:41Z</time>
      </trkpt>
      <trkpt lat="46.03482" lon="5.31082">
        <ele>234.8</ele>
        <time>2022-02-24T12:15:42Z</time>
      </trkpt>
      <trkpt lat="46.03478" lon="5.31078">
        <ele>234.8</ele>
        <time>2022-02-24T12:15:43Z</time>
      </trkpt>
      <trkpt lat="46.03474" lon="5.31074">
        <ele>234.8</ele>
        <time>2022-02-24T12:15:44Z</time>
      </trkpt>
      <trkpt lat="46.0347" lon="5.31071">
        <ele>235.2</ele>
        <time>2022-02-24T12:15:45Z</time>
      </trkpt>
      <trkpt lat="46.03466" lon="5.31068">
        <ele>235.4</ele>
        <time>2022-02-24T12:15:46Z</time>
      </trkpt>
      <trkpt lat="46.0346" lon="5.31063">
        <ele>235.4</ele>
        <time>2022-02-24T12:15:47Z</time>
      </trkpt>
      <trkpt lat="46.03458" lon="5.31062">
        <ele>235.6</ele>
        <time>2022-02-24T12:15:48Z</time>
      </trkpt>
      <trkpt lat="46.03454" lon="5.31059">
        <ele>235.6</ele>
        <time>2022-02-24T12:15:49Z</time>
      </trkpt>
      <trkpt lat="46.03449" lon="5.31056">
        <ele>236</ele>
        <time>2022-02-24T12:15:50Z</time>
      </trkpt>
      <trkpt lat="46.03444" lon="5.31053">
        <ele>236</ele>
        <time>2022-02-24T12:15:51Z</time>
      </trkpt>
      <trkpt lat="46.03439" lon="5.31049">
        <ele>236.4</ele>
        <time>2022-02-24T12:15:52Z</time>
      </trkpt>
      <trkpt lat="46.03434" lon="5.31046">
        <ele>236.4</ele>
        <time>2022-02-24T12:15:53Z</time>
      </trkpt>
      <trkpt lat="46.03429" lon="5.31042">
        <ele>236.4</ele>
        <time>2022-02-24T12:15:54Z</time>
      </trkpt>
      <trkpt lat="46.03421" lon="5.31037">
        <ele>236.4</ele>
        <time>2022-02-24T12:15:55Z</time>
      </trkpt>
      <trkpt lat="46.03419" lon="5.31035">
        <ele>236.6</ele>
        <time>2022-02-24T12:15:56Z</time>
      </trkpt>
      <trkpt lat="46.03414" lon="5.31031">
        <ele>236.6</ele>
        <time>2022-02-24T12:15:57Z</time>
      </trkpt>
      <trkpt lat="46.03406" lon="5.31026">
        <ele>236.6</ele>
        <time>2022-02-24T12:15:58Z</time>
      </trkpt>
      <trkpt lat="46.03403" lon="5.31025">
        <ele>236.6</ele>
        <time>2022-02-24T12:15:59Z</time>
      </trkpt>
      <trkpt lat="46.03398" lon="5.31021">
        <ele>236.6</ele>
        <time>2022-02-24T12:16:00Z</time>
      </trkpt>
      <trkpt lat="46.03394" lon="5.31018">
        <ele>236.6</ele>
        <time>2022-02-24T12:16:01Z</time>
      </trkpt>
      <trkpt lat="46.03388" lon="5.31015">
        <ele>236.6</ele>
        <time>2022-02-24T12:16:02Z</time>
      </trkpt>
      <trkpt lat="46.03381" lon="5.3101">
        <ele>236.6</ele>
        <time>2022-02-24T12:16:03Z</time>
      </trkpt>
      <trkpt lat="46.03378" lon="5.31008">
        <ele>236.6</ele>
        <time>2022-02-24T12:16:04Z</time>
      </trkpt>
      <trkpt lat="46.03371" lon="5.31003">
        <ele>236.6</ele>
        <time>2022-02-24T12:16:05Z</time>
      </trkpt>
      <trkpt lat="46.03368" lon="5.31002">
        <ele>236.6</ele>
        <time>2022-02-24T12:16:06Z</time>
      </trkpt>
      <trkpt lat="46.03363" lon="5.30999">
        <ele>236.6</ele>
        <time>2022-02-24T12:16:07Z</time>
      </trkpt>
      <trkpt lat="46.03358" lon="5.30996">
        <ele>236.6</ele>
        <time>2022-02-24T12:16:08Z</time>
      </trkpt>
      <trkpt lat="46.03353" lon="5.30993">
        <ele>236.6</ele>
        <time>2022-02-24T12:16:09Z</time>
      </trkpt>
      <trkpt lat="46.03348" lon="5.3099">
        <ele>236.6</ele>
        <time>2022-02-24T12:16:10Z</time>
      </trkpt>
      <trkpt lat="46.03342" lon="5.30987">
        <ele>236.6</ele>
        <time>2022-02-24T12:16:11Z</time>
      </trkpt>
      <trkpt lat="46.03337" lon="5.30984">
        <ele>236.4</ele>
        <time>2022-02-24T12:16:12Z</time>
      </trkpt>
      <trkpt lat="46.03329" lon="5.3098">
        <ele>236.4</ele>
        <time>2022-02-24T12:16:13Z</time>
      </trkpt>
      <trkpt lat="46.03326" lon="5.30979">
        <ele>236.4</ele>
        <time>2022-02-24T12:16:14Z</time>
      </trkpt>
      <trkpt lat="46.03321" lon="5.30977">
        <ele>236.6</ele>
        <time>2022-02-24T12:16:15Z</time>
      </trkpt>
      <trkpt lat="46.03315" lon="5.30975">
        <ele>236.6</ele>
        <time>2022-02-24T12:16:16Z</time>
      </trkpt>
      <trkpt lat="46.0331" lon="5.30972">
        <ele>236.6</ele>
        <time>2022-02-24T12:16:17Z</time>
      </trkpt>
      <trkpt lat="46.03305" lon="5.3097">
        <ele>236.6</ele>
        <time>2022-02-24T12:16:18Z</time>
      </trkpt>
      <trkpt lat="46.03297" lon="5.30966">
        <ele>236.6</ele>
        <time>2022-02-24T12:16:19Z</time>
      </trkpt>
      <trkpt lat="46.03295" lon="5.30965">
        <ele>237</ele>
        <time>2022-02-24T12:16:20Z</time>
      </trkpt>
      <trkpt lat="46.03287" lon="5.30961">
        <ele>237.2</ele>
        <time>2022-02-24T12:16:21Z</time>
      </trkpt>
      <trkpt lat="46.03284" lon="5.3096">
        <ele>237.4</ele>
        <time>2022-02-24T12:16:22Z</time>
      </trkpt>
      <trkpt lat="46.03279" lon="5.30958">
        <ele>237.4</ele>
        <time>2022-02-24T12:16:23Z</time>
      </trkpt>
      <trkpt lat="46.0327" lon="5.30955">
        <ele>237.4</ele>
        <time>2022-02-24T12:16:24Z</time>
      </trkpt>
      <trkpt lat="46.03268" lon="5.30954">
        <ele>237.4</ele>
        <time>2022-02-24T12:16:25Z</time>
      </trkpt>
      <trkpt lat="46.03259" lon="5.30951">
        <ele>237.6</ele>
        <time>2022-02-24T12:16:26Z</time>
      </trkpt>
      <trkpt lat="46.03257" lon="5.3095">
        <ele>237.6</ele>
        <time>2022-02-24T12:16:27Z</time>
      </trkpt>
      <trkpt lat="46.03247" lon="5.30946">
        <ele>237.6</ele>
        <time>2022-02-24T12:16:28Z</time>
      </trkpt>
      <trkpt lat="46.03242" lon="5.30944">
        <ele>237.6</ele>
        <time>2022-02-24T12:16:29Z</time>
      </trkpt>
      <trkpt lat="46.03234" lon="5.30941">
        <ele>237.6</ele>
        <time>2022-02-24T12:16:30Z</time>
      </trkpt>
      <trkpt lat="46.03228" lon="5.30939">
        <ele>237.6</ele>
        <time>2022-02-24T12:16:31Z</time>
      </trkpt>
      <trkpt lat="46.0322" lon="5.30936">
        <ele>237.6</ele>
        <time>2022-02-24T12:16:32Z</time>
      </trkpt>
      <trkpt lat="46.03217" lon="5.30935">
        <ele>237.6</ele>
        <time>2022-02-24T12:16:33Z</time>
      </trkpt>
      <trkpt lat="46.03212" lon="5.30933">
        <ele>238</ele>
        <time>2022-02-24T12:16:34Z</time>
      </trkpt>
      <trkpt lat="46.03209" lon="5.30932">
        <ele>238</ele>
        <time>2022-02-24T12:16:35Z</time>
      </trkpt>
      <trkpt lat="46.03206" lon="5.30931">
        <ele>238</ele>
        <time>2022-02-24T12:16:36Z</time>
      </trkpt>
      <trkpt lat="46.03197" lon="5.30927">
        <ele>238</ele>
        <time>2022-02-24T12:16:37Z</time>
      </trkpt>
      <trkpt lat="46.03194" lon="5.30926">
        <ele>238</ele>
        <time>2022-02-24T12:16:38Z</time>
      </trkpt>
      <trkpt lat="46.03189" lon="5.30923">
        <ele>238</ele>
        <time>2022-02-24T12:16:39Z</time>
      </trkpt>
      <trkpt lat="46.03184" lon="5.3092">
        <ele>238</ele>
        <time>2022-02-24T12:16:40Z</time>
      </trkpt>
      <trkpt lat="46.03175" lon="5.30915">
        <ele>238</ele>
        <time>2022-02-24T12:16:41Z</time>
      </trkpt>
      <trkpt lat="46.03173" lon="5.30914">
        <ele>238</ele>
        <time>2022-02-24T12:16:42Z</time>
      </trkpt>
      <trkpt lat="46.03167" lon="5.3091">
        <ele>237.8</ele>
        <time>2022-02-24T12:16:43Z</time>
      </trkpt>
      <trkpt lat="46.03162" lon="5.30907">
        <ele>237.8</ele>
        <time>2022-02-24T12:16:44Z</time>
      </trkpt>
      <trkpt lat="46.03156" lon="5.30904">
        <ele>237.8</ele>
        <time>2022-02-24T12:16:45Z</time>
      </trkpt>
      <trkpt lat="46.03151" lon="5.309">
        <ele>237.8</ele>
        <time>2022-02-24T12:16:46Z</time>
      </trkpt>
      <trkpt lat="46.03146" lon="5.30897">
        <ele>237.8</ele>
        <time>2022-02-24T12:16:47Z</time>
      </trkpt>
      <trkpt lat="46.0314" lon="5.30894">
        <ele>237.8</ele>
        <time>2022-02-24T12:16:48Z</time>
      </trkpt>
      <trkpt lat="46.03135" lon="5.30891">
        <ele>237.8</ele>
        <time>2022-02-24T12:16:49Z</time>
      </trkpt>
      <trkpt lat="46.0313" lon="5.30888">
        <ele>238</ele>
        <time>2022-02-24T12:16:50Z</time>
      </trkpt>
      <trkpt lat="46.03125" lon="5.30885">
        <ele>238</ele>
        <time>2022-02-24T12:16:51Z</time>
      </trkpt>
      <trkpt lat="46.03117" lon="5.30881">
        <ele>238.2</ele>
        <time>2022-02-24T12:16:52Z</time>
      </trkpt>
      <trkpt lat="46.03114" lon="5.30879">
        <ele>238.2</ele>
        <time>2022-02-24T12:16:53Z</time>
      </trkpt>
      <trkpt lat="46.03106" lon="5.30875">
        <ele>238.2</ele>
        <time>2022-02-24T12:16:54Z</time>
      </trkpt>
      <trkpt lat="46.03104" lon="5.30874">
        <ele>238.4</ele>
        <time>2022-02-24T12:16:55Z</time>
      </trkpt>
      <trkpt lat="46.03098" lon="5.30871">
        <ele>238.4</ele>
        <time>2022-02-24T12:16:56Z</time>
      </trkpt>
      <trkpt lat="46.03093" lon="5.30868">
        <ele>238.4</ele>
        <time>2022-02-24T12:16:57Z</time>
      </trkpt>
      <trkpt lat="46.03085" lon="5.30862">
        <ele>238.4</ele>
        <time>2022-02-24T12:16:58Z</time>
      </trkpt>
      <trkpt lat="46.03083" lon="5.30861">
        <ele>238.4</ele>
        <time>2022-02-24T12:16:59Z</time>
      </trkpt>
      <trkpt lat="46.03077" lon="5.30857">
        <ele>238.4</ele>
        <time>2022-02-24T12:17:00Z</time>
      </trkpt>
      <trkpt lat="46.03069" lon="5.30852">
        <ele>238.8</ele>
        <time>2022-02-24T12:17:01Z</time>
      </trkpt>
      <trkpt lat="46.03066" lon="5.3085">
        <ele>238.8</ele>
        <time>2022-02-24T12:17:02Z</time>
      </trkpt>
      <trkpt lat="46.0306" lon="5.30846">
        <ele>238.8</ele>
        <time>2022-02-24T12:17:03Z</time>
      </trkpt>
      <trkpt lat="46.03055" lon="5.30842">
        <ele>238.8</ele>
        <time>2022-02-24T12:17:04Z</time>
      </trkpt>
      <trkpt lat="46.0305" lon="5.30839">
        <ele>239</ele>
        <time>2022-02-24T12:17:05Z</time>
      </trkpt>
      <trkpt lat="46.03043" lon="5.30833">
        <ele>239</ele>
        <time>2022-02-24T12:17:06Z</time>
      </trkpt>
      <trkpt lat="46.0304" lon="5.30831">
        <ele>239</ele>
        <time>2022-02-24T12:17:07Z</time>
      </trkpt>
      <trkpt lat="46.03033" lon="5.30825">
        <ele>239</ele>
        <time>2022-02-24T12:17:08Z</time>
      </trkpt>
      <trkpt lat="46.03031" lon="5.30823">
        <ele>239</ele>
        <time>2022-02-24T12:17:09Z</time>
      </trkpt>
      <trkpt lat="46.03026" lon="5.3082">
        <ele>239</ele>
        <time>2022-02-24T12:17:10Z</time>
      </trkpt>
      <trkpt lat="46.0302" lon="5.30816">
        <ele>239</ele>
        <time>2022-02-24T12:17:11Z</time>
      </trkpt>
      <trkpt lat="46.03015" lon="5.30812">
        <ele>239</ele>
        <time>2022-02-24T12:17:12Z</time>
      </trkpt>
      <trkpt lat="46.0301" lon="5.30808">
        <ele>239</ele>
        <time>2022-02-24T12:17:13Z</time>
      </trkpt>
      <trkpt lat="46.03006" lon="5.30804">
        <ele>239</ele>
        <time>2022-02-24T12:17:14Z</time>
      </trkpt>
      <trkpt lat="46.03" lon="5.30798">
        <ele>239</ele>
        <time>2022-02-24T12:17:15Z</time>
      </trkpt>
      <trkpt lat="46.02997" lon="5.30796">
        <ele>239.4</ele>
        <time>2022-02-24T12:17:16Z</time>
      </trkpt>
      <trkpt lat="46.02992" lon="5.30792">
        <ele>239.4</ele>
        <time>2022-02-24T12:17:17Z</time>
      </trkpt>
      <trkpt lat="46.02987" lon="5.30789">
        <ele>239.4</ele>
        <time>2022-02-24T12:17:18Z</time>
      </trkpt>
      <trkpt lat="46.02983" lon="5.30784">
        <ele>239.6</ele>
        <time>2022-02-24T12:17:19Z</time>
      </trkpt>
      <trkpt lat="46.02975" lon="5.30778">
        <ele>239.6</ele>
        <time>2022-02-24T12:17:20Z</time>
      </trkpt>
      <trkpt lat="46.02972" lon="5.30775">
        <ele>239.8</ele>
        <time>2022-02-24T12:17:21Z</time>
      </trkpt>
      <trkpt lat="46.02964" lon="5.30769">
        <ele>239.8</ele>
        <time>2022-02-24T12:17:22Z</time>
      </trkpt>
      <trkpt lat="46.02961" lon="5.30767">
        <ele>239.8</ele>
        <time>2022-02-24T12:17:23Z</time>
      </trkpt>
      <trkpt lat="46.02953" lon="5.3076">
        <ele>239.8</ele>
        <time>2022-02-24T12:17:24Z</time>
      </trkpt>
      <trkpt lat="46.0295" lon="5.30758">
        <ele>239.8</ele>
        <time>2022-02-24T12:17:25Z</time>
      </trkpt>
      <trkpt lat="46.02942" lon="5.30751">
        <ele>239.8</ele>
        <time>2022-02-24T12:17:26Z</time>
      </trkpt>
      <trkpt lat="46.02939" lon="5.30749">
        <ele>239.8</ele>
        <time>2022-02-24T12:17:27Z</time>
      </trkpt>
      <trkpt lat="46.02933" lon="5.30745">
        <ele>239.8</ele>
        <time>2022-02-24T12:17:28Z</time>
      </trkpt>
      <trkpt lat="46.02928" lon="5.30741">
        <ele>239.8</ele>
        <time>2022-02-24T12:17:29Z</time>
      </trkpt>
      <trkpt lat="46.0292" lon="5.30734">
        <ele>239.8</ele>
        <time>2022-02-24T12:17:30Z</time>
      </trkpt>
      <trkpt lat="46.02917" lon="5.30731">
        <ele>239.8</ele>
        <time>2022-02-24T12:17:31Z</time>
      </trkpt>
      <trkpt lat="46.02909" lon="5.30724">
        <ele>239.8</ele>
        <time>2022-02-24T12:17:32Z</time>
      </trkpt>
      <trkpt lat="46.02906" lon="5.30722">
        <ele>239.8</ele>
        <time>2022-02-24T12:17:33Z</time>
      </trkpt>
      <trkpt lat="46.029" lon="5.30717">
        <ele>239.8</ele>
        <time>2022-02-24T12:17:34Z</time>
      </trkpt>
      <trkpt lat="46.02895" lon="5.30712">
        <ele>239.8</ele>
        <time>2022-02-24T12:17:35Z</time>
      </trkpt>
      <trkpt lat="46.02889" lon="5.30707">
        <ele>239.8</ele>
        <time>2022-02-24T12:17:36Z</time>
      </trkpt>
      <trkpt lat="46.02884" lon="5.30701">
        <ele>239.6</ele>
        <time>2022-02-24T12:17:37Z</time>
      </trkpt>
      <trkpt lat="46.02878" lon="5.30695">
        <ele>239.6</ele>
        <time>2022-02-24T12:17:38Z</time>
      </trkpt>
      <trkpt lat="46.02873" lon="5.30689">
        <ele>239.2</ele>
        <time>2022-02-24T12:17:39Z</time>
      </trkpt>
      <trkpt lat="46.02865" lon="5.3068">
        <ele>239.2</ele>
        <time>2022-02-24T12:17:40Z</time>
      </trkpt>
      <trkpt lat="46.02862" lon="5.30677">
        <ele>239</ele>
        <time>2022-02-24T12:17:41Z</time>
      </trkpt>
      <trkpt lat="46.02854" lon="5.30667">
        <ele>239</ele>
        <time>2022-02-24T12:17:42Z</time>
      </trkpt>
      <trkpt lat="46.02851" lon="5.30664">
        <ele>238.6</ele>
        <time>2022-02-24T12:17:43Z</time>
      </trkpt>
      <trkpt lat="46.02846" lon="5.30658">
        <ele>238.6</ele>
        <time>2022-02-24T12:17:44Z</time>
      </trkpt>
      <trkpt lat="46.0284" lon="5.30651">
        <ele>238.4</ele>
        <time>2022-02-24T12:17:45Z</time>
      </trkpt>
      <trkpt lat="46.02831" lon="5.30641">
        <ele>238.4</ele>
        <time>2022-02-24T12:17:46Z</time>
      </trkpt>
      <trkpt lat="46.02829" lon="5.30638">
        <ele>238.2</ele>
        <time>2022-02-24T12:17:47Z</time>
      </trkpt>
      <trkpt lat="46.02823" lon="5.30631">
        <ele>238.2</ele>
        <time>2022-02-24T12:17:48Z</time>
      </trkpt>
      <trkpt lat="46.02818" lon="5.30625">
        <ele>237.8</ele>
        <time>2022-02-24T12:17:49Z</time>
      </trkpt>
      <trkpt lat="46.02812" lon="5.30618">
        <ele>237.8</ele>
        <time>2022-02-24T12:17:50Z</time>
      </trkpt>
      <trkpt lat="46.02803" lon="5.30609">
        <ele>237.4</ele>
        <time>2022-02-24T12:17:51Z</time>
      </trkpt>
      <trkpt lat="46.028" lon="5.30606">
        <ele>237.4</ele>
        <time>2022-02-24T12:17:52Z</time>
      </trkpt>
      <trkpt lat="46.02795" lon="5.306">
        <ele>237.2</ele>
        <time>2022-02-24T12:17:53Z</time>
      </trkpt>
      <trkpt lat="46.02789" lon="5.30595">
        <ele>237.2</ele>
        <time>2022-02-24T12:17:54Z</time>
      </trkpt>
      <trkpt lat="46.02783" lon="5.3059">
        <ele>237.2</ele>
        <time>2022-02-24T12:17:55Z</time>
      </trkpt>
      <trkpt lat="46.02777" lon="5.30585">
        <ele>236.8</ele>
        <time>2022-02-24T12:17:56Z</time>
      </trkpt>
      <trkpt lat="46.02768" lon="5.30577">
        <ele>236.8</ele>
        <time>2022-02-24T12:17:57Z</time>
      </trkpt>
      <trkpt lat="46.02765" lon="5.30575">
        <ele>236.4</ele>
        <time>2022-02-24T12:17:58Z</time>
      </trkpt>
      <trkpt lat="46.02755" lon="5.30568">
        <ele>236.2</ele>
        <time>2022-02-24T12:17:59Z</time>
      </trkpt>
      <trkpt lat="46.02752" lon="5.30566">
        <ele>236.2</ele>
        <time>2022-02-24T12:18:00Z</time>
      </trkpt>
      <trkpt lat="46.02746" lon="5.30562">
        <ele>235.8</ele>
        <time>2022-02-24T12:18:01Z</time>
      </trkpt>
      <trkpt lat="46.02735" lon="5.30556">
        <ele>235.4</ele>
        <time>2022-02-24T12:18:02Z</time>
      </trkpt>
      <trkpt lat="46.02731" lon="5.30554">
        <ele>235.2</ele>
        <time>2022-02-24T12:18:03Z</time>
      </trkpt>
      <trkpt lat="46.02724" lon="5.30551">
        <ele>235</ele>
        <time>2022-02-24T12:18:04Z</time>
      </trkpt>
      <trkpt lat="46.02712" lon="5.30545">
        <ele>234.6</ele>
        <time>2022-02-24T12:18:05Z</time>
      </trkpt>
      <trkpt lat="46.02708" lon="5.30543">
        <ele>234.2</ele>
        <time>2022-02-24T12:18:06Z</time>
      </trkpt>
      <trkpt lat="46.02701" lon="5.3054">
        <ele>234</ele>
        <time>2022-02-24T12:18:07Z</time>
      </trkpt>
      <trkpt lat="46.0269" lon="5.30534">
        <ele>233.6</ele>
        <time>2022-02-24T12:18:08Z</time>
      </trkpt>
      <trkpt lat="46.02686" lon="5.30532">
        <ele>233.2</ele>
        <time>2022-02-24T12:18:09Z</time>
      </trkpt>
      <trkpt lat="46.02679" lon="5.30528">
        <ele>233</ele>
        <time>2022-02-24T12:18:10Z</time>
      </trkpt>
      <trkpt lat="46.02667" lon="5.30524">
        <ele>232.6</ele>
        <time>2022-02-24T12:18:11Z</time>
      </trkpt>
      <trkpt lat="46.02663" lon="5.30522">
        <ele>232.2</ele>
        <time>2022-02-24T12:18:12Z</time>
      </trkpt>
      <trkpt lat="46.02655" lon="5.30519">
        <ele>232</ele>
        <time>2022-02-24T12:18:13Z</time>
      </trkpt>
      <trkpt lat="46.02647" lon="5.30516">
        <ele>231.8</ele>
        <time>2022-02-24T12:18:14Z</time>
      </trkpt>
      <trkpt lat="46.02639" lon="5.30514">
        <ele>231.4</ele>
        <time>2022-02-24T12:18:15Z</time>
      </trkpt>
      <trkpt lat="46.0263" lon="5.30513">
        <ele>231</ele>
        <time>2022-02-24T12:18:16Z</time>
      </trkpt>
      <trkpt lat="46.02617" lon="5.30512">
        <ele>230.6</ele>
        <time>2022-02-24T12:18:17Z</time>
      </trkpt>
      <trkpt lat="46.02612" lon="5.30512">
        <ele>230.2</ele>
        <time>2022-02-24T12:18:18Z</time>
      </trkpt>
      <trkpt lat="46.02603" lon="5.30512">
        <ele>229.8</ele>
        <time>2022-02-24T12:18:19Z</time>
      </trkpt>
      <trkpt lat="46.02595" lon="5.30513">
        <ele>229.4</ele>
        <time>2022-02-24T12:18:20Z</time>
      </trkpt>
      <trkpt lat="46.02586" lon="5.30514">
        <ele>229</ele>
        <time>2022-02-24T12:18:21Z</time>
      </trkpt>
      <trkpt lat="46.02577" lon="5.30517">
        <ele>228.6</ele>
        <time>2022-02-24T12:18:22Z</time>
      </trkpt>
      <trkpt lat="46.02569" lon="5.3052">
        <ele>228.4</ele>
        <time>2022-02-24T12:18:23Z</time>
      </trkpt>
      <trkpt lat="46.0256" lon="5.30523">
        <ele>228</ele>
        <time>2022-02-24T12:18:24Z</time>
      </trkpt>
      <trkpt lat="46.02552" lon="5.30527">
        <ele>227.6</ele>
        <time>2022-02-24T12:18:25Z</time>
      </trkpt>
      <trkpt lat="46.02539" lon="5.30533">
        <ele>227.4</ele>
        <time>2022-02-24T12:18:26Z</time>
      </trkpt>
      <trkpt lat="46.02535" lon="5.30535">
        <ele>227</ele>
        <time>2022-02-24T12:18:27Z</time>
      </trkpt>
      <trkpt lat="46.02526" lon="5.30538">
        <ele>226.6</ele>
        <time>2022-02-24T12:18:28Z</time>
      </trkpt>
      <trkpt lat="46.02518" lon="5.30542">
        <ele>226.4</ele>
        <time>2022-02-24T12:18:29Z</time>
      </trkpt>
      <trkpt lat="46.0251" lon="5.30544">
        <ele>226</ele>
        <time>2022-02-24T12:18:30Z</time>
      </trkpt>
      <trkpt lat="46.02501" lon="5.30545">
        <ele>225.8</ele>
        <time>2022-02-24T12:18:31Z</time>
      </trkpt>
      <trkpt lat="46.02488" lon="5.30546">
        <ele>225.8</ele>
        <time>2022-02-24T12:18:32Z</time>
      </trkpt>
      <trkpt lat="46.02483" lon="5.30545">
        <ele>225.4</ele>
        <time>2022-02-24T12:18:33Z</time>
      </trkpt>
      <trkpt lat="46.0247" lon="5.30544">
        <ele>225.4</ele>
        <time>2022-02-24T12:18:34Z</time>
      </trkpt>
      <trkpt lat="46.02466" lon="5.30544">
        <ele>225.2</ele>
        <time>2022-02-24T12:18:35Z</time>
      </trkpt>
      <trkpt lat="46.02458" lon="5.30543">
        <ele>225.2</ele>
        <time>2022-02-24T12:18:36Z</time>
      </trkpt>
      <trkpt lat="46.02445" lon="5.30541">
        <ele>225.2</ele>
        <time>2022-02-24T12:18:37Z</time>
      </trkpt>
      <trkpt lat="46.02441" lon="5.3054">
        <ele>224.8</ele>
        <time>2022-02-24T12:18:38Z</time>
      </trkpt>
      <trkpt lat="46.02429" lon="5.30536">
        <ele>224.8</ele>
        <time>2022-02-24T12:18:39Z</time>
      </trkpt>
      <trkpt lat="46.02425" lon="5.30535">
        <ele>224.6</ele>
        <time>2022-02-24T12:18:40Z</time>
      </trkpt>
      <trkpt lat="46.02417" lon="5.30532">
        <ele>224.6</ele>
        <time>2022-02-24T12:18:41Z</time>
      </trkpt>
      <trkpt lat="46.02406" lon="5.30527">
        <ele>224.6</ele>
        <time>2022-02-24T12:18:42Z</time>
      </trkpt>
      <trkpt lat="46.02402" lon="5.30525">
        <ele>224.6</ele>
        <time>2022-02-24T12:18:43Z</time>
      </trkpt>
      <trkpt lat="46.02394" lon="5.30522">
        <ele>224.4</ele>
        <time>2022-02-24T12:18:44Z</time>
      </trkpt>
      <trkpt lat="46.02383" lon="5.30518">
        <ele>224.4</ele>
        <time>2022-02-24T12:18:45Z</time>
      </trkpt>
      <trkpt lat="46.02379" lon="5.30516">
        <ele>224</ele>
        <time>2022-02-24T12:18:46Z</time>
      </trkpt>
      <trkpt lat="46.02372" lon="5.30512">
        <ele>224</ele>
        <time>2022-02-24T12:18:47Z</time>
      </trkpt>
      <trkpt lat="46.02365" lon="5.30509">
        <ele>223.8</ele>
        <time>2022-02-24T12:18:48Z</time>
      </trkpt>
      <trkpt lat="46.02354" lon="5.30504">
        <ele>223.8</ele>
        <time>2022-02-24T12:18:49Z</time>
      </trkpt>
      <trkpt lat="46.02351" lon="5.30502">
        <ele>223.8</ele>
        <time>2022-02-24T12:18:50Z</time>
      </trkpt>
      <trkpt lat="46.02344" lon="5.30499">
        <ele>223.8</ele>
        <time>2022-02-24T12:18:51Z</time>
      </trkpt>
      <trkpt lat="46.02334" lon="5.30495">
        <ele>223.8</ele>
        <time>2022-02-24T12:18:52Z</time>
      </trkpt>
      <trkpt lat="46.02331" lon="5.30494">
        <ele>223.8</ele>
        <time>2022-02-24T12:18:53Z</time>
      </trkpt>
      <trkpt lat="46.02322" lon="5.30489">
        <ele>223.8</ele>
        <time>2022-02-24T12:18:54Z</time>
      </trkpt>
      <trkpt lat="46.02319" lon="5.30488">
        <ele>224.2</ele>
        <time>2022-02-24T12:18:55Z</time>
      </trkpt>
      <trkpt lat="46.02313" lon="5.30486">
        <ele>224.2</ele>
        <time>2022-02-24T12:18:56Z</time>
      </trkpt>
      <trkpt lat="46.02308" lon="5.30483">
        <ele>224.6</ele>
        <time>2022-02-24T12:18:57Z</time>
      </trkpt>
      <trkpt lat="46.023" lon="5.30481">
        <ele>224.8</ele>
        <time>2022-02-24T12:18:58Z</time>
      </trkpt>
      <trkpt lat="46.02298" lon="5.3048">
        <ele>225</ele>
        <time>2022-02-24T12:18:59Z</time>
      </trkpt>
      <trkpt lat="46.02293" lon="5.30477">
        <ele>225.2</ele>
        <time>2022-02-24T12:19:00Z</time>
      </trkpt>
      <trkpt lat="46.02288" lon="5.30475">
        <ele>225.6</ele>
        <time>2022-02-24T12:19:01Z</time>
      </trkpt>
      <trkpt lat="46.02284" lon="5.30473">
        <ele>225.8</ele>
        <time>2022-02-24T12:19:02Z</time>
      </trkpt>
      <trkpt lat="46.02281" lon="5.3047">
        <ele>226</ele>
        <time>2022-02-24T12:19:03Z</time>
      </trkpt>
      <trkpt lat="46.02275" lon="5.30467">
        <ele>226.4</ele>
        <time>2022-02-24T12:19:04Z</time>
      </trkpt>
      <trkpt lat="46.02273" lon="5.30466">
        <ele>226.6</ele>
        <time>2022-02-24T12:19:05Z</time>
      </trkpt>
      <trkpt lat="46.02269" lon="5.30464">
        <ele>226.8</ele>
        <time>2022-02-24T12:19:06Z</time>
      </trkpt>
      <trkpt lat="46.02265" lon="5.30461">
        <ele>226.8</ele>
        <time>2022-02-24T12:19:07Z</time>
      </trkpt>
      <trkpt lat="46.02262" lon="5.30459">
        <ele>227</ele>
        <time>2022-02-24T12:19:08Z</time>
      </trkpt>
      <trkpt lat="46.02256" lon="5.30455">
        <ele>227</ele>
        <time>2022-02-24T12:19:09Z</time>
      </trkpt>
      <trkpt lat="46.02254" lon="5.30454">
        <ele>227.4</ele>
        <time>2022-02-24T12:19:10Z</time>
      </trkpt>
      <trkpt lat="46.02251" lon="5.30452">
        <ele>227.4</ele>
        <time>2022-02-24T12:19:11Z</time>
      </trkpt>
      <trkpt lat="46.02248" lon="5.30449">
        <ele>227.8</ele>
        <time>2022-02-24T12:19:12Z</time>
      </trkpt>
      <trkpt lat="46.02245" lon="5.30447">
        <ele>228</ele>
        <time>2022-02-24T12:19:13Z</time>
      </trkpt>
      <trkpt lat="46.02242" lon="5.30445">
        <ele>228.2</ele>
        <time>2022-02-24T12:19:14Z</time>
      </trkpt>
      <trkpt lat="46.02237" lon="5.30442">
        <ele>228.4</ele>
        <time>2022-02-24T12:19:15Z</time>
      </trkpt>
      <trkpt lat="46.02235" lon="5.30441">
        <ele>228.8</ele>
        <time>2022-02-24T12:19:16Z</time>
      </trkpt>
      <trkpt lat="46.02232" lon="5.30439">
        <ele>229</ele>
        <time>2022-02-24T12:19:17Z</time>
      </trkpt>
      <trkpt lat="46.0223" lon="5.30437">
        <ele>229.4</ele>
        <time>2022-02-24T12:19:18Z</time>
      </trkpt>
      <trkpt lat="46.02227" lon="5.30435">
        <ele>229.4</ele>
        <time>2022-02-24T12:19:19Z</time>
      </trkpt>
      <trkpt lat="46.02224" lon="5.30434">
        <ele>229.4</ele>
        <time>2022-02-24T12:19:20Z</time>
      </trkpt>
      <trkpt lat="46.0222" lon="5.30432">
        <ele>229.6</ele>
        <time>2022-02-24T12:19:21Z</time>
      </trkpt>
      <trkpt lat="46.02218" lon="5.30429">
        <ele>229.6</ele>
        <time>2022-02-24T12:19:22Z</time>
      </trkpt>
      <trkpt lat="46.02214" lon="5.30427">
        <ele>229.6</ele>
        <time>2022-02-24T12:19:23Z</time>
      </trkpt>
      <trkpt lat="46.02211" lon="5.30425">
        <ele>229.8</ele>
        <time>2022-02-24T12:19:24Z</time>
      </trkpt>
      <trkpt lat="46.02208" lon="5.30424">
        <ele>229.8</ele>
        <time>2022-02-24T12:19:25Z</time>
      </trkpt>
      <trkpt lat="46.02204" lon="5.30422">
        <ele>230.2</ele>
        <time>2022-02-24T12:19:26Z</time>
      </trkpt>
      <trkpt lat="46.02201" lon="5.3042">
        <ele>230.2</ele>
        <time>2022-02-24T12:19:27Z</time>
      </trkpt>
      <trkpt lat="46.02196" lon="5.30418">
        <ele>230.4</ele>
        <time>2022-02-24T12:19:28Z</time>
      </trkpt>
      <trkpt lat="46.02194" lon="5.30418">
        <ele>230.4</ele>
        <time>2022-02-24T12:19:29Z</time>
      </trkpt>
      <trkpt lat="46.02191" lon="5.30417">
        <ele>230.8</ele>
        <time>2022-02-24T12:19:30Z</time>
      </trkpt>
      <trkpt lat="46.02188" lon="5.30415">
        <ele>230.8</ele>
        <time>2022-02-24T12:19:31Z</time>
      </trkpt>
      <trkpt lat="46.02183" lon="5.30413">
        <ele>231</ele>
        <time>2022-02-24T12:19:32Z</time>
      </trkpt>
      <trkpt lat="46.02182" lon="5.30413">
        <ele>231.2</ele>
        <time>2022-02-24T12:19:33Z</time>
      </trkpt>
      <trkpt lat="46.02177" lon="5.3041">
        <ele>231.2</ele>
        <time>2022-02-24T12:19:34Z</time>
      </trkpt>
      <trkpt lat="46.02175" lon="5.30409">
        <ele>231.6</ele>
        <time>2022-02-24T12:19:35Z</time>
      </trkpt>
      <trkpt lat="46.02172" lon="5.30407">
        <ele>231.6</ele>
        <time>2022-02-24T12:19:36Z</time>
      </trkpt>
      <trkpt lat="46.02166" lon="5.30404">
        <ele>231.6</ele>
        <time>2022-02-24T12:19:37Z</time>
      </trkpt>
      <trkpt lat="46.02165" lon="5.30403">
        <ele>231.8</ele>
        <time>2022-02-24T12:19:38Z</time>
      </trkpt>
      <trkpt lat="46.02161" lon="5.30401">
        <ele>231.8</ele>
        <time>2022-02-24T12:19:39Z</time>
      </trkpt>
      <trkpt lat="46.02157" lon="5.304">
        <ele>232</ele>
        <time>2022-02-24T12:19:40Z</time>
      </trkpt>
      <trkpt lat="46.02153" lon="5.30398">
        <ele>232</ele>
        <time>2022-02-24T12:19:41Z</time>
      </trkpt>
      <trkpt lat="46.0215" lon="5.30396">
        <ele>232.4</ele>
        <time>2022-02-24T12:19:42Z</time>
      </trkpt>
      <trkpt lat="46.02147" lon="5.30394">
        <ele>232.4</ele>
        <time>2022-02-24T12:19:43Z</time>
      </trkpt>
      <trkpt lat="46.02144" lon="5.30393">
        <ele>232.8</ele>
        <time>2022-02-24T12:19:44Z</time>
      </trkpt>
      <trkpt lat="46.02141" lon="5.30392">
        <ele>232.8</ele>
        <time>2022-02-24T12:19:45Z</time>
      </trkpt>
      <trkpt lat="46.02138" lon="5.30391">
        <ele>233.2</ele>
        <time>2022-02-24T12:19:46Z</time>
      </trkpt>
      <trkpt lat="46.02134" lon="5.30389">
        <ele>233.4</ele>
        <time>2022-02-24T12:19:47Z</time>
      </trkpt>
      <trkpt lat="46.02132" lon="5.30388">
        <ele>233.4</ele>
        <time>2022-02-24T12:19:48Z</time>
      </trkpt>
      <trkpt lat="46.02129" lon="5.30387">
        <ele>233.8</ele>
        <time>2022-02-24T12:19:49Z</time>
      </trkpt>
      <trkpt lat="46.02126" lon="5.30386">
        <ele>234.4</ele>
        <time>2022-02-24T12:19:50Z</time>
      </trkpt>
      <trkpt lat="46.02124" lon="5.30384">
        <ele>234.6</ele>
        <time>2022-02-24T12:19:51Z</time>
      </trkpt>
      <trkpt lat="46.02121" lon="5.30383">
        <ele>235</ele>
        <time>2022-02-24T12:19:52Z</time>
      </trkpt>
      <trkpt lat="46.02119" lon="5.30382">
        <ele>235.2</ele>
        <time>2022-02-24T12:19:53Z</time>
      </trkpt>
      <trkpt lat="46.02116" lon="5.30381">
        <ele>235.6</ele>
        <time>2022-02-24T12:19:54Z</time>
      </trkpt>
      <trkpt lat="46.02114" lon="5.3038">
        <ele>235.8</ele>
        <time>2022-02-24T12:19:55Z</time>
      </trkpt>
      <trkpt lat="46.02111" lon="5.30378">
        <ele>236</ele>
        <time>2022-02-24T12:19:56Z</time>
      </trkpt>
      <trkpt lat="46.02109" lon="5.30377">
        <ele>236</ele>
        <time>2022-02-24T12:19:57Z</time>
      </trkpt>
      <trkpt lat="46.02105" lon="5.30374">
        <ele>236.2</ele>
        <time>2022-02-24T12:19:58Z</time>
      </trkpt>
      <trkpt lat="46.02104" lon="5.30373">
        <ele>236.2</ele>
        <time>2022-02-24T12:19:59Z</time>
      </trkpt>
      <trkpt lat="46.02101" lon="5.30372">
        <ele>236.6</ele>
        <time>2022-02-24T12:20:00Z</time>
      </trkpt>
      <trkpt lat="46.02098" lon="5.3037">
        <ele>236.8</ele>
        <time>2022-02-24T12:20:01Z</time>
      </trkpt>
      <trkpt lat="46.02096" lon="5.30368">
        <ele>236.8</ele>
        <time>2022-02-24T12:20:02Z</time>
      </trkpt>
      <trkpt lat="46.02092" lon="5.30365">
        <ele>237.2</ele>
        <time>2022-02-24T12:20:03Z</time>
      </trkpt>
      <trkpt lat="46.0209" lon="5.30365">
        <ele>237.4</ele>
        <time>2022-02-24T12:20:04Z</time>
      </trkpt>
      <trkpt lat="46.02087" lon="5.30363">
        <ele>237.4</ele>
        <time>2022-02-24T12:20:05Z</time>
      </trkpt>
      <trkpt lat="46.02084" lon="5.30362">
        <ele>237.8</ele>
        <time>2022-02-24T12:20:06Z</time>
      </trkpt>
      <trkpt lat="46.02082" lon="5.30361">
        <ele>238.2</ele>
        <time>2022-02-24T12:20:07Z</time>
      </trkpt>
      <trkpt lat="46.02079" lon="5.30358">
        <ele>238.2</ele>
        <time>2022-02-24T12:20:08Z</time>
      </trkpt>
      <trkpt lat="46.02076" lon="5.30356">
        <ele>238.4</ele>
        <time>2022-02-24T12:20:09Z</time>
      </trkpt>
      <trkpt lat="46.02072" lon="5.30354">
        <ele>238.6</ele>
        <time>2022-02-24T12:20:10Z</time>
      </trkpt>
      <trkpt lat="46.02069" lon="5.30353">
        <ele>239</ele>
        <time>2022-02-24T12:20:11Z</time>
      </trkpt>
      <trkpt lat="46.02066" lon="5.30351">
        <ele>239.2</ele>
        <time>2022-02-24T12:20:12Z</time>
      </trkpt>
      <trkpt lat="46.02063" lon="5.3035">
        <ele>239.4</ele>
        <time>2022-02-24T12:20:13Z</time>
      </trkpt>
      <trkpt lat="46.0206" lon="5.30348">
        <ele>239.8</ele>
        <time>2022-02-24T12:20:14Z</time>
      </trkpt>
      <trkpt lat="46.02058" lon="5.30347">
        <ele>240</ele>
        <time>2022-02-24T12:20:15Z</time>
      </trkpt>
      <trkpt lat="46.02055" lon="5.30345">
        <ele>240.2</ele>
        <time>2022-02-24T12:20:16Z</time>
      </trkpt>
      <trkpt lat="46.02053" lon="5.30344">
        <ele>240.2</ele>
        <time>2022-02-24T12:20:17Z</time>
      </trkpt>
      <trkpt lat="46.02051" lon="5.30343">
        <ele>240.6</ele>
        <time>2022-02-24T12:20:18Z</time>
      </trkpt>
      <trkpt lat="46.02048" lon="5.30342">
        <ele>240.6</ele>
        <time>2022-02-24T12:20:19Z</time>
      </trkpt>
      <trkpt lat="46.02045" lon="5.30341">
        <ele>240.8</ele>
        <time>2022-02-24T12:20:20Z</time>
      </trkpt>
      <trkpt lat="46.02042" lon="5.30338">
        <ele>240.8</ele>
        <time>2022-02-24T12:20:21Z</time>
      </trkpt>
      <trkpt lat="46.02041" lon="5.30338">
        <ele>241.2</ele>
        <time>2022-02-24T12:20:22Z</time>
      </trkpt>
      <trkpt lat="46.02037" lon="5.30336">
        <ele>241.2</ele>
        <time>2022-02-24T12:20:23Z</time>
      </trkpt>
      <trkpt lat="46.02036" lon="5.30335">
        <ele>241.2</ele>
        <time>2022-02-24T12:20:24Z</time>
      </trkpt>
      <trkpt lat="46.02033" lon="5.30333">
        <ele>241.4</ele>
        <time>2022-02-24T12:20:25Z</time>
      </trkpt>
      <trkpt lat="46.02031" lon="5.30332">
        <ele>241.4</ele>
        <time>2022-02-24T12:20:26Z</time>
      </trkpt>
      <trkpt lat="46.02026" lon="5.3033">
        <ele>241.6</ele>
        <time>2022-02-24T12:20:27Z</time>
      </trkpt>
      <trkpt lat="46.02025" lon="5.30329">
        <ele>241.6</ele>
        <time>2022-02-24T12:20:28Z</time>
      </trkpt>
      <trkpt lat="46.0202" lon="5.30327">
        <ele>242</ele>
        <time>2022-02-24T12:20:29Z</time>
      </trkpt>
      <trkpt lat="46.02019" lon="5.30327">
        <ele>242.2</ele>
        <time>2022-02-24T12:20:30Z</time>
      </trkpt>
      <trkpt lat="46.02016" lon="5.30325">
        <ele>242.2</ele>
        <time>2022-02-24T12:20:31Z</time>
      </trkpt>
      <trkpt lat="46.02014" lon="5.30325">
        <ele>242.6</ele>
        <time>2022-02-24T12:20:32Z</time>
      </trkpt>
      <trkpt lat="46.02011" lon="5.30324">
        <ele>242.6</ele>
        <time>2022-02-24T12:20:33Z</time>
      </trkpt>
      <trkpt lat="46.02008" lon="5.30322">
        <ele>243</ele>
        <time>2022-02-24T12:20:34Z</time>
      </trkpt>
      <trkpt lat="46.02006" lon="5.30321">
        <ele>243</ele>
        <time>2022-02-24T12:20:35Z</time>
      </trkpt>
      <trkpt lat="46.02003" lon="5.3032">
        <ele>243.2</ele>
        <time>2022-02-24T12:20:36Z</time>
      </trkpt>
      <trkpt lat="46.02" lon="5.30318">
        <ele>243.2</ele>
        <time>2022-02-24T12:20:37Z</time>
      </trkpt>
      <trkpt lat="46.01997" lon="5.30317">
        <ele>243.6</ele>
        <time>2022-02-24T12:20:38Z</time>
      </trkpt>
      <trkpt lat="46.01993" lon="5.30315">
        <ele>243.6</ele>
        <time>2022-02-24T12:20:39Z</time>
      </trkpt>
      <trkpt lat="46.01991" lon="5.30315">
        <ele>243.8</ele>
        <time>2022-02-24T12:20:40Z</time>
      </trkpt>
      <trkpt lat="46.01989" lon="5.30314">
        <ele>244.2</ele>
        <time>2022-02-24T12:20:41Z</time>
      </trkpt>
      <trkpt lat="46.01986" lon="5.30313">
        <ele>244.4</ele>
        <time>2022-02-24T12:20:42Z</time>
      </trkpt>
      <trkpt lat="46.01983" lon="5.30312">
        <ele>244.4</ele>
        <time>2022-02-24T12:20:43Z</time>
      </trkpt>
      <trkpt lat="46.0198" lon="5.3031">
        <ele>244.6</ele>
        <time>2022-02-24T12:20:44Z</time>
      </trkpt>
      <trkpt lat="46.01978" lon="5.30309">
        <ele>244.6</ele>
        <time>2022-02-24T12:20:45Z</time>
      </trkpt>
      <trkpt lat="46.01975" lon="5.30308">
        <ele>244.8</ele>
        <time>2022-02-24T12:20:46Z</time>
      </trkpt>
      <trkpt lat="46.01973" lon="5.30307">
        <ele>244.8</ele>
        <time>2022-02-24T12:20:47Z</time>
      </trkpt>
      <trkpt lat="46.0197" lon="5.30306">
        <ele>245.2</ele>
        <time>2022-02-24T12:20:48Z</time>
      </trkpt>
      <trkpt lat="46.01968" lon="5.30305">
        <ele>245.4</ele>
        <time>2022-02-24T12:20:49Z</time>
      </trkpt>
      <trkpt lat="46.01966" lon="5.30305">
        <ele>245.6</ele>
        <time>2022-02-24T12:20:50Z</time>
      </trkpt>
      <trkpt lat="46.01963" lon="5.30304">
        <ele>245.8</ele>
        <time>2022-02-24T12:20:51Z</time>
      </trkpt>
      <trkpt lat="46.01961" lon="5.30303">
        <ele>245.8</ele>
        <time>2022-02-24T12:20:52Z</time>
      </trkpt>
      <trkpt lat="46.01959" lon="5.30302">
        <ele>246.2</ele>
        <time>2022-02-24T12:20:53Z</time>
      </trkpt>
      <trkpt lat="46.01956" lon="5.30301">
        <ele>246.2</ele>
        <time>2022-02-24T12:20:54Z</time>
      </trkpt>
      <trkpt lat="46.01953" lon="5.303">
        <ele>246.4</ele>
        <time>2022-02-24T12:20:55Z</time>
      </trkpt>
      <trkpt lat="46.01951" lon="5.30299">
        <ele>246.4</ele>
        <time>2022-02-24T12:20:56Z</time>
      </trkpt>
      <trkpt lat="46.01948" lon="5.30298">
        <ele>246.4</ele>
        <time>2022-02-24T12:20:57Z</time>
      </trkpt>
      <trkpt lat="46.01945" lon="5.30297">
        <ele>246.8</ele>
        <time>2022-02-24T12:20:58Z</time>
      </trkpt>
      <trkpt lat="46.01943" lon="5.30295">
        <ele>246.8</ele>
        <time>2022-02-24T12:20:59Z</time>
      </trkpt>
      <trkpt lat="46.01941" lon="5.30294">
        <ele>247</ele>
        <time>2022-02-24T12:21:00Z</time>
      </trkpt>
      <trkpt lat="46.01938" lon="5.30293">
        <ele>247</ele>
        <time>2022-02-24T12:21:01Z</time>
      </trkpt>
      <trkpt lat="46.01935" lon="5.30292">
        <ele>247.2</ele>
        <time>2022-02-24T12:21:02Z</time>
      </trkpt>
      <trkpt lat="46.01932" lon="5.3029">
        <ele>247.2</ele>
        <time>2022-02-24T12:21:03Z</time>
      </trkpt>
      <trkpt lat="46.01929" lon="5.30289">
        <ele>247.6</ele>
        <time>2022-02-24T12:21:04Z</time>
      </trkpt>
      <trkpt lat="46.01927" lon="5.30288">
        <ele>247.6</ele>
        <time>2022-02-24T12:21:05Z</time>
      </trkpt>
      <trkpt lat="46.01924" lon="5.30287">
        <ele>248</ele>
        <time>2022-02-24T12:21:06Z</time>
      </trkpt>
      <trkpt lat="46.01921" lon="5.30286">
        <ele>248</ele>
        <time>2022-02-24T12:21:07Z</time>
      </trkpt>
      <trkpt lat="46.01919" lon="5.30284">
        <ele>248.4</ele>
        <time>2022-02-24T12:21:08Z</time>
      </trkpt>
      <trkpt lat="46.01916" lon="5.30283">
        <ele>248.4</ele>
        <time>2022-02-24T12:21:09Z</time>
      </trkpt>
      <trkpt lat="46.01914" lon="5.30282">
        <ele>248.8</ele>
        <time>2022-02-24T12:21:10Z</time>
      </trkpt>
      <trkpt lat="46.0191" lon="5.30281">
        <ele>248.8</ele>
        <time>2022-02-24T12:21:11Z</time>
      </trkpt>
      <trkpt lat="46.01909" lon="5.30281">
        <ele>249</ele>
        <time>2022-02-24T12:21:12Z</time>
      </trkpt>
      <trkpt lat="46.01907" lon="5.3028">
        <ele>249</ele>
        <time>2022-02-24T12:21:13Z</time>
      </trkpt>
      <trkpt lat="46.01904" lon="5.30279">
        <ele>249.4</ele>
        <time>2022-02-24T12:21:14Z</time>
      </trkpt>
      <trkpt lat="46.01901" lon="5.30278">
        <ele>249.4</ele>
        <time>2022-02-24T12:21:15Z</time>
      </trkpt>
      <trkpt lat="46.01899" lon="5.30277">
        <ele>249.8</ele>
        <time>2022-02-24T12:21:16Z</time>
      </trkpt>
      <trkpt lat="46.01896" lon="5.30276">
        <ele>249.8</ele>
        <time>2022-02-24T12:21:17Z</time>
      </trkpt>
      <trkpt lat="46.01892" lon="5.30275">
        <ele>250</ele>
        <time>2022-02-24T12:21:18Z</time>
      </trkpt>
      <trkpt lat="46.01891" lon="5.30274">
        <ele>250</ele>
        <time>2022-02-24T12:21:19Z</time>
      </trkpt>
      <trkpt lat="46.01888" lon="5.30273">
        <ele>250.2</ele>
        <time>2022-02-24T12:21:20Z</time>
      </trkpt>
      <trkpt lat="46.01885" lon="5.30272">
        <ele>250.2</ele>
        <time>2022-02-24T12:21:21Z</time>
      </trkpt>
      <trkpt lat="46.01879" lon="5.30269">
        <ele>250.4</ele>
        <time>2022-02-24T12:21:22Z</time>
      </trkpt>
      <trkpt lat="46.01876" lon="5.30268">
        <ele>250.6</ele>
        <time>2022-02-24T12:21:23Z</time>
      </trkpt>
      <trkpt lat="46.01873" lon="5.30267">
        <ele>250.6</ele>
        <time>2022-02-24T12:21:24Z</time>
      </trkpt>
      <trkpt lat="46.01869" lon="5.30266">
        <ele>251</ele>
        <time>2022-02-24T12:21:25Z</time>
      </trkpt>
      <trkpt lat="46.01867" lon="5.30265">
        <ele>251</ele>
        <time>2022-02-24T12:21:26Z</time>
      </trkpt>
      <trkpt lat="46.01864" lon="5.30264">
        <ele>251.4</ele>
        <time>2022-02-24T12:21:27Z</time>
      </trkpt>
      <trkpt lat="46.01861" lon="5.30263">
        <ele>251.4</ele>
        <time>2022-02-24T12:21:28Z</time>
      </trkpt>
      <trkpt lat="46.01861" lon="5.30263">
        <ele>251.6</ele>
        <time>2022-02-24T12:21:29Z</time>
      </trkpt>
      <trkpt lat="46.01858" lon="5.30261">
        <ele>251.6</ele>
        <time>2022-02-24T12:21:30Z</time>
      </trkpt>
      <trkpt lat="46.01854" lon="5.3026">
        <ele>252</ele>
        <time>2022-02-24T12:21:31Z</time>
      </trkpt>
      <trkpt lat="46.01851" lon="5.30258">
        <ele>252</ele>
        <time>2022-02-24T12:21:32Z</time>
      </trkpt>
      <trkpt lat="46.01848" lon="5.30257">
        <ele>252.2</ele>
        <time>2022-02-24T12:21:33Z</time>
      </trkpt>
      <trkpt lat="46.01845" lon="5.30256">
        <ele>252.2</ele>
        <time>2022-02-24T12:21:34Z</time>
      </trkpt>
      <trkpt lat="46.01842" lon="5.30254">
        <ele>252.2</ele>
        <time>2022-02-24T12:21:35Z</time>
      </trkpt>
      <trkpt lat="46.01839" lon="5.30253">
        <ele>252.6</ele>
        <time>2022-02-24T12:21:36Z</time>
      </trkpt>
      <trkpt lat="46.01836" lon="5.30252">
        <ele>252.6</ele>
        <time>2022-02-24T12:21:37Z</time>
      </trkpt>
      <trkpt lat="46.01832" lon="5.30251">
        <ele>252.8</ele>
        <time>2022-02-24T12:21:38Z</time>
      </trkpt>
      <trkpt lat="46.01829" lon="5.3025">
        <ele>252.8</ele>
        <time>2022-02-24T12:21:39Z</time>
      </trkpt>
      <trkpt lat="46.01827" lon="5.30249">
        <ele>253.2</ele>
        <time>2022-02-24T12:21:40Z</time>
      </trkpt>
      <trkpt lat="46.01824" lon="5.30248">
        <ele>253.2</ele>
        <time>2022-02-24T12:21:41Z</time>
      </trkpt>
      <trkpt lat="46.01821" lon="5.30246">
        <ele>253.4</ele>
        <time>2022-02-24T12:21:42Z</time>
      </trkpt>
      <trkpt lat="46.01817" lon="5.30245">
        <ele>253.4</ele>
        <time>2022-02-24T12:21:43Z</time>
      </trkpt>
      <trkpt lat="46.01815" lon="5.30244">
        <ele>253.8</ele>
        <time>2022-02-24T12:21:44Z</time>
      </trkpt>
      <trkpt lat="46.01812" lon="5.30244">
        <ele>254</ele>
        <time>2022-02-24T12:21:45Z</time>
      </trkpt>
      <trkpt lat="46.01809" lon="5.30242">
        <ele>254.4</ele>
        <time>2022-02-24T12:21:46Z</time>
      </trkpt>
      <trkpt lat="46.01805" lon="5.3024">
        <ele>254.6</ele>
        <time>2022-02-24T12:21:47Z</time>
      </trkpt>
      <trkpt lat="46.01803" lon="5.3024">
        <ele>254.8</ele>
        <time>2022-02-24T12:21:48Z</time>
      </trkpt>
      <trkpt lat="46.01801" lon="5.30238">
        <ele>255</ele>
        <time>2022-02-24T12:21:49Z</time>
      </trkpt>
      <trkpt lat="46.01798" lon="5.30237">
        <ele>255</ele>
        <time>2022-02-24T12:21:50Z</time>
      </trkpt>
      <trkpt lat="46.01795" lon="5.30235">
        <ele>255.4</ele>
        <time>2022-02-24T12:21:51Z</time>
      </trkpt>
      <trkpt lat="46.01792" lon="5.30234">
        <ele>255.4</ele>
        <time>2022-02-24T12:21:52Z</time>
      </trkpt>
      <trkpt lat="46.01788" lon="5.30233">
        <ele>255.8</ele>
        <time>2022-02-24T12:21:53Z</time>
      </trkpt>
      <trkpt lat="46.01787" lon="5.30232">
        <ele>256</ele>
        <time>2022-02-24T12:21:54Z</time>
      </trkpt>
      <trkpt lat="46.01784" lon="5.30232">
        <ele>256</ele>
        <time>2022-02-24T12:21:55Z</time>
      </trkpt>
      <trkpt lat="46.01781" lon="5.30231">
        <ele>256.4</ele>
        <time>2022-02-24T12:21:56Z</time>
      </trkpt>
      <trkpt lat="46.01778" lon="5.3023">
        <ele>256.6</ele>
        <time>2022-02-24T12:21:57Z</time>
      </trkpt>
      <trkpt lat="46.01775" lon="5.30229">
        <ele>256.6</ele>
        <time>2022-02-24T12:21:58Z</time>
      </trkpt>
      <trkpt lat="46.01772" lon="5.30227">
        <ele>257</ele>
        <time>2022-02-24T12:21:59Z</time>
      </trkpt>
      <trkpt lat="46.01769" lon="5.30226">
        <ele>257</ele>
        <time>2022-02-24T12:22:00Z</time>
      </trkpt>
      <trkpt lat="46.01767" lon="5.30225">
        <ele>257</ele>
        <time>2022-02-24T12:22:01Z</time>
      </trkpt>
      <trkpt lat="46.01764" lon="5.30225">
        <ele>257.2</ele>
        <time>2022-02-24T12:22:02Z</time>
      </trkpt>
      <trkpt lat="46.01761" lon="5.30224">
        <ele>257.2</ele>
        <time>2022-02-24T12:22:03Z</time>
      </trkpt>
      <trkpt lat="46.01757" lon="5.30224">
        <ele>257.6</ele>
        <time>2022-02-24T12:22:04Z</time>
      </trkpt>
      <trkpt lat="46.01753" lon="5.30222">
        <ele>257.6</ele>
        <time>2022-02-24T12:22:05Z</time>
      </trkpt>
      <trkpt lat="46.01751" lon="5.30222">
        <ele>257.8</ele>
        <time>2022-02-24T12:22:06Z</time>
      </trkpt>
      <trkpt lat="46.01747" lon="5.3022">
        <ele>257.8</ele>
        <time>2022-02-24T12:22:07Z</time>
      </trkpt>
      <trkpt lat="46.01745" lon="5.3022">
        <ele>257.8</ele>
        <time>2022-02-24T12:22:08Z</time>
      </trkpt>
      <trkpt lat="46.01742" lon="5.30219">
        <ele>258.2</ele>
        <time>2022-02-24T12:22:09Z</time>
      </trkpt>
      <trkpt lat="46.01737" lon="5.30217">
        <ele>258.2</ele>
        <time>2022-02-24T12:22:10Z</time>
      </trkpt>
      <trkpt lat="46.01735" lon="5.30216">
        <ele>258.2</ele>
        <time>2022-02-24T12:22:11Z</time>
      </trkpt>
      <trkpt lat="46.0173" lon="5.30214">
        <ele>258.4</ele>
        <time>2022-02-24T12:22:12Z</time>
      </trkpt>
      <trkpt lat="46.01728" lon="5.30213">
        <ele>258.4</ele>
        <time>2022-02-24T12:22:13Z</time>
      </trkpt>
      <trkpt lat="46.01724" lon="5.30212">
        <ele>258.4</ele>
        <time>2022-02-24T12:22:14Z</time>
      </trkpt>
      <trkpt lat="46.0172" lon="5.3021">
        <ele>258.6</ele>
        <time>2022-02-24T12:22:15Z</time>
      </trkpt>
      <trkpt lat="46.01714" lon="5.30208">
        <ele>258.6</ele>
        <time>2022-02-24T12:22:16Z</time>
      </trkpt>
      <trkpt lat="46.01712" lon="5.30207">
        <ele>258.6</ele>
        <time>2022-02-24T12:22:17Z</time>
      </trkpt>
      <trkpt lat="46.01708" lon="5.30205">
        <ele>258.6</ele>
        <time>2022-02-24T12:22:18Z</time>
      </trkpt>
      <trkpt lat="46.01702" lon="5.30203">
        <ele>258.6</ele>
        <time>2022-02-24T12:22:19Z</time>
      </trkpt>
      <trkpt lat="46.017" lon="5.30202">
        <ele>259</ele>
        <time>2022-02-24T12:22:20Z</time>
      </trkpt>
      <trkpt lat="46.01693" lon="5.302">
        <ele>259</ele>
        <time>2022-02-24T12:22:21Z</time>
      </trkpt>
      <trkpt lat="46.01691" lon="5.30199">
        <ele>259</ele>
        <time>2022-02-24T12:22:22Z</time>
      </trkpt>
      <trkpt lat="46.01684" lon="5.30197">
        <ele>259</ele>
        <time>2022-02-24T12:22:23Z</time>
      </trkpt>
      <trkpt lat="46.01682" lon="5.30196">
        <ele>259</ele>
        <time>2022-02-24T12:22:24Z</time>
      </trkpt>
      <trkpt lat="46.01678" lon="5.30195">
        <ele>259</ele>
        <time>2022-02-24T12:22:25Z</time>
      </trkpt>
      <trkpt lat="46.01674" lon="5.30193">
        <ele>259</ele>
        <time>2022-02-24T12:22:26Z</time>
      </trkpt>
      <trkpt lat="46.01667" lon="5.3019">
        <ele>259</ele>
        <time>2022-02-24T12:22:27Z</time>
      </trkpt>
      <trkpt lat="46.01665" lon="5.30189">
        <ele>259</ele>
        <time>2022-02-24T12:22:28Z</time>
      </trkpt>
      <trkpt lat="46.01657" lon="5.30186">
        <ele>259.2</ele>
        <time>2022-02-24T12:22:29Z</time>
      </trkpt>
      <trkpt lat="46.01655" lon="5.30185">
        <ele>259.2</ele>
        <time>2022-02-24T12:22:30Z</time>
      </trkpt>
      <trkpt lat="46.01647" lon="5.30182">
        <ele>259.2</ele>
        <time>2022-02-24T12:22:31Z</time>
      </trkpt>
      <trkpt lat="46.01645" lon="5.30181">
        <ele>259.4</ele>
        <time>2022-02-24T12:22:32Z</time>
      </trkpt>
      <trkpt lat="46.0164" lon="5.30179">
        <ele>259.4</ele>
        <time>2022-02-24T12:22:33Z</time>
      </trkpt>
      <trkpt lat="46.01635" lon="5.30176">
        <ele>259.6</ele>
        <time>2022-02-24T12:22:34Z</time>
      </trkpt>
      <trkpt lat="46.01631" lon="5.30174">
        <ele>259.6</ele>
        <time>2022-02-24T12:22:35Z</time>
      </trkpt>
      <trkpt lat="46.01626" lon="5.30171">
        <ele>259.6</ele>
        <time>2022-02-24T12:22:36Z</time>
      </trkpt>
      <trkpt lat="46.01622" lon="5.30168">
        <ele>260</ele>
        <time>2022-02-24T12:22:37Z</time>
      </trkpt>
      <trkpt lat="46.01618" lon="5.30165">
        <ele>260.2</ele>
        <time>2022-02-24T12:22:38Z</time>
      </trkpt>
      <trkpt lat="46.01613" lon="5.30162">
        <ele>260.4</ele>
        <time>2022-02-24T12:22:39Z</time>
      </trkpt>
      <trkpt lat="46.01609" lon="5.30159">
        <ele>260.4</ele>
        <time>2022-02-24T12:22:40Z</time>
      </trkpt>
      <trkpt lat="46.01605" lon="5.30155">
        <ele>260.8</ele>
        <time>2022-02-24T12:22:41Z</time>
      </trkpt>
      <trkpt lat="46.01601" lon="5.30152">
        <ele>260.8</ele>
        <time>2022-02-24T12:22:42Z</time>
      </trkpt>
      <trkpt lat="46.01596" lon="5.30148">
        <ele>261.2</ele>
        <time>2022-02-24T12:22:43Z</time>
      </trkpt>
      <trkpt lat="46.01592" lon="5.30145">
        <ele>261.2</ele>
        <time>2022-02-24T12:22:44Z</time>
      </trkpt>
      <trkpt lat="46.01588" lon="5.30141">
        <ele>261.2</ele>
        <time>2022-02-24T12:22:45Z</time>
      </trkpt>
      <trkpt lat="46.01584" lon="5.30137">
        <ele>261.4</ele>
        <time>2022-02-24T12:22:46Z</time>
      </trkpt>
      <trkpt lat="46.0158" lon="5.30133">
        <ele>261.4</ele>
        <time>2022-02-24T12:22:47Z</time>
      </trkpt>
      <trkpt lat="46.01576" lon="5.30129">
        <ele>261.6</ele>
        <time>2022-02-24T12:22:48Z</time>
      </trkpt>
      <trkpt lat="46.01572" lon="5.30125">
        <ele>261.6</ele>
        <time>2022-02-24T12:22:49Z</time>
      </trkpt>
      <trkpt lat="46.01569" lon="5.30122">
        <ele>261.6</ele>
        <time>2022-02-24T12:22:50Z</time>
      </trkpt>
      <trkpt lat="46.01565" lon="5.30118">
        <ele>261.6</ele>
        <time>2022-02-24T12:22:51Z</time>
      </trkpt>
      <trkpt lat="46.01562" lon="5.30114">
        <ele>261.6</ele>
        <time>2022-02-24T12:22:52Z</time>
      </trkpt>
      <trkpt lat="46.01558" lon="5.3011">
        <ele>261.8</ele>
        <time>2022-02-24T12:22:53Z</time>
      </trkpt>
      <trkpt lat="46.01554" lon="5.30106">
        <ele>261.8</ele>
        <time>2022-02-24T12:22:54Z</time>
      </trkpt>
      <trkpt lat="46.0155" lon="5.30101">
        <ele>261.8</ele>
        <time>2022-02-24T12:22:55Z</time>
      </trkpt>
      <trkpt lat="46.01546" lon="5.30095">
        <ele>261.8</ele>
        <time>2022-02-24T12:22:56Z</time>
      </trkpt>
      <trkpt lat="46.01542" lon="5.3009">
        <ele>261.8</ele>
        <time>2022-02-24T12:22:57Z</time>
      </trkpt>
      <trkpt lat="46.01539" lon="5.30083">
        <ele>261.8</ele>
        <time>2022-02-24T12:22:58Z</time>
      </trkpt>
      <trkpt lat="46.01535" lon="5.30076">
        <ele>261.8</ele>
        <time>2022-02-24T12:22:59Z</time>
      </trkpt>
      <trkpt lat="46.01532" lon="5.30068">
        <ele>261.8</ele>
        <time>2022-02-24T12:23:00Z</time>
      </trkpt>
      <trkpt lat="46.0153" lon="5.3006">
        <ele>261.6</ele>
        <time>2022-02-24T12:23:01Z</time>
      </trkpt>
      <trkpt lat="46.01528" lon="5.30051">
        <ele>261.6</ele>
        <time>2022-02-24T12:23:02Z</time>
      </trkpt>
      <trkpt lat="46.01526" lon="5.30041">
        <ele>261.2</ele>
        <time>2022-02-24T12:23:03Z</time>
      </trkpt>
      <trkpt lat="46.01523" lon="5.3003">
        <ele>261</ele>
        <time>2022-02-24T12:23:04Z</time>
      </trkpt>
      <trkpt lat="46.0152" lon="5.30019">
        <ele>260.6</ele>
        <time>2022-02-24T12:23:05Z</time>
      </trkpt>
      <trkpt lat="46.01516" lon="5.30008">
        <ele>260.4</ele>
        <time>2022-02-24T12:23:06Z</time>
      </trkpt>
      <trkpt lat="46.0151" lon="5.29997">
        <ele>259.8</ele>
        <time>2022-02-24T12:23:07Z</time>
      </trkpt>
      <trkpt lat="46.01503" lon="5.29988">
        <ele>259.4</ele>
        <time>2022-02-24T12:23:08Z</time>
      </trkpt>
      <trkpt lat="46.01495" lon="5.2998">
        <ele>258.8</ele>
        <time>2022-02-24T12:23:09Z</time>
      </trkpt>
      <trkpt lat="46.01486" lon="5.29973">
        <ele>258.4</ele>
        <time>2022-02-24T12:23:10Z</time>
      </trkpt>
      <trkpt lat="46.01478" lon="5.29967">
        <ele>257.8</ele>
        <time>2022-02-24T12:23:11Z</time>
      </trkpt>
      <trkpt lat="46.01469" lon="5.29961">
        <ele>257.2</ele>
        <time>2022-02-24T12:23:12Z</time>
      </trkpt>
      <trkpt lat="46.01461" lon="5.29955">
        <ele>256.8</ele>
        <time>2022-02-24T12:23:13Z</time>
      </trkpt>
      <trkpt lat="46.01452" lon="5.29948">
        <ele>256.2</ele>
        <time>2022-02-24T12:23:14Z</time>
      </trkpt>
      <trkpt lat="46.01443" lon="5.29941">
        <ele>255.4</ele>
        <time>2022-02-24T12:23:15Z</time>
      </trkpt>
      <trkpt lat="46.01434" lon="5.29935">
        <ele>254.8</ele>
        <time>2022-02-24T12:23:16Z</time>
      </trkpt>
      <trkpt lat="46.01426" lon="5.29928">
        <ele>254.2</ele>
        <time>2022-02-24T12:23:17Z</time>
      </trkpt>
      <trkpt lat="46.01417" lon="5.29921">
        <ele>253.8</ele>
        <time>2022-02-24T12:23:18Z</time>
      </trkpt>
      <trkpt lat="46.01407" lon="5.29913">
        <ele>253.2</ele>
        <time>2022-02-24T12:23:19Z</time>
      </trkpt>
      <trkpt lat="46.01398" lon="5.29906">
        <ele>252.8</ele>
        <time>2022-02-24T12:23:20Z</time>
      </trkpt>
      <trkpt lat="46.01389" lon="5.29899">
        <ele>252.2</ele>
        <time>2022-02-24T12:23:21Z</time>
      </trkpt>
      <trkpt lat="46.01379" lon="5.29892">
        <ele>251.6</ele>
        <time>2022-02-24T12:23:22Z</time>
      </trkpt>
      <trkpt lat="46.0137" lon="5.29886">
        <ele>250.8</ele>
        <time>2022-02-24T12:23:23Z</time>
      </trkpt>
      <trkpt lat="46.0136" lon="5.29879">
        <ele>250</ele>
        <time>2022-02-24T12:23:24Z</time>
      </trkpt>
      <trkpt lat="46.01351" lon="5.29873">
        <ele>249.4</ele>
        <time>2022-02-24T12:23:25Z</time>
      </trkpt>
      <trkpt lat="46.01342" lon="5.29867">
        <ele>248.8</ele>
        <time>2022-02-24T12:23:26Z</time>
      </trkpt>
      <trkpt lat="46.01332" lon="5.29861">
        <ele>248.6</ele>
        <time>2022-02-24T12:23:27Z</time>
      </trkpt>
      <trkpt lat="46.01322" lon="5.29857">
        <ele>248</ele>
        <time>2022-02-24T12:23:28Z</time>
      </trkpt>
      <trkpt lat="46.01312" lon="5.29853">
        <ele>247</ele>
        <time>2022-02-24T12:23:29Z</time>
      </trkpt>
      <trkpt lat="46.01302" lon="5.2985">
        <ele>246.8</ele>
        <time>2022-02-24T12:23:30Z</time>
      </trkpt>
      <trkpt lat="46.01292" lon="5.29847">
        <ele>246.4</ele>
        <time>2022-02-24T12:23:31Z</time>
      </trkpt>
      <trkpt lat="46.01282" lon="5.29844">
        <ele>246.2</ele>
        <time>2022-02-24T12:23:32Z</time>
      </trkpt>
      <trkpt lat="46.01272" lon="5.2984">
        <ele>245.8</ele>
        <time>2022-02-24T12:23:33Z</time>
      </trkpt>
      <trkpt lat="46.01262" lon="5.29837">
        <ele>245.6</ele>
        <time>2022-02-24T12:23:34Z</time>
      </trkpt>
      <trkpt lat="46.01252" lon="5.29834">
        <ele>245.2</ele>
        <time>2022-02-24T12:23:35Z</time>
      </trkpt>
      <trkpt lat="46.01242" lon="5.29831">
        <ele>244.8</ele>
        <time>2022-02-24T12:23:36Z</time>
      </trkpt>
      <trkpt lat="46.01233" lon="5.29828">
        <ele>244.8</ele>
        <time>2022-02-24T12:23:37Z</time>
      </trkpt>
      <trkpt lat="46.01223" lon="5.29825">
        <ele>244.6</ele>
        <time>2022-02-24T12:23:38Z</time>
      </trkpt>
      <trkpt lat="46.01214" lon="5.29822">
        <ele>244.6</ele>
        <time>2022-02-24T12:23:39Z</time>
      </trkpt>
      <trkpt lat="46.01205" lon="5.29819">
        <ele>244.6</ele>
        <time>2022-02-24T12:23:40Z</time>
      </trkpt>
      <trkpt lat="46.01197" lon="5.29816">
        <ele>244.2</ele>
        <time>2022-02-24T12:23:41Z</time>
      </trkpt>
      <trkpt lat="46.01188" lon="5.29813">
        <ele>244</ele>
        <time>2022-02-24T12:23:42Z</time>
      </trkpt>
      <trkpt lat="46.0118" lon="5.29811">
        <ele>244</ele>
        <time>2022-02-24T12:23:43Z</time>
      </trkpt>
      <trkpt lat="46.01172" lon="5.29808">
        <ele>244</ele>
        <time>2022-02-24T12:23:44Z</time>
      </trkpt>
      <trkpt lat="46.01164" lon="5.29805">
        <ele>244</ele>
        <time>2022-02-24T12:23:45Z</time>
      </trkpt>
      <trkpt lat="46.01156" lon="5.29803">
        <ele>244.4</ele>
        <time>2022-02-24T12:23:46Z</time>
      </trkpt>
      <trkpt lat="46.01148" lon="5.29801">
        <ele>244.4</ele>
        <time>2022-02-24T12:23:47Z</time>
      </trkpt>
      <trkpt lat="46.0114" lon="5.29799">
        <ele>244.8</ele>
        <time>2022-02-24T12:23:48Z</time>
      </trkpt>
      <trkpt lat="46.01132" lon="5.29796">
        <ele>245</ele>
        <time>2022-02-24T12:23:49Z</time>
      </trkpt>
      <trkpt lat="46.01125" lon="5.29794">
        <ele>245.4</ele>
        <time>2022-02-24T12:23:50Z</time>
      </trkpt>
      <trkpt lat="46.01118" lon="5.29791">
        <ele>245.6</ele>
        <time>2022-02-24T12:23:51Z</time>
      </trkpt>
      <trkpt lat="46.01111" lon="5.29789">
        <ele>245.6</ele>
        <time>2022-02-24T12:23:52Z</time>
      </trkpt>
      <trkpt lat="46.01104" lon="5.29787">
        <ele>246</ele>
        <time>2022-02-24T12:23:53Z</time>
      </trkpt>
      <trkpt lat="46.01098" lon="5.29785">
        <ele>246</ele>
        <time>2022-02-24T12:23:54Z</time>
      </trkpt>
      <trkpt lat="46.01091" lon="5.29783">
        <ele>246.2</ele>
        <time>2022-02-24T12:23:55Z</time>
      </trkpt>
      <trkpt lat="46.01085" lon="5.29782">
        <ele>246.2</ele>
        <time>2022-02-24T12:23:56Z</time>
      </trkpt>
      <trkpt lat="46.01078" lon="5.2978">
        <ele>246.6</ele>
        <time>2022-02-24T12:23:57Z</time>
      </trkpt>
      <trkpt lat="46.01071" lon="5.29778">
        <ele>246.6</ele>
        <time>2022-02-24T12:23:58Z</time>
      </trkpt>
      <trkpt lat="46.01065" lon="5.29777">
        <ele>246.6</ele>
        <time>2022-02-24T12:23:59Z</time>
      </trkpt>
      <trkpt lat="46.01058" lon="5.29775">
        <ele>247</ele>
        <time>2022-02-24T12:24:00Z</time>
      </trkpt>
      <trkpt lat="46.01052" lon="5.29773">
        <ele>247.2</ele>
        <time>2022-02-24T12:24:01Z</time>
      </trkpt>
      <trkpt lat="46.01046" lon="5.29771">
        <ele>247.6</ele>
        <time>2022-02-24T12:24:02Z</time>
      </trkpt>
      <trkpt lat="46.0104" lon="5.29768">
        <ele>247.8</ele>
        <time>2022-02-24T12:24:03Z</time>
      </trkpt>
      <trkpt lat="46.01034" lon="5.29766">
        <ele>247.8</ele>
        <time>2022-02-24T12:24:04Z</time>
      </trkpt>
      <trkpt lat="46.01027" lon="5.29765">
        <ele>248</ele>
        <time>2022-02-24T12:24:05Z</time>
      </trkpt>
      <trkpt lat="46.01021" lon="5.29763">
        <ele>248.4</ele>
        <time>2022-02-24T12:24:06Z</time>
      </trkpt>
      <trkpt lat="46.01015" lon="5.29761">
        <ele>248.8</ele>
        <time>2022-02-24T12:24:07Z</time>
      </trkpt>
      <trkpt lat="46.01008" lon="5.29759">
        <ele>248.8</ele>
        <time>2022-02-24T12:24:08Z</time>
      </trkpt>
      <trkpt lat="46.01002" lon="5.29757">
        <ele>249</ele>
        <time>2022-02-24T12:24:09Z</time>
      </trkpt>
      <trkpt lat="46.00995" lon="5.29755">
        <ele>249</ele>
        <time>2022-02-24T12:24:10Z</time>
      </trkpt>
      <trkpt lat="46.00989" lon="5.29753">
        <ele>249.4</ele>
        <time>2022-02-24T12:24:11Z</time>
      </trkpt>
      <trkpt lat="46.00982" lon="5.29751">
        <ele>249.4</ele>
        <time>2022-02-24T12:24:12Z</time>
      </trkpt>
      <trkpt lat="46.00975" lon="5.29748">
        <ele>249.4</ele>
        <time>2022-02-24T12:24:13Z</time>
      </trkpt>
      <trkpt lat="46.00968" lon="5.29746">
        <ele>249.4</ele>
        <time>2022-02-24T12:24:14Z</time>
      </trkpt>
      <trkpt lat="46.00962" lon="5.29744">
        <ele>249.4</ele>
        <time>2022-02-24T12:24:15Z</time>
      </trkpt>
      <trkpt lat="46.00955" lon="5.29741">
        <ele>249.4</ele>
        <time>2022-02-24T12:24:16Z</time>
      </trkpt>
      <trkpt lat="46.00948" lon="5.29738">
        <ele>249.4</ele>
        <time>2022-02-24T12:24:17Z</time>
      </trkpt>
      <trkpt lat="46.00941" lon="5.29735">
        <ele>249.4</ele>
        <time>2022-02-24T12:24:18Z</time>
      </trkpt>
      <trkpt lat="46.00935" lon="5.29732">
        <ele>249.4</ele>
        <time>2022-02-24T12:24:19Z</time>
      </trkpt>
      <trkpt lat="46.00928" lon="5.29728">
        <ele>249.4</ele>
        <time>2022-02-24T12:24:20Z</time>
      </trkpt>
      <trkpt lat="46.00922" lon="5.29725">
        <ele>249.4</ele>
        <time>2022-02-24T12:24:21Z</time>
      </trkpt>
      <trkpt lat="46.00915" lon="5.29721">
        <ele>249</ele>
        <time>2022-02-24T12:24:22Z</time>
      </trkpt>
      <trkpt lat="46.00909" lon="5.29717">
        <ele>249</ele>
        <time>2022-02-24T12:24:23Z</time>
      </trkpt>
      <trkpt lat="46.00902" lon="5.29713">
        <ele>248.8</ele>
        <time>2022-02-24T12:24:24Z</time>
      </trkpt>
      <trkpt lat="46.00896" lon="5.29709">
        <ele>248.8</ele>
        <time>2022-02-24T12:24:25Z</time>
      </trkpt>
      <trkpt lat="46.0089" lon="5.29705">
        <ele>248.8</ele>
        <time>2022-02-24T12:24:26Z</time>
      </trkpt>
      <trkpt lat="46.00883" lon="5.29701">
        <ele>248.8</ele>
        <time>2022-02-24T12:24:27Z</time>
      </trkpt>
      <trkpt lat="46.00877" lon="5.29697">
        <ele>248.8</ele>
        <time>2022-02-24T12:24:28Z</time>
      </trkpt>
      <trkpt lat="46.00871" lon="5.29693">
        <ele>249</ele>
        <time>2022-02-24T12:24:29Z</time>
      </trkpt>
      <trkpt lat="46.00864" lon="5.2969">
        <ele>249</ele>
        <time>2022-02-24T12:24:30Z</time>
      </trkpt>
      <trkpt lat="46.00857" lon="5.29686">
        <ele>249</ele>
        <time>2022-02-24T12:24:31Z</time>
      </trkpt>
      <trkpt lat="46.00851" lon="5.29683">
        <ele>249</ele>
        <time>2022-02-24T12:24:32Z</time>
      </trkpt>
      <trkpt lat="46.00844" lon="5.29679">
        <ele>249</ele>
        <time>2022-02-24T12:24:33Z</time>
      </trkpt>
      <trkpt lat="46.00837" lon="5.29676">
        <ele>249.2</ele>
        <time>2022-02-24T12:24:34Z</time>
      </trkpt>
      <trkpt lat="46.0083" lon="5.29672">
        <ele>249.2</ele>
        <time>2022-02-24T12:24:35Z</time>
      </trkpt>
      <trkpt lat="46.00824" lon="5.29669">
        <ele>249.2</ele>
        <time>2022-02-24T12:24:36Z</time>
      </trkpt>
      <trkpt lat="46.00817" lon="5.29667">
        <ele>249.2</ele>
        <time>2022-02-24T12:24:37Z</time>
      </trkpt>
      <trkpt lat="46.0081" lon="5.29665">
        <ele>249.2</ele>
        <time>2022-02-24T12:24:38Z</time>
      </trkpt>
      <trkpt lat="46.00803" lon="5.29662">
        <ele>249.2</ele>
        <time>2022-02-24T12:24:39Z</time>
      </trkpt>
      <trkpt lat="46.00796" lon="5.2966">
        <ele>249.2</ele>
        <time>2022-02-24T12:24:40Z</time>
      </trkpt>
      <trkpt lat="46.00789" lon="5.29658">
        <ele>249.2</ele>
        <time>2022-02-24T12:24:41Z</time>
      </trkpt>
      <trkpt lat="46.00782" lon="5.29656">
        <ele>249.2</ele>
        <time>2022-02-24T12:24:42Z</time>
      </trkpt>
      <trkpt lat="46.00775" lon="5.29654">
        <ele>249.2</ele>
        <time>2022-02-24T12:24:43Z</time>
      </trkpt>
      <trkpt lat="46.00768" lon="5.29652">
        <ele>249.2</ele>
        <time>2022-02-24T12:24:44Z</time>
      </trkpt>
      <trkpt lat="46.00761" lon="5.2965">
        <ele>249.2</ele>
        <time>2022-02-24T12:24:45Z</time>
      </trkpt>
      <trkpt lat="46.00754" lon="5.29648">
        <ele>249.2</ele>
        <time>2022-02-24T12:24:46Z</time>
      </trkpt>
      <trkpt lat="46.00747" lon="5.29646">
        <ele>249.2</ele>
        <time>2022-02-24T12:24:47Z</time>
      </trkpt>
      <trkpt lat="46.0074" lon="5.29645">
        <ele>249</ele>
        <time>2022-02-24T12:24:48Z</time>
      </trkpt>
      <trkpt lat="46.00733" lon="5.29643">
        <ele>249</ele>
        <time>2022-02-24T12:24:49Z</time>
      </trkpt>
      <trkpt lat="46.00726" lon="5.29641">
        <ele>249</ele>
        <time>2022-02-24T12:24:50Z</time>
      </trkpt>
      <trkpt lat="46.0072" lon="5.29639">
        <ele>249</ele>
        <time>2022-02-24T12:24:51Z</time>
      </trkpt>
      <trkpt lat="46.00713" lon="5.29638">
        <ele>249</ele>
        <time>2022-02-24T12:24:52Z</time>
      </trkpt>
      <trkpt lat="46.00706" lon="5.29637">
        <ele>249.2</ele>
        <time>2022-02-24T12:24:53Z</time>
      </trkpt>
      <trkpt lat="46.007" lon="5.29635">
        <ele>249.2</ele>
        <time>2022-02-24T12:24:54Z</time>
      </trkpt>
      <trkpt lat="46.00693" lon="5.29634">
        <ele>249.4</ele>
        <time>2022-02-24T12:24:55Z</time>
      </trkpt>
      <trkpt lat="46.00686" lon="5.29633">
        <ele>249.4</ele>
        <time>2022-02-24T12:24:56Z</time>
      </trkpt>
      <trkpt lat="46.0068" lon="5.29632">
        <ele>249.4</ele>
        <time>2022-02-24T12:24:57Z</time>
      </trkpt>
      <trkpt lat="46.00674" lon="5.29631">
        <ele>249.4</ele>
        <time>2022-02-24T12:24:58Z</time>
      </trkpt>
      <trkpt lat="46.00668" lon="5.29629">
        <ele>249.4</ele>
        <time>2022-02-24T12:24:59Z</time>
      </trkpt>
      <trkpt lat="46.00661" lon="5.29627">
        <ele>249.4</ele>
        <time>2022-02-24T12:25:00Z</time>
      </trkpt>
      <trkpt lat="46.00655" lon="5.29625">
        <ele>249.4</ele>
        <time>2022-02-24T12:25:01Z</time>
      </trkpt>
      <trkpt lat="46.00648" lon="5.29623">
        <ele>249.2</ele>
        <time>2022-02-24T12:25:02Z</time>
      </trkpt>
      <trkpt lat="46.00642" lon="5.2962">
        <ele>249.2</ele>
        <time>2022-02-24T12:25:03Z</time>
      </trkpt>
      <trkpt lat="46.00636" lon="5.29616">
        <ele>249</ele>
        <time>2022-02-24T12:25:04Z</time>
      </trkpt>
      <trkpt lat="46.00631" lon="5.2961">
        <ele>249</ele>
        <time>2022-02-24T12:25:05Z</time>
      </trkpt>
      <trkpt lat="46.00626" lon="5.29604">
        <ele>248.6</ele>
        <time>2022-02-24T12:25:06Z</time>
      </trkpt>
      <trkpt lat="46.00621" lon="5.29596">
        <ele>248.6</ele>
        <time>2022-02-24T12:25:07Z</time>
      </trkpt>
      <trkpt lat="46.00616" lon="5.29588">
        <ele>248.2</ele>
        <time>2022-02-24T12:25:08Z</time>
      </trkpt>
      <trkpt lat="46.00612" lon="5.29579">
        <ele>248.2</ele>
        <time>2022-02-24T12:25:09Z</time>
      </trkpt>
      <trkpt lat="46.00608" lon="5.29571">
        <ele>247.8</ele>
        <time>2022-02-24T12:25:10Z</time>
      </trkpt>
      <trkpt lat="46.00603" lon="5.29562">
        <ele>247.4</ele>
        <time>2022-02-24T12:25:11Z</time>
      </trkpt>
      <trkpt lat="46.00599" lon="5.29553">
        <ele>247</ele>
        <time>2022-02-24T12:25:12Z</time>
      </trkpt>
      <trkpt lat="46.00594" lon="5.29544">
        <ele>247</ele>
        <time>2022-02-24T12:25:13Z</time>
      </trkpt>
      <trkpt lat="46.00589" lon="5.29535">
        <ele>246.8</ele>
        <time>2022-02-24T12:25:14Z</time>
      </trkpt>
      <trkpt lat="46.00584" lon="5.29526">
        <ele>246.4</ele>
        <time>2022-02-24T12:25:15Z</time>
      </trkpt>
      <trkpt lat="46.00579" lon="5.29517">
        <ele>246</ele>
        <time>2022-02-24T12:25:16Z</time>
      </trkpt>
      <trkpt lat="46.00574" lon="5.29507">
        <ele>245.6</ele>
        <time>2022-02-24T12:25:17Z</time>
      </trkpt>
      <trkpt lat="46.0057" lon="5.29497">
        <ele>245.2</ele>
        <time>2022-02-24T12:25:18Z</time>
      </trkpt>
      <trkpt lat="46.00565" lon="5.29487">
        <ele>244.8</ele>
        <time>2022-02-24T12:25:19Z</time>
      </trkpt>
      <trkpt lat="46.00559" lon="5.29476">
        <ele>244.4</ele>
        <time>2022-02-24T12:25:20Z</time>
      </trkpt>
      <trkpt lat="46.00554" lon="5.29466">
        <ele>244</ele>
        <time>2022-02-24T12:25:21Z</time>
      </trkpt>
      <trkpt lat="46.00549" lon="5.29455">
        <ele>243.4</ele>
        <time>2022-02-24T12:25:22Z</time>
      </trkpt>
      <trkpt lat="46.00543" lon="5.29444">
        <ele>242.8</ele>
        <time>2022-02-24T12:25:23Z</time>
      </trkpt>
      <trkpt lat="46.00538" lon="5.29433">
        <ele>242.2</ele>
        <time>2022-02-24T12:25:24Z</time>
      </trkpt>
      <trkpt lat="46.00533" lon="5.29422">
        <ele>241.8</ele>
        <time>2022-02-24T12:25:25Z</time>
      </trkpt>
      <trkpt lat="46.00527" lon="5.29411">
        <ele>241.2</ele>
        <time>2022-02-24T12:25:26Z</time>
      </trkpt>
      <trkpt lat="46.00522" lon="5.29401">
        <ele>240.6</ele>
        <time>2022-02-24T12:25:27Z</time>
      </trkpt>
      <trkpt lat="46.00516" lon="5.2939">
        <ele>240</ele>
        <time>2022-02-24T12:25:28Z</time>
      </trkpt>
      <trkpt lat="46.00511" lon="5.29379">
        <ele>239.6</ele>
        <time>2022-02-24T12:25:29Z</time>
      </trkpt>
      <trkpt lat="46.00505" lon="5.29368">
        <ele>239</ele>
        <time>2022-02-24T12:25:30Z</time>
      </trkpt>
      <trkpt lat="46.005" lon="5.29357">
        <ele>238.2</ele>
        <time>2022-02-24T12:25:31Z</time>
      </trkpt>
      <trkpt lat="46.00495" lon="5.29345">
        <ele>238</ele>
        <time>2022-02-24T12:25:32Z</time>
      </trkpt>
      <trkpt lat="46.00491" lon="5.29334">
        <ele>237.6</ele>
        <time>2022-02-24T12:25:33Z</time>
      </trkpt>
      <trkpt lat="46.00488" lon="5.29322">
        <ele>237.2</ele>
        <time>2022-02-24T12:25:34Z</time>
      </trkpt>
      <trkpt lat="46.00484" lon="5.29309">
        <ele>236.8</ele>
        <time>2022-02-24T12:25:35Z</time>
      </trkpt>
      <trkpt lat="46.00481" lon="5.29297">
        <ele>236.6</ele>
        <time>2022-02-24T12:25:36Z</time>
      </trkpt>
      <trkpt lat="46.00479" lon="5.29285">
        <ele>236.2</ele>
        <time>2022-02-24T12:25:37Z</time>
      </trkpt>
      <trkpt lat="46.00476" lon="5.29272">
        <ele>235.8</ele>
        <time>2022-02-24T12:25:38Z</time>
      </trkpt>
      <trkpt lat="46.00473" lon="5.2926">
        <ele>235.4</ele>
        <time>2022-02-24T12:25:39Z</time>
      </trkpt>
      <trkpt lat="46.0047" lon="5.29248">
        <ele>234.8</ele>
        <time>2022-02-24T12:25:40Z</time>
      </trkpt>
      <trkpt lat="46.00466" lon="5.29235">
        <ele>234.4</ele>
        <time>2022-02-24T12:25:41Z</time>
      </trkpt>
      <trkpt lat="46.00463" lon="5.29222">
        <ele>233.8</ele>
        <time>2022-02-24T12:25:42Z</time>
      </trkpt>
      <trkpt lat="46.0046" lon="5.29209">
        <ele>233.2</ele>
        <time>2022-02-24T12:25:43Z</time>
      </trkpt>
      <trkpt lat="46.00457" lon="5.29196">
        <ele>232.6</ele>
        <time>2022-02-24T12:25:44Z</time>
      </trkpt>
      <trkpt lat="46.00454" lon="5.29183">
        <ele>232</ele>
        <time>2022-02-24T12:25:45Z</time>
      </trkpt>
      <trkpt lat="46.00451" lon="5.2917">
        <ele>231.6</ele>
        <time>2022-02-24T12:25:46Z</time>
      </trkpt>
      <trkpt lat="46.00449" lon="5.29157">
        <ele>231</ele>
        <time>2022-02-24T12:25:47Z</time>
      </trkpt>
      <trkpt lat="46.00446" lon="5.29143">
        <ele>230.6</ele>
        <time>2022-02-24T12:25:48Z</time>
      </trkpt>
      <trkpt lat="46.00444" lon="5.2913">
        <ele>230.2</ele>
        <time>2022-02-24T12:25:49Z</time>
      </trkpt>
      <trkpt lat="46.0044" lon="5.29116">
        <ele>229.8</ele>
        <time>2022-02-24T12:25:50Z</time>
      </trkpt>
      <trkpt lat="46.00436" lon="5.29103">
        <ele>229.4</ele>
        <time>2022-02-24T12:25:51Z</time>
      </trkpt>
      <trkpt lat="46.00431" lon="5.29092">
        <ele>228.8</ele>
        <time>2022-02-24T12:25:52Z</time>
      </trkpt>
      <trkpt lat="46.00425" lon="5.29081">
        <ele>228.4</ele>
        <time>2022-02-24T12:25:53Z</time>
      </trkpt>
      <trkpt lat="46.00418" lon="5.2907">
        <ele>227.8</ele>
        <time>2022-02-24T12:25:54Z</time>
      </trkpt>
      <trkpt lat="46.00411" lon="5.2906">
        <ele>227.4</ele>
        <time>2022-02-24T12:25:55Z</time>
      </trkpt>
      <trkpt lat="46.00404" lon="5.29051">
        <ele>227</ele>
        <time>2022-02-24T12:25:56Z</time>
      </trkpt>
      <trkpt lat="46.00397" lon="5.29042">
        <ele>226.6</ele>
        <time>2022-02-24T12:25:57Z</time>
      </trkpt>
      <trkpt lat="46.0039" lon="5.29033">
        <ele>226</ele>
        <time>2022-02-24T12:25:58Z</time>
      </trkpt>
      <trkpt lat="46.00384" lon="5.29024">
        <ele>225.6</ele>
        <time>2022-02-24T12:25:59Z</time>
      </trkpt>
      <trkpt lat="46.00377" lon="5.29015">
        <ele>225.4</ele>
        <time>2022-02-24T12:26:00Z</time>
      </trkpt>
      <trkpt lat="46.0037" lon="5.29006">
        <ele>224.8</ele>
        <time>2022-02-24T12:26:01Z</time>
      </trkpt>
      <trkpt lat="46.00363" lon="5.28998">
        <ele>224</ele>
        <time>2022-02-24T12:26:02Z</time>
      </trkpt>
      <trkpt lat="46.00357" lon="5.28989">
        <ele>223.4</ele>
        <time>2022-02-24T12:26:03Z</time>
      </trkpt>
      <trkpt lat="46.0035" lon="5.28981">
        <ele>223.4</ele>
        <time>2022-02-24T12:26:04Z</time>
      </trkpt>
      <trkpt lat="46.00343" lon="5.28973">
        <ele>223.4</ele>
        <time>2022-02-24T12:26:05Z</time>
      </trkpt>
      <trkpt lat="46.00337" lon="5.28966">
        <ele>223.8</ele>
        <time>2022-02-24T12:26:06Z</time>
      </trkpt>
      <trkpt lat="46.00331" lon="5.28959">
        <ele>224.2</ele>
        <time>2022-02-24T12:26:07Z</time>
      </trkpt>
      <trkpt lat="46.00326" lon="5.28952">
        <ele>224.2</ele>
        <time>2022-02-24T12:26:08Z</time>
      </trkpt>
      <trkpt lat="46.00321" lon="5.28946">
        <ele>224.2</ele>
        <time>2022-02-24T12:26:09Z</time>
      </trkpt>
      <trkpt lat="46.00316" lon="5.28939">
        <ele>224.2</ele>
        <time>2022-02-24T12:26:10Z</time>
      </trkpt>
      <trkpt lat="46.00311" lon="5.28932">
        <ele>224.4</ele>
        <time>2022-02-24T12:26:11Z</time>
      </trkpt>
      <trkpt lat="46.00306" lon="5.28926">
        <ele>224.8</ele>
        <time>2022-02-24T12:26:12Z</time>
      </trkpt>
      <trkpt lat="46.00301" lon="5.28919">
        <ele>224.8</ele>
        <time>2022-02-24T12:26:13Z</time>
      </trkpt>
      <trkpt lat="46.00297" lon="5.28913">
        <ele>225</ele>
        <time>2022-02-24T12:26:14Z</time>
      </trkpt>
      <trkpt lat="46.00292" lon="5.28907">
        <ele>225</ele>
        <time>2022-02-24T12:26:15Z</time>
      </trkpt>
      <trkpt lat="46.00288" lon="5.28901">
        <ele>225</ele>
        <time>2022-02-24T12:26:16Z</time>
      </trkpt>
      <trkpt lat="46.00283" lon="5.28895">
        <ele>225</ele>
        <time>2022-02-24T12:26:17Z</time>
      </trkpt>
      <trkpt lat="46.00278" lon="5.28889">
        <ele>225</ele>
        <time>2022-02-24T12:26:18Z</time>
      </trkpt>
      <trkpt lat="46.00274" lon="5.28883">
        <ele>224.6</ele>
        <time>2022-02-24T12:26:19Z</time>
      </trkpt>
      <trkpt lat="46.00269" lon="5.28876">
        <ele>224.6</ele>
        <time>2022-02-24T12:26:20Z</time>
      </trkpt>
      <trkpt lat="46.00265" lon="5.2887">
        <ele>224.6</ele>
        <time>2022-02-24T12:26:21Z</time>
      </trkpt>
      <trkpt lat="46.0026" lon="5.28864">
        <ele>224.6</ele>
        <time>2022-02-24T12:26:22Z</time>
      </trkpt>
      <trkpt lat="46.00255" lon="5.28858">
        <ele>224.6</ele>
        <time>2022-02-24T12:26:23Z</time>
      </trkpt>
      <trkpt lat="46.0025" lon="5.28852">
        <ele>224.6</ele>
        <time>2022-02-24T12:26:24Z</time>
      </trkpt>
      <trkpt lat="46.00245" lon="5.28845">
        <ele>224.8</ele>
        <time>2022-02-24T12:26:25Z</time>
      </trkpt>
      <trkpt lat="46.0024" lon="5.28839">
        <ele>224.8</ele>
        <time>2022-02-24T12:26:26Z</time>
      </trkpt>
      <trkpt lat="46.00235" lon="5.28833">
        <ele>224.8</ele>
        <time>2022-02-24T12:26:27Z</time>
      </trkpt>
      <trkpt lat="46.0023" lon="5.28828">
        <ele>224.8</ele>
        <time>2022-02-24T12:26:28Z</time>
      </trkpt>
      <trkpt lat="46.00225" lon="5.28822">
        <ele>224.8</ele>
        <time>2022-02-24T12:26:29Z</time>
      </trkpt>
      <trkpt lat="46.0022" lon="5.28815">
        <ele>224.8</ele>
        <time>2022-02-24T12:26:30Z</time>
      </trkpt>
      <trkpt lat="46.00215" lon="5.28809">
        <ele>224.8</ele>
        <time>2022-02-24T12:26:31Z</time>
      </trkpt>
      <trkpt lat="46.0021" lon="5.28803">
        <ele>224.8</ele>
        <time>2022-02-24T12:26:32Z</time>
      </trkpt>
      <trkpt lat="46.00206" lon="5.28797">
        <ele>224.8</ele>
        <time>2022-02-24T12:26:33Z</time>
      </trkpt>
      <trkpt lat="46.00201" lon="5.28791">
        <ele>224.8</ele>
        <time>2022-02-24T12:26:34Z</time>
      </trkpt>
      <trkpt lat="46.00196" lon="5.28785">
        <ele>224.8</ele>
        <time>2022-02-24T12:26:35Z</time>
      </trkpt>
      <trkpt lat="46.00196" lon="5.28785">
        <ele>224.6</ele>
        <time>2022-02-24T12:26:36Z</time>
      </trkpt>
      <trkpt lat="46.00191" lon="5.28778">
        <ele>224.6</ele>
        <time>2022-02-24T12:26:37Z</time>
      </trkpt>
      <trkpt lat="46.00186" lon="5.28772">
        <ele>224.4</ele>
        <time>2022-02-24T12:26:38Z</time>
      </trkpt>
      <trkpt lat="46.00181" lon="5.28765">
        <ele>224.4</ele>
        <time>2022-02-24T12:26:39Z</time>
      </trkpt>
      <trkpt lat="46.00176" lon="5.28759">
        <ele>224.4</ele>
        <time>2022-02-24T12:26:40Z</time>
      </trkpt>
      <trkpt lat="46.00172" lon="5.28752">
        <ele>224.4</ele>
        <time>2022-02-24T12:26:41Z</time>
      </trkpt>
      <trkpt lat="46.00167" lon="5.28745">
        <ele>224</ele>
        <time>2022-02-24T12:26:42Z</time>
      </trkpt>
      <trkpt lat="46.00157" lon="5.28732">
        <ele>224</ele>
        <time>2022-02-24T12:26:43Z</time>
      </trkpt>
      <trkpt lat="46.00153" lon="5.28726">
        <ele>223.6</ele>
        <time>2022-02-24T12:26:44Z</time>
      </trkpt>
      <trkpt lat="46.00148" lon="5.2872">
        <ele>223.6</ele>
        <time>2022-02-24T12:26:45Z</time>
      </trkpt>
      <trkpt lat="46.00143" lon="5.28713">
        <ele>223.4</ele>
        <time>2022-02-24T12:26:46Z</time>
      </trkpt>
      <trkpt lat="46.00139" lon="5.28707">
        <ele>223.4</ele>
        <time>2022-02-24T12:26:47Z</time>
      </trkpt>
      <trkpt lat="46.00134" lon="5.287">
        <ele>223.4</ele>
        <time>2022-02-24T12:26:48Z</time>
      </trkpt>
      <trkpt lat="46.00129" lon="5.28694">
        <ele>223.4</ele>
        <time>2022-02-24T12:26:49Z</time>
      </trkpt>
      <trkpt lat="46.00124" lon="5.28687">
        <ele>223.4</ele>
        <time>2022-02-24T12:26:50Z</time>
      </trkpt>
      <trkpt lat="46.00119" lon="5.28681">
        <ele>223.4</ele>
        <time>2022-02-24T12:26:51Z</time>
      </trkpt>
      <trkpt lat="46.00114" lon="5.28675">
        <ele>223.2</ele>
        <time>2022-02-24T12:26:52Z</time>
      </trkpt>
      <trkpt lat="46.00109" lon="5.28668">
        <ele>223.2</ele>
        <time>2022-02-24T12:26:53Z</time>
      </trkpt>
      <trkpt lat="46.00104" lon="5.28661">
        <ele>223.2</ele>
        <time>2022-02-24T12:26:54Z</time>
      </trkpt>
      <trkpt lat="46.00099" lon="5.28655">
        <ele>222.8</ele>
        <time>2022-02-24T12:26:55Z</time>
      </trkpt>
      <trkpt lat="46.00093" lon="5.28648">
        <ele>222.8</ele>
        <time>2022-02-24T12:26:56Z</time>
      </trkpt>
      <trkpt lat="46.00088" lon="5.28641">
        <ele>222.6</ele>
        <time>2022-02-24T12:26:57Z</time>
      </trkpt>
      <trkpt lat="46.00083" lon="5.28634">
        <ele>222.6</ele>
        <time>2022-02-24T12:26:58Z</time>
      </trkpt>
      <trkpt lat="46.00078" lon="5.28627">
        <ele>222.4</ele>
        <time>2022-02-24T12:26:59Z</time>
      </trkpt>
      <trkpt lat="46.00072" lon="5.2862">
        <ele>222.4</ele>
        <time>2022-02-24T12:27:00Z</time>
      </trkpt>
      <trkpt lat="46.00067" lon="5.28613">
        <ele>222.4</ele>
        <time>2022-02-24T12:27:01Z</time>
      </trkpt>
      <trkpt lat="46.00062" lon="5.28606">
        <ele>222.4</ele>
        <time>2022-02-24T12:27:02Z</time>
      </trkpt>
      <trkpt lat="46.00057" lon="5.28599">
        <ele>222.4</ele>
        <time>2022-02-24T12:27:03Z</time>
      </trkpt>
      <trkpt lat="46.00051" lon="5.28592">
        <ele>222.4</ele>
        <time>2022-02-24T12:27:04Z</time>
      </trkpt>
      <trkpt lat="46.00046" lon="5.28586">
        <ele>222.2</ele>
        <time>2022-02-24T12:27:05Z</time>
      </trkpt>
      <trkpt lat="46.00041" lon="5.28579">
        <ele>222.2</ele>
        <time>2022-02-24T12:27:06Z</time>
      </trkpt>
      <trkpt lat="46.00036" lon="5.28573">
        <ele>222.2</ele>
        <time>2022-02-24T12:27:07Z</time>
      </trkpt>
      <trkpt lat="46.00031" lon="5.28566">
        <ele>222.2</ele>
        <time>2022-02-24T12:27:08Z</time>
      </trkpt>
      <trkpt lat="46.00026" lon="5.2856">
        <ele>222.2</ele>
        <time>2022-02-24T12:27:09Z</time>
      </trkpt>
      <trkpt lat="46.00021" lon="5.28553">
        <ele>222.2</ele>
        <time>2022-02-24T12:27:10Z</time>
      </trkpt>
      <trkpt lat="46.00015" lon="5.28547">
        <ele>222.2</ele>
        <time>2022-02-24T12:27:11Z</time>
      </trkpt>
      <trkpt lat="46.0001" lon="5.28541">
        <ele>222.2</ele>
        <time>2022-02-24T12:27:12Z</time>
      </trkpt>
      <trkpt lat="46.00005" lon="5.28535">
        <ele>222.2</ele>
        <time>2022-02-24T12:27:13Z</time>
      </trkpt>
      <trkpt lat="46.00001" lon="5.28528">
        <ele>222.2</ele>
        <time>2022-02-24T12:27:14Z</time>
      </trkpt>
      <trkpt lat="45.99996" lon="5.28522">
        <ele>222.2</ele>
        <time>2022-02-24T12:27:15Z</time>
      </trkpt>
      <trkpt lat="45.99991" lon="5.28515">
        <ele>222</ele>
        <time>2022-02-24T12:27:16Z</time>
      </trkpt>
      <trkpt lat="45.99987" lon="5.28509">
        <ele>222</ele>
        <time>2022-02-24T12:27:17Z</time>
      </trkpt>
      <trkpt lat="45.99982" lon="5.28502">
        <ele>222</ele>
        <time>2022-02-24T12:27:18Z</time>
      </trkpt>
      <trkpt lat="45.99977" lon="5.28496">
        <ele>222</ele>
        <time>2022-02-24T12:27:19Z</time>
      </trkpt>
      <trkpt lat="45.99972" lon="5.28489">
        <ele>221.6</ele>
        <time>2022-02-24T12:27:20Z</time>
      </trkpt>
      <trkpt lat="45.99967" lon="5.28483">
        <ele>221.6</ele>
        <time>2022-02-24T12:27:21Z</time>
      </trkpt>
      <trkpt lat="45.99962" lon="5.28476">
        <ele>221.6</ele>
        <time>2022-02-24T12:27:22Z</time>
      </trkpt>
      <trkpt lat="45.99958" lon="5.2847">
        <ele>221.6</ele>
        <time>2022-02-24T12:27:23Z</time>
      </trkpt>
      <trkpt lat="45.99953" lon="5.28464">
        <ele>221.6</ele>
        <time>2022-02-24T12:27:24Z</time>
      </trkpt>
      <trkpt lat="45.99948" lon="5.28457">
        <ele>222</ele>
        <time>2022-02-24T12:27:25Z</time>
      </trkpt>
      <trkpt lat="45.99943" lon="5.2845">
        <ele>222</ele>
        <time>2022-02-24T12:27:26Z</time>
      </trkpt>
      <trkpt lat="45.99938" lon="5.28443">
        <ele>222</ele>
        <time>2022-02-24T12:27:27Z</time>
      </trkpt>
      <trkpt lat="45.99933" lon="5.28436">
        <ele>222</ele>
        <time>2022-02-24T12:27:28Z</time>
      </trkpt>
      <trkpt lat="45.99928" lon="5.2843">
        <ele>222</ele>
        <time>2022-02-24T12:27:29Z</time>
      </trkpt>
      <trkpt lat="45.99923" lon="5.28423">
        <ele>222</ele>
        <time>2022-02-24T12:27:30Z</time>
      </trkpt>
      <trkpt lat="45.99918" lon="5.28417">
        <ele>222</ele>
        <time>2022-02-24T12:27:31Z</time>
      </trkpt>
      <trkpt lat="45.99913" lon="5.2841">
        <ele>222</ele>
        <time>2022-02-24T12:27:32Z</time>
      </trkpt>
      <trkpt lat="45.99909" lon="5.28403">
        <ele>222</ele>
        <time>2022-02-24T12:27:33Z</time>
      </trkpt>
      <trkpt lat="45.99903" lon="5.28397">
        <ele>221.6</ele>
        <time>2022-02-24T12:27:34Z</time>
      </trkpt>
      <trkpt lat="45.99898" lon="5.2839">
        <ele>221.6</ele>
        <time>2022-02-24T12:27:35Z</time>
      </trkpt>
      <trkpt lat="45.99893" lon="5.28384">
        <ele>221.6</ele>
        <time>2022-02-24T12:27:36Z</time>
      </trkpt>
      <trkpt lat="45.99888" lon="5.28377">
        <ele>221.6</ele>
        <time>2022-02-24T12:27:37Z</time>
      </trkpt>
      <trkpt lat="45.99883" lon="5.28371">
        <ele>221.4</ele>
        <time>2022-02-24T12:27:38Z</time>
      </trkpt>
      <trkpt lat="45.99878" lon="5.28364">
        <ele>221.4</ele>
        <time>2022-02-24T12:27:39Z</time>
      </trkpt>
      <trkpt lat="45.99873" lon="5.28357">
        <ele>221.4</ele>
        <time>2022-02-24T12:27:40Z</time>
      </trkpt>
      <trkpt lat="45.99868" lon="5.28351">
        <ele>221.4</ele>
        <time>2022-02-24T12:27:41Z</time>
      </trkpt>
      <trkpt lat="45.99863" lon="5.28344">
        <ele>221.2</ele>
        <time>2022-02-24T12:27:42Z</time>
      </trkpt>
      <trkpt lat="45.99858" lon="5.28338">
        <ele>221.2</ele>
        <time>2022-02-24T12:27:43Z</time>
      </trkpt>
      <trkpt lat="45.99853" lon="5.28331">
        <ele>221.2</ele>
        <time>2022-02-24T12:27:44Z</time>
      </trkpt>
      <trkpt lat="45.99848" lon="5.28324">
        <ele>221.2</ele>
        <time>2022-02-24T12:27:45Z</time>
      </trkpt>
      <trkpt lat="45.99843" lon="5.28318">
        <ele>220.8</ele>
        <time>2022-02-24T12:27:46Z</time>
      </trkpt>
      <trkpt lat="45.99837" lon="5.28311">
        <ele>220.8</ele>
        <time>2022-02-24T12:27:47Z</time>
      </trkpt>
      <trkpt lat="45.99832" lon="5.28304">
        <ele>220.8</ele>
        <time>2022-02-24T12:27:48Z</time>
      </trkpt>
      <trkpt lat="45.99827" lon="5.28298">
        <ele>220.8</ele>
        <time>2022-02-24T12:27:49Z</time>
      </trkpt>
      <trkpt lat="45.99822" lon="5.28291">
        <ele>220.8</ele>
        <time>2022-02-24T12:27:50Z</time>
      </trkpt>
      <trkpt lat="45.99817" lon="5.28285">
        <ele>220.8</ele>
        <time>2022-02-24T12:27:51Z</time>
      </trkpt>
      <trkpt lat="45.99813" lon="5.28278">
        <ele>220.8</ele>
        <time>2022-02-24T12:27:52Z</time>
      </trkpt>
      <trkpt lat="45.99808" lon="5.28272">
        <ele>220.8</ele>
        <time>2022-02-24T12:27:53Z</time>
      </trkpt>
      <trkpt lat="45.99803" lon="5.28265">
        <ele>220.8</ele>
        <time>2022-02-24T12:27:54Z</time>
      </trkpt>
      <trkpt lat="45.99798" lon="5.28259">
        <ele>220.8</ele>
        <time>2022-02-24T12:27:55Z</time>
      </trkpt>
      <trkpt lat="45.99793" lon="5.28252">
        <ele>220.8</ele>
        <time>2022-02-24T12:27:56Z</time>
      </trkpt>
      <trkpt lat="45.99788" lon="5.28246">
        <ele>220.6</ele>
        <time>2022-02-24T12:27:57Z</time>
      </trkpt>
      <trkpt lat="45.99783" lon="5.28239">
        <ele>220.6</ele>
        <time>2022-02-24T12:27:58Z</time>
      </trkpt>
      <trkpt lat="45.99777" lon="5.28232">
        <ele>220.8</ele>
        <time>2022-02-24T12:27:59Z</time>
      </trkpt>
      <trkpt lat="45.99772" lon="5.28226">
        <ele>220.8</ele>
        <time>2022-02-24T12:28:00Z</time>
      </trkpt>
      <trkpt lat="45.99767" lon="5.28219">
        <ele>220.8</ele>
        <time>2022-02-24T12:28:01Z</time>
      </trkpt>
      <trkpt lat="45.99762" lon="5.28212">
        <ele>220.8</ele>
        <time>2022-02-24T12:28:02Z</time>
      </trkpt>
      <trkpt lat="45.99757" lon="5.28205">
        <ele>220.8</ele>
        <time>2022-02-24T12:28:03Z</time>
      </trkpt>
      <trkpt lat="45.99751" lon="5.28198">
        <ele>220.8</ele>
        <time>2022-02-24T12:28:04Z</time>
      </trkpt>
      <trkpt lat="45.99746" lon="5.28191">
        <ele>220.8</ele>
        <time>2022-02-24T12:28:05Z</time>
      </trkpt>
      <trkpt lat="45.99741" lon="5.28184">
        <ele>220.4</ele>
        <time>2022-02-24T12:28:06Z</time>
      </trkpt>
      <trkpt lat="45.99735" lon="5.28177">
        <ele>220.4</ele>
        <time>2022-02-24T12:28:07Z</time>
      </trkpt>
      <trkpt lat="45.9973" lon="5.2817">
        <ele>220.2</ele>
        <time>2022-02-24T12:28:08Z</time>
      </trkpt>
      <trkpt lat="45.99725" lon="5.28162">
        <ele>220.2</ele>
        <time>2022-02-24T12:28:09Z</time>
      </trkpt>
      <trkpt lat="45.99721" lon="5.28153">
        <ele>220.2</ele>
        <time>2022-02-24T12:28:10Z</time>
      </trkpt>
      <trkpt lat="45.99718" lon="5.28143">
        <ele>220</ele>
        <time>2022-02-24T12:28:11Z</time>
      </trkpt>
      <trkpt lat="45.99717" lon="5.28133">
        <ele>220</ele>
        <time>2022-02-24T12:28:12Z</time>
      </trkpt>
      <trkpt lat="45.99716" lon="5.28123">
        <ele>219.8</ele>
        <time>2022-02-24T12:28:13Z</time>
      </trkpt>
      <trkpt lat="45.99714" lon="5.28114">
        <ele>219.8</ele>
        <time>2022-02-24T12:28:14Z</time>
      </trkpt>
      <trkpt lat="45.9971" lon="5.28108">
        <ele>219.4</ele>
        <time>2022-02-24T12:28:15Z</time>
      </trkpt>
      <trkpt lat="45.99704" lon="5.28104">
        <ele>219.4</ele>
        <time>2022-02-24T12:28:16Z</time>
      </trkpt>
      <trkpt lat="45.99698" lon="5.28102">
        <ele>219.4</ele>
        <time>2022-02-24T12:28:17Z</time>
      </trkpt>
      <trkpt lat="45.99692" lon="5.281">
        <ele>219.4</ele>
        <time>2022-02-24T12:28:18Z</time>
      </trkpt>
      <trkpt lat="45.99686" lon="5.28097">
        <ele>219.4</ele>
        <time>2022-02-24T12:28:19Z</time>
      </trkpt>
      <trkpt lat="45.99679" lon="5.28093">
        <ele>219.2</ele>
        <time>2022-02-24T12:28:20Z</time>
      </trkpt>
      <trkpt lat="45.99673" lon="5.28089">
        <ele>219.2</ele>
        <time>2022-02-24T12:28:21Z</time>
      </trkpt>
      <trkpt lat="45.99667" lon="5.28083">
        <ele>219.2</ele>
        <time>2022-02-24T12:28:22Z</time>
      </trkpt>
      <trkpt lat="45.99661" lon="5.28078">
        <ele>219.2</ele>
        <time>2022-02-24T12:28:23Z</time>
      </trkpt>
      <trkpt lat="45.99655" lon="5.28072">
        <ele>219.2</ele>
        <time>2022-02-24T12:28:24Z</time>
      </trkpt>
      <trkpt lat="45.9965" lon="5.28065">
        <ele>219.2</ele>
        <time>2022-02-24T12:28:25Z</time>
      </trkpt>
      <trkpt lat="45.99645" lon="5.28058">
        <ele>219</ele>
        <time>2022-02-24T12:28:26Z</time>
      </trkpt>
      <trkpt lat="45.9964" lon="5.2805">
        <ele>219</ele>
        <time>2022-02-24T12:28:27Z</time>
      </trkpt>
      <trkpt lat="45.99635" lon="5.28043">
        <ele>218.8</ele>
        <time>2022-02-24T12:28:28Z</time>
      </trkpt>
      <trkpt lat="45.9963" lon="5.28037">
        <ele>218.8</ele>
        <time>2022-02-24T12:28:29Z</time>
      </trkpt>
      <trkpt lat="45.99625" lon="5.2803">
        <ele>218.4</ele>
        <time>2022-02-24T12:28:30Z</time>
      </trkpt>
      <trkpt lat="45.9962" lon="5.28023">
        <ele>218.4</ele>
        <time>2022-02-24T12:28:31Z</time>
      </trkpt>
      <trkpt lat="45.99616" lon="5.28017">
        <ele>218.4</ele>
        <time>2022-02-24T12:28:32Z</time>
      </trkpt>
      <trkpt lat="45.99611" lon="5.2801">
        <ele>218.2</ele>
        <time>2022-02-24T12:28:33Z</time>
      </trkpt>
      <trkpt lat="45.99606" lon="5.28004">
        <ele>218.2</ele>
        <time>2022-02-24T12:28:34Z</time>
      </trkpt>
      <trkpt lat="45.99601" lon="5.27997">
        <ele>218.4</ele>
        <time>2022-02-24T12:28:35Z</time>
      </trkpt>
      <trkpt lat="45.99595" lon="5.27991">
        <ele>218.4</ele>
        <time>2022-02-24T12:28:36Z</time>
      </trkpt>
      <trkpt lat="45.9959" lon="5.27984">
        <ele>218.4</ele>
        <time>2022-02-24T12:28:37Z</time>
      </trkpt>
      <trkpt lat="45.99585" lon="5.27978">
        <ele>218.4</ele>
        <time>2022-02-24T12:28:38Z</time>
      </trkpt>
      <trkpt lat="45.9958" lon="5.27971">
        <ele>218.4</ele>
        <time>2022-02-24T12:28:39Z</time>
      </trkpt>
      <trkpt lat="45.99576" lon="5.27964">
        <ele>218.4</ele>
        <time>2022-02-24T12:28:40Z</time>
      </trkpt>
      <trkpt lat="45.99571" lon="5.27957">
        <ele>218.4</ele>
        <time>2022-02-24T12:28:41Z</time>
      </trkpt>
      <trkpt lat="45.99566" lon="5.27951">
        <ele>218.4</ele>
        <time>2022-02-24T12:28:42Z</time>
      </trkpt>
      <trkpt lat="45.99561" lon="5.27944">
        <ele>218.4</ele>
        <time>2022-02-24T12:28:43Z</time>
      </trkpt>
      <trkpt lat="45.99556" lon="5.27937">
        <ele>218.4</ele>
        <time>2022-02-24T12:28:44Z</time>
      </trkpt>
      <trkpt lat="45.99551" lon="5.27931">
        <ele>218.4</ele>
        <time>2022-02-24T12:28:45Z</time>
      </trkpt>
      <trkpt lat="45.99546" lon="5.27924">
        <ele>218.6</ele>
        <time>2022-02-24T12:28:46Z</time>
      </trkpt>
      <trkpt lat="45.99541" lon="5.27918">
        <ele>218.6</ele>
        <time>2022-02-24T12:28:47Z</time>
      </trkpt>
      <trkpt lat="45.99536" lon="5.27911">
        <ele>218.6</ele>
        <time>2022-02-24T12:28:48Z</time>
      </trkpt>
      <trkpt lat="45.99531" lon="5.27905">
        <ele>218.6</ele>
        <time>2022-02-24T12:28:49Z</time>
      </trkpt>
      <trkpt lat="45.99525" lon="5.27898">
        <ele>218.6</ele>
        <time>2022-02-24T12:28:50Z</time>
      </trkpt>
      <trkpt lat="45.9952" lon="5.27891">
        <ele>218.4</ele>
        <time>2022-02-24T12:28:51Z</time>
      </trkpt>
      <trkpt lat="45.99515" lon="5.27885">
        <ele>218.4</ele>
        <time>2022-02-24T12:28:52Z</time>
      </trkpt>
      <trkpt lat="45.9951" lon="5.27878">
        <ele>218.4</ele>
        <time>2022-02-24T12:28:53Z</time>
      </trkpt>
      <trkpt lat="45.99505" lon="5.27871">
        <ele>218.4</ele>
        <time>2022-02-24T12:28:54Z</time>
      </trkpt>
      <trkpt lat="45.99499" lon="5.27865">
        <ele>218.4</ele>
        <time>2022-02-24T12:28:55Z</time>
      </trkpt>
      <trkpt lat="45.99494" lon="5.27858">
        <ele>218.4</ele>
        <time>2022-02-24T12:28:56Z</time>
      </trkpt>
      <trkpt lat="45.99489" lon="5.27851">
        <ele>218.4</ele>
        <time>2022-02-24T12:28:57Z</time>
      </trkpt>
      <trkpt lat="45.99484" lon="5.27844">
        <ele>218.4</ele>
        <time>2022-02-24T12:28:58Z</time>
      </trkpt>
      <trkpt lat="45.99479" lon="5.27837">
        <ele>218.4</ele>
        <time>2022-02-24T12:28:59Z</time>
      </trkpt>
      <trkpt lat="45.99474" lon="5.27831">
        <ele>218.4</ele>
        <time>2022-02-24T12:29:00Z</time>
      </trkpt>
      <trkpt lat="45.99468" lon="5.27824">
        <ele>218.4</ele>
        <time>2022-02-24T12:29:01Z</time>
      </trkpt>
      <trkpt lat="45.99463" lon="5.27818">
        <ele>218.4</ele>
        <time>2022-02-24T12:29:02Z</time>
      </trkpt>
      <trkpt lat="45.99458" lon="5.27811">
        <ele>218.4</ele>
        <time>2022-02-24T12:29:03Z</time>
      </trkpt>
      <trkpt lat="45.99452" lon="5.27805">
        <ele>218.4</ele>
        <time>2022-02-24T12:29:04Z</time>
      </trkpt>
      <trkpt lat="45.99447" lon="5.27798">
        <ele>218.2</ele>
        <time>2022-02-24T12:29:05Z</time>
      </trkpt>
      <trkpt lat="45.99442" lon="5.27792">
        <ele>218.2</ele>
        <time>2022-02-24T12:29:06Z</time>
      </trkpt>
      <trkpt lat="45.99437" lon="5.27785">
        <ele>218.2</ele>
        <time>2022-02-24T12:29:07Z</time>
      </trkpt>
      <trkpt lat="45.99432" lon="5.27779">
        <ele>218.2</ele>
        <time>2022-02-24T12:29:08Z</time>
      </trkpt>
      <trkpt lat="45.99427" lon="5.27772">
        <ele>218.2</ele>
        <time>2022-02-24T12:29:09Z</time>
      </trkpt>
      <trkpt lat="45.99421" lon="5.27765">
        <ele>218.2</ele>
        <time>2022-02-24T12:29:10Z</time>
      </trkpt>
      <trkpt lat="45.99416" lon="5.27758">
        <ele>218.2</ele>
        <time>2022-02-24T12:29:11Z</time>
      </trkpt>
      <trkpt lat="45.99411" lon="5.27751">
        <ele>218.2</ele>
        <time>2022-02-24T12:29:12Z</time>
      </trkpt>
      <trkpt lat="45.99406" lon="5.27744">
        <ele>218.2</ele>
        <time>2022-02-24T12:29:13Z</time>
      </trkpt>
      <trkpt lat="45.994" lon="5.27737">
        <ele>218.2</ele>
        <time>2022-02-24T12:29:14Z</time>
      </trkpt>
      <trkpt lat="45.99395" lon="5.2773">
        <ele>218.2</ele>
        <time>2022-02-24T12:29:15Z</time>
      </trkpt>
      <trkpt lat="45.99389" lon="5.27723">
        <ele>218.2</ele>
        <time>2022-02-24T12:29:16Z</time>
      </trkpt>
      <trkpt lat="45.99384" lon="5.27716">
        <ele>218.2</ele>
        <time>2022-02-24T12:29:17Z</time>
      </trkpt>
      <trkpt lat="45.99379" lon="5.27709">
        <ele>218.2</ele>
        <time>2022-02-24T12:29:18Z</time>
      </trkpt>
      <trkpt lat="45.99373" lon="5.27703">
        <ele>218.2</ele>
        <time>2022-02-24T12:29:19Z</time>
      </trkpt>
      <trkpt lat="45.99368" lon="5.27696">
        <ele>218.2</ele>
        <time>2022-02-24T12:29:20Z</time>
      </trkpt>
      <trkpt lat="45.99363" lon="5.2769">
        <ele>218.4</ele>
        <time>2022-02-24T12:29:21Z</time>
      </trkpt>
      <trkpt lat="45.99358" lon="5.27683">
        <ele>218.4</ele>
        <time>2022-02-24T12:29:22Z</time>
      </trkpt>
      <trkpt lat="45.99353" lon="5.27676">
        <ele>218.4</ele>
        <time>2022-02-24T12:29:23Z</time>
      </trkpt>
      <trkpt lat="45.99348" lon="5.27669">
        <ele>218.4</ele>
        <time>2022-02-24T12:29:24Z</time>
      </trkpt>
      <trkpt lat="45.99343" lon="5.27663">
        <ele>218.4</ele>
        <time>2022-02-24T12:29:25Z</time>
      </trkpt>
      <trkpt lat="45.99338" lon="5.27656">
        <ele>218.4</ele>
        <time>2022-02-24T12:29:26Z</time>
      </trkpt>
      <trkpt lat="45.99333" lon="5.2765">
        <ele>218.4</ele>
        <time>2022-02-24T12:29:27Z</time>
      </trkpt>
      <trkpt lat="45.99328" lon="5.27643">
        <ele>218.4</ele>
        <time>2022-02-24T12:29:28Z</time>
      </trkpt>
      <trkpt lat="45.99323" lon="5.27636">
        <ele>218.2</ele>
        <time>2022-02-24T12:29:29Z</time>
      </trkpt>
      <trkpt lat="45.99319" lon="5.27629">
        <ele>218.2</ele>
        <time>2022-02-24T12:29:30Z</time>
      </trkpt>
      <trkpt lat="45.99314" lon="5.27622">
        <ele>218.2</ele>
        <time>2022-02-24T12:29:31Z</time>
      </trkpt>
      <trkpt lat="45.99309" lon="5.27616">
        <ele>218.2</ele>
        <time>2022-02-24T12:29:32Z</time>
      </trkpt>
      <trkpt lat="45.99304" lon="5.2761">
        <ele>218.2</ele>
        <time>2022-02-24T12:29:33Z</time>
      </trkpt>
      <trkpt lat="45.993" lon="5.27604">
        <ele>218.2</ele>
        <time>2022-02-24T12:29:34Z</time>
      </trkpt>
      <trkpt lat="45.99295" lon="5.27597">
        <ele>218</ele>
        <time>2022-02-24T12:29:35Z</time>
      </trkpt>
      <trkpt lat="45.9929" lon="5.27591">
        <ele>218</ele>
        <time>2022-02-24T12:29:36Z</time>
      </trkpt>
      <trkpt lat="45.99285" lon="5.27584">
        <ele>218</ele>
        <time>2022-02-24T12:29:37Z</time>
      </trkpt>
      <trkpt lat="45.9928" lon="5.27578">
        <ele>218</ele>
        <time>2022-02-24T12:29:38Z</time>
      </trkpt>
      <trkpt lat="45.99275" lon="5.27571">
        <ele>218</ele>
        <time>2022-02-24T12:29:39Z</time>
      </trkpt>
      <trkpt lat="45.9927" lon="5.27565">
        <ele>218</ele>
        <time>2022-02-24T12:29:40Z</time>
      </trkpt>
      <trkpt lat="45.99265" lon="5.27559">
        <ele>218</ele>
        <time>2022-02-24T12:29:41Z</time>
      </trkpt>
      <trkpt lat="45.99261" lon="5.27553">
        <ele>218</ele>
        <time>2022-02-24T12:29:42Z</time>
      </trkpt>
      <trkpt lat="45.99256" lon="5.27547">
        <ele>218</ele>
        <time>2022-02-24T12:29:43Z</time>
      </trkpt>
      <trkpt lat="45.99251" lon="5.2754">
        <ele>218</ele>
        <time>2022-02-24T12:29:44Z</time>
      </trkpt>
      <trkpt lat="45.99245" lon="5.27534">
        <ele>218</ele>
        <time>2022-02-24T12:29:45Z</time>
      </trkpt>
      <trkpt lat="45.9924" lon="5.27527">
        <ele>218</ele>
        <time>2022-02-24T12:29:46Z</time>
      </trkpt>
      <trkpt lat="45.99235" lon="5.27521">
        <ele>218</ele>
        <time>2022-02-24T12:29:47Z</time>
      </trkpt>
      <trkpt lat="45.9923" lon="5.27514">
        <ele>218.2</ele>
        <time>2022-02-24T12:29:48Z</time>
      </trkpt>
      <trkpt lat="45.99226" lon="5.27508">
        <ele>218.2</ele>
        <time>2022-02-24T12:29:49Z</time>
      </trkpt>
      <trkpt lat="45.99221" lon="5.27502">
        <ele>218.2</ele>
        <time>2022-02-24T12:29:50Z</time>
      </trkpt>
      <trkpt lat="45.99216" lon="5.27496">
        <ele>218.6</ele>
        <time>2022-02-24T12:29:51Z</time>
      </trkpt>
      <trkpt lat="45.99212" lon="5.2749">
        <ele>218.6</ele>
        <time>2022-02-24T12:29:52Z</time>
      </trkpt>
      <trkpt lat="45.99208" lon="5.27484">
        <ele>219</ele>
        <time>2022-02-24T12:29:53Z</time>
      </trkpt>
      <trkpt lat="45.99204" lon="5.27479">
        <ele>219.4</ele>
        <time>2022-02-24T12:29:54Z</time>
      </trkpt>
      <trkpt lat="45.992" lon="5.27474">
        <ele>219.4</ele>
        <time>2022-02-24T12:29:55Z</time>
      </trkpt>
      <trkpt lat="45.99196" lon="5.27469">
        <ele>219.8</ele>
        <time>2022-02-24T12:29:56Z</time>
      </trkpt>
      <trkpt lat="45.99193" lon="5.27465">
        <ele>220.2</ele>
        <time>2022-02-24T12:29:57Z</time>
      </trkpt>
      <trkpt lat="45.99189" lon="5.2746">
        <ele>220.4</ele>
        <time>2022-02-24T12:29:58Z</time>
      </trkpt>
      <trkpt lat="45.99186" lon="5.27455">
        <ele>220.8</ele>
        <time>2022-02-24T12:29:59Z</time>
      </trkpt>
      <trkpt lat="45.99181" lon="5.2745">
        <ele>220.8</ele>
        <time>2022-02-24T12:30:00Z</time>
      </trkpt>
      <trkpt lat="45.99177" lon="5.27444">
        <ele>221</ele>
        <time>2022-02-24T12:30:01Z</time>
      </trkpt>
      <trkpt lat="45.99172" lon="5.27439">
        <ele>221</ele>
        <time>2022-02-24T12:30:02Z</time>
      </trkpt>
      <trkpt lat="45.99167" lon="5.27433">
        <ele>221.2</ele>
        <time>2022-02-24T12:30:03Z</time>
      </trkpt>
      <trkpt lat="45.99163" lon="5.27428">
        <ele>221.2</ele>
        <time>2022-02-24T12:30:04Z</time>
      </trkpt>
      <trkpt lat="45.99159" lon="5.27422">
        <ele>221.4</ele>
        <time>2022-02-24T12:30:05Z</time>
      </trkpt>
      <trkpt lat="45.99155" lon="5.27416">
        <ele>221.4</ele>
        <time>2022-02-24T12:30:06Z</time>
      </trkpt>
      <trkpt lat="45.99151" lon="5.27411">
        <ele>221.8</ele>
        <time>2022-02-24T12:30:07Z</time>
      </trkpt>
      <trkpt lat="45.99147" lon="5.27405">
        <ele>221.8</ele>
        <time>2022-02-24T12:30:08Z</time>
      </trkpt>
      <trkpt lat="45.99142" lon="5.274">
        <ele>221.8</ele>
        <time>2022-02-24T12:30:09Z</time>
      </trkpt>
      <trkpt lat="45.99138" lon="5.27395">
        <ele>221.8</ele>
        <time>2022-02-24T12:30:10Z</time>
      </trkpt>
      <trkpt lat="45.99134" lon="5.27389">
        <ele>222</ele>
        <time>2022-02-24T12:30:11Z</time>
      </trkpt>
      <trkpt lat="45.99129" lon="5.27384">
        <ele>222</ele>
        <time>2022-02-24T12:30:12Z</time>
      </trkpt>
      <trkpt lat="45.99125" lon="5.27379">
        <ele>222</ele>
        <time>2022-02-24T12:30:13Z</time>
      </trkpt>
      <trkpt lat="45.99121" lon="5.27373">
        <ele>222.4</ele>
        <time>2022-02-24T12:30:14Z</time>
      </trkpt>
      <trkpt lat="45.99117" lon="5.27368">
        <ele>222.6</ele>
        <time>2022-02-24T12:30:15Z</time>
      </trkpt>
      <trkpt lat="45.99114" lon="5.27363">
        <ele>222.8</ele>
        <time>2022-02-24T12:30:16Z</time>
      </trkpt>
      <trkpt lat="45.9911" lon="5.27359">
        <ele>222.8</ele>
        <time>2022-02-24T12:30:17Z</time>
      </trkpt>
      <trkpt lat="45.99106" lon="5.27354">
        <ele>222.8</ele>
        <time>2022-02-24T12:30:18Z</time>
      </trkpt>
      <trkpt lat="45.99102" lon="5.27349">
        <ele>223.2</ele>
        <time>2022-02-24T12:30:19Z</time>
      </trkpt>
      <trkpt lat="45.99098" lon="5.27344">
        <ele>223.2</ele>
        <time>2022-02-24T12:30:20Z</time>
      </trkpt>
      <trkpt lat="45.99095" lon="5.27339">
        <ele>223.2</ele>
        <time>2022-02-24T12:30:21Z</time>
      </trkpt>
      <trkpt lat="45.99092" lon="5.27334">
        <ele>223.4</ele>
        <time>2022-02-24T12:30:22Z</time>
      </trkpt>
      <trkpt lat="45.99088" lon="5.27329">
        <ele>223.4</ele>
        <time>2022-02-24T12:30:23Z</time>
      </trkpt>
      <trkpt lat="45.99084" lon="5.27325">
        <ele>223.4</ele>
        <time>2022-02-24T12:30:24Z</time>
      </trkpt>
      <trkpt lat="45.99081" lon="5.2732">
        <ele>223.6</ele>
        <time>2022-02-24T12:30:25Z</time>
      </trkpt>
      <trkpt lat="45.99077" lon="5.27316">
        <ele>223.6</ele>
        <time>2022-02-24T12:30:26Z</time>
      </trkpt>
      <trkpt lat="45.99073" lon="5.27311">
        <ele>224</ele>
        <time>2022-02-24T12:30:27Z</time>
      </trkpt>
      <trkpt lat="45.99069" lon="5.27306">
        <ele>224</ele>
        <time>2022-02-24T12:30:28Z</time>
      </trkpt>
      <trkpt lat="45.99066" lon="5.27301">
        <ele>224</ele>
        <time>2022-02-24T12:30:29Z</time>
      </trkpt>
      <trkpt lat="45.99063" lon="5.27296">
        <ele>224</ele>
        <time>2022-02-24T12:30:30Z</time>
      </trkpt>
      <trkpt lat="45.99059" lon="5.27292">
        <ele>224</ele>
        <time>2022-02-24T12:30:31Z</time>
      </trkpt>
      <trkpt lat="45.99057" lon="5.27287">
        <ele>224</ele>
        <time>2022-02-24T12:30:32Z</time>
      </trkpt>
      <trkpt lat="45.99054" lon="5.27283">
        <ele>224.2</ele>
        <time>2022-02-24T12:30:33Z</time>
      </trkpt>
      <trkpt lat="45.99051" lon="5.27278">
        <ele>224.6</ele>
        <time>2022-02-24T12:30:34Z</time>
      </trkpt>
      <trkpt lat="45.99049" lon="5.27274">
        <ele>224.8</ele>
        <time>2022-02-24T12:30:35Z</time>
      </trkpt>
      <trkpt lat="45.99046" lon="5.2727">
        <ele>225</ele>
        <time>2022-02-24T12:30:36Z</time>
      </trkpt>
      <trkpt lat="45.99042" lon="5.27266">
        <ele>225.4</ele>
        <time>2022-02-24T12:30:37Z</time>
      </trkpt>
      <trkpt lat="45.99039" lon="5.27261">
        <ele>225.6</ele>
        <time>2022-02-24T12:30:38Z</time>
      </trkpt>
      <trkpt lat="45.99036" lon="5.27257">
        <ele>226</ele>
        <time>2022-02-24T12:30:39Z</time>
      </trkpt>
      <trkpt lat="45.99033" lon="5.27252">
        <ele>226.2</ele>
        <time>2022-02-24T12:30:40Z</time>
      </trkpt>
      <trkpt lat="45.9903" lon="5.27248">
        <ele>226.4</ele>
        <time>2022-02-24T12:30:41Z</time>
      </trkpt>
      <trkpt lat="45.99026" lon="5.27244">
        <ele>226.6</ele>
        <time>2022-02-24T12:30:42Z</time>
      </trkpt>
      <trkpt lat="45.99023" lon="5.2724">
        <ele>226.6</ele>
        <time>2022-02-24T12:30:43Z</time>
      </trkpt>
      <trkpt lat="45.9902" lon="5.27235">
        <ele>227</ele>
        <time>2022-02-24T12:30:44Z</time>
      </trkpt>
      <trkpt lat="45.99017" lon="5.2723">
        <ele>227.2</ele>
        <time>2022-02-24T12:30:45Z</time>
      </trkpt>
      <trkpt lat="45.99014" lon="5.27225">
        <ele>227.2</ele>
        <time>2022-02-24T12:30:46Z</time>
      </trkpt>
      <trkpt lat="45.9901" lon="5.27219">
        <ele>227.4</ele>
        <time>2022-02-24T12:30:47Z</time>
      </trkpt>
      <trkpt lat="45.99007" lon="5.27214">
        <ele>227.4</ele>
        <time>2022-02-24T12:30:48Z</time>
      </trkpt>
      <trkpt lat="45.99003" lon="5.27208">
        <ele>227.8</ele>
        <time>2022-02-24T12:30:49Z</time>
      </trkpt>
      <trkpt lat="45.98999" lon="5.27203">
        <ele>227.8</ele>
        <time>2022-02-24T12:30:50Z</time>
      </trkpt>
      <trkpt lat="45.98994" lon="5.27199">
        <ele>227.8</ele>
        <time>2022-02-24T12:30:51Z</time>
      </trkpt>
      <trkpt lat="45.9899" lon="5.27194">
        <ele>228</ele>
        <time>2022-02-24T12:30:52Z</time>
      </trkpt>
      <trkpt lat="45.98985" lon="5.27189">
        <ele>228</ele>
        <time>2022-02-24T12:30:53Z</time>
      </trkpt>
      <trkpt lat="45.9898" lon="5.27185">
        <ele>228.4</ele>
        <time>2022-02-24T12:30:54Z</time>
      </trkpt>
      <trkpt lat="45.98976" lon="5.2718">
        <ele>228.4</ele>
        <time>2022-02-24T12:30:55Z</time>
      </trkpt>
      <trkpt lat="45.98972" lon="5.27174">
        <ele>228.6</ele>
        <time>2022-02-24T12:30:56Z</time>
      </trkpt>
      <trkpt lat="45.98967" lon="5.27169">
        <ele>228.6</ele>
        <time>2022-02-24T12:30:57Z</time>
      </trkpt>
      <trkpt lat="45.98962" lon="5.27164">
        <ele>228.6</ele>
        <time>2022-02-24T12:30:58Z</time>
      </trkpt>
      <trkpt lat="45.98958" lon="5.27159">
        <ele>228.8</ele>
        <time>2022-02-24T12:30:59Z</time>
      </trkpt>
      <trkpt lat="45.98954" lon="5.27154">
        <ele>228.8</ele>
        <time>2022-02-24T12:31:00Z</time>
      </trkpt>
      <trkpt lat="45.98949" lon="5.27149">
        <ele>229.2</ele>
        <time>2022-02-24T12:31:01Z</time>
      </trkpt>
      <trkpt lat="45.98945" lon="5.27144">
        <ele>229.2</ele>
        <time>2022-02-24T12:31:02Z</time>
      </trkpt>
      <trkpt lat="45.98941" lon="5.27139">
        <ele>229.4</ele>
        <time>2022-02-24T12:31:03Z</time>
      </trkpt>
      <trkpt lat="45.98937" lon="5.27133">
        <ele>229.4</ele>
        <time>2022-02-24T12:31:04Z</time>
      </trkpt>
      <trkpt lat="45.98933" lon="5.27128">
        <ele>229.6</ele>
        <time>2022-02-24T12:31:05Z</time>
      </trkpt>
      <trkpt lat="45.98929" lon="5.27123">
        <ele>229.6</ele>
        <time>2022-02-24T12:31:06Z</time>
      </trkpt>
      <trkpt lat="45.98924" lon="5.27118">
        <ele>229.6</ele>
        <time>2022-02-24T12:31:07Z</time>
      </trkpt>
      <trkpt lat="45.9892" lon="5.27112">
        <ele>229.6</ele>
        <time>2022-02-24T12:31:08Z</time>
      </trkpt>
      <trkpt lat="45.98916" lon="5.27107">
        <ele>229.6</ele>
        <time>2022-02-24T12:31:09Z</time>
      </trkpt>
      <trkpt lat="45.98912" lon="5.27101">
        <ele>229.6</ele>
        <time>2022-02-24T12:31:10Z</time>
      </trkpt>
      <trkpt lat="45.98908" lon="5.27096">
        <ele>230</ele>
        <time>2022-02-24T12:31:11Z</time>
      </trkpt>
      <trkpt lat="45.98904" lon="5.27091">
        <ele>230</ele>
        <time>2022-02-24T12:31:12Z</time>
      </trkpt>
      <trkpt lat="45.98899" lon="5.27086">
        <ele>230</ele>
        <time>2022-02-24T12:31:13Z</time>
      </trkpt>
      <trkpt lat="45.98896" lon="5.27081">
        <ele>230.2</ele>
        <time>2022-02-24T12:31:14Z</time>
      </trkpt>
      <trkpt lat="45.98892" lon="5.27075">
        <ele>230.2</ele>
        <time>2022-02-24T12:31:15Z</time>
      </trkpt>
      <trkpt lat="45.98888" lon="5.2707">
        <ele>230.4</ele>
        <time>2022-02-24T12:31:16Z</time>
      </trkpt>
      <trkpt lat="45.98884" lon="5.27065">
        <ele>230.4</ele>
        <time>2022-02-24T12:31:17Z</time>
      </trkpt>
      <trkpt lat="45.9888" lon="5.27061">
        <ele>230.4</ele>
        <time>2022-02-24T12:31:18Z</time>
      </trkpt>
      <trkpt lat="45.98876" lon="5.27056">
        <ele>230.8</ele>
        <time>2022-02-24T12:31:19Z</time>
      </trkpt>
      <trkpt lat="45.98872" lon="5.27051">
        <ele>231</ele>
        <time>2022-02-24T12:31:20Z</time>
      </trkpt>
      <trkpt lat="45.98868" lon="5.27046">
        <ele>231.4</ele>
        <time>2022-02-24T12:31:21Z</time>
      </trkpt>
      <trkpt lat="45.98865" lon="5.27042">
        <ele>231.6</ele>
        <time>2022-02-24T12:31:22Z</time>
      </trkpt>
      <trkpt lat="45.98862" lon="5.27037">
        <ele>231.6</ele>
        <time>2022-02-24T12:31:23Z</time>
      </trkpt>
      <trkpt lat="45.98858" lon="5.27033">
        <ele>231.8</ele>
        <time>2022-02-24T12:31:24Z</time>
      </trkpt>
      <trkpt lat="45.98855" lon="5.27028">
        <ele>231.8</ele>
        <time>2022-02-24T12:31:25Z</time>
      </trkpt>
      <trkpt lat="45.98852" lon="5.27024">
        <ele>231.8</ele>
        <time>2022-02-24T12:31:26Z</time>
      </trkpt>
      <trkpt lat="45.98848" lon="5.2702">
        <ele>231.8</ele>
        <time>2022-02-24T12:31:27Z</time>
      </trkpt>
      <trkpt lat="45.98845" lon="5.27015">
        <ele>231.8</ele>
        <time>2022-02-24T12:31:28Z</time>
      </trkpt>
      <trkpt lat="45.98842" lon="5.27011">
        <ele>231.8</ele>
        <time>2022-02-24T12:31:29Z</time>
      </trkpt>
      <trkpt lat="45.98838" lon="5.27006">
        <ele>231.8</ele>
        <time>2022-02-24T12:31:30Z</time>
      </trkpt>
      <trkpt lat="45.98834" lon="5.27">
        <ele>231.8</ele>
        <time>2022-02-24T12:31:31Z</time>
      </trkpt>
      <trkpt lat="45.98829" lon="5.26995">
        <ele>231.8</ele>
        <time>2022-02-24T12:31:32Z</time>
      </trkpt>
      <trkpt lat="45.98825" lon="5.26989">
        <ele>231.8</ele>
        <time>2022-02-24T12:31:33Z</time>
      </trkpt>
      <trkpt lat="45.9882" lon="5.26982">
        <ele>231.6</ele>
        <time>2022-02-24T12:31:34Z</time>
      </trkpt>
      <trkpt lat="45.98815" lon="5.26976">
        <ele>231.2</ele>
        <time>2022-02-24T12:31:35Z</time>
      </trkpt>
      <trkpt lat="45.9881" lon="5.26969">
        <ele>231.2</ele>
        <time>2022-02-24T12:31:36Z</time>
      </trkpt>
      <trkpt lat="45.98805" lon="5.26962">
        <ele>231</ele>
        <time>2022-02-24T12:31:37Z</time>
      </trkpt>
      <trkpt lat="45.988" lon="5.26954">
        <ele>230.8</ele>
        <time>2022-02-24T12:31:38Z</time>
      </trkpt>
      <trkpt lat="45.98794" lon="5.26947">
        <ele>230.8</ele>
        <time>2022-02-24T12:31:39Z</time>
      </trkpt>
      <trkpt lat="45.98789" lon="5.26939">
        <ele>230.4</ele>
        <time>2022-02-24T12:31:40Z</time>
      </trkpt>
      <trkpt lat="45.98783" lon="5.26932">
        <ele>230.2</ele>
        <time>2022-02-24T12:31:41Z</time>
      </trkpt>
      <trkpt lat="45.98777" lon="5.26925">
        <ele>230</ele>
        <time>2022-02-24T12:31:42Z</time>
      </trkpt>
      <trkpt lat="45.98771" lon="5.26917">
        <ele>229.6</ele>
        <time>2022-02-24T12:31:43Z</time>
      </trkpt>
      <trkpt lat="45.98765" lon="5.2691">
        <ele>229.2</ele>
        <time>2022-02-24T12:31:44Z</time>
      </trkpt>
      <trkpt lat="45.98759" lon="5.26903">
        <ele>229</ele>
        <time>2022-02-24T12:31:45Z</time>
      </trkpt>
      <trkpt lat="45.98753" lon="5.26896">
        <ele>228.4</ele>
        <time>2022-02-24T12:31:46Z</time>
      </trkpt>
      <trkpt lat="45.98747" lon="5.26888">
        <ele>228.2</ele>
        <time>2022-02-24T12:31:47Z</time>
      </trkpt>
      <trkpt lat="45.98742" lon="5.2688">
        <ele>228</ele>
        <time>2022-02-24T12:31:48Z</time>
      </trkpt>
      <trkpt lat="45.98736" lon="5.26873">
        <ele>227.8</ele>
        <time>2022-02-24T12:31:49Z</time>
      </trkpt>
      <trkpt lat="45.9873" lon="5.26865">
        <ele>227.8</ele>
        <time>2022-02-24T12:31:50Z</time>
      </trkpt>
      <trkpt lat="45.98725" lon="5.26857">
        <ele>227.4</ele>
        <time>2022-02-24T12:31:51Z</time>
      </trkpt>
      <trkpt lat="45.98719" lon="5.26849">
        <ele>227.2</ele>
        <time>2022-02-24T12:31:52Z</time>
      </trkpt>
      <trkpt lat="45.98713" lon="5.26841">
        <ele>227</ele>
        <time>2022-02-24T12:31:53Z</time>
      </trkpt>
      <trkpt lat="45.98707" lon="5.26833">
        <ele>226.8</ele>
        <time>2022-02-24T12:31:54Z</time>
      </trkpt>
      <trkpt lat="45.98701" lon="5.26825">
        <ele>226.8</ele>
        <time>2022-02-24T12:31:55Z</time>
      </trkpt>
      <trkpt lat="45.98701" lon="5.26825">
        <ele>226.4</ele>
        <time>2022-02-24T12:31:56Z</time>
      </trkpt>
      <trkpt lat="45.98695" lon="5.26817">
        <ele>226.2</ele>
        <time>2022-02-24T12:31:57Z</time>
      </trkpt>
      <trkpt lat="45.98689" lon="5.26809">
        <ele>226</ele>
        <time>2022-02-24T12:31:58Z</time>
      </trkpt>
      <trkpt lat="45.98684" lon="5.26802">
        <ele>226</ele>
        <time>2022-02-24T12:31:59Z</time>
      </trkpt>
      <trkpt lat="45.98678" lon="5.26794">
        <ele>225.8</ele>
        <time>2022-02-24T12:32:00Z</time>
      </trkpt>
      <trkpt lat="45.98672" lon="5.26787">
        <ele>225.8</ele>
        <time>2022-02-24T12:32:01Z</time>
      </trkpt>
      <trkpt lat="45.98667" lon="5.2678">
        <ele>225.4</ele>
        <time>2022-02-24T12:32:02Z</time>
      </trkpt>
      <trkpt lat="45.98661" lon="5.26772">
        <ele>225.2</ele>
        <time>2022-02-24T12:32:03Z</time>
      </trkpt>
      <trkpt lat="45.98656" lon="5.26765">
        <ele>225</ele>
        <time>2022-02-24T12:32:04Z</time>
      </trkpt>
      <trkpt lat="45.9865" lon="5.26758">
        <ele>225</ele>
        <time>2022-02-24T12:32:05Z</time>
      </trkpt>
      <trkpt lat="45.98639" lon="5.26744">
        <ele>224.6</ele>
        <time>2022-02-24T12:32:06Z</time>
      </trkpt>
      <trkpt lat="45.98634" lon="5.26737">
        <ele>224.6</ele>
        <time>2022-02-24T12:32:07Z</time>
      </trkpt>
      <trkpt lat="45.98628" lon="5.2673">
        <ele>224.2</ele>
        <time>2022-02-24T12:32:08Z</time>
      </trkpt>
      <trkpt lat="45.98622" lon="5.26723">
        <ele>224.2</ele>
        <time>2022-02-24T12:32:09Z</time>
      </trkpt>
      <trkpt lat="45.98616" lon="5.26716">
        <ele>224.2</ele>
        <time>2022-02-24T12:32:10Z</time>
      </trkpt>
      <trkpt lat="45.98611" lon="5.26709">
        <ele>224.6</ele>
        <time>2022-02-24T12:32:11Z</time>
      </trkpt>
      <trkpt lat="45.98606" lon="5.26702">
        <ele>224.6</ele>
        <time>2022-02-24T12:32:12Z</time>
      </trkpt>
      <trkpt lat="45.98601" lon="5.26695">
        <ele>224.6</ele>
        <time>2022-02-24T12:32:13Z</time>
      </trkpt>
      <trkpt lat="45.98596" lon="5.26688">
        <ele>224.6</ele>
        <time>2022-02-24T12:32:14Z</time>
      </trkpt>
      <trkpt lat="45.98591" lon="5.26682">
        <ele>224.6</ele>
        <time>2022-02-24T12:32:15Z</time>
      </trkpt>
      <trkpt lat="45.98587" lon="5.26676">
        <ele>224.6</ele>
        <time>2022-02-24T12:32:16Z</time>
      </trkpt>
      <trkpt lat="45.98583" lon="5.26671">
        <ele>224.6</ele>
        <time>2022-02-24T12:32:17Z</time>
      </trkpt>
      <trkpt lat="45.98579" lon="5.26665">
        <ele>224.8</ele>
        <time>2022-02-24T12:32:18Z</time>
      </trkpt>
      <trkpt lat="45.98574" lon="5.2666">
        <ele>225</ele>
        <time>2022-02-24T12:32:19Z</time>
      </trkpt>
      <trkpt lat="45.9857" lon="5.26655">
        <ele>225.4</ele>
        <time>2022-02-24T12:32:20Z</time>
      </trkpt>
      <trkpt lat="45.98567" lon="5.2665">
        <ele>225.6</ele>
        <time>2022-02-24T12:32:21Z</time>
      </trkpt>
      <trkpt lat="45.98563" lon="5.26645">
        <ele>225.6</ele>
        <time>2022-02-24T12:32:22Z</time>
      </trkpt>
      <trkpt lat="45.98559" lon="5.2664">
        <ele>225.8</ele>
        <time>2022-02-24T12:32:23Z</time>
      </trkpt>
      <trkpt lat="45.98555" lon="5.26635">
        <ele>225.8</ele>
        <time>2022-02-24T12:32:24Z</time>
      </trkpt>
      <trkpt lat="45.9855" lon="5.26629">
        <ele>226</ele>
        <time>2022-02-24T12:32:25Z</time>
      </trkpt>
      <trkpt lat="45.98545" lon="5.26623">
        <ele>226</ele>
        <time>2022-02-24T12:32:26Z</time>
      </trkpt>
      <trkpt lat="45.98541" lon="5.26617">
        <ele>226</ele>
        <time>2022-02-24T12:32:27Z</time>
      </trkpt>
      <trkpt lat="45.98536" lon="5.26611">
        <ele>226.4</ele>
        <time>2022-02-24T12:32:28Z</time>
      </trkpt>
      <trkpt lat="45.98532" lon="5.26605">
        <ele>226.4</ele>
        <time>2022-02-24T12:32:29Z</time>
      </trkpt>
      <trkpt lat="45.98527" lon="5.26599">
        <ele>226.8</ele>
        <time>2022-02-24T12:32:30Z</time>
      </trkpt>
      <trkpt lat="45.98523" lon="5.26592">
        <ele>226.8</ele>
        <time>2022-02-24T12:32:31Z</time>
      </trkpt>
      <trkpt lat="45.98518" lon="5.26587">
        <ele>227</ele>
        <time>2022-02-24T12:32:32Z</time>
      </trkpt>
      <trkpt lat="45.98514" lon="5.26581">
        <ele>227.2</ele>
        <time>2022-02-24T12:32:33Z</time>
      </trkpt>
      <trkpt lat="45.9851" lon="5.26575">
        <ele>227.2</ele>
        <time>2022-02-24T12:32:34Z</time>
      </trkpt>
      <trkpt lat="45.98505" lon="5.2657">
        <ele>227.2</ele>
        <time>2022-02-24T12:32:35Z</time>
      </trkpt>
      <trkpt lat="45.98501" lon="5.26564">
        <ele>227.2</ele>
        <time>2022-02-24T12:32:36Z</time>
      </trkpt>
      <trkpt lat="45.98497" lon="5.26558">
        <ele>227.6</ele>
        <time>2022-02-24T12:32:37Z</time>
      </trkpt>
      <trkpt lat="45.98493" lon="5.26553">
        <ele>227.6</ele>
        <time>2022-02-24T12:32:38Z</time>
      </trkpt>
      <trkpt lat="45.98488" lon="5.26547">
        <ele>228</ele>
        <time>2022-02-24T12:32:39Z</time>
      </trkpt>
      <trkpt lat="45.98484" lon="5.26541">
        <ele>228.2</ele>
        <time>2022-02-24T12:32:40Z</time>
      </trkpt>
      <trkpt lat="45.9848" lon="5.26535">
        <ele>228.6</ele>
        <time>2022-02-24T12:32:41Z</time>
      </trkpt>
      <trkpt lat="45.98476" lon="5.2653">
        <ele>229</ele>
        <time>2022-02-24T12:32:42Z</time>
      </trkpt>
      <trkpt lat="45.98472" lon="5.26524">
        <ele>229.2</ele>
        <time>2022-02-24T12:32:43Z</time>
      </trkpt>
      <trkpt lat="45.98468" lon="5.26518">
        <ele>229.2</ele>
        <time>2022-02-24T12:32:44Z</time>
      </trkpt>
      <trkpt lat="45.98463" lon="5.26513">
        <ele>229.4</ele>
        <time>2022-02-24T12:32:45Z</time>
      </trkpt>
      <trkpt lat="45.98459" lon="5.26507">
        <ele>229.4</ele>
        <time>2022-02-24T12:32:46Z</time>
      </trkpt>
      <trkpt lat="45.98455" lon="5.26502">
        <ele>229.8</ele>
        <time>2022-02-24T12:32:47Z</time>
      </trkpt>
      <trkpt lat="45.98451" lon="5.26497">
        <ele>230</ele>
        <time>2022-02-24T12:32:48Z</time>
      </trkpt>
      <trkpt lat="45.98447" lon="5.26491">
        <ele>230</ele>
        <time>2022-02-24T12:32:49Z</time>
      </trkpt>
      <trkpt lat="45.98443" lon="5.26486">
        <ele>230</ele>
        <time>2022-02-24T12:32:50Z</time>
      </trkpt>
      <trkpt lat="45.98439" lon="5.2648">
        <ele>230.2</ele>
        <time>2022-02-24T12:32:51Z</time>
      </trkpt>
      <trkpt lat="45.98435" lon="5.26475">
        <ele>230.2</ele>
        <time>2022-02-24T12:32:52Z</time>
      </trkpt>
      <trkpt lat="45.98431" lon="5.26469">
        <ele>230.6</ele>
        <time>2022-02-24T12:32:53Z</time>
      </trkpt>
      <trkpt lat="45.98427" lon="5.26464">
        <ele>230.6</ele>
        <time>2022-02-24T12:32:54Z</time>
      </trkpt>
      <trkpt lat="45.98423" lon="5.26459">
        <ele>230.8</ele>
        <time>2022-02-24T12:32:55Z</time>
      </trkpt>
      <trkpt lat="45.98419" lon="5.26454">
        <ele>230.8</ele>
        <time>2022-02-24T12:32:56Z</time>
      </trkpt>
      <trkpt lat="45.98415" lon="5.26448">
        <ele>230.8</ele>
        <time>2022-02-24T12:32:57Z</time>
      </trkpt>
      <trkpt lat="45.98411" lon="5.26443">
        <ele>231</ele>
        <time>2022-02-24T12:32:58Z</time>
      </trkpt>
      <trkpt lat="45.98406" lon="5.26438">
        <ele>231</ele>
        <time>2022-02-24T12:32:59Z</time>
      </trkpt>
      <trkpt lat="45.98402" lon="5.26433">
        <ele>231</ele>
        <time>2022-02-24T12:33:00Z</time>
      </trkpt>
      <trkpt lat="45.98398" lon="5.26427">
        <ele>231</ele>
        <time>2022-02-24T12:33:01Z</time>
      </trkpt>
      <trkpt lat="45.98394" lon="5.26422">
        <ele>231</ele>
        <time>2022-02-24T12:33:02Z</time>
      </trkpt>
      <trkpt lat="45.9839" lon="5.26416">
        <ele>231</ele>
        <time>2022-02-24T12:33:03Z</time>
      </trkpt>
      <trkpt lat="45.98385" lon="5.26411">
        <ele>231</ele>
        <time>2022-02-24T12:33:04Z</time>
      </trkpt>
      <trkpt lat="45.98381" lon="5.26405">
        <ele>231</ele>
        <time>2022-02-24T12:33:05Z</time>
      </trkpt>
      <trkpt lat="45.98377" lon="5.26399">
        <ele>231</ele>
        <time>2022-02-24T12:33:06Z</time>
      </trkpt>
      <trkpt lat="45.98372" lon="5.26393">
        <ele>230.6</ele>
        <time>2022-02-24T12:33:07Z</time>
      </trkpt>
      <trkpt lat="45.98368" lon="5.26387">
        <ele>230.6</ele>
        <time>2022-02-24T12:33:08Z</time>
      </trkpt>
      <trkpt lat="45.98363" lon="5.26381">
        <ele>230.4</ele>
        <time>2022-02-24T12:33:09Z</time>
      </trkpt>
      <trkpt lat="45.98359" lon="5.26375">
        <ele>230.2</ele>
        <time>2022-02-24T12:33:10Z</time>
      </trkpt>
      <trkpt lat="45.98354" lon="5.26369">
        <ele>230.2</ele>
        <time>2022-02-24T12:33:11Z</time>
      </trkpt>
      <trkpt lat="45.98349" lon="5.26363">
        <ele>229.8</ele>
        <time>2022-02-24T12:33:12Z</time>
      </trkpt>
      <trkpt lat="45.98344" lon="5.26357">
        <ele>229.6</ele>
        <time>2022-02-24T12:33:13Z</time>
      </trkpt>
      <trkpt lat="45.98339" lon="5.2635">
        <ele>229.2</ele>
        <time>2022-02-24T12:33:14Z</time>
      </trkpt>
      <trkpt lat="45.98333" lon="5.26343">
        <ele>229</ele>
        <time>2022-02-24T12:33:15Z</time>
      </trkpt>
      <trkpt lat="45.98328" lon="5.26337">
        <ele>228.8</ele>
        <time>2022-02-24T12:33:16Z</time>
      </trkpt>
      <trkpt lat="45.98323" lon="5.2633">
        <ele>228.4</ele>
        <time>2022-02-24T12:33:17Z</time>
      </trkpt>
      <trkpt lat="45.98317" lon="5.26322">
        <ele>228.2</ele>
        <time>2022-02-24T12:33:18Z</time>
      </trkpt>
      <trkpt lat="45.98312" lon="5.26315">
        <ele>228</ele>
        <time>2022-02-24T12:33:19Z</time>
      </trkpt>
      <trkpt lat="45.98306" lon="5.26307">
        <ele>227.8</ele>
        <time>2022-02-24T12:33:20Z</time>
      </trkpt>
      <trkpt lat="45.983" lon="5.263">
        <ele>227.4</ele>
        <time>2022-02-24T12:33:21Z</time>
      </trkpt>
      <trkpt lat="45.98295" lon="5.26292">
        <ele>227.2</ele>
        <time>2022-02-24T12:33:22Z</time>
      </trkpt>
      <trkpt lat="45.98289" lon="5.26284">
        <ele>227</ele>
        <time>2022-02-24T12:33:23Z</time>
      </trkpt>
      <trkpt lat="45.98283" lon="5.26276">
        <ele>226.6</ele>
        <time>2022-02-24T12:33:24Z</time>
      </trkpt>
      <trkpt lat="45.98277" lon="5.26268">
        <ele>226.2</ele>
        <time>2022-02-24T12:33:25Z</time>
      </trkpt>
      <trkpt lat="45.98271" lon="5.26259">
        <ele>225.8</ele>
        <time>2022-02-24T12:33:26Z</time>
      </trkpt>
      <trkpt lat="45.98265" lon="5.26251">
        <ele>225.6</ele>
        <time>2022-02-24T12:33:27Z</time>
      </trkpt>
      <trkpt lat="45.98259" lon="5.26243">
        <ele>225.2</ele>
        <time>2022-02-24T12:33:28Z</time>
      </trkpt>
      <trkpt lat="45.98253" lon="5.26234">
        <ele>225</ele>
        <time>2022-02-24T12:33:29Z</time>
      </trkpt>
      <trkpt lat="45.98246" lon="5.26225">
        <ele>224.8</ele>
        <time>2022-02-24T12:33:30Z</time>
      </trkpt>
      <trkpt lat="45.9824" lon="5.26217">
        <ele>224.6</ele>
        <time>2022-02-24T12:33:31Z</time>
      </trkpt>
      <trkpt lat="45.98233" lon="5.26209">
        <ele>224.4</ele>
        <time>2022-02-24T12:33:32Z</time>
      </trkpt>
      <trkpt lat="45.98227" lon="5.26201">
        <ele>224</ele>
        <time>2022-02-24T12:33:33Z</time>
      </trkpt>
      <trkpt lat="45.98221" lon="5.26193">
        <ele>224</ele>
        <time>2022-02-24T12:33:34Z</time>
      </trkpt>
      <trkpt lat="45.98215" lon="5.26185">
        <ele>223.8</ele>
        <time>2022-02-24T12:33:35Z</time>
      </trkpt>
      <trkpt lat="45.98209" lon="5.26177">
        <ele>223.4</ele>
        <time>2022-02-24T12:33:36Z</time>
      </trkpt>
      <trkpt lat="45.98203" lon="5.26169">
        <ele>223.4</ele>
        <time>2022-02-24T12:33:37Z</time>
      </trkpt>
      <trkpt lat="45.98197" lon="5.26162">
        <ele>223.4</ele>
        <time>2022-02-24T12:33:38Z</time>
      </trkpt>
      <trkpt lat="45.98191" lon="5.26155">
        <ele>223.4</ele>
        <time>2022-02-24T12:33:39Z</time>
      </trkpt>
      <trkpt lat="45.98185" lon="5.26148">
        <ele>223.2</ele>
        <time>2022-02-24T12:33:40Z</time>
      </trkpt>
      <trkpt lat="45.98179" lon="5.26141">
        <ele>223.2</ele>
        <time>2022-02-24T12:33:41Z</time>
      </trkpt>
      <trkpt lat="45.98173" lon="5.26134">
        <ele>223</ele>
        <time>2022-02-24T12:33:42Z</time>
      </trkpt>
      <trkpt lat="45.98168" lon="5.26127">
        <ele>223</ele>
        <time>2022-02-24T12:33:43Z</time>
      </trkpt>
      <trkpt lat="45.98162" lon="5.2612">
        <ele>223</ele>
        <time>2022-02-24T12:33:44Z</time>
      </trkpt>
      <trkpt lat="45.98157" lon="5.26113">
        <ele>223</ele>
        <time>2022-02-24T12:33:45Z</time>
      </trkpt>
      <trkpt lat="45.98152" lon="5.26106">
        <ele>223</ele>
        <time>2022-02-24T12:33:46Z</time>
      </trkpt>
      <trkpt lat="45.98146" lon="5.26099">
        <ele>223</ele>
        <time>2022-02-24T12:33:47Z</time>
      </trkpt>
      <trkpt lat="45.98141" lon="5.26092">
        <ele>223</ele>
        <time>2022-02-24T12:33:48Z</time>
      </trkpt>
      <trkpt lat="45.98136" lon="5.26085">
        <ele>223</ele>
        <time>2022-02-24T12:33:49Z</time>
      </trkpt>
      <trkpt lat="45.9813" lon="5.26078">
        <ele>223</ele>
        <time>2022-02-24T12:33:50Z</time>
      </trkpt>
      <trkpt lat="45.98125" lon="5.26071">
        <ele>223</ele>
        <time>2022-02-24T12:33:51Z</time>
      </trkpt>
      <trkpt lat="45.9812" lon="5.26065">
        <ele>223.2</ele>
        <time>2022-02-24T12:33:52Z</time>
      </trkpt>
      <trkpt lat="45.98115" lon="5.26058">
        <ele>223.2</ele>
        <time>2022-02-24T12:33:53Z</time>
      </trkpt>
      <trkpt lat="45.9811" lon="5.26052">
        <ele>223.2</ele>
        <time>2022-02-24T12:33:54Z</time>
      </trkpt>
      <trkpt lat="45.98104" lon="5.26045">
        <ele>223.2</ele>
        <time>2022-02-24T12:33:55Z</time>
      </trkpt>
      <trkpt lat="45.98099" lon="5.26039">
        <ele>223.2</ele>
        <time>2022-02-24T12:33:56Z</time>
      </trkpt>
      <trkpt lat="45.98094" lon="5.26033">
        <ele>223.2</ele>
        <time>2022-02-24T12:33:57Z</time>
      </trkpt>
      <trkpt lat="45.98089" lon="5.26027">
        <ele>223.2</ele>
        <time>2022-02-24T12:33:58Z</time>
      </trkpt>
      <trkpt lat="45.98084" lon="5.26021">
        <ele>223.2</ele>
        <time>2022-02-24T12:33:59Z</time>
      </trkpt>
      <trkpt lat="45.98079" lon="5.26016">
        <ele>223</ele>
        <time>2022-02-24T12:34:00Z</time>
      </trkpt>
      <trkpt lat="45.98074" lon="5.2601">
        <ele>223</ele>
        <time>2022-02-24T12:34:01Z</time>
      </trkpt>
      <trkpt lat="45.98069" lon="5.26004">
        <ele>223</ele>
        <time>2022-02-24T12:34:02Z</time>
      </trkpt>
      <trkpt lat="45.98064" lon="5.25999">
        <ele>223</ele>
        <time>2022-02-24T12:34:03Z</time>
      </trkpt>
      <trkpt lat="45.98058" lon="5.25994">
        <ele>223</ele>
        <time>2022-02-24T12:34:04Z</time>
      </trkpt>
      <trkpt lat="45.98053" lon="5.25989">
        <ele>223</ele>
        <time>2022-02-24T12:34:05Z</time>
      </trkpt>
      <trkpt lat="45.98047" lon="5.25985">
        <ele>223</ele>
        <time>2022-02-24T12:34:06Z</time>
      </trkpt>
      <trkpt lat="45.98041" lon="5.25982">
        <ele>223</ele>
        <time>2022-02-24T12:34:07Z</time>
      </trkpt>
      <trkpt lat="45.98035" lon="5.2598">
        <ele>223</ele>
        <time>2022-02-24T12:34:08Z</time>
      </trkpt>
      <trkpt lat="45.98028" lon="5.25978">
        <ele>222.8</ele>
        <time>2022-02-24T12:34:09Z</time>
      </trkpt>
      <trkpt lat="45.98021" lon="5.25976">
        <ele>222.8</ele>
        <time>2022-02-24T12:34:10Z</time>
      </trkpt>
      <trkpt lat="45.98015" lon="5.25975">
        <ele>222.8</ele>
        <time>2022-02-24T12:34:11Z</time>
      </trkpt>
      <trkpt lat="45.98008" lon="5.25974">
        <ele>222.8</ele>
        <time>2022-02-24T12:34:12Z</time>
      </trkpt>
      <trkpt lat="45.98002" lon="5.25972">
        <ele>222.8</ele>
        <time>2022-02-24T12:34:13Z</time>
      </trkpt>
      <trkpt lat="45.97995" lon="5.2597">
        <ele>222.8</ele>
        <time>2022-02-24T12:34:14Z</time>
      </trkpt>
      <trkpt lat="45.97988" lon="5.25969">
        <ele>222.8</ele>
        <time>2022-02-24T12:34:15Z</time>
      </trkpt>
      <trkpt lat="45.97982" lon="5.25967">
        <ele>222.8</ele>
        <time>2022-02-24T12:34:16Z</time>
      </trkpt>
      <trkpt lat="45.97975" lon="5.25965">
        <ele>222.8</ele>
        <time>2022-02-24T12:34:17Z</time>
      </trkpt>
      <trkpt lat="45.97968" lon="5.25963">
        <ele>222.8</ele>
        <time>2022-02-24T12:34:18Z</time>
      </trkpt>
      <trkpt lat="45.97962" lon="5.25961">
        <ele>222.8</ele>
        <time>2022-02-24T12:34:19Z</time>
      </trkpt>
      <trkpt lat="45.97955" lon="5.25958">
        <ele>222.8</ele>
        <time>2022-02-24T12:34:20Z</time>
      </trkpt>
      <trkpt lat="45.97949" lon="5.25955">
        <ele>222.8</ele>
        <time>2022-02-24T12:34:21Z</time>
      </trkpt>
      <trkpt lat="45.97943" lon="5.25952">
        <ele>222.6</ele>
        <time>2022-02-24T12:34:22Z</time>
      </trkpt>
      <trkpt lat="45.97937" lon="5.25949">
        <ele>222.6</ele>
        <time>2022-02-24T12:34:23Z</time>
      </trkpt>
      <trkpt lat="45.97931" lon="5.25946">
        <ele>222.6</ele>
        <time>2022-02-24T12:34:24Z</time>
      </trkpt>
      <trkpt lat="45.97925" lon="5.25942">
        <ele>222.6</ele>
        <time>2022-02-24T12:34:25Z</time>
      </trkpt>
      <trkpt lat="45.97919" lon="5.25939">
        <ele>222.6</ele>
        <time>2022-02-24T12:34:26Z</time>
      </trkpt>
      <trkpt lat="45.97913" lon="5.25935">
        <ele>222.6</ele>
        <time>2022-02-24T12:34:27Z</time>
      </trkpt>
      <trkpt lat="45.97907" lon="5.25932">
        <ele>222.6</ele>
        <time>2022-02-24T12:34:28Z</time>
      </trkpt>
      <trkpt lat="45.979" lon="5.25928">
        <ele>222.6</ele>
        <time>2022-02-24T12:34:29Z</time>
      </trkpt>
      <trkpt lat="45.97894" lon="5.25924">
        <ele>222.6</ele>
        <time>2022-02-24T12:34:30Z</time>
      </trkpt>
      <trkpt lat="45.97888" lon="5.25919">
        <ele>222.6</ele>
        <time>2022-02-24T12:34:31Z</time>
      </trkpt>
      <trkpt lat="45.97881" lon="5.25915">
        <ele>222</ele>
        <time>2022-02-24T12:34:32Z</time>
      </trkpt>
      <trkpt lat="45.97874" lon="5.25911">
        <ele>222</ele>
        <time>2022-02-24T12:34:33Z</time>
      </trkpt>
      <trkpt lat="45.97867" lon="5.25907">
        <ele>221.8</ele>
        <time>2022-02-24T12:34:34Z</time>
      </trkpt>
      <trkpt lat="45.9786" lon="5.25903">
        <ele>221.8</ele>
        <time>2022-02-24T12:34:35Z</time>
      </trkpt>
      <trkpt lat="45.97853" lon="5.25899">
        <ele>221.8</ele>
        <time>2022-02-24T12:34:36Z</time>
      </trkpt>
      <trkpt lat="45.97846" lon="5.25894">
        <ele>221.4</ele>
        <time>2022-02-24T12:34:37Z</time>
      </trkpt>
      <trkpt lat="45.97839" lon="5.25889">
        <ele>221.4</ele>
        <time>2022-02-24T12:34:38Z</time>
      </trkpt>
      <trkpt lat="45.97833" lon="5.25884">
        <ele>221</ele>
        <time>2022-02-24T12:34:39Z</time>
      </trkpt>
      <trkpt lat="45.97826" lon="5.25879">
        <ele>221</ele>
        <time>2022-02-24T12:34:40Z</time>
      </trkpt>
      <trkpt lat="45.97818" lon="5.25873">
        <ele>220.8</ele>
        <time>2022-02-24T12:34:41Z</time>
      </trkpt>
      <trkpt lat="45.97811" lon="5.25868">
        <ele>220.8</ele>
        <time>2022-02-24T12:34:42Z</time>
      </trkpt>
      <trkpt lat="45.97804" lon="5.25864">
        <ele>220.8</ele>
        <time>2022-02-24T12:34:43Z</time>
      </trkpt>
      <trkpt lat="45.97796" lon="5.25858">
        <ele>220.4</ele>
        <time>2022-02-24T12:34:44Z</time>
      </trkpt>
      <trkpt lat="45.97789" lon="5.25853">
        <ele>220.4</ele>
        <time>2022-02-24T12:34:45Z</time>
      </trkpt>
      <trkpt lat="45.97782" lon="5.25848">
        <ele>220.4</ele>
        <time>2022-02-24T12:34:46Z</time>
      </trkpt>
      <trkpt lat="45.97774" lon="5.25843">
        <ele>220.2</ele>
        <time>2022-02-24T12:34:47Z</time>
      </trkpt>
      <trkpt lat="45.97767" lon="5.25838">
        <ele>220.2</ele>
        <time>2022-02-24T12:34:48Z</time>
      </trkpt>
      <trkpt lat="45.97761" lon="5.25834">
        <ele>220</ele>
        <time>2022-02-24T12:34:49Z</time>
      </trkpt>
      <trkpt lat="45.97754" lon="5.25828">
        <ele>220</ele>
        <time>2022-02-24T12:34:50Z</time>
      </trkpt>
      <trkpt lat="45.97747" lon="5.25823">
        <ele>220</ele>
        <time>2022-02-24T12:34:51Z</time>
      </trkpt>
      <trkpt lat="45.9774" lon="5.25818">
        <ele>220</ele>
        <time>2022-02-24T12:34:52Z</time>
      </trkpt>
      <trkpt lat="45.97733" lon="5.25813">
        <ele>220</ele>
        <time>2022-02-24T12:34:53Z</time>
      </trkpt>
      <trkpt lat="45.97726" lon="5.25808">
        <ele>219.8</ele>
        <time>2022-02-24T12:34:54Z</time>
      </trkpt>
      <trkpt lat="45.97719" lon="5.25804">
        <ele>219.8</ele>
        <time>2022-02-24T12:34:55Z</time>
      </trkpt>
      <trkpt lat="45.97712" lon="5.25799">
        <ele>219.8</ele>
        <time>2022-02-24T12:34:56Z</time>
      </trkpt>
      <trkpt lat="45.97706" lon="5.25794">
        <ele>219.8</ele>
        <time>2022-02-24T12:34:57Z</time>
      </trkpt>
      <trkpt lat="45.97699" lon="5.25789">
        <ele>219.8</ele>
        <time>2022-02-24T12:34:58Z</time>
      </trkpt>
      <trkpt lat="45.97692" lon="5.25784">
        <ele>219.8</ele>
        <time>2022-02-24T12:34:59Z</time>
      </trkpt>
      <trkpt lat="45.97685" lon="5.25779">
        <ele>219.4</ele>
        <time>2022-02-24T12:35:00Z</time>
      </trkpt>
      <trkpt lat="45.97678" lon="5.25775">
        <ele>219.4</ele>
        <time>2022-02-24T12:35:01Z</time>
      </trkpt>
      <trkpt lat="45.97671" lon="5.2577">
        <ele>219.2</ele>
        <time>2022-02-24T12:35:02Z</time>
      </trkpt>
      <trkpt lat="45.97664" lon="5.25765">
        <ele>219.2</ele>
        <time>2022-02-24T12:35:03Z</time>
      </trkpt>
      <trkpt lat="45.97657" lon="5.2576">
        <ele>219.2</ele>
        <time>2022-02-24T12:35:04Z</time>
      </trkpt>
      <trkpt lat="45.9765" lon="5.25755">
        <ele>219</ele>
        <time>2022-02-24T12:35:05Z</time>
      </trkpt>
      <trkpt lat="45.97643" lon="5.25751">
        <ele>219</ele>
        <time>2022-02-24T12:35:06Z</time>
      </trkpt>
      <trkpt lat="45.97636" lon="5.25746">
        <ele>219</ele>
        <time>2022-02-24T12:35:07Z</time>
      </trkpt>
      <trkpt lat="45.97629" lon="5.25741">
        <ele>219</ele>
        <time>2022-02-24T12:35:08Z</time>
      </trkpt>
      <trkpt lat="45.97623" lon="5.25737">
        <ele>219</ele>
        <time>2022-02-24T12:35:09Z</time>
      </trkpt>
      <trkpt lat="45.97616" lon="5.25732">
        <ele>219</ele>
        <time>2022-02-24T12:35:10Z</time>
      </trkpt>
      <trkpt lat="45.97609" lon="5.25727">
        <ele>219</ele>
        <time>2022-02-24T12:35:11Z</time>
      </trkpt>
      <trkpt lat="45.97602" lon="5.25723">
        <ele>218.8</ele>
        <time>2022-02-24T12:35:12Z</time>
      </trkpt>
      <trkpt lat="45.97596" lon="5.25718">
        <ele>218.8</ele>
        <time>2022-02-24T12:35:13Z</time>
      </trkpt>
      <trkpt lat="45.97589" lon="5.25713">
        <ele>218.8</ele>
        <time>2022-02-24T12:35:14Z</time>
      </trkpt>
      <trkpt lat="45.97583" lon="5.25708">
        <ele>218.6</ele>
        <time>2022-02-24T12:35:15Z</time>
      </trkpt>
      <trkpt lat="45.97576" lon="5.25703">
        <ele>218.6</ele>
        <time>2022-02-24T12:35:16Z</time>
      </trkpt>
      <trkpt lat="45.9757" lon="5.25699">
        <ele>218.6</ele>
        <time>2022-02-24T12:35:17Z</time>
      </trkpt>
      <trkpt lat="45.97563" lon="5.25694">
        <ele>218.6</ele>
        <time>2022-02-24T12:35:18Z</time>
      </trkpt>
      <trkpt lat="45.97556" lon="5.2569">
        <ele>218.6</ele>
        <time>2022-02-24T12:35:19Z</time>
      </trkpt>
      <trkpt lat="45.9755" lon="5.25685">
        <ele>218.4</ele>
        <time>2022-02-24T12:35:20Z</time>
      </trkpt>
      <trkpt lat="45.97544" lon="5.25681">
        <ele>218.4</ele>
        <time>2022-02-24T12:35:21Z</time>
      </trkpt>
      <trkpt lat="45.97538" lon="5.25676">
        <ele>218.2</ele>
        <time>2022-02-24T12:35:22Z</time>
      </trkpt>
      <trkpt lat="45.97532" lon="5.25671">
        <ele>218.2</ele>
        <time>2022-02-24T12:35:23Z</time>
      </trkpt>
      <trkpt lat="45.97525" lon="5.25667">
        <ele>218.2</ele>
        <time>2022-02-24T12:35:24Z</time>
      </trkpt>
      <trkpt lat="45.97519" lon="5.25662">
        <ele>218.2</ele>
        <time>2022-02-24T12:35:25Z</time>
      </trkpt>
      <trkpt lat="45.97513" lon="5.25658">
        <ele>218.2</ele>
        <time>2022-02-24T12:35:26Z</time>
      </trkpt>
      <trkpt lat="45.97507" lon="5.25653">
        <ele>218.2</ele>
        <time>2022-02-24T12:35:27Z</time>
      </trkpt>
      <trkpt lat="45.97502" lon="5.25647">
        <ele>217.8</ele>
        <time>2022-02-24T12:35:28Z</time>
      </trkpt>
      <trkpt lat="45.97498" lon="5.2564">
        <ele>217.8</ele>
        <time>2022-02-24T12:35:29Z</time>
      </trkpt>
      <trkpt lat="45.97492" lon="5.25634">
        <ele>217.8</ele>
        <time>2022-02-24T12:35:30Z</time>
      </trkpt>
      <trkpt lat="45.97487" lon="5.2563">
        <ele>217.8</ele>
        <time>2022-02-24T12:35:31Z</time>
      </trkpt>
      <trkpt lat="45.97481" lon="5.25628">
        <ele>218</ele>
        <time>2022-02-24T12:35:32Z</time>
      </trkpt>
      <trkpt lat="45.97475" lon="5.25627">
        <ele>218</ele>
        <time>2022-02-24T12:35:33Z</time>
      </trkpt>
      <trkpt lat="45.97469" lon="5.25626">
        <ele>218</ele>
        <time>2022-02-24T12:35:34Z</time>
      </trkpt>
      <trkpt lat="45.97463" lon="5.25624">
        <ele>218</ele>
        <time>2022-02-24T12:35:35Z</time>
      </trkpt>
      <trkpt lat="45.97457" lon="5.2562">
        <ele>218</ele>
        <time>2022-02-24T12:35:36Z</time>
      </trkpt>
      <trkpt lat="45.97451" lon="5.25615">
        <ele>218</ele>
        <time>2022-02-24T12:35:37Z</time>
      </trkpt>
      <trkpt lat="45.97446" lon="5.25611">
        <ele>218</ele>
        <time>2022-02-24T12:35:38Z</time>
      </trkpt>
      <trkpt lat="45.9744" lon="5.25607">
        <ele>218</ele>
        <time>2022-02-24T12:35:39Z</time>
      </trkpt>
      <trkpt lat="45.97434" lon="5.25603">
        <ele>218</ele>
        <time>2022-02-24T12:35:40Z</time>
      </trkpt>
      <trkpt lat="45.97428" lon="5.256">
        <ele>218</ele>
        <time>2022-02-24T12:35:41Z</time>
      </trkpt>
      <trkpt lat="45.97423" lon="5.25596">
        <ele>218</ele>
        <time>2022-02-24T12:35:42Z</time>
      </trkpt>
      <trkpt lat="45.97417" lon="5.25592">
        <ele>218</ele>
        <time>2022-02-24T12:35:43Z</time>
      </trkpt>
      <trkpt lat="45.97411" lon="5.25588">
        <ele>218</ele>
        <time>2022-02-24T12:35:44Z</time>
      </trkpt>
      <trkpt lat="45.97406" lon="5.25584">
        <ele>217.8</ele>
        <time>2022-02-24T12:35:45Z</time>
      </trkpt>
      <trkpt lat="45.974" lon="5.2558">
        <ele>217.8</ele>
        <time>2022-02-24T12:35:46Z</time>
      </trkpt>
      <trkpt lat="45.97395" lon="5.25576">
        <ele>217.8</ele>
        <time>2022-02-24T12:35:47Z</time>
      </trkpt>
      <trkpt lat="45.97389" lon="5.25572">
        <ele>217.8</ele>
        <time>2022-02-24T12:35:48Z</time>
      </trkpt>
      <trkpt lat="45.97384" lon="5.25568">
        <ele>217.8</ele>
        <time>2022-02-24T12:35:49Z</time>
      </trkpt>
      <trkpt lat="45.97378" lon="5.25564">
        <ele>217.8</ele>
        <time>2022-02-24T12:35:50Z</time>
      </trkpt>
      <trkpt lat="45.97373" lon="5.25561">
        <ele>217.8</ele>
        <time>2022-02-24T12:35:51Z</time>
      </trkpt>
      <trkpt lat="45.97368" lon="5.25557">
        <ele>217.8</ele>
        <time>2022-02-24T12:35:52Z</time>
      </trkpt>
      <trkpt lat="45.97363" lon="5.25554">
        <ele>217.8</ele>
        <time>2022-02-24T12:35:53Z</time>
      </trkpt>
      <trkpt lat="45.97358" lon="5.2555">
        <ele>218.2</ele>
        <time>2022-02-24T12:35:54Z</time>
      </trkpt>
      <trkpt lat="45.97353" lon="5.25547">
        <ele>218.2</ele>
        <time>2022-02-24T12:35:55Z</time>
      </trkpt>
      <trkpt lat="45.97348" lon="5.25544">
        <ele>218.6</ele>
        <time>2022-02-24T12:35:56Z</time>
      </trkpt>
      <trkpt lat="45.97344" lon="5.25541">
        <ele>218.6</ele>
        <time>2022-02-24T12:35:57Z</time>
      </trkpt>
      <trkpt lat="45.9734" lon="5.25539">
        <ele>218.8</ele>
        <time>2022-02-24T12:35:58Z</time>
      </trkpt>
      <trkpt lat="45.97335" lon="5.25537">
        <ele>218.8</ele>
        <time>2022-02-24T12:35:59Z</time>
      </trkpt>
      <trkpt lat="45.97331" lon="5.25534">
        <ele>219.2</ele>
        <time>2022-02-24T12:36:00Z</time>
      </trkpt>
      <trkpt lat="45.97327" lon="5.25531">
        <ele>219.2</ele>
        <time>2022-02-24T12:36:01Z</time>
      </trkpt>
      <trkpt lat="45.97323" lon="5.25529">
        <ele>219.2</ele>
        <time>2022-02-24T12:36:02Z</time>
      </trkpt>
      <trkpt lat="45.97319" lon="5.25526">
        <ele>219.2</ele>
        <time>2022-02-24T12:36:03Z</time>
      </trkpt>
      <trkpt lat="45.97315" lon="5.25523">
        <ele>219.4</ele>
        <time>2022-02-24T12:36:04Z</time>
      </trkpt>
      <trkpt lat="45.97311" lon="5.2552">
        <ele>219.8</ele>
        <time>2022-02-24T12:36:05Z</time>
      </trkpt>
      <trkpt lat="45.97307" lon="5.25517">
        <ele>219.8</ele>
        <time>2022-02-24T12:36:06Z</time>
      </trkpt>
      <trkpt lat="45.97303" lon="5.25515">
        <ele>219.8</ele>
        <time>2022-02-24T12:36:07Z</time>
      </trkpt>
      <trkpt lat="45.97299" lon="5.25512">
        <ele>220</ele>
        <time>2022-02-24T12:36:08Z</time>
      </trkpt>
      <trkpt lat="45.97294" lon="5.25509">
        <ele>220</ele>
        <time>2022-02-24T12:36:09Z</time>
      </trkpt>
      <trkpt lat="45.9729" lon="5.25506">
        <ele>220.2</ele>
        <time>2022-02-24T12:36:10Z</time>
      </trkpt>
      <trkpt lat="45.97286" lon="5.25504">
        <ele>220.2</ele>
        <time>2022-02-24T12:36:11Z</time>
      </trkpt>
      <trkpt lat="45.97282" lon="5.25501">
        <ele>220.4</ele>
        <time>2022-02-24T12:36:12Z</time>
      </trkpt>
      <trkpt lat="45.97277" lon="5.25498">
        <ele>220.4</ele>
        <time>2022-02-24T12:36:13Z</time>
      </trkpt>
      <trkpt lat="45.97273" lon="5.25495">
        <ele>220.4</ele>
        <time>2022-02-24T12:36:14Z</time>
      </trkpt>
      <trkpt lat="45.97269" lon="5.25492">
        <ele>220.6</ele>
        <time>2022-02-24T12:36:15Z</time>
      </trkpt>
      <trkpt lat="45.97264" lon="5.25489">
        <ele>220.6</ele>
        <time>2022-02-24T12:36:16Z</time>
      </trkpt>
      <trkpt lat="45.9726" lon="5.25486">
        <ele>220.6</ele>
        <time>2022-02-24T12:36:17Z</time>
      </trkpt>
      <trkpt lat="45.97255" lon="5.25482">
        <ele>220.6</ele>
        <time>2022-02-24T12:36:18Z</time>
      </trkpt>
      <trkpt lat="45.97251" lon="5.25479">
        <ele>220.6</ele>
        <time>2022-02-24T12:36:19Z</time>
      </trkpt>
      <trkpt lat="45.97246" lon="5.25475">
        <ele>220.6</ele>
        <time>2022-02-24T12:36:20Z</time>
      </trkpt>
      <trkpt lat="45.97241" lon="5.25472">
        <ele>220.6</ele>
        <time>2022-02-24T12:36:21Z</time>
      </trkpt>
      <trkpt lat="45.97236" lon="5.25468">
        <ele>220.6</ele>
        <time>2022-02-24T12:36:22Z</time>
      </trkpt>
      <trkpt lat="45.97231" lon="5.25465">
        <ele>220.6</ele>
        <time>2022-02-24T12:36:23Z</time>
      </trkpt>
      <trkpt lat="45.97225" lon="5.25461">
        <ele>220.6</ele>
        <time>2022-02-24T12:36:24Z</time>
      </trkpt>
      <trkpt lat="45.9722" lon="5.25458">
        <ele>220.6</ele>
        <time>2022-02-24T12:36:25Z</time>
      </trkpt>
      <trkpt lat="45.97215" lon="5.25454">
        <ele>220.6</ele>
        <time>2022-02-24T12:36:26Z</time>
      </trkpt>
      <trkpt lat="45.9721" lon="5.2545">
        <ele>220.6</ele>
        <time>2022-02-24T12:36:27Z</time>
      </trkpt>
      <trkpt lat="45.97205" lon="5.25446">
        <ele>220.6</ele>
        <time>2022-02-24T12:36:28Z</time>
      </trkpt>
      <trkpt lat="45.972" lon="5.25442">
        <ele>220.6</ele>
        <time>2022-02-24T12:36:29Z</time>
      </trkpt>
      <trkpt lat="45.97195" lon="5.25438">
        <ele>220.6</ele>
        <time>2022-02-24T12:36:30Z</time>
      </trkpt>
      <trkpt lat="45.97189" lon="5.25434">
        <ele>220.4</ele>
        <time>2022-02-24T12:36:31Z</time>
      </trkpt>
      <trkpt lat="45.97184" lon="5.2543">
        <ele>220.4</ele>
        <time>2022-02-24T12:36:32Z</time>
      </trkpt>
      <trkpt lat="45.97179" lon="5.25426">
        <ele>220.4</ele>
        <time>2022-02-24T12:36:33Z</time>
      </trkpt>
      <trkpt lat="45.97173" lon="5.25423">
        <ele>220.4</ele>
        <time>2022-02-24T12:36:34Z</time>
      </trkpt>
      <trkpt lat="45.97168" lon="5.25419">
        <ele>220.4</ele>
        <time>2022-02-24T12:36:35Z</time>
      </trkpt>
      <trkpt lat="45.97162" lon="5.25415">
        <ele>220.4</ele>
        <time>2022-02-24T12:36:36Z</time>
      </trkpt>
      <trkpt lat="45.97156" lon="5.25411">
        <ele>220.4</ele>
        <time>2022-02-24T12:36:37Z</time>
      </trkpt>
      <trkpt lat="45.97151" lon="5.25407">
        <ele>220.4</ele>
        <time>2022-02-24T12:36:38Z</time>
      </trkpt>
      <trkpt lat="45.97145" lon="5.25403">
        <ele>220.4</ele>
        <time>2022-02-24T12:36:39Z</time>
      </trkpt>
      <trkpt lat="45.97139" lon="5.25399">
        <ele>220.4</ele>
        <time>2022-02-24T12:36:40Z</time>
      </trkpt>
      <trkpt lat="45.97133" lon="5.25395">
        <ele>220.4</ele>
        <time>2022-02-24T12:36:41Z</time>
      </trkpt>
      <trkpt lat="45.97128" lon="5.25391">
        <ele>220.4</ele>
        <time>2022-02-24T12:36:42Z</time>
      </trkpt>
      <trkpt lat="45.97122" lon="5.25387">
        <ele>220.4</ele>
        <time>2022-02-24T12:36:43Z</time>
      </trkpt>
      <trkpt lat="45.97116" lon="5.25383">
        <ele>220.4</ele>
        <time>2022-02-24T12:36:44Z</time>
      </trkpt>
      <trkpt lat="45.97111" lon="5.25379">
        <ele>220.4</ele>
        <time>2022-02-24T12:36:45Z</time>
      </trkpt>
      <trkpt lat="45.97105" lon="5.25375">
        <ele>220.4</ele>
        <time>2022-02-24T12:36:46Z</time>
      </trkpt>
      <trkpt lat="45.971" lon="5.25372">
        <ele>220.4</ele>
        <time>2022-02-24T12:36:47Z</time>
      </trkpt>
      <trkpt lat="45.97094" lon="5.25368">
        <ele>220.4</ele>
        <time>2022-02-24T12:36:48Z</time>
      </trkpt>
      <trkpt lat="45.97089" lon="5.25364">
        <ele>220.4</ele>
        <time>2022-02-24T12:36:49Z</time>
      </trkpt>
      <trkpt lat="45.97084" lon="5.2536">
        <ele>220.4</ele>
        <time>2022-02-24T12:36:50Z</time>
      </trkpt>
      <trkpt lat="45.97078" lon="5.25357">
        <ele>220.4</ele>
        <time>2022-02-24T12:36:51Z</time>
      </trkpt>
      <trkpt lat="45.97073" lon="5.25353">
        <ele>220.4</ele>
        <time>2022-02-24T12:36:52Z</time>
      </trkpt>
      <trkpt lat="45.97068" lon="5.25349">
        <ele>220.4</ele>
        <time>2022-02-24T12:36:53Z</time>
      </trkpt>
      <trkpt lat="45.97063" lon="5.25346">
        <ele>220.4</ele>
        <time>2022-02-24T12:36:54Z</time>
      </trkpt>
      <trkpt lat="45.97058" lon="5.25342">
        <ele>220.8</ele>
        <time>2022-02-24T12:36:55Z</time>
      </trkpt>
      <trkpt lat="45.97053" lon="5.25339">
        <ele>220.8</ele>
        <time>2022-02-24T12:36:56Z</time>
      </trkpt>
      <trkpt lat="45.97048" lon="5.25336">
        <ele>221</ele>
        <time>2022-02-24T12:36:57Z</time>
      </trkpt>
      <trkpt lat="45.97043" lon="5.25333">
        <ele>221</ele>
        <time>2022-02-24T12:36:58Z</time>
      </trkpt>
      <trkpt lat="45.97039" lon="5.2533">
        <ele>221.4</ele>
        <time>2022-02-24T12:36:59Z</time>
      </trkpt>
      <trkpt lat="45.97035" lon="5.25327">
        <ele>221.4</ele>
        <time>2022-02-24T12:37:00Z</time>
      </trkpt>
      <trkpt lat="45.9703" lon="5.25324">
        <ele>221.6</ele>
        <time>2022-02-24T12:37:01Z</time>
      </trkpt>
      <trkpt lat="45.97026" lon="5.25321">
        <ele>221.6</ele>
        <time>2022-02-24T12:37:02Z</time>
      </trkpt>
      <trkpt lat="45.97022" lon="5.25318">
        <ele>221.8</ele>
        <time>2022-02-24T12:37:03Z</time>
      </trkpt>
      <trkpt lat="45.97017" lon="5.25315">
        <ele>221.8</ele>
        <time>2022-02-24T12:37:04Z</time>
      </trkpt>
      <trkpt lat="45.97013" lon="5.25312">
        <ele>222.2</ele>
        <time>2022-02-24T12:37:05Z</time>
      </trkpt>
      <trkpt lat="45.97009" lon="5.25309">
        <ele>222.2</ele>
        <time>2022-02-24T12:37:06Z</time>
      </trkpt>
      <trkpt lat="45.97005" lon="5.25307">
        <ele>222.4</ele>
        <time>2022-02-24T12:37:07Z</time>
      </trkpt>
      <trkpt lat="45.97001" lon="5.25304">
        <ele>222.4</ele>
        <time>2022-02-24T12:37:08Z</time>
      </trkpt>
      <trkpt lat="45.96997" lon="5.25301">
        <ele>222.8</ele>
        <time>2022-02-24T12:37:09Z</time>
      </trkpt>
      <trkpt lat="45.96993" lon="5.25298">
        <ele>222.8</ele>
        <time>2022-02-24T12:37:10Z</time>
      </trkpt>
      <trkpt lat="45.96989" lon="5.25295">
        <ele>222.8</ele>
        <time>2022-02-24T12:37:11Z</time>
      </trkpt>
      <trkpt lat="45.96985" lon="5.25293">
        <ele>222.8</ele>
        <time>2022-02-24T12:37:12Z</time>
      </trkpt>
      <trkpt lat="45.96981" lon="5.2529">
        <ele>223</ele>
        <time>2022-02-24T12:37:13Z</time>
      </trkpt>
      <trkpt lat="45.96977" lon="5.25287">
        <ele>223</ele>
        <time>2022-02-24T12:37:14Z</time>
      </trkpt>
      <trkpt lat="45.96973" lon="5.25284">
        <ele>223</ele>
        <time>2022-02-24T12:37:15Z</time>
      </trkpt>
      <trkpt lat="45.96969" lon="5.25282">
        <ele>223</ele>
        <time>2022-02-24T12:37:16Z</time>
      </trkpt>
      <trkpt lat="45.96965" lon="5.25279">
        <ele>223</ele>
        <time>2022-02-24T12:37:17Z</time>
      </trkpt>
      <trkpt lat="45.96961" lon="5.25276">
        <ele>223.2</ele>
        <time>2022-02-24T12:37:18Z</time>
      </trkpt>
      <trkpt lat="45.96957" lon="5.25273">
        <ele>223.2</ele>
        <time>2022-02-24T12:37:19Z</time>
      </trkpt>
      <trkpt lat="45.96952" lon="5.2527">
        <ele>223.6</ele>
        <time>2022-02-24T12:37:20Z</time>
      </trkpt>
      <trkpt lat="45.96948" lon="5.25267">
        <ele>223.6</ele>
        <time>2022-02-24T12:37:21Z</time>
      </trkpt>
      <trkpt lat="45.96944" lon="5.25265">
        <ele>223.6</ele>
        <time>2022-02-24T12:37:22Z</time>
      </trkpt>
      <trkpt lat="45.9694" lon="5.25262">
        <ele>223.8</ele>
        <time>2022-02-24T12:37:23Z</time>
      </trkpt>
      <trkpt lat="45.96935" lon="5.25259">
        <ele>223.8</ele>
        <time>2022-02-24T12:37:24Z</time>
      </trkpt>
      <trkpt lat="45.96931" lon="5.25256">
        <ele>223.8</ele>
        <time>2022-02-24T12:37:25Z</time>
      </trkpt>
      <trkpt lat="45.96927" lon="5.25253">
        <ele>223.8</ele>
        <time>2022-02-24T12:37:26Z</time>
      </trkpt>
      <trkpt lat="45.96922" lon="5.2525">
        <ele>223.8</ele>
        <time>2022-02-24T12:37:27Z</time>
      </trkpt>
      <trkpt lat="45.96918" lon="5.25247">
        <ele>223.8</ele>
        <time>2022-02-24T12:37:28Z</time>
      </trkpt>
      <trkpt lat="45.96913" lon="5.25244">
        <ele>223.8</ele>
        <time>2022-02-24T12:37:29Z</time>
      </trkpt>
      <trkpt lat="45.96908" lon="5.25241">
        <ele>223.8</ele>
        <time>2022-02-24T12:37:30Z</time>
      </trkpt>
      <trkpt lat="45.96903" lon="5.25238">
        <ele>223.8</ele>
        <time>2022-02-24T12:37:31Z</time>
      </trkpt>
      <trkpt lat="45.96898" lon="5.25234">
        <ele>223.6</ele>
        <time>2022-02-24T12:37:32Z</time>
      </trkpt>
      <trkpt lat="45.96893" lon="5.25231">
        <ele>223.6</ele>
        <time>2022-02-24T12:37:33Z</time>
      </trkpt>
      <trkpt lat="45.96887" lon="5.25228">
        <ele>223.2</ele>
        <time>2022-02-24T12:37:34Z</time>
      </trkpt>
      <trkpt lat="45.96882" lon="5.25224">
        <ele>223.2</ele>
        <time>2022-02-24T12:37:35Z</time>
      </trkpt>
      <trkpt lat="45.96878" lon="5.2522">
        <ele>223</ele>
        <time>2022-02-24T12:37:36Z</time>
      </trkpt>
      <trkpt lat="45.96872" lon="5.25216">
        <ele>223</ele>
        <time>2022-02-24T12:37:37Z</time>
      </trkpt>
      <trkpt lat="45.96872" lon="5.25216">
        <ele>222.6</ele>
        <time>2022-02-24T12:37:38Z</time>
      </trkpt>
      <trkpt lat="45.96867" lon="5.25212">
        <ele>222.6</ele>
        <time>2022-02-24T12:37:39Z</time>
      </trkpt>
      <trkpt lat="45.96862" lon="5.25208">
        <ele>222.2</ele>
        <time>2022-02-24T12:37:40Z</time>
      </trkpt>
      <trkpt lat="45.96856" lon="5.25203">
        <ele>222.2</ele>
        <time>2022-02-24T12:37:41Z</time>
      </trkpt>
      <trkpt lat="45.96851" lon="5.25199">
        <ele>221.8</ele>
        <time>2022-02-24T12:37:42Z</time>
      </trkpt>
      <trkpt lat="45.96845" lon="5.25195">
        <ele>221.8</ele>
        <time>2022-02-24T12:37:43Z</time>
      </trkpt>
      <trkpt lat="45.96839" lon="5.25191">
        <ele>221.8</ele>
        <time>2022-02-24T12:37:44Z</time>
      </trkpt>
      <trkpt lat="45.96833" lon="5.25188">
        <ele>221.4</ele>
        <time>2022-02-24T12:37:45Z</time>
      </trkpt>
      <trkpt lat="45.96827" lon="5.25184">
        <ele>221.2</ele>
        <time>2022-02-24T12:37:46Z</time>
      </trkpt>
      <trkpt lat="45.96821" lon="5.2518">
        <ele>221.2</ele>
        <time>2022-02-24T12:37:47Z</time>
      </trkpt>
      <trkpt lat="45.96809" lon="5.25173">
        <ele>220.8</ele>
        <time>2022-02-24T12:37:48Z</time>
      </trkpt>
      <trkpt lat="45.96803" lon="5.25169">
        <ele>220.8</ele>
        <time>2022-02-24T12:37:49Z</time>
      </trkpt>
      <trkpt lat="45.96797" lon="5.25165">
        <ele>220.8</ele>
        <time>2022-02-24T12:37:50Z</time>
      </trkpt>
      <trkpt lat="45.96791" lon="5.25161">
        <ele>220.8</ele>
        <time>2022-02-24T12:37:51Z</time>
      </trkpt>
      <trkpt lat="45.96785" lon="5.25157">
        <ele>220.2</ele>
        <time>2022-02-24T12:37:52Z</time>
      </trkpt>
      <trkpt lat="45.96779" lon="5.25153">
        <ele>220.2</ele>
        <time>2022-02-24T12:37:53Z</time>
      </trkpt>
      <trkpt lat="45.96773" lon="5.25149">
        <ele>220</ele>
        <time>2022-02-24T12:37:54Z</time>
      </trkpt>
      <trkpt lat="45.96767" lon="5.25145">
        <ele>220</ele>
        <time>2022-02-24T12:37:55Z</time>
      </trkpt>
      <trkpt lat="45.96761" lon="5.25141">
        <ele>219.8</ele>
        <time>2022-02-24T12:37:56Z</time>
      </trkpt>
      <trkpt lat="45.96756" lon="5.25137">
        <ele>219.8</ele>
        <time>2022-02-24T12:37:57Z</time>
      </trkpt>
      <trkpt lat="45.9675" lon="5.25133">
        <ele>219.6</ele>
        <time>2022-02-24T12:37:58Z</time>
      </trkpt>
      <trkpt lat="45.96745" lon="5.25129">
        <ele>219.6</ele>
        <time>2022-02-24T12:37:59Z</time>
      </trkpt>
      <trkpt lat="45.96739" lon="5.25125">
        <ele>219.6</ele>
        <time>2022-02-24T12:38:00Z</time>
      </trkpt>
      <trkpt lat="45.96734" lon="5.25121">
        <ele>219.6</ele>
        <time>2022-02-24T12:38:01Z</time>
      </trkpt>
      <trkpt lat="45.96728" lon="5.25117">
        <ele>219.6</ele>
        <time>2022-02-24T12:38:02Z</time>
      </trkpt>
      <trkpt lat="45.96723" lon="5.25113">
        <ele>219.6</ele>
        <time>2022-02-24T12:38:03Z</time>
      </trkpt>
      <trkpt lat="45.96717" lon="5.2511">
        <ele>219.8</ele>
        <time>2022-02-24T12:38:04Z</time>
      </trkpt>
      <trkpt lat="45.96712" lon="5.25106">
        <ele>219.8</ele>
        <time>2022-02-24T12:38:05Z</time>
      </trkpt>
      <trkpt lat="45.96707" lon="5.25103">
        <ele>220</ele>
        <time>2022-02-24T12:38:06Z</time>
      </trkpt>
      <trkpt lat="45.96702" lon="5.25099">
        <ele>220</ele>
        <time>2022-02-24T12:38:07Z</time>
      </trkpt>
      <trkpt lat="45.96697" lon="5.25096">
        <ele>220.4</ele>
        <time>2022-02-24T12:38:08Z</time>
      </trkpt>
      <trkpt lat="45.96692" lon="5.25092">
        <ele>220.6</ele>
        <time>2022-02-24T12:38:09Z</time>
      </trkpt>
      <trkpt lat="45.96688" lon="5.25088">
        <ele>220.6</ele>
        <time>2022-02-24T12:38:10Z</time>
      </trkpt>
      <trkpt lat="45.96683" lon="5.25084">
        <ele>221</ele>
        <time>2022-02-24T12:38:11Z</time>
      </trkpt>
      <trkpt lat="45.96679" lon="5.25081">
        <ele>221</ele>
        <time>2022-02-24T12:38:12Z</time>
      </trkpt>
      <trkpt lat="45.96674" lon="5.25079">
        <ele>221.2</ele>
        <time>2022-02-24T12:38:13Z</time>
      </trkpt>
      <trkpt lat="45.9667" lon="5.25076">
        <ele>221.2</ele>
        <time>2022-02-24T12:38:14Z</time>
      </trkpt>
      <trkpt lat="45.96666" lon="5.25074">
        <ele>221.4</ele>
        <time>2022-02-24T12:38:15Z</time>
      </trkpt>
      <trkpt lat="45.96662" lon="5.25072">
        <ele>221.4</ele>
        <time>2022-02-24T12:38:16Z</time>
      </trkpt>
      <trkpt lat="45.96658" lon="5.25069">
        <ele>221.6</ele>
        <time>2022-02-24T12:38:17Z</time>
      </trkpt>
      <trkpt lat="45.96654" lon="5.25066">
        <ele>221.6</ele>
        <time>2022-02-24T12:38:18Z</time>
      </trkpt>
      <trkpt lat="45.9665" lon="5.25063">
        <ele>221.8</ele>
        <time>2022-02-24T12:38:19Z</time>
      </trkpt>
      <trkpt lat="45.96646" lon="5.25059">
        <ele>221.8</ele>
        <time>2022-02-24T12:38:20Z</time>
      </trkpt>
      <trkpt lat="45.96643" lon="5.25056">
        <ele>222.2</ele>
        <time>2022-02-24T12:38:21Z</time>
      </trkpt>
      <trkpt lat="45.9664" lon="5.25054">
        <ele>222.2</ele>
        <time>2022-02-24T12:38:22Z</time>
      </trkpt>
      <trkpt lat="45.96637" lon="5.25052">
        <ele>222.4</ele>
        <time>2022-02-24T12:38:23Z</time>
      </trkpt>
      <trkpt lat="45.96635" lon="5.25051">
        <ele>222.4</ele>
        <time>2022-02-24T12:38:24Z</time>
      </trkpt>
      <trkpt lat="45.96633" lon="5.25049">
        <ele>222.4</ele>
        <time>2022-02-24T12:38:25Z</time>
      </trkpt>
      <trkpt lat="45.96631" lon="5.25047">
        <ele>222.6</ele>
        <time>2022-02-24T12:38:26Z</time>
      </trkpt>
      <trkpt lat="45.96628" lon="5.25046">
        <ele>222.6</ele>
        <time>2022-02-24T12:38:27Z</time>
      </trkpt>
      <trkpt lat="45.96625" lon="5.25044">
        <ele>222.6</ele>
        <time>2022-02-24T12:38:28Z</time>
      </trkpt>
      <trkpt lat="45.96622" lon="5.25042">
        <ele>222.8</ele>
        <time>2022-02-24T12:38:29Z</time>
      </trkpt>
      <trkpt lat="45.96619" lon="5.25039">
        <ele>222.8</ele>
        <time>2022-02-24T12:38:30Z</time>
      </trkpt>
      <trkpt lat="45.96614" lon="5.25037">
        <ele>222.8</ele>
        <time>2022-02-24T12:38:31Z</time>
      </trkpt>
      <trkpt lat="45.9661" lon="5.25035">
        <ele>222.8</ele>
        <time>2022-02-24T12:38:32Z</time>
      </trkpt>
      <trkpt lat="45.96605" lon="5.25032">
        <ele>222.8</ele>
        <time>2022-02-24T12:38:33Z</time>
      </trkpt>
      <trkpt lat="45.966" lon="5.2503">
        <ele>222.8</ele>
        <time>2022-02-24T12:38:34Z</time>
      </trkpt>
      <trkpt lat="45.96595" lon="5.25027">
        <ele>222.8</ele>
        <time>2022-02-24T12:38:35Z</time>
      </trkpt>
      <trkpt lat="45.96589" lon="5.25024">
        <ele>222.8</ele>
        <time>2022-02-24T12:38:36Z</time>
      </trkpt>
      <trkpt lat="45.96584" lon="5.25021">
        <ele>222.8</ele>
        <time>2022-02-24T12:38:37Z</time>
      </trkpt>
      <trkpt lat="45.96578" lon="5.25017">
        <ele>222.6</ele>
        <time>2022-02-24T12:38:38Z</time>
      </trkpt>
      <trkpt lat="45.96573" lon="5.25014">
        <ele>222.4</ele>
        <time>2022-02-24T12:38:39Z</time>
      </trkpt>
      <trkpt lat="45.96567" lon="5.25011">
        <ele>222.4</ele>
        <time>2022-02-24T12:38:40Z</time>
      </trkpt>
      <trkpt lat="45.9656" lon="5.25007">
        <ele>222</ele>
        <time>2022-02-24T12:38:41Z</time>
      </trkpt>
      <trkpt lat="45.96554" lon="5.25004">
        <ele>222</ele>
        <time>2022-02-24T12:38:42Z</time>
      </trkpt>
      <trkpt lat="45.96548" lon="5.25">
        <ele>221.6</ele>
        <time>2022-02-24T12:38:43Z</time>
      </trkpt>
      <trkpt lat="45.96542" lon="5.24997">
        <ele>221.6</ele>
        <time>2022-02-24T12:38:44Z</time>
      </trkpt>
      <trkpt lat="45.96536" lon="5.24993">
        <ele>221.2</ele>
        <time>2022-02-24T12:38:45Z</time>
      </trkpt>
      <trkpt lat="45.9653" lon="5.2499">
        <ele>221.2</ele>
        <time>2022-02-24T12:38:46Z</time>
      </trkpt>
      <trkpt lat="45.96524" lon="5.24986">
        <ele>220.8</ele>
        <time>2022-02-24T12:38:47Z</time>
      </trkpt>
      <trkpt lat="45.96518" lon="5.24983">
        <ele>220.6</ele>
        <time>2022-02-24T12:38:48Z</time>
      </trkpt>
      <trkpt lat="45.96512" lon="5.24979">
        <ele>220.6</ele>
        <time>2022-02-24T12:38:49Z</time>
      </trkpt>
      <trkpt lat="45.96506" lon="5.24976">
        <ele>220.6</ele>
        <time>2022-02-24T12:38:50Z</time>
      </trkpt>
      <trkpt lat="45.965" lon="5.24973">
        <ele>220.6</ele>
        <time>2022-02-24T12:38:51Z</time>
      </trkpt>
      <trkpt lat="45.96494" lon="5.2497">
        <ele>220.4</ele>
        <time>2022-02-24T12:38:52Z</time>
      </trkpt>
      <trkpt lat="45.96488" lon="5.24966">
        <ele>220.4</ele>
        <time>2022-02-24T12:38:53Z</time>
      </trkpt>
      <trkpt lat="45.96483" lon="5.24963">
        <ele>220.2</ele>
        <time>2022-02-24T12:38:54Z</time>
      </trkpt>
      <trkpt lat="45.96477" lon="5.2496">
        <ele>220.2</ele>
        <time>2022-02-24T12:38:55Z</time>
      </trkpt>
      <trkpt lat="45.96471" lon="5.24957">
        <ele>220.2</ele>
        <time>2022-02-24T12:38:56Z</time>
      </trkpt>
      <trkpt lat="45.96466" lon="5.24954">
        <ele>220.4</ele>
        <time>2022-02-24T12:38:57Z</time>
      </trkpt>
      <trkpt lat="45.96461" lon="5.24951">
        <ele>220.4</ele>
        <time>2022-02-24T12:38:58Z</time>
      </trkpt>
      <trkpt lat="45.96455" lon="5.24948">
        <ele>220.4</ele>
        <time>2022-02-24T12:38:59Z</time>
      </trkpt>
      <trkpt lat="45.9645" lon="5.24945">
        <ele>220</ele>
        <time>2022-02-24T12:39:00Z</time>
      </trkpt>
      <trkpt lat="45.96446" lon="5.24942">
        <ele>220</ele>
        <time>2022-02-24T12:39:01Z</time>
      </trkpt>
      <trkpt lat="45.96441" lon="5.2494">
        <ele>220</ele>
        <time>2022-02-24T12:39:02Z</time>
      </trkpt>
      <trkpt lat="45.96436" lon="5.24937">
        <ele>220</ele>
        <time>2022-02-24T12:39:03Z</time>
      </trkpt>
      <trkpt lat="45.96431" lon="5.24934">
        <ele>220</ele>
        <time>2022-02-24T12:39:04Z</time>
      </trkpt>
      <trkpt lat="45.96427" lon="5.24931">
        <ele>220</ele>
        <time>2022-02-24T12:39:05Z</time>
      </trkpt>
      <trkpt lat="45.96422" lon="5.24929">
        <ele>220</ele>
        <time>2022-02-24T12:39:06Z</time>
      </trkpt>
      <trkpt lat="45.96417" lon="5.24926">
        <ele>220</ele>
        <time>2022-02-24T12:39:07Z</time>
      </trkpt>
      <trkpt lat="45.96413" lon="5.24923">
        <ele>220</ele>
        <time>2022-02-24T12:39:08Z</time>
      </trkpt>
      <trkpt lat="45.96408" lon="5.24921">
        <ele>220.4</ele>
        <time>2022-02-24T12:39:09Z</time>
      </trkpt>
      <trkpt lat="45.96404" lon="5.24918">
        <ele>220.4</ele>
        <time>2022-02-24T12:39:10Z</time>
      </trkpt>
      <trkpt lat="45.96399" lon="5.24916">
        <ele>220.4</ele>
        <time>2022-02-24T12:39:11Z</time>
      </trkpt>
      <trkpt lat="45.96395" lon="5.24913">
        <ele>220.4</ele>
        <time>2022-02-24T12:39:12Z</time>
      </trkpt>
      <trkpt lat="45.9639" lon="5.24911">
        <ele>220.4</ele>
        <time>2022-02-24T12:39:13Z</time>
      </trkpt>
      <trkpt lat="45.96386" lon="5.24908">
        <ele>220.4</ele>
        <time>2022-02-24T12:39:14Z</time>
      </trkpt>
      <trkpt lat="45.96382" lon="5.24906">
        <ele>220.4</ele>
        <time>2022-02-24T12:39:15Z</time>
      </trkpt>
      <trkpt lat="45.96378" lon="5.24904">
        <ele>220.8</ele>
        <time>2022-02-24T12:39:16Z</time>
      </trkpt>
      <trkpt lat="45.96373" lon="5.24901">
        <ele>220.8</ele>
        <time>2022-02-24T12:39:17Z</time>
      </trkpt>
      <trkpt lat="45.96369" lon="5.24899">
        <ele>221</ele>
        <time>2022-02-24T12:39:18Z</time>
      </trkpt>
      <trkpt lat="45.96365" lon="5.24896">
        <ele>221</ele>
        <time>2022-02-24T12:39:19Z</time>
      </trkpt>
      <trkpt lat="45.96361" lon="5.24894">
        <ele>221</ele>
        <time>2022-02-24T12:39:20Z</time>
      </trkpt>
      <trkpt lat="45.96356" lon="5.24892">
        <ele>221.2</ele>
        <time>2022-02-24T12:39:21Z</time>
      </trkpt>
      <trkpt lat="45.96352" lon="5.2489">
        <ele>221.4</ele>
        <time>2022-02-24T12:39:22Z</time>
      </trkpt>
      <trkpt lat="45.96348" lon="5.24888">
        <ele>221.4</ele>
        <time>2022-02-24T12:39:23Z</time>
      </trkpt>
      <trkpt lat="45.96343" lon="5.24885">
        <ele>221.4</ele>
        <time>2022-02-24T12:39:24Z</time>
      </trkpt>
      <trkpt lat="45.96339" lon="5.24883">
        <ele>221.8</ele>
        <time>2022-02-24T12:39:25Z</time>
      </trkpt>
      <trkpt lat="45.96335" lon="5.2488">
        <ele>221.8</ele>
        <time>2022-02-24T12:39:26Z</time>
      </trkpt>
      <trkpt lat="45.96331" lon="5.24877">
        <ele>222</ele>
        <time>2022-02-24T12:39:27Z</time>
      </trkpt>
      <trkpt lat="45.96327" lon="5.24875">
        <ele>222</ele>
        <time>2022-02-24T12:39:28Z</time>
      </trkpt>
      <trkpt lat="45.96323" lon="5.24872">
        <ele>222</ele>
        <time>2022-02-24T12:39:29Z</time>
      </trkpt>
      <trkpt lat="45.96319" lon="5.2487">
        <ele>222.2</ele>
        <time>2022-02-24T12:39:30Z</time>
      </trkpt>
      <trkpt lat="45.96315" lon="5.24868">
        <ele>222.2</ele>
        <time>2022-02-24T12:39:31Z</time>
      </trkpt>
      <trkpt lat="45.96311" lon="5.24866">
        <ele>222.2</ele>
        <time>2022-02-24T12:39:32Z</time>
      </trkpt>
      <trkpt lat="45.96307" lon="5.24864">
        <ele>222.2</ele>
        <time>2022-02-24T12:39:33Z</time>
      </trkpt>
      <trkpt lat="45.96304" lon="5.24862">
        <ele>222.2</ele>
        <time>2022-02-24T12:39:34Z</time>
      </trkpt>
      <trkpt lat="45.96301" lon="5.2486">
        <ele>222.4</ele>
        <time>2022-02-24T12:39:35Z</time>
      </trkpt>
      <trkpt lat="45.96297" lon="5.24858">
        <ele>222.4</ele>
        <time>2022-02-24T12:39:36Z</time>
      </trkpt>
      <trkpt lat="45.96294" lon="5.24857">
        <ele>222.4</ele>
        <time>2022-02-24T12:39:37Z</time>
      </trkpt>
      <trkpt lat="45.96291" lon="5.24855">
        <ele>222.8</ele>
        <time>2022-02-24T12:39:38Z</time>
      </trkpt>
      <trkpt lat="45.96288" lon="5.24853">
        <ele>222.8</ele>
        <time>2022-02-24T12:39:39Z</time>
      </trkpt>
      <trkpt lat="45.96285" lon="5.24851">
        <ele>223</ele>
        <time>2022-02-24T12:39:40Z</time>
      </trkpt>
      <trkpt lat="45.96282" lon="5.24849">
        <ele>223</ele>
        <time>2022-02-24T12:39:41Z</time>
      </trkpt>
      <trkpt lat="45.96279" lon="5.24847">
        <ele>223</ele>
        <time>2022-02-24T12:39:42Z</time>
      </trkpt>
      <trkpt lat="45.96275" lon="5.24846">
        <ele>223</ele>
        <time>2022-02-24T12:39:43Z</time>
      </trkpt>
      <trkpt lat="45.96272" lon="5.24846">
        <ele>223</ele>
        <time>2022-02-24T12:39:44Z</time>
      </trkpt>
      <trkpt lat="45.96269" lon="5.24845">
        <ele>223</ele>
        <time>2022-02-24T12:39:45Z</time>
      </trkpt>
      <trkpt lat="45.96265" lon="5.24844">
        <ele>223</ele>
        <time>2022-02-24T12:39:46Z</time>
      </trkpt>
      <trkpt lat="45.96261" lon="5.24842">
        <ele>223</ele>
        <time>2022-02-24T12:39:47Z</time>
      </trkpt>
      <trkpt lat="45.96257" lon="5.24839">
        <ele>223</ele>
        <time>2022-02-24T12:39:48Z</time>
      </trkpt>
      <trkpt lat="45.96253" lon="5.24837">
        <ele>223</ele>
        <time>2022-02-24T12:39:49Z</time>
      </trkpt>
      <trkpt lat="45.96249" lon="5.24835">
        <ele>223</ele>
        <time>2022-02-24T12:39:50Z</time>
      </trkpt>
      <trkpt lat="45.96246" lon="5.24833">
        <ele>223</ele>
        <time>2022-02-24T12:39:51Z</time>
      </trkpt>
      <trkpt lat="45.96243" lon="5.24831">
        <ele>223</ele>
        <time>2022-02-24T12:39:52Z</time>
      </trkpt>
      <trkpt lat="45.96241" lon="5.24829">
        <ele>223</ele>
        <time>2022-02-24T12:39:53Z</time>
      </trkpt>
      <trkpt lat="45.9624" lon="5.24828">
        <ele>223</ele>
        <time>2022-02-24T12:39:54Z</time>
      </trkpt>
      <trkpt lat="45.96239" lon="5.24828">
        <ele>223</ele>
        <time>2022-02-24T12:39:55Z</time>
      </trkpt>
      <trkpt lat="45.96239" lon="5.24828">
        <ele>222.8</ele>
        <time>2022-02-24T12:39:56Z</time>
      </trkpt>
      <trkpt lat="45.96235" lon="5.24826">
        <ele>223.8</ele>
        <time>2022-02-24T12:40:09Z</time>
      </trkpt>
      <trkpt lat="45.96233" lon="5.24825">
        <ele>223.8</ele>
        <time>2022-02-24T12:40:10Z</time>
      </trkpt>
      <trkpt lat="45.9623" lon="5.24825">
        <ele>223.8</ele>
        <time>2022-02-24T12:40:11Z</time>
      </trkpt>
      <trkpt lat="45.96228" lon="5.24823">
        <ele>224</ele>
        <time>2022-02-24T12:40:12Z</time>
      </trkpt>
      <trkpt lat="45.96225" lon="5.24821">
        <ele>224</ele>
        <time>2022-02-24T12:40:13Z</time>
      </trkpt>
      <trkpt lat="45.96222" lon="5.24819">
        <ele>224</ele>
        <time>2022-02-24T12:40:14Z</time>
      </trkpt>
      <trkpt lat="45.96218" lon="5.24816">
        <ele>224</ele>
        <time>2022-02-24T12:40:15Z</time>
      </trkpt>
      <trkpt lat="45.96215" lon="5.24813">
        <ele>224</ele>
        <time>2022-02-24T12:40:16Z</time>
      </trkpt>
      <trkpt lat="45.96212" lon="5.2481">
        <ele>224</ele>
        <time>2022-02-24T12:40:17Z</time>
      </trkpt>
      <trkpt lat="45.96208" lon="5.24808">
        <ele>224</ele>
        <time>2022-02-24T12:40:18Z</time>
      </trkpt>
      <trkpt lat="45.96205" lon="5.24806">
        <ele>224</ele>
        <time>2022-02-24T12:40:19Z</time>
      </trkpt>
      <trkpt lat="45.96201" lon="5.24804">
        <ele>224</ele>
        <time>2022-02-24T12:40:20Z</time>
      </trkpt>
      <trkpt lat="45.96197" lon="5.24801">
        <ele>224</ele>
        <time>2022-02-24T12:40:21Z</time>
      </trkpt>
      <trkpt lat="45.96194" lon="5.24799">
        <ele>224</ele>
        <time>2022-02-24T12:40:22Z</time>
      </trkpt>
      <trkpt lat="45.9619" lon="5.24797">
        <ele>224</ele>
        <time>2022-02-24T12:40:23Z</time>
      </trkpt>
      <trkpt lat="45.96186" lon="5.24795">
        <ele>224</ele>
        <time>2022-02-24T12:40:24Z</time>
      </trkpt>
      <trkpt lat="45.96182" lon="5.24793">
        <ele>224</ele>
        <time>2022-02-24T12:40:25Z</time>
      </trkpt>
      <trkpt lat="45.96178" lon="5.24791">
        <ele>224</ele>
        <time>2022-02-24T12:40:26Z</time>
      </trkpt>
      <trkpt lat="45.96174" lon="5.24788">
        <ele>223.6</ele>
        <time>2022-02-24T12:40:27Z</time>
      </trkpt>
      <trkpt lat="45.96169" lon="5.24786">
        <ele>223.6</ele>
        <time>2022-02-24T12:40:28Z</time>
      </trkpt>
      <trkpt lat="45.96165" lon="5.24784">
        <ele>224</ele>
        <time>2022-02-24T12:40:29Z</time>
      </trkpt>
      <trkpt lat="45.96161" lon="5.24781">
        <ele>224</ele>
        <time>2022-02-24T12:40:30Z</time>
      </trkpt>
      <trkpt lat="45.96156" lon="5.24779">
        <ele>224</ele>
        <time>2022-02-24T12:40:31Z</time>
      </trkpt>
      <trkpt lat="45.96152" lon="5.24776">
        <ele>224</ele>
        <time>2022-02-24T12:40:32Z</time>
      </trkpt>
      <trkpt lat="45.96147" lon="5.24773">
        <ele>223.8</ele>
        <time>2022-02-24T12:40:33Z</time>
      </trkpt>
      <trkpt lat="45.96142" lon="5.2477">
        <ele>223.8</ele>
        <time>2022-02-24T12:40:34Z</time>
      </trkpt>
      <trkpt lat="45.96136" lon="5.24767">
        <ele>223.4</ele>
        <time>2022-02-24T12:40:35Z</time>
      </trkpt>
      <trkpt lat="45.96131" lon="5.24764">
        <ele>223.2</ele>
        <time>2022-02-24T12:40:36Z</time>
      </trkpt>
      <trkpt lat="45.96125" lon="5.24761">
        <ele>223.2</ele>
        <time>2022-02-24T12:40:37Z</time>
      </trkpt>
      <trkpt lat="45.9612" lon="5.24757">
        <ele>222.8</ele>
        <time>2022-02-24T12:40:38Z</time>
      </trkpt>
      <trkpt lat="45.96114" lon="5.24754">
        <ele>222.6</ele>
        <time>2022-02-24T12:40:39Z</time>
      </trkpt>
      <trkpt lat="45.96108" lon="5.2475">
        <ele>222.6</ele>
        <time>2022-02-24T12:40:40Z</time>
      </trkpt>
      <trkpt lat="45.96102" lon="5.24747">
        <ele>222</ele>
        <time>2022-02-24T12:40:41Z</time>
      </trkpt>
      <trkpt lat="45.96096" lon="5.24744">
        <ele>222</ele>
        <time>2022-02-24T12:40:42Z</time>
      </trkpt>
      <trkpt lat="45.9609" lon="5.2474">
        <ele>221.8</ele>
        <time>2022-02-24T12:40:43Z</time>
      </trkpt>
      <trkpt lat="45.96085" lon="5.24737">
        <ele>221.8</ele>
        <time>2022-02-24T12:40:44Z</time>
      </trkpt>
      <trkpt lat="45.96079" lon="5.24733">
        <ele>221.4</ele>
        <time>2022-02-24T12:40:45Z</time>
      </trkpt>
      <trkpt lat="45.96073" lon="5.2473">
        <ele>221.2</ele>
        <time>2022-02-24T12:40:46Z</time>
      </trkpt>
      <trkpt lat="45.96066" lon="5.24726">
        <ele>220.8</ele>
        <time>2022-02-24T12:40:47Z</time>
      </trkpt>
      <trkpt lat="45.96061" lon="5.24723">
        <ele>220.8</ele>
        <time>2022-02-24T12:40:48Z</time>
      </trkpt>
      <trkpt lat="45.96055" lon="5.2472">
        <ele>220.8</ele>
        <time>2022-02-24T12:40:49Z</time>
      </trkpt>
      <trkpt lat="45.96049" lon="5.24717">
        <ele>220.6</ele>
        <time>2022-02-24T12:40:50Z</time>
      </trkpt>
      <trkpt lat="45.96043" lon="5.24714">
        <ele>220.6</ele>
        <time>2022-02-24T12:40:51Z</time>
      </trkpt>
      <trkpt lat="45.96037" lon="5.2471">
        <ele>220.6</ele>
        <time>2022-02-24T12:40:52Z</time>
      </trkpt>
      <trkpt lat="45.96031" lon="5.24707">
        <ele>220.4</ele>
        <time>2022-02-24T12:40:53Z</time>
      </trkpt>
      <trkpt lat="45.96025" lon="5.24703">
        <ele>220.4</ele>
        <time>2022-02-24T12:40:54Z</time>
      </trkpt>
      <trkpt lat="45.9602" lon="5.247">
        <ele>220.4</ele>
        <time>2022-02-24T12:40:55Z</time>
      </trkpt>
      <trkpt lat="45.96014" lon="5.24697">
        <ele>220.4</ele>
        <time>2022-02-24T12:40:56Z</time>
      </trkpt>
      <trkpt lat="45.96008" lon="5.24693">
        <ele>220</ele>
        <time>2022-02-24T12:40:57Z</time>
      </trkpt>
      <trkpt lat="45.96002" lon="5.2469">
        <ele>220</ele>
        <time>2022-02-24T12:40:58Z</time>
      </trkpt>
      <trkpt lat="45.95997" lon="5.24687">
        <ele>219.6</ele>
        <time>2022-02-24T12:40:59Z</time>
      </trkpt>
      <trkpt lat="45.95991" lon="5.24684">
        <ele>219.4</ele>
        <time>2022-02-24T12:41:00Z</time>
      </trkpt>
      <trkpt lat="45.95986" lon="5.24681">
        <ele>219.4</ele>
        <time>2022-02-24T12:41:01Z</time>
      </trkpt>
      <trkpt lat="45.9598" lon="5.24678">
        <ele>219.4</ele>
        <time>2022-02-24T12:41:02Z</time>
      </trkpt>
      <trkpt lat="45.95975" lon="5.24675">
        <ele>219.2</ele>
        <time>2022-02-24T12:41:03Z</time>
      </trkpt>
      <trkpt lat="45.95969" lon="5.24672">
        <ele>219.2</ele>
        <time>2022-02-24T12:41:04Z</time>
      </trkpt>
      <trkpt lat="45.95964" lon="5.24669">
        <ele>219.2</ele>
        <time>2022-02-24T12:41:05Z</time>
      </trkpt>
      <trkpt lat="45.95959" lon="5.24666">
        <ele>219.2</ele>
        <time>2022-02-24T12:41:06Z</time>
      </trkpt>
      <trkpt lat="45.95953" lon="5.24663">
        <ele>219.2</ele>
        <time>2022-02-24T12:41:07Z</time>
      </trkpt>
      <trkpt lat="45.95948" lon="5.2466">
        <ele>219.2</ele>
        <time>2022-02-24T12:41:08Z</time>
      </trkpt>
      <trkpt lat="45.95942" lon="5.24657">
        <ele>219.2</ele>
        <time>2022-02-24T12:41:09Z</time>
      </trkpt>
      <trkpt lat="45.95937" lon="5.24654">
        <ele>219.2</ele>
        <time>2022-02-24T12:41:10Z</time>
      </trkpt>
      <trkpt lat="45.95932" lon="5.24651">
        <ele>219.2</ele>
        <time>2022-02-24T12:41:11Z</time>
      </trkpt>
      <trkpt lat="45.95927" lon="5.24648">
        <ele>219.2</ele>
        <time>2022-02-24T12:41:12Z</time>
      </trkpt>
      <trkpt lat="45.95922" lon="5.24646">
        <ele>219.2</ele>
        <time>2022-02-24T12:41:13Z</time>
      </trkpt>
      <trkpt lat="45.95917" lon="5.24643">
        <ele>219.4</ele>
        <time>2022-02-24T12:41:14Z</time>
      </trkpt>
      <trkpt lat="45.95912" lon="5.2464">
        <ele>219.4</ele>
        <time>2022-02-24T12:41:15Z</time>
      </trkpt>
      <trkpt lat="45.95908" lon="5.24638">
        <ele>219.4</ele>
        <time>2022-02-24T12:41:16Z</time>
      </trkpt>
      <trkpt lat="45.95903" lon="5.24635">
        <ele>219.4</ele>
        <time>2022-02-24T12:41:17Z</time>
      </trkpt>
      <trkpt lat="45.95899" lon="5.24633">
        <ele>219.4</ele>
        <time>2022-02-24T12:41:18Z</time>
      </trkpt>
      <trkpt lat="45.95894" lon="5.2463">
        <ele>219.4</ele>
        <time>2022-02-24T12:41:19Z</time>
      </trkpt>
      <trkpt lat="45.9589" lon="5.24628">
        <ele>219.4</ele>
        <time>2022-02-24T12:41:20Z</time>
      </trkpt>
      <trkpt lat="45.95886" lon="5.24626">
        <ele>219.4</ele>
        <time>2022-02-24T12:41:21Z</time>
      </trkpt>
      <trkpt lat="45.95882" lon="5.24623">
        <ele>219.4</ele>
        <time>2022-02-24T12:41:22Z</time>
      </trkpt>
      <trkpt lat="45.95877" lon="5.24621">
        <ele>219.8</ele>
        <time>2022-02-24T12:41:23Z</time>
      </trkpt>
      <trkpt lat="45.95873" lon="5.24619">
        <ele>219.8</ele>
        <time>2022-02-24T12:41:24Z</time>
      </trkpt>
      <trkpt lat="45.95869" lon="5.24616">
        <ele>219.8</ele>
        <time>2022-02-24T12:41:25Z</time>
      </trkpt>
      <trkpt lat="45.95864" lon="5.24614">
        <ele>219.8</ele>
        <time>2022-02-24T12:41:26Z</time>
      </trkpt>
      <trkpt lat="45.9586" lon="5.24612">
        <ele>220</ele>
        <time>2022-02-24T12:41:27Z</time>
      </trkpt>
      <trkpt lat="45.95856" lon="5.2461">
        <ele>220</ele>
        <time>2022-02-24T12:41:28Z</time>
      </trkpt>
      <trkpt lat="45.95851" lon="5.24608">
        <ele>220</ele>
        <time>2022-02-24T12:41:29Z</time>
      </trkpt>
      <trkpt lat="45.95847" lon="5.24605">
        <ele>220</ele>
        <time>2022-02-24T12:41:30Z</time>
      </trkpt>
      <trkpt lat="45.95843" lon="5.24603">
        <ele>220</ele>
        <time>2022-02-24T12:41:31Z</time>
      </trkpt>
      <trkpt lat="45.95839" lon="5.24601">
        <ele>220.2</ele>
        <time>2022-02-24T12:41:32Z</time>
      </trkpt>
      <trkpt lat="45.95835" lon="5.24598">
        <ele>220.2</ele>
        <time>2022-02-24T12:41:33Z</time>
      </trkpt>
      <trkpt lat="45.9583" lon="5.24595">
        <ele>220.4</ele>
        <time>2022-02-24T12:41:34Z</time>
      </trkpt>
      <trkpt lat="45.95826" lon="5.24593">
        <ele>220.4</ele>
        <time>2022-02-24T12:41:35Z</time>
      </trkpt>
      <trkpt lat="45.95821" lon="5.2459">
        <ele>220.4</ele>
        <time>2022-02-24T12:41:36Z</time>
      </trkpt>
      <trkpt lat="45.95817" lon="5.24588">
        <ele>220.4</ele>
        <time>2022-02-24T12:41:37Z</time>
      </trkpt>
      <trkpt lat="45.95812" lon="5.24586">
        <ele>220.4</ele>
        <time>2022-02-24T12:41:38Z</time>
      </trkpt>
      <trkpt lat="45.95808" lon="5.24583">
        <ele>220.4</ele>
        <time>2022-02-24T12:41:39Z</time>
      </trkpt>
      <trkpt lat="45.95804" lon="5.24581">
        <ele>220.4</ele>
        <time>2022-02-24T12:41:40Z</time>
      </trkpt>
      <trkpt lat="45.95799" lon="5.24578">
        <ele>220.4</ele>
        <time>2022-02-24T12:41:41Z</time>
      </trkpt>
      <trkpt lat="45.95795" lon="5.24576">
        <ele>220.4</ele>
        <time>2022-02-24T12:41:42Z</time>
      </trkpt>
      <trkpt lat="45.9579" lon="5.24574">
        <ele>220.4</ele>
        <time>2022-02-24T12:41:43Z</time>
      </trkpt>
      <trkpt lat="45.95786" lon="5.24571">
        <ele>220.4</ele>
        <time>2022-02-24T12:41:44Z</time>
      </trkpt>
      <trkpt lat="45.95781" lon="5.24569">
        <ele>220.4</ele>
        <time>2022-02-24T12:41:45Z</time>
      </trkpt>
      <trkpt lat="45.95777" lon="5.24567">
        <ele>220.2</ele>
        <time>2022-02-24T12:41:46Z</time>
      </trkpt>
      <trkpt lat="45.95773" lon="5.24564">
        <ele>220.2</ele>
        <time>2022-02-24T12:41:47Z</time>
      </trkpt>
      <trkpt lat="45.95768" lon="5.24562">
        <ele>220.2</ele>
        <time>2022-02-24T12:41:48Z</time>
      </trkpt>
      <trkpt lat="45.95763" lon="5.24559">
        <ele>220.2</ele>
        <time>2022-02-24T12:41:49Z</time>
      </trkpt>
      <trkpt lat="45.95758" lon="5.24556">
        <ele>220.2</ele>
        <time>2022-02-24T12:41:50Z</time>
      </trkpt>
      <trkpt lat="45.95754" lon="5.24553">
        <ele>220.2</ele>
        <time>2022-02-24T12:41:51Z</time>
      </trkpt>
      <trkpt lat="45.95749" lon="5.24551">
        <ele>220.2</ele>
        <time>2022-02-24T12:41:52Z</time>
      </trkpt>
      <trkpt lat="45.95743" lon="5.24548">
        <ele>220.2</ele>
        <time>2022-02-24T12:41:53Z</time>
      </trkpt>
      <trkpt lat="45.95738" lon="5.24544">
        <ele>220.2</ele>
        <time>2022-02-24T12:41:54Z</time>
      </trkpt>
      <trkpt lat="45.95733" lon="5.24541">
        <ele>220.2</ele>
        <time>2022-02-24T12:41:55Z</time>
      </trkpt>
      <trkpt lat="45.95728" lon="5.24538">
        <ele>220.2</ele>
        <time>2022-02-24T12:41:56Z</time>
      </trkpt>
      <trkpt lat="45.95723" lon="5.24535">
        <ele>220.2</ele>
        <time>2022-02-24T12:41:57Z</time>
      </trkpt>
      <trkpt lat="45.95718" lon="5.24533">
        <ele>220.2</ele>
        <time>2022-02-24T12:41:58Z</time>
      </trkpt>
      <trkpt lat="45.95713" lon="5.2453">
        <ele>220.2</ele>
        <time>2022-02-24T12:41:59Z</time>
      </trkpt>
      <trkpt lat="45.95708" lon="5.24527">
        <ele>220.2</ele>
        <time>2022-02-24T12:42:00Z</time>
      </trkpt>
      <trkpt lat="45.95703" lon="5.24524">
        <ele>220.2</ele>
        <time>2022-02-24T12:42:01Z</time>
      </trkpt>
      <trkpt lat="45.95698" lon="5.24521">
        <ele>220.2</ele>
        <time>2022-02-24T12:42:02Z</time>
      </trkpt>
      <trkpt lat="45.95693" lon="5.24519">
        <ele>220.2</ele>
        <time>2022-02-24T12:42:03Z</time>
      </trkpt>
      <trkpt lat="45.95689" lon="5.24516">
        <ele>220.2</ele>
        <time>2022-02-24T12:42:04Z</time>
      </trkpt>
      <trkpt lat="45.95684" lon="5.24514">
        <ele>220.2</ele>
        <time>2022-02-24T12:42:05Z</time>
      </trkpt>
      <trkpt lat="45.95679" lon="5.24511">
        <ele>220.2</ele>
        <time>2022-02-24T12:42:06Z</time>
      </trkpt>
      <trkpt lat="45.95675" lon="5.24509">
        <ele>220</ele>
        <time>2022-02-24T12:42:07Z</time>
      </trkpt>
      <trkpt lat="45.9567" lon="5.24506">
        <ele>220</ele>
        <time>2022-02-24T12:42:08Z</time>
      </trkpt>
      <trkpt lat="45.95665" lon="5.24503">
        <ele>220</ele>
        <time>2022-02-24T12:42:09Z</time>
      </trkpt>
      <trkpt lat="45.9566" lon="5.24501">
        <ele>220</ele>
        <time>2022-02-24T12:42:10Z</time>
      </trkpt>
      <trkpt lat="45.95655" lon="5.24498">
        <ele>220</ele>
        <time>2022-02-24T12:42:11Z</time>
      </trkpt>
      <trkpt lat="45.9565" lon="5.24495">
        <ele>220</ele>
        <time>2022-02-24T12:42:12Z</time>
      </trkpt>
      <trkpt lat="45.95645" lon="5.24492">
        <ele>220</ele>
        <time>2022-02-24T12:42:13Z</time>
      </trkpt>
      <trkpt lat="45.9564" lon="5.24489">
        <ele>220</ele>
        <time>2022-02-24T12:42:14Z</time>
      </trkpt>
      <trkpt lat="45.95636" lon="5.24487">
        <ele>220</ele>
        <time>2022-02-24T12:42:15Z</time>
      </trkpt>
      <trkpt lat="45.95631" lon="5.24484">
        <ele>220.2</ele>
        <time>2022-02-24T12:42:16Z</time>
      </trkpt>
      <trkpt lat="45.95626" lon="5.24482">
        <ele>220.2</ele>
        <time>2022-02-24T12:42:17Z</time>
      </trkpt>
      <trkpt lat="45.95621" lon="5.2448">
        <ele>220.4</ele>
        <time>2022-02-24T12:42:18Z</time>
      </trkpt>
      <trkpt lat="45.95616" lon="5.24478">
        <ele>220.6</ele>
        <time>2022-02-24T12:42:19Z</time>
      </trkpt>
      <trkpt lat="45.95611" lon="5.24477">
        <ele>220.8</ele>
        <time>2022-02-24T12:42:20Z</time>
      </trkpt>
      <trkpt lat="45.95606" lon="5.24475">
        <ele>220.8</ele>
        <time>2022-02-24T12:42:21Z</time>
      </trkpt>
      <trkpt lat="45.95601" lon="5.24473">
        <ele>221</ele>
        <time>2022-02-24T12:42:22Z</time>
      </trkpt>
      <trkpt lat="45.95596" lon="5.24472">
        <ele>221</ele>
        <time>2022-02-24T12:42:23Z</time>
      </trkpt>
      <trkpt lat="45.95591" lon="5.24471">
        <ele>221.2</ele>
        <time>2022-02-24T12:42:24Z</time>
      </trkpt>
      <trkpt lat="45.95586" lon="5.2447">
        <ele>221.2</ele>
        <time>2022-02-24T12:42:25Z</time>
      </trkpt>
      <trkpt lat="45.95581" lon="5.24469">
        <ele>221.6</ele>
        <time>2022-02-24T12:42:26Z</time>
      </trkpt>
      <trkpt lat="45.95576" lon="5.24469">
        <ele>221.6</ele>
        <time>2022-02-24T12:42:27Z</time>
      </trkpt>
      <trkpt lat="45.95572" lon="5.24468">
        <ele>221.6</ele>
        <time>2022-02-24T12:42:28Z</time>
      </trkpt>
      <trkpt lat="45.95567" lon="5.24467">
        <ele>221.6</ele>
        <time>2022-02-24T12:42:29Z</time>
      </trkpt>
      <trkpt lat="45.95563" lon="5.24466">
        <ele>221.6</ele>
        <time>2022-02-24T12:42:30Z</time>
      </trkpt>
      <trkpt lat="45.95558" lon="5.24466">
        <ele>222</ele>
        <time>2022-02-24T12:42:31Z</time>
      </trkpt>
      <trkpt lat="45.95553" lon="5.24466">
        <ele>222</ele>
        <time>2022-02-24T12:42:32Z</time>
      </trkpt>
      <trkpt lat="45.95549" lon="5.24466">
        <ele>222.2</ele>
        <time>2022-02-24T12:42:33Z</time>
      </trkpt>
      <trkpt lat="45.95544" lon="5.24466">
        <ele>222.2</ele>
        <time>2022-02-24T12:42:34Z</time>
      </trkpt>
      <trkpt lat="45.9554" lon="5.24466">
        <ele>222.4</ele>
        <time>2022-02-24T12:42:35Z</time>
      </trkpt>
      <trkpt lat="45.95535" lon="5.24467">
        <ele>222.4</ele>
        <time>2022-02-24T12:42:36Z</time>
      </trkpt>
      <trkpt lat="45.95531" lon="5.24467">
        <ele>222.6</ele>
        <time>2022-02-24T12:42:37Z</time>
      </trkpt>
      <trkpt lat="45.95526" lon="5.24469">
        <ele>222.6</ele>
        <time>2022-02-24T12:42:38Z</time>
      </trkpt>
      <trkpt lat="45.95522" lon="5.24469">
        <ele>223</ele>
        <time>2022-02-24T12:42:39Z</time>
      </trkpt>
      <trkpt lat="45.95517" lon="5.2447">
        <ele>223</ele>
        <time>2022-02-24T12:42:40Z</time>
      </trkpt>
      <trkpt lat="45.95513" lon="5.24471">
        <ele>223.2</ele>
        <time>2022-02-24T12:42:41Z</time>
      </trkpt>
      <trkpt lat="45.95508" lon="5.24471">
        <ele>223.2</ele>
        <time>2022-02-24T12:42:42Z</time>
      </trkpt>
      <trkpt lat="45.95504" lon="5.24472">
        <ele>223.6</ele>
        <time>2022-02-24T12:42:43Z</time>
      </trkpt>
      <trkpt lat="45.95499" lon="5.24472">
        <ele>223.8</ele>
        <time>2022-02-24T12:42:44Z</time>
      </trkpt>
      <trkpt lat="45.95495" lon="5.24473">
        <ele>223.8</ele>
        <time>2022-02-24T12:42:45Z</time>
      </trkpt>
      <trkpt lat="45.95491" lon="5.24474">
        <ele>224.2</ele>
        <time>2022-02-24T12:42:46Z</time>
      </trkpt>
      <trkpt lat="45.95486" lon="5.24474">
        <ele>224.4</ele>
        <time>2022-02-24T12:42:47Z</time>
      </trkpt>
      <trkpt lat="45.95482" lon="5.24475">
        <ele>224.4</ele>
        <time>2022-02-24T12:42:48Z</time>
      </trkpt>
      <trkpt lat="45.95478" lon="5.24476">
        <ele>224.8</ele>
        <time>2022-02-24T12:42:49Z</time>
      </trkpt>
      <trkpt lat="45.95474" lon="5.24477">
        <ele>225.2</ele>
        <time>2022-02-24T12:42:50Z</time>
      </trkpt>
      <trkpt lat="45.95469" lon="5.24478">
        <ele>225.4</ele>
        <time>2022-02-24T12:42:51Z</time>
      </trkpt>
      <trkpt lat="45.95465" lon="5.24478">
        <ele>225.6</ele>
        <time>2022-02-24T12:42:52Z</time>
      </trkpt>
      <trkpt lat="45.95461" lon="5.24479">
        <ele>225.8</ele>
        <time>2022-02-24T12:42:53Z</time>
      </trkpt>
      <trkpt lat="45.95457" lon="5.2448">
        <ele>226.2</ele>
        <time>2022-02-24T12:42:54Z</time>
      </trkpt>
      <trkpt lat="45.95453" lon="5.24481">
        <ele>226.2</ele>
        <time>2022-02-24T12:42:55Z</time>
      </trkpt>
      <trkpt lat="45.95449" lon="5.24482">
        <ele>226.4</ele>
        <time>2022-02-24T12:42:56Z</time>
      </trkpt>
      <trkpt lat="45.95445" lon="5.24482">
        <ele>226.6</ele>
        <time>2022-02-24T12:42:57Z</time>
      </trkpt>
      <trkpt lat="45.9544" lon="5.24483">
        <ele>226.6</ele>
        <time>2022-02-24T12:42:58Z</time>
      </trkpt>
      <trkpt lat="45.95436" lon="5.24484">
        <ele>227</ele>
        <time>2022-02-24T12:42:59Z</time>
      </trkpt>
      <trkpt lat="45.95432" lon="5.24484">
        <ele>227.4</ele>
        <time>2022-02-24T12:43:00Z</time>
      </trkpt>
      <trkpt lat="45.95428" lon="5.24485">
        <ele>227.6</ele>
        <time>2022-02-24T12:43:01Z</time>
      </trkpt>
      <trkpt lat="45.95424" lon="5.24486">
        <ele>227.8</ele>
        <time>2022-02-24T12:43:02Z</time>
      </trkpt>
      <trkpt lat="45.95419" lon="5.24487">
        <ele>228.2</ele>
        <time>2022-02-24T12:43:03Z</time>
      </trkpt>
      <trkpt lat="45.95415" lon="5.24488">
        <ele>228.6</ele>
        <time>2022-02-24T12:43:04Z</time>
      </trkpt>
      <trkpt lat="45.9541" lon="5.24488">
        <ele>229</ele>
        <time>2022-02-24T12:43:05Z</time>
      </trkpt>
      <trkpt lat="45.95406" lon="5.24489">
        <ele>229.2</ele>
        <time>2022-02-24T12:43:06Z</time>
      </trkpt>
      <trkpt lat="45.95401" lon="5.2449">
        <ele>229.2</ele>
        <time>2022-02-24T12:43:07Z</time>
      </trkpt>
      <trkpt lat="45.95397" lon="5.2449">
        <ele>229.6</ele>
        <time>2022-02-24T12:43:08Z</time>
      </trkpt>
      <trkpt lat="45.95392" lon="5.24491">
        <ele>230</ele>
        <time>2022-02-24T12:43:09Z</time>
      </trkpt>
      <trkpt lat="45.95388" lon="5.24492">
        <ele>230</ele>
        <time>2022-02-24T12:43:10Z</time>
      </trkpt>
      <trkpt lat="45.95383" lon="5.24493">
        <ele>230</ele>
        <time>2022-02-24T12:43:11Z</time>
      </trkpt>
      <trkpt lat="45.95379" lon="5.24494">
        <ele>230.2</ele>
        <time>2022-02-24T12:43:12Z</time>
      </trkpt>
      <trkpt lat="45.95374" lon="5.24494">
        <ele>230.4</ele>
        <time>2022-02-24T12:43:13Z</time>
      </trkpt>
      <trkpt lat="45.9537" lon="5.24495">
        <ele>230.4</ele>
        <time>2022-02-24T12:43:14Z</time>
      </trkpt>
      <trkpt lat="45.95365" lon="5.24496">
        <ele>230.4</ele>
        <time>2022-02-24T12:43:15Z</time>
      </trkpt>
      <trkpt lat="45.9536" lon="5.24496">
        <ele>230.4</ele>
        <time>2022-02-24T12:43:16Z</time>
      </trkpt>
      <trkpt lat="45.95356" lon="5.24497">
        <ele>230.4</ele>
        <time>2022-02-24T12:43:17Z</time>
      </trkpt>
      <trkpt lat="45.95351" lon="5.24498">
        <ele>230.6</ele>
        <time>2022-02-24T12:43:18Z</time>
      </trkpt>
      <trkpt lat="45.95347" lon="5.24498">
        <ele>230.6</ele>
        <time>2022-02-24T12:43:19Z</time>
      </trkpt>
      <trkpt lat="45.95342" lon="5.24499">
        <ele>230.4</ele>
        <time>2022-02-24T12:43:20Z</time>
      </trkpt>
      <trkpt lat="45.95337" lon="5.245">
        <ele>230.4</ele>
        <time>2022-02-24T12:43:21Z</time>
      </trkpt>
      <trkpt lat="45.95333" lon="5.24501">
        <ele>230.4</ele>
        <time>2022-02-24T12:43:22Z</time>
      </trkpt>
      <trkpt lat="45.95328" lon="5.24501">
        <ele>230.4</ele>
        <time>2022-02-24T12:43:23Z</time>
      </trkpt>
      <trkpt lat="45.95323" lon="5.24502">
        <ele>230.4</ele>
        <time>2022-02-24T12:43:24Z</time>
      </trkpt>
      <trkpt lat="45.95318" lon="5.24503">
        <ele>230.4</ele>
        <time>2022-02-24T12:43:25Z</time>
      </trkpt>
      <trkpt lat="45.95314" lon="5.24504">
        <ele>230.8</ele>
        <time>2022-02-24T12:43:26Z</time>
      </trkpt>
      <trkpt lat="45.95309" lon="5.24504">
        <ele>230.8</ele>
        <time>2022-02-24T12:43:27Z</time>
      </trkpt>
      <trkpt lat="45.95304" lon="5.24505">
        <ele>230.8</ele>
        <time>2022-02-24T12:43:28Z</time>
      </trkpt>
      <trkpt lat="45.95299" lon="5.24506">
        <ele>230.8</ele>
        <time>2022-02-24T12:43:29Z</time>
      </trkpt>
      <trkpt lat="45.95294" lon="5.24507">
        <ele>230.8</ele>
        <time>2022-02-24T12:43:30Z</time>
      </trkpt>
      <trkpt lat="45.95289" lon="5.24507">
        <ele>230.8</ele>
        <time>2022-02-24T12:43:31Z</time>
      </trkpt>
      <trkpt lat="45.95284" lon="5.24508">
        <ele>230.8</ele>
        <time>2022-02-24T12:43:32Z</time>
      </trkpt>
      <trkpt lat="45.95278" lon="5.24509">
        <ele>230.8</ele>
        <time>2022-02-24T12:43:33Z</time>
      </trkpt>
      <trkpt lat="45.95273" lon="5.2451">
        <ele>230.8</ele>
        <time>2022-02-24T12:43:34Z</time>
      </trkpt>
      <trkpt lat="45.95268" lon="5.24511">
        <ele>230.8</ele>
        <time>2022-02-24T12:43:35Z</time>
      </trkpt>
      <trkpt lat="45.95263" lon="5.24512">
        <ele>230.4</ele>
        <time>2022-02-24T12:43:36Z</time>
      </trkpt>
      <trkpt lat="45.95257" lon="5.24513">
        <ele>230.4</ele>
        <time>2022-02-24T12:43:37Z</time>
      </trkpt>
      <trkpt lat="45.95252" lon="5.24514">
        <ele>230.4</ele>
        <time>2022-02-24T12:43:38Z</time>
      </trkpt>
      <trkpt lat="45.95246" lon="5.24515">
        <ele>230.2</ele>
        <time>2022-02-24T12:43:39Z</time>
      </trkpt>
      <trkpt lat="45.9524" lon="5.24516">
        <ele>230.2</ele>
        <time>2022-02-24T12:43:40Z</time>
      </trkpt>
      <trkpt lat="45.95235" lon="5.24517">
        <ele>230</ele>
        <time>2022-02-24T12:43:41Z</time>
      </trkpt>
      <trkpt lat="45.95229" lon="5.24518">
        <ele>230</ele>
        <time>2022-02-24T12:43:42Z</time>
      </trkpt>
      <trkpt lat="45.95223" lon="5.24519">
        <ele>229.8</ele>
        <time>2022-02-24T12:43:43Z</time>
      </trkpt>
      <trkpt lat="45.95218" lon="5.2452">
        <ele>229.6</ele>
        <time>2022-02-24T12:43:44Z</time>
      </trkpt>
      <trkpt lat="45.95212" lon="5.24521">
        <ele>229.6</ele>
        <time>2022-02-24T12:43:45Z</time>
      </trkpt>
      <trkpt lat="45.95206" lon="5.24522">
        <ele>229.4</ele>
        <time>2022-02-24T12:43:46Z</time>
      </trkpt>
      <trkpt lat="45.952" lon="5.24523">
        <ele>229.4</ele>
        <time>2022-02-24T12:43:47Z</time>
      </trkpt>
      <trkpt lat="45.95194" lon="5.24524">
        <ele>229.4</ele>
        <time>2022-02-24T12:43:48Z</time>
      </trkpt>
      <trkpt lat="45.95188" lon="5.24525">
        <ele>229</ele>
        <time>2022-02-24T12:43:49Z</time>
      </trkpt>
      <trkpt lat="45.95181" lon="5.24526">
        <ele>228.8</ele>
        <time>2022-02-24T12:43:50Z</time>
      </trkpt>
      <trkpt lat="45.95175" lon="5.24527">
        <ele>228.8</ele>
        <time>2022-02-24T12:43:51Z</time>
      </trkpt>
      <trkpt lat="45.95169" lon="5.24528">
        <ele>228.4</ele>
        <time>2022-02-24T12:43:52Z</time>
      </trkpt>
      <trkpt lat="45.95162" lon="5.2453">
        <ele>228.2</ele>
        <time>2022-02-24T12:43:53Z</time>
      </trkpt>
      <trkpt lat="45.95156" lon="5.24531">
        <ele>228</ele>
        <time>2022-02-24T12:43:54Z</time>
      </trkpt>
      <trkpt lat="45.95149" lon="5.24532">
        <ele>228</ele>
        <time>2022-02-24T12:43:55Z</time>
      </trkpt>
      <trkpt lat="45.95142" lon="5.24533">
        <ele>227.6</ele>
        <time>2022-02-24T12:43:56Z</time>
      </trkpt>
      <trkpt lat="45.95135" lon="5.24534">
        <ele>227.6</ele>
        <time>2022-02-24T12:43:57Z</time>
      </trkpt>
      <trkpt lat="45.95127" lon="5.24535">
        <ele>227.2</ele>
        <time>2022-02-24T12:43:58Z</time>
      </trkpt>
      <trkpt lat="45.9512" lon="5.24536">
        <ele>226.8</ele>
        <time>2022-02-24T12:43:59Z</time>
      </trkpt>
      <trkpt lat="45.95112" lon="5.24538">
        <ele>226.6</ele>
        <time>2022-02-24T12:44:00Z</time>
      </trkpt>
      <trkpt lat="45.95104" lon="5.24539">
        <ele>226.2</ele>
        <time>2022-02-24T12:44:01Z</time>
      </trkpt>
      <trkpt lat="45.95096" lon="5.2454">
        <ele>225.8</ele>
        <time>2022-02-24T12:44:02Z</time>
      </trkpt>
      <trkpt lat="45.95088" lon="5.24542">
        <ele>225.4</ele>
        <time>2022-02-24T12:44:03Z</time>
      </trkpt>
      <trkpt lat="45.9508" lon="5.24543">
        <ele>225</ele>
        <time>2022-02-24T12:44:04Z</time>
      </trkpt>
      <trkpt lat="45.95072" lon="5.24544">
        <ele>224.6</ele>
        <time>2022-02-24T12:44:05Z</time>
      </trkpt>
      <trkpt lat="45.95063" lon="5.24545">
        <ele>224.2</ele>
        <time>2022-02-24T12:44:06Z</time>
      </trkpt>
      <trkpt lat="45.95055" lon="5.24546">
        <ele>223.6</ele>
        <time>2022-02-24T12:44:07Z</time>
      </trkpt>
      <trkpt lat="45.95047" lon="5.24548">
        <ele>223.2</ele>
        <time>2022-02-24T12:44:08Z</time>
      </trkpt>
      <trkpt lat="45.95039" lon="5.24549">
        <ele>222.8</ele>
        <time>2022-02-24T12:44:09Z</time>
      </trkpt>
      <trkpt lat="45.9503" lon="5.2455">
        <ele>222.2</ele>
        <time>2022-02-24T12:44:10Z</time>
      </trkpt>
      <trkpt lat="45.95021" lon="5.24551">
        <ele>221.6</ele>
        <time>2022-02-24T12:44:11Z</time>
      </trkpt>
      <trkpt lat="45.95013" lon="5.24552">
        <ele>221.2</ele>
        <time>2022-02-24T12:44:12Z</time>
      </trkpt>
      <trkpt lat="45.95004" lon="5.24553">
        <ele>220.6</ele>
        <time>2022-02-24T12:44:13Z</time>
      </trkpt>
      <trkpt lat="45.94996" lon="5.24554">
        <ele>220</ele>
        <time>2022-02-24T12:44:14Z</time>
      </trkpt>
      <trkpt lat="45.94987" lon="5.24555">
        <ele>219.6</ele>
        <time>2022-02-24T12:44:15Z</time>
      </trkpt>
      <trkpt lat="45.94979" lon="5.24557">
        <ele>219.2</ele>
        <time>2022-02-24T12:44:16Z</time>
      </trkpt>
      <trkpt lat="45.9497" lon="5.24558">
        <ele>218.8</ele>
        <time>2022-02-24T12:44:17Z</time>
      </trkpt>
      <trkpt lat="45.94962" lon="5.24559">
        <ele>218.2</ele>
        <time>2022-02-24T12:44:18Z</time>
      </trkpt>
      <trkpt lat="45.94954" lon="5.24561">
        <ele>217.6</ele>
        <time>2022-02-24T12:44:19Z</time>
      </trkpt>
      <trkpt lat="45.94946" lon="5.24562">
        <ele>217.4</ele>
        <time>2022-02-24T12:44:20Z</time>
      </trkpt>
      <trkpt lat="45.94938" lon="5.24564">
        <ele>217.2</ele>
        <time>2022-02-24T12:44:21Z</time>
      </trkpt>
      <trkpt lat="45.9493" lon="5.24566">
        <ele>216.8</ele>
        <time>2022-02-24T12:44:22Z</time>
      </trkpt>
      <trkpt lat="45.94923" lon="5.24567">
        <ele>216.6</ele>
        <time>2022-02-24T12:44:23Z</time>
      </trkpt>
      <trkpt lat="45.94916" lon="5.24566">
        <ele>216.4</ele>
        <time>2022-02-24T12:44:24Z</time>
      </trkpt>
      <trkpt lat="45.94909" lon="5.24565">
        <ele>216</ele>
        <time>2022-02-24T12:44:25Z</time>
      </trkpt>
      <trkpt lat="45.94903" lon="5.24564">
        <ele>216</ele>
        <time>2022-02-24T12:44:26Z</time>
      </trkpt>
      <trkpt lat="45.94897" lon="5.24565">
        <ele>216</ele>
        <time>2022-02-24T12:44:27Z</time>
      </trkpt>
      <trkpt lat="45.94891" lon="5.24568">
        <ele>216</ele>
        <time>2022-02-24T12:44:28Z</time>
      </trkpt>
      <trkpt lat="45.94885" lon="5.24571">
        <ele>216</ele>
        <time>2022-02-24T12:44:29Z</time>
      </trkpt>
      <trkpt lat="45.94879" lon="5.24573">
        <ele>216</ele>
        <time>2022-02-24T12:44:30Z</time>
      </trkpt>
      <trkpt lat="45.94873" lon="5.24575">
        <ele>215.8</ele>
        <time>2022-02-24T12:44:31Z</time>
      </trkpt>
      <trkpt lat="45.94867" lon="5.24577">
        <ele>215.8</ele>
        <time>2022-02-24T12:44:32Z</time>
      </trkpt>
      <trkpt lat="45.94861" lon="5.24578">
        <ele>215.6</ele>
        <time>2022-02-24T12:44:33Z</time>
      </trkpt>
      <trkpt lat="45.94854" lon="5.24579">
        <ele>215.6</ele>
        <time>2022-02-24T12:44:34Z</time>
      </trkpt>
      <trkpt lat="45.94848" lon="5.2458">
        <ele>215.6</ele>
        <time>2022-02-24T12:44:35Z</time>
      </trkpt>
      <trkpt lat="45.94842" lon="5.2458">
        <ele>215.6</ele>
        <time>2022-02-24T12:44:36Z</time>
      </trkpt>
      <trkpt lat="45.94835" lon="5.24581">
        <ele>215.6</ele>
        <time>2022-02-24T12:44:37Z</time>
      </trkpt>
      <trkpt lat="45.94829" lon="5.24582">
        <ele>215.6</ele>
        <time>2022-02-24T12:44:38Z</time>
      </trkpt>
      <trkpt lat="45.94823" lon="5.24583">
        <ele>215.2</ele>
        <time>2022-02-24T12:44:39Z</time>
      </trkpt>
      <trkpt lat="45.94817" lon="5.24584">
        <ele>215.2</ele>
        <time>2022-02-24T12:44:40Z</time>
      </trkpt>
      <trkpt lat="45.94817" lon="5.24584">
        <ele>215.2</ele>
        <time>2022-02-24T12:44:41Z</time>
      </trkpt>
      <trkpt lat="45.94811" lon="5.24584">
        <ele>215.2</ele>
        <time>2022-02-24T12:44:42Z</time>
      </trkpt>
      <trkpt lat="45.94805" lon="5.24585">
        <ele>215.6</ele>
        <time>2022-02-24T12:44:43Z</time>
      </trkpt>
      <trkpt lat="45.94799" lon="5.24586">
        <ele>215.6</ele>
        <time>2022-02-24T12:44:44Z</time>
      </trkpt>
      <trkpt lat="45.94793" lon="5.24587">
        <ele>215.4</ele>
        <time>2022-02-24T12:44:45Z</time>
      </trkpt>
      <trkpt lat="45.94787" lon="5.24588">
        <ele>215.4</ele>
        <time>2022-02-24T12:44:46Z</time>
      </trkpt>
      <trkpt lat="45.94781" lon="5.24589">
        <ele>215</ele>
        <time>2022-02-24T12:44:47Z</time>
      </trkpt>
      <trkpt lat="45.94776" lon="5.2459">
        <ele>215</ele>
        <time>2022-02-24T12:44:48Z</time>
      </trkpt>
      <trkpt lat="45.9477" lon="5.2459">
        <ele>215.2</ele>
        <time>2022-02-24T12:44:49Z</time>
      </trkpt>
      <trkpt lat="45.94765" lon="5.24591">
        <ele>215.6</ele>
        <time>2022-02-24T12:44:50Z</time>
      </trkpt>
      <trkpt lat="45.94754" lon="5.24593">
        <ele>215.8</ele>
        <time>2022-02-24T12:44:51Z</time>
      </trkpt>
      <trkpt lat="45.94748" lon="5.24594">
        <ele>215.8</ele>
        <time>2022-02-24T12:44:52Z</time>
      </trkpt>
      <trkpt lat="45.94742" lon="5.24595">
        <ele>215.8</ele>
        <time>2022-02-24T12:44:53Z</time>
      </trkpt>
      <trkpt lat="45.94736" lon="5.24596">
        <ele>215.8</ele>
        <time>2022-02-24T12:44:54Z</time>
      </trkpt>
      <trkpt lat="45.9473" lon="5.24597">
        <ele>215.8</ele>
        <time>2022-02-24T12:44:55Z</time>
      </trkpt>
      <trkpt lat="45.94724" lon="5.24598">
        <ele>215.8</ele>
        <time>2022-02-24T12:44:56Z</time>
      </trkpt>
      <trkpt lat="45.94718" lon="5.24599">
        <ele>215.4</ele>
        <time>2022-02-24T12:44:57Z</time>
      </trkpt>
      <trkpt lat="45.94712" lon="5.246">
        <ele>215.4</ele>
        <time>2022-02-24T12:44:58Z</time>
      </trkpt>
      <trkpt lat="45.94706" lon="5.24601">
        <ele>215.4</ele>
        <time>2022-02-24T12:44:59Z</time>
      </trkpt>
      <trkpt lat="45.947" lon="5.24602">
        <ele>215.2</ele>
        <time>2022-02-24T12:45:00Z</time>
      </trkpt>
      <trkpt lat="45.94694" lon="5.24603">
        <ele>215.2</ele>
        <time>2022-02-24T12:45:01Z</time>
      </trkpt>
      <trkpt lat="45.94687" lon="5.24603">
        <ele>214.8</ele>
        <time>2022-02-24T12:45:02Z</time>
      </trkpt>
      <trkpt lat="45.94681" lon="5.24602">
        <ele>214.8</ele>
        <time>2022-02-24T12:45:03Z</time>
      </trkpt>
      <trkpt lat="45.94675" lon="5.24601">
        <ele>214.8</ele>
        <time>2022-02-24T12:45:04Z</time>
      </trkpt>
      <trkpt lat="45.94669" lon="5.246">
        <ele>214.8</ele>
        <time>2022-02-24T12:45:05Z</time>
      </trkpt>
      <trkpt lat="45.94663" lon="5.24598">
        <ele>214.8</ele>
        <time>2022-02-24T12:45:06Z</time>
      </trkpt>
      <trkpt lat="45.94658" lon="5.24595">
        <ele>214.8</ele>
        <time>2022-02-24T12:45:07Z</time>
      </trkpt>
      <trkpt lat="45.94653" lon="5.24592">
        <ele>214.8</ele>
        <time>2022-02-24T12:45:08Z</time>
      </trkpt>
      <trkpt lat="45.94648" lon="5.24588">
        <ele>214.8</ele>
        <time>2022-02-24T12:45:09Z</time>
      </trkpt>
      <trkpt lat="45.94643" lon="5.24584">
        <ele>214.8</ele>
        <time>2022-02-24T12:45:10Z</time>
      </trkpt>
      <trkpt lat="45.94638" lon="5.24581">
        <ele>214.8</ele>
        <time>2022-02-24T12:45:11Z</time>
      </trkpt>
      <trkpt lat="45.94633" lon="5.24578">
        <ele>214.8</ele>
        <time>2022-02-24T12:45:12Z</time>
      </trkpt>
      <trkpt lat="45.94628" lon="5.24574">
        <ele>214.8</ele>
        <time>2022-02-24T12:45:13Z</time>
      </trkpt>
      <trkpt lat="45.94624" lon="5.2457">
        <ele>214.8</ele>
        <time>2022-02-24T12:45:14Z</time>
      </trkpt>
      <trkpt lat="45.94618" lon="5.24567">
        <ele>215</ele>
        <time>2022-02-24T12:45:15Z</time>
      </trkpt>
      <trkpt lat="45.94613" lon="5.24563">
        <ele>215</ele>
        <time>2022-02-24T12:45:16Z</time>
      </trkpt>
      <trkpt lat="45.94608" lon="5.2456">
        <ele>215</ele>
        <time>2022-02-24T12:45:17Z</time>
      </trkpt>
      <trkpt lat="45.94603" lon="5.24557">
        <ele>215</ele>
        <time>2022-02-24T12:45:18Z</time>
      </trkpt>
      <trkpt lat="45.94598" lon="5.24554">
        <ele>215</ele>
        <time>2022-02-24T12:45:19Z</time>
      </trkpt>
      <trkpt lat="45.94594" lon="5.2455">
        <ele>215.4</ele>
        <time>2022-02-24T12:45:20Z</time>
      </trkpt>
      <trkpt lat="45.94589" lon="5.24547">
        <ele>215.4</ele>
        <time>2022-02-24T12:45:21Z</time>
      </trkpt>
      <trkpt lat="45.94584" lon="5.24543">
        <ele>215.4</ele>
        <time>2022-02-24T12:45:22Z</time>
      </trkpt>
      <trkpt lat="45.9458" lon="5.24539">
        <ele>215.4</ele>
        <time>2022-02-24T12:45:23Z</time>
      </trkpt>
      <trkpt lat="45.94575" lon="5.24535">
        <ele>215.6</ele>
        <time>2022-02-24T12:45:24Z</time>
      </trkpt>
      <trkpt lat="45.94571" lon="5.24531">
        <ele>215.6</ele>
        <time>2022-02-24T12:45:25Z</time>
      </trkpt>
      <trkpt lat="45.94566" lon="5.24528">
        <ele>215.6</ele>
        <time>2022-02-24T12:45:26Z</time>
      </trkpt>
      <trkpt lat="45.94562" lon="5.24524">
        <ele>215.8</ele>
        <time>2022-02-24T12:45:27Z</time>
      </trkpt>
      <trkpt lat="45.94557" lon="5.2452">
        <ele>215.8</ele>
        <time>2022-02-24T12:45:28Z</time>
      </trkpt>
      <trkpt lat="45.94553" lon="5.24516">
        <ele>215.8</ele>
        <time>2022-02-24T12:45:29Z</time>
      </trkpt>
      <trkpt lat="45.94549" lon="5.24512">
        <ele>216</ele>
        <time>2022-02-24T12:45:30Z</time>
      </trkpt>
      <trkpt lat="45.94544" lon="5.24508">
        <ele>216</ele>
        <time>2022-02-24T12:45:31Z</time>
      </trkpt>
      <trkpt lat="45.9454" lon="5.24504">
        <ele>216.4</ele>
        <time>2022-02-24T12:45:32Z</time>
      </trkpt>
      <trkpt lat="45.94536" lon="5.245">
        <ele>216.4</ele>
        <time>2022-02-24T12:45:33Z</time>
      </trkpt>
      <trkpt lat="45.94533" lon="5.24495">
        <ele>216.4</ele>
        <time>2022-02-24T12:45:34Z</time>
      </trkpt>
      <trkpt lat="45.94529" lon="5.2449">
        <ele>216.4</ele>
        <time>2022-02-24T12:45:35Z</time>
      </trkpt>
      <trkpt lat="45.94525" lon="5.24486">
        <ele>216.4</ele>
        <time>2022-02-24T12:45:36Z</time>
      </trkpt>
      <trkpt lat="45.9452" lon="5.24482">
        <ele>216.4</ele>
        <time>2022-02-24T12:45:37Z</time>
      </trkpt>
      <trkpt lat="45.94516" lon="5.24477">
        <ele>216.4</ele>
        <time>2022-02-24T12:45:38Z</time>
      </trkpt>
      <trkpt lat="45.94512" lon="5.24473">
        <ele>216.6</ele>
        <time>2022-02-24T12:45:39Z</time>
      </trkpt>
      <trkpt lat="45.94508" lon="5.24469">
        <ele>217</ele>
        <time>2022-02-24T12:45:40Z</time>
      </trkpt>
      <trkpt lat="45.94504" lon="5.24465">
        <ele>217</ele>
        <time>2022-02-24T12:45:41Z</time>
      </trkpt>
      <trkpt lat="45.945" lon="5.24462">
        <ele>217.4</ele>
        <time>2022-02-24T12:45:42Z</time>
      </trkpt>
      <trkpt lat="45.94496" lon="5.24459">
        <ele>217.4</ele>
        <time>2022-02-24T12:45:43Z</time>
      </trkpt>
      <trkpt lat="45.94492" lon="5.24456">
        <ele>217.4</ele>
        <time>2022-02-24T12:45:44Z</time>
      </trkpt>
      <trkpt lat="45.94488" lon="5.24453">
        <ele>217.4</ele>
        <time>2022-02-24T12:45:45Z</time>
      </trkpt>
      <trkpt lat="45.94484" lon="5.2445">
        <ele>217.6</ele>
        <time>2022-02-24T12:45:46Z</time>
      </trkpt>
      <trkpt lat="45.94481" lon="5.24447">
        <ele>217.6</ele>
        <time>2022-02-24T12:45:47Z</time>
      </trkpt>
      <trkpt lat="45.94477" lon="5.24444">
        <ele>218</ele>
        <time>2022-02-24T12:45:48Z</time>
      </trkpt>
      <trkpt lat="45.94473" lon="5.24442">
        <ele>218</ele>
        <time>2022-02-24T12:45:49Z</time>
      </trkpt>
      <trkpt lat="45.94469" lon="5.2444">
        <ele>218.2</ele>
        <time>2022-02-24T12:45:50Z</time>
      </trkpt>
      <trkpt lat="45.94465" lon="5.24438">
        <ele>218.2</ele>
        <time>2022-02-24T12:45:51Z</time>
      </trkpt>
      <trkpt lat="45.94461" lon="5.24435">
        <ele>218.4</ele>
        <time>2022-02-24T12:45:52Z</time>
      </trkpt>
      <trkpt lat="45.94458" lon="5.24432">
        <ele>218.4</ele>
        <time>2022-02-24T12:45:53Z</time>
      </trkpt>
      <trkpt lat="45.94454" lon="5.2443">
        <ele>218.6</ele>
        <time>2022-02-24T12:45:54Z</time>
      </trkpt>
      <trkpt lat="45.9445" lon="5.24426">
        <ele>218.6</ele>
        <time>2022-02-24T12:45:55Z</time>
      </trkpt>
      <trkpt lat="45.94446" lon="5.24423">
        <ele>218.6</ele>
        <time>2022-02-24T12:45:56Z</time>
      </trkpt>
      <trkpt lat="45.94442" lon="5.24421">
        <ele>218.6</ele>
        <time>2022-02-24T12:45:57Z</time>
      </trkpt>
      <trkpt lat="45.94438" lon="5.24419">
        <ele>218.8</ele>
        <time>2022-02-24T12:45:58Z</time>
      </trkpt>
      <trkpt lat="45.94434" lon="5.24416">
        <ele>218.8</ele>
        <time>2022-02-24T12:45:59Z</time>
      </trkpt>
      <trkpt lat="45.9443" lon="5.24413">
        <ele>218.8</ele>
        <time>2022-02-24T12:46:00Z</time>
      </trkpt>
      <trkpt lat="45.94426" lon="5.2441">
        <ele>218.8</ele>
        <time>2022-02-24T12:46:01Z</time>
      </trkpt>
      <trkpt lat="45.94422" lon="5.24408">
        <ele>218.8</ele>
        <time>2022-02-24T12:46:02Z</time>
      </trkpt>
      <trkpt lat="45.94418" lon="5.24405">
        <ele>218.8</ele>
        <time>2022-02-24T12:46:03Z</time>
      </trkpt>
      <trkpt lat="45.94413" lon="5.24402">
        <ele>218.8</ele>
        <time>2022-02-24T12:46:04Z</time>
      </trkpt>
      <trkpt lat="45.94409" lon="5.24399">
        <ele>219.2</ele>
        <time>2022-02-24T12:46:05Z</time>
      </trkpt>
      <trkpt lat="45.94404" lon="5.24396">
        <ele>219.2</ele>
        <time>2022-02-24T12:46:06Z</time>
      </trkpt>
      <trkpt lat="45.944" lon="5.24393">
        <ele>219.2</ele>
        <time>2022-02-24T12:46:07Z</time>
      </trkpt>
      <trkpt lat="45.94395" lon="5.24391">
        <ele>219.2</ele>
        <time>2022-02-24T12:46:08Z</time>
      </trkpt>
      <trkpt lat="45.94391" lon="5.24388">
        <ele>219.2</ele>
        <time>2022-02-24T12:46:09Z</time>
      </trkpt>
      <trkpt lat="45.94387" lon="5.24386">
        <ele>219.4</ele>
        <time>2022-02-24T12:46:10Z</time>
      </trkpt>
      <trkpt lat="45.94382" lon="5.24384">
        <ele>219.4</ele>
        <time>2022-02-24T12:46:11Z</time>
      </trkpt>
      <trkpt lat="45.94377" lon="5.24381">
        <ele>219.4</ele>
        <time>2022-02-24T12:46:12Z</time>
      </trkpt>
      <trkpt lat="45.94373" lon="5.24378">
        <ele>219.4</ele>
        <time>2022-02-24T12:46:13Z</time>
      </trkpt>
      <trkpt lat="45.94369" lon="5.24375">
        <ele>219.4</ele>
        <time>2022-02-24T12:46:14Z</time>
      </trkpt>
      <trkpt lat="45.94364" lon="5.24372">
        <ele>219.4</ele>
        <time>2022-02-24T12:46:15Z</time>
      </trkpt>
      <trkpt lat="45.9436" lon="5.24369">
        <ele>219.8</ele>
        <time>2022-02-24T12:46:16Z</time>
      </trkpt>
      <trkpt lat="45.94355" lon="5.24366">
        <ele>219.8</ele>
        <time>2022-02-24T12:46:17Z</time>
      </trkpt>
      <trkpt lat="45.94351" lon="5.24363">
        <ele>219.8</ele>
        <time>2022-02-24T12:46:18Z</time>
      </trkpt>
      <trkpt lat="45.94347" lon="5.2436">
        <ele>219.8</ele>
        <time>2022-02-24T12:46:19Z</time>
      </trkpt>
      <trkpt lat="45.94343" lon="5.24358">
        <ele>220</ele>
        <time>2022-02-24T12:46:20Z</time>
      </trkpt>
      <trkpt lat="45.94339" lon="5.24355">
        <ele>220</ele>
        <time>2022-02-24T12:46:21Z</time>
      </trkpt>
      <trkpt lat="45.94335" lon="5.24353">
        <ele>220</ele>
        <time>2022-02-24T12:46:22Z</time>
      </trkpt>
      <trkpt lat="45.94331" lon="5.2435">
        <ele>220</ele>
        <time>2022-02-24T12:46:23Z</time>
      </trkpt>
      <trkpt lat="45.94327" lon="5.24348">
        <ele>220</ele>
        <time>2022-02-24T12:46:24Z</time>
      </trkpt>
      <trkpt lat="45.94323" lon="5.24345">
        <ele>220.4</ele>
        <time>2022-02-24T12:46:25Z</time>
      </trkpt>
      <trkpt lat="45.9432" lon="5.24343">
        <ele>220.6</ele>
        <time>2022-02-24T12:46:26Z</time>
      </trkpt>
      <trkpt lat="45.94316" lon="5.2434">
        <ele>220.6</ele>
        <time>2022-02-24T12:46:27Z</time>
      </trkpt>
      <trkpt lat="45.94312" lon="5.24338">
        <ele>220.8</ele>
        <time>2022-02-24T12:46:28Z</time>
      </trkpt>
      <trkpt lat="45.94308" lon="5.24335">
        <ele>220.8</ele>
        <time>2022-02-24T12:46:29Z</time>
      </trkpt>
      <trkpt lat="45.94304" lon="5.24333">
        <ele>221</ele>
        <time>2022-02-24T12:46:30Z</time>
      </trkpt>
      <trkpt lat="45.943" lon="5.2433">
        <ele>221</ele>
        <time>2022-02-24T12:46:31Z</time>
      </trkpt>
      <trkpt lat="45.94296" lon="5.24328">
        <ele>221</ele>
        <time>2022-02-24T12:46:32Z</time>
      </trkpt>
      <trkpt lat="45.94292" lon="5.24325">
        <ele>221</ele>
        <time>2022-02-24T12:46:33Z</time>
      </trkpt>
      <trkpt lat="45.94288" lon="5.24323">
        <ele>221.4</ele>
        <time>2022-02-24T12:46:34Z</time>
      </trkpt>
      <trkpt lat="45.94284" lon="5.24321">
        <ele>221.4</ele>
        <time>2022-02-24T12:46:35Z</time>
      </trkpt>
      <trkpt lat="45.9428" lon="5.24318">
        <ele>221.4</ele>
        <time>2022-02-24T12:46:36Z</time>
      </trkpt>
      <trkpt lat="45.94276" lon="5.24316">
        <ele>221.6</ele>
        <time>2022-02-24T12:46:37Z</time>
      </trkpt>
      <trkpt lat="45.94271" lon="5.24314">
        <ele>221.6</ele>
        <time>2022-02-24T12:46:38Z</time>
      </trkpt>
      <trkpt lat="45.94266" lon="5.24312">
        <ele>221.8</ele>
        <time>2022-02-24T12:46:39Z</time>
      </trkpt>
      <trkpt lat="45.94262" lon="5.24309">
        <ele>221.8</ele>
        <time>2022-02-24T12:46:40Z</time>
      </trkpt>
      <trkpt lat="45.94257" lon="5.24307">
        <ele>221.8</ele>
        <time>2022-02-24T12:46:41Z</time>
      </trkpt>
      <trkpt lat="45.94252" lon="5.24305">
        <ele>221.8</ele>
        <time>2022-02-24T12:46:42Z</time>
      </trkpt>
      <trkpt lat="45.94248" lon="5.24302">
        <ele>222</ele>
        <time>2022-02-24T12:46:43Z</time>
      </trkpt>
      <trkpt lat="45.94244" lon="5.24299">
        <ele>222</ele>
        <time>2022-02-24T12:46:44Z</time>
      </trkpt>
      <trkpt lat="45.94239" lon="5.24295">
        <ele>222</ele>
        <time>2022-02-24T12:46:45Z</time>
      </trkpt>
      <trkpt lat="45.94236" lon="5.24291">
        <ele>222.2</ele>
        <time>2022-02-24T12:46:46Z</time>
      </trkpt>
      <trkpt lat="45.94232" lon="5.24287">
        <ele>222.2</ele>
        <time>2022-02-24T12:46:47Z</time>
      </trkpt>
      <trkpt lat="45.94229" lon="5.24283">
        <ele>222.6</ele>
        <time>2022-02-24T12:46:48Z</time>
      </trkpt>
      <trkpt lat="45.94227" lon="5.24278">
        <ele>223</ele>
        <time>2022-02-24T12:46:49Z</time>
      </trkpt>
      <trkpt lat="45.94225" lon="5.24274">
        <ele>223.2</ele>
        <time>2022-02-24T12:46:50Z</time>
      </trkpt>
      <trkpt lat="45.94223" lon="5.2427">
        <ele>223.4</ele>
        <time>2022-02-24T12:46:51Z</time>
      </trkpt>
      <trkpt lat="45.94222" lon="5.24266">
        <ele>223.6</ele>
        <time>2022-02-24T12:46:52Z</time>
      </trkpt>
      <trkpt lat="45.94221" lon="5.24262">
        <ele>224</ele>
        <time>2022-02-24T12:46:53Z</time>
      </trkpt>
      <trkpt lat="45.9422" lon="5.24259">
        <ele>224</ele>
        <time>2022-02-24T12:46:54Z</time>
      </trkpt>
      <trkpt lat="45.9422" lon="5.24255">
        <ele>224.4</ele>
        <time>2022-02-24T12:46:55Z</time>
      </trkpt>
      <trkpt lat="45.94219" lon="5.24252">
        <ele>224.4</ele>
        <time>2022-02-24T12:46:56Z</time>
      </trkpt>
      <trkpt lat="45.94218" lon="5.24249">
        <ele>224.8</ele>
        <time>2022-02-24T12:46:57Z</time>
      </trkpt>
      <trkpt lat="45.94218" lon="5.24246">
        <ele>225</ele>
        <time>2022-02-24T12:46:58Z</time>
      </trkpt>
      <trkpt lat="45.94217" lon="5.24243">
        <ele>225.4</ele>
        <time>2022-02-24T12:46:59Z</time>
      </trkpt>
      <trkpt lat="45.94217" lon="5.2424">
        <ele>225.8</ele>
        <time>2022-02-24T12:47:00Z</time>
      </trkpt>
      <trkpt lat="45.94217" lon="5.24237">
        <ele>226.2</ele>
        <time>2022-02-24T12:47:01Z</time>
      </trkpt>
      <trkpt lat="45.94217" lon="5.24235">
        <ele>226.4</ele>
        <time>2022-02-24T12:47:02Z</time>
      </trkpt>
      <trkpt lat="45.94216" lon="5.24233">
        <ele>226.6</ele>
        <time>2022-02-24T12:47:03Z</time>
      </trkpt>
      <trkpt lat="45.94216" lon="5.2423">
        <ele>227</ele>
        <time>2022-02-24T12:47:04Z</time>
      </trkpt>
      <trkpt lat="45.94216" lon="5.24227">
        <ele>227.2</ele>
        <time>2022-02-24T12:47:05Z</time>
      </trkpt>
      <trkpt lat="45.94216" lon="5.24225">
        <ele>227.6</ele>
        <time>2022-02-24T12:47:06Z</time>
      </trkpt>
      <trkpt lat="45.94216" lon="5.24222">
        <ele>227.8</ele>
        <time>2022-02-24T12:47:07Z</time>
      </trkpt>
      <trkpt lat="45.94215" lon="5.24219">
        <ele>228</ele>
        <time>2022-02-24T12:47:08Z</time>
      </trkpt>
      <trkpt lat="45.94215" lon="5.24215">
        <ele>228.4</ele>
        <time>2022-02-24T12:47:09Z</time>
      </trkpt>
      <trkpt lat="45.94215" lon="5.24212">
        <ele>228.6</ele>
        <time>2022-02-24T12:47:10Z</time>
      </trkpt>
      <trkpt lat="45.94214" lon="5.24209">
        <ele>228.8</ele>
        <time>2022-02-24T12:47:11Z</time>
      </trkpt>
      <trkpt lat="45.94214" lon="5.24205">
        <ele>228.8</ele>
        <time>2022-02-24T12:47:12Z</time>
      </trkpt>
      <trkpt lat="45.94214" lon="5.24202">
        <ele>229.4</ele>
        <time>2022-02-24T12:47:13Z</time>
      </trkpt>
      <trkpt lat="45.94214" lon="5.24198">
        <ele>229.6</ele>
        <time>2022-02-24T12:47:14Z</time>
      </trkpt>
      <trkpt lat="45.94213" lon="5.24195">
        <ele>229.8</ele>
        <time>2022-02-24T12:47:15Z</time>
      </trkpt>
      <trkpt lat="45.94213" lon="5.24192">
        <ele>230.2</ele>
        <time>2022-02-24T12:47:16Z</time>
      </trkpt>
      <trkpt lat="45.94212" lon="5.24189">
        <ele>230.4</ele>
        <time>2022-02-24T12:47:17Z</time>
      </trkpt>
      <trkpt lat="45.94211" lon="5.24186">
        <ele>230.8</ele>
        <time>2022-02-24T12:47:18Z</time>
      </trkpt>
      <trkpt lat="45.9421" lon="5.24183">
        <ele>231</ele>
        <time>2022-02-24T12:47:19Z</time>
      </trkpt>
      <trkpt lat="45.94209" lon="5.2418">
        <ele>231.2</ele>
        <time>2022-02-24T12:47:20Z</time>
      </trkpt>
      <trkpt lat="45.94208" lon="5.24177">
        <ele>231.6</ele>
        <time>2022-02-24T12:47:21Z</time>
      </trkpt>
      <trkpt lat="45.94207" lon="5.24174">
        <ele>232</ele>
        <time>2022-02-24T12:47:22Z</time>
      </trkpt>
      <trkpt lat="45.94206" lon="5.24172">
        <ele>232.4</ele>
        <time>2022-02-24T12:47:23Z</time>
      </trkpt>
      <trkpt lat="45.94204" lon="5.2417">
        <ele>232.6</ele>
        <time>2022-02-24T12:47:24Z</time>
      </trkpt>
      <trkpt lat="45.94202" lon="5.24168">
        <ele>233</ele>
        <time>2022-02-24T12:47:25Z</time>
      </trkpt>
      <trkpt lat="45.942" lon="5.24166">
        <ele>233.2</ele>
        <time>2022-02-24T12:47:26Z</time>
      </trkpt>
      <trkpt lat="45.94198" lon="5.24164">
        <ele>233.6</ele>
        <time>2022-02-24T12:47:27Z</time>
      </trkpt>
      <trkpt lat="45.94196" lon="5.24162">
        <ele>233.8</ele>
        <time>2022-02-24T12:47:28Z</time>
      </trkpt>
      <trkpt lat="45.94194" lon="5.2416">
        <ele>234.2</ele>
        <time>2022-02-24T12:47:29Z</time>
      </trkpt>
      <trkpt lat="45.94192" lon="5.24158">
        <ele>234.4</ele>
        <time>2022-02-24T12:47:30Z</time>
      </trkpt>
      <trkpt lat="45.9419" lon="5.24156">
        <ele>234.6</ele>
        <time>2022-02-24T12:47:31Z</time>
      </trkpt>
      <trkpt lat="45.94188" lon="5.24154">
        <ele>234.8</ele>
        <time>2022-02-24T12:47:32Z</time>
      </trkpt>
      <trkpt lat="45.94186" lon="5.24152">
        <ele>235.2</ele>
        <time>2022-02-24T12:47:33Z</time>
      </trkpt>
      <trkpt lat="45.94183" lon="5.24151">
        <ele>235.4</ele>
        <time>2022-02-24T12:47:34Z</time>
      </trkpt>
      <trkpt lat="45.94181" lon="5.24149">
        <ele>235.8</ele>
        <time>2022-02-24T12:47:35Z</time>
      </trkpt>
      <trkpt lat="45.94179" lon="5.24148">
        <ele>236</ele>
        <time>2022-02-24T12:47:36Z</time>
      </trkpt>
      <trkpt lat="45.94178" lon="5.24146">
        <ele>236.2</ele>
        <time>2022-02-24T12:47:37Z</time>
      </trkpt>
      <trkpt lat="45.94176" lon="5.24144">
        <ele>236.6</ele>
        <time>2022-02-24T12:47:38Z</time>
      </trkpt>
      <trkpt lat="45.94174" lon="5.24142">
        <ele>236.8</ele>
        <time>2022-02-24T12:47:39Z</time>
      </trkpt>
      <trkpt lat="45.94172" lon="5.2414">
        <ele>237.2</ele>
        <time>2022-02-24T12:47:40Z</time>
      </trkpt>
      <trkpt lat="45.9417" lon="5.24138">
        <ele>237.4</ele>
        <time>2022-02-24T12:47:41Z</time>
      </trkpt>
      <trkpt lat="45.94168" lon="5.24137">
        <ele>237.8</ele>
        <time>2022-02-24T12:47:42Z</time>
      </trkpt>
      <trkpt lat="45.94167" lon="5.24135">
        <ele>238</ele>
        <time>2022-02-24T12:47:43Z</time>
      </trkpt>
      <trkpt lat="45.94165" lon="5.24134">
        <ele>238.4</ele>
        <time>2022-02-24T12:47:44Z</time>
      </trkpt>
      <trkpt lat="45.94163" lon="5.24132">
        <ele>238.6</ele>
        <time>2022-02-24T12:47:45Z</time>
      </trkpt>
      <trkpt lat="45.94161" lon="5.2413">
        <ele>238.6</ele>
        <time>2022-02-24T12:47:46Z</time>
      </trkpt>
      <trkpt lat="45.9416" lon="5.24128">
        <ele>239</ele>
        <time>2022-02-24T12:47:47Z</time>
      </trkpt>
      <trkpt lat="45.94158" lon="5.24126">
        <ele>239</ele>
        <time>2022-02-24T12:47:48Z</time>
      </trkpt>
      <trkpt lat="45.94157" lon="5.24124">
        <ele>239.4</ele>
        <time>2022-02-24T12:47:49Z</time>
      </trkpt>
      <trkpt lat="45.94156" lon="5.24122">
        <ele>239.8</ele>
        <time>2022-02-24T12:47:50Z</time>
      </trkpt>
      <trkpt lat="45.94155" lon="5.2412">
        <ele>240</ele>
        <time>2022-02-24T12:47:51Z</time>
      </trkpt>
      <trkpt lat="45.94153" lon="5.24118">
        <ele>240.2</ele>
        <time>2022-02-24T12:47:52Z</time>
      </trkpt>
      <trkpt lat="45.94151" lon="5.24117">
        <ele>240.4</ele>
        <time>2022-02-24T12:47:53Z</time>
      </trkpt>
      <trkpt lat="45.9415" lon="5.24115">
        <ele>240.8</ele>
        <time>2022-02-24T12:47:54Z</time>
      </trkpt>
      <trkpt lat="45.94148" lon="5.24113">
        <ele>241</ele>
        <time>2022-02-24T12:47:55Z</time>
      </trkpt>
      <trkpt lat="45.94146" lon="5.24111">
        <ele>241.2</ele>
        <time>2022-02-24T12:47:56Z</time>
      </trkpt>
      <trkpt lat="45.94145" lon="5.2411">
        <ele>241.6</ele>
        <time>2022-02-24T12:47:57Z</time>
      </trkpt>
      <trkpt lat="45.94143" lon="5.24108">
        <ele>241.8</ele>
        <time>2022-02-24T12:47:58Z</time>
      </trkpt>
      <trkpt lat="45.94141" lon="5.24106">
        <ele>242.2</ele>
        <time>2022-02-24T12:47:59Z</time>
      </trkpt>
      <trkpt lat="45.94139" lon="5.24105">
        <ele>242.4</ele>
        <time>2022-02-24T12:48:00Z</time>
      </trkpt>
      <trkpt lat="45.94138" lon="5.24104">
        <ele>242.6</ele>
        <time>2022-02-24T12:48:01Z</time>
      </trkpt>
      <trkpt lat="45.94136" lon="5.24103">
        <ele>242.8</ele>
        <time>2022-02-24T12:48:02Z</time>
      </trkpt>
      <trkpt lat="45.94134" lon="5.24101">
        <ele>243</ele>
        <time>2022-02-24T12:48:03Z</time>
      </trkpt>
      <trkpt lat="45.94132" lon="5.241">
        <ele>243.2</ele>
        <time>2022-02-24T12:48:04Z</time>
      </trkpt>
      <trkpt lat="45.94131" lon="5.24099">
        <ele>243.6</ele>
        <time>2022-02-24T12:48:05Z</time>
      </trkpt>
      <trkpt lat="45.94129" lon="5.24098">
        <ele>243.8</ele>
        <time>2022-02-24T12:48:06Z</time>
      </trkpt>
      <trkpt lat="45.94127" lon="5.24098">
        <ele>244</ele>
        <time>2022-02-24T12:48:07Z</time>
      </trkpt>
      <trkpt lat="45.94126" lon="5.24098">
        <ele>244.4</ele>
        <time>2022-02-24T12:48:08Z</time>
      </trkpt>
      <trkpt lat="45.94125" lon="5.24097">
        <ele>244.6</ele>
        <time>2022-02-24T12:48:09Z</time>
      </trkpt>
      <trkpt lat="45.94123" lon="5.24097">
        <ele>245</ele>
        <time>2022-02-24T12:48:10Z</time>
      </trkpt>
      <trkpt lat="45.94121" lon="5.24096">
        <ele>245.2</ele>
        <time>2022-02-24T12:48:11Z</time>
      </trkpt>
      <trkpt lat="45.94119" lon="5.24096">
        <ele>245.4</ele>
        <time>2022-02-24T12:48:12Z</time>
      </trkpt>
      <trkpt lat="45.94117" lon="5.24096">
        <ele>245.8</ele>
        <time>2022-02-24T12:48:13Z</time>
      </trkpt>
      <trkpt lat="45.94115" lon="5.24096">
        <ele>246</ele>
        <time>2022-02-24T12:48:14Z</time>
      </trkpt>
      <trkpt lat="45.94113" lon="5.24096">
        <ele>246.2</ele>
        <time>2022-02-24T12:48:15Z</time>
      </trkpt>
      <trkpt lat="45.94112" lon="5.24095">
        <ele>246.4</ele>
        <time>2022-02-24T12:48:16Z</time>
      </trkpt>
      <trkpt lat="45.9411" lon="5.24095">
        <ele>246.6</ele>
        <time>2022-02-24T12:48:17Z</time>
      </trkpt>
      <trkpt lat="45.94108" lon="5.24095">
        <ele>246.6</ele>
        <time>2022-02-24T12:48:18Z</time>
      </trkpt>
      <trkpt lat="45.94106" lon="5.24095">
        <ele>247</ele>
        <time>2022-02-24T12:48:19Z</time>
      </trkpt>
      <trkpt lat="45.94104" lon="5.24095">
        <ele>247.4</ele>
        <time>2022-02-24T12:48:20Z</time>
      </trkpt>
      <trkpt lat="45.94103" lon="5.24095">
        <ele>247.6</ele>
        <time>2022-02-24T12:48:21Z</time>
      </trkpt>
      <trkpt lat="45.94101" lon="5.24095">
        <ele>247.8</ele>
        <time>2022-02-24T12:48:22Z</time>
      </trkpt>
      <trkpt lat="45.941" lon="5.24095">
        <ele>248</ele>
        <time>2022-02-24T12:48:23Z</time>
      </trkpt>
      <trkpt lat="45.94098" lon="5.24095">
        <ele>248.2</ele>
        <time>2022-02-24T12:48:24Z</time>
      </trkpt>
      <trkpt lat="45.94096" lon="5.24095">
        <ele>248.6</ele>
        <time>2022-02-24T12:48:25Z</time>
      </trkpt>
      <trkpt lat="45.94094" lon="5.24095">
        <ele>248.8</ele>
        <time>2022-02-24T12:48:26Z</time>
      </trkpt>
      <trkpt lat="45.94092" lon="5.24094">
        <ele>249.2</ele>
        <time>2022-02-24T12:48:27Z</time>
      </trkpt>
      <trkpt lat="45.9409" lon="5.24094">
        <ele>249.4</ele>
        <time>2022-02-24T12:48:28Z</time>
      </trkpt>
      <trkpt lat="45.94088" lon="5.24094">
        <ele>249.4</ele>
        <time>2022-02-24T12:48:29Z</time>
      </trkpt>
      <trkpt lat="45.94087" lon="5.24094">
        <ele>249.8</ele>
        <time>2022-02-24T12:48:30Z</time>
      </trkpt>
      <trkpt lat="45.94085" lon="5.24094">
        <ele>249.8</ele>
        <time>2022-02-24T12:48:31Z</time>
      </trkpt>
      <trkpt lat="45.94083" lon="5.24094">
        <ele>250.2</ele>
        <time>2022-02-24T12:48:32Z</time>
      </trkpt>
      <trkpt lat="45.94082" lon="5.24093">
        <ele>250.2</ele>
        <time>2022-02-24T12:48:33Z</time>
      </trkpt>
      <trkpt lat="45.9408" lon="5.24093">
        <ele>250.6</ele>
        <time>2022-02-24T12:48:34Z</time>
      </trkpt>
      <trkpt lat="45.94078" lon="5.24093">
        <ele>250.8</ele>
        <time>2022-02-24T12:48:35Z</time>
      </trkpt>
      <trkpt lat="45.94077" lon="5.24093">
        <ele>251</ele>
        <time>2022-02-24T12:48:36Z</time>
      </trkpt>
      <trkpt lat="45.94076" lon="5.24093">
        <ele>251.2</ele>
        <time>2022-02-24T12:48:37Z</time>
      </trkpt>
      <trkpt lat="45.94074" lon="5.24093">
        <ele>251.2</ele>
        <time>2022-02-24T12:48:38Z</time>
      </trkpt>
      <trkpt lat="45.94072" lon="5.24092">
        <ele>251.6</ele>
        <time>2022-02-24T12:48:39Z</time>
      </trkpt>
      <trkpt lat="45.94071" lon="5.24092">
        <ele>251.8</ele>
        <time>2022-02-24T12:48:40Z</time>
      </trkpt>
      <trkpt lat="45.94069" lon="5.24092">
        <ele>252.2</ele>
        <time>2022-02-24T12:48:41Z</time>
      </trkpt>
      <trkpt lat="45.94067" lon="5.24092">
        <ele>252.4</ele>
        <time>2022-02-24T12:48:42Z</time>
      </trkpt>
      <trkpt lat="45.94065" lon="5.24091">
        <ele>252.8</ele>
        <time>2022-02-24T12:48:43Z</time>
      </trkpt>
      <trkpt lat="45.94063" lon="5.24091">
        <ele>253</ele>
        <time>2022-02-24T12:48:44Z</time>
      </trkpt>
      <trkpt lat="45.94062" lon="5.24091">
        <ele>253.4</ele>
        <time>2022-02-24T12:48:45Z</time>
      </trkpt>
      <trkpt lat="45.9406" lon="5.24091">
        <ele>253.4</ele>
        <time>2022-02-24T12:48:46Z</time>
      </trkpt>
      <trkpt lat="45.94058" lon="5.24091">
        <ele>253.8</ele>
        <time>2022-02-24T12:48:47Z</time>
      </trkpt>
      <trkpt lat="45.94056" lon="5.2409">
        <ele>254</ele>
        <time>2022-02-24T12:48:48Z</time>
      </trkpt>
      <trkpt lat="45.94054" lon="5.24089">
        <ele>254.2</ele>
        <time>2022-02-24T12:48:49Z</time>
      </trkpt>
      <trkpt lat="45.94052" lon="5.24089">
        <ele>254.6</ele>
        <time>2022-02-24T12:48:50Z</time>
      </trkpt>
      <trkpt lat="45.94049" lon="5.24088">
        <ele>254.8</ele>
        <time>2022-02-24T12:48:51Z</time>
      </trkpt>
      <trkpt lat="45.94047" lon="5.24088">
        <ele>255</ele>
        <time>2022-02-24T12:48:52Z</time>
      </trkpt>
      <trkpt lat="45.94045" lon="5.24088">
        <ele>255.4</ele>
        <time>2022-02-24T12:48:53Z</time>
      </trkpt>
      <trkpt lat="45.94044" lon="5.24087">
        <ele>255.6</ele>
        <time>2022-02-24T12:48:54Z</time>
      </trkpt>
      <trkpt lat="45.94042" lon="5.24088">
        <ele>255.8</ele>
        <time>2022-02-24T12:48:55Z</time>
      </trkpt>
      <trkpt lat="45.9404" lon="5.24088">
        <ele>256.2</ele>
        <time>2022-02-24T12:48:56Z</time>
      </trkpt>
      <trkpt lat="45.94038" lon="5.24088">
        <ele>256.2</ele>
        <time>2022-02-24T12:48:57Z</time>
      </trkpt>
      <trkpt lat="45.94036" lon="5.24088">
        <ele>256.6</ele>
        <time>2022-02-24T12:48:58Z</time>
      </trkpt>
      <trkpt lat="45.94035" lon="5.24088">
        <ele>256.8</ele>
        <time>2022-02-24T12:48:59Z</time>
      </trkpt>
      <trkpt lat="45.94033" lon="5.24087">
        <ele>256.8</ele>
        <time>2022-02-24T12:49:00Z</time>
      </trkpt>
      <trkpt lat="45.94031" lon="5.24087">
        <ele>257.2</ele>
        <time>2022-02-24T12:49:01Z</time>
      </trkpt>
      <trkpt lat="45.94029" lon="5.24086">
        <ele>257.2</ele>
        <time>2022-02-24T12:49:02Z</time>
      </trkpt>
      <trkpt lat="45.94027" lon="5.24086">
        <ele>257.4</ele>
        <time>2022-02-24T12:49:03Z</time>
      </trkpt>
      <trkpt lat="45.94025" lon="5.24086">
        <ele>257.4</ele>
        <time>2022-02-24T12:49:04Z</time>
      </trkpt>
      <trkpt lat="45.94023" lon="5.24086">
        <ele>257.8</ele>
        <time>2022-02-24T12:49:05Z</time>
      </trkpt>
      <trkpt lat="45.94021" lon="5.24086">
        <ele>257.8</ele>
        <time>2022-02-24T12:49:06Z</time>
      </trkpt>
      <trkpt lat="45.94019" lon="5.24086">
        <ele>258.2</ele>
        <time>2022-02-24T12:49:07Z</time>
      </trkpt>
      <trkpt lat="45.94017" lon="5.24086">
        <ele>258.6</ele>
        <time>2022-02-24T12:49:08Z</time>
      </trkpt>
      <trkpt lat="45.94015" lon="5.24086">
        <ele>259</ele>
        <time>2022-02-24T12:49:09Z</time>
      </trkpt>
      <trkpt lat="45.94013" lon="5.24086">
        <ele>259.2</ele>
        <time>2022-02-24T12:49:10Z</time>
      </trkpt>
      <trkpt lat="45.94011" lon="5.24086">
        <ele>259.4</ele>
        <time>2022-02-24T12:49:11Z</time>
      </trkpt>
      <trkpt lat="45.94008" lon="5.24086">
        <ele>259.8</ele>
        <time>2022-02-24T12:49:12Z</time>
      </trkpt>
      <trkpt lat="45.94006" lon="5.24085">
        <ele>260</ele>
        <time>2022-02-24T12:49:13Z</time>
      </trkpt>
      <trkpt lat="45.94004" lon="5.24085">
        <ele>260.2</ele>
        <time>2022-02-24T12:49:14Z</time>
      </trkpt>
      <trkpt lat="45.94002" lon="5.24085">
        <ele>260.4</ele>
        <time>2022-02-24T12:49:15Z</time>
      </trkpt>
      <trkpt lat="45.94" lon="5.24086">
        <ele>260.6</ele>
        <time>2022-02-24T12:49:16Z</time>
      </trkpt>
      <trkpt lat="45.93998" lon="5.24086">
        <ele>261</ele>
        <time>2022-02-24T12:49:17Z</time>
      </trkpt>
      <trkpt lat="45.93995" lon="5.24086">
        <ele>261.4</ele>
        <time>2022-02-24T12:49:18Z</time>
      </trkpt>
      <trkpt lat="45.93993" lon="5.24086">
        <ele>261.8</ele>
        <time>2022-02-24T12:49:19Z</time>
      </trkpt>
      <trkpt lat="45.93992" lon="5.24086">
        <ele>262.2</ele>
        <time>2022-02-24T12:49:20Z</time>
      </trkpt>
      <trkpt lat="45.9399" lon="5.24086">
        <ele>262.6</ele>
        <time>2022-02-24T12:49:21Z</time>
      </trkpt>
      <trkpt lat="45.93988" lon="5.24087">
        <ele>263.2</ele>
        <time>2022-02-24T12:49:22Z</time>
      </trkpt>
      <trkpt lat="45.93986" lon="5.24087">
        <ele>263.4</ele>
        <time>2022-02-24T12:49:23Z</time>
      </trkpt>
      <trkpt lat="45.93985" lon="5.24087">
        <ele>263.8</ele>
        <time>2022-02-24T12:49:24Z</time>
      </trkpt>
      <trkpt lat="45.93983" lon="5.24087">
        <ele>264</ele>
        <time>2022-02-24T12:49:25Z</time>
      </trkpt>
      <trkpt lat="45.93981" lon="5.24087">
        <ele>264.2</ele>
        <time>2022-02-24T12:49:26Z</time>
      </trkpt>
      <trkpt lat="45.9398" lon="5.24088">
        <ele>264.4</ele>
        <time>2022-02-24T12:49:27Z</time>
      </trkpt>
      <trkpt lat="45.93978" lon="5.24088">
        <ele>264.6</ele>
        <time>2022-02-24T12:49:28Z</time>
      </trkpt>
      <trkpt lat="45.93976" lon="5.24089">
        <ele>264.6</ele>
        <time>2022-02-24T12:49:29Z</time>
      </trkpt>
      <trkpt lat="45.93974" lon="5.24089">
        <ele>265</ele>
        <time>2022-02-24T12:49:30Z</time>
      </trkpt>
      <trkpt lat="45.93972" lon="5.24089">
        <ele>265.2</ele>
        <time>2022-02-24T12:49:31Z</time>
      </trkpt>
      <trkpt lat="45.93971" lon="5.2409">
        <ele>265.2</ele>
        <time>2022-02-24T12:49:32Z</time>
      </trkpt>
      <trkpt lat="45.93969" lon="5.2409">
        <ele>265.6</ele>
        <time>2022-02-24T12:49:33Z</time>
      </trkpt>
      <trkpt lat="45.93967" lon="5.2409">
        <ele>265.8</ele>
        <time>2022-02-24T12:49:34Z</time>
      </trkpt>
      <trkpt lat="45.93965" lon="5.24091">
        <ele>266.2</ele>
        <time>2022-02-24T12:49:35Z</time>
      </trkpt>
      <trkpt lat="45.93964" lon="5.24091">
        <ele>266.4</ele>
        <time>2022-02-24T12:49:36Z</time>
      </trkpt>
      <trkpt lat="45.93962" lon="5.24092">
        <ele>266.4</ele>
        <time>2022-02-24T12:49:37Z</time>
      </trkpt>
      <trkpt lat="45.9396" lon="5.24092">
        <ele>266.8</ele>
        <time>2022-02-24T12:49:38Z</time>
      </trkpt>
      <trkpt lat="45.93959" lon="5.24092">
        <ele>267</ele>
        <time>2022-02-24T12:49:39Z</time>
      </trkpt>
      <trkpt lat="45.93957" lon="5.24092">
        <ele>267.2</ele>
        <time>2022-02-24T12:49:40Z</time>
      </trkpt>
      <trkpt lat="45.93957" lon="5.24092">
        <ele>267.6</ele>
        <time>2022-02-24T12:49:41Z</time>
      </trkpt>
      <trkpt lat="45.93956" lon="5.24092">
        <ele>267.6</ele>
        <time>2022-02-24T12:49:42Z</time>
      </trkpt>
      <trkpt lat="45.93955" lon="5.24092">
        <ele>268</ele>
        <time>2022-02-24T12:49:43Z</time>
      </trkpt>
      <trkpt lat="45.93954" lon="5.24091">
        <ele>268</ele>
        <time>2022-02-24T12:49:44Z</time>
      </trkpt>
      <trkpt lat="45.93952" lon="5.24091">
        <ele>268.2</ele>
        <time>2022-02-24T12:49:45Z</time>
      </trkpt>
      <trkpt lat="45.9395" lon="5.2409">
        <ele>268.6</ele>
        <time>2022-02-24T12:49:46Z</time>
      </trkpt>
      <trkpt lat="45.93949" lon="5.24091">
        <ele>268.8</ele>
        <time>2022-02-24T12:49:47Z</time>
      </trkpt>
      <trkpt lat="45.93947" lon="5.2409">
        <ele>269</ele>
        <time>2022-02-24T12:49:48Z</time>
      </trkpt>
      <trkpt lat="45.93946" lon="5.2409">
        <ele>269.2</ele>
        <time>2022-02-24T12:49:49Z</time>
      </trkpt>
      <trkpt lat="45.93942" lon="5.2409">
        <ele>269.2</ele>
        <time>2022-02-24T12:49:50Z</time>
      </trkpt>
      <trkpt lat="45.93941" lon="5.2409">
        <ele>269.6</ele>
        <time>2022-02-24T12:49:51Z</time>
      </trkpt>
      <trkpt lat="45.93939" lon="5.24091">
        <ele>269.8</ele>
        <time>2022-02-24T12:49:52Z</time>
      </trkpt>
      <trkpt lat="45.93937" lon="5.2409">
        <ele>269.8</ele>
        <time>2022-02-24T12:49:53Z</time>
      </trkpt>
      <trkpt lat="45.93936" lon="5.2409">
        <ele>270.2</ele>
        <time>2022-02-24T12:49:54Z</time>
      </trkpt>
      <trkpt lat="45.93935" lon="5.2409">
        <ele>270.4</ele>
        <time>2022-02-24T12:49:55Z</time>
      </trkpt>
      <trkpt lat="45.93933" lon="5.24089">
        <ele>270.6</ele>
        <time>2022-02-24T12:49:56Z</time>
      </trkpt>
      <trkpt lat="45.93931" lon="5.24089">
        <ele>270.6</ele>
        <time>2022-02-24T12:49:57Z</time>
      </trkpt>
      <trkpt lat="45.9393" lon="5.24089">
        <ele>271</ele>
        <time>2022-02-24T12:49:58Z</time>
      </trkpt>
      <trkpt lat="45.93928" lon="5.24088">
        <ele>271</ele>
        <time>2022-02-24T12:49:59Z</time>
      </trkpt>
      <trkpt lat="45.93926" lon="5.24089">
        <ele>271.4</ele>
        <time>2022-02-24T12:50:00Z</time>
      </trkpt>
      <trkpt lat="45.93924" lon="5.24089">
        <ele>271.4</ele>
        <time>2022-02-24T12:50:01Z</time>
      </trkpt>
      <trkpt lat="45.93922" lon="5.24089">
        <ele>271.6</ele>
        <time>2022-02-24T12:50:02Z</time>
      </trkpt>
      <trkpt lat="45.93921" lon="5.24088">
        <ele>271.6</ele>
        <time>2022-02-24T12:50:03Z</time>
      </trkpt>
      <trkpt lat="45.93919" lon="5.24088">
        <ele>271.8</ele>
        <time>2022-02-24T12:50:04Z</time>
      </trkpt>
      <trkpt lat="45.93917" lon="5.24087">
        <ele>271.8</ele>
        <time>2022-02-24T12:50:05Z</time>
      </trkpt>
      <trkpt lat="45.93916" lon="5.24087">
        <ele>272</ele>
        <time>2022-02-24T12:50:06Z</time>
      </trkpt>
      <trkpt lat="45.93914" lon="5.24087">
        <ele>272</ele>
        <time>2022-02-24T12:50:07Z</time>
      </trkpt>
      <trkpt lat="45.93913" lon="5.24087">
        <ele>272.4</ele>
        <time>2022-02-24T12:50:08Z</time>
      </trkpt>
      <trkpt lat="45.93911" lon="5.24086">
        <ele>272.4</ele>
        <time>2022-02-24T12:50:09Z</time>
      </trkpt>
      <trkpt lat="45.93909" lon="5.24086">
        <ele>272.8</ele>
        <time>2022-02-24T12:50:10Z</time>
      </trkpt>
      <trkpt lat="45.93908" lon="5.24086">
        <ele>273</ele>
        <time>2022-02-24T12:50:11Z</time>
      </trkpt>
      <trkpt lat="45.93906" lon="5.24086">
        <ele>273.2</ele>
        <time>2022-02-24T12:50:12Z</time>
      </trkpt>
      <trkpt lat="45.93904" lon="5.24085">
        <ele>273.4</ele>
        <time>2022-02-24T12:50:13Z</time>
      </trkpt>
      <trkpt lat="45.93902" lon="5.24084">
        <ele>273.4</ele>
        <time>2022-02-24T12:50:14Z</time>
      </trkpt>
      <trkpt lat="45.939" lon="5.24083">
        <ele>273.8</ele>
        <time>2022-02-24T12:50:15Z</time>
      </trkpt>
      <trkpt lat="45.93898" lon="5.24083">
        <ele>274</ele>
        <time>2022-02-24T12:50:16Z</time>
      </trkpt>
      <trkpt lat="45.93896" lon="5.24082">
        <ele>274</ele>
        <time>2022-02-24T12:50:17Z</time>
      </trkpt>
      <trkpt lat="45.93895" lon="5.24081">
        <ele>274.4</ele>
        <time>2022-02-24T12:50:18Z</time>
      </trkpt>
      <trkpt lat="45.93893" lon="5.2408">
        <ele>274.4</ele>
        <time>2022-02-24T12:50:19Z</time>
      </trkpt>
      <trkpt lat="45.93891" lon="5.24079">
        <ele>274.6</ele>
        <time>2022-02-24T12:50:20Z</time>
      </trkpt>
      <trkpt lat="45.93889" lon="5.24078">
        <ele>274.8</ele>
        <time>2022-02-24T12:50:21Z</time>
      </trkpt>
      <trkpt lat="45.93887" lon="5.24077">
        <ele>275.2</ele>
        <time>2022-02-24T12:50:22Z</time>
      </trkpt>
      <trkpt lat="45.93885" lon="5.24076">
        <ele>275.6</ele>
        <time>2022-02-24T12:50:23Z</time>
      </trkpt>
      <trkpt lat="45.93882" lon="5.24076">
        <ele>275.6</ele>
        <time>2022-02-24T12:50:24Z</time>
      </trkpt>
      <trkpt lat="45.9388" lon="5.24075">
        <ele>276</ele>
        <time>2022-02-24T12:50:25Z</time>
      </trkpt>
      <trkpt lat="45.93878" lon="5.24075">
        <ele>276</ele>
        <time>2022-02-24T12:50:26Z</time>
      </trkpt>
      <trkpt lat="45.93876" lon="5.24074">
        <ele>276.2</ele>
        <time>2022-02-24T12:50:27Z</time>
      </trkpt>
      <trkpt lat="45.93874" lon="5.24074">
        <ele>276.2</ele>
        <time>2022-02-24T12:50:28Z</time>
      </trkpt>
      <trkpt lat="45.93872" lon="5.24074">
        <ele>276.6</ele>
        <time>2022-02-24T12:50:29Z</time>
      </trkpt>
      <trkpt lat="45.9387" lon="5.24073">
        <ele>276.8</ele>
        <time>2022-02-24T12:50:30Z</time>
      </trkpt>
      <trkpt lat="45.93867" lon="5.24072">
        <ele>276.8</ele>
        <time>2022-02-24T12:50:31Z</time>
      </trkpt>
      <trkpt lat="45.93866" lon="5.24072">
        <ele>277.2</ele>
        <time>2022-02-24T12:50:32Z</time>
      </trkpt>
      <trkpt lat="45.93864" lon="5.24071">
        <ele>277.2</ele>
        <time>2022-02-24T12:50:33Z</time>
      </trkpt>
      <trkpt lat="45.93862" lon="5.24069">
        <ele>277.6</ele>
        <time>2022-02-24T12:50:34Z</time>
      </trkpt>
      <trkpt lat="45.9386" lon="5.24068">
        <ele>277.6</ele>
        <time>2022-02-24T12:50:35Z</time>
      </trkpt>
      <trkpt lat="45.93858" lon="5.24066">
        <ele>278</ele>
        <time>2022-02-24T12:50:36Z</time>
      </trkpt>
      <trkpt lat="45.93856" lon="5.24065">
        <ele>278.2</ele>
        <time>2022-02-24T12:50:37Z</time>
      </trkpt>
      <trkpt lat="45.93854" lon="5.24064">
        <ele>278.4</ele>
        <time>2022-02-24T12:50:38Z</time>
      </trkpt>
      <trkpt lat="45.93852" lon="5.24062">
        <ele>278.6</ele>
        <time>2022-02-24T12:50:39Z</time>
      </trkpt>
      <trkpt lat="45.9385" lon="5.24061">
        <ele>278.8</ele>
        <time>2022-02-24T12:50:40Z</time>
      </trkpt>
      <trkpt lat="45.93849" lon="5.2406">
        <ele>279</ele>
        <time>2022-02-24T12:50:41Z</time>
      </trkpt>
      <trkpt lat="45.93847" lon="5.24059">
        <ele>279</ele>
        <time>2022-02-24T12:50:42Z</time>
      </trkpt>
      <trkpt lat="45.93845" lon="5.24057">
        <ele>279.4</ele>
        <time>2022-02-24T12:50:43Z</time>
      </trkpt>
      <trkpt lat="45.93844" lon="5.24056">
        <ele>279.6</ele>
        <time>2022-02-24T12:50:44Z</time>
      </trkpt>
      <trkpt lat="45.93843" lon="5.24055">
        <ele>279.6</ele>
        <time>2022-02-24T12:50:45Z</time>
      </trkpt>
      <trkpt lat="45.93841" lon="5.24054">
        <ele>280.2</ele>
        <time>2022-02-24T12:50:46Z</time>
      </trkpt>
      <trkpt lat="45.9384" lon="5.24053">
        <ele>280.4</ele>
        <time>2022-02-24T12:50:47Z</time>
      </trkpt>
      <trkpt lat="45.93839" lon="5.24052">
        <ele>280.6</ele>
        <time>2022-02-24T12:50:48Z</time>
      </trkpt>
      <trkpt lat="45.93837" lon="5.24051">
        <ele>280.6</ele>
        <time>2022-02-24T12:50:49Z</time>
      </trkpt>
      <trkpt lat="45.93835" lon="5.2405">
        <ele>280.8</ele>
        <time>2022-02-24T12:50:50Z</time>
      </trkpt>
      <trkpt lat="45.93834" lon="5.24049">
        <ele>280.8</ele>
        <time>2022-02-24T12:50:51Z</time>
      </trkpt>
      <trkpt lat="45.93832" lon="5.24048">
        <ele>281</ele>
        <time>2022-02-24T12:50:52Z</time>
      </trkpt>
      <trkpt lat="45.93831" lon="5.24046">
        <ele>281</ele>
        <time>2022-02-24T12:50:53Z</time>
      </trkpt>
      <trkpt lat="45.93829" lon="5.24045">
        <ele>281.4</ele>
        <time>2022-02-24T12:50:54Z</time>
      </trkpt>
      <trkpt lat="45.93828" lon="5.24044">
        <ele>281.4</ele>
        <time>2022-02-24T12:50:55Z</time>
      </trkpt>
      <trkpt lat="45.93827" lon="5.24043">
        <ele>281.6</ele>
        <time>2022-02-24T12:50:56Z</time>
      </trkpt>
      <trkpt lat="45.93826" lon="5.24041">
        <ele>282</ele>
        <time>2022-02-24T12:50:57Z</time>
      </trkpt>
      <trkpt lat="45.93825" lon="5.2404">
        <ele>282</ele>
        <time>2022-02-24T12:50:58Z</time>
      </trkpt>
      <trkpt lat="45.93823" lon="5.24039">
        <ele>282.2</ele>
        <time>2022-02-24T12:50:59Z</time>
      </trkpt>
      <trkpt lat="45.93822" lon="5.24038">
        <ele>282.2</ele>
        <time>2022-02-24T12:51:00Z</time>
      </trkpt>
      <trkpt lat="45.93821" lon="5.24037">
        <ele>282.6</ele>
        <time>2022-02-24T12:51:01Z</time>
      </trkpt>
      <trkpt lat="45.93819" lon="5.24036">
        <ele>282.6</ele>
        <time>2022-02-24T12:51:02Z</time>
      </trkpt>
      <trkpt lat="45.93818" lon="5.24034">
        <ele>283</ele>
        <time>2022-02-24T12:51:03Z</time>
      </trkpt>
      <trkpt lat="45.93817" lon="5.24032">
        <ele>283.2</ele>
        <time>2022-02-24T12:51:04Z</time>
      </trkpt>
      <trkpt lat="45.93816" lon="5.2403">
        <ele>283.6</ele>
        <time>2022-02-24T12:51:05Z</time>
      </trkpt>
      <trkpt lat="45.93814" lon="5.24027">
        <ele>283.8</ele>
        <time>2022-02-24T12:51:06Z</time>
      </trkpt>
      <trkpt lat="45.93813" lon="5.24025">
        <ele>284</ele>
        <time>2022-02-24T12:51:07Z</time>
      </trkpt>
      <trkpt lat="45.93811" lon="5.24022">
        <ele>284</ele>
        <time>2022-02-24T12:51:08Z</time>
      </trkpt>
      <trkpt lat="45.9381" lon="5.2402">
        <ele>284.4</ele>
        <time>2022-02-24T12:51:09Z</time>
      </trkpt>
      <trkpt lat="45.93808" lon="5.24018">
        <ele>284.4</ele>
        <time>2022-02-24T12:51:10Z</time>
      </trkpt>
      <trkpt lat="45.93807" lon="5.24017">
        <ele>284.6</ele>
        <time>2022-02-24T12:51:11Z</time>
      </trkpt>
      <trkpt lat="45.93806" lon="5.24015">
        <ele>284.6</ele>
        <time>2022-02-24T12:51:12Z</time>
      </trkpt>
      <trkpt lat="45.93804" lon="5.24013">
        <ele>285</ele>
        <time>2022-02-24T12:51:13Z</time>
      </trkpt>
      <trkpt lat="45.93803" lon="5.24011">
        <ele>285.2</ele>
        <time>2022-02-24T12:51:14Z</time>
      </trkpt>
      <trkpt lat="45.93802" lon="5.24009">
        <ele>285.4</ele>
        <time>2022-02-24T12:51:15Z</time>
      </trkpt>
      <trkpt lat="45.93801" lon="5.24006">
        <ele>285.6</ele>
        <time>2022-02-24T12:51:16Z</time>
      </trkpt>
      <trkpt lat="45.938" lon="5.24004">
        <ele>285.8</ele>
        <time>2022-02-24T12:51:17Z</time>
      </trkpt>
      <trkpt lat="45.93798" lon="5.24001">
        <ele>285.8</ele>
        <time>2022-02-24T12:51:18Z</time>
      </trkpt>
      <trkpt lat="45.93797" lon="5.23998">
        <ele>286.2</ele>
        <time>2022-02-24T12:51:19Z</time>
      </trkpt>
      <trkpt lat="45.93795" lon="5.23996">
        <ele>286.2</ele>
        <time>2022-02-24T12:51:20Z</time>
      </trkpt>
      <trkpt lat="45.93794" lon="5.23994">
        <ele>286.6</ele>
        <time>2022-02-24T12:51:21Z</time>
      </trkpt>
      <trkpt lat="45.93792" lon="5.23991">
        <ele>286.8</ele>
        <time>2022-02-24T12:51:22Z</time>
      </trkpt>
      <trkpt lat="45.93791" lon="5.23988">
        <ele>286.8</ele>
        <time>2022-02-24T12:51:23Z</time>
      </trkpt>
      <trkpt lat="45.93789" lon="5.23985">
        <ele>287.2</ele>
        <time>2022-02-24T12:51:24Z</time>
      </trkpt>
      <trkpt lat="45.93787" lon="5.23982">
        <ele>287.2</ele>
        <time>2022-02-24T12:51:25Z</time>
      </trkpt>
      <trkpt lat="45.93785" lon="5.23979">
        <ele>287.4</ele>
        <time>2022-02-24T12:51:26Z</time>
      </trkpt>
      <trkpt lat="45.93784" lon="5.23976">
        <ele>287.4</ele>
        <time>2022-02-24T12:51:27Z</time>
      </trkpt>
      <trkpt lat="45.93782" lon="5.23973">
        <ele>287.4</ele>
        <time>2022-02-24T12:51:28Z</time>
      </trkpt>
      <trkpt lat="45.93779" lon="5.2397">
        <ele>287.4</ele>
        <time>2022-02-24T12:51:29Z</time>
      </trkpt>
      <trkpt lat="45.93777" lon="5.23967">
        <ele>287.4</ele>
        <time>2022-02-24T12:51:30Z</time>
      </trkpt>
      <trkpt lat="45.93776" lon="5.23964">
        <ele>287.4</ele>
        <time>2022-02-24T12:51:31Z</time>
      </trkpt>
      <trkpt lat="45.93774" lon="5.2396">
        <ele>287.4</ele>
        <time>2022-02-24T12:51:32Z</time>
      </trkpt>
      <trkpt lat="45.93772" lon="5.23957">
        <ele>287.4</ele>
        <time>2022-02-24T12:51:33Z</time>
      </trkpt>
      <trkpt lat="45.9377" lon="5.23953">
        <ele>287.4</ele>
        <time>2022-02-24T12:51:34Z</time>
      </trkpt>
      <trkpt lat="45.93768" lon="5.2395">
        <ele>287.4</ele>
        <time>2022-02-24T12:51:35Z</time>
      </trkpt>
      <trkpt lat="45.93765" lon="5.23946">
        <ele>287.4</ele>
        <time>2022-02-24T12:51:36Z</time>
      </trkpt>
      <trkpt lat="45.93763" lon="5.23941">
        <ele>287.4</ele>
        <time>2022-02-24T12:51:37Z</time>
      </trkpt>
      <trkpt lat="45.9376" lon="5.23936">
        <ele>287.2</ele>
        <time>2022-02-24T12:51:38Z</time>
      </trkpt>
      <trkpt lat="45.93757" lon="5.23931">
        <ele>287.2</ele>
        <time>2022-02-24T12:51:39Z</time>
      </trkpt>
      <trkpt lat="45.93754" lon="5.23926">
        <ele>287</ele>
        <time>2022-02-24T12:51:40Z</time>
      </trkpt>
      <trkpt lat="45.93751" lon="5.2392">
        <ele>287</ele>
        <time>2022-02-24T12:51:41Z</time>
      </trkpt>
      <trkpt lat="45.93748" lon="5.23915">
        <ele>287</ele>
        <time>2022-02-24T12:51:42Z</time>
      </trkpt>
      <trkpt lat="45.93744" lon="5.23909">
        <ele>286.6</ele>
        <time>2022-02-24T12:51:43Z</time>
      </trkpt>
      <trkpt lat="45.93741" lon="5.23903">
        <ele>286.6</ele>
        <time>2022-02-24T12:51:44Z</time>
      </trkpt>
      <trkpt lat="45.93737" lon="5.23897">
        <ele>286.6</ele>
        <time>2022-02-24T12:51:45Z</time>
      </trkpt>
      <trkpt lat="45.93734" lon="5.2389">
        <ele>286.6</ele>
        <time>2022-02-24T12:51:46Z</time>
      </trkpt>
      <trkpt lat="45.9373" lon="5.23884">
        <ele>286.4</ele>
        <time>2022-02-24T12:51:47Z</time>
      </trkpt>
      <trkpt lat="45.93726" lon="5.23878">
        <ele>286.4</ele>
        <time>2022-02-24T12:51:48Z</time>
      </trkpt>
      <trkpt lat="45.93723" lon="5.23872">
        <ele>286.2</ele>
        <time>2022-02-24T12:51:49Z</time>
      </trkpt>
      <trkpt lat="45.93719" lon="5.23866">
        <ele>286.2</ele>
        <time>2022-02-24T12:51:50Z</time>
      </trkpt>
      <trkpt lat="45.93715" lon="5.2386">
        <ele>285.8</ele>
        <time>2022-02-24T12:51:51Z</time>
      </trkpt>
      <trkpt lat="45.93712" lon="5.23854">
        <ele>285.8</ele>
        <time>2022-02-24T12:51:52Z</time>
      </trkpt>
      <trkpt lat="45.93708" lon="5.23848">
        <ele>285.8</ele>
        <time>2022-02-24T12:51:53Z</time>
      </trkpt>
      <trkpt lat="45.93705" lon="5.23842">
        <ele>285.8</ele>
        <time>2022-02-24T12:51:54Z</time>
      </trkpt>
      <trkpt lat="45.93702" lon="5.23835">
        <ele>285.8</ele>
        <time>2022-02-24T12:51:55Z</time>
      </trkpt>
      <trkpt lat="45.93698" lon="5.2383">
        <ele>285.8</ele>
        <time>2022-02-24T12:51:56Z</time>
      </trkpt>
      <trkpt lat="45.93695" lon="5.23824">
        <ele>285.8</ele>
        <time>2022-02-24T12:51:57Z</time>
      </trkpt>
      <trkpt lat="45.93692" lon="5.23818">
        <ele>285.8</ele>
        <time>2022-02-24T12:51:58Z</time>
      </trkpt>
      <trkpt lat="45.93689" lon="5.23812">
        <ele>285.8</ele>
        <time>2022-02-24T12:51:59Z</time>
      </trkpt>
      <trkpt lat="45.93686" lon="5.23807">
        <ele>286</ele>
        <time>2022-02-24T12:52:00Z</time>
      </trkpt>
      <trkpt lat="45.93683" lon="5.23801">
        <ele>286</ele>
        <time>2022-02-24T12:52:01Z</time>
      </trkpt>
      <trkpt lat="45.9368" lon="5.23796">
        <ele>286.4</ele>
        <time>2022-02-24T12:52:02Z</time>
      </trkpt>
      <trkpt lat="45.93677" lon="5.23791">
        <ele>286.6</ele>
        <time>2022-02-24T12:52:03Z</time>
      </trkpt>
      <trkpt lat="45.93675" lon="5.23786">
        <ele>286.6</ele>
        <time>2022-02-24T12:52:04Z</time>
      </trkpt>
      <trkpt lat="45.93672" lon="5.23781">
        <ele>286.6</ele>
        <time>2022-02-24T12:52:05Z</time>
      </trkpt>
      <trkpt lat="45.93669" lon="5.23777">
        <ele>286.6</ele>
        <time>2022-02-24T12:52:06Z</time>
      </trkpt>
      <trkpt lat="45.93667" lon="5.23772">
        <ele>286.6</ele>
        <time>2022-02-24T12:52:07Z</time>
      </trkpt>
      <trkpt lat="45.93664" lon="5.23768">
        <ele>287</ele>
        <time>2022-02-24T12:52:08Z</time>
      </trkpt>
      <trkpt lat="45.93661" lon="5.23763">
        <ele>287</ele>
        <time>2022-02-24T12:52:09Z</time>
      </trkpt>
      <trkpt lat="45.93659" lon="5.23759">
        <ele>287</ele>
        <time>2022-02-24T12:52:10Z</time>
      </trkpt>
      <trkpt lat="45.93656" lon="5.23754">
        <ele>287</ele>
        <time>2022-02-24T12:52:11Z</time>
      </trkpt>
      <trkpt lat="45.93653" lon="5.23749">
        <ele>287.4</ele>
        <time>2022-02-24T12:52:12Z</time>
      </trkpt>
      <trkpt lat="45.9365" lon="5.23744">
        <ele>287.4</ele>
        <time>2022-02-24T12:52:13Z</time>
      </trkpt>
      <trkpt lat="45.93647" lon="5.23738">
        <ele>287.4</ele>
        <time>2022-02-24T12:52:14Z</time>
      </trkpt>
      <trkpt lat="45.93644" lon="5.23733">
        <ele>287.4</ele>
        <time>2022-02-24T12:52:15Z</time>
      </trkpt>
      <trkpt lat="45.93641" lon="5.23728">
        <ele>287.4</ele>
        <time>2022-02-24T12:52:16Z</time>
      </trkpt>
      <trkpt lat="45.93638" lon="5.23722">
        <ele>287.4</ele>
        <time>2022-02-24T12:52:17Z</time>
      </trkpt>
      <trkpt lat="45.93635" lon="5.23717">
        <ele>287.4</ele>
        <time>2022-02-24T12:52:18Z</time>
      </trkpt>
      <trkpt lat="45.93632" lon="5.23711">
        <ele>287.4</ele>
        <time>2022-02-24T12:52:19Z</time>
      </trkpt>
      <trkpt lat="45.93629" lon="5.23705">
        <ele>287.6</ele>
        <time>2022-02-24T12:52:20Z</time>
      </trkpt>
      <trkpt lat="45.93626" lon="5.23699">
        <ele>287.6</ele>
        <time>2022-02-24T12:52:21Z</time>
      </trkpt>
      <trkpt lat="45.93623" lon="5.23694">
        <ele>287.6</ele>
        <time>2022-02-24T12:52:22Z</time>
      </trkpt>
      <trkpt lat="45.9362" lon="5.23688">
        <ele>287.6</ele>
        <time>2022-02-24T12:52:23Z</time>
      </trkpt>
      <trkpt lat="45.93616" lon="5.23683">
        <ele>287.6</ele>
        <time>2022-02-24T12:52:24Z</time>
      </trkpt>
      <trkpt lat="45.93613" lon="5.23677">
        <ele>287.6</ele>
        <time>2022-02-24T12:52:25Z</time>
      </trkpt>
      <trkpt lat="45.9361" lon="5.23672">
        <ele>287.6</ele>
        <time>2022-02-24T12:52:26Z</time>
      </trkpt>
      <trkpt lat="45.93607" lon="5.23666">
        <ele>288</ele>
        <time>2022-02-24T12:52:27Z</time>
      </trkpt>
      <trkpt lat="45.93604" lon="5.23661">
        <ele>288</ele>
        <time>2022-02-24T12:52:28Z</time>
      </trkpt>
      <trkpt lat="45.93601" lon="5.23655">
        <ele>288</ele>
        <time>2022-02-24T12:52:29Z</time>
      </trkpt>
      <trkpt lat="45.93598" lon="5.2365">
        <ele>288</ele>
        <time>2022-02-24T12:52:30Z</time>
      </trkpt>
      <trkpt lat="45.93594" lon="5.23644">
        <ele>288</ele>
        <time>2022-02-24T12:52:31Z</time>
      </trkpt>
      <trkpt lat="45.93591" lon="5.23639">
        <ele>287.8</ele>
        <time>2022-02-24T12:52:32Z</time>
      </trkpt>
      <trkpt lat="45.93588" lon="5.23633">
        <ele>287.4</ele>
        <time>2022-02-24T12:52:33Z</time>
      </trkpt>
      <trkpt lat="45.93585" lon="5.23628">
        <ele>287.4</ele>
        <time>2022-02-24T12:52:34Z</time>
      </trkpt>
      <trkpt lat="45.93582" lon="5.23623">
        <ele>287.4</ele>
        <time>2022-02-24T12:52:35Z</time>
      </trkpt>
      <trkpt lat="45.93579" lon="5.23618">
        <ele>287.4</ele>
        <time>2022-02-24T12:52:36Z</time>
      </trkpt>
      <trkpt lat="45.93576" lon="5.23612">
        <ele>287.4</ele>
        <time>2022-02-24T12:52:37Z</time>
      </trkpt>
      <trkpt lat="45.93572" lon="5.23606">
        <ele>287.4</ele>
        <time>2022-02-24T12:52:38Z</time>
      </trkpt>
      <trkpt lat="45.93569" lon="5.23601">
        <ele>287.4</ele>
        <time>2022-02-24T12:52:39Z</time>
      </trkpt>
      <trkpt lat="45.93566" lon="5.23594">
        <ele>287.2</ele>
        <time>2022-02-24T12:52:40Z</time>
      </trkpt>
      <trkpt lat="45.93563" lon="5.23588">
        <ele>287.2</ele>
        <time>2022-02-24T12:52:41Z</time>
      </trkpt>
      <trkpt lat="45.93559" lon="5.23582">
        <ele>287.2</ele>
        <time>2022-02-24T12:52:42Z</time>
      </trkpt>
      <trkpt lat="45.93556" lon="5.23576">
        <ele>287</ele>
        <time>2022-02-24T12:52:43Z</time>
      </trkpt>
      <trkpt lat="45.93552" lon="5.2357">
        <ele>287</ele>
        <time>2022-02-24T12:52:44Z</time>
      </trkpt>
      <trkpt lat="45.93548" lon="5.23563">
        <ele>286.6</ele>
        <time>2022-02-24T12:52:45Z</time>
      </trkpt>
      <trkpt lat="45.93545" lon="5.23557">
        <ele>286.6</ele>
        <time>2022-02-24T12:52:46Z</time>
      </trkpt>
      <trkpt lat="45.93541" lon="5.23551">
        <ele>286.6</ele>
        <time>2022-02-24T12:52:47Z</time>
      </trkpt>
      <trkpt lat="45.93538" lon="5.23544">
        <ele>286.2</ele>
        <time>2022-02-24T12:52:48Z</time>
      </trkpt>
      <trkpt lat="45.93534" lon="5.23539">
        <ele>286</ele>
        <time>2022-02-24T12:52:49Z</time>
      </trkpt>
      <trkpt lat="45.93531" lon="5.23533">
        <ele>286</ele>
        <time>2022-02-24T12:52:50Z</time>
      </trkpt>
      <trkpt lat="45.93527" lon="5.23527">
        <ele>286</ele>
        <time>2022-02-24T12:52:51Z</time>
      </trkpt>
      <trkpt lat="45.93524" lon="5.2352">
        <ele>286</ele>
        <time>2022-02-24T12:52:52Z</time>
      </trkpt>
      <trkpt lat="45.9352" lon="5.23514">
        <ele>286.2</ele>
        <time>2022-02-24T12:52:53Z</time>
      </trkpt>
      <trkpt lat="45.93517" lon="5.23508">
        <ele>286.2</ele>
        <time>2022-02-24T12:52:54Z</time>
      </trkpt>
      <trkpt lat="45.93514" lon="5.23502">
        <ele>286.2</ele>
        <time>2022-02-24T12:52:55Z</time>
      </trkpt>
      <trkpt lat="45.9351" lon="5.23495">
        <ele>286.2</ele>
        <time>2022-02-24T12:52:56Z</time>
      </trkpt>
      <trkpt lat="45.93507" lon="5.23489">
        <ele>286.2</ele>
        <time>2022-02-24T12:52:57Z</time>
      </trkpt>
      <trkpt lat="45.93504" lon="5.23484">
        <ele>286.2</ele>
        <time>2022-02-24T12:52:58Z</time>
      </trkpt>
      <trkpt lat="45.935" lon="5.23478">
        <ele>286.2</ele>
        <time>2022-02-24T12:52:59Z</time>
      </trkpt>
      <trkpt lat="45.93497" lon="5.23472">
        <ele>286.2</ele>
        <time>2022-02-24T12:53:00Z</time>
      </trkpt>
      <trkpt lat="45.93493" lon="5.23465">
        <ele>286.2</ele>
        <time>2022-02-24T12:53:01Z</time>
      </trkpt>
      <trkpt lat="45.9349" lon="5.23459">
        <ele>285.8</ele>
        <time>2022-02-24T12:53:02Z</time>
      </trkpt>
      <trkpt lat="45.93486" lon="5.23452">
        <ele>285.8</ele>
        <time>2022-02-24T12:53:03Z</time>
      </trkpt>
      <trkpt lat="45.93482" lon="5.23446">
        <ele>285.6</ele>
        <time>2022-02-24T12:53:04Z</time>
      </trkpt>
      <trkpt lat="45.93478" lon="5.2344">
        <ele>285.6</ele>
        <time>2022-02-24T12:53:05Z</time>
      </trkpt>
      <trkpt lat="45.93474" lon="5.23433">
        <ele>285.2</ele>
        <time>2022-02-24T12:53:06Z</time>
      </trkpt>
      <trkpt lat="45.9347" lon="5.23426">
        <ele>285</ele>
        <time>2022-02-24T12:53:07Z</time>
      </trkpt>
      <trkpt lat="45.93466" lon="5.23419">
        <ele>284.6</ele>
        <time>2022-02-24T12:53:08Z</time>
      </trkpt>
      <trkpt lat="45.93462" lon="5.23412">
        <ele>284.4</ele>
        <time>2022-02-24T12:53:09Z</time>
      </trkpt>
      <trkpt lat="45.93458" lon="5.23405">
        <ele>284</ele>
        <time>2022-02-24T12:53:10Z</time>
      </trkpt>
      <trkpt lat="45.93454" lon="5.23398">
        <ele>283.8</ele>
        <time>2022-02-24T12:53:11Z</time>
      </trkpt>
      <trkpt lat="45.9345" lon="5.23391">
        <ele>283.4</ele>
        <time>2022-02-24T12:53:12Z</time>
      </trkpt>
      <trkpt lat="45.93446" lon="5.23383">
        <ele>283.2</ele>
        <time>2022-02-24T12:53:13Z</time>
      </trkpt>
      <trkpt lat="45.93442" lon="5.23376">
        <ele>283.2</ele>
        <time>2022-02-24T12:53:14Z</time>
      </trkpt>
      <trkpt lat="45.93438" lon="5.23368">
        <ele>282.8</ele>
        <time>2022-02-24T12:53:15Z</time>
      </trkpt>
      <trkpt lat="45.93433" lon="5.23361">
        <ele>282.8</ele>
        <time>2022-02-24T12:53:16Z</time>
      </trkpt>
      <trkpt lat="45.93429" lon="5.23353">
        <ele>282.6</ele>
        <time>2022-02-24T12:53:17Z</time>
      </trkpt>
      <trkpt lat="45.93425" lon="5.23345">
        <ele>282.6</ele>
        <time>2022-02-24T12:53:18Z</time>
      </trkpt>
      <trkpt lat="45.93421" lon="5.23338">
        <ele>282.6</ele>
        <time>2022-02-24T12:53:19Z</time>
      </trkpt>
      <trkpt lat="45.93416" lon="5.2333">
        <ele>282.2</ele>
        <time>2022-02-24T12:53:20Z</time>
      </trkpt>
      <trkpt lat="45.93412" lon="5.23323">
        <ele>282</ele>
        <time>2022-02-24T12:53:21Z</time>
      </trkpt>
      <trkpt lat="45.93408" lon="5.23315">
        <ele>282</ele>
        <time>2022-02-24T12:53:22Z</time>
      </trkpt>
      <trkpt lat="45.93403" lon="5.23307">
        <ele>281.6</ele>
        <time>2022-02-24T12:53:23Z</time>
      </trkpt>
      <trkpt lat="45.93399" lon="5.23299">
        <ele>281.6</ele>
        <time>2022-02-24T12:53:24Z</time>
      </trkpt>
      <trkpt lat="45.93394" lon="5.23292">
        <ele>281.4</ele>
        <time>2022-02-24T12:53:25Z</time>
      </trkpt>
      <trkpt lat="45.9339" lon="5.23284">
        <ele>281.4</ele>
        <time>2022-02-24T12:53:26Z</time>
      </trkpt>
      <trkpt lat="45.93386" lon="5.23277">
        <ele>280.8</ele>
        <time>2022-02-24T12:53:27Z</time>
      </trkpt>
      <trkpt lat="45.93382" lon="5.23269">
        <ele>280.8</ele>
        <time>2022-02-24T12:53:28Z</time>
      </trkpt>
      <trkpt lat="45.93378" lon="5.23262">
        <ele>280.6</ele>
        <time>2022-02-24T12:53:29Z</time>
      </trkpt>
      <trkpt lat="45.93373" lon="5.23254">
        <ele>280.6</ele>
        <time>2022-02-24T12:53:30Z</time>
      </trkpt>
      <trkpt lat="45.93369" lon="5.23247">
        <ele>280.6</ele>
        <time>2022-02-24T12:53:31Z</time>
      </trkpt>
      <trkpt lat="45.93365" lon="5.23239">
        <ele>280.4</ele>
        <time>2022-02-24T12:53:32Z</time>
      </trkpt>
      <trkpt lat="45.93361" lon="5.23232">
        <ele>280.4</ele>
        <time>2022-02-24T12:53:33Z</time>
      </trkpt>
      <trkpt lat="45.93356" lon="5.23224">
        <ele>280.2</ele>
        <time>2022-02-24T12:53:34Z</time>
      </trkpt>
      <trkpt lat="45.93352" lon="5.23217">
        <ele>280.2</ele>
        <time>2022-02-24T12:53:35Z</time>
      </trkpt>
      <trkpt lat="45.93348" lon="5.23209">
        <ele>280.2</ele>
        <time>2022-02-24T12:53:36Z</time>
      </trkpt>
      <trkpt lat="45.93343" lon="5.23202">
        <ele>279.6</ele>
        <time>2022-02-24T12:53:37Z</time>
      </trkpt>
      <trkpt lat="45.93339" lon="5.23194">
        <ele>279.4</ele>
        <time>2022-02-24T12:53:38Z</time>
      </trkpt>
      <trkpt lat="45.93335" lon="5.23187">
        <ele>279.2</ele>
        <time>2022-02-24T12:53:39Z</time>
      </trkpt>
      <trkpt lat="45.9333" lon="5.23179">
        <ele>279.2</ele>
        <time>2022-02-24T12:53:40Z</time>
      </trkpt>
      <trkpt lat="45.93326" lon="5.23171">
        <ele>278.8</ele>
        <time>2022-02-24T12:53:41Z</time>
      </trkpt>
      <trkpt lat="45.93321" lon="5.23163">
        <ele>278.8</ele>
        <time>2022-02-24T12:53:42Z</time>
      </trkpt>
      <trkpt lat="45.93316" lon="5.23155">
        <ele>278.4</ele>
        <time>2022-02-24T12:53:43Z</time>
      </trkpt>
      <trkpt lat="45.93312" lon="5.23147">
        <ele>278.2</ele>
        <time>2022-02-24T12:53:44Z</time>
      </trkpt>
      <trkpt lat="45.93307" lon="5.23139">
        <ele>278</ele>
        <time>2022-02-24T12:53:45Z</time>
      </trkpt>
      <trkpt lat="45.93303" lon="5.23131">
        <ele>277.6</ele>
        <time>2022-02-24T12:53:46Z</time>
      </trkpt>
      <trkpt lat="45.93299" lon="5.23124">
        <ele>277.4</ele>
        <time>2022-02-24T12:53:47Z</time>
      </trkpt>
      <trkpt lat="45.93294" lon="5.23116">
        <ele>277.2</ele>
        <time>2022-02-24T12:53:48Z</time>
      </trkpt>
      <trkpt lat="45.9329" lon="5.23109">
        <ele>276.8</ele>
        <time>2022-02-24T12:53:49Z</time>
      </trkpt>
      <trkpt lat="45.93285" lon="5.23101">
        <ele>276.6</ele>
        <time>2022-02-24T12:53:50Z</time>
      </trkpt>
      <trkpt lat="45.9328" lon="5.23094">
        <ele>276.2</ele>
        <time>2022-02-24T12:53:51Z</time>
      </trkpt>
      <trkpt lat="45.93274" lon="5.23087">
        <ele>275.8</ele>
        <time>2022-02-24T12:53:52Z</time>
      </trkpt>
      <trkpt lat="45.93269" lon="5.2308">
        <ele>275.2</ele>
        <time>2022-02-24T12:53:53Z</time>
      </trkpt>
      <trkpt lat="45.93262" lon="5.23074">
        <ele>274.6</ele>
        <time>2022-02-24T12:53:54Z</time>
      </trkpt>
      <trkpt lat="45.93255" lon="5.2307">
        <ele>274.2</ele>
        <time>2022-02-24T12:53:55Z</time>
      </trkpt>
      <trkpt lat="45.93248" lon="5.23066">
        <ele>273.8</ele>
        <time>2022-02-24T12:53:56Z</time>
      </trkpt>
      <trkpt lat="45.9324" lon="5.23063">
        <ele>273.4</ele>
        <time>2022-02-24T12:53:57Z</time>
      </trkpt>
      <trkpt lat="45.93232" lon="5.23061">
        <ele>273</ele>
        <time>2022-02-24T12:53:58Z</time>
      </trkpt>
      <trkpt lat="45.93224" lon="5.2306">
        <ele>272.8</ele>
        <time>2022-02-24T12:53:59Z</time>
      </trkpt>
      <trkpt lat="45.93215" lon="5.23059">
        <ele>272.4</ele>
        <time>2022-02-24T12:54:00Z</time>
      </trkpt>
      <trkpt lat="45.93207" lon="5.23058">
        <ele>272.2</ele>
        <time>2022-02-24T12:54:01Z</time>
      </trkpt>
      <trkpt lat="45.93199" lon="5.23057">
        <ele>272.2</ele>
        <time>2022-02-24T12:54:02Z</time>
      </trkpt>
      <trkpt lat="45.93192" lon="5.23056">
        <ele>271.8</ele>
        <time>2022-02-24T12:54:03Z</time>
      </trkpt>
      <trkpt lat="45.93184" lon="5.23055">
        <ele>271.8</ele>
        <time>2022-02-24T12:54:04Z</time>
      </trkpt>
      <trkpt lat="45.93177" lon="5.23054">
        <ele>271.4</ele>
        <time>2022-02-24T12:54:05Z</time>
      </trkpt>
      <trkpt lat="45.9317" lon="5.23054">
        <ele>271.2</ele>
        <time>2022-02-24T12:54:06Z</time>
      </trkpt>
      <trkpt lat="45.93162" lon="5.23054">
        <ele>271.2</ele>
        <time>2022-02-24T12:54:07Z</time>
      </trkpt>
      <trkpt lat="45.93155" lon="5.23053">
        <ele>270.8</ele>
        <time>2022-02-24T12:54:08Z</time>
      </trkpt>
      <trkpt lat="45.93148" lon="5.23053">
        <ele>270.8</ele>
        <time>2022-02-24T12:54:09Z</time>
      </trkpt>
      <trkpt lat="45.93142" lon="5.23053">
        <ele>270.6</ele>
        <time>2022-02-24T12:54:10Z</time>
      </trkpt>
      <trkpt lat="45.93135" lon="5.23052">
        <ele>270.6</ele>
        <time>2022-02-24T12:54:11Z</time>
      </trkpt>
      <trkpt lat="45.93129" lon="5.23052">
        <ele>270.6</ele>
        <time>2022-02-24T12:54:12Z</time>
      </trkpt>
      <trkpt lat="45.93123" lon="5.23051">
        <ele>270.6</ele>
        <time>2022-02-24T12:54:13Z</time>
      </trkpt>
      <trkpt lat="45.93117" lon="5.2305">
        <ele>270.4</ele>
        <time>2022-02-24T12:54:14Z</time>
      </trkpt>
      <trkpt lat="45.93111" lon="5.2305">
        <ele>270.4</ele>
        <time>2022-02-24T12:54:15Z</time>
      </trkpt>
      <trkpt lat="45.93105" lon="5.2305">
        <ele>270.2</ele>
        <time>2022-02-24T12:54:16Z</time>
      </trkpt>
      <trkpt lat="45.93099" lon="5.23049">
        <ele>270.2</ele>
        <time>2022-02-24T12:54:17Z</time>
      </trkpt>
      <trkpt lat="45.93093" lon="5.23048">
        <ele>270.2</ele>
        <time>2022-02-24T12:54:18Z</time>
      </trkpt>
      <trkpt lat="45.93088" lon="5.23048">
        <ele>270.2</ele>
        <time>2022-02-24T12:54:19Z</time>
      </trkpt>
      <trkpt lat="45.93082" lon="5.23047">
        <ele>270.2</ele>
        <time>2022-02-24T12:54:20Z</time>
      </trkpt>
      <trkpt lat="45.93076" lon="5.23046">
        <ele>270.2</ele>
        <time>2022-02-24T12:54:21Z</time>
      </trkpt>
      <trkpt lat="45.9307" lon="5.23045">
        <ele>270.2</ele>
        <time>2022-02-24T12:54:22Z</time>
      </trkpt>
      <trkpt lat="45.93064" lon="5.23044">
        <ele>269.8</ele>
        <time>2022-02-24T12:54:23Z</time>
      </trkpt>
      <trkpt lat="45.93058" lon="5.23044">
        <ele>269.8</ele>
        <time>2022-02-24T12:54:24Z</time>
      </trkpt>
      <trkpt lat="45.93052" lon="5.23043">
        <ele>269.8</ele>
        <time>2022-02-24T12:54:25Z</time>
      </trkpt>
      <trkpt lat="45.93046" lon="5.23043">
        <ele>269.8</ele>
        <time>2022-02-24T12:54:26Z</time>
      </trkpt>
      <trkpt lat="45.9304" lon="5.23043">
        <ele>269.4</ele>
        <time>2022-02-24T12:54:27Z</time>
      </trkpt>
      <trkpt lat="45.93034" lon="5.23042">
        <ele>269.4</ele>
        <time>2022-02-24T12:54:28Z</time>
      </trkpt>
      <trkpt lat="45.93028" lon="5.23042">
        <ele>269</ele>
        <time>2022-02-24T12:54:29Z</time>
      </trkpt>
      <trkpt lat="45.93021" lon="5.23042">
        <ele>269</ele>
        <time>2022-02-24T12:54:30Z</time>
      </trkpt>
      <trkpt lat="45.93021" lon="5.23042">
        <ele>268.6</ele>
        <time>2022-02-24T12:54:31Z</time>
      </trkpt>
      <trkpt lat="45.93014" lon="5.23041">
        <ele>268.2</ele>
        <time>2022-02-24T12:54:32Z</time>
      </trkpt>
      <trkpt lat="45.93007" lon="5.23041">
        <ele>268</ele>
        <time>2022-02-24T12:54:33Z</time>
      </trkpt>
      <trkpt lat="45.93" lon="5.23041">
        <ele>267.6</ele>
        <time>2022-02-24T12:54:34Z</time>
      </trkpt>
      <trkpt lat="45.92993" lon="5.23042">
        <ele>267.2</ele>
        <time>2022-02-24T12:54:35Z</time>
      </trkpt>
      <trkpt lat="45.92986" lon="5.23043">
        <ele>266.8</ele>
        <time>2022-02-24T12:54:36Z</time>
      </trkpt>
      <trkpt lat="45.92979" lon="5.23042">
        <ele>266.2</ele>
        <time>2022-02-24T12:54:37Z</time>
      </trkpt>
      <trkpt lat="45.92971" lon="5.23041">
        <ele>265.6</ele>
        <time>2022-02-24T12:54:38Z</time>
      </trkpt>
      <trkpt lat="45.92954" lon="5.23039">
        <ele>265.2</ele>
        <time>2022-02-24T12:54:39Z</time>
      </trkpt>
      <trkpt lat="45.92946" lon="5.23038">
        <ele>264.6</ele>
        <time>2022-02-24T12:54:40Z</time>
      </trkpt>
      <trkpt lat="45.92938" lon="5.23038">
        <ele>263.8</ele>
        <time>2022-02-24T12:54:41Z</time>
      </trkpt>
      <trkpt lat="45.92929" lon="5.23037">
        <ele>263.2</ele>
        <time>2022-02-24T12:54:42Z</time>
      </trkpt>
      <trkpt lat="45.92921" lon="5.23036">
        <ele>262.8</ele>
        <time>2022-02-24T12:54:43Z</time>
      </trkpt>
      <trkpt lat="45.92912" lon="5.23035">
        <ele>262.2</ele>
        <time>2022-02-24T12:54:44Z</time>
      </trkpt>
      <trkpt lat="45.92903" lon="5.23033">
        <ele>261.8</ele>
        <time>2022-02-24T12:54:45Z</time>
      </trkpt>
      <trkpt lat="45.92895" lon="5.23031">
        <ele>261.4</ele>
        <time>2022-02-24T12:54:46Z</time>
      </trkpt>
      <trkpt lat="45.92887" lon="5.2303">
        <ele>261.2</ele>
        <time>2022-02-24T12:54:47Z</time>
      </trkpt>
      <trkpt lat="45.92879" lon="5.23028">
        <ele>261</ele>
        <time>2022-02-24T12:54:48Z</time>
      </trkpt>
      <trkpt lat="45.92872" lon="5.23026">
        <ele>261</ele>
        <time>2022-02-24T12:54:49Z</time>
      </trkpt>
      <trkpt lat="45.92865" lon="5.23025">
        <ele>260.6</ele>
        <time>2022-02-24T12:54:50Z</time>
      </trkpt>
      <trkpt lat="45.92859" lon="5.23023">
        <ele>260.6</ele>
        <time>2022-02-24T12:54:51Z</time>
      </trkpt>
      <trkpt lat="45.92853" lon="5.23021">
        <ele>260.6</ele>
        <time>2022-02-24T12:54:52Z</time>
      </trkpt>
      <trkpt lat="45.92847" lon="5.2302">
        <ele>260.6</ele>
        <time>2022-02-24T12:54:53Z</time>
      </trkpt>
      <trkpt lat="45.92841" lon="5.23019">
        <ele>260.6</ele>
        <time>2022-02-24T12:54:54Z</time>
      </trkpt>
      <trkpt lat="45.92836" lon="5.23018">
        <ele>260.6</ele>
        <time>2022-02-24T12:54:55Z</time>
      </trkpt>
      <trkpt lat="45.9283" lon="5.23017">
        <ele>260.6</ele>
        <time>2022-02-24T12:54:56Z</time>
      </trkpt>
      <trkpt lat="45.92826" lon="5.23016">
        <ele>260.8</ele>
        <time>2022-02-24T12:54:57Z</time>
      </trkpt>
      <trkpt lat="45.92821" lon="5.23015">
        <ele>260.8</ele>
        <time>2022-02-24T12:54:58Z</time>
      </trkpt>
      <trkpt lat="45.92817" lon="5.23014">
        <ele>260.8</ele>
        <time>2022-02-24T12:54:59Z</time>
      </trkpt>
      <trkpt lat="45.92813" lon="5.23012">
        <ele>260.8</ele>
        <time>2022-02-24T12:55:00Z</time>
      </trkpt>
      <trkpt lat="45.92809" lon="5.23011">
        <ele>260.8</ele>
        <time>2022-02-24T12:55:01Z</time>
      </trkpt>
      <trkpt lat="45.92804" lon="5.2301">
        <ele>260.8</ele>
        <time>2022-02-24T12:55:02Z</time>
      </trkpt>
      <trkpt lat="45.928" lon="5.23009">
        <ele>260.8</ele>
        <time>2022-02-24T12:55:03Z</time>
      </trkpt>
      <trkpt lat="45.92796" lon="5.23009">
        <ele>260.8</ele>
        <time>2022-02-24T12:55:04Z</time>
      </trkpt>
      <trkpt lat="45.92792" lon="5.23007">
        <ele>260.8</ele>
        <time>2022-02-24T12:55:05Z</time>
      </trkpt>
      <trkpt lat="45.92788" lon="5.23005">
        <ele>260.6</ele>
        <time>2022-02-24T12:55:06Z</time>
      </trkpt>
      <trkpt lat="45.92784" lon="5.23003">
        <ele>260.6</ele>
        <time>2022-02-24T12:55:07Z</time>
      </trkpt>
      <trkpt lat="45.92782" lon="5.23003">
        <ele>260.6</ele>
        <time>2022-02-24T12:55:08Z</time>
      </trkpt>
      <trkpt lat="45.92779" lon="5.23003">
        <ele>260.6</ele>
        <time>2022-02-24T12:55:09Z</time>
      </trkpt>
      <trkpt lat="45.92778" lon="5.23004">
        <ele>260.6</ele>
        <time>2022-02-24T12:55:10Z</time>
      </trkpt>
      <trkpt lat="45.92778" lon="5.23005">
        <ele>260.6</ele>
        <time>2022-02-24T12:55:11Z</time>
      </trkpt>
      <trkpt lat="45.92783" lon="5.23009">
        <ele>260.6</ele>
        <time>2022-02-24T12:55:14Z</time>
      </trkpt>
      <trkpt lat="45.92786" lon="5.23009">
        <ele>260.6</ele>
        <time>2022-02-24T12:55:15Z</time>
      </trkpt>
      <trkpt lat="45.92788" lon="5.23008">
        <ele>260.6</ele>
        <time>2022-02-24T12:55:16Z</time>
      </trkpt>
      <trkpt lat="45.92791" lon="5.23007">
        <ele>260.6</ele>
        <time>2022-02-24T12:55:17Z</time>
      </trkpt>
      <trkpt lat="45.92793" lon="5.23007">
        <ele>260.6</ele>
        <time>2022-02-24T12:55:18Z</time>
      </trkpt>
      <trkpt lat="45.92796" lon="5.23007">
        <ele>260.6</ele>
        <time>2022-02-24T12:55:19Z</time>
      </trkpt>
      <trkpt lat="45.92798" lon="5.23007">
        <ele>260.6</ele>
        <time>2022-02-24T12:55:20Z</time>
      </trkpt>
      <trkpt lat="45.92799" lon="5.23006">
        <ele>260.6</ele>
        <time>2022-02-24T12:55:21Z</time>
      </trkpt>
      <trkpt lat="45.928" lon="5.23005">
        <ele>260.6</ele>
        <time>2022-02-24T12:55:22Z</time>
      </trkpt>
      <trkpt lat="45.92802" lon="5.23004">
        <ele>260.6</ele>
        <time>2022-02-24T12:55:23Z</time>
      </trkpt>
      <trkpt lat="45.92803" lon="5.23004">
        <ele>260.6</ele>
        <time>2022-02-24T12:55:24Z</time>
      </trkpt>
      <trkpt lat="45.92803" lon="5.23004">
        <ele>260.6</ele>
        <time>2022-02-24T12:55:25Z</time>
      </trkpt>
      <trkpt lat="45.92801" lon="5.23004">
        <ele>260.6</ele>
        <time>2022-02-24T12:56:14Z</time>
      </trkpt>
      <trkpt lat="45.92799" lon="5.23004">
        <ele>260.6</ele>
        <time>2022-02-24T12:56:15Z</time>
      </trkpt>
      <trkpt lat="45.92797" lon="5.23004">
        <ele>260.6</ele>
        <time>2022-02-24T12:56:16Z</time>
      </trkpt>
      <trkpt lat="45.92795" lon="5.23003">
        <ele>260.6</ele>
        <time>2022-02-24T12:56:17Z</time>
      </trkpt>
      <trkpt lat="45.92792" lon="5.23003">
        <ele>260.6</ele>
        <time>2022-02-24T12:56:18Z</time>
      </trkpt>
      <trkpt lat="45.92789" lon="5.23002">
        <ele>260.6</ele>
        <time>2022-02-24T12:56:19Z</time>
      </trkpt>
      <trkpt lat="45.92786" lon="5.23002">
        <ele>260.6</ele>
        <time>2022-02-24T12:56:20Z</time>
      </trkpt>
      <trkpt lat="45.92783" lon="5.23002">
        <ele>260.6</ele>
        <time>2022-02-24T12:56:21Z</time>
      </trkpt>
      <trkpt lat="45.9278" lon="5.23003">
        <ele>260.6</ele>
        <time>2022-02-24T12:56:22Z</time>
      </trkpt>
      <trkpt lat="45.92777" lon="5.23004">
        <ele>260.6</ele>
        <time>2022-02-24T12:56:23Z</time>
      </trkpt>
      <trkpt lat="45.92773" lon="5.23005">
        <ele>260.6</ele>
        <time>2022-02-24T12:56:24Z</time>
      </trkpt>
      <trkpt lat="45.9277" lon="5.23006">
        <ele>260.6</ele>
        <time>2022-02-24T12:56:25Z</time>
      </trkpt>
      <trkpt lat="45.92766" lon="5.23006">
        <ele>260.6</ele>
        <time>2022-02-24T12:56:26Z</time>
      </trkpt>
      <trkpt lat="45.92763" lon="5.23007">
        <ele>260.4</ele>
        <time>2022-02-24T12:56:27Z</time>
      </trkpt>
      <trkpt lat="45.92759" lon="5.23007">
        <ele>260.4</ele>
        <time>2022-02-24T12:56:28Z</time>
      </trkpt>
      <trkpt lat="45.92756" lon="5.23007">
        <ele>260.2</ele>
        <time>2022-02-24T12:56:29Z</time>
      </trkpt>
      <trkpt lat="45.92752" lon="5.23007">
        <ele>260.2</ele>
        <time>2022-02-24T12:56:30Z</time>
      </trkpt>
      <trkpt lat="45.92748" lon="5.23006">
        <ele>259.8</ele>
        <time>2022-02-24T12:56:31Z</time>
      </trkpt>
      <trkpt lat="45.92743" lon="5.23005">
        <ele>259.8</ele>
        <time>2022-02-24T12:56:32Z</time>
      </trkpt>
      <trkpt lat="45.92738" lon="5.23006">
        <ele>259.4</ele>
        <time>2022-02-24T12:56:33Z</time>
      </trkpt>
      <trkpt lat="45.92733" lon="5.23005">
        <ele>259.4</ele>
        <time>2022-02-24T12:56:34Z</time>
      </trkpt>
      <trkpt lat="45.92727" lon="5.23005">
        <ele>259</ele>
        <time>2022-02-24T12:56:35Z</time>
      </trkpt>
      <trkpt lat="45.92722" lon="5.23005">
        <ele>259</ele>
        <time>2022-02-24T12:56:36Z</time>
      </trkpt>
      <trkpt lat="45.92716" lon="5.23005">
        <ele>258.6</ele>
        <time>2022-02-24T12:56:37Z</time>
      </trkpt>
      <trkpt lat="45.92711" lon="5.23005">
        <ele>258.6</ele>
        <time>2022-02-24T12:56:38Z</time>
      </trkpt>
      <trkpt lat="45.92706" lon="5.23005">
        <ele>258.2</ele>
        <time>2022-02-24T12:56:39Z</time>
      </trkpt>
      <trkpt lat="45.92702" lon="5.23005">
        <ele>258</ele>
        <time>2022-02-24T12:56:40Z</time>
      </trkpt>
      <trkpt lat="45.92697" lon="5.23005">
        <ele>258</ele>
        <time>2022-02-24T12:56:41Z</time>
      </trkpt>
      <trkpt lat="45.92693" lon="5.23005">
        <ele>257.6</ele>
        <time>2022-02-24T12:56:42Z</time>
      </trkpt>
      <trkpt lat="45.92689" lon="5.23005">
        <ele>257.6</ele>
        <time>2022-02-24T12:56:43Z</time>
      </trkpt>
      <trkpt lat="45.92684" lon="5.23004">
        <ele>257.2</ele>
        <time>2022-02-24T12:56:44Z</time>
      </trkpt>
      <trkpt lat="45.9268" lon="5.23003">
        <ele>256.8</ele>
        <time>2022-02-24T12:56:45Z</time>
      </trkpt>
      <trkpt lat="45.92676" lon="5.23003">
        <ele>256.6</ele>
        <time>2022-02-24T12:56:46Z</time>
      </trkpt>
      <trkpt lat="45.92671" lon="5.23003">
        <ele>256.6</ele>
        <time>2022-02-24T12:56:47Z</time>
      </trkpt>
      <trkpt lat="45.92666" lon="5.23003">
        <ele>256.4</ele>
        <time>2022-02-24T12:56:48Z</time>
      </trkpt>
      <trkpt lat="45.92661" lon="5.23002">
        <ele>256</ele>
        <time>2022-02-24T12:56:49Z</time>
      </trkpt>
      <trkpt lat="45.92654" lon="5.23001">
        <ele>255.8</ele>
        <time>2022-02-24T12:56:50Z</time>
      </trkpt>
      <trkpt lat="45.92648" lon="5.23">
        <ele>255.4</ele>
        <time>2022-02-24T12:56:51Z</time>
      </trkpt>
      <trkpt lat="45.9264" lon="5.22998">
        <ele>255</ele>
        <time>2022-02-24T12:56:52Z</time>
      </trkpt>
      <trkpt lat="45.92633" lon="5.22994">
        <ele>254.6</ele>
        <time>2022-02-24T12:56:53Z</time>
      </trkpt>
      <trkpt lat="45.92627" lon="5.22987">
        <ele>254.2</ele>
        <time>2022-02-24T12:56:54Z</time>
      </trkpt>
      <trkpt lat="45.92621" lon="5.2298">
        <ele>253.6</ele>
        <time>2022-02-24T12:56:55Z</time>
      </trkpt>
      <trkpt lat="45.92617" lon="5.22971">
        <ele>253.2</ele>
        <time>2022-02-24T12:56:56Z</time>
      </trkpt>
      <trkpt lat="45.92613" lon="5.22961">
        <ele>252.8</ele>
        <time>2022-02-24T12:56:57Z</time>
      </trkpt>
      <trkpt lat="45.9261" lon="5.22951">
        <ele>252.2</ele>
        <time>2022-02-24T12:56:58Z</time>
      </trkpt>
      <trkpt lat="45.92608" lon="5.22941">
        <ele>251.8</ele>
        <time>2022-02-24T12:56:59Z</time>
      </trkpt>
      <trkpt lat="45.92607" lon="5.2293">
        <ele>251.4</ele>
        <time>2022-02-24T12:57:00Z</time>
      </trkpt>
      <trkpt lat="45.92607" lon="5.22919">
        <ele>251</ele>
        <time>2022-02-24T12:57:01Z</time>
      </trkpt>
      <trkpt lat="45.92608" lon="5.22908">
        <ele>250.6</ele>
        <time>2022-02-24T12:57:02Z</time>
      </trkpt>
      <trkpt lat="45.9261" lon="5.22897">
        <ele>250.2</ele>
        <time>2022-02-24T12:57:03Z</time>
      </trkpt>
      <trkpt lat="45.92612" lon="5.22886">
        <ele>249.8</ele>
        <time>2022-02-24T12:57:04Z</time>
      </trkpt>
      <trkpt lat="45.92614" lon="5.22874">
        <ele>249.4</ele>
        <time>2022-02-24T12:57:05Z</time>
      </trkpt>
      <trkpt lat="45.92616" lon="5.22863">
        <ele>249</ele>
        <time>2022-02-24T12:57:06Z</time>
      </trkpt>
      <trkpt lat="45.92618" lon="5.22851">
        <ele>248.6</ele>
        <time>2022-02-24T12:57:07Z</time>
      </trkpt>
      <trkpt lat="45.92619" lon="5.22839">
        <ele>248.2</ele>
        <time>2022-02-24T12:57:08Z</time>
      </trkpt>
      <trkpt lat="45.92621" lon="5.22827">
        <ele>247.8</ele>
        <time>2022-02-24T12:57:09Z</time>
      </trkpt>
      <trkpt lat="45.92623" lon="5.22814">
        <ele>247.2</ele>
        <time>2022-02-24T12:57:10Z</time>
      </trkpt>
      <trkpt lat="45.92625" lon="5.228">
        <ele>246.8</ele>
        <time>2022-02-24T12:57:11Z</time>
      </trkpt>
      <trkpt lat="45.92626" lon="5.22785">
        <ele>246.4</ele>
        <time>2022-02-24T12:57:12Z</time>
      </trkpt>
      <trkpt lat="45.92627" lon="5.22771">
        <ele>246</ele>
        <time>2022-02-24T12:57:13Z</time>
      </trkpt>
      <trkpt lat="45.92626" lon="5.22758">
        <ele>245.6</ele>
        <time>2022-02-24T12:57:14Z</time>
      </trkpt>
      <trkpt lat="45.92625" lon="5.22745">
        <ele>245.2</ele>
        <time>2022-02-24T12:57:15Z</time>
      </trkpt>
      <trkpt lat="45.92621" lon="5.22732">
        <ele>244.8</ele>
        <time>2022-02-24T12:57:16Z</time>
      </trkpt>
      <trkpt lat="45.92618" lon="5.2272">
        <ele>244.2</ele>
        <time>2022-02-24T12:57:17Z</time>
      </trkpt>
      <trkpt lat="45.92613" lon="5.22709">
        <ele>243.4</ele>
        <time>2022-02-24T12:57:18Z</time>
      </trkpt>
      <trkpt lat="45.92607" lon="5.22698">
        <ele>243</ele>
        <time>2022-02-24T12:57:19Z</time>
      </trkpt>
      <trkpt lat="45.926" lon="5.22689">
        <ele>242.2</ele>
        <time>2022-02-24T12:57:20Z</time>
      </trkpt>
      <trkpt lat="45.92593" lon="5.22679">
        <ele>241.8</ele>
        <time>2022-02-24T12:57:21Z</time>
      </trkpt>
      <trkpt lat="45.92587" lon="5.2267">
        <ele>241.2</ele>
        <time>2022-02-24T12:57:22Z</time>
      </trkpt>
      <trkpt lat="45.92579" lon="5.22661">
        <ele>240.6</ele>
        <time>2022-02-24T12:57:23Z</time>
      </trkpt>
      <trkpt lat="45.92571" lon="5.22653">
        <ele>240.2</ele>
        <time>2022-02-24T12:57:24Z</time>
      </trkpt>
      <trkpt lat="45.92563" lon="5.22647">
        <ele>239.8</ele>
        <time>2022-02-24T12:57:25Z</time>
      </trkpt>
      <trkpt lat="45.92554" lon="5.22641">
        <ele>239.4</ele>
        <time>2022-02-24T12:57:26Z</time>
      </trkpt>
      <trkpt lat="45.92545" lon="5.22637">
        <ele>239</ele>
        <time>2022-02-24T12:57:27Z</time>
      </trkpt>
      <trkpt lat="45.92536" lon="5.22633">
        <ele>238.4</ele>
        <time>2022-02-24T12:57:28Z</time>
      </trkpt>
      <trkpt lat="45.92527" lon="5.22631">
        <ele>237.8</ele>
        <time>2022-02-24T12:57:29Z</time>
      </trkpt>
      <trkpt lat="45.92518" lon="5.22628">
        <ele>237.2</ele>
        <time>2022-02-24T12:57:30Z</time>
      </trkpt>
      <trkpt lat="45.92508" lon="5.22625">
        <ele>236.8</ele>
        <time>2022-02-24T12:57:31Z</time>
      </trkpt>
      <trkpt lat="45.92499" lon="5.22622">
        <ele>236.4</ele>
        <time>2022-02-24T12:57:32Z</time>
      </trkpt>
      <trkpt lat="45.9249" lon="5.22621">
        <ele>235.8</ele>
        <time>2022-02-24T12:57:33Z</time>
      </trkpt>
      <trkpt lat="45.9248" lon="5.22619">
        <ele>235.2</ele>
        <time>2022-02-24T12:57:34Z</time>
      </trkpt>
      <trkpt lat="45.9247" lon="5.22616">
        <ele>234.6</ele>
        <time>2022-02-24T12:57:35Z</time>
      </trkpt>
      <trkpt lat="45.92461" lon="5.22614">
        <ele>234.2</ele>
        <time>2022-02-24T12:57:36Z</time>
      </trkpt>
      <trkpt lat="45.92452" lon="5.22612">
        <ele>233.6</ele>
        <time>2022-02-24T12:57:37Z</time>
      </trkpt>
      <trkpt lat="45.92442" lon="5.2261">
        <ele>233</ele>
        <time>2022-02-24T12:57:38Z</time>
      </trkpt>
      <trkpt lat="45.92433" lon="5.22608">
        <ele>232.8</ele>
        <time>2022-02-24T12:57:39Z</time>
      </trkpt>
      <trkpt lat="45.92424" lon="5.22605">
        <ele>232.2</ele>
        <time>2022-02-24T12:57:40Z</time>
      </trkpt>
      <trkpt lat="45.92414" lon="5.22603">
        <ele>231.8</ele>
        <time>2022-02-24T12:57:41Z</time>
      </trkpt>
      <trkpt lat="45.92404" lon="5.22602">
        <ele>231.4</ele>
        <time>2022-02-24T12:57:42Z</time>
      </trkpt>
      <trkpt lat="45.92394" lon="5.22599">
        <ele>230.8</ele>
        <time>2022-02-24T12:57:43Z</time>
      </trkpt>
      <trkpt lat="45.92385" lon="5.22598">
        <ele>230.2</ele>
        <time>2022-02-24T12:57:44Z</time>
      </trkpt>
      <trkpt lat="45.92376" lon="5.22596">
        <ele>229.8</ele>
        <time>2022-02-24T12:57:45Z</time>
      </trkpt>
      <trkpt lat="45.92368" lon="5.22595">
        <ele>229.4</ele>
        <time>2022-02-24T12:57:46Z</time>
      </trkpt>
      <trkpt lat="45.9236" lon="5.22593">
        <ele>228.8</ele>
        <time>2022-02-24T12:57:47Z</time>
      </trkpt>
      <trkpt lat="45.92352" lon="5.2259">
        <ele>228.2</ele>
        <time>2022-02-24T12:57:48Z</time>
      </trkpt>
      <trkpt lat="45.92344" lon="5.22586">
        <ele>227.6</ele>
        <time>2022-02-24T12:57:49Z</time>
      </trkpt>
      <trkpt lat="45.92336" lon="5.22581">
        <ele>227</ele>
        <time>2022-02-24T12:57:50Z</time>
      </trkpt>
      <trkpt lat="45.92328" lon="5.22575">
        <ele>226.2</ele>
        <time>2022-02-24T12:57:51Z</time>
      </trkpt>
      <trkpt lat="45.92319" lon="5.22569">
        <ele>225.4</ele>
        <time>2022-02-24T12:57:52Z</time>
      </trkpt>
      <trkpt lat="45.92311" lon="5.22562">
        <ele>224.8</ele>
        <time>2022-02-24T12:57:53Z</time>
      </trkpt>
      <trkpt lat="45.92303" lon="5.22555">
        <ele>224</ele>
        <time>2022-02-24T12:57:54Z</time>
      </trkpt>
      <trkpt lat="45.92294" lon="5.22548">
        <ele>223.4</ele>
        <time>2022-02-24T12:57:55Z</time>
      </trkpt>
      <trkpt lat="45.92287" lon="5.22542">
        <ele>222.6</ele>
        <time>2022-02-24T12:57:56Z</time>
      </trkpt>
      <trkpt lat="45.9228" lon="5.22536">
        <ele>222</ele>
        <time>2022-02-24T12:57:57Z</time>
      </trkpt>
      <trkpt lat="45.92274" lon="5.22531">
        <ele>221.4</ele>
        <time>2022-02-24T12:57:58Z</time>
      </trkpt>
      <trkpt lat="45.92269" lon="5.22527">
        <ele>221</ele>
        <time>2022-02-24T12:57:59Z</time>
      </trkpt>
      <trkpt lat="45.92263" lon="5.22523">
        <ele>220.6</ele>
        <time>2022-02-24T12:58:00Z</time>
      </trkpt>
      <trkpt lat="45.92258" lon="5.2252">
        <ele>220.4</ele>
        <time>2022-02-24T12:58:01Z</time>
      </trkpt>
      <trkpt lat="45.92253" lon="5.22516">
        <ele>220.2</ele>
        <time>2022-02-24T12:58:02Z</time>
      </trkpt>
      <trkpt lat="45.92248" lon="5.2251">
        <ele>219.8</ele>
        <time>2022-02-24T12:58:03Z</time>
      </trkpt>
      <trkpt lat="45.92244" lon="5.22503">
        <ele>219.4</ele>
        <time>2022-02-24T12:58:04Z</time>
      </trkpt>
      <trkpt lat="45.9224" lon="5.22497">
        <ele>219.2</ele>
        <time>2022-02-24T12:58:05Z</time>
      </trkpt>
      <trkpt lat="45.92235" lon="5.22491">
        <ele>219</ele>
        <time>2022-02-24T12:58:06Z</time>
      </trkpt>
      <trkpt lat="45.9223" lon="5.22485">
        <ele>218.8</ele>
        <time>2022-02-24T12:58:07Z</time>
      </trkpt>
      <trkpt lat="45.92224" lon="5.2248">
        <ele>218.6</ele>
        <time>2022-02-24T12:58:08Z</time>
      </trkpt>
      <trkpt lat="45.92218" lon="5.22475">
        <ele>218.4</ele>
        <time>2022-02-24T12:58:09Z</time>
      </trkpt>
      <trkpt lat="45.92213" lon="5.2247">
        <ele>218.2</ele>
        <time>2022-02-24T12:58:10Z</time>
      </trkpt>
      <trkpt lat="45.92208" lon="5.22465">
        <ele>218.2</ele>
        <time>2022-02-24T12:58:11Z</time>
      </trkpt>
      <trkpt lat="45.92203" lon="5.2246">
        <ele>217.8</ele>
        <time>2022-02-24T12:58:12Z</time>
      </trkpt>
      <trkpt lat="45.92198" lon="5.22455">
        <ele>217.8</ele>
        <time>2022-02-24T12:58:13Z</time>
      </trkpt>
      <trkpt lat="45.92192" lon="5.2245">
        <ele>217.6</ele>
        <time>2022-02-24T12:58:14Z</time>
      </trkpt>
      <trkpt lat="45.92187" lon="5.22446">
        <ele>217.6</ele>
        <time>2022-02-24T12:58:15Z</time>
      </trkpt>
      <trkpt lat="45.92182" lon="5.22441">
        <ele>217.6</ele>
        <time>2022-02-24T12:58:16Z</time>
      </trkpt>
      <trkpt lat="45.92177" lon="5.22437">
        <ele>217.6</ele>
        <time>2022-02-24T12:58:17Z</time>
      </trkpt>
      <trkpt lat="45.92171" lon="5.22433">
        <ele>217.6</ele>
        <time>2022-02-24T12:58:18Z</time>
      </trkpt>
      <trkpt lat="45.92166" lon="5.22428">
        <ele>217.6</ele>
        <time>2022-02-24T12:58:19Z</time>
      </trkpt>
      <trkpt lat="45.92161" lon="5.22424">
        <ele>217.6</ele>
        <time>2022-02-24T12:58:20Z</time>
      </trkpt>
      <trkpt lat="45.92156" lon="5.22419">
        <ele>217.6</ele>
        <time>2022-02-24T12:58:21Z</time>
      </trkpt>
      <trkpt lat="45.92151" lon="5.22415">
        <ele>217.6</ele>
        <time>2022-02-24T12:58:22Z</time>
      </trkpt>
      <trkpt lat="45.92146" lon="5.2241">
        <ele>217.6</ele>
        <time>2022-02-24T12:58:23Z</time>
      </trkpt>
      <trkpt lat="45.92141" lon="5.22406">
        <ele>217.6</ele>
        <time>2022-02-24T12:58:24Z</time>
      </trkpt>
      <trkpt lat="45.92136" lon="5.22402">
        <ele>217.8</ele>
        <time>2022-02-24T12:58:25Z</time>
      </trkpt>
      <trkpt lat="45.92131" lon="5.22397">
        <ele>217.8</ele>
        <time>2022-02-24T12:58:26Z</time>
      </trkpt>
      <trkpt lat="45.92126" lon="5.22393">
        <ele>217.8</ele>
        <time>2022-02-24T12:58:27Z</time>
      </trkpt>
      <trkpt lat="45.92121" lon="5.22388">
        <ele>217.8</ele>
        <time>2022-02-24T12:58:28Z</time>
      </trkpt>
      <trkpt lat="45.92116" lon="5.22384">
        <ele>217.8</ele>
        <time>2022-02-24T12:58:29Z</time>
      </trkpt>
      <trkpt lat="45.92111" lon="5.22379">
        <ele>217.8</ele>
        <time>2022-02-24T12:58:30Z</time>
      </trkpt>
      <trkpt lat="45.92105" lon="5.22374">
        <ele>217.8</ele>
        <time>2022-02-24T12:58:31Z</time>
      </trkpt>
      <trkpt lat="45.921" lon="5.2237">
        <ele>217.8</ele>
        <time>2022-02-24T12:58:32Z</time>
      </trkpt>
      <trkpt lat="45.92094" lon="5.22366">
        <ele>217.6</ele>
        <time>2022-02-24T12:58:33Z</time>
      </trkpt>
      <trkpt lat="45.92089" lon="5.22361">
        <ele>217.6</ele>
        <time>2022-02-24T12:58:34Z</time>
      </trkpt>
      <trkpt lat="45.92084" lon="5.22357">
        <ele>217.6</ele>
        <time>2022-02-24T12:58:35Z</time>
      </trkpt>
      <trkpt lat="45.92078" lon="5.22352">
        <ele>217.6</ele>
        <time>2022-02-24T12:58:36Z</time>
      </trkpt>
      <trkpt lat="45.92073" lon="5.22348">
        <ele>217.4</ele>
        <time>2022-02-24T12:58:37Z</time>
      </trkpt>
      <trkpt lat="45.92068" lon="5.22344">
        <ele>217.4</ele>
        <time>2022-02-24T12:58:38Z</time>
      </trkpt>
      <trkpt lat="45.92062" lon="5.2234">
        <ele>217.4</ele>
        <time>2022-02-24T12:58:39Z</time>
      </trkpt>
      <trkpt lat="45.92057" lon="5.22335">
        <ele>217.4</ele>
        <time>2022-02-24T12:58:40Z</time>
      </trkpt>
      <trkpt lat="45.92052" lon="5.22331">
        <ele>217.4</ele>
        <time>2022-02-24T12:58:41Z</time>
      </trkpt>
      <trkpt lat="45.92047" lon="5.22327">
        <ele>217.4</ele>
        <time>2022-02-24T12:58:42Z</time>
      </trkpt>
      <trkpt lat="45.92042" lon="5.22322">
        <ele>217.4</ele>
        <time>2022-02-24T12:58:43Z</time>
      </trkpt>
      <trkpt lat="45.92037" lon="5.22318">
        <ele>217.4</ele>
        <time>2022-02-24T12:58:44Z</time>
      </trkpt>
      <trkpt lat="45.92032" lon="5.22314">
        <ele>217</ele>
        <time>2022-02-24T12:58:45Z</time>
      </trkpt>
      <trkpt lat="45.92027" lon="5.22309">
        <ele>217</ele>
        <time>2022-02-24T12:58:46Z</time>
      </trkpt>
      <trkpt lat="45.92022" lon="5.22305">
        <ele>217</ele>
        <time>2022-02-24T12:58:47Z</time>
      </trkpt>
      <trkpt lat="45.92017" lon="5.223">
        <ele>217</ele>
        <time>2022-02-24T12:58:48Z</time>
      </trkpt>
      <trkpt lat="45.92012" lon="5.22296">
        <ele>216.8</ele>
        <time>2022-02-24T12:58:49Z</time>
      </trkpt>
      <trkpt lat="45.92006" lon="5.22292">
        <ele>216.8</ele>
        <time>2022-02-24T12:58:50Z</time>
      </trkpt>
      <trkpt lat="45.92001" lon="5.22289">
        <ele>216.8</ele>
        <time>2022-02-24T12:58:51Z</time>
      </trkpt>
      <trkpt lat="45.91996" lon="5.22285">
        <ele>216.8</ele>
        <time>2022-02-24T12:58:52Z</time>
      </trkpt>
      <trkpt lat="45.91991" lon="5.22281">
        <ele>216.8</ele>
        <time>2022-02-24T12:58:53Z</time>
      </trkpt>
      <trkpt lat="45.91987" lon="5.22276">
        <ele>216.8</ele>
        <time>2022-02-24T12:58:54Z</time>
      </trkpt>
      <trkpt lat="45.91982" lon="5.22272">
        <ele>216.8</ele>
        <time>2022-02-24T12:58:55Z</time>
      </trkpt>
      <trkpt lat="45.91977" lon="5.22268">
        <ele>216.8</ele>
        <time>2022-02-24T12:58:56Z</time>
      </trkpt>
      <trkpt lat="45.91972" lon="5.22263">
        <ele>216.8</ele>
        <time>2022-02-24T12:58:57Z</time>
      </trkpt>
      <trkpt lat="45.91968" lon="5.22259">
        <ele>216.8</ele>
        <time>2022-02-24T12:58:58Z</time>
      </trkpt>
      <trkpt lat="45.91963" lon="5.22254">
        <ele>216.8</ele>
        <time>2022-02-24T12:58:59Z</time>
      </trkpt>
      <trkpt lat="45.91959" lon="5.2225">
        <ele>216.8</ele>
        <time>2022-02-24T12:59:00Z</time>
      </trkpt>
      <trkpt lat="45.91954" lon="5.22246">
        <ele>216.8</ele>
        <time>2022-02-24T12:59:01Z</time>
      </trkpt>
      <trkpt lat="45.91949" lon="5.22242">
        <ele>217</ele>
        <time>2022-02-24T12:59:02Z</time>
      </trkpt>
      <trkpt lat="45.91944" lon="5.22237">
        <ele>217</ele>
        <time>2022-02-24T12:59:03Z</time>
      </trkpt>
      <trkpt lat="45.91939" lon="5.22233">
        <ele>217</ele>
        <time>2022-02-24T12:59:04Z</time>
      </trkpt>
      <trkpt lat="45.91934" lon="5.22228">
        <ele>217</ele>
        <time>2022-02-24T12:59:05Z</time>
      </trkpt>
      <trkpt lat="45.91929" lon="5.22224">
        <ele>217</ele>
        <time>2022-02-24T12:59:06Z</time>
      </trkpt>
      <trkpt lat="45.91923" lon="5.2222">
        <ele>217</ele>
        <time>2022-02-24T12:59:07Z</time>
      </trkpt>
      <trkpt lat="45.91918" lon="5.22216">
        <ele>217</ele>
        <time>2022-02-24T12:59:08Z</time>
      </trkpt>
      <trkpt lat="45.91913" lon="5.22212">
        <ele>217</ele>
        <time>2022-02-24T12:59:09Z</time>
      </trkpt>
      <trkpt lat="45.91908" lon="5.22207">
        <ele>217</ele>
        <time>2022-02-24T12:59:10Z</time>
      </trkpt>
      <trkpt lat="45.91904" lon="5.22203">
        <ele>217</ele>
        <time>2022-02-24T12:59:11Z</time>
      </trkpt>
      <trkpt lat="45.91899" lon="5.22198">
        <ele>216.8</ele>
        <time>2022-02-24T12:59:12Z</time>
      </trkpt>
      <trkpt lat="45.91894" lon="5.22194">
        <ele>216.8</ele>
        <time>2022-02-24T12:59:13Z</time>
      </trkpt>
      <trkpt lat="45.91889" lon="5.22189">
        <ele>216.8</ele>
        <time>2022-02-24T12:59:14Z</time>
      </trkpt>
      <trkpt lat="45.91885" lon="5.22185">
        <ele>216.8</ele>
        <time>2022-02-24T12:59:15Z</time>
      </trkpt>
      <trkpt lat="45.9188" lon="5.2218">
        <ele>216.8</ele>
        <time>2022-02-24T12:59:16Z</time>
      </trkpt>
      <trkpt lat="45.91875" lon="5.22176">
        <ele>216.8</ele>
        <time>2022-02-24T12:59:17Z</time>
      </trkpt>
      <trkpt lat="45.9187" lon="5.22171">
        <ele>216.8</ele>
        <time>2022-02-24T12:59:18Z</time>
      </trkpt>
      <trkpt lat="45.91865" lon="5.22167">
        <ele>216.6</ele>
        <time>2022-02-24T12:59:19Z</time>
      </trkpt>
      <trkpt lat="45.9186" lon="5.22162">
        <ele>216.6</ele>
        <time>2022-02-24T12:59:20Z</time>
      </trkpt>
      <trkpt lat="45.91855" lon="5.22158">
        <ele>216.6</ele>
        <time>2022-02-24T12:59:21Z</time>
      </trkpt>
      <trkpt lat="45.9185" lon="5.22153">
        <ele>216.6</ele>
        <time>2022-02-24T12:59:22Z</time>
      </trkpt>
      <trkpt lat="45.91845" lon="5.22149">
        <ele>216.6</ele>
        <time>2022-02-24T12:59:23Z</time>
      </trkpt>
      <trkpt lat="45.9184" lon="5.22144">
        <ele>216.6</ele>
        <time>2022-02-24T12:59:24Z</time>
      </trkpt>
      <trkpt lat="45.91835" lon="5.2214">
        <ele>216.6</ele>
        <time>2022-02-24T12:59:25Z</time>
      </trkpt>
      <trkpt lat="45.9183" lon="5.22136">
        <ele>216.6</ele>
        <time>2022-02-24T12:59:26Z</time>
      </trkpt>
      <trkpt lat="45.91825" lon="5.22131">
        <ele>216.8</ele>
        <time>2022-02-24T12:59:27Z</time>
      </trkpt>
      <trkpt lat="45.91821" lon="5.22126">
        <ele>216.8</ele>
        <time>2022-02-24T12:59:28Z</time>
      </trkpt>
      <trkpt lat="45.91816" lon="5.22122">
        <ele>216.8</ele>
        <time>2022-02-24T12:59:29Z</time>
      </trkpt>
      <trkpt lat="45.91811" lon="5.22118">
        <ele>216.8</ele>
        <time>2022-02-24T12:59:30Z</time>
      </trkpt>
      <trkpt lat="45.91806" lon="5.22114">
        <ele>216.8</ele>
        <time>2022-02-24T12:59:31Z</time>
      </trkpt>
      <trkpt lat="45.91802" lon="5.2211">
        <ele>216.8</ele>
        <time>2022-02-24T12:59:32Z</time>
      </trkpt>
      <trkpt lat="45.91797" lon="5.22106">
        <ele>216.8</ele>
        <time>2022-02-24T12:59:33Z</time>
      </trkpt>
      <trkpt lat="45.91792" lon="5.22102">
        <ele>216.6</ele>
        <time>2022-02-24T12:59:34Z</time>
      </trkpt>
      <trkpt lat="45.91788" lon="5.22098">
        <ele>216.6</ele>
        <time>2022-02-24T12:59:35Z</time>
      </trkpt>
      <trkpt lat="45.91783" lon="5.22094">
        <ele>216.6</ele>
        <time>2022-02-24T12:59:36Z</time>
      </trkpt>
      <trkpt lat="45.91779" lon="5.2209">
        <ele>216.6</ele>
        <time>2022-02-24T12:59:37Z</time>
      </trkpt>
      <trkpt lat="45.91774" lon="5.22086">
        <ele>216.6</ele>
        <time>2022-02-24T12:59:38Z</time>
      </trkpt>
      <trkpt lat="45.9177" lon="5.22081">
        <ele>216.6</ele>
        <time>2022-02-24T12:59:39Z</time>
      </trkpt>
      <trkpt lat="45.91765" lon="5.22077">
        <ele>216.6</ele>
        <time>2022-02-24T12:59:40Z</time>
      </trkpt>
      <trkpt lat="45.9176" lon="5.22072">
        <ele>216.6</ele>
        <time>2022-02-24T12:59:41Z</time>
      </trkpt>
      <trkpt lat="45.91755" lon="5.22068">
        <ele>216.6</ele>
        <time>2022-02-24T12:59:42Z</time>
      </trkpt>
      <trkpt lat="45.9175" lon="5.22064">
        <ele>216.6</ele>
        <time>2022-02-24T12:59:43Z</time>
      </trkpt>
      <trkpt lat="45.91745" lon="5.22059">
        <ele>216.4</ele>
        <time>2022-02-24T12:59:44Z</time>
      </trkpt>
      <trkpt lat="45.9174" lon="5.22055">
        <ele>216</ele>
        <time>2022-02-24T12:59:45Z</time>
      </trkpt>
      <trkpt lat="45.91735" lon="5.22051">
        <ele>216</ele>
        <time>2022-02-24T12:59:46Z</time>
      </trkpt>
      <trkpt lat="45.9173" lon="5.22046">
        <ele>216</ele>
        <time>2022-02-24T12:59:47Z</time>
      </trkpt>
      <trkpt lat="45.91725" lon="5.22042">
        <ele>216</ele>
        <time>2022-02-24T12:59:48Z</time>
      </trkpt>
      <trkpt lat="45.9172" lon="5.22037">
        <ele>216</ele>
        <time>2022-02-24T12:59:49Z</time>
      </trkpt>
      <trkpt lat="45.91715" lon="5.22033">
        <ele>215.8</ele>
        <time>2022-02-24T12:59:50Z</time>
      </trkpt>
      <trkpt lat="45.9171" lon="5.22028">
        <ele>215.6</ele>
        <time>2022-02-24T12:59:51Z</time>
      </trkpt>
      <trkpt lat="45.91704" lon="5.22024">
        <ele>215.6</ele>
        <time>2022-02-24T12:59:52Z</time>
      </trkpt>
      <trkpt lat="45.91699" lon="5.22019">
        <ele>215.6</ele>
        <time>2022-02-24T12:59:53Z</time>
      </trkpt>
      <trkpt lat="45.91694" lon="5.22015">
        <ele>215.6</ele>
        <time>2022-02-24T12:59:54Z</time>
      </trkpt>
      <trkpt lat="45.91689" lon="5.2201">
        <ele>215.8</ele>
        <time>2022-02-24T12:59:55Z</time>
      </trkpt>
      <trkpt lat="45.91684" lon="5.22006">
        <ele>215.8</ele>
        <time>2022-02-24T12:59:56Z</time>
      </trkpt>
      <trkpt lat="45.91679" lon="5.22002">
        <ele>215.8</ele>
        <time>2022-02-24T12:59:57Z</time>
      </trkpt>
      <trkpt lat="45.91674" lon="5.21997">
        <ele>215.8</ele>
        <time>2022-02-24T12:59:58Z</time>
      </trkpt>
      <trkpt lat="45.91669" lon="5.21993">
        <ele>215.8</ele>
        <time>2022-02-24T12:59:59Z</time>
      </trkpt>
      <trkpt lat="45.91664" lon="5.21988">
        <ele>215.6</ele>
        <time>2022-02-24T13:00:00Z</time>
      </trkpt>
      <trkpt lat="45.91659" lon="5.21983">
        <ele>215.6</ele>
        <time>2022-02-24T13:00:01Z</time>
      </trkpt>
      <trkpt lat="45.91654" lon="5.21979">
        <ele>215.6</ele>
        <time>2022-02-24T13:00:02Z</time>
      </trkpt>
      <trkpt lat="45.91649" lon="5.21974">
        <ele>215.4</ele>
        <time>2022-02-24T13:00:03Z</time>
      </trkpt>
      <trkpt lat="45.91644" lon="5.2197">
        <ele>215.4</ele>
        <time>2022-02-24T13:00:04Z</time>
      </trkpt>
      <trkpt lat="45.91639" lon="5.21965">
        <ele>215.2</ele>
        <time>2022-02-24T13:00:05Z</time>
      </trkpt>
      <trkpt lat="45.91633" lon="5.21961">
        <ele>215.2</ele>
        <time>2022-02-24T13:00:06Z</time>
      </trkpt>
      <trkpt lat="45.91628" lon="5.21956">
        <ele>215.2</ele>
        <time>2022-02-24T13:00:07Z</time>
      </trkpt>
      <trkpt lat="45.91623" lon="5.21952">
        <ele>215.2</ele>
        <time>2022-02-24T13:00:08Z</time>
      </trkpt>
      <trkpt lat="45.91618" lon="5.21947">
        <ele>215.2</ele>
        <time>2022-02-24T13:00:09Z</time>
      </trkpt>
      <trkpt lat="45.91613" lon="5.21943">
        <ele>215.2</ele>
        <time>2022-02-24T13:00:10Z</time>
      </trkpt>
      <trkpt lat="45.91608" lon="5.21938">
        <ele>215.2</ele>
        <time>2022-02-24T13:00:11Z</time>
      </trkpt>
      <trkpt lat="45.91603" lon="5.21934">
        <ele>215.2</ele>
        <time>2022-02-24T13:00:12Z</time>
      </trkpt>
      <trkpt lat="45.91599" lon="5.21929">
        <ele>215.2</ele>
        <time>2022-02-24T13:00:13Z</time>
      </trkpt>
      <trkpt lat="45.91594" lon="5.21925">
        <ele>215.2</ele>
        <time>2022-02-24T13:00:14Z</time>
      </trkpt>
      <trkpt lat="45.91589" lon="5.21921">
        <ele>215.2</ele>
        <time>2022-02-24T13:00:15Z</time>
      </trkpt>
      <trkpt lat="45.91585" lon="5.21916">
        <ele>215.2</ele>
        <time>2022-02-24T13:00:16Z</time>
      </trkpt>
      <trkpt lat="45.9158" lon="5.21912">
        <ele>215.2</ele>
        <time>2022-02-24T13:00:17Z</time>
      </trkpt>
      <trkpt lat="45.91575" lon="5.21908">
        <ele>215.2</ele>
        <time>2022-02-24T13:00:18Z</time>
      </trkpt>
      <trkpt lat="45.91571" lon="5.21904">
        <ele>215.2</ele>
        <time>2022-02-24T13:00:19Z</time>
      </trkpt>
      <trkpt lat="45.91567" lon="5.21901">
        <ele>215.2</ele>
        <time>2022-02-24T13:00:20Z</time>
      </trkpt>
      <trkpt lat="45.91563" lon="5.21897">
        <ele>215.4</ele>
        <time>2022-02-24T13:00:21Z</time>
      </trkpt>
      <trkpt lat="45.91558" lon="5.21894">
        <ele>215.4</ele>
        <time>2022-02-24T13:00:22Z</time>
      </trkpt>
      <trkpt lat="45.91554" lon="5.2189">
        <ele>215.6</ele>
        <time>2022-02-24T13:00:23Z</time>
      </trkpt>
      <trkpt lat="45.9155" lon="5.21886">
        <ele>215.6</ele>
        <time>2022-02-24T13:00:24Z</time>
      </trkpt>
      <trkpt lat="45.91546" lon="5.21882">
        <ele>216</ele>
        <time>2022-02-24T13:00:25Z</time>
      </trkpt>
      <trkpt lat="45.91542" lon="5.21879">
        <ele>216</ele>
        <time>2022-02-24T13:00:26Z</time>
      </trkpt>
      <trkpt lat="45.91538" lon="5.21875">
        <ele>216.2</ele>
        <time>2022-02-24T13:00:27Z</time>
      </trkpt>
      <trkpt lat="45.91534" lon="5.21872">
        <ele>216.2</ele>
        <time>2022-02-24T13:00:28Z</time>
      </trkpt>
      <trkpt lat="45.9153" lon="5.21868">
        <ele>216.2</ele>
        <time>2022-02-24T13:00:29Z</time>
      </trkpt>
      <trkpt lat="45.91526" lon="5.21864">
        <ele>216.2</ele>
        <time>2022-02-24T13:00:30Z</time>
      </trkpt>
      <trkpt lat="45.91521" lon="5.21861">
        <ele>216.2</ele>
        <time>2022-02-24T13:00:31Z</time>
      </trkpt>
      <trkpt lat="45.91517" lon="5.21857">
        <ele>216.6</ele>
        <time>2022-02-24T13:00:32Z</time>
      </trkpt>
      <trkpt lat="45.91513" lon="5.21853">
        <ele>216.6</ele>
        <time>2022-02-24T13:00:33Z</time>
      </trkpt>
      <trkpt lat="45.91509" lon="5.2185">
        <ele>216.6</ele>
        <time>2022-02-24T13:00:34Z</time>
      </trkpt>
      <trkpt lat="45.91505" lon="5.21846">
        <ele>216.6</ele>
        <time>2022-02-24T13:00:35Z</time>
      </trkpt>
      <trkpt lat="45.91501" lon="5.21842">
        <ele>216.6</ele>
        <time>2022-02-24T13:00:36Z</time>
      </trkpt>
      <trkpt lat="45.91496" lon="5.21838">
        <ele>216.6</ele>
        <time>2022-02-24T13:00:37Z</time>
      </trkpt>
      <trkpt lat="45.91492" lon="5.21834">
        <ele>216.6</ele>
        <time>2022-02-24T13:00:38Z</time>
      </trkpt>
      <trkpt lat="45.91487" lon="5.2183">
        <ele>216.6</ele>
        <time>2022-02-24T13:00:39Z</time>
      </trkpt>
      <trkpt lat="45.91483" lon="5.21826">
        <ele>216.6</ele>
        <time>2022-02-24T13:00:40Z</time>
      </trkpt>
      <trkpt lat="45.91478" lon="5.21822">
        <ele>216.6</ele>
        <time>2022-02-24T13:00:41Z</time>
      </trkpt>
      <trkpt lat="45.91474" lon="5.21818">
        <ele>216.6</ele>
        <time>2022-02-24T13:00:42Z</time>
      </trkpt>
      <trkpt lat="45.91469" lon="5.21814">
        <ele>216.6</ele>
        <time>2022-02-24T13:00:43Z</time>
      </trkpt>
      <trkpt lat="45.91465" lon="5.2181">
        <ele>216.6</ele>
        <time>2022-02-24T13:00:44Z</time>
      </trkpt>
      <trkpt lat="45.9146" lon="5.21806">
        <ele>216.6</ele>
        <time>2022-02-24T13:00:45Z</time>
      </trkpt>
      <trkpt lat="45.91456" lon="5.21802">
        <ele>216.6</ele>
        <time>2022-02-24T13:00:46Z</time>
      </trkpt>
      <trkpt lat="45.91451" lon="5.21797">
        <ele>216.6</ele>
        <time>2022-02-24T13:00:47Z</time>
      </trkpt>
      <trkpt lat="45.91447" lon="5.21793">
        <ele>216.6</ele>
        <time>2022-02-24T13:00:48Z</time>
      </trkpt>
      <trkpt lat="45.91442" lon="5.21788">
        <ele>216.6</ele>
        <time>2022-02-24T13:00:49Z</time>
      </trkpt>
      <trkpt lat="45.91438" lon="5.21783">
        <ele>216.6</ele>
        <time>2022-02-24T13:00:50Z</time>
      </trkpt>
      <trkpt lat="45.91433" lon="5.21779">
        <ele>216.2</ele>
        <time>2022-02-24T13:00:51Z</time>
      </trkpt>
      <trkpt lat="45.91429" lon="5.21774">
        <ele>216.2</ele>
        <time>2022-02-24T13:00:52Z</time>
      </trkpt>
      <trkpt lat="45.91424" lon="5.2177">
        <ele>216.2</ele>
        <time>2022-02-24T13:00:53Z</time>
      </trkpt>
      <trkpt lat="45.91419" lon="5.21766">
        <ele>216.2</ele>
        <time>2022-02-24T13:00:54Z</time>
      </trkpt>
      <trkpt lat="45.91414" lon="5.21761">
        <ele>216</ele>
        <time>2022-02-24T13:00:55Z</time>
      </trkpt>
      <trkpt lat="45.9141" lon="5.21757">
        <ele>216</ele>
        <time>2022-02-24T13:00:56Z</time>
      </trkpt>
      <trkpt lat="45.91405" lon="5.21753">
        <ele>216</ele>
        <time>2022-02-24T13:00:57Z</time>
      </trkpt>
      <trkpt lat="45.914" lon="5.21749">
        <ele>216</ele>
        <time>2022-02-24T13:00:58Z</time>
      </trkpt>
      <trkpt lat="45.91396" lon="5.21745">
        <ele>216</ele>
        <time>2022-02-24T13:00:59Z</time>
      </trkpt>
      <trkpt lat="45.91391" lon="5.2174">
        <ele>216</ele>
        <time>2022-02-24T13:01:00Z</time>
      </trkpt>
      <trkpt lat="45.91386" lon="5.21736">
        <ele>216</ele>
        <time>2022-02-24T13:01:01Z</time>
      </trkpt>
      <trkpt lat="45.91382" lon="5.21732">
        <ele>216</ele>
        <time>2022-02-24T13:01:02Z</time>
      </trkpt>
      <trkpt lat="45.91382" lon="5.21732">
        <ele>216</ele>
        <time>2022-02-24T13:01:03Z</time>
      </trkpt>
      <trkpt lat="45.91377" lon="5.21728">
        <ele>216</ele>
        <time>2022-02-24T13:01:04Z</time>
      </trkpt>
      <trkpt lat="45.91372" lon="5.21724">
        <ele>216</ele>
        <time>2022-02-24T13:01:05Z</time>
      </trkpt>
      <trkpt lat="45.91368" lon="5.2172">
        <ele>216</ele>
        <time>2022-02-24T13:01:06Z</time>
      </trkpt>
      <trkpt lat="45.91363" lon="5.21716">
        <ele>216</ele>
        <time>2022-02-24T13:01:07Z</time>
      </trkpt>
      <trkpt lat="45.91354" lon="5.21708">
        <ele>216</ele>
        <time>2022-02-24T13:01:08Z</time>
      </trkpt>
      <trkpt lat="45.9135" lon="5.21704">
        <ele>216</ele>
        <time>2022-02-24T13:01:09Z</time>
      </trkpt>
      <trkpt lat="45.91345" lon="5.21701">
        <ele>216</ele>
        <time>2022-02-24T13:01:10Z</time>
      </trkpt>
      <trkpt lat="45.91341" lon="5.21697">
        <ele>216</ele>
        <time>2022-02-24T13:01:11Z</time>
      </trkpt>
      <trkpt lat="45.91336" lon="5.21693">
        <ele>216</ele>
        <time>2022-02-24T13:01:12Z</time>
      </trkpt>
      <trkpt lat="45.91331" lon="5.21689">
        <ele>216</ele>
        <time>2022-02-24T13:01:13Z</time>
      </trkpt>
      <trkpt lat="45.91327" lon="5.21685">
        <ele>216</ele>
        <time>2022-02-24T13:01:14Z</time>
      </trkpt>
      <trkpt lat="45.91322" lon="5.21682">
        <ele>216</ele>
        <time>2022-02-24T13:01:15Z</time>
      </trkpt>
      <trkpt lat="45.91318" lon="5.21678">
        <ele>216</ele>
        <time>2022-02-24T13:01:16Z</time>
      </trkpt>
      <trkpt lat="45.91314" lon="5.21674">
        <ele>216</ele>
        <time>2022-02-24T13:01:17Z</time>
      </trkpt>
      <trkpt lat="45.91309" lon="5.2167">
        <ele>216</ele>
        <time>2022-02-24T13:01:18Z</time>
      </trkpt>
      <trkpt lat="45.91305" lon="5.21666">
        <ele>216</ele>
        <time>2022-02-24T13:01:19Z</time>
      </trkpt>
      <trkpt lat="45.91301" lon="5.21663">
        <ele>216</ele>
        <time>2022-02-24T13:01:20Z</time>
      </trkpt>
      <trkpt lat="45.91297" lon="5.21659">
        <ele>216</ele>
        <time>2022-02-24T13:01:21Z</time>
      </trkpt>
      <trkpt lat="45.91292" lon="5.21655">
        <ele>216</ele>
        <time>2022-02-24T13:01:22Z</time>
      </trkpt>
      <trkpt lat="45.91287" lon="5.21651">
        <ele>215.8</ele>
        <time>2022-02-24T13:01:23Z</time>
      </trkpt>
      <trkpt lat="45.91283" lon="5.21647">
        <ele>215.8</ele>
        <time>2022-02-24T13:01:24Z</time>
      </trkpt>
      <trkpt lat="45.91279" lon="5.21643">
        <ele>215.8</ele>
        <time>2022-02-24T13:01:25Z</time>
      </trkpt>
      <trkpt lat="45.91274" lon="5.21638">
        <ele>215.8</ele>
        <time>2022-02-24T13:01:26Z</time>
      </trkpt>
      <trkpt lat="45.91269" lon="5.21634">
        <ele>215.8</ele>
        <time>2022-02-24T13:01:27Z</time>
      </trkpt>
      <trkpt lat="45.91264" lon="5.2163">
        <ele>215.8</ele>
        <time>2022-02-24T13:01:28Z</time>
      </trkpt>
      <trkpt lat="45.9126" lon="5.21626">
        <ele>215.8</ele>
        <time>2022-02-24T13:01:29Z</time>
      </trkpt>
      <trkpt lat="45.91255" lon="5.21622">
        <ele>215.8</ele>
        <time>2022-02-24T13:01:30Z</time>
      </trkpt>
      <trkpt lat="45.9125" lon="5.21617">
        <ele>215.8</ele>
        <time>2022-02-24T13:01:31Z</time>
      </trkpt>
      <trkpt lat="45.91245" lon="5.21613">
        <ele>215.8</ele>
        <time>2022-02-24T13:01:32Z</time>
      </trkpt>
      <trkpt lat="45.91241" lon="5.21609">
        <ele>215.8</ele>
        <time>2022-02-24T13:01:33Z</time>
      </trkpt>
      <trkpt lat="45.91236" lon="5.21605">
        <ele>215.8</ele>
        <time>2022-02-24T13:01:34Z</time>
      </trkpt>
      <trkpt lat="45.91231" lon="5.21601">
        <ele>215.8</ele>
        <time>2022-02-24T13:01:35Z</time>
      </trkpt>
      <trkpt lat="45.91226" lon="5.21597">
        <ele>216</ele>
        <time>2022-02-24T13:01:36Z</time>
      </trkpt>
      <trkpt lat="45.91222" lon="5.21592">
        <ele>216</ele>
        <time>2022-02-24T13:01:37Z</time>
      </trkpt>
      <trkpt lat="45.91218" lon="5.21589">
        <ele>216</ele>
        <time>2022-02-24T13:01:38Z</time>
      </trkpt>
      <trkpt lat="45.91213" lon="5.21585">
        <ele>216.4</ele>
        <time>2022-02-24T13:01:39Z</time>
      </trkpt>
      <trkpt lat="45.91209" lon="5.21581">
        <ele>216.4</ele>
        <time>2022-02-24T13:01:40Z</time>
      </trkpt>
      <trkpt lat="45.91205" lon="5.21577">
        <ele>216.4</ele>
        <time>2022-02-24T13:01:41Z</time>
      </trkpt>
      <trkpt lat="45.91201" lon="5.21574">
        <ele>216.4</ele>
        <time>2022-02-24T13:01:42Z</time>
      </trkpt>
      <trkpt lat="45.91197" lon="5.21569">
        <ele>216.4</ele>
        <time>2022-02-24T13:01:43Z</time>
      </trkpt>
      <trkpt lat="45.91192" lon="5.21565">
        <ele>216.4</ele>
        <time>2022-02-24T13:01:44Z</time>
      </trkpt>
      <trkpt lat="45.91187" lon="5.21561">
        <ele>216.4</ele>
        <time>2022-02-24T13:01:45Z</time>
      </trkpt>
      <trkpt lat="45.91182" lon="5.21558">
        <ele>216</ele>
        <time>2022-02-24T13:01:46Z</time>
      </trkpt>
      <trkpt lat="45.91178" lon="5.21554">
        <ele>216</ele>
        <time>2022-02-24T13:01:47Z</time>
      </trkpt>
      <trkpt lat="45.91173" lon="5.2155">
        <ele>216</ele>
        <time>2022-02-24T13:01:48Z</time>
      </trkpt>
      <trkpt lat="45.91168" lon="5.21546">
        <ele>215.8</ele>
        <time>2022-02-24T13:01:49Z</time>
      </trkpt>
      <trkpt lat="45.91163" lon="5.21541">
        <ele>215.8</ele>
        <time>2022-02-24T13:01:50Z</time>
      </trkpt>
      <trkpt lat="45.91158" lon="5.21537">
        <ele>215.6</ele>
        <time>2022-02-24T13:01:51Z</time>
      </trkpt>
      <trkpt lat="45.91153" lon="5.21533">
        <ele>215.6</ele>
        <time>2022-02-24T13:01:52Z</time>
      </trkpt>
      <trkpt lat="45.91147" lon="5.21528">
        <ele>215.2</ele>
        <time>2022-02-24T13:01:53Z</time>
      </trkpt>
      <trkpt lat="45.91142" lon="5.21523">
        <ele>215.2</ele>
        <time>2022-02-24T13:01:54Z</time>
      </trkpt>
      <trkpt lat="45.91136" lon="5.21517">
        <ele>215</ele>
        <time>2022-02-24T13:01:55Z</time>
      </trkpt>
      <trkpt lat="45.91131" lon="5.21512">
        <ele>215</ele>
        <time>2022-02-24T13:01:56Z</time>
      </trkpt>
      <trkpt lat="45.91125" lon="5.21506">
        <ele>214.8</ele>
        <time>2022-02-24T13:01:57Z</time>
      </trkpt>
      <trkpt lat="45.9112" lon="5.21501">
        <ele>214.8</ele>
        <time>2022-02-24T13:01:58Z</time>
      </trkpt>
      <trkpt lat="45.91114" lon="5.21496">
        <ele>214.8</ele>
        <time>2022-02-24T13:01:59Z</time>
      </trkpt>
      <trkpt lat="45.91108" lon="5.21491">
        <ele>214.6</ele>
        <time>2022-02-24T13:02:00Z</time>
      </trkpt>
      <trkpt lat="45.91102" lon="5.21486">
        <ele>214.6</ele>
        <time>2022-02-24T13:02:01Z</time>
      </trkpt>
      <trkpt lat="45.91097" lon="5.21481">
        <ele>214.6</ele>
        <time>2022-02-24T13:02:02Z</time>
      </trkpt>
      <trkpt lat="45.91092" lon="5.21476">
        <ele>214.2</ele>
        <time>2022-02-24T13:02:03Z</time>
      </trkpt>
      <trkpt lat="45.91086" lon="5.21471">
        <ele>214.2</ele>
        <time>2022-02-24T13:02:04Z</time>
      </trkpt>
      <trkpt lat="45.91081" lon="5.21466">
        <ele>214.2</ele>
        <time>2022-02-24T13:02:05Z</time>
      </trkpt>
      <trkpt lat="45.91076" lon="5.2146">
        <ele>214</ele>
        <time>2022-02-24T13:02:06Z</time>
      </trkpt>
      <trkpt lat="45.91071" lon="5.21455">
        <ele>214</ele>
        <time>2022-02-24T13:02:07Z</time>
      </trkpt>
      <trkpt lat="45.91067" lon="5.2145">
        <ele>214</ele>
        <time>2022-02-24T13:02:08Z</time>
      </trkpt>
      <trkpt lat="45.91062" lon="5.21444">
        <ele>214</ele>
        <time>2022-02-24T13:02:09Z</time>
      </trkpt>
      <trkpt lat="45.91059" lon="5.21438">
        <ele>214</ele>
        <time>2022-02-24T13:02:10Z</time>
      </trkpt>
      <trkpt lat="45.91055" lon="5.21432">
        <ele>214</ele>
        <time>2022-02-24T13:02:11Z</time>
      </trkpt>
      <trkpt lat="45.91051" lon="5.21427">
        <ele>214</ele>
        <time>2022-02-24T13:02:12Z</time>
      </trkpt>
      <trkpt lat="45.91048" lon="5.21421">
        <ele>214</ele>
        <time>2022-02-24T13:02:13Z</time>
      </trkpt>
      <trkpt lat="45.91044" lon="5.21414">
        <ele>214</ele>
        <time>2022-02-24T13:02:14Z</time>
      </trkpt>
      <trkpt lat="45.91041" lon="5.21408">
        <ele>214</ele>
        <time>2022-02-24T13:02:15Z</time>
      </trkpt>
      <trkpt lat="45.91038" lon="5.21402">
        <ele>214</ele>
        <time>2022-02-24T13:02:16Z</time>
      </trkpt>
      <trkpt lat="45.91036" lon="5.21396">
        <ele>214.2</ele>
        <time>2022-02-24T13:02:17Z</time>
      </trkpt>
      <trkpt lat="45.91033" lon="5.2139">
        <ele>214.2</ele>
        <time>2022-02-24T13:02:18Z</time>
      </trkpt>
      <trkpt lat="45.9103" lon="5.21384">
        <ele>214.2</ele>
        <time>2022-02-24T13:02:19Z</time>
      </trkpt>
      <trkpt lat="45.91027" lon="5.21377">
        <ele>214.2</ele>
        <time>2022-02-24T13:02:20Z</time>
      </trkpt>
      <trkpt lat="45.91025" lon="5.21371">
        <ele>214.2</ele>
        <time>2022-02-24T13:02:21Z</time>
      </trkpt>
      <trkpt lat="45.91022" lon="5.21365">
        <ele>214.2</ele>
        <time>2022-02-24T13:02:22Z</time>
      </trkpt>
      <trkpt lat="45.9102" lon="5.21359">
        <ele>214.4</ele>
        <time>2022-02-24T13:02:23Z</time>
      </trkpt>
      <trkpt lat="45.91017" lon="5.21353">
        <ele>214.4</ele>
        <time>2022-02-24T13:02:24Z</time>
      </trkpt>
      <trkpt lat="45.91015" lon="5.21347">
        <ele>214.4</ele>
        <time>2022-02-24T13:02:25Z</time>
      </trkpt>
      <trkpt lat="45.91013" lon="5.21341">
        <ele>214.4</ele>
        <time>2022-02-24T13:02:26Z</time>
      </trkpt>
      <trkpt lat="45.9101" lon="5.21335">
        <ele>214.4</ele>
        <time>2022-02-24T13:02:27Z</time>
      </trkpt>
      <trkpt lat="45.91008" lon="5.2133">
        <ele>214.6</ele>
        <time>2022-02-24T13:02:28Z</time>
      </trkpt>
      <trkpt lat="45.91005" lon="5.21324">
        <ele>214.6</ele>
        <time>2022-02-24T13:02:29Z</time>
      </trkpt>
      <trkpt lat="45.91003" lon="5.21318">
        <ele>215</ele>
        <time>2022-02-24T13:02:30Z</time>
      </trkpt>
      <trkpt lat="45.91" lon="5.21312">
        <ele>215</ele>
        <time>2022-02-24T13:02:31Z</time>
      </trkpt>
      <trkpt lat="45.90998" lon="5.21306">
        <ele>215.2</ele>
        <time>2022-02-24T13:02:32Z</time>
      </trkpt>
      <trkpt lat="45.90995" lon="5.213">
        <ele>215.2</ele>
        <time>2022-02-24T13:02:33Z</time>
      </trkpt>
      <trkpt lat="45.90993" lon="5.21295">
        <ele>215.2</ele>
        <time>2022-02-24T13:02:34Z</time>
      </trkpt>
      <trkpt lat="45.9099" lon="5.21289">
        <ele>215.2</ele>
        <time>2022-02-24T13:02:35Z</time>
      </trkpt>
      <trkpt lat="45.90988" lon="5.21283">
        <ele>215.2</ele>
        <time>2022-02-24T13:02:36Z</time>
      </trkpt>
      <trkpt lat="45.90985" lon="5.21276">
        <ele>215.2</ele>
        <time>2022-02-24T13:02:37Z</time>
      </trkpt>
      <trkpt lat="45.90983" lon="5.2127">
        <ele>215.2</ele>
        <time>2022-02-24T13:02:38Z</time>
      </trkpt>
      <trkpt lat="45.9098" lon="5.21265">
        <ele>215.2</ele>
        <time>2022-02-24T13:02:39Z</time>
      </trkpt>
      <trkpt lat="45.90978" lon="5.21259">
        <ele>215.2</ele>
        <time>2022-02-24T13:02:40Z</time>
      </trkpt>
      <trkpt lat="45.90976" lon="5.21253">
        <ele>215.2</ele>
        <time>2022-02-24T13:02:41Z</time>
      </trkpt>
      <trkpt lat="45.90974" lon="5.21247">
        <ele>215.2</ele>
        <time>2022-02-24T13:02:42Z</time>
      </trkpt>
      <trkpt lat="45.90972" lon="5.21241">
        <ele>215.2</ele>
        <time>2022-02-24T13:02:43Z</time>
      </trkpt>
      <trkpt lat="45.90969" lon="5.21234">
        <ele>215.2</ele>
        <time>2022-02-24T13:02:44Z</time>
      </trkpt>
      <trkpt lat="45.90966" lon="5.21227">
        <ele>215</ele>
        <time>2022-02-24T13:02:45Z</time>
      </trkpt>
      <trkpt lat="45.90964" lon="5.2122">
        <ele>215</ele>
        <time>2022-02-24T13:02:46Z</time>
      </trkpt>
      <trkpt lat="45.90961" lon="5.21213">
        <ele>215</ele>
        <time>2022-02-24T13:02:47Z</time>
      </trkpt>
      <trkpt lat="45.90958" lon="5.21206">
        <ele>215</ele>
        <time>2022-02-24T13:02:48Z</time>
      </trkpt>
      <trkpt lat="45.90956" lon="5.21199">
        <ele>215</ele>
        <time>2022-02-24T13:02:49Z</time>
      </trkpt>
      <trkpt lat="45.90953" lon="5.21192">
        <ele>215</ele>
        <time>2022-02-24T13:02:50Z</time>
      </trkpt>
      <trkpt lat="45.9095" lon="5.21185">
        <ele>215</ele>
        <time>2022-02-24T13:02:51Z</time>
      </trkpt>
      <trkpt lat="45.90947" lon="5.21178">
        <ele>215</ele>
        <time>2022-02-24T13:02:52Z</time>
      </trkpt>
      <trkpt lat="45.90945" lon="5.21171">
        <ele>214.8</ele>
        <time>2022-02-24T13:02:53Z</time>
      </trkpt>
      <trkpt lat="45.90942" lon="5.21164">
        <ele>214.8</ele>
        <time>2022-02-24T13:02:54Z</time>
      </trkpt>
      <trkpt lat="45.90939" lon="5.21157">
        <ele>214.8</ele>
        <time>2022-02-24T13:02:55Z</time>
      </trkpt>
      <trkpt lat="45.90936" lon="5.21151">
        <ele>214.8</ele>
        <time>2022-02-24T13:02:56Z</time>
      </trkpt>
      <trkpt lat="45.90934" lon="5.21144">
        <ele>214.8</ele>
        <time>2022-02-24T13:02:57Z</time>
      </trkpt>
      <trkpt lat="45.90931" lon="5.21137">
        <ele>214.6</ele>
        <time>2022-02-24T13:02:58Z</time>
      </trkpt>
      <trkpt lat="45.90929" lon="5.2113">
        <ele>214.6</ele>
        <time>2022-02-24T13:02:59Z</time>
      </trkpt>
      <trkpt lat="45.90926" lon="5.21123">
        <ele>214.2</ele>
        <time>2022-02-24T13:03:00Z</time>
      </trkpt>
      <trkpt lat="45.90923" lon="5.21116">
        <ele>214.2</ele>
        <time>2022-02-24T13:03:01Z</time>
      </trkpt>
      <trkpt lat="45.9092" lon="5.21109">
        <ele>214.2</ele>
        <time>2022-02-24T13:03:02Z</time>
      </trkpt>
      <trkpt lat="45.90917" lon="5.21102">
        <ele>214.2</ele>
        <time>2022-02-24T13:03:03Z</time>
      </trkpt>
      <trkpt lat="45.90915" lon="5.21095">
        <ele>214.6</ele>
        <time>2022-02-24T13:03:04Z</time>
      </trkpt>
      <trkpt lat="45.90912" lon="5.21089">
        <ele>214.6</ele>
        <time>2022-02-24T13:03:05Z</time>
      </trkpt>
      <trkpt lat="45.90909" lon="5.21082">
        <ele>214.6</ele>
        <time>2022-02-24T13:03:06Z</time>
      </trkpt>
      <trkpt lat="45.90906" lon="5.21076">
        <ele>214.6</ele>
        <time>2022-02-24T13:03:07Z</time>
      </trkpt>
      <trkpt lat="45.90904" lon="5.21069">
        <ele>214.6</ele>
        <time>2022-02-24T13:03:08Z</time>
      </trkpt>
      <trkpt lat="45.90901" lon="5.21063">
        <ele>214.6</ele>
        <time>2022-02-24T13:03:09Z</time>
      </trkpt>
      <trkpt lat="45.90899" lon="5.21057">
        <ele>214.2</ele>
        <time>2022-02-24T13:03:10Z</time>
      </trkpt>
      <trkpt lat="45.90897" lon="5.2105">
        <ele>214.2</ele>
        <time>2022-02-24T13:03:11Z</time>
      </trkpt>
      <trkpt lat="45.90894" lon="5.21044">
        <ele>214.2</ele>
        <time>2022-02-24T13:03:12Z</time>
      </trkpt>
      <trkpt lat="45.90892" lon="5.21038">
        <ele>214.2</ele>
        <time>2022-02-24T13:03:13Z</time>
      </trkpt>
      <trkpt lat="45.9089" lon="5.21032">
        <ele>214.2</ele>
        <time>2022-02-24T13:03:14Z</time>
      </trkpt>
      <trkpt lat="45.90888" lon="5.21026">
        <ele>214.6</ele>
        <time>2022-02-24T13:03:15Z</time>
      </trkpt>
      <trkpt lat="45.90886" lon="5.2102">
        <ele>214.6</ele>
        <time>2022-02-24T13:03:16Z</time>
      </trkpt>
      <trkpt lat="45.90884" lon="5.21014">
        <ele>214.6</ele>
        <time>2022-02-24T13:03:17Z</time>
      </trkpt>
      <trkpt lat="45.90881" lon="5.21008">
        <ele>214.6</ele>
        <time>2022-02-24T13:03:18Z</time>
      </trkpt>
      <trkpt lat="45.90878" lon="5.21003">
        <ele>214.8</ele>
        <time>2022-02-24T13:03:19Z</time>
      </trkpt>
      <trkpt lat="45.90876" lon="5.20997">
        <ele>214.8</ele>
        <time>2022-02-24T13:03:20Z</time>
      </trkpt>
      <trkpt lat="45.90874" lon="5.2099">
        <ele>214.4</ele>
        <time>2022-02-24T13:03:21Z</time>
      </trkpt>
      <trkpt lat="45.90871" lon="5.20984">
        <ele>214.4</ele>
        <time>2022-02-24T13:03:22Z</time>
      </trkpt>
      <trkpt lat="45.90869" lon="5.20978">
        <ele>214.2</ele>
        <time>2022-02-24T13:03:23Z</time>
      </trkpt>
      <trkpt lat="45.90866" lon="5.20972">
        <ele>214.2</ele>
        <time>2022-02-24T13:03:24Z</time>
      </trkpt>
      <trkpt lat="45.90864" lon="5.20966">
        <ele>214.2</ele>
        <time>2022-02-24T13:03:25Z</time>
      </trkpt>
      <trkpt lat="45.90862" lon="5.2096">
        <ele>214.2</ele>
        <time>2022-02-24T13:03:26Z</time>
      </trkpt>
      <trkpt lat="45.9086" lon="5.20954">
        <ele>214.2</ele>
        <time>2022-02-24T13:03:27Z</time>
      </trkpt>
      <trkpt lat="45.90857" lon="5.20947">
        <ele>214.2</ele>
        <time>2022-02-24T13:03:28Z</time>
      </trkpt>
      <trkpt lat="45.90855" lon="5.20941">
        <ele>214.2</ele>
        <time>2022-02-24T13:03:29Z</time>
      </trkpt>
      <trkpt lat="45.90852" lon="5.20935">
        <ele>214.2</ele>
        <time>2022-02-24T13:03:30Z</time>
      </trkpt>
      <trkpt lat="45.9085" lon="5.20929">
        <ele>214.2</ele>
        <time>2022-02-24T13:03:31Z</time>
      </trkpt>
      <trkpt lat="45.90847" lon="5.20923">
        <ele>214.2</ele>
        <time>2022-02-24T13:03:32Z</time>
      </trkpt>
      <trkpt lat="45.90845" lon="5.20916">
        <ele>214.2</ele>
        <time>2022-02-24T13:03:33Z</time>
      </trkpt>
      <trkpt lat="45.90842" lon="5.2091">
        <ele>214.2</ele>
        <time>2022-02-24T13:03:34Z</time>
      </trkpt>
      <trkpt lat="45.9084" lon="5.20903">
        <ele>213.8</ele>
        <time>2022-02-24T13:03:35Z</time>
      </trkpt>
      <trkpt lat="45.90837" lon="5.20897">
        <ele>213.8</ele>
        <time>2022-02-24T13:03:36Z</time>
      </trkpt>
      <trkpt lat="45.90834" lon="5.2089">
        <ele>213.8</ele>
        <time>2022-02-24T13:03:37Z</time>
      </trkpt>
      <trkpt lat="45.90832" lon="5.20884">
        <ele>213.8</ele>
        <time>2022-02-24T13:03:38Z</time>
      </trkpt>
      <trkpt lat="45.90829" lon="5.20877">
        <ele>213.8</ele>
        <time>2022-02-24T13:03:39Z</time>
      </trkpt>
      <trkpt lat="45.90826" lon="5.2087">
        <ele>213.8</ele>
        <time>2022-02-24T13:03:40Z</time>
      </trkpt>
      <trkpt lat="45.90824" lon="5.20863">
        <ele>213.8</ele>
        <time>2022-02-24T13:03:41Z</time>
      </trkpt>
      <trkpt lat="45.90821" lon="5.20856">
        <ele>213.6</ele>
        <time>2022-02-24T13:03:42Z</time>
      </trkpt>
      <trkpt lat="45.90818" lon="5.20849">
        <ele>213.6</ele>
        <time>2022-02-24T13:03:43Z</time>
      </trkpt>
      <trkpt lat="45.90815" lon="5.20843">
        <ele>213.6</ele>
        <time>2022-02-24T13:03:44Z</time>
      </trkpt>
      <trkpt lat="45.90813" lon="5.20837">
        <ele>213.4</ele>
        <time>2022-02-24T13:03:45Z</time>
      </trkpt>
      <trkpt lat="45.90811" lon="5.20832">
        <ele>213.4</ele>
        <time>2022-02-24T13:03:46Z</time>
      </trkpt>
      <trkpt lat="45.90809" lon="5.20828">
        <ele>213.4</ele>
        <time>2022-02-24T13:03:47Z</time>
      </trkpt>
      <trkpt lat="45.90808" lon="5.20826">
        <ele>213.4</ele>
        <time>2022-02-24T13:03:48Z</time>
      </trkpt>
      <trkpt lat="45.90807" lon="5.20823">
        <ele>213.4</ele>
        <time>2022-02-24T13:03:49Z</time>
      </trkpt>
      <trkpt lat="45.90805" lon="5.2082">
        <ele>213.4</ele>
        <time>2022-02-24T13:03:50Z</time>
      </trkpt>
      <trkpt lat="45.90803" lon="5.20815">
        <ele>213.4</ele>
        <time>2022-02-24T13:03:51Z</time>
      </trkpt>
      <trkpt lat="45.90801" lon="5.2081">
        <ele>213.4</ele>
        <time>2022-02-24T13:03:52Z</time>
      </trkpt>
      <trkpt lat="45.90799" lon="5.20804">
        <ele>213.4</ele>
        <time>2022-02-24T13:03:53Z</time>
      </trkpt>
      <trkpt lat="45.90797" lon="5.20798">
        <ele>213</ele>
        <time>2022-02-24T13:03:54Z</time>
      </trkpt>
      <trkpt lat="45.90795" lon="5.20792">
        <ele>213</ele>
        <time>2022-02-24T13:03:55Z</time>
      </trkpt>
      <trkpt lat="45.90793" lon="5.20786">
        <ele>213</ele>
        <time>2022-02-24T13:03:56Z</time>
      </trkpt>
      <trkpt lat="45.9079" lon="5.20779">
        <ele>212.8</ele>
        <time>2022-02-24T13:03:57Z</time>
      </trkpt>
      <trkpt lat="45.90788" lon="5.20773">
        <ele>212.8</ele>
        <time>2022-02-24T13:03:58Z</time>
      </trkpt>
      <trkpt lat="45.90785" lon="5.20766">
        <ele>212.8</ele>
        <time>2022-02-24T13:03:59Z</time>
      </trkpt>
      <trkpt lat="45.90783" lon="5.20759">
        <ele>212.8</ele>
        <time>2022-02-24T13:04:00Z</time>
      </trkpt>
      <trkpt lat="45.9078" lon="5.20753">
        <ele>212.8</ele>
        <time>2022-02-24T13:04:01Z</time>
      </trkpt>
      <trkpt lat="45.90777" lon="5.20746">
        <ele>212.8</ele>
        <time>2022-02-24T13:04:02Z</time>
      </trkpt>
      <trkpt lat="45.90775" lon="5.20739">
        <ele>212.8</ele>
        <time>2022-02-24T13:04:03Z</time>
      </trkpt>
      <trkpt lat="45.90772" lon="5.20732">
        <ele>212.8</ele>
        <time>2022-02-24T13:04:04Z</time>
      </trkpt>
      <trkpt lat="45.90769" lon="5.20726">
        <ele>212.8</ele>
        <time>2022-02-24T13:04:05Z</time>
      </trkpt>
      <trkpt lat="45.90767" lon="5.20719">
        <ele>212.8</ele>
        <time>2022-02-24T13:04:06Z</time>
      </trkpt>
      <trkpt lat="45.90764" lon="5.20712">
        <ele>212.8</ele>
        <time>2022-02-24T13:04:07Z</time>
      </trkpt>
      <trkpt lat="45.90762" lon="5.20706">
        <ele>212.8</ele>
        <time>2022-02-24T13:04:08Z</time>
      </trkpt>
      <trkpt lat="45.90759" lon="5.20699">
        <ele>212.4</ele>
        <time>2022-02-24T13:04:09Z</time>
      </trkpt>
      <trkpt lat="45.90756" lon="5.20693">
        <ele>212.4</ele>
        <time>2022-02-24T13:04:10Z</time>
      </trkpt>
      <trkpt lat="45.90754" lon="5.20686">
        <ele>212.4</ele>
        <time>2022-02-24T13:04:11Z</time>
      </trkpt>
      <trkpt lat="45.90752" lon="5.2068">
        <ele>212.4</ele>
        <time>2022-02-24T13:04:12Z</time>
      </trkpt>
      <trkpt lat="45.90749" lon="5.20674">
        <ele>212.4</ele>
        <time>2022-02-24T13:04:13Z</time>
      </trkpt>
      <trkpt lat="45.90747" lon="5.20667">
        <ele>212.4</ele>
        <time>2022-02-24T13:04:14Z</time>
      </trkpt>
      <trkpt lat="45.90745" lon="5.20661">
        <ele>212.4</ele>
        <time>2022-02-24T13:04:15Z</time>
      </trkpt>
      <trkpt lat="45.90742" lon="5.20655">
        <ele>212.4</ele>
        <time>2022-02-24T13:04:16Z</time>
      </trkpt>
      <trkpt lat="45.9074" lon="5.20649">
        <ele>212.4</ele>
        <time>2022-02-24T13:04:17Z</time>
      </trkpt>
      <trkpt lat="45.90737" lon="5.20643">
        <ele>212.8</ele>
        <time>2022-02-24T13:04:18Z</time>
      </trkpt>
      <trkpt lat="45.90735" lon="5.20637">
        <ele>212.8</ele>
        <time>2022-02-24T13:04:19Z</time>
      </trkpt>
      <trkpt lat="45.90733" lon="5.20631">
        <ele>212.8</ele>
        <time>2022-02-24T13:04:20Z</time>
      </trkpt>
      <trkpt lat="45.90731" lon="5.20625">
        <ele>212.8</ele>
        <time>2022-02-24T13:04:21Z</time>
      </trkpt>
      <trkpt lat="45.90729" lon="5.20619">
        <ele>213</ele>
        <time>2022-02-24T13:04:22Z</time>
      </trkpt>
      <trkpt lat="45.90726" lon="5.20613">
        <ele>213</ele>
        <time>2022-02-24T13:04:23Z</time>
      </trkpt>
      <trkpt lat="45.90724" lon="5.20607">
        <ele>213</ele>
        <time>2022-02-24T13:04:24Z</time>
      </trkpt>
      <trkpt lat="45.90721" lon="5.20602">
        <ele>213</ele>
        <time>2022-02-24T13:04:25Z</time>
      </trkpt>
      <trkpt lat="45.90719" lon="5.20596">
        <ele>213</ele>
        <time>2022-02-24T13:04:26Z</time>
      </trkpt>
      <trkpt lat="45.90717" lon="5.2059">
        <ele>213</ele>
        <time>2022-02-24T13:04:27Z</time>
      </trkpt>
      <trkpt lat="45.90714" lon="5.20584">
        <ele>213.2</ele>
        <time>2022-02-24T13:04:28Z</time>
      </trkpt>
      <trkpt lat="45.90712" lon="5.20578">
        <ele>213.2</ele>
        <time>2022-02-24T13:04:29Z</time>
      </trkpt>
      <trkpt lat="45.9071" lon="5.20572">
        <ele>213.2</ele>
        <time>2022-02-24T13:04:30Z</time>
      </trkpt>
      <trkpt lat="45.90707" lon="5.20566">
        <ele>213.2</ele>
        <time>2022-02-24T13:04:31Z</time>
      </trkpt>
      <trkpt lat="45.90705" lon="5.2056">
        <ele>213.2</ele>
        <time>2022-02-24T13:04:32Z</time>
      </trkpt>
      <trkpt lat="45.90702" lon="5.20554">
        <ele>213.2</ele>
        <time>2022-02-24T13:04:33Z</time>
      </trkpt>
      <trkpt lat="45.907" lon="5.20547">
        <ele>213.2</ele>
        <time>2022-02-24T13:04:34Z</time>
      </trkpt>
      <trkpt lat="45.90697" lon="5.20541">
        <ele>213.2</ele>
        <time>2022-02-24T13:04:35Z</time>
      </trkpt>
      <trkpt lat="45.90695" lon="5.20534">
        <ele>213.2</ele>
        <time>2022-02-24T13:04:36Z</time>
      </trkpt>
      <trkpt lat="45.90692" lon="5.20528">
        <ele>213.2</ele>
        <time>2022-02-24T13:04:37Z</time>
      </trkpt>
      <trkpt lat="45.9069" lon="5.20521">
        <ele>213.2</ele>
        <time>2022-02-24T13:04:38Z</time>
      </trkpt>
      <trkpt lat="45.90688" lon="5.20515">
        <ele>213.2</ele>
        <time>2022-02-24T13:04:39Z</time>
      </trkpt>
      <trkpt lat="45.90685" lon="5.20508">
        <ele>213.6</ele>
        <time>2022-02-24T13:04:40Z</time>
      </trkpt>
      <trkpt lat="45.90683" lon="5.20502">
        <ele>213.6</ele>
        <time>2022-02-24T13:04:41Z</time>
      </trkpt>
      <trkpt lat="45.9068" lon="5.20496">
        <ele>213.6</ele>
        <time>2022-02-24T13:04:42Z</time>
      </trkpt>
      <trkpt lat="45.90678" lon="5.2049">
        <ele>213.6</ele>
        <time>2022-02-24T13:04:43Z</time>
      </trkpt>
      <trkpt lat="45.90676" lon="5.20483">
        <ele>213.6</ele>
        <time>2022-02-24T13:04:44Z</time>
      </trkpt>
      <trkpt lat="45.90674" lon="5.20477">
        <ele>213.6</ele>
        <time>2022-02-24T13:04:45Z</time>
      </trkpt>
      <trkpt lat="45.90671" lon="5.20472">
        <ele>213.6</ele>
        <time>2022-02-24T13:04:46Z</time>
      </trkpt>
      <trkpt lat="45.90669" lon="5.20466">
        <ele>213.6</ele>
        <time>2022-02-24T13:04:47Z</time>
      </trkpt>
      <trkpt lat="45.90666" lon="5.20461">
        <ele>213.6</ele>
        <time>2022-02-24T13:04:48Z</time>
      </trkpt>
      <trkpt lat="45.90663" lon="5.20456">
        <ele>213.6</ele>
        <time>2022-02-24T13:04:49Z</time>
      </trkpt>
      <trkpt lat="45.9066" lon="5.2045">
        <ele>213.6</ele>
        <time>2022-02-24T13:04:50Z</time>
      </trkpt>
      <trkpt lat="45.90657" lon="5.20445">
        <ele>213.8</ele>
        <time>2022-02-24T13:04:51Z</time>
      </trkpt>
      <trkpt lat="45.90653" lon="5.20441">
        <ele>213.8</ele>
        <time>2022-02-24T13:04:52Z</time>
      </trkpt>
      <trkpt lat="45.9065" lon="5.20435">
        <ele>213.8</ele>
        <time>2022-02-24T13:04:53Z</time>
      </trkpt>
      <trkpt lat="45.90648" lon="5.2043">
        <ele>213.8</ele>
        <time>2022-02-24T13:04:54Z</time>
      </trkpt>
      <trkpt lat="45.90645" lon="5.20425">
        <ele>213.8</ele>
        <time>2022-02-24T13:04:55Z</time>
      </trkpt>
      <trkpt lat="45.90642" lon="5.20419">
        <ele>213.8</ele>
        <time>2022-02-24T13:04:56Z</time>
      </trkpt>
      <trkpt lat="45.90639" lon="5.20414">
        <ele>213.8</ele>
        <time>2022-02-24T13:04:57Z</time>
      </trkpt>
      <trkpt lat="45.90636" lon="5.20409">
        <ele>213.8</ele>
        <time>2022-02-24T13:04:58Z</time>
      </trkpt>
      <trkpt lat="45.90633" lon="5.20403">
        <ele>213.8</ele>
        <time>2022-02-24T13:04:59Z</time>
      </trkpt>
      <trkpt lat="45.9063" lon="5.20398">
        <ele>214</ele>
        <time>2022-02-24T13:05:00Z</time>
      </trkpt>
      <trkpt lat="45.90627" lon="5.20392">
        <ele>214</ele>
        <time>2022-02-24T13:05:01Z</time>
      </trkpt>
      <trkpt lat="45.90624" lon="5.20388">
        <ele>214</ele>
        <time>2022-02-24T13:05:02Z</time>
      </trkpt>
      <trkpt lat="45.90622" lon="5.20383">
        <ele>214</ele>
        <time>2022-02-24T13:05:03Z</time>
      </trkpt>
      <trkpt lat="45.90619" lon="5.20379">
        <ele>214</ele>
        <time>2022-02-24T13:05:04Z</time>
      </trkpt>
      <trkpt lat="45.90617" lon="5.20374">
        <ele>214</ele>
        <time>2022-02-24T13:05:05Z</time>
      </trkpt>
      <trkpt lat="45.90614" lon="5.2037">
        <ele>214</ele>
        <time>2022-02-24T13:05:06Z</time>
      </trkpt>
      <trkpt lat="45.9061" lon="5.20365">
        <ele>214</ele>
        <time>2022-02-24T13:05:07Z</time>
      </trkpt>
      <trkpt lat="45.90607" lon="5.2036">
        <ele>214</ele>
        <time>2022-02-24T13:05:08Z</time>
      </trkpt>
      <trkpt lat="45.90603" lon="5.20354">
        <ele>214</ele>
        <time>2022-02-24T13:05:09Z</time>
      </trkpt>
      <trkpt lat="45.906" lon="5.20348">
        <ele>214</ele>
        <time>2022-02-24T13:05:10Z</time>
      </trkpt>
      <trkpt lat="45.90596" lon="5.20342">
        <ele>214</ele>
        <time>2022-02-24T13:05:11Z</time>
      </trkpt>
      <trkpt lat="45.90593" lon="5.20336">
        <ele>214</ele>
        <time>2022-02-24T13:05:12Z</time>
      </trkpt>
      <trkpt lat="45.9059" lon="5.2033">
        <ele>214</ele>
        <time>2022-02-24T13:05:13Z</time>
      </trkpt>
      <trkpt lat="45.90586" lon="5.20323">
        <ele>214</ele>
        <time>2022-02-24T13:05:14Z</time>
      </trkpt>
      <trkpt lat="45.90583" lon="5.20317">
        <ele>214</ele>
        <time>2022-02-24T13:05:15Z</time>
      </trkpt>
      <trkpt lat="45.9058" lon="5.20311">
        <ele>214</ele>
        <time>2022-02-24T13:05:16Z</time>
      </trkpt>
      <trkpt lat="45.90577" lon="5.20304">
        <ele>214</ele>
        <time>2022-02-24T13:05:17Z</time>
      </trkpt>
      <trkpt lat="45.90573" lon="5.20298">
        <ele>214</ele>
        <time>2022-02-24T13:05:18Z</time>
      </trkpt>
      <trkpt lat="45.9057" lon="5.20292">
        <ele>214</ele>
        <time>2022-02-24T13:05:19Z</time>
      </trkpt>
      <trkpt lat="45.90567" lon="5.20286">
        <ele>214</ele>
        <time>2022-02-24T13:05:20Z</time>
      </trkpt>
      <trkpt lat="45.90563" lon="5.2028">
        <ele>214</ele>
        <time>2022-02-24T13:05:21Z</time>
      </trkpt>
      <trkpt lat="45.90559" lon="5.20274">
        <ele>214</ele>
        <time>2022-02-24T13:05:22Z</time>
      </trkpt>
      <trkpt lat="45.90556" lon="5.20268">
        <ele>214</ele>
        <time>2022-02-24T13:05:23Z</time>
      </trkpt>
      <trkpt lat="45.90552" lon="5.20261">
        <ele>214</ele>
        <time>2022-02-24T13:05:24Z</time>
      </trkpt>
      <trkpt lat="45.90549" lon="5.20255">
        <ele>213.8</ele>
        <time>2022-02-24T13:05:25Z</time>
      </trkpt>
      <trkpt lat="45.90546" lon="5.20248">
        <ele>213.8</ele>
        <time>2022-02-24T13:05:26Z</time>
      </trkpt>
      <trkpt lat="45.90542" lon="5.20241">
        <ele>213.8</ele>
        <time>2022-02-24T13:05:27Z</time>
      </trkpt>
      <trkpt lat="45.90539" lon="5.20234">
        <ele>213.6</ele>
        <time>2022-02-24T13:05:28Z</time>
      </trkpt>
      <trkpt lat="45.90536" lon="5.20227">
        <ele>213.6</ele>
        <time>2022-02-24T13:05:29Z</time>
      </trkpt>
      <trkpt lat="45.90533" lon="5.2022">
        <ele>213.6</ele>
        <time>2022-02-24T13:05:30Z</time>
      </trkpt>
      <trkpt lat="45.9053" lon="5.20213">
        <ele>213.6</ele>
        <time>2022-02-24T13:05:31Z</time>
      </trkpt>
      <trkpt lat="45.90528" lon="5.20206">
        <ele>213.6</ele>
        <time>2022-02-24T13:05:32Z</time>
      </trkpt>
      <trkpt lat="45.90525" lon="5.20199">
        <ele>213.4</ele>
        <time>2022-02-24T13:05:33Z</time>
      </trkpt>
      <trkpt lat="45.90522" lon="5.20192">
        <ele>213.4</ele>
        <time>2022-02-24T13:05:34Z</time>
      </trkpt>
      <trkpt lat="45.90519" lon="5.20185">
        <ele>213.4</ele>
        <time>2022-02-24T13:05:35Z</time>
      </trkpt>
      <trkpt lat="45.90517" lon="5.20178">
        <ele>213.4</ele>
        <time>2022-02-24T13:05:36Z</time>
      </trkpt>
      <trkpt lat="45.90514" lon="5.20171">
        <ele>213.6</ele>
        <time>2022-02-24T13:05:37Z</time>
      </trkpt>
      <trkpt lat="45.90513" lon="5.20164">
        <ele>213.6</ele>
        <time>2022-02-24T13:05:38Z</time>
      </trkpt>
      <trkpt lat="45.90511" lon="5.20156">
        <ele>213.6</ele>
        <time>2022-02-24T13:05:39Z</time>
      </trkpt>
      <trkpt lat="45.90509" lon="5.20149">
        <ele>213.6</ele>
        <time>2022-02-24T13:05:40Z</time>
      </trkpt>
      <trkpt lat="45.90508" lon="5.20141">
        <ele>213.8</ele>
        <time>2022-02-24T13:05:41Z</time>
      </trkpt>
      <trkpt lat="45.90506" lon="5.20134">
        <ele>213.8</ele>
        <time>2022-02-24T13:05:42Z</time>
      </trkpt>
      <trkpt lat="45.90504" lon="5.20127">
        <ele>214</ele>
        <time>2022-02-24T13:05:43Z</time>
      </trkpt>
      <trkpt lat="45.90503" lon="5.2012">
        <ele>214</ele>
        <time>2022-02-24T13:05:44Z</time>
      </trkpt>
      <trkpt lat="45.90501" lon="5.20113">
        <ele>214.4</ele>
        <time>2022-02-24T13:05:45Z</time>
      </trkpt>
      <trkpt lat="45.90499" lon="5.20106">
        <ele>214.4</ele>
        <time>2022-02-24T13:05:46Z</time>
      </trkpt>
      <trkpt lat="45.90498" lon="5.20098">
        <ele>214.4</ele>
        <time>2022-02-24T13:05:47Z</time>
      </trkpt>
      <trkpt lat="45.90497" lon="5.20091">
        <ele>214.6</ele>
        <time>2022-02-24T13:05:48Z</time>
      </trkpt>
      <trkpt lat="45.90497" lon="5.20084">
        <ele>214.6</ele>
        <time>2022-02-24T13:05:49Z</time>
      </trkpt>
      <trkpt lat="45.90496" lon="5.20076">
        <ele>214.6</ele>
        <time>2022-02-24T13:05:50Z</time>
      </trkpt>
      <trkpt lat="45.90495" lon="5.20069">
        <ele>215</ele>
        <time>2022-02-24T13:05:51Z</time>
      </trkpt>
      <trkpt lat="45.90495" lon="5.20062">
        <ele>215.2</ele>
        <time>2022-02-24T13:05:52Z</time>
      </trkpt>
      <trkpt lat="45.90494" lon="5.20055">
        <ele>215.4</ele>
        <time>2022-02-24T13:05:53Z</time>
      </trkpt>
      <trkpt lat="45.90494" lon="5.20048">
        <ele>215.6</ele>
        <time>2022-02-24T13:05:54Z</time>
      </trkpt>
      <trkpt lat="45.90493" lon="5.20041">
        <ele>215.6</ele>
        <time>2022-02-24T13:05:55Z</time>
      </trkpt>
      <trkpt lat="45.90493" lon="5.20034">
        <ele>216</ele>
        <time>2022-02-24T13:05:56Z</time>
      </trkpt>
      <trkpt lat="45.90492" lon="5.20027">
        <ele>216.2</ele>
        <time>2022-02-24T13:05:57Z</time>
      </trkpt>
      <trkpt lat="45.90492" lon="5.20021">
        <ele>216.2</ele>
        <time>2022-02-24T13:05:58Z</time>
      </trkpt>
      <trkpt lat="45.90491" lon="5.20015">
        <ele>216.2</ele>
        <time>2022-02-24T13:05:59Z</time>
      </trkpt>
      <trkpt lat="45.90491" lon="5.20009">
        <ele>216.2</ele>
        <time>2022-02-24T13:06:00Z</time>
      </trkpt>
      <trkpt lat="45.9049" lon="5.20002">
        <ele>216.6</ele>
        <time>2022-02-24T13:06:01Z</time>
      </trkpt>
      <trkpt lat="45.90489" lon="5.19996">
        <ele>216.8</ele>
        <time>2022-02-24T13:06:02Z</time>
      </trkpt>
      <trkpt lat="45.90489" lon="5.1999">
        <ele>216.8</ele>
        <time>2022-02-24T13:06:03Z</time>
      </trkpt>
      <trkpt lat="45.90488" lon="5.19983">
        <ele>217.2</ele>
        <time>2022-02-24T13:06:04Z</time>
      </trkpt>
      <trkpt lat="45.90487" lon="5.19977">
        <ele>217.2</ele>
        <time>2022-02-24T13:06:05Z</time>
      </trkpt>
      <trkpt lat="45.90487" lon="5.19971">
        <ele>217.4</ele>
        <time>2022-02-24T13:06:06Z</time>
      </trkpt>
      <trkpt lat="45.90486" lon="5.19965">
        <ele>217.6</ele>
        <time>2022-02-24T13:06:07Z</time>
      </trkpt>
      <trkpt lat="45.90486" lon="5.19958">
        <ele>217.6</ele>
        <time>2022-02-24T13:06:08Z</time>
      </trkpt>
      <trkpt lat="45.90486" lon="5.19958">
        <ele>218</ele>
        <time>2022-02-24T13:06:09Z</time>
      </trkpt>
      <trkpt lat="45.90485" lon="5.19952">
        <ele>218</ele>
        <time>2022-02-24T13:06:10Z</time>
      </trkpt>
      <trkpt lat="45.90485" lon="5.19946">
        <ele>218.2</ele>
        <time>2022-02-24T13:06:11Z</time>
      </trkpt>
      <trkpt lat="45.90485" lon="5.19939">
        <ele>218.4</ele>
        <time>2022-02-24T13:06:12Z</time>
      </trkpt>
      <trkpt lat="45.90484" lon="5.19932">
        <ele>218.4</ele>
        <time>2022-02-24T13:06:13Z</time>
      </trkpt>
      <trkpt lat="45.90484" lon="5.19926">
        <ele>218.4</ele>
        <time>2022-02-24T13:06:14Z</time>
      </trkpt>
      <trkpt lat="45.90484" lon="5.19919">
        <ele>218.4</ele>
        <time>2022-02-24T13:06:15Z</time>
      </trkpt>
      <trkpt lat="45.90483" lon="5.19912">
        <ele>218.4</ele>
        <time>2022-02-24T13:06:16Z</time>
      </trkpt>
      <trkpt lat="45.90483" lon="5.19905">
        <ele>218.4</ele>
        <time>2022-02-24T13:06:17Z</time>
      </trkpt>
      <trkpt lat="45.90482" lon="5.19898">
        <ele>218.4</ele>
        <time>2022-02-24T13:06:18Z</time>
      </trkpt>
      <trkpt lat="45.90482" lon="5.1989">
        <ele>218.2</ele>
        <time>2022-02-24T13:06:19Z</time>
      </trkpt>
      <trkpt lat="45.90481" lon="5.19876">
        <ele>218.2</ele>
        <time>2022-02-24T13:06:20Z</time>
      </trkpt>
      <trkpt lat="45.90481" lon="5.19868">
        <ele>218.2</ele>
        <time>2022-02-24T13:06:21Z</time>
      </trkpt>
      <trkpt lat="45.9048" lon="5.19861">
        <ele>218.2</ele>
        <time>2022-02-24T13:06:22Z</time>
      </trkpt>
      <trkpt lat="45.9048" lon="5.19854">
        <ele>218.2</ele>
        <time>2022-02-24T13:06:23Z</time>
      </trkpt>
      <trkpt lat="45.90481" lon="5.19846">
        <ele>218</ele>
        <time>2022-02-24T13:06:24Z</time>
      </trkpt>
      <trkpt lat="45.90481" lon="5.19839">
        <ele>218</ele>
        <time>2022-02-24T13:06:25Z</time>
      </trkpt>
      <trkpt lat="45.9048" lon="5.19831">
        <ele>217.6</ele>
        <time>2022-02-24T13:06:26Z</time>
      </trkpt>
      <trkpt lat="45.9048" lon="5.19824">
        <ele>217.6</ele>
        <time>2022-02-24T13:06:27Z</time>
      </trkpt>
      <trkpt lat="45.90479" lon="5.19818">
        <ele>217.4</ele>
        <time>2022-02-24T13:06:28Z</time>
      </trkpt>
      <trkpt lat="45.90479" lon="5.19812">
        <ele>217.4</ele>
        <time>2022-02-24T13:06:29Z</time>
      </trkpt>
      <trkpt lat="45.90478" lon="5.19808">
        <ele>217.4</ele>
        <time>2022-02-24T13:06:30Z</time>
      </trkpt>
      <trkpt lat="45.90478" lon="5.19804">
        <ele>217.4</ele>
        <time>2022-02-24T13:06:31Z</time>
      </trkpt>
      <trkpt lat="45.90479" lon="5.19801">
        <ele>217.4</ele>
        <time>2022-02-24T13:06:32Z</time>
      </trkpt>
      <trkpt lat="45.9048" lon="5.19797">
        <ele>217.4</ele>
        <time>2022-02-24T13:06:33Z</time>
      </trkpt>
      <trkpt lat="45.90481" lon="5.19793">
        <ele>217.4</ele>
        <time>2022-02-24T13:06:34Z</time>
      </trkpt>
      <trkpt lat="45.90481" lon="5.19788">
        <ele>217.4</ele>
        <time>2022-02-24T13:06:35Z</time>
      </trkpt>
      <trkpt lat="45.9048" lon="5.19784">
        <ele>217.4</ele>
        <time>2022-02-24T13:06:36Z</time>
      </trkpt>
      <trkpt lat="45.90478" lon="5.1978">
        <ele>217</ele>
        <time>2022-02-24T13:06:37Z</time>
      </trkpt>
      <trkpt lat="45.90475" lon="5.19778">
        <ele>217</ele>
        <time>2022-02-24T13:06:38Z</time>
      </trkpt>
      <trkpt lat="45.90471" lon="5.19778">
        <ele>216.8</ele>
        <time>2022-02-24T13:06:39Z</time>
      </trkpt>
      <trkpt lat="45.90466" lon="5.19779">
        <ele>216.8</ele>
        <time>2022-02-24T13:06:40Z</time>
      </trkpt>
      <trkpt lat="45.90461" lon="5.19781">
        <ele>216.6</ele>
        <time>2022-02-24T13:06:41Z</time>
      </trkpt>
      <trkpt lat="45.90456" lon="5.19783">
        <ele>216.4</ele>
        <time>2022-02-24T13:06:42Z</time>
      </trkpt>
      <trkpt lat="45.9045" lon="5.19787">
        <ele>216.2</ele>
        <time>2022-02-24T13:06:43Z</time>
      </trkpt>
      <trkpt lat="45.90445" lon="5.19791">
        <ele>215.8</ele>
        <time>2022-02-24T13:06:44Z</time>
      </trkpt>
      <trkpt lat="45.9044" lon="5.19796">
        <ele>215.6</ele>
        <time>2022-02-24T13:06:45Z</time>
      </trkpt>
      <trkpt lat="45.90436" lon="5.19802">
        <ele>215.2</ele>
        <time>2022-02-24T13:06:46Z</time>
      </trkpt>
      <trkpt lat="45.9043" lon="5.19809">
        <ele>214.8</ele>
        <time>2022-02-24T13:06:47Z</time>
      </trkpt>
      <trkpt lat="45.90425" lon="5.19814">
        <ele>214.6</ele>
        <time>2022-02-24T13:06:48Z</time>
      </trkpt>
      <trkpt lat="45.90419" lon="5.19818">
        <ele>214.2</ele>
        <time>2022-02-24T13:06:49Z</time>
      </trkpt>
      <trkpt lat="45.90412" lon="5.19821">
        <ele>213.8</ele>
        <time>2022-02-24T13:06:50Z</time>
      </trkpt>
      <trkpt lat="45.90405" lon="5.19823">
        <ele>213.4</ele>
        <time>2022-02-24T13:06:51Z</time>
      </trkpt>
      <trkpt lat="45.90399" lon="5.19825">
        <ele>213.4</ele>
        <time>2022-02-24T13:06:52Z</time>
      </trkpt>
      <trkpt lat="45.90393" lon="5.19825">
        <ele>213.2</ele>
        <time>2022-02-24T13:06:53Z</time>
      </trkpt>
      <trkpt lat="45.90387" lon="5.19823">
        <ele>213</ele>
        <time>2022-02-24T13:06:54Z</time>
      </trkpt>
      <trkpt lat="45.90382" lon="5.19819">
        <ele>213</ele>
        <time>2022-02-24T13:06:55Z</time>
      </trkpt>
      <trkpt lat="45.90377" lon="5.19813">
        <ele>212.8</ele>
        <time>2022-02-24T13:06:56Z</time>
      </trkpt>
      <trkpt lat="45.90373" lon="5.19806">
        <ele>212.8</ele>
        <time>2022-02-24T13:06:57Z</time>
      </trkpt>
      <trkpt lat="45.9037" lon="5.19799">
        <ele>212.6</ele>
        <time>2022-02-24T13:06:58Z</time>
      </trkpt>
      <trkpt lat="45.90366" lon="5.19792">
        <ele>212.6</ele>
        <time>2022-02-24T13:06:59Z</time>
      </trkpt>
      <trkpt lat="45.90363" lon="5.19786">
        <ele>212.6</ele>
        <time>2022-02-24T13:07:00Z</time>
      </trkpt>
      <trkpt lat="45.90359" lon="5.19779">
        <ele>212.6</ele>
        <time>2022-02-24T13:07:01Z</time>
      </trkpt>
      <trkpt lat="45.90356" lon="5.19772">
        <ele>212.6</ele>
        <time>2022-02-24T13:07:02Z</time>
      </trkpt>
      <trkpt lat="45.90352" lon="5.19764">
        <ele>212.4</ele>
        <time>2022-02-24T13:07:03Z</time>
      </trkpt>
      <trkpt lat="45.90349" lon="5.19757">
        <ele>212.4</ele>
        <time>2022-02-24T13:07:04Z</time>
      </trkpt>
      <trkpt lat="45.90346" lon="5.19748">
        <ele>212.4</ele>
        <time>2022-02-24T13:07:05Z</time>
      </trkpt>
      <trkpt lat="45.90344" lon="5.1974">
        <ele>212.4</ele>
        <time>2022-02-24T13:07:06Z</time>
      </trkpt>
      <trkpt lat="45.90341" lon="5.19732">
        <ele>212.4</ele>
        <time>2022-02-24T13:07:07Z</time>
      </trkpt>
      <trkpt lat="45.90339" lon="5.19723">
        <ele>212.4</ele>
        <time>2022-02-24T13:07:08Z</time>
      </trkpt>
      <trkpt lat="45.90337" lon="5.19715">
        <ele>212.4</ele>
        <time>2022-02-24T13:07:09Z</time>
      </trkpt>
      <trkpt lat="45.90334" lon="5.19707">
        <ele>212.4</ele>
        <time>2022-02-24T13:07:10Z</time>
      </trkpt>
      <trkpt lat="45.90332" lon="5.19699">
        <ele>212</ele>
        <time>2022-02-24T13:07:11Z</time>
      </trkpt>
      <trkpt lat="45.9033" lon="5.19692">
        <ele>212</ele>
        <time>2022-02-24T13:07:12Z</time>
      </trkpt>
      <trkpt lat="45.90329" lon="5.19684">
        <ele>212</ele>
        <time>2022-02-24T13:07:13Z</time>
      </trkpt>
      <trkpt lat="45.90326" lon="5.19677">
        <ele>211.8</ele>
        <time>2022-02-24T13:07:14Z</time>
      </trkpt>
      <trkpt lat="45.90324" lon="5.19669">
        <ele>211.8</ele>
        <time>2022-02-24T13:07:15Z</time>
      </trkpt>
      <trkpt lat="45.90322" lon="5.19661">
        <ele>211.8</ele>
        <time>2022-02-24T13:07:16Z</time>
      </trkpt>
      <trkpt lat="45.90321" lon="5.19653">
        <ele>211.6</ele>
        <time>2022-02-24T13:07:17Z</time>
      </trkpt>
      <trkpt lat="45.9032" lon="5.19645">
        <ele>211.6</ele>
        <time>2022-02-24T13:07:18Z</time>
      </trkpt>
      <trkpt lat="45.90318" lon="5.19637">
        <ele>211.6</ele>
        <time>2022-02-24T13:07:19Z</time>
      </trkpt>
      <trkpt lat="45.90317" lon="5.19629">
        <ele>211.6</ele>
        <time>2022-02-24T13:07:20Z</time>
      </trkpt>
      <trkpt lat="45.90315" lon="5.19621">
        <ele>211.6</ele>
        <time>2022-02-24T13:07:21Z</time>
      </trkpt>
      <trkpt lat="45.90313" lon="5.19613">
        <ele>211.6</ele>
        <time>2022-02-24T13:07:22Z</time>
      </trkpt>
      <trkpt lat="45.90312" lon="5.19605">
        <ele>211.4</ele>
        <time>2022-02-24T13:07:23Z</time>
      </trkpt>
      <trkpt lat="45.9031" lon="5.19598">
        <ele>211.4</ele>
        <time>2022-02-24T13:07:24Z</time>
      </trkpt>
      <trkpt lat="45.90308" lon="5.1959">
        <ele>211.4</ele>
        <time>2022-02-24T13:07:25Z</time>
      </trkpt>
      <trkpt lat="45.90307" lon="5.19582">
        <ele>211.4</ele>
        <time>2022-02-24T13:07:26Z</time>
      </trkpt>
      <trkpt lat="45.90305" lon="5.19575">
        <ele>211.4</ele>
        <time>2022-02-24T13:07:27Z</time>
      </trkpt>
      <trkpt lat="45.90303" lon="5.19567">
        <ele>211.4</ele>
        <time>2022-02-24T13:07:28Z</time>
      </trkpt>
      <trkpt lat="45.90301" lon="5.19559">
        <ele>211.4</ele>
        <time>2022-02-24T13:07:29Z</time>
      </trkpt>
      <trkpt lat="45.90298" lon="5.19552">
        <ele>211.4</ele>
        <time>2022-02-24T13:07:30Z</time>
      </trkpt>
      <trkpt lat="45.90295" lon="5.19545">
        <ele>211.4</ele>
        <time>2022-02-24T13:07:31Z</time>
      </trkpt>
      <trkpt lat="45.90293" lon="5.19538">
        <ele>211.4</ele>
        <time>2022-02-24T13:07:32Z</time>
      </trkpt>
      <trkpt lat="45.9029" lon="5.1953">
        <ele>211.4</ele>
        <time>2022-02-24T13:07:33Z</time>
      </trkpt>
      <trkpt lat="45.90287" lon="5.19523">
        <ele>211.4</ele>
        <time>2022-02-24T13:07:34Z</time>
      </trkpt>
      <trkpt lat="45.90284" lon="5.19516">
        <ele>211.4</ele>
        <time>2022-02-24T13:07:35Z</time>
      </trkpt>
      <trkpt lat="45.90282" lon="5.19509">
        <ele>211.4</ele>
        <time>2022-02-24T13:07:36Z</time>
      </trkpt>
      <trkpt lat="45.90279" lon="5.19502">
        <ele>211.4</ele>
        <time>2022-02-24T13:07:37Z</time>
      </trkpt>
      <trkpt lat="45.90276" lon="5.19494">
        <ele>211.6</ele>
        <time>2022-02-24T13:07:38Z</time>
      </trkpt>
      <trkpt lat="45.90274" lon="5.19487">
        <ele>211.6</ele>
        <time>2022-02-24T13:07:39Z</time>
      </trkpt>
      <trkpt lat="45.90271" lon="5.1948">
        <ele>211.8</ele>
        <time>2022-02-24T13:07:40Z</time>
      </trkpt>
      <trkpt lat="45.90268" lon="5.19473">
        <ele>211.8</ele>
        <time>2022-02-24T13:07:41Z</time>
      </trkpt>
      <trkpt lat="45.90266" lon="5.19466">
        <ele>211.8</ele>
        <time>2022-02-24T13:07:42Z</time>
      </trkpt>
      <trkpt lat="45.90263" lon="5.19459">
        <ele>212.2</ele>
        <time>2022-02-24T13:07:43Z</time>
      </trkpt>
      <trkpt lat="45.9026" lon="5.19452">
        <ele>212.2</ele>
        <time>2022-02-24T13:07:44Z</time>
      </trkpt>
      <trkpt lat="45.90258" lon="5.19445">
        <ele>212.2</ele>
        <time>2022-02-24T13:07:45Z</time>
      </trkpt>
      <trkpt lat="45.90255" lon="5.19438">
        <ele>212</ele>
        <time>2022-02-24T13:07:46Z</time>
      </trkpt>
      <trkpt lat="45.90252" lon="5.19431">
        <ele>212</ele>
        <time>2022-02-24T13:07:47Z</time>
      </trkpt>
      <trkpt lat="45.90249" lon="5.19424">
        <ele>212</ele>
        <time>2022-02-24T13:07:48Z</time>
      </trkpt>
      <trkpt lat="45.90247" lon="5.19417">
        <ele>212</ele>
        <time>2022-02-24T13:07:49Z</time>
      </trkpt>
      <trkpt lat="45.90244" lon="5.19411">
        <ele>212</ele>
        <time>2022-02-24T13:07:50Z</time>
      </trkpt>
      <trkpt lat="45.90241" lon="5.19404">
        <ele>212</ele>
        <time>2022-02-24T13:07:51Z</time>
      </trkpt>
      <trkpt lat="45.90239" lon="5.19398">
        <ele>212</ele>
        <time>2022-02-24T13:07:52Z</time>
      </trkpt>
      <trkpt lat="45.90236" lon="5.19391">
        <ele>212</ele>
        <time>2022-02-24T13:07:53Z</time>
      </trkpt>
      <trkpt lat="45.90234" lon="5.19385">
        <ele>212</ele>
        <time>2022-02-24T13:07:54Z</time>
      </trkpt>
      <trkpt lat="45.90232" lon="5.19379">
        <ele>212</ele>
        <time>2022-02-24T13:07:55Z</time>
      </trkpt>
      <trkpt lat="45.9023" lon="5.19374">
        <ele>212.2</ele>
        <time>2022-02-24T13:07:56Z</time>
      </trkpt>
      <trkpt lat="45.90228" lon="5.19368">
        <ele>212.2</ele>
        <time>2022-02-24T13:07:57Z</time>
      </trkpt>
      <trkpt lat="45.90225" lon="5.19362">
        <ele>212.2</ele>
        <time>2022-02-24T13:07:58Z</time>
      </trkpt>
      <trkpt lat="45.90223" lon="5.19356">
        <ele>211.8</ele>
        <time>2022-02-24T13:07:59Z</time>
      </trkpt>
      <trkpt lat="45.90221" lon="5.19349">
        <ele>211.8</ele>
        <time>2022-02-24T13:08:00Z</time>
      </trkpt>
      <trkpt lat="45.90219" lon="5.19343">
        <ele>211.8</ele>
        <time>2022-02-24T13:08:01Z</time>
      </trkpt>
      <trkpt lat="45.90216" lon="5.19337">
        <ele>211.8</ele>
        <time>2022-02-24T13:08:02Z</time>
      </trkpt>
      <trkpt lat="45.90214" lon="5.19331">
        <ele>211.8</ele>
        <time>2022-02-24T13:08:03Z</time>
      </trkpt>
      <trkpt lat="45.90211" lon="5.19325">
        <ele>211.8</ele>
        <time>2022-02-24T13:08:04Z</time>
      </trkpt>
      <trkpt lat="45.90208" lon="5.19319">
        <ele>211.8</ele>
        <time>2022-02-24T13:08:05Z</time>
      </trkpt>
      <trkpt lat="45.90204" lon="5.19314">
        <ele>211.8</ele>
        <time>2022-02-24T13:08:06Z</time>
      </trkpt>
      <trkpt lat="45.902" lon="5.1931">
        <ele>211.8</ele>
        <time>2022-02-24T13:08:07Z</time>
      </trkpt>
      <trkpt lat="45.90195" lon="5.19306">
        <ele>211.8</ele>
        <time>2022-02-24T13:08:08Z</time>
      </trkpt>
      <trkpt lat="45.9019" lon="5.19303">
        <ele>211.8</ele>
        <time>2022-02-24T13:08:09Z</time>
      </trkpt>
      <trkpt lat="45.90185" lon="5.193">
        <ele>211.6</ele>
        <time>2022-02-24T13:08:10Z</time>
      </trkpt>
      <trkpt lat="45.90179" lon="5.19298">
        <ele>211.6</ele>
        <time>2022-02-24T13:08:11Z</time>
      </trkpt>
      <trkpt lat="45.90174" lon="5.19295">
        <ele>211.6</ele>
        <time>2022-02-24T13:08:12Z</time>
      </trkpt>
      <trkpt lat="45.90169" lon="5.19291">
        <ele>211.6</ele>
        <time>2022-02-24T13:08:13Z</time>
      </trkpt>
      <trkpt lat="45.90164" lon="5.19286">
        <ele>211.6</ele>
        <time>2022-02-24T13:08:14Z</time>
      </trkpt>
      <trkpt lat="45.90161" lon="5.1928">
        <ele>211.6</ele>
        <time>2022-02-24T13:08:15Z</time>
      </trkpt>
      <trkpt lat="45.90157" lon="5.19273">
        <ele>211.6</ele>
        <time>2022-02-24T13:08:16Z</time>
      </trkpt>
      <trkpt lat="45.90154" lon="5.19266">
        <ele>211.4</ele>
        <time>2022-02-24T13:08:17Z</time>
      </trkpt>
      <trkpt lat="45.90151" lon="5.19259">
        <ele>211.4</ele>
        <time>2022-02-24T13:08:18Z</time>
      </trkpt>
      <trkpt lat="45.90148" lon="5.19253">
        <ele>211.4</ele>
        <time>2022-02-24T13:08:19Z</time>
      </trkpt>
      <trkpt lat="45.90145" lon="5.19246">
        <ele>211.4</ele>
        <time>2022-02-24T13:08:20Z</time>
      </trkpt>
      <trkpt lat="45.90143" lon="5.1924">
        <ele>211.4</ele>
        <time>2022-02-24T13:08:21Z</time>
      </trkpt>
      <trkpt lat="45.9014" lon="5.19233">
        <ele>211.4</ele>
        <time>2022-02-24T13:08:22Z</time>
      </trkpt>
      <trkpt lat="45.90137" lon="5.19227">
        <ele>211.4</ele>
        <time>2022-02-24T13:08:23Z</time>
      </trkpt>
      <trkpt lat="45.90134" lon="5.1922">
        <ele>211.4</ele>
        <time>2022-02-24T13:08:24Z</time>
      </trkpt>
      <trkpt lat="45.90132" lon="5.19213">
        <ele>211.4</ele>
        <time>2022-02-24T13:08:25Z</time>
      </trkpt>
      <trkpt lat="45.90129" lon="5.19207">
        <ele>211.4</ele>
        <time>2022-02-24T13:08:26Z</time>
      </trkpt>
      <trkpt lat="45.90126" lon="5.192">
        <ele>211.4</ele>
        <time>2022-02-24T13:08:27Z</time>
      </trkpt>
      <trkpt lat="45.90123" lon="5.19193">
        <ele>211.4</ele>
        <time>2022-02-24T13:08:28Z</time>
      </trkpt>
      <trkpt lat="45.9012" lon="5.19186">
        <ele>211.4</ele>
        <time>2022-02-24T13:08:29Z</time>
      </trkpt>
      <trkpt lat="45.90117" lon="5.1918">
        <ele>211.4</ele>
        <time>2022-02-24T13:08:30Z</time>
      </trkpt>
      <trkpt lat="45.90115" lon="5.19173">
        <ele>211.4</ele>
        <time>2022-02-24T13:08:31Z</time>
      </trkpt>
      <trkpt lat="45.90112" lon="5.19167">
        <ele>211.4</ele>
        <time>2022-02-24T13:08:32Z</time>
      </trkpt>
      <trkpt lat="45.90109" lon="5.1916">
        <ele>211.4</ele>
        <time>2022-02-24T13:08:33Z</time>
      </trkpt>
      <trkpt lat="45.90106" lon="5.19153">
        <ele>211.4</ele>
        <time>2022-02-24T13:08:34Z</time>
      </trkpt>
      <trkpt lat="45.90103" lon="5.19146">
        <ele>211.4</ele>
        <time>2022-02-24T13:08:35Z</time>
      </trkpt>
      <trkpt lat="45.90101" lon="5.19139">
        <ele>211.4</ele>
        <time>2022-02-24T13:08:36Z</time>
      </trkpt>
      <trkpt lat="45.90099" lon="5.19132">
        <ele>211.4</ele>
        <time>2022-02-24T13:08:37Z</time>
      </trkpt>
      <trkpt lat="45.90098" lon="5.19124">
        <ele>211.4</ele>
        <time>2022-02-24T13:08:38Z</time>
      </trkpt>
      <trkpt lat="45.90098" lon="5.19117">
        <ele>211.4</ele>
        <time>2022-02-24T13:08:39Z</time>
      </trkpt>
      <trkpt lat="45.90098" lon="5.19109">
        <ele>211.4</ele>
        <time>2022-02-24T13:08:40Z</time>
      </trkpt>
      <trkpt lat="45.90099" lon="5.19102">
        <ele>211.2</ele>
        <time>2022-02-24T13:08:41Z</time>
      </trkpt>
      <trkpt lat="45.90101" lon="5.19095">
        <ele>211.2</ele>
        <time>2022-02-24T13:08:42Z</time>
      </trkpt>
      <trkpt lat="45.90103" lon="5.19088">
        <ele>211.2</ele>
        <time>2022-02-24T13:08:43Z</time>
      </trkpt>
      <trkpt lat="45.90106" lon="5.19082">
        <ele>211.2</ele>
        <time>2022-02-24T13:08:44Z</time>
      </trkpt>
      <trkpt lat="45.9011" lon="5.19076">
        <ele>211.2</ele>
        <time>2022-02-24T13:08:45Z</time>
      </trkpt>
      <trkpt lat="45.90114" lon="5.19071">
        <ele>211.2</ele>
        <time>2022-02-24T13:08:46Z</time>
      </trkpt>
      <trkpt lat="45.90117" lon="5.19065">
        <ele>211</ele>
        <time>2022-02-24T13:08:47Z</time>
      </trkpt>
      <trkpt lat="45.90121" lon="5.1906">
        <ele>211</ele>
        <time>2022-02-24T13:08:48Z</time>
      </trkpt>
      <trkpt lat="45.90125" lon="5.19055">
        <ele>211</ele>
        <time>2022-02-24T13:08:49Z</time>
      </trkpt>
      <trkpt lat="45.90128" lon="5.19051">
        <ele>211.2</ele>
        <time>2022-02-24T13:08:50Z</time>
      </trkpt>
      <trkpt lat="45.90132" lon="5.19046">
        <ele>211.2</ele>
        <time>2022-02-24T13:08:51Z</time>
      </trkpt>
      <trkpt lat="45.90136" lon="5.1904">
        <ele>211.6</ele>
        <time>2022-02-24T13:08:52Z</time>
      </trkpt>
      <trkpt lat="45.90139" lon="5.19034">
        <ele>211.6</ele>
        <time>2022-02-24T13:08:53Z</time>
      </trkpt>
      <trkpt lat="45.90142" lon="5.19029">
        <ele>211.6</ele>
        <time>2022-02-24T13:08:54Z</time>
      </trkpt>
      <trkpt lat="45.90145" lon="5.19022">
        <ele>211.8</ele>
        <time>2022-02-24T13:08:55Z</time>
      </trkpt>
      <trkpt lat="45.90148" lon="5.19016">
        <ele>211.8</ele>
        <time>2022-02-24T13:08:56Z</time>
      </trkpt>
      <trkpt lat="45.90152" lon="5.19012">
        <ele>212.2</ele>
        <time>2022-02-24T13:08:57Z</time>
      </trkpt>
      <trkpt lat="45.90155" lon="5.19008">
        <ele>212.2</ele>
        <time>2022-02-24T13:08:58Z</time>
      </trkpt>
      <trkpt lat="45.90159" lon="5.19003">
        <ele>212.2</ele>
        <time>2022-02-24T13:08:59Z</time>
      </trkpt>
      <trkpt lat="45.90161" lon="5.18998">
        <ele>212.4</ele>
        <time>2022-02-24T13:09:00Z</time>
      </trkpt>
      <trkpt lat="45.90163" lon="5.18992">
        <ele>212.4</ele>
        <time>2022-02-24T13:09:01Z</time>
      </trkpt>
      <trkpt lat="45.90162" lon="5.18986">
        <ele>212.4</ele>
        <time>2022-02-24T13:09:02Z</time>
      </trkpt>
      <trkpt lat="45.9016" lon="5.1898">
        <ele>212.4</ele>
        <time>2022-02-24T13:09:03Z</time>
      </trkpt>
      <trkpt lat="45.90158" lon="5.18975">
        <ele>212.4</ele>
        <time>2022-02-24T13:09:04Z</time>
      </trkpt>
      <trkpt lat="45.90154" lon="5.1897">
        <ele>212.4</ele>
        <time>2022-02-24T13:09:05Z</time>
      </trkpt>
      <trkpt lat="45.9015" lon="5.18965">
        <ele>212.6</ele>
        <time>2022-02-24T13:09:06Z</time>
      </trkpt>
      <trkpt lat="45.90146" lon="5.1896">
        <ele>212.6</ele>
        <time>2022-02-24T13:09:07Z</time>
      </trkpt>
      <trkpt lat="45.90142" lon="5.18954">
        <ele>212.6</ele>
        <time>2022-02-24T13:09:08Z</time>
      </trkpt>
      <trkpt lat="45.90138" lon="5.18947">
        <ele>212.6</ele>
        <time>2022-02-24T13:09:09Z</time>
      </trkpt>
      <trkpt lat="45.90133" lon="5.18941">
        <ele>212.6</ele>
        <time>2022-02-24T13:09:10Z</time>
      </trkpt>
      <trkpt lat="45.90129" lon="5.18935">
        <ele>212.6</ele>
        <time>2022-02-24T13:09:11Z</time>
      </trkpt>
      <trkpt lat="45.90125" lon="5.18929">
        <ele>212.6</ele>
        <time>2022-02-24T13:09:12Z</time>
      </trkpt>
      <trkpt lat="45.90121" lon="5.18923">
        <ele>212.6</ele>
        <time>2022-02-24T13:09:13Z</time>
      </trkpt>
      <trkpt lat="45.90117" lon="5.18917">
        <ele>212.6</ele>
        <time>2022-02-24T13:09:14Z</time>
      </trkpt>
      <trkpt lat="45.90113" lon="5.18911">
        <ele>212.6</ele>
        <time>2022-02-24T13:09:15Z</time>
      </trkpt>
      <trkpt lat="45.90109" lon="5.18906">
        <ele>212.6</ele>
        <time>2022-02-24T13:09:16Z</time>
      </trkpt>
      <trkpt lat="45.90105" lon="5.18901">
        <ele>212.6</ele>
        <time>2022-02-24T13:09:17Z</time>
      </trkpt>
      <trkpt lat="45.90101" lon="5.18895">
        <ele>212.6</ele>
        <time>2022-02-24T13:09:18Z</time>
      </trkpt>
      <trkpt lat="45.90097" lon="5.1889">
        <ele>212.6</ele>
        <time>2022-02-24T13:09:19Z</time>
      </trkpt>
      <trkpt lat="45.90093" lon="5.18884">
        <ele>212.6</ele>
        <time>2022-02-24T13:09:20Z</time>
      </trkpt>
      <trkpt lat="45.90089" lon="5.18879">
        <ele>212.6</ele>
        <time>2022-02-24T13:09:21Z</time>
      </trkpt>
      <trkpt lat="45.90084" lon="5.18874">
        <ele>212.6</ele>
        <time>2022-02-24T13:09:22Z</time>
      </trkpt>
      <trkpt lat="45.9008" lon="5.18869">
        <ele>212.6</ele>
        <time>2022-02-24T13:09:23Z</time>
      </trkpt>
      <trkpt lat="45.90076" lon="5.18864">
        <ele>212.6</ele>
        <time>2022-02-24T13:09:24Z</time>
      </trkpt>
      <trkpt lat="45.90072" lon="5.18859">
        <ele>212.6</ele>
        <time>2022-02-24T13:09:25Z</time>
      </trkpt>
      <trkpt lat="45.90068" lon="5.18854">
        <ele>212.6</ele>
        <time>2022-02-24T13:09:26Z</time>
      </trkpt>
      <trkpt lat="45.90064" lon="5.18849">
        <ele>212.6</ele>
        <time>2022-02-24T13:09:27Z</time>
      </trkpt>
      <trkpt lat="45.9006" lon="5.18844">
        <ele>213</ele>
        <time>2022-02-24T13:09:28Z</time>
      </trkpt>
      <trkpt lat="45.90057" lon="5.18839">
        <ele>213</ele>
        <time>2022-02-24T13:09:29Z</time>
      </trkpt>
      <trkpt lat="45.90053" lon="5.18833">
        <ele>213</ele>
        <time>2022-02-24T13:09:30Z</time>
      </trkpt>
      <trkpt lat="45.90049" lon="5.18828">
        <ele>213.2</ele>
        <time>2022-02-24T13:09:31Z</time>
      </trkpt>
      <trkpt lat="45.90045" lon="5.18823">
        <ele>213.2</ele>
        <time>2022-02-24T13:09:32Z</time>
      </trkpt>
      <trkpt lat="45.90042" lon="5.18818">
        <ele>213.2</ele>
        <time>2022-02-24T13:09:33Z</time>
      </trkpt>
      <trkpt lat="45.90038" lon="5.18813">
        <ele>213.2</ele>
        <time>2022-02-24T13:09:34Z</time>
      </trkpt>
      <trkpt lat="45.90034" lon="5.18808">
        <ele>213.2</ele>
        <time>2022-02-24T13:09:35Z</time>
      </trkpt>
      <trkpt lat="45.9003" lon="5.18803">
        <ele>213.2</ele>
        <time>2022-02-24T13:09:36Z</time>
      </trkpt>
      <trkpt lat="45.90026" lon="5.18798">
        <ele>213.2</ele>
        <time>2022-02-24T13:09:37Z</time>
      </trkpt>
      <trkpt lat="45.90024" lon="5.18792">
        <ele>213.2</ele>
        <time>2022-02-24T13:09:38Z</time>
      </trkpt>
      <trkpt lat="45.90023" lon="5.18785">
        <ele>213.2</ele>
        <time>2022-02-24T13:09:39Z</time>
      </trkpt>
      <trkpt lat="45.90023" lon="5.18777">
        <ele>213.2</ele>
        <time>2022-02-24T13:09:40Z</time>
      </trkpt>
      <trkpt lat="45.90025" lon="5.18769">
        <ele>213.2</ele>
        <time>2022-02-24T13:09:41Z</time>
      </trkpt>
      <trkpt lat="45.90027" lon="5.18761">
        <ele>213</ele>
        <time>2022-02-24T13:09:42Z</time>
      </trkpt>
      <trkpt lat="45.90029" lon="5.18754">
        <ele>213</ele>
        <time>2022-02-24T13:09:43Z</time>
      </trkpt>
      <trkpt lat="45.90032" lon="5.18747">
        <ele>213</ele>
        <time>2022-02-24T13:09:44Z</time>
      </trkpt>
      <trkpt lat="45.90034" lon="5.1874">
        <ele>213</ele>
        <time>2022-02-24T13:09:45Z</time>
      </trkpt>
      <trkpt lat="45.90037" lon="5.18733">
        <ele>213</ele>
        <time>2022-02-24T13:09:46Z</time>
      </trkpt>
      <trkpt lat="45.9004" lon="5.18726">
        <ele>213</ele>
        <time>2022-02-24T13:09:47Z</time>
      </trkpt>
      <trkpt lat="45.90043" lon="5.18719">
        <ele>213</ele>
        <time>2022-02-24T13:09:48Z</time>
      </trkpt>
      <trkpt lat="45.90046" lon="5.18712">
        <ele>213</ele>
        <time>2022-02-24T13:09:49Z</time>
      </trkpt>
      <trkpt lat="45.9005" lon="5.18705">
        <ele>213.2</ele>
        <time>2022-02-24T13:09:50Z</time>
      </trkpt>
      <trkpt lat="45.90053" lon="5.18698">
        <ele>213.2</ele>
        <time>2022-02-24T13:09:51Z</time>
      </trkpt>
      <trkpt lat="45.90056" lon="5.18691">
        <ele>213.2</ele>
        <time>2022-02-24T13:09:52Z</time>
      </trkpt>
      <trkpt lat="45.90059" lon="5.18684">
        <ele>213.2</ele>
        <time>2022-02-24T13:09:53Z</time>
      </trkpt>
      <trkpt lat="45.90062" lon="5.18677">
        <ele>213.2</ele>
        <time>2022-02-24T13:09:54Z</time>
      </trkpt>
      <trkpt lat="45.90065" lon="5.1867">
        <ele>213.2</ele>
        <time>2022-02-24T13:09:55Z</time>
      </trkpt>
      <trkpt lat="45.90068" lon="5.18663">
        <ele>213.2</ele>
        <time>2022-02-24T13:09:56Z</time>
      </trkpt>
      <trkpt lat="45.90071" lon="5.18656">
        <ele>213.2</ele>
        <time>2022-02-24T13:09:57Z</time>
      </trkpt>
      <trkpt lat="45.90074" lon="5.18649">
        <ele>213.2</ele>
        <time>2022-02-24T13:09:58Z</time>
      </trkpt>
      <trkpt lat="45.90077" lon="5.18642">
        <ele>213.2</ele>
        <time>2022-02-24T13:09:59Z</time>
      </trkpt>
      <trkpt lat="45.9008" lon="5.18635">
        <ele>213.6</ele>
        <time>2022-02-24T13:10:00Z</time>
      </trkpt>
      <trkpt lat="45.90083" lon="5.18627">
        <ele>213.6</ele>
        <time>2022-02-24T13:10:01Z</time>
      </trkpt>
      <trkpt lat="45.90085" lon="5.1862">
        <ele>214</ele>
        <time>2022-02-24T13:10:02Z</time>
      </trkpt>
      <trkpt lat="45.90088" lon="5.18614">
        <ele>214</ele>
        <time>2022-02-24T13:10:03Z</time>
      </trkpt>
      <trkpt lat="45.90091" lon="5.18607">
        <ele>214.2</ele>
        <time>2022-02-24T13:10:04Z</time>
      </trkpt>
      <trkpt lat="45.90093" lon="5.18601">
        <ele>214.2</ele>
        <time>2022-02-24T13:10:05Z</time>
      </trkpt>
      <trkpt lat="45.90096" lon="5.18594">
        <ele>214.6</ele>
        <time>2022-02-24T13:10:06Z</time>
      </trkpt>
      <trkpt lat="45.90098" lon="5.18587">
        <ele>214.6</ele>
        <time>2022-02-24T13:10:07Z</time>
      </trkpt>
      <trkpt lat="45.90101" lon="5.18581">
        <ele>214.8</ele>
        <time>2022-02-24T13:10:08Z</time>
      </trkpt>
      <trkpt lat="45.90103" lon="5.18574">
        <ele>214.8</ele>
        <time>2022-02-24T13:10:09Z</time>
      </trkpt>
      <trkpt lat="45.90106" lon="5.18568">
        <ele>215</ele>
        <time>2022-02-24T13:10:10Z</time>
      </trkpt>
      <trkpt lat="45.90109" lon="5.18562">
        <ele>215</ele>
        <time>2022-02-24T13:10:11Z</time>
      </trkpt>
      <trkpt lat="45.90112" lon="5.18556">
        <ele>215</ele>
        <time>2022-02-24T13:10:12Z</time>
      </trkpt>
      <trkpt lat="45.90114" lon="5.1855">
        <ele>215.4</ele>
        <time>2022-02-24T13:10:13Z</time>
      </trkpt>
      <trkpt lat="45.90116" lon="5.18544">
        <ele>215.4</ele>
        <time>2022-02-24T13:10:14Z</time>
      </trkpt>
      <trkpt lat="45.90119" lon="5.18539">
        <ele>215.8</ele>
        <time>2022-02-24T13:10:15Z</time>
      </trkpt>
      <trkpt lat="45.90121" lon="5.18533">
        <ele>215.8</ele>
        <time>2022-02-24T13:10:16Z</time>
      </trkpt>
      <trkpt lat="45.90124" lon="5.18528">
        <ele>216</ele>
        <time>2022-02-24T13:10:17Z</time>
      </trkpt>
      <trkpt lat="45.90126" lon="5.18523">
        <ele>216.4</ele>
        <time>2022-02-24T13:10:18Z</time>
      </trkpt>
      <trkpt lat="45.90128" lon="5.18519">
        <ele>216.4</ele>
        <time>2022-02-24T13:10:19Z</time>
      </trkpt>
      <trkpt lat="45.90129" lon="5.18514">
        <ele>216.8</ele>
        <time>2022-02-24T13:10:20Z</time>
      </trkpt>
      <trkpt lat="45.90131" lon="5.1851">
        <ele>217</ele>
        <time>2022-02-24T13:10:21Z</time>
      </trkpt>
      <trkpt lat="45.90133" lon="5.18505">
        <ele>217.2</ele>
        <time>2022-02-24T13:10:22Z</time>
      </trkpt>
      <trkpt lat="45.90135" lon="5.18501">
        <ele>217.4</ele>
        <time>2022-02-24T13:10:23Z</time>
      </trkpt>
      <trkpt lat="45.90137" lon="5.18496">
        <ele>217.4</ele>
        <time>2022-02-24T13:10:24Z</time>
      </trkpt>
      <trkpt lat="45.90138" lon="5.18492">
        <ele>218</ele>
        <time>2022-02-24T13:10:25Z</time>
      </trkpt>
      <trkpt lat="45.9014" lon="5.18488">
        <ele>218</ele>
        <time>2022-02-24T13:10:26Z</time>
      </trkpt>
      <trkpt lat="45.90141" lon="5.18484">
        <ele>218.4</ele>
        <time>2022-02-24T13:10:27Z</time>
      </trkpt>
      <trkpt lat="45.90143" lon="5.1848">
        <ele>218.6</ele>
        <time>2022-02-24T13:10:28Z</time>
      </trkpt>
      <trkpt lat="45.90145" lon="5.18476">
        <ele>218.6</ele>
        <time>2022-02-24T13:10:29Z</time>
      </trkpt>
      <trkpt lat="45.90146" lon="5.18472">
        <ele>218.8</ele>
        <time>2022-02-24T13:10:30Z</time>
      </trkpt>
      <trkpt lat="45.90148" lon="5.18469">
        <ele>218.8</ele>
        <time>2022-02-24T13:10:31Z</time>
      </trkpt>
      <trkpt lat="45.90149" lon="5.18466">
        <ele>219.2</ele>
        <time>2022-02-24T13:10:32Z</time>
      </trkpt>
      <trkpt lat="45.90151" lon="5.18463">
        <ele>219.4</ele>
        <time>2022-02-24T13:10:33Z</time>
      </trkpt>
      <trkpt lat="45.90152" lon="5.18459">
        <ele>219.4</ele>
        <time>2022-02-24T13:10:34Z</time>
      </trkpt>
      <trkpt lat="45.90154" lon="5.18456">
        <ele>219.8</ele>
        <time>2022-02-24T13:10:35Z</time>
      </trkpt>
      <trkpt lat="45.90155" lon="5.18453">
        <ele>220</ele>
        <time>2022-02-24T13:10:36Z</time>
      </trkpt>
      <trkpt lat="45.90157" lon="5.18449">
        <ele>220.2</ele>
        <time>2022-02-24T13:10:37Z</time>
      </trkpt>
      <trkpt lat="45.90158" lon="5.18446">
        <ele>220.2</ele>
        <time>2022-02-24T13:10:38Z</time>
      </trkpt>
      <trkpt lat="45.9016" lon="5.18442">
        <ele>220.8</ele>
        <time>2022-02-24T13:10:39Z</time>
      </trkpt>
      <trkpt lat="45.90161" lon="5.18439">
        <ele>220.8</ele>
        <time>2022-02-24T13:10:40Z</time>
      </trkpt>
      <trkpt lat="45.90163" lon="5.18435">
        <ele>221.2</ele>
        <time>2022-02-24T13:10:41Z</time>
      </trkpt>
      <trkpt lat="45.90165" lon="5.18432">
        <ele>221.4</ele>
        <time>2022-02-24T13:10:42Z</time>
      </trkpt>
      <trkpt lat="45.90166" lon="5.18429">
        <ele>221.6</ele>
        <time>2022-02-24T13:10:43Z</time>
      </trkpt>
      <trkpt lat="45.90167" lon="5.18426">
        <ele>221.6</ele>
        <time>2022-02-24T13:10:44Z</time>
      </trkpt>
      <trkpt lat="45.90169" lon="5.18422">
        <ele>222</ele>
        <time>2022-02-24T13:10:45Z</time>
      </trkpt>
      <trkpt lat="45.9017" lon="5.18418">
        <ele>222</ele>
        <time>2022-02-24T13:10:46Z</time>
      </trkpt>
      <trkpt lat="45.90171" lon="5.18415">
        <ele>222.4</ele>
        <time>2022-02-24T13:10:47Z</time>
      </trkpt>
      <trkpt lat="45.90172" lon="5.18411">
        <ele>222.6</ele>
        <time>2022-02-24T13:10:48Z</time>
      </trkpt>
      <trkpt lat="45.90174" lon="5.18408">
        <ele>222.8</ele>
        <time>2022-02-24T13:10:49Z</time>
      </trkpt>
      <trkpt lat="45.90175" lon="5.18405">
        <ele>223.2</ele>
        <time>2022-02-24T13:10:50Z</time>
      </trkpt>
      <trkpt lat="45.90176" lon="5.18402">
        <ele>223.4</ele>
        <time>2022-02-24T13:10:51Z</time>
      </trkpt>
      <trkpt lat="45.90178" lon="5.18398">
        <ele>223.6</ele>
        <time>2022-02-24T13:10:52Z</time>
      </trkpt>
      <trkpt lat="45.90179" lon="5.18395">
        <ele>224</ele>
        <time>2022-02-24T13:10:53Z</time>
      </trkpt>
      <trkpt lat="45.9018" lon="5.18391">
        <ele>224.2</ele>
        <time>2022-02-24T13:10:54Z</time>
      </trkpt>
      <trkpt lat="45.90181" lon="5.18388">
        <ele>224.4</ele>
        <time>2022-02-24T13:10:55Z</time>
      </trkpt>
      <trkpt lat="45.90182" lon="5.18385">
        <ele>224.8</ele>
        <time>2022-02-24T13:10:56Z</time>
      </trkpt>
      <trkpt lat="45.90183" lon="5.18381">
        <ele>225</ele>
        <time>2022-02-24T13:10:57Z</time>
      </trkpt>
      <trkpt lat="45.90184" lon="5.18378">
        <ele>225.2</ele>
        <time>2022-02-24T13:10:58Z</time>
      </trkpt>
      <trkpt lat="45.90185" lon="5.18374">
        <ele>225.2</ele>
        <time>2022-02-24T13:10:59Z</time>
      </trkpt>
      <trkpt lat="45.90185" lon="5.1837">
        <ele>225.6</ele>
        <time>2022-02-24T13:11:00Z</time>
      </trkpt>
      <trkpt lat="45.90185" lon="5.18366">
        <ele>225.6</ele>
        <time>2022-02-24T13:11:01Z</time>
      </trkpt>
      <trkpt lat="45.90186" lon="5.18362">
        <ele>226</ele>
        <time>2022-02-24T13:11:02Z</time>
      </trkpt>
      <trkpt lat="45.90186" lon="5.18358">
        <ele>226</ele>
        <time>2022-02-24T13:11:03Z</time>
      </trkpt>
      <trkpt lat="45.90185" lon="5.18355">
        <ele>226.2</ele>
        <time>2022-02-24T13:11:04Z</time>
      </trkpt>
      <trkpt lat="45.90186" lon="5.18351">
        <ele>226.4</ele>
        <time>2022-02-24T13:11:05Z</time>
      </trkpt>
      <trkpt lat="45.90186" lon="5.18347">
        <ele>226.6</ele>
        <time>2022-02-24T13:11:06Z</time>
      </trkpt>
      <trkpt lat="45.90187" lon="5.18343">
        <ele>227</ele>
        <time>2022-02-24T13:11:07Z</time>
      </trkpt>
      <trkpt lat="45.90187" lon="5.18339">
        <ele>227</ele>
        <time>2022-02-24T13:11:08Z</time>
      </trkpt>
      <trkpt lat="45.90187" lon="5.18335">
        <ele>227.2</ele>
        <time>2022-02-24T13:11:09Z</time>
      </trkpt>
      <trkpt lat="45.90186" lon="5.18331">
        <ele>227.2</ele>
        <time>2022-02-24T13:11:10Z</time>
      </trkpt>
      <trkpt lat="45.90186" lon="5.18328">
        <ele>227.6</ele>
        <time>2022-02-24T13:11:11Z</time>
      </trkpt>
      <trkpt lat="45.90186" lon="5.18325">
        <ele>227.6</ele>
        <time>2022-02-24T13:11:12Z</time>
      </trkpt>
      <trkpt lat="45.90186" lon="5.18323">
        <ele>227.6</ele>
        <time>2022-02-24T13:11:13Z</time>
      </trkpt>
      <trkpt lat="45.90186" lon="5.18322">
        <ele>227.6</ele>
        <time>2022-02-24T13:11:14Z</time>
      </trkpt>
      <trkpt lat="45.90184" lon="5.18322">
        <ele>227.8</ele>
        <time>2022-02-24T13:11:15Z</time>
      </trkpt>
      <trkpt lat="45.90181" lon="5.18327">
        <ele>227.8</ele>
        <time>2022-02-24T13:11:18Z</time>
      </trkpt>
      <trkpt lat="45.90181" lon="5.1833">
        <ele>227.8</ele>
        <time>2022-02-24T13:11:19Z</time>
      </trkpt>
      <trkpt lat="45.90182" lon="5.18332">
        <ele>227.6</ele>
        <time>2022-02-24T13:11:20Z</time>
      </trkpt>
      <trkpt lat="45.90185" lon="5.18334">
        <ele>227.6</ele>
        <time>2022-02-24T13:11:21Z</time>
      </trkpt>
      <trkpt lat="45.90188" lon="5.18336">
        <ele>227.6</ele>
        <time>2022-02-24T13:11:22Z</time>
      </trkpt>
      <trkpt lat="45.9019" lon="5.18337">
        <ele>227.6</ele>
        <time>2022-02-24T13:11:23Z</time>
      </trkpt>
      <trkpt lat="45.90193" lon="5.18337">
        <ele>227.8</ele>
        <time>2022-02-24T13:11:24Z</time>
      </trkpt>
      <trkpt lat="45.90195" lon="5.18337">
        <ele>228</ele>
        <time>2022-02-24T13:11:25Z</time>
      </trkpt>
      <trkpt lat="45.90198" lon="5.18338">
        <ele>228.2</ele>
        <time>2022-02-24T13:11:26Z</time>
      </trkpt>
      <trkpt lat="45.902" lon="5.18338">
        <ele>228.6</ele>
        <time>2022-02-24T13:11:27Z</time>
      </trkpt>
      <trkpt lat="45.90202" lon="5.18338">
        <ele>228.6</ele>
        <time>2022-02-24T13:11:28Z</time>
      </trkpt>
      <trkpt lat="45.90205" lon="5.18339">
        <ele>228.8</ele>
        <time>2022-02-24T13:11:29Z</time>
      </trkpt>
      <trkpt lat="45.90207" lon="5.1834">
        <ele>229.2</ele>
        <time>2022-02-24T13:11:30Z</time>
      </trkpt>
      <trkpt lat="45.9021" lon="5.1834">
        <ele>229.4</ele>
        <time>2022-02-24T13:11:31Z</time>
      </trkpt>
      <trkpt lat="45.90213" lon="5.1834">
        <ele>229.4</ele>
        <time>2022-02-24T13:11:32Z</time>
      </trkpt>
      <trkpt lat="45.90215" lon="5.1834">
        <ele>229.8</ele>
        <time>2022-02-24T13:11:33Z</time>
      </trkpt>
      <trkpt lat="45.90218" lon="5.1834">
        <ele>229.8</ele>
        <time>2022-02-24T13:11:34Z</time>
      </trkpt>
      <trkpt lat="45.9022" lon="5.1834">
        <ele>230</ele>
        <time>2022-02-24T13:11:35Z</time>
      </trkpt>
      <trkpt lat="45.90222" lon="5.1834">
        <ele>230</ele>
        <time>2022-02-24T13:11:36Z</time>
      </trkpt>
      <trkpt lat="45.90225" lon="5.18339">
        <ele>230</ele>
        <time>2022-02-24T13:11:37Z</time>
      </trkpt>
      <trkpt lat="45.90227" lon="5.18337">
        <ele>230.2</ele>
        <time>2022-02-24T13:11:38Z</time>
      </trkpt>
      <trkpt lat="45.9023" lon="5.18336">
        <ele>230.2</ele>
        <time>2022-02-24T13:11:39Z</time>
      </trkpt>
      <trkpt lat="45.90232" lon="5.18335">
        <ele>230.6</ele>
        <time>2022-02-24T13:11:40Z</time>
      </trkpt>
      <trkpt lat="45.90234" lon="5.18334">
        <ele>230.6</ele>
        <time>2022-02-24T13:11:41Z</time>
      </trkpt>
      <trkpt lat="45.90234" lon="5.18334">
        <ele>230.6</ele>
        <time>2022-02-24T13:11:42Z</time>
      </trkpt>
      <trkpt lat="45.90237" lon="5.18331">
        <ele>230.6</ele>
        <time>2022-02-24T13:11:43Z</time>
      </trkpt>
      <trkpt lat="45.90239" lon="5.18329">
        <ele>230.6</ele>
        <time>2022-02-24T13:11:44Z</time>
      </trkpt>
      <trkpt lat="45.90242" lon="5.18327">
        <ele>230.6</ele>
        <time>2022-02-24T13:11:45Z</time>
      </trkpt>
      <trkpt lat="45.90245" lon="5.18325">
        <ele>231</ele>
        <time>2022-02-24T13:11:46Z</time>
      </trkpt>
      <trkpt lat="45.90247" lon="5.18323">
        <ele>231</ele>
        <time>2022-02-24T13:11:47Z</time>
      </trkpt>
      <trkpt lat="45.9025" lon="5.1832">
        <ele>231</ele>
        <time>2022-02-24T13:11:48Z</time>
      </trkpt>
      <trkpt lat="45.90253" lon="5.18318">
        <ele>231</ele>
        <time>2022-02-24T13:11:49Z</time>
      </trkpt>
      <trkpt lat="45.90258" lon="5.18313">
        <ele>231</ele>
        <time>2022-02-24T13:11:50Z</time>
      </trkpt>
      <trkpt lat="45.90261" lon="5.1831">
        <ele>231</ele>
        <time>2022-02-24T13:11:51Z</time>
      </trkpt>
      <trkpt lat="45.90263" lon="5.18308">
        <ele>231.2</ele>
        <time>2022-02-24T13:11:52Z</time>
      </trkpt>
      <trkpt lat="45.90266" lon="5.18305">
        <ele>231.2</ele>
        <time>2022-02-24T13:11:53Z</time>
      </trkpt>
      <trkpt lat="45.90269" lon="5.18303">
        <ele>231.2</ele>
        <time>2022-02-24T13:11:54Z</time>
      </trkpt>
      <trkpt lat="45.90273" lon="5.183">
        <ele>231.2</ele>
        <time>2022-02-24T13:11:55Z</time>
      </trkpt>
      <trkpt lat="45.90276" lon="5.18298">
        <ele>231.2</ele>
        <time>2022-02-24T13:11:56Z</time>
      </trkpt>
      <trkpt lat="45.90281" lon="5.18297">
        <ele>231.2</ele>
        <time>2022-02-24T13:11:57Z</time>
      </trkpt>
      <trkpt lat="45.90286" lon="5.18295">
        <ele>231</ele>
        <time>2022-02-24T13:11:58Z</time>
      </trkpt>
      <trkpt lat="45.9029" lon="5.18294">
        <ele>231</ele>
        <time>2022-02-24T13:11:59Z</time>
      </trkpt>
      <trkpt lat="45.90295" lon="5.18293">
        <ele>230.6</ele>
        <time>2022-02-24T13:12:00Z</time>
      </trkpt>
      <trkpt lat="45.903" lon="5.18292">
        <ele>230.6</ele>
        <time>2022-02-24T13:12:01Z</time>
      </trkpt>
      <trkpt lat="45.90305" lon="5.1829">
        <ele>230.2</ele>
        <time>2022-02-24T13:12:02Z</time>
      </trkpt>
      <trkpt lat="45.9031" lon="5.18288">
        <ele>230.2</ele>
        <time>2022-02-24T13:12:03Z</time>
      </trkpt>
      <trkpt lat="45.90316" lon="5.18287">
        <ele>230.2</ele>
        <time>2022-02-24T13:12:04Z</time>
      </trkpt>
      <trkpt lat="45.90321" lon="5.18286">
        <ele>230.2</ele>
        <time>2022-02-24T13:12:05Z</time>
      </trkpt>
      <trkpt lat="45.90326" lon="5.18284">
        <ele>230</ele>
        <time>2022-02-24T13:12:06Z</time>
      </trkpt>
      <trkpt lat="45.9033" lon="5.18282">
        <ele>230</ele>
        <time>2022-02-24T13:12:07Z</time>
      </trkpt>
      <trkpt lat="45.90335" lon="5.1828">
        <ele>230</ele>
        <time>2022-02-24T13:12:08Z</time>
      </trkpt>
      <trkpt lat="45.90338" lon="5.18278">
        <ele>230</ele>
        <time>2022-02-24T13:12:09Z</time>
      </trkpt>
      <trkpt lat="45.90343" lon="5.18276">
        <ele>229.8</ele>
        <time>2022-02-24T13:12:10Z</time>
      </trkpt>
      <trkpt lat="45.90347" lon="5.18274">
        <ele>229.8</ele>
        <time>2022-02-24T13:12:11Z</time>
      </trkpt>
      <trkpt lat="45.90351" lon="5.18271">
        <ele>229.8</ele>
        <time>2022-02-24T13:12:12Z</time>
      </trkpt>
      <trkpt lat="45.90356" lon="5.18269">
        <ele>229.8</ele>
        <time>2022-02-24T13:12:13Z</time>
      </trkpt>
      <trkpt lat="45.90361" lon="5.18266">
        <ele>229.6</ele>
        <time>2022-02-24T13:12:14Z</time>
      </trkpt>
      <trkpt lat="45.90365" lon="5.18264">
        <ele>229.6</ele>
        <time>2022-02-24T13:12:15Z</time>
      </trkpt>
      <trkpt lat="45.9037" lon="5.18262">
        <ele>229.6</ele>
        <time>2022-02-24T13:12:16Z</time>
      </trkpt>
      <trkpt lat="45.90374" lon="5.1826">
        <ele>229.4</ele>
        <time>2022-02-24T13:12:17Z</time>
      </trkpt>
      <trkpt lat="45.90379" lon="5.18258">
        <ele>229.4</ele>
        <time>2022-02-24T13:12:18Z</time>
      </trkpt>
      <trkpt lat="45.90383" lon="5.18256">
        <ele>229.4</ele>
        <time>2022-02-24T13:12:19Z</time>
      </trkpt>
      <trkpt lat="45.90388" lon="5.18254">
        <ele>229.4</ele>
        <time>2022-02-24T13:12:20Z</time>
      </trkpt>
      <trkpt lat="45.90393" lon="5.18253">
        <ele>229.4</ele>
        <time>2022-02-24T13:12:21Z</time>
      </trkpt>
      <trkpt lat="45.90398" lon="5.18252">
        <ele>229</ele>
        <time>2022-02-24T13:12:22Z</time>
      </trkpt>
      <trkpt lat="45.90403" lon="5.18252">
        <ele>229</ele>
        <time>2022-02-24T13:12:23Z</time>
      </trkpt>
      <trkpt lat="45.90409" lon="5.18251">
        <ele>229</ele>
        <time>2022-02-24T13:12:24Z</time>
      </trkpt>
      <trkpt lat="45.90414" lon="5.1825">
        <ele>229</ele>
        <time>2022-02-24T13:12:25Z</time>
      </trkpt>
      <trkpt lat="45.90419" lon="5.18249">
        <ele>229</ele>
        <time>2022-02-24T13:12:26Z</time>
      </trkpt>
      <trkpt lat="45.90424" lon="5.18248">
        <ele>228.8</ele>
        <time>2022-02-24T13:12:27Z</time>
      </trkpt>
      <trkpt lat="45.90429" lon="5.18248">
        <ele>228.8</ele>
        <time>2022-02-24T13:12:28Z</time>
      </trkpt>
      <trkpt lat="45.90434" lon="5.18247">
        <ele>228.8</ele>
        <time>2022-02-24T13:12:29Z</time>
      </trkpt>
      <trkpt lat="45.90439" lon="5.18246">
        <ele>228.8</ele>
        <time>2022-02-24T13:12:30Z</time>
      </trkpt>
      <trkpt lat="45.90444" lon="5.18245">
        <ele>228.6</ele>
        <time>2022-02-24T13:12:31Z</time>
      </trkpt>
      <trkpt lat="45.90449" lon="5.18243">
        <ele>228.6</ele>
        <time>2022-02-24T13:12:32Z</time>
      </trkpt>
      <trkpt lat="45.90454" lon="5.18242">
        <ele>228.4</ele>
        <time>2022-02-24T13:12:33Z</time>
      </trkpt>
      <trkpt lat="45.90459" lon="5.1824">
        <ele>228.4</ele>
        <time>2022-02-24T13:12:34Z</time>
      </trkpt>
      <trkpt lat="45.90464" lon="5.18237">
        <ele>228</ele>
        <time>2022-02-24T13:12:35Z</time>
      </trkpt>
      <trkpt lat="45.9047" lon="5.18235">
        <ele>227.8</ele>
        <time>2022-02-24T13:12:36Z</time>
      </trkpt>
      <trkpt lat="45.90475" lon="5.18233">
        <ele>227.8</ele>
        <time>2022-02-24T13:12:37Z</time>
      </trkpt>
      <trkpt lat="45.90481" lon="5.18231">
        <ele>227.6</ele>
        <time>2022-02-24T13:12:38Z</time>
      </trkpt>
      <trkpt lat="45.90486" lon="5.18228">
        <ele>227.6</ele>
        <time>2022-02-24T13:12:39Z</time>
      </trkpt>
      <trkpt lat="45.90491" lon="5.18226">
        <ele>227.2</ele>
        <time>2022-02-24T13:12:40Z</time>
      </trkpt>
      <trkpt lat="45.90496" lon="5.18224">
        <ele>227.2</ele>
        <time>2022-02-24T13:12:41Z</time>
      </trkpt>
      <trkpt lat="45.90502" lon="5.18222">
        <ele>227</ele>
        <time>2022-02-24T13:12:42Z</time>
      </trkpt>
      <trkpt lat="45.90507" lon="5.1822">
        <ele>227</ele>
        <time>2022-02-24T13:12:43Z</time>
      </trkpt>
      <trkpt lat="45.90512" lon="5.18219">
        <ele>227</ele>
        <time>2022-02-24T13:12:44Z</time>
      </trkpt>
      <trkpt lat="45.90518" lon="5.18216">
        <ele>226.8</ele>
        <time>2022-02-24T13:12:45Z</time>
      </trkpt>
      <trkpt lat="45.90524" lon="5.18214">
        <ele>226.8</ele>
        <time>2022-02-24T13:12:46Z</time>
      </trkpt>
      <trkpt lat="45.9053" lon="5.18212">
        <ele>226.4</ele>
        <time>2022-02-24T13:12:47Z</time>
      </trkpt>
      <trkpt lat="45.90536" lon="5.18211">
        <ele>226.4</ele>
        <time>2022-02-24T13:12:48Z</time>
      </trkpt>
      <trkpt lat="45.90543" lon="5.18209">
        <ele>226.2</ele>
        <time>2022-02-24T13:12:49Z</time>
      </trkpt>
      <trkpt lat="45.90549" lon="5.18207">
        <ele>226.2</ele>
        <time>2022-02-24T13:12:50Z</time>
      </trkpt>
      <trkpt lat="45.90556" lon="5.18205">
        <ele>225.8</ele>
        <time>2022-02-24T13:12:51Z</time>
      </trkpt>
      <trkpt lat="45.90562" lon="5.18203">
        <ele>225.8</ele>
        <time>2022-02-24T13:12:52Z</time>
      </trkpt>
      <trkpt lat="45.90569" lon="5.18202">
        <ele>225.4</ele>
        <time>2022-02-24T13:12:53Z</time>
      </trkpt>
      <trkpt lat="45.90576" lon="5.18201">
        <ele>225.4</ele>
        <time>2022-02-24T13:12:54Z</time>
      </trkpt>
      <trkpt lat="45.90582" lon="5.182">
        <ele>225.2</ele>
        <time>2022-02-24T13:12:55Z</time>
      </trkpt>
      <trkpt lat="45.90588" lon="5.18199">
        <ele>225.2</ele>
        <time>2022-02-24T13:12:56Z</time>
      </trkpt>
      <trkpt lat="45.90595" lon="5.18197">
        <ele>224.8</ele>
        <time>2022-02-24T13:12:57Z</time>
      </trkpt>
      <trkpt lat="45.90601" lon="5.18196">
        <ele>224.8</ele>
        <time>2022-02-24T13:12:58Z</time>
      </trkpt>
      <trkpt lat="45.90606" lon="5.18192">
        <ele>224.4</ele>
        <time>2022-02-24T13:12:59Z</time>
      </trkpt>
      <trkpt lat="45.9061" lon="5.18186">
        <ele>224.4</ele>
        <time>2022-02-24T13:13:00Z</time>
      </trkpt>
      <trkpt lat="45.90613" lon="5.1818">
        <ele>224.4</ele>
        <time>2022-02-24T13:13:01Z</time>
      </trkpt>
      <trkpt lat="45.90615" lon="5.18174">
        <ele>224.4</ele>
        <time>2022-02-24T13:13:02Z</time>
      </trkpt>
      <trkpt lat="45.90616" lon="5.18169">
        <ele>224.8</ele>
        <time>2022-02-24T13:13:03Z</time>
      </trkpt>
      <trkpt lat="45.90616" lon="5.18164">
        <ele>225</ele>
        <time>2022-02-24T13:13:04Z</time>
      </trkpt>
      <trkpt lat="45.90617" lon="5.18159">
        <ele>225.2</ele>
        <time>2022-02-24T13:13:05Z</time>
      </trkpt>
      <trkpt lat="45.90617" lon="5.18155">
        <ele>225.6</ele>
        <time>2022-02-24T13:13:06Z</time>
      </trkpt>
      <trkpt lat="45.90617" lon="5.18151">
        <ele>225.8</ele>
        <time>2022-02-24T13:13:07Z</time>
      </trkpt>
      <trkpt lat="45.90617" lon="5.18147">
        <ele>226</ele>
        <time>2022-02-24T13:13:08Z</time>
      </trkpt>
      <trkpt lat="45.90617" lon="5.18144">
        <ele>226.4</ele>
        <time>2022-02-24T13:13:09Z</time>
      </trkpt>
      <trkpt lat="45.90618" lon="5.1814">
        <ele>226.6</ele>
        <time>2022-02-24T13:13:10Z</time>
      </trkpt>
      <trkpt lat="45.90618" lon="5.18136">
        <ele>226.8</ele>
        <time>2022-02-24T13:13:11Z</time>
      </trkpt>
      <trkpt lat="45.90619" lon="5.18132">
        <ele>227</ele>
        <time>2022-02-24T13:13:12Z</time>
      </trkpt>
      <trkpt lat="45.9062" lon="5.18128">
        <ele>227</ele>
        <time>2022-02-24T13:13:13Z</time>
      </trkpt>
      <trkpt lat="45.9062" lon="5.18125">
        <ele>227.4</ele>
        <time>2022-02-24T13:13:14Z</time>
      </trkpt>
      <trkpt lat="45.9062" lon="5.18121">
        <ele>227.6</ele>
        <time>2022-02-24T13:13:15Z</time>
      </trkpt>
      <trkpt lat="45.90621" lon="5.18117">
        <ele>227.8</ele>
        <time>2022-02-24T13:13:16Z</time>
      </trkpt>
      <trkpt lat="45.90621" lon="5.18114">
        <ele>228.2</ele>
        <time>2022-02-24T13:13:17Z</time>
      </trkpt>
      <trkpt lat="45.90621" lon="5.18111">
        <ele>228.4</ele>
        <time>2022-02-24T13:13:18Z</time>
      </trkpt>
      <trkpt lat="45.90621" lon="5.18107">
        <ele>228.6</ele>
        <time>2022-02-24T13:13:19Z</time>
      </trkpt>
      <trkpt lat="45.90621" lon="5.18103">
        <ele>228.8</ele>
        <time>2022-02-24T13:13:20Z</time>
      </trkpt>
      <trkpt lat="45.90621" lon="5.181">
        <ele>229</ele>
        <time>2022-02-24T13:13:21Z</time>
      </trkpt>
      <trkpt lat="45.90621" lon="5.18096">
        <ele>229.4</ele>
        <time>2022-02-24T13:13:22Z</time>
      </trkpt>
      <trkpt lat="45.90622" lon="5.18092">
        <ele>229.6</ele>
        <time>2022-02-24T13:13:23Z</time>
      </trkpt>
      <trkpt lat="45.90623" lon="5.1809">
        <ele>229.8</ele>
        <time>2022-02-24T13:13:24Z</time>
      </trkpt>
      <trkpt lat="45.90623" lon="5.18087">
        <ele>230.2</ele>
        <time>2022-02-24T13:13:25Z</time>
      </trkpt>
      <trkpt lat="45.90623" lon="5.18084">
        <ele>230.2</ele>
        <time>2022-02-24T13:13:26Z</time>
      </trkpt>
      <trkpt lat="45.90622" lon="5.18082">
        <ele>230.4</ele>
        <time>2022-02-24T13:13:27Z</time>
      </trkpt>
      <trkpt lat="45.90622" lon="5.18079">
        <ele>230.4</ele>
        <time>2022-02-24T13:13:28Z</time>
      </trkpt>
      <trkpt lat="45.90622" lon="5.18076">
        <ele>230.8</ele>
        <time>2022-02-24T13:13:29Z</time>
      </trkpt>
      <trkpt lat="45.90622" lon="5.18073">
        <ele>230.8</ele>
        <time>2022-02-24T13:13:30Z</time>
      </trkpt>
      <trkpt lat="45.90622" lon="5.18071">
        <ele>231.2</ele>
        <time>2022-02-24T13:13:31Z</time>
      </trkpt>
      <trkpt lat="45.90622" lon="5.18069">
        <ele>231.2</ele>
        <time>2022-02-24T13:13:32Z</time>
      </trkpt>
      <trkpt lat="45.90622" lon="5.18066">
        <ele>231.6</ele>
        <time>2022-02-24T13:13:33Z</time>
      </trkpt>
      <trkpt lat="45.90621" lon="5.18064">
        <ele>231.6</ele>
        <time>2022-02-24T13:13:34Z</time>
      </trkpt>
      <trkpt lat="45.90621" lon="5.18062">
        <ele>231.8</ele>
        <time>2022-02-24T13:13:35Z</time>
      </trkpt>
      <trkpt lat="45.90621" lon="5.18059">
        <ele>231.8</ele>
        <time>2022-02-24T13:13:36Z</time>
      </trkpt>
      <trkpt lat="45.9062" lon="5.18057">
        <ele>232.2</ele>
        <time>2022-02-24T13:13:37Z</time>
      </trkpt>
      <trkpt lat="45.9062" lon="5.18054">
        <ele>232.4</ele>
        <time>2022-02-24T13:13:38Z</time>
      </trkpt>
      <trkpt lat="45.90619" lon="5.18052">
        <ele>232.4</ele>
        <time>2022-02-24T13:13:39Z</time>
      </trkpt>
      <trkpt lat="45.90619" lon="5.18049">
        <ele>232.8</ele>
        <time>2022-02-24T13:13:40Z</time>
      </trkpt>
      <trkpt lat="45.90618" lon="5.18047">
        <ele>232.8</ele>
        <time>2022-02-24T13:13:41Z</time>
      </trkpt>
      <trkpt lat="45.90618" lon="5.18044">
        <ele>233.2</ele>
        <time>2022-02-24T13:13:42Z</time>
      </trkpt>
      <trkpt lat="45.90617" lon="5.18042">
        <ele>233.2</ele>
        <time>2022-02-24T13:13:43Z</time>
      </trkpt>
      <trkpt lat="45.90617" lon="5.18039">
        <ele>233.6</ele>
        <time>2022-02-24T13:13:44Z</time>
      </trkpt>
      <trkpt lat="45.90616" lon="5.18037">
        <ele>233.8</ele>
        <time>2022-02-24T13:13:45Z</time>
      </trkpt>
      <trkpt lat="45.90616" lon="5.18035">
        <ele>234.2</ele>
        <time>2022-02-24T13:13:46Z</time>
      </trkpt>
      <trkpt lat="45.90616" lon="5.18033">
        <ele>234.4</ele>
        <time>2022-02-24T13:13:47Z</time>
      </trkpt>
      <trkpt lat="45.90615" lon="5.18031">
        <ele>234.6</ele>
        <time>2022-02-24T13:13:48Z</time>
      </trkpt>
      <trkpt lat="45.90615" lon="5.18028">
        <ele>234.8</ele>
        <time>2022-02-24T13:13:49Z</time>
      </trkpt>
      <trkpt lat="45.90614" lon="5.18026">
        <ele>235.2</ele>
        <time>2022-02-24T13:13:50Z</time>
      </trkpt>
      <trkpt lat="45.90614" lon="5.18024">
        <ele>235.4</ele>
        <time>2022-02-24T13:13:51Z</time>
      </trkpt>
      <trkpt lat="45.90614" lon="5.18022">
        <ele>235.4</ele>
        <time>2022-02-24T13:13:52Z</time>
      </trkpt>
      <trkpt lat="45.90613" lon="5.18019">
        <ele>235.8</ele>
        <time>2022-02-24T13:13:53Z</time>
      </trkpt>
      <trkpt lat="45.90613" lon="5.18016">
        <ele>236</ele>
        <time>2022-02-24T13:13:54Z</time>
      </trkpt>
      <trkpt lat="45.90613" lon="5.18014">
        <ele>236.2</ele>
        <time>2022-02-24T13:13:55Z</time>
      </trkpt>
      <trkpt lat="45.90612" lon="5.18011">
        <ele>236.6</ele>
        <time>2022-02-24T13:13:56Z</time>
      </trkpt>
      <trkpt lat="45.90611" lon="5.18009">
        <ele>236.8</ele>
        <time>2022-02-24T13:13:57Z</time>
      </trkpt>
      <trkpt lat="45.9061" lon="5.18007">
        <ele>237</ele>
        <time>2022-02-24T13:13:58Z</time>
      </trkpt>
      <trkpt lat="45.9061" lon="5.18004">
        <ele>237</ele>
        <time>2022-02-24T13:13:59Z</time>
      </trkpt>
      <trkpt lat="45.9061" lon="5.18002">
        <ele>237.4</ele>
        <time>2022-02-24T13:14:00Z</time>
      </trkpt>
      <trkpt lat="45.90609" lon="5.17999">
        <ele>237.8</ele>
        <time>2022-02-24T13:14:01Z</time>
      </trkpt>
      <trkpt lat="45.90609" lon="5.17997">
        <ele>238</ele>
        <time>2022-02-24T13:14:02Z</time>
      </trkpt>
      <trkpt lat="45.90609" lon="5.17995">
        <ele>238.4</ele>
        <time>2022-02-24T13:14:03Z</time>
      </trkpt>
      <trkpt lat="45.90609" lon="5.17992">
        <ele>238.8</ele>
        <time>2022-02-24T13:14:04Z</time>
      </trkpt>
      <trkpt lat="45.90609" lon="5.1799">
        <ele>239</ele>
        <time>2022-02-24T13:14:05Z</time>
      </trkpt>
      <trkpt lat="45.90609" lon="5.17987">
        <ele>239.4</ele>
        <time>2022-02-24T13:14:06Z</time>
      </trkpt>
      <trkpt lat="45.90608" lon="5.17984">
        <ele>239.8</ele>
        <time>2022-02-24T13:14:07Z</time>
      </trkpt>
      <trkpt lat="45.90608" lon="5.17981">
        <ele>240.2</ele>
        <time>2022-02-24T13:14:08Z</time>
      </trkpt>
      <trkpt lat="45.90607" lon="5.17979">
        <ele>240.4</ele>
        <time>2022-02-24T13:14:09Z</time>
      </trkpt>
      <trkpt lat="45.90607" lon="5.17976">
        <ele>240.8</ele>
        <time>2022-02-24T13:14:10Z</time>
      </trkpt>
      <trkpt lat="45.90606" lon="5.17974">
        <ele>240.8</ele>
        <time>2022-02-24T13:14:11Z</time>
      </trkpt>
      <trkpt lat="45.90606" lon="5.17971">
        <ele>241.2</ele>
        <time>2022-02-24T13:14:12Z</time>
      </trkpt>
      <trkpt lat="45.90606" lon="5.17969">
        <ele>241.2</ele>
        <time>2022-02-24T13:14:13Z</time>
      </trkpt>
      <trkpt lat="45.90606" lon="5.17966">
        <ele>241.4</ele>
        <time>2022-02-24T13:14:14Z</time>
      </trkpt>
      <trkpt lat="45.90606" lon="5.17964">
        <ele>241.4</ele>
        <time>2022-02-24T13:14:15Z</time>
      </trkpt>
      <trkpt lat="45.90605" lon="5.17962">
        <ele>241.8</ele>
        <time>2022-02-24T13:14:16Z</time>
      </trkpt>
      <trkpt lat="45.90605" lon="5.1796">
        <ele>241.8</ele>
        <time>2022-02-24T13:14:17Z</time>
      </trkpt>
      <trkpt lat="45.90604" lon="5.17957">
        <ele>242.2</ele>
        <time>2022-02-24T13:14:18Z</time>
      </trkpt>
      <trkpt lat="45.90604" lon="5.17955">
        <ele>242.4</ele>
        <time>2022-02-24T13:14:19Z</time>
      </trkpt>
      <trkpt lat="45.90604" lon="5.17953">
        <ele>242.4</ele>
        <time>2022-02-24T13:14:20Z</time>
      </trkpt>
      <trkpt lat="45.90603" lon="5.1795">
        <ele>242.6</ele>
        <time>2022-02-24T13:14:21Z</time>
      </trkpt>
      <trkpt lat="45.90603" lon="5.17948">
        <ele>242.6</ele>
        <time>2022-02-24T13:14:22Z</time>
      </trkpt>
      <trkpt lat="45.90602" lon="5.17946">
        <ele>243</ele>
        <time>2022-02-24T13:14:23Z</time>
      </trkpt>
      <trkpt lat="45.90602" lon="5.17943">
        <ele>243</ele>
        <time>2022-02-24T13:14:24Z</time>
      </trkpt>
      <trkpt lat="45.90602" lon="5.17941">
        <ele>243.4</ele>
        <time>2022-02-24T13:14:25Z</time>
      </trkpt>
      <trkpt lat="45.90602" lon="5.17939">
        <ele>243.4</ele>
        <time>2022-02-24T13:14:26Z</time>
      </trkpt>
      <trkpt lat="45.90602" lon="5.17937">
        <ele>243.8</ele>
        <time>2022-02-24T13:14:27Z</time>
      </trkpt>
      <trkpt lat="45.90602" lon="5.17934">
        <ele>243.8</ele>
        <time>2022-02-24T13:14:28Z</time>
      </trkpt>
      <trkpt lat="45.90601" lon="5.17932">
        <ele>244</ele>
        <time>2022-02-24T13:14:29Z</time>
      </trkpt>
      <trkpt lat="45.90601" lon="5.1793">
        <ele>244</ele>
        <time>2022-02-24T13:14:30Z</time>
      </trkpt>
      <trkpt lat="45.90601" lon="5.17928">
        <ele>244.4</ele>
        <time>2022-02-24T13:14:31Z</time>
      </trkpt>
      <trkpt lat="45.906" lon="5.17925">
        <ele>244.4</ele>
        <time>2022-02-24T13:14:32Z</time>
      </trkpt>
      <trkpt lat="45.90599" lon="5.17923">
        <ele>244.6</ele>
        <time>2022-02-24T13:14:33Z</time>
      </trkpt>
      <trkpt lat="45.90599" lon="5.17921">
        <ele>244.6</ele>
        <time>2022-02-24T13:14:34Z</time>
      </trkpt>
      <trkpt lat="45.90599" lon="5.17919">
        <ele>245</ele>
        <time>2022-02-24T13:14:35Z</time>
      </trkpt>
      <trkpt lat="45.90598" lon="5.17917">
        <ele>245</ele>
        <time>2022-02-24T13:14:36Z</time>
      </trkpt>
      <trkpt lat="45.90598" lon="5.17915">
        <ele>245.2</ele>
        <time>2022-02-24T13:14:37Z</time>
      </trkpt>
      <trkpt lat="45.90598" lon="5.17913">
        <ele>245.2</ele>
        <time>2022-02-24T13:14:38Z</time>
      </trkpt>
      <trkpt lat="45.90597" lon="5.17911">
        <ele>245.6</ele>
        <time>2022-02-24T13:14:39Z</time>
      </trkpt>
      <trkpt lat="45.90597" lon="5.17909">
        <ele>245.6</ele>
        <time>2022-02-24T13:14:40Z</time>
      </trkpt>
      <trkpt lat="45.90597" lon="5.17906">
        <ele>246</ele>
        <time>2022-02-24T13:14:41Z</time>
      </trkpt>
      <trkpt lat="45.90596" lon="5.17904">
        <ele>246</ele>
        <time>2022-02-24T13:14:42Z</time>
      </trkpt>
      <trkpt lat="45.90595" lon="5.17902">
        <ele>246.4</ele>
        <time>2022-02-24T13:14:43Z</time>
      </trkpt>
      <trkpt lat="45.90595" lon="5.179">
        <ele>246.4</ele>
        <time>2022-02-24T13:14:44Z</time>
      </trkpt>
      <trkpt lat="45.90594" lon="5.17898">
        <ele>246.8</ele>
        <time>2022-02-24T13:14:45Z</time>
      </trkpt>
      <trkpt lat="45.90593" lon="5.17896">
        <ele>247</ele>
        <time>2022-02-24T13:14:46Z</time>
      </trkpt>
      <trkpt lat="45.90592" lon="5.17894">
        <ele>247.2</ele>
        <time>2022-02-24T13:14:47Z</time>
      </trkpt>
      <trkpt lat="45.90591" lon="5.17893">
        <ele>247.4</ele>
        <time>2022-02-24T13:14:48Z</time>
      </trkpt>
      <trkpt lat="45.9059" lon="5.17892">
        <ele>247.6</ele>
        <time>2022-02-24T13:14:49Z</time>
      </trkpt>
      <trkpt lat="45.90589" lon="5.1789">
        <ele>247.6</ele>
        <time>2022-02-24T13:14:50Z</time>
      </trkpt>
      <trkpt lat="45.90587" lon="5.17889">
        <ele>247.8</ele>
        <time>2022-02-24T13:14:51Z</time>
      </trkpt>
      <trkpt lat="45.90586" lon="5.17887">
        <ele>248</ele>
        <time>2022-02-24T13:14:52Z</time>
      </trkpt>
      <trkpt lat="45.90586" lon="5.17886">
        <ele>248.2</ele>
        <time>2022-02-24T13:14:53Z</time>
      </trkpt>
      <trkpt lat="45.90585" lon="5.17884">
        <ele>248.6</ele>
        <time>2022-02-24T13:14:54Z</time>
      </trkpt>
      <trkpt lat="45.90584" lon="5.17882">
        <ele>248.6</ele>
        <time>2022-02-24T13:14:55Z</time>
      </trkpt>
      <trkpt lat="45.90584" lon="5.1788">
        <ele>248.8</ele>
        <time>2022-02-24T13:14:56Z</time>
      </trkpt>
      <trkpt lat="45.90583" lon="5.17879">
        <ele>248.8</ele>
        <time>2022-02-24T13:14:57Z</time>
      </trkpt>
      <trkpt lat="45.90582" lon="5.17877">
        <ele>249.2</ele>
        <time>2022-02-24T13:14:58Z</time>
      </trkpt>
      <trkpt lat="45.90581" lon="5.17876">
        <ele>249.2</ele>
        <time>2022-02-24T13:14:59Z</time>
      </trkpt>
      <trkpt lat="45.9058" lon="5.17875">
        <ele>249.4</ele>
        <time>2022-02-24T13:15:00Z</time>
      </trkpt>
      <trkpt lat="45.9058" lon="5.17873">
        <ele>249.4</ele>
        <time>2022-02-24T13:15:01Z</time>
      </trkpt>
      <trkpt lat="45.90579" lon="5.17871">
        <ele>249.8</ele>
        <time>2022-02-24T13:15:02Z</time>
      </trkpt>
      <trkpt lat="45.90579" lon="5.17869">
        <ele>249.8</ele>
        <time>2022-02-24T13:15:03Z</time>
      </trkpt>
      <trkpt lat="45.90578" lon="5.17867">
        <ele>250.2</ele>
        <time>2022-02-24T13:15:04Z</time>
      </trkpt>
      <trkpt lat="45.90578" lon="5.17865">
        <ele>250.4</ele>
        <time>2022-02-24T13:15:05Z</time>
      </trkpt>
      <trkpt lat="45.90577" lon="5.17863">
        <ele>250.4</ele>
        <time>2022-02-24T13:15:06Z</time>
      </trkpt>
      <trkpt lat="45.90577" lon="5.17861">
        <ele>250.8</ele>
        <time>2022-02-24T13:15:07Z</time>
      </trkpt>
      <trkpt lat="45.90576" lon="5.17859">
        <ele>250.8</ele>
        <time>2022-02-24T13:15:08Z</time>
      </trkpt>
      <trkpt lat="45.90576" lon="5.17857">
        <ele>251.2</ele>
        <time>2022-02-24T13:15:09Z</time>
      </trkpt>
      <trkpt lat="45.90575" lon="5.17855">
        <ele>251.6</ele>
        <time>2022-02-24T13:15:10Z</time>
      </trkpt>
      <trkpt lat="45.90575" lon="5.17853">
        <ele>251.8</ele>
        <time>2022-02-24T13:15:11Z</time>
      </trkpt>
      <trkpt lat="45.90574" lon="5.17851">
        <ele>252</ele>
        <time>2022-02-24T13:15:12Z</time>
      </trkpt>
      <trkpt lat="45.90574" lon="5.17848">
        <ele>252.4</ele>
        <time>2022-02-24T13:15:13Z</time>
      </trkpt>
      <trkpt lat="45.90573" lon="5.17846">
        <ele>252.6</ele>
        <time>2022-02-24T13:15:14Z</time>
      </trkpt>
      <trkpt lat="45.90573" lon="5.17843">
        <ele>252.8</ele>
        <time>2022-02-24T13:15:15Z</time>
      </trkpt>
      <trkpt lat="45.90572" lon="5.1784">
        <ele>253.2</ele>
        <time>2022-02-24T13:15:16Z</time>
      </trkpt>
      <trkpt lat="45.90572" lon="5.17837">
        <ele>253.4</ele>
        <time>2022-02-24T13:15:17Z</time>
      </trkpt>
      <trkpt lat="45.90571" lon="5.17835">
        <ele>253.6</ele>
        <time>2022-02-24T13:15:18Z</time>
      </trkpt>
      <trkpt lat="45.90571" lon="5.17832">
        <ele>253.8</ele>
        <time>2022-02-24T13:15:19Z</time>
      </trkpt>
      <trkpt lat="45.9057" lon="5.1783">
        <ele>254.2</ele>
        <time>2022-02-24T13:15:20Z</time>
      </trkpt>
      <trkpt lat="45.9057" lon="5.17828">
        <ele>254.2</ele>
        <time>2022-02-24T13:15:21Z</time>
      </trkpt>
      <trkpt lat="45.9057" lon="5.17826">
        <ele>254.6</ele>
        <time>2022-02-24T13:15:22Z</time>
      </trkpt>
      <trkpt lat="45.90569" lon="5.17823">
        <ele>254.8</ele>
        <time>2022-02-24T13:15:23Z</time>
      </trkpt>
      <trkpt lat="45.90569" lon="5.17821">
        <ele>254.8</ele>
        <time>2022-02-24T13:15:24Z</time>
      </trkpt>
      <trkpt lat="45.90568" lon="5.17819">
        <ele>255</ele>
        <time>2022-02-24T13:15:25Z</time>
      </trkpt>
      <trkpt lat="45.90567" lon="5.17817">
        <ele>255.2</ele>
        <time>2022-02-24T13:15:26Z</time>
      </trkpt>
      <trkpt lat="45.90567" lon="5.17815">
        <ele>255.6</ele>
        <time>2022-02-24T13:15:27Z</time>
      </trkpt>
      <trkpt lat="45.90566" lon="5.17813">
        <ele>255.8</ele>
        <time>2022-02-24T13:15:28Z</time>
      </trkpt>
      <trkpt lat="45.90566" lon="5.17811">
        <ele>255.8</ele>
        <time>2022-02-24T13:15:29Z</time>
      </trkpt>
      <trkpt lat="45.90566" lon="5.17809">
        <ele>256</ele>
        <time>2022-02-24T13:15:30Z</time>
      </trkpt>
      <trkpt lat="45.90566" lon="5.17807">
        <ele>256</ele>
        <time>2022-02-24T13:15:31Z</time>
      </trkpt>
      <trkpt lat="45.90565" lon="5.17805">
        <ele>256.4</ele>
        <time>2022-02-24T13:15:32Z</time>
      </trkpt>
      <trkpt lat="45.90565" lon="5.17803">
        <ele>256.6</ele>
        <time>2022-02-24T13:15:33Z</time>
      </trkpt>
      <trkpt lat="45.90564" lon="5.17801">
        <ele>257</ele>
        <time>2022-02-24T13:15:34Z</time>
      </trkpt>
      <trkpt lat="45.90564" lon="5.17799">
        <ele>257.2</ele>
        <time>2022-02-24T13:15:35Z</time>
      </trkpt>
      <trkpt lat="45.90563" lon="5.17797">
        <ele>257.2</ele>
        <time>2022-02-24T13:15:36Z</time>
      </trkpt>
      <trkpt lat="45.90563" lon="5.17794">
        <ele>257.6</ele>
        <time>2022-02-24T13:15:37Z</time>
      </trkpt>
      <trkpt lat="45.90562" lon="5.17792">
        <ele>257.8</ele>
        <time>2022-02-24T13:15:38Z</time>
      </trkpt>
      <trkpt lat="45.90561" lon="5.1779">
        <ele>257.8</ele>
        <time>2022-02-24T13:15:39Z</time>
      </trkpt>
      <trkpt lat="45.90559" lon="5.17788">
        <ele>258</ele>
        <time>2022-02-24T13:15:40Z</time>
      </trkpt>
      <trkpt lat="45.90558" lon="5.17786">
        <ele>258.4</ele>
        <time>2022-02-24T13:15:41Z</time>
      </trkpt>
      <trkpt lat="45.90557" lon="5.17785">
        <ele>258.6</ele>
        <time>2022-02-24T13:15:42Z</time>
      </trkpt>
      <trkpt lat="45.90555" lon="5.17783">
        <ele>258.8</ele>
        <time>2022-02-24T13:15:43Z</time>
      </trkpt>
      <trkpt lat="45.90554" lon="5.17781">
        <ele>258.8</ele>
        <time>2022-02-24T13:15:44Z</time>
      </trkpt>
      <trkpt lat="45.90553" lon="5.17779">
        <ele>259.2</ele>
        <time>2022-02-24T13:15:45Z</time>
      </trkpt>
      <trkpt lat="45.90552" lon="5.17776">
        <ele>259.4</ele>
        <time>2022-02-24T13:15:46Z</time>
      </trkpt>
      <trkpt lat="45.90551" lon="5.17774">
        <ele>259.6</ele>
        <time>2022-02-24T13:15:47Z</time>
      </trkpt>
      <trkpt lat="45.90551" lon="5.17772">
        <ele>259.8</ele>
        <time>2022-02-24T13:15:48Z</time>
      </trkpt>
      <trkpt lat="45.9055" lon="5.17769">
        <ele>260</ele>
        <time>2022-02-24T13:15:49Z</time>
      </trkpt>
      <trkpt lat="45.90549" lon="5.17767">
        <ele>260</ele>
        <time>2022-02-24T13:15:50Z</time>
      </trkpt>
      <trkpt lat="45.90548" lon="5.17765">
        <ele>260.4</ele>
        <time>2022-02-24T13:15:51Z</time>
      </trkpt>
      <trkpt lat="45.90547" lon="5.17763">
        <ele>260.6</ele>
        <time>2022-02-24T13:15:52Z</time>
      </trkpt>
      <trkpt lat="45.90546" lon="5.17761">
        <ele>260.8</ele>
        <time>2022-02-24T13:15:53Z</time>
      </trkpt>
      <trkpt lat="45.90546" lon="5.17759">
        <ele>261</ele>
        <time>2022-02-24T13:15:54Z</time>
      </trkpt>
      <trkpt lat="45.90545" lon="5.17757">
        <ele>261</ele>
        <time>2022-02-24T13:15:55Z</time>
      </trkpt>
      <trkpt lat="45.90545" lon="5.17755">
        <ele>261.4</ele>
        <time>2022-02-24T13:15:56Z</time>
      </trkpt>
      <trkpt lat="45.90544" lon="5.17752">
        <ele>261.4</ele>
        <time>2022-02-24T13:15:57Z</time>
      </trkpt>
      <trkpt lat="45.90543" lon="5.1775">
        <ele>261.6</ele>
        <time>2022-02-24T13:15:58Z</time>
      </trkpt>
      <trkpt lat="45.90542" lon="5.17748">
        <ele>261.6</ele>
        <time>2022-02-24T13:15:59Z</time>
      </trkpt>
      <trkpt lat="45.90541" lon="5.17746">
        <ele>262</ele>
        <time>2022-02-24T13:16:00Z</time>
      </trkpt>
      <trkpt lat="45.9054" lon="5.17744">
        <ele>262.2</ele>
        <time>2022-02-24T13:16:01Z</time>
      </trkpt>
      <trkpt lat="45.90539" lon="5.17742">
        <ele>262.4</ele>
        <time>2022-02-24T13:16:02Z</time>
      </trkpt>
      <trkpt lat="45.90538" lon="5.1774">
        <ele>262.4</ele>
        <time>2022-02-24T13:16:03Z</time>
      </trkpt>
      <trkpt lat="45.90537" lon="5.17738">
        <ele>262.8</ele>
        <time>2022-02-24T13:16:04Z</time>
      </trkpt>
      <trkpt lat="45.90536" lon="5.17736">
        <ele>262.8</ele>
        <time>2022-02-24T13:16:05Z</time>
      </trkpt>
      <trkpt lat="45.90535" lon="5.17734">
        <ele>263</ele>
        <time>2022-02-24T13:16:06Z</time>
      </trkpt>
      <trkpt lat="45.90534" lon="5.17732">
        <ele>263</ele>
        <time>2022-02-24T13:16:07Z</time>
      </trkpt>
      <trkpt lat="45.90533" lon="5.1773">
        <ele>263.2</ele>
        <time>2022-02-24T13:16:08Z</time>
      </trkpt>
      <trkpt lat="45.90532" lon="5.17728">
        <ele>263.2</ele>
        <time>2022-02-24T13:16:09Z</time>
      </trkpt>
      <trkpt lat="45.90532" lon="5.17728">
        <ele>263.6</ele>
        <time>2022-02-24T13:16:10Z</time>
      </trkpt>
      <trkpt lat="45.90531" lon="5.17726">
        <ele>263.6</ele>
        <time>2022-02-24T13:16:11Z</time>
      </trkpt>
      <trkpt lat="45.90529" lon="5.17724">
        <ele>264</ele>
        <time>2022-02-24T13:16:12Z</time>
      </trkpt>
      <trkpt lat="45.90529" lon="5.17721">
        <ele>264.2</ele>
        <time>2022-02-24T13:16:13Z</time>
      </trkpt>
      <trkpt lat="45.90528" lon="5.17719">
        <ele>264.2</ele>
        <time>2022-02-24T13:16:14Z</time>
      </trkpt>
      <trkpt lat="45.90527" lon="5.17716">
        <ele>264.6</ele>
        <time>2022-02-24T13:16:15Z</time>
      </trkpt>
      <trkpt lat="45.90527" lon="5.17713">
        <ele>264.6</ele>
        <time>2022-02-24T13:16:16Z</time>
      </trkpt>
      <trkpt lat="45.90526" lon="5.17711">
        <ele>265</ele>
        <time>2022-02-24T13:16:17Z</time>
      </trkpt>
      <trkpt lat="45.90524" lon="5.17706">
        <ele>265</ele>
        <time>2022-02-24T13:16:18Z</time>
      </trkpt>
      <trkpt lat="45.90523" lon="5.17704">
        <ele>265.4</ele>
        <time>2022-02-24T13:16:19Z</time>
      </trkpt>
      <trkpt lat="45.90522" lon="5.17702">
        <ele>265.4</ele>
        <time>2022-02-24T13:16:20Z</time>
      </trkpt>
      <trkpt lat="45.90521" lon="5.177">
        <ele>265.6</ele>
        <time>2022-02-24T13:16:21Z</time>
      </trkpt>
      <trkpt lat="45.9052" lon="5.17698">
        <ele>265.6</ele>
        <time>2022-02-24T13:16:22Z</time>
      </trkpt>
      <trkpt lat="45.90519" lon="5.17696">
        <ele>266</ele>
        <time>2022-02-24T13:16:23Z</time>
      </trkpt>
      <trkpt lat="45.90519" lon="5.17693">
        <ele>266</ele>
        <time>2022-02-24T13:16:24Z</time>
      </trkpt>
      <trkpt lat="45.90518" lon="5.17691">
        <ele>266.4</ele>
        <time>2022-02-24T13:16:25Z</time>
      </trkpt>
      <trkpt lat="45.90517" lon="5.17688">
        <ele>266.4</ele>
        <time>2022-02-24T13:16:26Z</time>
      </trkpt>
      <trkpt lat="45.90516" lon="5.17686">
        <ele>266.6</ele>
        <time>2022-02-24T13:16:27Z</time>
      </trkpt>
      <trkpt lat="45.90516" lon="5.17684">
        <ele>266.8</ele>
        <time>2022-02-24T13:16:28Z</time>
      </trkpt>
      <trkpt lat="45.90515" lon="5.17682">
        <ele>267.2</ele>
        <time>2022-02-24T13:16:29Z</time>
      </trkpt>
      <trkpt lat="45.90514" lon="5.17679">
        <ele>267.2</ele>
        <time>2022-02-24T13:16:30Z</time>
      </trkpt>
      <trkpt lat="45.90514" lon="5.17677">
        <ele>267.4</ele>
        <time>2022-02-24T13:16:31Z</time>
      </trkpt>
      <trkpt lat="45.90512" lon="5.17675">
        <ele>267.8</ele>
        <time>2022-02-24T13:16:32Z</time>
      </trkpt>
      <trkpt lat="45.90511" lon="5.17673">
        <ele>267.8</ele>
        <time>2022-02-24T13:16:33Z</time>
      </trkpt>
      <trkpt lat="45.9051" lon="5.17672">
        <ele>268</ele>
        <time>2022-02-24T13:16:34Z</time>
      </trkpt>
      <trkpt lat="45.90509" lon="5.1767">
        <ele>268</ele>
        <time>2022-02-24T13:16:35Z</time>
      </trkpt>
      <trkpt lat="45.90508" lon="5.17668">
        <ele>268.4</ele>
        <time>2022-02-24T13:16:36Z</time>
      </trkpt>
      <trkpt lat="45.90507" lon="5.17666">
        <ele>268.4</ele>
        <time>2022-02-24T13:16:37Z</time>
      </trkpt>
      <trkpt lat="45.90505" lon="5.17665">
        <ele>268.8</ele>
        <time>2022-02-24T13:16:38Z</time>
      </trkpt>
      <trkpt lat="45.90503" lon="5.17665">
        <ele>268.8</ele>
        <time>2022-02-24T13:16:39Z</time>
      </trkpt>
      <trkpt lat="45.90501" lon="5.17665">
        <ele>269</ele>
        <time>2022-02-24T13:16:40Z</time>
      </trkpt>
      <trkpt lat="45.90498" lon="5.17665">
        <ele>269</ele>
        <time>2022-02-24T13:16:41Z</time>
      </trkpt>
      <trkpt lat="45.90496" lon="5.17666">
        <ele>269</ele>
        <time>2022-02-24T13:16:42Z</time>
      </trkpt>
      <trkpt lat="45.90493" lon="5.17667">
        <ele>269</ele>
        <time>2022-02-24T13:16:43Z</time>
      </trkpt>
      <trkpt lat="45.90492" lon="5.17669">
        <ele>269.2</ele>
        <time>2022-02-24T13:16:44Z</time>
      </trkpt>
      <trkpt lat="45.9049" lon="5.17671">
        <ele>269.2</ele>
        <time>2022-02-24T13:16:45Z</time>
      </trkpt>
      <trkpt lat="45.90489" lon="5.17672">
        <ele>269.2</ele>
        <time>2022-02-24T13:16:46Z</time>
      </trkpt>
      <trkpt lat="45.90487" lon="5.17674">
        <ele>269.4</ele>
        <time>2022-02-24T13:16:47Z</time>
      </trkpt>
      <trkpt lat="45.90484" lon="5.17675">
        <ele>269.4</ele>
        <time>2022-02-24T13:16:48Z</time>
      </trkpt>
      <trkpt lat="45.90482" lon="5.17677">
        <ele>269.4</ele>
        <time>2022-02-24T13:16:49Z</time>
      </trkpt>
      <trkpt lat="45.90479" lon="5.17679">
        <ele>269.4</ele>
        <time>2022-02-24T13:16:50Z</time>
      </trkpt>
      <trkpt lat="45.90477" lon="5.17681">
        <ele>269.4</ele>
        <time>2022-02-24T13:16:51Z</time>
      </trkpt>
      <trkpt lat="45.90474" lon="5.17683">
        <ele>269.4</ele>
        <time>2022-02-24T13:16:52Z</time>
      </trkpt>
      <trkpt lat="45.90471" lon="5.17685">
        <ele>269.4</ele>
        <time>2022-02-24T13:16:53Z</time>
      </trkpt>
      <trkpt lat="45.90468" lon="5.17687">
        <ele>269.4</ele>
        <time>2022-02-24T13:16:54Z</time>
      </trkpt>
      <trkpt lat="45.90465" lon="5.17689">
        <ele>269.4</ele>
        <time>2022-02-24T13:16:55Z</time>
      </trkpt>
      <trkpt lat="45.90462" lon="5.1769">
        <ele>269.4</ele>
        <time>2022-02-24T13:16:56Z</time>
      </trkpt>
      <trkpt lat="45.90459" lon="5.17691">
        <ele>269.4</ele>
        <time>2022-02-24T13:16:57Z</time>
      </trkpt>
      <trkpt lat="45.90456" lon="5.17693">
        <ele>269.4</ele>
        <time>2022-02-24T13:16:58Z</time>
      </trkpt>
      <trkpt lat="45.90452" lon="5.17695">
        <ele>269.6</ele>
        <time>2022-02-24T13:16:59Z</time>
      </trkpt>
      <trkpt lat="45.90449" lon="5.17697">
        <ele>269.6</ele>
        <time>2022-02-24T13:17:00Z</time>
      </trkpt>
      <trkpt lat="45.90445" lon="5.17698">
        <ele>269.6</ele>
        <time>2022-02-24T13:17:01Z</time>
      </trkpt>
      <trkpt lat="45.90441" lon="5.177">
        <ele>269.6</ele>
        <time>2022-02-24T13:17:02Z</time>
      </trkpt>
      <trkpt lat="45.90437" lon="5.17701">
        <ele>269.6</ele>
        <time>2022-02-24T13:17:03Z</time>
      </trkpt>
      <trkpt lat="45.90433" lon="5.17701">
        <ele>269.6</ele>
        <time>2022-02-24T13:17:04Z</time>
      </trkpt>
      <trkpt lat="45.9043" lon="5.17701">
        <ele>269.6</ele>
        <time>2022-02-24T13:17:05Z</time>
      </trkpt>
      <trkpt lat="45.90426" lon="5.17701">
        <ele>269.6</ele>
        <time>2022-02-24T13:17:06Z</time>
      </trkpt>
      <trkpt lat="45.90422" lon="5.17701">
        <ele>269.6</ele>
        <time>2022-02-24T13:17:07Z</time>
      </trkpt>
      <trkpt lat="45.90419" lon="5.17701">
        <ele>269.4</ele>
        <time>2022-02-24T13:17:08Z</time>
      </trkpt>
      <trkpt lat="45.90415" lon="5.177">
        <ele>269.4</ele>
        <time>2022-02-24T13:17:09Z</time>
      </trkpt>
      <trkpt lat="45.90411" lon="5.177">
        <ele>269.4</ele>
        <time>2022-02-24T13:17:10Z</time>
      </trkpt>
      <trkpt lat="45.90407" lon="5.177">
        <ele>269.4</ele>
        <time>2022-02-24T13:17:11Z</time>
      </trkpt>
      <trkpt lat="45.90403" lon="5.177">
        <ele>269.2</ele>
        <time>2022-02-24T13:17:12Z</time>
      </trkpt>
      <trkpt lat="45.904" lon="5.17701">
        <ele>269.2</ele>
        <time>2022-02-24T13:17:13Z</time>
      </trkpt>
      <trkpt lat="45.90397" lon="5.17703">
        <ele>269.2</ele>
        <time>2022-02-24T13:17:14Z</time>
      </trkpt>
      <trkpt lat="45.90394" lon="5.17706">
        <ele>268.8</ele>
        <time>2022-02-24T13:17:15Z</time>
      </trkpt>
      <trkpt lat="45.90392" lon="5.17709">
        <ele>268.8</ele>
        <time>2022-02-24T13:17:16Z</time>
      </trkpt>
      <trkpt lat="45.9039" lon="5.17713">
        <ele>268.6</ele>
        <time>2022-02-24T13:17:17Z</time>
      </trkpt>
      <trkpt lat="45.90388" lon="5.17717">
        <ele>268.6</ele>
        <time>2022-02-24T13:17:18Z</time>
      </trkpt>
      <trkpt lat="45.90386" lon="5.17721">
        <ele>268.2</ele>
        <time>2022-02-24T13:17:19Z</time>
      </trkpt>
      <trkpt lat="45.90385" lon="5.17726">
        <ele>268</ele>
        <time>2022-02-24T13:17:20Z</time>
      </trkpt>
      <trkpt lat="45.90383" lon="5.17731">
        <ele>268</ele>
        <time>2022-02-24T13:17:21Z</time>
      </trkpt>
      <trkpt lat="45.90382" lon="5.17736">
        <ele>268</ele>
        <time>2022-02-24T13:17:22Z</time>
      </trkpt>
      <trkpt lat="45.90381" lon="5.17742">
        <ele>268</ele>
        <time>2022-02-24T13:17:23Z</time>
      </trkpt>
      <trkpt lat="45.9038" lon="5.17748">
        <ele>268</ele>
        <time>2022-02-24T13:17:24Z</time>
      </trkpt>
      <trkpt lat="45.90379" lon="5.17753">
        <ele>268</ele>
        <time>2022-02-24T13:17:25Z</time>
      </trkpt>
      <trkpt lat="45.90379" lon="5.17758">
        <ele>268</ele>
        <time>2022-02-24T13:17:26Z</time>
      </trkpt>
      <trkpt lat="45.90379" lon="5.17763">
        <ele>268</ele>
        <time>2022-02-24T13:17:27Z</time>
      </trkpt>
      <trkpt lat="45.90379" lon="5.17767">
        <ele>268.2</ele>
        <time>2022-02-24T13:17:28Z</time>
      </trkpt>
      <trkpt lat="45.90378" lon="5.17772">
        <ele>268.4</ele>
        <time>2022-02-24T13:17:29Z</time>
      </trkpt>
      <trkpt lat="45.90377" lon="5.17777">
        <ele>268.8</ele>
        <time>2022-02-24T13:17:30Z</time>
      </trkpt>
      <trkpt lat="45.90376" lon="5.1778">
        <ele>269.2</ele>
        <time>2022-02-24T13:17:31Z</time>
      </trkpt>
      <trkpt lat="45.90375" lon="5.17784">
        <ele>269.4</ele>
        <time>2022-02-24T13:17:32Z</time>
      </trkpt>
      <trkpt lat="45.90373" lon="5.17787">
        <ele>269.8</ele>
        <time>2022-02-24T13:17:33Z</time>
      </trkpt>
      <trkpt lat="45.90371" lon="5.1779">
        <ele>269.8</ele>
        <time>2022-02-24T13:17:34Z</time>
      </trkpt>
      <trkpt lat="45.90369" lon="5.17793">
        <ele>270.2</ele>
        <time>2022-02-24T13:17:35Z</time>
      </trkpt>
      <trkpt lat="45.90367" lon="5.17795">
        <ele>270.4</ele>
        <time>2022-02-24T13:17:36Z</time>
      </trkpt>
      <trkpt lat="45.90365" lon="5.17797">
        <ele>270.8</ele>
        <time>2022-02-24T13:17:37Z</time>
      </trkpt>
      <trkpt lat="45.90363" lon="5.178">
        <ele>271</ele>
        <time>2022-02-24T13:17:38Z</time>
      </trkpt>
      <trkpt lat="45.90361" lon="5.17802">
        <ele>271.4</ele>
        <time>2022-02-24T13:17:39Z</time>
      </trkpt>
      <trkpt lat="45.9036" lon="5.17805">
        <ele>271.4</ele>
        <time>2022-02-24T13:17:40Z</time>
      </trkpt>
      <trkpt lat="45.90359" lon="5.17807">
        <ele>271.8</ele>
        <time>2022-02-24T13:17:41Z</time>
      </trkpt>
      <trkpt lat="45.90362" lon="5.17816">
        <ele>272.8</ele>
        <time>2022-02-24T13:17:45Z</time>
      </trkpt>
      <trkpt lat="45.90363" lon="5.17816">
        <ele>273</ele>
        <time>2022-02-24T13:17:46Z</time>
      </trkpt>
      <trkpt lat="45.90364" lon="5.17816">
        <ele>273</ele>
        <time>2022-02-24T13:17:47Z</time>
      </trkpt>
      <trkpt lat="45.9035" lon="5.17811">
        <ele>273.2</ele>
        <time>2022-02-24T13:18:09Z</time>
      </trkpt>
      <trkpt lat="45.9035" lon="5.17813">
        <ele>273.2</ele>
        <time>2022-02-24T13:18:10Z</time>
      </trkpt>
      <trkpt lat="45.9035" lon="5.17815">
        <ele>273.2</ele>
        <time>2022-02-24T13:18:11Z</time>
      </trkpt>
      <trkpt lat="45.9034" lon="5.17819">
        <ele>273.6</ele>
        <time>2022-02-24T13:18:24Z</time>
      </trkpt>
      <trkpt lat="45.9034" lon="5.17819">
        <ele>273.6</ele>
        <time>2022-02-24T13:18:25Z</time>
      </trkpt>
      <trkpt lat="45.9034" lon="5.17823">
        <ele>273.2</ele>
        <time>2022-02-24T13:19:13Z</time>
      </trkpt>
      <trkpt lat="45.90341" lon="5.17824">
        <ele>273.2</ele>
        <time>2022-02-24T13:19:14Z</time>
      </trkpt>
      <trkpt lat="45.90341" lon="5.17825">
        <ele>273.6</ele>
        <time>2022-02-24T13:19:15Z</time>
      </trkpt>
      <trkpt lat="45.90342" lon="5.17828">
        <ele>273.8</ele>
        <time>2022-02-24T13:19:18Z</time>
      </trkpt>
      <trkpt lat="45.90343" lon="5.17828">
        <ele>273.8</ele>
        <time>2022-02-24T13:19:19Z</time>
      </trkpt>
      <trkpt lat="45.90343" lon="5.1783">
        <ele>273.8</ele>
        <time>2022-02-24T13:19:20Z</time>
      </trkpt>
      <trkpt lat="45.90344" lon="5.17834">
        <ele>273.8</ele>
        <time>2022-02-24T13:19:23Z</time>
      </trkpt>
      <trkpt lat="45.90344" lon="5.17835">
        <ele>274</ele>
        <time>2022-02-24T13:19:24Z</time>
      </trkpt>
      <trkpt lat="45.90345" lon="5.17859">
        <ele>277.6</ele>
        <time>2022-02-24T13:20:12Z</time>
      </trkpt>
      <trkpt lat="45.90344" lon="5.1786">
        <ele>277.6</ele>
        <time>2022-02-24T13:20:13Z</time>
      </trkpt>
      <trkpt lat="45.90344" lon="5.17861">
        <ele>277.6</ele>
        <time>2022-02-24T13:20:14Z</time>
      </trkpt>
      <trkpt lat="45.90349" lon="5.17873">
        <ele>278.4</ele>
        <time>2022-02-24T13:20:33Z</time>
      </trkpt>
      <trkpt lat="45.90348" lon="5.17874">
        <ele>278.4</ele>
        <time>2022-02-24T13:20:34Z</time>
      </trkpt>
      <trkpt lat="45.90348" lon="5.17875">
        <ele>278.4</ele>
        <time>2022-02-24T13:20:35Z</time>
      </trkpt>
      <trkpt lat="45.90357" lon="5.17881">
        <ele>278.6</ele>
        <time>2022-02-24T13:22:06Z</time>
      </trkpt>
      <trkpt lat="45.90358" lon="5.17881">
        <ele>278.6</ele>
        <time>2022-02-24T13:22:07Z</time>
      </trkpt>
      <trkpt lat="45.90359" lon="5.17882">
        <ele>278.4</ele>
        <time>2022-02-24T13:22:08Z</time>
      </trkpt>
      <trkpt lat="45.9036" lon="5.17882">
        <ele>278.4</ele>
        <time>2022-02-24T13:22:09Z</time>
      </trkpt>
      <trkpt lat="45.90361" lon="5.17883">
        <ele>278.4</ele>
        <time>2022-02-24T13:22:10Z</time>
      </trkpt>
      <trkpt lat="45.90361" lon="5.17883">
        <ele>278.4</ele>
        <time>2022-02-24T13:22:11Z</time>
      </trkpt>
      <trkpt lat="45.9037" lon="5.17893">
        <ele>278.4</ele>
        <time>2022-02-24T13:22:24Z</time>
      </trkpt>
      <trkpt lat="45.90371" lon="5.17894">
        <ele>278.4</ele>
        <time>2022-02-24T13:22:25Z</time>
      </trkpt>
      <trkpt lat="45.90371" lon="5.17895">
        <ele>278.4</ele>
        <time>2022-02-24T13:22:26Z</time>
      </trkpt>
      <trkpt lat="45.90372" lon="5.17896">
        <ele>278.4</ele>
        <time>2022-02-24T13:22:27Z</time>
      </trkpt>
      <trkpt lat="45.90379" lon="5.17918">
        <ele>278.8</ele>
        <time>2022-02-24T13:23:02Z</time>
      </trkpt>
      <trkpt lat="45.90379" lon="5.17919">
        <ele>278.8</ele>
        <time>2022-02-24T13:23:03Z</time>
      </trkpt>
      <trkpt lat="45.9038" lon="5.17921">
        <ele>278.8</ele>
        <time>2022-02-24T13:23:04Z</time>
      </trkpt>
      <trkpt lat="45.90381" lon="5.17923">
        <ele>278.8</ele>
        <time>2022-02-24T13:23:05Z</time>
      </trkpt>
      <trkpt lat="45.90382" lon="5.17924">
        <ele>278.8</ele>
        <time>2022-02-24T13:23:06Z</time>
      </trkpt>
      <trkpt lat="45.90383" lon="5.17925">
        <ele>278.8</ele>
        <time>2022-02-24T13:23:07Z</time>
      </trkpt>
      <trkpt lat="45.90384" lon="5.17926">
        <ele>278.8</ele>
        <time>2022-02-24T13:23:08Z</time>
      </trkpt>
      <trkpt lat="45.90385" lon="5.17927">
        <ele>278.8</ele>
        <time>2022-02-24T13:23:09Z</time>
      </trkpt>
      <trkpt lat="45.90385" lon="5.17929">
        <ele>278.8</ele>
        <time>2022-02-24T13:23:10Z</time>
      </trkpt>
      <trkpt lat="45.90385" lon="5.17929">
        <ele>278.4</ele>
        <time>2022-02-24T13:23:11Z</time>
      </trkpt>
      <trkpt lat="45.90385" lon="5.1793">
        <ele>278.4</ele>
        <time>2022-02-24T13:23:12Z</time>
      </trkpt>
      <trkpt lat="45.90368" lon="5.17943">
        <ele>278.6</ele>
        <time>2022-02-24T13:23:45Z</time>
      </trkpt>
      <trkpt lat="45.90368" lon="5.17944">
        <ele>278.6</ele>
        <time>2022-02-24T13:23:46Z</time>
      </trkpt>
      <trkpt lat="45.90367" lon="5.17944">
        <ele>278.6</ele>
        <time>2022-02-24T13:23:47Z</time>
      </trkpt>
      <trkpt lat="45.90361" lon="5.17954">
        <ele>278</ele>
        <time>2022-02-24T13:24:04Z</time>
      </trkpt>
      <trkpt lat="45.9036" lon="5.17955">
        <ele>278</ele>
        <time>2022-02-24T13:24:05Z</time>
      </trkpt>
      <trkpt lat="45.90361" lon="5.17955">
        <ele>278</ele>
        <time>2022-02-24T13:24:06Z</time>
      </trkpt>
      <trkpt lat="45.90362" lon="5.17948">
        <ele>279.8</ele>
        <time>2022-02-24T13:48:24Z</time>
      </trkpt>
      <trkpt lat="45.90363" lon="5.17948">
        <ele>279.8</ele>
        <time>2022-02-24T13:48:25Z</time>
      </trkpt>
      <trkpt lat="45.90364" lon="5.17949">
        <ele>279.8</ele>
        <time>2022-02-24T13:48:26Z</time>
      </trkpt>
      <trkpt lat="45.90367" lon="5.1795">
        <ele>279.8</ele>
        <time>2022-02-24T13:48:29Z</time>
      </trkpt>
      <trkpt lat="45.90368" lon="5.17951">
        <ele>279.8</ele>
        <time>2022-02-24T13:48:30Z</time>
      </trkpt>
      <trkpt lat="45.90368" lon="5.17951">
        <ele>279.8</ele>
        <time>2022-02-24T13:48:31Z</time>
      </trkpt>
      <trkpt lat="45.90369" lon="5.1795">
        <ele>279.8</ele>
        <time>2022-02-24T13:48:32Z</time>
      </trkpt>
      <trkpt lat="45.9037" lon="5.1795">
        <ele>279.6</ele>
        <time>2022-02-24T13:48:33Z</time>
      </trkpt>
      <trkpt lat="45.90376" lon="5.17961">
        <ele>278.6</ele>
        <time>2022-02-24T13:48:49Z</time>
      </trkpt>
      <trkpt lat="45.90375" lon="5.17962">
        <ele>278.2</ele>
        <time>2022-02-24T13:48:50Z</time>
      </trkpt>
      <trkpt lat="45.90375" lon="5.17963">
        <ele>278.2</ele>
        <time>2022-02-24T13:48:51Z</time>
      </trkpt>
      <trkpt lat="45.90369" lon="5.17977">
        <ele>276.8</ele>
        <time>2022-02-24T13:49:04Z</time>
      </trkpt>
      <trkpt lat="45.90369" lon="5.17978">
        <ele>276.8</ele>
        <time>2022-02-24T13:49:05Z</time>
      </trkpt>
      <trkpt lat="45.90368" lon="5.17979">
        <ele>276.4</ele>
        <time>2022-02-24T13:49:06Z</time>
      </trkpt>
      <trkpt lat="45.90363" lon="5.17995">
        <ele>274.8</ele>
        <time>2022-02-24T13:49:22Z</time>
      </trkpt>
      <trkpt lat="45.90362" lon="5.17996">
        <ele>274.8</ele>
        <time>2022-02-24T13:49:23Z</time>
      </trkpt>
      <trkpt lat="45.90362" lon="5.17997">
        <ele>274.4</ele>
        <time>2022-02-24T13:49:24Z</time>
      </trkpt>
      <trkpt lat="45.90357" lon="5.18008">
        <ele>273</ele>
        <time>2022-02-24T13:49:36Z</time>
      </trkpt>
      <trkpt lat="45.90357" lon="5.18008">
        <ele>273</ele>
        <time>2022-02-24T13:49:37Z</time>
      </trkpt>
      <trkpt lat="45.90352" lon="5.18017">
        <ele>272.4</ele>
        <time>2022-02-24T13:49:45Z</time>
      </trkpt>
      <trkpt lat="45.90352" lon="5.18017">
        <ele>272.4</ele>
        <time>2022-02-24T13:49:46Z</time>
      </trkpt>
      <trkpt lat="45.90351" lon="5.18018">
        <ele>272.4</ele>
        <time>2022-02-24T13:49:47Z</time>
      </trkpt>
      <trkpt lat="45.9035" lon="5.18018">
        <ele>272.4</ele>
        <time>2022-02-24T13:49:48Z</time>
      </trkpt>
      <trkpt lat="45.90349" lon="5.18018">
        <ele>272.2</ele>
        <time>2022-02-24T13:49:49Z</time>
      </trkpt>
      <trkpt lat="45.90348" lon="5.18019">
        <ele>272.2</ele>
        <time>2022-02-24T13:49:50Z</time>
      </trkpt>
      <trkpt lat="45.90348" lon="5.18021">
        <ele>272.2</ele>
        <time>2022-02-24T13:49:51Z</time>
      </trkpt>
      <trkpt lat="45.90347" lon="5.18023">
        <ele>272</ele>
        <time>2022-02-24T13:49:52Z</time>
      </trkpt>
      <trkpt lat="45.90346" lon="5.18024">
        <ele>272</ele>
        <time>2022-02-24T13:49:53Z</time>
      </trkpt>
      <trkpt lat="45.90345" lon="5.18025">
        <ele>272</ele>
        <time>2022-02-24T13:49:54Z</time>
      </trkpt>
      <trkpt lat="45.90345" lon="5.18026">
        <ele>272</ele>
        <time>2022-02-24T13:49:55Z</time>
      </trkpt>
      <trkpt lat="45.90344" lon="5.18027">
        <ele>272</ele>
        <time>2022-02-24T13:49:56Z</time>
      </trkpt>
      <trkpt lat="45.90343" lon="5.18028">
        <ele>272</ele>
        <time>2022-02-24T13:49:57Z</time>
      </trkpt>
      <trkpt lat="45.90342" lon="5.18028">
        <ele>272</ele>
        <time>2022-02-24T13:49:58Z</time>
      </trkpt>
      <trkpt lat="45.90341" lon="5.18029">
        <ele>272</ele>
        <time>2022-02-24T13:49:59Z</time>
      </trkpt>
      <trkpt lat="45.90341" lon="5.18029">
        <ele>271.8</ele>
        <time>2022-02-24T13:50:00Z</time>
      </trkpt>
      <trkpt lat="45.9034" lon="5.18029">
        <ele>271.8</ele>
        <time>2022-02-24T13:50:01Z</time>
      </trkpt>
      <trkpt lat="45.90338" lon="5.18029">
        <ele>271.8</ele>
        <time>2022-02-24T13:50:02Z</time>
      </trkpt>
      <trkpt lat="45.90337" lon="5.18029">
        <ele>271.8</ele>
        <time>2022-02-24T13:50:03Z</time>
      </trkpt>
      <trkpt lat="45.90336" lon="5.18029">
        <ele>271.8</ele>
        <time>2022-02-24T13:50:04Z</time>
      </trkpt>
      <trkpt lat="45.90335" lon="5.18029">
        <ele>271.6</ele>
        <time>2022-02-24T13:50:05Z</time>
      </trkpt>
      <trkpt lat="45.90335" lon="5.18029">
        <ele>271.6</ele>
        <time>2022-02-24T13:50:06Z</time>
      </trkpt>
      <trkpt lat="45.90328" lon="5.1804">
        <ele>270.8</ele>
        <time>2022-02-24T13:50:19Z</time>
      </trkpt>
      <trkpt lat="45.90327" lon="5.18042">
        <ele>270.8</ele>
        <time>2022-02-24T13:50:20Z</time>
      </trkpt>
      <trkpt lat="45.90326" lon="5.18042">
        <ele>270.8</ele>
        <time>2022-02-24T13:50:21Z</time>
      </trkpt>
      <trkpt lat="45.90325" lon="5.18043">
        <ele>270.8</ele>
        <time>2022-02-24T13:50:22Z</time>
      </trkpt>
      <trkpt lat="45.90323" lon="5.18044">
        <ele>270.8</ele>
        <time>2022-02-24T13:50:23Z</time>
      </trkpt>
      <trkpt lat="45.90321" lon="5.18044">
        <ele>270.8</ele>
        <time>2022-02-24T13:50:24Z</time>
      </trkpt>
      <trkpt lat="45.9032" lon="5.18044">
        <ele>270.8</ele>
        <time>2022-02-24T13:50:25Z</time>
      </trkpt>
      <trkpt lat="45.90319" lon="5.18044">
        <ele>270.8</ele>
        <time>2022-02-24T13:50:26Z</time>
      </trkpt>
      <trkpt lat="45.90318" lon="5.18044">
        <ele>270.8</ele>
        <time>2022-02-24T13:50:27Z</time>
      </trkpt>
      <trkpt lat="45.90317" lon="5.18045">
        <ele>270.8</ele>
        <time>2022-02-24T13:50:28Z</time>
      </trkpt>
      <trkpt lat="45.90316" lon="5.18046">
        <ele>270.8</ele>
        <time>2022-02-24T13:50:29Z</time>
      </trkpt>
      <trkpt lat="45.90315" lon="5.18046">
        <ele>270.8</ele>
        <time>2022-02-24T13:50:30Z</time>
      </trkpt>
      <trkpt lat="45.90314" lon="5.18047">
        <ele>270.6</ele>
        <time>2022-02-24T13:50:31Z</time>
      </trkpt>
      <trkpt lat="45.90313" lon="5.18048">
        <ele>270.6</ele>
        <time>2022-02-24T13:50:32Z</time>
      </trkpt>
      <trkpt lat="45.90312" lon="5.18048">
        <ele>270.6</ele>
        <time>2022-02-24T13:50:33Z</time>
      </trkpt>
      <trkpt lat="45.90312" lon="5.18049">
        <ele>270.2</ele>
        <time>2022-02-24T13:50:34Z</time>
      </trkpt>
      <trkpt lat="45.90311" lon="5.18049">
        <ele>270.2</ele>
        <time>2022-02-24T13:50:35Z</time>
      </trkpt>
      <trkpt lat="45.9031" lon="5.1805">
        <ele>270</ele>
        <time>2022-02-24T13:50:36Z</time>
      </trkpt>
      <trkpt lat="45.90309" lon="5.1805">
        <ele>270</ele>
        <time>2022-02-24T13:50:37Z</time>
      </trkpt>
      <trkpt lat="45.90309" lon="5.1805">
        <ele>270</ele>
        <time>2022-02-24T13:50:38Z</time>
      </trkpt>
      <trkpt lat="45.90308" lon="5.18051">
        <ele>269.8</ele>
        <time>2022-02-24T13:50:39Z</time>
      </trkpt>
      <trkpt lat="45.90307" lon="5.18052">
        <ele>269.8</ele>
        <time>2022-02-24T13:50:40Z</time>
      </trkpt>
      <trkpt lat="45.90305" lon="5.18067">
        <ele>268.6</ele>
        <time>2022-02-24T13:51:26Z</time>
      </trkpt>
      <trkpt lat="45.90305" lon="5.18068">
        <ele>268.4</ele>
        <time>2022-02-24T13:51:27Z</time>
      </trkpt>
      <trkpt lat="45.90305" lon="5.18069">
        <ele>268.4</ele>
        <time>2022-02-24T13:51:28Z</time>
      </trkpt>
      <trkpt lat="45.90302" lon="5.18083">
        <ele>266.2</ele>
        <time>2022-02-24T13:51:47Z</time>
      </trkpt>
      <trkpt lat="45.90303" lon="5.18084">
        <ele>266.2</ele>
        <time>2022-02-24T13:51:48Z</time>
      </trkpt>
      <trkpt lat="45.90303" lon="5.18084">
        <ele>266.2</ele>
        <time>2022-02-24T13:51:49Z</time>
      </trkpt>
      <trkpt lat="45.90296" lon="5.1809">
        <ele>264.6</ele>
        <time>2022-02-24T13:52:07Z</time>
      </trkpt>
      <trkpt lat="45.90295" lon="5.1809">
        <ele>264.6</ele>
        <time>2022-02-24T13:52:08Z</time>
      </trkpt>
      <trkpt lat="45.90294" lon="5.1809">
        <ele>264.6</ele>
        <time>2022-02-24T13:52:09Z</time>
      </trkpt>
      <trkpt lat="45.90293" lon="5.18089">
        <ele>264.6</ele>
        <time>2022-02-24T13:52:10Z</time>
      </trkpt>
      <trkpt lat="45.90292" lon="5.18089">
        <ele>264.6</ele>
        <time>2022-02-24T13:52:11Z</time>
      </trkpt>
      <trkpt lat="45.90291" lon="5.18089">
        <ele>264.6</ele>
        <time>2022-02-24T13:52:12Z</time>
      </trkpt>
      <trkpt lat="45.9029" lon="5.18088">
        <ele>264.6</ele>
        <time>2022-02-24T13:52:13Z</time>
      </trkpt>
      <trkpt lat="45.90289" lon="5.18088">
        <ele>264.6</ele>
        <time>2022-02-24T13:52:14Z</time>
      </trkpt>
      <trkpt lat="45.90288" lon="5.18088">
        <ele>264.6</ele>
        <time>2022-02-24T13:52:15Z</time>
      </trkpt>
      <trkpt lat="45.90287" lon="5.18087">
        <ele>264.6</ele>
        <time>2022-02-24T13:52:16Z</time>
      </trkpt>
      <trkpt lat="45.90286" lon="5.18087">
        <ele>264.6</ele>
        <time>2022-02-24T13:52:17Z</time>
      </trkpt>
      <trkpt lat="45.90285" lon="5.18087">
        <ele>264.6</ele>
        <time>2022-02-24T13:52:18Z</time>
      </trkpt>
      <trkpt lat="45.90284" lon="5.18086">
        <ele>264.6</ele>
        <time>2022-02-24T13:52:19Z</time>
      </trkpt>
      <trkpt lat="45.90283" lon="5.18086">
        <ele>264.6</ele>
        <time>2022-02-24T13:52:20Z</time>
      </trkpt>
      <trkpt lat="45.90282" lon="5.18086">
        <ele>264.2</ele>
        <time>2022-02-24T13:52:21Z</time>
      </trkpt>
      <trkpt lat="45.90281" lon="5.18085">
        <ele>264.2</ele>
        <time>2022-02-24T13:52:22Z</time>
      </trkpt>
      <trkpt lat="45.9028" lon="5.18084">
        <ele>264.2</ele>
        <time>2022-02-24T13:52:23Z</time>
      </trkpt>
      <trkpt lat="45.90279" lon="5.18084">
        <ele>264.2</ele>
        <time>2022-02-24T13:52:24Z</time>
      </trkpt>
      <trkpt lat="45.90278" lon="5.18083">
        <ele>264</ele>
        <time>2022-02-24T13:52:25Z</time>
      </trkpt>
      <trkpt lat="45.90277" lon="5.18083">
        <ele>264</ele>
        <time>2022-02-24T13:52:26Z</time>
      </trkpt>
      <trkpt lat="45.90276" lon="5.18082">
        <ele>264</ele>
        <time>2022-02-24T13:52:27Z</time>
      </trkpt>
      <trkpt lat="45.90275" lon="5.18081">
        <ele>264</ele>
        <time>2022-02-24T13:52:28Z</time>
      </trkpt>
      <trkpt lat="45.90274" lon="5.18081">
        <ele>264</ele>
        <time>2022-02-24T13:52:29Z</time>
      </trkpt>
      <trkpt lat="45.90273" lon="5.1808">
        <ele>264</ele>
        <time>2022-02-24T13:52:30Z</time>
      </trkpt>
      <trkpt lat="45.90272" lon="5.1808">
        <ele>264</ele>
        <time>2022-02-24T13:52:31Z</time>
      </trkpt>
      <trkpt lat="45.90271" lon="5.18079">
        <ele>264</ele>
        <time>2022-02-24T13:52:32Z</time>
      </trkpt>
      <trkpt lat="45.9027" lon="5.18078">
        <ele>263.8</ele>
        <time>2022-02-24T13:52:33Z</time>
      </trkpt>
      <trkpt lat="45.90269" lon="5.18078">
        <ele>263.8</ele>
        <time>2022-02-24T13:52:34Z</time>
      </trkpt>
      <trkpt lat="45.90268" lon="5.18077">
        <ele>263.8</ele>
        <time>2022-02-24T13:52:35Z</time>
      </trkpt>
      <trkpt lat="45.90267" lon="5.18076">
        <ele>263.8</ele>
        <time>2022-02-24T13:52:36Z</time>
      </trkpt>
      <trkpt lat="45.90266" lon="5.18076">
        <ele>263.8</ele>
        <time>2022-02-24T13:52:37Z</time>
      </trkpt>
      <trkpt lat="45.90257" lon="5.18066">
        <ele>264</ele>
        <time>2022-02-24T13:55:45Z</time>
      </trkpt>
      <trkpt lat="45.90256" lon="5.18064">
        <ele>264</ele>
        <time>2022-02-24T13:55:46Z</time>
      </trkpt>
      <trkpt lat="45.90255" lon="5.18062">
        <ele>264</ele>
        <time>2022-02-24T13:55:47Z</time>
      </trkpt>
      <trkpt lat="45.90254" lon="5.18059">
        <ele>263.8</ele>
        <time>2022-02-24T13:55:48Z</time>
      </trkpt>
      <trkpt lat="45.90254" lon="5.18056">
        <ele>263.8</ele>
        <time>2022-02-24T13:55:49Z</time>
      </trkpt>
      <trkpt lat="45.90253" lon="5.18052">
        <ele>263.6</ele>
        <time>2022-02-24T13:55:50Z</time>
      </trkpt>
      <trkpt lat="45.90251" lon="5.18048">
        <ele>263.6</ele>
        <time>2022-02-24T13:55:51Z</time>
      </trkpt>
      <trkpt lat="45.9025" lon="5.18045">
        <ele>263.2</ele>
        <time>2022-02-24T13:55:52Z</time>
      </trkpt>
      <trkpt lat="45.90249" lon="5.18041">
        <ele>263.2</ele>
        <time>2022-02-24T13:55:53Z</time>
      </trkpt>
      <trkpt lat="45.90248" lon="5.18037">
        <ele>262.8</ele>
        <time>2022-02-24T13:55:54Z</time>
      </trkpt>
      <trkpt lat="45.90248" lon="5.18032">
        <ele>262.8</ele>
        <time>2022-02-24T13:55:55Z</time>
      </trkpt>
      <trkpt lat="45.90248" lon="5.18028">
        <ele>262.8</ele>
        <time>2022-02-24T13:55:56Z</time>
      </trkpt>
      <trkpt lat="45.90248" lon="5.18023">
        <ele>262.8</ele>
        <time>2022-02-24T13:55:57Z</time>
      </trkpt>
      <trkpt lat="45.90248" lon="5.18019">
        <ele>262.6</ele>
        <time>2022-02-24T13:55:58Z</time>
      </trkpt>
      <trkpt lat="45.90248" lon="5.18015">
        <ele>262.6</ele>
        <time>2022-02-24T13:55:59Z</time>
      </trkpt>
      <trkpt lat="45.90248" lon="5.1801">
        <ele>262.6</ele>
        <time>2022-02-24T13:56:00Z</time>
      </trkpt>
      <trkpt lat="45.90248" lon="5.18006">
        <ele>262.6</ele>
        <time>2022-02-24T13:56:01Z</time>
      </trkpt>
      <trkpt lat="45.90249" lon="5.18001">
        <ele>262.6</ele>
        <time>2022-02-24T13:56:02Z</time>
      </trkpt>
      <trkpt lat="45.90249" lon="5.17996">
        <ele>262.4</ele>
        <time>2022-02-24T13:56:03Z</time>
      </trkpt>
      <trkpt lat="45.9025" lon="5.17992">
        <ele>262.4</ele>
        <time>2022-02-24T13:56:04Z</time>
      </trkpt>
      <trkpt lat="45.9025" lon="5.17988">
        <ele>262.4</ele>
        <time>2022-02-24T13:56:05Z</time>
      </trkpt>
      <trkpt lat="45.90251" lon="5.17983">
        <ele>262.4</ele>
        <time>2022-02-24T13:56:06Z</time>
      </trkpt>
      <trkpt lat="45.90251" lon="5.1798">
        <ele>262.4</ele>
        <time>2022-02-24T13:56:07Z</time>
      </trkpt>
      <trkpt lat="45.90251" lon="5.17976">
        <ele>262.4</ele>
        <time>2022-02-24T13:56:08Z</time>
      </trkpt>
      <trkpt lat="45.90251" lon="5.17971">
        <ele>262.2</ele>
        <time>2022-02-24T13:56:09Z</time>
      </trkpt>
      <trkpt lat="45.90252" lon="5.17967">
        <ele>262.2</ele>
        <time>2022-02-24T13:56:10Z</time>
      </trkpt>
      <trkpt lat="45.90253" lon="5.17963">
        <ele>262.2</ele>
        <time>2022-02-24T13:56:11Z</time>
      </trkpt>
      <trkpt lat="45.90254" lon="5.17959">
        <ele>262.2</ele>
        <time>2022-02-24T13:56:12Z</time>
      </trkpt>
      <trkpt lat="45.90255" lon="5.17954">
        <ele>262.4</ele>
        <time>2022-02-24T13:56:13Z</time>
      </trkpt>
      <trkpt lat="45.90257" lon="5.17949">
        <ele>262.4</ele>
        <time>2022-02-24T13:56:14Z</time>
      </trkpt>
      <trkpt lat="45.90259" lon="5.17944">
        <ele>262.4</ele>
        <time>2022-02-24T13:56:15Z</time>
      </trkpt>
      <trkpt lat="45.90261" lon="5.17938">
        <ele>262.4</ele>
        <time>2022-02-24T13:56:16Z</time>
      </trkpt>
      <trkpt lat="45.90263" lon="5.17932">
        <ele>262.4</ele>
        <time>2022-02-24T13:56:17Z</time>
      </trkpt>
      <trkpt lat="45.90264" lon="5.17925">
        <ele>262.4</ele>
        <time>2022-02-24T13:56:18Z</time>
      </trkpt>
      <trkpt lat="45.90265" lon="5.17918">
        <ele>262.4</ele>
        <time>2022-02-24T13:56:19Z</time>
      </trkpt>
      <trkpt lat="45.90267" lon="5.17912">
        <ele>262.6</ele>
        <time>2022-02-24T13:56:20Z</time>
      </trkpt>
      <trkpt lat="45.90269" lon="5.17907">
        <ele>262.6</ele>
        <time>2022-02-24T13:56:21Z</time>
      </trkpt>
      <trkpt lat="45.9027" lon="5.17901">
        <ele>262.6</ele>
        <time>2022-02-24T13:56:22Z</time>
      </trkpt>
      <trkpt lat="45.90271" lon="5.17896">
        <ele>262.8</ele>
        <time>2022-02-24T13:56:23Z</time>
      </trkpt>
      <trkpt lat="45.90272" lon="5.17892">
        <ele>262.8</ele>
        <time>2022-02-24T13:56:24Z</time>
      </trkpt>
      <trkpt lat="45.90273" lon="5.17888">
        <ele>262.8</ele>
        <time>2022-02-24T13:56:25Z</time>
      </trkpt>
      <trkpt lat="45.90273" lon="5.17884">
        <ele>263.2</ele>
        <time>2022-02-24T13:56:26Z</time>
      </trkpt>
      <trkpt lat="45.90274" lon="5.17881">
        <ele>263.2</ele>
        <time>2022-02-24T13:56:27Z</time>
      </trkpt>
      <trkpt lat="45.90276" lon="5.17878">
        <ele>263.2</ele>
        <time>2022-02-24T13:56:28Z</time>
      </trkpt>
      <trkpt lat="45.90277" lon="5.17874">
        <ele>263.2</ele>
        <time>2022-02-24T13:56:29Z</time>
      </trkpt>
      <trkpt lat="45.90278" lon="5.17872">
        <ele>263.2</ele>
        <time>2022-02-24T13:56:30Z</time>
      </trkpt>
      <trkpt lat="45.90279" lon="5.17869">
        <ele>263.2</ele>
        <time>2022-02-24T13:56:31Z</time>
      </trkpt>
      <trkpt lat="45.90281" lon="5.17867">
        <ele>263.4</ele>
        <time>2022-02-24T13:56:32Z</time>
      </trkpt>
      <trkpt lat="45.90282" lon="5.17864">
        <ele>263.4</ele>
        <time>2022-02-24T13:56:33Z</time>
      </trkpt>
      <trkpt lat="45.90284" lon="5.17861">
        <ele>263.8</ele>
        <time>2022-02-24T13:56:34Z</time>
      </trkpt>
      <trkpt lat="45.90286" lon="5.17857">
        <ele>263.8</ele>
        <time>2022-02-24T13:56:35Z</time>
      </trkpt>
      <trkpt lat="45.90287" lon="5.17854">
        <ele>264</ele>
        <time>2022-02-24T13:56:36Z</time>
      </trkpt>
      <trkpt lat="45.90289" lon="5.1785">
        <ele>264</ele>
        <time>2022-02-24T13:56:37Z</time>
      </trkpt>
      <trkpt lat="45.9029" lon="5.17846">
        <ele>264.2</ele>
        <time>2022-02-24T13:56:38Z</time>
      </trkpt>
      <trkpt lat="45.90291" lon="5.17843">
        <ele>264.4</ele>
        <time>2022-02-24T13:56:39Z</time>
      </trkpt>
      <trkpt lat="45.90293" lon="5.17841">
        <ele>264.8</ele>
        <time>2022-02-24T13:56:40Z</time>
      </trkpt>
      <trkpt lat="45.90295" lon="5.17839">
        <ele>265</ele>
        <time>2022-02-24T13:56:41Z</time>
      </trkpt>
      <trkpt lat="45.90297" lon="5.17837">
        <ele>265.2</ele>
        <time>2022-02-24T13:56:42Z</time>
      </trkpt>
      <trkpt lat="45.90299" lon="5.17835">
        <ele>265.6</ele>
        <time>2022-02-24T13:56:43Z</time>
      </trkpt>
      <trkpt lat="45.90301" lon="5.17834">
        <ele>266</ele>
        <time>2022-02-24T13:56:44Z</time>
      </trkpt>
      <trkpt lat="45.90303" lon="5.17833">
        <ele>266.2</ele>
        <time>2022-02-24T13:56:45Z</time>
      </trkpt>
      <trkpt lat="45.90305" lon="5.17831">
        <ele>266.6</ele>
        <time>2022-02-24T13:56:46Z</time>
      </trkpt>
      <trkpt lat="45.90307" lon="5.17828">
        <ele>267</ele>
        <time>2022-02-24T13:56:47Z</time>
      </trkpt>
      <trkpt lat="45.90309" lon="5.17825">
        <ele>267.4</ele>
        <time>2022-02-24T13:56:48Z</time>
      </trkpt>
      <trkpt lat="45.9031" lon="5.17822">
        <ele>267.4</ele>
        <time>2022-02-24T13:56:49Z</time>
      </trkpt>
      <trkpt lat="45.90311" lon="5.1782">
        <ele>267.6</ele>
        <time>2022-02-24T13:56:50Z</time>
      </trkpt>
      <trkpt lat="45.90312" lon="5.17817">
        <ele>268</ele>
        <time>2022-02-24T13:56:51Z</time>
      </trkpt>
      <trkpt lat="45.90314" lon="5.17816">
        <ele>268.2</ele>
        <time>2022-02-24T13:56:52Z</time>
      </trkpt>
      <trkpt lat="45.90315" lon="5.17813">
        <ele>268.4</ele>
        <time>2022-02-24T13:56:53Z</time>
      </trkpt>
      <trkpt lat="45.90316" lon="5.17811">
        <ele>268.4</ele>
        <time>2022-02-24T13:56:54Z</time>
      </trkpt>
      <trkpt lat="45.90318" lon="5.17809">
        <ele>269</ele>
        <time>2022-02-24T13:56:55Z</time>
      </trkpt>
      <trkpt lat="45.90319" lon="5.17807">
        <ele>269.2</ele>
        <time>2022-02-24T13:56:56Z</time>
      </trkpt>
      <trkpt lat="45.9032" lon="5.17806">
        <ele>269.4</ele>
        <time>2022-02-24T13:56:57Z</time>
      </trkpt>
      <trkpt lat="45.90322" lon="5.17804">
        <ele>269.8</ele>
        <time>2022-02-24T13:56:58Z</time>
      </trkpt>
      <trkpt lat="45.90324" lon="5.17802">
        <ele>269.8</ele>
        <time>2022-02-24T13:56:59Z</time>
      </trkpt>
      <trkpt lat="45.90326" lon="5.178">
        <ele>270.2</ele>
        <time>2022-02-24T13:57:00Z</time>
      </trkpt>
      <trkpt lat="45.90329" lon="5.17798">
        <ele>270.2</ele>
        <time>2022-02-24T13:57:01Z</time>
      </trkpt>
      <trkpt lat="45.90332" lon="5.17796">
        <ele>270.4</ele>
        <time>2022-02-24T13:57:02Z</time>
      </trkpt>
      <trkpt lat="45.90335" lon="5.17793">
        <ele>270.4</ele>
        <time>2022-02-24T13:57:03Z</time>
      </trkpt>
      <trkpt lat="45.90338" lon="5.1779">
        <ele>270.4</ele>
        <time>2022-02-24T13:57:04Z</time>
      </trkpt>
      <trkpt lat="45.9034" lon="5.17786">
        <ele>270.6</ele>
        <time>2022-02-24T13:57:05Z</time>
      </trkpt>
      <trkpt lat="45.90343" lon="5.17783">
        <ele>270.6</ele>
        <time>2022-02-24T13:57:06Z</time>
      </trkpt>
      <trkpt lat="45.90345" lon="5.1778">
        <ele>270.6</ele>
        <time>2022-02-24T13:57:07Z</time>
      </trkpt>
      <trkpt lat="45.90347" lon="5.17778">
        <ele>270.6</ele>
        <time>2022-02-24T13:57:08Z</time>
      </trkpt>
      <trkpt lat="45.90351" lon="5.17776">
        <ele>270.6</ele>
        <time>2022-02-24T13:57:09Z</time>
      </trkpt>
      <trkpt lat="45.90353" lon="5.17774">
        <ele>270.6</ele>
        <time>2022-02-24T13:57:10Z</time>
      </trkpt>
      <trkpt lat="45.90355" lon="5.17772">
        <ele>270.6</ele>
        <time>2022-02-24T13:57:11Z</time>
      </trkpt>
      <trkpt lat="45.90357" lon="5.17771">
        <ele>270.6</ele>
        <time>2022-02-24T13:57:12Z</time>
      </trkpt>
      <trkpt lat="45.90358" lon="5.1777">
        <ele>270.6</ele>
        <time>2022-02-24T13:57:13Z</time>
      </trkpt>
      <trkpt lat="45.9036" lon="5.17768">
        <ele>270.6</ele>
        <time>2022-02-24T13:57:14Z</time>
      </trkpt>
      <trkpt lat="45.90361" lon="5.17766">
        <ele>270.6</ele>
        <time>2022-02-24T13:57:15Z</time>
      </trkpt>
      <trkpt lat="45.90362" lon="5.17764">
        <ele>270.6</ele>
        <time>2022-02-24T13:57:16Z</time>
      </trkpt>
      <trkpt lat="45.90364" lon="5.17761">
        <ele>270.6</ele>
        <time>2022-02-24T13:57:17Z</time>
      </trkpt>
      <trkpt lat="45.90365" lon="5.17758">
        <ele>270.6</ele>
        <time>2022-02-24T13:57:18Z</time>
      </trkpt>
      <trkpt lat="45.90367" lon="5.17755">
        <ele>270.6</ele>
        <time>2022-02-24T13:57:19Z</time>
      </trkpt>
      <trkpt lat="45.90369" lon="5.17753">
        <ele>270.6</ele>
        <time>2022-02-24T13:57:20Z</time>
      </trkpt>
      <trkpt lat="45.90371" lon="5.17751">
        <ele>271</ele>
        <time>2022-02-24T13:57:21Z</time>
      </trkpt>
      <trkpt lat="45.90372" lon="5.17749">
        <ele>271</ele>
        <time>2022-02-24T13:57:22Z</time>
      </trkpt>
      <trkpt lat="45.90373" lon="5.17747">
        <ele>271</ele>
        <time>2022-02-24T13:57:23Z</time>
      </trkpt>
      <trkpt lat="45.90374" lon="5.17744">
        <ele>271</ele>
        <time>2022-02-24T13:57:24Z</time>
      </trkpt>
      <trkpt lat="45.90374" lon="5.17741">
        <ele>271</ele>
        <time>2022-02-24T13:57:25Z</time>
      </trkpt>
      <trkpt lat="45.90373" lon="5.17738">
        <ele>271</ele>
        <time>2022-02-24T13:57:26Z</time>
      </trkpt>
      <trkpt lat="45.90372" lon="5.17734">
        <ele>271</ele>
        <time>2022-02-24T13:57:27Z</time>
      </trkpt>
      <trkpt lat="45.90371" lon="5.17731">
        <ele>271</ele>
        <time>2022-02-24T13:57:28Z</time>
      </trkpt>
      <trkpt lat="45.9037" lon="5.17729">
        <ele>270.6</ele>
        <time>2022-02-24T13:57:29Z</time>
      </trkpt>
      <trkpt lat="45.90368" lon="5.17727">
        <ele>270.6</ele>
        <time>2022-02-24T13:57:30Z</time>
      </trkpt>
      <trkpt lat="45.90366" lon="5.17726">
        <ele>270.2</ele>
        <time>2022-02-24T13:57:31Z</time>
      </trkpt>
      <trkpt lat="45.90362" lon="5.17724">
        <ele>270</ele>
        <time>2022-02-24T13:57:32Z</time>
      </trkpt>
      <trkpt lat="45.90358" lon="5.17725">
        <ele>269.8</ele>
        <time>2022-02-24T13:57:33Z</time>
      </trkpt>
      <trkpt lat="45.90353" lon="5.17726">
        <ele>269.2</ele>
        <time>2022-02-24T13:57:34Z</time>
      </trkpt>
      <trkpt lat="45.90347" lon="5.17729">
        <ele>268.6</ele>
        <time>2022-02-24T13:57:35Z</time>
      </trkpt>
      <trkpt lat="45.90341" lon="5.17732">
        <ele>267.6</ele>
        <time>2022-02-24T13:57:36Z</time>
      </trkpt>
      <trkpt lat="45.90335" lon="5.17735">
        <ele>266.8</ele>
        <time>2022-02-24T13:57:37Z</time>
      </trkpt>
      <trkpt lat="45.90329" lon="5.17738">
        <ele>265.8</ele>
        <time>2022-02-24T13:57:38Z</time>
      </trkpt>
      <trkpt lat="45.90322" lon="5.17741">
        <ele>264.8</ele>
        <time>2022-02-24T13:57:39Z</time>
      </trkpt>
      <trkpt lat="45.90317" lon="5.17744">
        <ele>264</ele>
        <time>2022-02-24T13:57:40Z</time>
      </trkpt>
      <trkpt lat="45.90311" lon="5.17747">
        <ele>263</ele>
        <time>2022-02-24T13:57:41Z</time>
      </trkpt>
      <trkpt lat="45.90305" lon="5.17749">
        <ele>262.2</ele>
        <time>2022-02-24T13:57:42Z</time>
      </trkpt>
      <trkpt lat="45.90299" lon="5.17753">
        <ele>261.2</ele>
        <time>2022-02-24T13:57:43Z</time>
      </trkpt>
      <trkpt lat="45.90292" lon="5.17757">
        <ele>260.2</ele>
        <time>2022-02-24T13:57:44Z</time>
      </trkpt>
      <trkpt lat="45.90285" lon="5.17761">
        <ele>259.2</ele>
        <time>2022-02-24T13:57:45Z</time>
      </trkpt>
      <trkpt lat="45.90276" lon="5.17765">
        <ele>258.2</ele>
        <time>2022-02-24T13:57:46Z</time>
      </trkpt>
      <trkpt lat="45.90268" lon="5.1777">
        <ele>257</ele>
        <time>2022-02-24T13:57:47Z</time>
      </trkpt>
      <trkpt lat="45.9026" lon="5.17773">
        <ele>256</ele>
        <time>2022-02-24T13:57:48Z</time>
      </trkpt>
      <trkpt lat="45.9025" lon="5.17775">
        <ele>254.8</ele>
        <time>2022-02-24T13:57:49Z</time>
      </trkpt>
      <trkpt lat="45.90241" lon="5.17775">
        <ele>253.6</ele>
        <time>2022-02-24T13:57:50Z</time>
      </trkpt>
      <trkpt lat="45.90232" lon="5.17775">
        <ele>252.6</ele>
        <time>2022-02-24T13:57:51Z</time>
      </trkpt>
      <trkpt lat="45.90224" lon="5.17775">
        <ele>251.4</ele>
        <time>2022-02-24T13:57:52Z</time>
      </trkpt>
      <trkpt lat="45.90216" lon="5.17775">
        <ele>250.4</ele>
        <time>2022-02-24T13:57:53Z</time>
      </trkpt>
      <trkpt lat="45.9021" lon="5.17776">
        <ele>249.4</ele>
        <time>2022-02-24T13:57:54Z</time>
      </trkpt>
      <trkpt lat="45.90203" lon="5.17778">
        <ele>248.4</ele>
        <time>2022-02-24T13:57:55Z</time>
      </trkpt>
      <trkpt lat="45.90197" lon="5.17782">
        <ele>247.6</ele>
        <time>2022-02-24T13:57:56Z</time>
      </trkpt>
      <trkpt lat="45.90191" lon="5.17787">
        <ele>246.8</ele>
        <time>2022-02-24T13:57:57Z</time>
      </trkpt>
      <trkpt lat="45.90186" lon="5.17793">
        <ele>246</ele>
        <time>2022-02-24T13:57:58Z</time>
      </trkpt>
      <trkpt lat="45.9018" lon="5.17799">
        <ele>245.4</ele>
        <time>2022-02-24T13:57:59Z</time>
      </trkpt>
      <trkpt lat="45.90175" lon="5.17805">
        <ele>244.8</ele>
        <time>2022-02-24T13:58:00Z</time>
      </trkpt>
      <trkpt lat="45.90168" lon="5.1781">
        <ele>244.4</ele>
        <time>2022-02-24T13:58:01Z</time>
      </trkpt>
      <trkpt lat="45.90162" lon="5.17814">
        <ele>243.8</ele>
        <time>2022-02-24T13:58:02Z</time>
      </trkpt>
      <trkpt lat="45.90156" lon="5.17816">
        <ele>243.6</ele>
        <time>2022-02-24T13:58:03Z</time>
      </trkpt>
      <trkpt lat="45.9015" lon="5.17818">
        <ele>243.4</ele>
        <time>2022-02-24T13:58:04Z</time>
      </trkpt>
      <trkpt lat="45.90145" lon="5.17821">
        <ele>243.4</ele>
        <time>2022-02-24T13:58:05Z</time>
      </trkpt>
      <trkpt lat="45.9014" lon="5.17822">
        <ele>243</ele>
        <time>2022-02-24T13:58:06Z</time>
      </trkpt>
      <trkpt lat="45.90136" lon="5.17824">
        <ele>243</ele>
        <time>2022-02-24T13:58:07Z</time>
      </trkpt>
      <trkpt lat="45.90133" lon="5.17825">
        <ele>242.6</ele>
        <time>2022-02-24T13:58:08Z</time>
      </trkpt>
      <trkpt lat="45.9013" lon="5.17825">
        <ele>242.4</ele>
        <time>2022-02-24T13:58:09Z</time>
      </trkpt>
      <trkpt lat="45.90128" lon="5.17826">
        <ele>242.4</ele>
        <time>2022-02-24T13:58:10Z</time>
      </trkpt>
      <trkpt lat="45.90127" lon="5.17827">
        <ele>242.4</ele>
        <time>2022-02-24T13:58:11Z</time>
      </trkpt>
      <trkpt lat="45.90126" lon="5.17829">
        <ele>242.4</ele>
        <time>2022-02-24T13:58:12Z</time>
      </trkpt>
      <trkpt lat="45.90126" lon="5.17831">
        <ele>242.4</ele>
        <time>2022-02-24T13:58:13Z</time>
      </trkpt>
      <trkpt lat="45.90125" lon="5.17833">
        <ele>242.4</ele>
        <time>2022-02-24T13:58:14Z</time>
      </trkpt>
      <trkpt lat="45.90125" lon="5.17836">
        <ele>242.4</ele>
        <time>2022-02-24T13:58:15Z</time>
      </trkpt>
      <trkpt lat="45.90125" lon="5.1784">
        <ele>242.4</ele>
        <time>2022-02-24T13:58:16Z</time>
      </trkpt>
      <trkpt lat="45.90125" lon="5.17845">
        <ele>242.4</ele>
        <time>2022-02-24T13:58:17Z</time>
      </trkpt>
      <trkpt lat="45.90126" lon="5.1785">
        <ele>242.4</ele>
        <time>2022-02-24T13:58:18Z</time>
      </trkpt>
      <trkpt lat="45.90127" lon="5.17855">
        <ele>242.2</ele>
        <time>2022-02-24T13:58:19Z</time>
      </trkpt>
      <trkpt lat="45.90128" lon="5.17861">
        <ele>242.2</ele>
        <time>2022-02-24T13:58:20Z</time>
      </trkpt>
      <trkpt lat="45.90129" lon="5.17866">
        <ele>242</ele>
        <time>2022-02-24T13:58:21Z</time>
      </trkpt>
      <trkpt lat="45.90131" lon="5.17872">
        <ele>242</ele>
        <time>2022-02-24T13:58:22Z</time>
      </trkpt>
      <trkpt lat="45.90132" lon="5.17878">
        <ele>241.6</ele>
        <time>2022-02-24T13:58:23Z</time>
      </trkpt>
      <trkpt lat="45.90134" lon="5.17885">
        <ele>241.6</ele>
        <time>2022-02-24T13:58:24Z</time>
      </trkpt>
      <trkpt lat="45.90135" lon="5.17891">
        <ele>241.4</ele>
        <time>2022-02-24T13:58:25Z</time>
      </trkpt>
      <trkpt lat="45.90137" lon="5.17898">
        <ele>241.4</ele>
        <time>2022-02-24T13:58:26Z</time>
      </trkpt>
      <trkpt lat="45.90138" lon="5.17906">
        <ele>241.4</ele>
        <time>2022-02-24T13:58:27Z</time>
      </trkpt>
      <trkpt lat="45.9014" lon="5.17913">
        <ele>241.2</ele>
        <time>2022-02-24T13:58:28Z</time>
      </trkpt>
      <trkpt lat="45.90142" lon="5.17921">
        <ele>241.2</ele>
        <time>2022-02-24T13:58:29Z</time>
      </trkpt>
      <trkpt lat="45.90144" lon="5.17928">
        <ele>241.2</ele>
        <time>2022-02-24T13:58:30Z</time>
      </trkpt>
      <trkpt lat="45.90146" lon="5.17936">
        <ele>241.2</ele>
        <time>2022-02-24T13:58:31Z</time>
      </trkpt>
      <trkpt lat="45.90148" lon="5.17944">
        <ele>241.2</ele>
        <time>2022-02-24T13:58:32Z</time>
      </trkpt>
      <trkpt lat="45.90149" lon="5.17952">
        <ele>241.2</ele>
        <time>2022-02-24T13:58:33Z</time>
      </trkpt>
      <trkpt lat="45.90151" lon="5.17961">
        <ele>241.2</ele>
        <time>2022-02-24T13:58:34Z</time>
      </trkpt>
      <trkpt lat="45.90154" lon="5.1797">
        <ele>241.2</ele>
        <time>2022-02-24T13:58:35Z</time>
      </trkpt>
      <trkpt lat="45.90156" lon="5.17978">
        <ele>241.2</ele>
        <time>2022-02-24T13:58:36Z</time>
      </trkpt>
      <trkpt lat="45.90158" lon="5.17987">
        <ele>241.2</ele>
        <time>2022-02-24T13:58:37Z</time>
      </trkpt>
      <trkpt lat="45.9016" lon="5.17996">
        <ele>241.2</ele>
        <time>2022-02-24T13:58:38Z</time>
      </trkpt>
      <trkpt lat="45.90162" lon="5.18005">
        <ele>241</ele>
        <time>2022-02-24T13:58:39Z</time>
      </trkpt>
      <trkpt lat="45.90164" lon="5.18014">
        <ele>241</ele>
        <time>2022-02-24T13:58:40Z</time>
      </trkpt>
      <trkpt lat="45.90166" lon="5.18023">
        <ele>240.6</ele>
        <time>2022-02-24T13:58:41Z</time>
      </trkpt>
      <trkpt lat="45.90167" lon="5.18032">
        <ele>240.6</ele>
        <time>2022-02-24T13:58:42Z</time>
      </trkpt>
      <trkpt lat="45.90169" lon="5.18042">
        <ele>240.6</ele>
        <time>2022-02-24T13:58:43Z</time>
      </trkpt>
      <trkpt lat="45.90169" lon="5.18052">
        <ele>240.6</ele>
        <time>2022-02-24T13:58:44Z</time>
      </trkpt>
      <trkpt lat="45.9017" lon="5.18063">
        <ele>240.4</ele>
        <time>2022-02-24T13:58:45Z</time>
      </trkpt>
      <trkpt lat="45.9017" lon="5.18074">
        <ele>240.4</ele>
        <time>2022-02-24T13:58:46Z</time>
      </trkpt>
      <trkpt lat="45.9017" lon="5.18085">
        <ele>240.4</ele>
        <time>2022-02-24T13:58:47Z</time>
      </trkpt>
      <trkpt lat="45.9017" lon="5.18096">
        <ele>240.4</ele>
        <time>2022-02-24T13:58:48Z</time>
      </trkpt>
      <trkpt lat="45.9017" lon="5.18107">
        <ele>240.2</ele>
        <time>2022-02-24T13:58:49Z</time>
      </trkpt>
      <trkpt lat="45.90171" lon="5.18118">
        <ele>239.8</ele>
        <time>2022-02-24T13:58:50Z</time>
      </trkpt>
      <trkpt lat="45.90171" lon="5.18129">
        <ele>239.8</ele>
        <time>2022-02-24T13:58:51Z</time>
      </trkpt>
      <trkpt lat="45.90171" lon="5.1814">
        <ele>239.6</ele>
        <time>2022-02-24T13:58:52Z</time>
      </trkpt>
      <trkpt lat="45.90171" lon="5.18151">
        <ele>239.4</ele>
        <time>2022-02-24T13:58:53Z</time>
      </trkpt>
      <trkpt lat="45.90172" lon="5.18162">
        <ele>239</ele>
        <time>2022-02-24T13:58:54Z</time>
      </trkpt>
      <trkpt lat="45.90172" lon="5.18174">
        <ele>238.6</ele>
        <time>2022-02-24T13:58:55Z</time>
      </trkpt>
      <trkpt lat="45.90173" lon="5.18186">
        <ele>238.4</ele>
        <time>2022-02-24T13:58:56Z</time>
      </trkpt>
      <trkpt lat="45.90174" lon="5.18198">
        <ele>238</ele>
        <time>2022-02-24T13:58:57Z</time>
      </trkpt>
      <trkpt lat="45.90175" lon="5.1821">
        <ele>237.6</ele>
        <time>2022-02-24T13:58:58Z</time>
      </trkpt>
      <trkpt lat="45.90176" lon="5.18223">
        <ele>237.2</ele>
        <time>2022-02-24T13:58:59Z</time>
      </trkpt>
      <trkpt lat="45.90177" lon="5.18235">
        <ele>236.8</ele>
        <time>2022-02-24T13:59:00Z</time>
      </trkpt>
      <trkpt lat="45.90178" lon="5.18248">
        <ele>236.2</ele>
        <time>2022-02-24T13:59:01Z</time>
      </trkpt>
      <trkpt lat="45.90179" lon="5.18261">
        <ele>235.8</ele>
        <time>2022-02-24T13:59:02Z</time>
      </trkpt>
      <trkpt lat="45.9018" lon="5.18276">
        <ele>235.2</ele>
        <time>2022-02-24T13:59:03Z</time>
      </trkpt>
      <trkpt lat="45.90181" lon="5.1829">
        <ele>234.8</ele>
        <time>2022-02-24T13:59:04Z</time>
      </trkpt>
      <trkpt lat="45.90183" lon="5.18304">
        <ele>234.2</ele>
        <time>2022-02-24T13:59:05Z</time>
      </trkpt>
      <trkpt lat="45.90183" lon="5.18317">
        <ele>233.8</ele>
        <time>2022-02-24T13:59:06Z</time>
      </trkpt>
      <trkpt lat="45.90183" lon="5.18331">
        <ele>233</ele>
        <time>2022-02-24T13:59:07Z</time>
      </trkpt>
      <trkpt lat="45.90182" lon="5.18346">
        <ele>232.4</ele>
        <time>2022-02-24T13:59:08Z</time>
      </trkpt>
      <trkpt lat="45.9018" lon="5.18359">
        <ele>231.6</ele>
        <time>2022-02-24T13:59:09Z</time>
      </trkpt>
      <trkpt lat="45.90177" lon="5.18371">
        <ele>231</ele>
        <time>2022-02-24T13:59:10Z</time>
      </trkpt>
      <trkpt lat="45.90174" lon="5.18386">
        <ele>230.2</ele>
        <time>2022-02-24T13:59:11Z</time>
      </trkpt>
      <trkpt lat="45.9017" lon="5.18399">
        <ele>229.4</ele>
        <time>2022-02-24T13:59:12Z</time>
      </trkpt>
      <trkpt lat="45.90165" lon="5.18412">
        <ele>228.6</ele>
        <time>2022-02-24T13:59:13Z</time>
      </trkpt>
      <trkpt lat="45.90159" lon="5.18427">
        <ele>227.8</ele>
        <time>2022-02-24T13:59:14Z</time>
      </trkpt>
      <trkpt lat="45.90154" lon="5.18443">
        <ele>226.8</ele>
        <time>2022-02-24T13:59:15Z</time>
      </trkpt>
      <trkpt lat="45.90148" lon="5.18457">
        <ele>226.2</ele>
        <time>2022-02-24T13:59:16Z</time>
      </trkpt>
      <trkpt lat="45.90142" lon="5.18472">
        <ele>225.4</ele>
        <time>2022-02-24T13:59:17Z</time>
      </trkpt>
      <trkpt lat="45.90136" lon="5.18487">
        <ele>224.6</ele>
        <time>2022-02-24T13:59:18Z</time>
      </trkpt>
      <trkpt lat="45.90129" lon="5.18501">
        <ele>224</ele>
        <time>2022-02-24T13:59:19Z</time>
      </trkpt>
      <trkpt lat="45.90123" lon="5.18516">
        <ele>223.2</ele>
        <time>2022-02-24T13:59:20Z</time>
      </trkpt>
      <trkpt lat="45.90117" lon="5.18532">
        <ele>222.6</ele>
        <time>2022-02-24T13:59:21Z</time>
      </trkpt>
      <trkpt lat="45.9011" lon="5.18547">
        <ele>221.8</ele>
        <time>2022-02-24T13:59:22Z</time>
      </trkpt>
      <trkpt lat="45.90103" lon="5.18562">
        <ele>221.2</ele>
        <time>2022-02-24T13:59:23Z</time>
      </trkpt>
      <trkpt lat="45.90097" lon="5.18577">
        <ele>220.6</ele>
        <time>2022-02-24T13:59:24Z</time>
      </trkpt>
      <trkpt lat="45.9009" lon="5.18591">
        <ele>220.2</ele>
        <time>2022-02-24T13:59:25Z</time>
      </trkpt>
      <trkpt lat="45.90085" lon="5.18606">
        <ele>219.8</ele>
        <time>2022-02-24T13:59:26Z</time>
      </trkpt>
      <trkpt lat="45.90079" lon="5.18619">
        <ele>219.6</ele>
        <time>2022-02-24T13:59:27Z</time>
      </trkpt>
      <trkpt lat="45.90073" lon="5.18632">
        <ele>219.2</ele>
        <time>2022-02-24T13:59:28Z</time>
      </trkpt>
      <trkpt lat="45.90068" lon="5.18644">
        <ele>218.8</ele>
        <time>2022-02-24T13:59:29Z</time>
      </trkpt>
      <trkpt lat="45.90062" lon="5.18658">
        <ele>218.8</ele>
        <time>2022-02-24T13:59:30Z</time>
      </trkpt>
      <trkpt lat="45.90056" lon="5.18669">
        <ele>218.4</ele>
        <time>2022-02-24T13:59:31Z</time>
      </trkpt>
      <trkpt lat="45.90051" lon="5.18681">
        <ele>218.4</ele>
        <time>2022-02-24T13:59:32Z</time>
      </trkpt>
      <trkpt lat="45.90045" lon="5.18694">
        <ele>218.2</ele>
        <time>2022-02-24T13:59:33Z</time>
      </trkpt>
      <trkpt lat="45.90041" lon="5.18705">
        <ele>218.2</ele>
        <time>2022-02-24T13:59:34Z</time>
      </trkpt>
      <trkpt lat="45.90036" lon="5.18715">
        <ele>217.8</ele>
        <time>2022-02-24T13:59:35Z</time>
      </trkpt>
      <trkpt lat="45.90032" lon="5.18724">
        <ele>217.8</ele>
        <time>2022-02-24T13:59:36Z</time>
      </trkpt>
      <trkpt lat="45.90029" lon="5.18733">
        <ele>217.4</ele>
        <time>2022-02-24T13:59:37Z</time>
      </trkpt>
      <trkpt lat="45.90025" lon="5.18742">
        <ele>217.2</ele>
        <time>2022-02-24T13:59:38Z</time>
      </trkpt>
      <trkpt lat="45.9002" lon="5.18749">
        <ele>217.2</ele>
        <time>2022-02-24T13:59:39Z</time>
      </trkpt>
      <trkpt lat="45.90015" lon="5.18755">
        <ele>217.2</ele>
        <time>2022-02-24T13:59:40Z</time>
      </trkpt>
      <trkpt lat="45.90011" lon="5.1876">
        <ele>217.2</ele>
        <time>2022-02-24T13:59:41Z</time>
      </trkpt>
      <trkpt lat="45.90007" lon="5.18764">
        <ele>217.2</ele>
        <time>2022-02-24T13:59:42Z</time>
      </trkpt>
      <trkpt lat="45.90004" lon="5.18766">
        <ele>217.2</ele>
        <time>2022-02-24T13:59:43Z</time>
      </trkpt>
      <trkpt lat="45.90001" lon="5.18768">
        <ele>217.2</ele>
        <time>2022-02-24T13:59:44Z</time>
      </trkpt>
      <trkpt lat="45.9" lon="5.1877">
        <ele>217.2</ele>
        <time>2022-02-24T13:59:45Z</time>
      </trkpt>
      <trkpt lat="45.9" lon="5.1877">
        <ele>217.2</ele>
        <time>2022-02-24T13:59:46Z</time>
      </trkpt>
      <trkpt lat="45.89998" lon="5.18773">
        <ele>217.8</ele>
        <time>2022-02-24T13:59:58Z</time>
      </trkpt>
      <trkpt lat="45.89997" lon="5.18776">
        <ele>217.8</ele>
        <time>2022-02-24T13:59:59Z</time>
      </trkpt>
      <trkpt lat="45.89997" lon="5.18779">
        <ele>217.8</ele>
        <time>2022-02-24T14:00:00Z</time>
      </trkpt>
      <trkpt lat="45.89998" lon="5.18782">
        <ele>217.8</ele>
        <time>2022-02-24T14:00:01Z</time>
      </trkpt>
      <trkpt lat="45.9" lon="5.18786">
        <ele>217.8</ele>
        <time>2022-02-24T14:00:02Z</time>
      </trkpt>
      <trkpt lat="45.90003" lon="5.18789">
        <ele>217.8</ele>
        <time>2022-02-24T14:00:03Z</time>
      </trkpt>
      <trkpt lat="45.90005" lon="5.18792">
        <ele>217.8</ele>
        <time>2022-02-24T14:00:04Z</time>
      </trkpt>
      <trkpt lat="45.90008" lon="5.18795">
        <ele>217.8</ele>
        <time>2022-02-24T14:00:05Z</time>
      </trkpt>
      <trkpt lat="45.90011" lon="5.18798">
        <ele>217.8</ele>
        <time>2022-02-24T14:00:06Z</time>
      </trkpt>
      <trkpt lat="45.90014" lon="5.18802">
        <ele>217.8</ele>
        <time>2022-02-24T14:00:07Z</time>
      </trkpt>
      <trkpt lat="45.90018" lon="5.18805">
        <ele>217.8</ele>
        <time>2022-02-24T14:00:08Z</time>
      </trkpt>
      <trkpt lat="45.90021" lon="5.18809">
        <ele>217.8</ele>
        <time>2022-02-24T14:00:09Z</time>
      </trkpt>
      <trkpt lat="45.90024" lon="5.18813">
        <ele>217.8</ele>
        <time>2022-02-24T14:00:10Z</time>
      </trkpt>
      <trkpt lat="45.90027" lon="5.18817">
        <ele>217.8</ele>
        <time>2022-02-24T14:00:11Z</time>
      </trkpt>
      <trkpt lat="45.90031" lon="5.18822">
        <ele>217.8</ele>
        <time>2022-02-24T14:00:12Z</time>
      </trkpt>
      <trkpt lat="45.90035" lon="5.18826">
        <ele>217.8</ele>
        <time>2022-02-24T14:00:13Z</time>
      </trkpt>
      <trkpt lat="45.90039" lon="5.18831">
        <ele>217.8</ele>
        <time>2022-02-24T14:00:14Z</time>
      </trkpt>
      <trkpt lat="45.90043" lon="5.18836">
        <ele>217.8</ele>
        <time>2022-02-24T14:00:15Z</time>
      </trkpt>
      <trkpt lat="45.90047" lon="5.18841">
        <ele>217.8</ele>
        <time>2022-02-24T14:00:16Z</time>
      </trkpt>
      <trkpt lat="45.90052" lon="5.18846">
        <ele>217.8</ele>
        <time>2022-02-24T14:00:17Z</time>
      </trkpt>
      <trkpt lat="45.90056" lon="5.18852">
        <ele>217.6</ele>
        <time>2022-02-24T14:00:18Z</time>
      </trkpt>
      <trkpt lat="45.90061" lon="5.18857">
        <ele>217.6</ele>
        <time>2022-02-24T14:00:19Z</time>
      </trkpt>
      <trkpt lat="45.90066" lon="5.18863">
        <ele>217.6</ele>
        <time>2022-02-24T14:00:20Z</time>
      </trkpt>
      <trkpt lat="45.90071" lon="5.18869">
        <ele>217.6</ele>
        <time>2022-02-24T14:00:21Z</time>
      </trkpt>
      <trkpt lat="45.90075" lon="5.18875">
        <ele>217.6</ele>
        <time>2022-02-24T14:00:22Z</time>
      </trkpt>
      <trkpt lat="45.9008" lon="5.18882">
        <ele>217.2</ele>
        <time>2022-02-24T14:00:23Z</time>
      </trkpt>
      <trkpt lat="45.90085" lon="5.18888">
        <ele>217.2</ele>
        <time>2022-02-24T14:00:24Z</time>
      </trkpt>
      <trkpt lat="45.9009" lon="5.18894">
        <ele>217.2</ele>
        <time>2022-02-24T14:00:25Z</time>
      </trkpt>
      <trkpt lat="45.90095" lon="5.189">
        <ele>217.2</ele>
        <time>2022-02-24T14:00:26Z</time>
      </trkpt>
      <trkpt lat="45.901" lon="5.18905">
        <ele>217</ele>
        <time>2022-02-24T14:00:27Z</time>
      </trkpt>
      <trkpt lat="45.90105" lon="5.18911">
        <ele>217</ele>
        <time>2022-02-24T14:00:28Z</time>
      </trkpt>
      <trkpt lat="45.9011" lon="5.18917">
        <ele>217</ele>
        <time>2022-02-24T14:00:29Z</time>
      </trkpt>
      <trkpt lat="45.90115" lon="5.18923">
        <ele>217</ele>
        <time>2022-02-24T14:00:30Z</time>
      </trkpt>
      <trkpt lat="45.9012" lon="5.18929">
        <ele>217</ele>
        <time>2022-02-24T14:00:31Z</time>
      </trkpt>
      <trkpt lat="45.90125" lon="5.18936">
        <ele>217</ele>
        <time>2022-02-24T14:00:32Z</time>
      </trkpt>
      <trkpt lat="45.9013" lon="5.18942">
        <ele>216.8</ele>
        <time>2022-02-24T14:00:33Z</time>
      </trkpt>
      <trkpt lat="45.90134" lon="5.18948">
        <ele>216.8</ele>
        <time>2022-02-24T14:00:34Z</time>
      </trkpt>
      <trkpt lat="45.90138" lon="5.18955">
        <ele>216.8</ele>
        <time>2022-02-24T14:00:35Z</time>
      </trkpt>
      <trkpt lat="45.9014" lon="5.18961">
        <ele>216.8</ele>
        <time>2022-02-24T14:00:36Z</time>
      </trkpt>
      <trkpt lat="45.90141" lon="5.18968">
        <ele>216.8</ele>
        <time>2022-02-24T14:00:37Z</time>
      </trkpt>
      <trkpt lat="45.90141" lon="5.18976">
        <ele>216.8</ele>
        <time>2022-02-24T14:00:38Z</time>
      </trkpt>
      <trkpt lat="45.90141" lon="5.18983">
        <ele>216.8</ele>
        <time>2022-02-24T14:00:39Z</time>
      </trkpt>
      <trkpt lat="45.90141" lon="5.1899">
        <ele>216.8</ele>
        <time>2022-02-24T14:00:40Z</time>
      </trkpt>
      <trkpt lat="45.90144" lon="5.18997">
        <ele>216.8</ele>
        <time>2022-02-24T14:00:41Z</time>
      </trkpt>
      <trkpt lat="45.90148" lon="5.19003">
        <ele>217</ele>
        <time>2022-02-24T14:00:42Z</time>
      </trkpt>
      <trkpt lat="45.90153" lon="5.19004">
        <ele>217</ele>
        <time>2022-02-24T14:00:43Z</time>
      </trkpt>
      <trkpt lat="45.90159" lon="5.19003">
        <ele>217</ele>
        <time>2022-02-24T14:00:44Z</time>
      </trkpt>
      <trkpt lat="45.90165" lon="5.19001">
        <ele>217</ele>
        <time>2022-02-24T14:00:45Z</time>
      </trkpt>
      <trkpt lat="45.90171" lon="5.19001">
        <ele>217</ele>
        <time>2022-02-24T14:00:46Z</time>
      </trkpt>
      <trkpt lat="45.90176" lon="5.19003">
        <ele>217</ele>
        <time>2022-02-24T14:00:47Z</time>
      </trkpt>
      <trkpt lat="45.90182" lon="5.19006">
        <ele>217</ele>
        <time>2022-02-24T14:00:48Z</time>
      </trkpt>
      <trkpt lat="45.90187" lon="5.19011">
        <ele>217.2</ele>
        <time>2022-02-24T14:00:49Z</time>
      </trkpt>
      <trkpt lat="45.90191" lon="5.19016">
        <ele>217.2</ele>
        <time>2022-02-24T14:00:50Z</time>
      </trkpt>
      <trkpt lat="45.90196" lon="5.19021">
        <ele>217.4</ele>
        <time>2022-02-24T14:00:51Z</time>
      </trkpt>
      <trkpt lat="45.902" lon="5.19027">
        <ele>217.4</ele>
        <time>2022-02-24T14:00:52Z</time>
      </trkpt>
      <trkpt lat="45.90205" lon="5.19032">
        <ele>217.4</ele>
        <time>2022-02-24T14:00:53Z</time>
      </trkpt>
      <trkpt lat="45.90209" lon="5.19038">
        <ele>217.4</ele>
        <time>2022-02-24T14:00:54Z</time>
      </trkpt>
      <trkpt lat="45.90214" lon="5.19043">
        <ele>217.6</ele>
        <time>2022-02-24T14:00:55Z</time>
      </trkpt>
      <trkpt lat="45.90218" lon="5.19049">
        <ele>217.6</ele>
        <time>2022-02-24T14:00:56Z</time>
      </trkpt>
      <trkpt lat="45.90222" lon="5.19055">
        <ele>217.6</ele>
        <time>2022-02-24T14:00:57Z</time>
      </trkpt>
      <trkpt lat="45.90226" lon="5.19061">
        <ele>217.6</ele>
        <time>2022-02-24T14:00:58Z</time>
      </trkpt>
      <trkpt lat="45.9023" lon="5.19066">
        <ele>217.8</ele>
        <time>2022-02-24T14:00:59Z</time>
      </trkpt>
      <trkpt lat="45.90235" lon="5.19071">
        <ele>217.8</ele>
        <time>2022-02-24T14:01:00Z</time>
      </trkpt>
      <trkpt lat="45.90239" lon="5.19077">
        <ele>217.8</ele>
        <time>2022-02-24T14:01:01Z</time>
      </trkpt>
      <trkpt lat="45.90243" lon="5.19082">
        <ele>218.2</ele>
        <time>2022-02-24T14:01:02Z</time>
      </trkpt>
      <trkpt lat="45.90246" lon="5.19088">
        <ele>218.2</ele>
        <time>2022-02-24T14:01:03Z</time>
      </trkpt>
      <trkpt lat="45.90249" lon="5.19092">
        <ele>218.2</ele>
        <time>2022-02-24T14:01:04Z</time>
      </trkpt>
      <trkpt lat="45.90252" lon="5.19096">
        <ele>218.4</ele>
        <time>2022-02-24T14:01:05Z</time>
      </trkpt>
      <trkpt lat="45.90255" lon="5.19098">
        <ele>218.4</ele>
        <time>2022-02-24T14:01:06Z</time>
      </trkpt>
      <trkpt lat="45.90257" lon="5.191">
        <ele>218.4</ele>
        <time>2022-02-24T14:01:07Z</time>
      </trkpt>
      <trkpt lat="45.90259" lon="5.19103">
        <ele>218.6</ele>
        <time>2022-02-24T14:01:08Z</time>
      </trkpt>
      <trkpt lat="45.90262" lon="5.19106">
        <ele>218.6</ele>
        <time>2022-02-24T14:01:09Z</time>
      </trkpt>
      <trkpt lat="45.90264" lon="5.1911">
        <ele>218.8</ele>
        <time>2022-02-24T14:01:10Z</time>
      </trkpt>
      <trkpt lat="45.90267" lon="5.19114">
        <ele>218.8</ele>
        <time>2022-02-24T14:01:11Z</time>
      </trkpt>
      <trkpt lat="45.9027" lon="5.19119">
        <ele>218.8</ele>
        <time>2022-02-24T14:01:12Z</time>
      </trkpt>
      <trkpt lat="45.90273" lon="5.19123">
        <ele>219.2</ele>
        <time>2022-02-24T14:01:13Z</time>
      </trkpt>
      <trkpt lat="45.90277" lon="5.19128">
        <ele>219.2</ele>
        <time>2022-02-24T14:01:14Z</time>
      </trkpt>
      <trkpt lat="45.90281" lon="5.19133">
        <ele>219.4</ele>
        <time>2022-02-24T14:01:15Z</time>
      </trkpt>
      <trkpt lat="45.90284" lon="5.19137">
        <ele>219.4</ele>
        <time>2022-02-24T14:01:16Z</time>
      </trkpt>
      <trkpt lat="45.90288" lon="5.19142">
        <ele>219.8</ele>
        <time>2022-02-24T14:01:17Z</time>
      </trkpt>
      <trkpt lat="45.90292" lon="5.19147">
        <ele>220</ele>
        <time>2022-02-24T14:01:18Z</time>
      </trkpt>
      <trkpt lat="45.90295" lon="5.19151">
        <ele>220.4</ele>
        <time>2022-02-24T14:01:19Z</time>
      </trkpt>
      <trkpt lat="45.90297" lon="5.19155">
        <ele>220.6</ele>
        <time>2022-02-24T14:01:20Z</time>
      </trkpt>
      <trkpt lat="45.90299" lon="5.19158">
        <ele>220.8</ele>
        <time>2022-02-24T14:01:21Z</time>
      </trkpt>
      <trkpt lat="45.903" lon="5.19161">
        <ele>220.8</ele>
        <time>2022-02-24T14:01:22Z</time>
      </trkpt>
      <trkpt lat="45.90302" lon="5.19164">
        <ele>221</ele>
        <time>2022-02-24T14:01:23Z</time>
      </trkpt>
      <trkpt lat="45.90305" lon="5.19167">
        <ele>221.2</ele>
        <time>2022-02-24T14:01:24Z</time>
      </trkpt>
      <trkpt lat="45.90307" lon="5.1917">
        <ele>221.6</ele>
        <time>2022-02-24T14:01:25Z</time>
      </trkpt>
      <trkpt lat="45.9031" lon="5.19174">
        <ele>221.6</ele>
        <time>2022-02-24T14:01:26Z</time>
      </trkpt>
      <trkpt lat="45.90312" lon="5.19178">
        <ele>221.8</ele>
        <time>2022-02-24T14:01:27Z</time>
      </trkpt>
      <trkpt lat="45.90313" lon="5.19182">
        <ele>221.8</ele>
        <time>2022-02-24T14:01:28Z</time>
      </trkpt>
      <trkpt lat="45.90316" lon="5.19186">
        <ele>222.2</ele>
        <time>2022-02-24T14:01:29Z</time>
      </trkpt>
      <trkpt lat="45.90317" lon="5.1919">
        <ele>222.4</ele>
        <time>2022-02-24T14:01:30Z</time>
      </trkpt>
      <trkpt lat="45.9032" lon="5.19194">
        <ele>222.4</ele>
        <time>2022-02-24T14:01:31Z</time>
      </trkpt>
      <trkpt lat="45.90322" lon="5.19197">
        <ele>222.6</ele>
        <time>2022-02-24T14:01:32Z</time>
      </trkpt>
      <trkpt lat="45.90325" lon="5.192">
        <ele>222.8</ele>
        <time>2022-02-24T14:01:33Z</time>
      </trkpt>
      <trkpt lat="45.90327" lon="5.19203">
        <ele>223.2</ele>
        <time>2022-02-24T14:01:34Z</time>
      </trkpt>
      <trkpt lat="45.9033" lon="5.19206">
        <ele>223.4</ele>
        <time>2022-02-24T14:01:35Z</time>
      </trkpt>
      <trkpt lat="45.90333" lon="5.19209">
        <ele>223.4</ele>
        <time>2022-02-24T14:01:36Z</time>
      </trkpt>
      <trkpt lat="45.90336" lon="5.19213">
        <ele>223.6</ele>
        <time>2022-02-24T14:01:37Z</time>
      </trkpt>
      <trkpt lat="45.90339" lon="5.19218">
        <ele>223.6</ele>
        <time>2022-02-24T14:01:38Z</time>
      </trkpt>
      <trkpt lat="45.90342" lon="5.19222">
        <ele>223.6</ele>
        <time>2022-02-24T14:01:39Z</time>
      </trkpt>
      <trkpt lat="45.90346" lon="5.19226">
        <ele>224</ele>
        <time>2022-02-24T14:01:40Z</time>
      </trkpt>
      <trkpt lat="45.90349" lon="5.1923">
        <ele>224</ele>
        <time>2022-02-24T14:01:41Z</time>
      </trkpt>
      <trkpt lat="45.90352" lon="5.19234">
        <ele>224.2</ele>
        <time>2022-02-24T14:01:42Z</time>
      </trkpt>
      <trkpt lat="45.90355" lon="5.19239">
        <ele>224.2</ele>
        <time>2022-02-24T14:01:43Z</time>
      </trkpt>
      <trkpt lat="45.90358" lon="5.19244">
        <ele>224.2</ele>
        <time>2022-02-24T14:01:44Z</time>
      </trkpt>
      <trkpt lat="45.9036" lon="5.1925">
        <ele>224.2</ele>
        <time>2022-02-24T14:01:45Z</time>
      </trkpt>
      <trkpt lat="45.90364" lon="5.19255">
        <ele>224.2</ele>
        <time>2022-02-24T14:01:46Z</time>
      </trkpt>
      <trkpt lat="45.90368" lon="5.1926">
        <ele>224.2</ele>
        <time>2022-02-24T14:01:47Z</time>
      </trkpt>
      <trkpt lat="45.90372" lon="5.19264">
        <ele>224.2</ele>
        <time>2022-02-24T14:01:48Z</time>
      </trkpt>
      <trkpt lat="45.90377" lon="5.19266">
        <ele>224.4</ele>
        <time>2022-02-24T14:01:49Z</time>
      </trkpt>
      <trkpt lat="45.90382" lon="5.19268">
        <ele>224.4</ele>
        <time>2022-02-24T14:01:50Z</time>
      </trkpt>
      <trkpt lat="45.90386" lon="5.1927">
        <ele>224.6</ele>
        <time>2022-02-24T14:01:51Z</time>
      </trkpt>
      <trkpt lat="45.9039" lon="5.19273">
        <ele>224.6</ele>
        <time>2022-02-24T14:01:52Z</time>
      </trkpt>
      <trkpt lat="45.90393" lon="5.19277">
        <ele>225</ele>
        <time>2022-02-24T14:01:53Z</time>
      </trkpt>
      <trkpt lat="45.90397" lon="5.19281">
        <ele>225</ele>
        <time>2022-02-24T14:01:54Z</time>
      </trkpt>
      <trkpt lat="45.904" lon="5.19286">
        <ele>225.4</ele>
        <time>2022-02-24T14:01:55Z</time>
      </trkpt>
      <trkpt lat="45.90403" lon="5.19289">
        <ele>225.4</ele>
        <time>2022-02-24T14:01:56Z</time>
      </trkpt>
      <trkpt lat="45.90407" lon="5.19294">
        <ele>225.6</ele>
        <time>2022-02-24T14:01:57Z</time>
      </trkpt>
      <trkpt lat="45.9041" lon="5.19298">
        <ele>225.6</ele>
        <time>2022-02-24T14:01:58Z</time>
      </trkpt>
      <trkpt lat="45.90414" lon="5.19303">
        <ele>225.6</ele>
        <time>2022-02-24T14:01:59Z</time>
      </trkpt>
      <trkpt lat="45.90417" lon="5.19308">
        <ele>225.8</ele>
        <time>2022-02-24T14:02:00Z</time>
      </trkpt>
      <trkpt lat="45.90421" lon="5.19313">
        <ele>225.8</ele>
        <time>2022-02-24T14:02:01Z</time>
      </trkpt>
      <trkpt lat="45.90425" lon="5.19317">
        <ele>226</ele>
        <time>2022-02-24T14:02:02Z</time>
      </trkpt>
      <trkpt lat="45.90429" lon="5.19322">
        <ele>226</ele>
        <time>2022-02-24T14:02:03Z</time>
      </trkpt>
      <trkpt lat="45.90433" lon="5.19327">
        <ele>226</ele>
        <time>2022-02-24T14:02:04Z</time>
      </trkpt>
      <trkpt lat="45.90436" lon="5.19332">
        <ele>226.4</ele>
        <time>2022-02-24T14:02:05Z</time>
      </trkpt>
      <trkpt lat="45.9044" lon="5.19337">
        <ele>226.4</ele>
        <time>2022-02-24T14:02:06Z</time>
      </trkpt>
      <trkpt lat="45.90444" lon="5.19342">
        <ele>226.6</ele>
        <time>2022-02-24T14:02:07Z</time>
      </trkpt>
      <trkpt lat="45.90448" lon="5.19346">
        <ele>226.6</ele>
        <time>2022-02-24T14:02:08Z</time>
      </trkpt>
      <trkpt lat="45.90451" lon="5.19351">
        <ele>226.6</ele>
        <time>2022-02-24T14:02:09Z</time>
      </trkpt>
      <trkpt lat="45.90455" lon="5.19355">
        <ele>226.8</ele>
        <time>2022-02-24T14:02:10Z</time>
      </trkpt>
      <trkpt lat="45.90459" lon="5.19359">
        <ele>226.8</ele>
        <time>2022-02-24T14:02:11Z</time>
      </trkpt>
      <trkpt lat="45.90463" lon="5.19363">
        <ele>226.8</ele>
        <time>2022-02-24T14:02:12Z</time>
      </trkpt>
      <trkpt lat="45.90468" lon="5.19367">
        <ele>226.8</ele>
        <time>2022-02-24T14:02:13Z</time>
      </trkpt>
      <trkpt lat="45.90472" lon="5.19372">
        <ele>226.8</ele>
        <time>2022-02-24T14:02:14Z</time>
      </trkpt>
      <trkpt lat="45.90476" lon="5.19376">
        <ele>227</ele>
        <time>2022-02-24T14:02:15Z</time>
      </trkpt>
      <trkpt lat="45.90481" lon="5.1938">
        <ele>227</ele>
        <time>2022-02-24T14:02:16Z</time>
      </trkpt>
      <trkpt lat="45.90486" lon="5.19383">
        <ele>227.2</ele>
        <time>2022-02-24T14:02:17Z</time>
      </trkpt>
      <trkpt lat="45.90491" lon="5.19386">
        <ele>227.6</ele>
        <time>2022-02-24T14:02:18Z</time>
      </trkpt>
      <trkpt lat="45.90495" lon="5.1939">
        <ele>227.8</ele>
        <time>2022-02-24T14:02:19Z</time>
      </trkpt>
      <trkpt lat="45.90499" lon="5.19393">
        <ele>228</ele>
        <time>2022-02-24T14:02:20Z</time>
      </trkpt>
      <trkpt lat="45.90503" lon="5.19396">
        <ele>228</ele>
        <time>2022-02-24T14:02:21Z</time>
      </trkpt>
      <trkpt lat="45.90506" lon="5.19399">
        <ele>228.4</ele>
        <time>2022-02-24T14:02:22Z</time>
      </trkpt>
      <trkpt lat="45.9051" lon="5.19402">
        <ele>228.8</ele>
        <time>2022-02-24T14:02:23Z</time>
      </trkpt>
      <trkpt lat="45.90513" lon="5.19405">
        <ele>229</ele>
        <time>2022-02-24T14:02:24Z</time>
      </trkpt>
      <trkpt lat="45.90517" lon="5.19407">
        <ele>229</ele>
        <time>2022-02-24T14:02:25Z</time>
      </trkpt>
      <trkpt lat="45.9052" lon="5.19409">
        <ele>229.6</ele>
        <time>2022-02-24T14:02:26Z</time>
      </trkpt>
      <trkpt lat="45.90523" lon="5.19411">
        <ele>229.8</ele>
        <time>2022-02-24T14:02:27Z</time>
      </trkpt>
      <trkpt lat="45.90526" lon="5.19412">
        <ele>230</ele>
        <time>2022-02-24T14:02:28Z</time>
      </trkpt>
      <trkpt lat="45.90529" lon="5.19414">
        <ele>230.4</ele>
        <time>2022-02-24T14:02:29Z</time>
      </trkpt>
      <trkpt lat="45.90532" lon="5.19417">
        <ele>230.6</ele>
        <time>2022-02-24T14:02:30Z</time>
      </trkpt>
      <trkpt lat="45.90535" lon="5.19419">
        <ele>230.8</ele>
        <time>2022-02-24T14:02:31Z</time>
      </trkpt>
      <trkpt lat="45.90538" lon="5.1942">
        <ele>231.2</ele>
        <time>2022-02-24T14:02:32Z</time>
      </trkpt>
      <trkpt lat="45.90541" lon="5.19423">
        <ele>231.4</ele>
        <time>2022-02-24T14:02:33Z</time>
      </trkpt>
      <trkpt lat="45.90544" lon="5.19425">
        <ele>231.8</ele>
        <time>2022-02-24T14:02:34Z</time>
      </trkpt>
      <trkpt lat="45.90547" lon="5.19426">
        <ele>232</ele>
        <time>2022-02-24T14:02:35Z</time>
      </trkpt>
      <trkpt lat="45.90551" lon="5.19428">
        <ele>232.4</ele>
        <time>2022-02-24T14:02:36Z</time>
      </trkpt>
      <trkpt lat="45.90554" lon="5.1943">
        <ele>232.6</ele>
        <time>2022-02-24T14:02:37Z</time>
      </trkpt>
      <trkpt lat="45.90556" lon="5.19433">
        <ele>233</ele>
        <time>2022-02-24T14:02:38Z</time>
      </trkpt>
      <trkpt lat="45.90559" lon="5.19435">
        <ele>233</ele>
        <time>2022-02-24T14:02:39Z</time>
      </trkpt>
      <trkpt lat="45.90562" lon="5.19437">
        <ele>233.4</ele>
        <time>2022-02-24T14:02:40Z</time>
      </trkpt>
      <trkpt lat="45.90565" lon="5.19439">
        <ele>233.4</ele>
        <time>2022-02-24T14:02:41Z</time>
      </trkpt>
      <trkpt lat="45.90568" lon="5.19442">
        <ele>233.8</ele>
        <time>2022-02-24T14:02:42Z</time>
      </trkpt>
      <trkpt lat="45.90571" lon="5.19443">
        <ele>234</ele>
        <time>2022-02-24T14:02:43Z</time>
      </trkpt>
      <trkpt lat="45.90574" lon="5.19445">
        <ele>234.2</ele>
        <time>2022-02-24T14:02:44Z</time>
      </trkpt>
      <trkpt lat="45.90577" lon="5.19447">
        <ele>234.6</ele>
        <time>2022-02-24T14:02:45Z</time>
      </trkpt>
      <trkpt lat="45.9058" lon="5.19448">
        <ele>234.8</ele>
        <time>2022-02-24T14:02:46Z</time>
      </trkpt>
      <trkpt lat="45.90583" lon="5.1945">
        <ele>234.8</ele>
        <time>2022-02-24T14:02:47Z</time>
      </trkpt>
      <trkpt lat="45.90586" lon="5.19451">
        <ele>235.2</ele>
        <time>2022-02-24T14:02:48Z</time>
      </trkpt>
      <trkpt lat="45.90589" lon="5.19453">
        <ele>235.4</ele>
        <time>2022-02-24T14:02:49Z</time>
      </trkpt>
      <trkpt lat="45.90592" lon="5.19454">
        <ele>235.6</ele>
        <time>2022-02-24T14:02:50Z</time>
      </trkpt>
      <trkpt lat="45.90595" lon="5.19456">
        <ele>235.8</ele>
        <time>2022-02-24T14:02:51Z</time>
      </trkpt>
      <trkpt lat="45.90597" lon="5.19457">
        <ele>236.2</ele>
        <time>2022-02-24T14:02:52Z</time>
      </trkpt>
      <trkpt lat="45.90601" lon="5.19459">
        <ele>236.4</ele>
        <time>2022-02-24T14:02:53Z</time>
      </trkpt>
      <trkpt lat="45.90604" lon="5.19461">
        <ele>236.6</ele>
        <time>2022-02-24T14:02:54Z</time>
      </trkpt>
      <trkpt lat="45.90608" lon="5.19463">
        <ele>237</ele>
        <time>2022-02-24T14:02:55Z</time>
      </trkpt>
      <trkpt lat="45.90611" lon="5.19465">
        <ele>237</ele>
        <time>2022-02-24T14:02:56Z</time>
      </trkpt>
      <trkpt lat="45.90615" lon="5.19467">
        <ele>237.2</ele>
        <time>2022-02-24T14:02:57Z</time>
      </trkpt>
      <trkpt lat="45.90618" lon="5.19469">
        <ele>237.6</ele>
        <time>2022-02-24T14:02:58Z</time>
      </trkpt>
      <trkpt lat="45.90621" lon="5.1947">
        <ele>237.8</ele>
        <time>2022-02-24T14:02:59Z</time>
      </trkpt>
      <trkpt lat="45.90625" lon="5.19472">
        <ele>237.8</ele>
        <time>2022-02-24T14:03:00Z</time>
      </trkpt>
      <trkpt lat="45.90628" lon="5.19473">
        <ele>238.2</ele>
        <time>2022-02-24T14:03:01Z</time>
      </trkpt>
      <trkpt lat="45.90632" lon="5.19474">
        <ele>238.2</ele>
        <time>2022-02-24T14:03:02Z</time>
      </trkpt>
      <trkpt lat="45.90635" lon="5.19475">
        <ele>238.4</ele>
        <time>2022-02-24T14:03:03Z</time>
      </trkpt>
      <trkpt lat="45.90638" lon="5.19476">
        <ele>238.8</ele>
        <time>2022-02-24T14:03:04Z</time>
      </trkpt>
      <trkpt lat="45.90642" lon="5.19477">
        <ele>238.8</ele>
        <time>2022-02-24T14:03:05Z</time>
      </trkpt>
      <trkpt lat="45.90645" lon="5.19478">
        <ele>239</ele>
        <time>2022-02-24T14:03:06Z</time>
      </trkpt>
      <trkpt lat="45.90649" lon="5.19479">
        <ele>239.4</ele>
        <time>2022-02-24T14:03:07Z</time>
      </trkpt>
      <trkpt lat="45.90652" lon="5.1948">
        <ele>239.6</ele>
        <time>2022-02-24T14:03:08Z</time>
      </trkpt>
      <trkpt lat="45.90655" lon="5.19481">
        <ele>240</ele>
        <time>2022-02-24T14:03:09Z</time>
      </trkpt>
      <trkpt lat="45.90658" lon="5.19482">
        <ele>240.2</ele>
        <time>2022-02-24T14:03:10Z</time>
      </trkpt>
      <trkpt lat="45.90662" lon="5.19482">
        <ele>240.4</ele>
        <time>2022-02-24T14:03:11Z</time>
      </trkpt>
      <trkpt lat="45.90666" lon="5.19483">
        <ele>240.6</ele>
        <time>2022-02-24T14:03:12Z</time>
      </trkpt>
      <trkpt lat="45.9067" lon="5.19484">
        <ele>240.8</ele>
        <time>2022-02-24T14:03:13Z</time>
      </trkpt>
      <trkpt lat="45.90673" lon="5.19485">
        <ele>241.2</ele>
        <time>2022-02-24T14:03:14Z</time>
      </trkpt>
      <trkpt lat="45.90677" lon="5.19486">
        <ele>241.4</ele>
        <time>2022-02-24T14:03:15Z</time>
      </trkpt>
      <trkpt lat="45.90681" lon="5.19486">
        <ele>241.4</ele>
        <time>2022-02-24T14:03:16Z</time>
      </trkpt>
      <trkpt lat="45.90684" lon="5.19487">
        <ele>241.8</ele>
        <time>2022-02-24T14:03:17Z</time>
      </trkpt>
      <trkpt lat="45.90688" lon="5.19487">
        <ele>241.8</ele>
        <time>2022-02-24T14:03:18Z</time>
      </trkpt>
      <trkpt lat="45.90692" lon="5.19488">
        <ele>242</ele>
        <time>2022-02-24T14:03:19Z</time>
      </trkpt>
      <trkpt lat="45.90696" lon="5.19489">
        <ele>242</ele>
        <time>2022-02-24T14:03:20Z</time>
      </trkpt>
      <trkpt lat="45.90701" lon="5.19489">
        <ele>242.4</ele>
        <time>2022-02-24T14:03:21Z</time>
      </trkpt>
      <trkpt lat="45.90705" lon="5.1949">
        <ele>242.6</ele>
        <time>2022-02-24T14:03:22Z</time>
      </trkpt>
      <trkpt lat="45.90709" lon="5.19491">
        <ele>242.6</ele>
        <time>2022-02-24T14:03:23Z</time>
      </trkpt>
      <trkpt lat="45.90712" lon="5.19491">
        <ele>242.8</ele>
        <time>2022-02-24T14:03:24Z</time>
      </trkpt>
      <trkpt lat="45.90716" lon="5.19492">
        <ele>242.8</ele>
        <time>2022-02-24T14:03:25Z</time>
      </trkpt>
      <trkpt lat="45.9072" lon="5.19492">
        <ele>243.2</ele>
        <time>2022-02-24T14:03:26Z</time>
      </trkpt>
      <trkpt lat="45.90724" lon="5.19492">
        <ele>243.2</ele>
        <time>2022-02-24T14:03:27Z</time>
      </trkpt>
      <trkpt lat="45.90728" lon="5.19492">
        <ele>243.4</ele>
        <time>2022-02-24T14:03:28Z</time>
      </trkpt>
      <trkpt lat="45.90732" lon="5.19492">
        <ele>243.4</ele>
        <time>2022-02-24T14:03:29Z</time>
      </trkpt>
      <trkpt lat="45.90736" lon="5.19492">
        <ele>243.4</ele>
        <time>2022-02-24T14:03:30Z</time>
      </trkpt>
      <trkpt lat="45.9074" lon="5.19492">
        <ele>243.8</ele>
        <time>2022-02-24T14:03:31Z</time>
      </trkpt>
      <trkpt lat="45.90744" lon="5.19492">
        <ele>244</ele>
        <time>2022-02-24T14:03:32Z</time>
      </trkpt>
      <trkpt lat="45.90748" lon="5.19492">
        <ele>244</ele>
        <time>2022-02-24T14:03:33Z</time>
      </trkpt>
      <trkpt lat="45.90752" lon="5.19492">
        <ele>244.2</ele>
        <time>2022-02-24T14:03:34Z</time>
      </trkpt>
      <trkpt lat="45.90756" lon="5.19491">
        <ele>244.2</ele>
        <time>2022-02-24T14:03:35Z</time>
      </trkpt>
      <trkpt lat="45.9076" lon="5.19491">
        <ele>244.6</ele>
        <time>2022-02-24T14:03:36Z</time>
      </trkpt>
      <trkpt lat="45.90764" lon="5.19491">
        <ele>244.6</ele>
        <time>2022-02-24T14:03:37Z</time>
      </trkpt>
      <trkpt lat="45.90768" lon="5.1949">
        <ele>244.6</ele>
        <time>2022-02-24T14:03:38Z</time>
      </trkpt>
      <trkpt lat="45.90772" lon="5.1949">
        <ele>244.8</ele>
        <time>2022-02-24T14:03:39Z</time>
      </trkpt>
      <trkpt lat="45.90776" lon="5.1949">
        <ele>245</ele>
        <time>2022-02-24T14:03:40Z</time>
      </trkpt>
      <trkpt lat="45.90781" lon="5.1949">
        <ele>245</ele>
        <time>2022-02-24T14:03:41Z</time>
      </trkpt>
      <trkpt lat="45.90785" lon="5.1949">
        <ele>245</ele>
        <time>2022-02-24T14:03:42Z</time>
      </trkpt>
      <trkpt lat="45.90789" lon="5.19489">
        <ele>245.4</ele>
        <time>2022-02-24T14:03:43Z</time>
      </trkpt>
      <trkpt lat="45.90792" lon="5.19489">
        <ele>245.4</ele>
        <time>2022-02-24T14:03:44Z</time>
      </trkpt>
      <trkpt lat="45.90797" lon="5.19489">
        <ele>245.8</ele>
        <time>2022-02-24T14:03:45Z</time>
      </trkpt>
      <trkpt lat="45.90801" lon="5.19489">
        <ele>245.8</ele>
        <time>2022-02-24T14:03:46Z</time>
      </trkpt>
      <trkpt lat="45.90805" lon="5.19488">
        <ele>246</ele>
        <time>2022-02-24T14:03:47Z</time>
      </trkpt>
      <trkpt lat="45.90808" lon="5.19488">
        <ele>246</ele>
        <time>2022-02-24T14:03:48Z</time>
      </trkpt>
      <trkpt lat="45.90812" lon="5.19487">
        <ele>246.2</ele>
        <time>2022-02-24T14:03:49Z</time>
      </trkpt>
      <trkpt lat="45.90817" lon="5.19486">
        <ele>246.2</ele>
        <time>2022-02-24T14:03:50Z</time>
      </trkpt>
      <trkpt lat="45.90821" lon="5.19486">
        <ele>246.6</ele>
        <time>2022-02-24T14:03:51Z</time>
      </trkpt>
      <trkpt lat="45.90825" lon="5.19486">
        <ele>246.6</ele>
        <time>2022-02-24T14:03:52Z</time>
      </trkpt>
      <trkpt lat="45.9083" lon="5.19485">
        <ele>246.8</ele>
        <time>2022-02-24T14:03:53Z</time>
      </trkpt>
      <trkpt lat="45.90834" lon="5.19485">
        <ele>246.8</ele>
        <time>2022-02-24T14:03:54Z</time>
      </trkpt>
      <trkpt lat="45.90838" lon="5.19484">
        <ele>247</ele>
        <time>2022-02-24T14:03:55Z</time>
      </trkpt>
      <trkpt lat="45.90842" lon="5.19484">
        <ele>247</ele>
        <time>2022-02-24T14:03:56Z</time>
      </trkpt>
      <trkpt lat="45.90846" lon="5.19484">
        <ele>247.4</ele>
        <time>2022-02-24T14:03:57Z</time>
      </trkpt>
      <trkpt lat="45.9085" lon="5.19484">
        <ele>247.8</ele>
        <time>2022-02-24T14:03:58Z</time>
      </trkpt>
      <trkpt lat="45.90853" lon="5.19484">
        <ele>247.8</ele>
        <time>2022-02-24T14:03:59Z</time>
      </trkpt>
      <trkpt lat="45.90857" lon="5.19484">
        <ele>248.2</ele>
        <time>2022-02-24T14:04:00Z</time>
      </trkpt>
      <trkpt lat="45.90861" lon="5.19484">
        <ele>248.4</ele>
        <time>2022-02-24T14:04:01Z</time>
      </trkpt>
      <trkpt lat="45.90865" lon="5.19484">
        <ele>248.6</ele>
        <time>2022-02-24T14:04:02Z</time>
      </trkpt>
      <trkpt lat="45.90869" lon="5.19484">
        <ele>248.8</ele>
        <time>2022-02-24T14:04:03Z</time>
      </trkpt>
      <trkpt lat="45.90873" lon="5.19484">
        <ele>248.8</ele>
        <time>2022-02-24T14:04:04Z</time>
      </trkpt>
      <trkpt lat="45.90877" lon="5.19484">
        <ele>249.2</ele>
        <time>2022-02-24T14:04:05Z</time>
      </trkpt>
      <trkpt lat="45.90881" lon="5.19485">
        <ele>249.2</ele>
        <time>2022-02-24T14:04:06Z</time>
      </trkpt>
      <trkpt lat="45.90885" lon="5.19485">
        <ele>249.6</ele>
        <time>2022-02-24T14:04:07Z</time>
      </trkpt>
      <trkpt lat="45.90889" lon="5.19485">
        <ele>249.6</ele>
        <time>2022-02-24T14:04:08Z</time>
      </trkpt>
      <trkpt lat="45.90893" lon="5.19485">
        <ele>250</ele>
        <time>2022-02-24T14:04:09Z</time>
      </trkpt>
      <trkpt lat="45.90897" lon="5.19485">
        <ele>250.2</ele>
        <time>2022-02-24T14:04:10Z</time>
      </trkpt>
      <trkpt lat="45.90901" lon="5.19486">
        <ele>250.4</ele>
        <time>2022-02-24T14:04:11Z</time>
      </trkpt>
      <trkpt lat="45.90905" lon="5.19486">
        <ele>250.4</ele>
        <time>2022-02-24T14:04:12Z</time>
      </trkpt>
      <trkpt lat="45.90909" lon="5.19486">
        <ele>250.8</ele>
        <time>2022-02-24T14:04:13Z</time>
      </trkpt>
      <trkpt lat="45.90913" lon="5.19486">
        <ele>250.8</ele>
        <time>2022-02-24T14:04:14Z</time>
      </trkpt>
      <trkpt lat="45.90917" lon="5.19486">
        <ele>251</ele>
        <time>2022-02-24T14:04:15Z</time>
      </trkpt>
      <trkpt lat="45.9092" lon="5.19486">
        <ele>251</ele>
        <time>2022-02-24T14:04:16Z</time>
      </trkpt>
      <trkpt lat="45.90924" lon="5.19486">
        <ele>251.4</ele>
        <time>2022-02-24T14:04:17Z</time>
      </trkpt>
      <trkpt lat="45.90928" lon="5.19485">
        <ele>251.4</ele>
        <time>2022-02-24T14:04:18Z</time>
      </trkpt>
      <trkpt lat="45.90932" lon="5.19485">
        <ele>251.8</ele>
        <time>2022-02-24T14:04:19Z</time>
      </trkpt>
      <trkpt lat="45.90935" lon="5.19485">
        <ele>252</ele>
        <time>2022-02-24T14:04:20Z</time>
      </trkpt>
      <trkpt lat="45.90939" lon="5.19485">
        <ele>252.2</ele>
        <time>2022-02-24T14:04:21Z</time>
      </trkpt>
      <trkpt lat="45.90942" lon="5.19485">
        <ele>252.4</ele>
        <time>2022-02-24T14:04:22Z</time>
      </trkpt>
      <trkpt lat="45.90946" lon="5.19485">
        <ele>252.6</ele>
        <time>2022-02-24T14:04:23Z</time>
      </trkpt>
      <trkpt lat="45.90949" lon="5.19484">
        <ele>253</ele>
        <time>2022-02-24T14:04:24Z</time>
      </trkpt>
      <trkpt lat="45.90953" lon="5.19484">
        <ele>253.2</ele>
        <time>2022-02-24T14:04:25Z</time>
      </trkpt>
      <trkpt lat="45.90957" lon="5.19484">
        <ele>253.2</ele>
        <time>2022-02-24T14:04:26Z</time>
      </trkpt>
      <trkpt lat="45.9096" lon="5.19484">
        <ele>253.4</ele>
        <time>2022-02-24T14:04:27Z</time>
      </trkpt>
      <trkpt lat="45.90964" lon="5.19483">
        <ele>253.4</ele>
        <time>2022-02-24T14:04:28Z</time>
      </trkpt>
      <trkpt lat="45.90967" lon="5.19483">
        <ele>253.8</ele>
        <time>2022-02-24T14:04:29Z</time>
      </trkpt>
      <trkpt lat="45.90971" lon="5.19483">
        <ele>253.8</ele>
        <time>2022-02-24T14:04:30Z</time>
      </trkpt>
      <trkpt lat="45.90975" lon="5.19483">
        <ele>254.2</ele>
        <time>2022-02-24T14:04:31Z</time>
      </trkpt>
      <trkpt lat="45.90978" lon="5.19482">
        <ele>254.2</ele>
        <time>2022-02-24T14:04:32Z</time>
      </trkpt>
      <trkpt lat="45.90982" lon="5.19482">
        <ele>254.4</ele>
        <time>2022-02-24T14:04:33Z</time>
      </trkpt>
      <trkpt lat="45.90985" lon="5.19482">
        <ele>254.8</ele>
        <time>2022-02-24T14:04:34Z</time>
      </trkpt>
      <trkpt lat="45.90988" lon="5.19481">
        <ele>254.8</ele>
        <time>2022-02-24T14:04:35Z</time>
      </trkpt>
      <trkpt lat="45.90991" lon="5.1948">
        <ele>255.2</ele>
        <time>2022-02-24T14:04:36Z</time>
      </trkpt>
      <trkpt lat="45.90995" lon="5.1948">
        <ele>255.2</ele>
        <time>2022-02-24T14:04:37Z</time>
      </trkpt>
      <trkpt lat="45.90998" lon="5.19479">
        <ele>255.6</ele>
        <time>2022-02-24T14:04:38Z</time>
      </trkpt>
      <trkpt lat="45.91001" lon="5.19478">
        <ele>255.6</ele>
        <time>2022-02-24T14:04:39Z</time>
      </trkpt>
      <trkpt lat="45.91005" lon="5.19478">
        <ele>256</ele>
        <time>2022-02-24T14:04:40Z</time>
      </trkpt>
      <trkpt lat="45.91008" lon="5.19477">
        <ele>256.2</ele>
        <time>2022-02-24T14:04:41Z</time>
      </trkpt>
      <trkpt lat="45.91011" lon="5.19476">
        <ele>256.2</ele>
        <time>2022-02-24T14:04:42Z</time>
      </trkpt>
      <trkpt lat="45.91015" lon="5.19475">
        <ele>256.6</ele>
        <time>2022-02-24T14:04:43Z</time>
      </trkpt>
      <trkpt lat="45.91018" lon="5.19474">
        <ele>256.6</ele>
        <time>2022-02-24T14:04:44Z</time>
      </trkpt>
      <trkpt lat="45.91021" lon="5.19474">
        <ele>257</ele>
        <time>2022-02-24T14:04:45Z</time>
      </trkpt>
      <trkpt lat="45.91025" lon="5.19474">
        <ele>257</ele>
        <time>2022-02-24T14:04:46Z</time>
      </trkpt>
      <trkpt lat="45.91028" lon="5.19473">
        <ele>257.4</ele>
        <time>2022-02-24T14:04:47Z</time>
      </trkpt>
      <trkpt lat="45.91031" lon="5.19472">
        <ele>257.6</ele>
        <time>2022-02-24T14:04:48Z</time>
      </trkpt>
      <trkpt lat="45.91034" lon="5.19471">
        <ele>258</ele>
        <time>2022-02-24T14:04:49Z</time>
      </trkpt>
      <trkpt lat="45.91037" lon="5.19469">
        <ele>258.2</ele>
        <time>2022-02-24T14:04:50Z</time>
      </trkpt>
      <trkpt lat="45.9104" lon="5.19468">
        <ele>258.2</ele>
        <time>2022-02-24T14:04:51Z</time>
      </trkpt>
      <trkpt lat="45.91043" lon="5.19467">
        <ele>258.4</ele>
        <time>2022-02-24T14:04:52Z</time>
      </trkpt>
      <trkpt lat="45.91046" lon="5.19465">
        <ele>258.8</ele>
        <time>2022-02-24T14:04:53Z</time>
      </trkpt>
      <trkpt lat="45.91049" lon="5.19464">
        <ele>259</ele>
        <time>2022-02-24T14:04:54Z</time>
      </trkpt>
      <trkpt lat="45.91052" lon="5.19463">
        <ele>259.2</ele>
        <time>2022-02-24T14:04:55Z</time>
      </trkpt>
      <trkpt lat="45.91055" lon="5.19461">
        <ele>259.2</ele>
        <time>2022-02-24T14:04:56Z</time>
      </trkpt>
      <trkpt lat="45.91058" lon="5.1946">
        <ele>259.6</ele>
        <time>2022-02-24T14:04:57Z</time>
      </trkpt>
      <trkpt lat="45.91061" lon="5.19459">
        <ele>259.6</ele>
        <time>2022-02-24T14:04:58Z</time>
      </trkpt>
      <trkpt lat="45.91064" lon="5.19457">
        <ele>259.8</ele>
        <time>2022-02-24T14:04:59Z</time>
      </trkpt>
      <trkpt lat="45.91067" lon="5.19456">
        <ele>259.8</ele>
        <time>2022-02-24T14:05:00Z</time>
      </trkpt>
      <trkpt lat="45.9107" lon="5.19455">
        <ele>260.2</ele>
        <time>2022-02-24T14:05:01Z</time>
      </trkpt>
      <trkpt lat="45.91074" lon="5.19454">
        <ele>260.2</ele>
        <time>2022-02-24T14:05:02Z</time>
      </trkpt>
      <trkpt lat="45.91077" lon="5.19452">
        <ele>260.6</ele>
        <time>2022-02-24T14:05:03Z</time>
      </trkpt>
      <trkpt lat="45.91081" lon="5.19451">
        <ele>260.6</ele>
        <time>2022-02-24T14:05:04Z</time>
      </trkpt>
      <trkpt lat="45.91084" lon="5.1945">
        <ele>261</ele>
        <time>2022-02-24T14:05:05Z</time>
      </trkpt>
      <trkpt lat="45.91088" lon="5.19448">
        <ele>261.2</ele>
        <time>2022-02-24T14:05:06Z</time>
      </trkpt>
      <trkpt lat="45.91091" lon="5.19447">
        <ele>261.2</ele>
        <time>2022-02-24T14:05:07Z</time>
      </trkpt>
      <trkpt lat="45.91094" lon="5.19445">
        <ele>261.6</ele>
        <time>2022-02-24T14:05:08Z</time>
      </trkpt>
      <trkpt lat="45.91098" lon="5.19444">
        <ele>261.8</ele>
        <time>2022-02-24T14:05:09Z</time>
      </trkpt>
      <trkpt lat="45.91101" lon="5.19442">
        <ele>261.8</ele>
        <time>2022-02-24T14:05:10Z</time>
      </trkpt>
      <trkpt lat="45.91105" lon="5.1944">
        <ele>262.2</ele>
        <time>2022-02-24T14:05:11Z</time>
      </trkpt>
      <trkpt lat="45.91109" lon="5.19439">
        <ele>262.2</ele>
        <time>2022-02-24T14:05:12Z</time>
      </trkpt>
      <trkpt lat="45.91113" lon="5.19438">
        <ele>262.6</ele>
        <time>2022-02-24T14:05:13Z</time>
      </trkpt>
      <trkpt lat="45.91117" lon="5.19436">
        <ele>262.6</ele>
        <time>2022-02-24T14:05:14Z</time>
      </trkpt>
      <trkpt lat="45.9112" lon="5.19435">
        <ele>263</ele>
        <time>2022-02-24T14:05:15Z</time>
      </trkpt>
      <trkpt lat="45.91124" lon="5.19434">
        <ele>263</ele>
        <time>2022-02-24T14:05:16Z</time>
      </trkpt>
      <trkpt lat="45.91127" lon="5.19432">
        <ele>263.2</ele>
        <time>2022-02-24T14:05:17Z</time>
      </trkpt>
      <trkpt lat="45.9113" lon="5.1943">
        <ele>263.2</ele>
        <time>2022-02-24T14:05:18Z</time>
      </trkpt>
      <trkpt lat="45.91133" lon="5.19428">
        <ele>263.6</ele>
        <time>2022-02-24T14:05:19Z</time>
      </trkpt>
      <trkpt lat="45.91136" lon="5.19426">
        <ele>263.6</ele>
        <time>2022-02-24T14:05:20Z</time>
      </trkpt>
      <trkpt lat="45.91139" lon="5.19424">
        <ele>263.8</ele>
        <time>2022-02-24T14:05:21Z</time>
      </trkpt>
      <trkpt lat="45.91143" lon="5.19423">
        <ele>263.8</ele>
        <time>2022-02-24T14:05:22Z</time>
      </trkpt>
      <trkpt lat="45.91146" lon="5.19421">
        <ele>264</ele>
        <time>2022-02-24T14:05:23Z</time>
      </trkpt>
      <trkpt lat="45.91149" lon="5.19419">
        <ele>264</ele>
        <time>2022-02-24T14:05:24Z</time>
      </trkpt>
      <trkpt lat="45.91153" lon="5.19417">
        <ele>264.4</ele>
        <time>2022-02-24T14:05:25Z</time>
      </trkpt>
      <trkpt lat="45.91157" lon="5.19415">
        <ele>264.4</ele>
        <time>2022-02-24T14:05:26Z</time>
      </trkpt>
      <trkpt lat="45.91162" lon="5.19413">
        <ele>264.4</ele>
        <time>2022-02-24T14:05:27Z</time>
      </trkpt>
      <trkpt lat="45.91165" lon="5.19412">
        <ele>264.6</ele>
        <time>2022-02-24T14:05:28Z</time>
      </trkpt>
      <trkpt lat="45.91169" lon="5.1941">
        <ele>264.8</ele>
        <time>2022-02-24T14:05:29Z</time>
      </trkpt>
      <trkpt lat="45.91172" lon="5.19409">
        <ele>264.8</ele>
        <time>2022-02-24T14:05:30Z</time>
      </trkpt>
      <trkpt lat="45.91176" lon="5.19407">
        <ele>264.8</ele>
        <time>2022-02-24T14:05:31Z</time>
      </trkpt>
      <trkpt lat="45.91179" lon="5.19405">
        <ele>265</ele>
        <time>2022-02-24T14:05:32Z</time>
      </trkpt>
      <trkpt lat="45.91182" lon="5.19403">
        <ele>265</ele>
        <time>2022-02-24T14:05:33Z</time>
      </trkpt>
      <trkpt lat="45.91186" lon="5.19401">
        <ele>265.4</ele>
        <time>2022-02-24T14:05:34Z</time>
      </trkpt>
      <trkpt lat="45.91189" lon="5.19399">
        <ele>265.4</ele>
        <time>2022-02-24T14:05:35Z</time>
      </trkpt>
      <trkpt lat="45.91192" lon="5.19397">
        <ele>265.6</ele>
        <time>2022-02-24T14:05:36Z</time>
      </trkpt>
      <trkpt lat="45.91196" lon="5.19395">
        <ele>265.6</ele>
        <time>2022-02-24T14:05:37Z</time>
      </trkpt>
      <trkpt lat="45.912" lon="5.19393">
        <ele>265.6</ele>
        <time>2022-02-24T14:05:38Z</time>
      </trkpt>
      <trkpt lat="45.91203" lon="5.19391">
        <ele>265.8</ele>
        <time>2022-02-24T14:05:39Z</time>
      </trkpt>
      <trkpt lat="45.91206" lon="5.19389">
        <ele>265.8</ele>
        <time>2022-02-24T14:05:40Z</time>
      </trkpt>
      <trkpt lat="45.91209" lon="5.19387">
        <ele>265.8</ele>
        <time>2022-02-24T14:05:41Z</time>
      </trkpt>
      <trkpt lat="45.91213" lon="5.19384">
        <ele>266</ele>
        <time>2022-02-24T14:05:42Z</time>
      </trkpt>
      <trkpt lat="45.91216" lon="5.19381">
        <ele>266</ele>
        <time>2022-02-24T14:05:43Z</time>
      </trkpt>
      <trkpt lat="45.91219" lon="5.19378">
        <ele>266.4</ele>
        <time>2022-02-24T14:05:44Z</time>
      </trkpt>
      <trkpt lat="45.91221" lon="5.19376">
        <ele>266.4</ele>
        <time>2022-02-24T14:05:45Z</time>
      </trkpt>
      <trkpt lat="45.91224" lon="5.19373">
        <ele>266.4</ele>
        <time>2022-02-24T14:05:46Z</time>
      </trkpt>
      <trkpt lat="45.91226" lon="5.19371">
        <ele>266.6</ele>
        <time>2022-02-24T14:05:47Z</time>
      </trkpt>
      <trkpt lat="45.91229" lon="5.19369">
        <ele>266.6</ele>
        <time>2022-02-24T14:05:48Z</time>
      </trkpt>
      <trkpt lat="45.91232" lon="5.19366">
        <ele>266.8</ele>
        <time>2022-02-24T14:05:49Z</time>
      </trkpt>
      <trkpt lat="45.91235" lon="5.19364">
        <ele>266.8</ele>
        <time>2022-02-24T14:05:50Z</time>
      </trkpt>
      <trkpt lat="45.91239" lon="5.19362">
        <ele>267.2</ele>
        <time>2022-02-24T14:05:51Z</time>
      </trkpt>
      <trkpt lat="45.91243" lon="5.19362">
        <ele>267.2</ele>
        <time>2022-02-24T14:05:52Z</time>
      </trkpt>
      <trkpt lat="45.91246" lon="5.19363">
        <ele>267.4</ele>
        <time>2022-02-24T14:05:53Z</time>
      </trkpt>
      <trkpt lat="45.9125" lon="5.19365">
        <ele>267.4</ele>
        <time>2022-02-24T14:05:54Z</time>
      </trkpt>
      <trkpt lat="45.91254" lon="5.19366">
        <ele>267.6</ele>
        <time>2022-02-24T14:05:55Z</time>
      </trkpt>
      <trkpt lat="45.91258" lon="5.19365">
        <ele>267.6</ele>
        <time>2022-02-24T14:05:56Z</time>
      </trkpt>
      <trkpt lat="45.91261" lon="5.19364">
        <ele>267.6</ele>
        <time>2022-02-24T14:05:57Z</time>
      </trkpt>
      <trkpt lat="45.91265" lon="5.19361">
        <ele>267.6</ele>
        <time>2022-02-24T14:05:58Z</time>
      </trkpt>
      <trkpt lat="45.91268" lon="5.19358">
        <ele>267.6</ele>
        <time>2022-02-24T14:05:59Z</time>
      </trkpt>
      <trkpt lat="45.9127" lon="5.19355">
        <ele>267.8</ele>
        <time>2022-02-24T14:06:00Z</time>
      </trkpt>
      <trkpt lat="45.91273" lon="5.19351">
        <ele>267.8</ele>
        <time>2022-02-24T14:06:01Z</time>
      </trkpt>
      <trkpt lat="45.91275" lon="5.19347">
        <ele>267.8</ele>
        <time>2022-02-24T14:06:02Z</time>
      </trkpt>
      <trkpt lat="45.91278" lon="5.19343">
        <ele>268.2</ele>
        <time>2022-02-24T14:06:03Z</time>
      </trkpt>
      <trkpt lat="45.91281" lon="5.19339">
        <ele>268.2</ele>
        <time>2022-02-24T14:06:04Z</time>
      </trkpt>
      <trkpt lat="45.91284" lon="5.19337">
        <ele>268.4</ele>
        <time>2022-02-24T14:06:05Z</time>
      </trkpt>
      <trkpt lat="45.91288" lon="5.19335">
        <ele>268.4</ele>
        <time>2022-02-24T14:06:06Z</time>
      </trkpt>
      <trkpt lat="45.91292" lon="5.19333">
        <ele>268.6</ele>
        <time>2022-02-24T14:06:07Z</time>
      </trkpt>
      <trkpt lat="45.91295" lon="5.19331">
        <ele>268.6</ele>
        <time>2022-02-24T14:06:08Z</time>
      </trkpt>
      <trkpt lat="45.91299" lon="5.19329">
        <ele>269</ele>
        <time>2022-02-24T14:06:09Z</time>
      </trkpt>
      <trkpt lat="45.91303" lon="5.19328">
        <ele>269</ele>
        <time>2022-02-24T14:06:10Z</time>
      </trkpt>
      <trkpt lat="45.91306" lon="5.19326">
        <ele>269.4</ele>
        <time>2022-02-24T14:06:11Z</time>
      </trkpt>
      <trkpt lat="45.9131" lon="5.19325">
        <ele>269.6</ele>
        <time>2022-02-24T14:06:12Z</time>
      </trkpt>
      <trkpt lat="45.91313" lon="5.19323">
        <ele>269.8</ele>
        <time>2022-02-24T14:06:13Z</time>
      </trkpt>
      <trkpt lat="45.91317" lon="5.19322">
        <ele>269.8</ele>
        <time>2022-02-24T14:06:14Z</time>
      </trkpt>
      <trkpt lat="45.9132" lon="5.1932">
        <ele>270</ele>
        <time>2022-02-24T14:06:15Z</time>
      </trkpt>
      <trkpt lat="45.91324" lon="5.19319">
        <ele>270</ele>
        <time>2022-02-24T14:06:16Z</time>
      </trkpt>
      <trkpt lat="45.91327" lon="5.19317">
        <ele>270.4</ele>
        <time>2022-02-24T14:06:17Z</time>
      </trkpt>
      <trkpt lat="45.9133" lon="5.19316">
        <ele>270.8</ele>
        <time>2022-02-24T14:06:18Z</time>
      </trkpt>
      <trkpt lat="45.91333" lon="5.19315">
        <ele>270.8</ele>
        <time>2022-02-24T14:06:19Z</time>
      </trkpt>
      <trkpt lat="45.91336" lon="5.19313">
        <ele>271.2</ele>
        <time>2022-02-24T14:06:20Z</time>
      </trkpt>
      <trkpt lat="45.9134" lon="5.19312">
        <ele>271.4</ele>
        <time>2022-02-24T14:06:21Z</time>
      </trkpt>
      <trkpt lat="45.91343" lon="5.19311">
        <ele>271.6</ele>
        <time>2022-02-24T14:06:22Z</time>
      </trkpt>
      <trkpt lat="45.91347" lon="5.19309">
        <ele>271.8</ele>
        <time>2022-02-24T14:06:23Z</time>
      </trkpt>
      <trkpt lat="45.91351" lon="5.19308">
        <ele>272.2</ele>
        <time>2022-02-24T14:06:24Z</time>
      </trkpt>
      <trkpt lat="45.91354" lon="5.19307">
        <ele>272.2</ele>
        <time>2022-02-24T14:06:25Z</time>
      </trkpt>
      <trkpt lat="45.91358" lon="5.19306">
        <ele>272.4</ele>
        <time>2022-02-24T14:06:26Z</time>
      </trkpt>
      <trkpt lat="45.91361" lon="5.19305">
        <ele>272.4</ele>
        <time>2022-02-24T14:06:27Z</time>
      </trkpt>
      <trkpt lat="45.91365" lon="5.19304">
        <ele>272.8</ele>
        <time>2022-02-24T14:06:28Z</time>
      </trkpt>
      <trkpt lat="45.91369" lon="5.19303">
        <ele>272.8</ele>
        <time>2022-02-24T14:06:29Z</time>
      </trkpt>
      <trkpt lat="45.91373" lon="5.19302">
        <ele>273.2</ele>
        <time>2022-02-24T14:06:30Z</time>
      </trkpt>
      <trkpt lat="45.91376" lon="5.19302">
        <ele>273.4</ele>
        <time>2022-02-24T14:06:31Z</time>
      </trkpt>
      <trkpt lat="45.9138" lon="5.19301">
        <ele>273.4</ele>
        <time>2022-02-24T14:06:32Z</time>
      </trkpt>
      <trkpt lat="45.91383" lon="5.19299">
        <ele>273.8</ele>
        <time>2022-02-24T14:06:33Z</time>
      </trkpt>
      <trkpt lat="45.91387" lon="5.19298">
        <ele>274</ele>
        <time>2022-02-24T14:06:34Z</time>
      </trkpt>
      <trkpt lat="45.91391" lon="5.19298">
        <ele>274.2</ele>
        <time>2022-02-24T14:06:35Z</time>
      </trkpt>
      <trkpt lat="45.91394" lon="5.19297">
        <ele>274.4</ele>
        <time>2022-02-24T14:06:36Z</time>
      </trkpt>
      <trkpt lat="45.91398" lon="5.19295">
        <ele>274.4</ele>
        <time>2022-02-24T14:06:37Z</time>
      </trkpt>
      <trkpt lat="45.91401" lon="5.19293">
        <ele>274.8</ele>
        <time>2022-02-24T14:06:38Z</time>
      </trkpt>
      <trkpt lat="45.91404" lon="5.19291">
        <ele>275</ele>
        <time>2022-02-24T14:06:39Z</time>
      </trkpt>
      <trkpt lat="45.91407" lon="5.1929">
        <ele>275.2</ele>
        <time>2022-02-24T14:06:40Z</time>
      </trkpt>
      <trkpt lat="45.9141" lon="5.19289">
        <ele>275.4</ele>
        <time>2022-02-24T14:06:41Z</time>
      </trkpt>
      <trkpt lat="45.91413" lon="5.19287">
        <ele>275.6</ele>
        <time>2022-02-24T14:06:42Z</time>
      </trkpt>
      <trkpt lat="45.91416" lon="5.19286">
        <ele>275.8</ele>
        <time>2022-02-24T14:06:43Z</time>
      </trkpt>
      <trkpt lat="45.91419" lon="5.19284">
        <ele>276.2</ele>
        <time>2022-02-24T14:06:44Z</time>
      </trkpt>
      <trkpt lat="45.91422" lon="5.19282">
        <ele>276.4</ele>
        <time>2022-02-24T14:06:45Z</time>
      </trkpt>
      <trkpt lat="45.91426" lon="5.19281">
        <ele>276.6</ele>
        <time>2022-02-24T14:06:46Z</time>
      </trkpt>
      <trkpt lat="45.91429" lon="5.19279">
        <ele>276.8</ele>
        <time>2022-02-24T14:06:47Z</time>
      </trkpt>
      <trkpt lat="45.91432" lon="5.19278">
        <ele>276.8</ele>
        <time>2022-02-24T14:06:48Z</time>
      </trkpt>
      <trkpt lat="45.91435" lon="5.19276">
        <ele>277.2</ele>
        <time>2022-02-24T14:06:49Z</time>
      </trkpt>
      <trkpt lat="45.91438" lon="5.19275">
        <ele>277.2</ele>
        <time>2022-02-24T14:06:50Z</time>
      </trkpt>
      <trkpt lat="45.91441" lon="5.19273">
        <ele>277.4</ele>
        <time>2022-02-24T14:06:51Z</time>
      </trkpt>
      <trkpt lat="45.91444" lon="5.19272">
        <ele>277.6</ele>
        <time>2022-02-24T14:06:52Z</time>
      </trkpt>
      <trkpt lat="45.91448" lon="5.19271">
        <ele>277.6</ele>
        <time>2022-02-24T14:06:53Z</time>
      </trkpt>
      <trkpt lat="45.91451" lon="5.19269">
        <ele>278</ele>
        <time>2022-02-24T14:06:54Z</time>
      </trkpt>
      <trkpt lat="45.91454" lon="5.19267">
        <ele>278</ele>
        <time>2022-02-24T14:06:55Z</time>
      </trkpt>
      <trkpt lat="45.91457" lon="5.19266">
        <ele>278.4</ele>
        <time>2022-02-24T14:06:56Z</time>
      </trkpt>
      <trkpt lat="45.91461" lon="5.19265">
        <ele>278.6</ele>
        <time>2022-02-24T14:06:57Z</time>
      </trkpt>
      <trkpt lat="45.91464" lon="5.19263">
        <ele>278.6</ele>
        <time>2022-02-24T14:06:58Z</time>
      </trkpt>
      <trkpt lat="45.91467" lon="5.19262">
        <ele>278.8</ele>
        <time>2022-02-24T14:06:59Z</time>
      </trkpt>
      <trkpt lat="45.9147" lon="5.1926">
        <ele>278.8</ele>
        <time>2022-02-24T14:07:00Z</time>
      </trkpt>
      <trkpt lat="45.91474" lon="5.19258">
        <ele>279.2</ele>
        <time>2022-02-24T14:07:01Z</time>
      </trkpt>
      <trkpt lat="45.91477" lon="5.19256">
        <ele>279.2</ele>
        <time>2022-02-24T14:07:02Z</time>
      </trkpt>
      <trkpt lat="45.9148" lon="5.19254">
        <ele>279.4</ele>
        <time>2022-02-24T14:07:03Z</time>
      </trkpt>
      <trkpt lat="45.91483" lon="5.19253">
        <ele>279.4</ele>
        <time>2022-02-24T14:07:04Z</time>
      </trkpt>
      <trkpt lat="45.91487" lon="5.19251">
        <ele>279.6</ele>
        <time>2022-02-24T14:07:05Z</time>
      </trkpt>
      <trkpt lat="45.9149" lon="5.19249">
        <ele>279.6</ele>
        <time>2022-02-24T14:07:06Z</time>
      </trkpt>
      <trkpt lat="45.91493" lon="5.19247">
        <ele>280</ele>
        <time>2022-02-24T14:07:07Z</time>
      </trkpt>
      <trkpt lat="45.91496" lon="5.19245">
        <ele>280.4</ele>
        <time>2022-02-24T14:07:08Z</time>
      </trkpt>
      <trkpt lat="45.915" lon="5.19244">
        <ele>280.4</ele>
        <time>2022-02-24T14:07:09Z</time>
      </trkpt>
      <trkpt lat="45.91503" lon="5.19242">
        <ele>280.4</ele>
        <time>2022-02-24T14:07:10Z</time>
      </trkpt>
      <trkpt lat="45.91507" lon="5.1924">
        <ele>280.8</ele>
        <time>2022-02-24T14:07:11Z</time>
      </trkpt>
      <trkpt lat="45.9151" lon="5.19238">
        <ele>280.8</ele>
        <time>2022-02-24T14:07:12Z</time>
      </trkpt>
      <trkpt lat="45.91514" lon="5.19237">
        <ele>281.2</ele>
        <time>2022-02-24T14:07:13Z</time>
      </trkpt>
      <trkpt lat="45.91517" lon="5.19235">
        <ele>281.2</ele>
        <time>2022-02-24T14:07:14Z</time>
      </trkpt>
      <trkpt lat="45.91521" lon="5.19233">
        <ele>281.6</ele>
        <time>2022-02-24T14:07:15Z</time>
      </trkpt>
      <trkpt lat="45.91524" lon="5.19232">
        <ele>281.8</ele>
        <time>2022-02-24T14:07:16Z</time>
      </trkpt>
      <trkpt lat="45.91528" lon="5.1923">
        <ele>281.8</ele>
        <time>2022-02-24T14:07:17Z</time>
      </trkpt>
      <trkpt lat="45.91531" lon="5.19228">
        <ele>282</ele>
        <time>2022-02-24T14:07:18Z</time>
      </trkpt>
      <trkpt lat="45.91535" lon="5.19226">
        <ele>282</ele>
        <time>2022-02-24T14:07:19Z</time>
      </trkpt>
      <trkpt lat="45.91538" lon="5.19224">
        <ele>282.4</ele>
        <time>2022-02-24T14:07:20Z</time>
      </trkpt>
      <trkpt lat="45.91542" lon="5.19223">
        <ele>282.4</ele>
        <time>2022-02-24T14:07:21Z</time>
      </trkpt>
      <trkpt lat="45.91545" lon="5.19221">
        <ele>282.4</ele>
        <time>2022-02-24T14:07:22Z</time>
      </trkpt>
      <trkpt lat="45.91549" lon="5.19219">
        <ele>282.6</ele>
        <time>2022-02-24T14:07:23Z</time>
      </trkpt>
      <trkpt lat="45.91552" lon="5.19217">
        <ele>282.6</ele>
        <time>2022-02-24T14:07:24Z</time>
      </trkpt>
      <trkpt lat="45.91555" lon="5.19215">
        <ele>282.8</ele>
        <time>2022-02-24T14:07:25Z</time>
      </trkpt>
      <trkpt lat="45.91559" lon="5.19214">
        <ele>282.8</ele>
        <time>2022-02-24T14:07:26Z</time>
      </trkpt>
      <trkpt lat="45.91562" lon="5.19212">
        <ele>283</ele>
        <time>2022-02-24T14:07:27Z</time>
      </trkpt>
      <trkpt lat="45.91565" lon="5.19211">
        <ele>283.2</ele>
        <time>2022-02-24T14:07:28Z</time>
      </trkpt>
      <trkpt lat="45.91569" lon="5.1921">
        <ele>283.4</ele>
        <time>2022-02-24T14:07:29Z</time>
      </trkpt>
      <trkpt lat="45.91572" lon="5.19208">
        <ele>283.8</ele>
        <time>2022-02-24T14:07:30Z</time>
      </trkpt>
      <trkpt lat="45.91576" lon="5.19206">
        <ele>284</ele>
        <time>2022-02-24T14:07:31Z</time>
      </trkpt>
      <trkpt lat="45.91579" lon="5.19205">
        <ele>284.2</ele>
        <time>2022-02-24T14:07:32Z</time>
      </trkpt>
      <trkpt lat="45.91582" lon="5.19203">
        <ele>284.6</ele>
        <time>2022-02-24T14:07:33Z</time>
      </trkpt>
      <trkpt lat="45.91585" lon="5.19201">
        <ele>284.8</ele>
        <time>2022-02-24T14:07:34Z</time>
      </trkpt>
      <trkpt lat="45.91589" lon="5.192">
        <ele>284.8</ele>
        <time>2022-02-24T14:07:35Z</time>
      </trkpt>
      <trkpt lat="45.91592" lon="5.19199">
        <ele>285</ele>
        <time>2022-02-24T14:07:36Z</time>
      </trkpt>
      <trkpt lat="45.91595" lon="5.19197">
        <ele>285.2</ele>
        <time>2022-02-24T14:07:37Z</time>
      </trkpt>
      <trkpt lat="45.91598" lon="5.19195">
        <ele>285.2</ele>
        <time>2022-02-24T14:07:38Z</time>
      </trkpt>
      <trkpt lat="45.91601" lon="5.19194">
        <ele>285.6</ele>
        <time>2022-02-24T14:07:39Z</time>
      </trkpt>
      <trkpt lat="45.91603" lon="5.19192">
        <ele>285.8</ele>
        <time>2022-02-24T14:07:40Z</time>
      </trkpt>
      <trkpt lat="45.91606" lon="5.1919">
        <ele>286.2</ele>
        <time>2022-02-24T14:07:41Z</time>
      </trkpt>
      <trkpt lat="45.91609" lon="5.19188">
        <ele>286.4</ele>
        <time>2022-02-24T14:07:42Z</time>
      </trkpt>
      <trkpt lat="45.91612" lon="5.19187">
        <ele>286.6</ele>
        <time>2022-02-24T14:07:43Z</time>
      </trkpt>
      <trkpt lat="45.91615" lon="5.19185">
        <ele>286.8</ele>
        <time>2022-02-24T14:07:44Z</time>
      </trkpt>
      <trkpt lat="45.91618" lon="5.19184">
        <ele>286.8</ele>
        <time>2022-02-24T14:07:45Z</time>
      </trkpt>
      <trkpt lat="45.91621" lon="5.19182">
        <ele>287.2</ele>
        <time>2022-02-24T14:07:46Z</time>
      </trkpt>
      <trkpt lat="45.91624" lon="5.1918">
        <ele>287.2</ele>
        <time>2022-02-24T14:07:47Z</time>
      </trkpt>
      <trkpt lat="45.91627" lon="5.19179">
        <ele>287.6</ele>
        <time>2022-02-24T14:07:48Z</time>
      </trkpt>
      <trkpt lat="45.9163" lon="5.19177">
        <ele>287.6</ele>
        <time>2022-02-24T14:07:49Z</time>
      </trkpt>
      <trkpt lat="45.91632" lon="5.19176">
        <ele>287.8</ele>
        <time>2022-02-24T14:07:50Z</time>
      </trkpt>
      <trkpt lat="45.91635" lon="5.19174">
        <ele>287.8</ele>
        <time>2022-02-24T14:07:51Z</time>
      </trkpt>
      <trkpt lat="45.91638" lon="5.19172">
        <ele>288.2</ele>
        <time>2022-02-24T14:07:52Z</time>
      </trkpt>
      <trkpt lat="45.91642" lon="5.19171">
        <ele>288.6</ele>
        <time>2022-02-24T14:07:53Z</time>
      </trkpt>
      <trkpt lat="45.91645" lon="5.1917">
        <ele>288.6</ele>
        <time>2022-02-24T14:07:54Z</time>
      </trkpt>
      <trkpt lat="45.91648" lon="5.19168">
        <ele>288.8</ele>
        <time>2022-02-24T14:07:55Z</time>
      </trkpt>
      <trkpt lat="45.91652" lon="5.19167">
        <ele>288.8</ele>
        <time>2022-02-24T14:07:56Z</time>
      </trkpt>
      <trkpt lat="45.91655" lon="5.19165">
        <ele>289.2</ele>
        <time>2022-02-24T14:07:57Z</time>
      </trkpt>
      <trkpt lat="45.91659" lon="5.19163">
        <ele>289.4</ele>
        <time>2022-02-24T14:07:58Z</time>
      </trkpt>
      <trkpt lat="45.91662" lon="5.19162">
        <ele>289.4</ele>
        <time>2022-02-24T14:07:59Z</time>
      </trkpt>
      <trkpt lat="45.91665" lon="5.1916">
        <ele>289.8</ele>
        <time>2022-02-24T14:08:00Z</time>
      </trkpt>
      <trkpt lat="45.91668" lon="5.19158">
        <ele>289.8</ele>
        <time>2022-02-24T14:08:01Z</time>
      </trkpt>
      <trkpt lat="45.91671" lon="5.19156">
        <ele>290</ele>
        <time>2022-02-24T14:08:02Z</time>
      </trkpt>
      <trkpt lat="45.91675" lon="5.19155">
        <ele>290</ele>
        <time>2022-02-24T14:08:03Z</time>
      </trkpt>
      <trkpt lat="45.91678" lon="5.19153">
        <ele>290.4</ele>
        <time>2022-02-24T14:08:04Z</time>
      </trkpt>
      <trkpt lat="45.91681" lon="5.19151">
        <ele>290.4</ele>
        <time>2022-02-24T14:08:05Z</time>
      </trkpt>
      <trkpt lat="45.91685" lon="5.1915">
        <ele>290.6</ele>
        <time>2022-02-24T14:08:06Z</time>
      </trkpt>
      <trkpt lat="45.91688" lon="5.19148">
        <ele>290.6</ele>
        <time>2022-02-24T14:08:07Z</time>
      </trkpt>
      <trkpt lat="45.91692" lon="5.19146">
        <ele>291</ele>
        <time>2022-02-24T14:08:08Z</time>
      </trkpt>
      <trkpt lat="45.91695" lon="5.19144">
        <ele>291.2</ele>
        <time>2022-02-24T14:08:09Z</time>
      </trkpt>
      <trkpt lat="45.91699" lon="5.19143">
        <ele>291.2</ele>
        <time>2022-02-24T14:08:10Z</time>
      </trkpt>
      <trkpt lat="45.91703" lon="5.19141">
        <ele>291.4</ele>
        <time>2022-02-24T14:08:11Z</time>
      </trkpt>
      <trkpt lat="45.91707" lon="5.19139">
        <ele>291.4</ele>
        <time>2022-02-24T14:08:12Z</time>
      </trkpt>
      <trkpt lat="45.9171" lon="5.19137">
        <ele>291.8</ele>
        <time>2022-02-24T14:08:13Z</time>
      </trkpt>
      <trkpt lat="45.91713" lon="5.19135">
        <ele>291.8</ele>
        <time>2022-02-24T14:08:14Z</time>
      </trkpt>
      <trkpt lat="45.91716" lon="5.19133">
        <ele>292</ele>
        <time>2022-02-24T14:08:15Z</time>
      </trkpt>
      <trkpt lat="45.91719" lon="5.1913">
        <ele>292</ele>
        <time>2022-02-24T14:08:16Z</time>
      </trkpt>
      <trkpt lat="45.91723" lon="5.19128">
        <ele>292.2</ele>
        <time>2022-02-24T14:08:17Z</time>
      </trkpt>
      <trkpt lat="45.91726" lon="5.19126">
        <ele>292.2</ele>
        <time>2022-02-24T14:08:18Z</time>
      </trkpt>
      <trkpt lat="45.9173" lon="5.19124">
        <ele>292.4</ele>
        <time>2022-02-24T14:08:19Z</time>
      </trkpt>
      <trkpt lat="45.91733" lon="5.19122">
        <ele>292.4</ele>
        <time>2022-02-24T14:08:20Z</time>
      </trkpt>
      <trkpt lat="45.91737" lon="5.1912">
        <ele>292.4</ele>
        <time>2022-02-24T14:08:21Z</time>
      </trkpt>
      <trkpt lat="45.9174" lon="5.19118">
        <ele>292.6</ele>
        <time>2022-02-24T14:08:22Z</time>
      </trkpt>
      <trkpt lat="45.91744" lon="5.19116">
        <ele>292.6</ele>
        <time>2022-02-24T14:08:23Z</time>
      </trkpt>
      <trkpt lat="45.91748" lon="5.19113">
        <ele>293</ele>
        <time>2022-02-24T14:08:24Z</time>
      </trkpt>
      <trkpt lat="45.91753" lon="5.19111">
        <ele>293</ele>
        <time>2022-02-24T14:08:25Z</time>
      </trkpt>
      <trkpt lat="45.91757" lon="5.19109">
        <ele>293</ele>
        <time>2022-02-24T14:08:26Z</time>
      </trkpt>
      <trkpt lat="45.91762" lon="5.19106">
        <ele>293</ele>
        <time>2022-02-24T14:08:27Z</time>
      </trkpt>
      <trkpt lat="45.91767" lon="5.19104">
        <ele>293.2</ele>
        <time>2022-02-24T14:08:28Z</time>
      </trkpt>
      <trkpt lat="45.91771" lon="5.19101">
        <ele>293.2</ele>
        <time>2022-02-24T14:08:29Z</time>
      </trkpt>
      <trkpt lat="45.91775" lon="5.19099">
        <ele>293.2</ele>
        <time>2022-02-24T14:08:30Z</time>
      </trkpt>
      <trkpt lat="45.91779" lon="5.19097">
        <ele>293.2</ele>
        <time>2022-02-24T14:08:31Z</time>
      </trkpt>
      <trkpt lat="45.91784" lon="5.19095">
        <ele>293.2</ele>
        <time>2022-02-24T14:08:32Z</time>
      </trkpt>
      <trkpt lat="45.91789" lon="5.19093">
        <ele>293.2</ele>
        <time>2022-02-24T14:08:33Z</time>
      </trkpt>
      <trkpt lat="45.91795" lon="5.1909">
        <ele>293.2</ele>
        <time>2022-02-24T14:08:34Z</time>
      </trkpt>
      <trkpt lat="45.918" lon="5.19088">
        <ele>293.2</ele>
        <time>2022-02-24T14:08:35Z</time>
      </trkpt>
      <trkpt lat="45.91804" lon="5.19085">
        <ele>293.2</ele>
        <time>2022-02-24T14:08:36Z</time>
      </trkpt>
      <trkpt lat="45.91809" lon="5.19082">
        <ele>293.2</ele>
        <time>2022-02-24T14:08:37Z</time>
      </trkpt>
      <trkpt lat="45.91815" lon="5.19079">
        <ele>293.2</ele>
        <time>2022-02-24T14:08:38Z</time>
      </trkpt>
      <trkpt lat="45.91821" lon="5.19077">
        <ele>293.2</ele>
        <time>2022-02-24T14:08:39Z</time>
      </trkpt>
      <trkpt lat="45.91826" lon="5.19074">
        <ele>293.2</ele>
        <time>2022-02-24T14:08:40Z</time>
      </trkpt>
      <trkpt lat="45.91832" lon="5.19071">
        <ele>293.2</ele>
        <time>2022-02-24T14:08:41Z</time>
      </trkpt>
      <trkpt lat="45.91838" lon="5.19068">
        <ele>293.2</ele>
        <time>2022-02-24T14:08:42Z</time>
      </trkpt>
      <trkpt lat="45.91844" lon="5.19065">
        <ele>293</ele>
        <time>2022-02-24T14:08:43Z</time>
      </trkpt>
      <trkpt lat="45.91849" lon="5.19062">
        <ele>293</ele>
        <time>2022-02-24T14:08:44Z</time>
      </trkpt>
      <trkpt lat="45.91856" lon="5.19059">
        <ele>293</ele>
        <time>2022-02-24T14:08:45Z</time>
      </trkpt>
      <trkpt lat="45.91862" lon="5.19056">
        <ele>292.6</ele>
        <time>2022-02-24T14:08:46Z</time>
      </trkpt>
      <trkpt lat="45.91869" lon="5.19053">
        <ele>292.6</ele>
        <time>2022-02-24T14:08:47Z</time>
      </trkpt>
      <trkpt lat="45.91875" lon="5.1905">
        <ele>292.4</ele>
        <time>2022-02-24T14:08:48Z</time>
      </trkpt>
      <trkpt lat="45.91882" lon="5.19047">
        <ele>292.4</ele>
        <time>2022-02-24T14:08:49Z</time>
      </trkpt>
      <trkpt lat="45.91888" lon="5.19043">
        <ele>292</ele>
        <time>2022-02-24T14:08:50Z</time>
      </trkpt>
      <trkpt lat="45.91895" lon="5.1904">
        <ele>292</ele>
        <time>2022-02-24T14:08:51Z</time>
      </trkpt>
      <trkpt lat="45.91902" lon="5.19037">
        <ele>291.6</ele>
        <time>2022-02-24T14:08:52Z</time>
      </trkpt>
      <trkpt lat="45.9191" lon="5.19034">
        <ele>291.4</ele>
        <time>2022-02-24T14:08:53Z</time>
      </trkpt>
      <trkpt lat="45.91917" lon="5.19031">
        <ele>291.2</ele>
        <time>2022-02-24T14:08:54Z</time>
      </trkpt>
      <trkpt lat="45.91925" lon="5.19028">
        <ele>291.2</ele>
        <time>2022-02-24T14:08:55Z</time>
      </trkpt>
      <trkpt lat="45.91933" lon="5.19027">
        <ele>290.8</ele>
        <time>2022-02-24T14:08:56Z</time>
      </trkpt>
      <trkpt lat="45.91941" lon="5.19027">
        <ele>290.6</ele>
        <time>2022-02-24T14:08:57Z</time>
      </trkpt>
      <trkpt lat="45.91949" lon="5.19028">
        <ele>290.4</ele>
        <time>2022-02-24T14:08:58Z</time>
      </trkpt>
      <trkpt lat="45.91957" lon="5.19029">
        <ele>290.2</ele>
        <time>2022-02-24T14:08:59Z</time>
      </trkpt>
      <trkpt lat="45.91965" lon="5.19032">
        <ele>289.8</ele>
        <time>2022-02-24T14:09:00Z</time>
      </trkpt>
      <trkpt lat="45.91971" lon="5.19036">
        <ele>289.6</ele>
        <time>2022-02-24T14:09:01Z</time>
      </trkpt>
      <trkpt lat="45.91979" lon="5.19037">
        <ele>289.4</ele>
        <time>2022-02-24T14:09:02Z</time>
      </trkpt>
      <trkpt lat="45.91986" lon="5.19035">
        <ele>289.2</ele>
        <time>2022-02-24T14:09:03Z</time>
      </trkpt>
      <trkpt lat="45.91993" lon="5.19031">
        <ele>288.8</ele>
        <time>2022-02-24T14:09:04Z</time>
      </trkpt>
      <trkpt lat="45.91998" lon="5.19024">
        <ele>288.8</ele>
        <time>2022-02-24T14:09:05Z</time>
      </trkpt>
      <trkpt lat="45.92002" lon="5.19016">
        <ele>288.8</ele>
        <time>2022-02-24T14:09:06Z</time>
      </trkpt>
      <trkpt lat="45.92005" lon="5.19008">
        <ele>288.8</ele>
        <time>2022-02-24T14:09:07Z</time>
      </trkpt>
      <trkpt lat="45.92009" lon="5.19001">
        <ele>288.6</ele>
        <time>2022-02-24T14:09:08Z</time>
      </trkpt>
      <trkpt lat="45.92014" lon="5.18994">
        <ele>288.6</ele>
        <time>2022-02-24T14:09:09Z</time>
      </trkpt>
      <trkpt lat="45.9202" lon="5.18988">
        <ele>288.6</ele>
        <time>2022-02-24T14:09:10Z</time>
      </trkpt>
      <trkpt lat="45.92026" lon="5.18982">
        <ele>288.4</ele>
        <time>2022-02-24T14:09:11Z</time>
      </trkpt>
      <trkpt lat="45.92032" lon="5.18976">
        <ele>288.4</ele>
        <time>2022-02-24T14:09:12Z</time>
      </trkpt>
      <trkpt lat="45.92038" lon="5.18972">
        <ele>288.4</ele>
        <time>2022-02-24T14:09:13Z</time>
      </trkpt>
      <trkpt lat="45.92045" lon="5.18968">
        <ele>288.2</ele>
        <time>2022-02-24T14:09:14Z</time>
      </trkpt>
      <trkpt lat="45.92051" lon="5.18964">
        <ele>288.2</ele>
        <time>2022-02-24T14:09:15Z</time>
      </trkpt>
      <trkpt lat="45.92058" lon="5.18961">
        <ele>287.8</ele>
        <time>2022-02-24T14:09:16Z</time>
      </trkpt>
      <trkpt lat="45.92064" lon="5.18958">
        <ele>287.6</ele>
        <time>2022-02-24T14:09:17Z</time>
      </trkpt>
      <trkpt lat="45.92071" lon="5.18954">
        <ele>287.6</ele>
        <time>2022-02-24T14:09:18Z</time>
      </trkpt>
      <trkpt lat="45.92078" lon="5.1895">
        <ele>287.4</ele>
        <time>2022-02-24T14:09:19Z</time>
      </trkpt>
      <trkpt lat="45.92084" lon="5.18947">
        <ele>287.4</ele>
        <time>2022-02-24T14:09:20Z</time>
      </trkpt>
      <trkpt lat="45.92091" lon="5.18943">
        <ele>287.4</ele>
        <time>2022-02-24T14:09:21Z</time>
      </trkpt>
      <trkpt lat="45.92098" lon="5.1894">
        <ele>287</ele>
        <time>2022-02-24T14:09:22Z</time>
      </trkpt>
      <trkpt lat="45.92104" lon="5.18936">
        <ele>287</ele>
        <time>2022-02-24T14:09:23Z</time>
      </trkpt>
      <trkpt lat="45.9211" lon="5.18933">
        <ele>286.8</ele>
        <time>2022-02-24T14:09:24Z</time>
      </trkpt>
      <trkpt lat="45.92117" lon="5.18929">
        <ele>286.8</ele>
        <time>2022-02-24T14:09:25Z</time>
      </trkpt>
      <trkpt lat="45.92123" lon="5.18925">
        <ele>286.8</ele>
        <time>2022-02-24T14:09:26Z</time>
      </trkpt>
      <trkpt lat="45.92128" lon="5.18921">
        <ele>286.8</ele>
        <time>2022-02-24T14:09:27Z</time>
      </trkpt>
      <trkpt lat="45.92134" lon="5.18917">
        <ele>287</ele>
        <time>2022-02-24T14:09:28Z</time>
      </trkpt>
      <trkpt lat="45.9214" lon="5.18914">
        <ele>287</ele>
        <time>2022-02-24T14:09:29Z</time>
      </trkpt>
      <trkpt lat="45.92146" lon="5.18911">
        <ele>287.4</ele>
        <time>2022-02-24T14:09:30Z</time>
      </trkpt>
      <trkpt lat="45.92152" lon="5.18907">
        <ele>287.4</ele>
        <time>2022-02-24T14:09:31Z</time>
      </trkpt>
      <trkpt lat="45.92158" lon="5.18904">
        <ele>287.8</ele>
        <time>2022-02-24T14:09:32Z</time>
      </trkpt>
      <trkpt lat="45.92164" lon="5.18901">
        <ele>287.8</ele>
        <time>2022-02-24T14:09:33Z</time>
      </trkpt>
      <trkpt lat="45.92169" lon="5.18898">
        <ele>288</ele>
        <time>2022-02-24T14:09:34Z</time>
      </trkpt>
      <trkpt lat="45.92174" lon="5.18895">
        <ele>288</ele>
        <time>2022-02-24T14:09:35Z</time>
      </trkpt>
      <trkpt lat="45.92179" lon="5.18892">
        <ele>288.2</ele>
        <time>2022-02-24T14:09:36Z</time>
      </trkpt>
      <trkpt lat="45.92184" lon="5.18889">
        <ele>288.2</ele>
        <time>2022-02-24T14:09:37Z</time>
      </trkpt>
      <trkpt lat="45.9219" lon="5.18886">
        <ele>288.6</ele>
        <time>2022-02-24T14:09:38Z</time>
      </trkpt>
      <trkpt lat="45.92195" lon="5.18883">
        <ele>288.6</ele>
        <time>2022-02-24T14:09:39Z</time>
      </trkpt>
      <trkpt lat="45.922" lon="5.1888">
        <ele>288.8</ele>
        <time>2022-02-24T14:09:40Z</time>
      </trkpt>
      <trkpt lat="45.92206" lon="5.18877">
        <ele>288.8</ele>
        <time>2022-02-24T14:09:41Z</time>
      </trkpt>
      <trkpt lat="45.92211" lon="5.18874">
        <ele>289</ele>
        <time>2022-02-24T14:09:42Z</time>
      </trkpt>
      <trkpt lat="45.92218" lon="5.18871">
        <ele>289</ele>
        <time>2022-02-24T14:09:43Z</time>
      </trkpt>
      <trkpt lat="45.92224" lon="5.18868">
        <ele>289</ele>
        <time>2022-02-24T14:09:44Z</time>
      </trkpt>
      <trkpt lat="45.92231" lon="5.18864">
        <ele>289.2</ele>
        <time>2022-02-24T14:09:45Z</time>
      </trkpt>
      <trkpt lat="45.92238" lon="5.1886">
        <ele>289.2</ele>
        <time>2022-02-24T14:09:46Z</time>
      </trkpt>
      <trkpt lat="45.92246" lon="5.18856">
        <ele>289.2</ele>
        <time>2022-02-24T14:09:47Z</time>
      </trkpt>
      <trkpt lat="45.92254" lon="5.18853">
        <ele>289</ele>
        <time>2022-02-24T14:09:48Z</time>
      </trkpt>
      <trkpt lat="45.92261" lon="5.18849">
        <ele>289</ele>
        <time>2022-02-24T14:09:49Z</time>
      </trkpt>
      <trkpt lat="45.9227" lon="5.18846">
        <ele>288.6</ele>
        <time>2022-02-24T14:09:50Z</time>
      </trkpt>
      <trkpt lat="45.92278" lon="5.18843">
        <ele>288.4</ele>
        <time>2022-02-24T14:09:51Z</time>
      </trkpt>
      <trkpt lat="45.92286" lon="5.18839">
        <ele>288.4</ele>
        <time>2022-02-24T14:09:52Z</time>
      </trkpt>
      <trkpt lat="45.92294" lon="5.18835">
        <ele>288.2</ele>
        <time>2022-02-24T14:09:53Z</time>
      </trkpt>
      <trkpt lat="45.92303" lon="5.18831">
        <ele>288</ele>
        <time>2022-02-24T14:09:54Z</time>
      </trkpt>
      <trkpt lat="45.92311" lon="5.18827">
        <ele>288</ele>
        <time>2022-02-24T14:09:55Z</time>
      </trkpt>
      <trkpt lat="45.9232" lon="5.18823">
        <ele>287.6</ele>
        <time>2022-02-24T14:09:56Z</time>
      </trkpt>
      <trkpt lat="45.92328" lon="5.18818">
        <ele>287.2</ele>
        <time>2022-02-24T14:09:57Z</time>
      </trkpt>
      <trkpt lat="45.92337" lon="5.18814">
        <ele>286.8</ele>
        <time>2022-02-24T14:09:58Z</time>
      </trkpt>
      <trkpt lat="45.92345" lon="5.1881">
        <ele>286.6</ele>
        <time>2022-02-24T14:09:59Z</time>
      </trkpt>
      <trkpt lat="45.92354" lon="5.18806">
        <ele>286.6</ele>
        <time>2022-02-24T14:10:00Z</time>
      </trkpt>
      <trkpt lat="45.92363" lon="5.18803">
        <ele>286.6</ele>
        <time>2022-02-24T14:10:01Z</time>
      </trkpt>
      <trkpt lat="45.92372" lon="5.18799">
        <ele>286.6</ele>
        <time>2022-02-24T14:10:02Z</time>
      </trkpt>
      <trkpt lat="45.9238" lon="5.18796">
        <ele>286.6</ele>
        <time>2022-02-24T14:10:03Z</time>
      </trkpt>
      <trkpt lat="45.92389" lon="5.18793">
        <ele>286.8</ele>
        <time>2022-02-24T14:10:04Z</time>
      </trkpt>
      <trkpt lat="45.92396" lon="5.18789">
        <ele>287.2</ele>
        <time>2022-02-24T14:10:05Z</time>
      </trkpt>
      <trkpt lat="45.92403" lon="5.18786">
        <ele>287.4</ele>
        <time>2022-02-24T14:10:06Z</time>
      </trkpt>
      <trkpt lat="45.9241" lon="5.18783">
        <ele>287.8</ele>
        <time>2022-02-24T14:10:07Z</time>
      </trkpt>
      <trkpt lat="45.92417" lon="5.1878">
        <ele>288</ele>
        <time>2022-02-24T14:10:08Z</time>
      </trkpt>
      <trkpt lat="45.92424" lon="5.18776">
        <ele>288.4</ele>
        <time>2022-02-24T14:10:09Z</time>
      </trkpt>
      <trkpt lat="45.9243" lon="5.18773">
        <ele>288.8</ele>
        <time>2022-02-24T14:10:10Z</time>
      </trkpt>
      <trkpt lat="45.92435" lon="5.1877">
        <ele>289</ele>
        <time>2022-02-24T14:10:11Z</time>
      </trkpt>
      <trkpt lat="45.92441" lon="5.18767">
        <ele>289.2</ele>
        <time>2022-02-24T14:10:12Z</time>
      </trkpt>
      <trkpt lat="45.92447" lon="5.18765">
        <ele>289.4</ele>
        <time>2022-02-24T14:10:13Z</time>
      </trkpt>
      <trkpt lat="45.92453" lon="5.18762">
        <ele>289.8</ele>
        <time>2022-02-24T14:10:14Z</time>
      </trkpt>
      <trkpt lat="45.92458" lon="5.1876">
        <ele>290</ele>
        <time>2022-02-24T14:10:15Z</time>
      </trkpt>
      <trkpt lat="45.92464" lon="5.18757">
        <ele>290.2</ele>
        <time>2022-02-24T14:10:16Z</time>
      </trkpt>
      <trkpt lat="45.92469" lon="5.18754">
        <ele>290.6</ele>
        <time>2022-02-24T14:10:17Z</time>
      </trkpt>
      <trkpt lat="45.92475" lon="5.18751">
        <ele>291</ele>
        <time>2022-02-24T14:10:18Z</time>
      </trkpt>
      <trkpt lat="45.9248" lon="5.18748">
        <ele>291.2</ele>
        <time>2022-02-24T14:10:19Z</time>
      </trkpt>
      <trkpt lat="45.92486" lon="5.18745">
        <ele>291.6</ele>
        <time>2022-02-24T14:10:20Z</time>
      </trkpt>
      <trkpt lat="45.92491" lon="5.18743">
        <ele>291.8</ele>
        <time>2022-02-24T14:10:21Z</time>
      </trkpt>
      <trkpt lat="45.92497" lon="5.1874">
        <ele>292.2</ele>
        <time>2022-02-24T14:10:22Z</time>
      </trkpt>
      <trkpt lat="45.92502" lon="5.18737">
        <ele>292.6</ele>
        <time>2022-02-24T14:10:23Z</time>
      </trkpt>
      <trkpt lat="45.92508" lon="5.18735">
        <ele>293</ele>
        <time>2022-02-24T14:10:24Z</time>
      </trkpt>
      <trkpt lat="45.92513" lon="5.18732">
        <ele>293.2</ele>
        <time>2022-02-24T14:10:25Z</time>
      </trkpt>
      <trkpt lat="45.92518" lon="5.18729">
        <ele>293.4</ele>
        <time>2022-02-24T14:10:26Z</time>
      </trkpt>
      <trkpt lat="45.92523" lon="5.18726">
        <ele>293.8</ele>
        <time>2022-02-24T14:10:27Z</time>
      </trkpt>
      <trkpt lat="45.92528" lon="5.18724">
        <ele>294</ele>
        <time>2022-02-24T14:10:28Z</time>
      </trkpt>
      <trkpt lat="45.92533" lon="5.18721">
        <ele>294.4</ele>
        <time>2022-02-24T14:10:29Z</time>
      </trkpt>
      <trkpt lat="45.92538" lon="5.18719">
        <ele>294.6</ele>
        <time>2022-02-24T14:10:30Z</time>
      </trkpt>
      <trkpt lat="45.92543" lon="5.18716">
        <ele>294.8</ele>
        <time>2022-02-24T14:10:31Z</time>
      </trkpt>
      <trkpt lat="45.92547" lon="5.18714">
        <ele>295.2</ele>
        <time>2022-02-24T14:10:32Z</time>
      </trkpt>
      <trkpt lat="45.92552" lon="5.18711">
        <ele>295.2</ele>
        <time>2022-02-24T14:10:33Z</time>
      </trkpt>
      <trkpt lat="45.92557" lon="5.18709">
        <ele>295.6</ele>
        <time>2022-02-24T14:10:34Z</time>
      </trkpt>
      <trkpt lat="45.92562" lon="5.18707">
        <ele>295.6</ele>
        <time>2022-02-24T14:10:35Z</time>
      </trkpt>
      <trkpt lat="45.92566" lon="5.18704">
        <ele>296</ele>
        <time>2022-02-24T14:10:36Z</time>
      </trkpt>
      <trkpt lat="45.92571" lon="5.18702">
        <ele>296</ele>
        <time>2022-02-24T14:10:37Z</time>
      </trkpt>
      <trkpt lat="45.92576" lon="5.187">
        <ele>296.4</ele>
        <time>2022-02-24T14:10:38Z</time>
      </trkpt>
      <trkpt lat="45.92581" lon="5.18697">
        <ele>296.4</ele>
        <time>2022-02-24T14:10:39Z</time>
      </trkpt>
      <trkpt lat="45.92581" lon="5.18697">
        <ele>296.6</ele>
        <time>2022-02-24T14:10:40Z</time>
      </trkpt>
      <trkpt lat="45.92585" lon="5.18695">
        <ele>296.8</ele>
        <time>2022-02-24T14:10:41Z</time>
      </trkpt>
      <trkpt lat="45.9259" lon="5.18692">
        <ele>296.8</ele>
        <time>2022-02-24T14:10:42Z</time>
      </trkpt>
      <trkpt lat="45.92595" lon="5.1869">
        <ele>297.2</ele>
        <time>2022-02-24T14:10:43Z</time>
      </trkpt>
      <trkpt lat="45.92599" lon="5.18688">
        <ele>297.2</ele>
        <time>2022-02-24T14:10:44Z</time>
      </trkpt>
      <trkpt lat="45.92604" lon="5.18685">
        <ele>297.4</ele>
        <time>2022-02-24T14:10:45Z</time>
      </trkpt>
      <trkpt lat="45.92608" lon="5.18683">
        <ele>297.4</ele>
        <time>2022-02-24T14:10:46Z</time>
      </trkpt>
      <trkpt lat="45.92613" lon="5.18681">
        <ele>297.8</ele>
        <time>2022-02-24T14:10:47Z</time>
      </trkpt>
      <trkpt lat="45.92618" lon="5.18679">
        <ele>297.8</ele>
        <time>2022-02-24T14:10:48Z</time>
      </trkpt>
      <trkpt lat="45.92622" lon="5.18677">
        <ele>298</ele>
        <time>2022-02-24T14:10:49Z</time>
      </trkpt>
      <trkpt lat="45.92626" lon="5.18674">
        <ele>298</ele>
        <time>2022-02-24T14:10:50Z</time>
      </trkpt>
      <trkpt lat="45.92631" lon="5.18672">
        <ele>298.4</ele>
        <time>2022-02-24T14:10:51Z</time>
      </trkpt>
      <trkpt lat="45.92635" lon="5.1867">
        <ele>298.4</ele>
        <time>2022-02-24T14:10:52Z</time>
      </trkpt>
      <trkpt lat="45.9264" lon="5.18668">
        <ele>298.8</ele>
        <time>2022-02-24T14:10:53Z</time>
      </trkpt>
      <trkpt lat="45.9265" lon="5.18663">
        <ele>299</ele>
        <time>2022-02-24T14:10:54Z</time>
      </trkpt>
      <trkpt lat="45.92655" lon="5.1866">
        <ele>299.2</ele>
        <time>2022-02-24T14:10:55Z</time>
      </trkpt>
      <trkpt lat="45.9266" lon="5.18658">
        <ele>299.4</ele>
        <time>2022-02-24T14:10:56Z</time>
      </trkpt>
      <trkpt lat="45.92665" lon="5.18655">
        <ele>299.6</ele>
        <time>2022-02-24T14:10:57Z</time>
      </trkpt>
      <trkpt lat="45.9267" lon="5.18653">
        <ele>299.6</ele>
        <time>2022-02-24T14:10:58Z</time>
      </trkpt>
      <trkpt lat="45.92674" lon="5.1865">
        <ele>300</ele>
        <time>2022-02-24T14:10:59Z</time>
      </trkpt>
      <trkpt lat="45.92679" lon="5.18648">
        <ele>300.4</ele>
        <time>2022-02-24T14:11:00Z</time>
      </trkpt>
      <trkpt lat="45.92684" lon="5.18645">
        <ele>300.4</ele>
        <time>2022-02-24T14:11:01Z</time>
      </trkpt>
      <trkpt lat="45.92689" lon="5.18642">
        <ele>300.8</ele>
        <time>2022-02-24T14:11:02Z</time>
      </trkpt>
      <trkpt lat="45.92694" lon="5.1864">
        <ele>300.8</ele>
        <time>2022-02-24T14:11:03Z</time>
      </trkpt>
      <trkpt lat="45.92699" lon="5.18637">
        <ele>301</ele>
        <time>2022-02-24T14:11:04Z</time>
      </trkpt>
      <trkpt lat="45.92704" lon="5.18634">
        <ele>301</ele>
        <time>2022-02-24T14:11:05Z</time>
      </trkpt>
      <trkpt lat="45.92709" lon="5.18632">
        <ele>301.4</ele>
        <time>2022-02-24T14:11:06Z</time>
      </trkpt>
      <trkpt lat="45.92714" lon="5.18629">
        <ele>301.4</ele>
        <time>2022-02-24T14:11:07Z</time>
      </trkpt>
      <trkpt lat="45.92719" lon="5.18627">
        <ele>301.6</ele>
        <time>2022-02-24T14:11:08Z</time>
      </trkpt>
      <trkpt lat="45.92724" lon="5.18624">
        <ele>301.6</ele>
        <time>2022-02-24T14:11:09Z</time>
      </trkpt>
      <trkpt lat="45.92729" lon="5.18621">
        <ele>301.8</ele>
        <time>2022-02-24T14:11:10Z</time>
      </trkpt>
      <trkpt lat="45.92734" lon="5.18619">
        <ele>301.8</ele>
        <time>2022-02-24T14:11:11Z</time>
      </trkpt>
      <trkpt lat="45.9274" lon="5.18616">
        <ele>302</ele>
        <time>2022-02-24T14:11:12Z</time>
      </trkpt>
      <trkpt lat="45.92745" lon="5.18614">
        <ele>302.2</ele>
        <time>2022-02-24T14:11:13Z</time>
      </trkpt>
      <trkpt lat="45.9275" lon="5.18611">
        <ele>302.2</ele>
        <time>2022-02-24T14:11:14Z</time>
      </trkpt>
      <trkpt lat="45.92755" lon="5.18608">
        <ele>302.6</ele>
        <time>2022-02-24T14:11:15Z</time>
      </trkpt>
      <trkpt lat="45.9276" lon="5.18605">
        <ele>302.6</ele>
        <time>2022-02-24T14:11:16Z</time>
      </trkpt>
      <trkpt lat="45.92766" lon="5.18603">
        <ele>302.8</ele>
        <time>2022-02-24T14:11:17Z</time>
      </trkpt>
      <trkpt lat="45.92771" lon="5.186">
        <ele>302.8</ele>
        <time>2022-02-24T14:11:18Z</time>
      </trkpt>
      <trkpt lat="45.92776" lon="5.18598">
        <ele>303</ele>
        <time>2022-02-24T14:11:19Z</time>
      </trkpt>
      <trkpt lat="45.92781" lon="5.18595">
        <ele>303</ele>
        <time>2022-02-24T14:11:20Z</time>
      </trkpt>
      <trkpt lat="45.92786" lon="5.18593">
        <ele>303</ele>
        <time>2022-02-24T14:11:21Z</time>
      </trkpt>
      <trkpt lat="45.92791" lon="5.1859">
        <ele>303.2</ele>
        <time>2022-02-24T14:11:22Z</time>
      </trkpt>
      <trkpt lat="45.92797" lon="5.18587">
        <ele>303.2</ele>
        <time>2022-02-24T14:11:23Z</time>
      </trkpt>
      <trkpt lat="45.92802" lon="5.18584">
        <ele>303.2</ele>
        <time>2022-02-24T14:11:24Z</time>
      </trkpt>
      <trkpt lat="45.92808" lon="5.18581">
        <ele>303.2</ele>
        <time>2022-02-24T14:11:25Z</time>
      </trkpt>
      <trkpt lat="45.92814" lon="5.18579">
        <ele>303.6</ele>
        <time>2022-02-24T14:11:26Z</time>
      </trkpt>
      <trkpt lat="45.92819" lon="5.18576">
        <ele>303.6</ele>
        <time>2022-02-24T14:11:27Z</time>
      </trkpt>
      <trkpt lat="45.92825" lon="5.18573">
        <ele>303.8</ele>
        <time>2022-02-24T14:11:28Z</time>
      </trkpt>
      <trkpt lat="45.9283" lon="5.1857">
        <ele>303.8</ele>
        <time>2022-02-24T14:11:29Z</time>
      </trkpt>
      <trkpt lat="45.92836" lon="5.18567">
        <ele>303.8</ele>
        <time>2022-02-24T14:11:30Z</time>
      </trkpt>
      <trkpt lat="45.92841" lon="5.18565">
        <ele>304</ele>
        <time>2022-02-24T14:11:31Z</time>
      </trkpt>
      <trkpt lat="45.92847" lon="5.18562">
        <ele>304</ele>
        <time>2022-02-24T14:11:32Z</time>
      </trkpt>
      <trkpt lat="45.92853" lon="5.18559">
        <ele>304</ele>
        <time>2022-02-24T14:11:33Z</time>
      </trkpt>
      <trkpt lat="45.92858" lon="5.18556">
        <ele>304</ele>
        <time>2022-02-24T14:11:34Z</time>
      </trkpt>
      <trkpt lat="45.92864" lon="5.18553">
        <ele>304.4</ele>
        <time>2022-02-24T14:11:35Z</time>
      </trkpt>
      <trkpt lat="45.9287" lon="5.1855">
        <ele>304.4</ele>
        <time>2022-02-24T14:11:36Z</time>
      </trkpt>
      <trkpt lat="45.92875" lon="5.18547">
        <ele>304.4</ele>
        <time>2022-02-24T14:11:37Z</time>
      </trkpt>
      <trkpt lat="45.92881" lon="5.18545">
        <ele>304.4</ele>
        <time>2022-02-24T14:11:38Z</time>
      </trkpt>
      <trkpt lat="45.92887" lon="5.18542">
        <ele>304.6</ele>
        <time>2022-02-24T14:11:39Z</time>
      </trkpt>
      <trkpt lat="45.92892" lon="5.18539">
        <ele>304.6</ele>
        <time>2022-02-24T14:11:40Z</time>
      </trkpt>
      <trkpt lat="45.92898" lon="5.18536">
        <ele>305</ele>
        <time>2022-02-24T14:11:41Z</time>
      </trkpt>
      <trkpt lat="45.92904" lon="5.18533">
        <ele>305</ele>
        <time>2022-02-24T14:11:42Z</time>
      </trkpt>
      <trkpt lat="45.9291" lon="5.1853">
        <ele>305</ele>
        <time>2022-02-24T14:11:43Z</time>
      </trkpt>
      <trkpt lat="45.92915" lon="5.18527">
        <ele>305.4</ele>
        <time>2022-02-24T14:11:44Z</time>
      </trkpt>
      <trkpt lat="45.9292" lon="5.18524">
        <ele>305.4</ele>
        <time>2022-02-24T14:11:45Z</time>
      </trkpt>
      <trkpt lat="45.92926" lon="5.18522">
        <ele>305.6</ele>
        <time>2022-02-24T14:11:46Z</time>
      </trkpt>
      <trkpt lat="45.92931" lon="5.18519">
        <ele>305.8</ele>
        <time>2022-02-24T14:11:47Z</time>
      </trkpt>
      <trkpt lat="45.92936" lon="5.18516">
        <ele>305.8</ele>
        <time>2022-02-24T14:11:48Z</time>
      </trkpt>
      <trkpt lat="45.92941" lon="5.18514">
        <ele>306.2</ele>
        <time>2022-02-24T14:11:49Z</time>
      </trkpt>
      <trkpt lat="45.92946" lon="5.18511">
        <ele>306.2</ele>
        <time>2022-02-24T14:11:50Z</time>
      </trkpt>
      <trkpt lat="45.92951" lon="5.18508">
        <ele>306.6</ele>
        <time>2022-02-24T14:11:51Z</time>
      </trkpt>
      <trkpt lat="45.92956" lon="5.18506">
        <ele>306.8</ele>
        <time>2022-02-24T14:11:52Z</time>
      </trkpt>
      <trkpt lat="45.92962" lon="5.18502">
        <ele>306.8</ele>
        <time>2022-02-24T14:11:53Z</time>
      </trkpt>
      <trkpt lat="45.92967" lon="5.185">
        <ele>307.2</ele>
        <time>2022-02-24T14:11:54Z</time>
      </trkpt>
      <trkpt lat="45.92972" lon="5.18497">
        <ele>307.2</ele>
        <time>2022-02-24T14:11:55Z</time>
      </trkpt>
      <trkpt lat="45.92977" lon="5.18494">
        <ele>307.2</ele>
        <time>2022-02-24T14:11:56Z</time>
      </trkpt>
      <trkpt lat="45.92983" lon="5.18491">
        <ele>307.2</ele>
        <time>2022-02-24T14:11:57Z</time>
      </trkpt>
      <trkpt lat="45.92988" lon="5.18488">
        <ele>307.2</ele>
        <time>2022-02-24T14:11:58Z</time>
      </trkpt>
      <trkpt lat="45.92993" lon="5.18485">
        <ele>307.2</ele>
        <time>2022-02-24T14:11:59Z</time>
      </trkpt>
      <trkpt lat="45.92999" lon="5.18483">
        <ele>307.2</ele>
        <time>2022-02-24T14:12:00Z</time>
      </trkpt>
      <trkpt lat="45.93004" lon="5.1848">
        <ele>307.2</ele>
        <time>2022-02-24T14:12:01Z</time>
      </trkpt>
      <trkpt lat="45.9301" lon="5.18476">
        <ele>307.2</ele>
        <time>2022-02-24T14:12:02Z</time>
      </trkpt>
      <trkpt lat="45.93015" lon="5.18474">
        <ele>307.2</ele>
        <time>2022-02-24T14:12:03Z</time>
      </trkpt>
      <trkpt lat="45.93021" lon="5.1847">
        <ele>307.2</ele>
        <time>2022-02-24T14:12:04Z</time>
      </trkpt>
      <trkpt lat="45.93027" lon="5.18468">
        <ele>306.8</ele>
        <time>2022-02-24T14:12:05Z</time>
      </trkpt>
      <trkpt lat="45.93033" lon="5.18465">
        <ele>306.8</ele>
        <time>2022-02-24T14:12:06Z</time>
      </trkpt>
      <trkpt lat="45.93039" lon="5.18462">
        <ele>306.6</ele>
        <time>2022-02-24T14:12:07Z</time>
      </trkpt>
      <trkpt lat="45.93046" lon="5.18459">
        <ele>306.6</ele>
        <time>2022-02-24T14:12:08Z</time>
      </trkpt>
      <trkpt lat="45.93052" lon="5.18455">
        <ele>306.6</ele>
        <time>2022-02-24T14:12:09Z</time>
      </trkpt>
      <trkpt lat="45.93058" lon="5.18452">
        <ele>306.2</ele>
        <time>2022-02-24T14:12:10Z</time>
      </trkpt>
      <trkpt lat="45.93065" lon="5.18448">
        <ele>306.2</ele>
        <time>2022-02-24T14:12:11Z</time>
      </trkpt>
      <trkpt lat="45.93072" lon="5.18444">
        <ele>305.8</ele>
        <time>2022-02-24T14:12:12Z</time>
      </trkpt>
      <trkpt lat="45.93079" lon="5.18441">
        <ele>305.8</ele>
        <time>2022-02-24T14:12:13Z</time>
      </trkpt>
      <trkpt lat="45.93086" lon="5.18437">
        <ele>305.4</ele>
        <time>2022-02-24T14:12:14Z</time>
      </trkpt>
      <trkpt lat="45.93094" lon="5.18433">
        <ele>305.4</ele>
        <time>2022-02-24T14:12:15Z</time>
      </trkpt>
      <trkpt lat="45.93102" lon="5.1843">
        <ele>305</ele>
        <time>2022-02-24T14:12:16Z</time>
      </trkpt>
      <trkpt lat="45.93109" lon="5.18426">
        <ele>304.8</ele>
        <time>2022-02-24T14:12:17Z</time>
      </trkpt>
      <trkpt lat="45.93117" lon="5.18423">
        <ele>304.6</ele>
        <time>2022-02-24T14:12:18Z</time>
      </trkpt>
      <trkpt lat="45.93125" lon="5.18419">
        <ele>304.6</ele>
        <time>2022-02-24T14:12:19Z</time>
      </trkpt>
      <trkpt lat="45.93132" lon="5.18415">
        <ele>304.4</ele>
        <time>2022-02-24T14:12:20Z</time>
      </trkpt>
      <trkpt lat="45.9314" lon="5.18411">
        <ele>304.4</ele>
        <time>2022-02-24T14:12:21Z</time>
      </trkpt>
      <trkpt lat="45.93148" lon="5.18407">
        <ele>304</ele>
        <time>2022-02-24T14:12:22Z</time>
      </trkpt>
      <trkpt lat="45.93156" lon="5.18403">
        <ele>304</ele>
        <time>2022-02-24T14:12:23Z</time>
      </trkpt>
      <trkpt lat="45.93164" lon="5.18399">
        <ele>303.6</ele>
        <time>2022-02-24T14:12:24Z</time>
      </trkpt>
      <trkpt lat="45.93171" lon="5.18395">
        <ele>303.6</ele>
        <time>2022-02-24T14:12:25Z</time>
      </trkpt>
      <trkpt lat="45.93179" lon="5.18391">
        <ele>303.6</ele>
        <time>2022-02-24T14:12:26Z</time>
      </trkpt>
      <trkpt lat="45.93187" lon="5.18388">
        <ele>303.2</ele>
        <time>2022-02-24T14:12:27Z</time>
      </trkpt>
      <trkpt lat="45.93195" lon="5.18384">
        <ele>303.2</ele>
        <time>2022-02-24T14:12:28Z</time>
      </trkpt>
      <trkpt lat="45.93203" lon="5.1838">
        <ele>303.2</ele>
        <time>2022-02-24T14:12:29Z</time>
      </trkpt>
      <trkpt lat="45.9321" lon="5.18376">
        <ele>303</ele>
        <time>2022-02-24T14:12:30Z</time>
      </trkpt>
      <trkpt lat="45.93218" lon="5.18371">
        <ele>303</ele>
        <time>2022-02-24T14:12:31Z</time>
      </trkpt>
      <trkpt lat="45.93226" lon="5.18367">
        <ele>302.8</ele>
        <time>2022-02-24T14:12:32Z</time>
      </trkpt>
      <trkpt lat="45.93233" lon="5.18364">
        <ele>302.8</ele>
        <time>2022-02-24T14:12:33Z</time>
      </trkpt>
      <trkpt lat="45.93241" lon="5.1836">
        <ele>302.8</ele>
        <time>2022-02-24T14:12:34Z</time>
      </trkpt>
      <trkpt lat="45.93249" lon="5.18356">
        <ele>302.8</ele>
        <time>2022-02-24T14:12:35Z</time>
      </trkpt>
      <trkpt lat="45.93256" lon="5.18352">
        <ele>302.8</ele>
        <time>2022-02-24T14:12:36Z</time>
      </trkpt>
      <trkpt lat="45.93264" lon="5.18348">
        <ele>302.8</ele>
        <time>2022-02-24T14:12:37Z</time>
      </trkpt>
      <trkpt lat="45.93272" lon="5.18344">
        <ele>302.4</ele>
        <time>2022-02-24T14:12:38Z</time>
      </trkpt>
      <trkpt lat="45.9328" lon="5.1834">
        <ele>302.4</ele>
        <time>2022-02-24T14:12:39Z</time>
      </trkpt>
      <trkpt lat="45.93288" lon="5.18336">
        <ele>302.4</ele>
        <time>2022-02-24T14:12:40Z</time>
      </trkpt>
      <trkpt lat="45.93296" lon="5.18332">
        <ele>302.4</ele>
        <time>2022-02-24T14:12:41Z</time>
      </trkpt>
      <trkpt lat="45.93304" lon="5.18328">
        <ele>302.4</ele>
        <time>2022-02-24T14:12:42Z</time>
      </trkpt>
      <trkpt lat="45.93312" lon="5.18325">
        <ele>302.4</ele>
        <time>2022-02-24T14:12:43Z</time>
      </trkpt>
      <trkpt lat="45.9332" lon="5.18321">
        <ele>302.4</ele>
        <time>2022-02-24T14:12:44Z</time>
      </trkpt>
      <trkpt lat="45.93328" lon="5.18316">
        <ele>302.4</ele>
        <time>2022-02-24T14:12:45Z</time>
      </trkpt>
      <trkpt lat="45.93336" lon="5.18312">
        <ele>302.4</ele>
        <time>2022-02-24T14:12:46Z</time>
      </trkpt>
      <trkpt lat="45.93345" lon="5.18308">
        <ele>302.2</ele>
        <time>2022-02-24T14:12:47Z</time>
      </trkpt>
      <trkpt lat="45.93353" lon="5.18305">
        <ele>302.2</ele>
        <time>2022-02-24T14:12:48Z</time>
      </trkpt>
      <trkpt lat="45.93362" lon="5.183">
        <ele>301.8</ele>
        <time>2022-02-24T14:12:49Z</time>
      </trkpt>
      <trkpt lat="45.93371" lon="5.18296">
        <ele>301.4</ele>
        <time>2022-02-24T14:12:50Z</time>
      </trkpt>
      <trkpt lat="45.9338" lon="5.18291">
        <ele>301.4</ele>
        <time>2022-02-24T14:12:51Z</time>
      </trkpt>
      <trkpt lat="45.9339" lon="5.18287">
        <ele>301</ele>
        <time>2022-02-24T14:12:52Z</time>
      </trkpt>
      <trkpt lat="45.93399" lon="5.18282">
        <ele>300.8</ele>
        <time>2022-02-24T14:12:53Z</time>
      </trkpt>
      <trkpt lat="45.93408" lon="5.18276">
        <ele>300.8</ele>
        <time>2022-02-24T14:12:54Z</time>
      </trkpt>
      <trkpt lat="45.93417" lon="5.18271">
        <ele>300.4</ele>
        <time>2022-02-24T14:12:55Z</time>
      </trkpt>
      <trkpt lat="45.93426" lon="5.18266">
        <ele>300</ele>
        <time>2022-02-24T14:12:56Z</time>
      </trkpt>
      <trkpt lat="45.93435" lon="5.1826">
        <ele>299.8</ele>
        <time>2022-02-24T14:12:57Z</time>
      </trkpt>
      <trkpt lat="45.93445" lon="5.18255">
        <ele>299.8</ele>
        <time>2022-02-24T14:12:58Z</time>
      </trkpt>
      <trkpt lat="45.93455" lon="5.18251">
        <ele>299.4</ele>
        <time>2022-02-24T14:12:59Z</time>
      </trkpt>
      <trkpt lat="45.93464" lon="5.18246">
        <ele>299</ele>
        <time>2022-02-24T14:13:00Z</time>
      </trkpt>
      <trkpt lat="45.93474" lon="5.18243">
        <ele>298.8</ele>
        <time>2022-02-24T14:13:01Z</time>
      </trkpt>
      <trkpt lat="45.93483" lon="5.18239">
        <ele>298.4</ele>
        <time>2022-02-24T14:13:02Z</time>
      </trkpt>
      <trkpt lat="45.93492" lon="5.18233">
        <ele>298.8</ele>
        <time>2022-02-24T14:13:03Z</time>
      </trkpt>
      <trkpt lat="45.93501" lon="5.1823">
        <ele>298.8</ele>
        <time>2022-02-24T14:13:04Z</time>
      </trkpt>
      <trkpt lat="45.9351" lon="5.18225">
        <ele>298.4</ele>
        <time>2022-02-24T14:13:05Z</time>
      </trkpt>
      <trkpt lat="45.93519" lon="5.1822">
        <ele>298.4</ele>
        <time>2022-02-24T14:13:06Z</time>
      </trkpt>
      <trkpt lat="45.93528" lon="5.18216">
        <ele>298.2</ele>
        <time>2022-02-24T14:13:07Z</time>
      </trkpt>
      <trkpt lat="45.93536" lon="5.18211">
        <ele>298.2</ele>
        <time>2022-02-24T14:13:08Z</time>
      </trkpt>
      <trkpt lat="45.93545" lon="5.18208">
        <ele>297.8</ele>
        <time>2022-02-24T14:13:09Z</time>
      </trkpt>
      <trkpt lat="45.93553" lon="5.18204">
        <ele>297.8</ele>
        <time>2022-02-24T14:13:10Z</time>
      </trkpt>
      <trkpt lat="45.93562" lon="5.18199">
        <ele>297.6</ele>
        <time>2022-02-24T14:13:11Z</time>
      </trkpt>
      <trkpt lat="45.9357" lon="5.18195">
        <ele>297.6</ele>
        <time>2022-02-24T14:13:12Z</time>
      </trkpt>
      <trkpt lat="45.93579" lon="5.18191">
        <ele>297.4</ele>
        <time>2022-02-24T14:13:13Z</time>
      </trkpt>
      <trkpt lat="45.93587" lon="5.18187">
        <ele>297.4</ele>
        <time>2022-02-24T14:13:14Z</time>
      </trkpt>
      <trkpt lat="45.93595" lon="5.18183">
        <ele>297.2</ele>
        <time>2022-02-24T14:13:15Z</time>
      </trkpt>
      <trkpt lat="45.93603" lon="5.18179">
        <ele>297.2</ele>
        <time>2022-02-24T14:13:16Z</time>
      </trkpt>
      <trkpt lat="45.93611" lon="5.18174">
        <ele>297.2</ele>
        <time>2022-02-24T14:13:17Z</time>
      </trkpt>
      <trkpt lat="45.93619" lon="5.1817">
        <ele>297</ele>
        <time>2022-02-24T14:13:18Z</time>
      </trkpt>
      <trkpt lat="45.93627" lon="5.18166">
        <ele>297</ele>
        <time>2022-02-24T14:13:19Z</time>
      </trkpt>
      <trkpt lat="45.93635" lon="5.18162">
        <ele>296.6</ele>
        <time>2022-02-24T14:13:20Z</time>
      </trkpt>
      <trkpt lat="45.93643" lon="5.18158">
        <ele>296.6</ele>
        <time>2022-02-24T14:13:21Z</time>
      </trkpt>
      <trkpt lat="45.93651" lon="5.18154">
        <ele>296.4</ele>
        <time>2022-02-24T14:13:22Z</time>
      </trkpt>
      <trkpt lat="45.93659" lon="5.1815">
        <ele>296.4</ele>
        <time>2022-02-24T14:13:23Z</time>
      </trkpt>
      <trkpt lat="45.93667" lon="5.18147">
        <ele>296.2</ele>
        <time>2022-02-24T14:13:24Z</time>
      </trkpt>
      <trkpt lat="45.93675" lon="5.18143">
        <ele>296.2</ele>
        <time>2022-02-24T14:13:25Z</time>
      </trkpt>
      <trkpt lat="45.93683" lon="5.18139">
        <ele>296.2</ele>
        <time>2022-02-24T14:13:26Z</time>
      </trkpt>
      <trkpt lat="45.93691" lon="5.18135">
        <ele>296</ele>
        <time>2022-02-24T14:13:27Z</time>
      </trkpt>
      <trkpt lat="45.93698" lon="5.1813">
        <ele>296</ele>
        <time>2022-02-24T14:13:28Z</time>
      </trkpt>
      <trkpt lat="45.93706" lon="5.18127">
        <ele>296</ele>
        <time>2022-02-24T14:13:29Z</time>
      </trkpt>
      <trkpt lat="45.93714" lon="5.18123">
        <ele>296</ele>
        <time>2022-02-24T14:13:30Z</time>
      </trkpt>
      <trkpt lat="45.93722" lon="5.18119">
        <ele>296</ele>
        <time>2022-02-24T14:13:31Z</time>
      </trkpt>
      <trkpt lat="45.93729" lon="5.18115">
        <ele>296</ele>
        <time>2022-02-24T14:13:32Z</time>
      </trkpt>
      <trkpt lat="45.93737" lon="5.18112">
        <ele>296.2</ele>
        <time>2022-02-24T14:13:33Z</time>
      </trkpt>
      <trkpt lat="45.93744" lon="5.18108">
        <ele>296.2</ele>
        <time>2022-02-24T14:13:34Z</time>
      </trkpt>
      <trkpt lat="45.93751" lon="5.18104">
        <ele>296.4</ele>
        <time>2022-02-24T14:13:35Z</time>
      </trkpt>
      <trkpt lat="45.93759" lon="5.181">
        <ele>296.4</ele>
        <time>2022-02-24T14:13:36Z</time>
      </trkpt>
      <trkpt lat="45.93766" lon="5.18097">
        <ele>296.6</ele>
        <time>2022-02-24T14:13:37Z</time>
      </trkpt>
      <trkpt lat="45.93773" lon="5.18093">
        <ele>296.6</ele>
        <time>2022-02-24T14:13:38Z</time>
      </trkpt>
      <trkpt lat="45.9378" lon="5.1809">
        <ele>296.6</ele>
        <time>2022-02-24T14:13:39Z</time>
      </trkpt>
      <trkpt lat="45.93787" lon="5.18086">
        <ele>296.6</ele>
        <time>2022-02-24T14:13:40Z</time>
      </trkpt>
      <trkpt lat="45.93794" lon="5.18083">
        <ele>296.8</ele>
        <time>2022-02-24T14:13:41Z</time>
      </trkpt>
      <trkpt lat="45.93801" lon="5.18079">
        <ele>296.8</ele>
        <time>2022-02-24T14:13:42Z</time>
      </trkpt>
      <trkpt lat="45.93808" lon="5.18076">
        <ele>296.8</ele>
        <time>2022-02-24T14:13:43Z</time>
      </trkpt>
      <trkpt lat="45.93815" lon="5.18073">
        <ele>296.8</ele>
        <time>2022-02-24T14:13:44Z</time>
      </trkpt>
      <trkpt lat="45.93823" lon="5.1807">
        <ele>296.8</ele>
        <time>2022-02-24T14:13:45Z</time>
      </trkpt>
      <trkpt lat="45.9383" lon="5.18066">
        <ele>296.8</ele>
        <time>2022-02-24T14:13:46Z</time>
      </trkpt>
      <trkpt lat="45.93837" lon="5.18063">
        <ele>296.8</ele>
        <time>2022-02-24T14:13:47Z</time>
      </trkpt>
      <trkpt lat="45.93844" lon="5.1806">
        <ele>296.8</ele>
        <time>2022-02-24T14:13:48Z</time>
      </trkpt>
      <trkpt lat="45.9385" lon="5.18056">
        <ele>296.8</ele>
        <time>2022-02-24T14:13:49Z</time>
      </trkpt>
      <trkpt lat="45.93857" lon="5.18053">
        <ele>296.8</ele>
        <time>2022-02-24T14:13:50Z</time>
      </trkpt>
      <trkpt lat="45.93864" lon="5.1805">
        <ele>296.8</ele>
        <time>2022-02-24T14:13:51Z</time>
      </trkpt>
      <trkpt lat="45.93871" lon="5.18046">
        <ele>296.8</ele>
        <time>2022-02-24T14:13:52Z</time>
      </trkpt>
      <trkpt lat="45.93878" lon="5.18043">
        <ele>296.8</ele>
        <time>2022-02-24T14:13:53Z</time>
      </trkpt>
      <trkpt lat="45.93885" lon="5.18039">
        <ele>297</ele>
        <time>2022-02-24T14:13:54Z</time>
      </trkpt>
      <trkpt lat="45.93892" lon="5.18036">
        <ele>297</ele>
        <time>2022-02-24T14:13:55Z</time>
      </trkpt>
      <trkpt lat="45.93899" lon="5.18033">
        <ele>297</ele>
        <time>2022-02-24T14:13:56Z</time>
      </trkpt>
      <trkpt lat="45.93906" lon="5.18029">
        <ele>297</ele>
        <time>2022-02-24T14:13:57Z</time>
      </trkpt>
      <trkpt lat="45.93912" lon="5.18026">
        <ele>297.4</ele>
        <time>2022-02-24T14:13:58Z</time>
      </trkpt>
      <trkpt lat="45.93919" lon="5.18023">
        <ele>297.4</ele>
        <time>2022-02-24T14:13:59Z</time>
      </trkpt>
      <trkpt lat="45.93925" lon="5.18019">
        <ele>297.6</ele>
        <time>2022-02-24T14:14:00Z</time>
      </trkpt>
      <trkpt lat="45.93932" lon="5.18016">
        <ele>297.6</ele>
        <time>2022-02-24T14:14:01Z</time>
      </trkpt>
      <trkpt lat="45.93938" lon="5.18013">
        <ele>298</ele>
        <time>2022-02-24T14:14:02Z</time>
      </trkpt>
      <trkpt lat="45.93944" lon="5.18009">
        <ele>298.4</ele>
        <time>2022-02-24T14:14:03Z</time>
      </trkpt>
      <trkpt lat="45.9395" lon="5.18006">
        <ele>298.6</ele>
        <time>2022-02-24T14:14:04Z</time>
      </trkpt>
      <trkpt lat="45.93956" lon="5.18003">
        <ele>298.8</ele>
        <time>2022-02-24T14:14:05Z</time>
      </trkpt>
      <trkpt lat="45.93962" lon="5.18">
        <ele>299.2</ele>
        <time>2022-02-24T14:14:06Z</time>
      </trkpt>
      <trkpt lat="45.93968" lon="5.17996">
        <ele>299.4</ele>
        <time>2022-02-24T14:14:07Z</time>
      </trkpt>
      <trkpt lat="45.93974" lon="5.17993">
        <ele>299.6</ele>
        <time>2022-02-24T14:14:08Z</time>
      </trkpt>
      <trkpt lat="45.9398" lon="5.1799">
        <ele>299.8</ele>
        <time>2022-02-24T14:14:09Z</time>
      </trkpt>
      <trkpt lat="45.93986" lon="5.17987">
        <ele>300</ele>
        <time>2022-02-24T14:14:10Z</time>
      </trkpt>
      <trkpt lat="45.93992" lon="5.17984">
        <ele>300.4</ele>
        <time>2022-02-24T14:14:11Z</time>
      </trkpt>
      <trkpt lat="45.93997" lon="5.17981">
        <ele>300.4</ele>
        <time>2022-02-24T14:14:12Z</time>
      </trkpt>
      <trkpt lat="45.94003" lon="5.17979">
        <ele>300.8</ele>
        <time>2022-02-24T14:14:13Z</time>
      </trkpt>
      <trkpt lat="45.94008" lon="5.17976">
        <ele>301</ele>
        <time>2022-02-24T14:14:14Z</time>
      </trkpt>
      <trkpt lat="45.94014" lon="5.17973">
        <ele>301</ele>
        <time>2022-02-24T14:14:15Z</time>
      </trkpt>
      <trkpt lat="45.94019" lon="5.1797">
        <ele>301.4</ele>
        <time>2022-02-24T14:14:16Z</time>
      </trkpt>
      <trkpt lat="45.94024" lon="5.17968">
        <ele>301.6</ele>
        <time>2022-02-24T14:14:17Z</time>
      </trkpt>
      <trkpt lat="45.9403" lon="5.17965">
        <ele>301.8</ele>
        <time>2022-02-24T14:14:18Z</time>
      </trkpt>
      <trkpt lat="45.94035" lon="5.17962">
        <ele>301.8</ele>
        <time>2022-02-24T14:14:19Z</time>
      </trkpt>
      <trkpt lat="45.94041" lon="5.1796">
        <ele>302.2</ele>
        <time>2022-02-24T14:14:20Z</time>
      </trkpt>
      <trkpt lat="45.94046" lon="5.17957">
        <ele>302.2</ele>
        <time>2022-02-24T14:14:21Z</time>
      </trkpt>
      <trkpt lat="45.94052" lon="5.17954">
        <ele>302.4</ele>
        <time>2022-02-24T14:14:22Z</time>
      </trkpt>
      <trkpt lat="45.94058" lon="5.17951">
        <ele>302.4</ele>
        <time>2022-02-24T14:14:23Z</time>
      </trkpt>
      <trkpt lat="45.94063" lon="5.17948">
        <ele>302.8</ele>
        <time>2022-02-24T14:14:24Z</time>
      </trkpt>
      <trkpt lat="45.94069" lon="5.17946">
        <ele>302.8</ele>
        <time>2022-02-24T14:14:25Z</time>
      </trkpt>
      <trkpt lat="45.94075" lon="5.17943">
        <ele>303</ele>
        <time>2022-02-24T14:14:26Z</time>
      </trkpt>
      <trkpt lat="45.94081" lon="5.1794">
        <ele>303</ele>
        <time>2022-02-24T14:14:27Z</time>
      </trkpt>
      <trkpt lat="45.94087" lon="5.17937">
        <ele>303.4</ele>
        <time>2022-02-24T14:14:28Z</time>
      </trkpt>
      <trkpt lat="45.94093" lon="5.17934">
        <ele>303.4</ele>
        <time>2022-02-24T14:14:29Z</time>
      </trkpt>
      <trkpt lat="45.94099" lon="5.17931">
        <ele>303.4</ele>
        <time>2022-02-24T14:14:30Z</time>
      </trkpt>
      <trkpt lat="45.94106" lon="5.17927">
        <ele>303.4</ele>
        <time>2022-02-24T14:14:31Z</time>
      </trkpt>
      <trkpt lat="45.94112" lon="5.17923">
        <ele>303.4</ele>
        <time>2022-02-24T14:14:32Z</time>
      </trkpt>
      <trkpt lat="45.94119" lon="5.1792">
        <ele>303.4</ele>
        <time>2022-02-24T14:14:33Z</time>
      </trkpt>
      <trkpt lat="45.94126" lon="5.17916">
        <ele>303.4</ele>
        <time>2022-02-24T14:14:34Z</time>
      </trkpt>
      <trkpt lat="45.94133" lon="5.17913">
        <ele>303.4</ele>
        <time>2022-02-24T14:14:35Z</time>
      </trkpt>
      <trkpt lat="45.94141" lon="5.17909">
        <ele>303.4</ele>
        <time>2022-02-24T14:14:36Z</time>
      </trkpt>
      <trkpt lat="45.94148" lon="5.17905">
        <ele>303.2</ele>
        <time>2022-02-24T14:14:37Z</time>
      </trkpt>
      <trkpt lat="45.94156" lon="5.17901">
        <ele>303</ele>
        <time>2022-02-24T14:14:38Z</time>
      </trkpt>
      <trkpt lat="45.94163" lon="5.17897">
        <ele>303</ele>
        <time>2022-02-24T14:14:39Z</time>
      </trkpt>
      <trkpt lat="45.94171" lon="5.17893">
        <ele>302.6</ele>
        <time>2022-02-24T14:14:40Z</time>
      </trkpt>
      <trkpt lat="45.94178" lon="5.17889">
        <ele>302.6</ele>
        <time>2022-02-24T14:14:41Z</time>
      </trkpt>
      <trkpt lat="45.94186" lon="5.17885">
        <ele>302.2</ele>
        <time>2022-02-24T14:14:42Z</time>
      </trkpt>
      <trkpt lat="45.94194" lon="5.1788">
        <ele>302.2</ele>
        <time>2022-02-24T14:14:43Z</time>
      </trkpt>
      <trkpt lat="45.94202" lon="5.17876">
        <ele>302</ele>
        <time>2022-02-24T14:14:44Z</time>
      </trkpt>
      <trkpt lat="45.94211" lon="5.17872">
        <ele>302</ele>
        <time>2022-02-24T14:14:45Z</time>
      </trkpt>
      <trkpt lat="45.94219" lon="5.17868">
        <ele>301.8</ele>
        <time>2022-02-24T14:14:46Z</time>
      </trkpt>
      <trkpt lat="45.94227" lon="5.17864">
        <ele>301.6</ele>
        <time>2022-02-24T14:14:47Z</time>
      </trkpt>
      <trkpt lat="45.94236" lon="5.1786">
        <ele>301.6</ele>
        <time>2022-02-24T14:14:48Z</time>
      </trkpt>
      <trkpt lat="45.94245" lon="5.17855">
        <ele>301.6</ele>
        <time>2022-02-24T14:14:49Z</time>
      </trkpt>
      <trkpt lat="45.94254" lon="5.17852">
        <ele>301.2</ele>
        <time>2022-02-24T14:14:50Z</time>
      </trkpt>
      <trkpt lat="45.94263" lon="5.17848">
        <ele>301.2</ele>
        <time>2022-02-24T14:14:51Z</time>
      </trkpt>
      <trkpt lat="45.94271" lon="5.17843">
        <ele>300.8</ele>
        <time>2022-02-24T14:14:52Z</time>
      </trkpt>
      <trkpt lat="45.9428" lon="5.17839">
        <ele>300.8</ele>
        <time>2022-02-24T14:14:53Z</time>
      </trkpt>
      <trkpt lat="45.94289" lon="5.17834">
        <ele>300.8</ele>
        <time>2022-02-24T14:14:54Z</time>
      </trkpt>
      <trkpt lat="45.94298" lon="5.1783">
        <ele>300.6</ele>
        <time>2022-02-24T14:14:55Z</time>
      </trkpt>
      <trkpt lat="45.94307" lon="5.17826">
        <ele>300.6</ele>
        <time>2022-02-24T14:14:56Z</time>
      </trkpt>
      <trkpt lat="45.94316" lon="5.17821">
        <ele>300.4</ele>
        <time>2022-02-24T14:14:57Z</time>
      </trkpt>
      <trkpt lat="45.94325" lon="5.17816">
        <ele>300.4</ele>
        <time>2022-02-24T14:14:58Z</time>
      </trkpt>
      <trkpt lat="45.94335" lon="5.17812">
        <ele>300.4</ele>
        <time>2022-02-24T14:14:59Z</time>
      </trkpt>
      <trkpt lat="45.94344" lon="5.17808">
        <ele>300</ele>
        <time>2022-02-24T14:15:00Z</time>
      </trkpt>
      <trkpt lat="45.94354" lon="5.17803">
        <ele>300</ele>
        <time>2022-02-24T14:15:01Z</time>
      </trkpt>
      <trkpt lat="45.94363" lon="5.17798">
        <ele>299.8</ele>
        <time>2022-02-24T14:15:02Z</time>
      </trkpt>
      <trkpt lat="45.94372" lon="5.17793">
        <ele>299.8</ele>
        <time>2022-02-24T14:15:03Z</time>
      </trkpt>
      <trkpt lat="45.94381" lon="5.17789">
        <ele>299.4</ele>
        <time>2022-02-24T14:15:04Z</time>
      </trkpt>
      <trkpt lat="45.94389" lon="5.17785">
        <ele>299.4</ele>
        <time>2022-02-24T14:15:05Z</time>
      </trkpt>
      <trkpt lat="45.94398" lon="5.1778">
        <ele>299.2</ele>
        <time>2022-02-24T14:15:06Z</time>
      </trkpt>
      <trkpt lat="45.94407" lon="5.17776">
        <ele>299.2</ele>
        <time>2022-02-24T14:15:07Z</time>
      </trkpt>
      <trkpt lat="45.94417" lon="5.1777">
        <ele>298.8</ele>
        <time>2022-02-24T14:15:08Z</time>
      </trkpt>
      <trkpt lat="45.94425" lon="5.17765">
        <ele>298.8</ele>
        <time>2022-02-24T14:15:09Z</time>
      </trkpt>
      <trkpt lat="45.94434" lon="5.17762">
        <ele>298.4</ele>
        <time>2022-02-24T14:15:10Z</time>
      </trkpt>
      <trkpt lat="45.94443" lon="5.17757">
        <ele>298.2</ele>
        <time>2022-02-24T14:15:11Z</time>
      </trkpt>
      <trkpt lat="45.94451" lon="5.17753">
        <ele>298.2</ele>
        <time>2022-02-24T14:15:12Z</time>
      </trkpt>
      <trkpt lat="45.9446" lon="5.17748">
        <ele>297.8</ele>
        <time>2022-02-24T14:15:13Z</time>
      </trkpt>
      <trkpt lat="45.94469" lon="5.17744">
        <ele>297.8</ele>
        <time>2022-02-24T14:15:14Z</time>
      </trkpt>
      <trkpt lat="45.94478" lon="5.17739">
        <ele>297.6</ele>
        <time>2022-02-24T14:15:15Z</time>
      </trkpt>
      <trkpt lat="45.94487" lon="5.17735">
        <ele>297.6</ele>
        <time>2022-02-24T14:15:16Z</time>
      </trkpt>
      <trkpt lat="45.94495" lon="5.1773">
        <ele>297.2</ele>
        <time>2022-02-24T14:15:17Z</time>
      </trkpt>
      <trkpt lat="45.94504" lon="5.17727">
        <ele>297.2</ele>
        <time>2022-02-24T14:15:18Z</time>
      </trkpt>
      <trkpt lat="45.94513" lon="5.17723">
        <ele>297</ele>
        <time>2022-02-24T14:15:19Z</time>
      </trkpt>
      <trkpt lat="45.94521" lon="5.17719">
        <ele>297</ele>
        <time>2022-02-24T14:15:20Z</time>
      </trkpt>
      <trkpt lat="45.9453" lon="5.17715">
        <ele>297</ele>
        <time>2022-02-24T14:15:21Z</time>
      </trkpt>
      <trkpt lat="45.94539" lon="5.17711">
        <ele>296.8</ele>
        <time>2022-02-24T14:15:22Z</time>
      </trkpt>
      <trkpt lat="45.94547" lon="5.17707">
        <ele>296.8</ele>
        <time>2022-02-24T14:15:23Z</time>
      </trkpt>
      <trkpt lat="45.94555" lon="5.17703">
        <ele>296.8</ele>
        <time>2022-02-24T14:15:24Z</time>
      </trkpt>
      <trkpt lat="45.94563" lon="5.17699">
        <ele>296.8</ele>
        <time>2022-02-24T14:15:25Z</time>
      </trkpt>
      <trkpt lat="45.94571" lon="5.17694">
        <ele>297</ele>
        <time>2022-02-24T14:15:26Z</time>
      </trkpt>
      <trkpt lat="45.9458" lon="5.17691">
        <ele>297</ele>
        <time>2022-02-24T14:15:27Z</time>
      </trkpt>
      <trkpt lat="45.94588" lon="5.17686">
        <ele>297</ele>
        <time>2022-02-24T14:15:28Z</time>
      </trkpt>
      <trkpt lat="45.94595" lon="5.17682">
        <ele>297</ele>
        <time>2022-02-24T14:15:29Z</time>
      </trkpt>
      <trkpt lat="45.94603" lon="5.17678">
        <ele>297</ele>
        <time>2022-02-24T14:15:30Z</time>
      </trkpt>
      <trkpt lat="45.94611" lon="5.17674">
        <ele>297.2</ele>
        <time>2022-02-24T14:15:31Z</time>
      </trkpt>
      <trkpt lat="45.94619" lon="5.1767">
        <ele>297.2</ele>
        <time>2022-02-24T14:15:32Z</time>
      </trkpt>
      <trkpt lat="45.94626" lon="5.17666">
        <ele>297.2</ele>
        <time>2022-02-24T14:15:33Z</time>
      </trkpt>
      <trkpt lat="45.94634" lon="5.17662">
        <ele>297.2</ele>
        <time>2022-02-24T14:15:34Z</time>
      </trkpt>
      <trkpt lat="45.94642" lon="5.17659">
        <ele>297.6</ele>
        <time>2022-02-24T14:15:35Z</time>
      </trkpt>
      <trkpt lat="45.9465" lon="5.17655">
        <ele>297.6</ele>
        <time>2022-02-24T14:15:36Z</time>
      </trkpt>
      <trkpt lat="45.94657" lon="5.17651">
        <ele>297.8</ele>
        <time>2022-02-24T14:15:37Z</time>
      </trkpt>
      <trkpt lat="45.94665" lon="5.17647">
        <ele>297.8</ele>
        <time>2022-02-24T14:15:38Z</time>
      </trkpt>
      <trkpt lat="45.94672" lon="5.17643">
        <ele>298</ele>
        <time>2022-02-24T14:15:39Z</time>
      </trkpt>
      <trkpt lat="45.9468" lon="5.17639">
        <ele>298</ele>
        <time>2022-02-24T14:15:40Z</time>
      </trkpt>
      <trkpt lat="45.94688" lon="5.17635">
        <ele>298.2</ele>
        <time>2022-02-24T14:15:41Z</time>
      </trkpt>
      <trkpt lat="45.94695" lon="5.17632">
        <ele>298.2</ele>
        <time>2022-02-24T14:15:42Z</time>
      </trkpt>
      <trkpt lat="45.94702" lon="5.17628">
        <ele>298.6</ele>
        <time>2022-02-24T14:15:43Z</time>
      </trkpt>
      <trkpt lat="45.9471" lon="5.17624">
        <ele>298.6</ele>
        <time>2022-02-24T14:15:44Z</time>
      </trkpt>
      <trkpt lat="45.94717" lon="5.1762">
        <ele>299</ele>
        <time>2022-02-24T14:15:45Z</time>
      </trkpt>
      <trkpt lat="45.94724" lon="5.17616">
        <ele>299</ele>
        <time>2022-02-24T14:15:46Z</time>
      </trkpt>
      <trkpt lat="45.94731" lon="5.17612">
        <ele>299.4</ele>
        <time>2022-02-24T14:15:47Z</time>
      </trkpt>
      <trkpt lat="45.94738" lon="5.17609">
        <ele>299.4</ele>
        <time>2022-02-24T14:15:48Z</time>
      </trkpt>
      <trkpt lat="45.94745" lon="5.17606">
        <ele>299.6</ele>
        <time>2022-02-24T14:15:49Z</time>
      </trkpt>
      <trkpt lat="45.94752" lon="5.17602">
        <ele>299.6</ele>
        <time>2022-02-24T14:15:50Z</time>
      </trkpt>
      <trkpt lat="45.94759" lon="5.17599">
        <ele>299.8</ele>
        <time>2022-02-24T14:15:51Z</time>
      </trkpt>
      <trkpt lat="45.94766" lon="5.17596">
        <ele>299.8</ele>
        <time>2022-02-24T14:15:52Z</time>
      </trkpt>
      <trkpt lat="45.94773" lon="5.17592">
        <ele>300.2</ele>
        <time>2022-02-24T14:15:53Z</time>
      </trkpt>
      <trkpt lat="45.94779" lon="5.17589">
        <ele>300.2</ele>
        <time>2022-02-24T14:15:54Z</time>
      </trkpt>
      <trkpt lat="45.94786" lon="5.17586">
        <ele>300.2</ele>
        <time>2022-02-24T14:15:55Z</time>
      </trkpt>
      <trkpt lat="45.94793" lon="5.17582">
        <ele>300.4</ele>
        <time>2022-02-24T14:15:56Z</time>
      </trkpt>
      <trkpt lat="45.948" lon="5.17579">
        <ele>300.4</ele>
        <time>2022-02-24T14:15:57Z</time>
      </trkpt>
      <trkpt lat="45.94807" lon="5.17575">
        <ele>300.6</ele>
        <time>2022-02-24T14:15:58Z</time>
      </trkpt>
      <trkpt lat="45.94814" lon="5.17572">
        <ele>300.6</ele>
        <time>2022-02-24T14:15:59Z</time>
      </trkpt>
      <trkpt lat="45.94822" lon="5.17569">
        <ele>301</ele>
        <time>2022-02-24T14:16:00Z</time>
      </trkpt>
      <trkpt lat="45.94829" lon="5.17565">
        <ele>301</ele>
        <time>2022-02-24T14:16:01Z</time>
      </trkpt>
      <trkpt lat="45.94837" lon="5.17562">
        <ele>301</ele>
        <time>2022-02-24T14:16:02Z</time>
      </trkpt>
      <trkpt lat="45.94845" lon="5.17558">
        <ele>300.8</ele>
        <time>2022-02-24T14:16:03Z</time>
      </trkpt>
      <trkpt lat="45.94852" lon="5.17555">
        <ele>300.8</ele>
        <time>2022-02-24T14:16:04Z</time>
      </trkpt>
      <trkpt lat="45.9486" lon="5.17551">
        <ele>300.4</ele>
        <time>2022-02-24T14:16:05Z</time>
      </trkpt>
      <trkpt lat="45.94868" lon="5.17547">
        <ele>300.4</ele>
        <time>2022-02-24T14:16:06Z</time>
      </trkpt>
      <trkpt lat="45.94877" lon="5.17543">
        <ele>300.2</ele>
        <time>2022-02-24T14:16:07Z</time>
      </trkpt>
      <trkpt lat="45.94885" lon="5.17539">
        <ele>299.8</ele>
        <time>2022-02-24T14:16:08Z</time>
      </trkpt>
      <trkpt lat="45.94894" lon="5.17535">
        <ele>299.6</ele>
        <time>2022-02-24T14:16:09Z</time>
      </trkpt>
      <trkpt lat="45.94904" lon="5.1753">
        <ele>299.4</ele>
        <time>2022-02-24T14:16:10Z</time>
      </trkpt>
      <trkpt lat="45.94912" lon="5.17524">
        <ele>299.2</ele>
        <time>2022-02-24T14:16:11Z</time>
      </trkpt>
      <trkpt lat="45.94922" lon="5.1752">
        <ele>298.8</ele>
        <time>2022-02-24T14:16:12Z</time>
      </trkpt>
      <trkpt lat="45.94931" lon="5.17515">
        <ele>298.4</ele>
        <time>2022-02-24T14:16:13Z</time>
      </trkpt>
      <trkpt lat="45.94941" lon="5.17511">
        <ele>298.2</ele>
        <time>2022-02-24T14:16:14Z</time>
      </trkpt>
      <trkpt lat="45.9495" lon="5.17507">
        <ele>298</ele>
        <time>2022-02-24T14:16:15Z</time>
      </trkpt>
      <trkpt lat="45.94959" lon="5.17503">
        <ele>297.6</ele>
        <time>2022-02-24T14:16:16Z</time>
      </trkpt>
      <trkpt lat="45.9497" lon="5.17499">
        <ele>297.4</ele>
        <time>2022-02-24T14:16:17Z</time>
      </trkpt>
      <trkpt lat="45.9498" lon="5.17494">
        <ele>297</ele>
        <time>2022-02-24T14:16:18Z</time>
      </trkpt>
      <trkpt lat="45.94989" lon="5.1749">
        <ele>296.4</ele>
        <time>2022-02-24T14:16:19Z</time>
      </trkpt>
      <trkpt lat="45.94998" lon="5.17485">
        <ele>296.2</ele>
        <time>2022-02-24T14:16:20Z</time>
      </trkpt>
      <trkpt lat="45.95007" lon="5.1748">
        <ele>295.8</ele>
        <time>2022-02-24T14:16:21Z</time>
      </trkpt>
      <trkpt lat="45.95016" lon="5.17475">
        <ele>295.4</ele>
        <time>2022-02-24T14:16:22Z</time>
      </trkpt>
      <trkpt lat="45.95025" lon="5.1747">
        <ele>295.2</ele>
        <time>2022-02-24T14:16:23Z</time>
      </trkpt>
      <trkpt lat="45.95035" lon="5.17464">
        <ele>295</ele>
        <time>2022-02-24T14:16:24Z</time>
      </trkpt>
      <trkpt lat="45.95045" lon="5.17459">
        <ele>294.8</ele>
        <time>2022-02-24T14:16:25Z</time>
      </trkpt>
      <trkpt lat="45.95055" lon="5.17453">
        <ele>294.8</ele>
        <time>2022-02-24T14:16:26Z</time>
      </trkpt>
      <trkpt lat="45.95065" lon="5.17447">
        <ele>294.4</ele>
        <time>2022-02-24T14:16:27Z</time>
      </trkpt>
      <trkpt lat="45.95075" lon="5.17442">
        <ele>294.2</ele>
        <time>2022-02-24T14:16:28Z</time>
      </trkpt>
      <trkpt lat="45.95085" lon="5.17437">
        <ele>293.8</ele>
        <time>2022-02-24T14:16:29Z</time>
      </trkpt>
      <trkpt lat="45.95094" lon="5.17432">
        <ele>293.6</ele>
        <time>2022-02-24T14:16:30Z</time>
      </trkpt>
      <trkpt lat="45.95104" lon="5.17427">
        <ele>293.2</ele>
        <time>2022-02-24T14:16:31Z</time>
      </trkpt>
      <trkpt lat="45.95114" lon="5.17422">
        <ele>292.8</ele>
        <time>2022-02-24T14:16:32Z</time>
      </trkpt>
      <trkpt lat="45.95124" lon="5.17417">
        <ele>292.4</ele>
        <time>2022-02-24T14:16:33Z</time>
      </trkpt>
      <trkpt lat="45.95134" lon="5.17412">
        <ele>292</ele>
        <time>2022-02-24T14:16:34Z</time>
      </trkpt>
      <trkpt lat="45.95143" lon="5.17407">
        <ele>291.4</ele>
        <time>2022-02-24T14:16:35Z</time>
      </trkpt>
      <trkpt lat="45.95152" lon="5.17403">
        <ele>290.8</ele>
        <time>2022-02-24T14:16:36Z</time>
      </trkpt>
      <trkpt lat="45.95162" lon="5.17398">
        <ele>290.4</ele>
        <time>2022-02-24T14:16:37Z</time>
      </trkpt>
      <trkpt lat="45.95171" lon="5.17393">
        <ele>289.8</ele>
        <time>2022-02-24T14:16:38Z</time>
      </trkpt>
      <trkpt lat="45.95181" lon="5.17389">
        <ele>289.4</ele>
        <time>2022-02-24T14:16:39Z</time>
      </trkpt>
      <trkpt lat="45.95191" lon="5.17384">
        <ele>288.8</ele>
        <time>2022-02-24T14:16:40Z</time>
      </trkpt>
      <trkpt lat="45.95202" lon="5.17379">
        <ele>288.2</ele>
        <time>2022-02-24T14:16:41Z</time>
      </trkpt>
      <trkpt lat="45.95213" lon="5.17374">
        <ele>287.6</ele>
        <time>2022-02-24T14:16:42Z</time>
      </trkpt>
      <trkpt lat="45.95223" lon="5.17368">
        <ele>287.2</ele>
        <time>2022-02-24T14:16:43Z</time>
      </trkpt>
      <trkpt lat="45.95235" lon="5.17362">
        <ele>286.6</ele>
        <time>2022-02-24T14:16:44Z</time>
      </trkpt>
      <trkpt lat="45.95245" lon="5.17357">
        <ele>286.2</ele>
        <time>2022-02-24T14:16:45Z</time>
      </trkpt>
      <trkpt lat="45.95256" lon="5.17352">
        <ele>285.6</ele>
        <time>2022-02-24T14:16:46Z</time>
      </trkpt>
      <trkpt lat="45.95267" lon="5.17346">
        <ele>285.4</ele>
        <time>2022-02-24T14:16:47Z</time>
      </trkpt>
      <trkpt lat="45.95277" lon="5.1734">
        <ele>285</ele>
        <time>2022-02-24T14:16:48Z</time>
      </trkpt>
      <trkpt lat="45.95288" lon="5.17334">
        <ele>284.6</ele>
        <time>2022-02-24T14:16:49Z</time>
      </trkpt>
      <trkpt lat="45.953" lon="5.1733">
        <ele>284.2</ele>
        <time>2022-02-24T14:16:50Z</time>
      </trkpt>
      <trkpt lat="45.9531" lon="5.17325">
        <ele>283.8</ele>
        <time>2022-02-24T14:16:51Z</time>
      </trkpt>
      <trkpt lat="45.95321" lon="5.17319">
        <ele>283.4</ele>
        <time>2022-02-24T14:16:52Z</time>
      </trkpt>
      <trkpt lat="45.95331" lon="5.17313">
        <ele>283.4</ele>
        <time>2022-02-24T14:16:53Z</time>
      </trkpt>
      <trkpt lat="45.95342" lon="5.17307">
        <ele>283.2</ele>
        <time>2022-02-24T14:16:54Z</time>
      </trkpt>
      <trkpt lat="45.95352" lon="5.17302">
        <ele>283.2</ele>
        <time>2022-02-24T14:16:55Z</time>
      </trkpt>
      <trkpt lat="45.95363" lon="5.17296">
        <ele>283.2</ele>
        <time>2022-02-24T14:16:56Z</time>
      </trkpt>
      <trkpt lat="45.95372" lon="5.17291">
        <ele>283.2</ele>
        <time>2022-02-24T14:16:57Z</time>
      </trkpt>
      <trkpt lat="45.95381" lon="5.17287">
        <ele>283.2</ele>
        <time>2022-02-24T14:16:58Z</time>
      </trkpt>
      <trkpt lat="45.95391" lon="5.17282">
        <ele>283.2</ele>
        <time>2022-02-24T14:16:59Z</time>
      </trkpt>
      <trkpt lat="45.95401" lon="5.17278">
        <ele>283.6</ele>
        <time>2022-02-24T14:17:00Z</time>
      </trkpt>
      <trkpt lat="45.9541" lon="5.17274">
        <ele>284</ele>
        <time>2022-02-24T14:17:01Z</time>
      </trkpt>
      <trkpt lat="45.95419" lon="5.1727">
        <ele>284.2</ele>
        <time>2022-02-24T14:17:02Z</time>
      </trkpt>
      <trkpt lat="45.95427" lon="5.17266">
        <ele>284.2</ele>
        <time>2022-02-24T14:17:03Z</time>
      </trkpt>
      <trkpt lat="45.95435" lon="5.17262">
        <ele>284.4</ele>
        <time>2022-02-24T14:17:04Z</time>
      </trkpt>
      <trkpt lat="45.95443" lon="5.17258">
        <ele>284.8</ele>
        <time>2022-02-24T14:17:05Z</time>
      </trkpt>
      <trkpt lat="45.9545" lon="5.17255">
        <ele>285.2</ele>
        <time>2022-02-24T14:17:06Z</time>
      </trkpt>
      <trkpt lat="45.95458" lon="5.17251">
        <ele>285.4</ele>
        <time>2022-02-24T14:17:07Z</time>
      </trkpt>
      <trkpt lat="45.95466" lon="5.17247">
        <ele>285.8</ele>
        <time>2022-02-24T14:17:08Z</time>
      </trkpt>
      <trkpt lat="45.95473" lon="5.17244">
        <ele>286</ele>
        <time>2022-02-24T14:17:09Z</time>
      </trkpt>
      <trkpt lat="45.9548" lon="5.17241">
        <ele>286.2</ele>
        <time>2022-02-24T14:17:10Z</time>
      </trkpt>
      <trkpt lat="45.95487" lon="5.17237">
        <ele>286.2</ele>
        <time>2022-02-24T14:17:11Z</time>
      </trkpt>
      <trkpt lat="45.95494" lon="5.17233">
        <ele>286.8</ele>
        <time>2022-02-24T14:17:12Z</time>
      </trkpt>
      <trkpt lat="45.95501" lon="5.1723">
        <ele>287</ele>
        <time>2022-02-24T14:17:13Z</time>
      </trkpt>
      <trkpt lat="45.95508" lon="5.17226">
        <ele>287.2</ele>
        <time>2022-02-24T14:17:14Z</time>
      </trkpt>
      <trkpt lat="45.95515" lon="5.17223">
        <ele>287.2</ele>
        <time>2022-02-24T14:17:15Z</time>
      </trkpt>
      <trkpt lat="45.95522" lon="5.1722">
        <ele>287.6</ele>
        <time>2022-02-24T14:17:16Z</time>
      </trkpt>
      <trkpt lat="45.95529" lon="5.17217">
        <ele>287.8</ele>
        <time>2022-02-24T14:17:17Z</time>
      </trkpt>
      <trkpt lat="45.95536" lon="5.17214">
        <ele>287.8</ele>
        <time>2022-02-24T14:17:18Z</time>
      </trkpt>
      <trkpt lat="45.95543" lon="5.17211">
        <ele>288.2</ele>
        <time>2022-02-24T14:17:19Z</time>
      </trkpt>
      <trkpt lat="45.95549" lon="5.17209">
        <ele>288.4</ele>
        <time>2022-02-24T14:17:20Z</time>
      </trkpt>
      <trkpt lat="45.95557" lon="5.17207">
        <ele>288.4</ele>
        <time>2022-02-24T14:17:21Z</time>
      </trkpt>
      <trkpt lat="45.95564" lon="5.17205">
        <ele>288.6</ele>
        <time>2022-02-24T14:17:22Z</time>
      </trkpt>
      <trkpt lat="45.95571" lon="5.17203">
        <ele>288.8</ele>
        <time>2022-02-24T14:17:23Z</time>
      </trkpt>
      <trkpt lat="45.95578" lon="5.17201">
        <ele>288.8</ele>
        <time>2022-02-24T14:17:24Z</time>
      </trkpt>
      <trkpt lat="45.95585" lon="5.17199">
        <ele>289.2</ele>
        <time>2022-02-24T14:17:25Z</time>
      </trkpt>
      <trkpt lat="45.95592" lon="5.17198">
        <ele>289.4</ele>
        <time>2022-02-24T14:17:26Z</time>
      </trkpt>
      <trkpt lat="45.95599" lon="5.17197">
        <ele>289.4</ele>
        <time>2022-02-24T14:17:27Z</time>
      </trkpt>
      <trkpt lat="45.95607" lon="5.17197">
        <ele>289.8</ele>
        <time>2022-02-24T14:17:28Z</time>
      </trkpt>
      <trkpt lat="45.95613" lon="5.17196">
        <ele>289.8</ele>
        <time>2022-02-24T14:17:29Z</time>
      </trkpt>
      <trkpt lat="45.9562" lon="5.17196">
        <ele>290</ele>
        <time>2022-02-24T14:17:30Z</time>
      </trkpt>
      <trkpt lat="45.95627" lon="5.17196">
        <ele>290</ele>
        <time>2022-02-24T14:17:31Z</time>
      </trkpt>
      <trkpt lat="45.95634" lon="5.17195">
        <ele>290.4</ele>
        <time>2022-02-24T14:17:32Z</time>
      </trkpt>
      <trkpt lat="45.9564" lon="5.17195">
        <ele>290.4</ele>
        <time>2022-02-24T14:17:33Z</time>
      </trkpt>
      <trkpt lat="45.95647" lon="5.17195">
        <ele>290.8</ele>
        <time>2022-02-24T14:17:34Z</time>
      </trkpt>
      <trkpt lat="45.95653" lon="5.17196">
        <ele>290.8</ele>
        <time>2022-02-24T14:17:35Z</time>
      </trkpt>
      <trkpt lat="45.9566" lon="5.17196">
        <ele>291.2</ele>
        <time>2022-02-24T14:17:36Z</time>
      </trkpt>
      <trkpt lat="45.95666" lon="5.17196">
        <ele>291.2</ele>
        <time>2022-02-24T14:17:37Z</time>
      </trkpt>
      <trkpt lat="45.95673" lon="5.17196">
        <ele>291.4</ele>
        <time>2022-02-24T14:17:38Z</time>
      </trkpt>
      <trkpt lat="45.95679" lon="5.17197">
        <ele>291.4</ele>
        <time>2022-02-24T14:17:39Z</time>
      </trkpt>
      <trkpt lat="45.95685" lon="5.17197">
        <ele>291.8</ele>
        <time>2022-02-24T14:17:40Z</time>
      </trkpt>
      <trkpt lat="45.95692" lon="5.17198">
        <ele>291.8</ele>
        <time>2022-02-24T14:17:41Z</time>
      </trkpt>
      <trkpt lat="45.95698" lon="5.17198">
        <ele>292.2</ele>
        <time>2022-02-24T14:17:42Z</time>
      </trkpt>
      <trkpt lat="45.95704" lon="5.17199">
        <ele>292.2</ele>
        <time>2022-02-24T14:17:43Z</time>
      </trkpt>
      <trkpt lat="45.9571" lon="5.17199">
        <ele>292.6</ele>
        <time>2022-02-24T14:17:44Z</time>
      </trkpt>
      <trkpt lat="45.95716" lon="5.172">
        <ele>292.8</ele>
        <time>2022-02-24T14:17:45Z</time>
      </trkpt>
      <trkpt lat="45.95723" lon="5.172">
        <ele>293</ele>
        <time>2022-02-24T14:17:46Z</time>
      </trkpt>
      <trkpt lat="45.95729" lon="5.17201">
        <ele>293</ele>
        <time>2022-02-24T14:17:47Z</time>
      </trkpt>
      <trkpt lat="45.95735" lon="5.17201">
        <ele>293.4</ele>
        <time>2022-02-24T14:17:48Z</time>
      </trkpt>
      <trkpt lat="45.95735" lon="5.17201">
        <ele>293.4</ele>
        <time>2022-02-24T14:17:49Z</time>
      </trkpt>
      <trkpt lat="45.95741" lon="5.17202">
        <ele>293.8</ele>
        <time>2022-02-24T14:17:50Z</time>
      </trkpt>
      <trkpt lat="45.95746" lon="5.17202">
        <ele>294</ele>
        <time>2022-02-24T14:17:51Z</time>
      </trkpt>
      <trkpt lat="45.95752" lon="5.17202">
        <ele>294</ele>
        <time>2022-02-24T14:17:52Z</time>
      </trkpt>
      <trkpt lat="45.95758" lon="5.17203">
        <ele>294.4</ele>
        <time>2022-02-24T14:17:53Z</time>
      </trkpt>
      <trkpt lat="45.95764" lon="5.17203">
        <ele>294.4</ele>
        <time>2022-02-24T14:17:54Z</time>
      </trkpt>
      <trkpt lat="45.9577" lon="5.17203">
        <ele>294.6</ele>
        <time>2022-02-24T14:17:55Z</time>
      </trkpt>
      <trkpt lat="45.95775" lon="5.17204">
        <ele>294.6</ele>
        <time>2022-02-24T14:17:56Z</time>
      </trkpt>
      <trkpt lat="45.95781" lon="5.17204">
        <ele>295</ele>
        <time>2022-02-24T14:17:57Z</time>
      </trkpt>
      <trkpt lat="45.95787" lon="5.17205">
        <ele>295</ele>
        <time>2022-02-24T14:17:58Z</time>
      </trkpt>
      <trkpt lat="45.95792" lon="5.17205">
        <ele>295.2</ele>
        <time>2022-02-24T14:17:59Z</time>
      </trkpt>
      <trkpt lat="45.95798" lon="5.17206">
        <ele>295.4</ele>
        <time>2022-02-24T14:18:00Z</time>
      </trkpt>
      <trkpt lat="45.95804" lon="5.17206">
        <ele>295.4</ele>
        <time>2022-02-24T14:18:01Z</time>
      </trkpt>
      <trkpt lat="45.95809" lon="5.17206">
        <ele>295.8</ele>
        <time>2022-02-24T14:18:02Z</time>
      </trkpt>
      <trkpt lat="45.95815" lon="5.17207">
        <ele>295.8</ele>
        <time>2022-02-24T14:18:03Z</time>
      </trkpt>
      <trkpt lat="45.95821" lon="5.17207">
        <ele>296</ele>
        <time>2022-02-24T14:18:04Z</time>
      </trkpt>
      <trkpt lat="45.95827" lon="5.17208">
        <ele>296</ele>
        <time>2022-02-24T14:18:05Z</time>
      </trkpt>
      <trkpt lat="45.95833" lon="5.17208">
        <ele>296</ele>
        <time>2022-02-24T14:18:06Z</time>
      </trkpt>
      <trkpt lat="45.95838" lon="5.17208">
        <ele>296.2</ele>
        <time>2022-02-24T14:18:07Z</time>
      </trkpt>
      <trkpt lat="45.95844" lon="5.17208">
        <ele>296.2</ele>
        <time>2022-02-24T14:18:08Z</time>
      </trkpt>
      <trkpt lat="45.9585" lon="5.17209">
        <ele>296.6</ele>
        <time>2022-02-24T14:18:09Z</time>
      </trkpt>
      <trkpt lat="45.95856" lon="5.17209">
        <ele>296.6</ele>
        <time>2022-02-24T14:18:10Z</time>
      </trkpt>
      <trkpt lat="45.95862" lon="5.1721">
        <ele>297</ele>
        <time>2022-02-24T14:18:11Z</time>
      </trkpt>
      <trkpt lat="45.95868" lon="5.1721">
        <ele>297</ele>
        <time>2022-02-24T14:18:12Z</time>
      </trkpt>
      <trkpt lat="45.95874" lon="5.1721">
        <ele>297.2</ele>
        <time>2022-02-24T14:18:13Z</time>
      </trkpt>
      <trkpt lat="45.9588" lon="5.17211">
        <ele>297.2</ele>
        <time>2022-02-24T14:18:14Z</time>
      </trkpt>
      <trkpt lat="45.95886" lon="5.17211">
        <ele>297.4</ele>
        <time>2022-02-24T14:18:15Z</time>
      </trkpt>
      <trkpt lat="45.95892" lon="5.17211">
        <ele>297.4</ele>
        <time>2022-02-24T14:18:16Z</time>
      </trkpt>
      <trkpt lat="45.95898" lon="5.17212">
        <ele>297.8</ele>
        <time>2022-02-24T14:18:17Z</time>
      </trkpt>
      <trkpt lat="45.95905" lon="5.17212">
        <ele>297.8</ele>
        <time>2022-02-24T14:18:18Z</time>
      </trkpt>
      <trkpt lat="45.95911" lon="5.17213">
        <ele>297.8</ele>
        <time>2022-02-24T14:18:19Z</time>
      </trkpt>
      <trkpt lat="45.95917" lon="5.17213">
        <ele>298</ele>
        <time>2022-02-24T14:18:20Z</time>
      </trkpt>
      <trkpt lat="45.95923" lon="5.17213">
        <ele>298</ele>
        <time>2022-02-24T14:18:21Z</time>
      </trkpt>
      <trkpt lat="45.9593" lon="5.17214">
        <ele>298</ele>
        <time>2022-02-24T14:18:22Z</time>
      </trkpt>
      <trkpt lat="45.95936" lon="5.17214">
        <ele>298.4</ele>
        <time>2022-02-24T14:18:23Z</time>
      </trkpt>
      <trkpt lat="45.95942" lon="5.17214">
        <ele>298.4</ele>
        <time>2022-02-24T14:18:24Z</time>
      </trkpt>
      <trkpt lat="45.95949" lon="5.17214">
        <ele>298.6</ele>
        <time>2022-02-24T14:18:25Z</time>
      </trkpt>
      <trkpt lat="45.95955" lon="5.17215">
        <ele>298.6</ele>
        <time>2022-02-24T14:18:26Z</time>
      </trkpt>
      <trkpt lat="45.95962" lon="5.17215">
        <ele>298.6</ele>
        <time>2022-02-24T14:18:27Z</time>
      </trkpt>
      <trkpt lat="45.95968" lon="5.17215">
        <ele>298.6</ele>
        <time>2022-02-24T14:18:28Z</time>
      </trkpt>
      <trkpt lat="45.95975" lon="5.17216">
        <ele>298.6</ele>
        <time>2022-02-24T14:18:29Z</time>
      </trkpt>
      <trkpt lat="45.95982" lon="5.17216">
        <ele>298.8</ele>
        <time>2022-02-24T14:18:30Z</time>
      </trkpt>
      <trkpt lat="45.95988" lon="5.17216">
        <ele>298.8</ele>
        <time>2022-02-24T14:18:31Z</time>
      </trkpt>
      <trkpt lat="45.95995" lon="5.17216">
        <ele>298.8</ele>
        <time>2022-02-24T14:18:32Z</time>
      </trkpt>
      <trkpt lat="45.96002" lon="5.17217">
        <ele>298.8</ele>
        <time>2022-02-24T14:18:33Z</time>
      </trkpt>
      <trkpt lat="45.96009" lon="5.17217">
        <ele>298.8</ele>
        <time>2022-02-24T14:18:34Z</time>
      </trkpt>
      <trkpt lat="45.96016" lon="5.17218">
        <ele>298.8</ele>
        <time>2022-02-24T14:18:35Z</time>
      </trkpt>
      <trkpt lat="45.96023" lon="5.17218">
        <ele>298.8</ele>
        <time>2022-02-24T14:18:36Z</time>
      </trkpt>
      <trkpt lat="45.9603" lon="5.17219">
        <ele>298.8</ele>
        <time>2022-02-24T14:18:37Z</time>
      </trkpt>
      <trkpt lat="45.96037" lon="5.17219">
        <ele>298.8</ele>
        <time>2022-02-24T14:18:38Z</time>
      </trkpt>
      <trkpt lat="45.96045" lon="5.1722">
        <ele>298.4</ele>
        <time>2022-02-24T14:18:39Z</time>
      </trkpt>
      <trkpt lat="45.96052" lon="5.1722">
        <ele>298.4</ele>
        <time>2022-02-24T14:18:40Z</time>
      </trkpt>
      <trkpt lat="45.96059" lon="5.1722">
        <ele>298.2</ele>
        <time>2022-02-24T14:18:41Z</time>
      </trkpt>
      <trkpt lat="45.96067" lon="5.17221">
        <ele>298.2</ele>
        <time>2022-02-24T14:18:42Z</time>
      </trkpt>
      <trkpt lat="45.96074" lon="5.17221">
        <ele>298.2</ele>
        <time>2022-02-24T14:18:43Z</time>
      </trkpt>
      <trkpt lat="45.96081" lon="5.17222">
        <ele>298.2</ele>
        <time>2022-02-24T14:18:44Z</time>
      </trkpt>
      <trkpt lat="45.96089" lon="5.17222">
        <ele>298.2</ele>
        <time>2022-02-24T14:18:45Z</time>
      </trkpt>
      <trkpt lat="45.96096" lon="5.17223">
        <ele>298.2</ele>
        <time>2022-02-24T14:18:46Z</time>
      </trkpt>
      <trkpt lat="45.96104" lon="5.17223">
        <ele>298.2</ele>
        <time>2022-02-24T14:18:47Z</time>
      </trkpt>
      <trkpt lat="45.96111" lon="5.17224">
        <ele>298.2</ele>
        <time>2022-02-24T14:18:48Z</time>
      </trkpt>
      <trkpt lat="45.96119" lon="5.17224">
        <ele>298.2</ele>
        <time>2022-02-24T14:18:49Z</time>
      </trkpt>
      <trkpt lat="45.96126" lon="5.17225">
        <ele>298.2</ele>
        <time>2022-02-24T14:18:50Z</time>
      </trkpt>
      <trkpt lat="45.96134" lon="5.17225">
        <ele>298.4</ele>
        <time>2022-02-24T14:18:51Z</time>
      </trkpt>
      <trkpt lat="45.96141" lon="5.17226">
        <ele>298.4</ele>
        <time>2022-02-24T14:18:52Z</time>
      </trkpt>
      <trkpt lat="45.96149" lon="5.17226">
        <ele>298.4</ele>
        <time>2022-02-24T14:18:53Z</time>
      </trkpt>
      <trkpt lat="45.96157" lon="5.17227">
        <ele>298.6</ele>
        <time>2022-02-24T14:18:54Z</time>
      </trkpt>
      <trkpt lat="45.96164" lon="5.17227">
        <ele>298.6</ele>
        <time>2022-02-24T14:18:55Z</time>
      </trkpt>
      <trkpt lat="45.96172" lon="5.17228">
        <ele>298.6</ele>
        <time>2022-02-24T14:18:56Z</time>
      </trkpt>
      <trkpt lat="45.9618" lon="5.17228">
        <ele>298.6</ele>
        <time>2022-02-24T14:18:57Z</time>
      </trkpt>
      <trkpt lat="45.96188" lon="5.17229">
        <ele>298.6</ele>
        <time>2022-02-24T14:18:58Z</time>
      </trkpt>
      <trkpt lat="45.96195" lon="5.17229">
        <ele>298.6</ele>
        <time>2022-02-24T14:18:59Z</time>
      </trkpt>
      <trkpt lat="45.96203" lon="5.1723">
        <ele>298.6</ele>
        <time>2022-02-24T14:19:00Z</time>
      </trkpt>
      <trkpt lat="45.9621" lon="5.1723">
        <ele>298.6</ele>
        <time>2022-02-24T14:19:01Z</time>
      </trkpt>
      <trkpt lat="45.96218" lon="5.17231">
        <ele>298.6</ele>
        <time>2022-02-24T14:19:02Z</time>
      </trkpt>
      <trkpt lat="45.96225" lon="5.17232">
        <ele>298.6</ele>
        <time>2022-02-24T14:19:03Z</time>
      </trkpt>
      <trkpt lat="45.96233" lon="5.17232">
        <ele>299</ele>
        <time>2022-02-24T14:19:04Z</time>
      </trkpt>
      <trkpt lat="45.9624" lon="5.17233">
        <ele>299</ele>
        <time>2022-02-24T14:19:05Z</time>
      </trkpt>
      <trkpt lat="45.96247" lon="5.17234">
        <ele>299.2</ele>
        <time>2022-02-24T14:19:06Z</time>
      </trkpt>
      <trkpt lat="45.96255" lon="5.17234">
        <ele>299.2</ele>
        <time>2022-02-24T14:19:07Z</time>
      </trkpt>
      <trkpt lat="45.96262" lon="5.17235">
        <ele>299.2</ele>
        <time>2022-02-24T14:19:08Z</time>
      </trkpt>
      <trkpt lat="45.96269" lon="5.17235">
        <ele>299.2</ele>
        <time>2022-02-24T14:19:09Z</time>
      </trkpt>
      <trkpt lat="45.96276" lon="5.17236">
        <ele>299.2</ele>
        <time>2022-02-24T14:19:10Z</time>
      </trkpt>
      <trkpt lat="45.96284" lon="5.17236">
        <ele>299.4</ele>
        <time>2022-02-24T14:19:11Z</time>
      </trkpt>
      <trkpt lat="45.96291" lon="5.17237">
        <ele>299.4</ele>
        <time>2022-02-24T14:19:12Z</time>
      </trkpt>
      <trkpt lat="45.96298" lon="5.17237">
        <ele>299.4</ele>
        <time>2022-02-24T14:19:13Z</time>
      </trkpt>
      <trkpt lat="45.96305" lon="5.17237">
        <ele>299.6</ele>
        <time>2022-02-24T14:19:14Z</time>
      </trkpt>
      <trkpt lat="45.96312" lon="5.17238">
        <ele>299.6</ele>
        <time>2022-02-24T14:19:15Z</time>
      </trkpt>
      <trkpt lat="45.96319" lon="5.17238">
        <ele>299.8</ele>
        <time>2022-02-24T14:19:16Z</time>
      </trkpt>
      <trkpt lat="45.96326" lon="5.17238">
        <ele>299.8</ele>
        <time>2022-02-24T14:19:17Z</time>
      </trkpt>
      <trkpt lat="45.96333" lon="5.17239">
        <ele>299.8</ele>
        <time>2022-02-24T14:19:18Z</time>
      </trkpt>
      <trkpt lat="45.9634" lon="5.17239">
        <ele>300.2</ele>
        <time>2022-02-24T14:19:19Z</time>
      </trkpt>
      <trkpt lat="45.96348" lon="5.17239">
        <ele>300.2</ele>
        <time>2022-02-24T14:19:20Z</time>
      </trkpt>
      <trkpt lat="45.96354" lon="5.1724">
        <ele>300.6</ele>
        <time>2022-02-24T14:19:21Z</time>
      </trkpt>
      <trkpt lat="45.96361" lon="5.1724">
        <ele>300.6</ele>
        <time>2022-02-24T14:19:22Z</time>
      </trkpt>
      <trkpt lat="45.96367" lon="5.17241">
        <ele>301</ele>
        <time>2022-02-24T14:19:23Z</time>
      </trkpt>
      <trkpt lat="45.96374" lon="5.17241">
        <ele>301</ele>
        <time>2022-02-24T14:19:24Z</time>
      </trkpt>
      <trkpt lat="45.96381" lon="5.17241">
        <ele>301</ele>
        <time>2022-02-24T14:19:25Z</time>
      </trkpt>
      <trkpt lat="45.96387" lon="5.17241">
        <ele>301.4</ele>
        <time>2022-02-24T14:19:26Z</time>
      </trkpt>
      <trkpt lat="45.96394" lon="5.17242">
        <ele>301.6</ele>
        <time>2022-02-24T14:19:27Z</time>
      </trkpt>
      <trkpt lat="45.964" lon="5.17242">
        <ele>301.8</ele>
        <time>2022-02-24T14:19:28Z</time>
      </trkpt>
      <trkpt lat="45.96407" lon="5.17242">
        <ele>301.8</ele>
        <time>2022-02-24T14:19:29Z</time>
      </trkpt>
      <trkpt lat="45.96413" lon="5.17242">
        <ele>302.4</ele>
        <time>2022-02-24T14:19:30Z</time>
      </trkpt>
      <trkpt lat="45.9642" lon="5.17242">
        <ele>302.4</ele>
        <time>2022-02-24T14:19:31Z</time>
      </trkpt>
      <trkpt lat="45.96426" lon="5.17243">
        <ele>302.6</ele>
        <time>2022-02-24T14:19:32Z</time>
      </trkpt>
      <trkpt lat="45.96432" lon="5.17243">
        <ele>303</ele>
        <time>2022-02-24T14:19:33Z</time>
      </trkpt>
      <trkpt lat="45.96438" lon="5.17243">
        <ele>303.2</ele>
        <time>2022-02-24T14:19:34Z</time>
      </trkpt>
      <trkpt lat="45.96445" lon="5.17243">
        <ele>303.4</ele>
        <time>2022-02-24T14:19:35Z</time>
      </trkpt>
      <trkpt lat="45.9645" lon="5.17243">
        <ele>303.4</ele>
        <time>2022-02-24T14:19:36Z</time>
      </trkpt>
      <trkpt lat="45.96456" lon="5.17244">
        <ele>303.6</ele>
        <time>2022-02-24T14:19:37Z</time>
      </trkpt>
      <trkpt lat="45.96462" lon="5.17244">
        <ele>303.8</ele>
        <time>2022-02-24T14:19:38Z</time>
      </trkpt>
      <trkpt lat="45.96468" lon="5.17244">
        <ele>303.8</ele>
        <time>2022-02-24T14:19:39Z</time>
      </trkpt>
      <trkpt lat="45.96474" lon="5.17244">
        <ele>304.2</ele>
        <time>2022-02-24T14:19:40Z</time>
      </trkpt>
      <trkpt lat="45.9648" lon="5.17244">
        <ele>304.2</ele>
        <time>2022-02-24T14:19:41Z</time>
      </trkpt>
      <trkpt lat="45.96486" lon="5.17245">
        <ele>304.6</ele>
        <time>2022-02-24T14:19:42Z</time>
      </trkpt>
      <trkpt lat="45.96492" lon="5.17245">
        <ele>304.8</ele>
        <time>2022-02-24T14:19:43Z</time>
      </trkpt>
      <trkpt lat="45.96498" lon="5.17245">
        <ele>304.8</ele>
        <time>2022-02-24T14:19:44Z</time>
      </trkpt>
      <trkpt lat="45.96504" lon="5.17245">
        <ele>304.8</ele>
        <time>2022-02-24T14:19:45Z</time>
      </trkpt>
      <trkpt lat="45.9651" lon="5.17245">
        <ele>305</ele>
        <time>2022-02-24T14:19:46Z</time>
      </trkpt>
      <trkpt lat="45.96515" lon="5.17246">
        <ele>305</ele>
        <time>2022-02-24T14:19:47Z</time>
      </trkpt>
      <trkpt lat="45.96521" lon="5.17246">
        <ele>305.4</ele>
        <time>2022-02-24T14:19:48Z</time>
      </trkpt>
      <trkpt lat="45.96526" lon="5.17246">
        <ele>305.4</ele>
        <time>2022-02-24T14:19:49Z</time>
      </trkpt>
      <trkpt lat="45.96532" lon="5.17247">
        <ele>305.6</ele>
        <time>2022-02-24T14:19:50Z</time>
      </trkpt>
      <trkpt lat="45.96538" lon="5.17247">
        <ele>305.6</ele>
        <time>2022-02-24T14:19:51Z</time>
      </trkpt>
      <trkpt lat="45.96543" lon="5.17247">
        <ele>306</ele>
        <time>2022-02-24T14:19:52Z</time>
      </trkpt>
      <trkpt lat="45.96549" lon="5.17247">
        <ele>306</ele>
        <time>2022-02-24T14:19:53Z</time>
      </trkpt>
      <trkpt lat="45.96555" lon="5.17248">
        <ele>306.2</ele>
        <time>2022-02-24T14:19:54Z</time>
      </trkpt>
      <trkpt lat="45.96561" lon="5.17248">
        <ele>306.2</ele>
        <time>2022-02-24T14:19:55Z</time>
      </trkpt>
      <trkpt lat="45.96567" lon="5.17248">
        <ele>306.2</ele>
        <time>2022-02-24T14:19:56Z</time>
      </trkpt>
      <trkpt lat="45.96573" lon="5.17249">
        <ele>306.4</ele>
        <time>2022-02-24T14:19:57Z</time>
      </trkpt>
      <trkpt lat="45.96579" lon="5.17249">
        <ele>306.4</ele>
        <time>2022-02-24T14:19:58Z</time>
      </trkpt>
      <trkpt lat="45.96585" lon="5.1725">
        <ele>306.4</ele>
        <time>2022-02-24T14:19:59Z</time>
      </trkpt>
      <trkpt lat="45.96591" lon="5.1725">
        <ele>306.4</ele>
        <time>2022-02-24T14:20:00Z</time>
      </trkpt>
      <trkpt lat="45.96597" lon="5.1725">
        <ele>306.8</ele>
        <time>2022-02-24T14:20:01Z</time>
      </trkpt>
      <trkpt lat="45.96603" lon="5.1725">
        <ele>306.8</ele>
        <time>2022-02-24T14:20:02Z</time>
      </trkpt>
      <trkpt lat="45.9661" lon="5.17251">
        <ele>306.8</ele>
        <time>2022-02-24T14:20:03Z</time>
      </trkpt>
      <trkpt lat="45.96616" lon="5.17251">
        <ele>307</ele>
        <time>2022-02-24T14:20:04Z</time>
      </trkpt>
      <trkpt lat="45.96622" lon="5.17251">
        <ele>307</ele>
        <time>2022-02-24T14:20:05Z</time>
      </trkpt>
      <trkpt lat="45.96629" lon="5.17252">
        <ele>307</ele>
        <time>2022-02-24T14:20:06Z</time>
      </trkpt>
      <trkpt lat="45.96635" lon="5.17252">
        <ele>307</ele>
        <time>2022-02-24T14:20:07Z</time>
      </trkpt>
      <trkpt lat="45.96641" lon="5.17253">
        <ele>307</ele>
        <time>2022-02-24T14:20:08Z</time>
      </trkpt>
      <trkpt lat="45.96648" lon="5.17254">
        <ele>307</ele>
        <time>2022-02-24T14:20:09Z</time>
      </trkpt>
      <trkpt lat="45.96654" lon="5.17254">
        <ele>307.2</ele>
        <time>2022-02-24T14:20:10Z</time>
      </trkpt>
      <trkpt lat="45.96661" lon="5.17254">
        <ele>307.2</ele>
        <time>2022-02-24T14:20:11Z</time>
      </trkpt>
      <trkpt lat="45.96667" lon="5.17255">
        <ele>307.2</ele>
        <time>2022-02-24T14:20:12Z</time>
      </trkpt>
      <trkpt lat="45.96674" lon="5.17255">
        <ele>307.2</ele>
        <time>2022-02-24T14:20:13Z</time>
      </trkpt>
      <trkpt lat="45.9668" lon="5.17256">
        <ele>307.2</ele>
        <time>2022-02-24T14:20:14Z</time>
      </trkpt>
      <trkpt lat="45.96687" lon="5.17256">
        <ele>307.2</ele>
        <time>2022-02-24T14:20:15Z</time>
      </trkpt>
      <trkpt lat="45.96693" lon="5.17256">
        <ele>307.2</ele>
        <time>2022-02-24T14:20:16Z</time>
      </trkpt>
      <trkpt lat="45.96699" lon="5.17257">
        <ele>307.2</ele>
        <time>2022-02-24T14:20:17Z</time>
      </trkpt>
      <trkpt lat="45.96706" lon="5.17257">
        <ele>307.6</ele>
        <time>2022-02-24T14:20:18Z</time>
      </trkpt>
      <trkpt lat="45.96712" lon="5.17257">
        <ele>307.6</ele>
        <time>2022-02-24T14:20:19Z</time>
      </trkpt>
      <trkpt lat="45.96719" lon="5.17258">
        <ele>307.8</ele>
        <time>2022-02-24T14:20:20Z</time>
      </trkpt>
      <trkpt lat="45.96725" lon="5.17258">
        <ele>307.8</ele>
        <time>2022-02-24T14:20:21Z</time>
      </trkpt>
      <trkpt lat="45.96731" lon="5.17258">
        <ele>308</ele>
        <time>2022-02-24T14:20:22Z</time>
      </trkpt>
      <trkpt lat="45.96738" lon="5.17258">
        <ele>308</ele>
        <time>2022-02-24T14:20:23Z</time>
      </trkpt>
      <trkpt lat="45.96744" lon="5.17259">
        <ele>308.6</ele>
        <time>2022-02-24T14:20:24Z</time>
      </trkpt>
      <trkpt lat="45.96751" lon="5.17259">
        <ele>308.6</ele>
        <time>2022-02-24T14:20:25Z</time>
      </trkpt>
      <trkpt lat="45.96757" lon="5.1726">
        <ele>308.6</ele>
        <time>2022-02-24T14:20:26Z</time>
      </trkpt>
      <trkpt lat="45.96763" lon="5.1726">
        <ele>308.8</ele>
        <time>2022-02-24T14:20:27Z</time>
      </trkpt>
      <trkpt lat="45.9677" lon="5.1726">
        <ele>308.8</ele>
        <time>2022-02-24T14:20:28Z</time>
      </trkpt>
      <trkpt lat="45.96776" lon="5.1726">
        <ele>309</ele>
        <time>2022-02-24T14:20:29Z</time>
      </trkpt>
      <trkpt lat="45.96782" lon="5.1726">
        <ele>309</ele>
        <time>2022-02-24T14:20:30Z</time>
      </trkpt>
      <trkpt lat="45.96789" lon="5.17261">
        <ele>309.4</ele>
        <time>2022-02-24T14:20:31Z</time>
      </trkpt>
      <trkpt lat="45.96795" lon="5.17261">
        <ele>309.4</ele>
        <time>2022-02-24T14:20:32Z</time>
      </trkpt>
      <trkpt lat="45.96801" lon="5.17261">
        <ele>309.6</ele>
        <time>2022-02-24T14:20:33Z</time>
      </trkpt>
      <trkpt lat="45.96808" lon="5.17261">
        <ele>309.6</ele>
        <time>2022-02-24T14:20:34Z</time>
      </trkpt>
      <trkpt lat="45.96814" lon="5.1726">
        <ele>309.6</ele>
        <time>2022-02-24T14:20:35Z</time>
      </trkpt>
      <trkpt lat="45.9682" lon="5.1726">
        <ele>309.6</ele>
        <time>2022-02-24T14:20:36Z</time>
      </trkpt>
      <trkpt lat="45.96826" lon="5.1726">
        <ele>309.6</ele>
        <time>2022-02-24T14:20:37Z</time>
      </trkpt>
      <trkpt lat="45.96833" lon="5.17259">
        <ele>309.6</ele>
        <time>2022-02-24T14:20:38Z</time>
      </trkpt>
      <trkpt lat="45.96839" lon="5.17258">
        <ele>309.6</ele>
        <time>2022-02-24T14:20:39Z</time>
      </trkpt>
      <trkpt lat="45.96846" lon="5.17258">
        <ele>309.6</ele>
        <time>2022-02-24T14:20:40Z</time>
      </trkpt>
      <trkpt lat="45.96853" lon="5.17257">
        <ele>309.6</ele>
        <time>2022-02-24T14:20:41Z</time>
      </trkpt>
      <trkpt lat="45.96859" lon="5.17256">
        <ele>309.6</ele>
        <time>2022-02-24T14:20:42Z</time>
      </trkpt>
      <trkpt lat="45.96866" lon="5.17255">
        <ele>309.6</ele>
        <time>2022-02-24T14:20:43Z</time>
      </trkpt>
      <trkpt lat="45.96873" lon="5.17254">
        <ele>309.6</ele>
        <time>2022-02-24T14:20:44Z</time>
      </trkpt>
      <trkpt lat="45.9688" lon="5.17253">
        <ele>309.4</ele>
        <time>2022-02-24T14:20:45Z</time>
      </trkpt>
      <trkpt lat="45.96888" lon="5.17251">
        <ele>309.4</ele>
        <time>2022-02-24T14:20:46Z</time>
      </trkpt>
      <trkpt lat="45.96895" lon="5.17249">
        <ele>309.2</ele>
        <time>2022-02-24T14:20:47Z</time>
      </trkpt>
      <trkpt lat="45.96902" lon="5.17247">
        <ele>309</ele>
        <time>2022-02-24T14:20:48Z</time>
      </trkpt>
      <trkpt lat="45.9691" lon="5.17245">
        <ele>309</ele>
        <time>2022-02-24T14:20:49Z</time>
      </trkpt>
      <trkpt lat="45.96918" lon="5.17242">
        <ele>308.4</ele>
        <time>2022-02-24T14:20:50Z</time>
      </trkpt>
      <trkpt lat="45.96926" lon="5.17239">
        <ele>308.2</ele>
        <time>2022-02-24T14:20:51Z</time>
      </trkpt>
      <trkpt lat="45.96934" lon="5.17236">
        <ele>308</ele>
        <time>2022-02-24T14:20:52Z</time>
      </trkpt>
      <trkpt lat="45.96942" lon="5.17233">
        <ele>307.6</ele>
        <time>2022-02-24T14:20:53Z</time>
      </trkpt>
      <trkpt lat="45.96951" lon="5.1723">
        <ele>307.2</ele>
        <time>2022-02-24T14:20:54Z</time>
      </trkpt>
      <trkpt lat="45.96959" lon="5.17226">
        <ele>306.8</ele>
        <time>2022-02-24T14:20:55Z</time>
      </trkpt>
      <trkpt lat="45.96968" lon="5.17222">
        <ele>306.6</ele>
        <time>2022-02-24T14:20:56Z</time>
      </trkpt>
      <trkpt lat="45.96976" lon="5.17218">
        <ele>306.4</ele>
        <time>2022-02-24T14:20:57Z</time>
      </trkpt>
      <trkpt lat="45.96985" lon="5.17213">
        <ele>306</ele>
        <time>2022-02-24T14:20:58Z</time>
      </trkpt>
      <trkpt lat="45.96993" lon="5.17209">
        <ele>305.6</ele>
        <time>2022-02-24T14:20:59Z</time>
      </trkpt>
      <trkpt lat="45.97002" lon="5.17204">
        <ele>305.4</ele>
        <time>2022-02-24T14:21:00Z</time>
      </trkpt>
      <trkpt lat="45.97011" lon="5.172">
        <ele>305</ele>
        <time>2022-02-24T14:21:01Z</time>
      </trkpt>
      <trkpt lat="45.9702" lon="5.17195">
        <ele>304.8</ele>
        <time>2022-02-24T14:21:02Z</time>
      </trkpt>
      <trkpt lat="45.97029" lon="5.17191">
        <ele>304.6</ele>
        <time>2022-02-24T14:21:03Z</time>
      </trkpt>
      <trkpt lat="45.97039" lon="5.17187">
        <ele>304.2</ele>
        <time>2022-02-24T14:21:04Z</time>
      </trkpt>
      <trkpt lat="45.97049" lon="5.17183">
        <ele>303.8</ele>
        <time>2022-02-24T14:21:05Z</time>
      </trkpt>
      <trkpt lat="45.97059" lon="5.17179">
        <ele>303.6</ele>
        <time>2022-02-24T14:21:06Z</time>
      </trkpt>
      <trkpt lat="45.97068" lon="5.17173">
        <ele>303.2</ele>
        <time>2022-02-24T14:21:07Z</time>
      </trkpt>
      <trkpt lat="45.97078" lon="5.17168">
        <ele>303</ele>
        <time>2022-02-24T14:21:08Z</time>
      </trkpt>
      <trkpt lat="45.97087" lon="5.17163">
        <ele>302.6</ele>
        <time>2022-02-24T14:21:09Z</time>
      </trkpt>
      <trkpt lat="45.97096" lon="5.17158">
        <ele>302.4</ele>
        <time>2022-02-24T14:21:10Z</time>
      </trkpt>
      <trkpt lat="45.97106" lon="5.17154">
        <ele>302.2</ele>
        <time>2022-02-24T14:21:11Z</time>
      </trkpt>
      <trkpt lat="45.97115" lon="5.1715">
        <ele>302</ele>
        <time>2022-02-24T14:21:12Z</time>
      </trkpt>
      <trkpt lat="45.97124" lon="5.17145">
        <ele>301.6</ele>
        <time>2022-02-24T14:21:13Z</time>
      </trkpt>
      <trkpt lat="45.97134" lon="5.1714">
        <ele>301.4</ele>
        <time>2022-02-24T14:21:14Z</time>
      </trkpt>
      <trkpt lat="45.97144" lon="5.17136">
        <ele>301.2</ele>
        <time>2022-02-24T14:21:15Z</time>
      </trkpt>
      <trkpt lat="45.97154" lon="5.17132">
        <ele>301.2</ele>
        <time>2022-02-24T14:21:16Z</time>
      </trkpt>
      <trkpt lat="45.97164" lon="5.17127">
        <ele>300.8</ele>
        <time>2022-02-24T14:21:17Z</time>
      </trkpt>
      <trkpt lat="45.97173" lon="5.17122">
        <ele>300.6</ele>
        <time>2022-02-24T14:21:18Z</time>
      </trkpt>
      <trkpt lat="45.97182" lon="5.17116">
        <ele>300.2</ele>
        <time>2022-02-24T14:21:19Z</time>
      </trkpt>
      <trkpt lat="45.97191" lon="5.17112">
        <ele>300</ele>
        <time>2022-02-24T14:21:20Z</time>
      </trkpt>
      <trkpt lat="45.972" lon="5.17107">
        <ele>299.6</ele>
        <time>2022-02-24T14:21:21Z</time>
      </trkpt>
      <trkpt lat="45.97209" lon="5.17102">
        <ele>299.4</ele>
        <time>2022-02-24T14:21:22Z</time>
      </trkpt>
      <trkpt lat="45.97218" lon="5.17097">
        <ele>299</ele>
        <time>2022-02-24T14:21:23Z</time>
      </trkpt>
      <trkpt lat="45.97227" lon="5.17093">
        <ele>298.8</ele>
        <time>2022-02-24T14:21:24Z</time>
      </trkpt>
      <trkpt lat="45.97237" lon="5.17087">
        <ele>298.6</ele>
        <time>2022-02-24T14:21:25Z</time>
      </trkpt>
      <trkpt lat="45.97248" lon="5.17082">
        <ele>298.2</ele>
        <time>2022-02-24T14:21:26Z</time>
      </trkpt>
      <trkpt lat="45.97258" lon="5.17077">
        <ele>297.8</ele>
        <time>2022-02-24T14:21:27Z</time>
      </trkpt>
      <trkpt lat="45.97269" lon="5.17073">
        <ele>297.6</ele>
        <time>2022-02-24T14:21:28Z</time>
      </trkpt>
      <trkpt lat="45.9728" lon="5.17068">
        <ele>297.2</ele>
        <time>2022-02-24T14:21:29Z</time>
      </trkpt>
      <trkpt lat="45.97291" lon="5.17064">
        <ele>297</ele>
        <time>2022-02-24T14:21:30Z</time>
      </trkpt>
      <trkpt lat="45.97301" lon="5.1706">
        <ele>296.6</ele>
        <time>2022-02-24T14:21:31Z</time>
      </trkpt>
      <trkpt lat="45.97312" lon="5.17055">
        <ele>296.4</ele>
        <time>2022-02-24T14:21:32Z</time>
      </trkpt>
      <trkpt lat="45.97322" lon="5.17051">
        <ele>296.4</ele>
        <time>2022-02-24T14:21:33Z</time>
      </trkpt>
      <trkpt lat="45.97331" lon="5.17047">
        <ele>296</ele>
        <time>2022-02-24T14:21:34Z</time>
      </trkpt>
      <trkpt lat="45.97341" lon="5.17043">
        <ele>296</ele>
        <time>2022-02-24T14:21:35Z</time>
      </trkpt>
      <trkpt lat="45.97351" lon="5.17039">
        <ele>295.8</ele>
        <time>2022-02-24T14:21:36Z</time>
      </trkpt>
      <trkpt lat="45.9736" lon="5.17035">
        <ele>295.8</ele>
        <time>2022-02-24T14:21:37Z</time>
      </trkpt>
      <trkpt lat="45.97369" lon="5.1703">
        <ele>295.6</ele>
        <time>2022-02-24T14:21:38Z</time>
      </trkpt>
      <trkpt lat="45.97378" lon="5.17025">
        <ele>295.6</ele>
        <time>2022-02-24T14:21:39Z</time>
      </trkpt>
      <trkpt lat="45.97386" lon="5.17019">
        <ele>295.6</ele>
        <time>2022-02-24T14:21:40Z</time>
      </trkpt>
      <trkpt lat="45.97396" lon="5.17015">
        <ele>295.2</ele>
        <time>2022-02-24T14:21:41Z</time>
      </trkpt>
      <trkpt lat="45.97406" lon="5.1701">
        <ele>295</ele>
        <time>2022-02-24T14:21:42Z</time>
      </trkpt>
      <trkpt lat="45.97415" lon="5.17006">
        <ele>295</ele>
        <time>2022-02-24T14:21:43Z</time>
      </trkpt>
      <trkpt lat="45.97423" lon="5.17003">
        <ele>294.6</ele>
        <time>2022-02-24T14:21:44Z</time>
      </trkpt>
      <trkpt lat="45.97432" lon="5.16997">
        <ele>294.2</ele>
        <time>2022-02-24T14:21:45Z</time>
      </trkpt>
      <trkpt lat="45.9744" lon="5.16993">
        <ele>294.2</ele>
        <time>2022-02-24T14:21:46Z</time>
      </trkpt>
      <trkpt lat="45.97449" lon="5.16989">
        <ele>294</ele>
        <time>2022-02-24T14:21:47Z</time>
      </trkpt>
      <trkpt lat="45.97458" lon="5.16985">
        <ele>294</ele>
        <time>2022-02-24T14:21:48Z</time>
      </trkpt>
      <trkpt lat="45.97467" lon="5.16981">
        <ele>293.6</ele>
        <time>2022-02-24T14:21:49Z</time>
      </trkpt>
      <trkpt lat="45.97476" lon="5.16978">
        <ele>293.4</ele>
        <time>2022-02-24T14:21:50Z</time>
      </trkpt>
      <trkpt lat="45.97484" lon="5.16975">
        <ele>293.4</ele>
        <time>2022-02-24T14:21:51Z</time>
      </trkpt>
      <trkpt lat="45.97491" lon="5.16971">
        <ele>293.4</ele>
        <time>2022-02-24T14:21:52Z</time>
      </trkpt>
      <trkpt lat="45.975" lon="5.16967">
        <ele>293</ele>
        <time>2022-02-24T14:21:53Z</time>
      </trkpt>
      <trkpt lat="45.97508" lon="5.16963">
        <ele>293</ele>
        <time>2022-02-24T14:21:54Z</time>
      </trkpt>
      <trkpt lat="45.97516" lon="5.16958">
        <ele>293</ele>
        <time>2022-02-24T14:21:55Z</time>
      </trkpt>
      <trkpt lat="45.97524" lon="5.16954">
        <ele>293</ele>
        <time>2022-02-24T14:21:56Z</time>
      </trkpt>
      <trkpt lat="45.97532" lon="5.16951">
        <ele>293.4</ele>
        <time>2022-02-24T14:21:57Z</time>
      </trkpt>
      <trkpt lat="45.97539" lon="5.16947">
        <ele>293.6</ele>
        <time>2022-02-24T14:21:58Z</time>
      </trkpt>
      <trkpt lat="45.97545" lon="5.16943">
        <ele>293.6</ele>
        <time>2022-02-24T14:21:59Z</time>
      </trkpt>
      <trkpt lat="45.97552" lon="5.1694">
        <ele>294.2</ele>
        <time>2022-02-24T14:22:00Z</time>
      </trkpt>
      <trkpt lat="45.97558" lon="5.16936">
        <ele>294.4</ele>
        <time>2022-02-24T14:22:01Z</time>
      </trkpt>
      <trkpt lat="45.97563" lon="5.16933">
        <ele>294.6</ele>
        <time>2022-02-24T14:22:02Z</time>
      </trkpt>
      <trkpt lat="45.97569" lon="5.1693">
        <ele>294.8</ele>
        <time>2022-02-24T14:22:03Z</time>
      </trkpt>
      <trkpt lat="45.97575" lon="5.16927">
        <ele>295.2</ele>
        <time>2022-02-24T14:22:04Z</time>
      </trkpt>
      <trkpt lat="45.9758" lon="5.16924">
        <ele>295.4</ele>
        <time>2022-02-24T14:22:05Z</time>
      </trkpt>
      <trkpt lat="45.97585" lon="5.16921">
        <ele>295.6</ele>
        <time>2022-02-24T14:22:06Z</time>
      </trkpt>
      <trkpt lat="45.9759" lon="5.16918">
        <ele>295.8</ele>
        <time>2022-02-24T14:22:07Z</time>
      </trkpt>
      <trkpt lat="45.97595" lon="5.16916">
        <ele>296.2</ele>
        <time>2022-02-24T14:22:08Z</time>
      </trkpt>
      <trkpt lat="45.97599" lon="5.16913">
        <ele>296.4</ele>
        <time>2022-02-24T14:22:09Z</time>
      </trkpt>
      <trkpt lat="45.97604" lon="5.16911">
        <ele>296.6</ele>
        <time>2022-02-24T14:22:10Z</time>
      </trkpt>
      <trkpt lat="45.97609" lon="5.16909">
        <ele>297</ele>
        <time>2022-02-24T14:22:11Z</time>
      </trkpt>
      <trkpt lat="45.97614" lon="5.16906">
        <ele>297.2</ele>
        <time>2022-02-24T14:22:12Z</time>
      </trkpt>
      <trkpt lat="45.97619" lon="5.16904">
        <ele>297.4</ele>
        <time>2022-02-24T14:22:13Z</time>
      </trkpt>
      <trkpt lat="45.97623" lon="5.16902">
        <ele>297.6</ele>
        <time>2022-02-24T14:22:14Z</time>
      </trkpt>
      <trkpt lat="45.97628" lon="5.16899">
        <ele>298</ele>
        <time>2022-02-24T14:22:15Z</time>
      </trkpt>
      <trkpt lat="45.97632" lon="5.16897">
        <ele>298</ele>
        <time>2022-02-24T14:22:16Z</time>
      </trkpt>
      <trkpt lat="45.97637" lon="5.16895">
        <ele>298.2</ele>
        <time>2022-02-24T14:22:17Z</time>
      </trkpt>
      <trkpt lat="45.97641" lon="5.16892">
        <ele>298.4</ele>
        <time>2022-02-24T14:22:18Z</time>
      </trkpt>
      <trkpt lat="45.97645" lon="5.1689">
        <ele>298.6</ele>
        <time>2022-02-24T14:22:19Z</time>
      </trkpt>
      <trkpt lat="45.9765" lon="5.16888">
        <ele>298.6</ele>
        <time>2022-02-24T14:22:20Z</time>
      </trkpt>
      <trkpt lat="45.97654" lon="5.16885">
        <ele>298.6</ele>
        <time>2022-02-24T14:22:21Z</time>
      </trkpt>
      <trkpt lat="45.97659" lon="5.16883">
        <ele>299</ele>
        <time>2022-02-24T14:22:22Z</time>
      </trkpt>
      <trkpt lat="45.97663" lon="5.16881">
        <ele>299</ele>
        <time>2022-02-24T14:22:23Z</time>
      </trkpt>
      <trkpt lat="45.97667" lon="5.16879">
        <ele>299</ele>
        <time>2022-02-24T14:22:24Z</time>
      </trkpt>
      <trkpt lat="45.97676" lon="5.16875">
        <ele>299.2</ele>
        <time>2022-02-24T14:22:25Z</time>
      </trkpt>
      <trkpt lat="45.97681" lon="5.16873">
        <ele>299.2</ele>
        <time>2022-02-24T14:22:26Z</time>
      </trkpt>
      <trkpt lat="45.97686" lon="5.1687">
        <ele>299.6</ele>
        <time>2022-02-24T14:22:27Z</time>
      </trkpt>
      <trkpt lat="45.97692" lon="5.16868">
        <ele>299.6</ele>
        <time>2022-02-24T14:22:28Z</time>
      </trkpt>
      <trkpt lat="45.97697" lon="5.16865">
        <ele>299.6</ele>
        <time>2022-02-24T14:22:29Z</time>
      </trkpt>
      <trkpt lat="45.97703" lon="5.16863">
        <ele>299.6</ele>
        <time>2022-02-24T14:22:30Z</time>
      </trkpt>
      <trkpt lat="45.97709" lon="5.1686">
        <ele>299.6</ele>
        <time>2022-02-24T14:22:31Z</time>
      </trkpt>
      <trkpt lat="45.97715" lon="5.16857">
        <ele>299.6</ele>
        <time>2022-02-24T14:22:32Z</time>
      </trkpt>
      <trkpt lat="45.97721" lon="5.16854">
        <ele>299.6</ele>
        <time>2022-02-24T14:22:33Z</time>
      </trkpt>
      <trkpt lat="45.97727" lon="5.16852">
        <ele>299.6</ele>
        <time>2022-02-24T14:22:34Z</time>
      </trkpt>
      <trkpt lat="45.97734" lon="5.16849">
        <ele>299.6</ele>
        <time>2022-02-24T14:22:35Z</time>
      </trkpt>
      <trkpt lat="45.9774" lon="5.16846">
        <ele>299.4</ele>
        <time>2022-02-24T14:22:36Z</time>
      </trkpt>
      <trkpt lat="45.97747" lon="5.16842">
        <ele>299.4</ele>
        <time>2022-02-24T14:22:37Z</time>
      </trkpt>
      <trkpt lat="45.97754" lon="5.16838">
        <ele>298.8</ele>
        <time>2022-02-24T14:22:38Z</time>
      </trkpt>
      <trkpt lat="45.97761" lon="5.16834">
        <ele>298.6</ele>
        <time>2022-02-24T14:22:39Z</time>
      </trkpt>
      <trkpt lat="45.97769" lon="5.1683">
        <ele>298.2</ele>
        <time>2022-02-24T14:22:40Z</time>
      </trkpt>
      <trkpt lat="45.97777" lon="5.16826">
        <ele>298</ele>
        <time>2022-02-24T14:22:41Z</time>
      </trkpt>
      <trkpt lat="45.97785" lon="5.16822">
        <ele>298</ele>
        <time>2022-02-24T14:22:42Z</time>
      </trkpt>
      <trkpt lat="45.97793" lon="5.16818">
        <ele>297.4</ele>
        <time>2022-02-24T14:22:43Z</time>
      </trkpt>
      <trkpt lat="45.97801" lon="5.16814">
        <ele>297.2</ele>
        <time>2022-02-24T14:22:44Z</time>
      </trkpt>
      <trkpt lat="45.9781" lon="5.16809">
        <ele>296.8</ele>
        <time>2022-02-24T14:22:45Z</time>
      </trkpt>
      <trkpt lat="45.97819" lon="5.16805">
        <ele>296.4</ele>
        <time>2022-02-24T14:22:46Z</time>
      </trkpt>
      <trkpt lat="45.97828" lon="5.16801">
        <ele>296</ele>
        <time>2022-02-24T14:22:47Z</time>
      </trkpt>
      <trkpt lat="45.97837" lon="5.16796">
        <ele>295.6</ele>
        <time>2022-02-24T14:22:48Z</time>
      </trkpt>
      <trkpt lat="45.97846" lon="5.16792">
        <ele>295.4</ele>
        <time>2022-02-24T14:22:49Z</time>
      </trkpt>
      <trkpt lat="45.97856" lon="5.16787">
        <ele>295</ele>
        <time>2022-02-24T14:22:50Z</time>
      </trkpt>
      <trkpt lat="45.97866" lon="5.16783">
        <ele>295</ele>
        <time>2022-02-24T14:22:51Z</time>
      </trkpt>
      <trkpt lat="45.97874" lon="5.1678">
        <ele>294.4</ele>
        <time>2022-02-24T14:22:52Z</time>
      </trkpt>
      <trkpt lat="45.97883" lon="5.16776">
        <ele>294.2</ele>
        <time>2022-02-24T14:22:53Z</time>
      </trkpt>
      <trkpt lat="45.97892" lon="5.16771">
        <ele>294.2</ele>
        <time>2022-02-24T14:22:54Z</time>
      </trkpt>
      <trkpt lat="45.97901" lon="5.16767">
        <ele>293.8</ele>
        <time>2022-02-24T14:22:55Z</time>
      </trkpt>
      <trkpt lat="45.9791" lon="5.16763">
        <ele>293.8</ele>
        <time>2022-02-24T14:22:56Z</time>
      </trkpt>
      <trkpt lat="45.97919" lon="5.16759">
        <ele>293.8</ele>
        <time>2022-02-24T14:22:57Z</time>
      </trkpt>
      <trkpt lat="45.97928" lon="5.16756">
        <ele>293.4</ele>
        <time>2022-02-24T14:22:58Z</time>
      </trkpt>
      <trkpt lat="45.97936" lon="5.16752">
        <ele>293.4</ele>
        <time>2022-02-24T14:22:59Z</time>
      </trkpt>
      <trkpt lat="45.97944" lon="5.16748">
        <ele>293.4</ele>
        <time>2022-02-24T14:23:00Z</time>
      </trkpt>
      <trkpt lat="45.97953" lon="5.16745">
        <ele>293.2</ele>
        <time>2022-02-24T14:23:01Z</time>
      </trkpt>
      <trkpt lat="45.97961" lon="5.16742">
        <ele>293.2</ele>
        <time>2022-02-24T14:23:02Z</time>
      </trkpt>
      <trkpt lat="45.97969" lon="5.1674">
        <ele>292.8</ele>
        <time>2022-02-24T14:23:03Z</time>
      </trkpt>
      <trkpt lat="45.97978" lon="5.16738">
        <ele>292.8</ele>
        <time>2022-02-24T14:23:04Z</time>
      </trkpt>
      <trkpt lat="45.97987" lon="5.16736">
        <ele>292.8</ele>
        <time>2022-02-24T14:23:05Z</time>
      </trkpt>
      <trkpt lat="45.97995" lon="5.16735">
        <ele>292.8</ele>
        <time>2022-02-24T14:23:06Z</time>
      </trkpt>
      <trkpt lat="45.98003" lon="5.16733">
        <ele>292.8</ele>
        <time>2022-02-24T14:23:07Z</time>
      </trkpt>
      <trkpt lat="45.98012" lon="5.16732">
        <ele>292.8</ele>
        <time>2022-02-24T14:23:08Z</time>
      </trkpt>
      <trkpt lat="45.9802" lon="5.16731">
        <ele>292.8</ele>
        <time>2022-02-24T14:23:09Z</time>
      </trkpt>
      <trkpt lat="45.98028" lon="5.1673">
        <ele>292.8</ele>
        <time>2022-02-24T14:23:10Z</time>
      </trkpt>
      <trkpt lat="45.98036" lon="5.16729">
        <ele>292.8</ele>
        <time>2022-02-24T14:23:11Z</time>
      </trkpt>
      <trkpt lat="45.98044" lon="5.16727">
        <ele>292.8</ele>
        <time>2022-02-24T14:23:12Z</time>
      </trkpt>
      <trkpt lat="45.98052" lon="5.16726">
        <ele>292.8</ele>
        <time>2022-02-24T14:23:13Z</time>
      </trkpt>
      <trkpt lat="45.9806" lon="5.16725">
        <ele>292.8</ele>
        <time>2022-02-24T14:23:14Z</time>
      </trkpt>
      <trkpt lat="45.98068" lon="5.16724">
        <ele>292.8</ele>
        <time>2022-02-24T14:23:15Z</time>
      </trkpt>
      <trkpt lat="45.98076" lon="5.16723">
        <ele>292.8</ele>
        <time>2022-02-24T14:23:16Z</time>
      </trkpt>
      <trkpt lat="45.98084" lon="5.16722">
        <ele>292.8</ele>
        <time>2022-02-24T14:23:17Z</time>
      </trkpt>
      <trkpt lat="45.98092" lon="5.1672">
        <ele>292.8</ele>
        <time>2022-02-24T14:23:18Z</time>
      </trkpt>
      <trkpt lat="45.981" lon="5.16719">
        <ele>292.6</ele>
        <time>2022-02-24T14:23:19Z</time>
      </trkpt>
      <trkpt lat="45.98109" lon="5.16718">
        <ele>292.6</ele>
        <time>2022-02-24T14:23:20Z</time>
      </trkpt>
      <trkpt lat="45.98117" lon="5.16717">
        <ele>292.4</ele>
        <time>2022-02-24T14:23:21Z</time>
      </trkpt>
      <trkpt lat="45.98125" lon="5.16715">
        <ele>292.4</ele>
        <time>2022-02-24T14:23:22Z</time>
      </trkpt>
      <trkpt lat="45.98133" lon="5.16714">
        <ele>292.4</ele>
        <time>2022-02-24T14:23:23Z</time>
      </trkpt>
      <trkpt lat="45.98141" lon="5.16713">
        <ele>292</ele>
        <time>2022-02-24T14:23:24Z</time>
      </trkpt>
      <trkpt lat="45.98149" lon="5.16712">
        <ele>292</ele>
        <time>2022-02-24T14:23:25Z</time>
      </trkpt>
      <trkpt lat="45.98157" lon="5.1671">
        <ele>292</ele>
        <time>2022-02-24T14:23:26Z</time>
      </trkpt>
      <trkpt lat="45.98165" lon="5.16709">
        <ele>291.8</ele>
        <time>2022-02-24T14:23:27Z</time>
      </trkpt>
      <trkpt lat="45.98174" lon="5.16708">
        <ele>291.8</ele>
        <time>2022-02-24T14:23:28Z</time>
      </trkpt>
      <trkpt lat="45.98182" lon="5.16707">
        <ele>291.8</ele>
        <time>2022-02-24T14:23:29Z</time>
      </trkpt>
      <trkpt lat="45.9819" lon="5.16705">
        <ele>291.8</ele>
        <time>2022-02-24T14:23:30Z</time>
      </trkpt>
      <trkpt lat="45.98198" lon="5.16704">
        <ele>291.8</ele>
        <time>2022-02-24T14:23:31Z</time>
      </trkpt>
      <trkpt lat="45.98206" lon="5.16704">
        <ele>291.6</ele>
        <time>2022-02-24T14:23:32Z</time>
      </trkpt>
      <trkpt lat="45.98214" lon="5.16702">
        <ele>291.6</ele>
        <time>2022-02-24T14:23:33Z</time>
      </trkpt>
      <trkpt lat="45.98222" lon="5.16701">
        <ele>291.6</ele>
        <time>2022-02-24T14:23:34Z</time>
      </trkpt>
      <trkpt lat="45.9823" lon="5.167">
        <ele>291.6</ele>
        <time>2022-02-24T14:23:35Z</time>
      </trkpt>
      <trkpt lat="45.98238" lon="5.16698">
        <ele>291.6</ele>
        <time>2022-02-24T14:23:36Z</time>
      </trkpt>
      <trkpt lat="45.98245" lon="5.16697">
        <ele>291.6</ele>
        <time>2022-02-24T14:23:37Z</time>
      </trkpt>
      <trkpt lat="45.98253" lon="5.16696">
        <ele>291.6</ele>
        <time>2022-02-24T14:23:38Z</time>
      </trkpt>
      <trkpt lat="45.98261" lon="5.16695">
        <ele>291.6</ele>
        <time>2022-02-24T14:23:39Z</time>
      </trkpt>
      <trkpt lat="45.98269" lon="5.16694">
        <ele>291.6</ele>
        <time>2022-02-24T14:23:40Z</time>
      </trkpt>
      <trkpt lat="45.98277" lon="5.16692">
        <ele>291.6</ele>
        <time>2022-02-24T14:23:41Z</time>
      </trkpt>
      <trkpt lat="45.98285" lon="5.16691">
        <ele>291.8</ele>
        <time>2022-02-24T14:23:42Z</time>
      </trkpt>
      <trkpt lat="45.98293" lon="5.1669">
        <ele>291.8</ele>
        <time>2022-02-24T14:23:43Z</time>
      </trkpt>
      <trkpt lat="45.98301" lon="5.16689">
        <ele>291.8</ele>
        <time>2022-02-24T14:23:44Z</time>
      </trkpt>
      <trkpt lat="45.98308" lon="5.16688">
        <ele>291.8</ele>
        <time>2022-02-24T14:23:45Z</time>
      </trkpt>
      <trkpt lat="45.98316" lon="5.16687">
        <ele>291.8</ele>
        <time>2022-02-24T14:23:46Z</time>
      </trkpt>
      <trkpt lat="45.98324" lon="5.16686">
        <ele>291.8</ele>
        <time>2022-02-24T14:23:47Z</time>
      </trkpt>
      <trkpt lat="45.98332" lon="5.16684">
        <ele>292</ele>
        <time>2022-02-24T14:23:48Z</time>
      </trkpt>
      <trkpt lat="45.9834" lon="5.16683">
        <ele>292</ele>
        <time>2022-02-24T14:23:49Z</time>
      </trkpt>
      <trkpt lat="45.98348" lon="5.16682">
        <ele>292</ele>
        <time>2022-02-24T14:23:50Z</time>
      </trkpt>
      <trkpt lat="45.98356" lon="5.16681">
        <ele>292</ele>
        <time>2022-02-24T14:23:51Z</time>
      </trkpt>
      <trkpt lat="45.98363" lon="5.16681">
        <ele>292</ele>
        <time>2022-02-24T14:23:52Z</time>
      </trkpt>
      <trkpt lat="45.98371" lon="5.1668">
        <ele>292</ele>
        <time>2022-02-24T14:23:53Z</time>
      </trkpt>
      <trkpt lat="45.98378" lon="5.1668">
        <ele>292</ele>
        <time>2022-02-24T14:23:54Z</time>
      </trkpt>
      <trkpt lat="45.98386" lon="5.16681">
        <ele>292</ele>
        <time>2022-02-24T14:23:55Z</time>
      </trkpt>
      <trkpt lat="45.98394" lon="5.16681">
        <ele>292.4</ele>
        <time>2022-02-24T14:23:56Z</time>
      </trkpt>
      <trkpt lat="45.98401" lon="5.16682">
        <ele>292.4</ele>
        <time>2022-02-24T14:23:57Z</time>
      </trkpt>
      <trkpt lat="45.98409" lon="5.16682">
        <ele>292.4</ele>
        <time>2022-02-24T14:23:58Z</time>
      </trkpt>
      <trkpt lat="45.98416" lon="5.16683">
        <ele>292.4</ele>
        <time>2022-02-24T14:23:59Z</time>
      </trkpt>
      <trkpt lat="45.98423" lon="5.16684">
        <ele>292.4</ele>
        <time>2022-02-24T14:24:00Z</time>
      </trkpt>
      <trkpt lat="45.9843" lon="5.16685">
        <ele>292.6</ele>
        <time>2022-02-24T14:24:01Z</time>
      </trkpt>
      <trkpt lat="45.98437" lon="5.16686">
        <ele>292.6</ele>
        <time>2022-02-24T14:24:02Z</time>
      </trkpt>
      <trkpt lat="45.98444" lon="5.16687">
        <ele>292.8</ele>
        <time>2022-02-24T14:24:03Z</time>
      </trkpt>
      <trkpt lat="45.98451" lon="5.16688">
        <ele>292.8</ele>
        <time>2022-02-24T14:24:04Z</time>
      </trkpt>
      <trkpt lat="45.98458" lon="5.16689">
        <ele>293.2</ele>
        <time>2022-02-24T14:24:05Z</time>
      </trkpt>
      <trkpt lat="45.98465" lon="5.1669">
        <ele>293.2</ele>
        <time>2022-02-24T14:24:06Z</time>
      </trkpt>
      <trkpt lat="45.98472" lon="5.1669">
        <ele>293.2</ele>
        <time>2022-02-24T14:24:07Z</time>
      </trkpt>
      <trkpt lat="45.98479" lon="5.16691">
        <ele>293.2</ele>
        <time>2022-02-24T14:24:08Z</time>
      </trkpt>
      <trkpt lat="45.98486" lon="5.16692">
        <ele>293.2</ele>
        <time>2022-02-24T14:24:09Z</time>
      </trkpt>
      <trkpt lat="45.98494" lon="5.16693">
        <ele>293.2</ele>
        <time>2022-02-24T14:24:10Z</time>
      </trkpt>
      <trkpt lat="45.98501" lon="5.16694">
        <ele>293.2</ele>
        <time>2022-02-24T14:24:11Z</time>
      </trkpt>
      <trkpt lat="45.98508" lon="5.16695">
        <ele>293.2</ele>
        <time>2022-02-24T14:24:12Z</time>
      </trkpt>
      <trkpt lat="45.98515" lon="5.16696">
        <ele>293.2</ele>
        <time>2022-02-24T14:24:13Z</time>
      </trkpt>
      <trkpt lat="45.98522" lon="5.16697">
        <ele>293.2</ele>
        <time>2022-02-24T14:24:14Z</time>
      </trkpt>
      <trkpt lat="45.9853" lon="5.16698">
        <ele>293.2</ele>
        <time>2022-02-24T14:24:15Z</time>
      </trkpt>
      <trkpt lat="45.98537" lon="5.16699">
        <ele>293.2</ele>
        <time>2022-02-24T14:24:16Z</time>
      </trkpt>
      <trkpt lat="45.98544" lon="5.167">
        <ele>293.2</ele>
        <time>2022-02-24T14:24:17Z</time>
      </trkpt>
      <trkpt lat="45.98551" lon="5.16702">
        <ele>293.2</ele>
        <time>2022-02-24T14:24:18Z</time>
      </trkpt>
      <trkpt lat="45.98558" lon="5.16704">
        <ele>293.4</ele>
        <time>2022-02-24T14:24:19Z</time>
      </trkpt>
      <trkpt lat="45.98565" lon="5.16706">
        <ele>293.4</ele>
        <time>2022-02-24T14:24:20Z</time>
      </trkpt>
      <trkpt lat="45.98572" lon="5.16708">
        <ele>293.4</ele>
        <time>2022-02-24T14:24:21Z</time>
      </trkpt>
      <trkpt lat="45.98579" lon="5.1671">
        <ele>293.4</ele>
        <time>2022-02-24T14:24:22Z</time>
      </trkpt>
      <trkpt lat="45.98586" lon="5.16713">
        <ele>293.4</ele>
        <time>2022-02-24T14:24:23Z</time>
      </trkpt>
      <trkpt lat="45.98593" lon="5.16715">
        <ele>293.4</ele>
        <time>2022-02-24T14:24:24Z</time>
      </trkpt>
      <trkpt lat="45.986" lon="5.16717">
        <ele>293.6</ele>
        <time>2022-02-24T14:24:25Z</time>
      </trkpt>
      <trkpt lat="45.98606" lon="5.16719">
        <ele>293.6</ele>
        <time>2022-02-24T14:24:26Z</time>
      </trkpt>
      <trkpt lat="45.98613" lon="5.16721">
        <ele>293.6</ele>
        <time>2022-02-24T14:24:27Z</time>
      </trkpt>
      <trkpt lat="45.9862" lon="5.16723">
        <ele>294</ele>
        <time>2022-02-24T14:24:28Z</time>
      </trkpt>
      <trkpt lat="45.98627" lon="5.16725">
        <ele>294</ele>
        <time>2022-02-24T14:24:29Z</time>
      </trkpt>
      <trkpt lat="45.98634" lon="5.16728">
        <ele>294</ele>
        <time>2022-02-24T14:24:30Z</time>
      </trkpt>
      <trkpt lat="45.98641" lon="5.1673">
        <ele>294</ele>
        <time>2022-02-24T14:24:31Z</time>
      </trkpt>
      <trkpt lat="45.98648" lon="5.16732">
        <ele>294.2</ele>
        <time>2022-02-24T14:24:32Z</time>
      </trkpt>
      <trkpt lat="45.98654" lon="5.16734">
        <ele>294.2</ele>
        <time>2022-02-24T14:24:33Z</time>
      </trkpt>
      <trkpt lat="45.98661" lon="5.16737">
        <ele>294.4</ele>
        <time>2022-02-24T14:24:34Z</time>
      </trkpt>
      <trkpt lat="45.98668" lon="5.16739">
        <ele>294.4</ele>
        <time>2022-02-24T14:24:35Z</time>
      </trkpt>
      <trkpt lat="45.98674" lon="5.16742">
        <ele>294.6</ele>
        <time>2022-02-24T14:24:36Z</time>
      </trkpt>
      <trkpt lat="45.98681" lon="5.16745">
        <ele>294.6</ele>
        <time>2022-02-24T14:24:37Z</time>
      </trkpt>
      <trkpt lat="45.98688" lon="5.16747">
        <ele>295</ele>
        <time>2022-02-24T14:24:38Z</time>
      </trkpt>
      <trkpt lat="45.98694" lon="5.1675">
        <ele>295</ele>
        <time>2022-02-24T14:24:39Z</time>
      </trkpt>
      <trkpt lat="45.98701" lon="5.16752">
        <ele>295</ele>
        <time>2022-02-24T14:24:40Z</time>
      </trkpt>
      <trkpt lat="45.98708" lon="5.16754">
        <ele>295.2</ele>
        <time>2022-02-24T14:24:41Z</time>
      </trkpt>
      <trkpt lat="45.98715" lon="5.16757">
        <ele>295.2</ele>
        <time>2022-02-24T14:24:42Z</time>
      </trkpt>
      <trkpt lat="45.98722" lon="5.16759">
        <ele>295.2</ele>
        <time>2022-02-24T14:24:43Z</time>
      </trkpt>
      <trkpt lat="45.98729" lon="5.16762">
        <ele>295.4</ele>
        <time>2022-02-24T14:24:44Z</time>
      </trkpt>
      <trkpt lat="45.98736" lon="5.16764">
        <ele>295.4</ele>
        <time>2022-02-24T14:24:45Z</time>
      </trkpt>
      <trkpt lat="45.98744" lon="5.16766">
        <ele>295.8</ele>
        <time>2022-02-24T14:24:46Z</time>
      </trkpt>
      <trkpt lat="45.98751" lon="5.16769">
        <ele>295.8</ele>
        <time>2022-02-24T14:24:47Z</time>
      </trkpt>
      <trkpt lat="45.98758" lon="5.16771">
        <ele>296</ele>
        <time>2022-02-24T14:24:48Z</time>
      </trkpt>
      <trkpt lat="45.98765" lon="5.16773">
        <ele>296.2</ele>
        <time>2022-02-24T14:24:49Z</time>
      </trkpt>
      <trkpt lat="45.98773" lon="5.16776">
        <ele>296.2</ele>
        <time>2022-02-24T14:24:50Z</time>
      </trkpt>
      <trkpt lat="45.9878" lon="5.16778">
        <ele>296.2</ele>
        <time>2022-02-24T14:24:51Z</time>
      </trkpt>
      <trkpt lat="45.98787" lon="5.16781">
        <ele>296.2</ele>
        <time>2022-02-24T14:24:52Z</time>
      </trkpt>
      <trkpt lat="45.98794" lon="5.16783">
        <ele>296.4</ele>
        <time>2022-02-24T14:24:53Z</time>
      </trkpt>
      <trkpt lat="45.98801" lon="5.16786">
        <ele>296.4</ele>
        <time>2022-02-24T14:24:54Z</time>
      </trkpt>
      <trkpt lat="45.98808" lon="5.16788">
        <ele>296.8</ele>
        <time>2022-02-24T14:24:55Z</time>
      </trkpt>
      <trkpt lat="45.98815" lon="5.1679">
        <ele>296.8</ele>
        <time>2022-02-24T14:24:56Z</time>
      </trkpt>
      <trkpt lat="45.98822" lon="5.16792">
        <ele>296.8</ele>
        <time>2022-02-24T14:24:57Z</time>
      </trkpt>
      <trkpt lat="45.98829" lon="5.16794">
        <ele>296.8</ele>
        <time>2022-02-24T14:24:58Z</time>
      </trkpt>
      <trkpt lat="45.98837" lon="5.16797">
        <ele>297</ele>
        <time>2022-02-24T14:24:59Z</time>
      </trkpt>
      <trkpt lat="45.98844" lon="5.16799">
        <ele>297</ele>
        <time>2022-02-24T14:25:00Z</time>
      </trkpt>
      <trkpt lat="45.98852" lon="5.16801">
        <ele>297</ele>
        <time>2022-02-24T14:25:01Z</time>
      </trkpt>
      <trkpt lat="45.98859" lon="5.16804">
        <ele>297.2</ele>
        <time>2022-02-24T14:25:02Z</time>
      </trkpt>
      <trkpt lat="45.98866" lon="5.16806">
        <ele>297.2</ele>
        <time>2022-02-24T14:25:03Z</time>
      </trkpt>
      <trkpt lat="45.98874" lon="5.16809">
        <ele>297.4</ele>
        <time>2022-02-24T14:25:04Z</time>
      </trkpt>
      <trkpt lat="45.98881" lon="5.16811">
        <ele>297.4</ele>
        <time>2022-02-24T14:25:05Z</time>
      </trkpt>
      <trkpt lat="45.98888" lon="5.16814">
        <ele>297.6</ele>
        <time>2022-02-24T14:25:06Z</time>
      </trkpt>
      <trkpt lat="45.98895" lon="5.16816">
        <ele>297.6</ele>
        <time>2022-02-24T14:25:07Z</time>
      </trkpt>
      <trkpt lat="45.98903" lon="5.16819">
        <ele>297.6</ele>
        <time>2022-02-24T14:25:08Z</time>
      </trkpt>
      <trkpt lat="45.9891" lon="5.16821">
        <ele>298</ele>
        <time>2022-02-24T14:25:09Z</time>
      </trkpt>
      <trkpt lat="45.98917" lon="5.16824">
        <ele>298</ele>
        <time>2022-02-24T14:25:10Z</time>
      </trkpt>
      <trkpt lat="45.98925" lon="5.16826">
        <ele>298</ele>
        <time>2022-02-24T14:25:11Z</time>
      </trkpt>
      <trkpt lat="45.98932" lon="5.16829">
        <ele>298.2</ele>
        <time>2022-02-24T14:25:12Z</time>
      </trkpt>
      <trkpt lat="45.98939" lon="5.16831">
        <ele>298.2</ele>
        <time>2022-02-24T14:25:13Z</time>
      </trkpt>
      <trkpt lat="45.98946" lon="5.16833">
        <ele>298.2</ele>
        <time>2022-02-24T14:25:14Z</time>
      </trkpt>
      <trkpt lat="45.98954" lon="5.16836">
        <ele>298.2</ele>
        <time>2022-02-24T14:25:15Z</time>
      </trkpt>
      <trkpt lat="45.98961" lon="5.16838">
        <ele>298.4</ele>
        <time>2022-02-24T14:25:16Z</time>
      </trkpt>
      <trkpt lat="45.98968" lon="5.1684">
        <ele>298.4</ele>
        <time>2022-02-24T14:25:17Z</time>
      </trkpt>
      <trkpt lat="45.98975" lon="5.16843">
        <ele>298.4</ele>
        <time>2022-02-24T14:25:18Z</time>
      </trkpt>
      <trkpt lat="45.98981" lon="5.16845">
        <ele>298.8</ele>
        <time>2022-02-24T14:25:19Z</time>
      </trkpt>
      <trkpt lat="45.98988" lon="5.16847">
        <ele>298.8</ele>
        <time>2022-02-24T14:25:20Z</time>
      </trkpt>
      <trkpt lat="45.98995" lon="5.1685">
        <ele>299</ele>
        <time>2022-02-24T14:25:21Z</time>
      </trkpt>
      <trkpt lat="45.99002" lon="5.16852">
        <ele>299</ele>
        <time>2022-02-24T14:25:22Z</time>
      </trkpt>
      <trkpt lat="45.99009" lon="5.16854">
        <ele>299.2</ele>
        <time>2022-02-24T14:25:23Z</time>
      </trkpt>
      <trkpt lat="45.99016" lon="5.16856">
        <ele>299.2</ele>
        <time>2022-02-24T14:25:24Z</time>
      </trkpt>
      <trkpt lat="45.99023" lon="5.16859">
        <ele>299.2</ele>
        <time>2022-02-24T14:25:25Z</time>
      </trkpt>
      <trkpt lat="45.9903" lon="5.16861">
        <ele>299.4</ele>
        <time>2022-02-24T14:25:26Z</time>
      </trkpt>
      <trkpt lat="45.99037" lon="5.16864">
        <ele>299.4</ele>
        <time>2022-02-24T14:25:27Z</time>
      </trkpt>
      <trkpt lat="45.99044" lon="5.16866">
        <ele>299.4</ele>
        <time>2022-02-24T14:25:28Z</time>
      </trkpt>
      <trkpt lat="45.99051" lon="5.16868">
        <ele>299.4</ele>
        <time>2022-02-24T14:25:29Z</time>
      </trkpt>
      <trkpt lat="45.99059" lon="5.16871">
        <ele>299.2</ele>
        <time>2022-02-24T14:25:30Z</time>
      </trkpt>
      <trkpt lat="45.99066" lon="5.16874">
        <ele>299.2</ele>
        <time>2022-02-24T14:25:31Z</time>
      </trkpt>
      <trkpt lat="45.99074" lon="5.16877">
        <ele>299</ele>
        <time>2022-02-24T14:25:32Z</time>
      </trkpt>
      <trkpt lat="45.99082" lon="5.16879">
        <ele>299</ele>
        <time>2022-02-24T14:25:33Z</time>
      </trkpt>
      <trkpt lat="45.99089" lon="5.16882">
        <ele>298.6</ele>
        <time>2022-02-24T14:25:34Z</time>
      </trkpt>
      <trkpt lat="45.99097" lon="5.16885">
        <ele>298.2</ele>
        <time>2022-02-24T14:25:35Z</time>
      </trkpt>
      <trkpt lat="45.99106" lon="5.16887">
        <ele>298</ele>
        <time>2022-02-24T14:25:36Z</time>
      </trkpt>
      <trkpt lat="45.99114" lon="5.1689">
        <ele>297.6</ele>
        <time>2022-02-24T14:25:37Z</time>
      </trkpt>
      <trkpt lat="45.99122" lon="5.16893">
        <ele>297.6</ele>
        <time>2022-02-24T14:25:38Z</time>
      </trkpt>
      <trkpt lat="45.99131" lon="5.16896">
        <ele>297.2</ele>
        <time>2022-02-24T14:25:39Z</time>
      </trkpt>
      <trkpt lat="45.99139" lon="5.16899">
        <ele>296.8</ele>
        <time>2022-02-24T14:25:40Z</time>
      </trkpt>
      <trkpt lat="45.99148" lon="5.16902">
        <ele>295.8</ele>
        <time>2022-02-24T14:25:41Z</time>
      </trkpt>
      <trkpt lat="45.99158" lon="5.16905">
        <ele>295.4</ele>
        <time>2022-02-24T14:25:42Z</time>
      </trkpt>
      <trkpt lat="45.99167" lon="5.16909">
        <ele>294.8</ele>
        <time>2022-02-24T14:25:43Z</time>
      </trkpt>
      <trkpt lat="45.99177" lon="5.16912">
        <ele>294.4</ele>
        <time>2022-02-24T14:25:44Z</time>
      </trkpt>
      <trkpt lat="45.99187" lon="5.16915">
        <ele>293.8</ele>
        <time>2022-02-24T14:25:45Z</time>
      </trkpt>
      <trkpt lat="45.99197" lon="5.16918">
        <ele>293.4</ele>
        <time>2022-02-24T14:25:46Z</time>
      </trkpt>
      <trkpt lat="45.99208" lon="5.16922">
        <ele>292.8</ele>
        <time>2022-02-24T14:25:47Z</time>
      </trkpt>
      <trkpt lat="45.99218" lon="5.16925">
        <ele>292.4</ele>
        <time>2022-02-24T14:25:48Z</time>
      </trkpt>
      <trkpt lat="45.99228" lon="5.16928">
        <ele>292.2</ele>
        <time>2022-02-24T14:25:49Z</time>
      </trkpt>
      <trkpt lat="45.99238" lon="5.16931">
        <ele>291.8</ele>
        <time>2022-02-24T14:25:50Z</time>
      </trkpt>
      <trkpt lat="45.99249" lon="5.16934">
        <ele>291.4</ele>
        <time>2022-02-24T14:25:51Z</time>
      </trkpt>
      <trkpt lat="45.99259" lon="5.16938">
        <ele>290.8</ele>
        <time>2022-02-24T14:25:52Z</time>
      </trkpt>
      <trkpt lat="45.9927" lon="5.16942">
        <ele>290.4</ele>
        <time>2022-02-24T14:25:53Z</time>
      </trkpt>
      <trkpt lat="45.9928" lon="5.16945">
        <ele>290</ele>
        <time>2022-02-24T14:25:54Z</time>
      </trkpt>
      <trkpt lat="45.99291" lon="5.16948">
        <ele>289.6</ele>
        <time>2022-02-24T14:25:55Z</time>
      </trkpt>
      <trkpt lat="45.99301" lon="5.16952">
        <ele>289</ele>
        <time>2022-02-24T14:25:56Z</time>
      </trkpt>
      <trkpt lat="45.9931" lon="5.16956">
        <ele>288.8</ele>
        <time>2022-02-24T14:25:57Z</time>
      </trkpt>
      <trkpt lat="45.9932" lon="5.16959">
        <ele>288.4</ele>
        <time>2022-02-24T14:25:58Z</time>
      </trkpt>
      <trkpt lat="45.99331" lon="5.16962">
        <ele>288.2</ele>
        <time>2022-02-24T14:25:59Z</time>
      </trkpt>
      <trkpt lat="45.9934" lon="5.16965">
        <ele>287.8</ele>
        <time>2022-02-24T14:26:00Z</time>
      </trkpt>
      <trkpt lat="45.9935" lon="5.16968">
        <ele>287.4</ele>
        <time>2022-02-24T14:26:01Z</time>
      </trkpt>
      <trkpt lat="45.99359" lon="5.16973">
        <ele>287.2</ele>
        <time>2022-02-24T14:26:02Z</time>
      </trkpt>
      <trkpt lat="45.99369" lon="5.16975">
        <ele>286.8</ele>
        <time>2022-02-24T14:26:03Z</time>
      </trkpt>
      <trkpt lat="45.99378" lon="5.16977">
        <ele>286.6</ele>
        <time>2022-02-24T14:26:04Z</time>
      </trkpt>
      <trkpt lat="45.99388" lon="5.16979">
        <ele>286.6</ele>
        <time>2022-02-24T14:26:05Z</time>
      </trkpt>
      <trkpt lat="45.99398" lon="5.16982">
        <ele>286.6</ele>
        <time>2022-02-24T14:26:06Z</time>
      </trkpt>
      <trkpt lat="45.99406" lon="5.16984">
        <ele>286.6</ele>
        <time>2022-02-24T14:26:07Z</time>
      </trkpt>
      <trkpt lat="45.99414" lon="5.16987">
        <ele>286.6</ele>
        <time>2022-02-24T14:26:08Z</time>
      </trkpt>
      <trkpt lat="45.99422" lon="5.1699">
        <ele>286.6</ele>
        <time>2022-02-24T14:26:09Z</time>
      </trkpt>
      <trkpt lat="45.9943" lon="5.16993">
        <ele>286.6</ele>
        <time>2022-02-24T14:26:10Z</time>
      </trkpt>
      <trkpt lat="45.99438" lon="5.16995">
        <ele>287</ele>
        <time>2022-02-24T14:26:11Z</time>
      </trkpt>
      <trkpt lat="45.99446" lon="5.16998">
        <ele>287</ele>
        <time>2022-02-24T14:26:12Z</time>
      </trkpt>
      <trkpt lat="45.99453" lon="5.17001">
        <ele>287</ele>
        <time>2022-02-24T14:26:13Z</time>
      </trkpt>
      <trkpt lat="45.99461" lon="5.17003">
        <ele>287</ele>
        <time>2022-02-24T14:26:14Z</time>
      </trkpt>
      <trkpt lat="45.99468" lon="5.17006">
        <ele>287.2</ele>
        <time>2022-02-24T14:26:15Z</time>
      </trkpt>
      <trkpt lat="45.99475" lon="5.17008">
        <ele>287.2</ele>
        <time>2022-02-24T14:26:16Z</time>
      </trkpt>
      <trkpt lat="45.99481" lon="5.1701">
        <ele>287.4</ele>
        <time>2022-02-24T14:26:17Z</time>
      </trkpt>
      <trkpt lat="45.99488" lon="5.17013">
        <ele>287.4</ele>
        <time>2022-02-24T14:26:18Z</time>
      </trkpt>
      <trkpt lat="45.99494" lon="5.17015">
        <ele>287.8</ele>
        <time>2022-02-24T14:26:19Z</time>
      </trkpt>
      <trkpt lat="45.99501" lon="5.17017">
        <ele>287.8</ele>
        <time>2022-02-24T14:26:20Z</time>
      </trkpt>
      <trkpt lat="45.99507" lon="5.1702">
        <ele>288.2</ele>
        <time>2022-02-24T14:26:21Z</time>
      </trkpt>
      <trkpt lat="45.99514" lon="5.17022">
        <ele>288.4</ele>
        <time>2022-02-24T14:26:22Z</time>
      </trkpt>
      <trkpt lat="45.99519" lon="5.17023">
        <ele>288.8</ele>
        <time>2022-02-24T14:26:23Z</time>
      </trkpt>
      <trkpt lat="45.99524" lon="5.17026">
        <ele>289.2</ele>
        <time>2022-02-24T14:26:24Z</time>
      </trkpt>
      <trkpt lat="45.99529" lon="5.17027">
        <ele>289.4</ele>
        <time>2022-02-24T14:26:25Z</time>
      </trkpt>
      <trkpt lat="45.99534" lon="5.17029">
        <ele>289.8</ele>
        <time>2022-02-24T14:26:26Z</time>
      </trkpt>
      <trkpt lat="45.99539" lon="5.17031">
        <ele>290</ele>
        <time>2022-02-24T14:26:27Z</time>
      </trkpt>
      <trkpt lat="45.99544" lon="5.17033">
        <ele>290.2</ele>
        <time>2022-02-24T14:26:28Z</time>
      </trkpt>
      <trkpt lat="45.99548" lon="5.17035">
        <ele>290.4</ele>
        <time>2022-02-24T14:26:29Z</time>
      </trkpt>
      <trkpt lat="45.99553" lon="5.17037">
        <ele>290.6</ele>
        <time>2022-02-24T14:26:30Z</time>
      </trkpt>
      <trkpt lat="45.99557" lon="5.17039">
        <ele>291</ele>
        <time>2022-02-24T14:26:31Z</time>
      </trkpt>
      <trkpt lat="45.99561" lon="5.17041">
        <ele>291.2</ele>
        <time>2022-02-24T14:26:32Z</time>
      </trkpt>
      <trkpt lat="45.99565" lon="5.17042">
        <ele>291.2</ele>
        <time>2022-02-24T14:26:33Z</time>
      </trkpt>
      <trkpt lat="45.9957" lon="5.17045">
        <ele>291.4</ele>
        <time>2022-02-24T14:26:34Z</time>
      </trkpt>
      <trkpt lat="45.99574" lon="5.17046">
        <ele>291.4</ele>
        <time>2022-02-24T14:26:35Z</time>
      </trkpt>
      <trkpt lat="45.99579" lon="5.17049">
        <ele>291.8</ele>
        <time>2022-02-24T14:26:36Z</time>
      </trkpt>
      <trkpt lat="45.99584" lon="5.1705">
        <ele>291.8</ele>
        <time>2022-02-24T14:26:37Z</time>
      </trkpt>
      <trkpt lat="45.99589" lon="5.1705">
        <ele>292</ele>
        <time>2022-02-24T14:26:38Z</time>
      </trkpt>
      <trkpt lat="45.99594" lon="5.17051">
        <ele>292</ele>
        <time>2022-02-24T14:26:39Z</time>
      </trkpt>
      <trkpt lat="45.99598" lon="5.17051">
        <ele>292.4</ele>
        <time>2022-02-24T14:26:40Z</time>
      </trkpt>
      <trkpt lat="45.99603" lon="5.17052">
        <ele>292.4</ele>
        <time>2022-02-24T14:26:41Z</time>
      </trkpt>
      <trkpt lat="45.99608" lon="5.17053">
        <ele>292.6</ele>
        <time>2022-02-24T14:26:42Z</time>
      </trkpt>
      <trkpt lat="45.99613" lon="5.17054">
        <ele>292.6</ele>
        <time>2022-02-24T14:26:43Z</time>
      </trkpt>
      <trkpt lat="45.99617" lon="5.17054">
        <ele>292.6</ele>
        <time>2022-02-24T14:26:44Z</time>
      </trkpt>
      <trkpt lat="45.99622" lon="5.17055">
        <ele>292.8</ele>
        <time>2022-02-24T14:26:45Z</time>
      </trkpt>
      <trkpt lat="45.99626" lon="5.17056">
        <ele>292.8</ele>
        <time>2022-02-24T14:26:46Z</time>
      </trkpt>
      <trkpt lat="45.9963" lon="5.17058">
        <ele>293.2</ele>
        <time>2022-02-24T14:26:47Z</time>
      </trkpt>
      <trkpt lat="45.99635" lon="5.17059">
        <ele>293.2</ele>
        <time>2022-02-24T14:26:48Z</time>
      </trkpt>
      <trkpt lat="45.9964" lon="5.1706">
        <ele>293.2</ele>
        <time>2022-02-24T14:26:49Z</time>
      </trkpt>
      <trkpt lat="45.99645" lon="5.1706">
        <ele>293.4</ele>
        <time>2022-02-24T14:26:50Z</time>
      </trkpt>
      <trkpt lat="45.99649" lon="5.1706">
        <ele>293.4</ele>
        <time>2022-02-24T14:26:51Z</time>
      </trkpt>
      <trkpt lat="45.99653" lon="5.1706">
        <ele>293.6</ele>
        <time>2022-02-24T14:26:52Z</time>
      </trkpt>
      <trkpt lat="45.99657" lon="5.1706">
        <ele>293.6</ele>
        <time>2022-02-24T14:26:53Z</time>
      </trkpt>
      <trkpt lat="45.9966" lon="5.1706">
        <ele>294</ele>
        <time>2022-02-24T14:26:54Z</time>
      </trkpt>
      <trkpt lat="45.99664" lon="5.17061">
        <ele>294</ele>
        <time>2022-02-24T14:26:55Z</time>
      </trkpt>
      <trkpt lat="45.99667" lon="5.1706">
        <ele>294.2</ele>
        <time>2022-02-24T14:26:56Z</time>
      </trkpt>
      <trkpt lat="45.9967" lon="5.1706">
        <ele>294.2</ele>
        <time>2022-02-24T14:26:57Z</time>
      </trkpt>
      <trkpt lat="45.99672" lon="5.1706">
        <ele>294.2</ele>
        <time>2022-02-24T14:26:58Z</time>
      </trkpt>
      <trkpt lat="45.99674" lon="5.17059">
        <ele>294.2</ele>
        <time>2022-02-24T14:26:59Z</time>
      </trkpt>
      <trkpt lat="45.99676" lon="5.17059">
        <ele>294.2</ele>
        <time>2022-02-24T14:27:00Z</time>
      </trkpt>
      <trkpt lat="45.99678" lon="5.17058">
        <ele>294.4</ele>
        <time>2022-02-24T14:27:01Z</time>
      </trkpt>
      <trkpt lat="45.9968" lon="5.17058">
        <ele>294.4</ele>
        <time>2022-02-24T14:27:02Z</time>
      </trkpt>
      <trkpt lat="45.99683" lon="5.17058">
        <ele>294.4</ele>
        <time>2022-02-24T14:27:03Z</time>
      </trkpt>
      <trkpt lat="45.99685" lon="5.17058">
        <ele>294.4</ele>
        <time>2022-02-24T14:27:04Z</time>
      </trkpt>
      <trkpt lat="45.99688" lon="5.17059">
        <ele>294.4</ele>
        <time>2022-02-24T14:27:05Z</time>
      </trkpt>
      <trkpt lat="45.99691" lon="5.17061">
        <ele>294.4</ele>
        <time>2022-02-24T14:27:06Z</time>
      </trkpt>
      <trkpt lat="45.99696" lon="5.17063">
        <ele>294.4</ele>
        <time>2022-02-24T14:27:07Z</time>
      </trkpt>
      <trkpt lat="45.997" lon="5.17064">
        <ele>294.4</ele>
        <time>2022-02-24T14:27:08Z</time>
      </trkpt>
      <trkpt lat="45.99704" lon="5.17066">
        <ele>294.6</ele>
        <time>2022-02-24T14:27:09Z</time>
      </trkpt>
      <trkpt lat="45.99707" lon="5.17067">
        <ele>294.6</ele>
        <time>2022-02-24T14:27:10Z</time>
      </trkpt>
      <trkpt lat="45.99712" lon="5.17069">
        <ele>294.6</ele>
        <time>2022-02-24T14:27:11Z</time>
      </trkpt>
      <trkpt lat="45.99715" lon="5.17069">
        <ele>294.6</ele>
        <time>2022-02-24T14:27:12Z</time>
      </trkpt>
      <trkpt lat="45.99719" lon="5.1707">
        <ele>295</ele>
        <time>2022-02-24T14:27:13Z</time>
      </trkpt>
      <trkpt lat="45.99723" lon="5.17071">
        <ele>295</ele>
        <time>2022-02-24T14:27:14Z</time>
      </trkpt>
      <trkpt lat="45.99726" lon="5.17073">
        <ele>295.2</ele>
        <time>2022-02-24T14:27:15Z</time>
      </trkpt>
      <trkpt lat="45.9973" lon="5.17074">
        <ele>295.2</ele>
        <time>2022-02-24T14:27:16Z</time>
      </trkpt>
      <trkpt lat="45.99734" lon="5.17076">
        <ele>295.4</ele>
        <time>2022-02-24T14:27:17Z</time>
      </trkpt>
      <trkpt lat="45.99738" lon="5.17078">
        <ele>295.4</ele>
        <time>2022-02-24T14:27:18Z</time>
      </trkpt>
      <trkpt lat="45.99742" lon="5.17082">
        <ele>295.4</ele>
        <time>2022-02-24T14:27:19Z</time>
      </trkpt>
      <trkpt lat="45.99747" lon="5.17087">
        <ele>295.8</ele>
        <time>2022-02-24T14:27:20Z</time>
      </trkpt>
      <trkpt lat="45.9975" lon="5.17092">
        <ele>295.8</ele>
        <time>2022-02-24T14:27:21Z</time>
      </trkpt>
      <trkpt lat="45.99753" lon="5.17098">
        <ele>296.2</ele>
        <time>2022-02-24T14:27:22Z</time>
      </trkpt>
      <trkpt lat="45.99755" lon="5.17105">
        <ele>296.2</ele>
        <time>2022-02-24T14:27:23Z</time>
      </trkpt>
      <trkpt lat="45.99756" lon="5.17112">
        <ele>296.4</ele>
        <time>2022-02-24T14:27:24Z</time>
      </trkpt>
      <trkpt lat="45.99757" lon="5.17119">
        <ele>296.4</ele>
        <time>2022-02-24T14:27:25Z</time>
      </trkpt>
      <trkpt lat="45.99758" lon="5.17128">
        <ele>296.6</ele>
        <time>2022-02-24T14:27:26Z</time>
      </trkpt>
      <trkpt lat="45.99759" lon="5.17137">
        <ele>296.6</ele>
        <time>2022-02-24T14:27:27Z</time>
      </trkpt>
      <trkpt lat="45.99759" lon="5.17146">
        <ele>296.8</ele>
        <time>2022-02-24T14:27:28Z</time>
      </trkpt>
      <trkpt lat="45.99761" lon="5.17155">
        <ele>296.8</ele>
        <time>2022-02-24T14:27:29Z</time>
      </trkpt>
      <trkpt lat="45.99762" lon="5.17163">
        <ele>296.8</ele>
        <time>2022-02-24T14:27:30Z</time>
      </trkpt>
      <trkpt lat="45.99763" lon="5.17171">
        <ele>297.2</ele>
        <time>2022-02-24T14:27:31Z</time>
      </trkpt>
      <trkpt lat="45.99764" lon="5.1718">
        <ele>297.2</ele>
        <time>2022-02-24T14:27:32Z</time>
      </trkpt>
      <trkpt lat="45.99765" lon="5.17187">
        <ele>297.4</ele>
        <time>2022-02-24T14:27:33Z</time>
      </trkpt>
      <trkpt lat="45.99766" lon="5.17195">
        <ele>297.4</ele>
        <time>2022-02-24T14:27:34Z</time>
      </trkpt>
      <trkpt lat="45.99767" lon="5.17203">
        <ele>297.6</ele>
        <time>2022-02-24T14:27:35Z</time>
      </trkpt>
      <trkpt lat="45.99768" lon="5.17211">
        <ele>297.6</ele>
        <time>2022-02-24T14:27:36Z</time>
      </trkpt>
      <trkpt lat="45.99769" lon="5.17219">
        <ele>298.2</ele>
        <time>2022-02-24T14:27:37Z</time>
      </trkpt>
      <trkpt lat="45.9977" lon="5.17227">
        <ele>298.4</ele>
        <time>2022-02-24T14:27:38Z</time>
      </trkpt>
      <trkpt lat="45.99771" lon="5.17234">
        <ele>298.4</ele>
        <time>2022-02-24T14:27:39Z</time>
      </trkpt>
      <trkpt lat="45.99772" lon="5.17241">
        <ele>298.4</ele>
        <time>2022-02-24T14:27:40Z</time>
      </trkpt>
      <trkpt lat="45.99775" lon="5.17248">
        <ele>298.6</ele>
        <time>2022-02-24T14:27:41Z</time>
      </trkpt>
      <trkpt lat="45.99777" lon="5.17255">
        <ele>298.6</ele>
        <time>2022-02-24T14:27:42Z</time>
      </trkpt>
      <trkpt lat="45.9978" lon="5.17262">
        <ele>298.6</ele>
        <time>2022-02-24T14:27:43Z</time>
      </trkpt>
      <trkpt lat="45.99783" lon="5.17268">
        <ele>299</ele>
        <time>2022-02-24T14:27:44Z</time>
      </trkpt>
      <trkpt lat="45.99786" lon="5.17275">
        <ele>299</ele>
        <time>2022-02-24T14:27:45Z</time>
      </trkpt>
      <trkpt lat="45.99789" lon="5.17282">
        <ele>299</ele>
        <time>2022-02-24T14:27:46Z</time>
      </trkpt>
      <trkpt lat="45.99793" lon="5.17289">
        <ele>299.2</ele>
        <time>2022-02-24T14:27:47Z</time>
      </trkpt>
      <trkpt lat="45.99796" lon="5.17295">
        <ele>299.2</ele>
        <time>2022-02-24T14:27:48Z</time>
      </trkpt>
      <trkpt lat="45.998" lon="5.17302">
        <ele>299.2</ele>
        <time>2022-02-24T14:27:49Z</time>
      </trkpt>
      <trkpt lat="45.99804" lon="5.17307">
        <ele>299.4</ele>
        <time>2022-02-24T14:27:50Z</time>
      </trkpt>
      <trkpt lat="45.99808" lon="5.17313">
        <ele>299.4</ele>
        <time>2022-02-24T14:27:51Z</time>
      </trkpt>
      <trkpt lat="45.99808" lon="5.17313">
        <ele>299.4</ele>
        <time>2022-02-24T14:27:52Z</time>
      </trkpt>
      <trkpt lat="45.99812" lon="5.17318">
        <ele>299.6</ele>
        <time>2022-02-24T14:27:53Z</time>
      </trkpt>
      <trkpt lat="45.99817" lon="5.17323">
        <ele>299.6</ele>
        <time>2022-02-24T14:27:54Z</time>
      </trkpt>
      <trkpt lat="45.99821" lon="5.17328">
        <ele>299.6</ele>
        <time>2022-02-24T14:27:55Z</time>
      </trkpt>
      <trkpt lat="45.99826" lon="5.17332">
        <ele>299.6</ele>
        <time>2022-02-24T14:27:56Z</time>
      </trkpt>
      <trkpt lat="45.99832" lon="5.17336">
        <ele>299.6</ele>
        <time>2022-02-24T14:27:57Z</time>
      </trkpt>
      <trkpt lat="45.99837" lon="5.1734">
        <ele>299.6</ele>
        <time>2022-02-24T14:27:58Z</time>
      </trkpt>
      <trkpt lat="45.99843" lon="5.17344">
        <ele>299.6</ele>
        <time>2022-02-24T14:27:59Z</time>
      </trkpt>
      <trkpt lat="45.99849" lon="5.17347">
        <ele>299.6</ele>
        <time>2022-02-24T14:28:00Z</time>
      </trkpt>
      <trkpt lat="45.99855" lon="5.17351">
        <ele>299.6</ele>
        <time>2022-02-24T14:28:01Z</time>
      </trkpt>
      <trkpt lat="45.99861" lon="5.17354">
        <ele>299.6</ele>
        <time>2022-02-24T14:28:02Z</time>
      </trkpt>
      <trkpt lat="45.99867" lon="5.17356">
        <ele>299.6</ele>
        <time>2022-02-24T14:28:03Z</time>
      </trkpt>
      <trkpt lat="45.99874" lon="5.17359">
        <ele>299.6</ele>
        <time>2022-02-24T14:28:04Z</time>
      </trkpt>
      <trkpt lat="45.9988" lon="5.17361">
        <ele>299.6</ele>
        <time>2022-02-24T14:28:05Z</time>
      </trkpt>
      <trkpt lat="45.99887" lon="5.17364">
        <ele>299.6</ele>
        <time>2022-02-24T14:28:06Z</time>
      </trkpt>
      <trkpt lat="45.99894" lon="5.17366">
        <ele>299.6</ele>
        <time>2022-02-24T14:28:07Z</time>
      </trkpt>
      <trkpt lat="45.999" lon="5.17368">
        <ele>299.6</ele>
        <time>2022-02-24T14:28:08Z</time>
      </trkpt>
      <trkpt lat="45.99907" lon="5.1737">
        <ele>299.6</ele>
        <time>2022-02-24T14:28:09Z</time>
      </trkpt>
      <trkpt lat="45.99914" lon="5.17372">
        <ele>299.4</ele>
        <time>2022-02-24T14:28:10Z</time>
      </trkpt>
      <trkpt lat="45.9992" lon="5.17373">
        <ele>299.4</ele>
        <time>2022-02-24T14:28:11Z</time>
      </trkpt>
      <trkpt lat="45.99927" lon="5.17375">
        <ele>299.4</ele>
        <time>2022-02-24T14:28:12Z</time>
      </trkpt>
      <trkpt lat="45.99934" lon="5.17377">
        <ele>299.4</ele>
        <time>2022-02-24T14:28:13Z</time>
      </trkpt>
      <trkpt lat="45.99941" lon="5.17378">
        <ele>299.4</ele>
        <time>2022-02-24T14:28:14Z</time>
      </trkpt>
      <trkpt lat="45.99948" lon="5.17379">
        <ele>299.4</ele>
        <time>2022-02-24T14:28:15Z</time>
      </trkpt>
      <trkpt lat="45.99954" lon="5.1738">
        <ele>299.6</ele>
        <time>2022-02-24T14:28:16Z</time>
      </trkpt>
      <trkpt lat="45.99961" lon="5.17381">
        <ele>299.6</ele>
        <time>2022-02-24T14:28:17Z</time>
      </trkpt>
      <trkpt lat="45.99968" lon="5.17382">
        <ele>299.6</ele>
        <time>2022-02-24T14:28:18Z</time>
      </trkpt>
      <trkpt lat="45.99974" lon="5.17382">
        <ele>299.6</ele>
        <time>2022-02-24T14:28:19Z</time>
      </trkpt>
      <trkpt lat="45.99981" lon="5.17383">
        <ele>299.6</ele>
        <time>2022-02-24T14:28:20Z</time>
      </trkpt>
      <trkpt lat="45.99987" lon="5.17384">
        <ele>299.6</ele>
        <time>2022-02-24T14:28:21Z</time>
      </trkpt>
      <trkpt lat="45.99994" lon="5.17385">
        <ele>299.6</ele>
        <time>2022-02-24T14:28:22Z</time>
      </trkpt>
      <trkpt lat="46" lon="5.17386">
        <ele>299.6</ele>
        <time>2022-02-24T14:28:23Z</time>
      </trkpt>
      <trkpt lat="46.00007" lon="5.17387">
        <ele>299.6</ele>
        <time>2022-02-24T14:28:24Z</time>
      </trkpt>
      <trkpt lat="46.00013" lon="5.17388">
        <ele>299.8</ele>
        <time>2022-02-24T14:28:25Z</time>
      </trkpt>
      <trkpt lat="46.0002" lon="5.17388">
        <ele>299.8</ele>
        <time>2022-02-24T14:28:26Z</time>
      </trkpt>
      <trkpt lat="46.00026" lon="5.17389">
        <ele>299.8</ele>
        <time>2022-02-24T14:28:27Z</time>
      </trkpt>
      <trkpt lat="46.00032" lon="5.1739">
        <ele>299.8</ele>
        <time>2022-02-24T14:28:28Z</time>
      </trkpt>
      <trkpt lat="46.00038" lon="5.17391">
        <ele>299.8</ele>
        <time>2022-02-24T14:28:29Z</time>
      </trkpt>
      <trkpt lat="46.00045" lon="5.17392">
        <ele>299.8</ele>
        <time>2022-02-24T14:28:30Z</time>
      </trkpt>
      <trkpt lat="46.00051" lon="5.17392">
        <ele>299.8</ele>
        <time>2022-02-24T14:28:31Z</time>
      </trkpt>
      <trkpt lat="46.00058" lon="5.17393">
        <ele>299.8</ele>
        <time>2022-02-24T14:28:32Z</time>
      </trkpt>
      <trkpt lat="46.00065" lon="5.17394">
        <ele>299.8</ele>
        <time>2022-02-24T14:28:33Z</time>
      </trkpt>
      <trkpt lat="46.00071" lon="5.17394">
        <ele>299.8</ele>
        <time>2022-02-24T14:28:34Z</time>
      </trkpt>
      <trkpt lat="46.00078" lon="5.17395">
        <ele>299.8</ele>
        <time>2022-02-24T14:28:35Z</time>
      </trkpt>
      <trkpt lat="46.00085" lon="5.17396">
        <ele>299.8</ele>
        <time>2022-02-24T14:28:36Z</time>
      </trkpt>
      <trkpt lat="46.00092" lon="5.17397">
        <ele>299.8</ele>
        <time>2022-02-24T14:28:37Z</time>
      </trkpt>
      <trkpt lat="46.00099" lon="5.17398">
        <ele>299.8</ele>
        <time>2022-02-24T14:28:38Z</time>
      </trkpt>
      <trkpt lat="46.00105" lon="5.17399">
        <ele>299.8</ele>
        <time>2022-02-24T14:28:39Z</time>
      </trkpt>
      <trkpt lat="46.00112" lon="5.174">
        <ele>299.8</ele>
        <time>2022-02-24T14:28:40Z</time>
      </trkpt>
      <trkpt lat="46.00119" lon="5.174">
        <ele>299.8</ele>
        <time>2022-02-24T14:28:41Z</time>
      </trkpt>
      <trkpt lat="46.00126" lon="5.17401">
        <ele>299.8</ele>
        <time>2022-02-24T14:28:42Z</time>
      </trkpt>
      <trkpt lat="46.00133" lon="5.17402">
        <ele>299.8</ele>
        <time>2022-02-24T14:28:43Z</time>
      </trkpt>
      <trkpt lat="46.00141" lon="5.17402">
        <ele>299.8</ele>
        <time>2022-02-24T14:28:44Z</time>
      </trkpt>
      <trkpt lat="46.00149" lon="5.17402">
        <ele>299.8</ele>
        <time>2022-02-24T14:28:45Z</time>
      </trkpt>
      <trkpt lat="46.00156" lon="5.17403">
        <ele>299.6</ele>
        <time>2022-02-24T14:28:46Z</time>
      </trkpt>
      <trkpt lat="46.00164" lon="5.17403">
        <ele>299.6</ele>
        <time>2022-02-24T14:28:47Z</time>
      </trkpt>
      <trkpt lat="46.00172" lon="5.17404">
        <ele>299.4</ele>
        <time>2022-02-24T14:28:48Z</time>
      </trkpt>
      <trkpt lat="46.0018" lon="5.17404">
        <ele>299.4</ele>
        <time>2022-02-24T14:28:49Z</time>
      </trkpt>
      <trkpt lat="46.00188" lon="5.17404">
        <ele>299.2</ele>
        <time>2022-02-24T14:28:50Z</time>
      </trkpt>
      <trkpt lat="46.00196" lon="5.17404">
        <ele>299.2</ele>
        <time>2022-02-24T14:28:51Z</time>
      </trkpt>
      <trkpt lat="46.00204" lon="5.17403">
        <ele>298.8</ele>
        <time>2022-02-24T14:28:52Z</time>
      </trkpt>
      <trkpt lat="46.00212" lon="5.17403">
        <ele>298.8</ele>
        <time>2022-02-24T14:28:53Z</time>
      </trkpt>
      <trkpt lat="46.0022" lon="5.17403">
        <ele>298.6</ele>
        <time>2022-02-24T14:28:54Z</time>
      </trkpt>
      <trkpt lat="46.00228" lon="5.17402">
        <ele>298.6</ele>
        <time>2022-02-24T14:28:55Z</time>
      </trkpt>
      <trkpt lat="46.00237" lon="5.17402">
        <ele>298.2</ele>
        <time>2022-02-24T14:28:56Z</time>
      </trkpt>
      <trkpt lat="46.00245" lon="5.17401">
        <ele>298</ele>
        <time>2022-02-24T14:28:57Z</time>
      </trkpt>
      <trkpt lat="46.00254" lon="5.17401">
        <ele>298</ele>
        <time>2022-02-24T14:28:58Z</time>
      </trkpt>
      <trkpt lat="46.00263" lon="5.174">
        <ele>297.6</ele>
        <time>2022-02-24T14:28:59Z</time>
      </trkpt>
      <trkpt lat="46.00271" lon="5.174">
        <ele>297.6</ele>
        <time>2022-02-24T14:29:00Z</time>
      </trkpt>
      <trkpt lat="46.0028" lon="5.17399">
        <ele>297.4</ele>
        <time>2022-02-24T14:29:01Z</time>
      </trkpt>
      <trkpt lat="46.00289" lon="5.17398">
        <ele>297.4</ele>
        <time>2022-02-24T14:29:02Z</time>
      </trkpt>
      <trkpt lat="46.00297" lon="5.17397">
        <ele>297.4</ele>
        <time>2022-02-24T14:29:03Z</time>
      </trkpt>
      <trkpt lat="46.00306" lon="5.17397">
        <ele>297.4</ele>
        <time>2022-02-24T14:29:04Z</time>
      </trkpt>
      <trkpt lat="46.00315" lon="5.17396">
        <ele>297.2</ele>
        <time>2022-02-24T14:29:05Z</time>
      </trkpt>
      <trkpt lat="46.00324" lon="5.17396">
        <ele>297.2</ele>
        <time>2022-02-24T14:29:06Z</time>
      </trkpt>
      <trkpt lat="46.00333" lon="5.17395">
        <ele>296.8</ele>
        <time>2022-02-24T14:29:07Z</time>
      </trkpt>
      <trkpt lat="46.00342" lon="5.17394">
        <ele>296.8</ele>
        <time>2022-02-24T14:29:08Z</time>
      </trkpt>
      <trkpt lat="46.0035" lon="5.17394">
        <ele>296.4</ele>
        <time>2022-02-24T14:29:09Z</time>
      </trkpt>
      <trkpt lat="46.00359" lon="5.17393">
        <ele>296.4</ele>
        <time>2022-02-24T14:29:10Z</time>
      </trkpt>
      <trkpt lat="46.00368" lon="5.17392">
        <ele>296.4</ele>
        <time>2022-02-24T14:29:11Z</time>
      </trkpt>
      <trkpt lat="46.00377" lon="5.17392">
        <ele>296.2</ele>
        <time>2022-02-24T14:29:12Z</time>
      </trkpt>
      <trkpt lat="46.00386" lon="5.17391">
        <ele>296.2</ele>
        <time>2022-02-24T14:29:13Z</time>
      </trkpt>
      <trkpt lat="46.00394" lon="5.17391">
        <ele>296</ele>
        <time>2022-02-24T14:29:14Z</time>
      </trkpt>
      <trkpt lat="46.00403" lon="5.17391">
        <ele>296</ele>
        <time>2022-02-24T14:29:15Z</time>
      </trkpt>
      <trkpt lat="46.00412" lon="5.17391">
        <ele>295.8</ele>
        <time>2022-02-24T14:29:16Z</time>
      </trkpt>
      <trkpt lat="46.00421" lon="5.17391">
        <ele>295.4</ele>
        <time>2022-02-24T14:29:17Z</time>
      </trkpt>
      <trkpt lat="46.00429" lon="5.17391">
        <ele>295.2</ele>
        <time>2022-02-24T14:29:18Z</time>
      </trkpt>
      <trkpt lat="46.00438" lon="5.17392">
        <ele>295.2</ele>
        <time>2022-02-24T14:29:19Z</time>
      </trkpt>
      <trkpt lat="46.00447" lon="5.17393">
        <ele>295.2</ele>
        <time>2022-02-24T14:29:20Z</time>
      </trkpt>
      <trkpt lat="46.00456" lon="5.17394">
        <ele>295</ele>
        <time>2022-02-24T14:29:21Z</time>
      </trkpt>
      <trkpt lat="46.00465" lon="5.17397">
        <ele>295</ele>
        <time>2022-02-24T14:29:22Z</time>
      </trkpt>
      <trkpt lat="46.00474" lon="5.174">
        <ele>294.6</ele>
        <time>2022-02-24T14:29:23Z</time>
      </trkpt>
      <trkpt lat="46.00482" lon="5.17404">
        <ele>294.6</ele>
        <time>2022-02-24T14:29:24Z</time>
      </trkpt>
      <trkpt lat="46.0049" lon="5.17407">
        <ele>294.6</ele>
        <time>2022-02-24T14:29:25Z</time>
      </trkpt>
      <trkpt lat="46.00499" lon="5.1741">
        <ele>294.6</ele>
        <time>2022-02-24T14:29:26Z</time>
      </trkpt>
      <trkpt lat="46.00507" lon="5.17414">
        <ele>294.6</ele>
        <time>2022-02-24T14:29:27Z</time>
      </trkpt>
      <trkpt lat="46.00515" lon="5.17419">
        <ele>294.4</ele>
        <time>2022-02-24T14:29:28Z</time>
      </trkpt>
      <trkpt lat="46.00524" lon="5.17423">
        <ele>294.2</ele>
        <time>2022-02-24T14:29:29Z</time>
      </trkpt>
      <trkpt lat="46.00532" lon="5.17428">
        <ele>294.2</ele>
        <time>2022-02-24T14:29:30Z</time>
      </trkpt>
      <trkpt lat="46.00542" lon="5.17433">
        <ele>293.8</ele>
        <time>2022-02-24T14:29:31Z</time>
      </trkpt>
      <trkpt lat="46.0055" lon="5.17436">
        <ele>293.8</ele>
        <time>2022-02-24T14:29:32Z</time>
      </trkpt>
      <trkpt lat="46.00559" lon="5.17441">
        <ele>293.6</ele>
        <time>2022-02-24T14:29:33Z</time>
      </trkpt>
      <trkpt lat="46.00567" lon="5.17445">
        <ele>293.6</ele>
        <time>2022-02-24T14:29:34Z</time>
      </trkpt>
      <trkpt lat="46.00576" lon="5.17449">
        <ele>293.2</ele>
        <time>2022-02-24T14:29:35Z</time>
      </trkpt>
      <trkpt lat="46.00585" lon="5.17453">
        <ele>293.2</ele>
        <time>2022-02-24T14:29:36Z</time>
      </trkpt>
      <trkpt lat="46.00594" lon="5.17457">
        <ele>293</ele>
        <time>2022-02-24T14:29:37Z</time>
      </trkpt>
      <trkpt lat="46.00603" lon="5.1746">
        <ele>293</ele>
        <time>2022-02-24T14:29:38Z</time>
      </trkpt>
      <trkpt lat="46.00611" lon="5.17466">
        <ele>292.6</ele>
        <time>2022-02-24T14:29:39Z</time>
      </trkpt>
      <trkpt lat="46.0062" lon="5.17471">
        <ele>292.6</ele>
        <time>2022-02-24T14:29:40Z</time>
      </trkpt>
      <trkpt lat="46.00628" lon="5.17477">
        <ele>292.4</ele>
        <time>2022-02-24T14:29:41Z</time>
      </trkpt>
      <trkpt lat="46.00636" lon="5.17483">
        <ele>292.4</ele>
        <time>2022-02-24T14:29:42Z</time>
      </trkpt>
      <trkpt lat="46.00644" lon="5.17489">
        <ele>292.4</ele>
        <time>2022-02-24T14:29:43Z</time>
      </trkpt>
      <trkpt lat="46.00652" lon="5.17495">
        <ele>292.2</ele>
        <time>2022-02-24T14:29:44Z</time>
      </trkpt>
      <trkpt lat="46.00661" lon="5.17502">
        <ele>292.2</ele>
        <time>2022-02-24T14:29:45Z</time>
      </trkpt>
      <trkpt lat="46.00669" lon="5.17508">
        <ele>292.2</ele>
        <time>2022-02-24T14:29:46Z</time>
      </trkpt>
      <trkpt lat="46.00677" lon="5.17513">
        <ele>292.2</ele>
        <time>2022-02-24T14:29:47Z</time>
      </trkpt>
      <trkpt lat="46.00685" lon="5.17519">
        <ele>292.2</ele>
        <time>2022-02-24T14:29:48Z</time>
      </trkpt>
      <trkpt lat="46.00693" lon="5.17525">
        <ele>292.2</ele>
        <time>2022-02-24T14:29:49Z</time>
      </trkpt>
      <trkpt lat="46.007" lon="5.17531">
        <ele>292.2</ele>
        <time>2022-02-24T14:29:50Z</time>
      </trkpt>
      <trkpt lat="46.00708" lon="5.17537">
        <ele>292.2</ele>
        <time>2022-02-24T14:29:51Z</time>
      </trkpt>
      <trkpt lat="46.00715" lon="5.17543">
        <ele>292.2</ele>
        <time>2022-02-24T14:29:52Z</time>
      </trkpt>
      <trkpt lat="46.00723" lon="5.17549">
        <ele>292.2</ele>
        <time>2022-02-24T14:29:53Z</time>
      </trkpt>
      <trkpt lat="46.0073" lon="5.17555">
        <ele>292.2</ele>
        <time>2022-02-24T14:29:54Z</time>
      </trkpt>
      <trkpt lat="46.00738" lon="5.17561">
        <ele>291.8</ele>
        <time>2022-02-24T14:29:55Z</time>
      </trkpt>
      <trkpt lat="46.00746" lon="5.17567">
        <ele>292.2</ele>
        <time>2022-02-24T14:29:56Z</time>
      </trkpt>
      <trkpt lat="46.00753" lon="5.17573">
        <ele>292.2</ele>
        <time>2022-02-24T14:29:57Z</time>
      </trkpt>
      <trkpt lat="46.00761" lon="5.17579">
        <ele>292.2</ele>
        <time>2022-02-24T14:29:58Z</time>
      </trkpt>
      <trkpt lat="46.00769" lon="5.17585">
        <ele>292.2</ele>
        <time>2022-02-24T14:29:59Z</time>
      </trkpt>
      <trkpt lat="46.00776" lon="5.17591">
        <ele>292.2</ele>
        <time>2022-02-24T14:30:00Z</time>
      </trkpt>
      <trkpt lat="46.00784" lon="5.17597">
        <ele>292.2</ele>
        <time>2022-02-24T14:30:01Z</time>
      </trkpt>
      <trkpt lat="46.00792" lon="5.17603">
        <ele>292.2</ele>
        <time>2022-02-24T14:30:02Z</time>
      </trkpt>
      <trkpt lat="46.00799" lon="5.17609">
        <ele>292.2</ele>
        <time>2022-02-24T14:30:03Z</time>
      </trkpt>
      <trkpt lat="46.00807" lon="5.17615">
        <ele>292.2</ele>
        <time>2022-02-24T14:30:04Z</time>
      </trkpt>
      <trkpt lat="46.00815" lon="5.17621">
        <ele>292.2</ele>
        <time>2022-02-24T14:30:05Z</time>
      </trkpt>
      <trkpt lat="46.00823" lon="5.17628">
        <ele>292.2</ele>
        <time>2022-02-24T14:30:06Z</time>
      </trkpt>
      <trkpt lat="46.00831" lon="5.17633">
        <ele>292.2</ele>
        <time>2022-02-24T14:30:07Z</time>
      </trkpt>
      <trkpt lat="46.00839" lon="5.17639">
        <ele>291.8</ele>
        <time>2022-02-24T14:30:08Z</time>
      </trkpt>
      <trkpt lat="46.00847" lon="5.17645">
        <ele>292</ele>
        <time>2022-02-24T14:30:09Z</time>
      </trkpt>
      <trkpt lat="46.00855" lon="5.1765">
        <ele>292</ele>
        <time>2022-02-24T14:30:10Z</time>
      </trkpt>
      <trkpt lat="46.00864" lon="5.17657">
        <ele>292</ele>
        <time>2022-02-24T14:30:11Z</time>
      </trkpt>
      <trkpt lat="46.00872" lon="5.17662">
        <ele>292</ele>
        <time>2022-02-24T14:30:12Z</time>
      </trkpt>
      <trkpt lat="46.0088" lon="5.17668">
        <ele>292</ele>
        <time>2022-02-24T14:30:13Z</time>
      </trkpt>
      <trkpt lat="46.00887" lon="5.17674">
        <ele>292</ele>
        <time>2022-02-24T14:30:14Z</time>
      </trkpt>
      <trkpt lat="46.00895" lon="5.1768">
        <ele>292</ele>
        <time>2022-02-24T14:30:15Z</time>
      </trkpt>
      <trkpt lat="46.00903" lon="5.17686">
        <ele>292</ele>
        <time>2022-02-24T14:30:16Z</time>
      </trkpt>
      <trkpt lat="46.0091" lon="5.17692">
        <ele>292</ele>
        <time>2022-02-24T14:30:17Z</time>
      </trkpt>
      <trkpt lat="46.00918" lon="5.17698">
        <ele>292</ele>
        <time>2022-02-24T14:30:18Z</time>
      </trkpt>
      <trkpt lat="46.00926" lon="5.17704">
        <ele>292</ele>
        <time>2022-02-24T14:30:19Z</time>
      </trkpt>
      <trkpt lat="46.00935" lon="5.1771">
        <ele>291.8</ele>
        <time>2022-02-24T14:30:20Z</time>
      </trkpt>
      <trkpt lat="46.00943" lon="5.17717">
        <ele>291.8</ele>
        <time>2022-02-24T14:30:21Z</time>
      </trkpt>
      <trkpt lat="46.00951" lon="5.17724">
        <ele>291.4</ele>
        <time>2022-02-24T14:30:22Z</time>
      </trkpt>
      <trkpt lat="46.0096" lon="5.1773">
        <ele>291.4</ele>
        <time>2022-02-24T14:30:23Z</time>
      </trkpt>
      <trkpt lat="46.00967" lon="5.17736">
        <ele>291.4</ele>
        <time>2022-02-24T14:30:24Z</time>
      </trkpt>
      <trkpt lat="46.00975" lon="5.17742">
        <ele>291.4</ele>
        <time>2022-02-24T14:30:25Z</time>
      </trkpt>
      <trkpt lat="46.00984" lon="5.17748">
        <ele>291.4</ele>
        <time>2022-02-24T14:30:26Z</time>
      </trkpt>
      <trkpt lat="46.00993" lon="5.17754">
        <ele>291.4</ele>
        <time>2022-02-24T14:30:27Z</time>
      </trkpt>
      <trkpt lat="46.01002" lon="5.17759">
        <ele>291.4</ele>
        <time>2022-02-24T14:30:28Z</time>
      </trkpt>
      <trkpt lat="46.0101" lon="5.17765">
        <ele>291.4</ele>
        <time>2022-02-24T14:30:29Z</time>
      </trkpt>
      <trkpt lat="46.01019" lon="5.17771">
        <ele>291.4</ele>
        <time>2022-02-24T14:30:30Z</time>
      </trkpt>
      <trkpt lat="46.01027" lon="5.17778">
        <ele>291.4</ele>
        <time>2022-02-24T14:30:31Z</time>
      </trkpt>
      <trkpt lat="46.01035" lon="5.17785">
        <ele>291.4</ele>
        <time>2022-02-24T14:30:32Z</time>
      </trkpt>
      <trkpt lat="46.01042" lon="5.17792">
        <ele>291.4</ele>
        <time>2022-02-24T14:30:33Z</time>
      </trkpt>
      <trkpt lat="46.0105" lon="5.17798">
        <ele>291.4</ele>
        <time>2022-02-24T14:30:34Z</time>
      </trkpt>
      <trkpt lat="46.01057" lon="5.17804">
        <ele>291.6</ele>
        <time>2022-02-24T14:30:35Z</time>
      </trkpt>
      <trkpt lat="46.01065" lon="5.1781">
        <ele>291.8</ele>
        <time>2022-02-24T14:30:36Z</time>
      </trkpt>
      <trkpt lat="46.01073" lon="5.17816">
        <ele>291.8</ele>
        <time>2022-02-24T14:30:37Z</time>
      </trkpt>
      <trkpt lat="46.0108" lon="5.17822">
        <ele>292.2</ele>
        <time>2022-02-24T14:30:38Z</time>
      </trkpt>
      <trkpt lat="46.01088" lon="5.17828">
        <ele>292.4</ele>
        <time>2022-02-24T14:30:39Z</time>
      </trkpt>
      <trkpt lat="46.01095" lon="5.17833">
        <ele>292.6</ele>
        <time>2022-02-24T14:30:40Z</time>
      </trkpt>
      <trkpt lat="46.01101" lon="5.17839">
        <ele>293</ele>
        <time>2022-02-24T14:30:41Z</time>
      </trkpt>
      <trkpt lat="46.01108" lon="5.17844">
        <ele>293.2</ele>
        <time>2022-02-24T14:30:42Z</time>
      </trkpt>
      <trkpt lat="46.01115" lon="5.17849">
        <ele>293.2</ele>
        <time>2022-02-24T14:30:43Z</time>
      </trkpt>
      <trkpt lat="46.01121" lon="5.17854">
        <ele>293.4</ele>
        <time>2022-02-24T14:30:44Z</time>
      </trkpt>
      <trkpt lat="46.01128" lon="5.17859">
        <ele>293.6</ele>
        <time>2022-02-24T14:30:45Z</time>
      </trkpt>
      <trkpt lat="46.01134" lon="5.17864">
        <ele>293.6</ele>
        <time>2022-02-24T14:30:46Z</time>
      </trkpt>
      <trkpt lat="46.01141" lon="5.17869">
        <ele>294</ele>
        <time>2022-02-24T14:30:47Z</time>
      </trkpt>
      <trkpt lat="46.01148" lon="5.17874">
        <ele>294.2</ele>
        <time>2022-02-24T14:30:48Z</time>
      </trkpt>
      <trkpt lat="46.01154" lon="5.17879">
        <ele>294.4</ele>
        <time>2022-02-24T14:30:49Z</time>
      </trkpt>
      <trkpt lat="46.01161" lon="5.17884">
        <ele>294.6</ele>
        <time>2022-02-24T14:30:50Z</time>
      </trkpt>
      <trkpt lat="46.01168" lon="5.17889">
        <ele>294.6</ele>
        <time>2022-02-24T14:30:51Z</time>
      </trkpt>
      <trkpt lat="46.01175" lon="5.17894">
        <ele>294.8</ele>
        <time>2022-02-24T14:30:52Z</time>
      </trkpt>
      <trkpt lat="46.01182" lon="5.17899">
        <ele>294.8</ele>
        <time>2022-02-24T14:30:53Z</time>
      </trkpt>
      <trkpt lat="46.01189" lon="5.17905">
        <ele>294.8</ele>
        <time>2022-02-24T14:30:54Z</time>
      </trkpt>
      <trkpt lat="46.01196" lon="5.1791">
        <ele>294.8</ele>
        <time>2022-02-24T14:30:55Z</time>
      </trkpt>
      <trkpt lat="46.01204" lon="5.17916">
        <ele>294.8</ele>
        <time>2022-02-24T14:30:56Z</time>
      </trkpt>
      <trkpt lat="46.01211" lon="5.17921">
        <ele>294.8</ele>
        <time>2022-02-24T14:30:57Z</time>
      </trkpt>
      <trkpt lat="46.01218" lon="5.17927">
        <ele>294.8</ele>
        <time>2022-02-24T14:30:58Z</time>
      </trkpt>
      <trkpt lat="46.01226" lon="5.17932">
        <ele>294.8</ele>
        <time>2022-02-24T14:30:59Z</time>
      </trkpt>
      <trkpt lat="46.01234" lon="5.17937">
        <ele>294.8</ele>
        <time>2022-02-24T14:31:00Z</time>
      </trkpt>
      <trkpt lat="46.01241" lon="5.17942">
        <ele>294.8</ele>
        <time>2022-02-24T14:31:01Z</time>
      </trkpt>
      <trkpt lat="46.01249" lon="5.17946">
        <ele>295.2</ele>
        <time>2022-02-24T14:31:02Z</time>
      </trkpt>
      <trkpt lat="46.01257" lon="5.1795">
        <ele>295.2</ele>
        <time>2022-02-24T14:31:03Z</time>
      </trkpt>
      <trkpt lat="46.01266" lon="5.17953">
        <ele>295.2</ele>
        <time>2022-02-24T14:31:04Z</time>
      </trkpt>
      <trkpt lat="46.01274" lon="5.17956">
        <ele>295.2</ele>
        <time>2022-02-24T14:31:05Z</time>
      </trkpt>
      <trkpt lat="46.01282" lon="5.17959">
        <ele>295.2</ele>
        <time>2022-02-24T14:31:06Z</time>
      </trkpt>
      <trkpt lat="46.01291" lon="5.17961">
        <ele>295.4</ele>
        <time>2022-02-24T14:31:07Z</time>
      </trkpt>
      <trkpt lat="46.01299" lon="5.17963">
        <ele>295.4</ele>
        <time>2022-02-24T14:31:08Z</time>
      </trkpt>
      <trkpt lat="46.01308" lon="5.17965">
        <ele>295.4</ele>
        <time>2022-02-24T14:31:09Z</time>
      </trkpt>
      <trkpt lat="46.01316" lon="5.17966">
        <ele>295.6</ele>
        <time>2022-02-24T14:31:10Z</time>
      </trkpt>
      <trkpt lat="46.01325" lon="5.17968">
        <ele>295.6</ele>
        <time>2022-02-24T14:31:11Z</time>
      </trkpt>
      <trkpt lat="46.01333" lon="5.17968">
        <ele>295.6</ele>
        <time>2022-02-24T14:31:12Z</time>
      </trkpt>
      <trkpt lat="46.01342" lon="5.17969">
        <ele>295.6</ele>
        <time>2022-02-24T14:31:13Z</time>
      </trkpt>
      <trkpt lat="46.01351" lon="5.17969">
        <ele>295.6</ele>
        <time>2022-02-24T14:31:14Z</time>
      </trkpt>
      <trkpt lat="46.0136" lon="5.17968">
        <ele>295.8</ele>
        <time>2022-02-24T14:31:15Z</time>
      </trkpt>
      <trkpt lat="46.01368" lon="5.17967">
        <ele>295.8</ele>
        <time>2022-02-24T14:31:16Z</time>
      </trkpt>
      <trkpt lat="46.01377" lon="5.17965">
        <ele>295.8</ele>
        <time>2022-02-24T14:31:17Z</time>
      </trkpt>
      <trkpt lat="46.01386" lon="5.17964">
        <ele>295.8</ele>
        <time>2022-02-24T14:31:18Z</time>
      </trkpt>
      <trkpt lat="46.01395" lon="5.17962">
        <ele>295.8</ele>
        <time>2022-02-24T14:31:19Z</time>
      </trkpt>
      <trkpt lat="46.01403" lon="5.1796">
        <ele>296.4</ele>
        <time>2022-02-24T14:31:20Z</time>
      </trkpt>
      <trkpt lat="46.01412" lon="5.17958">
        <ele>296.4</ele>
        <time>2022-02-24T14:31:21Z</time>
      </trkpt>
      <trkpt lat="46.01421" lon="5.17956">
        <ele>296.6</ele>
        <time>2022-02-24T14:31:22Z</time>
      </trkpt>
      <trkpt lat="46.0143" lon="5.17953">
        <ele>296.6</ele>
        <time>2022-02-24T14:31:23Z</time>
      </trkpt>
      <trkpt lat="46.01439" lon="5.17951">
        <ele>296.6</ele>
        <time>2022-02-24T14:31:24Z</time>
      </trkpt>
      <trkpt lat="46.01447" lon="5.17948">
        <ele>296.6</ele>
        <time>2022-02-24T14:31:25Z</time>
      </trkpt>
      <trkpt lat="46.01456" lon="5.17946">
        <ele>296.6</ele>
        <time>2022-02-24T14:31:26Z</time>
      </trkpt>
      <trkpt lat="46.01465" lon="5.17944">
        <ele>296.2</ele>
        <time>2022-02-24T14:31:27Z</time>
      </trkpt>
      <trkpt lat="46.01473" lon="5.17941">
        <ele>296.2</ele>
        <time>2022-02-24T14:31:28Z</time>
      </trkpt>
      <trkpt lat="46.01483" lon="5.17938">
        <ele>296.2</ele>
        <time>2022-02-24T14:31:29Z</time>
      </trkpt>
      <trkpt lat="46.01492" lon="5.17934">
        <ele>296.2</ele>
        <time>2022-02-24T14:31:30Z</time>
      </trkpt>
      <trkpt lat="46.01502" lon="5.17932">
        <ele>296</ele>
        <time>2022-02-24T14:31:31Z</time>
      </trkpt>
      <trkpt lat="46.01511" lon="5.17931">
        <ele>296</ele>
        <time>2022-02-24T14:31:32Z</time>
      </trkpt>
      <trkpt lat="46.01521" lon="5.17927">
        <ele>295.8</ele>
        <time>2022-02-24T14:31:33Z</time>
      </trkpt>
      <trkpt lat="46.0153" lon="5.17924">
        <ele>295.8</ele>
        <time>2022-02-24T14:31:34Z</time>
      </trkpt>
      <trkpt lat="46.0154" lon="5.17923">
        <ele>295.4</ele>
        <time>2022-02-24T14:31:35Z</time>
      </trkpt>
      <trkpt lat="46.01549" lon="5.17921">
        <ele>295.4</ele>
        <time>2022-02-24T14:31:36Z</time>
      </trkpt>
      <trkpt lat="46.01558" lon="5.17919">
        <ele>295</ele>
        <time>2022-02-24T14:31:37Z</time>
      </trkpt>
      <trkpt lat="46.01567" lon="5.17918">
        <ele>295</ele>
        <time>2022-02-24T14:31:38Z</time>
      </trkpt>
      <trkpt lat="46.01576" lon="5.17915">
        <ele>295</ele>
        <time>2022-02-24T14:31:39Z</time>
      </trkpt>
      <trkpt lat="46.01585" lon="5.17913">
        <ele>295</ele>
        <time>2022-02-24T14:31:40Z</time>
      </trkpt>
      <trkpt lat="46.01594" lon="5.17911">
        <ele>294.8</ele>
        <time>2022-02-24T14:31:41Z</time>
      </trkpt>
      <trkpt lat="46.01603" lon="5.17909">
        <ele>294.8</ele>
        <time>2022-02-24T14:31:42Z</time>
      </trkpt>
      <trkpt lat="46.01613" lon="5.17908">
        <ele>294.8</ele>
        <time>2022-02-24T14:31:43Z</time>
      </trkpt>
      <trkpt lat="46.01622" lon="5.17906">
        <ele>294.6</ele>
        <time>2022-02-24T14:31:44Z</time>
      </trkpt>
      <trkpt lat="46.01632" lon="5.17904">
        <ele>294.6</ele>
        <time>2022-02-24T14:31:45Z</time>
      </trkpt>
      <trkpt lat="46.01641" lon="5.17902">
        <ele>294.6</ele>
        <time>2022-02-24T14:31:46Z</time>
      </trkpt>
      <trkpt lat="46.0165" lon="5.17898">
        <ele>294.4</ele>
        <time>2022-02-24T14:31:47Z</time>
      </trkpt>
      <trkpt lat="46.01659" lon="5.17897">
        <ele>294.4</ele>
        <time>2022-02-24T14:31:48Z</time>
      </trkpt>
      <trkpt lat="46.01668" lon="5.17895">
        <ele>294.4</ele>
        <time>2022-02-24T14:31:49Z</time>
      </trkpt>
      <trkpt lat="46.01677" lon="5.17893">
        <ele>294.4</ele>
        <time>2022-02-24T14:31:50Z</time>
      </trkpt>
      <trkpt lat="46.01686" lon="5.17891">
        <ele>294.4</ele>
        <time>2022-02-24T14:31:51Z</time>
      </trkpt>
      <trkpt lat="46.01695" lon="5.17888">
        <ele>294.4</ele>
        <time>2022-02-24T14:31:52Z</time>
      </trkpt>
      <trkpt lat="46.01704" lon="5.17886">
        <ele>294.4</ele>
        <time>2022-02-24T14:31:53Z</time>
      </trkpt>
      <trkpt lat="46.01713" lon="5.17884">
        <ele>294.4</ele>
        <time>2022-02-24T14:31:54Z</time>
      </trkpt>
      <trkpt lat="46.01722" lon="5.17882">
        <ele>294.2</ele>
        <time>2022-02-24T14:31:55Z</time>
      </trkpt>
      <trkpt lat="46.01731" lon="5.17881">
        <ele>294.2</ele>
        <time>2022-02-24T14:31:56Z</time>
      </trkpt>
      <trkpt lat="46.0174" lon="5.17879">
        <ele>294.2</ele>
        <time>2022-02-24T14:31:57Z</time>
      </trkpt>
      <trkpt lat="46.01749" lon="5.17877">
        <ele>294.2</ele>
        <time>2022-02-24T14:31:58Z</time>
      </trkpt>
      <trkpt lat="46.01758" lon="5.17875">
        <ele>294.2</ele>
        <time>2022-02-24T14:31:59Z</time>
      </trkpt>
      <trkpt lat="46.01766" lon="5.17874">
        <ele>294.2</ele>
        <time>2022-02-24T14:32:00Z</time>
      </trkpt>
      <trkpt lat="46.01775" lon="5.17872">
        <ele>294.2</ele>
        <time>2022-02-24T14:32:01Z</time>
      </trkpt>
      <trkpt lat="46.01783" lon="5.1787">
        <ele>294.2</ele>
        <time>2022-02-24T14:32:02Z</time>
      </trkpt>
      <trkpt lat="46.01792" lon="5.17868">
        <ele>294.2</ele>
        <time>2022-02-24T14:32:03Z</time>
      </trkpt>
      <trkpt lat="46.018" lon="5.17866">
        <ele>294.2</ele>
        <time>2022-02-24T14:32:04Z</time>
      </trkpt>
      <trkpt lat="46.01808" lon="5.17864">
        <ele>293.8</ele>
        <time>2022-02-24T14:32:05Z</time>
      </trkpt>
      <trkpt lat="46.01816" lon="5.17863">
        <ele>294.4</ele>
        <time>2022-02-24T14:32:06Z</time>
      </trkpt>
      <trkpt lat="46.01824" lon="5.17861">
        <ele>294.4</ele>
        <time>2022-02-24T14:32:07Z</time>
      </trkpt>
      <trkpt lat="46.01832" lon="5.17859">
        <ele>294.4</ele>
        <time>2022-02-24T14:32:08Z</time>
      </trkpt>
      <trkpt lat="46.01839" lon="5.17857">
        <ele>294.6</ele>
        <time>2022-02-24T14:32:09Z</time>
      </trkpt>
      <trkpt lat="46.01847" lon="5.17855">
        <ele>294.6</ele>
        <time>2022-02-24T14:32:10Z</time>
      </trkpt>
      <trkpt lat="46.01854" lon="5.17853">
        <ele>295</ele>
        <time>2022-02-24T14:32:11Z</time>
      </trkpt>
      <trkpt lat="46.01862" lon="5.17851">
        <ele>295</ele>
        <time>2022-02-24T14:32:12Z</time>
      </trkpt>
      <trkpt lat="46.01869" lon="5.17849">
        <ele>295.6</ele>
        <time>2022-02-24T14:32:13Z</time>
      </trkpt>
      <trkpt lat="46.01876" lon="5.17847">
        <ele>295.6</ele>
        <time>2022-02-24T14:32:14Z</time>
      </trkpt>
      <trkpt lat="46.01883" lon="5.17845">
        <ele>295.6</ele>
        <time>2022-02-24T14:32:15Z</time>
      </trkpt>
      <trkpt lat="46.0189" lon="5.17843">
        <ele>296</ele>
        <time>2022-02-24T14:32:16Z</time>
      </trkpt>
      <trkpt lat="46.01897" lon="5.17842">
        <ele>296.4</ele>
        <time>2022-02-24T14:32:17Z</time>
      </trkpt>
      <trkpt lat="46.01905" lon="5.17842">
        <ele>296.4</ele>
        <time>2022-02-24T14:32:18Z</time>
      </trkpt>
      <trkpt lat="46.01912" lon="5.17841">
        <ele>296.6</ele>
        <time>2022-02-24T14:32:19Z</time>
      </trkpt>
      <trkpt lat="46.01919" lon="5.1784">
        <ele>296.8</ele>
        <time>2022-02-24T14:32:20Z</time>
      </trkpt>
      <trkpt lat="46.01926" lon="5.17839">
        <ele>296.8</ele>
        <time>2022-02-24T14:32:21Z</time>
      </trkpt>
      <trkpt lat="46.01933" lon="5.17839">
        <ele>297</ele>
        <time>2022-02-24T14:32:22Z</time>
      </trkpt>
      <trkpt lat="46.0194" lon="5.17838">
        <ele>297</ele>
        <time>2022-02-24T14:32:23Z</time>
      </trkpt>
      <trkpt lat="46.01947" lon="5.17838">
        <ele>297.4</ele>
        <time>2022-02-24T14:32:24Z</time>
      </trkpt>
      <trkpt lat="46.01954" lon="5.17838">
        <ele>297.4</ele>
        <time>2022-02-24T14:32:25Z</time>
      </trkpt>
      <trkpt lat="46.01962" lon="5.17838">
        <ele>297.4</ele>
        <time>2022-02-24T14:32:26Z</time>
      </trkpt>
      <trkpt lat="46.01969" lon="5.17838">
        <ele>297.4</ele>
        <time>2022-02-24T14:32:27Z</time>
      </trkpt>
      <trkpt lat="46.01977" lon="5.17838">
        <ele>297.4</ele>
        <time>2022-02-24T14:32:28Z</time>
      </trkpt>
      <trkpt lat="46.01984" lon="5.17838">
        <ele>297.4</ele>
        <time>2022-02-24T14:32:29Z</time>
      </trkpt>
      <trkpt lat="46.01992" lon="5.17839">
        <ele>297.4</ele>
        <time>2022-02-24T14:32:30Z</time>
      </trkpt>
      <trkpt lat="46.02" lon="5.1784">
        <ele>297.4</ele>
        <time>2022-02-24T14:32:31Z</time>
      </trkpt>
      <trkpt lat="46.02008" lon="5.17841">
        <ele>297.4</ele>
        <time>2022-02-24T14:32:32Z</time>
      </trkpt>
      <trkpt lat="46.02016" lon="5.17842">
        <ele>297.4</ele>
        <time>2022-02-24T14:32:33Z</time>
      </trkpt>
      <trkpt lat="46.02024" lon="5.17843">
        <ele>297.4</ele>
        <time>2022-02-24T14:32:34Z</time>
      </trkpt>
      <trkpt lat="46.02032" lon="5.17845">
        <ele>297.4</ele>
        <time>2022-02-24T14:32:35Z</time>
      </trkpt>
      <trkpt lat="46.0204" lon="5.17846">
        <ele>297</ele>
        <time>2022-02-24T14:32:36Z</time>
      </trkpt>
      <trkpt lat="46.02048" lon="5.17847">
        <ele>297</ele>
        <time>2022-02-24T14:32:37Z</time>
      </trkpt>
      <trkpt lat="46.02057" lon="5.17849">
        <ele>297</ele>
        <time>2022-02-24T14:32:38Z</time>
      </trkpt>
      <trkpt lat="46.02065" lon="5.1785">
        <ele>296.8</ele>
        <time>2022-02-24T14:32:39Z</time>
      </trkpt>
      <trkpt lat="46.02074" lon="5.17851">
        <ele>296.8</ele>
        <time>2022-02-24T14:32:40Z</time>
      </trkpt>
      <trkpt lat="46.02083" lon="5.17853">
        <ele>296.4</ele>
        <time>2022-02-24T14:32:41Z</time>
      </trkpt>
      <trkpt lat="46.02091" lon="5.17855">
        <ele>296.4</ele>
        <time>2022-02-24T14:32:42Z</time>
      </trkpt>
      <trkpt lat="46.021" lon="5.17856">
        <ele>296.4</ele>
        <time>2022-02-24T14:32:43Z</time>
      </trkpt>
      <trkpt lat="46.02109" lon="5.17858">
        <ele>296.2</ele>
        <time>2022-02-24T14:32:44Z</time>
      </trkpt>
      <trkpt lat="46.02118" lon="5.17859">
        <ele>296.2</ele>
        <time>2022-02-24T14:32:45Z</time>
      </trkpt>
      <trkpt lat="46.02127" lon="5.17861">
        <ele>296.2</ele>
        <time>2022-02-24T14:32:46Z</time>
      </trkpt>
      <trkpt lat="46.02135" lon="5.17863">
        <ele>296</ele>
        <time>2022-02-24T14:32:47Z</time>
      </trkpt>
      <trkpt lat="46.02144" lon="5.17864">
        <ele>296</ele>
        <time>2022-02-24T14:32:48Z</time>
      </trkpt>
      <trkpt lat="46.02153" lon="5.17866">
        <ele>296</ele>
        <time>2022-02-24T14:32:49Z</time>
      </trkpt>
      <trkpt lat="46.02162" lon="5.17867">
        <ele>295.8</ele>
        <time>2022-02-24T14:32:50Z</time>
      </trkpt>
      <trkpt lat="46.02171" lon="5.17868">
        <ele>295.8</ele>
        <time>2022-02-24T14:32:51Z</time>
      </trkpt>
      <trkpt lat="46.0218" lon="5.1787">
        <ele>295.8</ele>
        <time>2022-02-24T14:32:52Z</time>
      </trkpt>
      <trkpt lat="46.02189" lon="5.17871">
        <ele>295.8</ele>
        <time>2022-02-24T14:32:53Z</time>
      </trkpt>
      <trkpt lat="46.02197" lon="5.17872">
        <ele>295.8</ele>
        <time>2022-02-24T14:32:54Z</time>
      </trkpt>
      <trkpt lat="46.02206" lon="5.17873">
        <ele>295.8</ele>
        <time>2022-02-24T14:32:55Z</time>
      </trkpt>
      <trkpt lat="46.02215" lon="5.17874">
        <ele>295.8</ele>
        <time>2022-02-24T14:32:56Z</time>
      </trkpt>
      <trkpt lat="46.02224" lon="5.17875">
        <ele>295.8</ele>
        <time>2022-02-24T14:32:57Z</time>
      </trkpt>
      <trkpt lat="46.02233" lon="5.17875">
        <ele>295.8</ele>
        <time>2022-02-24T14:32:58Z</time>
      </trkpt>
      <trkpt lat="46.02242" lon="5.17876">
        <ele>295.8</ele>
        <time>2022-02-24T14:32:59Z</time>
      </trkpt>
      <trkpt lat="46.02251" lon="5.17877">
        <ele>295.8</ele>
        <time>2022-02-24T14:33:00Z</time>
      </trkpt>
      <trkpt lat="46.0226" lon="5.17879">
        <ele>295.8</ele>
        <time>2022-02-24T14:33:01Z</time>
      </trkpt>
      <trkpt lat="46.02269" lon="5.17881">
        <ele>295.8</ele>
        <time>2022-02-24T14:33:02Z</time>
      </trkpt>
      <trkpt lat="46.02278" lon="5.17883">
        <ele>295.8</ele>
        <time>2022-02-24T14:33:03Z</time>
      </trkpt>
      <trkpt lat="46.02287" lon="5.17884">
        <ele>295.8</ele>
        <time>2022-02-24T14:33:04Z</time>
      </trkpt>
      <trkpt lat="46.02296" lon="5.17886">
        <ele>295.8</ele>
        <time>2022-02-24T14:33:05Z</time>
      </trkpt>
      <trkpt lat="46.02304" lon="5.17887">
        <ele>295.8</ele>
        <time>2022-02-24T14:33:06Z</time>
      </trkpt>
      <trkpt lat="46.02313" lon="5.17889">
        <ele>295.8</ele>
        <time>2022-02-24T14:33:07Z</time>
      </trkpt>
      <trkpt lat="46.02322" lon="5.1789">
        <ele>295.8</ele>
        <time>2022-02-24T14:33:08Z</time>
      </trkpt>
      <trkpt lat="46.02331" lon="5.17892">
        <ele>295.8</ele>
        <time>2022-02-24T14:33:09Z</time>
      </trkpt>
      <trkpt lat="46.02339" lon="5.17893">
        <ele>295.8</ele>
        <time>2022-02-24T14:33:10Z</time>
      </trkpt>
      <trkpt lat="46.02348" lon="5.17895">
        <ele>296</ele>
        <time>2022-02-24T14:33:11Z</time>
      </trkpt>
      <trkpt lat="46.02356" lon="5.17896">
        <ele>296</ele>
        <time>2022-02-24T14:33:12Z</time>
      </trkpt>
      <trkpt lat="46.02365" lon="5.17898">
        <ele>296</ele>
        <time>2022-02-24T14:33:13Z</time>
      </trkpt>
      <trkpt lat="46.02373" lon="5.17899">
        <ele>296</ele>
        <time>2022-02-24T14:33:14Z</time>
      </trkpt>
      <trkpt lat="46.02381" lon="5.179">
        <ele>296.2</ele>
        <time>2022-02-24T14:33:15Z</time>
      </trkpt>
      <trkpt lat="46.0239" lon="5.17902">
        <ele>296.2</ele>
        <time>2022-02-24T14:33:16Z</time>
      </trkpt>
      <trkpt lat="46.02398" lon="5.17903">
        <ele>296.2</ele>
        <time>2022-02-24T14:33:17Z</time>
      </trkpt>
      <trkpt lat="46.02407" lon="5.17905">
        <ele>296.4</ele>
        <time>2022-02-24T14:33:18Z</time>
      </trkpt>
      <trkpt lat="46.02415" lon="5.17906">
        <ele>296.4</ele>
        <time>2022-02-24T14:33:19Z</time>
      </trkpt>
      <trkpt lat="46.02424" lon="5.17907">
        <ele>296.4</ele>
        <time>2022-02-24T14:33:20Z</time>
      </trkpt>
      <trkpt lat="46.02432" lon="5.17909">
        <ele>296.4</ele>
        <time>2022-02-24T14:33:21Z</time>
      </trkpt>
      <trkpt lat="46.0244" lon="5.1791">
        <ele>296.4</ele>
        <time>2022-02-24T14:33:22Z</time>
      </trkpt>
      <trkpt lat="46.02448" lon="5.17911">
        <ele>296.6</ele>
        <time>2022-02-24T14:33:23Z</time>
      </trkpt>
      <trkpt lat="46.02457" lon="5.17913">
        <ele>296.6</ele>
        <time>2022-02-24T14:33:24Z</time>
      </trkpt>
      <trkpt lat="46.02465" lon="5.17914">
        <ele>296.6</ele>
        <time>2022-02-24T14:33:25Z</time>
      </trkpt>
      <trkpt lat="46.02473" lon="5.17916">
        <ele>296.6</ele>
        <time>2022-02-24T14:33:26Z</time>
      </trkpt>
      <trkpt lat="46.02481" lon="5.17917">
        <ele>296.8</ele>
        <time>2022-02-24T14:33:27Z</time>
      </trkpt>
      <trkpt lat="46.02489" lon="5.17918">
        <ele>296.8</ele>
        <time>2022-02-24T14:33:28Z</time>
      </trkpt>
      <trkpt lat="46.02497" lon="5.1792">
        <ele>296.8</ele>
        <time>2022-02-24T14:33:29Z</time>
      </trkpt>
      <trkpt lat="46.02505" lon="5.17921">
        <ele>296.8</ele>
        <time>2022-02-24T14:33:30Z</time>
      </trkpt>
      <trkpt lat="46.02513" lon="5.17922">
        <ele>296.8</ele>
        <time>2022-02-24T14:33:31Z</time>
      </trkpt>
      <trkpt lat="46.02521" lon="5.17923">
        <ele>296.8</ele>
        <time>2022-02-24T14:33:32Z</time>
      </trkpt>
      <trkpt lat="46.02529" lon="5.17925">
        <ele>296.8</ele>
        <time>2022-02-24T14:33:33Z</time>
      </trkpt>
      <trkpt lat="46.02537" lon="5.17926">
        <ele>296.8</ele>
        <time>2022-02-24T14:33:34Z</time>
      </trkpt>
      <trkpt lat="46.02546" lon="5.17927">
        <ele>296.8</ele>
        <time>2022-02-24T14:33:35Z</time>
      </trkpt>
      <trkpt lat="46.02554" lon="5.17928">
        <ele>296.8</ele>
        <time>2022-02-24T14:33:36Z</time>
      </trkpt>
      <trkpt lat="46.02562" lon="5.1793">
        <ele>296.8</ele>
        <time>2022-02-24T14:33:37Z</time>
      </trkpt>
      <trkpt lat="46.0257" lon="5.17931">
        <ele>296.8</ele>
        <time>2022-02-24T14:33:38Z</time>
      </trkpt>
      <trkpt lat="46.02578" lon="5.17933">
        <ele>296.8</ele>
        <time>2022-02-24T14:33:39Z</time>
      </trkpt>
      <trkpt lat="46.02587" lon="5.17934">
        <ele>296.8</ele>
        <time>2022-02-24T14:33:40Z</time>
      </trkpt>
      <trkpt lat="46.02595" lon="5.17935">
        <ele>296.8</ele>
        <time>2022-02-24T14:33:41Z</time>
      </trkpt>
      <trkpt lat="46.02603" lon="5.17936">
        <ele>296.6</ele>
        <time>2022-02-24T14:33:42Z</time>
      </trkpt>
      <trkpt lat="46.02611" lon="5.17938">
        <ele>296.6</ele>
        <time>2022-02-24T14:33:43Z</time>
      </trkpt>
      <trkpt lat="46.0262" lon="5.17939">
        <ele>296.6</ele>
        <time>2022-02-24T14:33:44Z</time>
      </trkpt>
      <trkpt lat="46.02628" lon="5.17941">
        <ele>296.6</ele>
        <time>2022-02-24T14:33:45Z</time>
      </trkpt>
      <trkpt lat="46.02636" lon="5.17942">
        <ele>296.6</ele>
        <time>2022-02-24T14:33:46Z</time>
      </trkpt>
      <trkpt lat="46.02644" lon="5.17943">
        <ele>296.4</ele>
        <time>2022-02-24T14:33:47Z</time>
      </trkpt>
      <trkpt lat="46.02661" lon="5.17946">
        <ele>296.4</ele>
        <time>2022-02-24T14:33:48Z</time>
      </trkpt>
      <trkpt lat="46.02669" lon="5.17947">
        <ele>296.4</ele>
        <time>2022-02-24T14:33:49Z</time>
      </trkpt>
      <trkpt lat="46.02677" lon="5.17948">
        <ele>296.4</ele>
        <time>2022-02-24T14:33:50Z</time>
      </trkpt>
      <trkpt lat="46.02685" lon="5.1795">
        <ele>296.4</ele>
        <time>2022-02-24T14:33:51Z</time>
      </trkpt>
      <trkpt lat="46.02693" lon="5.17951">
        <ele>296.4</ele>
        <time>2022-02-24T14:33:52Z</time>
      </trkpt>
      <trkpt lat="46.02701" lon="5.17952">
        <ele>296.4</ele>
        <time>2022-02-24T14:33:53Z</time>
      </trkpt>
      <trkpt lat="46.02709" lon="5.17953">
        <ele>296.4</ele>
        <time>2022-02-24T14:33:54Z</time>
      </trkpt>
      <trkpt lat="46.02717" lon="5.17955">
        <ele>296.4</ele>
        <time>2022-02-24T14:33:55Z</time>
      </trkpt>
      <trkpt lat="46.02725" lon="5.17956">
        <ele>296.4</ele>
        <time>2022-02-24T14:33:56Z</time>
      </trkpt>
      <trkpt lat="46.02733" lon="5.17958">
        <ele>296.4</ele>
        <time>2022-02-24T14:33:57Z</time>
      </trkpt>
      <trkpt lat="46.02742" lon="5.17959">
        <ele>296.4</ele>
        <time>2022-02-24T14:33:58Z</time>
      </trkpt>
      <trkpt lat="46.0275" lon="5.17961">
        <ele>296.4</ele>
        <time>2022-02-24T14:33:59Z</time>
      </trkpt>
      <trkpt lat="46.02758" lon="5.17962">
        <ele>296.4</ele>
        <time>2022-02-24T14:34:00Z</time>
      </trkpt>
      <trkpt lat="46.02767" lon="5.17964">
        <ele>296.4</ele>
        <time>2022-02-24T14:34:01Z</time>
      </trkpt>
      <trkpt lat="46.02775" lon="5.17965">
        <ele>296.4</ele>
        <time>2022-02-24T14:34:02Z</time>
      </trkpt>
      <trkpt lat="46.02784" lon="5.17967">
        <ele>296.4</ele>
        <time>2022-02-24T14:34:03Z</time>
      </trkpt>
      <trkpt lat="46.02793" lon="5.17968">
        <ele>296.2</ele>
        <time>2022-02-24T14:34:04Z</time>
      </trkpt>
      <trkpt lat="46.02801" lon="5.17969">
        <ele>296.2</ele>
        <time>2022-02-24T14:34:05Z</time>
      </trkpt>
      <trkpt lat="46.0281" lon="5.17971">
        <ele>296.2</ele>
        <time>2022-02-24T14:34:06Z</time>
      </trkpt>
      <trkpt lat="46.02819" lon="5.17972">
        <ele>295.8</ele>
        <time>2022-02-24T14:34:07Z</time>
      </trkpt>
      <trkpt lat="46.02828" lon="5.17974">
        <ele>295.8</ele>
        <time>2022-02-24T14:34:08Z</time>
      </trkpt>
      <trkpt lat="46.02837" lon="5.17975">
        <ele>295.6</ele>
        <time>2022-02-24T14:34:09Z</time>
      </trkpt>
      <trkpt lat="46.02846" lon="5.17977">
        <ele>295.6</ele>
        <time>2022-02-24T14:34:10Z</time>
      </trkpt>
      <trkpt lat="46.02856" lon="5.17979">
        <ele>295.2</ele>
        <time>2022-02-24T14:34:11Z</time>
      </trkpt>
      <trkpt lat="46.02865" lon="5.1798">
        <ele>295.2</ele>
        <time>2022-02-24T14:34:12Z</time>
      </trkpt>
      <trkpt lat="46.02874" lon="5.17981">
        <ele>295</ele>
        <time>2022-02-24T14:34:13Z</time>
      </trkpt>
      <trkpt lat="46.02883" lon="5.17983">
        <ele>294.8</ele>
        <time>2022-02-24T14:34:14Z</time>
      </trkpt>
      <trkpt lat="46.02892" lon="5.17984">
        <ele>294.8</ele>
        <time>2022-02-24T14:34:15Z</time>
      </trkpt>
      <trkpt lat="46.02902" lon="5.17986">
        <ele>294.6</ele>
        <time>2022-02-24T14:34:16Z</time>
      </trkpt>
      <trkpt lat="46.02912" lon="5.17987">
        <ele>294.6</ele>
        <time>2022-02-24T14:34:17Z</time>
      </trkpt>
      <trkpt lat="46.02921" lon="5.17988">
        <ele>294.4</ele>
        <time>2022-02-24T14:34:18Z</time>
      </trkpt>
      <trkpt lat="46.0293" lon="5.1799">
        <ele>294.4</ele>
        <time>2022-02-24T14:34:19Z</time>
      </trkpt>
      <trkpt lat="46.0294" lon="5.17991">
        <ele>294.2</ele>
        <time>2022-02-24T14:34:20Z</time>
      </trkpt>
      <trkpt lat="46.02949" lon="5.17993">
        <ele>294.2</ele>
        <time>2022-02-24T14:34:21Z</time>
      </trkpt>
      <trkpt lat="46.02959" lon="5.17994">
        <ele>294.2</ele>
        <time>2022-02-24T14:34:22Z</time>
      </trkpt>
      <trkpt lat="46.02968" lon="5.17996">
        <ele>294.2</ele>
        <time>2022-02-24T14:34:23Z</time>
      </trkpt>
      <trkpt lat="46.02978" lon="5.17998">
        <ele>294</ele>
        <time>2022-02-24T14:34:24Z</time>
      </trkpt>
      <trkpt lat="46.02987" lon="5.18">
        <ele>294</ele>
        <time>2022-02-24T14:34:25Z</time>
      </trkpt>
      <trkpt lat="46.02996" lon="5.18001">
        <ele>294</ele>
        <time>2022-02-24T14:34:26Z</time>
      </trkpt>
      <trkpt lat="46.03005" lon="5.18003">
        <ele>294</ele>
        <time>2022-02-24T14:34:27Z</time>
      </trkpt>
      <trkpt lat="46.03014" lon="5.18005">
        <ele>294</ele>
        <time>2022-02-24T14:34:28Z</time>
      </trkpt>
      <trkpt lat="46.03023" lon="5.18007">
        <ele>294</ele>
        <time>2022-02-24T14:34:29Z</time>
      </trkpt>
      <trkpt lat="46.03031" lon="5.18008">
        <ele>293.6</ele>
        <time>2022-02-24T14:34:30Z</time>
      </trkpt>
      <trkpt lat="46.0304" lon="5.1801">
        <ele>293.6</ele>
        <time>2022-02-24T14:34:31Z</time>
      </trkpt>
      <trkpt lat="46.03049" lon="5.18011">
        <ele>293.6</ele>
        <time>2022-02-24T14:34:32Z</time>
      </trkpt>
      <trkpt lat="46.03057" lon="5.18013">
        <ele>293.6</ele>
        <time>2022-02-24T14:34:33Z</time>
      </trkpt>
      <trkpt lat="46.03066" lon="5.18014">
        <ele>293.6</ele>
        <time>2022-02-24T14:34:34Z</time>
      </trkpt>
      <trkpt lat="46.03074" lon="5.18015">
        <ele>293.6</ele>
        <time>2022-02-24T14:34:35Z</time>
      </trkpt>
      <trkpt lat="46.03083" lon="5.18017">
        <ele>293.4</ele>
        <time>2022-02-24T14:34:36Z</time>
      </trkpt>
      <trkpt lat="46.03091" lon="5.18018">
        <ele>293.4</ele>
        <time>2022-02-24T14:34:37Z</time>
      </trkpt>
      <trkpt lat="46.031" lon="5.18019">
        <ele>293.4</ele>
        <time>2022-02-24T14:34:38Z</time>
      </trkpt>
      <trkpt lat="46.03108" lon="5.18021">
        <ele>293.4</ele>
        <time>2022-02-24T14:34:39Z</time>
      </trkpt>
      <trkpt lat="46.03117" lon="5.18022">
        <ele>293.4</ele>
        <time>2022-02-24T14:34:40Z</time>
      </trkpt>
      <trkpt lat="46.03125" lon="5.18023">
        <ele>293.4</ele>
        <time>2022-02-24T14:34:41Z</time>
      </trkpt>
      <trkpt lat="46.03133" lon="5.18024">
        <ele>293.4</ele>
        <time>2022-02-24T14:34:42Z</time>
      </trkpt>
      <trkpt lat="46.03142" lon="5.18025">
        <ele>293.4</ele>
        <time>2022-02-24T14:34:43Z</time>
      </trkpt>
      <trkpt lat="46.0315" lon="5.18026">
        <ele>293.4</ele>
        <time>2022-02-24T14:34:44Z</time>
      </trkpt>
      <trkpt lat="46.03158" lon="5.18027">
        <ele>293.4</ele>
        <time>2022-02-24T14:34:45Z</time>
      </trkpt>
      <trkpt lat="46.03167" lon="5.18028">
        <ele>293.4</ele>
        <time>2022-02-24T14:34:46Z</time>
      </trkpt>
      <trkpt lat="46.03175" lon="5.18029">
        <ele>293.4</ele>
        <time>2022-02-24T14:34:47Z</time>
      </trkpt>
      <trkpt lat="46.03184" lon="5.18029">
        <ele>293.4</ele>
        <time>2022-02-24T14:34:48Z</time>
      </trkpt>
      <trkpt lat="46.03192" lon="5.18029">
        <ele>293.4</ele>
        <time>2022-02-24T14:34:49Z</time>
      </trkpt>
      <trkpt lat="46.03201" lon="5.18029">
        <ele>293.4</ele>
        <time>2022-02-24T14:34:50Z</time>
      </trkpt>
      <trkpt lat="46.0321" lon="5.18028">
        <ele>293.4</ele>
        <time>2022-02-24T14:34:51Z</time>
      </trkpt>
      <trkpt lat="46.03218" lon="5.18028">
        <ele>293.4</ele>
        <time>2022-02-24T14:34:52Z</time>
      </trkpt>
      <trkpt lat="46.03227" lon="5.18027">
        <ele>293.4</ele>
        <time>2022-02-24T14:34:53Z</time>
      </trkpt>
      <trkpt lat="46.03235" lon="5.18026">
        <ele>293.4</ele>
        <time>2022-02-24T14:34:54Z</time>
      </trkpt>
      <trkpt lat="46.03244" lon="5.18025">
        <ele>293.4</ele>
        <time>2022-02-24T14:34:55Z</time>
      </trkpt>
      <trkpt lat="46.03252" lon="5.18023">
        <ele>293.2</ele>
        <time>2022-02-24T14:34:56Z</time>
      </trkpt>
      <trkpt lat="46.03261" lon="5.18022">
        <ele>293.2</ele>
        <time>2022-02-24T14:34:57Z</time>
      </trkpt>
      <trkpt lat="46.03269" lon="5.1802">
        <ele>293</ele>
        <time>2022-02-24T14:34:58Z</time>
      </trkpt>
      <trkpt lat="46.03278" lon="5.18019">
        <ele>293</ele>
        <time>2022-02-24T14:34:59Z</time>
      </trkpt>
      <trkpt lat="46.03286" lon="5.18017">
        <ele>292.8</ele>
        <time>2022-02-24T14:35:00Z</time>
      </trkpt>
      <trkpt lat="46.03295" lon="5.18016">
        <ele>292.8</ele>
        <time>2022-02-24T14:35:01Z</time>
      </trkpt>
      <trkpt lat="46.03303" lon="5.18014">
        <ele>292.4</ele>
        <time>2022-02-24T14:35:02Z</time>
      </trkpt>
      <trkpt lat="46.03312" lon="5.18012">
        <ele>292.4</ele>
        <time>2022-02-24T14:35:03Z</time>
      </trkpt>
      <trkpt lat="46.03321" lon="5.1801">
        <ele>292.4</ele>
        <time>2022-02-24T14:35:04Z</time>
      </trkpt>
      <trkpt lat="46.03329" lon="5.18009">
        <ele>292.2</ele>
        <time>2022-02-24T14:35:05Z</time>
      </trkpt>
      <trkpt lat="46.03338" lon="5.18007">
        <ele>292.2</ele>
        <time>2022-02-24T14:35:06Z</time>
      </trkpt>
      <trkpt lat="46.03346" lon="5.18006">
        <ele>292.2</ele>
        <time>2022-02-24T14:35:07Z</time>
      </trkpt>
      <trkpt lat="46.03355" lon="5.18004">
        <ele>292</ele>
        <time>2022-02-24T14:35:08Z</time>
      </trkpt>
      <trkpt lat="46.03364" lon="5.18002">
        <ele>292</ele>
        <time>2022-02-24T14:35:09Z</time>
      </trkpt>
      <trkpt lat="46.03372" lon="5.18001">
        <ele>291.8</ele>
        <time>2022-02-24T14:35:10Z</time>
      </trkpt>
      <trkpt lat="46.03381" lon="5.17999">
        <ele>291.8</ele>
        <time>2022-02-24T14:35:11Z</time>
      </trkpt>
      <trkpt lat="46.0339" lon="5.17997">
        <ele>291.8</ele>
        <time>2022-02-24T14:35:12Z</time>
      </trkpt>
      <trkpt lat="46.03399" lon="5.17995">
        <ele>291.4</ele>
        <time>2022-02-24T14:35:13Z</time>
      </trkpt>
      <trkpt lat="46.03408" lon="5.17993">
        <ele>291.4</ele>
        <time>2022-02-24T14:35:14Z</time>
      </trkpt>
      <trkpt lat="46.03416" lon="5.17991">
        <ele>291.4</ele>
        <time>2022-02-24T14:35:15Z</time>
      </trkpt>
      <trkpt lat="46.03425" lon="5.1799">
        <ele>291.4</ele>
        <time>2022-02-24T14:35:16Z</time>
      </trkpt>
      <trkpt lat="46.03434" lon="5.17988">
        <ele>291.2</ele>
        <time>2022-02-24T14:35:17Z</time>
      </trkpt>
      <trkpt lat="46.03443" lon="5.17986">
        <ele>291.2</ele>
        <time>2022-02-24T14:35:18Z</time>
      </trkpt>
      <trkpt lat="46.03452" lon="5.17984">
        <ele>291.2</ele>
        <time>2022-02-24T14:35:19Z</time>
      </trkpt>
      <trkpt lat="46.0346" lon="5.17982">
        <ele>291.2</ele>
        <time>2022-02-24T14:35:20Z</time>
      </trkpt>
      <trkpt lat="46.03469" lon="5.17981">
        <ele>291.2</ele>
        <time>2022-02-24T14:35:21Z</time>
      </trkpt>
      <trkpt lat="46.03479" lon="5.1798">
        <ele>291.2</ele>
        <time>2022-02-24T14:35:22Z</time>
      </trkpt>
      <trkpt lat="46.03488" lon="5.17978">
        <ele>291</ele>
        <time>2022-02-24T14:35:23Z</time>
      </trkpt>
      <trkpt lat="46.03497" lon="5.17977">
        <ele>290.8</ele>
        <time>2022-02-24T14:35:24Z</time>
      </trkpt>
      <trkpt lat="46.03506" lon="5.17975">
        <ele>290.8</ele>
        <time>2022-02-24T14:35:25Z</time>
      </trkpt>
      <trkpt lat="46.03514" lon="5.17974">
        <ele>290.8</ele>
        <time>2022-02-24T14:35:26Z</time>
      </trkpt>
      <trkpt lat="46.03523" lon="5.17971">
        <ele>290.4</ele>
        <time>2022-02-24T14:35:27Z</time>
      </trkpt>
      <trkpt lat="46.03532" lon="5.1797">
        <ele>290.4</ele>
        <time>2022-02-24T14:35:28Z</time>
      </trkpt>
      <trkpt lat="46.0354" lon="5.17969">
        <ele>290.4</ele>
        <time>2022-02-24T14:35:29Z</time>
      </trkpt>
      <trkpt lat="46.03549" lon="5.17967">
        <ele>290.2</ele>
        <time>2022-02-24T14:35:30Z</time>
      </trkpt>
      <trkpt lat="46.03558" lon="5.17965">
        <ele>290.2</ele>
        <time>2022-02-24T14:35:31Z</time>
      </trkpt>
      <trkpt lat="46.03566" lon="5.17964">
        <ele>290.2</ele>
        <time>2022-02-24T14:35:32Z</time>
      </trkpt>
      <trkpt lat="46.03575" lon="5.17962">
        <ele>290.2</ele>
        <time>2022-02-24T14:35:33Z</time>
      </trkpt>
      <trkpt lat="46.03584" lon="5.1796">
        <ele>290.2</ele>
        <time>2022-02-24T14:35:34Z</time>
      </trkpt>
      <trkpt lat="46.03593" lon="5.17958">
        <ele>290.2</ele>
        <time>2022-02-24T14:35:35Z</time>
      </trkpt>
      <trkpt lat="46.03601" lon="5.17956">
        <ele>290.2</ele>
        <time>2022-02-24T14:35:36Z</time>
      </trkpt>
      <trkpt lat="46.0361" lon="5.17954">
        <ele>290</ele>
        <time>2022-02-24T14:35:37Z</time>
      </trkpt>
      <trkpt lat="46.03619" lon="5.17953">
        <ele>290</ele>
        <time>2022-02-24T14:35:38Z</time>
      </trkpt>
      <trkpt lat="46.03628" lon="5.17951">
        <ele>290</ele>
        <time>2022-02-24T14:35:39Z</time>
      </trkpt>
      <trkpt lat="46.03637" lon="5.1795">
        <ele>290</ele>
        <time>2022-02-24T14:35:40Z</time>
      </trkpt>
      <trkpt lat="46.03646" lon="5.17948">
        <ele>290</ele>
        <time>2022-02-24T14:35:41Z</time>
      </trkpt>
      <trkpt lat="46.03655" lon="5.17946">
        <ele>290</ele>
        <time>2022-02-24T14:35:42Z</time>
      </trkpt>
      <trkpt lat="46.03664" lon="5.17945">
        <ele>290</ele>
        <time>2022-02-24T14:35:43Z</time>
      </trkpt>
      <trkpt lat="46.03672" lon="5.17944">
        <ele>290</ele>
        <time>2022-02-24T14:35:44Z</time>
      </trkpt>
      <trkpt lat="46.03681" lon="5.17943">
        <ele>290</ele>
        <time>2022-02-24T14:35:45Z</time>
      </trkpt>
      <trkpt lat="46.0369" lon="5.17943">
        <ele>290</ele>
        <time>2022-02-24T14:35:46Z</time>
      </trkpt>
      <trkpt lat="46.03698" lon="5.17943">
        <ele>290</ele>
        <time>2022-02-24T14:35:47Z</time>
      </trkpt>
      <trkpt lat="46.03706" lon="5.17943">
        <ele>289.8</ele>
        <time>2022-02-24T14:35:48Z</time>
      </trkpt>
      <trkpt lat="46.03714" lon="5.17943">
        <ele>289.8</ele>
        <time>2022-02-24T14:35:49Z</time>
      </trkpt>
      <trkpt lat="46.03722" lon="5.17944">
        <ele>289.8</ele>
        <time>2022-02-24T14:35:50Z</time>
      </trkpt>
      <trkpt lat="46.0373" lon="5.17945">
        <ele>289.8</ele>
        <time>2022-02-24T14:35:51Z</time>
      </trkpt>
      <trkpt lat="46.03738" lon="5.17946">
        <ele>289.8</ele>
        <time>2022-02-24T14:35:52Z</time>
      </trkpt>
      <trkpt lat="46.03747" lon="5.17947">
        <ele>289.8</ele>
        <time>2022-02-24T14:35:53Z</time>
      </trkpt>
      <trkpt lat="46.03754" lon="5.17948">
        <ele>289.8</ele>
        <time>2022-02-24T14:35:54Z</time>
      </trkpt>
      <trkpt lat="46.03762" lon="5.1795">
        <ele>289.8</ele>
        <time>2022-02-24T14:35:55Z</time>
      </trkpt>
      <trkpt lat="46.0377" lon="5.17952">
        <ele>289.8</ele>
        <time>2022-02-24T14:35:56Z</time>
      </trkpt>
      <trkpt lat="46.03778" lon="5.17953">
        <ele>289.8</ele>
        <time>2022-02-24T14:35:57Z</time>
      </trkpt>
      <trkpt lat="46.03786" lon="5.17956">
        <ele>289.8</ele>
        <time>2022-02-24T14:35:58Z</time>
      </trkpt>
      <trkpt lat="46.03794" lon="5.17958">
        <ele>289.8</ele>
        <time>2022-02-24T14:35:59Z</time>
      </trkpt>
      <trkpt lat="46.03801" lon="5.17961">
        <ele>289.8</ele>
        <time>2022-02-24T14:36:00Z</time>
      </trkpt>
      <trkpt lat="46.03809" lon="5.17964">
        <ele>289.8</ele>
        <time>2022-02-24T14:36:01Z</time>
      </trkpt>
      <trkpt lat="46.03816" lon="5.17968">
        <ele>289.8</ele>
        <time>2022-02-24T14:36:02Z</time>
      </trkpt>
      <trkpt lat="46.03824" lon="5.17972">
        <ele>289.8</ele>
        <time>2022-02-24T14:36:03Z</time>
      </trkpt>
      <trkpt lat="46.03831" lon="5.17976">
        <ele>289.8</ele>
        <time>2022-02-24T14:36:04Z</time>
      </trkpt>
      <trkpt lat="46.03839" lon="5.1798">
        <ele>289.8</ele>
        <time>2022-02-24T14:36:05Z</time>
      </trkpt>
      <trkpt lat="46.03846" lon="5.17984">
        <ele>289.8</ele>
        <time>2022-02-24T14:36:06Z</time>
      </trkpt>
      <trkpt lat="46.03853" lon="5.17988">
        <ele>289.8</ele>
        <time>2022-02-24T14:36:07Z</time>
      </trkpt>
      <trkpt lat="46.03861" lon="5.17993">
        <ele>289.8</ele>
        <time>2022-02-24T14:36:08Z</time>
      </trkpt>
      <trkpt lat="46.03868" lon="5.17997">
        <ele>289.8</ele>
        <time>2022-02-24T14:36:09Z</time>
      </trkpt>
      <trkpt lat="46.03875" lon="5.18001">
        <ele>289.8</ele>
        <time>2022-02-24T14:36:10Z</time>
      </trkpt>
      <trkpt lat="46.03883" lon="5.18006">
        <ele>289.8</ele>
        <time>2022-02-24T14:36:11Z</time>
      </trkpt>
      <trkpt lat="46.0389" lon="5.1801">
        <ele>289.8</ele>
        <time>2022-02-24T14:36:12Z</time>
      </trkpt>
      <trkpt lat="46.03897" lon="5.18014">
        <ele>289.8</ele>
        <time>2022-02-24T14:36:13Z</time>
      </trkpt>
      <trkpt lat="46.03905" lon="5.18019">
        <ele>289.8</ele>
        <time>2022-02-24T14:36:14Z</time>
      </trkpt>
      <trkpt lat="46.03912" lon="5.18023">
        <ele>289.8</ele>
        <time>2022-02-24T14:36:15Z</time>
      </trkpt>
      <trkpt lat="46.03919" lon="5.18027">
        <ele>289.8</ele>
        <time>2022-02-24T14:36:16Z</time>
      </trkpt>
      <trkpt lat="46.03927" lon="5.18031">
        <ele>289.8</ele>
        <time>2022-02-24T14:36:17Z</time>
      </trkpt>
      <trkpt lat="46.03934" lon="5.18035">
        <ele>289.8</ele>
        <time>2022-02-24T14:36:18Z</time>
      </trkpt>
      <trkpt lat="46.03941" lon="5.1804">
        <ele>289.2</ele>
        <time>2022-02-24T14:36:19Z</time>
      </trkpt>
      <trkpt lat="46.03948" lon="5.18044">
        <ele>289.2</ele>
        <time>2022-02-24T14:36:20Z</time>
      </trkpt>
      <trkpt lat="46.03955" lon="5.18048">
        <ele>289.6</ele>
        <time>2022-02-24T14:36:21Z</time>
      </trkpt>
      <trkpt lat="46.03963" lon="5.18052">
        <ele>289.6</ele>
        <time>2022-02-24T14:36:22Z</time>
      </trkpt>
      <trkpt lat="46.0397" lon="5.18056">
        <ele>289.6</ele>
        <time>2022-02-24T14:36:23Z</time>
      </trkpt>
      <trkpt lat="46.03977" lon="5.18059">
        <ele>289.8</ele>
        <time>2022-02-24T14:36:24Z</time>
      </trkpt>
      <trkpt lat="46.03984" lon="5.18063">
        <ele>289.8</ele>
        <time>2022-02-24T14:36:25Z</time>
      </trkpt>
      <trkpt lat="46.03991" lon="5.18067">
        <ele>289.8</ele>
        <time>2022-02-24T14:36:26Z</time>
      </trkpt>
      <trkpt lat="46.03998" lon="5.18071">
        <ele>290</ele>
        <time>2022-02-24T14:36:27Z</time>
      </trkpt>
      <trkpt lat="46.04004" lon="5.18075">
        <ele>290</ele>
        <time>2022-02-24T14:36:28Z</time>
      </trkpt>
      <trkpt lat="46.04011" lon="5.18079">
        <ele>290</ele>
        <time>2022-02-24T14:36:29Z</time>
      </trkpt>
      <trkpt lat="46.04018" lon="5.18083">
        <ele>290.4</ele>
        <time>2022-02-24T14:36:30Z</time>
      </trkpt>
      <trkpt lat="46.04025" lon="5.18087">
        <ele>290.4</ele>
        <time>2022-02-24T14:36:31Z</time>
      </trkpt>
      <trkpt lat="46.04032" lon="5.18091">
        <ele>290.4</ele>
        <time>2022-02-24T14:36:32Z</time>
      </trkpt>
      <trkpt lat="46.04038" lon="5.18094">
        <ele>290.6</ele>
        <time>2022-02-24T14:36:33Z</time>
      </trkpt>
      <trkpt lat="46.04045" lon="5.18098">
        <ele>290.6</ele>
        <time>2022-02-24T14:36:34Z</time>
      </trkpt>
      <trkpt lat="46.04052" lon="5.18102">
        <ele>290.6</ele>
        <time>2022-02-24T14:36:35Z</time>
      </trkpt>
      <trkpt lat="46.04059" lon="5.18106">
        <ele>290.6</ele>
        <time>2022-02-24T14:36:36Z</time>
      </trkpt>
      <trkpt lat="46.04066" lon="5.18111">
        <ele>290.6</ele>
        <time>2022-02-24T14:36:37Z</time>
      </trkpt>
      <trkpt lat="46.04074" lon="5.18115">
        <ele>290.4</ele>
        <time>2022-02-24T14:36:38Z</time>
      </trkpt>
      <trkpt lat="46.04081" lon="5.18119">
        <ele>290.4</ele>
        <time>2022-02-24T14:36:39Z</time>
      </trkpt>
      <trkpt lat="46.04088" lon="5.18123">
        <ele>290.4</ele>
        <time>2022-02-24T14:36:40Z</time>
      </trkpt>
      <trkpt lat="46.04096" lon="5.18128">
        <ele>290</ele>
        <time>2022-02-24T14:36:41Z</time>
      </trkpt>
      <trkpt lat="46.04103" lon="5.18132">
        <ele>289.8</ele>
        <time>2022-02-24T14:36:42Z</time>
      </trkpt>
      <trkpt lat="46.04111" lon="5.18136">
        <ele>289.8</ele>
        <time>2022-02-24T14:36:43Z</time>
      </trkpt>
      <trkpt lat="46.04118" lon="5.18141">
        <ele>289.6</ele>
        <time>2022-02-24T14:36:44Z</time>
      </trkpt>
      <trkpt lat="46.04126" lon="5.18145">
        <ele>289.2</ele>
        <time>2022-02-24T14:36:45Z</time>
      </trkpt>
      <trkpt lat="46.04133" lon="5.18149">
        <ele>289.2</ele>
        <time>2022-02-24T14:36:46Z</time>
      </trkpt>
      <trkpt lat="46.0414" lon="5.18153">
        <ele>289.2</ele>
        <time>2022-02-24T14:36:47Z</time>
      </trkpt>
      <trkpt lat="46.04148" lon="5.18158">
        <ele>289</ele>
        <time>2022-02-24T14:36:48Z</time>
      </trkpt>
      <trkpt lat="46.04155" lon="5.18162">
        <ele>289</ele>
        <time>2022-02-24T14:36:49Z</time>
      </trkpt>
      <trkpt lat="46.04163" lon="5.18167">
        <ele>288.6</ele>
        <time>2022-02-24T14:36:50Z</time>
      </trkpt>
      <trkpt lat="46.04171" lon="5.18171">
        <ele>288.6</ele>
        <time>2022-02-24T14:36:51Z</time>
      </trkpt>
      <trkpt lat="46.04179" lon="5.18175">
        <ele>288.2</ele>
        <time>2022-02-24T14:36:52Z</time>
      </trkpt>
      <trkpt lat="46.04187" lon="5.1818">
        <ele>288.2</ele>
        <time>2022-02-24T14:36:53Z</time>
      </trkpt>
      <trkpt lat="46.04195" lon="5.18185">
        <ele>288</ele>
        <time>2022-02-24T14:36:54Z</time>
      </trkpt>
      <trkpt lat="46.04202" lon="5.18189">
        <ele>288</ele>
        <time>2022-02-24T14:36:55Z</time>
      </trkpt>
      <trkpt lat="46.0421" lon="5.18194">
        <ele>287.8</ele>
        <time>2022-02-24T14:36:56Z</time>
      </trkpt>
      <trkpt lat="46.04218" lon="5.18198">
        <ele>287.8</ele>
        <time>2022-02-24T14:36:57Z</time>
      </trkpt>
      <trkpt lat="46.04226" lon="5.18202">
        <ele>287.8</ele>
        <time>2022-02-24T14:36:58Z</time>
      </trkpt>
      <trkpt lat="46.04233" lon="5.18207">
        <ele>287.4</ele>
        <time>2022-02-24T14:36:59Z</time>
      </trkpt>
      <trkpt lat="46.04241" lon="5.18211">
        <ele>287.4</ele>
        <time>2022-02-24T14:37:00Z</time>
      </trkpt>
      <trkpt lat="46.04248" lon="5.18215">
        <ele>287.2</ele>
        <time>2022-02-24T14:37:01Z</time>
      </trkpt>
      <trkpt lat="46.04256" lon="5.18219">
        <ele>287.2</ele>
        <time>2022-02-24T14:37:02Z</time>
      </trkpt>
      <trkpt lat="46.04263" lon="5.18224">
        <ele>287.2</ele>
        <time>2022-02-24T14:37:03Z</time>
      </trkpt>
      <trkpt lat="46.04271" lon="5.18228">
        <ele>287.2</ele>
        <time>2022-02-24T14:37:04Z</time>
      </trkpt>
      <trkpt lat="46.04279" lon="5.18232">
        <ele>287</ele>
        <time>2022-02-24T14:37:05Z</time>
      </trkpt>
      <trkpt lat="46.04286" lon="5.18237">
        <ele>287</ele>
        <time>2022-02-24T14:37:06Z</time>
      </trkpt>
      <trkpt lat="46.04294" lon="5.18241">
        <ele>287</ele>
        <time>2022-02-24T14:37:07Z</time>
      </trkpt>
      <trkpt lat="46.04301" lon="5.18245">
        <ele>287</ele>
        <time>2022-02-24T14:37:08Z</time>
      </trkpt>
      <trkpt lat="46.04309" lon="5.1825">
        <ele>286.6</ele>
        <time>2022-02-24T14:37:09Z</time>
      </trkpt>
      <trkpt lat="46.04317" lon="5.18255">
        <ele>286.6</ele>
        <time>2022-02-24T14:37:10Z</time>
      </trkpt>
      <trkpt lat="46.04325" lon="5.18259">
        <ele>286.4</ele>
        <time>2022-02-24T14:37:11Z</time>
      </trkpt>
      <trkpt lat="46.04333" lon="5.18264">
        <ele>286.4</ele>
        <time>2022-02-24T14:37:12Z</time>
      </trkpt>
      <trkpt lat="46.04341" lon="5.18268">
        <ele>286.2</ele>
        <time>2022-02-24T14:37:13Z</time>
      </trkpt>
      <trkpt lat="46.04349" lon="5.18273">
        <ele>286.2</ele>
        <time>2022-02-24T14:37:14Z</time>
      </trkpt>
      <trkpt lat="46.04349" lon="5.18273">
        <ele>285.8</ele>
        <time>2022-02-24T14:37:15Z</time>
      </trkpt>
      <trkpt lat="46.04357" lon="5.18277">
        <ele>285.8</ele>
        <time>2022-02-24T14:37:16Z</time>
      </trkpt>
      <trkpt lat="46.04365" lon="5.18282">
        <ele>285.6</ele>
        <time>2022-02-24T14:37:17Z</time>
      </trkpt>
      <trkpt lat="46.04381" lon="5.18292">
        <ele>285.4</ele>
        <time>2022-02-24T14:37:18Z</time>
      </trkpt>
      <trkpt lat="46.04389" lon="5.18297">
        <ele>285.4</ele>
        <time>2022-02-24T14:37:19Z</time>
      </trkpt>
      <trkpt lat="46.04397" lon="5.18301">
        <ele>285</ele>
        <time>2022-02-24T14:37:20Z</time>
      </trkpt>
      <trkpt lat="46.04405" lon="5.18306">
        <ele>285</ele>
        <time>2022-02-24T14:37:21Z</time>
      </trkpt>
      <trkpt lat="46.04413" lon="5.1831">
        <ele>284.6</ele>
        <time>2022-02-24T14:37:22Z</time>
      </trkpt>
      <trkpt lat="46.04422" lon="5.18315">
        <ele>284.4</ele>
        <time>2022-02-24T14:37:23Z</time>
      </trkpt>
      <trkpt lat="46.0443" lon="5.1832">
        <ele>284.2</ele>
        <time>2022-02-24T14:37:24Z</time>
      </trkpt>
      <trkpt lat="46.04438" lon="5.18325">
        <ele>284.2</ele>
        <time>2022-02-24T14:37:25Z</time>
      </trkpt>
      <trkpt lat="46.04447" lon="5.18329">
        <ele>283.8</ele>
        <time>2022-02-24T14:37:26Z</time>
      </trkpt>
      <trkpt lat="46.04455" lon="5.18334">
        <ele>283.8</ele>
        <time>2022-02-24T14:37:27Z</time>
      </trkpt>
      <trkpt lat="46.04464" lon="5.18338">
        <ele>283.6</ele>
        <time>2022-02-24T14:37:28Z</time>
      </trkpt>
      <trkpt lat="46.04472" lon="5.18343">
        <ele>283.6</ele>
        <time>2022-02-24T14:37:29Z</time>
      </trkpt>
      <trkpt lat="46.0448" lon="5.18348">
        <ele>283.4</ele>
        <time>2022-02-24T14:37:30Z</time>
      </trkpt>
      <trkpt lat="46.04488" lon="5.18353">
        <ele>283.4</ele>
        <time>2022-02-24T14:37:31Z</time>
      </trkpt>
      <trkpt lat="46.04496" lon="5.18358">
        <ele>283.4</ele>
        <time>2022-02-24T14:37:32Z</time>
      </trkpt>
      <trkpt lat="46.04504" lon="5.18362">
        <ele>283</ele>
        <time>2022-02-24T14:37:33Z</time>
      </trkpt>
      <trkpt lat="46.04512" lon="5.18367">
        <ele>283</ele>
        <time>2022-02-24T14:37:34Z</time>
      </trkpt>
      <trkpt lat="46.0452" lon="5.18371">
        <ele>283</ele>
        <time>2022-02-24T14:37:35Z</time>
      </trkpt>
      <trkpt lat="46.04528" lon="5.18376">
        <ele>283</ele>
        <time>2022-02-24T14:37:36Z</time>
      </trkpt>
      <trkpt lat="46.04536" lon="5.1838">
        <ele>283</ele>
        <time>2022-02-24T14:37:37Z</time>
      </trkpt>
      <trkpt lat="46.04543" lon="5.18385">
        <ele>283</ele>
        <time>2022-02-24T14:37:38Z</time>
      </trkpt>
      <trkpt lat="46.04551" lon="5.18389">
        <ele>283</ele>
        <time>2022-02-24T14:37:39Z</time>
      </trkpt>
      <trkpt lat="46.04559" lon="5.18393">
        <ele>283</ele>
        <time>2022-02-24T14:37:40Z</time>
      </trkpt>
      <trkpt lat="46.04566" lon="5.18398">
        <ele>283</ele>
        <time>2022-02-24T14:37:41Z</time>
      </trkpt>
      <trkpt lat="46.04574" lon="5.18402">
        <ele>283</ele>
        <time>2022-02-24T14:37:42Z</time>
      </trkpt>
      <trkpt lat="46.04581" lon="5.18406">
        <ele>283</ele>
        <time>2022-02-24T14:37:43Z</time>
      </trkpt>
      <trkpt lat="46.04589" lon="5.18411">
        <ele>283</ele>
        <time>2022-02-24T14:37:44Z</time>
      </trkpt>
      <trkpt lat="46.04596" lon="5.18415">
        <ele>283</ele>
        <time>2022-02-24T14:37:45Z</time>
      </trkpt>
      <trkpt lat="46.04604" lon="5.18419">
        <ele>283</ele>
        <time>2022-02-24T14:37:46Z</time>
      </trkpt>
      <trkpt lat="46.04612" lon="5.18424">
        <ele>283</ele>
        <time>2022-02-24T14:37:47Z</time>
      </trkpt>
      <trkpt lat="46.0462" lon="5.18428">
        <ele>283</ele>
        <time>2022-02-24T14:37:48Z</time>
      </trkpt>
      <trkpt lat="46.04628" lon="5.18433">
        <ele>283</ele>
        <time>2022-02-24T14:37:49Z</time>
      </trkpt>
      <trkpt lat="46.04636" lon="5.18438">
        <ele>282.6</ele>
        <time>2022-02-24T14:37:50Z</time>
      </trkpt>
      <trkpt lat="46.04644" lon="5.18442">
        <ele>282.6</ele>
        <time>2022-02-24T14:37:51Z</time>
      </trkpt>
      <trkpt lat="46.04653" lon="5.18447">
        <ele>282.6</ele>
        <time>2022-02-24T14:37:52Z</time>
      </trkpt>
      <trkpt lat="46.04661" lon="5.18452">
        <ele>282.4</ele>
        <time>2022-02-24T14:37:53Z</time>
      </trkpt>
      <trkpt lat="46.0467" lon="5.18456">
        <ele>282.4</ele>
        <time>2022-02-24T14:37:54Z</time>
      </trkpt>
      <trkpt lat="46.04678" lon="5.18461">
        <ele>282.4</ele>
        <time>2022-02-24T14:37:55Z</time>
      </trkpt>
      <trkpt lat="46.04687" lon="5.18466">
        <ele>282.4</ele>
        <time>2022-02-24T14:37:56Z</time>
      </trkpt>
      <trkpt lat="46.04695" lon="5.18471">
        <ele>282.4</ele>
        <time>2022-02-24T14:37:57Z</time>
      </trkpt>
      <trkpt lat="46.04704" lon="5.18475">
        <ele>282</ele>
        <time>2022-02-24T14:37:58Z</time>
      </trkpt>
      <trkpt lat="46.04713" lon="5.18478">
        <ele>282</ele>
        <time>2022-02-24T14:37:59Z</time>
      </trkpt>
      <trkpt lat="46.04722" lon="5.18482">
        <ele>281.6</ele>
        <time>2022-02-24T14:38:00Z</time>
      </trkpt>
      <trkpt lat="46.0473" lon="5.18486">
        <ele>281.6</ele>
        <time>2022-02-24T14:38:01Z</time>
      </trkpt>
      <trkpt lat="46.04738" lon="5.18491">
        <ele>281.4</ele>
        <time>2022-02-24T14:38:02Z</time>
      </trkpt>
      <trkpt lat="46.04747" lon="5.18497">
        <ele>281.4</ele>
        <time>2022-02-24T14:38:03Z</time>
      </trkpt>
      <trkpt lat="46.04755" lon="5.18502">
        <ele>281</ele>
        <time>2022-02-24T14:38:04Z</time>
      </trkpt>
      <trkpt lat="46.04763" lon="5.18507">
        <ele>281</ele>
        <time>2022-02-24T14:38:05Z</time>
      </trkpt>
      <trkpt lat="46.04772" lon="5.18512">
        <ele>280.8</ele>
        <time>2022-02-24T14:38:06Z</time>
      </trkpt>
      <trkpt lat="46.0478" lon="5.18518">
        <ele>280.8</ele>
        <time>2022-02-24T14:38:07Z</time>
      </trkpt>
      <trkpt lat="46.04788" lon="5.18522">
        <ele>280.8</ele>
        <time>2022-02-24T14:38:08Z</time>
      </trkpt>
      <trkpt lat="46.04796" lon="5.18527">
        <ele>280.8</ele>
        <time>2022-02-24T14:38:09Z</time>
      </trkpt>
      <trkpt lat="46.04805" lon="5.18532">
        <ele>280.8</ele>
        <time>2022-02-24T14:38:10Z</time>
      </trkpt>
      <trkpt lat="46.04813" lon="5.18537">
        <ele>280.8</ele>
        <time>2022-02-24T14:38:11Z</time>
      </trkpt>
      <trkpt lat="46.04821" lon="5.18542">
        <ele>280.8</ele>
        <time>2022-02-24T14:38:12Z</time>
      </trkpt>
      <trkpt lat="46.0483" lon="5.18547">
        <ele>280.8</ele>
        <time>2022-02-24T14:38:13Z</time>
      </trkpt>
      <trkpt lat="46.04838" lon="5.18552">
        <ele>280.8</ele>
        <time>2022-02-24T14:38:14Z</time>
      </trkpt>
      <trkpt lat="46.04846" lon="5.18557">
        <ele>280.6</ele>
        <time>2022-02-24T14:38:15Z</time>
      </trkpt>
      <trkpt lat="46.04854" lon="5.18562">
        <ele>280.6</ele>
        <time>2022-02-24T14:38:16Z</time>
      </trkpt>
      <trkpt lat="46.04862" lon="5.18567">
        <ele>280.6</ele>
        <time>2022-02-24T14:38:17Z</time>
      </trkpt>
      <trkpt lat="46.0487" lon="5.18572">
        <ele>280.6</ele>
        <time>2022-02-24T14:38:18Z</time>
      </trkpt>
      <trkpt lat="46.04878" lon="5.18577">
        <ele>280.4</ele>
        <time>2022-02-24T14:38:19Z</time>
      </trkpt>
      <trkpt lat="46.04887" lon="5.18581">
        <ele>280.6</ele>
        <time>2022-02-24T14:38:20Z</time>
      </trkpt>
      <trkpt lat="46.04895" lon="5.18586">
        <ele>280.6</ele>
        <time>2022-02-24T14:38:21Z</time>
      </trkpt>
      <trkpt lat="46.04903" lon="5.18591">
        <ele>280.4</ele>
        <time>2022-02-24T14:38:22Z</time>
      </trkpt>
      <trkpt lat="46.04912" lon="5.18595">
        <ele>280.4</ele>
        <time>2022-02-24T14:38:23Z</time>
      </trkpt>
      <trkpt lat="46.0492" lon="5.186">
        <ele>280.4</ele>
        <time>2022-02-24T14:38:24Z</time>
      </trkpt>
      <trkpt lat="46.04929" lon="5.18604">
        <ele>280.2</ele>
        <time>2022-02-24T14:38:25Z</time>
      </trkpt>
      <trkpt lat="46.04937" lon="5.1861">
        <ele>280.2</ele>
        <time>2022-02-24T14:38:26Z</time>
      </trkpt>
      <trkpt lat="46.04945" lon="5.18614">
        <ele>280.2</ele>
        <time>2022-02-24T14:38:27Z</time>
      </trkpt>
      <trkpt lat="46.04953" lon="5.18618">
        <ele>280.2</ele>
        <time>2022-02-24T14:38:28Z</time>
      </trkpt>
      <trkpt lat="46.04962" lon="5.18623">
        <ele>279.8</ele>
        <time>2022-02-24T14:38:29Z</time>
      </trkpt>
      <trkpt lat="46.0497" lon="5.18627">
        <ele>279.8</ele>
        <time>2022-02-24T14:38:30Z</time>
      </trkpt>
      <trkpt lat="46.04978" lon="5.18632">
        <ele>279.6</ele>
        <time>2022-02-24T14:38:31Z</time>
      </trkpt>
      <trkpt lat="46.04986" lon="5.18637">
        <ele>279.6</ele>
        <time>2022-02-24T14:38:32Z</time>
      </trkpt>
      <trkpt lat="46.04995" lon="5.18643">
        <ele>279.4</ele>
        <time>2022-02-24T14:38:33Z</time>
      </trkpt>
      <trkpt lat="46.05003" lon="5.18648">
        <ele>279.4</ele>
        <time>2022-02-24T14:38:34Z</time>
      </trkpt>
      <trkpt lat="46.05011" lon="5.18654">
        <ele>279.2</ele>
        <time>2022-02-24T14:38:35Z</time>
      </trkpt>
      <trkpt lat="46.0502" lon="5.1866">
        <ele>279.2</ele>
        <time>2022-02-24T14:38:36Z</time>
      </trkpt>
      <trkpt lat="46.05028" lon="5.18664">
        <ele>278.8</ele>
        <time>2022-02-24T14:38:37Z</time>
      </trkpt>
      <trkpt lat="46.05037" lon="5.18668">
        <ele>278.8</ele>
        <time>2022-02-24T14:38:38Z</time>
      </trkpt>
      <trkpt lat="46.05046" lon="5.18673">
        <ele>278.6</ele>
        <time>2022-02-24T14:38:39Z</time>
      </trkpt>
      <trkpt lat="46.05054" lon="5.18678">
        <ele>278.6</ele>
        <time>2022-02-24T14:38:40Z</time>
      </trkpt>
      <trkpt lat="46.05062" lon="5.18683">
        <ele>278.6</ele>
        <time>2022-02-24T14:38:41Z</time>
      </trkpt>
      <trkpt lat="46.0507" lon="5.18688">
        <ele>278.6</ele>
        <time>2022-02-24T14:38:42Z</time>
      </trkpt>
      <trkpt lat="46.05079" lon="5.18693">
        <ele>278.6</ele>
        <time>2022-02-24T14:38:43Z</time>
      </trkpt>
      <trkpt lat="46.05087" lon="5.18697">
        <ele>278.4</ele>
        <time>2022-02-24T14:38:44Z</time>
      </trkpt>
      <trkpt lat="46.05095" lon="5.18702">
        <ele>278.4</ele>
        <time>2022-02-24T14:38:45Z</time>
      </trkpt>
      <trkpt lat="46.05104" lon="5.18707">
        <ele>278.4</ele>
        <time>2022-02-24T14:38:46Z</time>
      </trkpt>
      <trkpt lat="46.05112" lon="5.18712">
        <ele>278.4</ele>
        <time>2022-02-24T14:38:47Z</time>
      </trkpt>
      <trkpt lat="46.05121" lon="5.18717">
        <ele>278.4</ele>
        <time>2022-02-24T14:38:48Z</time>
      </trkpt>
      <trkpt lat="46.0513" lon="5.18722">
        <ele>278.2</ele>
        <time>2022-02-24T14:38:49Z</time>
      </trkpt>
      <trkpt lat="46.05139" lon="5.18727">
        <ele>278</ele>
        <time>2022-02-24T14:38:50Z</time>
      </trkpt>
      <trkpt lat="46.05148" lon="5.18732">
        <ele>277.6</ele>
        <time>2022-02-24T14:38:51Z</time>
      </trkpt>
      <trkpt lat="46.05156" lon="5.18738">
        <ele>277.4</ele>
        <time>2022-02-24T14:38:52Z</time>
      </trkpt>
      <trkpt lat="46.05165" lon="5.18743">
        <ele>277.2</ele>
        <time>2022-02-24T14:38:53Z</time>
      </trkpt>
      <trkpt lat="46.05174" lon="5.18749">
        <ele>276.8</ele>
        <time>2022-02-24T14:38:54Z</time>
      </trkpt>
      <trkpt lat="46.05183" lon="5.18753">
        <ele>276.6</ele>
        <time>2022-02-24T14:38:55Z</time>
      </trkpt>
      <trkpt lat="46.05192" lon="5.18757">
        <ele>276.6</ele>
        <time>2022-02-24T14:38:56Z</time>
      </trkpt>
      <trkpt lat="46.05201" lon="5.18762">
        <ele>276.2</ele>
        <time>2022-02-24T14:38:57Z</time>
      </trkpt>
      <trkpt lat="46.0521" lon="5.18767">
        <ele>276</ele>
        <time>2022-02-24T14:38:58Z</time>
      </trkpt>
      <trkpt lat="46.0522" lon="5.18772">
        <ele>276</ele>
        <time>2022-02-24T14:38:59Z</time>
      </trkpt>
      <trkpt lat="46.0523" lon="5.18777">
        <ele>275.6</ele>
        <time>2022-02-24T14:39:00Z</time>
      </trkpt>
      <trkpt lat="46.05239" lon="5.18782">
        <ele>275.6</ele>
        <time>2022-02-24T14:39:01Z</time>
      </trkpt>
      <trkpt lat="46.05248" lon="5.18787">
        <ele>275.6</ele>
        <time>2022-02-24T14:39:02Z</time>
      </trkpt>
      <trkpt lat="46.05256" lon="5.18793">
        <ele>275.6</ele>
        <time>2022-02-24T14:39:03Z</time>
      </trkpt>
      <trkpt lat="46.05265" lon="5.18798">
        <ele>275.6</ele>
        <time>2022-02-24T14:39:04Z</time>
      </trkpt>
      <trkpt lat="46.05273" lon="5.18803">
        <ele>275.6</ele>
        <time>2022-02-24T14:39:05Z</time>
      </trkpt>
      <trkpt lat="46.05281" lon="5.18808">
        <ele>275.6</ele>
        <time>2022-02-24T14:39:06Z</time>
      </trkpt>
      <trkpt lat="46.05289" lon="5.18813">
        <ele>275.6</ele>
        <time>2022-02-24T14:39:07Z</time>
      </trkpt>
      <trkpt lat="46.05297" lon="5.18818">
        <ele>275.6</ele>
        <time>2022-02-24T14:39:08Z</time>
      </trkpt>
      <trkpt lat="46.05306" lon="5.18822">
        <ele>275.6</ele>
        <time>2022-02-24T14:39:09Z</time>
      </trkpt>
      <trkpt lat="46.05314" lon="5.18827">
        <ele>275.4</ele>
        <time>2022-02-24T14:39:10Z</time>
      </trkpt>
      <trkpt lat="46.05322" lon="5.18831">
        <ele>275.4</ele>
        <time>2022-02-24T14:39:11Z</time>
      </trkpt>
      <trkpt lat="46.0533" lon="5.18835">
        <ele>275.4</ele>
        <time>2022-02-24T14:39:12Z</time>
      </trkpt>
      <trkpt lat="46.05338" lon="5.1884">
        <ele>275.4</ele>
        <time>2022-02-24T14:39:13Z</time>
      </trkpt>
      <trkpt lat="46.05346" lon="5.18844">
        <ele>275.4</ele>
        <time>2022-02-24T14:39:14Z</time>
      </trkpt>
      <trkpt lat="46.05353" lon="5.18849">
        <ele>275.6</ele>
        <time>2022-02-24T14:39:15Z</time>
      </trkpt>
      <trkpt lat="46.0536" lon="5.18854">
        <ele>275.6</ele>
        <time>2022-02-24T14:39:16Z</time>
      </trkpt>
      <trkpt lat="46.05367" lon="5.18858">
        <ele>275.6</ele>
        <time>2022-02-24T14:39:17Z</time>
      </trkpt>
      <trkpt lat="46.05375" lon="5.18862">
        <ele>275.6</ele>
        <time>2022-02-24T14:39:18Z</time>
      </trkpt>
      <trkpt lat="46.05382" lon="5.18866">
        <ele>275.8</ele>
        <time>2022-02-24T14:39:19Z</time>
      </trkpt>
      <trkpt lat="46.05389" lon="5.1887">
        <ele>275.8</ele>
        <time>2022-02-24T14:39:20Z</time>
      </trkpt>
      <trkpt lat="46.05396" lon="5.18874">
        <ele>276</ele>
        <time>2022-02-24T14:39:21Z</time>
      </trkpt>
      <trkpt lat="46.05403" lon="5.18877">
        <ele>276</ele>
        <time>2022-02-24T14:39:22Z</time>
      </trkpt>
      <trkpt lat="46.05411" lon="5.18881">
        <ele>276</ele>
        <time>2022-02-24T14:39:23Z</time>
      </trkpt>
      <trkpt lat="46.05418" lon="5.18885">
        <ele>276</ele>
        <time>2022-02-24T14:39:24Z</time>
      </trkpt>
      <trkpt lat="46.05425" lon="5.18889">
        <ele>276</ele>
        <time>2022-02-24T14:39:25Z</time>
      </trkpt>
      <trkpt lat="46.05432" lon="5.18893">
        <ele>276.4</ele>
        <time>2022-02-24T14:39:26Z</time>
      </trkpt>
      <trkpt lat="46.05439" lon="5.18896">
        <ele>276.8</ele>
        <time>2022-02-24T14:39:27Z</time>
      </trkpt>
      <trkpt lat="46.05445" lon="5.189">
        <ele>276.8</ele>
        <time>2022-02-24T14:39:28Z</time>
      </trkpt>
      <trkpt lat="46.05452" lon="5.18903">
        <ele>276.8</ele>
        <time>2022-02-24T14:39:29Z</time>
      </trkpt>
      <trkpt lat="46.05459" lon="5.18907">
        <ele>276.8</ele>
        <time>2022-02-24T14:39:30Z</time>
      </trkpt>
      <trkpt lat="46.05466" lon="5.18911">
        <ele>276.8</ele>
        <time>2022-02-24T14:39:31Z</time>
      </trkpt>
      <trkpt lat="46.05472" lon="5.18914">
        <ele>276.8</ele>
        <time>2022-02-24T14:39:32Z</time>
      </trkpt>
      <trkpt lat="46.05479" lon="5.18918">
        <ele>276.8</ele>
        <time>2022-02-24T14:39:33Z</time>
      </trkpt>
      <trkpt lat="46.05486" lon="5.18922">
        <ele>276.8</ele>
        <time>2022-02-24T14:39:34Z</time>
      </trkpt>
      <trkpt lat="46.05493" lon="5.18926">
        <ele>276.4</ele>
        <time>2022-02-24T14:39:35Z</time>
      </trkpt>
      <trkpt lat="46.055" lon="5.1893">
        <ele>276.4</ele>
        <time>2022-02-24T14:39:36Z</time>
      </trkpt>
      <trkpt lat="46.05507" lon="5.18934">
        <ele>276.4</ele>
        <time>2022-02-24T14:39:37Z</time>
      </trkpt>
      <trkpt lat="46.05514" lon="5.18938">
        <ele>276.4</ele>
        <time>2022-02-24T14:39:38Z</time>
      </trkpt>
      <trkpt lat="46.05521" lon="5.18942">
        <ele>276.4</ele>
        <time>2022-02-24T14:39:39Z</time>
      </trkpt>
      <trkpt lat="46.05528" lon="5.18946">
        <ele>276.4</ele>
        <time>2022-02-24T14:39:40Z</time>
      </trkpt>
      <trkpt lat="46.05534" lon="5.1895">
        <ele>276.2</ele>
        <time>2022-02-24T14:39:41Z</time>
      </trkpt>
      <trkpt lat="46.05541" lon="5.18953">
        <ele>276.2</ele>
        <time>2022-02-24T14:39:42Z</time>
      </trkpt>
      <trkpt lat="46.05548" lon="5.18956">
        <ele>276.2</ele>
        <time>2022-02-24T14:39:43Z</time>
      </trkpt>
      <trkpt lat="46.05555" lon="5.18959">
        <ele>276.2</ele>
        <time>2022-02-24T14:39:44Z</time>
      </trkpt>
      <trkpt lat="46.05562" lon="5.18964">
        <ele>276.2</ele>
        <time>2022-02-24T14:39:45Z</time>
      </trkpt>
      <trkpt lat="46.05569" lon="5.18968">
        <ele>276.6</ele>
        <time>2022-02-24T14:39:46Z</time>
      </trkpt>
      <trkpt lat="46.05575" lon="5.18972">
        <ele>276.6</ele>
        <time>2022-02-24T14:39:47Z</time>
      </trkpt>
      <trkpt lat="46.05582" lon="5.18977">
        <ele>276.6</ele>
        <time>2022-02-24T14:39:48Z</time>
      </trkpt>
      <trkpt lat="46.05589" lon="5.18981">
        <ele>276.6</ele>
        <time>2022-02-24T14:39:49Z</time>
      </trkpt>
      <trkpt lat="46.05596" lon="5.18985">
        <ele>276.2</ele>
        <time>2022-02-24T14:39:50Z</time>
      </trkpt>
      <trkpt lat="46.05603" lon="5.18989">
        <ele>276.2</ele>
        <time>2022-02-24T14:39:51Z</time>
      </trkpt>
      <trkpt lat="46.0561" lon="5.18993">
        <ele>276.2</ele>
        <time>2022-02-24T14:39:52Z</time>
      </trkpt>
      <trkpt lat="46.05617" lon="5.18997">
        <ele>276</ele>
        <time>2022-02-24T14:39:53Z</time>
      </trkpt>
      <trkpt lat="46.05624" lon="5.19001">
        <ele>276</ele>
        <time>2022-02-24T14:39:54Z</time>
      </trkpt>
      <trkpt lat="46.05631" lon="5.19005">
        <ele>276</ele>
        <time>2022-02-24T14:39:55Z</time>
      </trkpt>
      <trkpt lat="46.05638" lon="5.19009">
        <ele>276</ele>
        <time>2022-02-24T14:39:56Z</time>
      </trkpt>
      <trkpt lat="46.05645" lon="5.19013">
        <ele>276</ele>
        <time>2022-02-24T14:39:57Z</time>
      </trkpt>
      <trkpt lat="46.05651" lon="5.19017">
        <ele>276.2</ele>
        <time>2022-02-24T14:39:58Z</time>
      </trkpt>
      <trkpt lat="46.05657" lon="5.19021">
        <ele>276.2</ele>
        <time>2022-02-24T14:39:59Z</time>
      </trkpt>
      <trkpt lat="46.05664" lon="5.19024">
        <ele>276.2</ele>
        <time>2022-02-24T14:40:00Z</time>
      </trkpt>
      <trkpt lat="46.05671" lon="5.19028">
        <ele>276.2</ele>
        <time>2022-02-24T14:40:01Z</time>
      </trkpt>
      <trkpt lat="46.05677" lon="5.19032">
        <ele>276.2</ele>
        <time>2022-02-24T14:40:02Z</time>
      </trkpt>
      <trkpt lat="46.05684" lon="5.19036">
        <ele>276.2</ele>
        <time>2022-02-24T14:40:03Z</time>
      </trkpt>
      <trkpt lat="46.0569" lon="5.19039">
        <ele>276.2</ele>
        <time>2022-02-24T14:40:04Z</time>
      </trkpt>
      <trkpt lat="46.05697" lon="5.19043">
        <ele>276.2</ele>
        <time>2022-02-24T14:40:05Z</time>
      </trkpt>
      <trkpt lat="46.05704" lon="5.19047">
        <ele>276.2</ele>
        <time>2022-02-24T14:40:06Z</time>
      </trkpt>
      <trkpt lat="46.0571" lon="5.19051">
        <ele>276.2</ele>
        <time>2022-02-24T14:40:07Z</time>
      </trkpt>
      <trkpt lat="46.05717" lon="5.19055">
        <ele>276.2</ele>
        <time>2022-02-24T14:40:08Z</time>
      </trkpt>
      <trkpt lat="46.05724" lon="5.19059">
        <ele>276.2</ele>
        <time>2022-02-24T14:40:09Z</time>
      </trkpt>
      <trkpt lat="46.0573" lon="5.19063">
        <ele>276.6</ele>
        <time>2022-02-24T14:40:10Z</time>
      </trkpt>
      <trkpt lat="46.05737" lon="5.19067">
        <ele>276.8</ele>
        <time>2022-02-24T14:40:11Z</time>
      </trkpt>
      <trkpt lat="46.05744" lon="5.19071">
        <ele>276.8</ele>
        <time>2022-02-24T14:40:12Z</time>
      </trkpt>
      <trkpt lat="46.05751" lon="5.19074">
        <ele>277</ele>
        <time>2022-02-24T14:40:13Z</time>
      </trkpt>
      <trkpt lat="46.05758" lon="5.19078">
        <ele>277</ele>
        <time>2022-02-24T14:40:14Z</time>
      </trkpt>
      <trkpt lat="46.05764" lon="5.19081">
        <ele>277.4</ele>
        <time>2022-02-24T14:40:15Z</time>
      </trkpt>
      <trkpt lat="46.05771" lon="5.19085">
        <ele>277.4</ele>
        <time>2022-02-24T14:40:16Z</time>
      </trkpt>
      <trkpt lat="46.05777" lon="5.19089">
        <ele>277.8</ele>
        <time>2022-02-24T14:40:17Z</time>
      </trkpt>
      <trkpt lat="46.05783" lon="5.19093">
        <ele>278</ele>
        <time>2022-02-24T14:40:18Z</time>
      </trkpt>
      <trkpt lat="46.05789" lon="5.19097">
        <ele>278.2</ele>
        <time>2022-02-24T14:40:19Z</time>
      </trkpt>
      <trkpt lat="46.05795" lon="5.19101">
        <ele>278.6</ele>
        <time>2022-02-24T14:40:20Z</time>
      </trkpt>
      <trkpt lat="46.05801" lon="5.19104">
        <ele>278.6</ele>
        <time>2022-02-24T14:40:21Z</time>
      </trkpt>
      <trkpt lat="46.05807" lon="5.19108">
        <ele>278.8</ele>
        <time>2022-02-24T14:40:22Z</time>
      </trkpt>
      <trkpt lat="46.05813" lon="5.19111">
        <ele>279.2</ele>
        <time>2022-02-24T14:40:23Z</time>
      </trkpt>
      <trkpt lat="46.05818" lon="5.19114">
        <ele>279.4</ele>
        <time>2022-02-24T14:40:24Z</time>
      </trkpt>
      <trkpt lat="46.05824" lon="5.19117">
        <ele>279.4</ele>
        <time>2022-02-24T14:40:25Z</time>
      </trkpt>
      <trkpt lat="46.05829" lon="5.1912">
        <ele>279.6</ele>
        <time>2022-02-24T14:40:26Z</time>
      </trkpt>
      <trkpt lat="46.05834" lon="5.19123">
        <ele>279.8</ele>
        <time>2022-02-24T14:40:27Z</time>
      </trkpt>
      <trkpt lat="46.05839" lon="5.19126">
        <ele>279.8</ele>
        <time>2022-02-24T14:40:28Z</time>
      </trkpt>
      <trkpt lat="46.05845" lon="5.19129">
        <ele>280.2</ele>
        <time>2022-02-24T14:40:29Z</time>
      </trkpt>
      <trkpt lat="46.0585" lon="5.19132">
        <ele>280.2</ele>
        <time>2022-02-24T14:40:30Z</time>
      </trkpt>
      <trkpt lat="46.05856" lon="5.19136">
        <ele>280.2</ele>
        <time>2022-02-24T14:40:31Z</time>
      </trkpt>
      <trkpt lat="46.05862" lon="5.19139">
        <ele>280.2</ele>
        <time>2022-02-24T14:40:32Z</time>
      </trkpt>
      <trkpt lat="46.05868" lon="5.19142">
        <ele>280.2</ele>
        <time>2022-02-24T14:40:33Z</time>
      </trkpt>
      <trkpt lat="46.05875" lon="5.19146">
        <ele>280.2</ele>
        <time>2022-02-24T14:40:34Z</time>
      </trkpt>
      <trkpt lat="46.05881" lon="5.1915">
        <ele>280.2</ele>
        <time>2022-02-24T14:40:35Z</time>
      </trkpt>
      <trkpt lat="46.05888" lon="5.19154">
        <ele>280.2</ele>
        <time>2022-02-24T14:40:36Z</time>
      </trkpt>
      <trkpt lat="46.05894" lon="5.19158">
        <ele>279.8</ele>
        <time>2022-02-24T14:40:37Z</time>
      </trkpt>
      <trkpt lat="46.05901" lon="5.19162">
        <ele>279.8</ele>
        <time>2022-02-24T14:40:38Z</time>
      </trkpt>
      <trkpt lat="46.05908" lon="5.19166">
        <ele>279.8</ele>
        <time>2022-02-24T14:40:39Z</time>
      </trkpt>
      <trkpt lat="46.05915" lon="5.1917">
        <ele>279.8</ele>
        <time>2022-02-24T14:40:40Z</time>
      </trkpt>
      <trkpt lat="46.05923" lon="5.19175">
        <ele>279.6</ele>
        <time>2022-02-24T14:40:41Z</time>
      </trkpt>
      <trkpt lat="46.0593" lon="5.19179">
        <ele>279.6</ele>
        <time>2022-02-24T14:40:42Z</time>
      </trkpt>
      <trkpt lat="46.05938" lon="5.19183">
        <ele>279.6</ele>
        <time>2022-02-24T14:40:43Z</time>
      </trkpt>
      <trkpt lat="46.05945" lon="5.19187">
        <ele>279.4</ele>
        <time>2022-02-24T14:40:44Z</time>
      </trkpt>
      <trkpt lat="46.05953" lon="5.19191">
        <ele>279.4</ele>
        <time>2022-02-24T14:40:45Z</time>
      </trkpt>
      <trkpt lat="46.0596" lon="5.19196">
        <ele>279.4</ele>
        <time>2022-02-24T14:40:46Z</time>
      </trkpt>
      <trkpt lat="46.05968" lon="5.192">
        <ele>279.4</ele>
        <time>2022-02-24T14:40:47Z</time>
      </trkpt>
      <trkpt lat="46.05975" lon="5.19204">
        <ele>279.4</ele>
        <time>2022-02-24T14:40:48Z</time>
      </trkpt>
      <trkpt lat="46.05982" lon="5.19208">
        <ele>279.4</ele>
        <time>2022-02-24T14:40:49Z</time>
      </trkpt>
      <trkpt lat="46.0599" lon="5.19213">
        <ele>279.2</ele>
        <time>2022-02-24T14:40:50Z</time>
      </trkpt>
      <trkpt lat="46.05997" lon="5.19217">
        <ele>279.2</ele>
        <time>2022-02-24T14:40:51Z</time>
      </trkpt>
      <trkpt lat="46.06005" lon="5.19222">
        <ele>278.8</ele>
        <time>2022-02-24T14:40:52Z</time>
      </trkpt>
      <trkpt lat="46.06012" lon="5.19226">
        <ele>278.8</ele>
        <time>2022-02-24T14:40:53Z</time>
      </trkpt>
      <trkpt lat="46.06019" lon="5.1923">
        <ele>278.8</ele>
        <time>2022-02-24T14:40:54Z</time>
      </trkpt>
      <trkpt lat="46.06026" lon="5.19233">
        <ele>278.8</ele>
        <time>2022-02-24T14:40:55Z</time>
      </trkpt>
      <trkpt lat="46.06034" lon="5.19237">
        <ele>278.6</ele>
        <time>2022-02-24T14:40:56Z</time>
      </trkpt>
      <trkpt lat="46.06041" lon="5.19241">
        <ele>278.6</ele>
        <time>2022-02-24T14:40:57Z</time>
      </trkpt>
      <trkpt lat="46.06047" lon="5.19245">
        <ele>278.6</ele>
        <time>2022-02-24T14:40:58Z</time>
      </trkpt>
      <trkpt lat="46.06054" lon="5.19249">
        <ele>278.6</ele>
        <time>2022-02-24T14:40:59Z</time>
      </trkpt>
      <trkpt lat="46.06061" lon="5.19253">
        <ele>278.6</ele>
        <time>2022-02-24T14:41:00Z</time>
      </trkpt>
      <trkpt lat="46.06068" lon="5.19257">
        <ele>278.6</ele>
        <time>2022-02-24T14:41:01Z</time>
      </trkpt>
      <trkpt lat="46.06075" lon="5.1926">
        <ele>278.6</ele>
        <time>2022-02-24T14:41:02Z</time>
      </trkpt>
      <trkpt lat="46.06081" lon="5.19264">
        <ele>278.6</ele>
        <time>2022-02-24T14:41:03Z</time>
      </trkpt>
      <trkpt lat="46.06088" lon="5.19267">
        <ele>278.8</ele>
        <time>2022-02-24T14:41:04Z</time>
      </trkpt>
      <trkpt lat="46.06094" lon="5.19271">
        <ele>278.8</ele>
        <time>2022-02-24T14:41:05Z</time>
      </trkpt>
      <trkpt lat="46.061" lon="5.19275">
        <ele>278.8</ele>
        <time>2022-02-24T14:41:06Z</time>
      </trkpt>
      <trkpt lat="46.06107" lon="5.19278">
        <ele>279</ele>
        <time>2022-02-24T14:41:07Z</time>
      </trkpt>
      <trkpt lat="46.06113" lon="5.19282">
        <ele>279</ele>
        <time>2022-02-24T14:41:08Z</time>
      </trkpt>
      <trkpt lat="46.06119" lon="5.19286">
        <ele>279</ele>
        <time>2022-02-24T14:41:09Z</time>
      </trkpt>
      <trkpt lat="46.06125" lon="5.19289">
        <ele>279.4</ele>
        <time>2022-02-24T14:41:10Z</time>
      </trkpt>
      <trkpt lat="46.06131" lon="5.19292">
        <ele>279.4</ele>
        <time>2022-02-24T14:41:11Z</time>
      </trkpt>
      <trkpt lat="46.06137" lon="5.19296">
        <ele>279.4</ele>
        <time>2022-02-24T14:41:12Z</time>
      </trkpt>
      <trkpt lat="46.06143" lon="5.19299">
        <ele>279.8</ele>
        <time>2022-02-24T14:41:13Z</time>
      </trkpt>
      <trkpt lat="46.06148" lon="5.19302">
        <ele>279.8</ele>
        <time>2022-02-24T14:41:14Z</time>
      </trkpt>
      <trkpt lat="46.06154" lon="5.19305">
        <ele>280</ele>
        <time>2022-02-24T14:41:15Z</time>
      </trkpt>
      <trkpt lat="46.0616" lon="5.19308">
        <ele>280</ele>
        <time>2022-02-24T14:41:16Z</time>
      </trkpt>
      <trkpt lat="46.06165" lon="5.19311">
        <ele>280.2</ele>
        <time>2022-02-24T14:41:17Z</time>
      </trkpt>
      <trkpt lat="46.0617" lon="5.19315">
        <ele>280.2</ele>
        <time>2022-02-24T14:41:18Z</time>
      </trkpt>
      <trkpt lat="46.06176" lon="5.19318">
        <ele>280.6</ele>
        <time>2022-02-24T14:41:19Z</time>
      </trkpt>
      <trkpt lat="46.06181" lon="5.19321">
        <ele>280.6</ele>
        <time>2022-02-24T14:41:20Z</time>
      </trkpt>
      <trkpt lat="46.06186" lon="5.19324">
        <ele>280.8</ele>
        <time>2022-02-24T14:41:21Z</time>
      </trkpt>
      <trkpt lat="46.06191" lon="5.19327">
        <ele>281</ele>
        <time>2022-02-24T14:41:22Z</time>
      </trkpt>
      <trkpt lat="46.06196" lon="5.1933">
        <ele>281</ele>
        <time>2022-02-24T14:41:23Z</time>
      </trkpt>
      <trkpt lat="46.06201" lon="5.19332">
        <ele>281.4</ele>
        <time>2022-02-24T14:41:24Z</time>
      </trkpt>
      <trkpt lat="46.06207" lon="5.19335">
        <ele>281.8</ele>
        <time>2022-02-24T14:41:25Z</time>
      </trkpt>
      <trkpt lat="46.06212" lon="5.19338">
        <ele>282</ele>
        <time>2022-02-24T14:41:26Z</time>
      </trkpt>
      <trkpt lat="46.06217" lon="5.1934">
        <ele>282</ele>
        <time>2022-02-24T14:41:27Z</time>
      </trkpt>
      <trkpt lat="46.06222" lon="5.19343">
        <ele>282.2</ele>
        <time>2022-02-24T14:41:28Z</time>
      </trkpt>
      <trkpt lat="46.06227" lon="5.19346">
        <ele>282.2</ele>
        <time>2022-02-24T14:41:29Z</time>
      </trkpt>
      <trkpt lat="46.06232" lon="5.19349">
        <ele>282.6</ele>
        <time>2022-02-24T14:41:30Z</time>
      </trkpt>
      <trkpt lat="46.06237" lon="5.19352">
        <ele>282.6</ele>
        <time>2022-02-24T14:41:31Z</time>
      </trkpt>
      <trkpt lat="46.06242" lon="5.19355">
        <ele>282.8</ele>
        <time>2022-02-24T14:41:32Z</time>
      </trkpt>
      <trkpt lat="46.06247" lon="5.19358">
        <ele>282.8</ele>
        <time>2022-02-24T14:41:33Z</time>
      </trkpt>
      <trkpt lat="46.06252" lon="5.19361">
        <ele>283</ele>
        <time>2022-02-24T14:41:34Z</time>
      </trkpt>
      <trkpt lat="46.06257" lon="5.19364">
        <ele>283</ele>
        <time>2022-02-24T14:41:35Z</time>
      </trkpt>
      <trkpt lat="46.06262" lon="5.19366">
        <ele>283.2</ele>
        <time>2022-02-24T14:41:36Z</time>
      </trkpt>
      <trkpt lat="46.06267" lon="5.19369">
        <ele>283.2</ele>
        <time>2022-02-24T14:41:37Z</time>
      </trkpt>
      <trkpt lat="46.06272" lon="5.19372">
        <ele>283.6</ele>
        <time>2022-02-24T14:41:38Z</time>
      </trkpt>
      <trkpt lat="46.06277" lon="5.19375">
        <ele>283.6</ele>
        <time>2022-02-24T14:41:39Z</time>
      </trkpt>
      <trkpt lat="46.06282" lon="5.19377">
        <ele>283.8</ele>
        <time>2022-02-24T14:41:40Z</time>
      </trkpt>
      <trkpt lat="46.06287" lon="5.1938">
        <ele>283.8</ele>
        <time>2022-02-24T14:41:41Z</time>
      </trkpt>
      <trkpt lat="46.06292" lon="5.19382">
        <ele>284</ele>
        <time>2022-02-24T14:41:42Z</time>
      </trkpt>
      <trkpt lat="46.06297" lon="5.19385">
        <ele>284</ele>
        <time>2022-02-24T14:41:43Z</time>
      </trkpt>
      <trkpt lat="46.06302" lon="5.19388">
        <ele>284.4</ele>
        <time>2022-02-24T14:41:44Z</time>
      </trkpt>
      <trkpt lat="46.06307" lon="5.19391">
        <ele>284.6</ele>
        <time>2022-02-24T14:41:45Z</time>
      </trkpt>
      <trkpt lat="46.06312" lon="5.19394">
        <ele>284.6</ele>
        <time>2022-02-24T14:41:46Z</time>
      </trkpt>
      <trkpt lat="46.06318" lon="5.19397">
        <ele>285</ele>
        <time>2022-02-24T14:41:47Z</time>
      </trkpt>
      <trkpt lat="46.06323" lon="5.194">
        <ele>285</ele>
        <time>2022-02-24T14:41:48Z</time>
      </trkpt>
      <trkpt lat="46.06329" lon="5.19403">
        <ele>285</ele>
        <time>2022-02-24T14:41:49Z</time>
      </trkpt>
      <trkpt lat="46.06334" lon="5.19406">
        <ele>285</ele>
        <time>2022-02-24T14:41:50Z</time>
      </trkpt>
      <trkpt lat="46.0634" lon="5.1941">
        <ele>285</ele>
        <time>2022-02-24T14:41:51Z</time>
      </trkpt>
      <trkpt lat="46.06346" lon="5.19415">
        <ele>285</ele>
        <time>2022-02-24T14:41:52Z</time>
      </trkpt>
      <trkpt lat="46.06352" lon="5.19418">
        <ele>285</ele>
        <time>2022-02-24T14:41:53Z</time>
      </trkpt>
      <trkpt lat="46.06358" lon="5.19422">
        <ele>284.6</ele>
        <time>2022-02-24T14:41:54Z</time>
      </trkpt>
      <trkpt lat="46.06365" lon="5.19425">
        <ele>284.6</ele>
        <time>2022-02-24T14:41:55Z</time>
      </trkpt>
      <trkpt lat="46.06371" lon="5.19429">
        <ele>284.4</ele>
        <time>2022-02-24T14:41:56Z</time>
      </trkpt>
      <trkpt lat="46.06378" lon="5.19433">
        <ele>284.4</ele>
        <time>2022-02-24T14:41:57Z</time>
      </trkpt>
      <trkpt lat="46.06384" lon="5.19437">
        <ele>284.2</ele>
        <time>2022-02-24T14:41:58Z</time>
      </trkpt>
      <trkpt lat="46.06391" lon="5.19441">
        <ele>284.2</ele>
        <time>2022-02-24T14:41:59Z</time>
      </trkpt>
      <trkpt lat="46.06398" lon="5.19445">
        <ele>283.8</ele>
        <time>2022-02-24T14:42:00Z</time>
      </trkpt>
      <trkpt lat="46.06405" lon="5.19449">
        <ele>283.8</ele>
        <time>2022-02-24T14:42:01Z</time>
      </trkpt>
      <trkpt lat="46.06412" lon="5.19453">
        <ele>283.4</ele>
        <time>2022-02-24T14:42:02Z</time>
      </trkpt>
      <trkpt lat="46.0642" lon="5.19458">
        <ele>283.4</ele>
        <time>2022-02-24T14:42:03Z</time>
      </trkpt>
      <trkpt lat="46.06427" lon="5.19462">
        <ele>283.2</ele>
        <time>2022-02-24T14:42:04Z</time>
      </trkpt>
      <trkpt lat="46.06434" lon="5.19466">
        <ele>283.2</ele>
        <time>2022-02-24T14:42:05Z</time>
      </trkpt>
      <trkpt lat="46.06441" lon="5.1947">
        <ele>283</ele>
        <time>2022-02-24T14:42:06Z</time>
      </trkpt>
      <trkpt lat="46.06448" lon="5.19475">
        <ele>283</ele>
        <time>2022-02-24T14:42:07Z</time>
      </trkpt>
      <trkpt lat="46.06456" lon="5.19479">
        <ele>282.6</ele>
        <time>2022-02-24T14:42:08Z</time>
      </trkpt>
      <trkpt lat="46.06463" lon="5.19483">
        <ele>282.6</ele>
        <time>2022-02-24T14:42:09Z</time>
      </trkpt>
      <trkpt lat="46.0647" lon="5.19487">
        <ele>282.6</ele>
        <time>2022-02-24T14:42:10Z</time>
      </trkpt>
      <trkpt lat="46.06477" lon="5.19492">
        <ele>282.2</ele>
        <time>2022-02-24T14:42:11Z</time>
      </trkpt>
      <trkpt lat="46.06484" lon="5.19496">
        <ele>282.2</ele>
        <time>2022-02-24T14:42:12Z</time>
      </trkpt>
      <trkpt lat="46.0649" lon="5.19501">
        <ele>282</ele>
        <time>2022-02-24T14:42:13Z</time>
      </trkpt>
      <trkpt lat="46.06497" lon="5.19505">
        <ele>282</ele>
        <time>2022-02-24T14:42:14Z</time>
      </trkpt>
      <trkpt lat="46.06504" lon="5.19509">
        <ele>281.6</ele>
        <time>2022-02-24T14:42:15Z</time>
      </trkpt>
      <trkpt lat="46.06511" lon="5.19513">
        <ele>281.6</ele>
        <time>2022-02-24T14:42:16Z</time>
      </trkpt>
      <trkpt lat="46.06519" lon="5.19517">
        <ele>281.4</ele>
        <time>2022-02-24T14:42:17Z</time>
      </trkpt>
      <trkpt lat="46.06526" lon="5.19521">
        <ele>281.4</ele>
        <time>2022-02-24T14:42:18Z</time>
      </trkpt>
      <trkpt lat="46.06533" lon="5.19525">
        <ele>281.4</ele>
        <time>2022-02-24T14:42:19Z</time>
      </trkpt>
      <trkpt lat="46.06539" lon="5.19529">
        <ele>281.4</ele>
        <time>2022-02-24T14:42:20Z</time>
      </trkpt>
      <trkpt lat="46.06546" lon="5.19533">
        <ele>281.4</ele>
        <time>2022-02-24T14:42:21Z</time>
      </trkpt>
      <trkpt lat="46.06553" lon="5.19537">
        <ele>281.2</ele>
        <time>2022-02-24T14:42:22Z</time>
      </trkpt>
      <trkpt lat="46.06559" lon="5.19541">
        <ele>281.2</ele>
        <time>2022-02-24T14:42:23Z</time>
      </trkpt>
      <trkpt lat="46.06566" lon="5.19545">
        <ele>281.2</ele>
        <time>2022-02-24T14:42:24Z</time>
      </trkpt>
      <trkpt lat="46.06573" lon="5.19548">
        <ele>281.2</ele>
        <time>2022-02-24T14:42:25Z</time>
      </trkpt>
      <trkpt lat="46.0658" lon="5.19551">
        <ele>281.2</ele>
        <time>2022-02-24T14:42:26Z</time>
      </trkpt>
      <trkpt lat="46.06586" lon="5.19554">
        <ele>281.2</ele>
        <time>2022-02-24T14:42:27Z</time>
      </trkpt>
      <trkpt lat="46.06593" lon="5.19557">
        <ele>281.2</ele>
        <time>2022-02-24T14:42:28Z</time>
      </trkpt>
      <trkpt lat="46.066" lon="5.19559">
        <ele>281.2</ele>
        <time>2022-02-24T14:42:29Z</time>
      </trkpt>
      <trkpt lat="46.06607" lon="5.19561">
        <ele>281.2</ele>
        <time>2022-02-24T14:42:30Z</time>
      </trkpt>
      <trkpt lat="46.06614" lon="5.19562">
        <ele>281.2</ele>
        <time>2022-02-24T14:42:31Z</time>
      </trkpt>
      <trkpt lat="46.06621" lon="5.19563">
        <ele>281.2</ele>
        <time>2022-02-24T14:42:32Z</time>
      </trkpt>
      <trkpt lat="46.06628" lon="5.19564">
        <ele>281.2</ele>
        <time>2022-02-24T14:42:33Z</time>
      </trkpt>
      <trkpt lat="46.06635" lon="5.19565">
        <ele>281.2</ele>
        <time>2022-02-24T14:42:34Z</time>
      </trkpt>
      <trkpt lat="46.06642" lon="5.19566">
        <ele>281.2</ele>
        <time>2022-02-24T14:42:35Z</time>
      </trkpt>
      <trkpt lat="46.06649" lon="5.19566">
        <ele>281.2</ele>
        <time>2022-02-24T14:42:36Z</time>
      </trkpt>
      <trkpt lat="46.06656" lon="5.19567">
        <ele>281</ele>
        <time>2022-02-24T14:42:37Z</time>
      </trkpt>
      <trkpt lat="46.06663" lon="5.19567">
        <ele>281</ele>
        <time>2022-02-24T14:42:38Z</time>
      </trkpt>
      <trkpt lat="46.0667" lon="5.19567">
        <ele>281</ele>
        <time>2022-02-24T14:42:39Z</time>
      </trkpt>
      <trkpt lat="46.06678" lon="5.19568">
        <ele>281</ele>
        <time>2022-02-24T14:42:40Z</time>
      </trkpt>
      <trkpt lat="46.06685" lon="5.19568">
        <ele>281.2</ele>
        <time>2022-02-24T14:42:41Z</time>
      </trkpt>
      <trkpt lat="46.06692" lon="5.19568">
        <ele>281.2</ele>
        <time>2022-02-24T14:42:42Z</time>
      </trkpt>
      <trkpt lat="46.06699" lon="5.19569">
        <ele>281.2</ele>
        <time>2022-02-24T14:42:43Z</time>
      </trkpt>
      <trkpt lat="46.06706" lon="5.19569">
        <ele>281.2</ele>
        <time>2022-02-24T14:42:44Z</time>
      </trkpt>
      <trkpt lat="46.06714" lon="5.19569">
        <ele>281.2</ele>
        <time>2022-02-24T14:42:45Z</time>
      </trkpt>
      <trkpt lat="46.06721" lon="5.1957">
        <ele>281.2</ele>
        <time>2022-02-24T14:42:46Z</time>
      </trkpt>
      <trkpt lat="46.06728" lon="5.1957">
        <ele>281.4</ele>
        <time>2022-02-24T14:42:47Z</time>
      </trkpt>
      <trkpt lat="46.06735" lon="5.1957">
        <ele>281.4</ele>
        <time>2022-02-24T14:42:48Z</time>
      </trkpt>
      <trkpt lat="46.06742" lon="5.1957">
        <ele>281.4</ele>
        <time>2022-02-24T14:42:49Z</time>
      </trkpt>
      <trkpt lat="46.06749" lon="5.19571">
        <ele>281.8</ele>
        <time>2022-02-24T14:42:50Z</time>
      </trkpt>
      <trkpt lat="46.06756" lon="5.19572">
        <ele>281.8</ele>
        <time>2022-02-24T14:42:51Z</time>
      </trkpt>
      <trkpt lat="46.06763" lon="5.19572">
        <ele>282</ele>
        <time>2022-02-24T14:42:52Z</time>
      </trkpt>
      <trkpt lat="46.0677" lon="5.19573">
        <ele>282</ele>
        <time>2022-02-24T14:42:53Z</time>
      </trkpt>
      <trkpt lat="46.06777" lon="5.19573">
        <ele>282.2</ele>
        <time>2022-02-24T14:42:54Z</time>
      </trkpt>
      <trkpt lat="46.06783" lon="5.19573">
        <ele>282.2</ele>
        <time>2022-02-24T14:42:55Z</time>
      </trkpt>
      <trkpt lat="46.0679" lon="5.19574">
        <ele>282.6</ele>
        <time>2022-02-24T14:42:56Z</time>
      </trkpt>
      <trkpt lat="46.06796" lon="5.19574">
        <ele>282.6</ele>
        <time>2022-02-24T14:42:57Z</time>
      </trkpt>
      <trkpt lat="46.06803" lon="5.19575">
        <ele>282.8</ele>
        <time>2022-02-24T14:42:58Z</time>
      </trkpt>
      <trkpt lat="46.06809" lon="5.19575">
        <ele>282.8</ele>
        <time>2022-02-24T14:42:59Z</time>
      </trkpt>
      <trkpt lat="46.06816" lon="5.19575">
        <ele>283</ele>
        <time>2022-02-24T14:43:00Z</time>
      </trkpt>
      <trkpt lat="46.06823" lon="5.19576">
        <ele>283</ele>
        <time>2022-02-24T14:43:01Z</time>
      </trkpt>
      <trkpt lat="46.0683" lon="5.19576">
        <ele>283</ele>
        <time>2022-02-24T14:43:02Z</time>
      </trkpt>
      <trkpt lat="46.06837" lon="5.19577">
        <ele>283</ele>
        <time>2022-02-24T14:43:03Z</time>
      </trkpt>
      <trkpt lat="46.06845" lon="5.19578">
        <ele>283</ele>
        <time>2022-02-24T14:43:04Z</time>
      </trkpt>
      <trkpt lat="46.06852" lon="5.19578">
        <ele>282.8</ele>
        <time>2022-02-24T14:43:05Z</time>
      </trkpt>
      <trkpt lat="46.06859" lon="5.19578">
        <ele>282.6</ele>
        <time>2022-02-24T14:43:06Z</time>
      </trkpt>
      <trkpt lat="46.06867" lon="5.19579">
        <ele>282.6</ele>
        <time>2022-02-24T14:43:07Z</time>
      </trkpt>
      <trkpt lat="46.06875" lon="5.19579">
        <ele>282.6</ele>
        <time>2022-02-24T14:43:08Z</time>
      </trkpt>
      <trkpt lat="46.06882" lon="5.1958">
        <ele>282.2</ele>
        <time>2022-02-24T14:43:09Z</time>
      </trkpt>
      <trkpt lat="46.0689" lon="5.1958">
        <ele>282.2</ele>
        <time>2022-02-24T14:43:10Z</time>
      </trkpt>
      <trkpt lat="46.06898" lon="5.19581">
        <ele>282</ele>
        <time>2022-02-24T14:43:11Z</time>
      </trkpt>
      <trkpt lat="46.06906" lon="5.19581">
        <ele>282</ele>
        <time>2022-02-24T14:43:12Z</time>
      </trkpt>
      <trkpt lat="46.06913" lon="5.19582">
        <ele>282</ele>
        <time>2022-02-24T14:43:13Z</time>
      </trkpt>
      <trkpt lat="46.06921" lon="5.19582">
        <ele>281.6</ele>
        <time>2022-02-24T14:43:14Z</time>
      </trkpt>
      <trkpt lat="46.06929" lon="5.19583">
        <ele>281.4</ele>
        <time>2022-02-24T14:43:15Z</time>
      </trkpt>
      <trkpt lat="46.06937" lon="5.19583">
        <ele>281.4</ele>
        <time>2022-02-24T14:43:16Z</time>
      </trkpt>
      <trkpt lat="46.06945" lon="5.19584">
        <ele>281.4</ele>
        <time>2022-02-24T14:43:17Z</time>
      </trkpt>
      <trkpt lat="46.06953" lon="5.19584">
        <ele>281.4</ele>
        <time>2022-02-24T14:43:18Z</time>
      </trkpt>
      <trkpt lat="46.06961" lon="5.19585">
        <ele>281.4</ele>
        <time>2022-02-24T14:43:19Z</time>
      </trkpt>
      <trkpt lat="46.06969" lon="5.19585">
        <ele>281</ele>
        <time>2022-02-24T14:43:20Z</time>
      </trkpt>
      <trkpt lat="46.06976" lon="5.19585">
        <ele>281</ele>
        <time>2022-02-24T14:43:21Z</time>
      </trkpt>
      <trkpt lat="46.06984" lon="5.19586">
        <ele>280.8</ele>
        <time>2022-02-24T14:43:22Z</time>
      </trkpt>
      <trkpt lat="46.06992" lon="5.19586">
        <ele>280.8</ele>
        <time>2022-02-24T14:43:23Z</time>
      </trkpt>
      <trkpt lat="46.07" lon="5.19587">
        <ele>280.8</ele>
        <time>2022-02-24T14:43:24Z</time>
      </trkpt>
      <trkpt lat="46.07008" lon="5.19587">
        <ele>280.6</ele>
        <time>2022-02-24T14:43:25Z</time>
      </trkpt>
      <trkpt lat="46.07016" lon="5.19588">
        <ele>280.6</ele>
        <time>2022-02-24T14:43:26Z</time>
      </trkpt>
      <trkpt lat="46.07023" lon="5.19589">
        <ele>280.6</ele>
        <time>2022-02-24T14:43:27Z</time>
      </trkpt>
      <trkpt lat="46.07031" lon="5.19589">
        <ele>280.4</ele>
        <time>2022-02-24T14:43:28Z</time>
      </trkpt>
      <trkpt lat="46.07039" lon="5.1959">
        <ele>280.4</ele>
        <time>2022-02-24T14:43:29Z</time>
      </trkpt>
      <trkpt lat="46.07047" lon="5.1959">
        <ele>280.4</ele>
        <time>2022-02-24T14:43:30Z</time>
      </trkpt>
      <trkpt lat="46.07055" lon="5.19591">
        <ele>280.2</ele>
        <time>2022-02-24T14:43:31Z</time>
      </trkpt>
      <trkpt lat="46.07063" lon="5.19591">
        <ele>280.2</ele>
        <time>2022-02-24T14:43:32Z</time>
      </trkpt>
      <trkpt lat="46.07071" lon="5.19592">
        <ele>280.2</ele>
        <time>2022-02-24T14:43:33Z</time>
      </trkpt>
      <trkpt lat="46.07079" lon="5.19592">
        <ele>280.2</ele>
        <time>2022-02-24T14:43:34Z</time>
      </trkpt>
      <trkpt lat="46.07087" lon="5.19592">
        <ele>279.8</ele>
        <time>2022-02-24T14:43:35Z</time>
      </trkpt>
      <trkpt lat="46.07095" lon="5.19592">
        <ele>279.8</ele>
        <time>2022-02-24T14:43:36Z</time>
      </trkpt>
      <trkpt lat="46.07103" lon="5.19593">
        <ele>279.6</ele>
        <time>2022-02-24T14:43:37Z</time>
      </trkpt>
      <trkpt lat="46.07111" lon="5.19595">
        <ele>279.6</ele>
        <time>2022-02-24T14:43:38Z</time>
      </trkpt>
      <trkpt lat="46.07118" lon="5.19598">
        <ele>279.6</ele>
        <time>2022-02-24T14:43:39Z</time>
      </trkpt>
      <trkpt lat="46.07126" lon="5.196">
        <ele>279.6</ele>
        <time>2022-02-24T14:43:40Z</time>
      </trkpt>
      <trkpt lat="46.07134" lon="5.196">
        <ele>279.4</ele>
        <time>2022-02-24T14:43:41Z</time>
      </trkpt>
      <trkpt lat="46.07142" lon="5.19598">
        <ele>279.4</ele>
        <time>2022-02-24T14:43:42Z</time>
      </trkpt>
      <trkpt lat="46.07149" lon="5.19596">
        <ele>279.4</ele>
        <time>2022-02-24T14:43:43Z</time>
      </trkpt>
      <trkpt lat="46.07157" lon="5.19594">
        <ele>279.4</ele>
        <time>2022-02-24T14:43:44Z</time>
      </trkpt>
      <trkpt lat="46.07164" lon="5.19594">
        <ele>279.4</ele>
        <time>2022-02-24T14:43:45Z</time>
      </trkpt>
      <trkpt lat="46.07172" lon="5.19596">
        <ele>279.4</ele>
        <time>2022-02-24T14:43:46Z</time>
      </trkpt>
      <trkpt lat="46.07179" lon="5.19597">
        <ele>279.4</ele>
        <time>2022-02-24T14:43:47Z</time>
      </trkpt>
      <trkpt lat="46.07187" lon="5.19598">
        <ele>279.4</ele>
        <time>2022-02-24T14:43:48Z</time>
      </trkpt>
      <trkpt lat="46.07194" lon="5.19599">
        <ele>279.4</ele>
        <time>2022-02-24T14:43:49Z</time>
      </trkpt>
      <trkpt lat="46.07201" lon="5.196">
        <ele>279.4</ele>
        <time>2022-02-24T14:43:50Z</time>
      </trkpt>
      <trkpt lat="46.07209" lon="5.196">
        <ele>279.4</ele>
        <time>2022-02-24T14:43:51Z</time>
      </trkpt>
      <trkpt lat="46.07216" lon="5.19601">
        <ele>279.4</ele>
        <time>2022-02-24T14:43:52Z</time>
      </trkpt>
      <trkpt lat="46.07224" lon="5.19601">
        <ele>279.4</ele>
        <time>2022-02-24T14:43:53Z</time>
      </trkpt>
      <trkpt lat="46.07231" lon="5.19602">
        <ele>279.4</ele>
        <time>2022-02-24T14:43:54Z</time>
      </trkpt>
      <trkpt lat="46.07239" lon="5.19602">
        <ele>279.4</ele>
        <time>2022-02-24T14:43:55Z</time>
      </trkpt>
      <trkpt lat="46.07246" lon="5.19603">
        <ele>279.4</ele>
        <time>2022-02-24T14:43:56Z</time>
      </trkpt>
      <trkpt lat="46.07253" lon="5.19603">
        <ele>279.4</ele>
        <time>2022-02-24T14:43:57Z</time>
      </trkpt>
      <trkpt lat="46.0726" lon="5.19603">
        <ele>279.4</ele>
        <time>2022-02-24T14:43:58Z</time>
      </trkpt>
      <trkpt lat="46.07268" lon="5.19603">
        <ele>279.4</ele>
        <time>2022-02-24T14:43:59Z</time>
      </trkpt>
      <trkpt lat="46.07275" lon="5.19604">
        <ele>279.4</ele>
        <time>2022-02-24T14:44:00Z</time>
      </trkpt>
      <trkpt lat="46.07282" lon="5.19605">
        <ele>279.8</ele>
        <time>2022-02-24T14:44:01Z</time>
      </trkpt>
      <trkpt lat="46.07289" lon="5.19605">
        <ele>279.8</ele>
        <time>2022-02-24T14:44:02Z</time>
      </trkpt>
      <trkpt lat="46.07296" lon="5.19605">
        <ele>279.8</ele>
        <time>2022-02-24T14:44:03Z</time>
      </trkpt>
      <trkpt lat="46.07303" lon="5.19606">
        <ele>279.8</ele>
        <time>2022-02-24T14:44:04Z</time>
      </trkpt>
      <trkpt lat="46.07309" lon="5.19606">
        <ele>280</ele>
        <time>2022-02-24T14:44:05Z</time>
      </trkpt>
      <trkpt lat="46.07316" lon="5.19607">
        <ele>280</ele>
        <time>2022-02-24T14:44:06Z</time>
      </trkpt>
      <trkpt lat="46.07323" lon="5.19607">
        <ele>280.2</ele>
        <time>2022-02-24T14:44:07Z</time>
      </trkpt>
      <trkpt lat="46.07329" lon="5.19608">
        <ele>280.2</ele>
        <time>2022-02-24T14:44:08Z</time>
      </trkpt>
      <trkpt lat="46.07336" lon="5.19608">
        <ele>280.4</ele>
        <time>2022-02-24T14:44:09Z</time>
      </trkpt>
      <trkpt lat="46.07342" lon="5.19608">
        <ele>280.4</ele>
        <time>2022-02-24T14:44:10Z</time>
      </trkpt>
      <trkpt lat="46.07348" lon="5.19609">
        <ele>280.8</ele>
        <time>2022-02-24T14:44:11Z</time>
      </trkpt>
      <trkpt lat="46.07354" lon="5.19609">
        <ele>280.8</ele>
        <time>2022-02-24T14:44:12Z</time>
      </trkpt>
      <trkpt lat="46.0736" lon="5.1961">
        <ele>281.2</ele>
        <time>2022-02-24T14:44:13Z</time>
      </trkpt>
      <trkpt lat="46.07366" lon="5.1961">
        <ele>281.4</ele>
        <time>2022-02-24T14:44:14Z</time>
      </trkpt>
      <trkpt lat="46.07371" lon="5.19611">
        <ele>281.4</ele>
        <time>2022-02-24T14:44:15Z</time>
      </trkpt>
      <trkpt lat="46.07377" lon="5.19611">
        <ele>281.8</ele>
        <time>2022-02-24T14:44:16Z</time>
      </trkpt>
      <trkpt lat="46.07383" lon="5.19611">
        <ele>281.8</ele>
        <time>2022-02-24T14:44:17Z</time>
      </trkpt>
      <trkpt lat="46.07388" lon="5.19611">
        <ele>282.2</ele>
        <time>2022-02-24T14:44:18Z</time>
      </trkpt>
      <trkpt lat="46.07394" lon="5.19611">
        <ele>282.4</ele>
        <time>2022-02-24T14:44:19Z</time>
      </trkpt>
      <trkpt lat="46.074" lon="5.19612">
        <ele>282.8</ele>
        <time>2022-02-24T14:44:20Z</time>
      </trkpt>
      <trkpt lat="46.07406" lon="5.19612">
        <ele>283</ele>
        <time>2022-02-24T14:44:21Z</time>
      </trkpt>
      <trkpt lat="46.07412" lon="5.19612">
        <ele>283</ele>
        <time>2022-02-24T14:44:22Z</time>
      </trkpt>
      <trkpt lat="46.07419" lon="5.19613">
        <ele>283.2</ele>
        <time>2022-02-24T14:44:23Z</time>
      </trkpt>
      <trkpt lat="46.07425" lon="5.19613">
        <ele>283.2</ele>
        <time>2022-02-24T14:44:24Z</time>
      </trkpt>
      <trkpt lat="46.07431" lon="5.19614">
        <ele>283.2</ele>
        <time>2022-02-24T14:44:25Z</time>
      </trkpt>
      <trkpt lat="46.07438" lon="5.19614">
        <ele>283.6</ele>
        <time>2022-02-24T14:44:26Z</time>
      </trkpt>
      <trkpt lat="46.07444" lon="5.19615">
        <ele>283.6</ele>
        <time>2022-02-24T14:44:27Z</time>
      </trkpt>
      <trkpt lat="46.0745" lon="5.19615">
        <ele>283.6</ele>
        <time>2022-02-24T14:44:28Z</time>
      </trkpt>
      <trkpt lat="46.07457" lon="5.19615">
        <ele>283.8</ele>
        <time>2022-02-24T14:44:29Z</time>
      </trkpt>
      <trkpt lat="46.07464" lon="5.19616">
        <ele>283.8</ele>
        <time>2022-02-24T14:44:30Z</time>
      </trkpt>
      <trkpt lat="46.0747" lon="5.19616">
        <ele>283.8</ele>
        <time>2022-02-24T14:44:31Z</time>
      </trkpt>
      <trkpt lat="46.07477" lon="5.19616">
        <ele>283.8</ele>
        <time>2022-02-24T14:44:32Z</time>
      </trkpt>
      <trkpt lat="46.07484" lon="5.19617">
        <ele>283.8</ele>
        <time>2022-02-24T14:44:33Z</time>
      </trkpt>
      <trkpt lat="46.07491" lon="5.19617">
        <ele>283.8</ele>
        <time>2022-02-24T14:44:34Z</time>
      </trkpt>
      <trkpt lat="46.07498" lon="5.19617">
        <ele>283.8</ele>
        <time>2022-02-24T14:44:35Z</time>
      </trkpt>
      <trkpt lat="46.07505" lon="5.19616">
        <ele>283.8</ele>
        <time>2022-02-24T14:44:36Z</time>
      </trkpt>
      <trkpt lat="46.07512" lon="5.19615">
        <ele>284</ele>
        <time>2022-02-24T14:44:37Z</time>
      </trkpt>
      <trkpt lat="46.07519" lon="5.19615">
        <ele>284</ele>
        <time>2022-02-24T14:44:38Z</time>
      </trkpt>
      <trkpt lat="46.07526" lon="5.19614">
        <ele>284</ele>
        <time>2022-02-24T14:44:39Z</time>
      </trkpt>
      <trkpt lat="46.07533" lon="5.19613">
        <ele>284</ele>
        <time>2022-02-24T14:44:40Z</time>
      </trkpt>
      <trkpt lat="46.0754" lon="5.19611">
        <ele>284</ele>
        <time>2022-02-24T14:44:41Z</time>
      </trkpt>
      <trkpt lat="46.07548" lon="5.1961">
        <ele>284</ele>
        <time>2022-02-24T14:44:42Z</time>
      </trkpt>
      <trkpt lat="46.07555" lon="5.19609">
        <ele>284</ele>
        <time>2022-02-24T14:44:43Z</time>
      </trkpt>
      <trkpt lat="46.07563" lon="5.19608">
        <ele>283.8</ele>
        <time>2022-02-24T14:44:44Z</time>
      </trkpt>
      <trkpt lat="46.0757" lon="5.19607">
        <ele>283.8</ele>
        <time>2022-02-24T14:44:45Z</time>
      </trkpt>
      <trkpt lat="46.07586" lon="5.19604">
        <ele>283.6</ele>
        <time>2022-02-24T14:44:46Z</time>
      </trkpt>
      <trkpt lat="46.07594" lon="5.19603">
        <ele>283.6</ele>
        <time>2022-02-24T14:44:47Z</time>
      </trkpt>
      <trkpt lat="46.07602" lon="5.19602">
        <ele>283.4</ele>
        <time>2022-02-24T14:44:48Z</time>
      </trkpt>
      <trkpt lat="46.0761" lon="5.19601">
        <ele>283</ele>
        <time>2022-02-24T14:44:49Z</time>
      </trkpt>
      <trkpt lat="46.07619" lon="5.19599">
        <ele>282.8</ele>
        <time>2022-02-24T14:44:50Z</time>
      </trkpt>
      <trkpt lat="46.07627" lon="5.19598">
        <ele>282.6</ele>
        <time>2022-02-24T14:44:51Z</time>
      </trkpt>
      <trkpt lat="46.07636" lon="5.19597">
        <ele>282.4</ele>
        <time>2022-02-24T14:44:52Z</time>
      </trkpt>
      <trkpt lat="46.07644" lon="5.19595">
        <ele>282</ele>
        <time>2022-02-24T14:44:53Z</time>
      </trkpt>
      <trkpt lat="46.07653" lon="5.19594">
        <ele>281.8</ele>
        <time>2022-02-24T14:44:54Z</time>
      </trkpt>
      <trkpt lat="46.07662" lon="5.19592">
        <ele>281.4</ele>
        <time>2022-02-24T14:44:55Z</time>
      </trkpt>
      <trkpt lat="46.07671" lon="5.19591">
        <ele>281.2</ele>
        <time>2022-02-24T14:44:56Z</time>
      </trkpt>
      <trkpt lat="46.0768" lon="5.1959">
        <ele>280.8</ele>
        <time>2022-02-24T14:44:57Z</time>
      </trkpt>
      <trkpt lat="46.07689" lon="5.19589">
        <ele>280.4</ele>
        <time>2022-02-24T14:44:58Z</time>
      </trkpt>
      <trkpt lat="46.07698" lon="5.19588">
        <ele>280</ele>
        <time>2022-02-24T14:44:59Z</time>
      </trkpt>
      <trkpt lat="46.07708" lon="5.19587">
        <ele>279.6</ele>
        <time>2022-02-24T14:45:00Z</time>
      </trkpt>
      <trkpt lat="46.07717" lon="5.19586">
        <ele>279.6</ele>
        <time>2022-02-24T14:45:01Z</time>
      </trkpt>
      <trkpt lat="46.07725" lon="5.19583">
        <ele>279.4</ele>
        <time>2022-02-24T14:45:02Z</time>
      </trkpt>
      <trkpt lat="46.07734" lon="5.19582">
        <ele>279.4</ele>
        <time>2022-02-24T14:45:03Z</time>
      </trkpt>
      <trkpt lat="46.07743" lon="5.1958">
        <ele>279</ele>
        <time>2022-02-24T14:45:04Z</time>
      </trkpt>
      <trkpt lat="46.07752" lon="5.19578">
        <ele>279</ele>
        <time>2022-02-24T14:45:05Z</time>
      </trkpt>
      <trkpt lat="46.07761" lon="5.19577">
        <ele>278.8</ele>
        <time>2022-02-24T14:45:06Z</time>
      </trkpt>
      <trkpt lat="46.0777" lon="5.19575">
        <ele>278.8</ele>
        <time>2022-02-24T14:45:07Z</time>
      </trkpt>
      <trkpt lat="46.07779" lon="5.19574">
        <ele>278.4</ele>
        <time>2022-02-24T14:45:08Z</time>
      </trkpt>
      <trkpt lat="46.07787" lon="5.19573">
        <ele>278.4</ele>
        <time>2022-02-24T14:45:09Z</time>
      </trkpt>
      <trkpt lat="46.07795" lon="5.19571">
        <ele>278.4</ele>
        <time>2022-02-24T14:45:10Z</time>
      </trkpt>
      <trkpt lat="46.07803" lon="5.1957">
        <ele>278.4</ele>
        <time>2022-02-24T14:45:11Z</time>
      </trkpt>
      <trkpt lat="46.0781" lon="5.19569">
        <ele>278.4</ele>
        <time>2022-02-24T14:45:12Z</time>
      </trkpt>
      <trkpt lat="46.07817" lon="5.19568">
        <ele>278.8</ele>
        <time>2022-02-24T14:45:13Z</time>
      </trkpt>
      <trkpt lat="46.07824" lon="5.19567">
        <ele>279</ele>
        <time>2022-02-24T14:45:14Z</time>
      </trkpt>
      <trkpt lat="46.07831" lon="5.19566">
        <ele>279</ele>
        <time>2022-02-24T14:45:15Z</time>
      </trkpt>
      <trkpt lat="46.07838" lon="5.19565">
        <ele>279</ele>
        <time>2022-02-24T14:45:16Z</time>
      </trkpt>
      <trkpt lat="46.07845" lon="5.19564">
        <ele>279</ele>
        <time>2022-02-24T14:45:17Z</time>
      </trkpt>
      <trkpt lat="46.07851" lon="5.19563">
        <ele>279.4</ele>
        <time>2022-02-24T14:45:18Z</time>
      </trkpt>
      <trkpt lat="46.07857" lon="5.19562">
        <ele>279.4</ele>
        <time>2022-02-24T14:45:19Z</time>
      </trkpt>
      <trkpt lat="46.07864" lon="5.19562">
        <ele>279.6</ele>
        <time>2022-02-24T14:45:20Z</time>
      </trkpt>
      <trkpt lat="46.0787" lon="5.19561">
        <ele>279.6</ele>
        <time>2022-02-24T14:45:21Z</time>
      </trkpt>
      <trkpt lat="46.07876" lon="5.1956">
        <ele>279.8</ele>
        <time>2022-02-24T14:45:22Z</time>
      </trkpt>
      <trkpt lat="46.07883" lon="5.19559">
        <ele>279.8</ele>
        <time>2022-02-24T14:45:23Z</time>
      </trkpt>
      <trkpt lat="46.07889" lon="5.19558">
        <ele>279.8</ele>
        <time>2022-02-24T14:45:24Z</time>
      </trkpt>
      <trkpt lat="46.07895" lon="5.19557">
        <ele>279.8</ele>
        <time>2022-02-24T14:45:25Z</time>
      </trkpt>
      <trkpt lat="46.07901" lon="5.19556">
        <ele>279.8</ele>
        <time>2022-02-24T14:45:26Z</time>
      </trkpt>
      <trkpt lat="46.07907" lon="5.19555">
        <ele>280</ele>
        <time>2022-02-24T14:45:27Z</time>
      </trkpt>
      <trkpt lat="46.07913" lon="5.19554">
        <ele>280</ele>
        <time>2022-02-24T14:45:28Z</time>
      </trkpt>
      <trkpt lat="46.0792" lon="5.19553">
        <ele>280.4</ele>
        <time>2022-02-24T14:45:29Z</time>
      </trkpt>
      <trkpt lat="46.07926" lon="5.19553">
        <ele>280.4</ele>
        <time>2022-02-24T14:45:30Z</time>
      </trkpt>
      <trkpt lat="46.07932" lon="5.19552">
        <ele>280.4</ele>
        <time>2022-02-24T14:45:31Z</time>
      </trkpt>
      <trkpt lat="46.07938" lon="5.19551">
        <ele>280.4</ele>
        <time>2022-02-24T14:45:32Z</time>
      </trkpt>
      <trkpt lat="46.07944" lon="5.1955">
        <ele>280.4</ele>
        <time>2022-02-24T14:45:33Z</time>
      </trkpt>
      <trkpt lat="46.0795" lon="5.19549">
        <ele>280.4</ele>
        <time>2022-02-24T14:45:34Z</time>
      </trkpt>
      <trkpt lat="46.07956" lon="5.19548">
        <ele>280.6</ele>
        <time>2022-02-24T14:45:35Z</time>
      </trkpt>
      <trkpt lat="46.07962" lon="5.19547">
        <ele>280.6</ele>
        <time>2022-02-24T14:45:36Z</time>
      </trkpt>
      <trkpt lat="46.07968" lon="5.19546">
        <ele>280.8</ele>
        <time>2022-02-24T14:45:37Z</time>
      </trkpt>
      <trkpt lat="46.07974" lon="5.19545">
        <ele>280.8</ele>
        <time>2022-02-24T14:45:38Z</time>
      </trkpt>
      <trkpt lat="46.0798" lon="5.19544">
        <ele>280.8</ele>
        <time>2022-02-24T14:45:39Z</time>
      </trkpt>
      <trkpt lat="46.07986" lon="5.19543">
        <ele>281.2</ele>
        <time>2022-02-24T14:45:40Z</time>
      </trkpt>
      <trkpt lat="46.07992" lon="5.19542">
        <ele>281.2</ele>
        <time>2022-02-24T14:45:41Z</time>
      </trkpt>
      <trkpt lat="46.07998" lon="5.19541">
        <ele>281.2</ele>
        <time>2022-02-24T14:45:42Z</time>
      </trkpt>
      <trkpt lat="46.08004" lon="5.1954">
        <ele>281.4</ele>
        <time>2022-02-24T14:45:43Z</time>
      </trkpt>
      <trkpt lat="46.0801" lon="5.1954">
        <ele>281.4</ele>
        <time>2022-02-24T14:45:44Z</time>
      </trkpt>
      <trkpt lat="46.08016" lon="5.19539">
        <ele>281.4</ele>
        <time>2022-02-24T14:45:45Z</time>
      </trkpt>
      <trkpt lat="46.08022" lon="5.19538">
        <ele>281.4</ele>
        <time>2022-02-24T14:45:46Z</time>
      </trkpt>
      <trkpt lat="46.08029" lon="5.19537">
        <ele>281.4</ele>
        <time>2022-02-24T14:45:47Z</time>
      </trkpt>
      <trkpt lat="46.08035" lon="5.19536">
        <ele>281.4</ele>
        <time>2022-02-24T14:45:48Z</time>
      </trkpt>
      <trkpt lat="46.08041" lon="5.19535">
        <ele>281.4</ele>
        <time>2022-02-24T14:45:49Z</time>
      </trkpt>
      <trkpt lat="46.08047" lon="5.19534">
        <ele>281.4</ele>
        <time>2022-02-24T14:45:50Z</time>
      </trkpt>
      <trkpt lat="46.08053" lon="5.19533">
        <ele>281.6</ele>
        <time>2022-02-24T14:45:51Z</time>
      </trkpt>
      <trkpt lat="46.0806" lon="5.19532">
        <ele>281.6</ele>
        <time>2022-02-24T14:45:52Z</time>
      </trkpt>
      <trkpt lat="46.08066" lon="5.19531">
        <ele>281.6</ele>
        <time>2022-02-24T14:45:53Z</time>
      </trkpt>
      <trkpt lat="46.08072" lon="5.1953">
        <ele>281.6</ele>
        <time>2022-02-24T14:45:54Z</time>
      </trkpt>
      <trkpt lat="46.08079" lon="5.19529">
        <ele>281.8</ele>
        <time>2022-02-24T14:45:55Z</time>
      </trkpt>
      <trkpt lat="46.08085" lon="5.19528">
        <ele>281.8</ele>
        <time>2022-02-24T14:45:56Z</time>
      </trkpt>
      <trkpt lat="46.08092" lon="5.19527">
        <ele>281.8</ele>
        <time>2022-02-24T14:45:57Z</time>
      </trkpt>
      <trkpt lat="46.08098" lon="5.19526">
        <ele>282</ele>
        <time>2022-02-24T14:45:58Z</time>
      </trkpt>
      <trkpt lat="46.08105" lon="5.19525">
        <ele>282</ele>
        <time>2022-02-24T14:45:59Z</time>
      </trkpt>
      <trkpt lat="46.08112" lon="5.19524">
        <ele>282</ele>
        <time>2022-02-24T14:46:00Z</time>
      </trkpt>
      <trkpt lat="46.08118" lon="5.19523">
        <ele>282</ele>
        <time>2022-02-24T14:46:01Z</time>
      </trkpt>
      <trkpt lat="46.08125" lon="5.19522">
        <ele>282</ele>
        <time>2022-02-24T14:46:02Z</time>
      </trkpt>
      <trkpt lat="46.08132" lon="5.19521">
        <ele>282</ele>
        <time>2022-02-24T14:46:03Z</time>
      </trkpt>
      <trkpt lat="46.08139" lon="5.1952">
        <ele>282.2</ele>
        <time>2022-02-24T14:46:04Z</time>
      </trkpt>
      <trkpt lat="46.08146" lon="5.19519">
        <ele>282.2</ele>
        <time>2022-02-24T14:46:05Z</time>
      </trkpt>
      <trkpt lat="46.08153" lon="5.19518">
        <ele>282.2</ele>
        <time>2022-02-24T14:46:06Z</time>
      </trkpt>
      <trkpt lat="46.0816" lon="5.19517">
        <ele>282.2</ele>
        <time>2022-02-24T14:46:07Z</time>
      </trkpt>
      <trkpt lat="46.08167" lon="5.19516">
        <ele>282.2</ele>
        <time>2022-02-24T14:46:08Z</time>
      </trkpt>
      <trkpt lat="46.08174" lon="5.19515">
        <ele>282.2</ele>
        <time>2022-02-24T14:46:09Z</time>
      </trkpt>
      <trkpt lat="46.08181" lon="5.19514">
        <ele>282.2</ele>
        <time>2022-02-24T14:46:10Z</time>
      </trkpt>
      <trkpt lat="46.08188" lon="5.19513">
        <ele>282.2</ele>
        <time>2022-02-24T14:46:11Z</time>
      </trkpt>
      <trkpt lat="46.08196" lon="5.19512">
        <ele>282.2</ele>
        <time>2022-02-24T14:46:12Z</time>
      </trkpt>
      <trkpt lat="46.08203" lon="5.19511">
        <ele>282.2</ele>
        <time>2022-02-24T14:46:13Z</time>
      </trkpt>
      <trkpt lat="46.0821" lon="5.1951">
        <ele>282.2</ele>
        <time>2022-02-24T14:46:14Z</time>
      </trkpt>
      <trkpt lat="46.08218" lon="5.19509">
        <ele>282.2</ele>
        <time>2022-02-24T14:46:15Z</time>
      </trkpt>
      <trkpt lat="46.08225" lon="5.19508">
        <ele>282.2</ele>
        <time>2022-02-24T14:46:16Z</time>
      </trkpt>
      <trkpt lat="46.08232" lon="5.19507">
        <ele>282.2</ele>
        <time>2022-02-24T14:46:17Z</time>
      </trkpt>
      <trkpt lat="46.0824" lon="5.19506">
        <ele>282.6</ele>
        <time>2022-02-24T14:46:18Z</time>
      </trkpt>
      <trkpt lat="46.08247" lon="5.19505">
        <ele>282.6</ele>
        <time>2022-02-24T14:46:19Z</time>
      </trkpt>
      <trkpt lat="46.08255" lon="5.19504">
        <ele>282.6</ele>
        <time>2022-02-24T14:46:20Z</time>
      </trkpt>
      <trkpt lat="46.08262" lon="5.19503">
        <ele>282.6</ele>
        <time>2022-02-24T14:46:21Z</time>
      </trkpt>
      <trkpt lat="46.0827" lon="5.19502">
        <ele>282.6</ele>
        <time>2022-02-24T14:46:22Z</time>
      </trkpt>
      <trkpt lat="46.08278" lon="5.195">
        <ele>282.6</ele>
        <time>2022-02-24T14:46:23Z</time>
      </trkpt>
      <trkpt lat="46.08286" lon="5.19499">
        <ele>282.2</ele>
        <time>2022-02-24T14:46:24Z</time>
      </trkpt>
      <trkpt lat="46.08295" lon="5.19498">
        <ele>282.2</ele>
        <time>2022-02-24T14:46:25Z</time>
      </trkpt>
      <trkpt lat="46.08303" lon="5.19496">
        <ele>282</ele>
        <time>2022-02-24T14:46:26Z</time>
      </trkpt>
      <trkpt lat="46.08311" lon="5.19495">
        <ele>282</ele>
        <time>2022-02-24T14:46:27Z</time>
      </trkpt>
      <trkpt lat="46.08319" lon="5.19494">
        <ele>281.8</ele>
        <time>2022-02-24T14:46:28Z</time>
      </trkpt>
      <trkpt lat="46.08328" lon="5.19493">
        <ele>281.6</ele>
        <time>2022-02-24T14:46:29Z</time>
      </trkpt>
      <trkpt lat="46.08336" lon="5.19492">
        <ele>281.6</ele>
        <time>2022-02-24T14:46:30Z</time>
      </trkpt>
      <trkpt lat="46.08345" lon="5.19491">
        <ele>281.2</ele>
        <time>2022-02-24T14:46:31Z</time>
      </trkpt>
      <trkpt lat="46.08353" lon="5.19489">
        <ele>281</ele>
        <time>2022-02-24T14:46:32Z</time>
      </trkpt>
      <trkpt lat="46.08362" lon="5.19488">
        <ele>280.8</ele>
        <time>2022-02-24T14:46:33Z</time>
      </trkpt>
      <trkpt lat="46.08371" lon="5.19487">
        <ele>280.8</ele>
        <time>2022-02-24T14:46:34Z</time>
      </trkpt>
      <trkpt lat="46.0838" lon="5.19485">
        <ele>280.4</ele>
        <time>2022-02-24T14:46:35Z</time>
      </trkpt>
      <trkpt lat="46.08389" lon="5.19484">
        <ele>280.2</ele>
        <time>2022-02-24T14:46:36Z</time>
      </trkpt>
      <trkpt lat="46.08397" lon="5.19483">
        <ele>280.2</ele>
        <time>2022-02-24T14:46:37Z</time>
      </trkpt>
      <trkpt lat="46.08406" lon="5.19481">
        <ele>279.8</ele>
        <time>2022-02-24T14:46:38Z</time>
      </trkpt>
      <trkpt lat="46.08416" lon="5.1948">
        <ele>279.6</ele>
        <time>2022-02-24T14:46:39Z</time>
      </trkpt>
      <trkpt lat="46.08425" lon="5.1948">
        <ele>279.4</ele>
        <time>2022-02-24T14:46:40Z</time>
      </trkpt>
      <trkpt lat="46.08434" lon="5.19478">
        <ele>279.4</ele>
        <time>2022-02-24T14:46:41Z</time>
      </trkpt>
      <trkpt lat="46.08444" lon="5.19477">
        <ele>279</ele>
        <time>2022-02-24T14:46:42Z</time>
      </trkpt>
      <trkpt lat="46.08453" lon="5.19475">
        <ele>279</ele>
        <time>2022-02-24T14:46:43Z</time>
      </trkpt>
      <trkpt lat="46.08462" lon="5.19474">
        <ele>279</ele>
        <time>2022-02-24T14:46:44Z</time>
      </trkpt>
      <trkpt lat="46.08471" lon="5.19472">
        <ele>278.6</ele>
        <time>2022-02-24T14:46:45Z</time>
      </trkpt>
      <trkpt lat="46.0848" lon="5.1947">
        <ele>278.6</ele>
        <time>2022-02-24T14:46:46Z</time>
      </trkpt>
      <trkpt lat="46.08488" lon="5.19469">
        <ele>278.4</ele>
        <time>2022-02-24T14:46:47Z</time>
      </trkpt>
      <trkpt lat="46.08497" lon="5.19467">
        <ele>278.4</ele>
        <time>2022-02-24T14:46:48Z</time>
      </trkpt>
      <trkpt lat="46.08505" lon="5.19466">
        <ele>278.4</ele>
        <time>2022-02-24T14:46:49Z</time>
      </trkpt>
      <trkpt lat="46.08513" lon="5.19464">
        <ele>278.4</ele>
        <time>2022-02-24T14:46:50Z</time>
      </trkpt>
      <trkpt lat="46.08521" lon="5.19463">
        <ele>278.4</ele>
        <time>2022-02-24T14:46:51Z</time>
      </trkpt>
      <trkpt lat="46.08529" lon="5.19462">
        <ele>278.4</ele>
        <time>2022-02-24T14:46:52Z</time>
      </trkpt>
      <trkpt lat="46.08536" lon="5.19462">
        <ele>278.4</ele>
        <time>2022-02-24T14:46:53Z</time>
      </trkpt>
      <trkpt lat="46.08544" lon="5.1946">
        <ele>278.4</ele>
        <time>2022-02-24T14:46:54Z</time>
      </trkpt>
      <trkpt lat="46.08551" lon="5.1946">
        <ele>278.4</ele>
        <time>2022-02-24T14:46:55Z</time>
      </trkpt>
      <trkpt lat="46.08558" lon="5.19459">
        <ele>278.4</ele>
        <time>2022-02-24T14:46:56Z</time>
      </trkpt>
      <trkpt lat="46.08564" lon="5.19458">
        <ele>278.6</ele>
        <time>2022-02-24T14:46:57Z</time>
      </trkpt>
      <trkpt lat="46.08571" lon="5.19457">
        <ele>278.6</ele>
        <time>2022-02-24T14:46:58Z</time>
      </trkpt>
      <trkpt lat="46.08578" lon="5.19456">
        <ele>279</ele>
        <time>2022-02-24T14:46:59Z</time>
      </trkpt>
      <trkpt lat="46.08585" lon="5.19455">
        <ele>279</ele>
        <time>2022-02-24T14:47:00Z</time>
      </trkpt>
      <trkpt lat="46.08592" lon="5.19454">
        <ele>279</ele>
        <time>2022-02-24T14:47:01Z</time>
      </trkpt>
      <trkpt lat="46.08598" lon="5.19453">
        <ele>279</ele>
        <time>2022-02-24T14:47:02Z</time>
      </trkpt>
      <trkpt lat="46.08605" lon="5.19452">
        <ele>279</ele>
        <time>2022-02-24T14:47:03Z</time>
      </trkpt>
      <trkpt lat="46.08612" lon="5.19451">
        <ele>279.2</ele>
        <time>2022-02-24T14:47:04Z</time>
      </trkpt>
      <trkpt lat="46.08618" lon="5.1945">
        <ele>279.2</ele>
        <time>2022-02-24T14:47:05Z</time>
      </trkpt>
      <trkpt lat="46.08625" lon="5.19449">
        <ele>279.2</ele>
        <time>2022-02-24T14:47:06Z</time>
      </trkpt>
      <trkpt lat="46.08632" lon="5.19448">
        <ele>279.2</ele>
        <time>2022-02-24T14:47:07Z</time>
      </trkpt>
      <trkpt lat="46.08638" lon="5.19447">
        <ele>279.2</ele>
        <time>2022-02-24T14:47:08Z</time>
      </trkpt>
      <trkpt lat="46.08645" lon="5.19446">
        <ele>279.2</ele>
        <time>2022-02-24T14:47:09Z</time>
      </trkpt>
      <trkpt lat="46.08652" lon="5.19445">
        <ele>279.2</ele>
        <time>2022-02-24T14:47:10Z</time>
      </trkpt>
      <trkpt lat="46.08659" lon="5.19444">
        <ele>279.2</ele>
        <time>2022-02-24T14:47:11Z</time>
      </trkpt>
      <trkpt lat="46.08666" lon="5.19443">
        <ele>279.2</ele>
        <time>2022-02-24T14:47:12Z</time>
      </trkpt>
      <trkpt lat="46.08673" lon="5.19443">
        <ele>279.2</ele>
        <time>2022-02-24T14:47:13Z</time>
      </trkpt>
      <trkpt lat="46.0868" lon="5.19441">
        <ele>279.2</ele>
        <time>2022-02-24T14:47:14Z</time>
      </trkpt>
      <trkpt lat="46.08687" lon="5.1944">
        <ele>279.2</ele>
        <time>2022-02-24T14:47:15Z</time>
      </trkpt>
      <trkpt lat="46.08694" lon="5.1944">
        <ele>279.2</ele>
        <time>2022-02-24T14:47:16Z</time>
      </trkpt>
      <trkpt lat="46.08701" lon="5.19439">
        <ele>279.2</ele>
        <time>2022-02-24T14:47:17Z</time>
      </trkpt>
      <trkpt lat="46.08708" lon="5.19438">
        <ele>279.2</ele>
        <time>2022-02-24T14:47:18Z</time>
      </trkpt>
      <trkpt lat="46.08715" lon="5.19437">
        <ele>279.2</ele>
        <time>2022-02-24T14:47:19Z</time>
      </trkpt>
      <trkpt lat="46.08722" lon="5.19436">
        <ele>279.2</ele>
        <time>2022-02-24T14:47:20Z</time>
      </trkpt>
      <trkpt lat="46.08729" lon="5.19435">
        <ele>279.2</ele>
        <time>2022-02-24T14:47:21Z</time>
      </trkpt>
      <trkpt lat="46.08737" lon="5.19434">
        <ele>279.2</ele>
        <time>2022-02-24T14:47:22Z</time>
      </trkpt>
      <trkpt lat="46.08744" lon="5.19433">
        <ele>279.2</ele>
        <time>2022-02-24T14:47:23Z</time>
      </trkpt>
      <trkpt lat="46.08751" lon="5.19432">
        <ele>279.2</ele>
        <time>2022-02-24T14:47:24Z</time>
      </trkpt>
      <trkpt lat="46.08758" lon="5.19431">
        <ele>279.6</ele>
        <time>2022-02-24T14:47:25Z</time>
      </trkpt>
      <trkpt lat="46.08766" lon="5.1943">
        <ele>279.6</ele>
        <time>2022-02-24T14:47:26Z</time>
      </trkpt>
      <trkpt lat="46.08774" lon="5.19429">
        <ele>279.4</ele>
        <time>2022-02-24T14:47:27Z</time>
      </trkpt>
      <trkpt lat="46.08781" lon="5.19427">
        <ele>279.4</ele>
        <time>2022-02-24T14:47:28Z</time>
      </trkpt>
      <trkpt lat="46.08789" lon="5.19426">
        <ele>279.2</ele>
        <time>2022-02-24T14:47:29Z</time>
      </trkpt>
      <trkpt lat="46.08797" lon="5.19425">
        <ele>279.2</ele>
        <time>2022-02-24T14:47:30Z</time>
      </trkpt>
      <trkpt lat="46.08805" lon="5.19424">
        <ele>279.2</ele>
        <time>2022-02-24T14:47:31Z</time>
      </trkpt>
      <trkpt lat="46.08813" lon="5.19423">
        <ele>279.2</ele>
        <time>2022-02-24T14:47:32Z</time>
      </trkpt>
      <trkpt lat="46.08821" lon="5.19422">
        <ele>279</ele>
        <time>2022-02-24T14:47:33Z</time>
      </trkpt>
      <trkpt lat="46.08829" lon="5.19421">
        <ele>279</ele>
        <time>2022-02-24T14:47:34Z</time>
      </trkpt>
      <trkpt lat="46.08836" lon="5.1942">
        <ele>279</ele>
        <time>2022-02-24T14:47:35Z</time>
      </trkpt>
      <trkpt lat="46.08844" lon="5.19419">
        <ele>279</ele>
        <time>2022-02-24T14:47:36Z</time>
      </trkpt>
      <trkpt lat="46.08852" lon="5.19418">
        <ele>279</ele>
        <time>2022-02-24T14:47:37Z</time>
      </trkpt>
      <trkpt lat="46.0886" lon="5.19417">
        <ele>279</ele>
        <time>2022-02-24T14:47:38Z</time>
      </trkpt>
      <trkpt lat="46.08868" lon="5.19415">
        <ele>279</ele>
        <time>2022-02-24T14:47:39Z</time>
      </trkpt>
      <trkpt lat="46.08875" lon="5.19414">
        <ele>279</ele>
        <time>2022-02-24T14:47:40Z</time>
      </trkpt>
      <trkpt lat="46.08883" lon="5.19413">
        <ele>279</ele>
        <time>2022-02-24T14:47:41Z</time>
      </trkpt>
      <trkpt lat="46.0889" lon="5.19411">
        <ele>279</ele>
        <time>2022-02-24T14:47:42Z</time>
      </trkpt>
      <trkpt lat="46.08898" lon="5.1941">
        <ele>279</ele>
        <time>2022-02-24T14:47:43Z</time>
      </trkpt>
      <trkpt lat="46.08905" lon="5.19409">
        <ele>279</ele>
        <time>2022-02-24T14:47:44Z</time>
      </trkpt>
      <trkpt lat="46.08913" lon="5.19408">
        <ele>279</ele>
        <time>2022-02-24T14:47:45Z</time>
      </trkpt>
      <trkpt lat="46.0892" lon="5.19407">
        <ele>279.2</ele>
        <time>2022-02-24T14:47:46Z</time>
      </trkpt>
      <trkpt lat="46.08927" lon="5.19406">
        <ele>279.2</ele>
        <time>2022-02-24T14:47:47Z</time>
      </trkpt>
      <trkpt lat="46.08935" lon="5.19405">
        <ele>279.2</ele>
        <time>2022-02-24T14:47:48Z</time>
      </trkpt>
      <trkpt lat="46.08942" lon="5.19404">
        <ele>279.2</ele>
        <time>2022-02-24T14:47:49Z</time>
      </trkpt>
      <trkpt lat="46.0895" lon="5.19403">
        <ele>279.2</ele>
        <time>2022-02-24T14:47:50Z</time>
      </trkpt>
      <trkpt lat="46.08957" lon="5.19402">
        <ele>279.2</ele>
        <time>2022-02-24T14:47:51Z</time>
      </trkpt>
      <trkpt lat="46.08965" lon="5.19401">
        <ele>279.2</ele>
        <time>2022-02-24T14:47:52Z</time>
      </trkpt>
      <trkpt lat="46.08972" lon="5.194">
        <ele>279.2</ele>
        <time>2022-02-24T14:47:53Z</time>
      </trkpt>
      <trkpt lat="46.08972" lon="5.194">
        <ele>279.2</ele>
        <time>2022-02-24T14:47:54Z</time>
      </trkpt>
      <trkpt lat="46.0898" lon="5.19399">
        <ele>279.2</ele>
        <time>2022-02-24T14:47:55Z</time>
      </trkpt>
      <trkpt lat="46.08988" lon="5.19398">
        <ele>279.6</ele>
        <time>2022-02-24T14:47:56Z</time>
      </trkpt>
      <trkpt lat="46.08995" lon="5.19397">
        <ele>279.6</ele>
        <time>2022-02-24T14:47:57Z</time>
      </trkpt>
      <trkpt lat="46.09003" lon="5.19395">
        <ele>279.6</ele>
        <time>2022-02-24T14:47:58Z</time>
      </trkpt>
      <trkpt lat="46.09011" lon="5.19394">
        <ele>279.6</ele>
        <time>2022-02-24T14:47:59Z</time>
      </trkpt>
      <trkpt lat="46.09018" lon="5.19393">
        <ele>279.6</ele>
        <time>2022-02-24T14:48:00Z</time>
      </trkpt>
      <trkpt lat="46.09026" lon="5.19392">
        <ele>279.6</ele>
        <time>2022-02-24T14:48:01Z</time>
      </trkpt>
      <trkpt lat="46.09034" lon="5.19391">
        <ele>279.6</ele>
        <time>2022-02-24T14:48:02Z</time>
      </trkpt>
      <trkpt lat="46.09042" lon="5.1939">
        <ele>279.2</ele>
        <time>2022-02-24T14:48:03Z</time>
      </trkpt>
      <trkpt lat="46.0905" lon="5.19389">
        <ele>279.2</ele>
        <time>2022-02-24T14:48:04Z</time>
      </trkpt>
      <trkpt lat="46.09058" lon="5.19388">
        <ele>279</ele>
        <time>2022-02-24T14:48:05Z</time>
      </trkpt>
      <trkpt lat="46.09066" lon="5.19386">
        <ele>279</ele>
        <time>2022-02-24T14:48:06Z</time>
      </trkpt>
      <trkpt lat="46.09074" lon="5.19385">
        <ele>279</ele>
        <time>2022-02-24T14:48:07Z</time>
      </trkpt>
      <trkpt lat="46.09082" lon="5.19384">
        <ele>279</ele>
        <time>2022-02-24T14:48:08Z</time>
      </trkpt>
      <trkpt lat="46.0909" lon="5.19383">
        <ele>278.8</ele>
        <time>2022-02-24T14:48:09Z</time>
      </trkpt>
      <trkpt lat="46.09098" lon="5.19382">
        <ele>278.8</ele>
        <time>2022-02-24T14:48:10Z</time>
      </trkpt>
      <trkpt lat="46.09105" lon="5.1938">
        <ele>278.8</ele>
        <time>2022-02-24T14:48:11Z</time>
      </trkpt>
      <trkpt lat="46.09113" lon="5.19379">
        <ele>278.8</ele>
        <time>2022-02-24T14:48:12Z</time>
      </trkpt>
      <trkpt lat="46.09121" lon="5.19378">
        <ele>278.8</ele>
        <time>2022-02-24T14:48:13Z</time>
      </trkpt>
      <trkpt lat="46.09129" lon="5.19377">
        <ele>278.8</ele>
        <time>2022-02-24T14:48:14Z</time>
      </trkpt>
      <trkpt lat="46.09136" lon="5.19376">
        <ele>278.8</ele>
        <time>2022-02-24T14:48:15Z</time>
      </trkpt>
      <trkpt lat="46.09144" lon="5.19375">
        <ele>278.8</ele>
        <time>2022-02-24T14:48:16Z</time>
      </trkpt>
      <trkpt lat="46.09152" lon="5.19374">
        <ele>278.8</ele>
        <time>2022-02-24T14:48:17Z</time>
      </trkpt>
      <trkpt lat="46.09159" lon="5.19373">
        <ele>278.8</ele>
        <time>2022-02-24T14:48:18Z</time>
      </trkpt>
      <trkpt lat="46.09167" lon="5.19372">
        <ele>278.8</ele>
        <time>2022-02-24T14:48:19Z</time>
      </trkpt>
      <trkpt lat="46.09175" lon="5.19371">
        <ele>278.8</ele>
        <time>2022-02-24T14:48:20Z</time>
      </trkpt>
      <trkpt lat="46.09182" lon="5.19369">
        <ele>278.8</ele>
        <time>2022-02-24T14:48:21Z</time>
      </trkpt>
      <trkpt lat="46.0919" lon="5.19368">
        <ele>278.6</ele>
        <time>2022-02-24T14:48:22Z</time>
      </trkpt>
      <trkpt lat="46.09197" lon="5.19367">
        <ele>278.6</ele>
        <time>2022-02-24T14:48:23Z</time>
      </trkpt>
      <trkpt lat="46.09205" lon="5.19365">
        <ele>278.6</ele>
        <time>2022-02-24T14:48:24Z</time>
      </trkpt>
      <trkpt lat="46.09212" lon="5.19364">
        <ele>278.4</ele>
        <time>2022-02-24T14:48:25Z</time>
      </trkpt>
      <trkpt lat="46.0922" lon="5.19361">
        <ele>278.4</ele>
        <time>2022-02-24T14:48:26Z</time>
      </trkpt>
      <trkpt lat="46.09227" lon="5.19358">
        <ele>278.4</ele>
        <time>2022-02-24T14:48:27Z</time>
      </trkpt>
      <trkpt lat="46.09234" lon="5.19355">
        <ele>278.4</ele>
        <time>2022-02-24T14:48:28Z</time>
      </trkpt>
      <trkpt lat="46.09241" lon="5.19352">
        <ele>278.4</ele>
        <time>2022-02-24T14:48:29Z</time>
      </trkpt>
      <trkpt lat="46.09249" lon="5.19349">
        <ele>278.4</ele>
        <time>2022-02-24T14:48:30Z</time>
      </trkpt>
      <trkpt lat="46.09256" lon="5.19345">
        <ele>278.4</ele>
        <time>2022-02-24T14:48:31Z</time>
      </trkpt>
      <trkpt lat="46.09262" lon="5.19341">
        <ele>278.4</ele>
        <time>2022-02-24T14:48:32Z</time>
      </trkpt>
      <trkpt lat="46.09269" lon="5.19337">
        <ele>278.4</ele>
        <time>2022-02-24T14:48:33Z</time>
      </trkpt>
      <trkpt lat="46.09276" lon="5.19333">
        <ele>278.4</ele>
        <time>2022-02-24T14:48:34Z</time>
      </trkpt>
      <trkpt lat="46.09283" lon="5.19329">
        <ele>278.2</ele>
        <time>2022-02-24T14:48:35Z</time>
      </trkpt>
      <trkpt lat="46.09291" lon="5.19325">
        <ele>278.2</ele>
        <time>2022-02-24T14:48:36Z</time>
      </trkpt>
      <trkpt lat="46.09298" lon="5.19321">
        <ele>278.2</ele>
        <time>2022-02-24T14:48:37Z</time>
      </trkpt>
      <trkpt lat="46.09305" lon="5.19317">
        <ele>278.2</ele>
        <time>2022-02-24T14:48:38Z</time>
      </trkpt>
      <trkpt lat="46.09312" lon="5.19313">
        <ele>278.2</ele>
        <time>2022-02-24T14:48:39Z</time>
      </trkpt>
      <trkpt lat="46.09319" lon="5.19309">
        <ele>277.8</ele>
        <time>2022-02-24T14:48:40Z</time>
      </trkpt>
      <trkpt lat="46.09326" lon="5.19305">
        <ele>277.8</ele>
        <time>2022-02-24T14:48:41Z</time>
      </trkpt>
      <trkpt lat="46.09334" lon="5.193">
        <ele>277.8</ele>
        <time>2022-02-24T14:48:42Z</time>
      </trkpt>
      <trkpt lat="46.09341" lon="5.19296">
        <ele>277.6</ele>
        <time>2022-02-24T14:48:43Z</time>
      </trkpt>
      <trkpt lat="46.09349" lon="5.19292">
        <ele>277.6</ele>
        <time>2022-02-24T14:48:44Z</time>
      </trkpt>
      <trkpt lat="46.09356" lon="5.19287">
        <ele>277.2</ele>
        <time>2022-02-24T14:48:45Z</time>
      </trkpt>
      <trkpt lat="46.09364" lon="5.19283">
        <ele>277</ele>
        <time>2022-02-24T14:48:46Z</time>
      </trkpt>
      <trkpt lat="46.09372" lon="5.19279">
        <ele>277</ele>
        <time>2022-02-24T14:48:47Z</time>
      </trkpt>
      <trkpt lat="46.0938" lon="5.19274">
        <ele>277</ele>
        <time>2022-02-24T14:48:48Z</time>
      </trkpt>
      <trkpt lat="46.09388" lon="5.1927">
        <ele>276.8</ele>
        <time>2022-02-24T14:48:49Z</time>
      </trkpt>
      <trkpt lat="46.09396" lon="5.19265">
        <ele>276.8</ele>
        <time>2022-02-24T14:48:50Z</time>
      </trkpt>
      <trkpt lat="46.09404" lon="5.1926">
        <ele>276.6</ele>
        <time>2022-02-24T14:48:51Z</time>
      </trkpt>
      <trkpt lat="46.09412" lon="5.19255">
        <ele>276.6</ele>
        <time>2022-02-24T14:48:52Z</time>
      </trkpt>
      <trkpt lat="46.0942" lon="5.19251">
        <ele>276.4</ele>
        <time>2022-02-24T14:48:53Z</time>
      </trkpt>
      <trkpt lat="46.09429" lon="5.19246">
        <ele>276.4</ele>
        <time>2022-02-24T14:48:54Z</time>
      </trkpt>
      <trkpt lat="46.09437" lon="5.1924">
        <ele>276</ele>
        <time>2022-02-24T14:48:55Z</time>
      </trkpt>
      <trkpt lat="46.09446" lon="5.19235">
        <ele>276</ele>
        <time>2022-02-24T14:48:56Z</time>
      </trkpt>
      <trkpt lat="46.09454" lon="5.1923">
        <ele>275.4</ele>
        <time>2022-02-24T14:48:57Z</time>
      </trkpt>
      <trkpt lat="46.09462" lon="5.19225">
        <ele>275.2</ele>
        <time>2022-02-24T14:48:58Z</time>
      </trkpt>
      <trkpt lat="46.09471" lon="5.1922">
        <ele>275</ele>
        <time>2022-02-24T14:48:59Z</time>
      </trkpt>
      <trkpt lat="46.0948" lon="5.19215">
        <ele>275</ele>
        <time>2022-02-24T14:49:00Z</time>
      </trkpt>
      <trkpt lat="46.09489" lon="5.19211">
        <ele>275</ele>
        <time>2022-02-24T14:49:01Z</time>
      </trkpt>
      <trkpt lat="46.09497" lon="5.19206">
        <ele>275</ele>
        <time>2022-02-24T14:49:02Z</time>
      </trkpt>
      <trkpt lat="46.09506" lon="5.19201">
        <ele>275</ele>
        <time>2022-02-24T14:49:03Z</time>
      </trkpt>
      <trkpt lat="46.09514" lon="5.19196">
        <ele>274.8</ele>
        <time>2022-02-24T14:49:04Z</time>
      </trkpt>
      <trkpt lat="46.09523" lon="5.19192">
        <ele>274.6</ele>
        <time>2022-02-24T14:49:05Z</time>
      </trkpt>
      <trkpt lat="46.09531" lon="5.19186">
        <ele>274.6</ele>
        <time>2022-02-24T14:49:06Z</time>
      </trkpt>
      <trkpt lat="46.09539" lon="5.19182">
        <ele>274.6</ele>
        <time>2022-02-24T14:49:07Z</time>
      </trkpt>
      <trkpt lat="46.09548" lon="5.19178">
        <ele>274.6</ele>
        <time>2022-02-24T14:49:08Z</time>
      </trkpt>
      <trkpt lat="46.09556" lon="5.19173">
        <ele>274.6</ele>
        <time>2022-02-24T14:49:09Z</time>
      </trkpt>
      <trkpt lat="46.09564" lon="5.19168">
        <ele>274.6</ele>
        <time>2022-02-24T14:49:10Z</time>
      </trkpt>
      <trkpt lat="46.09572" lon="5.19163">
        <ele>274.6</ele>
        <time>2022-02-24T14:49:11Z</time>
      </trkpt>
      <trkpt lat="46.0958" lon="5.19158">
        <ele>274.6</ele>
        <time>2022-02-24T14:49:12Z</time>
      </trkpt>
      <trkpt lat="46.09588" lon="5.19153">
        <ele>274.6</ele>
        <time>2022-02-24T14:49:13Z</time>
      </trkpt>
      <trkpt lat="46.09597" lon="5.19148">
        <ele>274.6</ele>
        <time>2022-02-24T14:49:14Z</time>
      </trkpt>
      <trkpt lat="46.09605" lon="5.19144">
        <ele>274.6</ele>
        <time>2022-02-24T14:49:15Z</time>
      </trkpt>
      <trkpt lat="46.09613" lon="5.19139">
        <ele>274.6</ele>
        <time>2022-02-24T14:49:16Z</time>
      </trkpt>
      <trkpt lat="46.09621" lon="5.19134">
        <ele>274.6</ele>
        <time>2022-02-24T14:49:17Z</time>
      </trkpt>
      <trkpt lat="46.09629" lon="5.19129">
        <ele>274.6</ele>
        <time>2022-02-24T14:49:18Z</time>
      </trkpt>
      <trkpt lat="46.09637" lon="5.19125">
        <ele>274.6</ele>
        <time>2022-02-24T14:49:19Z</time>
      </trkpt>
      <trkpt lat="46.09645" lon="5.1912">
        <ele>274.6</ele>
        <time>2022-02-24T14:49:20Z</time>
      </trkpt>
      <trkpt lat="46.09654" lon="5.19116">
        <ele>274.6</ele>
        <time>2022-02-24T14:49:21Z</time>
      </trkpt>
      <trkpt lat="46.09662" lon="5.19111">
        <ele>274.6</ele>
        <time>2022-02-24T14:49:22Z</time>
      </trkpt>
      <trkpt lat="46.0967" lon="5.19106">
        <ele>274.4</ele>
        <time>2022-02-24T14:49:23Z</time>
      </trkpt>
      <trkpt lat="46.09678" lon="5.19101">
        <ele>274.4</ele>
        <time>2022-02-24T14:49:24Z</time>
      </trkpt>
      <trkpt lat="46.09686" lon="5.19097">
        <ele>273.8</ele>
        <time>2022-02-24T14:49:25Z</time>
      </trkpt>
      <trkpt lat="46.09695" lon="5.19092">
        <ele>273.6</ele>
        <time>2022-02-24T14:49:26Z</time>
      </trkpt>
      <trkpt lat="46.09703" lon="5.19088">
        <ele>273.4</ele>
        <time>2022-02-24T14:49:27Z</time>
      </trkpt>
      <trkpt lat="46.09711" lon="5.19082">
        <ele>273.4</ele>
        <time>2022-02-24T14:49:28Z</time>
      </trkpt>
      <trkpt lat="46.09718" lon="5.19078">
        <ele>273</ele>
        <time>2022-02-24T14:49:29Z</time>
      </trkpt>
      <trkpt lat="46.09727" lon="5.19073">
        <ele>273</ele>
        <time>2022-02-24T14:49:30Z</time>
      </trkpt>
      <trkpt lat="46.09735" lon="5.19068">
        <ele>272.8</ele>
        <time>2022-02-24T14:49:31Z</time>
      </trkpt>
      <trkpt lat="46.09743" lon="5.19064">
        <ele>272.8</ele>
        <time>2022-02-24T14:49:32Z</time>
      </trkpt>
      <trkpt lat="46.09751" lon="5.19059">
        <ele>272.6</ele>
        <time>2022-02-24T14:49:33Z</time>
      </trkpt>
      <trkpt lat="46.09759" lon="5.19054">
        <ele>272.6</ele>
        <time>2022-02-24T14:49:34Z</time>
      </trkpt>
      <trkpt lat="46.09767" lon="5.1905">
        <ele>272.2</ele>
        <time>2022-02-24T14:49:35Z</time>
      </trkpt>
      <trkpt lat="46.09775" lon="5.19045">
        <ele>272</ele>
        <time>2022-02-24T14:49:36Z</time>
      </trkpt>
      <trkpt lat="46.09783" lon="5.1904">
        <ele>272</ele>
        <time>2022-02-24T14:49:37Z</time>
      </trkpt>
      <trkpt lat="46.09791" lon="5.19035">
        <ele>271.6</ele>
        <time>2022-02-24T14:49:38Z</time>
      </trkpt>
      <trkpt lat="46.098" lon="5.19031">
        <ele>271.4</ele>
        <time>2022-02-24T14:49:39Z</time>
      </trkpt>
      <trkpt lat="46.09808" lon="5.19026">
        <ele>271</ele>
        <time>2022-02-24T14:49:40Z</time>
      </trkpt>
      <trkpt lat="46.09817" lon="5.19021">
        <ele>271</ele>
        <time>2022-02-24T14:49:41Z</time>
      </trkpt>
      <trkpt lat="46.09825" lon="5.19016">
        <ele>270.6</ele>
        <time>2022-02-24T14:49:42Z</time>
      </trkpt>
      <trkpt lat="46.09835" lon="5.1901">
        <ele>270.6</ele>
        <time>2022-02-24T14:49:43Z</time>
      </trkpt>
      <trkpt lat="46.09844" lon="5.19005">
        <ele>270.4</ele>
        <time>2022-02-24T14:49:44Z</time>
      </trkpt>
      <trkpt lat="46.09852" lon="5.19">
        <ele>270</ele>
        <time>2022-02-24T14:49:45Z</time>
      </trkpt>
      <trkpt lat="46.0986" lon="5.18994">
        <ele>269.8</ele>
        <time>2022-02-24T14:49:46Z</time>
      </trkpt>
      <trkpt lat="46.09869" lon="5.18989">
        <ele>269.6</ele>
        <time>2022-02-24T14:49:47Z</time>
      </trkpt>
      <trkpt lat="46.09878" lon="5.18984">
        <ele>269.6</ele>
        <time>2022-02-24T14:49:48Z</time>
      </trkpt>
      <trkpt lat="46.09887" lon="5.18979">
        <ele>269.2</ele>
        <time>2022-02-24T14:49:49Z</time>
      </trkpt>
      <trkpt lat="46.09896" lon="5.18974">
        <ele>269.2</ele>
        <time>2022-02-24T14:49:50Z</time>
      </trkpt>
      <trkpt lat="46.09905" lon="5.18969">
        <ele>268.6</ele>
        <time>2022-02-24T14:49:51Z</time>
      </trkpt>
      <trkpt lat="46.09913" lon="5.18965">
        <ele>268.2</ele>
        <time>2022-02-24T14:49:52Z</time>
      </trkpt>
      <trkpt lat="46.09922" lon="5.18961">
        <ele>267.8</ele>
        <time>2022-02-24T14:49:53Z</time>
      </trkpt>
      <trkpt lat="46.09932" lon="5.18957">
        <ele>267.4</ele>
        <time>2022-02-24T14:49:54Z</time>
      </trkpt>
      <trkpt lat="46.09942" lon="5.18955">
        <ele>267</ele>
        <time>2022-02-24T14:49:55Z</time>
      </trkpt>
      <trkpt lat="46.09953" lon="5.18954">
        <ele>266.8</ele>
        <time>2022-02-24T14:49:56Z</time>
      </trkpt>
      <trkpt lat="46.09964" lon="5.18955">
        <ele>266.4</ele>
        <time>2022-02-24T14:49:57Z</time>
      </trkpt>
      <trkpt lat="46.09974" lon="5.18955">
        <ele>266.4</ele>
        <time>2022-02-24T14:49:58Z</time>
      </trkpt>
      <trkpt lat="46.09985" lon="5.18954">
        <ele>266</ele>
        <time>2022-02-24T14:49:59Z</time>
      </trkpt>
      <trkpt lat="46.09994" lon="5.18953">
        <ele>266</ele>
        <time>2022-02-24T14:50:00Z</time>
      </trkpt>
      <trkpt lat="46.10002" lon="5.18953">
        <ele>266</ele>
        <time>2022-02-24T14:50:01Z</time>
      </trkpt>
      <trkpt lat="46.10011" lon="5.18953">
        <ele>266</ele>
        <time>2022-02-24T14:50:02Z</time>
      </trkpt>
      <trkpt lat="46.10021" lon="5.18953">
        <ele>266</ele>
        <time>2022-02-24T14:50:03Z</time>
      </trkpt>
      <trkpt lat="46.10031" lon="5.18953">
        <ele>265.6</ele>
        <time>2022-02-24T14:50:04Z</time>
      </trkpt>
      <trkpt lat="46.1004" lon="5.18952">
        <ele>265.6</ele>
        <time>2022-02-24T14:50:05Z</time>
      </trkpt>
      <trkpt lat="46.1005" lon="5.18952">
        <ele>265.4</ele>
        <time>2022-02-24T14:50:06Z</time>
      </trkpt>
      <trkpt lat="46.10059" lon="5.18954">
        <ele>265.2</ele>
        <time>2022-02-24T14:50:07Z</time>
      </trkpt>
      <trkpt lat="46.10069" lon="5.18954">
        <ele>265.2</ele>
        <time>2022-02-24T14:50:08Z</time>
      </trkpt>
      <trkpt lat="46.10079" lon="5.18953">
        <ele>264.8</ele>
        <time>2022-02-24T14:50:09Z</time>
      </trkpt>
      <trkpt lat="46.10089" lon="5.18952">
        <ele>264.8</ele>
        <time>2022-02-24T14:50:10Z</time>
      </trkpt>
      <trkpt lat="46.10097" lon="5.18951">
        <ele>264.8</ele>
        <time>2022-02-24T14:50:11Z</time>
      </trkpt>
      <trkpt lat="46.10107" lon="5.18951">
        <ele>264.8</ele>
        <time>2022-02-24T14:50:12Z</time>
      </trkpt>
      <trkpt lat="46.10115" lon="5.18952">
        <ele>264.8</ele>
        <time>2022-02-24T14:50:13Z</time>
      </trkpt>
      <trkpt lat="46.10124" lon="5.18951">
        <ele>264.8</ele>
        <time>2022-02-24T14:50:14Z</time>
      </trkpt>
      <trkpt lat="46.10132" lon="5.18951">
        <ele>264.8</ele>
        <time>2022-02-24T14:50:15Z</time>
      </trkpt>
      <trkpt lat="46.1014" lon="5.18951">
        <ele>265.2</ele>
        <time>2022-02-24T14:50:16Z</time>
      </trkpt>
      <trkpt lat="46.10148" lon="5.18951">
        <ele>265.2</ele>
        <time>2022-02-24T14:50:17Z</time>
      </trkpt>
      <trkpt lat="46.10156" lon="5.1895">
        <ele>265.4</ele>
        <time>2022-02-24T14:50:18Z</time>
      </trkpt>
      <trkpt lat="46.10164" lon="5.1895">
        <ele>265.4</ele>
        <time>2022-02-24T14:50:19Z</time>
      </trkpt>
      <trkpt lat="46.10171" lon="5.1895">
        <ele>265.8</ele>
        <time>2022-02-24T14:50:20Z</time>
      </trkpt>
      <trkpt lat="46.10178" lon="5.1895">
        <ele>265.8</ele>
        <time>2022-02-24T14:50:21Z</time>
      </trkpt>
      <trkpt lat="46.10186" lon="5.1895">
        <ele>265.8</ele>
        <time>2022-02-24T14:50:22Z</time>
      </trkpt>
      <trkpt lat="46.10193" lon="5.1895">
        <ele>266</ele>
        <time>2022-02-24T14:50:23Z</time>
      </trkpt>
      <trkpt lat="46.102" lon="5.1895">
        <ele>266</ele>
        <time>2022-02-24T14:50:24Z</time>
      </trkpt>
      <trkpt lat="46.10207" lon="5.1895">
        <ele>266</ele>
        <time>2022-02-24T14:50:25Z</time>
      </trkpt>
      <trkpt lat="46.10214" lon="5.18951">
        <ele>266</ele>
        <time>2022-02-24T14:50:26Z</time>
      </trkpt>
      <trkpt lat="46.10221" lon="5.18952">
        <ele>266</ele>
        <time>2022-02-24T14:50:27Z</time>
      </trkpt>
      <trkpt lat="46.10229" lon="5.18954">
        <ele>266</ele>
        <time>2022-02-24T14:50:28Z</time>
      </trkpt>
      <trkpt lat="46.10236" lon="5.18956">
        <ele>266</ele>
        <time>2022-02-24T14:50:29Z</time>
      </trkpt>
      <trkpt lat="46.10244" lon="5.18958">
        <ele>266</ele>
        <time>2022-02-24T14:50:30Z</time>
      </trkpt>
      <trkpt lat="46.10252" lon="5.18961">
        <ele>265.8</ele>
        <time>2022-02-24T14:50:31Z</time>
      </trkpt>
      <trkpt lat="46.1026" lon="5.18963">
        <ele>265.6</ele>
        <time>2022-02-24T14:50:32Z</time>
      </trkpt>
      <trkpt lat="46.10268" lon="5.18966">
        <ele>265.4</ele>
        <time>2022-02-24T14:50:33Z</time>
      </trkpt>
      <trkpt lat="46.10277" lon="5.18969">
        <ele>265.2</ele>
        <time>2022-02-24T14:50:34Z</time>
      </trkpt>
      <trkpt lat="46.10285" lon="5.18972">
        <ele>265.2</ele>
        <time>2022-02-24T14:50:35Z</time>
      </trkpt>
      <trkpt lat="46.10293" lon="5.18975">
        <ele>264.8</ele>
        <time>2022-02-24T14:50:36Z</time>
      </trkpt>
      <trkpt lat="46.10302" lon="5.18978">
        <ele>264.4</ele>
        <time>2022-02-24T14:50:37Z</time>
      </trkpt>
      <trkpt lat="46.10311" lon="5.1898">
        <ele>264.4</ele>
        <time>2022-02-24T14:50:38Z</time>
      </trkpt>
      <trkpt lat="46.10319" lon="5.18983">
        <ele>264</ele>
        <time>2022-02-24T14:50:39Z</time>
      </trkpt>
      <trkpt lat="46.10328" lon="5.18986">
        <ele>263.8</ele>
        <time>2022-02-24T14:50:40Z</time>
      </trkpt>
      <trkpt lat="46.10336" lon="5.18989">
        <ele>263.6</ele>
        <time>2022-02-24T14:50:41Z</time>
      </trkpt>
      <trkpt lat="46.10345" lon="5.18992">
        <ele>263.4</ele>
        <time>2022-02-24T14:50:42Z</time>
      </trkpt>
      <trkpt lat="46.10354" lon="5.18994">
        <ele>263.4</ele>
        <time>2022-02-24T14:50:43Z</time>
      </trkpt>
      <trkpt lat="46.10362" lon="5.18997">
        <ele>263.2</ele>
        <time>2022-02-24T14:50:44Z</time>
      </trkpt>
      <trkpt lat="46.10371" lon="5.19">
        <ele>263.2</ele>
        <time>2022-02-24T14:50:45Z</time>
      </trkpt>
      <trkpt lat="46.10379" lon="5.19003">
        <ele>262.8</ele>
        <time>2022-02-24T14:50:46Z</time>
      </trkpt>
      <trkpt lat="46.10388" lon="5.19005">
        <ele>262.8</ele>
        <time>2022-02-24T14:50:47Z</time>
      </trkpt>
      <trkpt lat="46.10397" lon="5.19007">
        <ele>262.8</ele>
        <time>2022-02-24T14:50:48Z</time>
      </trkpt>
      <trkpt lat="46.10405" lon="5.1901">
        <ele>262.6</ele>
        <time>2022-02-24T14:50:49Z</time>
      </trkpt>
      <trkpt lat="46.10414" lon="5.19013">
        <ele>262.6</ele>
        <time>2022-02-24T14:50:50Z</time>
      </trkpt>
      <trkpt lat="46.10422" lon="5.19015">
        <ele>262.6</ele>
        <time>2022-02-24T14:50:51Z</time>
      </trkpt>
      <trkpt lat="46.10431" lon="5.19019">
        <ele>262.6</ele>
        <time>2022-02-24T14:50:52Z</time>
      </trkpt>
      <trkpt lat="46.10439" lon="5.19021">
        <ele>262.6</ele>
        <time>2022-02-24T14:50:53Z</time>
      </trkpt>
      <trkpt lat="46.10448" lon="5.19025">
        <ele>262.8</ele>
        <time>2022-02-24T14:50:54Z</time>
      </trkpt>
      <trkpt lat="46.10456" lon="5.19028">
        <ele>262.8</ele>
        <time>2022-02-24T14:50:55Z</time>
      </trkpt>
      <trkpt lat="46.10464" lon="5.19031">
        <ele>262.8</ele>
        <time>2022-02-24T14:50:56Z</time>
      </trkpt>
      <trkpt lat="46.10471" lon="5.19035">
        <ele>263.2</ele>
        <time>2022-02-24T14:50:57Z</time>
      </trkpt>
      <trkpt lat="46.10478" lon="5.19038">
        <ele>263.4</ele>
        <time>2022-02-24T14:50:58Z</time>
      </trkpt>
      <trkpt lat="46.10486" lon="5.1904">
        <ele>263.4</ele>
        <time>2022-02-24T14:50:59Z</time>
      </trkpt>
      <trkpt lat="46.10493" lon="5.19043">
        <ele>263.8</ele>
        <time>2022-02-24T14:51:00Z</time>
      </trkpt>
      <trkpt lat="46.105" lon="5.19045">
        <ele>263.8</ele>
        <time>2022-02-24T14:51:01Z</time>
      </trkpt>
      <trkpt lat="46.10506" lon="5.19048">
        <ele>264.2</ele>
        <time>2022-02-24T14:51:02Z</time>
      </trkpt>
      <trkpt lat="46.10513" lon="5.1905">
        <ele>264.4</ele>
        <time>2022-02-24T14:51:03Z</time>
      </trkpt>
      <trkpt lat="46.10519" lon="5.19053">
        <ele>264.8</ele>
        <time>2022-02-24T14:51:04Z</time>
      </trkpt>
      <trkpt lat="46.10526" lon="5.19055">
        <ele>265</ele>
        <time>2022-02-24T14:51:05Z</time>
      </trkpt>
      <trkpt lat="46.10532" lon="5.19057">
        <ele>265</ele>
        <time>2022-02-24T14:51:06Z</time>
      </trkpt>
      <trkpt lat="46.10538" lon="5.1906">
        <ele>265.2</ele>
        <time>2022-02-24T14:51:07Z</time>
      </trkpt>
      <trkpt lat="46.10545" lon="5.19062">
        <ele>265.2</ele>
        <time>2022-02-24T14:51:08Z</time>
      </trkpt>
      <trkpt lat="46.10551" lon="5.19064">
        <ele>265.2</ele>
        <time>2022-02-24T14:51:09Z</time>
      </trkpt>
      <trkpt lat="46.10557" lon="5.19067">
        <ele>265.2</ele>
        <time>2022-02-24T14:51:10Z</time>
      </trkpt>
      <trkpt lat="46.10563" lon="5.19069">
        <ele>265.4</ele>
        <time>2022-02-24T14:51:11Z</time>
      </trkpt>
      <trkpt lat="46.10569" lon="5.19071">
        <ele>265.4</ele>
        <time>2022-02-24T14:51:12Z</time>
      </trkpt>
      <trkpt lat="46.10575" lon="5.19074">
        <ele>265.4</ele>
        <time>2022-02-24T14:51:13Z</time>
      </trkpt>
      <trkpt lat="46.10581" lon="5.19076">
        <ele>265.4</ele>
        <time>2022-02-24T14:51:14Z</time>
      </trkpt>
      <trkpt lat="46.10588" lon="5.19078">
        <ele>265.4</ele>
        <time>2022-02-24T14:51:15Z</time>
      </trkpt>
      <trkpt lat="46.10594" lon="5.1908">
        <ele>265.4</ele>
        <time>2022-02-24T14:51:16Z</time>
      </trkpt>
      <trkpt lat="46.10601" lon="5.19082">
        <ele>265.4</ele>
        <time>2022-02-24T14:51:17Z</time>
      </trkpt>
      <trkpt lat="46.10607" lon="5.19084">
        <ele>265.4</ele>
        <time>2022-02-24T14:51:18Z</time>
      </trkpt>
      <trkpt lat="46.10614" lon="5.19086">
        <ele>265.4</ele>
        <time>2022-02-24T14:51:19Z</time>
      </trkpt>
      <trkpt lat="46.1062" lon="5.19088">
        <ele>265.4</ele>
        <time>2022-02-24T14:51:20Z</time>
      </trkpt>
      <trkpt lat="46.10627" lon="5.19091">
        <ele>265.4</ele>
        <time>2022-02-24T14:51:21Z</time>
      </trkpt>
      <trkpt lat="46.10634" lon="5.19093">
        <ele>265.6</ele>
        <time>2022-02-24T14:51:22Z</time>
      </trkpt>
      <trkpt lat="46.1064" lon="5.19096">
        <ele>265.6</ele>
        <time>2022-02-24T14:51:23Z</time>
      </trkpt>
      <trkpt lat="46.10647" lon="5.19098">
        <ele>265.6</ele>
        <time>2022-02-24T14:51:24Z</time>
      </trkpt>
      <trkpt lat="46.10654" lon="5.191">
        <ele>265.6</ele>
        <time>2022-02-24T14:51:25Z</time>
      </trkpt>
      <trkpt lat="46.1066" lon="5.19103">
        <ele>265.6</ele>
        <time>2022-02-24T14:51:26Z</time>
      </trkpt>
      <trkpt lat="46.10667" lon="5.19105">
        <ele>265.6</ele>
        <time>2022-02-24T14:51:27Z</time>
      </trkpt>
      <trkpt lat="46.10674" lon="5.19107">
        <ele>265.4</ele>
        <time>2022-02-24T14:51:28Z</time>
      </trkpt>
      <trkpt lat="46.1068" lon="5.19109">
        <ele>265.4</ele>
        <time>2022-02-24T14:51:29Z</time>
      </trkpt>
      <trkpt lat="46.10687" lon="5.19112">
        <ele>265.4</ele>
        <time>2022-02-24T14:51:30Z</time>
      </trkpt>
      <trkpt lat="46.10694" lon="5.19114">
        <ele>265.4</ele>
        <time>2022-02-24T14:51:31Z</time>
      </trkpt>
      <trkpt lat="46.10701" lon="5.19116">
        <ele>265.6</ele>
        <time>2022-02-24T14:51:32Z</time>
      </trkpt>
      <trkpt lat="46.10708" lon="5.19118">
        <ele>265.6</ele>
        <time>2022-02-24T14:51:33Z</time>
      </trkpt>
      <trkpt lat="46.10714" lon="5.1912">
        <ele>265.6</ele>
        <time>2022-02-24T14:51:34Z</time>
      </trkpt>
      <trkpt lat="46.10721" lon="5.19122">
        <ele>265.6</ele>
        <time>2022-02-24T14:51:35Z</time>
      </trkpt>
      <trkpt lat="46.10728" lon="5.19125">
        <ele>265.6</ele>
        <time>2022-02-24T14:51:36Z</time>
      </trkpt>
      <trkpt lat="46.10735" lon="5.19127">
        <ele>265.6</ele>
        <time>2022-02-24T14:51:37Z</time>
      </trkpt>
      <trkpt lat="46.10742" lon="5.1913">
        <ele>265.6</ele>
        <time>2022-02-24T14:51:38Z</time>
      </trkpt>
      <trkpt lat="46.10749" lon="5.19132">
        <ele>265.6</ele>
        <time>2022-02-24T14:51:39Z</time>
      </trkpt>
      <trkpt lat="46.10756" lon="5.19134">
        <ele>265.6</ele>
        <time>2022-02-24T14:51:40Z</time>
      </trkpt>
      <trkpt lat="46.10763" lon="5.19137">
        <ele>265.6</ele>
        <time>2022-02-24T14:51:41Z</time>
      </trkpt>
      <trkpt lat="46.1077" lon="5.19139">
        <ele>265.6</ele>
        <time>2022-02-24T14:51:42Z</time>
      </trkpt>
      <trkpt lat="46.10777" lon="5.19142">
        <ele>265.6</ele>
        <time>2022-02-24T14:51:43Z</time>
      </trkpt>
      <trkpt lat="46.10784" lon="5.19144">
        <ele>265.6</ele>
        <time>2022-02-24T14:51:44Z</time>
      </trkpt>
      <trkpt lat="46.10791" lon="5.19146">
        <ele>265.6</ele>
        <time>2022-02-24T14:51:45Z</time>
      </trkpt>
      <trkpt lat="46.10799" lon="5.19149">
        <ele>265.6</ele>
        <time>2022-02-24T14:51:46Z</time>
      </trkpt>
      <trkpt lat="46.10806" lon="5.19151">
        <ele>265.6</ele>
        <time>2022-02-24T14:51:47Z</time>
      </trkpt>
      <trkpt lat="46.10813" lon="5.19153">
        <ele>265.6</ele>
        <time>2022-02-24T14:51:48Z</time>
      </trkpt>
      <trkpt lat="46.1082" lon="5.19156">
        <ele>265.6</ele>
        <time>2022-02-24T14:51:49Z</time>
      </trkpt>
      <trkpt lat="46.10828" lon="5.19158">
        <ele>265.6</ele>
        <time>2022-02-24T14:51:50Z</time>
      </trkpt>
      <trkpt lat="46.10835" lon="5.19161">
        <ele>265.4</ele>
        <time>2022-02-24T14:51:51Z</time>
      </trkpt>
      <trkpt lat="46.10842" lon="5.19163">
        <ele>265.4</ele>
        <time>2022-02-24T14:51:52Z</time>
      </trkpt>
      <trkpt lat="46.1085" lon="5.19166">
        <ele>265.4</ele>
        <time>2022-02-24T14:51:53Z</time>
      </trkpt>
      <trkpt lat="46.10857" lon="5.19168">
        <ele>265.2</ele>
        <time>2022-02-24T14:51:54Z</time>
      </trkpt>
      <trkpt lat="46.10865" lon="5.19171">
        <ele>265.2</ele>
        <time>2022-02-24T14:51:55Z</time>
      </trkpt>
      <trkpt lat="46.10872" lon="5.19173">
        <ele>265.2</ele>
        <time>2022-02-24T14:51:56Z</time>
      </trkpt>
      <trkpt lat="46.10879" lon="5.19176">
        <ele>264.8</ele>
        <time>2022-02-24T14:51:57Z</time>
      </trkpt>
      <trkpt lat="46.10887" lon="5.19178">
        <ele>264.6</ele>
        <time>2022-02-24T14:51:58Z</time>
      </trkpt>
      <trkpt lat="46.10894" lon="5.19181">
        <ele>264.6</ele>
        <time>2022-02-24T14:51:59Z</time>
      </trkpt>
      <trkpt lat="46.10901" lon="5.19183">
        <ele>264.4</ele>
        <time>2022-02-24T14:52:00Z</time>
      </trkpt>
      <trkpt lat="46.10908" lon="5.19185">
        <ele>264.4</ele>
        <time>2022-02-24T14:52:01Z</time>
      </trkpt>
      <trkpt lat="46.10915" lon="5.19188">
        <ele>264.4</ele>
        <time>2022-02-24T14:52:02Z</time>
      </trkpt>
      <trkpt lat="46.10923" lon="5.1919">
        <ele>264.4</ele>
        <time>2022-02-24T14:52:03Z</time>
      </trkpt>
      <trkpt lat="46.1093" lon="5.19192">
        <ele>264.4</ele>
        <time>2022-02-24T14:52:04Z</time>
      </trkpt>
      <trkpt lat="46.10937" lon="5.19194">
        <ele>264.2</ele>
        <time>2022-02-24T14:52:05Z</time>
      </trkpt>
      <trkpt lat="46.10944" lon="5.19196">
        <ele>264.2</ele>
        <time>2022-02-24T14:52:06Z</time>
      </trkpt>
      <trkpt lat="46.10951" lon="5.19198">
        <ele>264.2</ele>
        <time>2022-02-24T14:52:07Z</time>
      </trkpt>
      <trkpt lat="46.10959" lon="5.192">
        <ele>264.2</ele>
        <time>2022-02-24T14:52:08Z</time>
      </trkpt>
      <trkpt lat="46.10966" lon="5.19203">
        <ele>264.2</ele>
        <time>2022-02-24T14:52:09Z</time>
      </trkpt>
      <trkpt lat="46.10973" lon="5.19205">
        <ele>264.2</ele>
        <time>2022-02-24T14:52:10Z</time>
      </trkpt>
      <trkpt lat="46.10981" lon="5.19207">
        <ele>263.8</ele>
        <time>2022-02-24T14:52:11Z</time>
      </trkpt>
      <trkpt lat="46.10988" lon="5.19209">
        <ele>263.8</ele>
        <time>2022-02-24T14:52:12Z</time>
      </trkpt>
      <trkpt lat="46.10996" lon="5.19212">
        <ele>263.6</ele>
        <time>2022-02-24T14:52:13Z</time>
      </trkpt>
      <trkpt lat="46.11003" lon="5.19214">
        <ele>263.6</ele>
        <time>2022-02-24T14:52:14Z</time>
      </trkpt>
      <trkpt lat="46.11011" lon="5.19216">
        <ele>263.6</ele>
        <time>2022-02-24T14:52:15Z</time>
      </trkpt>
      <trkpt lat="46.11018" lon="5.19219">
        <ele>263.4</ele>
        <time>2022-02-24T14:52:16Z</time>
      </trkpt>
      <trkpt lat="46.11026" lon="5.19221">
        <ele>263.4</ele>
        <time>2022-02-24T14:52:17Z</time>
      </trkpt>
      <trkpt lat="46.11034" lon="5.19224">
        <ele>263.4</ele>
        <time>2022-02-24T14:52:18Z</time>
      </trkpt>
      <trkpt lat="46.11042" lon="5.19227">
        <ele>263.2</ele>
        <time>2022-02-24T14:52:19Z</time>
      </trkpt>
      <trkpt lat="46.11049" lon="5.19229">
        <ele>263.2</ele>
        <time>2022-02-24T14:52:20Z</time>
      </trkpt>
      <trkpt lat="46.11057" lon="5.19232">
        <ele>263.2</ele>
        <time>2022-02-24T14:52:21Z</time>
      </trkpt>
      <trkpt lat="46.11064" lon="5.19234">
        <ele>263.2</ele>
        <time>2022-02-24T14:52:22Z</time>
      </trkpt>
      <trkpt lat="46.11072" lon="5.19237">
        <ele>262.8</ele>
        <time>2022-02-24T14:52:23Z</time>
      </trkpt>
      <trkpt lat="46.1108" lon="5.19239">
        <ele>262.8</ele>
        <time>2022-02-24T14:52:24Z</time>
      </trkpt>
      <trkpt lat="46.11087" lon="5.19242">
        <ele>262.8</ele>
        <time>2022-02-24T14:52:25Z</time>
      </trkpt>
      <trkpt lat="46.11095" lon="5.19245">
        <ele>262.6</ele>
        <time>2022-02-24T14:52:26Z</time>
      </trkpt>
      <trkpt lat="46.11103" lon="5.19248">
        <ele>262.6</ele>
        <time>2022-02-24T14:52:27Z</time>
      </trkpt>
      <trkpt lat="46.1111" lon="5.19251">
        <ele>262.6</ele>
        <time>2022-02-24T14:52:28Z</time>
      </trkpt>
      <trkpt lat="46.11118" lon="5.19254">
        <ele>262.6</ele>
        <time>2022-02-24T14:52:29Z</time>
      </trkpt>
      <trkpt lat="46.11126" lon="5.19257">
        <ele>262.4</ele>
        <time>2022-02-24T14:52:30Z</time>
      </trkpt>
      <trkpt lat="46.11134" lon="5.1926">
        <ele>262.4</ele>
        <time>2022-02-24T14:52:31Z</time>
      </trkpt>
      <trkpt lat="46.11142" lon="5.19262">
        <ele>262.4</ele>
        <time>2022-02-24T14:52:32Z</time>
      </trkpt>
      <trkpt lat="46.1115" lon="5.19265">
        <ele>262.4</ele>
        <time>2022-02-24T14:52:33Z</time>
      </trkpt>
      <trkpt lat="46.11158" lon="5.19268">
        <ele>262.4</ele>
        <time>2022-02-24T14:52:34Z</time>
      </trkpt>
      <trkpt lat="46.11166" lon="5.1927">
        <ele>262</ele>
        <time>2022-02-24T14:52:35Z</time>
      </trkpt>
      <trkpt lat="46.11174" lon="5.19273">
        <ele>262</ele>
        <time>2022-02-24T14:52:36Z</time>
      </trkpt>
      <trkpt lat="46.11182" lon="5.19275">
        <ele>262</ele>
        <time>2022-02-24T14:52:37Z</time>
      </trkpt>
      <trkpt lat="46.1119" lon="5.19278">
        <ele>261.8</ele>
        <time>2022-02-24T14:52:38Z</time>
      </trkpt>
      <trkpt lat="46.11198" lon="5.19281">
        <ele>261.8</ele>
        <time>2022-02-24T14:52:39Z</time>
      </trkpt>
      <trkpt lat="46.11206" lon="5.19283">
        <ele>261.8</ele>
        <time>2022-02-24T14:52:40Z</time>
      </trkpt>
      <trkpt lat="46.11215" lon="5.19286">
        <ele>261.6</ele>
        <time>2022-02-24T14:52:41Z</time>
      </trkpt>
      <trkpt lat="46.11223" lon="5.19289">
        <ele>261.6</ele>
        <time>2022-02-24T14:52:42Z</time>
      </trkpt>
      <trkpt lat="46.11231" lon="5.19292">
        <ele>261.4</ele>
        <time>2022-02-24T14:52:43Z</time>
      </trkpt>
      <trkpt lat="46.1124" lon="5.19294">
        <ele>261</ele>
        <time>2022-02-24T14:52:44Z</time>
      </trkpt>
      <trkpt lat="46.11249" lon="5.19297">
        <ele>261</ele>
        <time>2022-02-24T14:52:45Z</time>
      </trkpt>
      <trkpt lat="46.11257" lon="5.193">
        <ele>260.8</ele>
        <time>2022-02-24T14:52:46Z</time>
      </trkpt>
      <trkpt lat="46.11266" lon="5.19303">
        <ele>260.8</ele>
        <time>2022-02-24T14:52:47Z</time>
      </trkpt>
      <trkpt lat="46.11274" lon="5.19306">
        <ele>260.8</ele>
        <time>2022-02-24T14:52:48Z</time>
      </trkpt>
      <trkpt lat="46.11283" lon="5.19308">
        <ele>260.4</ele>
        <time>2022-02-24T14:52:49Z</time>
      </trkpt>
      <trkpt lat="46.11292" lon="5.19311">
        <ele>260.4</ele>
        <time>2022-02-24T14:52:50Z</time>
      </trkpt>
      <trkpt lat="46.113" lon="5.19314">
        <ele>260.2</ele>
        <time>2022-02-24T14:52:51Z</time>
      </trkpt>
      <trkpt lat="46.11309" lon="5.19317">
        <ele>260.2</ele>
        <time>2022-02-24T14:52:52Z</time>
      </trkpt>
      <trkpt lat="46.11318" lon="5.19319">
        <ele>260.2</ele>
        <time>2022-02-24T14:52:53Z</time>
      </trkpt>
      <trkpt lat="46.11326" lon="5.19322">
        <ele>260.2</ele>
        <time>2022-02-24T14:52:54Z</time>
      </trkpt>
      <trkpt lat="46.11335" lon="5.19325">
        <ele>260.2</ele>
        <time>2022-02-24T14:52:55Z</time>
      </trkpt>
      <trkpt lat="46.11343" lon="5.19328">
        <ele>260.2</ele>
        <time>2022-02-24T14:52:56Z</time>
      </trkpt>
      <trkpt lat="46.11351" lon="5.19331">
        <ele>260.2</ele>
        <time>2022-02-24T14:52:57Z</time>
      </trkpt>
      <trkpt lat="46.11359" lon="5.19334">
        <ele>260.2</ele>
        <time>2022-02-24T14:52:58Z</time>
      </trkpt>
      <trkpt lat="46.11368" lon="5.19336">
        <ele>260.2</ele>
        <time>2022-02-24T14:52:59Z</time>
      </trkpt>
      <trkpt lat="46.11376" lon="5.19339">
        <ele>260.2</ele>
        <time>2022-02-24T14:53:00Z</time>
      </trkpt>
      <trkpt lat="46.11385" lon="5.19342">
        <ele>260.2</ele>
        <time>2022-02-24T14:53:01Z</time>
      </trkpt>
      <trkpt lat="46.11393" lon="5.19345">
        <ele>260</ele>
        <time>2022-02-24T14:53:02Z</time>
      </trkpt>
      <trkpt lat="46.11401" lon="5.19347">
        <ele>260</ele>
        <time>2022-02-24T14:53:03Z</time>
      </trkpt>
      <trkpt lat="46.1141" lon="5.19351">
        <ele>259.8</ele>
        <time>2022-02-24T14:53:04Z</time>
      </trkpt>
      <trkpt lat="46.11418" lon="5.19354">
        <ele>259.8</ele>
        <time>2022-02-24T14:53:05Z</time>
      </trkpt>
      <trkpt lat="46.11427" lon="5.19356">
        <ele>259.8</ele>
        <time>2022-02-24T14:53:06Z</time>
      </trkpt>
      <trkpt lat="46.11435" lon="5.19358">
        <ele>259.8</ele>
        <time>2022-02-24T14:53:07Z</time>
      </trkpt>
      <trkpt lat="46.11443" lon="5.19361">
        <ele>259.8</ele>
        <time>2022-02-24T14:53:08Z</time>
      </trkpt>
      <trkpt lat="46.11452" lon="5.19364">
        <ele>259.4</ele>
        <time>2022-02-24T14:53:09Z</time>
      </trkpt>
      <trkpt lat="46.1146" lon="5.19367">
        <ele>259.4</ele>
        <time>2022-02-24T14:53:10Z</time>
      </trkpt>
      <trkpt lat="46.11468" lon="5.1937">
        <ele>259.4</ele>
        <time>2022-02-24T14:53:11Z</time>
      </trkpt>
      <trkpt lat="46.11476" lon="5.19373">
        <ele>259</ele>
        <time>2022-02-24T14:53:12Z</time>
      </trkpt>
      <trkpt lat="46.11484" lon="5.19375">
        <ele>259</ele>
        <time>2022-02-24T14:53:13Z</time>
      </trkpt>
      <trkpt lat="46.11492" lon="5.19378">
        <ele>259</ele>
        <time>2022-02-24T14:53:14Z</time>
      </trkpt>
      <trkpt lat="46.11501" lon="5.19381">
        <ele>258.8</ele>
        <time>2022-02-24T14:53:15Z</time>
      </trkpt>
      <trkpt lat="46.11509" lon="5.19384">
        <ele>258.8</ele>
        <time>2022-02-24T14:53:16Z</time>
      </trkpt>
      <trkpt lat="46.11517" lon="5.19386">
        <ele>258.8</ele>
        <time>2022-02-24T14:53:17Z</time>
      </trkpt>
      <trkpt lat="46.11526" lon="5.19388">
        <ele>258.6</ele>
        <time>2022-02-24T14:53:18Z</time>
      </trkpt>
      <trkpt lat="46.11534" lon="5.19391">
        <ele>258.6</ele>
        <time>2022-02-24T14:53:19Z</time>
      </trkpt>
      <trkpt lat="46.11542" lon="5.19393">
        <ele>258.4</ele>
        <time>2022-02-24T14:53:20Z</time>
      </trkpt>
      <trkpt lat="46.11551" lon="5.19396">
        <ele>258.4</ele>
        <time>2022-02-24T14:53:21Z</time>
      </trkpt>
      <trkpt lat="46.1156" lon="5.19398">
        <ele>258.4</ele>
        <time>2022-02-24T14:53:22Z</time>
      </trkpt>
      <trkpt lat="46.11569" lon="5.194">
        <ele>258</ele>
        <time>2022-02-24T14:53:23Z</time>
      </trkpt>
      <trkpt lat="46.11578" lon="5.19403">
        <ele>258</ele>
        <time>2022-02-24T14:53:24Z</time>
      </trkpt>
      <trkpt lat="46.11587" lon="5.19405">
        <ele>257.8</ele>
        <time>2022-02-24T14:53:25Z</time>
      </trkpt>
      <trkpt lat="46.11595" lon="5.19408">
        <ele>257.8</ele>
        <time>2022-02-24T14:53:26Z</time>
      </trkpt>
      <trkpt lat="46.11604" lon="5.19411">
        <ele>257.6</ele>
        <time>2022-02-24T14:53:27Z</time>
      </trkpt>
      <trkpt lat="46.11612" lon="5.19414">
        <ele>257.6</ele>
        <time>2022-02-24T14:53:28Z</time>
      </trkpt>
      <trkpt lat="46.11621" lon="5.19417">
        <ele>257.6</ele>
        <time>2022-02-24T14:53:29Z</time>
      </trkpt>
      <trkpt lat="46.1163" lon="5.1942">
        <ele>257.2</ele>
        <time>2022-02-24T14:53:30Z</time>
      </trkpt>
      <trkpt lat="46.11638" lon="5.19423">
        <ele>257.2</ele>
        <time>2022-02-24T14:53:31Z</time>
      </trkpt>
      <trkpt lat="46.11647" lon="5.19427">
        <ele>257</ele>
        <time>2022-02-24T14:53:32Z</time>
      </trkpt>
      <trkpt lat="46.11655" lon="5.1943">
        <ele>257</ele>
        <time>2022-02-24T14:53:33Z</time>
      </trkpt>
      <trkpt lat="46.11663" lon="5.19433">
        <ele>256.8</ele>
        <time>2022-02-24T14:53:34Z</time>
      </trkpt>
      <trkpt lat="46.11671" lon="5.19436">
        <ele>256.8</ele>
        <time>2022-02-24T14:53:35Z</time>
      </trkpt>
      <trkpt lat="46.11679" lon="5.19438">
        <ele>256.4</ele>
        <time>2022-02-24T14:53:36Z</time>
      </trkpt>
      <trkpt lat="46.11687" lon="5.19441">
        <ele>256.4</ele>
        <time>2022-02-24T14:53:37Z</time>
      </trkpt>
      <trkpt lat="46.11694" lon="5.19443">
        <ele>256.4</ele>
        <time>2022-02-24T14:53:38Z</time>
      </trkpt>
      <trkpt lat="46.11701" lon="5.19445">
        <ele>256.4</ele>
        <time>2022-02-24T14:53:39Z</time>
      </trkpt>
      <trkpt lat="46.11708" lon="5.19448">
        <ele>256.4</ele>
        <time>2022-02-24T14:53:40Z</time>
      </trkpt>
      <trkpt lat="46.11716" lon="5.1945">
        <ele>256.4</ele>
        <time>2022-02-24T14:53:41Z</time>
      </trkpt>
      <trkpt lat="46.11723" lon="5.19453">
        <ele>256.4</ele>
        <time>2022-02-24T14:53:42Z</time>
      </trkpt>
      <trkpt lat="46.1173" lon="5.19455">
        <ele>256.4</ele>
        <time>2022-02-24T14:53:43Z</time>
      </trkpt>
      <trkpt lat="46.11737" lon="5.19458">
        <ele>256.4</ele>
        <time>2022-02-24T14:53:44Z</time>
      </trkpt>
      <trkpt lat="46.11744" lon="5.1946">
        <ele>256.4</ele>
        <time>2022-02-24T14:53:45Z</time>
      </trkpt>
      <trkpt lat="46.11751" lon="5.19462">
        <ele>256.4</ele>
        <time>2022-02-24T14:53:46Z</time>
      </trkpt>
      <trkpt lat="46.11758" lon="5.19465">
        <ele>256.4</ele>
        <time>2022-02-24T14:53:47Z</time>
      </trkpt>
      <trkpt lat="46.11765" lon="5.19467">
        <ele>256.4</ele>
        <time>2022-02-24T14:53:48Z</time>
      </trkpt>
      <trkpt lat="46.11772" lon="5.19469">
        <ele>256.4</ele>
        <time>2022-02-24T14:53:49Z</time>
      </trkpt>
      <trkpt lat="46.11779" lon="5.19471">
        <ele>256.4</ele>
        <time>2022-02-24T14:53:50Z</time>
      </trkpt>
      <trkpt lat="46.11786" lon="5.19473">
        <ele>256.4</ele>
        <time>2022-02-24T14:53:51Z</time>
      </trkpt>
      <trkpt lat="46.11792" lon="5.19475">
        <ele>256.4</ele>
        <time>2022-02-24T14:53:52Z</time>
      </trkpt>
      <trkpt lat="46.11799" lon="5.19477">
        <ele>256.2</ele>
        <time>2022-02-24T14:53:53Z</time>
      </trkpt>
      <trkpt lat="46.11806" lon="5.19478">
        <ele>256.2</ele>
        <time>2022-02-24T14:53:54Z</time>
      </trkpt>
      <trkpt lat="46.11813" lon="5.1948">
        <ele>256.2</ele>
        <time>2022-02-24T14:53:55Z</time>
      </trkpt>
      <trkpt lat="46.11819" lon="5.19481">
        <ele>256.2</ele>
        <time>2022-02-24T14:53:56Z</time>
      </trkpt>
      <trkpt lat="46.11826" lon="5.19483">
        <ele>256</ele>
        <time>2022-02-24T14:53:57Z</time>
      </trkpt>
      <trkpt lat="46.11833" lon="5.19485">
        <ele>256</ele>
        <time>2022-02-24T14:53:58Z</time>
      </trkpt>
      <trkpt lat="46.11839" lon="5.19486">
        <ele>256</ele>
        <time>2022-02-24T14:53:59Z</time>
      </trkpt>
      <trkpt lat="46.11846" lon="5.19487">
        <ele>256</ele>
        <time>2022-02-24T14:54:00Z</time>
      </trkpt>
      <trkpt lat="46.11852" lon="5.19488">
        <ele>255.8</ele>
        <time>2022-02-24T14:54:01Z</time>
      </trkpt>
      <trkpt lat="46.11859" lon="5.19489">
        <ele>255.8</ele>
        <time>2022-02-24T14:54:02Z</time>
      </trkpt>
      <trkpt lat="46.11865" lon="5.1949">
        <ele>255.8</ele>
        <time>2022-02-24T14:54:03Z</time>
      </trkpt>
      <trkpt lat="46.11871" lon="5.19491">
        <ele>255.8</ele>
        <time>2022-02-24T14:54:04Z</time>
      </trkpt>
      <trkpt lat="46.11877" lon="5.19492">
        <ele>255.8</ele>
        <time>2022-02-24T14:54:05Z</time>
      </trkpt>
      <trkpt lat="46.11883" lon="5.19492">
        <ele>255.8</ele>
        <time>2022-02-24T14:54:06Z</time>
      </trkpt>
      <trkpt lat="46.11889" lon="5.19493">
        <ele>255.8</ele>
        <time>2022-02-24T14:54:07Z</time>
      </trkpt>
      <trkpt lat="46.11895" lon="5.19494">
        <ele>255.8</ele>
        <time>2022-02-24T14:54:08Z</time>
      </trkpt>
      <trkpt lat="46.11901" lon="5.19494">
        <ele>255.8</ele>
        <time>2022-02-24T14:54:09Z</time>
      </trkpt>
      <trkpt lat="46.11906" lon="5.19495">
        <ele>255.8</ele>
        <time>2022-02-24T14:54:10Z</time>
      </trkpt>
      <trkpt lat="46.11911" lon="5.19496">
        <ele>255.8</ele>
        <time>2022-02-24T14:54:11Z</time>
      </trkpt>
      <trkpt lat="46.11915" lon="5.19497">
        <ele>255.8</ele>
        <time>2022-02-24T14:54:12Z</time>
      </trkpt>
      <trkpt lat="46.1192" lon="5.19497">
        <ele>255.8</ele>
        <time>2022-02-24T14:54:13Z</time>
      </trkpt>
      <trkpt lat="46.11924" lon="5.19497">
        <ele>255.8</ele>
        <time>2022-02-24T14:54:14Z</time>
      </trkpt>
      <trkpt lat="46.11927" lon="5.19497">
        <ele>256</ele>
        <time>2022-02-24T14:54:15Z</time>
      </trkpt>
      <trkpt lat="46.11931" lon="5.19497">
        <ele>256</ele>
        <time>2022-02-24T14:54:16Z</time>
      </trkpt>
      <trkpt lat="46.11935" lon="5.19497">
        <ele>256</ele>
        <time>2022-02-24T14:54:17Z</time>
      </trkpt>
      <trkpt lat="46.11938" lon="5.19497">
        <ele>256.4</ele>
        <time>2022-02-24T14:54:18Z</time>
      </trkpt>
      <trkpt lat="46.11942" lon="5.19498">
        <ele>256.4</ele>
        <time>2022-02-24T14:54:19Z</time>
      </trkpt>
      <trkpt lat="46.11945" lon="5.19498">
        <ele>256.4</ele>
        <time>2022-02-24T14:54:20Z</time>
      </trkpt>
      <trkpt lat="46.11949" lon="5.19498">
        <ele>256.4</ele>
        <time>2022-02-24T14:54:21Z</time>
      </trkpt>
      <trkpt lat="46.11953" lon="5.19499">
        <ele>256.4</ele>
        <time>2022-02-24T14:54:22Z</time>
      </trkpt>
      <trkpt lat="46.11956" lon="5.19499">
        <ele>256.4</ele>
        <time>2022-02-24T14:54:23Z</time>
      </trkpt>
      <trkpt lat="46.1196" lon="5.19499">
        <ele>256.4</ele>
        <time>2022-02-24T14:54:24Z</time>
      </trkpt>
      <trkpt lat="46.11964" lon="5.19499">
        <ele>256.6</ele>
        <time>2022-02-24T14:54:25Z</time>
      </trkpt>
      <trkpt lat="46.11968" lon="5.19499">
        <ele>256.6</ele>
        <time>2022-02-24T14:54:26Z</time>
      </trkpt>
      <trkpt lat="46.11972" lon="5.19499">
        <ele>256.6</ele>
        <time>2022-02-24T14:54:27Z</time>
      </trkpt>
      <trkpt lat="46.11976" lon="5.195">
        <ele>257</ele>
        <time>2022-02-24T14:54:28Z</time>
      </trkpt>
      <trkpt lat="46.11979" lon="5.195">
        <ele>257</ele>
        <time>2022-02-24T14:54:29Z</time>
      </trkpt>
      <trkpt lat="46.11982" lon="5.195">
        <ele>257</ele>
        <time>2022-02-24T14:54:30Z</time>
      </trkpt>
      <trkpt lat="46.11986" lon="5.195">
        <ele>257.2</ele>
        <time>2022-02-24T14:54:31Z</time>
      </trkpt>
      <trkpt lat="46.11989" lon="5.195">
        <ele>257.2</ele>
        <time>2022-02-24T14:54:32Z</time>
      </trkpt>
      <trkpt lat="46.11992" lon="5.195">
        <ele>257.4</ele>
        <time>2022-02-24T14:54:33Z</time>
      </trkpt>
      <trkpt lat="46.11995" lon="5.195">
        <ele>257.4</ele>
        <time>2022-02-24T14:54:34Z</time>
      </trkpt>
      <trkpt lat="46.11999" lon="5.195">
        <ele>257.4</ele>
        <time>2022-02-24T14:54:35Z</time>
      </trkpt>
      <trkpt lat="46.12001" lon="5.19501">
        <ele>257.4</ele>
        <time>2022-02-24T14:54:36Z</time>
      </trkpt>
      <trkpt lat="46.12004" lon="5.19502">
        <ele>257.4</ele>
        <time>2022-02-24T14:54:37Z</time>
      </trkpt>
      <trkpt lat="46.12006" lon="5.19502">
        <ele>257.8</ele>
        <time>2022-02-24T14:54:38Z</time>
      </trkpt>
      <trkpt lat="46.12008" lon="5.19503">
        <ele>257.8</ele>
        <time>2022-02-24T14:54:39Z</time>
      </trkpt>
      <trkpt lat="46.12009" lon="5.19503">
        <ele>258</ele>
        <time>2022-02-24T14:54:40Z</time>
      </trkpt>
      <trkpt lat="46.12007" lon="5.19496">
        <ele>258.2</ele>
        <time>2022-02-24T14:55:18Z</time>
      </trkpt>
      <trkpt lat="46.12006" lon="5.19496">
        <ele>258.2</ele>
        <time>2022-02-24T14:55:19Z</time>
      </trkpt>
      <trkpt lat="46.12005" lon="5.19495">
        <ele>258.2</ele>
        <time>2022-02-24T14:55:20Z</time>
      </trkpt>
      <trkpt lat="46.11991" lon="5.19498">
        <ele>258.8</ele>
        <time>2022-02-24T14:58:39Z</time>
      </trkpt>
      <trkpt lat="46.11989" lon="5.19498">
        <ele>258.8</ele>
        <time>2022-02-24T14:58:40Z</time>
      </trkpt>
      <trkpt lat="46.11987" lon="5.19498">
        <ele>258.8</ele>
        <time>2022-02-24T14:58:41Z</time>
      </trkpt>
      <trkpt lat="46.11984" lon="5.19498">
        <ele>258.8</ele>
        <time>2022-02-24T14:58:42Z</time>
      </trkpt>
      <trkpt lat="46.11982" lon="5.19498">
        <ele>258.8</ele>
        <time>2022-02-24T14:58:43Z</time>
      </trkpt>
      <trkpt lat="46.11979" lon="5.195">
        <ele>258.8</ele>
        <time>2022-02-24T14:58:44Z</time>
      </trkpt>
      <trkpt lat="46.11977" lon="5.19504">
        <ele>258.8</ele>
        <time>2022-02-24T14:58:45Z</time>
      </trkpt>
      <trkpt lat="46.11976" lon="5.19509">
        <ele>258.6</ele>
        <time>2022-02-24T14:58:46Z</time>
      </trkpt>
      <trkpt lat="46.11975" lon="5.19514">
        <ele>258.6</ele>
        <time>2022-02-24T14:58:47Z</time>
      </trkpt>
      <trkpt lat="46.11975" lon="5.19519">
        <ele>258.6</ele>
        <time>2022-02-24T14:58:48Z</time>
      </trkpt>
      <trkpt lat="46.11974" lon="5.19524">
        <ele>258.6</ele>
        <time>2022-02-24T14:58:49Z</time>
      </trkpt>
      <trkpt lat="46.11975" lon="5.19529">
        <ele>258.6</ele>
        <time>2022-02-24T14:58:50Z</time>
      </trkpt>
      <trkpt lat="46.11974" lon="5.19534">
        <ele>258.6</ele>
        <time>2022-02-24T14:58:51Z</time>
      </trkpt>
      <trkpt lat="46.11974" lon="5.1954">
        <ele>258.6</ele>
        <time>2022-02-24T14:58:52Z</time>
      </trkpt>
      <trkpt lat="46.11974" lon="5.19547">
        <ele>258.6</ele>
        <time>2022-02-24T14:58:53Z</time>
      </trkpt>
      <trkpt lat="46.11974" lon="5.19553">
        <ele>258.6</ele>
        <time>2022-02-24T14:58:54Z</time>
      </trkpt>
      <trkpt lat="46.11974" lon="5.19559">
        <ele>258.6</ele>
        <time>2022-02-24T14:58:55Z</time>
      </trkpt>
      <trkpt lat="46.11974" lon="5.19566">
        <ele>258.6</ele>
        <time>2022-02-24T14:58:56Z</time>
      </trkpt>
      <trkpt lat="46.11974" lon="5.19572">
        <ele>258.6</ele>
        <time>2022-02-24T14:58:57Z</time>
      </trkpt>
      <trkpt lat="46.11973" lon="5.19578">
        <ele>258.6</ele>
        <time>2022-02-24T14:58:58Z</time>
      </trkpt>
      <trkpt lat="46.11972" lon="5.19584">
        <ele>258.6</ele>
        <time>2022-02-24T14:58:59Z</time>
      </trkpt>
      <trkpt lat="46.11972" lon="5.1959">
        <ele>258.6</ele>
        <time>2022-02-24T14:59:00Z</time>
      </trkpt>
      <trkpt lat="46.11972" lon="5.19596">
        <ele>258.6</ele>
        <time>2022-02-24T14:59:01Z</time>
      </trkpt>
      <trkpt lat="46.11971" lon="5.19602">
        <ele>258.6</ele>
        <time>2022-02-24T14:59:02Z</time>
      </trkpt>
      <trkpt lat="46.11971" lon="5.19607">
        <ele>258.6</ele>
        <time>2022-02-24T14:59:03Z</time>
      </trkpt>
      <trkpt lat="46.1197" lon="5.19613">
        <ele>258.6</ele>
        <time>2022-02-24T14:59:04Z</time>
      </trkpt>
      <trkpt lat="46.11969" lon="5.19618">
        <ele>258.6</ele>
        <time>2022-02-24T14:59:05Z</time>
      </trkpt>
      <trkpt lat="46.11969" lon="5.19623">
        <ele>258.6</ele>
        <time>2022-02-24T14:59:06Z</time>
      </trkpt>
      <trkpt lat="46.11968" lon="5.19627">
        <ele>258.4</ele>
        <time>2022-02-24T14:59:07Z</time>
      </trkpt>
      <trkpt lat="46.11968" lon="5.19631">
        <ele>258.4</ele>
        <time>2022-02-24T14:59:08Z</time>
      </trkpt>
      <trkpt lat="46.11968" lon="5.19634">
        <ele>258.4</ele>
        <time>2022-02-24T14:59:09Z</time>
      </trkpt>
      <trkpt lat="46.11967" lon="5.19637">
        <ele>258.4</ele>
        <time>2022-02-24T14:59:10Z</time>
      </trkpt>
      <trkpt lat="46.11967" lon="5.1964">
        <ele>258.4</ele>
        <time>2022-02-24T14:59:11Z</time>
      </trkpt>
      <trkpt lat="46.11966" lon="5.19642">
        <ele>258.4</ele>
        <time>2022-02-24T14:59:12Z</time>
      </trkpt>
      <trkpt lat="46.11966" lon="5.19644">
        <ele>258.4</ele>
        <time>2022-02-24T14:59:13Z</time>
      </trkpt>
      <trkpt lat="46.11966" lon="5.19645">
        <ele>258.4</ele>
        <time>2022-02-24T14:59:14Z</time>
      </trkpt>
      <trkpt lat="46.11976" lon="5.1964">
        <ele>259.8</ele>
        <time>2022-02-24T15:11:00Z</time>
      </trkpt>
      <trkpt lat="46.11976" lon="5.19638">
        <ele>259.6</ele>
        <time>2022-02-24T15:11:01Z</time>
      </trkpt>
      <trkpt lat="46.11976" lon="5.19635">
        <ele>259.6</ele>
        <time>2022-02-24T15:11:02Z</time>
      </trkpt>
      <trkpt lat="46.11977" lon="5.19632">
        <ele>259.6</ele>
        <time>2022-02-24T15:11:03Z</time>
      </trkpt>
      <trkpt lat="46.11977" lon="5.19628">
        <ele>259.2</ele>
        <time>2022-02-24T15:11:04Z</time>
      </trkpt>
      <trkpt lat="46.11978" lon="5.19625">
        <ele>259.2</ele>
        <time>2022-02-24T15:11:05Z</time>
      </trkpt>
      <trkpt lat="46.11979" lon="5.19621">
        <ele>259.2</ele>
        <time>2022-02-24T15:11:06Z</time>
      </trkpt>
      <trkpt lat="46.11979" lon="5.19618">
        <ele>259.2</ele>
        <time>2022-02-24T15:11:07Z</time>
      </trkpt>
      <trkpt lat="46.11978" lon="5.19615">
        <ele>259</ele>
        <time>2022-02-24T15:11:08Z</time>
      </trkpt>
      <trkpt lat="46.11976" lon="5.19613">
        <ele>259</ele>
        <time>2022-02-24T15:11:09Z</time>
      </trkpt>
      <trkpt lat="46.11975" lon="5.19612">
        <ele>259</ele>
        <time>2022-02-24T15:11:10Z</time>
      </trkpt>
      <trkpt lat="46.11973" lon="5.19611">
        <ele>259</ele>
        <time>2022-02-24T15:11:11Z</time>
      </trkpt>
      <trkpt lat="46.11973" lon="5.19611">
        <ele>259</ele>
        <time>2022-02-24T15:11:12Z</time>
      </trkpt>
      <trkpt lat="46.11971" lon="5.19611">
        <ele>259</ele>
        <time>2022-02-24T15:11:13Z</time>
      </trkpt>
      <trkpt lat="46.1197" lon="5.19611">
        <ele>259</ele>
        <time>2022-02-24T15:11:14Z</time>
      </trkpt>
      <trkpt lat="46.11969" lon="5.19612">
        <ele>259</ele>
        <time>2022-02-24T15:11:15Z</time>
      </trkpt>
      <trkpt lat="46.11967" lon="5.19613">
        <ele>258.8</ele>
        <time>2022-02-24T15:11:16Z</time>
      </trkpt>
      <trkpt lat="46.11967" lon="5.19614">
        <ele>258.8</ele>
        <time>2022-02-24T15:11:17Z</time>
      </trkpt>
      <trkpt lat="46.11966" lon="5.19615">
        <ele>258.8</ele>
        <time>2022-02-24T15:11:18Z</time>
      </trkpt>
      <trkpt lat="46.11965" lon="5.19616">
        <ele>258.8</ele>
        <time>2022-02-24T15:11:19Z</time>
      </trkpt>
      <trkpt lat="46.11964" lon="5.19618">
        <ele>258.8</ele>
        <time>2022-02-24T15:11:20Z</time>
      </trkpt>
      <trkpt lat="46.11964" lon="5.19619">
        <ele>258.8</ele>
        <time>2022-02-24T15:11:21Z</time>
      </trkpt>
      <trkpt lat="46.11964" lon="5.1962">
        <ele>258.8</ele>
        <time>2022-02-24T15:11:22Z</time>
      </trkpt>
      <trkpt lat="46.11964" lon="5.1962">
        <ele>258.8</ele>
        <time>2022-02-24T15:11:23Z</time>
      </trkpt>
      <trkpt lat="46.11963" lon="5.19624">
        <ele>258.6</ele>
        <time>2022-02-24T15:11:34Z</time>
      </trkpt>
      <trkpt lat="46.11963" lon="5.19627">
        <ele>258.6</ele>
        <time>2022-02-24T15:11:35Z</time>
      </trkpt>
      <trkpt lat="46.11963" lon="5.19629">
        <ele>258.6</ele>
        <time>2022-02-24T15:11:36Z</time>
      </trkpt>
      <trkpt lat="46.11963" lon="5.19632">
        <ele>258.6</ele>
        <time>2022-02-24T15:11:37Z</time>
      </trkpt>
      <trkpt lat="46.11963" lon="5.19636">
        <ele>258.8</ele>
        <time>2022-02-24T15:11:38Z</time>
      </trkpt>
      <trkpt lat="46.11963" lon="5.19639">
        <ele>258.8</ele>
        <time>2022-02-24T15:11:39Z</time>
      </trkpt>
      <trkpt lat="46.11962" lon="5.19643">
        <ele>258.8</ele>
        <time>2022-02-24T15:11:40Z</time>
      </trkpt>
      <trkpt lat="46.11962" lon="5.19647">
        <ele>258.8</ele>
        <time>2022-02-24T15:11:41Z</time>
      </trkpt>
      <trkpt lat="46.11962" lon="5.19651">
        <ele>258.8</ele>
        <time>2022-02-24T15:11:42Z</time>
      </trkpt>
      <trkpt lat="46.11962" lon="5.19655">
        <ele>258.8</ele>
        <time>2022-02-24T15:11:43Z</time>
      </trkpt>
      <trkpt lat="46.11961" lon="5.1966">
        <ele>258.8</ele>
        <time>2022-02-24T15:11:44Z</time>
      </trkpt>
      <trkpt lat="46.1196" lon="5.19664">
        <ele>258.8</ele>
        <time>2022-02-24T15:11:45Z</time>
      </trkpt>
      <trkpt lat="46.11959" lon="5.19667">
        <ele>258.8</ele>
        <time>2022-02-24T15:11:46Z</time>
      </trkpt>
      <trkpt lat="46.11958" lon="5.19668">
        <ele>258.8</ele>
        <time>2022-02-24T15:11:47Z</time>
      </trkpt>
      <trkpt lat="46.11956" lon="5.19669">
        <ele>258.8</ele>
        <time>2022-02-24T15:11:48Z</time>
      </trkpt>
      <trkpt lat="46.11954" lon="5.19669">
        <ele>258.4</ele>
        <time>2022-02-24T15:11:49Z</time>
      </trkpt>
      <trkpt lat="46.11952" lon="5.19669">
        <ele>258.4</ele>
        <time>2022-02-24T15:11:50Z</time>
      </trkpt>
      <trkpt lat="46.1195" lon="5.1967">
        <ele>258.4</ele>
        <time>2022-02-24T15:11:51Z</time>
      </trkpt>
      <trkpt lat="46.11948" lon="5.19672">
        <ele>258.2</ele>
        <time>2022-02-24T15:11:52Z</time>
      </trkpt>
      <trkpt lat="46.11947" lon="5.19674">
        <ele>258.2</ele>
        <time>2022-02-24T15:11:53Z</time>
      </trkpt>
      <trkpt lat="46.11946" lon="5.19677">
        <ele>258.2</ele>
        <time>2022-02-24T15:11:54Z</time>
      </trkpt>
      <trkpt lat="46.11947" lon="5.1968">
        <ele>258.2</ele>
        <time>2022-02-24T15:11:55Z</time>
      </trkpt>
      <trkpt lat="46.11949" lon="5.19683">
        <ele>258.2</ele>
        <time>2022-02-24T15:11:56Z</time>
      </trkpt>
      <trkpt lat="46.11951" lon="5.19684">
        <ele>258.2</ele>
        <time>2022-02-24T15:11:57Z</time>
      </trkpt>
      <trkpt lat="46.11953" lon="5.19684">
        <ele>258.2</ele>
        <time>2022-02-24T15:11:58Z</time>
      </trkpt>
      <trkpt lat="46.11955" lon="5.19684">
        <ele>258.2</ele>
        <time>2022-02-24T15:11:59Z</time>
      </trkpt>
      <trkpt lat="46.11957" lon="5.19685">
        <ele>258.2</ele>
        <time>2022-02-24T15:12:00Z</time>
      </trkpt>
      <trkpt lat="46.11958" lon="5.19688">
        <ele>258.2</ele>
        <time>2022-02-24T15:12:01Z</time>
      </trkpt>
      <trkpt lat="46.1196" lon="5.19691">
        <ele>258.2</ele>
        <time>2022-02-24T15:12:02Z</time>
      </trkpt>
      <trkpt lat="46.1196" lon="5.19696">
        <ele>258.2</ele>
        <time>2022-02-24T15:12:03Z</time>
      </trkpt>
      <trkpt lat="46.1196" lon="5.19702">
        <ele>258.2</ele>
        <time>2022-02-24T15:12:04Z</time>
      </trkpt>
      <trkpt lat="46.1196" lon="5.19708">
        <ele>258.2</ele>
        <time>2022-02-24T15:12:05Z</time>
      </trkpt>
      <trkpt lat="46.1196" lon="5.19715">
        <ele>258.2</ele>
        <time>2022-02-24T15:12:06Z</time>
      </trkpt>
      <trkpt lat="46.1196" lon="5.19723">
        <ele>258.2</ele>
        <time>2022-02-24T15:12:07Z</time>
      </trkpt>
      <trkpt lat="46.1196" lon="5.19731">
        <ele>258.2</ele>
        <time>2022-02-24T15:12:08Z</time>
      </trkpt>
      <trkpt lat="46.1196" lon="5.1974">
        <ele>258.2</ele>
        <time>2022-02-24T15:12:09Z</time>
      </trkpt>
      <trkpt lat="46.1196" lon="5.19749">
        <ele>258.2</ele>
        <time>2022-02-24T15:12:10Z</time>
      </trkpt>
      <trkpt lat="46.11961" lon="5.19759">
        <ele>258.2</ele>
        <time>2022-02-24T15:12:11Z</time>
      </trkpt>
      <trkpt lat="46.11961" lon="5.19768">
        <ele>258.2</ele>
        <time>2022-02-24T15:12:12Z</time>
      </trkpt>
      <trkpt lat="46.11961" lon="5.19777">
        <ele>258.2</ele>
        <time>2022-02-24T15:12:13Z</time>
      </trkpt>
      <trkpt lat="46.11961" lon="5.19786">
        <ele>258</ele>
        <time>2022-02-24T15:12:14Z</time>
      </trkpt>
      <trkpt lat="46.1196" lon="5.19795">
        <ele>258</ele>
        <time>2022-02-24T15:12:15Z</time>
      </trkpt>
      <trkpt lat="46.1196" lon="5.19804">
        <ele>258</ele>
        <time>2022-02-24T15:12:16Z</time>
      </trkpt>
      <trkpt lat="46.1196" lon="5.19813">
        <ele>258</ele>
        <time>2022-02-24T15:12:17Z</time>
      </trkpt>
      <trkpt lat="46.1196" lon="5.19822">
        <ele>258</ele>
        <time>2022-02-24T15:12:18Z</time>
      </trkpt>
      <trkpt lat="46.1196" lon="5.19831">
        <ele>257.8</ele>
        <time>2022-02-24T15:12:19Z</time>
      </trkpt>
      <trkpt lat="46.1196" lon="5.1984">
        <ele>257.8</ele>
        <time>2022-02-24T15:12:20Z</time>
      </trkpt>
      <trkpt lat="46.1196" lon="5.19849">
        <ele>257.8</ele>
        <time>2022-02-24T15:12:21Z</time>
      </trkpt>
      <trkpt lat="46.11959" lon="5.19858">
        <ele>257.8</ele>
        <time>2022-02-24T15:12:22Z</time>
      </trkpt>
      <trkpt lat="46.11959" lon="5.19867">
        <ele>257.8</ele>
        <time>2022-02-24T15:12:23Z</time>
      </trkpt>
      <trkpt lat="46.11959" lon="5.19875">
        <ele>257.8</ele>
        <time>2022-02-24T15:12:24Z</time>
      </trkpt>
      <trkpt lat="46.11959" lon="5.19884">
        <ele>258</ele>
        <time>2022-02-24T15:12:25Z</time>
      </trkpt>
      <trkpt lat="46.11958" lon="5.19892">
        <ele>258</ele>
        <time>2022-02-24T15:12:26Z</time>
      </trkpt>
      <trkpt lat="46.11958" lon="5.19901">
        <ele>258</ele>
        <time>2022-02-24T15:12:27Z</time>
      </trkpt>
      <trkpt lat="46.11958" lon="5.1991">
        <ele>258</ele>
        <time>2022-02-24T15:12:28Z</time>
      </trkpt>
      <trkpt lat="46.11958" lon="5.19918">
        <ele>258</ele>
        <time>2022-02-24T15:12:29Z</time>
      </trkpt>
      <trkpt lat="46.11958" lon="5.19927">
        <ele>258</ele>
        <time>2022-02-24T15:12:30Z</time>
      </trkpt>
      <trkpt lat="46.11958" lon="5.19936">
        <ele>258</ele>
        <time>2022-02-24T15:12:31Z</time>
      </trkpt>
      <trkpt lat="46.11959" lon="5.19944">
        <ele>258</ele>
        <time>2022-02-24T15:12:32Z</time>
      </trkpt>
      <trkpt lat="46.11959" lon="5.19952">
        <ele>258</ele>
        <time>2022-02-24T15:12:33Z</time>
      </trkpt>
      <trkpt lat="46.11959" lon="5.1996">
        <ele>258</ele>
        <time>2022-02-24T15:12:34Z</time>
      </trkpt>
      <trkpt lat="46.11959" lon="5.19967">
        <ele>258</ele>
        <time>2022-02-24T15:12:35Z</time>
      </trkpt>
      <trkpt lat="46.11959" lon="5.19974">
        <ele>258.2</ele>
        <time>2022-02-24T15:12:36Z</time>
      </trkpt>
      <trkpt lat="46.1196" lon="5.19981">
        <ele>258.2</ele>
        <time>2022-02-24T15:12:37Z</time>
      </trkpt>
      <trkpt lat="46.1196" lon="5.19988">
        <ele>258.6</ele>
        <time>2022-02-24T15:12:38Z</time>
      </trkpt>
      <trkpt lat="46.1196" lon="5.19996">
        <ele>258.8</ele>
        <time>2022-02-24T15:12:39Z</time>
      </trkpt>
      <trkpt lat="46.1196" lon="5.20002">
        <ele>258.8</ele>
        <time>2022-02-24T15:12:40Z</time>
      </trkpt>
      <trkpt lat="46.11959" lon="5.20009">
        <ele>259</ele>
        <time>2022-02-24T15:12:41Z</time>
      </trkpt>
      <trkpt lat="46.11959" lon="5.20015">
        <ele>259.4</ele>
        <time>2022-02-24T15:12:42Z</time>
      </trkpt>
      <trkpt lat="46.11959" lon="5.20021">
        <ele>259.4</ele>
        <time>2022-02-24T15:12:43Z</time>
      </trkpt>
      <trkpt lat="46.11959" lon="5.20027">
        <ele>259.8</ele>
        <time>2022-02-24T15:12:44Z</time>
      </trkpt>
      <trkpt lat="46.11959" lon="5.20034">
        <ele>259.8</ele>
        <time>2022-02-24T15:12:45Z</time>
      </trkpt>
      <trkpt lat="46.11959" lon="5.20039">
        <ele>260.4</ele>
        <time>2022-02-24T15:12:46Z</time>
      </trkpt>
      <trkpt lat="46.11959" lon="5.20044">
        <ele>260.6</ele>
        <time>2022-02-24T15:12:47Z</time>
      </trkpt>
      <trkpt lat="46.11959" lon="5.2005">
        <ele>260.8</ele>
        <time>2022-02-24T15:12:48Z</time>
      </trkpt>
      <trkpt lat="46.11959" lon="5.20056">
        <ele>261</ele>
        <time>2022-02-24T15:12:49Z</time>
      </trkpt>
      <trkpt lat="46.11959" lon="5.20061">
        <ele>261.2</ele>
        <time>2022-02-24T15:12:50Z</time>
      </trkpt>
      <trkpt lat="46.11959" lon="5.20067">
        <ele>261.6</ele>
        <time>2022-02-24T15:12:51Z</time>
      </trkpt>
      <trkpt lat="46.11959" lon="5.20072">
        <ele>261.8</ele>
        <time>2022-02-24T15:12:52Z</time>
      </trkpt>
      <trkpt lat="46.11959" lon="5.20078">
        <ele>262</ele>
        <time>2022-02-24T15:12:53Z</time>
      </trkpt>
      <trkpt lat="46.11959" lon="5.20084">
        <ele>262.4</ele>
        <time>2022-02-24T15:12:54Z</time>
      </trkpt>
      <trkpt lat="46.11959" lon="5.2009">
        <ele>262.4</ele>
        <time>2022-02-24T15:12:55Z</time>
      </trkpt>
      <trkpt lat="46.11959" lon="5.20096">
        <ele>262.8</ele>
        <time>2022-02-24T15:12:56Z</time>
      </trkpt>
      <trkpt lat="46.11959" lon="5.20102">
        <ele>263</ele>
        <time>2022-02-24T15:12:57Z</time>
      </trkpt>
      <trkpt lat="46.1196" lon="5.20107">
        <ele>263.2</ele>
        <time>2022-02-24T15:12:58Z</time>
      </trkpt>
      <trkpt lat="46.11959" lon="5.20113">
        <ele>263.2</ele>
        <time>2022-02-24T15:12:59Z</time>
      </trkpt>
      <trkpt lat="46.11959" lon="5.20118">
        <ele>263.6</ele>
        <time>2022-02-24T15:13:00Z</time>
      </trkpt>
      <trkpt lat="46.11959" lon="5.20124">
        <ele>263.6</ele>
        <time>2022-02-24T15:13:01Z</time>
      </trkpt>
      <trkpt lat="46.11959" lon="5.2013">
        <ele>264</ele>
        <time>2022-02-24T15:13:02Z</time>
      </trkpt>
      <trkpt lat="46.11959" lon="5.20136">
        <ele>264.2</ele>
        <time>2022-02-24T15:13:03Z</time>
      </trkpt>
      <trkpt lat="46.11959" lon="5.20142">
        <ele>264.2</ele>
        <time>2022-02-24T15:13:04Z</time>
      </trkpt>
      <trkpt lat="46.11958" lon="5.20148">
        <ele>264.6</ele>
        <time>2022-02-24T15:13:05Z</time>
      </trkpt>
      <trkpt lat="46.11958" lon="5.20155">
        <ele>264.8</ele>
        <time>2022-02-24T15:13:06Z</time>
      </trkpt>
      <trkpt lat="46.11958" lon="5.20161">
        <ele>264.8</ele>
        <time>2022-02-24T15:13:07Z</time>
      </trkpt>
      <trkpt lat="46.11958" lon="5.20168">
        <ele>265</ele>
        <time>2022-02-24T15:13:08Z</time>
      </trkpt>
      <trkpt lat="46.11958" lon="5.20175">
        <ele>265</ele>
        <time>2022-02-24T15:13:09Z</time>
      </trkpt>
      <trkpt lat="46.11957" lon="5.20181">
        <ele>265.4</ele>
        <time>2022-02-24T15:13:10Z</time>
      </trkpt>
      <trkpt lat="46.11957" lon="5.20188">
        <ele>265.4</ele>
        <time>2022-02-24T15:13:11Z</time>
      </trkpt>
      <trkpt lat="46.11957" lon="5.20194">
        <ele>265.8</ele>
        <time>2022-02-24T15:13:12Z</time>
      </trkpt>
      <trkpt lat="46.11958" lon="5.20201">
        <ele>265.8</ele>
        <time>2022-02-24T15:13:13Z</time>
      </trkpt>
      <trkpt lat="46.11959" lon="5.20208">
        <ele>265.8</ele>
        <time>2022-02-24T15:13:14Z</time>
      </trkpt>
      <trkpt lat="46.11961" lon="5.20214">
        <ele>265.8</ele>
        <time>2022-02-24T15:13:15Z</time>
      </trkpt>
      <trkpt lat="46.11963" lon="5.20221">
        <ele>265.8</ele>
        <time>2022-02-24T15:13:16Z</time>
      </trkpt>
      <trkpt lat="46.11966" lon="5.20227">
        <ele>265.8</ele>
        <time>2022-02-24T15:13:17Z</time>
      </trkpt>
      <trkpt lat="46.11968" lon="5.20234">
        <ele>265.8</ele>
        <time>2022-02-24T15:13:18Z</time>
      </trkpt>
      <trkpt lat="46.11971" lon="5.2024">
        <ele>265.8</ele>
        <time>2022-02-24T15:13:19Z</time>
      </trkpt>
      <trkpt lat="46.11975" lon="5.20247">
        <ele>265.8</ele>
        <time>2022-02-24T15:13:20Z</time>
      </trkpt>
      <trkpt lat="46.11978" lon="5.20253">
        <ele>265.8</ele>
        <time>2022-02-24T15:13:21Z</time>
      </trkpt>
      <trkpt lat="46.11982" lon="5.20259">
        <ele>265.8</ele>
        <time>2022-02-24T15:13:22Z</time>
      </trkpt>
      <trkpt lat="46.11985" lon="5.20265">
        <ele>265.4</ele>
        <time>2022-02-24T15:13:23Z</time>
      </trkpt>
      <trkpt lat="46.11989" lon="5.20271">
        <ele>265.4</ele>
        <time>2022-02-24T15:13:24Z</time>
      </trkpt>
      <trkpt lat="46.11993" lon="5.20277">
        <ele>265.4</ele>
        <time>2022-02-24T15:13:25Z</time>
      </trkpt>
      <trkpt lat="46.11997" lon="5.20283">
        <ele>265.4</ele>
        <time>2022-02-24T15:13:26Z</time>
      </trkpt>
      <trkpt lat="46.12001" lon="5.20289">
        <ele>265.4</ele>
        <time>2022-02-24T15:13:27Z</time>
      </trkpt>
      <trkpt lat="46.12006" lon="5.20295">
        <ele>265.4</ele>
        <time>2022-02-24T15:13:28Z</time>
      </trkpt>
      <trkpt lat="46.1201" lon="5.203">
        <ele>265.4</ele>
        <time>2022-02-24T15:13:29Z</time>
      </trkpt>
      <trkpt lat="46.12014" lon="5.20306">
        <ele>265.4</ele>
        <time>2022-02-24T15:13:30Z</time>
      </trkpt>
      <trkpt lat="46.12019" lon="5.20311">
        <ele>265.4</ele>
        <time>2022-02-24T15:13:31Z</time>
      </trkpt>
      <trkpt lat="46.12023" lon="5.20316">
        <ele>265.4</ele>
        <time>2022-02-24T15:13:32Z</time>
      </trkpt>
      <trkpt lat="46.12027" lon="5.20321">
        <ele>265.4</ele>
        <time>2022-02-24T15:13:33Z</time>
      </trkpt>
      <trkpt lat="46.12032" lon="5.20326">
        <ele>265.4</ele>
        <time>2022-02-24T15:13:34Z</time>
      </trkpt>
      <trkpt lat="46.12037" lon="5.20332">
        <ele>265.4</ele>
        <time>2022-02-24T15:13:35Z</time>
      </trkpt>
      <trkpt lat="46.12042" lon="5.20337">
        <ele>265.4</ele>
        <time>2022-02-24T15:13:36Z</time>
      </trkpt>
      <trkpt lat="46.12047" lon="5.20342">
        <ele>265.4</ele>
        <time>2022-02-24T15:13:37Z</time>
      </trkpt>
      <trkpt lat="46.12052" lon="5.20347">
        <ele>265.4</ele>
        <time>2022-02-24T15:13:38Z</time>
      </trkpt>
      <trkpt lat="46.12057" lon="5.20351">
        <ele>265.4</ele>
        <time>2022-02-24T15:13:39Z</time>
      </trkpt>
      <trkpt lat="46.12062" lon="5.20356">
        <ele>265.4</ele>
        <time>2022-02-24T15:13:40Z</time>
      </trkpt>
      <trkpt lat="46.12067" lon="5.2036">
        <ele>265.4</ele>
        <time>2022-02-24T15:13:41Z</time>
      </trkpt>
      <trkpt lat="46.12072" lon="5.20365">
        <ele>265.4</ele>
        <time>2022-02-24T15:13:42Z</time>
      </trkpt>
      <trkpt lat="46.12077" lon="5.2037">
        <ele>265.4</ele>
        <time>2022-02-24T15:13:43Z</time>
      </trkpt>
      <trkpt lat="46.12082" lon="5.20375">
        <ele>265.2</ele>
        <time>2022-02-24T15:13:44Z</time>
      </trkpt>
      <trkpt lat="46.12087" lon="5.20379">
        <ele>265.2</ele>
        <time>2022-02-24T15:13:45Z</time>
      </trkpt>
      <trkpt lat="46.12092" lon="5.20384">
        <ele>265.2</ele>
        <time>2022-02-24T15:13:46Z</time>
      </trkpt>
      <trkpt lat="46.12098" lon="5.20389">
        <ele>265.2</ele>
        <time>2022-02-24T15:13:47Z</time>
      </trkpt>
      <trkpt lat="46.12103" lon="5.20394">
        <ele>265.2</ele>
        <time>2022-02-24T15:13:48Z</time>
      </trkpt>
      <trkpt lat="46.12108" lon="5.20399">
        <ele>265.2</ele>
        <time>2022-02-24T15:13:49Z</time>
      </trkpt>
      <trkpt lat="46.12113" lon="5.20404">
        <ele>265.2</ele>
        <time>2022-02-24T15:13:50Z</time>
      </trkpt>
      <trkpt lat="46.12118" lon="5.20409">
        <ele>265.2</ele>
        <time>2022-02-24T15:13:51Z</time>
      </trkpt>
      <trkpt lat="46.12124" lon="5.20414">
        <ele>265.2</ele>
        <time>2022-02-24T15:13:52Z</time>
      </trkpt>
      <trkpt lat="46.1213" lon="5.20419">
        <ele>265.2</ele>
        <time>2022-02-24T15:13:53Z</time>
      </trkpt>
      <trkpt lat="46.12135" lon="5.20423">
        <ele>265.2</ele>
        <time>2022-02-24T15:13:54Z</time>
      </trkpt>
      <trkpt lat="46.12141" lon="5.20427">
        <ele>265.2</ele>
        <time>2022-02-24T15:13:55Z</time>
      </trkpt>
      <trkpt lat="46.12147" lon="5.2043">
        <ele>265.2</ele>
        <time>2022-02-24T15:13:56Z</time>
      </trkpt>
      <trkpt lat="46.12154" lon="5.20433">
        <ele>265.2</ele>
        <time>2022-02-24T15:13:57Z</time>
      </trkpt>
      <trkpt lat="46.1216" lon="5.20435">
        <ele>265.2</ele>
        <time>2022-02-24T15:13:58Z</time>
      </trkpt>
      <trkpt lat="46.12167" lon="5.20436">
        <ele>265.2</ele>
        <time>2022-02-24T15:13:59Z</time>
      </trkpt>
      <trkpt lat="46.12173" lon="5.20438">
        <ele>265.2</ele>
        <time>2022-02-24T15:14:00Z</time>
      </trkpt>
      <trkpt lat="46.1218" lon="5.2044">
        <ele>265.2</ele>
        <time>2022-02-24T15:14:01Z</time>
      </trkpt>
      <trkpt lat="46.12186" lon="5.20441">
        <ele>265.2</ele>
        <time>2022-02-24T15:14:02Z</time>
      </trkpt>
      <trkpt lat="46.12193" lon="5.20443">
        <ele>265.2</ele>
        <time>2022-02-24T15:14:03Z</time>
      </trkpt>
      <trkpt lat="46.122" lon="5.20444">
        <ele>265.2</ele>
        <time>2022-02-24T15:14:04Z</time>
      </trkpt>
      <trkpt lat="46.12206" lon="5.20446">
        <ele>265</ele>
        <time>2022-02-24T15:14:05Z</time>
      </trkpt>
      <trkpt lat="46.12213" lon="5.20448">
        <ele>265</ele>
        <time>2022-02-24T15:14:06Z</time>
      </trkpt>
      <trkpt lat="46.1222" lon="5.20451">
        <ele>265</ele>
        <time>2022-02-24T15:14:07Z</time>
      </trkpt>
      <trkpt lat="46.12226" lon="5.20454">
        <ele>265</ele>
        <time>2022-02-24T15:14:08Z</time>
      </trkpt>
      <trkpt lat="46.12233" lon="5.20459">
        <ele>264.8</ele>
        <time>2022-02-24T15:14:09Z</time>
      </trkpt>
      <trkpt lat="46.12239" lon="5.20464">
        <ele>264.8</ele>
        <time>2022-02-24T15:14:10Z</time>
      </trkpt>
      <trkpt lat="46.12245" lon="5.2047">
        <ele>264.6</ele>
        <time>2022-02-24T15:14:11Z</time>
      </trkpt>
      <trkpt lat="46.12251" lon="5.20476">
        <ele>264.6</ele>
        <time>2022-02-24T15:14:12Z</time>
      </trkpt>
      <trkpt lat="46.12256" lon="5.20484">
        <ele>264.4</ele>
        <time>2022-02-24T15:14:13Z</time>
      </trkpt>
      <trkpt lat="46.12261" lon="5.20491">
        <ele>264.4</ele>
        <time>2022-02-24T15:14:14Z</time>
      </trkpt>
      <trkpt lat="46.12266" lon="5.20499">
        <ele>264</ele>
        <time>2022-02-24T15:14:15Z</time>
      </trkpt>
      <trkpt lat="46.12271" lon="5.20506">
        <ele>264</ele>
        <time>2022-02-24T15:14:16Z</time>
      </trkpt>
      <trkpt lat="46.12277" lon="5.20513">
        <ele>263.8</ele>
        <time>2022-02-24T15:14:17Z</time>
      </trkpt>
      <trkpt lat="46.12277" lon="5.20513">
        <ele>263.8</ele>
        <time>2022-02-24T15:14:18Z</time>
      </trkpt>
      <trkpt lat="46.12283" lon="5.2052">
        <ele>263.4</ele>
        <time>2022-02-24T15:14:19Z</time>
      </trkpt>
      <trkpt lat="46.12289" lon="5.20527">
        <ele>263.4</ele>
        <time>2022-02-24T15:14:20Z</time>
      </trkpt>
      <trkpt lat="46.12295" lon="5.20533">
        <ele>263</ele>
        <time>2022-02-24T15:14:21Z</time>
      </trkpt>
      <trkpt lat="46.12302" lon="5.20539">
        <ele>262.6</ele>
        <time>2022-02-24T15:14:22Z</time>
      </trkpt>
      <trkpt lat="46.12309" lon="5.20544">
        <ele>262.4</ele>
        <time>2022-02-24T15:14:23Z</time>
      </trkpt>
      <trkpt lat="46.12316" lon="5.2055">
        <ele>262</ele>
        <time>2022-02-24T15:14:24Z</time>
      </trkpt>
      <trkpt lat="46.12323" lon="5.20555">
        <ele>261.8</ele>
        <time>2022-02-24T15:14:25Z</time>
      </trkpt>
      <trkpt lat="46.12331" lon="5.20559">
        <ele>261.4</ele>
        <time>2022-02-24T15:14:26Z</time>
      </trkpt>
      <trkpt lat="46.12339" lon="5.20564">
        <ele>261</ele>
        <time>2022-02-24T15:14:27Z</time>
      </trkpt>
      <trkpt lat="46.12347" lon="5.20569">
        <ele>260.8</ele>
        <time>2022-02-24T15:14:28Z</time>
      </trkpt>
      <trkpt lat="46.12355" lon="5.20573">
        <ele>260.4</ele>
        <time>2022-02-24T15:14:29Z</time>
      </trkpt>
      <trkpt lat="46.12362" lon="5.20577">
        <ele>260.2</ele>
        <time>2022-02-24T15:14:30Z</time>
      </trkpt>
      <trkpt lat="46.1237" lon="5.20582">
        <ele>260</ele>
        <time>2022-02-24T15:14:31Z</time>
      </trkpt>
      <trkpt lat="46.12378" lon="5.20587">
        <ele>259.6</ele>
        <time>2022-02-24T15:14:32Z</time>
      </trkpt>
      <trkpt lat="46.12386" lon="5.20591">
        <ele>259.6</ele>
        <time>2022-02-24T15:14:33Z</time>
      </trkpt>
      <trkpt lat="46.12394" lon="5.20596">
        <ele>259.2</ele>
        <time>2022-02-24T15:14:34Z</time>
      </trkpt>
      <trkpt lat="46.12403" lon="5.20601">
        <ele>258.8</ele>
        <time>2022-02-24T15:14:35Z</time>
      </trkpt>
      <trkpt lat="46.12412" lon="5.20606">
        <ele>258.6</ele>
        <time>2022-02-24T15:14:36Z</time>
      </trkpt>
      <trkpt lat="46.1242" lon="5.20611">
        <ele>258.4</ele>
        <time>2022-02-24T15:14:37Z</time>
      </trkpt>
      <trkpt lat="46.12429" lon="5.20616">
        <ele>258.2</ele>
        <time>2022-02-24T15:14:38Z</time>
      </trkpt>
      <trkpt lat="46.12437" lon="5.20624">
        <ele>258.2</ele>
        <time>2022-02-24T15:14:39Z</time>
      </trkpt>
      <trkpt lat="46.12444" lon="5.20631">
        <ele>257.8</ele>
        <time>2022-02-24T15:14:40Z</time>
      </trkpt>
      <trkpt lat="46.12451" lon="5.20639">
        <ele>257.8</ele>
        <time>2022-02-24T15:14:41Z</time>
      </trkpt>
      <trkpt lat="46.12458" lon="5.20647">
        <ele>257.6</ele>
        <time>2022-02-24T15:14:42Z</time>
      </trkpt>
      <trkpt lat="46.12465" lon="5.20655">
        <ele>257.6</ele>
        <time>2022-02-24T15:14:43Z</time>
      </trkpt>
      <trkpt lat="46.12471" lon="5.20664">
        <ele>257.6</ele>
        <time>2022-02-24T15:14:44Z</time>
      </trkpt>
      <trkpt lat="46.12478" lon="5.20673">
        <ele>257.6</ele>
        <time>2022-02-24T15:14:45Z</time>
      </trkpt>
      <trkpt lat="46.12484" lon="5.20681">
        <ele>257.2</ele>
        <time>2022-02-24T15:14:46Z</time>
      </trkpt>
      <trkpt lat="46.12491" lon="5.20689">
        <ele>257.2</ele>
        <time>2022-02-24T15:14:47Z</time>
      </trkpt>
      <trkpt lat="46.12497" lon="5.20697">
        <ele>257.2</ele>
        <time>2022-02-24T15:14:48Z</time>
      </trkpt>
      <trkpt lat="46.12503" lon="5.20705">
        <ele>257</ele>
        <time>2022-02-24T15:14:49Z</time>
      </trkpt>
      <trkpt lat="46.12509" lon="5.20712">
        <ele>257</ele>
        <time>2022-02-24T15:14:50Z</time>
      </trkpt>
      <trkpt lat="46.12515" lon="5.20719">
        <ele>257</ele>
        <time>2022-02-24T15:14:51Z</time>
      </trkpt>
      <trkpt lat="46.12521" lon="5.20726">
        <ele>257</ele>
        <time>2022-02-24T15:14:52Z</time>
      </trkpt>
      <trkpt lat="46.12527" lon="5.20732">
        <ele>257</ele>
        <time>2022-02-24T15:14:53Z</time>
      </trkpt>
      <trkpt lat="46.12533" lon="5.20738">
        <ele>257</ele>
        <time>2022-02-24T15:14:54Z</time>
      </trkpt>
      <trkpt lat="46.1254" lon="5.20744">
        <ele>257</ele>
        <time>2022-02-24T15:14:55Z</time>
      </trkpt>
      <trkpt lat="46.12546" lon="5.20749">
        <ele>257</ele>
        <time>2022-02-24T15:14:56Z</time>
      </trkpt>
      <trkpt lat="46.12552" lon="5.20755">
        <ele>257</ele>
        <time>2022-02-24T15:14:57Z</time>
      </trkpt>
      <trkpt lat="46.12559" lon="5.2076">
        <ele>257</ele>
        <time>2022-02-24T15:14:58Z</time>
      </trkpt>
      <trkpt lat="46.12565" lon="5.20766">
        <ele>257</ele>
        <time>2022-02-24T15:14:59Z</time>
      </trkpt>
      <trkpt lat="46.12571" lon="5.20771">
        <ele>257</ele>
        <time>2022-02-24T15:15:00Z</time>
      </trkpt>
      <trkpt lat="46.12576" lon="5.20776">
        <ele>257</ele>
        <time>2022-02-24T15:15:01Z</time>
      </trkpt>
      <trkpt lat="46.12582" lon="5.20781">
        <ele>257.2</ele>
        <time>2022-02-24T15:15:02Z</time>
      </trkpt>
      <trkpt lat="46.12588" lon="5.20786">
        <ele>257.2</ele>
        <time>2022-02-24T15:15:03Z</time>
      </trkpt>
      <trkpt lat="46.12593" lon="5.2079">
        <ele>257.2</ele>
        <time>2022-02-24T15:15:04Z</time>
      </trkpt>
      <trkpt lat="46.12599" lon="5.20795">
        <ele>257.6</ele>
        <time>2022-02-24T15:15:05Z</time>
      </trkpt>
      <trkpt lat="46.12605" lon="5.20799">
        <ele>257.6</ele>
        <time>2022-02-24T15:15:06Z</time>
      </trkpt>
      <trkpt lat="46.12611" lon="5.20803">
        <ele>257.8</ele>
        <time>2022-02-24T15:15:07Z</time>
      </trkpt>
      <trkpt lat="46.12616" lon="5.20808">
        <ele>257.8</ele>
        <time>2022-02-24T15:15:08Z</time>
      </trkpt>
      <trkpt lat="46.12621" lon="5.20812">
        <ele>257.8</ele>
        <time>2022-02-24T15:15:09Z</time>
      </trkpt>
      <trkpt lat="46.12626" lon="5.20817">
        <ele>257.8</ele>
        <time>2022-02-24T15:15:10Z</time>
      </trkpt>
      <trkpt lat="46.12632" lon="5.20822">
        <ele>258</ele>
        <time>2022-02-24T15:15:11Z</time>
      </trkpt>
      <trkpt lat="46.12638" lon="5.20826">
        <ele>258</ele>
        <time>2022-02-24T15:15:12Z</time>
      </trkpt>
      <trkpt lat="46.12643" lon="5.20831">
        <ele>258</ele>
        <time>2022-02-24T15:15:13Z</time>
      </trkpt>
      <trkpt lat="46.12649" lon="5.20836">
        <ele>258</ele>
        <time>2022-02-24T15:15:14Z</time>
      </trkpt>
      <trkpt lat="46.12655" lon="5.2084">
        <ele>258</ele>
        <time>2022-02-24T15:15:15Z</time>
      </trkpt>
      <trkpt lat="46.1266" lon="5.20845">
        <ele>258</ele>
        <time>2022-02-24T15:15:16Z</time>
      </trkpt>
      <trkpt lat="46.12666" lon="5.2085">
        <ele>258.2</ele>
        <time>2022-02-24T15:15:17Z</time>
      </trkpt>
      <trkpt lat="46.12672" lon="5.20854">
        <ele>258.2</ele>
        <time>2022-02-24T15:15:18Z</time>
      </trkpt>
      <trkpt lat="46.12677" lon="5.20859">
        <ele>258.2</ele>
        <time>2022-02-24T15:15:19Z</time>
      </trkpt>
      <trkpt lat="46.12683" lon="5.20864">
        <ele>258.2</ele>
        <time>2022-02-24T15:15:20Z</time>
      </trkpt>
      <trkpt lat="46.12689" lon="5.20868">
        <ele>258.2</ele>
        <time>2022-02-24T15:15:21Z</time>
      </trkpt>
      <trkpt lat="46.12695" lon="5.20873">
        <ele>258.2</ele>
        <time>2022-02-24T15:15:22Z</time>
      </trkpt>
      <trkpt lat="46.127" lon="5.20878">
        <ele>258.2</ele>
        <time>2022-02-24T15:15:23Z</time>
      </trkpt>
      <trkpt lat="46.12706" lon="5.20883">
        <ele>258.2</ele>
        <time>2022-02-24T15:15:24Z</time>
      </trkpt>
      <trkpt lat="46.12712" lon="5.20888">
        <ele>258.2</ele>
        <time>2022-02-24T15:15:25Z</time>
      </trkpt>
      <trkpt lat="46.12718" lon="5.20893">
        <ele>258.2</ele>
        <time>2022-02-24T15:15:26Z</time>
      </trkpt>
      <trkpt lat="46.12724" lon="5.20898">
        <ele>258.2</ele>
        <time>2022-02-24T15:15:27Z</time>
      </trkpt>
      <trkpt lat="46.1273" lon="5.20903">
        <ele>258.4</ele>
        <time>2022-02-24T15:15:28Z</time>
      </trkpt>
      <trkpt lat="46.12736" lon="5.20907">
        <ele>258.4</ele>
        <time>2022-02-24T15:15:29Z</time>
      </trkpt>
      <trkpt lat="46.12742" lon="5.20911">
        <ele>258.4</ele>
        <time>2022-02-24T15:15:30Z</time>
      </trkpt>
      <trkpt lat="46.12748" lon="5.20915">
        <ele>258.4</ele>
        <time>2022-02-24T15:15:31Z</time>
      </trkpt>
      <trkpt lat="46.12755" lon="5.20917">
        <ele>258.4</ele>
        <time>2022-02-24T15:15:32Z</time>
      </trkpt>
      <trkpt lat="46.12761" lon="5.20919">
        <ele>258.4</ele>
        <time>2022-02-24T15:15:33Z</time>
      </trkpt>
      <trkpt lat="46.12767" lon="5.2092">
        <ele>258.8</ele>
        <time>2022-02-24T15:15:34Z</time>
      </trkpt>
      <trkpt lat="46.12773" lon="5.2092">
        <ele>258.8</ele>
        <time>2022-02-24T15:15:35Z</time>
      </trkpt>
      <trkpt lat="46.12779" lon="5.2092">
        <ele>259</ele>
        <time>2022-02-24T15:15:36Z</time>
      </trkpt>
      <trkpt lat="46.12785" lon="5.2092">
        <ele>259</ele>
        <time>2022-02-24T15:15:37Z</time>
      </trkpt>
      <trkpt lat="46.12791" lon="5.2092">
        <ele>259.2</ele>
        <time>2022-02-24T15:15:38Z</time>
      </trkpt>
      <trkpt lat="46.12796" lon="5.20919">
        <ele>259.2</ele>
        <time>2022-02-24T15:15:39Z</time>
      </trkpt>
      <trkpt lat="46.12802" lon="5.20918">
        <ele>259.4</ele>
        <time>2022-02-24T15:15:40Z</time>
      </trkpt>
      <trkpt lat="46.12808" lon="5.20918">
        <ele>259.4</ele>
        <time>2022-02-24T15:15:41Z</time>
      </trkpt>
      <trkpt lat="46.12814" lon="5.20917">
        <ele>259.6</ele>
        <time>2022-02-24T15:15:42Z</time>
      </trkpt>
      <trkpt lat="46.12819" lon="5.20916">
        <ele>259.6</ele>
        <time>2022-02-24T15:15:43Z</time>
      </trkpt>
      <trkpt lat="46.12825" lon="5.20915">
        <ele>260</ele>
        <time>2022-02-24T15:15:44Z</time>
      </trkpt>
      <trkpt lat="46.12831" lon="5.20914">
        <ele>260</ele>
        <time>2022-02-24T15:15:45Z</time>
      </trkpt>
      <trkpt lat="46.12837" lon="5.20914">
        <ele>260</ele>
        <time>2022-02-24T15:15:46Z</time>
      </trkpt>
      <trkpt lat="46.12843" lon="5.20913">
        <ele>260.2</ele>
        <time>2022-02-24T15:15:47Z</time>
      </trkpt>
      <trkpt lat="46.12848" lon="5.20913">
        <ele>260.2</ele>
        <time>2022-02-24T15:15:48Z</time>
      </trkpt>
      <trkpt lat="46.12854" lon="5.20912">
        <ele>260.6</ele>
        <time>2022-02-24T15:15:49Z</time>
      </trkpt>
      <trkpt lat="46.1286" lon="5.20912">
        <ele>260.6</ele>
        <time>2022-02-24T15:15:50Z</time>
      </trkpt>
      <trkpt lat="46.12866" lon="5.20911">
        <ele>260.6</ele>
        <time>2022-02-24T15:15:51Z</time>
      </trkpt>
      <trkpt lat="46.12872" lon="5.20911">
        <ele>260.8</ele>
        <time>2022-02-24T15:15:52Z</time>
      </trkpt>
      <trkpt lat="46.12878" lon="5.2091">
        <ele>260.8</ele>
        <time>2022-02-24T15:15:53Z</time>
      </trkpt>
      <trkpt lat="46.12884" lon="5.2091">
        <ele>260.8</ele>
        <time>2022-02-24T15:15:54Z</time>
      </trkpt>
      <trkpt lat="46.12891" lon="5.2091">
        <ele>260.8</ele>
        <time>2022-02-24T15:15:55Z</time>
      </trkpt>
      <trkpt lat="46.12897" lon="5.2091">
        <ele>260.8</ele>
        <time>2022-02-24T15:15:56Z</time>
      </trkpt>
      <trkpt lat="46.12904" lon="5.2091">
        <ele>261</ele>
        <time>2022-02-24T15:15:57Z</time>
      </trkpt>
      <trkpt lat="46.12911" lon="5.20911">
        <ele>261</ele>
        <time>2022-02-24T15:15:58Z</time>
      </trkpt>
      <trkpt lat="46.12918" lon="5.20912">
        <ele>261</ele>
        <time>2022-02-24T15:15:59Z</time>
      </trkpt>
      <trkpt lat="46.12924" lon="5.20912">
        <ele>261</ele>
        <time>2022-02-24T15:16:00Z</time>
      </trkpt>
      <trkpt lat="46.12931" lon="5.20913">
        <ele>261</ele>
        <time>2022-02-24T15:16:01Z</time>
      </trkpt>
      <trkpt lat="46.12938" lon="5.20914">
        <ele>261</ele>
        <time>2022-02-24T15:16:02Z</time>
      </trkpt>
      <trkpt lat="46.12945" lon="5.20915">
        <ele>260.8</ele>
        <time>2022-02-24T15:16:03Z</time>
      </trkpt>
      <trkpt lat="46.12952" lon="5.20915">
        <ele>260.8</ele>
        <time>2022-02-24T15:16:04Z</time>
      </trkpt>
      <trkpt lat="46.12959" lon="5.20916">
        <ele>260.8</ele>
        <time>2022-02-24T15:16:05Z</time>
      </trkpt>
      <trkpt lat="46.12967" lon="5.20916">
        <ele>260.8</ele>
        <time>2022-02-24T15:16:06Z</time>
      </trkpt>
      <trkpt lat="46.12974" lon="5.20917">
        <ele>260.4</ele>
        <time>2022-02-24T15:16:07Z</time>
      </trkpt>
      <trkpt lat="46.12981" lon="5.20918">
        <ele>260.4</ele>
        <time>2022-02-24T15:16:08Z</time>
      </trkpt>
      <trkpt lat="46.12988" lon="5.20919">
        <ele>260.4</ele>
        <time>2022-02-24T15:16:09Z</time>
      </trkpt>
      <trkpt lat="46.12996" lon="5.2092">
        <ele>260.4</ele>
        <time>2022-02-24T15:16:10Z</time>
      </trkpt>
      <trkpt lat="46.13003" lon="5.2092">
        <ele>260.2</ele>
        <time>2022-02-24T15:16:11Z</time>
      </trkpt>
      <trkpt lat="46.1301" lon="5.20921">
        <ele>260.2</ele>
        <time>2022-02-24T15:16:12Z</time>
      </trkpt>
      <trkpt lat="46.13018" lon="5.20922">
        <ele>259.8</ele>
        <time>2022-02-24T15:16:13Z</time>
      </trkpt>
      <trkpt lat="46.13025" lon="5.20924">
        <ele>259.8</ele>
        <time>2022-02-24T15:16:14Z</time>
      </trkpt>
      <trkpt lat="46.13033" lon="5.20924">
        <ele>259.6</ele>
        <time>2022-02-24T15:16:15Z</time>
      </trkpt>
      <trkpt lat="46.1304" lon="5.20925">
        <ele>259.6</ele>
        <time>2022-02-24T15:16:16Z</time>
      </trkpt>
      <trkpt lat="46.13048" lon="5.20926">
        <ele>259.4</ele>
        <time>2022-02-24T15:16:17Z</time>
      </trkpt>
      <trkpt lat="46.13056" lon="5.20927">
        <ele>259.4</ele>
        <time>2022-02-24T15:16:18Z</time>
      </trkpt>
      <trkpt lat="46.13063" lon="5.20928">
        <ele>259.2</ele>
        <time>2022-02-24T15:16:19Z</time>
      </trkpt>
      <trkpt lat="46.13071" lon="5.20929">
        <ele>259.2</ele>
        <time>2022-02-24T15:16:20Z</time>
      </trkpt>
      <trkpt lat="46.13078" lon="5.2093">
        <ele>258.8</ele>
        <time>2022-02-24T15:16:21Z</time>
      </trkpt>
      <trkpt lat="46.13086" lon="5.20931">
        <ele>258.8</ele>
        <time>2022-02-24T15:16:22Z</time>
      </trkpt>
      <trkpt lat="46.13093" lon="5.20932">
        <ele>258.8</ele>
        <time>2022-02-24T15:16:23Z</time>
      </trkpt>
      <trkpt lat="46.13101" lon="5.20934">
        <ele>258.8</ele>
        <time>2022-02-24T15:16:24Z</time>
      </trkpt>
      <trkpt lat="46.13108" lon="5.20935">
        <ele>258.8</ele>
        <time>2022-02-24T15:16:25Z</time>
      </trkpt>
      <trkpt lat="46.13115" lon="5.20936">
        <ele>258.8</ele>
        <time>2022-02-24T15:16:26Z</time>
      </trkpt>
      <trkpt lat="46.13123" lon="5.20938">
        <ele>258.8</ele>
        <time>2022-02-24T15:16:27Z</time>
      </trkpt>
      <trkpt lat="46.13129" lon="5.2094">
        <ele>258.8</ele>
        <time>2022-02-24T15:16:28Z</time>
      </trkpt>
      <trkpt lat="46.13136" lon="5.20941">
        <ele>258.8</ele>
        <time>2022-02-24T15:16:29Z</time>
      </trkpt>
      <trkpt lat="46.13143" lon="5.20943">
        <ele>258.6</ele>
        <time>2022-02-24T15:16:30Z</time>
      </trkpt>
      <trkpt lat="46.1315" lon="5.20945">
        <ele>258.6</ele>
        <time>2022-02-24T15:16:31Z</time>
      </trkpt>
      <trkpt lat="46.13157" lon="5.20947">
        <ele>258.6</ele>
        <time>2022-02-24T15:16:32Z</time>
      </trkpt>
      <trkpt lat="46.13164" lon="5.20949">
        <ele>258.6</ele>
        <time>2022-02-24T15:16:33Z</time>
      </trkpt>
      <trkpt lat="46.13171" lon="5.20951">
        <ele>258.6</ele>
        <time>2022-02-24T15:16:34Z</time>
      </trkpt>
      <trkpt lat="46.13178" lon="5.20954">
        <ele>258.4</ele>
        <time>2022-02-24T15:16:35Z</time>
      </trkpt>
      <trkpt lat="46.13185" lon="5.20956">
        <ele>258.4</ele>
        <time>2022-02-24T15:16:36Z</time>
      </trkpt>
      <trkpt lat="46.13193" lon="5.20958">
        <ele>258</ele>
        <time>2022-02-24T15:16:37Z</time>
      </trkpt>
      <trkpt lat="46.132" lon="5.2096">
        <ele>257.8</ele>
        <time>2022-02-24T15:16:38Z</time>
      </trkpt>
      <trkpt lat="46.13207" lon="5.20962">
        <ele>257.8</ele>
        <time>2022-02-24T15:16:39Z</time>
      </trkpt>
      <trkpt lat="46.13215" lon="5.20965">
        <ele>257.8</ele>
        <time>2022-02-24T15:16:40Z</time>
      </trkpt>
      <trkpt lat="46.13222" lon="5.20967">
        <ele>257.6</ele>
        <time>2022-02-24T15:16:41Z</time>
      </trkpt>
      <trkpt lat="46.1323" lon="5.2097">
        <ele>257.6</ele>
        <time>2022-02-24T15:16:42Z</time>
      </trkpt>
      <trkpt lat="46.13237" lon="5.20972">
        <ele>257.4</ele>
        <time>2022-02-24T15:16:43Z</time>
      </trkpt>
      <trkpt lat="46.13245" lon="5.20975">
        <ele>257.4</ele>
        <time>2022-02-24T15:16:44Z</time>
      </trkpt>
      <trkpt lat="46.13253" lon="5.20978">
        <ele>257</ele>
        <time>2022-02-24T15:16:45Z</time>
      </trkpt>
      <trkpt lat="46.13261" lon="5.2098">
        <ele>256.8</ele>
        <time>2022-02-24T15:16:46Z</time>
      </trkpt>
      <trkpt lat="46.13269" lon="5.20983">
        <ele>256.6</ele>
        <time>2022-02-24T15:16:47Z</time>
      </trkpt>
      <trkpt lat="46.13277" lon="5.20985">
        <ele>256.6</ele>
        <time>2022-02-24T15:16:48Z</time>
      </trkpt>
      <trkpt lat="46.13286" lon="5.20988">
        <ele>256.2</ele>
        <time>2022-02-24T15:16:49Z</time>
      </trkpt>
      <trkpt lat="46.13294" lon="5.20991">
        <ele>256</ele>
        <time>2022-02-24T15:16:50Z</time>
      </trkpt>
      <trkpt lat="46.13302" lon="5.20993">
        <ele>255.8</ele>
        <time>2022-02-24T15:16:51Z</time>
      </trkpt>
      <trkpt lat="46.13311" lon="5.20996">
        <ele>255.6</ele>
        <time>2022-02-24T15:16:52Z</time>
      </trkpt>
      <trkpt lat="46.1332" lon="5.20999">
        <ele>255.2</ele>
        <time>2022-02-24T15:16:53Z</time>
      </trkpt>
      <trkpt lat="46.13328" lon="5.21001">
        <ele>255</ele>
        <time>2022-02-24T15:16:54Z</time>
      </trkpt>
      <trkpt lat="46.13337" lon="5.21004">
        <ele>255</ele>
        <time>2022-02-24T15:16:55Z</time>
      </trkpt>
      <trkpt lat="46.13346" lon="5.21007">
        <ele>254.6</ele>
        <time>2022-02-24T15:16:56Z</time>
      </trkpt>
      <trkpt lat="46.13354" lon="5.2101">
        <ele>254.6</ele>
        <time>2022-02-24T15:16:57Z</time>
      </trkpt>
      <trkpt lat="46.13363" lon="5.21012">
        <ele>254.4</ele>
        <time>2022-02-24T15:16:58Z</time>
      </trkpt>
      <trkpt lat="46.13371" lon="5.21015">
        <ele>254.4</ele>
        <time>2022-02-24T15:16:59Z</time>
      </trkpt>
      <trkpt lat="46.13379" lon="5.21018">
        <ele>254.4</ele>
        <time>2022-02-24T15:17:00Z</time>
      </trkpt>
      <trkpt lat="46.13386" lon="5.21021">
        <ele>254.4</ele>
        <time>2022-02-24T15:17:01Z</time>
      </trkpt>
      <trkpt lat="46.13394" lon="5.21023">
        <ele>254.4</ele>
        <time>2022-02-24T15:17:02Z</time>
      </trkpt>
      <trkpt lat="46.13402" lon="5.21026">
        <ele>254.4</ele>
        <time>2022-02-24T15:17:03Z</time>
      </trkpt>
      <trkpt lat="46.1341" lon="5.21029">
        <ele>254.4</ele>
        <time>2022-02-24T15:17:04Z</time>
      </trkpt>
      <trkpt lat="46.13417" lon="5.21032">
        <ele>254.4</ele>
        <time>2022-02-24T15:17:05Z</time>
      </trkpt>
      <trkpt lat="46.13424" lon="5.21034">
        <ele>254.4</ele>
        <time>2022-02-24T15:17:06Z</time>
      </trkpt>
      <trkpt lat="46.13432" lon="5.21037">
        <ele>254.4</ele>
        <time>2022-02-24T15:17:07Z</time>
      </trkpt>
      <trkpt lat="46.13439" lon="5.21039">
        <ele>254.6</ele>
        <time>2022-02-24T15:17:08Z</time>
      </trkpt>
      <trkpt lat="46.13446" lon="5.21042">
        <ele>254.6</ele>
        <time>2022-02-24T15:17:09Z</time>
      </trkpt>
      <trkpt lat="46.13453" lon="5.21044">
        <ele>254.6</ele>
        <time>2022-02-24T15:17:10Z</time>
      </trkpt>
      <trkpt lat="46.13461" lon="5.21046">
        <ele>255</ele>
        <time>2022-02-24T15:17:11Z</time>
      </trkpt>
      <trkpt lat="46.13468" lon="5.21049">
        <ele>255</ele>
        <time>2022-02-24T15:17:12Z</time>
      </trkpt>
      <trkpt lat="46.13475" lon="5.21051">
        <ele>255</ele>
        <time>2022-02-24T15:17:13Z</time>
      </trkpt>
      <trkpt lat="46.13482" lon="5.21054">
        <ele>255</ele>
        <time>2022-02-24T15:17:14Z</time>
      </trkpt>
      <trkpt lat="46.1349" lon="5.21056">
        <ele>255</ele>
        <time>2022-02-24T15:17:15Z</time>
      </trkpt>
      <trkpt lat="46.13497" lon="5.21059">
        <ele>255</ele>
        <time>2022-02-24T15:17:16Z</time>
      </trkpt>
      <trkpt lat="46.13505" lon="5.21061">
        <ele>255.2</ele>
        <time>2022-02-24T15:17:17Z</time>
      </trkpt>
      <trkpt lat="46.13512" lon="5.21064">
        <ele>255.2</ele>
        <time>2022-02-24T15:17:18Z</time>
      </trkpt>
      <trkpt lat="46.13519" lon="5.21066">
        <ele>255.2</ele>
        <time>2022-02-24T15:17:19Z</time>
      </trkpt>
      <trkpt lat="46.13526" lon="5.21068">
        <ele>255.2</ele>
        <time>2022-02-24T15:17:20Z</time>
      </trkpt>
      <trkpt lat="46.13534" lon="5.21071">
        <ele>255.2</ele>
        <time>2022-02-24T15:17:21Z</time>
      </trkpt>
      <trkpt lat="46.13541" lon="5.21073">
        <ele>255.2</ele>
        <time>2022-02-24T15:17:22Z</time>
      </trkpt>
      <trkpt lat="46.13548" lon="5.21076">
        <ele>255.2</ele>
        <time>2022-02-24T15:17:23Z</time>
      </trkpt>
      <trkpt lat="46.13555" lon="5.21078">
        <ele>255.2</ele>
        <time>2022-02-24T15:17:24Z</time>
      </trkpt>
      <trkpt lat="46.13562" lon="5.2108">
        <ele>255.2</ele>
        <time>2022-02-24T15:17:25Z</time>
      </trkpt>
      <trkpt lat="46.13569" lon="5.21082">
        <ele>255.2</ele>
        <time>2022-02-24T15:17:26Z</time>
      </trkpt>
      <trkpt lat="46.13576" lon="5.21083">
        <ele>255.2</ele>
        <time>2022-02-24T15:17:27Z</time>
      </trkpt>
      <trkpt lat="46.13583" lon="5.21084">
        <ele>255.4</ele>
        <time>2022-02-24T15:17:28Z</time>
      </trkpt>
      <trkpt lat="46.1359" lon="5.21085">
        <ele>255.4</ele>
        <time>2022-02-24T15:17:29Z</time>
      </trkpt>
      <trkpt lat="46.13597" lon="5.21086">
        <ele>255.4</ele>
        <time>2022-02-24T15:17:30Z</time>
      </trkpt>
      <trkpt lat="46.13604" lon="5.21087">
        <ele>255.4</ele>
        <time>2022-02-24T15:17:31Z</time>
      </trkpt>
      <trkpt lat="46.13611" lon="5.21088">
        <ele>255.4</ele>
        <time>2022-02-24T15:17:32Z</time>
      </trkpt>
      <trkpt lat="46.13619" lon="5.21089">
        <ele>255.4</ele>
        <time>2022-02-24T15:17:33Z</time>
      </trkpt>
      <trkpt lat="46.13626" lon="5.2109">
        <ele>255.4</ele>
        <time>2022-02-24T15:17:34Z</time>
      </trkpt>
      <trkpt lat="46.13633" lon="5.21091">
        <ele>255.4</ele>
        <time>2022-02-24T15:17:35Z</time>
      </trkpt>
      <trkpt lat="46.1364" lon="5.21092">
        <ele>255.4</ele>
        <time>2022-02-24T15:17:36Z</time>
      </trkpt>
      <trkpt lat="46.13647" lon="5.21093">
        <ele>255.4</ele>
        <time>2022-02-24T15:17:37Z</time>
      </trkpt>
      <trkpt lat="46.13654" lon="5.21094">
        <ele>255.4</ele>
        <time>2022-02-24T15:17:38Z</time>
      </trkpt>
      <trkpt lat="46.13661" lon="5.21095">
        <ele>255.4</ele>
        <time>2022-02-24T15:17:39Z</time>
      </trkpt>
      <trkpt lat="46.13668" lon="5.21096">
        <ele>255.4</ele>
        <time>2022-02-24T15:17:40Z</time>
      </trkpt>
      <trkpt lat="46.13675" lon="5.21097">
        <ele>255.4</ele>
        <time>2022-02-24T15:17:41Z</time>
      </trkpt>
      <trkpt lat="46.13682" lon="5.21098">
        <ele>255.4</ele>
        <time>2022-02-24T15:17:42Z</time>
      </trkpt>
      <trkpt lat="46.13689" lon="5.21098">
        <ele>255.6</ele>
        <time>2022-02-24T15:17:43Z</time>
      </trkpt>
      <trkpt lat="46.13696" lon="5.21099">
        <ele>255.6</ele>
        <time>2022-02-24T15:17:44Z</time>
      </trkpt>
      <trkpt lat="46.13703" lon="5.211">
        <ele>255.6</ele>
        <time>2022-02-24T15:17:45Z</time>
      </trkpt>
      <trkpt lat="46.1371" lon="5.21101">
        <ele>255.8</ele>
        <time>2022-02-24T15:17:46Z</time>
      </trkpt>
      <trkpt lat="46.13717" lon="5.21102">
        <ele>255.8</ele>
        <time>2022-02-24T15:17:47Z</time>
      </trkpt>
      <trkpt lat="46.13724" lon="5.21102">
        <ele>255.8</ele>
        <time>2022-02-24T15:17:48Z</time>
      </trkpt>
      <trkpt lat="46.1373" lon="5.21103">
        <ele>255.8</ele>
        <time>2022-02-24T15:17:49Z</time>
      </trkpt>
      <trkpt lat="46.13737" lon="5.21104">
        <ele>255.8</ele>
        <time>2022-02-24T15:17:50Z</time>
      </trkpt>
      <trkpt lat="46.13744" lon="5.21105">
        <ele>256</ele>
        <time>2022-02-24T15:17:51Z</time>
      </trkpt>
      <trkpt lat="46.1375" lon="5.21106">
        <ele>256</ele>
        <time>2022-02-24T15:17:52Z</time>
      </trkpt>
      <trkpt lat="46.13757" lon="5.21107">
        <ele>256</ele>
        <time>2022-02-24T15:17:53Z</time>
      </trkpt>
      <trkpt lat="46.13764" lon="5.21108">
        <ele>256</ele>
        <time>2022-02-24T15:17:54Z</time>
      </trkpt>
      <trkpt lat="46.13771" lon="5.21109">
        <ele>256</ele>
        <time>2022-02-24T15:17:55Z</time>
      </trkpt>
      <trkpt lat="46.13777" lon="5.2111">
        <ele>256</ele>
        <time>2022-02-24T15:17:56Z</time>
      </trkpt>
      <trkpt lat="46.13784" lon="5.2111">
        <ele>256</ele>
        <time>2022-02-24T15:17:57Z</time>
      </trkpt>
      <trkpt lat="46.13791" lon="5.21111">
        <ele>256</ele>
        <time>2022-02-24T15:17:58Z</time>
      </trkpt>
      <trkpt lat="46.13797" lon="5.21112">
        <ele>256</ele>
        <time>2022-02-24T15:17:59Z</time>
      </trkpt>
      <trkpt lat="46.13804" lon="5.21113">
        <ele>256</ele>
        <time>2022-02-24T15:18:00Z</time>
      </trkpt>
      <trkpt lat="46.13811" lon="5.21114">
        <ele>256</ele>
        <time>2022-02-24T15:18:01Z</time>
      </trkpt>
      <trkpt lat="46.13818" lon="5.21114">
        <ele>256</ele>
        <time>2022-02-24T15:18:02Z</time>
      </trkpt>
      <trkpt lat="46.13824" lon="5.21115">
        <ele>256</ele>
        <time>2022-02-24T15:18:03Z</time>
      </trkpt>
      <trkpt lat="46.13831" lon="5.21116">
        <ele>256</ele>
        <time>2022-02-24T15:18:04Z</time>
      </trkpt>
      <trkpt lat="46.13838" lon="5.21117">
        <ele>256</ele>
        <time>2022-02-24T15:18:05Z</time>
      </trkpt>
      <trkpt lat="46.13845" lon="5.21118">
        <ele>256</ele>
        <time>2022-02-24T15:18:06Z</time>
      </trkpt>
      <trkpt lat="46.13852" lon="5.21119">
        <ele>256</ele>
        <time>2022-02-24T15:18:07Z</time>
      </trkpt>
      <trkpt lat="46.13859" lon="5.2112">
        <ele>256</ele>
        <time>2022-02-24T15:18:08Z</time>
      </trkpt>
      <trkpt lat="46.13866" lon="5.21121">
        <ele>256</ele>
        <time>2022-02-24T15:18:09Z</time>
      </trkpt>
      <trkpt lat="46.13873" lon="5.21122">
        <ele>256</ele>
        <time>2022-02-24T15:18:10Z</time>
      </trkpt>
      <trkpt lat="46.1388" lon="5.21123">
        <ele>256</ele>
        <time>2022-02-24T15:18:11Z</time>
      </trkpt>
      <trkpt lat="46.13887" lon="5.21124">
        <ele>256</ele>
        <time>2022-02-24T15:18:12Z</time>
      </trkpt>
      <trkpt lat="46.13894" lon="5.21124">
        <ele>256</ele>
        <time>2022-02-24T15:18:13Z</time>
      </trkpt>
      <trkpt lat="46.13901" lon="5.21125">
        <ele>256</ele>
        <time>2022-02-24T15:18:14Z</time>
      </trkpt>
      <trkpt lat="46.13908" lon="5.21126">
        <ele>256</ele>
        <time>2022-02-24T15:18:15Z</time>
      </trkpt>
      <trkpt lat="46.13916" lon="5.21126">
        <ele>256</ele>
        <time>2022-02-24T15:18:16Z</time>
      </trkpt>
      <trkpt lat="46.13923" lon="5.21127">
        <ele>256</ele>
        <time>2022-02-24T15:18:17Z</time>
      </trkpt>
      <trkpt lat="46.1393" lon="5.21128">
        <ele>256</ele>
        <time>2022-02-24T15:18:18Z</time>
      </trkpt>
      <trkpt lat="46.13937" lon="5.21129">
        <ele>256</ele>
        <time>2022-02-24T15:18:19Z</time>
      </trkpt>
      <trkpt lat="46.13944" lon="5.2113">
        <ele>256</ele>
        <time>2022-02-24T15:18:20Z</time>
      </trkpt>
      <trkpt lat="46.13951" lon="5.21131">
        <ele>256</ele>
        <time>2022-02-24T15:18:21Z</time>
      </trkpt>
      <trkpt lat="46.13958" lon="5.21132">
        <ele>256</ele>
        <time>2022-02-24T15:18:22Z</time>
      </trkpt>
      <trkpt lat="46.13965" lon="5.21133">
        <ele>256</ele>
        <time>2022-02-24T15:18:23Z</time>
      </trkpt>
      <trkpt lat="46.13972" lon="5.21134">
        <ele>256</ele>
        <time>2022-02-24T15:18:24Z</time>
      </trkpt>
      <trkpt lat="46.13979" lon="5.21135">
        <ele>256</ele>
        <time>2022-02-24T15:18:25Z</time>
      </trkpt>
      <trkpt lat="46.13986" lon="5.21136">
        <ele>256</ele>
        <time>2022-02-24T15:18:26Z</time>
      </trkpt>
      <trkpt lat="46.13993" lon="5.21137">
        <ele>256</ele>
        <time>2022-02-24T15:18:27Z</time>
      </trkpt>
      <trkpt lat="46.14" lon="5.21138">
        <ele>256</ele>
        <time>2022-02-24T15:18:28Z</time>
      </trkpt>
      <trkpt lat="46.14006" lon="5.21138">
        <ele>256</ele>
        <time>2022-02-24T15:18:29Z</time>
      </trkpt>
      <trkpt lat="46.14013" lon="5.21139">
        <ele>256.2</ele>
        <time>2022-02-24T15:18:30Z</time>
      </trkpt>
      <trkpt lat="46.1402" lon="5.2114">
        <ele>256.2</ele>
        <time>2022-02-24T15:18:31Z</time>
      </trkpt>
      <trkpt lat="46.14027" lon="5.21141">
        <ele>256.2</ele>
        <time>2022-02-24T15:18:32Z</time>
      </trkpt>
      <trkpt lat="46.14033" lon="5.21142">
        <ele>256.2</ele>
        <time>2022-02-24T15:18:33Z</time>
      </trkpt>
      <trkpt lat="46.1404" lon="5.21142">
        <ele>256.6</ele>
        <time>2022-02-24T15:18:34Z</time>
      </trkpt>
      <trkpt lat="46.14047" lon="5.21143">
        <ele>256.6</ele>
        <time>2022-02-24T15:18:35Z</time>
      </trkpt>
      <trkpt lat="46.14053" lon="5.21144">
        <ele>256.6</ele>
        <time>2022-02-24T15:18:36Z</time>
      </trkpt>
      <trkpt lat="46.1406" lon="5.21144">
        <ele>256.6</ele>
        <time>2022-02-24T15:18:37Z</time>
      </trkpt>
      <trkpt lat="46.14067" lon="5.21144">
        <ele>256.6</ele>
        <time>2022-02-24T15:18:38Z</time>
      </trkpt>
      <trkpt lat="46.14073" lon="5.21145">
        <ele>256.8</ele>
        <time>2022-02-24T15:18:39Z</time>
      </trkpt>
      <trkpt lat="46.1408" lon="5.21146">
        <ele>256.8</ele>
        <time>2022-02-24T15:18:40Z</time>
      </trkpt>
      <trkpt lat="46.14087" lon="5.21147">
        <ele>256.8</ele>
        <time>2022-02-24T15:18:41Z</time>
      </trkpt>
      <trkpt lat="46.14093" lon="5.21148">
        <ele>256.8</ele>
        <time>2022-02-24T15:18:42Z</time>
      </trkpt>
      <trkpt lat="46.141" lon="5.21149">
        <ele>256.8</ele>
        <time>2022-02-24T15:18:43Z</time>
      </trkpt>
      <trkpt lat="46.14106" lon="5.21151">
        <ele>257</ele>
        <time>2022-02-24T15:18:44Z</time>
      </trkpt>
      <trkpt lat="46.14113" lon="5.21153">
        <ele>257</ele>
        <time>2022-02-24T15:18:45Z</time>
      </trkpt>
      <trkpt lat="46.1412" lon="5.21155">
        <ele>257.2</ele>
        <time>2022-02-24T15:18:46Z</time>
      </trkpt>
      <trkpt lat="46.14126" lon="5.21158">
        <ele>257.2</ele>
        <time>2022-02-24T15:18:47Z</time>
      </trkpt>
      <trkpt lat="46.14132" lon="5.2116">
        <ele>257.4</ele>
        <time>2022-02-24T15:18:48Z</time>
      </trkpt>
      <trkpt lat="46.14138" lon="5.21163">
        <ele>257.4</ele>
        <time>2022-02-24T15:18:49Z</time>
      </trkpt>
      <trkpt lat="46.14145" lon="5.21166">
        <ele>257.4</ele>
        <time>2022-02-24T15:18:50Z</time>
      </trkpt>
      <trkpt lat="46.1415" lon="5.2117">
        <ele>257.4</ele>
        <time>2022-02-24T15:18:51Z</time>
      </trkpt>
      <trkpt lat="46.14156" lon="5.21174">
        <ele>257.4</ele>
        <time>2022-02-24T15:18:52Z</time>
      </trkpt>
      <trkpt lat="46.14162" lon="5.21179">
        <ele>257.8</ele>
        <time>2022-02-24T15:18:53Z</time>
      </trkpt>
      <trkpt lat="46.14168" lon="5.21183">
        <ele>257.8</ele>
        <time>2022-02-24T15:18:54Z</time>
      </trkpt>
      <trkpt lat="46.14174" lon="5.21188">
        <ele>258</ele>
        <time>2022-02-24T15:18:55Z</time>
      </trkpt>
      <trkpt lat="46.14179" lon="5.21192">
        <ele>258</ele>
        <time>2022-02-24T15:18:56Z</time>
      </trkpt>
      <trkpt lat="46.14185" lon="5.21198">
        <ele>258.4</ele>
        <time>2022-02-24T15:18:57Z</time>
      </trkpt>
      <trkpt lat="46.1419" lon="5.21203">
        <ele>258.4</ele>
        <time>2022-02-24T15:18:58Z</time>
      </trkpt>
      <trkpt lat="46.14195" lon="5.21209">
        <ele>258.4</ele>
        <time>2022-02-24T15:18:59Z</time>
      </trkpt>
      <trkpt lat="46.142" lon="5.21214">
        <ele>258.6</ele>
        <time>2022-02-24T15:19:00Z</time>
      </trkpt>
      <trkpt lat="46.14205" lon="5.2122">
        <ele>258.6</ele>
        <time>2022-02-24T15:19:01Z</time>
      </trkpt>
      <trkpt lat="46.1421" lon="5.21225">
        <ele>259</ele>
        <time>2022-02-24T15:19:02Z</time>
      </trkpt>
      <trkpt lat="46.14215" lon="5.21231">
        <ele>259</ele>
        <time>2022-02-24T15:19:03Z</time>
      </trkpt>
      <trkpt lat="46.1422" lon="5.21236">
        <ele>259</ele>
        <time>2022-02-24T15:19:04Z</time>
      </trkpt>
      <trkpt lat="46.14225" lon="5.21242">
        <ele>259.2</ele>
        <time>2022-02-24T15:19:05Z</time>
      </trkpt>
      <trkpt lat="46.1423" lon="5.21247">
        <ele>259.2</ele>
        <time>2022-02-24T15:19:06Z</time>
      </trkpt>
      <trkpt lat="46.14235" lon="5.21253">
        <ele>259.2</ele>
        <time>2022-02-24T15:19:07Z</time>
      </trkpt>
      <trkpt lat="46.14239" lon="5.21259">
        <ele>259.4</ele>
        <time>2022-02-24T15:19:08Z</time>
      </trkpt>
      <trkpt lat="46.14244" lon="5.21264">
        <ele>259.4</ele>
        <time>2022-02-24T15:19:09Z</time>
      </trkpt>
      <trkpt lat="46.14249" lon="5.2127">
        <ele>259.4</ele>
        <time>2022-02-24T15:19:10Z</time>
      </trkpt>
      <trkpt lat="46.14253" lon="5.21276">
        <ele>259.6</ele>
        <time>2022-02-24T15:19:11Z</time>
      </trkpt>
      <trkpt lat="46.14258" lon="5.21283">
        <ele>259.6</ele>
        <time>2022-02-24T15:19:12Z</time>
      </trkpt>
      <trkpt lat="46.14262" lon="5.21289">
        <ele>259.6</ele>
        <time>2022-02-24T15:19:13Z</time>
      </trkpt>
      <trkpt lat="46.14267" lon="5.21296">
        <ele>259.6</ele>
        <time>2022-02-24T15:19:14Z</time>
      </trkpt>
      <trkpt lat="46.14271" lon="5.21302">
        <ele>259.6</ele>
        <time>2022-02-24T15:19:15Z</time>
      </trkpt>
      <trkpt lat="46.14276" lon="5.21309">
        <ele>260</ele>
        <time>2022-02-24T15:19:16Z</time>
      </trkpt>
      <trkpt lat="46.14281" lon="5.21316">
        <ele>260</ele>
        <time>2022-02-24T15:19:17Z</time>
      </trkpt>
      <trkpt lat="46.14285" lon="5.21322">
        <ele>260.2</ele>
        <time>2022-02-24T15:19:18Z</time>
      </trkpt>
      <trkpt lat="46.1429" lon="5.21329">
        <ele>260.2</ele>
        <time>2022-02-24T15:19:19Z</time>
      </trkpt>
      <trkpt lat="46.14295" lon="5.21335">
        <ele>260.2</ele>
        <time>2022-02-24T15:19:20Z</time>
      </trkpt>
      <trkpt lat="46.143" lon="5.21342">
        <ele>260.2</ele>
        <time>2022-02-24T15:19:21Z</time>
      </trkpt>
      <trkpt lat="46.14304" lon="5.21349">
        <ele>260.2</ele>
        <time>2022-02-24T15:19:22Z</time>
      </trkpt>
      <trkpt lat="46.14309" lon="5.21355">
        <ele>260.4</ele>
        <time>2022-02-24T15:19:23Z</time>
      </trkpt>
      <trkpt lat="46.14314" lon="5.21362">
        <ele>260.4</ele>
        <time>2022-02-24T15:19:24Z</time>
      </trkpt>
      <trkpt lat="46.14318" lon="5.21369">
        <ele>260.4</ele>
        <time>2022-02-24T15:19:25Z</time>
      </trkpt>
      <trkpt lat="46.14323" lon="5.21376">
        <ele>260.4</ele>
        <time>2022-02-24T15:19:26Z</time>
      </trkpt>
      <trkpt lat="46.14328" lon="5.21382">
        <ele>260.4</ele>
        <time>2022-02-24T15:19:27Z</time>
      </trkpt>
      <trkpt lat="46.14333" lon="5.21389">
        <ele>260.4</ele>
        <time>2022-02-24T15:19:28Z</time>
      </trkpt>
      <trkpt lat="46.14338" lon="5.21395">
        <ele>260.8</ele>
        <time>2022-02-24T15:19:29Z</time>
      </trkpt>
      <trkpt lat="46.14343" lon="5.21402">
        <ele>260.8</ele>
        <time>2022-02-24T15:19:30Z</time>
      </trkpt>
      <trkpt lat="46.14348" lon="5.21409">
        <ele>260.8</ele>
        <time>2022-02-24T15:19:31Z</time>
      </trkpt>
      <trkpt lat="46.14353" lon="5.21416">
        <ele>260.8</ele>
        <time>2022-02-24T15:19:32Z</time>
      </trkpt>
      <trkpt lat="46.14358" lon="5.21423">
        <ele>260.8</ele>
        <time>2022-02-24T15:19:33Z</time>
      </trkpt>
      <trkpt lat="46.14363" lon="5.2143">
        <ele>260.8</ele>
        <time>2022-02-24T15:19:34Z</time>
      </trkpt>
      <trkpt lat="46.14367" lon="5.21437">
        <ele>260.8</ele>
        <time>2022-02-24T15:19:35Z</time>
      </trkpt>
      <trkpt lat="46.14372" lon="5.21444">
        <ele>260.8</ele>
        <time>2022-02-24T15:19:36Z</time>
      </trkpt>
      <trkpt lat="46.14377" lon="5.21451">
        <ele>260.8</ele>
        <time>2022-02-24T15:19:37Z</time>
      </trkpt>
      <trkpt lat="46.14382" lon="5.21458">
        <ele>260.8</ele>
        <time>2022-02-24T15:19:38Z</time>
      </trkpt>
      <trkpt lat="46.14387" lon="5.21465">
        <ele>260.8</ele>
        <time>2022-02-24T15:19:39Z</time>
      </trkpt>
      <trkpt lat="46.14392" lon="5.21472">
        <ele>260.8</ele>
        <time>2022-02-24T15:19:40Z</time>
      </trkpt>
      <trkpt lat="46.14397" lon="5.21479">
        <ele>260.8</ele>
        <time>2022-02-24T15:19:41Z</time>
      </trkpt>
      <trkpt lat="46.14401" lon="5.21486">
        <ele>260.8</ele>
        <time>2022-02-24T15:19:42Z</time>
      </trkpt>
      <trkpt lat="46.14405" lon="5.21493">
        <ele>261</ele>
        <time>2022-02-24T15:19:43Z</time>
      </trkpt>
      <trkpt lat="46.1441" lon="5.215">
        <ele>261</ele>
        <time>2022-02-24T15:19:44Z</time>
      </trkpt>
      <trkpt lat="46.14415" lon="5.21507">
        <ele>261</ele>
        <time>2022-02-24T15:19:45Z</time>
      </trkpt>
      <trkpt lat="46.14419" lon="5.21513">
        <ele>261</ele>
        <time>2022-02-24T15:19:46Z</time>
      </trkpt>
      <trkpt lat="46.14424" lon="5.2152">
        <ele>261</ele>
        <time>2022-02-24T15:19:47Z</time>
      </trkpt>
      <trkpt lat="46.14428" lon="5.21527">
        <ele>261.2</ele>
        <time>2022-02-24T15:19:48Z</time>
      </trkpt>
      <trkpt lat="46.14433" lon="5.21533">
        <ele>261.2</ele>
        <time>2022-02-24T15:19:49Z</time>
      </trkpt>
      <trkpt lat="46.14437" lon="5.21539">
        <ele>261.2</ele>
        <time>2022-02-24T15:19:50Z</time>
      </trkpt>
      <trkpt lat="46.14442" lon="5.21545">
        <ele>261.4</ele>
        <time>2022-02-24T15:19:51Z</time>
      </trkpt>
      <trkpt lat="46.14446" lon="5.2155">
        <ele>261.4</ele>
        <time>2022-02-24T15:19:52Z</time>
      </trkpt>
      <trkpt lat="46.14452" lon="5.21554">
        <ele>261.4</ele>
        <time>2022-02-24T15:19:53Z</time>
      </trkpt>
      <trkpt lat="46.14457" lon="5.21558">
        <ele>261.4</ele>
        <time>2022-02-24T15:19:54Z</time>
      </trkpt>
      <trkpt lat="46.14462" lon="5.21562">
        <ele>261.6</ele>
        <time>2022-02-24T15:19:55Z</time>
      </trkpt>
      <trkpt lat="46.14468" lon="5.21566">
        <ele>261.6</ele>
        <time>2022-02-24T15:19:56Z</time>
      </trkpt>
      <trkpt lat="46.14473" lon="5.2157">
        <ele>261.6</ele>
        <time>2022-02-24T15:19:57Z</time>
      </trkpt>
      <trkpt lat="46.14479" lon="5.21574">
        <ele>261.6</ele>
        <time>2022-02-24T15:19:58Z</time>
      </trkpt>
      <trkpt lat="46.14485" lon="5.21579">
        <ele>261.6</ele>
        <time>2022-02-24T15:19:59Z</time>
      </trkpt>
      <trkpt lat="46.14491" lon="5.21583">
        <ele>261.6</ele>
        <time>2022-02-24T15:20:00Z</time>
      </trkpt>
      <trkpt lat="46.14496" lon="5.21587">
        <ele>261.6</ele>
        <time>2022-02-24T15:20:01Z</time>
      </trkpt>
      <trkpt lat="46.14502" lon="5.2159">
        <ele>261.6</ele>
        <time>2022-02-24T15:20:02Z</time>
      </trkpt>
      <trkpt lat="46.14508" lon="5.21594">
        <ele>261.6</ele>
        <time>2022-02-24T15:20:03Z</time>
      </trkpt>
      <trkpt lat="46.14513" lon="5.21598">
        <ele>261.6</ele>
        <time>2022-02-24T15:20:04Z</time>
      </trkpt>
      <trkpt lat="46.14519" lon="5.21601">
        <ele>261.6</ele>
        <time>2022-02-24T15:20:05Z</time>
      </trkpt>
      <trkpt lat="46.14525" lon="5.21605">
        <ele>261.6</ele>
        <time>2022-02-24T15:20:06Z</time>
      </trkpt>
      <trkpt lat="46.14531" lon="5.21609">
        <ele>261.6</ele>
        <time>2022-02-24T15:20:07Z</time>
      </trkpt>
      <trkpt lat="46.14537" lon="5.21613">
        <ele>261.6</ele>
        <time>2022-02-24T15:20:08Z</time>
      </trkpt>
      <trkpt lat="46.14543" lon="5.21618">
        <ele>261.6</ele>
        <time>2022-02-24T15:20:09Z</time>
      </trkpt>
      <trkpt lat="46.14549" lon="5.21622">
        <ele>261.6</ele>
        <time>2022-02-24T15:20:10Z</time>
      </trkpt>
      <trkpt lat="46.14554" lon="5.21627">
        <ele>261.6</ele>
        <time>2022-02-24T15:20:11Z</time>
      </trkpt>
      <trkpt lat="46.1456" lon="5.21631">
        <ele>261.6</ele>
        <time>2022-02-24T15:20:12Z</time>
      </trkpt>
      <trkpt lat="46.14566" lon="5.21636">
        <ele>261.6</ele>
        <time>2022-02-24T15:20:13Z</time>
      </trkpt>
      <trkpt lat="46.14572" lon="5.21641">
        <ele>261.4</ele>
        <time>2022-02-24T15:20:14Z</time>
      </trkpt>
      <trkpt lat="46.14577" lon="5.21646">
        <ele>261.4</ele>
        <time>2022-02-24T15:20:15Z</time>
      </trkpt>
      <trkpt lat="46.14583" lon="5.21651">
        <ele>261.4</ele>
        <time>2022-02-24T15:20:16Z</time>
      </trkpt>
      <trkpt lat="46.14589" lon="5.21655">
        <ele>261.4</ele>
        <time>2022-02-24T15:20:17Z</time>
      </trkpt>
      <trkpt lat="46.14594" lon="5.2166">
        <ele>261.4</ele>
        <time>2022-02-24T15:20:18Z</time>
      </trkpt>
      <trkpt lat="46.146" lon="5.21664">
        <ele>261.6</ele>
        <time>2022-02-24T15:20:19Z</time>
      </trkpt>
      <trkpt lat="46.14606" lon="5.21669">
        <ele>261.6</ele>
        <time>2022-02-24T15:20:20Z</time>
      </trkpt>
      <trkpt lat="46.14611" lon="5.21674">
        <ele>261.6</ele>
        <time>2022-02-24T15:20:21Z</time>
      </trkpt>
      <trkpt lat="46.14617" lon="5.21679">
        <ele>261.8</ele>
        <time>2022-02-24T15:20:22Z</time>
      </trkpt>
      <trkpt lat="46.14622" lon="5.21683">
        <ele>261.8</ele>
        <time>2022-02-24T15:20:23Z</time>
      </trkpt>
      <trkpt lat="46.14627" lon="5.21688">
        <ele>261.8</ele>
        <time>2022-02-24T15:20:24Z</time>
      </trkpt>
      <trkpt lat="46.14633" lon="5.21692">
        <ele>262.2</ele>
        <time>2022-02-24T15:20:25Z</time>
      </trkpt>
      <trkpt lat="46.14638" lon="5.21697">
        <ele>262.2</ele>
        <time>2022-02-24T15:20:26Z</time>
      </trkpt>
      <trkpt lat="46.14643" lon="5.21701">
        <ele>262.2</ele>
        <time>2022-02-24T15:20:27Z</time>
      </trkpt>
      <trkpt lat="46.14648" lon="5.21707">
        <ele>262.2</ele>
        <time>2022-02-24T15:20:28Z</time>
      </trkpt>
      <trkpt lat="46.14653" lon="5.21712">
        <ele>262.2</ele>
        <time>2022-02-24T15:20:29Z</time>
      </trkpt>
      <trkpt lat="46.14658" lon="5.21716">
        <ele>262.4</ele>
        <time>2022-02-24T15:20:30Z</time>
      </trkpt>
      <trkpt lat="46.14663" lon="5.21721">
        <ele>262.4</ele>
        <time>2022-02-24T15:20:31Z</time>
      </trkpt>
      <trkpt lat="46.14668" lon="5.21725">
        <ele>262.8</ele>
        <time>2022-02-24T15:20:32Z</time>
      </trkpt>
      <trkpt lat="46.14673" lon="5.21729">
        <ele>262.8</ele>
        <time>2022-02-24T15:20:33Z</time>
      </trkpt>
      <trkpt lat="46.14678" lon="5.21733">
        <ele>263</ele>
        <time>2022-02-24T15:20:34Z</time>
      </trkpt>
      <trkpt lat="46.14683" lon="5.21736">
        <ele>263</ele>
        <time>2022-02-24T15:20:35Z</time>
      </trkpt>
      <trkpt lat="46.14688" lon="5.21739">
        <ele>263.4</ele>
        <time>2022-02-24T15:20:36Z</time>
      </trkpt>
      <trkpt lat="46.14693" lon="5.21741">
        <ele>263.4</ele>
        <time>2022-02-24T15:20:37Z</time>
      </trkpt>
      <trkpt lat="46.14698" lon="5.21743">
        <ele>263.8</ele>
        <time>2022-02-24T15:20:38Z</time>
      </trkpt>
      <trkpt lat="46.14703" lon="5.21744">
        <ele>263.8</ele>
        <time>2022-02-24T15:20:39Z</time>
      </trkpt>
      <trkpt lat="46.14709" lon="5.21746">
        <ele>264</ele>
        <time>2022-02-24T15:20:40Z</time>
      </trkpt>
      <trkpt lat="46.14714" lon="5.21746">
        <ele>264</ele>
        <time>2022-02-24T15:20:41Z</time>
      </trkpt>
      <trkpt lat="46.14719" lon="5.21748">
        <ele>264</ele>
        <time>2022-02-24T15:20:42Z</time>
      </trkpt>
      <trkpt lat="46.14725" lon="5.21748">
        <ele>264.2</ele>
        <time>2022-02-24T15:20:43Z</time>
      </trkpt>
      <trkpt lat="46.1473" lon="5.21748">
        <ele>264.2</ele>
        <time>2022-02-24T15:20:44Z</time>
      </trkpt>
      <trkpt lat="46.14737" lon="5.21748">
        <ele>264.2</ele>
        <time>2022-02-24T15:20:45Z</time>
      </trkpt>
      <trkpt lat="46.14743" lon="5.21747">
        <ele>264.2</ele>
        <time>2022-02-24T15:20:46Z</time>
      </trkpt>
      <trkpt lat="46.1475" lon="5.21747">
        <ele>264.2</ele>
        <time>2022-02-24T15:20:47Z</time>
      </trkpt>
      <trkpt lat="46.14757" lon="5.21746">
        <ele>264.2</ele>
        <time>2022-02-24T15:20:48Z</time>
      </trkpt>
      <trkpt lat="46.14764" lon="5.21745">
        <ele>264.2</ele>
        <time>2022-02-24T15:20:49Z</time>
      </trkpt>
      <trkpt lat="46.14771" lon="5.21743">
        <ele>264.2</ele>
        <time>2022-02-24T15:20:50Z</time>
      </trkpt>
      <trkpt lat="46.14779" lon="5.21742">
        <ele>264.2</ele>
        <time>2022-02-24T15:20:51Z</time>
      </trkpt>
      <trkpt lat="46.14787" lon="5.2174">
        <ele>264.2</ele>
        <time>2022-02-24T15:20:52Z</time>
      </trkpt>
      <trkpt lat="46.14794" lon="5.21739">
        <ele>264</ele>
        <time>2022-02-24T15:20:53Z</time>
      </trkpt>
      <trkpt lat="46.14801" lon="5.21737">
        <ele>264</ele>
        <time>2022-02-24T15:20:54Z</time>
      </trkpt>
      <trkpt lat="46.14809" lon="5.21735">
        <ele>264</ele>
        <time>2022-02-24T15:20:55Z</time>
      </trkpt>
      <trkpt lat="46.14817" lon="5.21734">
        <ele>264</ele>
        <time>2022-02-24T15:20:56Z</time>
      </trkpt>
      <trkpt lat="46.14824" lon="5.21732">
        <ele>264</ele>
        <time>2022-02-24T15:20:57Z</time>
      </trkpt>
      <trkpt lat="46.14831" lon="5.21731">
        <ele>264</ele>
        <time>2022-02-24T15:20:58Z</time>
      </trkpt>
      <trkpt lat="46.14838" lon="5.2173">
        <ele>264</ele>
        <time>2022-02-24T15:20:59Z</time>
      </trkpt>
      <trkpt lat="46.14845" lon="5.21728">
        <ele>264</ele>
        <time>2022-02-24T15:21:00Z</time>
      </trkpt>
      <trkpt lat="46.14852" lon="5.21726">
        <ele>264</ele>
        <time>2022-02-24T15:21:01Z</time>
      </trkpt>
      <trkpt lat="46.14858" lon="5.21724">
        <ele>264.2</ele>
        <time>2022-02-24T15:21:02Z</time>
      </trkpt>
      <trkpt lat="46.14865" lon="5.21722">
        <ele>264.2</ele>
        <time>2022-02-24T15:21:03Z</time>
      </trkpt>
      <trkpt lat="46.14871" lon="5.21721">
        <ele>264.4</ele>
        <time>2022-02-24T15:21:04Z</time>
      </trkpt>
      <trkpt lat="46.14876" lon="5.21719">
        <ele>264.4</ele>
        <time>2022-02-24T15:21:05Z</time>
      </trkpt>
      <trkpt lat="46.14883" lon="5.21717">
        <ele>264.8</ele>
        <time>2022-02-24T15:21:06Z</time>
      </trkpt>
      <trkpt lat="46.14889" lon="5.21715">
        <ele>264.8</ele>
        <time>2022-02-24T15:21:07Z</time>
      </trkpt>
      <trkpt lat="46.14895" lon="5.21714">
        <ele>265</ele>
        <time>2022-02-24T15:21:08Z</time>
      </trkpt>
      <trkpt lat="46.149" lon="5.21711">
        <ele>265</ele>
        <time>2022-02-24T15:21:09Z</time>
      </trkpt>
      <trkpt lat="46.14906" lon="5.21709">
        <ele>265</ele>
        <time>2022-02-24T15:21:10Z</time>
      </trkpt>
      <trkpt lat="46.14912" lon="5.21708">
        <ele>265</ele>
        <time>2022-02-24T15:21:11Z</time>
      </trkpt>
      <trkpt lat="46.14918" lon="5.21706">
        <ele>265</ele>
        <time>2022-02-24T15:21:12Z</time>
      </trkpt>
      <trkpt lat="46.14923" lon="5.21704">
        <ele>265</ele>
        <time>2022-02-24T15:21:13Z</time>
      </trkpt>
      <trkpt lat="46.14929" lon="5.21703">
        <ele>265</ele>
        <time>2022-02-24T15:21:14Z</time>
      </trkpt>
      <trkpt lat="46.14935" lon="5.21701">
        <ele>265.4</ele>
        <time>2022-02-24T15:21:15Z</time>
      </trkpt>
      <trkpt lat="46.14941" lon="5.21699">
        <ele>265.4</ele>
        <time>2022-02-24T15:21:16Z</time>
      </trkpt>
      <trkpt lat="46.14947" lon="5.21697">
        <ele>265.4</ele>
        <time>2022-02-24T15:21:17Z</time>
      </trkpt>
      <trkpt lat="46.14953" lon="5.21695">
        <ele>265.4</ele>
        <time>2022-02-24T15:21:18Z</time>
      </trkpt>
      <trkpt lat="46.14959" lon="5.21693">
        <ele>265.4</ele>
        <time>2022-02-24T15:21:19Z</time>
      </trkpt>
      <trkpt lat="46.14965" lon="5.21691">
        <ele>265.4</ele>
        <time>2022-02-24T15:21:20Z</time>
      </trkpt>
      <trkpt lat="46.14971" lon="5.21689">
        <ele>265.6</ele>
        <time>2022-02-24T15:21:21Z</time>
      </trkpt>
      <trkpt lat="46.14977" lon="5.21687">
        <ele>265.6</ele>
        <time>2022-02-24T15:21:22Z</time>
      </trkpt>
      <trkpt lat="46.14983" lon="5.21686">
        <ele>265.6</ele>
        <time>2022-02-24T15:21:23Z</time>
      </trkpt>
      <trkpt lat="46.14989" lon="5.21684">
        <ele>265.8</ele>
        <time>2022-02-24T15:21:24Z</time>
      </trkpt>
      <trkpt lat="46.14994" lon="5.21682">
        <ele>265.8</ele>
        <time>2022-02-24T15:21:25Z</time>
      </trkpt>
      <trkpt lat="46.15" lon="5.21681">
        <ele>265.8</ele>
        <time>2022-02-24T15:21:26Z</time>
      </trkpt>
      <trkpt lat="46.15006" lon="5.21679">
        <ele>266</ele>
        <time>2022-02-24T15:21:27Z</time>
      </trkpt>
      <trkpt lat="46.15011" lon="5.21677">
        <ele>266</ele>
        <time>2022-02-24T15:21:28Z</time>
      </trkpt>
      <trkpt lat="46.15017" lon="5.21675">
        <ele>266.2</ele>
        <time>2022-02-24T15:21:29Z</time>
      </trkpt>
      <trkpt lat="46.15022" lon="5.21673">
        <ele>266.2</ele>
        <time>2022-02-24T15:21:30Z</time>
      </trkpt>
      <trkpt lat="46.15027" lon="5.21671">
        <ele>266.2</ele>
        <time>2022-02-24T15:21:31Z</time>
      </trkpt>
      <trkpt lat="46.15033" lon="5.2167">
        <ele>266.2</ele>
        <time>2022-02-24T15:21:32Z</time>
      </trkpt>
      <trkpt lat="46.15038" lon="5.21668">
        <ele>266.2</ele>
        <time>2022-02-24T15:21:33Z</time>
      </trkpt>
      <trkpt lat="46.15043" lon="5.21666">
        <ele>266.4</ele>
        <time>2022-02-24T15:21:34Z</time>
      </trkpt>
      <trkpt lat="46.15049" lon="5.21665">
        <ele>266.4</ele>
        <time>2022-02-24T15:21:35Z</time>
      </trkpt>
      <trkpt lat="46.15055" lon="5.21663">
        <ele>266.4</ele>
        <time>2022-02-24T15:21:36Z</time>
      </trkpt>
      <trkpt lat="46.15061" lon="5.21661">
        <ele>266.4</ele>
        <time>2022-02-24T15:21:37Z</time>
      </trkpt>
      <trkpt lat="46.15066" lon="5.21659">
        <ele>266.4</ele>
        <time>2022-02-24T15:21:38Z</time>
      </trkpt>
      <trkpt lat="46.15072" lon="5.21656">
        <ele>266.4</ele>
        <time>2022-02-24T15:21:39Z</time>
      </trkpt>
      <trkpt lat="46.15078" lon="5.21653">
        <ele>266.4</ele>
        <time>2022-02-24T15:21:40Z</time>
      </trkpt>
      <trkpt lat="46.15084" lon="5.2165">
        <ele>266.4</ele>
        <time>2022-02-24T15:21:41Z</time>
      </trkpt>
      <trkpt lat="46.1509" lon="5.21647">
        <ele>266.4</ele>
        <time>2022-02-24T15:21:42Z</time>
      </trkpt>
      <trkpt lat="46.15096" lon="5.21644">
        <ele>266.4</ele>
        <time>2022-02-24T15:21:43Z</time>
      </trkpt>
      <trkpt lat="46.15102" lon="5.21641">
        <ele>266.4</ele>
        <time>2022-02-24T15:21:44Z</time>
      </trkpt>
      <trkpt lat="46.15108" lon="5.21638">
        <ele>266.4</ele>
        <time>2022-02-24T15:21:45Z</time>
      </trkpt>
      <trkpt lat="46.15114" lon="5.21635">
        <ele>266.4</ele>
        <time>2022-02-24T15:21:46Z</time>
      </trkpt>
      <trkpt lat="46.1512" lon="5.21631">
        <ele>266.4</ele>
        <time>2022-02-24T15:21:47Z</time>
      </trkpt>
      <trkpt lat="46.15126" lon="5.21628">
        <ele>266.4</ele>
        <time>2022-02-24T15:21:48Z</time>
      </trkpt>
      <trkpt lat="46.15132" lon="5.21625">
        <ele>266.4</ele>
        <time>2022-02-24T15:21:49Z</time>
      </trkpt>
      <trkpt lat="46.15138" lon="5.21622">
        <ele>266.4</ele>
        <time>2022-02-24T15:21:50Z</time>
      </trkpt>
      <trkpt lat="46.15144" lon="5.21618">
        <ele>266.6</ele>
        <time>2022-02-24T15:21:51Z</time>
      </trkpt>
      <trkpt lat="46.1515" lon="5.21615">
        <ele>266.6</ele>
        <time>2022-02-24T15:21:52Z</time>
      </trkpt>
      <trkpt lat="46.15156" lon="5.21612">
        <ele>266.6</ele>
        <time>2022-02-24T15:21:53Z</time>
      </trkpt>
      <trkpt lat="46.15161" lon="5.21608">
        <ele>266.6</ele>
        <time>2022-02-24T15:21:54Z</time>
      </trkpt>
      <trkpt lat="46.15167" lon="5.21604">
        <ele>266.8</ele>
        <time>2022-02-24T15:21:55Z</time>
      </trkpt>
      <trkpt lat="46.15172" lon="5.216">
        <ele>266.8</ele>
        <time>2022-02-24T15:21:56Z</time>
      </trkpt>
      <trkpt lat="46.15177" lon="5.21596">
        <ele>266.8</ele>
        <time>2022-02-24T15:21:57Z</time>
      </trkpt>
      <trkpt lat="46.15182" lon="5.21592">
        <ele>266.8</ele>
        <time>2022-02-24T15:21:58Z</time>
      </trkpt>
      <trkpt lat="46.15186" lon="5.21588">
        <ele>266.8</ele>
        <time>2022-02-24T15:21:59Z</time>
      </trkpt>
      <trkpt lat="46.15191" lon="5.21584">
        <ele>266.8</ele>
        <time>2022-02-24T15:22:00Z</time>
      </trkpt>
      <trkpt lat="46.15196" lon="5.21578">
        <ele>266.8</ele>
        <time>2022-02-24T15:22:01Z</time>
      </trkpt>
      <trkpt lat="46.152" lon="5.21573">
        <ele>266.8</ele>
        <time>2022-02-24T15:22:02Z</time>
      </trkpt>
      <trkpt lat="46.15205" lon="5.21568">
        <ele>266.8</ele>
        <time>2022-02-24T15:22:03Z</time>
      </trkpt>
      <trkpt lat="46.1521" lon="5.21564">
        <ele>266.8</ele>
        <time>2022-02-24T15:22:04Z</time>
      </trkpt>
      <trkpt lat="46.15215" lon="5.21559">
        <ele>267</ele>
        <time>2022-02-24T15:22:05Z</time>
      </trkpt>
      <trkpt lat="46.1522" lon="5.21555">
        <ele>267</ele>
        <time>2022-02-24T15:22:06Z</time>
      </trkpt>
      <trkpt lat="46.15226" lon="5.21552">
        <ele>267.4</ele>
        <time>2022-02-24T15:22:07Z</time>
      </trkpt>
      <trkpt lat="46.15231" lon="5.21548">
        <ele>267.6</ele>
        <time>2022-02-24T15:22:08Z</time>
      </trkpt>
      <trkpt lat="46.15237" lon="5.21545">
        <ele>267.6</ele>
        <time>2022-02-24T15:22:09Z</time>
      </trkpt>
      <trkpt lat="46.15243" lon="5.21542">
        <ele>268</ele>
        <time>2022-02-24T15:22:10Z</time>
      </trkpt>
      <trkpt lat="46.15248" lon="5.21539">
        <ele>268</ele>
        <time>2022-02-24T15:22:11Z</time>
      </trkpt>
      <trkpt lat="46.15254" lon="5.21537">
        <ele>268.4</ele>
        <time>2022-02-24T15:22:12Z</time>
      </trkpt>
      <trkpt lat="46.15259" lon="5.21535">
        <ele>268.4</ele>
        <time>2022-02-24T15:22:13Z</time>
      </trkpt>
      <trkpt lat="46.15265" lon="5.21533">
        <ele>268.4</ele>
        <time>2022-02-24T15:22:14Z</time>
      </trkpt>
      <trkpt lat="46.15271" lon="5.21531">
        <ele>268.6</ele>
        <time>2022-02-24T15:22:15Z</time>
      </trkpt>
      <trkpt lat="46.15276" lon="5.21529">
        <ele>268.6</ele>
        <time>2022-02-24T15:22:16Z</time>
      </trkpt>
      <trkpt lat="46.15282" lon="5.21527">
        <ele>268.6</ele>
        <time>2022-02-24T15:22:17Z</time>
      </trkpt>
      <trkpt lat="46.15288" lon="5.21525">
        <ele>268.6</ele>
        <time>2022-02-24T15:22:18Z</time>
      </trkpt>
      <trkpt lat="46.15294" lon="5.21523">
        <ele>268.6</ele>
        <time>2022-02-24T15:22:19Z</time>
      </trkpt>
      <trkpt lat="46.153" lon="5.21521">
        <ele>268.6</ele>
        <time>2022-02-24T15:22:20Z</time>
      </trkpt>
      <trkpt lat="46.15306" lon="5.21519">
        <ele>268.8</ele>
        <time>2022-02-24T15:22:21Z</time>
      </trkpt>
      <trkpt lat="46.15312" lon="5.21517">
        <ele>268.8</ele>
        <time>2022-02-24T15:22:22Z</time>
      </trkpt>
      <trkpt lat="46.15317" lon="5.21515">
        <ele>268.8</ele>
        <time>2022-02-24T15:22:23Z</time>
      </trkpt>
      <trkpt lat="46.15323" lon="5.21515">
        <ele>269</ele>
        <time>2022-02-24T15:22:24Z</time>
      </trkpt>
      <trkpt lat="46.15329" lon="5.21515">
        <ele>269</ele>
        <time>2022-02-24T15:22:25Z</time>
      </trkpt>
      <trkpt lat="46.15335" lon="5.21515">
        <ele>269</ele>
        <time>2022-02-24T15:22:26Z</time>
      </trkpt>
      <trkpt lat="46.15341" lon="5.21515">
        <ele>269</ele>
        <time>2022-02-24T15:22:27Z</time>
      </trkpt>
      <trkpt lat="46.15347" lon="5.21514">
        <ele>269</ele>
        <time>2022-02-24T15:22:28Z</time>
      </trkpt>
      <trkpt lat="46.15353" lon="5.21514">
        <ele>269.4</ele>
        <time>2022-02-24T15:22:29Z</time>
      </trkpt>
      <trkpt lat="46.15359" lon="5.21513">
        <ele>269.4</ele>
        <time>2022-02-24T15:22:30Z</time>
      </trkpt>
      <trkpt lat="46.15365" lon="5.21513">
        <ele>269.4</ele>
        <time>2022-02-24T15:22:31Z</time>
      </trkpt>
      <trkpt lat="46.15371" lon="5.21513">
        <ele>269.6</ele>
        <time>2022-02-24T15:22:32Z</time>
      </trkpt>
      <trkpt lat="46.15377" lon="5.21513">
        <ele>269.6</ele>
        <time>2022-02-24T15:22:33Z</time>
      </trkpt>
      <trkpt lat="46.15382" lon="5.21512">
        <ele>269.6</ele>
        <time>2022-02-24T15:22:34Z</time>
      </trkpt>
      <trkpt lat="46.15388" lon="5.21512">
        <ele>269.6</ele>
        <time>2022-02-24T15:22:35Z</time>
      </trkpt>
      <trkpt lat="46.15394" lon="5.21512">
        <ele>269.6</ele>
        <time>2022-02-24T15:22:36Z</time>
      </trkpt>
      <trkpt lat="46.15401" lon="5.21512">
        <ele>269.6</ele>
        <time>2022-02-24T15:22:37Z</time>
      </trkpt>
      <trkpt lat="46.15407" lon="5.21512">
        <ele>269.6</ele>
        <time>2022-02-24T15:22:38Z</time>
      </trkpt>
      <trkpt lat="46.15413" lon="5.21511">
        <ele>269.2</ele>
        <time>2022-02-24T15:22:39Z</time>
      </trkpt>
      <trkpt lat="46.15419" lon="5.21511">
        <ele>269.2</ele>
        <time>2022-02-24T15:22:40Z</time>
      </trkpt>
      <trkpt lat="46.15425" lon="5.21511">
        <ele>269.2</ele>
        <time>2022-02-24T15:22:41Z</time>
      </trkpt>
      <trkpt lat="46.15431" lon="5.21511">
        <ele>269.2</ele>
        <time>2022-02-24T15:22:42Z</time>
      </trkpt>
      <trkpt lat="46.15437" lon="5.2151">
        <ele>269.2</ele>
        <time>2022-02-24T15:22:43Z</time>
      </trkpt>
      <trkpt lat="46.15444" lon="5.2151">
        <ele>269.2</ele>
        <time>2022-02-24T15:22:44Z</time>
      </trkpt>
      <trkpt lat="46.1545" lon="5.2151">
        <ele>269.2</ele>
        <time>2022-02-24T15:22:45Z</time>
      </trkpt>
      <trkpt lat="46.15456" lon="5.2151">
        <ele>269.2</ele>
        <time>2022-02-24T15:22:46Z</time>
      </trkpt>
      <trkpt lat="46.15463" lon="5.2151">
        <ele>269.2</ele>
        <time>2022-02-24T15:22:47Z</time>
      </trkpt>
      <trkpt lat="46.15469" lon="5.2151">
        <ele>269.2</ele>
        <time>2022-02-24T15:22:48Z</time>
      </trkpt>
      <trkpt lat="46.15482" lon="5.2151">
        <ele>269.4</ele>
        <time>2022-02-24T15:22:49Z</time>
      </trkpt>
      <trkpt lat="46.15488" lon="5.2151">
        <ele>269.4</ele>
        <time>2022-02-24T15:22:50Z</time>
      </trkpt>
      <trkpt lat="46.15494" lon="5.2151">
        <ele>269.4</ele>
        <time>2022-02-24T15:22:51Z</time>
      </trkpt>
      <trkpt lat="46.15501" lon="5.2151">
        <ele>269.4</ele>
        <time>2022-02-24T15:22:52Z</time>
      </trkpt>
      <trkpt lat="46.15507" lon="5.21511">
        <ele>269.4</ele>
        <time>2022-02-24T15:22:53Z</time>
      </trkpt>
      <trkpt lat="46.15513" lon="5.21511">
        <ele>269.4</ele>
        <time>2022-02-24T15:22:54Z</time>
      </trkpt>
      <trkpt lat="46.1552" lon="5.21512">
        <ele>269.8</ele>
        <time>2022-02-24T15:22:55Z</time>
      </trkpt>
      <trkpt lat="46.15526" lon="5.21512">
        <ele>269.8</ele>
        <time>2022-02-24T15:22:56Z</time>
      </trkpt>
      <trkpt lat="46.15532" lon="5.21513">
        <ele>270</ele>
        <time>2022-02-24T15:22:57Z</time>
      </trkpt>
      <trkpt lat="46.15538" lon="5.21514">
        <ele>270</ele>
        <time>2022-02-24T15:22:58Z</time>
      </trkpt>
      <trkpt lat="46.15544" lon="5.21515">
        <ele>270.2</ele>
        <time>2022-02-24T15:22:59Z</time>
      </trkpt>
      <trkpt lat="46.15551" lon="5.21516">
        <ele>270.2</ele>
        <time>2022-02-24T15:23:00Z</time>
      </trkpt>
      <trkpt lat="46.15557" lon="5.21517">
        <ele>270.4</ele>
        <time>2022-02-24T15:23:01Z</time>
      </trkpt>
      <trkpt lat="46.15562" lon="5.21519">
        <ele>270.4</ele>
        <time>2022-02-24T15:23:02Z</time>
      </trkpt>
      <trkpt lat="46.15568" lon="5.2152">
        <ele>270.6</ele>
        <time>2022-02-24T15:23:03Z</time>
      </trkpt>
      <trkpt lat="46.15574" lon="5.21521">
        <ele>270.6</ele>
        <time>2022-02-24T15:23:04Z</time>
      </trkpt>
      <trkpt lat="46.15581" lon="5.21523">
        <ele>270.8</ele>
        <time>2022-02-24T15:23:05Z</time>
      </trkpt>
      <trkpt lat="46.15587" lon="5.21525">
        <ele>270.8</ele>
        <time>2022-02-24T15:23:06Z</time>
      </trkpt>
      <trkpt lat="46.15592" lon="5.21526">
        <ele>271.2</ele>
        <time>2022-02-24T15:23:07Z</time>
      </trkpt>
      <trkpt lat="46.15598" lon="5.21527">
        <ele>271.2</ele>
        <time>2022-02-24T15:23:08Z</time>
      </trkpt>
      <trkpt lat="46.15604" lon="5.21529">
        <ele>271.6</ele>
        <time>2022-02-24T15:23:09Z</time>
      </trkpt>
      <trkpt lat="46.15609" lon="5.2153">
        <ele>272</ele>
        <time>2022-02-24T15:23:10Z</time>
      </trkpt>
      <trkpt lat="46.15615" lon="5.21532">
        <ele>272</ele>
        <time>2022-02-24T15:23:11Z</time>
      </trkpt>
      <trkpt lat="46.1562" lon="5.21533">
        <ele>272.4</ele>
        <time>2022-02-24T15:23:12Z</time>
      </trkpt>
      <trkpt lat="46.15625" lon="5.21535">
        <ele>272.8</ele>
        <time>2022-02-24T15:23:13Z</time>
      </trkpt>
      <trkpt lat="46.1563" lon="5.21537">
        <ele>272.8</ele>
        <time>2022-02-24T15:23:14Z</time>
      </trkpt>
      <trkpt lat="46.15635" lon="5.21538">
        <ele>273.4</ele>
        <time>2022-02-24T15:23:15Z</time>
      </trkpt>
      <trkpt lat="46.15641" lon="5.2154">
        <ele>273.8</ele>
        <time>2022-02-24T15:23:16Z</time>
      </trkpt>
      <trkpt lat="46.15643" lon="5.21541">
        <ele>273.8</ele>
        <time>2022-02-24T15:23:17Z</time>
      </trkpt>
      <trkpt lat="46.15646" lon="5.21541">
        <ele>274</ele>
        <time>2022-02-24T15:23:18Z</time>
      </trkpt>
      <trkpt lat="46.15651" lon="5.21543">
        <ele>274.4</ele>
        <time>2022-02-24T15:23:19Z</time>
      </trkpt>
      <trkpt lat="46.15656" lon="5.21545">
        <ele>274.4</ele>
        <time>2022-02-24T15:23:20Z</time>
      </trkpt>
      <trkpt lat="46.15661" lon="5.21547">
        <ele>274.4</ele>
        <time>2022-02-24T15:23:21Z</time>
      </trkpt>
      <trkpt lat="46.15666" lon="5.21549">
        <ele>274.4</ele>
        <time>2022-02-24T15:23:22Z</time>
      </trkpt>
      <trkpt lat="46.15671" lon="5.21551">
        <ele>274.4</ele>
        <time>2022-02-24T15:23:23Z</time>
      </trkpt>
      <trkpt lat="46.15677" lon="5.21553">
        <ele>274.4</ele>
        <time>2022-02-24T15:23:24Z</time>
      </trkpt>
      <trkpt lat="46.15682" lon="5.21555">
        <ele>274.4</ele>
        <time>2022-02-24T15:23:25Z</time>
      </trkpt>
      <trkpt lat="46.15687" lon="5.21556">
        <ele>274.6</ele>
        <time>2022-02-24T15:23:26Z</time>
      </trkpt>
      <trkpt lat="46.15693" lon="5.21558">
        <ele>274.6</ele>
        <time>2022-02-24T15:23:27Z</time>
      </trkpt>
      <trkpt lat="46.15698" lon="5.2156">
        <ele>274.6</ele>
        <time>2022-02-24T15:23:28Z</time>
      </trkpt>
      <trkpt lat="46.15703" lon="5.21561">
        <ele>274.8</ele>
        <time>2022-02-24T15:23:29Z</time>
      </trkpt>
      <trkpt lat="46.15708" lon="5.21563">
        <ele>274.8</ele>
        <time>2022-02-24T15:23:30Z</time>
      </trkpt>
      <trkpt lat="46.15713" lon="5.21564">
        <ele>274.8</ele>
        <time>2022-02-24T15:23:31Z</time>
      </trkpt>
      <trkpt lat="46.15718" lon="5.21566">
        <ele>275</ele>
        <time>2022-02-24T15:23:32Z</time>
      </trkpt>
      <trkpt lat="46.15723" lon="5.21568">
        <ele>275</ele>
        <time>2022-02-24T15:23:33Z</time>
      </trkpt>
      <trkpt lat="46.15728" lon="5.2157">
        <ele>275</ele>
        <time>2022-02-24T15:23:34Z</time>
      </trkpt>
      <trkpt lat="46.15733" lon="5.21572">
        <ele>275.4</ele>
        <time>2022-02-24T15:23:35Z</time>
      </trkpt>
      <trkpt lat="46.15738" lon="5.21574">
        <ele>275.6</ele>
        <time>2022-02-24T15:23:36Z</time>
      </trkpt>
      <trkpt lat="46.15744" lon="5.21576">
        <ele>276</ele>
        <time>2022-02-24T15:23:37Z</time>
      </trkpt>
      <trkpt lat="46.15749" lon="5.21579">
        <ele>276</ele>
        <time>2022-02-24T15:23:38Z</time>
      </trkpt>
      <trkpt lat="46.15754" lon="5.21581">
        <ele>276</ele>
        <time>2022-02-24T15:23:39Z</time>
      </trkpt>
      <trkpt lat="46.15759" lon="5.21584">
        <ele>276</ele>
        <time>2022-02-24T15:23:40Z</time>
      </trkpt>
      <trkpt lat="46.15765" lon="5.21587">
        <ele>276</ele>
        <time>2022-02-24T15:23:41Z</time>
      </trkpt>
      <trkpt lat="46.1577" lon="5.21589">
        <ele>276</ele>
        <time>2022-02-24T15:23:42Z</time>
      </trkpt>
      <trkpt lat="46.15775" lon="5.21592">
        <ele>276.2</ele>
        <time>2022-02-24T15:23:43Z</time>
      </trkpt>
      <trkpt lat="46.15781" lon="5.21595">
        <ele>276.2</ele>
        <time>2022-02-24T15:23:44Z</time>
      </trkpt>
      <trkpt lat="46.15786" lon="5.21597">
        <ele>276.2</ele>
        <time>2022-02-24T15:23:45Z</time>
      </trkpt>
      <trkpt lat="46.15791" lon="5.21599">
        <ele>276.2</ele>
        <time>2022-02-24T15:23:46Z</time>
      </trkpt>
      <trkpt lat="46.15796" lon="5.21602">
        <ele>276.2</ele>
        <time>2022-02-24T15:23:47Z</time>
      </trkpt>
      <trkpt lat="46.15801" lon="5.21604">
        <ele>276.4</ele>
        <time>2022-02-24T15:23:48Z</time>
      </trkpt>
      <trkpt lat="46.15806" lon="5.21606">
        <ele>276.4</ele>
        <time>2022-02-24T15:23:49Z</time>
      </trkpt>
      <trkpt lat="46.15811" lon="5.21609">
        <ele>276.4</ele>
        <time>2022-02-24T15:23:50Z</time>
      </trkpt>
      <trkpt lat="46.15816" lon="5.21612">
        <ele>276.6</ele>
        <time>2022-02-24T15:23:51Z</time>
      </trkpt>
      <trkpt lat="46.15821" lon="5.21614">
        <ele>276.6</ele>
        <time>2022-02-24T15:23:52Z</time>
      </trkpt>
      <trkpt lat="46.15826" lon="5.21618">
        <ele>276.6</ele>
        <time>2022-02-24T15:23:53Z</time>
      </trkpt>
      <trkpt lat="46.15832" lon="5.21621">
        <ele>276.6</ele>
        <time>2022-02-24T15:23:54Z</time>
      </trkpt>
      <trkpt lat="46.15838" lon="5.21626">
        <ele>276.6</ele>
        <time>2022-02-24T15:23:55Z</time>
      </trkpt>
      <trkpt lat="46.15843" lon="5.2163">
        <ele>276.6</ele>
        <time>2022-02-24T15:23:56Z</time>
      </trkpt>
      <trkpt lat="46.15849" lon="5.21635">
        <ele>276.6</ele>
        <time>2022-02-24T15:23:57Z</time>
      </trkpt>
      <trkpt lat="46.15855" lon="5.21639">
        <ele>276.6</ele>
        <time>2022-02-24T15:23:58Z</time>
      </trkpt>
      <trkpt lat="46.15861" lon="5.21643">
        <ele>276.6</ele>
        <time>2022-02-24T15:23:59Z</time>
      </trkpt>
      <trkpt lat="46.15867" lon="5.21648">
        <ele>276.6</ele>
        <time>2022-02-24T15:24:00Z</time>
      </trkpt>
      <trkpt lat="46.15872" lon="5.21652">
        <ele>276.6</ele>
        <time>2022-02-24T15:24:01Z</time>
      </trkpt>
      <trkpt lat="46.15878" lon="5.21657">
        <ele>276.6</ele>
        <time>2022-02-24T15:24:02Z</time>
      </trkpt>
      <trkpt lat="46.15883" lon="5.21662">
        <ele>276.8</ele>
        <time>2022-02-24T15:24:03Z</time>
      </trkpt>
      <trkpt lat="46.15888" lon="5.21666">
        <ele>276.8</ele>
        <time>2022-02-24T15:24:04Z</time>
      </trkpt>
      <trkpt lat="46.15894" lon="5.2167">
        <ele>277</ele>
        <time>2022-02-24T15:24:05Z</time>
      </trkpt>
      <trkpt lat="46.15899" lon="5.21675">
        <ele>277</ele>
        <time>2022-02-24T15:24:06Z</time>
      </trkpt>
      <trkpt lat="46.15904" lon="5.21679">
        <ele>277</ele>
        <time>2022-02-24T15:24:07Z</time>
      </trkpt>
      <trkpt lat="46.15909" lon="5.21684">
        <ele>277</ele>
        <time>2022-02-24T15:24:08Z</time>
      </trkpt>
      <trkpt lat="46.15914" lon="5.21688">
        <ele>277.4</ele>
        <time>2022-02-24T15:24:09Z</time>
      </trkpt>
      <trkpt lat="46.15919" lon="5.21693">
        <ele>277.4</ele>
        <time>2022-02-24T15:24:10Z</time>
      </trkpt>
      <trkpt lat="46.15924" lon="5.21697">
        <ele>277.4</ele>
        <time>2022-02-24T15:24:11Z</time>
      </trkpt>
      <trkpt lat="46.1593" lon="5.21702">
        <ele>277.4</ele>
        <time>2022-02-24T15:24:12Z</time>
      </trkpt>
      <trkpt lat="46.15935" lon="5.21706">
        <ele>277.4</ele>
        <time>2022-02-24T15:24:13Z</time>
      </trkpt>
      <trkpt lat="46.1594" lon="5.21711">
        <ele>277.6</ele>
        <time>2022-02-24T15:24:14Z</time>
      </trkpt>
      <trkpt lat="46.15945" lon="5.21715">
        <ele>277.6</ele>
        <time>2022-02-24T15:24:15Z</time>
      </trkpt>
      <trkpt lat="46.1595" lon="5.2172">
        <ele>277.6</ele>
        <time>2022-02-24T15:24:16Z</time>
      </trkpt>
      <trkpt lat="46.15955" lon="5.21723">
        <ele>277.8</ele>
        <time>2022-02-24T15:24:17Z</time>
      </trkpt>
      <trkpt lat="46.1596" lon="5.21727">
        <ele>277.8</ele>
        <time>2022-02-24T15:24:18Z</time>
      </trkpt>
      <trkpt lat="46.15965" lon="5.21732">
        <ele>278</ele>
        <time>2022-02-24T15:24:19Z</time>
      </trkpt>
      <trkpt lat="46.15971" lon="5.21736">
        <ele>278</ele>
        <time>2022-02-24T15:24:20Z</time>
      </trkpt>
      <trkpt lat="46.15976" lon="5.2174">
        <ele>278</ele>
        <time>2022-02-24T15:24:21Z</time>
      </trkpt>
      <trkpt lat="46.15981" lon="5.21745">
        <ele>278</ele>
        <time>2022-02-24T15:24:22Z</time>
      </trkpt>
      <trkpt lat="46.15986" lon="5.21749">
        <ele>278.4</ele>
        <time>2022-02-24T15:24:23Z</time>
      </trkpt>
      <trkpt lat="46.15991" lon="5.21753">
        <ele>278.4</ele>
        <time>2022-02-24T15:24:24Z</time>
      </trkpt>
      <trkpt lat="46.15996" lon="5.21757">
        <ele>278.4</ele>
        <time>2022-02-24T15:24:25Z</time>
      </trkpt>
      <trkpt lat="46.16001" lon="5.21761">
        <ele>278.4</ele>
        <time>2022-02-24T15:24:26Z</time>
      </trkpt>
      <trkpt lat="46.16007" lon="5.21765">
        <ele>278.6</ele>
        <time>2022-02-24T15:24:27Z</time>
      </trkpt>
      <trkpt lat="46.16012" lon="5.2177">
        <ele>278.6</ele>
        <time>2022-02-24T15:24:28Z</time>
      </trkpt>
      <trkpt lat="46.16017" lon="5.21774">
        <ele>278.6</ele>
        <time>2022-02-24T15:24:29Z</time>
      </trkpt>
      <trkpt lat="46.16022" lon="5.2178">
        <ele>278.6</ele>
        <time>2022-02-24T15:24:30Z</time>
      </trkpt>
      <trkpt lat="46.16027" lon="5.21785">
        <ele>278.6</ele>
        <time>2022-02-24T15:24:31Z</time>
      </trkpt>
      <trkpt lat="46.16032" lon="5.21789">
        <ele>278.6</ele>
        <time>2022-02-24T15:24:32Z</time>
      </trkpt>
      <trkpt lat="46.16037" lon="5.21794">
        <ele>278.6</ele>
        <time>2022-02-24T15:24:33Z</time>
      </trkpt>
      <trkpt lat="46.16042" lon="5.21799">
        <ele>278.8</ele>
        <time>2022-02-24T15:24:34Z</time>
      </trkpt>
      <trkpt lat="46.16047" lon="5.21804">
        <ele>278.8</ele>
        <time>2022-02-24T15:24:35Z</time>
      </trkpt>
      <trkpt lat="46.16052" lon="5.21809">
        <ele>278.8</ele>
        <time>2022-02-24T15:24:36Z</time>
      </trkpt>
      <trkpt lat="46.16056" lon="5.21813">
        <ele>278.8</ele>
        <time>2022-02-24T15:24:37Z</time>
      </trkpt>
      <trkpt lat="46.16061" lon="5.21818">
        <ele>279</ele>
        <time>2022-02-24T15:24:38Z</time>
      </trkpt>
      <trkpt lat="46.16066" lon="5.21823">
        <ele>279</ele>
        <time>2022-02-24T15:24:39Z</time>
      </trkpt>
      <trkpt lat="46.16071" lon="5.21828">
        <ele>279</ele>
        <time>2022-02-24T15:24:40Z</time>
      </trkpt>
      <trkpt lat="46.16077" lon="5.21834">
        <ele>279</ele>
        <time>2022-02-24T15:24:41Z</time>
      </trkpt>
      <trkpt lat="46.16082" lon="5.21839">
        <ele>279</ele>
        <time>2022-02-24T15:24:42Z</time>
      </trkpt>
      <trkpt lat="46.16088" lon="5.21844">
        <ele>279</ele>
        <time>2022-02-24T15:24:43Z</time>
      </trkpt>
      <trkpt lat="46.16093" lon="5.21849">
        <ele>279</ele>
        <time>2022-02-24T15:24:44Z</time>
      </trkpt>
      <trkpt lat="46.16098" lon="5.21854">
        <ele>279.2</ele>
        <time>2022-02-24T15:24:45Z</time>
      </trkpt>
      <trkpt lat="46.16104" lon="5.21859">
        <ele>279.2</ele>
        <time>2022-02-24T15:24:46Z</time>
      </trkpt>
      <trkpt lat="46.16109" lon="5.21864">
        <ele>279.2</ele>
        <time>2022-02-24T15:24:47Z</time>
      </trkpt>
      <trkpt lat="46.16115" lon="5.21869">
        <ele>279.2</ele>
        <time>2022-02-24T15:24:48Z</time>
      </trkpt>
      <trkpt lat="46.1612" lon="5.21873">
        <ele>279.2</ele>
        <time>2022-02-24T15:24:49Z</time>
      </trkpt>
      <trkpt lat="46.16125" lon="5.21877">
        <ele>279.2</ele>
        <time>2022-02-24T15:24:50Z</time>
      </trkpt>
      <trkpt lat="46.1613" lon="5.21881">
        <ele>279.6</ele>
        <time>2022-02-24T15:24:51Z</time>
      </trkpt>
      <trkpt lat="46.16136" lon="5.21884">
        <ele>279.6</ele>
        <time>2022-02-24T15:24:52Z</time>
      </trkpt>
      <trkpt lat="46.16141" lon="5.21888">
        <ele>279.6</ele>
        <time>2022-02-24T15:24:53Z</time>
      </trkpt>
      <trkpt lat="46.16147" lon="5.21892">
        <ele>279.6</ele>
        <time>2022-02-24T15:24:54Z</time>
      </trkpt>
      <trkpt lat="46.16154" lon="5.21896">
        <ele>279.8</ele>
        <time>2022-02-24T15:24:55Z</time>
      </trkpt>
      <trkpt lat="46.16161" lon="5.219">
        <ele>279.8</ele>
        <time>2022-02-24T15:24:56Z</time>
      </trkpt>
      <trkpt lat="46.16167" lon="5.21903">
        <ele>279.8</ele>
        <time>2022-02-24T15:24:57Z</time>
      </trkpt>
      <trkpt lat="46.16174" lon="5.21907">
        <ele>279.8</ele>
        <time>2022-02-24T15:24:58Z</time>
      </trkpt>
      <trkpt lat="46.1618" lon="5.21911">
        <ele>279.8</ele>
        <time>2022-02-24T15:24:59Z</time>
      </trkpt>
      <trkpt lat="46.16186" lon="5.21915">
        <ele>279.4</ele>
        <time>2022-02-24T15:25:00Z</time>
      </trkpt>
      <trkpt lat="46.16193" lon="5.21918">
        <ele>279.4</ele>
        <time>2022-02-24T15:25:01Z</time>
      </trkpt>
      <trkpt lat="46.16199" lon="5.21922">
        <ele>279.4</ele>
        <time>2022-02-24T15:25:02Z</time>
      </trkpt>
      <trkpt lat="46.16206" lon="5.21925">
        <ele>279.4</ele>
        <time>2022-02-24T15:25:03Z</time>
      </trkpt>
      <trkpt lat="46.16212" lon="5.21929">
        <ele>279.4</ele>
        <time>2022-02-24T15:25:04Z</time>
      </trkpt>
      <trkpt lat="46.16219" lon="5.21932">
        <ele>279.4</ele>
        <time>2022-02-24T15:25:05Z</time>
      </trkpt>
      <trkpt lat="46.16225" lon="5.21935">
        <ele>279.4</ele>
        <time>2022-02-24T15:25:06Z</time>
      </trkpt>
      <trkpt lat="46.16232" lon="5.21939">
        <ele>279.4</ele>
        <time>2022-02-24T15:25:07Z</time>
      </trkpt>
      <trkpt lat="46.16238" lon="5.21942">
        <ele>279.4</ele>
        <time>2022-02-24T15:25:08Z</time>
      </trkpt>
      <trkpt lat="46.16245" lon="5.21946">
        <ele>279.4</ele>
        <time>2022-02-24T15:25:09Z</time>
      </trkpt>
      <trkpt lat="46.16251" lon="5.21949">
        <ele>279.4</ele>
        <time>2022-02-24T15:25:10Z</time>
      </trkpt>
      <trkpt lat="46.16258" lon="5.21953">
        <ele>279.4</ele>
        <time>2022-02-24T15:25:11Z</time>
      </trkpt>
      <trkpt lat="46.16264" lon="5.21956">
        <ele>279.4</ele>
        <time>2022-02-24T15:25:12Z</time>
      </trkpt>
      <trkpt lat="46.16271" lon="5.2196">
        <ele>279.4</ele>
        <time>2022-02-24T15:25:13Z</time>
      </trkpt>
      <trkpt lat="46.16277" lon="5.21963">
        <ele>279.4</ele>
        <time>2022-02-24T15:25:14Z</time>
      </trkpt>
      <trkpt lat="46.16283" lon="5.21967">
        <ele>279.4</ele>
        <time>2022-02-24T15:25:15Z</time>
      </trkpt>
      <trkpt lat="46.16289" lon="5.2197">
        <ele>279.4</ele>
        <time>2022-02-24T15:25:16Z</time>
      </trkpt>
      <trkpt lat="46.16296" lon="5.21973">
        <ele>279.4</ele>
        <time>2022-02-24T15:25:17Z</time>
      </trkpt>
      <trkpt lat="46.16302" lon="5.21976">
        <ele>279.4</ele>
        <time>2022-02-24T15:25:18Z</time>
      </trkpt>
      <trkpt lat="46.16308" lon="5.2198">
        <ele>279.4</ele>
        <time>2022-02-24T15:25:19Z</time>
      </trkpt>
      <trkpt lat="46.16314" lon="5.21983">
        <ele>279.2</ele>
        <time>2022-02-24T15:25:20Z</time>
      </trkpt>
      <trkpt lat="46.16321" lon="5.21987">
        <ele>279.2</ele>
        <time>2022-02-24T15:25:21Z</time>
      </trkpt>
      <trkpt lat="46.16327" lon="5.2199">
        <ele>279.2</ele>
        <time>2022-02-24T15:25:22Z</time>
      </trkpt>
      <trkpt lat="46.16333" lon="5.21994">
        <ele>279</ele>
        <time>2022-02-24T15:25:23Z</time>
      </trkpt>
      <trkpt lat="46.1634" lon="5.21997">
        <ele>279</ele>
        <time>2022-02-24T15:25:24Z</time>
      </trkpt>
      <trkpt lat="46.16347" lon="5.22001">
        <ele>279</ele>
        <time>2022-02-24T15:25:25Z</time>
      </trkpt>
      <trkpt lat="46.16353" lon="5.22004">
        <ele>278.6</ele>
        <time>2022-02-24T15:25:26Z</time>
      </trkpt>
      <trkpt lat="46.1636" lon="5.22008">
        <ele>278.6</ele>
        <time>2022-02-24T15:25:27Z</time>
      </trkpt>
      <trkpt lat="46.16367" lon="5.22011">
        <ele>278.4</ele>
        <time>2022-02-24T15:25:28Z</time>
      </trkpt>
      <trkpt lat="46.16374" lon="5.22015">
        <ele>278.4</ele>
        <time>2022-02-24T15:25:29Z</time>
      </trkpt>
      <trkpt lat="46.16381" lon="5.22018">
        <ele>278.4</ele>
        <time>2022-02-24T15:25:30Z</time>
      </trkpt>
      <trkpt lat="46.16388" lon="5.22022">
        <ele>278.4</ele>
        <time>2022-02-24T15:25:31Z</time>
      </trkpt>
      <trkpt lat="46.16395" lon="5.22025">
        <ele>278.2</ele>
        <time>2022-02-24T15:25:32Z</time>
      </trkpt>
      <trkpt lat="46.16403" lon="5.22029">
        <ele>278.2</ele>
        <time>2022-02-24T15:25:33Z</time>
      </trkpt>
      <trkpt lat="46.1641" lon="5.22032">
        <ele>278.2</ele>
        <time>2022-02-24T15:25:34Z</time>
      </trkpt>
      <trkpt lat="46.16417" lon="5.22036">
        <ele>278</ele>
        <time>2022-02-24T15:25:35Z</time>
      </trkpt>
      <trkpt lat="46.16424" lon="5.2204">
        <ele>278</ele>
        <time>2022-02-24T15:25:36Z</time>
      </trkpt>
      <trkpt lat="46.16432" lon="5.22043">
        <ele>278</ele>
        <time>2022-02-24T15:25:37Z</time>
      </trkpt>
      <trkpt lat="46.1644" lon="5.22047">
        <ele>277.8</ele>
        <time>2022-02-24T15:25:38Z</time>
      </trkpt>
      <trkpt lat="46.16447" lon="5.2205">
        <ele>277.8</ele>
        <time>2022-02-24T15:25:39Z</time>
      </trkpt>
      <trkpt lat="46.16454" lon="5.22054">
        <ele>277.8</ele>
        <time>2022-02-24T15:25:40Z</time>
      </trkpt>
      <trkpt lat="46.16462" lon="5.22057">
        <ele>277.8</ele>
        <time>2022-02-24T15:25:41Z</time>
      </trkpt>
      <trkpt lat="46.16469" lon="5.22061">
        <ele>277.8</ele>
        <time>2022-02-24T15:25:42Z</time>
      </trkpt>
      <trkpt lat="46.16477" lon="5.22065">
        <ele>277.6</ele>
        <time>2022-02-24T15:25:43Z</time>
      </trkpt>
      <trkpt lat="46.16484" lon="5.22069">
        <ele>277.6</ele>
        <time>2022-02-24T15:25:44Z</time>
      </trkpt>
      <trkpt lat="46.16492" lon="5.22073">
        <ele>277.6</ele>
        <time>2022-02-24T15:25:45Z</time>
      </trkpt>
      <trkpt lat="46.165" lon="5.22077">
        <ele>277.2</ele>
        <time>2022-02-24T15:25:46Z</time>
      </trkpt>
      <trkpt lat="46.16507" lon="5.22081">
        <ele>277.2</ele>
        <time>2022-02-24T15:25:47Z</time>
      </trkpt>
      <trkpt lat="46.16515" lon="5.22085">
        <ele>277.2</ele>
        <time>2022-02-24T15:25:48Z</time>
      </trkpt>
      <trkpt lat="46.16522" lon="5.22089">
        <ele>277.2</ele>
        <time>2022-02-24T15:25:49Z</time>
      </trkpt>
      <trkpt lat="46.1653" lon="5.22093">
        <ele>277.2</ele>
        <time>2022-02-24T15:25:50Z</time>
      </trkpt>
      <trkpt lat="46.16538" lon="5.22096">
        <ele>277</ele>
        <time>2022-02-24T15:25:51Z</time>
      </trkpt>
      <trkpt lat="46.16545" lon="5.221">
        <ele>277</ele>
        <time>2022-02-24T15:25:52Z</time>
      </trkpt>
      <trkpt lat="46.16553" lon="5.22104">
        <ele>277</ele>
        <time>2022-02-24T15:25:53Z</time>
      </trkpt>
      <trkpt lat="46.16561" lon="5.22108">
        <ele>277</ele>
        <time>2022-02-24T15:25:54Z</time>
      </trkpt>
      <trkpt lat="46.16568" lon="5.22112">
        <ele>277</ele>
        <time>2022-02-24T15:25:55Z</time>
      </trkpt>
      <trkpt lat="46.16576" lon="5.22115">
        <ele>277</ele>
        <time>2022-02-24T15:25:56Z</time>
      </trkpt>
      <trkpt lat="46.16583" lon="5.22119">
        <ele>277</ele>
        <time>2022-02-24T15:25:57Z</time>
      </trkpt>
      <trkpt lat="46.1659" lon="5.22123">
        <ele>277</ele>
        <time>2022-02-24T15:25:58Z</time>
      </trkpt>
      <trkpt lat="46.16598" lon="5.22127">
        <ele>276.8</ele>
        <time>2022-02-24T15:25:59Z</time>
      </trkpt>
      <trkpt lat="46.16605" lon="5.22131">
        <ele>276.8</ele>
        <time>2022-02-24T15:26:00Z</time>
      </trkpt>
      <trkpt lat="46.16613" lon="5.22134">
        <ele>276.8</ele>
        <time>2022-02-24T15:26:01Z</time>
      </trkpt>
      <trkpt lat="46.1662" lon="5.22138">
        <ele>276.4</ele>
        <time>2022-02-24T15:26:02Z</time>
      </trkpt>
      <trkpt lat="46.16628" lon="5.22142">
        <ele>276.4</ele>
        <time>2022-02-24T15:26:03Z</time>
      </trkpt>
      <trkpt lat="46.16636" lon="5.22146">
        <ele>276.2</ele>
        <time>2022-02-24T15:26:04Z</time>
      </trkpt>
      <trkpt lat="46.16643" lon="5.2215">
        <ele>276.2</ele>
        <time>2022-02-24T15:26:05Z</time>
      </trkpt>
      <trkpt lat="46.16651" lon="5.22155">
        <ele>276.2</ele>
        <time>2022-02-24T15:26:06Z</time>
      </trkpt>
      <trkpt lat="46.16659" lon="5.22161">
        <ele>276</ele>
        <time>2022-02-24T15:26:07Z</time>
      </trkpt>
      <trkpt lat="46.16666" lon="5.22167">
        <ele>276</ele>
        <time>2022-02-24T15:26:08Z</time>
      </trkpt>
      <trkpt lat="46.16673" lon="5.22173">
        <ele>276</ele>
        <time>2022-02-24T15:26:09Z</time>
      </trkpt>
      <trkpt lat="46.16681" lon="5.22179">
        <ele>275.6</ele>
        <time>2022-02-24T15:26:10Z</time>
      </trkpt>
      <trkpt lat="46.16688" lon="5.22186">
        <ele>275.6</ele>
        <time>2022-02-24T15:26:11Z</time>
      </trkpt>
      <trkpt lat="46.16695" lon="5.22193">
        <ele>275.2</ele>
        <time>2022-02-24T15:26:12Z</time>
      </trkpt>
      <trkpt lat="46.16702" lon="5.222">
        <ele>275.2</ele>
        <time>2022-02-24T15:26:13Z</time>
      </trkpt>
      <trkpt lat="46.16708" lon="5.22208">
        <ele>275</ele>
        <time>2022-02-24T15:26:14Z</time>
      </trkpt>
      <trkpt lat="46.16714" lon="5.22216">
        <ele>275</ele>
        <time>2022-02-24T15:26:15Z</time>
      </trkpt>
      <trkpt lat="46.16721" lon="5.22225">
        <ele>274.6</ele>
        <time>2022-02-24T15:26:16Z</time>
      </trkpt>
      <trkpt lat="46.16726" lon="5.22234">
        <ele>274.6</ele>
        <time>2022-02-24T15:26:17Z</time>
      </trkpt>
      <trkpt lat="46.16732" lon="5.22244">
        <ele>274.4</ele>
        <time>2022-02-24T15:26:18Z</time>
      </trkpt>
      <trkpt lat="46.16738" lon="5.22253">
        <ele>274.4</ele>
        <time>2022-02-24T15:26:19Z</time>
      </trkpt>
      <trkpt lat="46.16743" lon="5.22263">
        <ele>274</ele>
        <time>2022-02-24T15:26:20Z</time>
      </trkpt>
      <trkpt lat="46.16749" lon="5.22273">
        <ele>274</ele>
        <time>2022-02-24T15:26:21Z</time>
      </trkpt>
      <trkpt lat="46.16754" lon="5.22284">
        <ele>273.8</ele>
        <time>2022-02-24T15:26:22Z</time>
      </trkpt>
      <trkpt lat="46.16759" lon="5.22294">
        <ele>273.6</ele>
        <time>2022-02-24T15:26:23Z</time>
      </trkpt>
      <trkpt lat="46.16764" lon="5.22304">
        <ele>273.6</ele>
        <time>2022-02-24T15:26:24Z</time>
      </trkpt>
      <trkpt lat="46.16769" lon="5.22315">
        <ele>273.6</ele>
        <time>2022-02-24T15:26:25Z</time>
      </trkpt>
      <trkpt lat="46.16774" lon="5.22325">
        <ele>273.2</ele>
        <time>2022-02-24T15:26:26Z</time>
      </trkpt>
      <trkpt lat="46.1678" lon="5.22335">
        <ele>273.2</ele>
        <time>2022-02-24T15:26:27Z</time>
      </trkpt>
      <trkpt lat="46.16785" lon="5.22345">
        <ele>273</ele>
        <time>2022-02-24T15:26:28Z</time>
      </trkpt>
      <trkpt lat="46.1679" lon="5.22355">
        <ele>273</ele>
        <time>2022-02-24T15:26:29Z</time>
      </trkpt>
      <trkpt lat="46.16795" lon="5.22366">
        <ele>273</ele>
        <time>2022-02-24T15:26:30Z</time>
      </trkpt>
      <trkpt lat="46.168" lon="5.22376">
        <ele>273</ele>
        <time>2022-02-24T15:26:31Z</time>
      </trkpt>
      <trkpt lat="46.16805" lon="5.22386">
        <ele>273</ele>
        <time>2022-02-24T15:26:32Z</time>
      </trkpt>
      <trkpt lat="46.16809" lon="5.22396">
        <ele>273</ele>
        <time>2022-02-24T15:26:33Z</time>
      </trkpt>
      <trkpt lat="46.16814" lon="5.22406">
        <ele>273</ele>
        <time>2022-02-24T15:26:34Z</time>
      </trkpt>
      <trkpt lat="46.16819" lon="5.22416">
        <ele>273</ele>
        <time>2022-02-24T15:26:35Z</time>
      </trkpt>
      <trkpt lat="46.16824" lon="5.22426">
        <ele>273</ele>
        <time>2022-02-24T15:26:36Z</time>
      </trkpt>
      <trkpt lat="46.16828" lon="5.22436">
        <ele>273</ele>
        <time>2022-02-24T15:26:37Z</time>
      </trkpt>
      <trkpt lat="46.16833" lon="5.22445">
        <ele>273</ele>
        <time>2022-02-24T15:26:38Z</time>
      </trkpt>
      <trkpt lat="46.16838" lon="5.22455">
        <ele>273</ele>
        <time>2022-02-24T15:26:39Z</time>
      </trkpt>
      <trkpt lat="46.16843" lon="5.22465">
        <ele>273</ele>
        <time>2022-02-24T15:26:40Z</time>
      </trkpt>
      <trkpt lat="46.16848" lon="5.22474">
        <ele>273</ele>
        <time>2022-02-24T15:26:41Z</time>
      </trkpt>
      <trkpt lat="46.16853" lon="5.22483">
        <ele>273</ele>
        <time>2022-02-24T15:26:42Z</time>
      </trkpt>
      <trkpt lat="46.16858" lon="5.22491">
        <ele>273</ele>
        <time>2022-02-24T15:26:43Z</time>
      </trkpt>
      <trkpt lat="46.16863" lon="5.225">
        <ele>273.2</ele>
        <time>2022-02-24T15:26:44Z</time>
      </trkpt>
      <trkpt lat="46.16868" lon="5.22508">
        <ele>273.2</ele>
        <time>2022-02-24T15:26:45Z</time>
      </trkpt>
      <trkpt lat="46.16873" lon="5.22515">
        <ele>273.2</ele>
        <time>2022-02-24T15:26:46Z</time>
      </trkpt>
      <trkpt lat="46.16879" lon="5.22523">
        <ele>273.2</ele>
        <time>2022-02-24T15:26:47Z</time>
      </trkpt>
      <trkpt lat="46.16884" lon="5.2253">
        <ele>273.2</ele>
        <time>2022-02-24T15:26:48Z</time>
      </trkpt>
      <trkpt lat="46.1689" lon="5.22537">
        <ele>273.4</ele>
        <time>2022-02-24T15:26:49Z</time>
      </trkpt>
      <trkpt lat="46.16895" lon="5.22544">
        <ele>273.4</ele>
        <time>2022-02-24T15:26:50Z</time>
      </trkpt>
      <trkpt lat="46.16901" lon="5.2255">
        <ele>273.6</ele>
        <time>2022-02-24T15:26:51Z</time>
      </trkpt>
      <trkpt lat="46.16906" lon="5.22557">
        <ele>273.6</ele>
        <time>2022-02-24T15:26:52Z</time>
      </trkpt>
      <trkpt lat="46.16912" lon="5.22563">
        <ele>274</ele>
        <time>2022-02-24T15:26:53Z</time>
      </trkpt>
      <trkpt lat="46.16917" lon="5.2257">
        <ele>274</ele>
        <time>2022-02-24T15:26:54Z</time>
      </trkpt>
      <trkpt lat="46.16923" lon="5.22576">
        <ele>274.2</ele>
        <time>2022-02-24T15:26:55Z</time>
      </trkpt>
      <trkpt lat="46.16928" lon="5.22582">
        <ele>274.2</ele>
        <time>2022-02-24T15:26:56Z</time>
      </trkpt>
      <trkpt lat="46.16934" lon="5.22588">
        <ele>274.2</ele>
        <time>2022-02-24T15:26:57Z</time>
      </trkpt>
      <trkpt lat="46.16939" lon="5.22594">
        <ele>274.4</ele>
        <time>2022-02-24T15:26:58Z</time>
      </trkpt>
      <trkpt lat="46.16944" lon="5.226">
        <ele>274.4</ele>
        <time>2022-02-24T15:26:59Z</time>
      </trkpt>
      <trkpt lat="46.16949" lon="5.22606">
        <ele>274.4</ele>
        <time>2022-02-24T15:27:00Z</time>
      </trkpt>
      <trkpt lat="46.16954" lon="5.22612">
        <ele>274.4</ele>
        <time>2022-02-24T15:27:01Z</time>
      </trkpt>
      <trkpt lat="46.16959" lon="5.22618">
        <ele>274.6</ele>
        <time>2022-02-24T15:27:02Z</time>
      </trkpt>
      <trkpt lat="46.16964" lon="5.22624">
        <ele>274.6</ele>
        <time>2022-02-24T15:27:03Z</time>
      </trkpt>
      <trkpt lat="46.16968" lon="5.22631">
        <ele>274.6</ele>
        <time>2022-02-24T15:27:04Z</time>
      </trkpt>
      <trkpt lat="46.16972" lon="5.22639">
        <ele>274.6</ele>
        <time>2022-02-24T15:27:05Z</time>
      </trkpt>
      <trkpt lat="46.16976" lon="5.22647">
        <ele>275</ele>
        <time>2022-02-24T15:27:06Z</time>
      </trkpt>
      <trkpt lat="46.1698" lon="5.22654">
        <ele>275</ele>
        <time>2022-02-24T15:27:07Z</time>
      </trkpt>
      <trkpt lat="46.16984" lon="5.22662">
        <ele>275</ele>
        <time>2022-02-24T15:27:08Z</time>
      </trkpt>
      <trkpt lat="46.16987" lon="5.2267">
        <ele>275</ele>
        <time>2022-02-24T15:27:09Z</time>
      </trkpt>
      <trkpt lat="46.16992" lon="5.22677">
        <ele>275</ele>
        <time>2022-02-24T15:27:10Z</time>
      </trkpt>
      <trkpt lat="46.16996" lon="5.22684">
        <ele>275</ele>
        <time>2022-02-24T15:27:11Z</time>
      </trkpt>
      <trkpt lat="46.17001" lon="5.22691">
        <ele>275</ele>
        <time>2022-02-24T15:27:12Z</time>
      </trkpt>
      <trkpt lat="46.17007" lon="5.22696">
        <ele>275</ele>
        <time>2022-02-24T15:27:13Z</time>
      </trkpt>
      <trkpt lat="46.17012" lon="5.22703">
        <ele>275.2</ele>
        <time>2022-02-24T15:27:14Z</time>
      </trkpt>
      <trkpt lat="46.17017" lon="5.22708">
        <ele>275.2</ele>
        <time>2022-02-24T15:27:15Z</time>
      </trkpt>
      <trkpt lat="46.17023" lon="5.22714">
        <ele>275.2</ele>
        <time>2022-02-24T15:27:16Z</time>
      </trkpt>
      <trkpt lat="46.17028" lon="5.2272">
        <ele>275.2</ele>
        <time>2022-02-24T15:27:17Z</time>
      </trkpt>
      <trkpt lat="46.17033" lon="5.22725">
        <ele>275.2</ele>
        <time>2022-02-24T15:27:18Z</time>
      </trkpt>
      <trkpt lat="46.17039" lon="5.22731">
        <ele>275.4</ele>
        <time>2022-02-24T15:27:19Z</time>
      </trkpt>
      <trkpt lat="46.17044" lon="5.22736">
        <ele>275.4</ele>
        <time>2022-02-24T15:27:20Z</time>
      </trkpt>
      <trkpt lat="46.17049" lon="5.22742">
        <ele>275.4</ele>
        <time>2022-02-24T15:27:21Z</time>
      </trkpt>
      <trkpt lat="46.17055" lon="5.22748">
        <ele>275.4</ele>
        <time>2022-02-24T15:27:22Z</time>
      </trkpt>
      <trkpt lat="46.1706" lon="5.22753">
        <ele>275.4</ele>
        <time>2022-02-24T15:27:23Z</time>
      </trkpt>
      <trkpt lat="46.17065" lon="5.22759">
        <ele>275.4</ele>
        <time>2022-02-24T15:27:24Z</time>
      </trkpt>
      <trkpt lat="46.17071" lon="5.22765">
        <ele>275.4</ele>
        <time>2022-02-24T15:27:25Z</time>
      </trkpt>
      <trkpt lat="46.17076" lon="5.22771">
        <ele>275.4</ele>
        <time>2022-02-24T15:27:26Z</time>
      </trkpt>
      <trkpt lat="46.17082" lon="5.22777">
        <ele>275.4</ele>
        <time>2022-02-24T15:27:27Z</time>
      </trkpt>
      <trkpt lat="46.17087" lon="5.22783">
        <ele>275.4</ele>
        <time>2022-02-24T15:27:28Z</time>
      </trkpt>
      <trkpt lat="46.17093" lon="5.22789">
        <ele>275.4</ele>
        <time>2022-02-24T15:27:29Z</time>
      </trkpt>
      <trkpt lat="46.17099" lon="5.22795">
        <ele>275.4</ele>
        <time>2022-02-24T15:27:30Z</time>
      </trkpt>
      <trkpt lat="46.17104" lon="5.22801">
        <ele>275.4</ele>
        <time>2022-02-24T15:27:31Z</time>
      </trkpt>
      <trkpt lat="46.1711" lon="5.22807">
        <ele>275.4</ele>
        <time>2022-02-24T15:27:32Z</time>
      </trkpt>
      <trkpt lat="46.17116" lon="5.22813">
        <ele>275.4</ele>
        <time>2022-02-24T15:27:33Z</time>
      </trkpt>
      <trkpt lat="46.17121" lon="5.22819">
        <ele>275.4</ele>
        <time>2022-02-24T15:27:34Z</time>
      </trkpt>
      <trkpt lat="46.17127" lon="5.22825">
        <ele>275.2</ele>
        <time>2022-02-24T15:27:35Z</time>
      </trkpt>
      <trkpt lat="46.17133" lon="5.22831">
        <ele>275.2</ele>
        <time>2022-02-24T15:27:36Z</time>
      </trkpt>
      <trkpt lat="46.17138" lon="5.22836">
        <ele>275.2</ele>
        <time>2022-02-24T15:27:37Z</time>
      </trkpt>
      <trkpt lat="46.17144" lon="5.22842">
        <ele>275.2</ele>
        <time>2022-02-24T15:27:38Z</time>
      </trkpt>
      <trkpt lat="46.1715" lon="5.22848">
        <ele>275.2</ele>
        <time>2022-02-24T15:27:39Z</time>
      </trkpt>
      <trkpt lat="46.17155" lon="5.22854">
        <ele>275.2</ele>
        <time>2022-02-24T15:27:40Z</time>
      </trkpt>
      <trkpt lat="46.17161" lon="5.2286">
        <ele>275.2</ele>
        <time>2022-02-24T15:27:41Z</time>
      </trkpt>
      <trkpt lat="46.17166" lon="5.22866">
        <ele>275.2</ele>
        <time>2022-02-24T15:27:42Z</time>
      </trkpt>
      <trkpt lat="46.17172" lon="5.22872">
        <ele>275.2</ele>
        <time>2022-02-24T15:27:43Z</time>
      </trkpt>
      <trkpt lat="46.17177" lon="5.22878">
        <ele>275.2</ele>
        <time>2022-02-24T15:27:44Z</time>
      </trkpt>
      <trkpt lat="46.17183" lon="5.22884">
        <ele>275.2</ele>
        <time>2022-02-24T15:27:45Z</time>
      </trkpt>
      <trkpt lat="46.17189" lon="5.2289">
        <ele>275.6</ele>
        <time>2022-02-24T15:27:46Z</time>
      </trkpt>
      <trkpt lat="46.17195" lon="5.22896">
        <ele>275.6</ele>
        <time>2022-02-24T15:27:47Z</time>
      </trkpt>
      <trkpt lat="46.172" lon="5.22902">
        <ele>275.6</ele>
        <time>2022-02-24T15:27:48Z</time>
      </trkpt>
      <trkpt lat="46.17206" lon="5.22907">
        <ele>275.6</ele>
        <time>2022-02-24T15:27:49Z</time>
      </trkpt>
      <trkpt lat="46.17212" lon="5.22913">
        <ele>275.6</ele>
        <time>2022-02-24T15:27:50Z</time>
      </trkpt>
      <trkpt lat="46.17217" lon="5.22919">
        <ele>275.6</ele>
        <time>2022-02-24T15:27:51Z</time>
      </trkpt>
      <trkpt lat="46.17223" lon="5.22924">
        <ele>275.6</ele>
        <time>2022-02-24T15:27:52Z</time>
      </trkpt>
      <trkpt lat="46.17228" lon="5.2293">
        <ele>275.6</ele>
        <time>2022-02-24T15:27:53Z</time>
      </trkpt>
      <trkpt lat="46.17234" lon="5.22935">
        <ele>275.6</ele>
        <time>2022-02-24T15:27:54Z</time>
      </trkpt>
      <trkpt lat="46.1724" lon="5.22941">
        <ele>275.6</ele>
        <time>2022-02-24T15:27:55Z</time>
      </trkpt>
      <trkpt lat="46.17245" lon="5.22947">
        <ele>275.8</ele>
        <time>2022-02-24T15:27:56Z</time>
      </trkpt>
      <trkpt lat="46.17251" lon="5.22953">
        <ele>275.8</ele>
        <time>2022-02-24T15:27:57Z</time>
      </trkpt>
      <trkpt lat="46.17256" lon="5.22959">
        <ele>275.8</ele>
        <time>2022-02-24T15:27:58Z</time>
      </trkpt>
      <trkpt lat="46.17261" lon="5.22965">
        <ele>275.8</ele>
        <time>2022-02-24T15:27:59Z</time>
      </trkpt>
      <trkpt lat="46.17267" lon="5.22971">
        <ele>275.8</ele>
        <time>2022-02-24T15:28:00Z</time>
      </trkpt>
      <trkpt lat="46.17272" lon="5.22977">
        <ele>275.8</ele>
        <time>2022-02-24T15:28:01Z</time>
      </trkpt>
      <trkpt lat="46.17277" lon="5.22983">
        <ele>275.8</ele>
        <time>2022-02-24T15:28:02Z</time>
      </trkpt>
      <trkpt lat="46.17283" lon="5.22989">
        <ele>275.8</ele>
        <time>2022-02-24T15:28:03Z</time>
      </trkpt>
      <trkpt lat="46.17288" lon="5.22995">
        <ele>275.8</ele>
        <time>2022-02-24T15:28:04Z</time>
      </trkpt>
      <trkpt lat="46.17293" lon="5.23001">
        <ele>275.8</ele>
        <time>2022-02-24T15:28:05Z</time>
      </trkpt>
      <trkpt lat="46.17299" lon="5.23007">
        <ele>275.8</ele>
        <time>2022-02-24T15:28:06Z</time>
      </trkpt>
      <trkpt lat="46.17304" lon="5.23013">
        <ele>275.8</ele>
        <time>2022-02-24T15:28:07Z</time>
      </trkpt>
      <trkpt lat="46.1731" lon="5.23019">
        <ele>275.8</ele>
        <time>2022-02-24T15:28:08Z</time>
      </trkpt>
      <trkpt lat="46.17315" lon="5.23025">
        <ele>275.8</ele>
        <time>2022-02-24T15:28:09Z</time>
      </trkpt>
      <trkpt lat="46.17321" lon="5.23032">
        <ele>275.8</ele>
        <time>2022-02-24T15:28:10Z</time>
      </trkpt>
      <trkpt lat="46.17327" lon="5.23038">
        <ele>275.8</ele>
        <time>2022-02-24T15:28:11Z</time>
      </trkpt>
      <trkpt lat="46.17332" lon="5.23044">
        <ele>275.4</ele>
        <time>2022-02-24T15:28:12Z</time>
      </trkpt>
      <trkpt lat="46.17337" lon="5.2305">
        <ele>275.4</ele>
        <time>2022-02-24T15:28:13Z</time>
      </trkpt>
      <trkpt lat="46.17343" lon="5.23056">
        <ele>275.4</ele>
        <time>2022-02-24T15:28:14Z</time>
      </trkpt>
      <trkpt lat="46.17348" lon="5.23062">
        <ele>275.4</ele>
        <time>2022-02-24T15:28:15Z</time>
      </trkpt>
      <trkpt lat="46.17354" lon="5.23068">
        <ele>275.4</ele>
        <time>2022-02-24T15:28:16Z</time>
      </trkpt>
      <trkpt lat="46.1736" lon="5.23074">
        <ele>275.2</ele>
        <time>2022-02-24T15:28:17Z</time>
      </trkpt>
      <trkpt lat="46.17365" lon="5.2308">
        <ele>275.2</ele>
        <time>2022-02-24T15:28:18Z</time>
      </trkpt>
      <trkpt lat="46.17371" lon="5.23087">
        <ele>275.2</ele>
        <time>2022-02-24T15:28:19Z</time>
      </trkpt>
      <trkpt lat="46.17376" lon="5.23093">
        <ele>275.2</ele>
        <time>2022-02-24T15:28:20Z</time>
      </trkpt>
      <trkpt lat="46.17381" lon="5.23099">
        <ele>275</ele>
        <time>2022-02-24T15:28:21Z</time>
      </trkpt>
      <trkpt lat="46.17387" lon="5.23105">
        <ele>275</ele>
        <time>2022-02-24T15:28:22Z</time>
      </trkpt>
      <trkpt lat="46.17392" lon="5.23111">
        <ele>275</ele>
        <time>2022-02-24T15:28:23Z</time>
      </trkpt>
      <trkpt lat="46.17398" lon="5.23117">
        <ele>275</ele>
        <time>2022-02-24T15:28:24Z</time>
      </trkpt>
      <trkpt lat="46.17403" lon="5.23123">
        <ele>275</ele>
        <time>2022-02-24T15:28:25Z</time>
      </trkpt>
      <trkpt lat="46.17409" lon="5.23129">
        <ele>275</ele>
        <time>2022-02-24T15:28:26Z</time>
      </trkpt>
      <trkpt lat="46.17414" lon="5.23134">
        <ele>275</ele>
        <time>2022-02-24T15:28:27Z</time>
      </trkpt>
      <trkpt lat="46.1742" lon="5.2314">
        <ele>275.2</ele>
        <time>2022-02-24T15:28:28Z</time>
      </trkpt>
      <trkpt lat="46.17425" lon="5.23145">
        <ele>275.2</ele>
        <time>2022-02-24T15:28:29Z</time>
      </trkpt>
      <trkpt lat="46.17431" lon="5.23151">
        <ele>275.2</ele>
        <time>2022-02-24T15:28:30Z</time>
      </trkpt>
      <trkpt lat="46.17436" lon="5.23157">
        <ele>275.2</ele>
        <time>2022-02-24T15:28:31Z</time>
      </trkpt>
      <trkpt lat="46.17441" lon="5.23163">
        <ele>275.2</ele>
        <time>2022-02-24T15:28:32Z</time>
      </trkpt>
      <trkpt lat="46.17446" lon="5.2317">
        <ele>275.2</ele>
        <time>2022-02-24T15:28:33Z</time>
      </trkpt>
      <trkpt lat="46.17451" lon="5.23176">
        <ele>275.2</ele>
        <time>2022-02-24T15:28:34Z</time>
      </trkpt>
      <trkpt lat="46.17456" lon="5.23182">
        <ele>275.2</ele>
        <time>2022-02-24T15:28:35Z</time>
      </trkpt>
      <trkpt lat="46.17462" lon="5.23188">
        <ele>275.2</ele>
        <time>2022-02-24T15:28:36Z</time>
      </trkpt>
      <trkpt lat="46.17467" lon="5.23193">
        <ele>275.2</ele>
        <time>2022-02-24T15:28:37Z</time>
      </trkpt>
      <trkpt lat="46.17472" lon="5.23199">
        <ele>275.2</ele>
        <time>2022-02-24T15:28:38Z</time>
      </trkpt>
      <trkpt lat="46.17477" lon="5.23205">
        <ele>275.2</ele>
        <time>2022-02-24T15:28:39Z</time>
      </trkpt>
      <trkpt lat="46.17482" lon="5.23212">
        <ele>275.2</ele>
        <time>2022-02-24T15:28:40Z</time>
      </trkpt>
      <trkpt lat="46.17487" lon="5.23219">
        <ele>275.2</ele>
        <time>2022-02-24T15:28:41Z</time>
      </trkpt>
      <trkpt lat="46.17492" lon="5.23225">
        <ele>275.2</ele>
        <time>2022-02-24T15:28:42Z</time>
      </trkpt>
      <trkpt lat="46.17498" lon="5.23231">
        <ele>275.4</ele>
        <time>2022-02-24T15:28:43Z</time>
      </trkpt>
      <trkpt lat="46.17503" lon="5.23238">
        <ele>275.4</ele>
        <time>2022-02-24T15:28:44Z</time>
      </trkpt>
      <trkpt lat="46.17508" lon="5.23243">
        <ele>275.4</ele>
        <time>2022-02-24T15:28:45Z</time>
      </trkpt>
      <trkpt lat="46.17513" lon="5.23249">
        <ele>275.6</ele>
        <time>2022-02-24T15:28:46Z</time>
      </trkpt>
      <trkpt lat="46.17518" lon="5.23255">
        <ele>275.6</ele>
        <time>2022-02-24T15:28:47Z</time>
      </trkpt>
      <trkpt lat="46.17523" lon="5.23261">
        <ele>275.6</ele>
        <time>2022-02-24T15:28:48Z</time>
      </trkpt>
      <trkpt lat="46.17528" lon="5.23267">
        <ele>275.6</ele>
        <time>2022-02-24T15:28:49Z</time>
      </trkpt>
      <trkpt lat="46.17534" lon="5.23272">
        <ele>275.6</ele>
        <time>2022-02-24T15:28:50Z</time>
      </trkpt>
      <trkpt lat="46.17539" lon="5.23278">
        <ele>275.6</ele>
        <time>2022-02-24T15:28:51Z</time>
      </trkpt>
      <trkpt lat="46.17544" lon="5.23284">
        <ele>275.6</ele>
        <time>2022-02-24T15:28:52Z</time>
      </trkpt>
      <trkpt lat="46.17549" lon="5.2329">
        <ele>275.6</ele>
        <time>2022-02-24T15:28:53Z</time>
      </trkpt>
      <trkpt lat="46.17554" lon="5.23296">
        <ele>275.6</ele>
        <time>2022-02-24T15:28:54Z</time>
      </trkpt>
      <trkpt lat="46.17559" lon="5.23302">
        <ele>275.6</ele>
        <time>2022-02-24T15:28:55Z</time>
      </trkpt>
      <trkpt lat="46.17565" lon="5.23308">
        <ele>275.8</ele>
        <time>2022-02-24T15:28:56Z</time>
      </trkpt>
      <trkpt lat="46.1757" lon="5.23313">
        <ele>275.8</ele>
        <time>2022-02-24T15:28:57Z</time>
      </trkpt>
      <trkpt lat="46.17576" lon="5.23319">
        <ele>275.8</ele>
        <time>2022-02-24T15:28:58Z</time>
      </trkpt>
      <trkpt lat="46.17581" lon="5.23325">
        <ele>275.8</ele>
        <time>2022-02-24T15:28:59Z</time>
      </trkpt>
      <trkpt lat="46.17586" lon="5.23331">
        <ele>275.8</ele>
        <time>2022-02-24T15:29:00Z</time>
      </trkpt>
      <trkpt lat="46.17592" lon="5.23337">
        <ele>275.8</ele>
        <time>2022-02-24T15:29:01Z</time>
      </trkpt>
      <trkpt lat="46.17597" lon="5.23343">
        <ele>275.6</ele>
        <time>2022-02-24T15:29:02Z</time>
      </trkpt>
      <trkpt lat="46.17602" lon="5.23349">
        <ele>275.6</ele>
        <time>2022-02-24T15:29:03Z</time>
      </trkpt>
      <trkpt lat="46.17608" lon="5.23354">
        <ele>275.6</ele>
        <time>2022-02-24T15:29:04Z</time>
      </trkpt>
      <trkpt lat="46.17614" lon="5.23359">
        <ele>275.6</ele>
        <time>2022-02-24T15:29:05Z</time>
      </trkpt>
      <trkpt lat="46.17619" lon="5.23365">
        <ele>275.6</ele>
        <time>2022-02-24T15:29:06Z</time>
      </trkpt>
      <trkpt lat="46.17625" lon="5.2337">
        <ele>275.6</ele>
        <time>2022-02-24T15:29:07Z</time>
      </trkpt>
      <trkpt lat="46.17631" lon="5.23375">
        <ele>275.6</ele>
        <time>2022-02-24T15:29:08Z</time>
      </trkpt>
      <trkpt lat="46.17637" lon="5.23379">
        <ele>275.6</ele>
        <time>2022-02-24T15:29:09Z</time>
      </trkpt>
      <trkpt lat="46.17643" lon="5.23383">
        <ele>275.4</ele>
        <time>2022-02-24T15:29:10Z</time>
      </trkpt>
      <trkpt lat="46.17648" lon="5.23387">
        <ele>275.4</ele>
        <time>2022-02-24T15:29:11Z</time>
      </trkpt>
      <trkpt lat="46.17653" lon="5.23391">
        <ele>275.4</ele>
        <time>2022-02-24T15:29:12Z</time>
      </trkpt>
      <trkpt lat="46.17657" lon="5.23395">
        <ele>275.4</ele>
        <time>2022-02-24T15:29:13Z</time>
      </trkpt>
      <trkpt lat="46.17659" lon="5.234">
        <ele>275.4</ele>
        <time>2022-02-24T15:29:14Z</time>
      </trkpt>
      <trkpt lat="46.17662" lon="5.23405">
        <ele>275.2</ele>
        <time>2022-02-24T15:29:15Z</time>
      </trkpt>
      <trkpt lat="46.17664" lon="5.23412">
        <ele>275.2</ele>
        <time>2022-02-24T15:29:16Z</time>
      </trkpt>
      <trkpt lat="46.17665" lon="5.23418">
        <ele>275.2</ele>
        <time>2022-02-24T15:29:17Z</time>
      </trkpt>
      <trkpt lat="46.17668" lon="5.23425">
        <ele>275.2</ele>
        <time>2022-02-24T15:29:18Z</time>
      </trkpt>
      <trkpt lat="46.17671" lon="5.2343">
        <ele>275.2</ele>
        <time>2022-02-24T15:29:19Z</time>
      </trkpt>
      <trkpt lat="46.17676" lon="5.23433">
        <ele>275.2</ele>
        <time>2022-02-24T15:29:20Z</time>
      </trkpt>
      <trkpt lat="46.17681" lon="5.23434">
        <ele>275</ele>
        <time>2022-02-24T15:29:21Z</time>
      </trkpt>
      <trkpt lat="46.17687" lon="5.23432">
        <ele>275</ele>
        <time>2022-02-24T15:29:22Z</time>
      </trkpt>
      <trkpt lat="46.17693" lon="5.2343">
        <ele>275</ele>
        <time>2022-02-24T15:29:23Z</time>
      </trkpt>
      <trkpt lat="46.17698" lon="5.23427">
        <ele>274.8</ele>
        <time>2022-02-24T15:29:24Z</time>
      </trkpt>
      <trkpt lat="46.17704" lon="5.23425">
        <ele>274.4</ele>
        <time>2022-02-24T15:29:25Z</time>
      </trkpt>
      <trkpt lat="46.17711" lon="5.23426">
        <ele>274.4</ele>
        <time>2022-02-24T15:29:26Z</time>
      </trkpt>
      <trkpt lat="46.17718" lon="5.23428">
        <ele>274.2</ele>
        <time>2022-02-24T15:29:27Z</time>
      </trkpt>
      <trkpt lat="46.17725" lon="5.23431">
        <ele>274.2</ele>
        <time>2022-02-24T15:29:28Z</time>
      </trkpt>
      <trkpt lat="46.17732" lon="5.23433">
        <ele>273.8</ele>
        <time>2022-02-24T15:29:29Z</time>
      </trkpt>
      <trkpt lat="46.17739" lon="5.23434">
        <ele>273.6</ele>
        <time>2022-02-24T15:29:30Z</time>
      </trkpt>
      <trkpt lat="46.17747" lon="5.23435">
        <ele>273.4</ele>
        <time>2022-02-24T15:29:31Z</time>
      </trkpt>
      <trkpt lat="46.17755" lon="5.23437">
        <ele>273.2</ele>
        <time>2022-02-24T15:29:32Z</time>
      </trkpt>
      <trkpt lat="46.17763" lon="5.23438">
        <ele>272.8</ele>
        <time>2022-02-24T15:29:33Z</time>
      </trkpt>
      <trkpt lat="46.17771" lon="5.23439">
        <ele>272.6</ele>
        <time>2022-02-24T15:29:34Z</time>
      </trkpt>
      <trkpt lat="46.17779" lon="5.2344">
        <ele>272.2</ele>
        <time>2022-02-24T15:29:35Z</time>
      </trkpt>
      <trkpt lat="46.17787" lon="5.23442">
        <ele>272</ele>
        <time>2022-02-24T15:29:36Z</time>
      </trkpt>
      <trkpt lat="46.17795" lon="5.23443">
        <ele>271.6</ele>
        <time>2022-02-24T15:29:37Z</time>
      </trkpt>
      <trkpt lat="46.17804" lon="5.23444">
        <ele>271.4</ele>
        <time>2022-02-24T15:29:38Z</time>
      </trkpt>
      <trkpt lat="46.17812" lon="5.23446">
        <ele>271</ele>
        <time>2022-02-24T15:29:39Z</time>
      </trkpt>
      <trkpt lat="46.17821" lon="5.23447">
        <ele>270.8</ele>
        <time>2022-02-24T15:29:40Z</time>
      </trkpt>
      <trkpt lat="46.1783" lon="5.23448">
        <ele>270.4</ele>
        <time>2022-02-24T15:29:41Z</time>
      </trkpt>
      <trkpt lat="46.17839" lon="5.2345">
        <ele>270</ele>
        <time>2022-02-24T15:29:42Z</time>
      </trkpt>
      <trkpt lat="46.17848" lon="5.23451">
        <ele>269.6</ele>
        <time>2022-02-24T15:29:43Z</time>
      </trkpt>
      <trkpt lat="46.17858" lon="5.23452">
        <ele>269.2</ele>
        <time>2022-02-24T15:29:44Z</time>
      </trkpt>
      <trkpt lat="46.17867" lon="5.23452">
        <ele>268.8</ele>
        <time>2022-02-24T15:29:45Z</time>
      </trkpt>
      <trkpt lat="46.17877" lon="5.23454">
        <ele>268.2</ele>
        <time>2022-02-24T15:29:46Z</time>
      </trkpt>
      <trkpt lat="46.17887" lon="5.23455">
        <ele>267.8</ele>
        <time>2022-02-24T15:29:47Z</time>
      </trkpt>
      <trkpt lat="46.17897" lon="5.23456">
        <ele>267.2</ele>
        <time>2022-02-24T15:29:48Z</time>
      </trkpt>
      <trkpt lat="46.17907" lon="5.23458">
        <ele>266.6</ele>
        <time>2022-02-24T15:29:49Z</time>
      </trkpt>
      <trkpt lat="46.17918" lon="5.23459">
        <ele>266.2</ele>
        <time>2022-02-24T15:29:50Z</time>
      </trkpt>
      <trkpt lat="46.17928" lon="5.2346">
        <ele>265.8</ele>
        <time>2022-02-24T15:29:51Z</time>
      </trkpt>
      <trkpt lat="46.17938" lon="5.23461">
        <ele>265.4</ele>
        <time>2022-02-24T15:29:52Z</time>
      </trkpt>
      <trkpt lat="46.17948" lon="5.23462">
        <ele>265</ele>
        <time>2022-02-24T15:29:53Z</time>
      </trkpt>
      <trkpt lat="46.17958" lon="5.23463">
        <ele>264.4</ele>
        <time>2022-02-24T15:29:54Z</time>
      </trkpt>
      <trkpt lat="46.17969" lon="5.23464">
        <ele>264.2</ele>
        <time>2022-02-24T15:29:55Z</time>
      </trkpt>
      <trkpt lat="46.17979" lon="5.23465">
        <ele>263.6</ele>
        <time>2022-02-24T15:29:56Z</time>
      </trkpt>
      <trkpt lat="46.1799" lon="5.23465">
        <ele>263.2</ele>
        <time>2022-02-24T15:29:57Z</time>
      </trkpt>
      <trkpt lat="46.18" lon="5.23467">
        <ele>262.6</ele>
        <time>2022-02-24T15:29:58Z</time>
      </trkpt>
      <trkpt lat="46.18012" lon="5.23468">
        <ele>262</ele>
        <time>2022-02-24T15:29:59Z</time>
      </trkpt>
      <trkpt lat="46.18023" lon="5.23468">
        <ele>261.4</ele>
        <time>2022-02-24T15:30:00Z</time>
      </trkpt>
      <trkpt lat="46.18036" lon="5.23469">
        <ele>260.8</ele>
        <time>2022-02-24T15:30:01Z</time>
      </trkpt>
      <trkpt lat="46.18048" lon="5.23469">
        <ele>260.2</ele>
        <time>2022-02-24T15:30:02Z</time>
      </trkpt>
      <trkpt lat="46.18061" lon="5.2347">
        <ele>259.6</ele>
        <time>2022-02-24T15:30:03Z</time>
      </trkpt>
      <trkpt lat="46.18073" lon="5.23473">
        <ele>258.8</ele>
        <time>2022-02-24T15:30:04Z</time>
      </trkpt>
      <trkpt lat="46.18087" lon="5.23476">
        <ele>258.2</ele>
        <time>2022-02-24T15:30:05Z</time>
      </trkpt>
      <trkpt lat="46.18099" lon="5.23478">
        <ele>257.4</ele>
        <time>2022-02-24T15:30:06Z</time>
      </trkpt>
      <trkpt lat="46.18113" lon="5.23478">
        <ele>256.8</ele>
        <time>2022-02-24T15:30:07Z</time>
      </trkpt>
      <trkpt lat="46.18125" lon="5.2348">
        <ele>256.2</ele>
        <time>2022-02-24T15:30:08Z</time>
      </trkpt>
      <trkpt lat="46.18139" lon="5.2348">
        <ele>255.4</ele>
        <time>2022-02-24T15:30:09Z</time>
      </trkpt>
      <trkpt lat="46.18152" lon="5.2348">
        <ele>254.6</ele>
        <time>2022-02-24T15:30:10Z</time>
      </trkpt>
      <trkpt lat="46.18166" lon="5.2348">
        <ele>253.8</ele>
        <time>2022-02-24T15:30:11Z</time>
      </trkpt>
      <trkpt lat="46.18179" lon="5.23478">
        <ele>253</ele>
        <time>2022-02-24T15:30:12Z</time>
      </trkpt>
      <trkpt lat="46.18191" lon="5.23478">
        <ele>252</ele>
        <time>2022-02-24T15:30:13Z</time>
      </trkpt>
      <trkpt lat="46.18204" lon="5.23477">
        <ele>251</ele>
        <time>2022-02-24T15:30:14Z</time>
      </trkpt>
      <trkpt lat="46.18216" lon="5.23476">
        <ele>250.2</ele>
        <time>2022-02-24T15:30:15Z</time>
      </trkpt>
      <trkpt lat="46.18228" lon="5.23473">
        <ele>249.6</ele>
        <time>2022-02-24T15:30:16Z</time>
      </trkpt>
      <trkpt lat="46.18241" lon="5.23472">
        <ele>248.8</ele>
        <time>2022-02-24T15:30:17Z</time>
      </trkpt>
      <trkpt lat="46.18254" lon="5.23469">
        <ele>248.2</ele>
        <time>2022-02-24T15:30:18Z</time>
      </trkpt>
      <trkpt lat="46.18267" lon="5.23467">
        <ele>247.6</ele>
        <time>2022-02-24T15:30:19Z</time>
      </trkpt>
      <trkpt lat="46.18281" lon="5.23465">
        <ele>247</ele>
        <time>2022-02-24T15:30:20Z</time>
      </trkpt>
      <trkpt lat="46.18294" lon="5.23462">
        <ele>246.4</ele>
        <time>2022-02-24T15:30:21Z</time>
      </trkpt>
      <trkpt lat="46.18306" lon="5.23459">
        <ele>245.8</ele>
        <time>2022-02-24T15:30:22Z</time>
      </trkpt>
      <trkpt lat="46.18318" lon="5.23456">
        <ele>245.2</ele>
        <time>2022-02-24T15:30:23Z</time>
      </trkpt>
      <trkpt lat="46.18328" lon="5.23453">
        <ele>245</ele>
        <time>2022-02-24T15:30:24Z</time>
      </trkpt>
      <trkpt lat="46.18339" lon="5.23449">
        <ele>245</ele>
        <time>2022-02-24T15:30:25Z</time>
      </trkpt>
      <trkpt lat="46.18349" lon="5.23444">
        <ele>244.8</ele>
        <time>2022-02-24T15:30:26Z</time>
      </trkpt>
      <trkpt lat="46.18361" lon="5.23441">
        <ele>244.8</ele>
        <time>2022-02-24T15:30:27Z</time>
      </trkpt>
      <trkpt lat="46.18371" lon="5.23438">
        <ele>244.8</ele>
        <time>2022-02-24T15:30:28Z</time>
      </trkpt>
      <trkpt lat="46.18382" lon="5.23434">
        <ele>244.8</ele>
        <time>2022-02-24T15:30:29Z</time>
      </trkpt>
      <trkpt lat="46.18393" lon="5.23431">
        <ele>244.8</ele>
        <time>2022-02-24T15:30:30Z</time>
      </trkpt>
      <trkpt lat="46.18404" lon="5.23428">
        <ele>244.8</ele>
        <time>2022-02-24T15:30:31Z</time>
      </trkpt>
      <trkpt lat="46.18413" lon="5.23425">
        <ele>244.8</ele>
        <time>2022-02-24T15:30:32Z</time>
      </trkpt>
      <trkpt lat="46.18424" lon="5.23422">
        <ele>244.8</ele>
        <time>2022-02-24T15:30:33Z</time>
      </trkpt>
      <trkpt lat="46.18433" lon="5.2342">
        <ele>244.6</ele>
        <time>2022-02-24T15:30:34Z</time>
      </trkpt>
      <trkpt lat="46.18442" lon="5.23417">
        <ele>244.6</ele>
        <time>2022-02-24T15:30:35Z</time>
      </trkpt>
      <trkpt lat="46.18452" lon="5.23414">
        <ele>244.6</ele>
        <time>2022-02-24T15:30:36Z</time>
      </trkpt>
      <trkpt lat="46.18461" lon="5.23411">
        <ele>244.6</ele>
        <time>2022-02-24T15:30:37Z</time>
      </trkpt>
      <trkpt lat="46.1847" lon="5.23407">
        <ele>244.6</ele>
        <time>2022-02-24T15:30:38Z</time>
      </trkpt>
      <trkpt lat="46.18478" lon="5.23403">
        <ele>244.6</ele>
        <time>2022-02-24T15:30:39Z</time>
      </trkpt>
      <trkpt lat="46.18487" lon="5.23399">
        <ele>244.6</ele>
        <time>2022-02-24T15:30:40Z</time>
      </trkpt>
      <trkpt lat="46.18495" lon="5.23396">
        <ele>244.6</ele>
        <time>2022-02-24T15:30:41Z</time>
      </trkpt>
      <trkpt lat="46.18502" lon="5.23392">
        <ele>244.8</ele>
        <time>2022-02-24T15:30:42Z</time>
      </trkpt>
      <trkpt lat="46.18509" lon="5.23388">
        <ele>244.8</ele>
        <time>2022-02-24T15:30:43Z</time>
      </trkpt>
      <trkpt lat="46.18517" lon="5.23384">
        <ele>244.8</ele>
        <time>2022-02-24T15:30:44Z</time>
      </trkpt>
      <trkpt lat="46.18524" lon="5.2338">
        <ele>244.8</ele>
        <time>2022-02-24T15:30:45Z</time>
      </trkpt>
      <trkpt lat="46.18532" lon="5.23376">
        <ele>245</ele>
        <time>2022-02-24T15:30:46Z</time>
      </trkpt>
      <trkpt lat="46.18539" lon="5.23372">
        <ele>245</ele>
        <time>2022-02-24T15:30:47Z</time>
      </trkpt>
      <trkpt lat="46.18547" lon="5.23369">
        <ele>245</ele>
        <time>2022-02-24T15:30:48Z</time>
      </trkpt>
      <trkpt lat="46.18555" lon="5.23365">
        <ele>245</ele>
        <time>2022-02-24T15:30:49Z</time>
      </trkpt>
      <trkpt lat="46.18562" lon="5.23361">
        <ele>245.2</ele>
        <time>2022-02-24T15:30:50Z</time>
      </trkpt>
      <trkpt lat="46.1857" lon="5.23358">
        <ele>245.2</ele>
        <time>2022-02-24T15:30:51Z</time>
      </trkpt>
      <trkpt lat="46.18577" lon="5.23354">
        <ele>245.2</ele>
        <time>2022-02-24T15:30:52Z</time>
      </trkpt>
      <trkpt lat="46.18584" lon="5.23351">
        <ele>245.2</ele>
        <time>2022-02-24T15:30:53Z</time>
      </trkpt>
      <trkpt lat="46.18592" lon="5.23347">
        <ele>245.2</ele>
        <time>2022-02-24T15:30:54Z</time>
      </trkpt>
      <trkpt lat="46.18599" lon="5.23343">
        <ele>245.2</ele>
        <time>2022-02-24T15:30:55Z</time>
      </trkpt>
      <trkpt lat="46.18606" lon="5.2334">
        <ele>245.2</ele>
        <time>2022-02-24T15:30:56Z</time>
      </trkpt>
      <trkpt lat="46.18614" lon="5.23336">
        <ele>245.2</ele>
        <time>2022-02-24T15:30:57Z</time>
      </trkpt>
      <trkpt lat="46.18621" lon="5.23332">
        <ele>245.2</ele>
        <time>2022-02-24T15:30:58Z</time>
      </trkpt>
      <trkpt lat="46.18628" lon="5.23329">
        <ele>245.2</ele>
        <time>2022-02-24T15:30:59Z</time>
      </trkpt>
      <trkpt lat="46.18635" lon="5.23325">
        <ele>245.2</ele>
        <time>2022-02-24T15:31:00Z</time>
      </trkpt>
      <trkpt lat="46.18642" lon="5.23322">
        <ele>245.2</ele>
        <time>2022-02-24T15:31:01Z</time>
      </trkpt>
      <trkpt lat="46.18649" lon="5.23318">
        <ele>245.2</ele>
        <time>2022-02-24T15:31:02Z</time>
      </trkpt>
      <trkpt lat="46.18656" lon="5.23314">
        <ele>245.2</ele>
        <time>2022-02-24T15:31:03Z</time>
      </trkpt>
      <trkpt lat="46.18663" lon="5.2331">
        <ele>245.2</ele>
        <time>2022-02-24T15:31:04Z</time>
      </trkpt>
      <trkpt lat="46.1867" lon="5.23307">
        <ele>245.2</ele>
        <time>2022-02-24T15:31:05Z</time>
      </trkpt>
      <trkpt lat="46.18678" lon="5.23303">
        <ele>245.2</ele>
        <time>2022-02-24T15:31:06Z</time>
      </trkpt>
      <trkpt lat="46.18685" lon="5.233">
        <ele>245.2</ele>
        <time>2022-02-24T15:31:07Z</time>
      </trkpt>
      <trkpt lat="46.18692" lon="5.23296">
        <ele>245.2</ele>
        <time>2022-02-24T15:31:08Z</time>
      </trkpt>
      <trkpt lat="46.18699" lon="5.23292">
        <ele>245.2</ele>
        <time>2022-02-24T15:31:09Z</time>
      </trkpt>
      <trkpt lat="46.18706" lon="5.23288">
        <ele>245.2</ele>
        <time>2022-02-24T15:31:10Z</time>
      </trkpt>
      <trkpt lat="46.18713" lon="5.23285">
        <ele>245.2</ele>
        <time>2022-02-24T15:31:11Z</time>
      </trkpt>
      <trkpt lat="46.18721" lon="5.23281">
        <ele>245.2</ele>
        <time>2022-02-24T15:31:12Z</time>
      </trkpt>
      <trkpt lat="46.18728" lon="5.23278">
        <ele>245.2</ele>
        <time>2022-02-24T15:31:13Z</time>
      </trkpt>
      <trkpt lat="46.18735" lon="5.23274">
        <ele>245.2</ele>
        <time>2022-02-24T15:31:14Z</time>
      </trkpt>
      <trkpt lat="46.18742" lon="5.2327">
        <ele>245.2</ele>
        <time>2022-02-24T15:31:15Z</time>
      </trkpt>
      <trkpt lat="46.18748" lon="5.23267">
        <ele>245.2</ele>
        <time>2022-02-24T15:31:16Z</time>
      </trkpt>
      <trkpt lat="46.18755" lon="5.23262">
        <ele>245.2</ele>
        <time>2022-02-24T15:31:17Z</time>
      </trkpt>
      <trkpt lat="46.18761" lon="5.23258">
        <ele>245</ele>
        <time>2022-02-24T15:31:18Z</time>
      </trkpt>
      <trkpt lat="46.18768" lon="5.23255">
        <ele>245</ele>
        <time>2022-02-24T15:31:19Z</time>
      </trkpt>
      <trkpt lat="46.18774" lon="5.23252">
        <ele>245</ele>
        <time>2022-02-24T15:31:20Z</time>
      </trkpt>
      <trkpt lat="46.18781" lon="5.23248">
        <ele>244.8</ele>
        <time>2022-02-24T15:31:21Z</time>
      </trkpt>
      <trkpt lat="46.18787" lon="5.23245">
        <ele>244.8</ele>
        <time>2022-02-24T15:31:22Z</time>
      </trkpt>
      <trkpt lat="46.18793" lon="5.23242">
        <ele>244.8</ele>
        <time>2022-02-24T15:31:23Z</time>
      </trkpt>
      <trkpt lat="46.18799" lon="5.23239">
        <ele>244.4</ele>
        <time>2022-02-24T15:31:24Z</time>
      </trkpt>
      <trkpt lat="46.18806" lon="5.23235">
        <ele>244.4</ele>
        <time>2022-02-24T15:31:25Z</time>
      </trkpt>
      <trkpt lat="46.18812" lon="5.23232">
        <ele>244.4</ele>
        <time>2022-02-24T15:31:26Z</time>
      </trkpt>
      <trkpt lat="46.18819" lon="5.23229">
        <ele>244.4</ele>
        <time>2022-02-24T15:31:27Z</time>
      </trkpt>
      <trkpt lat="46.18825" lon="5.23226">
        <ele>244.2</ele>
        <time>2022-02-24T15:31:28Z</time>
      </trkpt>
      <trkpt lat="46.18831" lon="5.23224">
        <ele>244.2</ele>
        <time>2022-02-24T15:31:29Z</time>
      </trkpt>
      <trkpt lat="46.18837" lon="5.23223">
        <ele>244.2</ele>
        <time>2022-02-24T15:31:30Z</time>
      </trkpt>
      <trkpt lat="46.18844" lon="5.23223">
        <ele>244.2</ele>
        <time>2022-02-24T15:31:31Z</time>
      </trkpt>
      <trkpt lat="46.1885" lon="5.23224">
        <ele>244.2</ele>
        <time>2022-02-24T15:31:32Z</time>
      </trkpt>
      <trkpt lat="46.18856" lon="5.23224">
        <ele>244.2</ele>
        <time>2022-02-24T15:31:33Z</time>
      </trkpt>
      <trkpt lat="46.18863" lon="5.23222">
        <ele>244</ele>
        <time>2022-02-24T15:31:34Z</time>
      </trkpt>
      <trkpt lat="46.18868" lon="5.23219">
        <ele>244</ele>
        <time>2022-02-24T15:31:35Z</time>
      </trkpt>
      <trkpt lat="46.18873" lon="5.23215">
        <ele>244</ele>
        <time>2022-02-24T15:31:36Z</time>
      </trkpt>
      <trkpt lat="46.18879" lon="5.23211">
        <ele>244</ele>
        <time>2022-02-24T15:31:37Z</time>
      </trkpt>
      <trkpt lat="46.18884" lon="5.2321">
        <ele>244</ele>
        <time>2022-02-24T15:31:38Z</time>
      </trkpt>
      <trkpt lat="46.1889" lon="5.2321">
        <ele>244</ele>
        <time>2022-02-24T15:31:39Z</time>
      </trkpt>
      <trkpt lat="46.18896" lon="5.23212">
        <ele>244</ele>
        <time>2022-02-24T15:31:40Z</time>
      </trkpt>
      <trkpt lat="46.18902" lon="5.23215">
        <ele>244</ele>
        <time>2022-02-24T15:31:41Z</time>
      </trkpt>
      <trkpt lat="46.18908" lon="5.23219">
        <ele>244</ele>
        <time>2022-02-24T15:31:42Z</time>
      </trkpt>
      <trkpt lat="46.18914" lon="5.23223">
        <ele>243.8</ele>
        <time>2022-02-24T15:31:43Z</time>
      </trkpt>
      <trkpt lat="46.1892" lon="5.23227">
        <ele>243.8</ele>
        <time>2022-02-24T15:31:44Z</time>
      </trkpt>
      <trkpt lat="46.18926" lon="5.23231">
        <ele>243.8</ele>
        <time>2022-02-24T15:31:45Z</time>
      </trkpt>
      <trkpt lat="46.18931" lon="5.23235">
        <ele>243.8</ele>
        <time>2022-02-24T15:31:46Z</time>
      </trkpt>
      <trkpt lat="46.18937" lon="5.23239">
        <ele>243.8</ele>
        <time>2022-02-24T15:31:47Z</time>
      </trkpt>
      <trkpt lat="46.18943" lon="5.23244">
        <ele>243.8</ele>
        <time>2022-02-24T15:31:48Z</time>
      </trkpt>
      <trkpt lat="46.18948" lon="5.23249">
        <ele>243.8</ele>
        <time>2022-02-24T15:31:49Z</time>
      </trkpt>
      <trkpt lat="46.18954" lon="5.23253">
        <ele>243.8</ele>
        <time>2022-02-24T15:31:50Z</time>
      </trkpt>
      <trkpt lat="46.18959" lon="5.23258">
        <ele>243.8</ele>
        <time>2022-02-24T15:31:51Z</time>
      </trkpt>
      <trkpt lat="46.18965" lon="5.23262">
        <ele>243.6</ele>
        <time>2022-02-24T15:31:52Z</time>
      </trkpt>
      <trkpt lat="46.18971" lon="5.23266">
        <ele>243.6</ele>
        <time>2022-02-24T15:31:53Z</time>
      </trkpt>
      <trkpt lat="46.18977" lon="5.2327">
        <ele>243.6</ele>
        <time>2022-02-24T15:31:54Z</time>
      </trkpt>
      <trkpt lat="46.18982" lon="5.23274">
        <ele>243.6</ele>
        <time>2022-02-24T15:31:55Z</time>
      </trkpt>
      <trkpt lat="46.18988" lon="5.23279">
        <ele>243.6</ele>
        <time>2022-02-24T15:31:56Z</time>
      </trkpt>
      <trkpt lat="46.18993" lon="5.23283">
        <ele>243.4</ele>
        <time>2022-02-24T15:31:57Z</time>
      </trkpt>
      <trkpt lat="46.18997" lon="5.23289">
        <ele>243.4</ele>
        <time>2022-02-24T15:31:58Z</time>
      </trkpt>
      <trkpt lat="46.19" lon="5.23296">
        <ele>243.4</ele>
        <time>2022-02-24T15:31:59Z</time>
      </trkpt>
      <trkpt lat="46.19003" lon="5.23303">
        <ele>243.4</ele>
        <time>2022-02-24T15:32:00Z</time>
      </trkpt>
      <trkpt lat="46.19007" lon="5.2331">
        <ele>243.4</ele>
        <time>2022-02-24T15:32:01Z</time>
      </trkpt>
      <trkpt lat="46.19011" lon="5.23314">
        <ele>243.4</ele>
        <time>2022-02-24T15:32:02Z</time>
      </trkpt>
      <trkpt lat="46.19015" lon="5.23316">
        <ele>243.4</ele>
        <time>2022-02-24T15:32:03Z</time>
      </trkpt>
      <trkpt lat="46.1902" lon="5.23314">
        <ele>243.4</ele>
        <time>2022-02-24T15:32:04Z</time>
      </trkpt>
      <trkpt lat="46.19025" lon="5.23312">
        <ele>243.4</ele>
        <time>2022-02-24T15:32:05Z</time>
      </trkpt>
      <trkpt lat="46.19031" lon="5.2331">
        <ele>243.4</ele>
        <time>2022-02-24T15:32:06Z</time>
      </trkpt>
      <trkpt lat="46.19037" lon="5.23312">
        <ele>243.4</ele>
        <time>2022-02-24T15:32:07Z</time>
      </trkpt>
      <trkpt lat="46.19042" lon="5.23314">
        <ele>243.4</ele>
        <time>2022-02-24T15:32:08Z</time>
      </trkpt>
      <trkpt lat="46.19048" lon="5.23317">
        <ele>243.6</ele>
        <time>2022-02-24T15:32:09Z</time>
      </trkpt>
      <trkpt lat="46.19055" lon="5.23319">
        <ele>243.6</ele>
        <time>2022-02-24T15:32:10Z</time>
      </trkpt>
      <trkpt lat="46.19061" lon="5.2332">
        <ele>243.6</ele>
        <time>2022-02-24T15:32:11Z</time>
      </trkpt>
      <trkpt lat="46.19067" lon="5.23321">
        <ele>243.6</ele>
        <time>2022-02-24T15:32:12Z</time>
      </trkpt>
      <trkpt lat="46.19074" lon="5.23321">
        <ele>243.6</ele>
        <time>2022-02-24T15:32:13Z</time>
      </trkpt>
      <trkpt lat="46.19081" lon="5.23321">
        <ele>243.6</ele>
        <time>2022-02-24T15:32:14Z</time>
      </trkpt>
      <trkpt lat="46.19088" lon="5.2332">
        <ele>243.6</ele>
        <time>2022-02-24T15:32:15Z</time>
      </trkpt>
      <trkpt lat="46.19094" lon="5.23317">
        <ele>243.4</ele>
        <time>2022-02-24T15:32:16Z</time>
      </trkpt>
      <trkpt lat="46.19101" lon="5.23314">
        <ele>243.4</ele>
        <time>2022-02-24T15:32:17Z</time>
      </trkpt>
      <trkpt lat="46.19107" lon="5.2331">
        <ele>243.4</ele>
        <time>2022-02-24T15:32:18Z</time>
      </trkpt>
      <trkpt lat="46.19113" lon="5.23305">
        <ele>243.4</ele>
        <time>2022-02-24T15:32:19Z</time>
      </trkpt>
      <trkpt lat="46.19113" lon="5.23305">
        <ele>243.2</ele>
        <time>2022-02-24T15:32:20Z</time>
      </trkpt>
      <trkpt lat="46.19119" lon="5.233">
        <ele>243.2</ele>
        <time>2022-02-24T15:32:21Z</time>
      </trkpt>
      <trkpt lat="46.19125" lon="5.23294">
        <ele>243.2</ele>
        <time>2022-02-24T15:32:22Z</time>
      </trkpt>
      <trkpt lat="46.19131" lon="5.23288">
        <ele>242.8</ele>
        <time>2022-02-24T15:32:23Z</time>
      </trkpt>
      <trkpt lat="46.19136" lon="5.23282">
        <ele>242.8</ele>
        <time>2022-02-24T15:32:24Z</time>
      </trkpt>
      <trkpt lat="46.19142" lon="5.23276">
        <ele>242.8</ele>
        <time>2022-02-24T15:32:25Z</time>
      </trkpt>
      <trkpt lat="46.19147" lon="5.2327">
        <ele>242.6</ele>
        <time>2022-02-24T15:32:26Z</time>
      </trkpt>
      <trkpt lat="46.19152" lon="5.23265">
        <ele>242.6</ele>
        <time>2022-02-24T15:32:27Z</time>
      </trkpt>
      <trkpt lat="46.19157" lon="5.23259">
        <ele>242.6</ele>
        <time>2022-02-24T15:32:28Z</time>
      </trkpt>
      <trkpt lat="46.19163" lon="5.23254">
        <ele>242.6</ele>
        <time>2022-02-24T15:32:29Z</time>
      </trkpt>
      <trkpt lat="46.19167" lon="5.23249">
        <ele>242.6</ele>
        <time>2022-02-24T15:32:30Z</time>
      </trkpt>
      <trkpt lat="46.19172" lon="5.23244">
        <ele>242.6</ele>
        <time>2022-02-24T15:32:31Z</time>
      </trkpt>
      <trkpt lat="46.19176" lon="5.2324">
        <ele>242.6</ele>
        <time>2022-02-24T15:32:32Z</time>
      </trkpt>
      <trkpt lat="46.19179" lon="5.23237">
        <ele>242.6</ele>
        <time>2022-02-24T15:32:33Z</time>
      </trkpt>
      <trkpt lat="46.19182" lon="5.23235">
        <ele>242.4</ele>
        <time>2022-02-24T15:32:34Z</time>
      </trkpt>
      <trkpt lat="46.19185" lon="5.23232">
        <ele>242.4</ele>
        <time>2022-02-24T15:32:35Z</time>
      </trkpt>
      <trkpt lat="46.19187" lon="5.2323">
        <ele>242.4</ele>
        <time>2022-02-24T15:32:36Z</time>
      </trkpt>
      <trkpt lat="46.1919" lon="5.23227">
        <ele>242.4</ele>
        <time>2022-02-24T15:32:37Z</time>
      </trkpt>
      <trkpt lat="46.19192" lon="5.23224">
        <ele>242.2</ele>
        <time>2022-02-24T15:32:38Z</time>
      </trkpt>
      <trkpt lat="46.19195" lon="5.2322">
        <ele>242.2</ele>
        <time>2022-02-24T15:32:39Z</time>
      </trkpt>
      <trkpt lat="46.19198" lon="5.23215">
        <ele>242.2</ele>
        <time>2022-02-24T15:32:40Z</time>
      </trkpt>
      <trkpt lat="46.19202" lon="5.23211">
        <ele>242.2</ele>
        <time>2022-02-24T15:32:41Z</time>
      </trkpt>
      <trkpt lat="46.19205" lon="5.23206">
        <ele>242.2</ele>
        <time>2022-02-24T15:32:42Z</time>
      </trkpt>
      <trkpt lat="46.19209" lon="5.23201">
        <ele>241.8</ele>
        <time>2022-02-24T15:32:43Z</time>
      </trkpt>
      <trkpt lat="46.19213" lon="5.23196">
        <ele>241.8</ele>
        <time>2022-02-24T15:32:44Z</time>
      </trkpt>
      <trkpt lat="46.19217" lon="5.23191">
        <ele>241.8</ele>
        <time>2022-02-24T15:32:45Z</time>
      </trkpt>
      <trkpt lat="46.19222" lon="5.23185">
        <ele>241.8</ele>
        <time>2022-02-24T15:32:46Z</time>
      </trkpt>
      <trkpt lat="46.19226" lon="5.23179">
        <ele>241.6</ele>
        <time>2022-02-24T15:32:47Z</time>
      </trkpt>
      <trkpt lat="46.19231" lon="5.23174">
        <ele>241.6</ele>
        <time>2022-02-24T15:32:48Z</time>
      </trkpt>
      <trkpt lat="46.19235" lon="5.23168">
        <ele>241.6</ele>
        <time>2022-02-24T15:32:49Z</time>
      </trkpt>
      <trkpt lat="46.1924" lon="5.23161">
        <ele>241.2</ele>
        <time>2022-02-24T15:32:50Z</time>
      </trkpt>
      <trkpt lat="46.19245" lon="5.23154">
        <ele>241.2</ele>
        <time>2022-02-24T15:32:51Z</time>
      </trkpt>
      <trkpt lat="46.19251" lon="5.23148">
        <ele>241</ele>
        <time>2022-02-24T15:32:52Z</time>
      </trkpt>
      <trkpt lat="46.19256" lon="5.23142">
        <ele>241</ele>
        <time>2022-02-24T15:32:53Z</time>
      </trkpt>
      <trkpt lat="46.19262" lon="5.23136">
        <ele>241</ele>
        <time>2022-02-24T15:32:54Z</time>
      </trkpt>
      <trkpt lat="46.19267" lon="5.23131">
        <ele>241</ele>
        <time>2022-02-24T15:32:55Z</time>
      </trkpt>
      <trkpt lat="46.19273" lon="5.23125">
        <ele>240.8</ele>
        <time>2022-02-24T15:32:56Z</time>
      </trkpt>
      <trkpt lat="46.19279" lon="5.23119">
        <ele>240.8</ele>
        <time>2022-02-24T15:32:57Z</time>
      </trkpt>
      <trkpt lat="46.19285" lon="5.23113">
        <ele>240.6</ele>
        <time>2022-02-24T15:32:58Z</time>
      </trkpt>
      <trkpt lat="46.19291" lon="5.23107">
        <ele>240.6</ele>
        <time>2022-02-24T15:32:59Z</time>
      </trkpt>
      <trkpt lat="46.19298" lon="5.23102">
        <ele>240.6</ele>
        <time>2022-02-24T15:33:00Z</time>
      </trkpt>
      <trkpt lat="46.19304" lon="5.23096">
        <ele>240.6</ele>
        <time>2022-02-24T15:33:01Z</time>
      </trkpt>
      <trkpt lat="46.1931" lon="5.2309">
        <ele>240.6</ele>
        <time>2022-02-24T15:33:02Z</time>
      </trkpt>
      <trkpt lat="46.19317" lon="5.23085">
        <ele>240.6</ele>
        <time>2022-02-24T15:33:03Z</time>
      </trkpt>
      <trkpt lat="46.19323" lon="5.23079">
        <ele>240.6</ele>
        <time>2022-02-24T15:33:04Z</time>
      </trkpt>
      <trkpt lat="46.1933" lon="5.23074">
        <ele>240.4</ele>
        <time>2022-02-24T15:33:05Z</time>
      </trkpt>
      <trkpt lat="46.19336" lon="5.2307">
        <ele>240.4</ele>
        <time>2022-02-24T15:33:06Z</time>
      </trkpt>
      <trkpt lat="46.19343" lon="5.23065">
        <ele>240</ele>
        <time>2022-02-24T15:33:07Z</time>
      </trkpt>
      <trkpt lat="46.1935" lon="5.2306">
        <ele>240</ele>
        <time>2022-02-24T15:33:08Z</time>
      </trkpt>
      <trkpt lat="46.19358" lon="5.23054">
        <ele>239.6</ele>
        <time>2022-02-24T15:33:09Z</time>
      </trkpt>
      <trkpt lat="46.19365" lon="5.23048">
        <ele>239.6</ele>
        <time>2022-02-24T15:33:10Z</time>
      </trkpt>
      <trkpt lat="46.19373" lon="5.23043">
        <ele>239.2</ele>
        <time>2022-02-24T15:33:11Z</time>
      </trkpt>
      <trkpt lat="46.1938" lon="5.23037">
        <ele>239.2</ele>
        <time>2022-02-24T15:33:12Z</time>
      </trkpt>
      <trkpt lat="46.19388" lon="5.23031">
        <ele>238.8</ele>
        <time>2022-02-24T15:33:13Z</time>
      </trkpt>
      <trkpt lat="46.19395" lon="5.23026">
        <ele>238.8</ele>
        <time>2022-02-24T15:33:14Z</time>
      </trkpt>
      <trkpt lat="46.19403" lon="5.2302">
        <ele>238.6</ele>
        <time>2022-02-24T15:33:15Z</time>
      </trkpt>
      <trkpt lat="46.1941" lon="5.23015">
        <ele>238.6</ele>
        <time>2022-02-24T15:33:16Z</time>
      </trkpt>
      <trkpt lat="46.19417" lon="5.2301">
        <ele>238.2</ele>
        <time>2022-02-24T15:33:17Z</time>
      </trkpt>
      <trkpt lat="46.19425" lon="5.23006">
        <ele>238</ele>
        <time>2022-02-24T15:33:18Z</time>
      </trkpt>
      <trkpt lat="46.19432" lon="5.23002">
        <ele>238</ele>
        <time>2022-02-24T15:33:19Z</time>
      </trkpt>
      <trkpt lat="46.1944" lon="5.22999">
        <ele>237.8</ele>
        <time>2022-02-24T15:33:20Z</time>
      </trkpt>
      <trkpt lat="46.19447" lon="5.22995">
        <ele>237.6</ele>
        <time>2022-02-24T15:33:21Z</time>
      </trkpt>
      <trkpt lat="46.19455" lon="5.22992">
        <ele>237.6</ele>
        <time>2022-02-24T15:33:22Z</time>
      </trkpt>
      <trkpt lat="46.19463" lon="5.22989">
        <ele>237.2</ele>
        <time>2022-02-24T15:33:23Z</time>
      </trkpt>
      <trkpt lat="46.19471" lon="5.22985">
        <ele>237</ele>
        <time>2022-02-24T15:33:24Z</time>
      </trkpt>
      <trkpt lat="46.19479" lon="5.22982">
        <ele>237</ele>
        <time>2022-02-24T15:33:25Z</time>
      </trkpt>
      <trkpt lat="46.19486" lon="5.2298">
        <ele>236.6</ele>
        <time>2022-02-24T15:33:26Z</time>
      </trkpt>
      <trkpt lat="46.19493" lon="5.22978">
        <ele>236.4</ele>
        <time>2022-02-24T15:33:27Z</time>
      </trkpt>
      <trkpt lat="46.19499" lon="5.22976">
        <ele>236.4</ele>
        <time>2022-02-24T15:33:28Z</time>
      </trkpt>
      <trkpt lat="46.19504" lon="5.22974">
        <ele>236</ele>
        <time>2022-02-24T15:33:29Z</time>
      </trkpt>
      <trkpt lat="46.19507" lon="5.22973">
        <ele>236</ele>
        <time>2022-02-24T15:33:30Z</time>
      </trkpt>
      <trkpt lat="46.1951" lon="5.22973">
        <ele>235.8</ele>
        <time>2022-02-24T15:33:31Z</time>
      </trkpt>
      <trkpt lat="46.19512" lon="5.22975">
        <ele>235.8</ele>
        <time>2022-02-24T15:33:32Z</time>
      </trkpt>
      <trkpt lat="46.19514" lon="5.22977">
        <ele>235.8</ele>
        <time>2022-02-24T15:33:33Z</time>
      </trkpt>
      <trkpt lat="46.19517" lon="5.22979">
        <ele>235.8</ele>
        <time>2022-02-24T15:33:34Z</time>
      </trkpt>
      <trkpt lat="46.1952" lon="5.22981">
        <ele>235.6</ele>
        <time>2022-02-24T15:33:35Z</time>
      </trkpt>
      <trkpt lat="46.19524" lon="5.22981">
        <ele>235.6</ele>
        <time>2022-02-24T15:33:36Z</time>
      </trkpt>
      <trkpt lat="46.19528" lon="5.22979">
        <ele>235.6</ele>
        <time>2022-02-24T15:33:37Z</time>
      </trkpt>
      <trkpt lat="46.19531" lon="5.22975">
        <ele>235.6</ele>
        <time>2022-02-24T15:33:38Z</time>
      </trkpt>
      <trkpt lat="46.19535" lon="5.2297">
        <ele>235.2</ele>
        <time>2022-02-24T15:33:39Z</time>
      </trkpt>
      <trkpt lat="46.1954" lon="5.22965">
        <ele>235.2</ele>
        <time>2022-02-24T15:33:40Z</time>
      </trkpt>
      <trkpt lat="46.19545" lon="5.2296">
        <ele>234.8</ele>
        <time>2022-02-24T15:33:41Z</time>
      </trkpt>
      <trkpt lat="46.19551" lon="5.22956">
        <ele>234.8</ele>
        <time>2022-02-24T15:33:42Z</time>
      </trkpt>
      <trkpt lat="46.19557" lon="5.22952">
        <ele>234.6</ele>
        <time>2022-02-24T15:33:43Z</time>
      </trkpt>
      <trkpt lat="46.19564" lon="5.22949">
        <ele>234.6</ele>
        <time>2022-02-24T15:33:44Z</time>
      </trkpt>
      <trkpt lat="46.1957" lon="5.22946">
        <ele>234.4</ele>
        <time>2022-02-24T15:33:45Z</time>
      </trkpt>
      <trkpt lat="46.19577" lon="5.22943">
        <ele>234.4</ele>
        <time>2022-02-24T15:33:46Z</time>
      </trkpt>
      <trkpt lat="46.19584" lon="5.2294">
        <ele>234.4</ele>
        <time>2022-02-24T15:33:47Z</time>
      </trkpt>
      <trkpt lat="46.1959" lon="5.22936">
        <ele>234.4</ele>
        <time>2022-02-24T15:33:48Z</time>
      </trkpt>
      <trkpt lat="46.19597" lon="5.22932">
        <ele>234</ele>
        <time>2022-02-24T15:33:49Z</time>
      </trkpt>
      <trkpt lat="46.19604" lon="5.22929">
        <ele>234</ele>
        <time>2022-02-24T15:33:50Z</time>
      </trkpt>
      <trkpt lat="46.19611" lon="5.22926">
        <ele>234</ele>
        <time>2022-02-24T15:33:51Z</time>
      </trkpt>
      <trkpt lat="46.19617" lon="5.22923">
        <ele>234</ele>
        <time>2022-02-24T15:33:52Z</time>
      </trkpt>
      <trkpt lat="46.19624" lon="5.2292">
        <ele>233.8</ele>
        <time>2022-02-24T15:33:53Z</time>
      </trkpt>
      <trkpt lat="46.19631" lon="5.22918">
        <ele>233.8</ele>
        <time>2022-02-24T15:33:54Z</time>
      </trkpt>
      <trkpt lat="46.19638" lon="5.22915">
        <ele>233.4</ele>
        <time>2022-02-24T15:33:55Z</time>
      </trkpt>
      <trkpt lat="46.19644" lon="5.22912">
        <ele>233.4</ele>
        <time>2022-02-24T15:33:56Z</time>
      </trkpt>
      <trkpt lat="46.19651" lon="5.22909">
        <ele>233.2</ele>
        <time>2022-02-24T15:33:57Z</time>
      </trkpt>
      <trkpt lat="46.19658" lon="5.22907">
        <ele>233.2</ele>
        <time>2022-02-24T15:33:58Z</time>
      </trkpt>
      <trkpt lat="46.19666" lon="5.22906">
        <ele>232.8</ele>
        <time>2022-02-24T15:33:59Z</time>
      </trkpt>
      <trkpt lat="46.19673" lon="5.22906">
        <ele>232.8</ele>
        <time>2022-02-24T15:34:00Z</time>
      </trkpt>
      <trkpt lat="46.1968" lon="5.22906">
        <ele>232.6</ele>
        <time>2022-02-24T15:34:01Z</time>
      </trkpt>
      <trkpt lat="46.19687" lon="5.22906">
        <ele>232.6</ele>
        <time>2022-02-24T15:34:02Z</time>
      </trkpt>
      <trkpt lat="46.19694" lon="5.22906">
        <ele>232.6</ele>
        <time>2022-02-24T15:34:03Z</time>
      </trkpt>
      <trkpt lat="46.19701" lon="5.22906">
        <ele>232.6</ele>
        <time>2022-02-24T15:34:04Z</time>
      </trkpt>
      <trkpt lat="46.19708" lon="5.22907">
        <ele>232.6</ele>
        <time>2022-02-24T15:34:05Z</time>
      </trkpt>
      <trkpt lat="46.19715" lon="5.22907">
        <ele>232.4</ele>
        <time>2022-02-24T15:34:06Z</time>
      </trkpt>
      <trkpt lat="46.19721" lon="5.22908">
        <ele>232.4</ele>
        <time>2022-02-24T15:34:07Z</time>
      </trkpt>
      <trkpt lat="46.19728" lon="5.22908">
        <ele>232.2</ele>
        <time>2022-02-24T15:34:08Z</time>
      </trkpt>
      <trkpt lat="46.19735" lon="5.22908">
        <ele>232.2</ele>
        <time>2022-02-24T15:34:09Z</time>
      </trkpt>
      <trkpt lat="46.19742" lon="5.22909">
        <ele>232.2</ele>
        <time>2022-02-24T15:34:10Z</time>
      </trkpt>
      <trkpt lat="46.19749" lon="5.2291">
        <ele>232.2</ele>
        <time>2022-02-24T15:34:11Z</time>
      </trkpt>
      <trkpt lat="46.19755" lon="5.22911">
        <ele>232.2</ele>
        <time>2022-02-24T15:34:12Z</time>
      </trkpt>
      <trkpt lat="46.19762" lon="5.22912">
        <ele>232.2</ele>
        <time>2022-02-24T15:34:13Z</time>
      </trkpt>
      <trkpt lat="46.19768" lon="5.22913">
        <ele>232.2</ele>
        <time>2022-02-24T15:34:14Z</time>
      </trkpt>
      <trkpt lat="46.19775" lon="5.22914">
        <ele>232.2</ele>
        <time>2022-02-24T15:34:15Z</time>
      </trkpt>
      <trkpt lat="46.19788" lon="5.22915">
        <ele>232.2</ele>
        <time>2022-02-24T15:34:16Z</time>
      </trkpt>
      <trkpt lat="46.19795" lon="5.22916">
        <ele>232.2</ele>
        <time>2022-02-24T15:34:17Z</time>
      </trkpt>
      <trkpt lat="46.19801" lon="5.22916">
        <ele>232.2</ele>
        <time>2022-02-24T15:34:18Z</time>
      </trkpt>
      <trkpt lat="46.19807" lon="5.22917">
        <ele>232.2</ele>
        <time>2022-02-24T15:34:19Z</time>
      </trkpt>
      <trkpt lat="46.19813" lon="5.22916">
        <ele>232.2</ele>
        <time>2022-02-24T15:34:20Z</time>
      </trkpt>
      <trkpt lat="46.19818" lon="5.22914">
        <ele>232.2</ele>
        <time>2022-02-24T15:34:21Z</time>
      </trkpt>
      <trkpt lat="46.19824" lon="5.22911">
        <ele>232.2</ele>
        <time>2022-02-24T15:34:22Z</time>
      </trkpt>
      <trkpt lat="46.19829" lon="5.22908">
        <ele>232.2</ele>
        <time>2022-02-24T15:34:23Z</time>
      </trkpt>
      <trkpt lat="46.19834" lon="5.22904">
        <ele>232.2</ele>
        <time>2022-02-24T15:34:24Z</time>
      </trkpt>
      <trkpt lat="46.19839" lon="5.22901">
        <ele>232.2</ele>
        <time>2022-02-24T15:34:25Z</time>
      </trkpt>
      <trkpt lat="46.19844" lon="5.22897">
        <ele>232.2</ele>
        <time>2022-02-24T15:34:26Z</time>
      </trkpt>
      <trkpt lat="46.19849" lon="5.22894">
        <ele>232.2</ele>
        <time>2022-02-24T15:34:27Z</time>
      </trkpt>
      <trkpt lat="46.19854" lon="5.2289">
        <ele>232.2</ele>
        <time>2022-02-24T15:34:28Z</time>
      </trkpt>
      <trkpt lat="46.19859" lon="5.22887">
        <ele>232.2</ele>
        <time>2022-02-24T15:34:29Z</time>
      </trkpt>
      <trkpt lat="46.19864" lon="5.22883">
        <ele>232.2</ele>
        <time>2022-02-24T15:34:30Z</time>
      </trkpt>
      <trkpt lat="46.19869" lon="5.22881">
        <ele>232.2</ele>
        <time>2022-02-24T15:34:31Z</time>
      </trkpt>
      <trkpt lat="46.19875" lon="5.22878">
        <ele>232.2</ele>
        <time>2022-02-24T15:34:32Z</time>
      </trkpt>
      <trkpt lat="46.1988" lon="5.22876">
        <ele>232.4</ele>
        <time>2022-02-24T15:34:33Z</time>
      </trkpt>
      <trkpt lat="46.19885" lon="5.22874">
        <ele>232.4</ele>
        <time>2022-02-24T15:34:34Z</time>
      </trkpt>
      <trkpt lat="46.19889" lon="5.22872">
        <ele>232.6</ele>
        <time>2022-02-24T15:34:35Z</time>
      </trkpt>
      <trkpt lat="46.19893" lon="5.22871">
        <ele>232.6</ele>
        <time>2022-02-24T15:34:36Z</time>
      </trkpt>
      <trkpt lat="46.19896" lon="5.2287">
        <ele>232.8</ele>
        <time>2022-02-24T15:34:37Z</time>
      </trkpt>
      <trkpt lat="46.19899" lon="5.2287">
        <ele>232.8</ele>
        <time>2022-02-24T15:34:38Z</time>
      </trkpt>
      <trkpt lat="46.19901" lon="5.22869">
        <ele>232.8</ele>
        <time>2022-02-24T15:34:39Z</time>
      </trkpt>
      <trkpt lat="46.19904" lon="5.22867">
        <ele>233</ele>
        <time>2022-02-24T15:34:40Z</time>
      </trkpt>
      <trkpt lat="46.19907" lon="5.22865">
        <ele>233</ele>
        <time>2022-02-24T15:34:41Z</time>
      </trkpt>
      <trkpt lat="46.19911" lon="5.22863">
        <ele>233.4</ele>
        <time>2022-02-24T15:34:42Z</time>
      </trkpt>
      <trkpt lat="46.19914" lon="5.22861">
        <ele>233.4</ele>
        <time>2022-02-24T15:34:43Z</time>
      </trkpt>
      <trkpt lat="46.19918" lon="5.2286">
        <ele>233.4</ele>
        <time>2022-02-24T15:34:44Z</time>
      </trkpt>
      <trkpt lat="46.19921" lon="5.22859">
        <ele>233.6</ele>
        <time>2022-02-24T15:34:45Z</time>
      </trkpt>
      <trkpt lat="46.19925" lon="5.22858">
        <ele>233.6</ele>
        <time>2022-02-24T15:34:46Z</time>
      </trkpt>
      <trkpt lat="46.19929" lon="5.22857">
        <ele>233.6</ele>
        <time>2022-02-24T15:34:47Z</time>
      </trkpt>
      <trkpt lat="46.19933" lon="5.22854">
        <ele>234</ele>
        <time>2022-02-24T15:34:48Z</time>
      </trkpt>
      <trkpt lat="46.19937" lon="5.22852">
        <ele>234</ele>
        <time>2022-02-24T15:34:49Z</time>
      </trkpt>
      <trkpt lat="46.19941" lon="5.22849">
        <ele>234</ele>
        <time>2022-02-24T15:34:50Z</time>
      </trkpt>
      <trkpt lat="46.19946" lon="5.22847">
        <ele>234.2</ele>
        <time>2022-02-24T15:34:51Z</time>
      </trkpt>
      <trkpt lat="46.19951" lon="5.22844">
        <ele>234.2</ele>
        <time>2022-02-24T15:34:52Z</time>
      </trkpt>
      <trkpt lat="46.19956" lon="5.22841">
        <ele>234.2</ele>
        <time>2022-02-24T15:34:53Z</time>
      </trkpt>
      <trkpt lat="46.19961" lon="5.22838">
        <ele>234.2</ele>
        <time>2022-02-24T15:34:54Z</time>
      </trkpt>
      <trkpt lat="46.19966" lon="5.22835">
        <ele>234.2</ele>
        <time>2022-02-24T15:34:55Z</time>
      </trkpt>
      <trkpt lat="46.19971" lon="5.22832">
        <ele>234.2</ele>
        <time>2022-02-24T15:34:56Z</time>
      </trkpt>
      <trkpt lat="46.19976" lon="5.22829">
        <ele>234.4</ele>
        <time>2022-02-24T15:34:57Z</time>
      </trkpt>
      <trkpt lat="46.19981" lon="5.22825">
        <ele>234.4</ele>
        <time>2022-02-24T15:34:58Z</time>
      </trkpt>
      <trkpt lat="46.19985" lon="5.22822">
        <ele>234.4</ele>
        <time>2022-02-24T15:34:59Z</time>
      </trkpt>
      <trkpt lat="46.1999" lon="5.22819">
        <ele>234.4</ele>
        <time>2022-02-24T15:35:00Z</time>
      </trkpt>
      <trkpt lat="46.19994" lon="5.22814">
        <ele>234.4</ele>
        <time>2022-02-24T15:35:01Z</time>
      </trkpt>
      <trkpt lat="46.19999" lon="5.2281">
        <ele>234.4</ele>
        <time>2022-02-24T15:35:02Z</time>
      </trkpt>
      <trkpt lat="46.20003" lon="5.22806">
        <ele>234.4</ele>
        <time>2022-02-24T15:35:03Z</time>
      </trkpt>
      <trkpt lat="46.20008" lon="5.22802">
        <ele>234.6</ele>
        <time>2022-02-24T15:35:04Z</time>
      </trkpt>
      <trkpt lat="46.20012" lon="5.22798">
        <ele>234.6</ele>
        <time>2022-02-24T15:35:05Z</time>
      </trkpt>
      <trkpt lat="46.20017" lon="5.22794">
        <ele>234.6</ele>
        <time>2022-02-24T15:35:06Z</time>
      </trkpt>
      <trkpt lat="46.20022" lon="5.2279">
        <ele>234.6</ele>
        <time>2022-02-24T15:35:07Z</time>
      </trkpt>
      <trkpt lat="46.20027" lon="5.22786">
        <ele>234.6</ele>
        <time>2022-02-24T15:35:08Z</time>
      </trkpt>
      <trkpt lat="46.20031" lon="5.22781">
        <ele>234.6</ele>
        <time>2022-02-24T15:35:09Z</time>
      </trkpt>
      <trkpt lat="46.20035" lon="5.22777">
        <ele>234.6</ele>
        <time>2022-02-24T15:35:10Z</time>
      </trkpt>
      <trkpt lat="46.20039" lon="5.22773">
        <ele>234.6</ele>
        <time>2022-02-24T15:35:11Z</time>
      </trkpt>
      <trkpt lat="46.20043" lon="5.2277">
        <ele>234.6</ele>
        <time>2022-02-24T15:35:12Z</time>
      </trkpt>
      <trkpt lat="46.20045" lon="5.22766">
        <ele>234.6</ele>
        <time>2022-02-24T15:35:13Z</time>
      </trkpt>
      <trkpt lat="46.20048" lon="5.22764">
        <ele>234.6</ele>
        <time>2022-02-24T15:35:14Z</time>
      </trkpt>
      <trkpt lat="46.2005" lon="5.22761">
        <ele>234.6</ele>
        <time>2022-02-24T15:35:15Z</time>
      </trkpt>
      <trkpt lat="46.20052" lon="5.22759">
        <ele>234.6</ele>
        <time>2022-02-24T15:35:16Z</time>
      </trkpt>
      <trkpt lat="46.20053" lon="5.22758">
        <ele>234.6</ele>
        <time>2022-02-24T15:35:17Z</time>
      </trkpt>
      <trkpt lat="46.20055" lon="5.22757">
        <ele>234.6</ele>
        <time>2022-02-24T15:35:18Z</time>
      </trkpt>
      <trkpt lat="46.20055" lon="5.22756">
        <ele>234.6</ele>
        <time>2022-02-24T15:35:19Z</time>
      </trkpt>
      <trkpt lat="46.20056" lon="5.22755">
        <ele>234.6</ele>
        <time>2022-02-24T15:35:20Z</time>
      </trkpt>
      <trkpt lat="46.20057" lon="5.22755">
        <ele>234.6</ele>
        <time>2022-02-24T15:35:21Z</time>
      </trkpt>
      <trkpt lat="46.20061" lon="5.22765">
        <ele>234.4</ele>
        <time>2022-02-24T15:35:55Z</time>
      </trkpt>
      <trkpt lat="46.20062" lon="5.22769">
        <ele>234.8</ele>
        <time>2022-02-24T15:35:56Z</time>
      </trkpt>
      <trkpt lat="46.20064" lon="5.22772">
        <ele>234.8</ele>
        <time>2022-02-24T15:35:57Z</time>
      </trkpt>
      <trkpt lat="46.20066" lon="5.22776">
        <ele>234.8</ele>
        <time>2022-02-24T15:35:58Z</time>
      </trkpt>
      <trkpt lat="46.20067" lon="5.22781">
        <ele>234.8</ele>
        <time>2022-02-24T15:35:59Z</time>
      </trkpt>
      <trkpt lat="46.20069" lon="5.22785">
        <ele>234.8</ele>
        <time>2022-02-24T15:36:00Z</time>
      </trkpt>
      <trkpt lat="46.2007" lon="5.22789">
        <ele>234.8</ele>
        <time>2022-02-24T15:36:01Z</time>
      </trkpt>
      <trkpt lat="46.20072" lon="5.22794">
        <ele>234.8</ele>
        <time>2022-02-24T15:36:02Z</time>
      </trkpt>
      <trkpt lat="46.20074" lon="5.22798">
        <ele>235</ele>
        <time>2022-02-24T15:36:03Z</time>
      </trkpt>
      <trkpt lat="46.20076" lon="5.22803">
        <ele>235</ele>
        <time>2022-02-24T15:36:04Z</time>
      </trkpt>
      <trkpt lat="46.20078" lon="5.22807">
        <ele>235</ele>
        <time>2022-02-24T15:36:05Z</time>
      </trkpt>
      <trkpt lat="46.2008" lon="5.22811">
        <ele>235.2</ele>
        <time>2022-02-24T15:36:06Z</time>
      </trkpt>
      <trkpt lat="46.20082" lon="5.22815">
        <ele>235.2</ele>
        <time>2022-02-24T15:36:07Z</time>
      </trkpt>
      <trkpt lat="46.20084" lon="5.22818">
        <ele>235.2</ele>
        <time>2022-02-24T15:36:08Z</time>
      </trkpt>
      <trkpt lat="46.20085" lon="5.22821">
        <ele>235.4</ele>
        <time>2022-02-24T15:36:09Z</time>
      </trkpt>
      <trkpt lat="46.20087" lon="5.22824">
        <ele>235.4</ele>
        <time>2022-02-24T15:36:10Z</time>
      </trkpt>
      <trkpt lat="46.20087" lon="5.22827">
        <ele>235.4</ele>
        <time>2022-02-24T15:36:11Z</time>
      </trkpt>
      <trkpt lat="46.20088" lon="5.22829">
        <ele>235.4</ele>
        <time>2022-02-24T15:36:12Z</time>
      </trkpt>
      <trkpt lat="46.20088" lon="5.22832">
        <ele>235.4</ele>
        <time>2022-02-24T15:36:13Z</time>
      </trkpt>
      <trkpt lat="46.20089" lon="5.22833">
        <ele>235.4</ele>
        <time>2022-02-24T15:36:14Z</time>
      </trkpt>
      <trkpt lat="46.2009" lon="5.22835">
        <ele>235.4</ele>
        <time>2022-02-24T15:36:15Z</time>
      </trkpt>
      <trkpt lat="46.20091" lon="5.22837">
        <ele>235.4</ele>
        <time>2022-02-24T15:36:16Z</time>
      </trkpt>
      <trkpt lat="46.20092" lon="5.2284">
        <ele>235.6</ele>
        <time>2022-02-24T15:36:17Z</time>
      </trkpt>
      <trkpt lat="46.20093" lon="5.22843">
        <ele>235.6</ele>
        <time>2022-02-24T15:36:18Z</time>
      </trkpt>
      <trkpt lat="46.20095" lon="5.22847">
        <ele>235.6</ele>
        <time>2022-02-24T15:36:19Z</time>
      </trkpt>
      <trkpt lat="46.20096" lon="5.2285">
        <ele>235.6</ele>
        <time>2022-02-24T15:36:20Z</time>
      </trkpt>
      <trkpt lat="46.20098" lon="5.22855">
        <ele>235.6</ele>
        <time>2022-02-24T15:36:21Z</time>
      </trkpt>
      <trkpt lat="46.201" lon="5.22859">
        <ele>235.6</ele>
        <time>2022-02-24T15:36:22Z</time>
      </trkpt>
      <trkpt lat="46.20102" lon="5.22864">
        <ele>235.6</ele>
        <time>2022-02-24T15:36:23Z</time>
      </trkpt>
      <trkpt lat="46.20104" lon="5.22869">
        <ele>236</ele>
        <time>2022-02-24T15:36:24Z</time>
      </trkpt>
      <trkpt lat="46.20106" lon="5.22875">
        <ele>236</ele>
        <time>2022-02-24T15:36:25Z</time>
      </trkpt>
      <trkpt lat="46.20108" lon="5.2288">
        <ele>236</ele>
        <time>2022-02-24T15:36:26Z</time>
      </trkpt>
      <trkpt lat="46.20111" lon="5.22887">
        <ele>236.2</ele>
        <time>2022-02-24T15:36:27Z</time>
      </trkpt>
      <trkpt lat="46.20113" lon="5.22893">
        <ele>236.2</ele>
        <time>2022-02-24T15:36:28Z</time>
      </trkpt>
      <trkpt lat="46.20115" lon="5.22899">
        <ele>236.4</ele>
        <time>2022-02-24T15:36:29Z</time>
      </trkpt>
      <trkpt lat="46.20118" lon="5.22906">
        <ele>236.4</ele>
        <time>2022-02-24T15:36:30Z</time>
      </trkpt>
      <trkpt lat="46.2012" lon="5.22913">
        <ele>236.6</ele>
        <time>2022-02-24T15:36:31Z</time>
      </trkpt>
      <trkpt lat="46.20122" lon="5.2292">
        <ele>236.6</ele>
        <time>2022-02-24T15:36:32Z</time>
      </trkpt>
      <trkpt lat="46.20125" lon="5.22927">
        <ele>236.6</ele>
        <time>2022-02-24T15:36:33Z</time>
      </trkpt>
      <trkpt lat="46.20127" lon="5.22934">
        <ele>237</ele>
        <time>2022-02-24T15:36:34Z</time>
      </trkpt>
      <trkpt lat="46.20129" lon="5.22942">
        <ele>237</ele>
        <time>2022-02-24T15:36:35Z</time>
      </trkpt>
      <trkpt lat="46.20132" lon="5.22949">
        <ele>237.2</ele>
        <time>2022-02-24T15:36:36Z</time>
      </trkpt>
      <trkpt lat="46.20134" lon="5.22956">
        <ele>237.2</ele>
        <time>2022-02-24T15:36:37Z</time>
      </trkpt>
      <trkpt lat="46.20137" lon="5.22963">
        <ele>237.2</ele>
        <time>2022-02-24T15:36:38Z</time>
      </trkpt>
      <trkpt lat="46.20139" lon="5.22969">
        <ele>237.4</ele>
        <time>2022-02-24T15:36:39Z</time>
      </trkpt>
      <trkpt lat="46.20141" lon="5.22976">
        <ele>237.4</ele>
        <time>2022-02-24T15:36:40Z</time>
      </trkpt>
      <trkpt lat="46.20144" lon="5.22983">
        <ele>237.8</ele>
        <time>2022-02-24T15:36:41Z</time>
      </trkpt>
      <trkpt lat="46.20146" lon="5.2299">
        <ele>237.8</ele>
        <time>2022-02-24T15:36:42Z</time>
      </trkpt>
      <trkpt lat="46.20148" lon="5.22997">
        <ele>238</ele>
        <time>2022-02-24T15:36:43Z</time>
      </trkpt>
      <trkpt lat="46.2015" lon="5.23003">
        <ele>238</ele>
        <time>2022-02-24T15:36:44Z</time>
      </trkpt>
      <trkpt lat="46.20153" lon="5.23009">
        <ele>238</ele>
        <time>2022-02-24T15:36:45Z</time>
      </trkpt>
      <trkpt lat="46.20155" lon="5.23016">
        <ele>238.2</ele>
        <time>2022-02-24T15:36:46Z</time>
      </trkpt>
      <trkpt lat="46.20158" lon="5.23022">
        <ele>238.2</ele>
        <time>2022-02-24T15:36:47Z</time>
      </trkpt>
      <trkpt lat="46.20161" lon="5.23028">
        <ele>238.2</ele>
        <time>2022-02-24T15:36:48Z</time>
      </trkpt>
      <trkpt lat="46.20163" lon="5.23035">
        <ele>238.2</ele>
        <time>2022-02-24T15:36:49Z</time>
      </trkpt>
      <trkpt lat="46.20165" lon="5.23042">
        <ele>238.2</ele>
        <time>2022-02-24T15:36:50Z</time>
      </trkpt>
      <trkpt lat="46.20168" lon="5.23049">
        <ele>238.2</ele>
        <time>2022-02-24T15:36:51Z</time>
      </trkpt>
      <trkpt lat="46.20171" lon="5.23057">
        <ele>238.2</ele>
        <time>2022-02-24T15:36:52Z</time>
      </trkpt>
      <trkpt lat="46.20173" lon="5.23064">
        <ele>238</ele>
        <time>2022-02-24T15:36:53Z</time>
      </trkpt>
      <trkpt lat="46.20175" lon="5.2307">
        <ele>238</ele>
        <time>2022-02-24T15:36:54Z</time>
      </trkpt>
      <trkpt lat="46.20178" lon="5.23076">
        <ele>238</ele>
        <time>2022-02-24T15:36:55Z</time>
      </trkpt>
      <trkpt lat="46.2018" lon="5.23081">
        <ele>238</ele>
        <time>2022-02-24T15:36:56Z</time>
      </trkpt>
      <trkpt lat="46.20182" lon="5.23087">
        <ele>237.8</ele>
        <time>2022-02-24T15:36:57Z</time>
      </trkpt>
      <trkpt lat="46.20184" lon="5.23094">
        <ele>237.8</ele>
        <time>2022-02-24T15:36:58Z</time>
      </trkpt>
      <trkpt lat="46.20186" lon="5.231">
        <ele>237.4</ele>
        <time>2022-02-24T15:36:59Z</time>
      </trkpt>
      <trkpt lat="46.20188" lon="5.23106">
        <ele>237.4</ele>
        <time>2022-02-24T15:37:00Z</time>
      </trkpt>
      <trkpt lat="46.2019" lon="5.23112">
        <ele>237.2</ele>
        <time>2022-02-24T15:37:01Z</time>
      </trkpt>
      <trkpt lat="46.20192" lon="5.23117">
        <ele>237.2</ele>
        <time>2022-02-24T15:37:02Z</time>
      </trkpt>
      <trkpt lat="46.20194" lon="5.23123">
        <ele>236.8</ele>
        <time>2022-02-24T15:37:03Z</time>
      </trkpt>
      <trkpt lat="46.20195" lon="5.23128">
        <ele>236.8</ele>
        <time>2022-02-24T15:37:04Z</time>
      </trkpt>
      <trkpt lat="46.20196" lon="5.23133">
        <ele>236.4</ele>
        <time>2022-02-24T15:37:05Z</time>
      </trkpt>
      <trkpt lat="46.20197" lon="5.23137">
        <ele>236.2</ele>
        <time>2022-02-24T15:37:06Z</time>
      </trkpt>
      <trkpt lat="46.20198" lon="5.2314">
        <ele>236.2</ele>
        <time>2022-02-24T15:37:07Z</time>
      </trkpt>
      <trkpt lat="46.20199" lon="5.23144">
        <ele>236</ele>
        <time>2022-02-24T15:37:08Z</time>
      </trkpt>
      <trkpt lat="46.202" lon="5.23146">
        <ele>236</ele>
        <time>2022-02-24T15:37:09Z</time>
      </trkpt>
      <trkpt lat="46.20201" lon="5.23148">
        <ele>236</ele>
        <time>2022-02-24T15:37:10Z</time>
      </trkpt>
      <trkpt lat="46.20201" lon="5.23148">
        <ele>236</ele>
        <time>2022-02-24T15:37:11Z</time>
      </trkpt>
      <trkpt lat="46.20202" lon="5.23154">
        <ele>236</ele>
        <time>2022-02-24T15:37:35Z</time>
      </trkpt>
      <trkpt lat="46.20203" lon="5.23157">
        <ele>236</ele>
        <time>2022-02-24T15:37:36Z</time>
      </trkpt>
      <trkpt lat="46.20204" lon="5.23162">
        <ele>235.6</ele>
        <time>2022-02-24T15:37:37Z</time>
      </trkpt>
      <trkpt lat="46.20205" lon="5.23167">
        <ele>235.6</ele>
        <time>2022-02-24T15:37:38Z</time>
      </trkpt>
      <trkpt lat="46.20207" lon="5.23173">
        <ele>235.4</ele>
        <time>2022-02-24T15:37:39Z</time>
      </trkpt>
      <trkpt lat="46.20209" lon="5.2318">
        <ele>235.4</ele>
        <time>2022-02-24T15:37:40Z</time>
      </trkpt>
      <trkpt lat="46.20212" lon="5.23187">
        <ele>235</ele>
        <time>2022-02-24T15:37:41Z</time>
      </trkpt>
      <trkpt lat="46.20214" lon="5.23195">
        <ele>235</ele>
        <time>2022-02-24T15:37:42Z</time>
      </trkpt>
      <trkpt lat="46.20217" lon="5.23203">
        <ele>235</ele>
        <time>2022-02-24T15:37:43Z</time>
      </trkpt>
      <trkpt lat="46.2022" lon="5.23211">
        <ele>234.8</ele>
        <time>2022-02-24T15:37:44Z</time>
      </trkpt>
      <trkpt lat="46.20223" lon="5.23219">
        <ele>234.8</ele>
        <time>2022-02-24T15:37:45Z</time>
      </trkpt>
      <trkpt lat="46.20226" lon="5.23228">
        <ele>234.4</ele>
        <time>2022-02-24T15:37:46Z</time>
      </trkpt>
      <trkpt lat="46.2023" lon="5.23236">
        <ele>234.4</ele>
        <time>2022-02-24T15:37:47Z</time>
      </trkpt>
      <trkpt lat="46.20233" lon="5.23245">
        <ele>234</ele>
        <time>2022-02-24T15:37:48Z</time>
      </trkpt>
      <trkpt lat="46.20236" lon="5.23253">
        <ele>234</ele>
        <time>2022-02-24T15:37:49Z</time>
      </trkpt>
      <trkpt lat="46.2024" lon="5.23262">
        <ele>233.8</ele>
        <time>2022-02-24T15:37:50Z</time>
      </trkpt>
      <trkpt lat="46.20244" lon="5.2327">
        <ele>233.8</ele>
        <time>2022-02-24T15:37:51Z</time>
      </trkpt>
      <trkpt lat="46.20248" lon="5.23279">
        <ele>233.8</ele>
        <time>2022-02-24T15:37:52Z</time>
      </trkpt>
      <trkpt lat="46.20253" lon="5.23289">
        <ele>233.4</ele>
        <time>2022-02-24T15:37:53Z</time>
      </trkpt>
      <trkpt lat="46.20258" lon="5.23298">
        <ele>233.2</ele>
        <time>2022-02-24T15:37:54Z</time>
      </trkpt>
      <trkpt lat="46.20263" lon="5.23307">
        <ele>233.2</ele>
        <time>2022-02-24T15:37:55Z</time>
      </trkpt>
      <trkpt lat="46.20269" lon="5.23317">
        <ele>232.8</ele>
        <time>2022-02-24T15:37:56Z</time>
      </trkpt>
      <trkpt lat="46.20276" lon="5.23326">
        <ele>232.4</ele>
        <time>2022-02-24T15:37:57Z</time>
      </trkpt>
      <trkpt lat="46.20282" lon="5.23336">
        <ele>232.2</ele>
        <time>2022-02-24T15:37:58Z</time>
      </trkpt>
      <trkpt lat="46.20291" lon="5.23347">
        <ele>232</ele>
        <time>2022-02-24T15:37:59Z</time>
      </trkpt>
      <trkpt lat="46.20299" lon="5.23358">
        <ele>231.8</ele>
        <time>2022-02-24T15:38:00Z</time>
      </trkpt>
      <trkpt lat="46.20306" lon="5.23368">
        <ele>231.6</ele>
        <time>2022-02-24T15:38:01Z</time>
      </trkpt>
      <trkpt lat="46.20313" lon="5.23376">
        <ele>231.6</ele>
        <time>2022-02-24T15:38:02Z</time>
      </trkpt>
      <trkpt lat="46.2032" lon="5.23384">
        <ele>231.2</ele>
        <time>2022-02-24T15:38:03Z</time>
      </trkpt>
      <trkpt lat="46.20327" lon="5.2339">
        <ele>231</ele>
        <time>2022-02-24T15:38:04Z</time>
      </trkpt>
      <trkpt lat="46.20334" lon="5.23397">
        <ele>231</ele>
        <time>2022-02-24T15:38:05Z</time>
      </trkpt>
      <trkpt lat="46.20341" lon="5.23402">
        <ele>230.6</ele>
        <time>2022-02-24T15:38:06Z</time>
      </trkpt>
      <trkpt lat="46.20348" lon="5.23407">
        <ele>230.6</ele>
        <time>2022-02-24T15:38:07Z</time>
      </trkpt>
      <trkpt lat="46.20355" lon="5.23411">
        <ele>230.4</ele>
        <time>2022-02-24T15:38:08Z</time>
      </trkpt>
      <trkpt lat="46.20361" lon="5.23414">
        <ele>230.4</ele>
        <time>2022-02-24T15:38:09Z</time>
      </trkpt>
      <trkpt lat="46.20368" lon="5.23417">
        <ele>230.4</ele>
        <time>2022-02-24T15:38:10Z</time>
      </trkpt>
      <trkpt lat="46.20373" lon="5.2342">
        <ele>230.4</ele>
        <time>2022-02-24T15:38:11Z</time>
      </trkpt>
      <trkpt lat="46.20379" lon="5.23422">
        <ele>230.4</ele>
        <time>2022-02-24T15:38:12Z</time>
      </trkpt>
      <trkpt lat="46.20384" lon="5.23424">
        <ele>230.4</ele>
        <time>2022-02-24T15:38:13Z</time>
      </trkpt>
      <trkpt lat="46.2039" lon="5.23424">
        <ele>230.4</ele>
        <time>2022-02-24T15:38:14Z</time>
      </trkpt>
      <trkpt lat="46.20396" lon="5.23424">
        <ele>230.4</ele>
        <time>2022-02-24T15:38:15Z</time>
      </trkpt>
      <trkpt lat="46.20402" lon="5.23425">
        <ele>230.2</ele>
        <time>2022-02-24T15:38:16Z</time>
      </trkpt>
      <trkpt lat="46.20409" lon="5.23427">
        <ele>230.2</ele>
        <time>2022-02-24T15:38:17Z</time>
      </trkpt>
      <trkpt lat="46.20415" lon="5.23429">
        <ele>230.2</ele>
        <time>2022-02-24T15:38:18Z</time>
      </trkpt>
      <trkpt lat="46.20421" lon="5.23431">
        <ele>229.8</ele>
        <time>2022-02-24T15:38:19Z</time>
      </trkpt>
      <trkpt lat="46.20427" lon="5.23433">
        <ele>229.8</ele>
        <time>2022-02-24T15:38:20Z</time>
      </trkpt>
      <trkpt lat="46.20434" lon="5.23434">
        <ele>229.8</ele>
        <time>2022-02-24T15:38:21Z</time>
      </trkpt>
      <trkpt lat="46.2044" lon="5.23435">
        <ele>229.8</ele>
        <time>2022-02-24T15:38:22Z</time>
      </trkpt>
      <trkpt lat="46.20446" lon="5.23437">
        <ele>229.8</ele>
        <time>2022-02-24T15:38:23Z</time>
      </trkpt>
      <trkpt lat="46.20453" lon="5.23439">
        <ele>229.8</ele>
        <time>2022-02-24T15:38:24Z</time>
      </trkpt>
      <trkpt lat="46.2046" lon="5.2344">
        <ele>229.8</ele>
        <time>2022-02-24T15:38:25Z</time>
      </trkpt>
      <trkpt lat="46.20467" lon="5.23441">
        <ele>229.8</ele>
        <time>2022-02-24T15:38:26Z</time>
      </trkpt>
      <trkpt lat="46.20474" lon="5.23442">
        <ele>229.8</ele>
        <time>2022-02-24T15:38:27Z</time>
      </trkpt>
      <trkpt lat="46.20481" lon="5.23443">
        <ele>229.6</ele>
        <time>2022-02-24T15:38:28Z</time>
      </trkpt>
      <trkpt lat="46.20488" lon="5.23444">
        <ele>229.6</ele>
        <time>2022-02-24T15:38:29Z</time>
      </trkpt>
      <trkpt lat="46.20495" lon="5.23445">
        <ele>229.6</ele>
        <time>2022-02-24T15:38:30Z</time>
      </trkpt>
      <trkpt lat="46.20502" lon="5.23446">
        <ele>229.6</ele>
        <time>2022-02-24T15:38:31Z</time>
      </trkpt>
      <trkpt lat="46.20509" lon="5.23447">
        <ele>229.6</ele>
        <time>2022-02-24T15:38:32Z</time>
      </trkpt>
      <trkpt lat="46.20515" lon="5.23447">
        <ele>229.4</ele>
        <time>2022-02-24T15:38:33Z</time>
      </trkpt>
      <trkpt lat="46.20522" lon="5.23447">
        <ele>229.4</ele>
        <time>2022-02-24T15:38:34Z</time>
      </trkpt>
      <trkpt lat="46.20529" lon="5.23448">
        <ele>229.4</ele>
        <time>2022-02-24T15:38:35Z</time>
      </trkpt>
      <trkpt lat="46.20536" lon="5.23449">
        <ele>229.2</ele>
        <time>2022-02-24T15:38:36Z</time>
      </trkpt>
      <trkpt lat="46.20543" lon="5.23451">
        <ele>229.2</ele>
        <time>2022-02-24T15:38:37Z</time>
      </trkpt>
      <trkpt lat="46.2055" lon="5.23452">
        <ele>229.2</ele>
        <time>2022-02-24T15:38:38Z</time>
      </trkpt>
      <trkpt lat="46.20558" lon="5.23452">
        <ele>229.2</ele>
        <time>2022-02-24T15:38:39Z</time>
      </trkpt>
      <trkpt lat="46.20564" lon="5.23453">
        <ele>228.8</ele>
        <time>2022-02-24T15:38:40Z</time>
      </trkpt>
      <trkpt lat="46.2057" lon="5.23453">
        <ele>228.8</ele>
        <time>2022-02-24T15:38:41Z</time>
      </trkpt>
      <trkpt lat="46.20574" lon="5.23454">
        <ele>228.8</ele>
        <time>2022-02-24T15:38:42Z</time>
      </trkpt>
      <trkpt lat="46.20577" lon="5.23454">
        <ele>228.8</ele>
        <time>2022-02-24T15:38:43Z</time>
      </trkpt>
      <trkpt lat="46.20579" lon="5.23454">
        <ele>228.8</ele>
        <time>2022-02-24T15:38:44Z</time>
      </trkpt>
      <trkpt lat="46.20581" lon="5.23455">
        <ele>228.6</ele>
        <time>2022-02-24T15:38:45Z</time>
      </trkpt>
      <trkpt lat="46.20581" lon="5.23455">
        <ele>228.6</ele>
        <time>2022-02-24T15:38:46Z</time>
      </trkpt>
      <trkpt lat="46.20583" lon="5.23464">
        <ele>228.6</ele>
        <time>2022-02-24T15:38:55Z</time>
      </trkpt>
      <trkpt lat="46.20584" lon="5.23467">
        <ele>228.6</ele>
        <time>2022-02-24T15:38:56Z</time>
      </trkpt>
      <trkpt lat="46.20586" lon="5.2347">
        <ele>228.6</ele>
        <time>2022-02-24T15:38:57Z</time>
      </trkpt>
      <trkpt lat="46.20588" lon="5.23472">
        <ele>228.6</ele>
        <time>2022-02-24T15:38:58Z</time>
      </trkpt>
      <trkpt lat="46.20589" lon="5.23474">
        <ele>228.6</ele>
        <time>2022-02-24T15:38:59Z</time>
      </trkpt>
      <trkpt lat="46.20592" lon="5.23477">
        <ele>228.4</ele>
        <time>2022-02-24T15:39:00Z</time>
      </trkpt>
      <trkpt lat="46.20594" lon="5.23479">
        <ele>228.4</ele>
        <time>2022-02-24T15:39:01Z</time>
      </trkpt>
      <trkpt lat="46.20596" lon="5.2348">
        <ele>228.4</ele>
        <time>2022-02-24T15:39:02Z</time>
      </trkpt>
      <trkpt lat="46.20599" lon="5.23482">
        <ele>228.4</ele>
        <time>2022-02-24T15:39:03Z</time>
      </trkpt>
      <trkpt lat="46.20602" lon="5.23482">
        <ele>228.4</ele>
        <time>2022-02-24T15:39:04Z</time>
      </trkpt>
      <trkpt lat="46.20606" lon="5.23482">
        <ele>228.4</ele>
        <time>2022-02-24T15:39:05Z</time>
      </trkpt>
      <trkpt lat="46.20611" lon="5.23483">
        <ele>228.4</ele>
        <time>2022-02-24T15:39:06Z</time>
      </trkpt>
      <trkpt lat="46.20615" lon="5.23483">
        <ele>228.4</ele>
        <time>2022-02-24T15:39:07Z</time>
      </trkpt>
      <trkpt lat="46.2062" lon="5.23484">
        <ele>228.4</ele>
        <time>2022-02-24T15:39:08Z</time>
      </trkpt>
      <trkpt lat="46.20625" lon="5.23486">
        <ele>228.4</ele>
        <time>2022-02-24T15:39:09Z</time>
      </trkpt>
      <trkpt lat="46.2063" lon="5.2349">
        <ele>228.4</ele>
        <time>2022-02-24T15:39:10Z</time>
      </trkpt>
      <trkpt lat="46.20634" lon="5.23495">
        <ele>228.4</ele>
        <time>2022-02-24T15:39:11Z</time>
      </trkpt>
      <trkpt lat="46.20639" lon="5.23499">
        <ele>228.4</ele>
        <time>2022-02-24T15:39:12Z</time>
      </trkpt>
      <trkpt lat="46.20644" lon="5.23504">
        <ele>228.4</ele>
        <time>2022-02-24T15:39:13Z</time>
      </trkpt>
      <trkpt lat="46.20649" lon="5.23509">
        <ele>228.4</ele>
        <time>2022-02-24T15:39:14Z</time>
      </trkpt>
      <trkpt lat="46.20654" lon="5.23513">
        <ele>228.4</ele>
        <time>2022-02-24T15:39:15Z</time>
      </trkpt>
      <trkpt lat="46.20659" lon="5.23518">
        <ele>228.4</ele>
        <time>2022-02-24T15:39:16Z</time>
      </trkpt>
      <trkpt lat="46.20664" lon="5.23523">
        <ele>228.4</ele>
        <time>2022-02-24T15:39:17Z</time>
      </trkpt>
      <trkpt lat="46.20669" lon="5.23528">
        <ele>228.4</ele>
        <time>2022-02-24T15:39:18Z</time>
      </trkpt>
      <trkpt lat="46.20674" lon="5.23533">
        <ele>228.4</ele>
        <time>2022-02-24T15:39:19Z</time>
      </trkpt>
      <trkpt lat="46.20679" lon="5.23539">
        <ele>228.4</ele>
        <time>2022-02-24T15:39:20Z</time>
      </trkpt>
      <trkpt lat="46.20685" lon="5.23544">
        <ele>228.4</ele>
        <time>2022-02-24T15:39:21Z</time>
      </trkpt>
      <trkpt lat="46.2069" lon="5.23549">
        <ele>228.4</ele>
        <time>2022-02-24T15:39:22Z</time>
      </trkpt>
      <trkpt lat="46.20695" lon="5.23554">
        <ele>228.4</ele>
        <time>2022-02-24T15:39:23Z</time>
      </trkpt>
      <trkpt lat="46.20699" lon="5.2356">
        <ele>228.4</ele>
        <time>2022-02-24T15:39:24Z</time>
      </trkpt>
      <trkpt lat="46.20704" lon="5.23566">
        <ele>228.4</ele>
        <time>2022-02-24T15:39:25Z</time>
      </trkpt>
      <trkpt lat="46.20709" lon="5.23571">
        <ele>228.4</ele>
        <time>2022-02-24T15:39:26Z</time>
      </trkpt>
      <trkpt lat="46.20713" lon="5.23576">
        <ele>228.4</ele>
        <time>2022-02-24T15:39:27Z</time>
      </trkpt>
      <trkpt lat="46.20717" lon="5.23581">
        <ele>228.4</ele>
        <time>2022-02-24T15:39:28Z</time>
      </trkpt>
      <trkpt lat="46.20722" lon="5.23586">
        <ele>228.4</ele>
        <time>2022-02-24T15:39:29Z</time>
      </trkpt>
      <trkpt lat="46.20726" lon="5.2359">
        <ele>228.4</ele>
        <time>2022-02-24T15:39:30Z</time>
      </trkpt>
      <trkpt lat="46.2073" lon="5.23594">
        <ele>228.4</ele>
        <time>2022-02-24T15:39:31Z</time>
      </trkpt>
      <trkpt lat="46.20734" lon="5.23597">
        <ele>228.4</ele>
        <time>2022-02-24T15:39:32Z</time>
      </trkpt>
      <trkpt lat="46.20738" lon="5.23601">
        <ele>228.4</ele>
        <time>2022-02-24T15:39:33Z</time>
      </trkpt>
      <trkpt lat="46.20742" lon="5.23605">
        <ele>228.4</ele>
        <time>2022-02-24T15:39:34Z</time>
      </trkpt>
      <trkpt lat="46.20746" lon="5.23609">
        <ele>228.4</ele>
        <time>2022-02-24T15:39:35Z</time>
      </trkpt>
      <trkpt lat="46.2075" lon="5.23613">
        <ele>228.4</ele>
        <time>2022-02-24T15:39:36Z</time>
      </trkpt>
      <trkpt lat="46.20753" lon="5.23616">
        <ele>228.4</ele>
        <time>2022-02-24T15:39:37Z</time>
      </trkpt>
      <trkpt lat="46.20756" lon="5.23619">
        <ele>228.4</ele>
        <time>2022-02-24T15:39:38Z</time>
      </trkpt>
      <trkpt lat="46.20759" lon="5.23622">
        <ele>228.4</ele>
        <time>2022-02-24T15:39:39Z</time>
      </trkpt>
      <trkpt lat="46.20761" lon="5.23624">
        <ele>228.4</ele>
        <time>2022-02-24T15:39:40Z</time>
      </trkpt>
      <trkpt lat="46.20763" lon="5.23627">
        <ele>228.4</ele>
        <time>2022-02-24T15:39:41Z</time>
      </trkpt>
      <trkpt lat="46.20765" lon="5.23628">
        <ele>228.4</ele>
        <time>2022-02-24T15:39:42Z</time>
      </trkpt>
      <trkpt lat="46.20765" lon="5.2363">
        <ele>228.4</ele>
        <time>2022-02-24T15:39:43Z</time>
      </trkpt>
      <trkpt lat="46.20766" lon="5.23631">
        <ele>228.4</ele>
        <time>2022-02-24T15:39:44Z</time>
      </trkpt>
      <trkpt lat="46.20766" lon="5.23631">
        <ele>228.4</ele>
        <time>2022-02-24T15:39:45Z</time>
      </trkpt>
      <trkpt lat="46.20768" lon="5.23634">
        <ele>228.4</ele>
        <time>2022-02-24T15:40:31Z</time>
      </trkpt>
      <trkpt lat="46.2077" lon="5.23637">
        <ele>228.4</ele>
        <time>2022-02-24T15:40:32Z</time>
      </trkpt>
      <trkpt lat="46.20773" lon="5.2364">
        <ele>228.4</ele>
        <time>2022-02-24T15:40:33Z</time>
      </trkpt>
      <trkpt lat="46.20776" lon="5.23644">
        <ele>228.2</ele>
        <time>2022-02-24T15:40:34Z</time>
      </trkpt>
      <trkpt lat="46.20779" lon="5.23648">
        <ele>228.2</ele>
        <time>2022-02-24T15:40:35Z</time>
      </trkpt>
      <trkpt lat="46.20783" lon="5.23653">
        <ele>228.2</ele>
        <time>2022-02-24T15:40:36Z</time>
      </trkpt>
      <trkpt lat="46.20787" lon="5.23657">
        <ele>228.2</ele>
        <time>2022-02-24T15:40:37Z</time>
      </trkpt>
      <trkpt lat="46.20791" lon="5.23662">
        <ele>228.2</ele>
        <time>2022-02-24T15:40:38Z</time>
      </trkpt>
      <trkpt lat="46.20796" lon="5.23668">
        <ele>228.2</ele>
        <time>2022-02-24T15:40:39Z</time>
      </trkpt>
      <trkpt lat="46.20801" lon="5.23673">
        <ele>228.2</ele>
        <time>2022-02-24T15:40:40Z</time>
      </trkpt>
      <trkpt lat="46.20806" lon="5.23678">
        <ele>228.2</ele>
        <time>2022-02-24T15:40:41Z</time>
      </trkpt>
      <trkpt lat="46.20811" lon="5.23683">
        <ele>228.2</ele>
        <time>2022-02-24T15:40:42Z</time>
      </trkpt>
      <trkpt lat="46.20817" lon="5.23688">
        <ele>228.2</ele>
        <time>2022-02-24T15:40:43Z</time>
      </trkpt>
      <trkpt lat="46.20822" lon="5.23694">
        <ele>228.2</ele>
        <time>2022-02-24T15:40:44Z</time>
      </trkpt>
      <trkpt lat="46.20828" lon="5.23699">
        <ele>228.2</ele>
        <time>2022-02-24T15:40:45Z</time>
      </trkpt>
      <trkpt lat="46.20833" lon="5.23704">
        <ele>228.2</ele>
        <time>2022-02-24T15:40:46Z</time>
      </trkpt>
      <trkpt lat="46.20839" lon="5.2371">
        <ele>228.2</ele>
        <time>2022-02-24T15:40:47Z</time>
      </trkpt>
      <trkpt lat="46.20845" lon="5.23714">
        <ele>228.2</ele>
        <time>2022-02-24T15:40:48Z</time>
      </trkpt>
      <trkpt lat="46.20851" lon="5.23719">
        <ele>228.2</ele>
        <time>2022-02-24T15:40:49Z</time>
      </trkpt>
      <trkpt lat="46.20857" lon="5.23724">
        <ele>228.2</ele>
        <time>2022-02-24T15:40:50Z</time>
      </trkpt>
      <trkpt lat="46.20862" lon="5.23729">
        <ele>228.2</ele>
        <time>2022-02-24T15:40:51Z</time>
      </trkpt>
      <trkpt lat="46.20868" lon="5.23734">
        <ele>228.2</ele>
        <time>2022-02-24T15:40:52Z</time>
      </trkpt>
      <trkpt lat="46.20874" lon="5.23739">
        <ele>228.2</ele>
        <time>2022-02-24T15:40:53Z</time>
      </trkpt>
      <trkpt lat="46.2088" lon="5.23743">
        <ele>228.4</ele>
        <time>2022-02-24T15:40:54Z</time>
      </trkpt>
      <trkpt lat="46.20885" lon="5.23748">
        <ele>228.4</ele>
        <time>2022-02-24T15:40:55Z</time>
      </trkpt>
      <trkpt lat="46.2089" lon="5.23753">
        <ele>228.4</ele>
        <time>2022-02-24T15:40:56Z</time>
      </trkpt>
      <trkpt lat="46.20896" lon="5.23758">
        <ele>228.4</ele>
        <time>2022-02-24T15:40:57Z</time>
      </trkpt>
      <trkpt lat="46.20901" lon="5.23764">
        <ele>228.6</ele>
        <time>2022-02-24T15:40:58Z</time>
      </trkpt>
      <trkpt lat="46.20906" lon="5.23769">
        <ele>228.6</ele>
        <time>2022-02-24T15:40:59Z</time>
      </trkpt>
      <trkpt lat="46.20911" lon="5.23775">
        <ele>228.6</ele>
        <time>2022-02-24T15:41:00Z</time>
      </trkpt>
      <trkpt lat="46.20916" lon="5.2378">
        <ele>228.6</ele>
        <time>2022-02-24T15:41:01Z</time>
      </trkpt>
      <trkpt lat="46.20922" lon="5.23786">
        <ele>228.6</ele>
        <time>2022-02-24T15:41:02Z</time>
      </trkpt>
      <trkpt lat="46.20927" lon="5.23791">
        <ele>228.6</ele>
        <time>2022-02-24T15:41:03Z</time>
      </trkpt>
      <trkpt lat="46.20932" lon="5.23797">
        <ele>228.6</ele>
        <time>2022-02-24T15:41:04Z</time>
      </trkpt>
      <trkpt lat="46.20937" lon="5.23802">
        <ele>228.6</ele>
        <time>2022-02-24T15:41:05Z</time>
      </trkpt>
      <trkpt lat="46.20943" lon="5.23807">
        <ele>228.6</ele>
        <time>2022-02-24T15:41:06Z</time>
      </trkpt>
      <trkpt lat="46.20948" lon="5.23812">
        <ele>228.6</ele>
        <time>2022-02-24T15:41:07Z</time>
      </trkpt>
      <trkpt lat="46.20953" lon="5.23817">
        <ele>228.6</ele>
        <time>2022-02-24T15:41:08Z</time>
      </trkpt>
      <trkpt lat="46.20958" lon="5.23822">
        <ele>228.6</ele>
        <time>2022-02-24T15:41:09Z</time>
      </trkpt>
      <trkpt lat="46.20963" lon="5.23826">
        <ele>228.6</ele>
        <time>2022-02-24T15:41:10Z</time>
      </trkpt>
      <trkpt lat="46.20967" lon="5.23831">
        <ele>228.6</ele>
        <time>2022-02-24T15:41:11Z</time>
      </trkpt>
      <trkpt lat="46.20972" lon="5.23835">
        <ele>228.6</ele>
        <time>2022-02-24T15:41:12Z</time>
      </trkpt>
      <trkpt lat="46.20976" lon="5.23839">
        <ele>228.6</ele>
        <time>2022-02-24T15:41:13Z</time>
      </trkpt>
      <trkpt lat="46.20981" lon="5.23843">
        <ele>228.6</ele>
        <time>2022-02-24T15:41:14Z</time>
      </trkpt>
      <trkpt lat="46.20985" lon="5.23846">
        <ele>228.6</ele>
        <time>2022-02-24T15:41:15Z</time>
      </trkpt>
      <trkpt lat="46.2099" lon="5.23849">
        <ele>228.8</ele>
        <time>2022-02-24T15:41:16Z</time>
      </trkpt>
      <trkpt lat="46.20994" lon="5.23852">
        <ele>228.8</ele>
        <time>2022-02-24T15:41:17Z</time>
      </trkpt>
      <trkpt lat="46.20998" lon="5.23856">
        <ele>228.8</ele>
        <time>2022-02-24T15:41:18Z</time>
      </trkpt>
      <trkpt lat="46.21001" lon="5.2386">
        <ele>228.8</ele>
        <time>2022-02-24T15:41:19Z</time>
      </trkpt>
      <trkpt lat="46.21005" lon="5.23863">
        <ele>229</ele>
        <time>2022-02-24T15:41:20Z</time>
      </trkpt>
      <trkpt lat="46.21009" lon="5.23867">
        <ele>229</ele>
        <time>2022-02-24T15:41:21Z</time>
      </trkpt>
      <trkpt lat="46.21012" lon="5.2387">
        <ele>229</ele>
        <time>2022-02-24T15:41:22Z</time>
      </trkpt>
      <trkpt lat="46.21015" lon="5.23873">
        <ele>229.4</ele>
        <time>2022-02-24T15:41:23Z</time>
      </trkpt>
      <trkpt lat="46.21018" lon="5.23875">
        <ele>229.4</ele>
        <time>2022-02-24T15:41:24Z</time>
      </trkpt>
      <trkpt lat="46.21019" lon="5.23877">
        <ele>229.4</ele>
        <time>2022-02-24T15:41:25Z</time>
      </trkpt>
      <trkpt lat="46.21021" lon="5.23879">
        <ele>229.6</ele>
        <time>2022-02-24T15:41:26Z</time>
      </trkpt>
      <trkpt lat="46.21022" lon="5.2388">
        <ele>229.6</ele>
        <time>2022-02-24T15:41:27Z</time>
      </trkpt>
      <trkpt lat="46.21024" lon="5.23882">
        <ele>229.6</ele>
        <time>2022-02-24T15:41:28Z</time>
      </trkpt>
      <trkpt lat="46.21025" lon="5.23883">
        <ele>229.6</ele>
        <time>2022-02-24T15:41:29Z</time>
      </trkpt>
      <trkpt lat="46.21027" lon="5.23885">
        <ele>229.8</ele>
        <time>2022-02-24T15:41:30Z</time>
      </trkpt>
      <trkpt lat="46.2103" lon="5.23888">
        <ele>229.8</ele>
        <time>2022-02-24T15:41:31Z</time>
      </trkpt>
      <trkpt lat="46.21033" lon="5.23891">
        <ele>229.8</ele>
        <time>2022-02-24T15:41:32Z</time>
      </trkpt>
      <trkpt lat="46.21036" lon="5.23894">
        <ele>229.8</ele>
        <time>2022-02-24T15:41:33Z</time>
      </trkpt>
      <trkpt lat="46.2104" lon="5.23897">
        <ele>229.8</ele>
        <time>2022-02-24T15:41:34Z</time>
      </trkpt>
      <trkpt lat="46.21044" lon="5.23901">
        <ele>230.2</ele>
        <time>2022-02-24T15:41:35Z</time>
      </trkpt>
      <trkpt lat="46.21048" lon="5.23906">
        <ele>230.2</ele>
        <time>2022-02-24T15:41:36Z</time>
      </trkpt>
      <trkpt lat="46.21053" lon="5.2391">
        <ele>230.4</ele>
        <time>2022-02-24T15:41:37Z</time>
      </trkpt>
      <trkpt lat="46.21058" lon="5.23916">
        <ele>230.4</ele>
        <time>2022-02-24T15:41:38Z</time>
      </trkpt>
      <trkpt lat="46.21064" lon="5.23921">
        <ele>230.4</ele>
        <time>2022-02-24T15:41:39Z</time>
      </trkpt>
      <trkpt lat="46.21069" lon="5.23926">
        <ele>230.6</ele>
        <time>2022-02-24T15:41:40Z</time>
      </trkpt>
      <trkpt lat="46.21075" lon="5.23932">
        <ele>230.6</ele>
        <time>2022-02-24T15:41:41Z</time>
      </trkpt>
      <trkpt lat="46.21081" lon="5.23937">
        <ele>231</ele>
        <time>2022-02-24T15:41:42Z</time>
      </trkpt>
      <trkpt lat="46.21087" lon="5.23944">
        <ele>231.2</ele>
        <time>2022-02-24T15:41:43Z</time>
      </trkpt>
      <trkpt lat="46.21094" lon="5.2395">
        <ele>231.6</ele>
        <time>2022-02-24T15:41:44Z</time>
      </trkpt>
      <trkpt lat="46.211" lon="5.23957">
        <ele>232</ele>
        <time>2022-02-24T15:41:45Z</time>
      </trkpt>
      <trkpt lat="46.21107" lon="5.23963">
        <ele>232.2</ele>
        <time>2022-02-24T15:41:46Z</time>
      </trkpt>
      <trkpt lat="46.21114" lon="5.2397">
        <ele>232.6</ele>
        <time>2022-02-24T15:41:47Z</time>
      </trkpt>
      <trkpt lat="46.2112" lon="5.23977">
        <ele>233</ele>
        <time>2022-02-24T15:41:48Z</time>
      </trkpt>
      <trkpt lat="46.21127" lon="5.23984">
        <ele>233.4</ele>
        <time>2022-02-24T15:41:49Z</time>
      </trkpt>
      <trkpt lat="46.21134" lon="5.23991">
        <ele>234</ele>
        <time>2022-02-24T15:41:50Z</time>
      </trkpt>
      <trkpt lat="46.2114" lon="5.23999">
        <ele>234.2</ele>
        <time>2022-02-24T15:41:51Z</time>
      </trkpt>
      <trkpt lat="46.21146" lon="5.24006">
        <ele>234.4</ele>
        <time>2022-02-24T15:41:52Z</time>
      </trkpt>
      <trkpt lat="46.21152" lon="5.24014">
        <ele>235</ele>
        <time>2022-02-24T15:41:53Z</time>
      </trkpt>
      <trkpt lat="46.21158" lon="5.24021">
        <ele>235.4</ele>
        <time>2022-02-24T15:41:54Z</time>
      </trkpt>
      <trkpt lat="46.21165" lon="5.24027">
        <ele>235.8</ele>
        <time>2022-02-24T15:41:55Z</time>
      </trkpt>
      <trkpt lat="46.21172" lon="5.24034">
        <ele>236.2</ele>
        <time>2022-02-24T15:41:56Z</time>
      </trkpt>
      <trkpt lat="46.21178" lon="5.2404">
        <ele>236.6</ele>
        <time>2022-02-24T15:41:57Z</time>
      </trkpt>
      <trkpt lat="46.21185" lon="5.24046">
        <ele>236.8</ele>
        <time>2022-02-24T15:41:58Z</time>
      </trkpt>
      <trkpt lat="46.2119" lon="5.24052">
        <ele>236.8</ele>
        <time>2022-02-24T15:41:59Z</time>
      </trkpt>
      <trkpt lat="46.21197" lon="5.24058">
        <ele>237.4</ele>
        <time>2022-02-24T15:42:00Z</time>
      </trkpt>
      <trkpt lat="46.21202" lon="5.24064">
        <ele>237.6</ele>
        <time>2022-02-24T15:42:01Z</time>
      </trkpt>
      <trkpt lat="46.21208" lon="5.2407">
        <ele>237.8</ele>
        <time>2022-02-24T15:42:02Z</time>
      </trkpt>
      <trkpt lat="46.21213" lon="5.24075">
        <ele>237.8</ele>
        <time>2022-02-24T15:42:03Z</time>
      </trkpt>
      <trkpt lat="46.21219" lon="5.24081">
        <ele>238</ele>
        <time>2022-02-24T15:42:04Z</time>
      </trkpt>
      <trkpt lat="46.21224" lon="5.24087">
        <ele>238</ele>
        <time>2022-02-24T15:42:05Z</time>
      </trkpt>
      <trkpt lat="46.2123" lon="5.24092">
        <ele>238</ele>
        <time>2022-02-24T15:42:06Z</time>
      </trkpt>
      <trkpt lat="46.21236" lon="5.24098">
        <ele>238</ele>
        <time>2022-02-24T15:42:07Z</time>
      </trkpt>
      <trkpt lat="46.21241" lon="5.24104">
        <ele>238.2</ele>
        <time>2022-02-24T15:42:08Z</time>
      </trkpt>
      <trkpt lat="46.21247" lon="5.24109">
        <ele>238.2</ele>
        <time>2022-02-24T15:42:09Z</time>
      </trkpt>
      <trkpt lat="46.21253" lon="5.24115">
        <ele>238.6</ele>
        <time>2022-02-24T15:42:10Z</time>
      </trkpt>
      <trkpt lat="46.21259" lon="5.24121">
        <ele>238.6</ele>
        <time>2022-02-24T15:42:11Z</time>
      </trkpt>
      <trkpt lat="46.21265" lon="5.24127">
        <ele>238.6</ele>
        <time>2022-02-24T15:42:12Z</time>
      </trkpt>
      <trkpt lat="46.21271" lon="5.24133">
        <ele>238.6</ele>
        <time>2022-02-24T15:42:13Z</time>
      </trkpt>
      <trkpt lat="46.21276" lon="5.24138">
        <ele>238.6</ele>
        <time>2022-02-24T15:42:14Z</time>
      </trkpt>
      <trkpt lat="46.21282" lon="5.24144">
        <ele>238.6</ele>
        <time>2022-02-24T15:42:15Z</time>
      </trkpt>
      <trkpt lat="46.21288" lon="5.24149">
        <ele>238.6</ele>
        <time>2022-02-24T15:42:16Z</time>
      </trkpt>
      <trkpt lat="46.21293" lon="5.24155">
        <ele>238.6</ele>
        <time>2022-02-24T15:42:17Z</time>
      </trkpt>
      <trkpt lat="46.21299" lon="5.24161">
        <ele>238.8</ele>
        <time>2022-02-24T15:42:18Z</time>
      </trkpt>
      <trkpt lat="46.21304" lon="5.24166">
        <ele>238.8</ele>
        <time>2022-02-24T15:42:19Z</time>
      </trkpt>
      <trkpt lat="46.2131" lon="5.24171">
        <ele>238.8</ele>
        <time>2022-02-24T15:42:20Z</time>
      </trkpt>
      <trkpt lat="46.21315" lon="5.24177">
        <ele>238.8</ele>
        <time>2022-02-24T15:42:21Z</time>
      </trkpt>
      <trkpt lat="46.21321" lon="5.24182">
        <ele>238.8</ele>
        <time>2022-02-24T15:42:22Z</time>
      </trkpt>
      <trkpt lat="46.21326" lon="5.24187">
        <ele>238.8</ele>
        <time>2022-02-24T15:42:23Z</time>
      </trkpt>
      <trkpt lat="46.21332" lon="5.24193">
        <ele>238.8</ele>
        <time>2022-02-24T15:42:24Z</time>
      </trkpt>
      <trkpt lat="46.21337" lon="5.24198">
        <ele>238.8</ele>
        <time>2022-02-24T15:42:25Z</time>
      </trkpt>
      <trkpt lat="46.21343" lon="5.24203">
        <ele>238.8</ele>
        <time>2022-02-24T15:42:26Z</time>
      </trkpt>
      <trkpt lat="46.21348" lon="5.24209">
        <ele>238.8</ele>
        <time>2022-02-24T15:42:27Z</time>
      </trkpt>
      <trkpt lat="46.21354" lon="5.24214">
        <ele>239</ele>
        <time>2022-02-24T15:42:28Z</time>
      </trkpt>
      <trkpt lat="46.21359" lon="5.24219">
        <ele>239</ele>
        <time>2022-02-24T15:42:29Z</time>
      </trkpt>
      <trkpt lat="46.21364" lon="5.24225">
        <ele>239</ele>
        <time>2022-02-24T15:42:30Z</time>
      </trkpt>
      <trkpt lat="46.21369" lon="5.2423">
        <ele>239</ele>
        <time>2022-02-24T15:42:31Z</time>
      </trkpt>
      <trkpt lat="46.21375" lon="5.24235">
        <ele>239</ele>
        <time>2022-02-24T15:42:32Z</time>
      </trkpt>
      <trkpt lat="46.2138" lon="5.2424">
        <ele>239</ele>
        <time>2022-02-24T15:42:33Z</time>
      </trkpt>
      <trkpt lat="46.21385" lon="5.24245">
        <ele>239.2</ele>
        <time>2022-02-24T15:42:34Z</time>
      </trkpt>
      <trkpt lat="46.2139" lon="5.2425">
        <ele>239.2</ele>
        <time>2022-02-24T15:42:35Z</time>
      </trkpt>
      <trkpt lat="46.21395" lon="5.24255">
        <ele>239.2</ele>
        <time>2022-02-24T15:42:36Z</time>
      </trkpt>
      <trkpt lat="46.214" lon="5.2426">
        <ele>239.2</ele>
        <time>2022-02-24T15:42:37Z</time>
      </trkpt>
      <trkpt lat="46.21405" lon="5.24265">
        <ele>239.2</ele>
        <time>2022-02-24T15:42:38Z</time>
      </trkpt>
      <trkpt lat="46.21411" lon="5.2427">
        <ele>239.2</ele>
        <time>2022-02-24T15:42:39Z</time>
      </trkpt>
      <trkpt lat="46.21416" lon="5.24276">
        <ele>239.2</ele>
        <time>2022-02-24T15:42:40Z</time>
      </trkpt>
      <trkpt lat="46.21421" lon="5.24281">
        <ele>239.2</ele>
        <time>2022-02-24T15:42:41Z</time>
      </trkpt>
      <trkpt lat="46.21426" lon="5.24286">
        <ele>239.2</ele>
        <time>2022-02-24T15:42:42Z</time>
      </trkpt>
      <trkpt lat="46.21431" lon="5.24291">
        <ele>239.2</ele>
        <time>2022-02-24T15:42:43Z</time>
      </trkpt>
      <trkpt lat="46.21436" lon="5.24296">
        <ele>239.2</ele>
        <time>2022-02-24T15:42:44Z</time>
      </trkpt>
      <trkpt lat="46.21441" lon="5.24301">
        <ele>239.2</ele>
        <time>2022-02-24T15:42:45Z</time>
      </trkpt>
      <trkpt lat="46.21445" lon="5.24306">
        <ele>239.2</ele>
        <time>2022-02-24T15:42:46Z</time>
      </trkpt>
      <trkpt lat="46.2145" lon="5.2431">
        <ele>239.6</ele>
        <time>2022-02-24T15:42:47Z</time>
      </trkpt>
      <trkpt lat="46.21454" lon="5.24315">
        <ele>239.6</ele>
        <time>2022-02-24T15:42:48Z</time>
      </trkpt>
      <trkpt lat="46.21459" lon="5.2432">
        <ele>239.6</ele>
        <time>2022-02-24T15:42:49Z</time>
      </trkpt>
      <trkpt lat="46.21463" lon="5.24324">
        <ele>239.6</ele>
        <time>2022-02-24T15:42:50Z</time>
      </trkpt>
      <trkpt lat="46.21467" lon="5.24329">
        <ele>239.6</ele>
        <time>2022-02-24T15:42:51Z</time>
      </trkpt>
      <trkpt lat="46.21471" lon="5.24334">
        <ele>239.6</ele>
        <time>2022-02-24T15:42:52Z</time>
      </trkpt>
      <trkpt lat="46.21475" lon="5.24339">
        <ele>239.6</ele>
        <time>2022-02-24T15:42:53Z</time>
      </trkpt>
      <trkpt lat="46.21478" lon="5.24343">
        <ele>239.6</ele>
        <time>2022-02-24T15:42:54Z</time>
      </trkpt>
      <trkpt lat="46.21482" lon="5.24348">
        <ele>239.6</ele>
        <time>2022-02-24T15:42:55Z</time>
      </trkpt>
      <trkpt lat="46.21484" lon="5.24353">
        <ele>239.6</ele>
        <time>2022-02-24T15:42:56Z</time>
      </trkpt>
      <trkpt lat="46.21485" lon="5.24359">
        <ele>239.6</ele>
        <time>2022-02-24T15:42:57Z</time>
      </trkpt>
      <trkpt lat="46.21484" lon="5.24365">
        <ele>239.6</ele>
        <time>2022-02-24T15:42:58Z</time>
      </trkpt>
      <trkpt lat="46.21482" lon="5.2437">
        <ele>239.6</ele>
        <time>2022-02-24T15:42:59Z</time>
      </trkpt>
      <trkpt lat="46.21479" lon="5.24376">
        <ele>239.6</ele>
        <time>2022-02-24T15:43:00Z</time>
      </trkpt>
      <trkpt lat="46.21476" lon="5.24381">
        <ele>239.6</ele>
        <time>2022-02-24T15:43:01Z</time>
      </trkpt>
      <trkpt lat="46.21472" lon="5.24385">
        <ele>239.4</ele>
        <time>2022-02-24T15:43:02Z</time>
      </trkpt>
      <trkpt lat="46.21469" lon="5.24389">
        <ele>239.4</ele>
        <time>2022-02-24T15:43:03Z</time>
      </trkpt>
      <trkpt lat="46.21465" lon="5.24393">
        <ele>239.4</ele>
        <time>2022-02-24T15:43:04Z</time>
      </trkpt>
      <trkpt lat="46.21461" lon="5.24397">
        <ele>239.4</ele>
        <time>2022-02-24T15:43:05Z</time>
      </trkpt>
      <trkpt lat="46.21458" lon="5.24401">
        <ele>239.4</ele>
        <time>2022-02-24T15:43:06Z</time>
      </trkpt>
      <trkpt lat="46.21454" lon="5.24405">
        <ele>239.4</ele>
        <time>2022-02-24T15:43:07Z</time>
      </trkpt>
      <trkpt lat="46.2145" lon="5.2441">
        <ele>239.6</ele>
        <time>2022-02-24T15:43:08Z</time>
      </trkpt>
      <trkpt lat="46.21447" lon="5.24415">
        <ele>239.6</ele>
        <time>2022-02-24T15:43:09Z</time>
      </trkpt>
      <trkpt lat="46.21443" lon="5.24419">
        <ele>239.6</ele>
        <time>2022-02-24T15:43:10Z</time>
      </trkpt>
      <trkpt lat="46.21439" lon="5.24424">
        <ele>239.6</ele>
        <time>2022-02-24T15:43:11Z</time>
      </trkpt>
      <trkpt lat="46.21436" lon="5.24429">
        <ele>239.6</ele>
        <time>2022-02-24T15:43:12Z</time>
      </trkpt>
      <trkpt lat="46.21432" lon="5.24434">
        <ele>239.6</ele>
        <time>2022-02-24T15:43:13Z</time>
      </trkpt>
      <trkpt lat="46.2143" lon="5.2444">
        <ele>239.6</ele>
        <time>2022-02-24T15:43:14Z</time>
      </trkpt>
      <trkpt lat="46.21427" lon="5.24446">
        <ele>239.8</ele>
        <time>2022-02-24T15:43:15Z</time>
      </trkpt>
      <trkpt lat="46.21425" lon="5.24452">
        <ele>239.8</ele>
        <time>2022-02-24T15:43:16Z</time>
      </trkpt>
      <trkpt lat="46.21422" lon="5.24458">
        <ele>239.8</ele>
        <time>2022-02-24T15:43:17Z</time>
      </trkpt>
      <trkpt lat="46.2142" lon="5.24464">
        <ele>239.8</ele>
        <time>2022-02-24T15:43:18Z</time>
      </trkpt>
      <trkpt lat="46.21418" lon="5.24471">
        <ele>239.8</ele>
        <time>2022-02-24T15:43:19Z</time>
      </trkpt>
      <trkpt lat="46.21416" lon="5.24478">
        <ele>239.8</ele>
        <time>2022-02-24T15:43:20Z</time>
      </trkpt>
      <trkpt lat="46.21415" lon="5.24485">
        <ele>239.8</ele>
        <time>2022-02-24T15:43:21Z</time>
      </trkpt>
      <trkpt lat="46.21414" lon="5.24492">
        <ele>239.8</ele>
        <time>2022-02-24T15:43:22Z</time>
      </trkpt>
      <trkpt lat="46.21414" lon="5.245">
        <ele>239.8</ele>
        <time>2022-02-24T15:43:23Z</time>
      </trkpt>
      <trkpt lat="46.21414" lon="5.24506">
        <ele>239.8</ele>
        <time>2022-02-24T15:43:24Z</time>
      </trkpt>
      <trkpt lat="46.21413" lon="5.24514">
        <ele>239.8</ele>
        <time>2022-02-24T15:43:25Z</time>
      </trkpt>
      <trkpt lat="46.21413" lon="5.24521">
        <ele>240</ele>
        <time>2022-02-24T15:43:26Z</time>
      </trkpt>
      <trkpt lat="46.21413" lon="5.24527">
        <ele>240</ele>
        <time>2022-02-24T15:43:27Z</time>
      </trkpt>
      <trkpt lat="46.21412" lon="5.24534">
        <ele>240</ele>
        <time>2022-02-24T15:43:28Z</time>
      </trkpt>
      <trkpt lat="46.21412" lon="5.2454">
        <ele>240</ele>
        <time>2022-02-24T15:43:29Z</time>
      </trkpt>
      <trkpt lat="46.21412" lon="5.24546">
        <ele>240</ele>
        <time>2022-02-24T15:43:30Z</time>
      </trkpt>
      <trkpt lat="46.21412" lon="5.24552">
        <ele>240.2</ele>
        <time>2022-02-24T15:43:31Z</time>
      </trkpt>
      <trkpt lat="46.21412" lon="5.24558">
        <ele>240.2</ele>
        <time>2022-02-24T15:43:32Z</time>
      </trkpt>
      <trkpt lat="46.21412" lon="5.24565">
        <ele>240.2</ele>
        <time>2022-02-24T15:43:33Z</time>
      </trkpt>
      <trkpt lat="46.21412" lon="5.24571">
        <ele>240.2</ele>
        <time>2022-02-24T15:43:34Z</time>
      </trkpt>
      <trkpt lat="46.21412" lon="5.24577">
        <ele>240.2</ele>
        <time>2022-02-24T15:43:35Z</time>
      </trkpt>
      <trkpt lat="46.21412" lon="5.24582">
        <ele>240.2</ele>
        <time>2022-02-24T15:43:36Z</time>
      </trkpt>
      <trkpt lat="46.21412" lon="5.24589">
        <ele>240.2</ele>
        <time>2022-02-24T15:43:37Z</time>
      </trkpt>
      <trkpt lat="46.21413" lon="5.24595">
        <ele>240.2</ele>
        <time>2022-02-24T15:43:38Z</time>
      </trkpt>
      <trkpt lat="46.21413" lon="5.24602">
        <ele>240.2</ele>
        <time>2022-02-24T15:43:39Z</time>
      </trkpt>
      <trkpt lat="46.21414" lon="5.24609">
        <ele>240.4</ele>
        <time>2022-02-24T15:43:40Z</time>
      </trkpt>
      <trkpt lat="46.21414" lon="5.24616">
        <ele>240.4</ele>
        <time>2022-02-24T15:43:41Z</time>
      </trkpt>
      <trkpt lat="46.21416" lon="5.24623">
        <ele>240.4</ele>
        <time>2022-02-24T15:43:42Z</time>
      </trkpt>
      <trkpt lat="46.21418" lon="5.24628">
        <ele>240.4</ele>
        <time>2022-02-24T15:43:43Z</time>
      </trkpt>
      <trkpt lat="46.2142" lon="5.24633">
        <ele>240.8</ele>
        <time>2022-02-24T15:43:44Z</time>
      </trkpt>
      <trkpt lat="46.21424" lon="5.24637">
        <ele>240.8</ele>
        <time>2022-02-24T15:43:45Z</time>
      </trkpt>
      <trkpt lat="46.21428" lon="5.24639">
        <ele>240.8</ele>
        <time>2022-02-24T15:43:46Z</time>
      </trkpt>
      <trkpt lat="46.21433" lon="5.2464">
        <ele>240.8</ele>
        <time>2022-02-24T15:43:47Z</time>
      </trkpt>
      <trkpt lat="46.21437" lon="5.2464">
        <ele>241</ele>
        <time>2022-02-24T15:43:48Z</time>
      </trkpt>
      <trkpt lat="46.21442" lon="5.2464">
        <ele>241</ele>
        <time>2022-02-24T15:43:49Z</time>
      </trkpt>
      <trkpt lat="46.21447" lon="5.2464">
        <ele>241</ele>
        <time>2022-02-24T15:43:50Z</time>
      </trkpt>
      <trkpt lat="46.21451" lon="5.24639">
        <ele>241</ele>
        <time>2022-02-24T15:43:51Z</time>
      </trkpt>
      <trkpt lat="46.21456" lon="5.24638">
        <ele>241.2</ele>
        <time>2022-02-24T15:43:52Z</time>
      </trkpt>
      <trkpt lat="46.21461" lon="5.24637">
        <ele>241.2</ele>
        <time>2022-02-24T15:43:53Z</time>
      </trkpt>
      <trkpt lat="46.21466" lon="5.24636">
        <ele>241.2</ele>
        <time>2022-02-24T15:43:54Z</time>
      </trkpt>
      <trkpt lat="46.21471" lon="5.24634">
        <ele>241.2</ele>
        <time>2022-02-24T15:43:55Z</time>
      </trkpt>
      <trkpt lat="46.21476" lon="5.24632">
        <ele>241.2</ele>
        <time>2022-02-24T15:43:56Z</time>
      </trkpt>
      <trkpt lat="46.21481" lon="5.2463">
        <ele>241.2</ele>
        <time>2022-02-24T15:43:57Z</time>
      </trkpt>
      <trkpt lat="46.21486" lon="5.24628">
        <ele>241.2</ele>
        <time>2022-02-24T15:43:58Z</time>
      </trkpt>
      <trkpt lat="46.21491" lon="5.24625">
        <ele>241.2</ele>
        <time>2022-02-24T15:43:59Z</time>
      </trkpt>
      <trkpt lat="46.21497" lon="5.24622">
        <ele>241.2</ele>
        <time>2022-02-24T15:44:00Z</time>
      </trkpt>
      <trkpt lat="46.21501" lon="5.24618">
        <ele>241.2</ele>
        <time>2022-02-24T15:44:01Z</time>
      </trkpt>
      <trkpt lat="46.21506" lon="5.24615">
        <ele>241.2</ele>
        <time>2022-02-24T15:44:02Z</time>
      </trkpt>
      <trkpt lat="46.2151" lon="5.24612">
        <ele>241.4</ele>
        <time>2022-02-24T15:44:03Z</time>
      </trkpt>
      <trkpt lat="46.21513" lon="5.24609">
        <ele>241.4</ele>
        <time>2022-02-24T15:44:04Z</time>
      </trkpt>
      <trkpt lat="46.21517" lon="5.24606">
        <ele>241.4</ele>
        <time>2022-02-24T15:44:05Z</time>
      </trkpt>
      <trkpt lat="46.2152" lon="5.24602">
        <ele>241.4</ele>
        <time>2022-02-24T15:44:06Z</time>
      </trkpt>
      <trkpt lat="46.21524" lon="5.24598">
        <ele>241.4</ele>
        <time>2022-02-24T15:44:07Z</time>
      </trkpt>
      <trkpt lat="46.21527" lon="5.24594">
        <ele>241.4</ele>
        <time>2022-02-24T15:44:08Z</time>
      </trkpt>
      <trkpt lat="46.21531" lon="5.2459">
        <ele>241.4</ele>
        <time>2022-02-24T15:44:09Z</time>
      </trkpt>
      <trkpt lat="46.21534" lon="5.24586">
        <ele>241.2</ele>
        <time>2022-02-24T15:44:10Z</time>
      </trkpt>
      <trkpt lat="46.21537" lon="5.24582">
        <ele>241.2</ele>
        <time>2022-02-24T15:44:11Z</time>
      </trkpt>
      <trkpt lat="46.2154" lon="5.2458">
        <ele>241.2</ele>
        <time>2022-02-24T15:44:12Z</time>
      </trkpt>
      <trkpt lat="46.21543" lon="5.24579">
        <ele>241.2</ele>
        <time>2022-02-24T15:44:13Z</time>
      </trkpt>
      <trkpt lat="46.21546" lon="5.24579">
        <ele>241.2</ele>
        <time>2022-02-24T15:44:14Z</time>
      </trkpt>
      <trkpt lat="46.21549" lon="5.24582">
        <ele>241.2</ele>
        <time>2022-02-24T15:44:15Z</time>
      </trkpt>
      <trkpt lat="46.2155" lon="5.24586">
        <ele>241.2</ele>
        <time>2022-02-24T15:44:16Z</time>
      </trkpt>
      <trkpt lat="46.2155" lon="5.2459">
        <ele>241.2</ele>
        <time>2022-02-24T15:44:17Z</time>
      </trkpt>
      <trkpt lat="46.2155" lon="5.24595">
        <ele>241.2</ele>
        <time>2022-02-24T15:44:18Z</time>
      </trkpt>
      <trkpt lat="46.21551" lon="5.246">
        <ele>241.2</ele>
        <time>2022-02-24T15:44:19Z</time>
      </trkpt>
      <trkpt lat="46.21552" lon="5.24604">
        <ele>241.2</ele>
        <time>2022-02-24T15:44:20Z</time>
      </trkpt>
      <trkpt lat="46.21553" lon="5.24609">
        <ele>241.4</ele>
        <time>2022-02-24T15:44:21Z</time>
      </trkpt>
      <trkpt lat="46.21554" lon="5.24614">
        <ele>241.4</ele>
        <time>2022-02-24T15:44:22Z</time>
      </trkpt>
      <trkpt lat="46.21555" lon="5.24619">
        <ele>241.8</ele>
        <time>2022-02-24T15:44:23Z</time>
      </trkpt>
      <trkpt lat="46.21556" lon="5.24623">
        <ele>242</ele>
        <time>2022-02-24T15:44:24Z</time>
      </trkpt>
      <trkpt lat="46.21557" lon="5.24626">
        <ele>242</ele>
        <time>2022-02-24T15:44:25Z</time>
      </trkpt>
      <trkpt lat="46.21558" lon="5.2463">
        <ele>242.2</ele>
        <time>2022-02-24T15:44:26Z</time>
      </trkpt>
      <trkpt lat="46.21558" lon="5.24632">
        <ele>242.2</ele>
        <time>2022-02-24T15:44:27Z</time>
      </trkpt>
      <trkpt lat="46.21557" lon="5.24634">
        <ele>242.2</ele>
        <time>2022-02-24T15:44:28Z</time>
      </trkpt>
      <trkpt lat="46.21555" lon="5.24636">
        <ele>242.4</ele>
        <time>2022-02-24T15:44:29Z</time>
      </trkpt>
      <trkpt lat="46.21553" lon="5.24638">
        <ele>242.4</ele>
        <time>2022-02-24T15:44:30Z</time>
      </trkpt>
      <trkpt lat="46.2155" lon="5.24639">
        <ele>242.4</ele>
        <time>2022-02-24T15:44:31Z</time>
      </trkpt>
      <trkpt lat="46.21547" lon="5.2464">
        <ele>242.4</ele>
        <time>2022-02-24T15:44:32Z</time>
      </trkpt>
      <trkpt lat="46.21544" lon="5.24641">
        <ele>242.6</ele>
        <time>2022-02-24T15:44:33Z</time>
      </trkpt>
      <trkpt lat="46.21541" lon="5.24642">
        <ele>242.6</ele>
        <time>2022-02-24T15:44:34Z</time>
      </trkpt>
      <trkpt lat="46.21537" lon="5.24643">
        <ele>242.6</ele>
        <time>2022-02-24T15:44:35Z</time>
      </trkpt>
      <trkpt lat="46.21534" lon="5.24646">
        <ele>242.6</ele>
        <time>2022-02-24T15:44:36Z</time>
      </trkpt>
      <trkpt lat="46.21531" lon="5.24649">
        <ele>242.6</ele>
        <time>2022-02-24T15:44:37Z</time>
      </trkpt>
      <trkpt lat="46.21528" lon="5.24652">
        <ele>242.6</ele>
        <time>2022-02-24T15:44:38Z</time>
      </trkpt>
      <trkpt lat="46.21526" lon="5.24656">
        <ele>243</ele>
        <time>2022-02-24T15:44:39Z</time>
      </trkpt>
      <trkpt lat="46.21523" lon="5.24659">
        <ele>243</ele>
        <time>2022-02-24T15:44:40Z</time>
      </trkpt>
      <trkpt lat="46.21521" lon="5.24662">
        <ele>243.2</ele>
        <time>2022-02-24T15:44:41Z</time>
      </trkpt>
      <trkpt lat="46.21519" lon="5.24665">
        <ele>243.4</ele>
        <time>2022-02-24T15:44:42Z</time>
      </trkpt>
      <trkpt lat="46.21518" lon="5.24668">
        <ele>243.6</ele>
        <time>2022-02-24T15:44:43Z</time>
      </trkpt>
      <trkpt lat="46.21517" lon="5.24672">
        <ele>243.6</ele>
        <time>2022-02-24T15:44:44Z</time>
      </trkpt>
      <trkpt lat="46.21515" lon="5.24676">
        <ele>244</ele>
        <time>2022-02-24T15:44:45Z</time>
      </trkpt>
      <trkpt lat="46.21514" lon="5.2468">
        <ele>244.2</ele>
        <time>2022-02-24T15:44:46Z</time>
      </trkpt>
      <trkpt lat="46.21513" lon="5.24683">
        <ele>244.2</ele>
        <time>2022-02-24T15:44:47Z</time>
      </trkpt>
      <trkpt lat="46.21512" lon="5.24686">
        <ele>244.4</ele>
        <time>2022-02-24T15:44:48Z</time>
      </trkpt>
      <trkpt lat="46.21511" lon="5.2469">
        <ele>244.4</ele>
        <time>2022-02-24T15:44:49Z</time>
      </trkpt>
      <trkpt lat="46.2151" lon="5.24693">
        <ele>245</ele>
        <time>2022-02-24T15:44:50Z</time>
      </trkpt>
      <trkpt lat="46.21509" lon="5.24698">
        <ele>245</ele>
        <time>2022-02-24T15:44:51Z</time>
      </trkpt>
      <trkpt lat="46.21507" lon="5.24702">
        <ele>245.2</ele>
        <time>2022-02-24T15:44:52Z</time>
      </trkpt>
      <trkpt lat="46.21506" lon="5.24705">
        <ele>245.6</ele>
        <time>2022-02-24T15:44:53Z</time>
      </trkpt>
      <trkpt lat="46.21505" lon="5.24708">
        <ele>245.8</ele>
        <time>2022-02-24T15:44:54Z</time>
      </trkpt>
      <trkpt lat="46.21503" lon="5.24712">
        <ele>245.8</ele>
        <time>2022-02-24T15:44:55Z</time>
      </trkpt>
      <trkpt lat="46.21502" lon="5.24715">
        <ele>246</ele>
        <time>2022-02-24T15:44:56Z</time>
      </trkpt>
      <trkpt lat="46.215" lon="5.24717">
        <ele>246</ele>
        <time>2022-02-24T15:44:57Z</time>
      </trkpt>
      <trkpt lat="46.21499" lon="5.2472">
        <ele>246.2</ele>
        <time>2022-02-24T15:44:58Z</time>
      </trkpt>
      <trkpt lat="46.21499" lon="5.24722">
        <ele>246.2</ele>
        <time>2022-02-24T15:44:59Z</time>
      </trkpt>
      <trkpt lat="46.21499" lon="5.24724">
        <ele>246.6</ele>
        <time>2022-02-24T15:45:00Z</time>
      </trkpt>
      <trkpt lat="46.21495" lon="5.2473">
        <ele>246.8</ele>
        <time>2022-02-24T15:45:04Z</time>
      </trkpt>
      <trkpt lat="46.21494" lon="5.24733">
        <ele>246.8</ele>
        <time>2022-02-24T15:45:05Z</time>
      </trkpt>
      <trkpt lat="46.21492" lon="5.24735">
        <ele>246.8</ele>
        <time>2022-02-24T15:45:06Z</time>
      </trkpt>
      <trkpt lat="46.21489" lon="5.24737">
        <ele>246.8</ele>
        <time>2022-02-24T15:45:07Z</time>
      </trkpt>
      <trkpt lat="46.21487" lon="5.24739">
        <ele>246.8</ele>
        <time>2022-02-24T15:45:08Z</time>
      </trkpt>
      <trkpt lat="46.21484" lon="5.2474">
        <ele>246.8</ele>
        <time>2022-02-24T15:45:09Z</time>
      </trkpt>
      <trkpt lat="46.21481" lon="5.24741">
        <ele>246.8</ele>
        <time>2022-02-24T15:45:10Z</time>
      </trkpt>
      <trkpt lat="46.21478" lon="5.24742">
        <ele>246.8</ele>
        <time>2022-02-24T15:45:11Z</time>
      </trkpt>
      <trkpt lat="46.21474" lon="5.24742">
        <ele>246.8</ele>
        <time>2022-02-24T15:45:12Z</time>
      </trkpt>
      <trkpt lat="46.2147" lon="5.24742">
        <ele>246.8</ele>
        <time>2022-02-24T15:45:13Z</time>
      </trkpt>
      <trkpt lat="46.21466" lon="5.24742">
        <ele>246.8</ele>
        <time>2022-02-24T15:45:14Z</time>
      </trkpt>
      <trkpt lat="46.21462" lon="5.24743">
        <ele>246.6</ele>
        <time>2022-02-24T15:45:15Z</time>
      </trkpt>
      <trkpt lat="46.21457" lon="5.24744">
        <ele>246.6</ele>
        <time>2022-02-24T15:45:16Z</time>
      </trkpt>
      <trkpt lat="46.21453" lon="5.24745">
        <ele>246.6</ele>
        <time>2022-02-24T15:45:17Z</time>
      </trkpt>
      <trkpt lat="46.21448" lon="5.24745">
        <ele>246.6</ele>
        <time>2022-02-24T15:45:18Z</time>
      </trkpt>
      <trkpt lat="46.21443" lon="5.24746">
        <ele>246.6</ele>
        <time>2022-02-24T15:45:19Z</time>
      </trkpt>
      <trkpt lat="46.21438" lon="5.24746">
        <ele>246.6</ele>
        <time>2022-02-24T15:45:20Z</time>
      </trkpt>
      <trkpt lat="46.21433" lon="5.24747">
        <ele>246.6</ele>
        <time>2022-02-24T15:45:21Z</time>
      </trkpt>
      <trkpt lat="46.21428" lon="5.24747">
        <ele>246.6</ele>
        <time>2022-02-24T15:45:22Z</time>
      </trkpt>
      <trkpt lat="46.21423" lon="5.24748">
        <ele>246.6</ele>
        <time>2022-02-24T15:45:23Z</time>
      </trkpt>
      <trkpt lat="46.21418" lon="5.2475">
        <ele>246.6</ele>
        <time>2022-02-24T15:45:24Z</time>
      </trkpt>
      <trkpt lat="46.21412" lon="5.24751">
        <ele>246.4</ele>
        <time>2022-02-24T15:45:25Z</time>
      </trkpt>
      <trkpt lat="46.21407" lon="5.24752">
        <ele>246.4</ele>
        <time>2022-02-24T15:45:26Z</time>
      </trkpt>
      <trkpt lat="46.21401" lon="5.24753">
        <ele>246.4</ele>
        <time>2022-02-24T15:45:27Z</time>
      </trkpt>
      <trkpt lat="46.21395" lon="5.24754">
        <ele>246.4</ele>
        <time>2022-02-24T15:45:28Z</time>
      </trkpt>
      <trkpt lat="46.2139" lon="5.24754">
        <ele>246.2</ele>
        <time>2022-02-24T15:45:29Z</time>
      </trkpt>
      <trkpt lat="46.21384" lon="5.24755">
        <ele>246.2</ele>
        <time>2022-02-24T15:45:30Z</time>
      </trkpt>
      <trkpt lat="46.21379" lon="5.24756">
        <ele>246.2</ele>
        <time>2022-02-24T15:45:31Z</time>
      </trkpt>
      <trkpt lat="46.21374" lon="5.24756">
        <ele>245.8</ele>
        <time>2022-02-24T15:45:32Z</time>
      </trkpt>
      <trkpt lat="46.21368" lon="5.24755">
        <ele>245.8</ele>
        <time>2022-02-24T15:45:33Z</time>
      </trkpt>
      <trkpt lat="46.21363" lon="5.24753">
        <ele>245.6</ele>
        <time>2022-02-24T15:45:34Z</time>
      </trkpt>
      <trkpt lat="46.21357" lon="5.24751">
        <ele>245.6</ele>
        <time>2022-02-24T15:45:35Z</time>
      </trkpt>
      <trkpt lat="46.21351" lon="5.24748">
        <ele>245.2</ele>
        <time>2022-02-24T15:45:36Z</time>
      </trkpt>
      <trkpt lat="46.21345" lon="5.24745">
        <ele>245.2</ele>
        <time>2022-02-24T15:45:37Z</time>
      </trkpt>
      <trkpt lat="46.21338" lon="5.24742">
        <ele>244.8</ele>
        <time>2022-02-24T15:45:38Z</time>
      </trkpt>
      <trkpt lat="46.21332" lon="5.2474">
        <ele>244.6</ele>
        <time>2022-02-24T15:45:39Z</time>
      </trkpt>
      <trkpt lat="46.21326" lon="5.24738">
        <ele>244.4</ele>
        <time>2022-02-24T15:45:40Z</time>
      </trkpt>
      <trkpt lat="46.21319" lon="5.24737">
        <ele>244.4</ele>
        <time>2022-02-24T15:45:41Z</time>
      </trkpt>
      <trkpt lat="46.21313" lon="5.24736">
        <ele>244</ele>
        <time>2022-02-24T15:45:42Z</time>
      </trkpt>
      <trkpt lat="46.21306" lon="5.24735">
        <ele>244</ele>
        <time>2022-02-24T15:45:43Z</time>
      </trkpt>
      <trkpt lat="46.21299" lon="5.24736">
        <ele>243.8</ele>
        <time>2022-02-24T15:45:44Z</time>
      </trkpt>
      <trkpt lat="46.21292" lon="5.24736">
        <ele>243.8</ele>
        <time>2022-02-24T15:45:45Z</time>
      </trkpt>
      <trkpt lat="46.21286" lon="5.24736">
        <ele>243.8</ele>
        <time>2022-02-24T15:45:46Z</time>
      </trkpt>
      <trkpt lat="46.2128" lon="5.24736">
        <ele>243.8</ele>
        <time>2022-02-24T15:45:47Z</time>
      </trkpt>
      <trkpt lat="46.21273" lon="5.24736">
        <ele>243.8</ele>
        <time>2022-02-24T15:45:48Z</time>
      </trkpt>
      <trkpt lat="46.21267" lon="5.24736">
        <ele>243.6</ele>
        <time>2022-02-24T15:45:49Z</time>
      </trkpt>
      <trkpt lat="46.2126" lon="5.24736">
        <ele>243.6</ele>
        <time>2022-02-24T15:45:50Z</time>
      </trkpt>
      <trkpt lat="46.21254" lon="5.24736">
        <ele>243.6</ele>
        <time>2022-02-24T15:45:51Z</time>
      </trkpt>
      <trkpt lat="46.21248" lon="5.24736">
        <ele>243.4</ele>
        <time>2022-02-24T15:45:52Z</time>
      </trkpt>
      <trkpt lat="46.21241" lon="5.24736">
        <ele>243.4</ele>
        <time>2022-02-24T15:45:53Z</time>
      </trkpt>
      <trkpt lat="46.21235" lon="5.24737">
        <ele>243.4</ele>
        <time>2022-02-24T15:45:54Z</time>
      </trkpt>
      <trkpt lat="46.21229" lon="5.24737">
        <ele>243</ele>
        <time>2022-02-24T15:45:55Z</time>
      </trkpt>
      <trkpt lat="46.21223" lon="5.24737">
        <ele>243</ele>
        <time>2022-02-24T15:45:56Z</time>
      </trkpt>
      <trkpt lat="46.21217" lon="5.24737">
        <ele>243</ele>
        <time>2022-02-24T15:45:57Z</time>
      </trkpt>
      <trkpt lat="46.21211" lon="5.24737">
        <ele>243</ele>
        <time>2022-02-24T15:45:58Z</time>
      </trkpt>
      <trkpt lat="46.21205" lon="5.24737">
        <ele>242.8</ele>
        <time>2022-02-24T15:45:59Z</time>
      </trkpt>
      <trkpt lat="46.21199" lon="5.24737">
        <ele>242.8</ele>
        <time>2022-02-24T15:46:00Z</time>
      </trkpt>
      <trkpt lat="46.21193" lon="5.24738">
        <ele>242.8</ele>
        <time>2022-02-24T15:46:01Z</time>
      </trkpt>
      <trkpt lat="46.21187" lon="5.24738">
        <ele>242.8</ele>
        <time>2022-02-24T15:46:02Z</time>
      </trkpt>
      <trkpt lat="46.21181" lon="5.24738">
        <ele>242.8</ele>
        <time>2022-02-24T15:46:03Z</time>
      </trkpt>
      <trkpt lat="46.21176" lon="5.24738">
        <ele>242.8</ele>
        <time>2022-02-24T15:46:04Z</time>
      </trkpt>
      <trkpt lat="46.2117" lon="5.24738">
        <ele>242.6</ele>
        <time>2022-02-24T15:46:05Z</time>
      </trkpt>
      <trkpt lat="46.21165" lon="5.24738">
        <ele>242.6</ele>
        <time>2022-02-24T15:46:06Z</time>
      </trkpt>
      <trkpt lat="46.2116" lon="5.24738">
        <ele>242.6</ele>
        <time>2022-02-24T15:46:07Z</time>
      </trkpt>
      <trkpt lat="46.21155" lon="5.24738">
        <ele>242.6</ele>
        <time>2022-02-24T15:46:08Z</time>
      </trkpt>
      <trkpt lat="46.21151" lon="5.24737">
        <ele>242.4</ele>
        <time>2022-02-24T15:46:09Z</time>
      </trkpt>
      <trkpt lat="46.21147" lon="5.24736">
        <ele>242.4</ele>
        <time>2022-02-24T15:46:10Z</time>
      </trkpt>
      <trkpt lat="46.21144" lon="5.24733">
        <ele>242.4</ele>
        <time>2022-02-24T15:46:11Z</time>
      </trkpt>
      <trkpt lat="46.21141" lon="5.2473">
        <ele>242.4</ele>
        <time>2022-02-24T15:46:12Z</time>
      </trkpt>
      <trkpt lat="46.21138" lon="5.24728">
        <ele>242.4</ele>
        <time>2022-02-24T15:46:13Z</time>
      </trkpt>
      <trkpt lat="46.21136" lon="5.24726">
        <ele>242.4</ele>
        <time>2022-02-24T15:46:14Z</time>
      </trkpt>
      <trkpt lat="46.21134" lon="5.24725">
        <ele>242.4</ele>
        <time>2022-02-24T15:46:15Z</time>
      </trkpt>
      <trkpt lat="46.21132" lon="5.24724">
        <ele>242.4</ele>
        <time>2022-02-24T15:46:16Z</time>
      </trkpt>
      <trkpt lat="46.2113" lon="5.24724">
        <ele>242.6</ele>
        <time>2022-02-24T15:46:17Z</time>
      </trkpt>
      <trkpt lat="46.21128" lon="5.24724">
        <ele>242.6</ele>
        <time>2022-02-24T15:46:18Z</time>
      </trkpt>
      <trkpt lat="46.21126" lon="5.24725">
        <ele>242.6</ele>
        <time>2022-02-24T15:46:19Z</time>
      </trkpt>
      <trkpt lat="46.21124" lon="5.24727">
        <ele>242.6</ele>
        <time>2022-02-24T15:46:20Z</time>
      </trkpt>
      <trkpt lat="46.21122" lon="5.24731">
        <ele>242.8</ele>
        <time>2022-02-24T15:46:21Z</time>
      </trkpt>
      <trkpt lat="46.21121" lon="5.24735">
        <ele>242.8</ele>
        <time>2022-02-24T15:46:22Z</time>
      </trkpt>
      <trkpt lat="46.21121" lon="5.2474">
        <ele>243</ele>
        <time>2022-02-24T15:46:23Z</time>
      </trkpt>
      <trkpt lat="46.21121" lon="5.24745">
        <ele>243</ele>
        <time>2022-02-24T15:46:24Z</time>
      </trkpt>
      <trkpt lat="46.2112" lon="5.2475">
        <ele>243.2</ele>
        <time>2022-02-24T15:46:25Z</time>
      </trkpt>
      <trkpt lat="46.2112" lon="5.24756">
        <ele>243.2</ele>
        <time>2022-02-24T15:46:26Z</time>
      </trkpt>
      <trkpt lat="46.2112" lon="5.24761">
        <ele>243.2</ele>
        <time>2022-02-24T15:46:27Z</time>
      </trkpt>
      <trkpt lat="46.2112" lon="5.24767">
        <ele>243.6</ele>
        <time>2022-02-24T15:46:28Z</time>
      </trkpt>
      <trkpt lat="46.2112" lon="5.24773">
        <ele>243.6</ele>
        <time>2022-02-24T15:46:29Z</time>
      </trkpt>
      <trkpt lat="46.2112" lon="5.2478">
        <ele>243.8</ele>
        <time>2022-02-24T15:46:30Z</time>
      </trkpt>
      <trkpt lat="46.2112" lon="5.24786">
        <ele>243.8</ele>
        <time>2022-02-24T15:46:31Z</time>
      </trkpt>
      <trkpt lat="46.2112" lon="5.24792">
        <ele>244.2</ele>
        <time>2022-02-24T15:46:32Z</time>
      </trkpt>
      <trkpt lat="46.21121" lon="5.24798">
        <ele>244.2</ele>
        <time>2022-02-24T15:46:33Z</time>
      </trkpt>
      <trkpt lat="46.21121" lon="5.24805">
        <ele>244.6</ele>
        <time>2022-02-24T15:46:34Z</time>
      </trkpt>
      <trkpt lat="46.21122" lon="5.24811">
        <ele>244.6</ele>
        <time>2022-02-24T15:46:35Z</time>
      </trkpt>
      <trkpt lat="46.21123" lon="5.24818">
        <ele>244.8</ele>
        <time>2022-02-24T15:46:36Z</time>
      </trkpt>
      <trkpt lat="46.21124" lon="5.24824">
        <ele>245</ele>
        <time>2022-02-24T15:46:37Z</time>
      </trkpt>
      <trkpt lat="46.21125" lon="5.24831">
        <ele>245</ele>
        <time>2022-02-24T15:46:38Z</time>
      </trkpt>
      <trkpt lat="46.21125" lon="5.24838">
        <ele>245.4</ele>
        <time>2022-02-24T15:46:39Z</time>
      </trkpt>
      <trkpt lat="46.21126" lon="5.24845">
        <ele>245.4</ele>
        <time>2022-02-24T15:46:40Z</time>
      </trkpt>
      <trkpt lat="46.21126" lon="5.24851">
        <ele>245.8</ele>
        <time>2022-02-24T15:46:41Z</time>
      </trkpt>
      <trkpt lat="46.21127" lon="5.24858">
        <ele>246</ele>
        <time>2022-02-24T15:46:42Z</time>
      </trkpt>
      <trkpt lat="46.21128" lon="5.24864">
        <ele>246</ele>
        <time>2022-02-24T15:46:43Z</time>
      </trkpt>
      <trkpt lat="46.21129" lon="5.2487">
        <ele>246.2</ele>
        <time>2022-02-24T15:46:44Z</time>
      </trkpt>
      <trkpt lat="46.2113" lon="5.24877">
        <ele>246.2</ele>
        <time>2022-02-24T15:46:45Z</time>
      </trkpt>
      <trkpt lat="46.21131" lon="5.24883">
        <ele>246.4</ele>
        <time>2022-02-24T15:46:46Z</time>
      </trkpt>
      <trkpt lat="46.21132" lon="5.2489">
        <ele>246.4</ele>
        <time>2022-02-24T15:46:47Z</time>
      </trkpt>
      <trkpt lat="46.21133" lon="5.24896">
        <ele>246.8</ele>
        <time>2022-02-24T15:46:48Z</time>
      </trkpt>
      <trkpt lat="46.21133" lon="5.24902">
        <ele>246.8</ele>
        <time>2022-02-24T15:46:49Z</time>
      </trkpt>
      <trkpt lat="46.21134" lon="5.24908">
        <ele>247</ele>
        <time>2022-02-24T15:46:50Z</time>
      </trkpt>
      <trkpt lat="46.21134" lon="5.24914">
        <ele>247</ele>
        <time>2022-02-24T15:46:51Z</time>
      </trkpt>
      <trkpt lat="46.21134" lon="5.2492">
        <ele>247.4</ele>
        <time>2022-02-24T15:46:52Z</time>
      </trkpt>
      <trkpt lat="46.21135" lon="5.24927">
        <ele>247.4</ele>
        <time>2022-02-24T15:46:53Z</time>
      </trkpt>
      <trkpt lat="46.21135" lon="5.24933">
        <ele>247.6</ele>
        <time>2022-02-24T15:46:54Z</time>
      </trkpt>
      <trkpt lat="46.21136" lon="5.24939">
        <ele>247.6</ele>
        <time>2022-02-24T15:46:55Z</time>
      </trkpt>
      <trkpt lat="46.21136" lon="5.24945">
        <ele>248</ele>
        <time>2022-02-24T15:46:56Z</time>
      </trkpt>
      <trkpt lat="46.21137" lon="5.24951">
        <ele>248</ele>
        <time>2022-02-24T15:46:57Z</time>
      </trkpt>
      <trkpt lat="46.21138" lon="5.24958">
        <ele>248.2</ele>
        <time>2022-02-24T15:46:58Z</time>
      </trkpt>
      <trkpt lat="46.21138" lon="5.24964">
        <ele>248.2</ele>
        <time>2022-02-24T15:46:59Z</time>
      </trkpt>
      <trkpt lat="46.21139" lon="5.2497">
        <ele>248.2</ele>
        <time>2022-02-24T15:47:00Z</time>
      </trkpt>
      <trkpt lat="46.2114" lon="5.24977">
        <ele>248.6</ele>
        <time>2022-02-24T15:47:01Z</time>
      </trkpt>
      <trkpt lat="46.2114" lon="5.24983">
        <ele>248.6</ele>
        <time>2022-02-24T15:47:02Z</time>
      </trkpt>
      <trkpt lat="46.21141" lon="5.2499">
        <ele>248.6</ele>
        <time>2022-02-24T15:47:03Z</time>
      </trkpt>
      <trkpt lat="46.21141" lon="5.24996">
        <ele>248.6</ele>
        <time>2022-02-24T15:47:04Z</time>
      </trkpt>
      <trkpt lat="46.21142" lon="5.25003">
        <ele>248.8</ele>
        <time>2022-02-24T15:47:05Z</time>
      </trkpt>
      <trkpt lat="46.21142" lon="5.2501">
        <ele>248.8</ele>
        <time>2022-02-24T15:47:06Z</time>
      </trkpt>
      <trkpt lat="46.21142" lon="5.25017">
        <ele>248.8</ele>
        <time>2022-02-24T15:47:07Z</time>
      </trkpt>
      <trkpt lat="46.21143" lon="5.25024">
        <ele>249.2</ele>
        <time>2022-02-24T15:47:08Z</time>
      </trkpt>
      <trkpt lat="46.21143" lon="5.25031">
        <ele>249.2</ele>
        <time>2022-02-24T15:47:09Z</time>
      </trkpt>
      <trkpt lat="46.21143" lon="5.25038">
        <ele>249.2</ele>
        <time>2022-02-24T15:47:10Z</time>
      </trkpt>
      <trkpt lat="46.21144" lon="5.25046">
        <ele>249.2</ele>
        <time>2022-02-24T15:47:11Z</time>
      </trkpt>
      <trkpt lat="46.21144" lon="5.25053">
        <ele>249.2</ele>
        <time>2022-02-24T15:47:12Z</time>
      </trkpt>
      <trkpt lat="46.21144" lon="5.2506">
        <ele>249.2</ele>
        <time>2022-02-24T15:47:13Z</time>
      </trkpt>
      <trkpt lat="46.21145" lon="5.25068">
        <ele>249.4</ele>
        <time>2022-02-24T15:47:14Z</time>
      </trkpt>
      <trkpt lat="46.21145" lon="5.25075">
        <ele>249.4</ele>
        <time>2022-02-24T15:47:15Z</time>
      </trkpt>
      <trkpt lat="46.21146" lon="5.25083">
        <ele>249.4</ele>
        <time>2022-02-24T15:47:16Z</time>
      </trkpt>
      <trkpt lat="46.21147" lon="5.25091">
        <ele>249.4</ele>
        <time>2022-02-24T15:47:17Z</time>
      </trkpt>
      <trkpt lat="46.21147" lon="5.25098">
        <ele>249.6</ele>
        <time>2022-02-24T15:47:18Z</time>
      </trkpt>
      <trkpt lat="46.21148" lon="5.25106">
        <ele>249.6</ele>
        <time>2022-02-24T15:47:19Z</time>
      </trkpt>
      <trkpt lat="46.21149" lon="5.25114">
        <ele>249.6</ele>
        <time>2022-02-24T15:47:20Z</time>
      </trkpt>
      <trkpt lat="46.21149" lon="5.25121">
        <ele>249.6</ele>
        <time>2022-02-24T15:47:21Z</time>
      </trkpt>
      <trkpt lat="46.2115" lon="5.25129">
        <ele>249.6</ele>
        <time>2022-02-24T15:47:22Z</time>
      </trkpt>
      <trkpt lat="46.2115" lon="5.25137">
        <ele>249.6</ele>
        <time>2022-02-24T15:47:23Z</time>
      </trkpt>
      <trkpt lat="46.21151" lon="5.25144">
        <ele>249.6</ele>
        <time>2022-02-24T15:47:24Z</time>
      </trkpt>
      <trkpt lat="46.21152" lon="5.25152">
        <ele>249.6</ele>
        <time>2022-02-24T15:47:25Z</time>
      </trkpt>
      <trkpt lat="46.21152" lon="5.25159">
        <ele>249.8</ele>
        <time>2022-02-24T15:47:26Z</time>
      </trkpt>
      <trkpt lat="46.21152" lon="5.25166">
        <ele>249.8</ele>
        <time>2022-02-24T15:47:27Z</time>
      </trkpt>
      <trkpt lat="46.21153" lon="5.25173">
        <ele>249.8</ele>
        <time>2022-02-24T15:47:28Z</time>
      </trkpt>
      <trkpt lat="46.21153" lon="5.2518">
        <ele>249.8</ele>
        <time>2022-02-24T15:47:29Z</time>
      </trkpt>
      <trkpt lat="46.21153" lon="5.25187">
        <ele>249.8</ele>
        <time>2022-02-24T15:47:30Z</time>
      </trkpt>
      <trkpt lat="46.21153" lon="5.25193">
        <ele>249.8</ele>
        <time>2022-02-24T15:47:31Z</time>
      </trkpt>
      <trkpt lat="46.21153" lon="5.25199">
        <ele>249.8</ele>
        <time>2022-02-24T15:47:32Z</time>
      </trkpt>
      <trkpt lat="46.21153" lon="5.25204">
        <ele>249.6</ele>
        <time>2022-02-24T15:47:33Z</time>
      </trkpt>
      <trkpt lat="46.21153" lon="5.25208">
        <ele>249.6</ele>
        <time>2022-02-24T15:47:34Z</time>
      </trkpt>
      <trkpt lat="46.21153" lon="5.25211">
        <ele>249.6</ele>
        <time>2022-02-24T15:47:35Z</time>
      </trkpt>
      <trkpt lat="46.21152" lon="5.25215">
        <ele>249.6</ele>
        <time>2022-02-24T15:47:36Z</time>
      </trkpt>
      <trkpt lat="46.21152" lon="5.25218">
        <ele>249.6</ele>
        <time>2022-02-24T15:47:37Z</time>
      </trkpt>
      <trkpt lat="46.21153" lon="5.25222">
        <ele>249.6</ele>
        <time>2022-02-24T15:47:38Z</time>
      </trkpt>
      <trkpt lat="46.21155" lon="5.25227">
        <ele>249.6</ele>
        <time>2022-02-24T15:47:39Z</time>
      </trkpt>
      <trkpt lat="46.21156" lon="5.25232">
        <ele>249.4</ele>
        <time>2022-02-24T15:47:40Z</time>
      </trkpt>
      <trkpt lat="46.21157" lon="5.25239">
        <ele>249.4</ele>
        <time>2022-02-24T15:47:41Z</time>
      </trkpt>
      <trkpt lat="46.21157" lon="5.25245">
        <ele>249.4</ele>
        <time>2022-02-24T15:47:42Z</time>
      </trkpt>
      <trkpt lat="46.21157" lon="5.25252">
        <ele>249.4</ele>
        <time>2022-02-24T15:47:43Z</time>
      </trkpt>
      <trkpt lat="46.21157" lon="5.2526">
        <ele>249</ele>
        <time>2022-02-24T15:47:44Z</time>
      </trkpt>
      <trkpt lat="46.21157" lon="5.25268">
        <ele>249</ele>
        <time>2022-02-24T15:47:45Z</time>
      </trkpt>
      <trkpt lat="46.21158" lon="5.25277">
        <ele>248.8</ele>
        <time>2022-02-24T15:47:46Z</time>
      </trkpt>
      <trkpt lat="46.21158" lon="5.25285">
        <ele>248.8</ele>
        <time>2022-02-24T15:47:47Z</time>
      </trkpt>
      <trkpt lat="46.21157" lon="5.25294">
        <ele>248.8</ele>
        <time>2022-02-24T15:47:48Z</time>
      </trkpt>
      <trkpt lat="46.21157" lon="5.25301">
        <ele>248.8</ele>
        <time>2022-02-24T15:47:49Z</time>
      </trkpt>
      <trkpt lat="46.21158" lon="5.25308">
        <ele>248.6</ele>
        <time>2022-02-24T15:47:50Z</time>
      </trkpt>
      <trkpt lat="46.21158" lon="5.25314">
        <ele>248.6</ele>
        <time>2022-02-24T15:47:51Z</time>
      </trkpt>
      <trkpt lat="46.21156" lon="5.25319">
        <ele>248.6</ele>
        <time>2022-02-24T15:47:52Z</time>
      </trkpt>
      <trkpt lat="46.21155" lon="5.25324">
        <ele>248.6</ele>
        <time>2022-02-24T15:47:53Z</time>
      </trkpt>
      <trkpt lat="46.21155" lon="5.2533">
        <ele>248.6</ele>
        <time>2022-02-24T15:47:54Z</time>
      </trkpt>
      <trkpt lat="46.21155" lon="5.25337">
        <ele>248.6</ele>
        <time>2022-02-24T15:47:55Z</time>
      </trkpt>
      <trkpt lat="46.21155" lon="5.25344">
        <ele>248.6</ele>
        <time>2022-02-24T15:47:56Z</time>
      </trkpt>
      <trkpt lat="46.21154" lon="5.25352">
        <ele>248.6</ele>
        <time>2022-02-24T15:47:57Z</time>
      </trkpt>
      <trkpt lat="46.21154" lon="5.25359">
        <ele>248.6</ele>
        <time>2022-02-24T15:47:58Z</time>
      </trkpt>
      <trkpt lat="46.21153" lon="5.25366">
        <ele>248.8</ele>
        <time>2022-02-24T15:47:59Z</time>
      </trkpt>
      <trkpt lat="46.21153" lon="5.25373">
        <ele>248.8</ele>
        <time>2022-02-24T15:48:00Z</time>
      </trkpt>
      <trkpt lat="46.21153" lon="5.2538">
        <ele>248.8</ele>
        <time>2022-02-24T15:48:01Z</time>
      </trkpt>
      <trkpt lat="46.21153" lon="5.25385">
        <ele>249.2</ele>
        <time>2022-02-24T15:48:02Z</time>
      </trkpt>
      <trkpt lat="46.21153" lon="5.25391">
        <ele>249.2</ele>
        <time>2022-02-24T15:48:03Z</time>
      </trkpt>
      <trkpt lat="46.21153" lon="5.25395">
        <ele>249.2</ele>
        <time>2022-02-24T15:48:04Z</time>
      </trkpt>
      <trkpt lat="46.21153" lon="5.25398">
        <ele>249.2</ele>
        <time>2022-02-24T15:48:05Z</time>
      </trkpt>
      <trkpt lat="46.21152" lon="5.25401">
        <ele>249.2</ele>
        <time>2022-02-24T15:48:06Z</time>
      </trkpt>
      <trkpt lat="46.21151" lon="5.25405">
        <ele>249.2</ele>
        <time>2022-02-24T15:48:07Z</time>
      </trkpt>
      <trkpt lat="46.21151" lon="5.25409">
        <ele>249.2</ele>
        <time>2022-02-24T15:48:08Z</time>
      </trkpt>
      <trkpt lat="46.21152" lon="5.25413">
        <ele>249.2</ele>
        <time>2022-02-24T15:48:09Z</time>
      </trkpt>
      <trkpt lat="46.21152" lon="5.25419">
        <ele>249.2</ele>
        <time>2022-02-24T15:48:10Z</time>
      </trkpt>
      <trkpt lat="46.21153" lon="5.25425">
        <ele>249.2</ele>
        <time>2022-02-24T15:48:11Z</time>
      </trkpt>
      <trkpt lat="46.21154" lon="5.2543">
        <ele>249.2</ele>
        <time>2022-02-24T15:48:12Z</time>
      </trkpt>
      <trkpt lat="46.21154" lon="5.25436">
        <ele>249.4</ele>
        <time>2022-02-24T15:48:13Z</time>
      </trkpt>
      <trkpt lat="46.21154" lon="5.25443">
        <ele>249.4</ele>
        <time>2022-02-24T15:48:14Z</time>
      </trkpt>
      <trkpt lat="46.21154" lon="5.25449">
        <ele>249.4</ele>
        <time>2022-02-24T15:48:15Z</time>
      </trkpt>
      <trkpt lat="46.21154" lon="5.25456">
        <ele>249.4</ele>
        <time>2022-02-24T15:48:16Z</time>
      </trkpt>
      <trkpt lat="46.21154" lon="5.25463">
        <ele>249.4</ele>
        <time>2022-02-24T15:48:17Z</time>
      </trkpt>
      <trkpt lat="46.21154" lon="5.2547">
        <ele>249.4</ele>
        <time>2022-02-24T15:48:18Z</time>
      </trkpt>
      <trkpt lat="46.21155" lon="5.25477">
        <ele>249.6</ele>
        <time>2022-02-24T15:48:19Z</time>
      </trkpt>
      <trkpt lat="46.21155" lon="5.25484">
        <ele>249.6</ele>
        <time>2022-02-24T15:48:20Z</time>
      </trkpt>
      <trkpt lat="46.21155" lon="5.25491">
        <ele>249.6</ele>
        <time>2022-02-24T15:48:21Z</time>
      </trkpt>
      <trkpt lat="46.21155" lon="5.25498">
        <ele>249.6</ele>
        <time>2022-02-24T15:48:22Z</time>
      </trkpt>
      <trkpt lat="46.21156" lon="5.25505">
        <ele>249.6</ele>
        <time>2022-02-24T15:48:23Z</time>
      </trkpt>
      <trkpt lat="46.21156" lon="5.25512">
        <ele>249.6</ele>
        <time>2022-02-24T15:48:24Z</time>
      </trkpt>
      <trkpt lat="46.21156" lon="5.25519">
        <ele>249.6</ele>
        <time>2022-02-24T15:48:25Z</time>
      </trkpt>
      <trkpt lat="46.21156" lon="5.25527">
        <ele>250</ele>
        <time>2022-02-24T15:48:26Z</time>
      </trkpt>
      <trkpt lat="46.21156" lon="5.25534">
        <ele>250</ele>
        <time>2022-02-24T15:48:27Z</time>
      </trkpt>
      <trkpt lat="46.21156" lon="5.25541">
        <ele>250</ele>
        <time>2022-02-24T15:48:28Z</time>
      </trkpt>
      <trkpt lat="46.21156" lon="5.25549">
        <ele>250</ele>
        <time>2022-02-24T15:48:29Z</time>
      </trkpt>
      <trkpt lat="46.21157" lon="5.25556">
        <ele>250</ele>
        <time>2022-02-24T15:48:30Z</time>
      </trkpt>
      <trkpt lat="46.21157" lon="5.25564">
        <ele>250</ele>
        <time>2022-02-24T15:48:31Z</time>
      </trkpt>
      <trkpt lat="46.21157" lon="5.25572">
        <ele>250</ele>
        <time>2022-02-24T15:48:32Z</time>
      </trkpt>
      <trkpt lat="46.21157" lon="5.2558">
        <ele>250</ele>
        <time>2022-02-24T15:48:33Z</time>
      </trkpt>
      <trkpt lat="46.21157" lon="5.25588">
        <ele>250</ele>
        <time>2022-02-24T15:48:34Z</time>
      </trkpt>
      <trkpt lat="46.21158" lon="5.25596">
        <ele>250</ele>
        <time>2022-02-24T15:48:35Z</time>
      </trkpt>
      <trkpt lat="46.21158" lon="5.25604">
        <ele>250</ele>
        <time>2022-02-24T15:48:36Z</time>
      </trkpt>
      <trkpt lat="46.21159" lon="5.25613">
        <ele>250</ele>
        <time>2022-02-24T15:48:37Z</time>
      </trkpt>
      <trkpt lat="46.21159" lon="5.25621">
        <ele>250</ele>
        <time>2022-02-24T15:48:38Z</time>
      </trkpt>
      <trkpt lat="46.21159" lon="5.25629">
        <ele>250</ele>
        <time>2022-02-24T15:48:39Z</time>
      </trkpt>
      <trkpt lat="46.21159" lon="5.25637">
        <ele>250</ele>
        <time>2022-02-24T15:48:40Z</time>
      </trkpt>
      <trkpt lat="46.21159" lon="5.25645">
        <ele>250</ele>
        <time>2022-02-24T15:48:41Z</time>
      </trkpt>
      <trkpt lat="46.21159" lon="5.25653">
        <ele>250</ele>
        <time>2022-02-24T15:48:42Z</time>
      </trkpt>
      <trkpt lat="46.21159" lon="5.25661">
        <ele>250</ele>
        <time>2022-02-24T15:48:43Z</time>
      </trkpt>
      <trkpt lat="46.21159" lon="5.25668">
        <ele>249.8</ele>
        <time>2022-02-24T15:48:44Z</time>
      </trkpt>
      <trkpt lat="46.21159" lon="5.25675">
        <ele>249.8</ele>
        <time>2022-02-24T15:48:45Z</time>
      </trkpt>
      <trkpt lat="46.21159" lon="5.25682">
        <ele>249.8</ele>
        <time>2022-02-24T15:48:46Z</time>
      </trkpt>
      <trkpt lat="46.2116" lon="5.25689">
        <ele>249.8</ele>
        <time>2022-02-24T15:48:47Z</time>
      </trkpt>
      <trkpt lat="46.2116" lon="5.25697">
        <ele>249.8</ele>
        <time>2022-02-24T15:48:48Z</time>
      </trkpt>
      <trkpt lat="46.2116" lon="5.25704">
        <ele>249.8</ele>
        <time>2022-02-24T15:48:49Z</time>
      </trkpt>
      <trkpt lat="46.2116" lon="5.25712">
        <ele>249.8</ele>
        <time>2022-02-24T15:48:50Z</time>
      </trkpt>
      <trkpt lat="46.2116" lon="5.25719">
        <ele>249.8</ele>
        <time>2022-02-24T15:48:51Z</time>
      </trkpt>
      <trkpt lat="46.2116" lon="5.25725">
        <ele>250</ele>
        <time>2022-02-24T15:48:52Z</time>
      </trkpt>
      <trkpt lat="46.2116" lon="5.25731">
        <ele>250</ele>
        <time>2022-02-24T15:48:53Z</time>
      </trkpt>
      <trkpt lat="46.2116" lon="5.25738">
        <ele>250</ele>
        <time>2022-02-24T15:48:54Z</time>
      </trkpt>
      <trkpt lat="46.2116" lon="5.25745">
        <ele>250</ele>
        <time>2022-02-24T15:48:55Z</time>
      </trkpt>
      <trkpt lat="46.21159" lon="5.25752">
        <ele>250</ele>
        <time>2022-02-24T15:48:56Z</time>
      </trkpt>
      <trkpt lat="46.21159" lon="5.2576">
        <ele>250</ele>
        <time>2022-02-24T15:48:57Z</time>
      </trkpt>
      <trkpt lat="46.2116" lon="5.25768">
        <ele>250</ele>
        <time>2022-02-24T15:48:58Z</time>
      </trkpt>
      <trkpt lat="46.21159" lon="5.25776">
        <ele>250</ele>
        <time>2022-02-24T15:48:59Z</time>
      </trkpt>
      <trkpt lat="46.2116" lon="5.25783">
        <ele>250</ele>
        <time>2022-02-24T15:49:00Z</time>
      </trkpt>
      <trkpt lat="46.2116" lon="5.25791">
        <ele>250</ele>
        <time>2022-02-24T15:49:01Z</time>
      </trkpt>
      <trkpt lat="46.2116" lon="5.25799">
        <ele>250</ele>
        <time>2022-02-24T15:49:02Z</time>
      </trkpt>
      <trkpt lat="46.2116" lon="5.25807">
        <ele>250</ele>
        <time>2022-02-24T15:49:03Z</time>
      </trkpt>
      <trkpt lat="46.2116" lon="5.25814">
        <ele>250</ele>
        <time>2022-02-24T15:49:04Z</time>
      </trkpt>
      <trkpt lat="46.2116" lon="5.25821">
        <ele>249.6</ele>
        <time>2022-02-24T15:49:05Z</time>
      </trkpt>
      <trkpt lat="46.21159" lon="5.25828">
        <ele>249.6</ele>
        <time>2022-02-24T15:49:06Z</time>
      </trkpt>
      <trkpt lat="46.21157" lon="5.25834">
        <ele>249.6</ele>
        <time>2022-02-24T15:49:07Z</time>
      </trkpt>
      <trkpt lat="46.21154" lon="5.2584">
        <ele>249.6</ele>
        <time>2022-02-24T15:49:08Z</time>
      </trkpt>
      <trkpt lat="46.21151" lon="5.25844">
        <ele>249.6</ele>
        <time>2022-02-24T15:49:09Z</time>
      </trkpt>
      <trkpt lat="46.21148" lon="5.25846">
        <ele>249.6</ele>
        <time>2022-02-24T15:49:10Z</time>
      </trkpt>
      <trkpt lat="46.21144" lon="5.25848">
        <ele>249.6</ele>
        <time>2022-02-24T15:49:11Z</time>
      </trkpt>
      <trkpt lat="46.21141" lon="5.2585">
        <ele>249.6</ele>
        <time>2022-02-24T15:49:12Z</time>
      </trkpt>
      <trkpt lat="46.21138" lon="5.25854">
        <ele>249.6</ele>
        <time>2022-02-24T15:49:13Z</time>
      </trkpt>
      <trkpt lat="46.21136" lon="5.25858">
        <ele>249.6</ele>
        <time>2022-02-24T15:49:14Z</time>
      </trkpt>
      <trkpt lat="46.21134" lon="5.25863">
        <ele>249.6</ele>
        <time>2022-02-24T15:49:15Z</time>
      </trkpt>
      <trkpt lat="46.21132" lon="5.25869">
        <ele>249.6</ele>
        <time>2022-02-24T15:49:16Z</time>
      </trkpt>
      <trkpt lat="46.21132" lon="5.25876">
        <ele>249.6</ele>
        <time>2022-02-24T15:49:17Z</time>
      </trkpt>
      <trkpt lat="46.21133" lon="5.25882">
        <ele>249.6</ele>
        <time>2022-02-24T15:49:18Z</time>
      </trkpt>
      <trkpt lat="46.21136" lon="5.25888">
        <ele>249.6</ele>
        <time>2022-02-24T15:49:19Z</time>
      </trkpt>
      <trkpt lat="46.21138" lon="5.25893">
        <ele>249.6</ele>
        <time>2022-02-24T15:49:20Z</time>
      </trkpt>
      <trkpt lat="46.21142" lon="5.25897">
        <ele>249.6</ele>
        <time>2022-02-24T15:49:21Z</time>
      </trkpt>
      <trkpt lat="46.21146" lon="5.25901">
        <ele>249.6</ele>
        <time>2022-02-24T15:49:22Z</time>
      </trkpt>
      <trkpt lat="46.21149" lon="5.25904">
        <ele>249.6</ele>
        <time>2022-02-24T15:49:23Z</time>
      </trkpt>
      <trkpt lat="46.21152" lon="5.25909">
        <ele>249.6</ele>
        <time>2022-02-24T15:49:24Z</time>
      </trkpt>
      <trkpt lat="46.21154" lon="5.25915">
        <ele>249.6</ele>
        <time>2022-02-24T15:49:25Z</time>
      </trkpt>
      <trkpt lat="46.21155" lon="5.2592">
        <ele>249.6</ele>
        <time>2022-02-24T15:49:26Z</time>
      </trkpt>
      <trkpt lat="46.21156" lon="5.25926">
        <ele>249.6</ele>
        <time>2022-02-24T15:49:27Z</time>
      </trkpt>
      <trkpt lat="46.21157" lon="5.25931">
        <ele>249.4</ele>
        <time>2022-02-24T15:49:28Z</time>
      </trkpt>
      <trkpt lat="46.21158" lon="5.25936">
        <ele>249.4</ele>
        <time>2022-02-24T15:49:29Z</time>
      </trkpt>
      <trkpt lat="46.21158" lon="5.25942">
        <ele>249.4</ele>
        <time>2022-02-24T15:49:30Z</time>
      </trkpt>
      <trkpt lat="46.2116" lon="5.25947">
        <ele>249.4</ele>
        <time>2022-02-24T15:49:31Z</time>
      </trkpt>
      <trkpt lat="46.2116" lon="5.25954">
        <ele>249.4</ele>
        <time>2022-02-24T15:49:32Z</time>
      </trkpt>
      <trkpt lat="46.2116" lon="5.25961">
        <ele>249.4</ele>
        <time>2022-02-24T15:49:33Z</time>
      </trkpt>
      <trkpt lat="46.2116" lon="5.25968">
        <ele>249.4</ele>
        <time>2022-02-24T15:49:34Z</time>
      </trkpt>
      <trkpt lat="46.2116" lon="5.25976">
        <ele>249.4</ele>
        <time>2022-02-24T15:49:35Z</time>
      </trkpt>
      <trkpt lat="46.2116" lon="5.25983">
        <ele>249.4</ele>
        <time>2022-02-24T15:49:36Z</time>
      </trkpt>
      <trkpt lat="46.2116" lon="5.25992">
        <ele>249.4</ele>
        <time>2022-02-24T15:49:37Z</time>
      </trkpt>
      <trkpt lat="46.2116" lon="5.26">
        <ele>249.4</ele>
        <time>2022-02-24T15:49:38Z</time>
      </trkpt>
      <trkpt lat="46.21161" lon="5.26008">
        <ele>249.4</ele>
        <time>2022-02-24T15:49:39Z</time>
      </trkpt>
      <trkpt lat="46.21161" lon="5.26017">
        <ele>249.4</ele>
        <time>2022-02-24T15:49:40Z</time>
      </trkpt>
      <trkpt lat="46.21162" lon="5.26025">
        <ele>249.4</ele>
        <time>2022-02-24T15:49:41Z</time>
      </trkpt>
      <trkpt lat="46.21161" lon="5.26033">
        <ele>249.4</ele>
        <time>2022-02-24T15:49:42Z</time>
      </trkpt>
      <trkpt lat="46.21161" lon="5.26042">
        <ele>249.4</ele>
        <time>2022-02-24T15:49:43Z</time>
      </trkpt>
      <trkpt lat="46.21161" lon="5.2605">
        <ele>249.4</ele>
        <time>2022-02-24T15:49:44Z</time>
      </trkpt>
      <trkpt lat="46.21161" lon="5.26059">
        <ele>249.4</ele>
        <time>2022-02-24T15:49:45Z</time>
      </trkpt>
      <trkpt lat="46.21162" lon="5.26067">
        <ele>249.4</ele>
        <time>2022-02-24T15:49:46Z</time>
      </trkpt>
      <trkpt lat="46.21162" lon="5.26075">
        <ele>249.6</ele>
        <time>2022-02-24T15:49:47Z</time>
      </trkpt>
      <trkpt lat="46.21162" lon="5.26084">
        <ele>249.6</ele>
        <time>2022-02-24T15:49:48Z</time>
      </trkpt>
      <trkpt lat="46.21162" lon="5.26092">
        <ele>249.6</ele>
        <time>2022-02-24T15:49:49Z</time>
      </trkpt>
      <trkpt lat="46.21163" lon="5.26101">
        <ele>249.6</ele>
        <time>2022-02-24T15:49:50Z</time>
      </trkpt>
      <trkpt lat="46.21163" lon="5.26109">
        <ele>249.6</ele>
        <time>2022-02-24T15:49:51Z</time>
      </trkpt>
      <trkpt lat="46.21163" lon="5.26118">
        <ele>249.6</ele>
        <time>2022-02-24T15:49:52Z</time>
      </trkpt>
      <trkpt lat="46.21163" lon="5.26128">
        <ele>249.6</ele>
        <time>2022-02-24T15:49:53Z</time>
      </trkpt>
      <trkpt lat="46.21163" lon="5.26137">
        <ele>249.6</ele>
        <time>2022-02-24T15:49:54Z</time>
      </trkpt>
      <trkpt lat="46.21163" lon="5.26147">
        <ele>249.6</ele>
        <time>2022-02-24T15:49:55Z</time>
      </trkpt>
      <trkpt lat="46.21163" lon="5.26156">
        <ele>249.6</ele>
        <time>2022-02-24T15:49:56Z</time>
      </trkpt>
      <trkpt lat="46.21164" lon="5.26166">
        <ele>249.6</ele>
        <time>2022-02-24T15:49:57Z</time>
      </trkpt>
      <trkpt lat="46.21164" lon="5.26176">
        <ele>249.6</ele>
        <time>2022-02-24T15:49:58Z</time>
      </trkpt>
      <trkpt lat="46.21164" lon="5.26185">
        <ele>249.6</ele>
        <time>2022-02-24T15:49:59Z</time>
      </trkpt>
      <trkpt lat="46.21164" lon="5.26195">
        <ele>249.6</ele>
        <time>2022-02-24T15:50:00Z</time>
      </trkpt>
      <trkpt lat="46.21164" lon="5.26204">
        <ele>249.6</ele>
        <time>2022-02-24T15:50:01Z</time>
      </trkpt>
      <trkpt lat="46.21164" lon="5.26214">
        <ele>249.6</ele>
        <time>2022-02-24T15:50:02Z</time>
      </trkpt>
      <trkpt lat="46.21164" lon="5.26223">
        <ele>249.6</ele>
        <time>2022-02-24T15:50:03Z</time>
      </trkpt>
      <trkpt lat="46.21164" lon="5.26233">
        <ele>249.6</ele>
        <time>2022-02-24T15:50:04Z</time>
      </trkpt>
      <trkpt lat="46.21164" lon="5.26242">
        <ele>249.6</ele>
        <time>2022-02-24T15:50:05Z</time>
      </trkpt>
      <trkpt lat="46.21164" lon="5.26252">
        <ele>249.6</ele>
        <time>2022-02-24T15:50:06Z</time>
      </trkpt>
      <trkpt lat="46.21164" lon="5.26261">
        <ele>249.6</ele>
        <time>2022-02-24T15:50:07Z</time>
      </trkpt>
      <trkpt lat="46.21164" lon="5.2627">
        <ele>249.6</ele>
        <time>2022-02-24T15:50:08Z</time>
      </trkpt>
      <trkpt lat="46.21164" lon="5.2628">
        <ele>249.6</ele>
        <time>2022-02-24T15:50:09Z</time>
      </trkpt>
      <trkpt lat="46.21164" lon="5.26289">
        <ele>249.6</ele>
        <time>2022-02-24T15:50:10Z</time>
      </trkpt>
      <trkpt lat="46.21164" lon="5.26299">
        <ele>249.6</ele>
        <time>2022-02-24T15:50:11Z</time>
      </trkpt>
      <trkpt lat="46.21164" lon="5.26308">
        <ele>250</ele>
        <time>2022-02-24T15:50:12Z</time>
      </trkpt>
      <trkpt lat="46.21164" lon="5.26318">
        <ele>250</ele>
        <time>2022-02-24T15:50:13Z</time>
      </trkpt>
      <trkpt lat="46.21164" lon="5.26327">
        <ele>250</ele>
        <time>2022-02-24T15:50:14Z</time>
      </trkpt>
      <trkpt lat="46.21165" lon="5.26336">
        <ele>250</ele>
        <time>2022-02-24T15:50:15Z</time>
      </trkpt>
      <trkpt lat="46.21165" lon="5.26346">
        <ele>250</ele>
        <time>2022-02-24T15:50:16Z</time>
      </trkpt>
      <trkpt lat="46.21165" lon="5.26355">
        <ele>250.2</ele>
        <time>2022-02-24T15:50:17Z</time>
      </trkpt>
      <trkpt lat="46.21165" lon="5.26364">
        <ele>250.2</ele>
        <time>2022-02-24T15:50:18Z</time>
      </trkpt>
      <trkpt lat="46.21165" lon="5.26373">
        <ele>250.2</ele>
        <time>2022-02-24T15:50:19Z</time>
      </trkpt>
      <trkpt lat="46.21165" lon="5.26382">
        <ele>250.6</ele>
        <time>2022-02-24T15:50:20Z</time>
      </trkpt>
      <trkpt lat="46.21165" lon="5.26391">
        <ele>250.6</ele>
        <time>2022-02-24T15:50:21Z</time>
      </trkpt>
      <trkpt lat="46.21165" lon="5.26399">
        <ele>250.8</ele>
        <time>2022-02-24T15:50:22Z</time>
      </trkpt>
      <trkpt lat="46.21165" lon="5.26407">
        <ele>251</ele>
        <time>2022-02-24T15:50:23Z</time>
      </trkpt>
      <trkpt lat="46.21165" lon="5.26415">
        <ele>251.2</ele>
        <time>2022-02-24T15:50:24Z</time>
      </trkpt>
      <trkpt lat="46.21165" lon="5.26423">
        <ele>251.2</ele>
        <time>2022-02-24T15:50:25Z</time>
      </trkpt>
      <trkpt lat="46.21166" lon="5.26431">
        <ele>251.6</ele>
        <time>2022-02-24T15:50:26Z</time>
      </trkpt>
      <trkpt lat="46.21166" lon="5.26439">
        <ele>251.8</ele>
        <time>2022-02-24T15:50:27Z</time>
      </trkpt>
      <trkpt lat="46.21166" lon="5.26447">
        <ele>252</ele>
        <time>2022-02-24T15:50:28Z</time>
      </trkpt>
      <trkpt lat="46.21166" lon="5.26455">
        <ele>252</ele>
        <time>2022-02-24T15:50:29Z</time>
      </trkpt>
      <trkpt lat="46.21166" lon="5.26463">
        <ele>252.4</ele>
        <time>2022-02-24T15:50:30Z</time>
      </trkpt>
      <trkpt lat="46.21166" lon="5.26471">
        <ele>252.4</ele>
        <time>2022-02-24T15:50:31Z</time>
      </trkpt>
      <trkpt lat="46.21166" lon="5.26479">
        <ele>252.4</ele>
        <time>2022-02-24T15:50:32Z</time>
      </trkpt>
      <trkpt lat="46.21166" lon="5.26487">
        <ele>252.6</ele>
        <time>2022-02-24T15:50:33Z</time>
      </trkpt>
      <trkpt lat="46.21166" lon="5.26495">
        <ele>252.6</ele>
        <time>2022-02-24T15:50:34Z</time>
      </trkpt>
      <trkpt lat="46.21166" lon="5.26503">
        <ele>252.6</ele>
        <time>2022-02-24T15:50:35Z</time>
      </trkpt>
      <trkpt lat="46.21166" lon="5.26512">
        <ele>252.6</ele>
        <time>2022-02-24T15:50:36Z</time>
      </trkpt>
      <trkpt lat="46.21166" lon="5.2652">
        <ele>252.8</ele>
        <time>2022-02-24T15:50:37Z</time>
      </trkpt>
      <trkpt lat="46.21166" lon="5.26528">
        <ele>252.8</ele>
        <time>2022-02-24T15:50:38Z</time>
      </trkpt>
      <trkpt lat="46.21166" lon="5.26536">
        <ele>252.8</ele>
        <time>2022-02-24T15:50:39Z</time>
      </trkpt>
      <trkpt lat="46.21166" lon="5.26545">
        <ele>252.8</ele>
        <time>2022-02-24T15:50:40Z</time>
      </trkpt>
      <trkpt lat="46.21166" lon="5.26554">
        <ele>252.8</ele>
        <time>2022-02-24T15:50:41Z</time>
      </trkpt>
      <trkpt lat="46.21166" lon="5.26562">
        <ele>252.8</ele>
        <time>2022-02-24T15:50:42Z</time>
      </trkpt>
      <trkpt lat="46.21166" lon="5.26571">
        <ele>252.8</ele>
        <time>2022-02-24T15:50:43Z</time>
      </trkpt>
      <trkpt lat="46.21166" lon="5.2658">
        <ele>252.8</ele>
        <time>2022-02-24T15:50:44Z</time>
      </trkpt>
      <trkpt lat="46.21166" lon="5.26589">
        <ele>252.8</ele>
        <time>2022-02-24T15:50:45Z</time>
      </trkpt>
      <trkpt lat="46.21166" lon="5.26598">
        <ele>252.8</ele>
        <time>2022-02-24T15:50:46Z</time>
      </trkpt>
      <trkpt lat="46.21166" lon="5.26607">
        <ele>252.8</ele>
        <time>2022-02-24T15:50:47Z</time>
      </trkpt>
      <trkpt lat="46.21166" lon="5.26616">
        <ele>252.8</ele>
        <time>2022-02-24T15:50:48Z</time>
      </trkpt>
      <trkpt lat="46.21166" lon="5.26625">
        <ele>252.8</ele>
        <time>2022-02-24T15:50:49Z</time>
      </trkpt>
      <trkpt lat="46.21166" lon="5.26634">
        <ele>252.8</ele>
        <time>2022-02-24T15:50:50Z</time>
      </trkpt>
      <trkpt lat="46.21166" lon="5.26643">
        <ele>252.8</ele>
        <time>2022-02-24T15:50:51Z</time>
      </trkpt>
      <trkpt lat="46.21166" lon="5.26653">
        <ele>252.8</ele>
        <time>2022-02-24T15:50:52Z</time>
      </trkpt>
      <trkpt lat="46.21166" lon="5.26662">
        <ele>252.8</ele>
        <time>2022-02-24T15:50:53Z</time>
      </trkpt>
      <trkpt lat="46.21166" lon="5.26672">
        <ele>252.8</ele>
        <time>2022-02-24T15:50:54Z</time>
      </trkpt>
      <trkpt lat="46.21166" lon="5.26681">
        <ele>252.8</ele>
        <time>2022-02-24T15:50:55Z</time>
      </trkpt>
      <trkpt lat="46.21167" lon="5.2669">
        <ele>252.8</ele>
        <time>2022-02-24T15:50:56Z</time>
      </trkpt>
      <trkpt lat="46.21167" lon="5.26699">
        <ele>252.8</ele>
        <time>2022-02-24T15:50:57Z</time>
      </trkpt>
      <trkpt lat="46.21166" lon="5.26708">
        <ele>252.8</ele>
        <time>2022-02-24T15:50:58Z</time>
      </trkpt>
      <trkpt lat="46.21166" lon="5.26717">
        <ele>252.8</ele>
        <time>2022-02-24T15:50:59Z</time>
      </trkpt>
      <trkpt lat="46.21166" lon="5.26726">
        <ele>252.8</ele>
        <time>2022-02-24T15:51:00Z</time>
      </trkpt>
      <trkpt lat="46.21166" lon="5.26735">
        <ele>253.2</ele>
        <time>2022-02-24T15:51:01Z</time>
      </trkpt>
      <trkpt lat="46.21166" lon="5.26744">
        <ele>253.2</ele>
        <time>2022-02-24T15:51:02Z</time>
      </trkpt>
      <trkpt lat="46.21166" lon="5.26752">
        <ele>253.4</ele>
        <time>2022-02-24T15:51:03Z</time>
      </trkpt>
      <trkpt lat="46.21166" lon="5.26761">
        <ele>253.4</ele>
        <time>2022-02-24T15:51:04Z</time>
      </trkpt>
      <trkpt lat="46.21166" lon="5.2677">
        <ele>253.8</ele>
        <time>2022-02-24T15:51:05Z</time>
      </trkpt>
      <trkpt lat="46.21166" lon="5.26778">
        <ele>253.8</ele>
        <time>2022-02-24T15:51:06Z</time>
      </trkpt>
      <trkpt lat="46.21166" lon="5.26786">
        <ele>254</ele>
        <time>2022-02-24T15:51:07Z</time>
      </trkpt>
      <trkpt lat="46.21166" lon="5.26795">
        <ele>254</ele>
        <time>2022-02-24T15:51:08Z</time>
      </trkpt>
      <trkpt lat="46.21166" lon="5.26803">
        <ele>254.4</ele>
        <time>2022-02-24T15:51:09Z</time>
      </trkpt>
      <trkpt lat="46.21166" lon="5.26812">
        <ele>254.4</ele>
        <time>2022-02-24T15:51:10Z</time>
      </trkpt>
      <trkpt lat="46.21166" lon="5.2682">
        <ele>254.4</ele>
        <time>2022-02-24T15:51:11Z</time>
      </trkpt>
      <trkpt lat="46.21167" lon="5.26828">
        <ele>254.6</ele>
        <time>2022-02-24T15:51:12Z</time>
      </trkpt>
      <trkpt lat="46.21167" lon="5.26836">
        <ele>254.6</ele>
        <time>2022-02-24T15:51:13Z</time>
      </trkpt>
      <trkpt lat="46.21167" lon="5.26845">
        <ele>254.6</ele>
        <time>2022-02-24T15:51:14Z</time>
      </trkpt>
      <trkpt lat="46.21167" lon="5.26853">
        <ele>254.8</ele>
        <time>2022-02-24T15:51:15Z</time>
      </trkpt>
      <trkpt lat="46.21167" lon="5.26861">
        <ele>254.8</ele>
        <time>2022-02-24T15:51:16Z</time>
      </trkpt>
      <trkpt lat="46.21167" lon="5.26869">
        <ele>255.4</ele>
        <time>2022-02-24T15:51:17Z</time>
      </trkpt>
      <trkpt lat="46.21166" lon="5.26877">
        <ele>255.4</ele>
        <time>2022-02-24T15:51:18Z</time>
      </trkpt>
      <trkpt lat="46.21166" lon="5.26885">
        <ele>255.4</ele>
        <time>2022-02-24T15:51:19Z</time>
      </trkpt>
      <trkpt lat="46.21166" lon="5.26893">
        <ele>255.8</ele>
        <time>2022-02-24T15:51:20Z</time>
      </trkpt>
      <trkpt lat="46.21166" lon="5.26901">
        <ele>255.8</ele>
        <time>2022-02-24T15:51:21Z</time>
      </trkpt>
      <trkpt lat="46.21166" lon="5.26909">
        <ele>255.8</ele>
        <time>2022-02-24T15:51:22Z</time>
      </trkpt>
      <trkpt lat="46.21166" lon="5.26917">
        <ele>255.8</ele>
        <time>2022-02-24T15:51:23Z</time>
      </trkpt>
      <trkpt lat="46.21166" lon="5.26925">
        <ele>255.8</ele>
        <time>2022-02-24T15:51:24Z</time>
      </trkpt>
      <trkpt lat="46.21166" lon="5.26933">
        <ele>256</ele>
        <time>2022-02-24T15:51:25Z</time>
      </trkpt>
      <trkpt lat="46.21166" lon="5.26941">
        <ele>256</ele>
        <time>2022-02-24T15:51:26Z</time>
      </trkpt>
      <trkpt lat="46.21166" lon="5.26949">
        <ele>256</ele>
        <time>2022-02-24T15:51:27Z</time>
      </trkpt>
      <trkpt lat="46.21166" lon="5.26957">
        <ele>256.2</ele>
        <time>2022-02-24T15:51:28Z</time>
      </trkpt>
      <trkpt lat="46.21166" lon="5.26966">
        <ele>256.2</ele>
        <time>2022-02-24T15:51:29Z</time>
      </trkpt>
      <trkpt lat="46.21166" lon="5.26974">
        <ele>256.2</ele>
        <time>2022-02-24T15:51:30Z</time>
      </trkpt>
      <trkpt lat="46.21166" lon="5.26982">
        <ele>256.2</ele>
        <time>2022-02-24T15:51:31Z</time>
      </trkpt>
      <trkpt lat="46.21165" lon="5.26991">
        <ele>256.4</ele>
        <time>2022-02-24T15:51:32Z</time>
      </trkpt>
      <trkpt lat="46.21165" lon="5.26999">
        <ele>256.4</ele>
        <time>2022-02-24T15:51:33Z</time>
      </trkpt>
      <trkpt lat="46.21165" lon="5.27007">
        <ele>256.4</ele>
        <time>2022-02-24T15:51:34Z</time>
      </trkpt>
      <trkpt lat="46.21165" lon="5.27016">
        <ele>256.4</ele>
        <time>2022-02-24T15:51:35Z</time>
      </trkpt>
      <trkpt lat="46.21165" lon="5.27024">
        <ele>256.6</ele>
        <time>2022-02-24T15:51:36Z</time>
      </trkpt>
      <trkpt lat="46.21165" lon="5.27033">
        <ele>256.6</ele>
        <time>2022-02-24T15:51:37Z</time>
      </trkpt>
      <trkpt lat="46.21165" lon="5.27042">
        <ele>256.6</ele>
        <time>2022-02-24T15:51:38Z</time>
      </trkpt>
      <trkpt lat="46.21165" lon="5.27051">
        <ele>256.6</ele>
        <time>2022-02-24T15:51:39Z</time>
      </trkpt>
      <trkpt lat="46.21165" lon="5.2706">
        <ele>256.6</ele>
        <time>2022-02-24T15:51:40Z</time>
      </trkpt>
      <trkpt lat="46.21165" lon="5.2707">
        <ele>256.4</ele>
        <time>2022-02-24T15:51:41Z</time>
      </trkpt>
      <trkpt lat="46.21165" lon="5.2708">
        <ele>256.2</ele>
        <time>2022-02-24T15:51:42Z</time>
      </trkpt>
      <trkpt lat="46.21165" lon="5.2709">
        <ele>255.8</ele>
        <time>2022-02-24T15:51:43Z</time>
      </trkpt>
      <trkpt lat="46.21165" lon="5.271">
        <ele>255.6</ele>
        <time>2022-02-24T15:51:44Z</time>
      </trkpt>
      <trkpt lat="46.21165" lon="5.27109">
        <ele>255.4</ele>
        <time>2022-02-24T15:51:45Z</time>
      </trkpt>
      <trkpt lat="46.21165" lon="5.27118">
        <ele>255.2</ele>
        <time>2022-02-24T15:51:46Z</time>
      </trkpt>
      <trkpt lat="46.21164" lon="5.27127">
        <ele>255.2</ele>
        <time>2022-02-24T15:51:47Z</time>
      </trkpt>
      <trkpt lat="46.21164" lon="5.27135">
        <ele>254.8</ele>
        <time>2022-02-24T15:51:48Z</time>
      </trkpt>
      <trkpt lat="46.21164" lon="5.27141">
        <ele>254.8</ele>
        <time>2022-02-24T15:51:49Z</time>
      </trkpt>
      <trkpt lat="46.21163" lon="5.27147">
        <ele>254.6</ele>
        <time>2022-02-24T15:51:50Z</time>
      </trkpt>
      <trkpt lat="46.21163" lon="5.27152">
        <ele>254.6</ele>
        <time>2022-02-24T15:51:51Z</time>
      </trkpt>
      <trkpt lat="46.21162" lon="5.27157">
        <ele>254.6</ele>
        <time>2022-02-24T15:51:52Z</time>
      </trkpt>
      <trkpt lat="46.21162" lon="5.27161">
        <ele>254.6</ele>
        <time>2022-02-24T15:51:53Z</time>
      </trkpt>
      <trkpt lat="46.21161" lon="5.27165">
        <ele>254.4</ele>
        <time>2022-02-24T15:51:54Z</time>
      </trkpt>
      <trkpt lat="46.2116" lon="5.27168">
        <ele>254.4</ele>
        <time>2022-02-24T15:51:55Z</time>
      </trkpt>
      <trkpt lat="46.21159" lon="5.2717">
        <ele>254.4</ele>
        <time>2022-02-24T15:51:56Z</time>
      </trkpt>
      <trkpt lat="46.21159" lon="5.27172">
        <ele>254.4</ele>
        <time>2022-02-24T15:51:57Z</time>
      </trkpt>
      <trkpt lat="46.21158" lon="5.27173">
        <ele>254.4</ele>
        <time>2022-02-24T15:51:58Z</time>
      </trkpt>
      <trkpt lat="46.21158" lon="5.27174">
        <ele>254.4</ele>
        <time>2022-02-24T15:51:59Z</time>
      </trkpt>
      <trkpt lat="46.21154" lon="5.27179">
        <ele>254.4</ele>
        <time>2022-02-24T15:52:02Z</time>
      </trkpt>
      <trkpt lat="46.21152" lon="5.27182">
        <ele>254.4</ele>
        <time>2022-02-24T15:52:03Z</time>
      </trkpt>
      <trkpt lat="46.21149" lon="5.27185">
        <ele>254.4</ele>
        <time>2022-02-24T15:52:04Z</time>
      </trkpt>
      <trkpt lat="46.21147" lon="5.27189">
        <ele>254.6</ele>
        <time>2022-02-24T15:52:05Z</time>
      </trkpt>
      <trkpt lat="46.21146" lon="5.27193">
        <ele>254.6</ele>
        <time>2022-02-24T15:52:06Z</time>
      </trkpt>
      <trkpt lat="46.21145" lon="5.27198">
        <ele>254.6</ele>
        <time>2022-02-24T15:52:07Z</time>
      </trkpt>
      <trkpt lat="46.21144" lon="5.27204">
        <ele>254.6</ele>
        <time>2022-02-24T15:52:08Z</time>
      </trkpt>
      <trkpt lat="46.21144" lon="5.2721">
        <ele>255</ele>
        <time>2022-02-24T15:52:09Z</time>
      </trkpt>
      <trkpt lat="46.21146" lon="5.27216">
        <ele>255</ele>
        <time>2022-02-24T15:52:10Z</time>
      </trkpt>
      <trkpt lat="46.21149" lon="5.27222">
        <ele>255</ele>
        <time>2022-02-24T15:52:11Z</time>
      </trkpt>
      <trkpt lat="46.21151" lon="5.27228">
        <ele>255</ele>
        <time>2022-02-24T15:52:12Z</time>
      </trkpt>
      <trkpt lat="46.21154" lon="5.27234">
        <ele>255</ele>
        <time>2022-02-24T15:52:13Z</time>
      </trkpt>
      <trkpt lat="46.21157" lon="5.27241">
        <ele>255</ele>
        <time>2022-02-24T15:52:14Z</time>
      </trkpt>
      <trkpt lat="46.21158" lon="5.27249">
        <ele>255</ele>
        <time>2022-02-24T15:52:15Z</time>
      </trkpt>
      <trkpt lat="46.2116" lon="5.27257">
        <ele>255</ele>
        <time>2022-02-24T15:52:16Z</time>
      </trkpt>
      <trkpt lat="46.21161" lon="5.27265">
        <ele>255</ele>
        <time>2022-02-24T15:52:17Z</time>
      </trkpt>
      <trkpt lat="46.21162" lon="5.27274">
        <ele>255</ele>
        <time>2022-02-24T15:52:18Z</time>
      </trkpt>
      <trkpt lat="46.21163" lon="5.27283">
        <ele>255</ele>
        <time>2022-02-24T15:52:19Z</time>
      </trkpt>
      <trkpt lat="46.21163" lon="5.27292">
        <ele>255</ele>
        <time>2022-02-24T15:52:20Z</time>
      </trkpt>
      <trkpt lat="46.21164" lon="5.27302">
        <ele>255</ele>
        <time>2022-02-24T15:52:21Z</time>
      </trkpt>
      <trkpt lat="46.21164" lon="5.27311">
        <ele>255</ele>
        <time>2022-02-24T15:52:22Z</time>
      </trkpt>
      <trkpt lat="46.21165" lon="5.2732">
        <ele>255</ele>
        <time>2022-02-24T15:52:23Z</time>
      </trkpt>
      <trkpt lat="46.21165" lon="5.27329">
        <ele>255</ele>
        <time>2022-02-24T15:52:24Z</time>
      </trkpt>
      <trkpt lat="46.21165" lon="5.27339">
        <ele>254.6</ele>
        <time>2022-02-24T15:52:25Z</time>
      </trkpt>
      <trkpt lat="46.21166" lon="5.27348">
        <ele>254.6</ele>
        <time>2022-02-24T15:52:26Z</time>
      </trkpt>
      <trkpt lat="46.21166" lon="5.27358">
        <ele>254.6</ele>
        <time>2022-02-24T15:52:27Z</time>
      </trkpt>
      <trkpt lat="46.21166" lon="5.27368">
        <ele>254.6</ele>
        <time>2022-02-24T15:52:28Z</time>
      </trkpt>
      <trkpt lat="46.21166" lon="5.27378">
        <ele>254.6</ele>
        <time>2022-02-24T15:52:29Z</time>
      </trkpt>
      <trkpt lat="46.21166" lon="5.27388">
        <ele>254.6</ele>
        <time>2022-02-24T15:52:30Z</time>
      </trkpt>
      <trkpt lat="46.21166" lon="5.27398">
        <ele>254.6</ele>
        <time>2022-02-24T15:52:31Z</time>
      </trkpt>
      <trkpt lat="46.21166" lon="5.27408">
        <ele>254.6</ele>
        <time>2022-02-24T15:52:32Z</time>
      </trkpt>
      <trkpt lat="46.21166" lon="5.27418">
        <ele>254.6</ele>
        <time>2022-02-24T15:52:33Z</time>
      </trkpt>
      <trkpt lat="46.21166" lon="5.27428">
        <ele>254.4</ele>
        <time>2022-02-24T15:52:34Z</time>
      </trkpt>
      <trkpt lat="46.21166" lon="5.27439">
        <ele>254.4</ele>
        <time>2022-02-24T15:52:35Z</time>
      </trkpt>
      <trkpt lat="46.21167" lon="5.27449">
        <ele>254.4</ele>
        <time>2022-02-24T15:52:36Z</time>
      </trkpt>
      <trkpt lat="46.21167" lon="5.27459">
        <ele>254.4</ele>
        <time>2022-02-24T15:52:37Z</time>
      </trkpt>
      <trkpt lat="46.21167" lon="5.2747">
        <ele>254.2</ele>
        <time>2022-02-24T15:52:38Z</time>
      </trkpt>
      <trkpt lat="46.21167" lon="5.2748">
        <ele>254.2</ele>
        <time>2022-02-24T15:52:39Z</time>
      </trkpt>
      <trkpt lat="46.21167" lon="5.27491">
        <ele>254.2</ele>
        <time>2022-02-24T15:52:40Z</time>
      </trkpt>
      <trkpt lat="46.21167" lon="5.27502">
        <ele>254.2</ele>
        <time>2022-02-24T15:52:41Z</time>
      </trkpt>
      <trkpt lat="46.21167" lon="5.27512">
        <ele>254</ele>
        <time>2022-02-24T15:52:42Z</time>
      </trkpt>
      <trkpt lat="46.21167" lon="5.27523">
        <ele>254</ele>
        <time>2022-02-24T15:52:43Z</time>
      </trkpt>
      <trkpt lat="46.21167" lon="5.27534">
        <ele>253.8</ele>
        <time>2022-02-24T15:52:44Z</time>
      </trkpt>
      <trkpt lat="46.21167" lon="5.27545">
        <ele>253.8</ele>
        <time>2022-02-24T15:52:45Z</time>
      </trkpt>
      <trkpt lat="46.21167" lon="5.27556">
        <ele>253.8</ele>
        <time>2022-02-24T15:52:46Z</time>
      </trkpt>
      <trkpt lat="46.21167" lon="5.27568">
        <ele>253.4</ele>
        <time>2022-02-24T15:52:47Z</time>
      </trkpt>
      <trkpt lat="46.21167" lon="5.2758">
        <ele>253.4</ele>
        <time>2022-02-24T15:52:48Z</time>
      </trkpt>
      <trkpt lat="46.21167" lon="5.27591">
        <ele>253</ele>
        <time>2022-02-24T15:52:49Z</time>
      </trkpt>
      <trkpt lat="46.21167" lon="5.27603">
        <ele>253</ele>
        <time>2022-02-24T15:52:50Z</time>
      </trkpt>
      <trkpt lat="46.21167" lon="5.27615">
        <ele>252.8</ele>
        <time>2022-02-24T15:52:51Z</time>
      </trkpt>
      <trkpt lat="46.21167" lon="5.27627">
        <ele>252.8</ele>
        <time>2022-02-24T15:52:52Z</time>
      </trkpt>
      <trkpt lat="46.21167" lon="5.27639">
        <ele>252.6</ele>
        <time>2022-02-24T15:52:53Z</time>
      </trkpt>
      <trkpt lat="46.21167" lon="5.2765">
        <ele>252.6</ele>
        <time>2022-02-24T15:52:54Z</time>
      </trkpt>
      <trkpt lat="46.21168" lon="5.27662">
        <ele>252.4</ele>
        <time>2022-02-24T15:52:55Z</time>
      </trkpt>
      <trkpt lat="46.21168" lon="5.27673">
        <ele>252.4</ele>
        <time>2022-02-24T15:52:56Z</time>
      </trkpt>
      <trkpt lat="46.21168" lon="5.27684">
        <ele>252.4</ele>
        <time>2022-02-24T15:52:57Z</time>
      </trkpt>
      <trkpt lat="46.21168" lon="5.27695">
        <ele>252.4</ele>
        <time>2022-02-24T15:52:58Z</time>
      </trkpt>
      <trkpt lat="46.21168" lon="5.27706">
        <ele>252.4</ele>
        <time>2022-02-24T15:52:59Z</time>
      </trkpt>
      <trkpt lat="46.21168" lon="5.27716">
        <ele>252.4</ele>
        <time>2022-02-24T15:53:00Z</time>
      </trkpt>
      <trkpt lat="46.21168" lon="5.27727">
        <ele>252.4</ele>
        <time>2022-02-24T15:53:01Z</time>
      </trkpt>
      <trkpt lat="46.21168" lon="5.27737">
        <ele>252.6</ele>
        <time>2022-02-24T15:53:02Z</time>
      </trkpt>
      <trkpt lat="46.21168" lon="5.27748">
        <ele>252.6</ele>
        <time>2022-02-24T15:53:03Z</time>
      </trkpt>
      <trkpt lat="46.21168" lon="5.27758">
        <ele>252.6</ele>
        <time>2022-02-24T15:53:04Z</time>
      </trkpt>
      <trkpt lat="46.21168" lon="5.27768">
        <ele>252.6</ele>
        <time>2022-02-24T15:53:05Z</time>
      </trkpt>
      <trkpt lat="46.21169" lon="5.27778">
        <ele>252.6</ele>
        <time>2022-02-24T15:53:06Z</time>
      </trkpt>
      <trkpt lat="46.21169" lon="5.27788">
        <ele>252.6</ele>
        <time>2022-02-24T15:53:07Z</time>
      </trkpt>
      <trkpt lat="46.21169" lon="5.27798">
        <ele>252.6</ele>
        <time>2022-02-24T15:53:08Z</time>
      </trkpt>
      <trkpt lat="46.21169" lon="5.27808">
        <ele>252.8</ele>
        <time>2022-02-24T15:53:09Z</time>
      </trkpt>
      <trkpt lat="46.21169" lon="5.27818">
        <ele>252.8</ele>
        <time>2022-02-24T15:53:10Z</time>
      </trkpt>
      <trkpt lat="46.21169" lon="5.27828">
        <ele>252.8</ele>
        <time>2022-02-24T15:53:11Z</time>
      </trkpt>
      <trkpt lat="46.21169" lon="5.27839">
        <ele>252.8</ele>
        <time>2022-02-24T15:53:12Z</time>
      </trkpt>
      <trkpt lat="46.21169" lon="5.27849">
        <ele>252.8</ele>
        <time>2022-02-24T15:53:13Z</time>
      </trkpt>
      <trkpt lat="46.21168" lon="5.27859">
        <ele>252.8</ele>
        <time>2022-02-24T15:53:14Z</time>
      </trkpt>
      <trkpt lat="46.21168" lon="5.27869">
        <ele>252.8</ele>
        <time>2022-02-24T15:53:15Z</time>
      </trkpt>
      <trkpt lat="46.21168" lon="5.27879">
        <ele>252.8</ele>
        <time>2022-02-24T15:53:16Z</time>
      </trkpt>
      <trkpt lat="46.21168" lon="5.27889">
        <ele>252.8</ele>
        <time>2022-02-24T15:53:17Z</time>
      </trkpt>
      <trkpt lat="46.21167" lon="5.279">
        <ele>252.6</ele>
        <time>2022-02-24T15:53:18Z</time>
      </trkpt>
      <trkpt lat="46.21167" lon="5.2791">
        <ele>252.6</ele>
        <time>2022-02-24T15:53:19Z</time>
      </trkpt>
      <trkpt lat="46.21167" lon="5.2792">
        <ele>252.6</ele>
        <time>2022-02-24T15:53:20Z</time>
      </trkpt>
      <trkpt lat="46.21167" lon="5.2793">
        <ele>252.6</ele>
        <time>2022-02-24T15:53:21Z</time>
      </trkpt>
      <trkpt lat="46.21167" lon="5.2794">
        <ele>252.6</ele>
        <time>2022-02-24T15:53:22Z</time>
      </trkpt>
      <trkpt lat="46.21167" lon="5.27951">
        <ele>252.4</ele>
        <time>2022-02-24T15:53:23Z</time>
      </trkpt>
      <trkpt lat="46.21167" lon="5.27961">
        <ele>252.4</ele>
        <time>2022-02-24T15:53:24Z</time>
      </trkpt>
      <trkpt lat="46.21167" lon="5.27971">
        <ele>252.4</ele>
        <time>2022-02-24T15:53:25Z</time>
      </trkpt>
      <trkpt lat="46.21167" lon="5.27981">
        <ele>252.6</ele>
        <time>2022-02-24T15:53:26Z</time>
      </trkpt>
      <trkpt lat="46.21167" lon="5.27991">
        <ele>252.6</ele>
        <time>2022-02-24T15:53:27Z</time>
      </trkpt>
      <trkpt lat="46.21167" lon="5.28">
        <ele>252.6</ele>
        <time>2022-02-24T15:53:28Z</time>
      </trkpt>
      <trkpt lat="46.21167" lon="5.2801">
        <ele>252.8</ele>
        <time>2022-02-24T15:53:29Z</time>
      </trkpt>
      <trkpt lat="46.21167" lon="5.28019">
        <ele>252.8</ele>
        <time>2022-02-24T15:53:30Z</time>
      </trkpt>
      <trkpt lat="46.21167" lon="5.28029">
        <ele>252.8</ele>
        <time>2022-02-24T15:53:31Z</time>
      </trkpt>
      <trkpt lat="46.21167" lon="5.28038">
        <ele>252.8</ele>
        <time>2022-02-24T15:53:32Z</time>
      </trkpt>
      <trkpt lat="46.21167" lon="5.28047">
        <ele>253.2</ele>
        <time>2022-02-24T15:53:33Z</time>
      </trkpt>
      <trkpt lat="46.21167" lon="5.28056">
        <ele>253.2</ele>
        <time>2022-02-24T15:53:34Z</time>
      </trkpt>
      <trkpt lat="46.21167" lon="5.28066">
        <ele>253.4</ele>
        <time>2022-02-24T15:53:35Z</time>
      </trkpt>
      <trkpt lat="46.21167" lon="5.28075">
        <ele>253.4</ele>
        <time>2022-02-24T15:53:36Z</time>
      </trkpt>
      <trkpt lat="46.21167" lon="5.28084">
        <ele>253.4</ele>
        <time>2022-02-24T15:53:37Z</time>
      </trkpt>
      <trkpt lat="46.21167" lon="5.28093">
        <ele>253.4</ele>
        <time>2022-02-24T15:53:38Z</time>
      </trkpt>
      <trkpt lat="46.21167" lon="5.28102">
        <ele>253.4</ele>
        <time>2022-02-24T15:53:39Z</time>
      </trkpt>
      <trkpt lat="46.21167" lon="5.28111">
        <ele>253.4</ele>
        <time>2022-02-24T15:53:40Z</time>
      </trkpt>
      <trkpt lat="46.21167" lon="5.2812">
        <ele>253.6</ele>
        <time>2022-02-24T15:53:41Z</time>
      </trkpt>
      <trkpt lat="46.21167" lon="5.28128">
        <ele>253.6</ele>
        <time>2022-02-24T15:53:42Z</time>
      </trkpt>
      <trkpt lat="46.21167" lon="5.28137">
        <ele>254</ele>
        <time>2022-02-24T15:53:43Z</time>
      </trkpt>
      <trkpt lat="46.21167" lon="5.28145">
        <ele>254</ele>
        <time>2022-02-24T15:53:44Z</time>
      </trkpt>
      <trkpt lat="46.21167" lon="5.28154">
        <ele>254.2</ele>
        <time>2022-02-24T15:53:45Z</time>
      </trkpt>
      <trkpt lat="46.21167" lon="5.28163">
        <ele>254.4</ele>
        <time>2022-02-24T15:53:46Z</time>
      </trkpt>
      <trkpt lat="46.21167" lon="5.28171">
        <ele>254.4</ele>
        <time>2022-02-24T15:53:47Z</time>
      </trkpt>
      <trkpt lat="46.21167" lon="5.2818">
        <ele>254.4</ele>
        <time>2022-02-24T15:53:48Z</time>
      </trkpt>
      <trkpt lat="46.21167" lon="5.28189">
        <ele>254.6</ele>
        <time>2022-02-24T15:53:49Z</time>
      </trkpt>
      <trkpt lat="46.21167" lon="5.28199">
        <ele>254.6</ele>
        <time>2022-02-24T15:53:50Z</time>
      </trkpt>
      <trkpt lat="46.21167" lon="5.28208">
        <ele>255</ele>
        <time>2022-02-24T15:53:51Z</time>
      </trkpt>
      <trkpt lat="46.21167" lon="5.28217">
        <ele>255</ele>
        <time>2022-02-24T15:53:52Z</time>
      </trkpt>
      <trkpt lat="46.21167" lon="5.28227">
        <ele>255</ele>
        <time>2022-02-24T15:53:53Z</time>
      </trkpt>
      <trkpt lat="46.21167" lon="5.28236">
        <ele>255</ele>
        <time>2022-02-24T15:53:54Z</time>
      </trkpt>
      <trkpt lat="46.21167" lon="5.28245">
        <ele>255.2</ele>
        <time>2022-02-24T15:53:55Z</time>
      </trkpt>
      <trkpt lat="46.21167" lon="5.28254">
        <ele>255.2</ele>
        <time>2022-02-24T15:53:56Z</time>
      </trkpt>
      <trkpt lat="46.21167" lon="5.28263">
        <ele>255.2</ele>
        <time>2022-02-24T15:53:57Z</time>
      </trkpt>
      <trkpt lat="46.21167" lon="5.28273">
        <ele>255.2</ele>
        <time>2022-02-24T15:53:58Z</time>
      </trkpt>
      <trkpt lat="46.21167" lon="5.28282">
        <ele>255.2</ele>
        <time>2022-02-24T15:53:59Z</time>
      </trkpt>
      <trkpt lat="46.21167" lon="5.28291">
        <ele>255.4</ele>
        <time>2022-02-24T15:54:00Z</time>
      </trkpt>
      <trkpt lat="46.21167" lon="5.283">
        <ele>255.4</ele>
        <time>2022-02-24T15:54:01Z</time>
      </trkpt>
      <trkpt lat="46.21167" lon="5.28309">
        <ele>255.4</ele>
        <time>2022-02-24T15:54:02Z</time>
      </trkpt>
      <trkpt lat="46.21167" lon="5.28318">
        <ele>255.4</ele>
        <time>2022-02-24T15:54:03Z</time>
      </trkpt>
      <trkpt lat="46.21167" lon="5.28327">
        <ele>255.4</ele>
        <time>2022-02-24T15:54:04Z</time>
      </trkpt>
      <trkpt lat="46.21167" lon="5.28336">
        <ele>255.4</ele>
        <time>2022-02-24T15:54:05Z</time>
      </trkpt>
      <trkpt lat="46.21167" lon="5.28345">
        <ele>255.4</ele>
        <time>2022-02-24T15:54:06Z</time>
      </trkpt>
      <trkpt lat="46.21167" lon="5.28354">
        <ele>255.4</ele>
        <time>2022-02-24T15:54:07Z</time>
      </trkpt>
      <trkpt lat="46.21167" lon="5.28363">
        <ele>255.4</ele>
        <time>2022-02-24T15:54:08Z</time>
      </trkpt>
      <trkpt lat="46.21167" lon="5.28372">
        <ele>255.4</ele>
        <time>2022-02-24T15:54:09Z</time>
      </trkpt>
      <trkpt lat="46.21167" lon="5.28381">
        <ele>255.6</ele>
        <time>2022-02-24T15:54:10Z</time>
      </trkpt>
      <trkpt lat="46.21167" lon="5.2839">
        <ele>255.6</ele>
        <time>2022-02-24T15:54:11Z</time>
      </trkpt>
      <trkpt lat="46.21167" lon="5.28399">
        <ele>255.6</ele>
        <time>2022-02-24T15:54:12Z</time>
      </trkpt>
      <trkpt lat="46.21167" lon="5.28409">
        <ele>255.6</ele>
        <time>2022-02-24T15:54:13Z</time>
      </trkpt>
      <trkpt lat="46.21167" lon="5.28418">
        <ele>255.8</ele>
        <time>2022-02-24T15:54:14Z</time>
      </trkpt>
      <trkpt lat="46.21167" lon="5.28427">
        <ele>255.8</ele>
        <time>2022-02-24T15:54:15Z</time>
      </trkpt>
      <trkpt lat="46.21167" lon="5.28436">
        <ele>255.8</ele>
        <time>2022-02-24T15:54:16Z</time>
      </trkpt>
      <trkpt lat="46.21167" lon="5.28436">
        <ele>255.8</ele>
        <time>2022-02-24T15:54:17Z</time>
      </trkpt>
      <trkpt lat="46.21167" lon="5.28445">
        <ele>255.8</ele>
        <time>2022-02-24T15:54:18Z</time>
      </trkpt>
      <trkpt lat="46.21167" lon="5.28455">
        <ele>255.8</ele>
        <time>2022-02-24T15:54:19Z</time>
      </trkpt>
      <trkpt lat="46.21167" lon="5.28464">
        <ele>255.8</ele>
        <time>2022-02-24T15:54:20Z</time>
      </trkpt>
      <trkpt lat="46.21167" lon="5.28473">
        <ele>255.8</ele>
        <time>2022-02-24T15:54:21Z</time>
      </trkpt>
      <trkpt lat="46.21167" lon="5.28483">
        <ele>255.8</ele>
        <time>2022-02-24T15:54:22Z</time>
      </trkpt>
      <trkpt lat="46.21168" lon="5.28492">
        <ele>255.8</ele>
        <time>2022-02-24T15:54:23Z</time>
      </trkpt>
      <trkpt lat="46.21168" lon="5.28501">
        <ele>255.8</ele>
        <time>2022-02-24T15:54:24Z</time>
      </trkpt>
      <trkpt lat="46.21168" lon="5.28511">
        <ele>255.8</ele>
        <time>2022-02-24T15:54:25Z</time>
      </trkpt>
      <trkpt lat="46.21168" lon="5.2852">
        <ele>255.8</ele>
        <time>2022-02-24T15:54:26Z</time>
      </trkpt>
      <trkpt lat="46.21168" lon="5.28529">
        <ele>255.8</ele>
        <time>2022-02-24T15:54:27Z</time>
      </trkpt>
      <trkpt lat="46.21168" lon="5.28539">
        <ele>255.6</ele>
        <time>2022-02-24T15:54:28Z</time>
      </trkpt>
      <trkpt lat="46.21167" lon="5.28548">
        <ele>255.6</ele>
        <time>2022-02-24T15:54:29Z</time>
      </trkpt>
      <trkpt lat="46.21167" lon="5.28558">
        <ele>255.6</ele>
        <time>2022-02-24T15:54:30Z</time>
      </trkpt>
      <trkpt lat="46.21168" lon="5.28567">
        <ele>255.8</ele>
        <time>2022-02-24T15:54:31Z</time>
      </trkpt>
      <trkpt lat="46.21168" lon="5.28577">
        <ele>255.8</ele>
        <time>2022-02-24T15:54:32Z</time>
      </trkpt>
      <trkpt lat="46.21168" lon="5.28586">
        <ele>255.8</ele>
        <time>2022-02-24T15:54:33Z</time>
      </trkpt>
      <trkpt lat="46.21168" lon="5.28596">
        <ele>255.8</ele>
        <time>2022-02-24T15:54:34Z</time>
      </trkpt>
      <trkpt lat="46.21168" lon="5.28605">
        <ele>255.8</ele>
        <time>2022-02-24T15:54:35Z</time>
      </trkpt>
      <trkpt lat="46.21168" lon="5.28614">
        <ele>255.8</ele>
        <time>2022-02-24T15:54:36Z</time>
      </trkpt>
      <trkpt lat="46.21168" lon="5.28624">
        <ele>255.8</ele>
        <time>2022-02-24T15:54:37Z</time>
      </trkpt>
      <trkpt lat="46.21168" lon="5.28633">
        <ele>256</ele>
        <time>2022-02-24T15:54:38Z</time>
      </trkpt>
      <trkpt lat="46.21168" lon="5.28643">
        <ele>256</ele>
        <time>2022-02-24T15:54:39Z</time>
      </trkpt>
      <trkpt lat="46.21168" lon="5.28652">
        <ele>256</ele>
        <time>2022-02-24T15:54:40Z</time>
      </trkpt>
      <trkpt lat="46.21168" lon="5.28661">
        <ele>256.4</ele>
        <time>2022-02-24T15:54:41Z</time>
      </trkpt>
      <trkpt lat="46.21168" lon="5.2867">
        <ele>256.4</ele>
        <time>2022-02-24T15:54:42Z</time>
      </trkpt>
      <trkpt lat="46.21168" lon="5.28679">
        <ele>256.4</ele>
        <time>2022-02-24T15:54:43Z</time>
      </trkpt>
      <trkpt lat="46.21168" lon="5.28688">
        <ele>256.6</ele>
        <time>2022-02-24T15:54:44Z</time>
      </trkpt>
      <trkpt lat="46.21168" lon="5.28696">
        <ele>256.6</ele>
        <time>2022-02-24T15:54:45Z</time>
      </trkpt>
      <trkpt lat="46.21168" lon="5.28705">
        <ele>256.6</ele>
        <time>2022-02-24T15:54:46Z</time>
      </trkpt>
      <trkpt lat="46.21168" lon="5.28714">
        <ele>256.8</ele>
        <time>2022-02-24T15:54:47Z</time>
      </trkpt>
      <trkpt lat="46.21168" lon="5.28723">
        <ele>256.8</ele>
        <time>2022-02-24T15:54:48Z</time>
      </trkpt>
      <trkpt lat="46.21168" lon="5.28731">
        <ele>256.8</ele>
        <time>2022-02-24T15:54:49Z</time>
      </trkpt>
      <trkpt lat="46.21168" lon="5.2874">
        <ele>257.4</ele>
        <time>2022-02-24T15:54:50Z</time>
      </trkpt>
      <trkpt lat="46.21167" lon="5.28748">
        <ele>257.4</ele>
        <time>2022-02-24T15:54:51Z</time>
      </trkpt>
      <trkpt lat="46.21167" lon="5.28757">
        <ele>257.4</ele>
        <time>2022-02-24T15:54:52Z</time>
      </trkpt>
      <trkpt lat="46.21167" lon="5.28765">
        <ele>257.4</ele>
        <time>2022-02-24T15:54:53Z</time>
      </trkpt>
      <trkpt lat="46.21167" lon="5.28774">
        <ele>257.4</ele>
        <time>2022-02-24T15:54:54Z</time>
      </trkpt>
      <trkpt lat="46.21167" lon="5.28782">
        <ele>257.4</ele>
        <time>2022-02-24T15:54:55Z</time>
      </trkpt>
      <trkpt lat="46.21167" lon="5.28791">
        <ele>257.6</ele>
        <time>2022-02-24T15:54:56Z</time>
      </trkpt>
      <trkpt lat="46.21167" lon="5.288">
        <ele>257.6</ele>
        <time>2022-02-24T15:54:57Z</time>
      </trkpt>
      <trkpt lat="46.21167" lon="5.28808">
        <ele>257.8</ele>
        <time>2022-02-24T15:54:58Z</time>
      </trkpt>
      <trkpt lat="46.21167" lon="5.28817">
        <ele>257.8</ele>
        <time>2022-02-24T15:54:59Z</time>
      </trkpt>
      <trkpt lat="46.21167" lon="5.28826">
        <ele>257.8</ele>
        <time>2022-02-24T15:55:00Z</time>
      </trkpt>
      <trkpt lat="46.21167" lon="5.28835">
        <ele>257.8</ele>
        <time>2022-02-24T15:55:01Z</time>
      </trkpt>
      <trkpt lat="46.21167" lon="5.28844">
        <ele>257.8</ele>
        <time>2022-02-24T15:55:02Z</time>
      </trkpt>
      <trkpt lat="46.21167" lon="5.28853">
        <ele>257.8</ele>
        <time>2022-02-24T15:55:03Z</time>
      </trkpt>
      <trkpt lat="46.21167" lon="5.28862">
        <ele>257.8</ele>
        <time>2022-02-24T15:55:04Z</time>
      </trkpt>
      <trkpt lat="46.21167" lon="5.28872">
        <ele>257.8</ele>
        <time>2022-02-24T15:55:05Z</time>
      </trkpt>
      <trkpt lat="46.21167" lon="5.28881">
        <ele>257.8</ele>
        <time>2022-02-24T15:55:06Z</time>
      </trkpt>
      <trkpt lat="46.21167" lon="5.2889">
        <ele>257.8</ele>
        <time>2022-02-24T15:55:07Z</time>
      </trkpt>
      <trkpt lat="46.21167" lon="5.289">
        <ele>257.8</ele>
        <time>2022-02-24T15:55:08Z</time>
      </trkpt>
      <trkpt lat="46.21167" lon="5.28909">
        <ele>257.8</ele>
        <time>2022-02-24T15:55:09Z</time>
      </trkpt>
      <trkpt lat="46.21167" lon="5.28919">
        <ele>257.8</ele>
        <time>2022-02-24T15:55:10Z</time>
      </trkpt>
      <trkpt lat="46.21166" lon="5.28928">
        <ele>257.8</ele>
        <time>2022-02-24T15:55:11Z</time>
      </trkpt>
      <trkpt lat="46.21166" lon="5.28938">
        <ele>257.8</ele>
        <time>2022-02-24T15:55:12Z</time>
      </trkpt>
      <trkpt lat="46.21166" lon="5.28948">
        <ele>257.8</ele>
        <time>2022-02-24T15:55:13Z</time>
      </trkpt>
      <trkpt lat="46.21166" lon="5.28958">
        <ele>257.8</ele>
        <time>2022-02-24T15:55:14Z</time>
      </trkpt>
      <trkpt lat="46.21166" lon="5.28967">
        <ele>257.8</ele>
        <time>2022-02-24T15:55:15Z</time>
      </trkpt>
      <trkpt lat="46.21167" lon="5.28977">
        <ele>257.8</ele>
        <time>2022-02-24T15:55:16Z</time>
      </trkpt>
      <trkpt lat="46.21167" lon="5.28986">
        <ele>257.8</ele>
        <time>2022-02-24T15:55:17Z</time>
      </trkpt>
      <trkpt lat="46.21167" lon="5.28995">
        <ele>258</ele>
        <time>2022-02-24T15:55:18Z</time>
      </trkpt>
      <trkpt lat="46.21167" lon="5.29004">
        <ele>258</ele>
        <time>2022-02-24T15:55:19Z</time>
      </trkpt>
      <trkpt lat="46.21167" lon="5.29014">
        <ele>258.2</ele>
        <time>2022-02-24T15:55:20Z</time>
      </trkpt>
      <trkpt lat="46.21167" lon="5.29023">
        <ele>258.2</ele>
        <time>2022-02-24T15:55:21Z</time>
      </trkpt>
      <trkpt lat="46.21167" lon="5.29032">
        <ele>258.6</ele>
        <time>2022-02-24T15:55:22Z</time>
      </trkpt>
      <trkpt lat="46.21167" lon="5.2904">
        <ele>258.6</ele>
        <time>2022-02-24T15:55:23Z</time>
      </trkpt>
      <trkpt lat="46.21167" lon="5.29049">
        <ele>258.6</ele>
        <time>2022-02-24T15:55:24Z</time>
      </trkpt>
      <trkpt lat="46.21167" lon="5.29057">
        <ele>258.8</ele>
        <time>2022-02-24T15:55:25Z</time>
      </trkpt>
      <trkpt lat="46.21167" lon="5.29065">
        <ele>259</ele>
        <time>2022-02-24T15:55:26Z</time>
      </trkpt>
      <trkpt lat="46.21167" lon="5.29073">
        <ele>259.4</ele>
        <time>2022-02-24T15:55:27Z</time>
      </trkpt>
      <trkpt lat="46.21167" lon="5.2908">
        <ele>259.4</ele>
        <time>2022-02-24T15:55:28Z</time>
      </trkpt>
      <trkpt lat="46.21167" lon="5.29088">
        <ele>259.6</ele>
        <time>2022-02-24T15:55:29Z</time>
      </trkpt>
      <trkpt lat="46.21167" lon="5.29096">
        <ele>259.8</ele>
        <time>2022-02-24T15:55:30Z</time>
      </trkpt>
      <trkpt lat="46.21167" lon="5.29104">
        <ele>259.8</ele>
        <time>2022-02-24T15:55:31Z</time>
      </trkpt>
      <trkpt lat="46.21167" lon="5.29112">
        <ele>260.2</ele>
        <time>2022-02-24T15:55:32Z</time>
      </trkpt>
      <trkpt lat="46.21167" lon="5.29119">
        <ele>260.2</ele>
        <time>2022-02-24T15:55:33Z</time>
      </trkpt>
      <trkpt lat="46.21167" lon="5.29127">
        <ele>260.4</ele>
        <time>2022-02-24T15:55:34Z</time>
      </trkpt>
      <trkpt lat="46.21167" lon="5.29135">
        <ele>260.4</ele>
        <time>2022-02-24T15:55:35Z</time>
      </trkpt>
      <trkpt lat="46.21167" lon="5.29142">
        <ele>260.8</ele>
        <time>2022-02-24T15:55:36Z</time>
      </trkpt>
      <trkpt lat="46.21167" lon="5.2915">
        <ele>260.8</ele>
        <time>2022-02-24T15:55:37Z</time>
      </trkpt>
      <trkpt lat="46.21167" lon="5.29157">
        <ele>261</ele>
        <time>2022-02-24T15:55:38Z</time>
      </trkpt>
      <trkpt lat="46.21168" lon="5.29164">
        <ele>261</ele>
        <time>2022-02-24T15:55:39Z</time>
      </trkpt>
      <trkpt lat="46.21167" lon="5.29172">
        <ele>262</ele>
        <time>2022-02-24T15:55:40Z</time>
      </trkpt>
      <trkpt lat="46.21167" lon="5.29179">
        <ele>262</ele>
        <time>2022-02-24T15:55:41Z</time>
      </trkpt>
      <trkpt lat="46.21167" lon="5.29186">
        <ele>262.2</ele>
        <time>2022-02-24T15:55:42Z</time>
      </trkpt>
      <trkpt lat="46.21167" lon="5.29192">
        <ele>262.2</ele>
        <time>2022-02-24T15:55:43Z</time>
      </trkpt>
      <trkpt lat="46.21167" lon="5.29199">
        <ele>262.6</ele>
        <time>2022-02-24T15:55:44Z</time>
      </trkpt>
      <trkpt lat="46.21168" lon="5.29206">
        <ele>262.8</ele>
        <time>2022-02-24T15:55:45Z</time>
      </trkpt>
      <trkpt lat="46.21168" lon="5.29213">
        <ele>262.8</ele>
        <time>2022-02-24T15:55:46Z</time>
      </trkpt>
      <trkpt lat="46.21168" lon="5.2922">
        <ele>263.2</ele>
        <time>2022-02-24T15:55:47Z</time>
      </trkpt>
      <trkpt lat="46.21168" lon="5.29227">
        <ele>263.2</ele>
        <time>2022-02-24T15:55:48Z</time>
      </trkpt>
      <trkpt lat="46.21168" lon="5.29233">
        <ele>263.4</ele>
        <time>2022-02-24T15:55:49Z</time>
      </trkpt>
      <trkpt lat="46.21168" lon="5.2924">
        <ele>263.6</ele>
        <time>2022-02-24T15:55:50Z</time>
      </trkpt>
      <trkpt lat="46.21168" lon="5.29247">
        <ele>263.6</ele>
        <time>2022-02-24T15:55:51Z</time>
      </trkpt>
      <trkpt lat="46.21168" lon="5.29253">
        <ele>264</ele>
        <time>2022-02-24T15:55:52Z</time>
      </trkpt>
      <trkpt lat="46.21168" lon="5.29259">
        <ele>264</ele>
        <time>2022-02-24T15:55:53Z</time>
      </trkpt>
      <trkpt lat="46.21168" lon="5.29266">
        <ele>264.2</ele>
        <time>2022-02-24T15:55:54Z</time>
      </trkpt>
      <trkpt lat="46.21168" lon="5.29272">
        <ele>264.2</ele>
        <time>2022-02-24T15:55:55Z</time>
      </trkpt>
      <trkpt lat="46.21168" lon="5.29278">
        <ele>264.6</ele>
        <time>2022-02-24T15:55:56Z</time>
      </trkpt>
      <trkpt lat="46.21168" lon="5.29285">
        <ele>264.6</ele>
        <time>2022-02-24T15:55:57Z</time>
      </trkpt>
      <trkpt lat="46.21168" lon="5.29292">
        <ele>265</ele>
        <time>2022-02-24T15:55:58Z</time>
      </trkpt>
      <trkpt lat="46.21168" lon="5.29298">
        <ele>265</ele>
        <time>2022-02-24T15:55:59Z</time>
      </trkpt>
      <trkpt lat="46.21168" lon="5.29304">
        <ele>265.2</ele>
        <time>2022-02-24T15:56:00Z</time>
      </trkpt>
      <trkpt lat="46.21168" lon="5.29311">
        <ele>265.2</ele>
        <time>2022-02-24T15:56:01Z</time>
      </trkpt>
      <trkpt lat="46.21168" lon="5.29317">
        <ele>265.4</ele>
        <time>2022-02-24T15:56:02Z</time>
      </trkpt>
      <trkpt lat="46.21168" lon="5.29324">
        <ele>265.4</ele>
        <time>2022-02-24T15:56:03Z</time>
      </trkpt>
      <trkpt lat="46.21168" lon="5.29331">
        <ele>265.8</ele>
        <time>2022-02-24T15:56:04Z</time>
      </trkpt>
      <trkpt lat="46.21168" lon="5.29337">
        <ele>265.8</ele>
        <time>2022-02-24T15:56:05Z</time>
      </trkpt>
      <trkpt lat="46.21169" lon="5.29344">
        <ele>265.8</ele>
        <time>2022-02-24T15:56:06Z</time>
      </trkpt>
      <trkpt lat="46.21169" lon="5.29351">
        <ele>266</ele>
        <time>2022-02-24T15:56:07Z</time>
      </trkpt>
      <trkpt lat="46.21169" lon="5.29358">
        <ele>266</ele>
        <time>2022-02-24T15:56:08Z</time>
      </trkpt>
      <trkpt lat="46.2117" lon="5.29372">
        <ele>266.2</ele>
        <time>2022-02-24T15:56:09Z</time>
      </trkpt>
      <trkpt lat="46.2117" lon="5.2938">
        <ele>266.2</ele>
        <time>2022-02-24T15:56:10Z</time>
      </trkpt>
      <trkpt lat="46.2117" lon="5.29387">
        <ele>266.2</ele>
        <time>2022-02-24T15:56:11Z</time>
      </trkpt>
      <trkpt lat="46.2117" lon="5.29394">
        <ele>266.2</ele>
        <time>2022-02-24T15:56:12Z</time>
      </trkpt>
      <trkpt lat="46.2117" lon="5.29401">
        <ele>266.4</ele>
        <time>2022-02-24T15:56:13Z</time>
      </trkpt>
      <trkpt lat="46.2117" lon="5.29409">
        <ele>266.4</ele>
        <time>2022-02-24T15:56:14Z</time>
      </trkpt>
      <trkpt lat="46.2117" lon="5.29416">
        <ele>266.4</ele>
        <time>2022-02-24T15:56:15Z</time>
      </trkpt>
      <trkpt lat="46.2117" lon="5.29424">
        <ele>266.8</ele>
        <time>2022-02-24T15:56:16Z</time>
      </trkpt>
      <trkpt lat="46.2117" lon="5.29431">
        <ele>266.8</ele>
        <time>2022-02-24T15:56:17Z</time>
      </trkpt>
      <trkpt lat="46.2117" lon="5.29439">
        <ele>266.8</ele>
        <time>2022-02-24T15:56:18Z</time>
      </trkpt>
      <trkpt lat="46.2117" lon="5.29447">
        <ele>266.8</ele>
        <time>2022-02-24T15:56:19Z</time>
      </trkpt>
      <trkpt lat="46.2117" lon="5.29455">
        <ele>266.8</ele>
        <time>2022-02-24T15:56:20Z</time>
      </trkpt>
      <trkpt lat="46.2117" lon="5.29463">
        <ele>266.8</ele>
        <time>2022-02-24T15:56:21Z</time>
      </trkpt>
      <trkpt lat="46.2117" lon="5.29472">
        <ele>266.8</ele>
        <time>2022-02-24T15:56:22Z</time>
      </trkpt>
      <trkpt lat="46.21171" lon="5.2948">
        <ele>266.8</ele>
        <time>2022-02-24T15:56:23Z</time>
      </trkpt>
      <trkpt lat="46.21171" lon="5.29488">
        <ele>266.8</ele>
        <time>2022-02-24T15:56:24Z</time>
      </trkpt>
      <trkpt lat="46.21171" lon="5.29497">
        <ele>267</ele>
        <time>2022-02-24T15:56:25Z</time>
      </trkpt>
      <trkpt lat="46.21171" lon="5.29505">
        <ele>267</ele>
        <time>2022-02-24T15:56:26Z</time>
      </trkpt>
      <trkpt lat="46.21171" lon="5.29514">
        <ele>267</ele>
        <time>2022-02-24T15:56:27Z</time>
      </trkpt>
      <trkpt lat="46.21171" lon="5.29523">
        <ele>267</ele>
        <time>2022-02-24T15:56:28Z</time>
      </trkpt>
      <trkpt lat="46.21171" lon="5.29532">
        <ele>267</ele>
        <time>2022-02-24T15:56:29Z</time>
      </trkpt>
      <trkpt lat="46.21172" lon="5.2954">
        <ele>267</ele>
        <time>2022-02-24T15:56:30Z</time>
      </trkpt>
      <trkpt lat="46.21171" lon="5.29549">
        <ele>267</ele>
        <time>2022-02-24T15:56:31Z</time>
      </trkpt>
      <trkpt lat="46.21171" lon="5.29559">
        <ele>267</ele>
        <time>2022-02-24T15:56:32Z</time>
      </trkpt>
      <trkpt lat="46.21171" lon="5.29568">
        <ele>266.8</ele>
        <time>2022-02-24T15:56:33Z</time>
      </trkpt>
      <trkpt lat="46.21171" lon="5.29577">
        <ele>266.8</ele>
        <time>2022-02-24T15:56:34Z</time>
      </trkpt>
      <trkpt lat="46.21171" lon="5.29587">
        <ele>266.4</ele>
        <time>2022-02-24T15:56:35Z</time>
      </trkpt>
      <trkpt lat="46.21171" lon="5.29597">
        <ele>266.4</ele>
        <time>2022-02-24T15:56:36Z</time>
      </trkpt>
      <trkpt lat="46.21171" lon="5.29606">
        <ele>266.2</ele>
        <time>2022-02-24T15:56:37Z</time>
      </trkpt>
      <trkpt lat="46.21171" lon="5.29616">
        <ele>266.2</ele>
        <time>2022-02-24T15:56:38Z</time>
      </trkpt>
      <trkpt lat="46.21171" lon="5.29626">
        <ele>266.2</ele>
        <time>2022-02-24T15:56:39Z</time>
      </trkpt>
      <trkpt lat="46.21171" lon="5.29637">
        <ele>266</ele>
        <time>2022-02-24T15:56:40Z</time>
      </trkpt>
      <trkpt lat="46.21171" lon="5.29647">
        <ele>266</ele>
        <time>2022-02-24T15:56:41Z</time>
      </trkpt>
      <trkpt lat="46.21171" lon="5.29658">
        <ele>266</ele>
        <time>2022-02-24T15:56:42Z</time>
      </trkpt>
      <trkpt lat="46.2117" lon="5.29669">
        <ele>265.6</ele>
        <time>2022-02-24T15:56:43Z</time>
      </trkpt>
      <trkpt lat="46.2117" lon="5.2968">
        <ele>265.6</ele>
        <time>2022-02-24T15:56:44Z</time>
      </trkpt>
      <trkpt lat="46.2117" lon="5.29692">
        <ele>265.2</ele>
        <time>2022-02-24T15:56:45Z</time>
      </trkpt>
      <trkpt lat="46.2117" lon="5.29704">
        <ele>265.2</ele>
        <time>2022-02-24T15:56:46Z</time>
      </trkpt>
      <trkpt lat="46.2117" lon="5.29716">
        <ele>264.8</ele>
        <time>2022-02-24T15:56:47Z</time>
      </trkpt>
      <trkpt lat="46.21171" lon="5.29728">
        <ele>264.4</ele>
        <time>2022-02-24T15:56:48Z</time>
      </trkpt>
      <trkpt lat="46.21171" lon="5.29741">
        <ele>264</ele>
        <time>2022-02-24T15:56:49Z</time>
      </trkpt>
      <trkpt lat="46.21171" lon="5.29754">
        <ele>263.8</ele>
        <time>2022-02-24T15:56:50Z</time>
      </trkpt>
      <trkpt lat="46.21171" lon="5.29767">
        <ele>263.4</ele>
        <time>2022-02-24T15:56:51Z</time>
      </trkpt>
      <trkpt lat="46.21171" lon="5.29779">
        <ele>263.2</ele>
        <time>2022-02-24T15:56:52Z</time>
      </trkpt>
      <trkpt lat="46.21171" lon="5.29793">
        <ele>262.8</ele>
        <time>2022-02-24T15:56:53Z</time>
      </trkpt>
      <trkpt lat="46.2117" lon="5.29807">
        <ele>262.6</ele>
        <time>2022-02-24T15:56:54Z</time>
      </trkpt>
      <trkpt lat="46.21171" lon="5.29822">
        <ele>262.6</ele>
        <time>2022-02-24T15:56:55Z</time>
      </trkpt>
      <trkpt lat="46.21171" lon="5.29835">
        <ele>262.2</ele>
        <time>2022-02-24T15:56:56Z</time>
      </trkpt>
      <trkpt lat="46.21171" lon="5.2985">
        <ele>262</ele>
        <time>2022-02-24T15:56:57Z</time>
      </trkpt>
      <trkpt lat="46.21171" lon="5.29864">
        <ele>261.8</ele>
        <time>2022-02-24T15:56:58Z</time>
      </trkpt>
      <trkpt lat="46.21171" lon="5.29879">
        <ele>261.4</ele>
        <time>2022-02-24T15:56:59Z</time>
      </trkpt>
      <trkpt lat="46.2117" lon="5.29893">
        <ele>261.2</ele>
        <time>2022-02-24T15:57:00Z</time>
      </trkpt>
      <trkpt lat="46.21171" lon="5.29906">
        <ele>261</ele>
        <time>2022-02-24T15:57:01Z</time>
      </trkpt>
      <trkpt lat="46.2117" lon="5.29919">
        <ele>261</ele>
        <time>2022-02-24T15:57:02Z</time>
      </trkpt>
      <trkpt lat="46.21169" lon="5.29933">
        <ele>260.6</ele>
        <time>2022-02-24T15:57:03Z</time>
      </trkpt>
      <trkpt lat="46.2117" lon="5.29946">
        <ele>260.6</ele>
        <time>2022-02-24T15:57:04Z</time>
      </trkpt>
      <trkpt lat="46.2117" lon="5.29958">
        <ele>260.4</ele>
        <time>2022-02-24T15:57:05Z</time>
      </trkpt>
      <trkpt lat="46.2117" lon="5.29971">
        <ele>260.4</ele>
        <time>2022-02-24T15:57:06Z</time>
      </trkpt>
      <trkpt lat="46.2117" lon="5.29984">
        <ele>260.4</ele>
        <time>2022-02-24T15:57:07Z</time>
      </trkpt>
      <trkpt lat="46.21171" lon="5.29996">
        <ele>260.4</ele>
        <time>2022-02-24T15:57:08Z</time>
      </trkpt>
      <trkpt lat="46.21171" lon="5.30008">
        <ele>260.4</ele>
        <time>2022-02-24T15:57:09Z</time>
      </trkpt>
      <trkpt lat="46.21171" lon="5.30019">
        <ele>260.4</ele>
        <time>2022-02-24T15:57:10Z</time>
      </trkpt>
      <trkpt lat="46.21171" lon="5.3003">
        <ele>260.4</ele>
        <time>2022-02-24T15:57:11Z</time>
      </trkpt>
      <trkpt lat="46.21171" lon="5.30041">
        <ele>260.4</ele>
        <time>2022-02-24T15:57:12Z</time>
      </trkpt>
      <trkpt lat="46.21171" lon="5.30052">
        <ele>260.4</ele>
        <time>2022-02-24T15:57:13Z</time>
      </trkpt>
      <trkpt lat="46.21171" lon="5.30062">
        <ele>260.4</ele>
        <time>2022-02-24T15:57:14Z</time>
      </trkpt>
      <trkpt lat="46.21171" lon="5.30072">
        <ele>260.6</ele>
        <time>2022-02-24T15:57:15Z</time>
      </trkpt>
      <trkpt lat="46.21171" lon="5.30082">
        <ele>260.6</ele>
        <time>2022-02-24T15:57:16Z</time>
      </trkpt>
      <trkpt lat="46.21171" lon="5.30092">
        <ele>260.8</ele>
        <time>2022-02-24T15:57:17Z</time>
      </trkpt>
      <trkpt lat="46.21171" lon="5.30102">
        <ele>260.8</ele>
        <time>2022-02-24T15:57:18Z</time>
      </trkpt>
      <trkpt lat="46.21171" lon="5.30111">
        <ele>261</ele>
        <time>2022-02-24T15:57:19Z</time>
      </trkpt>
      <trkpt lat="46.21171" lon="5.30121">
        <ele>261</ele>
        <time>2022-02-24T15:57:20Z</time>
      </trkpt>
      <trkpt lat="46.21171" lon="5.3013">
        <ele>261.2</ele>
        <time>2022-02-24T15:57:21Z</time>
      </trkpt>
      <trkpt lat="46.21171" lon="5.30139">
        <ele>261.2</ele>
        <time>2022-02-24T15:57:22Z</time>
      </trkpt>
      <trkpt lat="46.21171" lon="5.30148">
        <ele>261.2</ele>
        <time>2022-02-24T15:57:23Z</time>
      </trkpt>
      <trkpt lat="46.21171" lon="5.30157">
        <ele>261.6</ele>
        <time>2022-02-24T15:57:24Z</time>
      </trkpt>
      <trkpt lat="46.21171" lon="5.30165">
        <ele>261.6</ele>
        <time>2022-02-24T15:57:25Z</time>
      </trkpt>
      <trkpt lat="46.21171" lon="5.30173">
        <ele>261.8</ele>
        <time>2022-02-24T15:57:26Z</time>
      </trkpt>
      <trkpt lat="46.21171" lon="5.30181">
        <ele>262.2</ele>
        <time>2022-02-24T15:57:27Z</time>
      </trkpt>
      <trkpt lat="46.21171" lon="5.30189">
        <ele>262.2</ele>
        <time>2022-02-24T15:57:28Z</time>
      </trkpt>
      <trkpt lat="46.21171" lon="5.30197">
        <ele>262.8</ele>
        <time>2022-02-24T15:57:29Z</time>
      </trkpt>
      <trkpt lat="46.21171" lon="5.30204">
        <ele>262.8</ele>
        <time>2022-02-24T15:57:30Z</time>
      </trkpt>
      <trkpt lat="46.21171" lon="5.30212">
        <ele>263.2</ele>
        <time>2022-02-24T15:57:31Z</time>
      </trkpt>
      <trkpt lat="46.21171" lon="5.30219">
        <ele>263.2</ele>
        <time>2022-02-24T15:57:32Z</time>
      </trkpt>
      <trkpt lat="46.21171" lon="5.30226">
        <ele>263.4</ele>
        <time>2022-02-24T15:57:33Z</time>
      </trkpt>
      <trkpt lat="46.21171" lon="5.30234">
        <ele>263.4</ele>
        <time>2022-02-24T15:57:34Z</time>
      </trkpt>
      <trkpt lat="46.21171" lon="5.30241">
        <ele>263.8</ele>
        <time>2022-02-24T15:57:35Z</time>
      </trkpt>
      <trkpt lat="46.21171" lon="5.30248">
        <ele>263.8</ele>
        <time>2022-02-24T15:57:36Z</time>
      </trkpt>
      <trkpt lat="46.21171" lon="5.30255">
        <ele>264</ele>
        <time>2022-02-24T15:57:37Z</time>
      </trkpt>
      <trkpt lat="46.21171" lon="5.30262">
        <ele>264</ele>
        <time>2022-02-24T15:57:38Z</time>
      </trkpt>
      <trkpt lat="46.21171" lon="5.30269">
        <ele>264.4</ele>
        <time>2022-02-24T15:57:39Z</time>
      </trkpt>
      <trkpt lat="46.21171" lon="5.30277">
        <ele>264.4</ele>
        <time>2022-02-24T15:57:40Z</time>
      </trkpt>
      <trkpt lat="46.21171" lon="5.30284">
        <ele>264.6</ele>
        <time>2022-02-24T15:57:41Z</time>
      </trkpt>
      <trkpt lat="46.21171" lon="5.30291">
        <ele>264.6</ele>
        <time>2022-02-24T15:57:42Z</time>
      </trkpt>
      <trkpt lat="46.21171" lon="5.30298">
        <ele>265</ele>
        <time>2022-02-24T15:57:43Z</time>
      </trkpt>
      <trkpt lat="46.21171" lon="5.30306">
        <ele>265</ele>
        <time>2022-02-24T15:57:44Z</time>
      </trkpt>
      <trkpt lat="46.21171" lon="5.30313">
        <ele>265.2</ele>
        <time>2022-02-24T15:57:45Z</time>
      </trkpt>
      <trkpt lat="46.21171" lon="5.3032">
        <ele>265.4</ele>
        <time>2022-02-24T15:57:46Z</time>
      </trkpt>
      <trkpt lat="46.21171" lon="5.30327">
        <ele>265.4</ele>
        <time>2022-02-24T15:57:47Z</time>
      </trkpt>
      <trkpt lat="46.21171" lon="5.30335">
        <ele>265.4</ele>
        <time>2022-02-24T15:57:48Z</time>
      </trkpt>
      <trkpt lat="46.21171" lon="5.30342">
        <ele>265.6</ele>
        <time>2022-02-24T15:57:49Z</time>
      </trkpt>
      <trkpt lat="46.21171" lon="5.30349">
        <ele>265.6</ele>
        <time>2022-02-24T15:57:50Z</time>
      </trkpt>
      <trkpt lat="46.21171" lon="5.30357">
        <ele>265.8</ele>
        <time>2022-02-24T15:57:51Z</time>
      </trkpt>
      <trkpt lat="46.21171" lon="5.30364">
        <ele>265.8</ele>
        <time>2022-02-24T15:57:52Z</time>
      </trkpt>
      <trkpt lat="46.21171" lon="5.30371">
        <ele>265.8</ele>
        <time>2022-02-24T15:57:53Z</time>
      </trkpt>
      <trkpt lat="46.21171" lon="5.30378">
        <ele>266.2</ele>
        <time>2022-02-24T15:57:54Z</time>
      </trkpt>
      <trkpt lat="46.21171" lon="5.30386">
        <ele>266.2</ele>
        <time>2022-02-24T15:57:55Z</time>
      </trkpt>
      <trkpt lat="46.21171" lon="5.30393">
        <ele>266.4</ele>
        <time>2022-02-24T15:57:56Z</time>
      </trkpt>
      <trkpt lat="46.21171" lon="5.304">
        <ele>266.4</ele>
        <time>2022-02-24T15:57:57Z</time>
      </trkpt>
      <trkpt lat="46.21171" lon="5.30408">
        <ele>266.4</ele>
        <time>2022-02-24T15:57:58Z</time>
      </trkpt>
      <trkpt lat="46.21171" lon="5.30415">
        <ele>266.6</ele>
        <time>2022-02-24T15:57:59Z</time>
      </trkpt>
      <trkpt lat="46.21171" lon="5.30423">
        <ele>266.6</ele>
        <time>2022-02-24T15:58:00Z</time>
      </trkpt>
      <trkpt lat="46.21171" lon="5.30431">
        <ele>267</ele>
        <time>2022-02-24T15:58:01Z</time>
      </trkpt>
      <trkpt lat="46.21171" lon="5.30438">
        <ele>267</ele>
        <time>2022-02-24T15:58:02Z</time>
      </trkpt>
      <trkpt lat="46.21171" lon="5.30446">
        <ele>267</ele>
        <time>2022-02-24T15:58:03Z</time>
      </trkpt>
      <trkpt lat="46.21171" lon="5.30454">
        <ele>267.2</ele>
        <time>2022-02-24T15:58:04Z</time>
      </trkpt>
      <trkpt lat="46.21171" lon="5.30462">
        <ele>267.2</ele>
        <time>2022-02-24T15:58:05Z</time>
      </trkpt>
      <trkpt lat="46.21171" lon="5.30469">
        <ele>267.2</ele>
        <time>2022-02-24T15:58:06Z</time>
      </trkpt>
      <trkpt lat="46.21171" lon="5.30477">
        <ele>267.4</ele>
        <time>2022-02-24T15:58:07Z</time>
      </trkpt>
      <trkpt lat="46.21171" lon="5.30485">
        <ele>267.4</ele>
        <time>2022-02-24T15:58:08Z</time>
      </trkpt>
      <trkpt lat="46.21171" lon="5.30492">
        <ele>267.4</ele>
        <time>2022-02-24T15:58:09Z</time>
      </trkpt>
      <trkpt lat="46.21171" lon="5.305">
        <ele>267.8</ele>
        <time>2022-02-24T15:58:10Z</time>
      </trkpt>
      <trkpt lat="46.21171" lon="5.30507">
        <ele>267.8</ele>
        <time>2022-02-24T15:58:11Z</time>
      </trkpt>
      <trkpt lat="46.21171" lon="5.30514">
        <ele>268.2</ele>
        <time>2022-02-24T15:58:12Z</time>
      </trkpt>
      <trkpt lat="46.21171" lon="5.30521">
        <ele>268.2</ele>
        <time>2022-02-24T15:58:13Z</time>
      </trkpt>
      <trkpt lat="46.21171" lon="5.30528">
        <ele>268.4</ele>
        <time>2022-02-24T15:58:14Z</time>
      </trkpt>
      <trkpt lat="46.21171" lon="5.30535">
        <ele>268.4</ele>
        <time>2022-02-24T15:58:15Z</time>
      </trkpt>
      <trkpt lat="46.21171" lon="5.30542">
        <ele>268.8</ele>
        <time>2022-02-24T15:58:16Z</time>
      </trkpt>
      <trkpt lat="46.21171" lon="5.30549">
        <ele>268.8</ele>
        <time>2022-02-24T15:58:17Z</time>
      </trkpt>
      <trkpt lat="46.21171" lon="5.30556">
        <ele>269</ele>
        <time>2022-02-24T15:58:18Z</time>
      </trkpt>
      <trkpt lat="46.21171" lon="5.30563">
        <ele>269</ele>
        <time>2022-02-24T15:58:19Z</time>
      </trkpt>
      <trkpt lat="46.21171" lon="5.3057">
        <ele>269.4</ele>
        <time>2022-02-24T15:58:20Z</time>
      </trkpt>
      <trkpt lat="46.21171" lon="5.30577">
        <ele>269.4</ele>
        <time>2022-02-24T15:58:21Z</time>
      </trkpt>
      <trkpt lat="46.21171" lon="5.30584">
        <ele>269.6</ele>
        <time>2022-02-24T15:58:22Z</time>
      </trkpt>
      <trkpt lat="46.21171" lon="5.30591">
        <ele>269.8</ele>
        <time>2022-02-24T15:58:23Z</time>
      </trkpt>
      <trkpt lat="46.21171" lon="5.30598">
        <ele>269.8</ele>
        <time>2022-02-24T15:58:24Z</time>
      </trkpt>
      <trkpt lat="46.21171" lon="5.30605">
        <ele>270.2</ele>
        <time>2022-02-24T15:58:25Z</time>
      </trkpt>
      <trkpt lat="46.21171" lon="5.30612">
        <ele>270.4</ele>
        <time>2022-02-24T15:58:26Z</time>
      </trkpt>
      <trkpt lat="46.21171" lon="5.30619">
        <ele>270.4</ele>
        <time>2022-02-24T15:58:27Z</time>
      </trkpt>
      <trkpt lat="46.21172" lon="5.30626">
        <ele>270.4</ele>
        <time>2022-02-24T15:58:28Z</time>
      </trkpt>
      <trkpt lat="46.21171" lon="5.30633">
        <ele>270.6</ele>
        <time>2022-02-24T15:58:29Z</time>
      </trkpt>
      <trkpt lat="46.21171" lon="5.3064">
        <ele>270.6</ele>
        <time>2022-02-24T15:58:30Z</time>
      </trkpt>
      <trkpt lat="46.21171" lon="5.30648">
        <ele>270.6</ele>
        <time>2022-02-24T15:58:31Z</time>
      </trkpt>
      <trkpt lat="46.21171" lon="5.30655">
        <ele>270.6</ele>
        <time>2022-02-24T15:58:32Z</time>
      </trkpt>
      <trkpt lat="46.21171" lon="5.30662">
        <ele>270.6</ele>
        <time>2022-02-24T15:58:33Z</time>
      </trkpt>
      <trkpt lat="46.21172" lon="5.3067">
        <ele>270.8</ele>
        <time>2022-02-24T15:58:34Z</time>
      </trkpt>
      <trkpt lat="46.21172" lon="5.30678">
        <ele>270.8</ele>
        <time>2022-02-24T15:58:35Z</time>
      </trkpt>
      <trkpt lat="46.21171" lon="5.30685">
        <ele>270.8</ele>
        <time>2022-02-24T15:58:36Z</time>
      </trkpt>
      <trkpt lat="46.21172" lon="5.30693">
        <ele>270.8</ele>
        <time>2022-02-24T15:58:37Z</time>
      </trkpt>
      <trkpt lat="46.21172" lon="5.30701">
        <ele>271.2</ele>
        <time>2022-02-24T15:58:38Z</time>
      </trkpt>
      <trkpt lat="46.21172" lon="5.30709">
        <ele>271.2</ele>
        <time>2022-02-24T15:58:39Z</time>
      </trkpt>
      <trkpt lat="46.21172" lon="5.30717">
        <ele>271.4</ele>
        <time>2022-02-24T15:58:40Z</time>
      </trkpt>
      <trkpt lat="46.21172" lon="5.30725">
        <ele>271.4</ele>
        <time>2022-02-24T15:58:41Z</time>
      </trkpt>
      <trkpt lat="46.21172" lon="5.30733">
        <ele>271.4</ele>
        <time>2022-02-24T15:58:42Z</time>
      </trkpt>
      <trkpt lat="46.21172" lon="5.30741">
        <ele>271.4</ele>
        <time>2022-02-24T15:58:43Z</time>
      </trkpt>
      <trkpt lat="46.21172" lon="5.30749">
        <ele>271.6</ele>
        <time>2022-02-24T15:58:44Z</time>
      </trkpt>
      <trkpt lat="46.21172" lon="5.30757">
        <ele>271.6</ele>
        <time>2022-02-24T15:58:45Z</time>
      </trkpt>
      <trkpt lat="46.21172" lon="5.30765">
        <ele>271.6</ele>
        <time>2022-02-24T15:58:46Z</time>
      </trkpt>
      <trkpt lat="46.21172" lon="5.30773">
        <ele>271.6</ele>
        <time>2022-02-24T15:58:47Z</time>
      </trkpt>
      <trkpt lat="46.21172" lon="5.3078">
        <ele>271.8</ele>
        <time>2022-02-24T15:58:48Z</time>
      </trkpt>
      <trkpt lat="46.21172" lon="5.30788">
        <ele>271.8</ele>
        <time>2022-02-24T15:58:49Z</time>
      </trkpt>
      <trkpt lat="46.21172" lon="5.30795">
        <ele>272.2</ele>
        <time>2022-02-24T15:58:50Z</time>
      </trkpt>
      <trkpt lat="46.21172" lon="5.30802">
        <ele>272.2</ele>
        <time>2022-02-24T15:58:51Z</time>
      </trkpt>
      <trkpt lat="46.21172" lon="5.30809">
        <ele>272.6</ele>
        <time>2022-02-24T15:58:52Z</time>
      </trkpt>
      <trkpt lat="46.21172" lon="5.30816">
        <ele>272.6</ele>
        <time>2022-02-24T15:58:53Z</time>
      </trkpt>
      <trkpt lat="46.21172" lon="5.30822">
        <ele>273</ele>
        <time>2022-02-24T15:58:54Z</time>
      </trkpt>
      <trkpt lat="46.21172" lon="5.30829">
        <ele>273</ele>
        <time>2022-02-24T15:58:55Z</time>
      </trkpt>
      <trkpt lat="46.21172" lon="5.30836">
        <ele>273.6</ele>
        <time>2022-02-24T15:58:56Z</time>
      </trkpt>
      <trkpt lat="46.21172" lon="5.30843">
        <ele>273.6</ele>
        <time>2022-02-24T15:58:57Z</time>
      </trkpt>
      <trkpt lat="46.21172" lon="5.3085">
        <ele>273.6</ele>
        <time>2022-02-24T15:58:58Z</time>
      </trkpt>
      <trkpt lat="46.21172" lon="5.30857">
        <ele>273.8</ele>
        <time>2022-02-24T15:58:59Z</time>
      </trkpt>
      <trkpt lat="46.21172" lon="5.30864">
        <ele>274</ele>
        <time>2022-02-24T15:59:00Z</time>
      </trkpt>
      <trkpt lat="46.21172" lon="5.30871">
        <ele>274</ele>
        <time>2022-02-24T15:59:01Z</time>
      </trkpt>
      <trkpt lat="46.21172" lon="5.30878">
        <ele>274</ele>
        <time>2022-02-24T15:59:02Z</time>
      </trkpt>
      <trkpt lat="46.21172" lon="5.30885">
        <ele>274.2</ele>
        <time>2022-02-24T15:59:03Z</time>
      </trkpt>
      <trkpt lat="46.21171" lon="5.30892">
        <ele>274.2</ele>
        <time>2022-02-24T15:59:04Z</time>
      </trkpt>
      <trkpt lat="46.21171" lon="5.30899">
        <ele>274.6</ele>
        <time>2022-02-24T15:59:05Z</time>
      </trkpt>
      <trkpt lat="46.21171" lon="5.30906">
        <ele>274.6</ele>
        <time>2022-02-24T15:59:06Z</time>
      </trkpt>
      <trkpt lat="46.21171" lon="5.30913">
        <ele>274.8</ele>
        <time>2022-02-24T15:59:07Z</time>
      </trkpt>
      <trkpt lat="46.21171" lon="5.3092">
        <ele>274.8</ele>
        <time>2022-02-24T15:59:08Z</time>
      </trkpt>
      <trkpt lat="46.21171" lon="5.30926">
        <ele>275</ele>
        <time>2022-02-24T15:59:09Z</time>
      </trkpt>
      <trkpt lat="46.21171" lon="5.30933">
        <ele>275</ele>
        <time>2022-02-24T15:59:10Z</time>
      </trkpt>
      <trkpt lat="46.21171" lon="5.3094">
        <ele>275</ele>
        <time>2022-02-24T15:59:11Z</time>
      </trkpt>
      <trkpt lat="46.21171" lon="5.30946">
        <ele>275.2</ele>
        <time>2022-02-24T15:59:12Z</time>
      </trkpt>
      <trkpt lat="46.21171" lon="5.30953">
        <ele>275.2</ele>
        <time>2022-02-24T15:59:13Z</time>
      </trkpt>
      <trkpt lat="46.21171" lon="5.3096">
        <ele>275.6</ele>
        <time>2022-02-24T15:59:14Z</time>
      </trkpt>
      <trkpt lat="46.21171" lon="5.30967">
        <ele>275.6</ele>
        <time>2022-02-24T15:59:15Z</time>
      </trkpt>
      <trkpt lat="46.21171" lon="5.30974">
        <ele>275.6</ele>
        <time>2022-02-24T15:59:16Z</time>
      </trkpt>
      <trkpt lat="46.21171" lon="5.30981">
        <ele>275.8</ele>
        <time>2022-02-24T15:59:17Z</time>
      </trkpt>
      <trkpt lat="46.21171" lon="5.30988">
        <ele>275.8</ele>
        <time>2022-02-24T15:59:18Z</time>
      </trkpt>
      <trkpt lat="46.21171" lon="5.30996">
        <ele>275.8</ele>
        <time>2022-02-24T15:59:19Z</time>
      </trkpt>
      <trkpt lat="46.21171" lon="5.31003">
        <ele>276</ele>
        <time>2022-02-24T15:59:20Z</time>
      </trkpt>
      <trkpt lat="46.21171" lon="5.31011">
        <ele>276</ele>
        <time>2022-02-24T15:59:21Z</time>
      </trkpt>
      <trkpt lat="46.21171" lon="5.31018">
        <ele>276</ele>
        <time>2022-02-24T15:59:22Z</time>
      </trkpt>
      <trkpt lat="46.21171" lon="5.31026">
        <ele>276</ele>
        <time>2022-02-24T15:59:23Z</time>
      </trkpt>
      <trkpt lat="46.21171" lon="5.31033">
        <ele>276</ele>
        <time>2022-02-24T15:59:24Z</time>
      </trkpt>
      <trkpt lat="46.21171" lon="5.31041">
        <ele>276.2</ele>
        <time>2022-02-24T15:59:25Z</time>
      </trkpt>
      <trkpt lat="46.21171" lon="5.31048">
        <ele>276.2</ele>
        <time>2022-02-24T15:59:26Z</time>
      </trkpt>
      <trkpt lat="46.21171" lon="5.31056">
        <ele>276.2</ele>
        <time>2022-02-24T15:59:27Z</time>
      </trkpt>
      <trkpt lat="46.21171" lon="5.31064">
        <ele>276.2</ele>
        <time>2022-02-24T15:59:28Z</time>
      </trkpt>
      <trkpt lat="46.21171" lon="5.31072">
        <ele>276.2</ele>
        <time>2022-02-24T15:59:29Z</time>
      </trkpt>
      <trkpt lat="46.21171" lon="5.3108">
        <ele>276.2</ele>
        <time>2022-02-24T15:59:30Z</time>
      </trkpt>
      <trkpt lat="46.21171" lon="5.31088">
        <ele>276.2</ele>
        <time>2022-02-24T15:59:31Z</time>
      </trkpt>
      <trkpt lat="46.21171" lon="5.31096">
        <ele>276.2</ele>
        <time>2022-02-24T15:59:32Z</time>
      </trkpt>
      <trkpt lat="46.21171" lon="5.31104">
        <ele>276.2</ele>
        <time>2022-02-24T15:59:33Z</time>
      </trkpt>
      <trkpt lat="46.21171" lon="5.31112">
        <ele>276.2</ele>
        <time>2022-02-24T15:59:34Z</time>
      </trkpt>
      <trkpt lat="46.21171" lon="5.3112">
        <ele>276.4</ele>
        <time>2022-02-24T15:59:35Z</time>
      </trkpt>
      <trkpt lat="46.21171" lon="5.31128">
        <ele>276.4</ele>
        <time>2022-02-24T15:59:36Z</time>
      </trkpt>
      <trkpt lat="46.21171" lon="5.31136">
        <ele>276.8</ele>
        <time>2022-02-24T15:59:37Z</time>
      </trkpt>
      <trkpt lat="46.21171" lon="5.31144">
        <ele>276.8</ele>
        <time>2022-02-24T15:59:38Z</time>
      </trkpt>
      <trkpt lat="46.21171" lon="5.31152">
        <ele>276.8</ele>
        <time>2022-02-24T15:59:39Z</time>
      </trkpt>
      <trkpt lat="46.21171" lon="5.3116">
        <ele>276.8</ele>
        <time>2022-02-24T15:59:40Z</time>
      </trkpt>
      <trkpt lat="46.21171" lon="5.31167">
        <ele>276.8</ele>
        <time>2022-02-24T15:59:41Z</time>
      </trkpt>
      <trkpt lat="46.21171" lon="5.31175">
        <ele>277</ele>
        <time>2022-02-24T15:59:42Z</time>
      </trkpt>
      <trkpt lat="46.21171" lon="5.31183">
        <ele>277</ele>
        <time>2022-02-24T15:59:43Z</time>
      </trkpt>
      <trkpt lat="46.21172" lon="5.3119">
        <ele>277</ele>
        <time>2022-02-24T15:59:44Z</time>
      </trkpt>
      <trkpt lat="46.21172" lon="5.31198">
        <ele>277.4</ele>
        <time>2022-02-24T15:59:45Z</time>
      </trkpt>
      <trkpt lat="46.21172" lon="5.31205">
        <ele>277.4</ele>
        <time>2022-02-24T15:59:46Z</time>
      </trkpt>
      <trkpt lat="46.21171" lon="5.31213">
        <ele>277.4</ele>
        <time>2022-02-24T15:59:47Z</time>
      </trkpt>
      <trkpt lat="46.21171" lon="5.3122">
        <ele>277.4</ele>
        <time>2022-02-24T15:59:48Z</time>
      </trkpt>
      <trkpt lat="46.21171" lon="5.31228">
        <ele>277.4</ele>
        <time>2022-02-24T15:59:49Z</time>
      </trkpt>
      <trkpt lat="46.21171" lon="5.31235">
        <ele>277.6</ele>
        <time>2022-02-24T15:59:50Z</time>
      </trkpt>
      <trkpt lat="46.21171" lon="5.31243">
        <ele>277.6</ele>
        <time>2022-02-24T15:59:51Z</time>
      </trkpt>
      <trkpt lat="46.21171" lon="5.31251">
        <ele>277.6</ele>
        <time>2022-02-24T15:59:52Z</time>
      </trkpt>
      <trkpt lat="46.21171" lon="5.31258">
        <ele>277.6</ele>
        <time>2022-02-24T15:59:53Z</time>
      </trkpt>
      <trkpt lat="46.21171" lon="5.31266">
        <ele>277.8</ele>
        <time>2022-02-24T15:59:54Z</time>
      </trkpt>
      <trkpt lat="46.21172" lon="5.31273">
        <ele>277.8</ele>
        <time>2022-02-24T15:59:55Z</time>
      </trkpt>
      <trkpt lat="46.21172" lon="5.31281">
        <ele>278.2</ele>
        <time>2022-02-24T15:59:56Z</time>
      </trkpt>
      <trkpt lat="46.21172" lon="5.31288">
        <ele>278.2</ele>
        <time>2022-02-24T15:59:57Z</time>
      </trkpt>
      <trkpt lat="46.21172" lon="5.31296">
        <ele>278.4</ele>
        <time>2022-02-24T15:59:58Z</time>
      </trkpt>
      <trkpt lat="46.21172" lon="5.31303">
        <ele>278.4</ele>
        <time>2022-02-24T15:59:59Z</time>
      </trkpt>
      <trkpt lat="46.21172" lon="5.31311">
        <ele>278.4</ele>
        <time>2022-02-24T16:00:00Z</time>
      </trkpt>
      <trkpt lat="46.21172" lon="5.31319">
        <ele>278.6</ele>
        <time>2022-02-24T16:00:01Z</time>
      </trkpt>
      <trkpt lat="46.21172" lon="5.31327">
        <ele>278.6</ele>
        <time>2022-02-24T16:00:02Z</time>
      </trkpt>
      <trkpt lat="46.21172" lon="5.31334">
        <ele>278.6</ele>
        <time>2022-02-24T16:00:03Z</time>
      </trkpt>
      <trkpt lat="46.21172" lon="5.31342">
        <ele>279</ele>
        <time>2022-02-24T16:00:04Z</time>
      </trkpt>
      <trkpt lat="46.21172" lon="5.31349">
        <ele>279</ele>
        <time>2022-02-24T16:00:05Z</time>
      </trkpt>
      <trkpt lat="46.21172" lon="5.31357">
        <ele>279.4</ele>
        <time>2022-02-24T16:00:06Z</time>
      </trkpt>
      <trkpt lat="46.21172" lon="5.31364">
        <ele>279.4</ele>
        <time>2022-02-24T16:00:07Z</time>
      </trkpt>
      <trkpt lat="46.21172" lon="5.31372">
        <ele>279.4</ele>
        <time>2022-02-24T16:00:08Z</time>
      </trkpt>
      <trkpt lat="46.21172" lon="5.31379">
        <ele>279.6</ele>
        <time>2022-02-24T16:00:09Z</time>
      </trkpt>
      <trkpt lat="46.21172" lon="5.31386">
        <ele>279.6</ele>
        <time>2022-02-24T16:00:10Z</time>
      </trkpt>
      <trkpt lat="46.21172" lon="5.31393">
        <ele>279.8</ele>
        <time>2022-02-24T16:00:11Z</time>
      </trkpt>
      <trkpt lat="46.21172" lon="5.31401">
        <ele>279.8</ele>
        <time>2022-02-24T16:00:12Z</time>
      </trkpt>
      <trkpt lat="46.21172" lon="5.31408">
        <ele>279.8</ele>
        <time>2022-02-24T16:00:13Z</time>
      </trkpt>
      <trkpt lat="46.21172" lon="5.31415">
        <ele>280.2</ele>
        <time>2022-02-24T16:00:14Z</time>
      </trkpt>
      <trkpt lat="46.21172" lon="5.31422">
        <ele>280.2</ele>
        <time>2022-02-24T16:00:15Z</time>
      </trkpt>
      <trkpt lat="46.21172" lon="5.31429">
        <ele>280.2</ele>
        <time>2022-02-24T16:00:16Z</time>
      </trkpt>
      <trkpt lat="46.21172" lon="5.31437">
        <ele>280.2</ele>
        <time>2022-02-24T16:00:17Z</time>
      </trkpt>
      <trkpt lat="46.21172" lon="5.31444">
        <ele>280.4</ele>
        <time>2022-02-24T16:00:18Z</time>
      </trkpt>
      <trkpt lat="46.21172" lon="5.31452">
        <ele>280.4</ele>
        <time>2022-02-24T16:00:19Z</time>
      </trkpt>
      <trkpt lat="46.21172" lon="5.31459">
        <ele>280.4</ele>
        <time>2022-02-24T16:00:20Z</time>
      </trkpt>
      <trkpt lat="46.21172" lon="5.31467">
        <ele>280.4</ele>
        <time>2022-02-24T16:00:21Z</time>
      </trkpt>
      <trkpt lat="46.21172" lon="5.31474">
        <ele>280.4</ele>
        <time>2022-02-24T16:00:22Z</time>
      </trkpt>
      <trkpt lat="46.21172" lon="5.31481">
        <ele>280.4</ele>
        <time>2022-02-24T16:00:23Z</time>
      </trkpt>
      <trkpt lat="46.21172" lon="5.31488">
        <ele>280.4</ele>
        <time>2022-02-24T16:00:24Z</time>
      </trkpt>
      <trkpt lat="46.21172" lon="5.31495">
        <ele>280.4</ele>
        <time>2022-02-24T16:00:25Z</time>
      </trkpt>
      <trkpt lat="46.21172" lon="5.31502">
        <ele>280.4</ele>
        <time>2022-02-24T16:00:26Z</time>
      </trkpt>
      <trkpt lat="46.21172" lon="5.3151">
        <ele>280.6</ele>
        <time>2022-02-24T16:00:27Z</time>
      </trkpt>
      <trkpt lat="46.21172" lon="5.31517">
        <ele>280.6</ele>
        <time>2022-02-24T16:00:28Z</time>
      </trkpt>
      <trkpt lat="46.21172" lon="5.31525">
        <ele>280.6</ele>
        <time>2022-02-24T16:00:29Z</time>
      </trkpt>
      <trkpt lat="46.21172" lon="5.31532">
        <ele>280.6</ele>
        <time>2022-02-24T16:00:30Z</time>
      </trkpt>
      <trkpt lat="46.21172" lon="5.3154">
        <ele>280.6</ele>
        <time>2022-02-24T16:00:31Z</time>
      </trkpt>
      <trkpt lat="46.21172" lon="5.31547">
        <ele>280.6</ele>
        <time>2022-02-24T16:00:32Z</time>
      </trkpt>
      <trkpt lat="46.21172" lon="5.31555">
        <ele>280.6</ele>
        <time>2022-02-24T16:00:33Z</time>
      </trkpt>
      <trkpt lat="46.21172" lon="5.31562">
        <ele>280.6</ele>
        <time>2022-02-24T16:00:34Z</time>
      </trkpt>
      <trkpt lat="46.21172" lon="5.3157">
        <ele>280.6</ele>
        <time>2022-02-24T16:00:35Z</time>
      </trkpt>
      <trkpt lat="46.21172" lon="5.31578">
        <ele>280.6</ele>
        <time>2022-02-24T16:00:36Z</time>
      </trkpt>
      <trkpt lat="46.21172" lon="5.31585">
        <ele>280.6</ele>
        <time>2022-02-24T16:00:37Z</time>
      </trkpt>
      <trkpt lat="46.21172" lon="5.31593">
        <ele>280.6</ele>
        <time>2022-02-24T16:00:38Z</time>
      </trkpt>
      <trkpt lat="46.21172" lon="5.31601">
        <ele>280.6</ele>
        <time>2022-02-24T16:00:39Z</time>
      </trkpt>
      <trkpt lat="46.21172" lon="5.31609">
        <ele>280.6</ele>
        <time>2022-02-24T16:00:40Z</time>
      </trkpt>
      <trkpt lat="46.21172" lon="5.31617">
        <ele>280.6</ele>
        <time>2022-02-24T16:00:41Z</time>
      </trkpt>
      <trkpt lat="46.21172" lon="5.31625">
        <ele>280.6</ele>
        <time>2022-02-24T16:00:42Z</time>
      </trkpt>
      <trkpt lat="46.21172" lon="5.31633">
        <ele>280.6</ele>
        <time>2022-02-24T16:00:43Z</time>
      </trkpt>
      <trkpt lat="46.21172" lon="5.31641">
        <ele>280.6</ele>
        <time>2022-02-24T16:00:44Z</time>
      </trkpt>
      <trkpt lat="46.21172" lon="5.3165">
        <ele>280.6</ele>
        <time>2022-02-24T16:00:45Z</time>
      </trkpt>
      <trkpt lat="46.21172" lon="5.31658">
        <ele>280.6</ele>
        <time>2022-02-24T16:00:46Z</time>
      </trkpt>
      <trkpt lat="46.21172" lon="5.31666">
        <ele>280.6</ele>
        <time>2022-02-24T16:00:47Z</time>
      </trkpt>
      <trkpt lat="46.21172" lon="5.31674">
        <ele>280.6</ele>
        <time>2022-02-24T16:00:48Z</time>
      </trkpt>
      <trkpt lat="46.21172" lon="5.31682">
        <ele>280.6</ele>
        <time>2022-02-24T16:00:49Z</time>
      </trkpt>
      <trkpt lat="46.21172" lon="5.31689">
        <ele>280.6</ele>
        <time>2022-02-24T16:00:50Z</time>
      </trkpt>
      <trkpt lat="46.21172" lon="5.31697">
        <ele>280.6</ele>
        <time>2022-02-24T16:00:51Z</time>
      </trkpt>
      <trkpt lat="46.21172" lon="5.31705">
        <ele>280.6</ele>
        <time>2022-02-24T16:00:52Z</time>
      </trkpt>
      <trkpt lat="46.21172" lon="5.31712">
        <ele>280.8</ele>
        <time>2022-02-24T16:00:53Z</time>
      </trkpt>
      <trkpt lat="46.21172" lon="5.3172">
        <ele>280.8</ele>
        <time>2022-02-24T16:00:54Z</time>
      </trkpt>
      <trkpt lat="46.21172" lon="5.31727">
        <ele>281</ele>
        <time>2022-02-24T16:00:55Z</time>
      </trkpt>
      <trkpt lat="46.21172" lon="5.31735">
        <ele>281</ele>
        <time>2022-02-24T16:00:56Z</time>
      </trkpt>
      <trkpt lat="46.21172" lon="5.31742">
        <ele>281.2</ele>
        <time>2022-02-24T16:00:57Z</time>
      </trkpt>
      <trkpt lat="46.21172" lon="5.3175">
        <ele>281.2</ele>
        <time>2022-02-24T16:00:58Z</time>
      </trkpt>
      <trkpt lat="46.21172" lon="5.31757">
        <ele>281.4</ele>
        <time>2022-02-24T16:00:59Z</time>
      </trkpt>
      <trkpt lat="46.21172" lon="5.31764">
        <ele>281.4</ele>
        <time>2022-02-24T16:01:00Z</time>
      </trkpt>
      <trkpt lat="46.21172" lon="5.31771">
        <ele>281.8</ele>
        <time>2022-02-24T16:01:01Z</time>
      </trkpt>
      <trkpt lat="46.21172" lon="5.31778">
        <ele>281.8</ele>
        <time>2022-02-24T16:01:02Z</time>
      </trkpt>
      <trkpt lat="46.21172" lon="5.31785">
        <ele>281.8</ele>
        <time>2022-02-24T16:01:03Z</time>
      </trkpt>
      <trkpt lat="46.21172" lon="5.31792">
        <ele>282</ele>
        <time>2022-02-24T16:01:04Z</time>
      </trkpt>
      <trkpt lat="46.21172" lon="5.31798">
        <ele>282</ele>
        <time>2022-02-24T16:01:05Z</time>
      </trkpt>
      <trkpt lat="46.21172" lon="5.31805">
        <ele>282.4</ele>
        <time>2022-02-24T16:01:06Z</time>
      </trkpt>
      <trkpt lat="46.21172" lon="5.31812">
        <ele>282.4</ele>
        <time>2022-02-24T16:01:07Z</time>
      </trkpt>
      <trkpt lat="46.21172" lon="5.31818">
        <ele>282.4</ele>
        <time>2022-02-24T16:01:08Z</time>
      </trkpt>
      <trkpt lat="46.21172" lon="5.31825">
        <ele>282.6</ele>
        <time>2022-02-24T16:01:09Z</time>
      </trkpt>
      <trkpt lat="46.21172" lon="5.31832">
        <ele>282.6</ele>
        <time>2022-02-24T16:01:10Z</time>
      </trkpt>
      <trkpt lat="46.21172" lon="5.31839">
        <ele>282.6</ele>
        <time>2022-02-24T16:01:11Z</time>
      </trkpt>
      <trkpt lat="46.21172" lon="5.31846">
        <ele>283.2</ele>
        <time>2022-02-24T16:01:12Z</time>
      </trkpt>
      <trkpt lat="46.21173" lon="5.31853">
        <ele>283.2</ele>
        <time>2022-02-24T16:01:13Z</time>
      </trkpt>
      <trkpt lat="46.21173" lon="5.3186">
        <ele>283.2</ele>
        <time>2022-02-24T16:01:14Z</time>
      </trkpt>
      <trkpt lat="46.21173" lon="5.31867">
        <ele>283.4</ele>
        <time>2022-02-24T16:01:15Z</time>
      </trkpt>
      <trkpt lat="46.21173" lon="5.31874">
        <ele>283.6</ele>
        <time>2022-02-24T16:01:16Z</time>
      </trkpt>
      <trkpt lat="46.21173" lon="5.31881">
        <ele>283.6</ele>
        <time>2022-02-24T16:01:17Z</time>
      </trkpt>
      <trkpt lat="46.21173" lon="5.31888">
        <ele>283.8</ele>
        <time>2022-02-24T16:01:18Z</time>
      </trkpt>
      <trkpt lat="46.21173" lon="5.31895">
        <ele>283.8</ele>
        <time>2022-02-24T16:01:19Z</time>
      </trkpt>
      <trkpt lat="46.21173" lon="5.31902">
        <ele>283.8</ele>
        <time>2022-02-24T16:01:20Z</time>
      </trkpt>
      <trkpt lat="46.21173" lon="5.31909">
        <ele>284</ele>
        <time>2022-02-24T16:01:21Z</time>
      </trkpt>
      <trkpt lat="46.21173" lon="5.31916">
        <ele>284</ele>
        <time>2022-02-24T16:01:22Z</time>
      </trkpt>
      <trkpt lat="46.21173" lon="5.31923">
        <ele>284</ele>
        <time>2022-02-24T16:01:23Z</time>
      </trkpt>
      <trkpt lat="46.21173" lon="5.31931">
        <ele>284.2</ele>
        <time>2022-02-24T16:01:24Z</time>
      </trkpt>
      <trkpt lat="46.21173" lon="5.31938">
        <ele>284.2</ele>
        <time>2022-02-24T16:01:25Z</time>
      </trkpt>
      <trkpt lat="46.21173" lon="5.31945">
        <ele>284.4</ele>
        <time>2022-02-24T16:01:26Z</time>
      </trkpt>
      <trkpt lat="46.21173" lon="5.31952">
        <ele>284.4</ele>
        <time>2022-02-24T16:01:27Z</time>
      </trkpt>
      <trkpt lat="46.21173" lon="5.3196">
        <ele>284.4</ele>
        <time>2022-02-24T16:01:28Z</time>
      </trkpt>
      <trkpt lat="46.21173" lon="5.31967">
        <ele>284.8</ele>
        <time>2022-02-24T16:01:29Z</time>
      </trkpt>
      <trkpt lat="46.21173" lon="5.31974">
        <ele>284.8</ele>
        <time>2022-02-24T16:01:30Z</time>
      </trkpt>
      <trkpt lat="46.21173" lon="5.31981">
        <ele>285</ele>
        <time>2022-02-24T16:01:31Z</time>
      </trkpt>
      <trkpt lat="46.21173" lon="5.31988">
        <ele>285</ele>
        <time>2022-02-24T16:01:32Z</time>
      </trkpt>
      <trkpt lat="46.21173" lon="5.31995">
        <ele>285.2</ele>
        <time>2022-02-24T16:01:33Z</time>
      </trkpt>
      <trkpt lat="46.21173" lon="5.32002">
        <ele>285.2</ele>
        <time>2022-02-24T16:01:34Z</time>
      </trkpt>
      <trkpt lat="46.21173" lon="5.32009">
        <ele>285.4</ele>
        <time>2022-02-24T16:01:35Z</time>
      </trkpt>
      <trkpt lat="46.21173" lon="5.32016">
        <ele>285.8</ele>
        <time>2022-02-24T16:01:36Z</time>
      </trkpt>
      <trkpt lat="46.21173" lon="5.32022">
        <ele>285.8</ele>
        <time>2022-02-24T16:01:37Z</time>
      </trkpt>
      <trkpt lat="46.21173" lon="5.32029">
        <ele>286</ele>
        <time>2022-02-24T16:01:38Z</time>
      </trkpt>
      <trkpt lat="46.21173" lon="5.32035">
        <ele>286.4</ele>
        <time>2022-02-24T16:01:39Z</time>
      </trkpt>
      <trkpt lat="46.21173" lon="5.32041">
        <ele>286.4</ele>
        <time>2022-02-24T16:01:40Z</time>
      </trkpt>
      <trkpt lat="46.21173" lon="5.32047">
        <ele>286.6</ele>
        <time>2022-02-24T16:01:41Z</time>
      </trkpt>
      <trkpt lat="46.21173" lon="5.32053">
        <ele>286.8</ele>
        <time>2022-02-24T16:01:42Z</time>
      </trkpt>
      <trkpt lat="46.21173" lon="5.32059">
        <ele>287</ele>
        <time>2022-02-24T16:01:43Z</time>
      </trkpt>
      <trkpt lat="46.21173" lon="5.32065">
        <ele>287</ele>
        <time>2022-02-24T16:01:44Z</time>
      </trkpt>
      <trkpt lat="46.21173" lon="5.32071">
        <ele>287.4</ele>
        <time>2022-02-24T16:01:45Z</time>
      </trkpt>
      <trkpt lat="46.21173" lon="5.32077">
        <ele>287.4</ele>
        <time>2022-02-24T16:01:46Z</time>
      </trkpt>
      <trkpt lat="46.21173" lon="5.32082">
        <ele>287.6</ele>
        <time>2022-02-24T16:01:47Z</time>
      </trkpt>
      <trkpt lat="46.21173" lon="5.32088">
        <ele>287.6</ele>
        <time>2022-02-24T16:01:48Z</time>
      </trkpt>
      <trkpt lat="46.21173" lon="5.32094">
        <ele>287.8</ele>
        <time>2022-02-24T16:01:49Z</time>
      </trkpt>
      <trkpt lat="46.21173" lon="5.321">
        <ele>287.8</ele>
        <time>2022-02-24T16:01:50Z</time>
      </trkpt>
      <trkpt lat="46.21173" lon="5.32106">
        <ele>288</ele>
        <time>2022-02-24T16:01:51Z</time>
      </trkpt>
      <trkpt lat="46.21173" lon="5.32111">
        <ele>288</ele>
        <time>2022-02-24T16:01:52Z</time>
      </trkpt>
      <trkpt lat="46.21173" lon="5.32117">
        <ele>288</ele>
        <time>2022-02-24T16:01:53Z</time>
      </trkpt>
      <trkpt lat="46.21173" lon="5.32123">
        <ele>288.2</ele>
        <time>2022-02-24T16:01:54Z</time>
      </trkpt>
      <trkpt lat="46.21173" lon="5.32128">
        <ele>288.2</ele>
        <time>2022-02-24T16:01:55Z</time>
      </trkpt>
      <trkpt lat="46.21173" lon="5.32134">
        <ele>288.6</ele>
        <time>2022-02-24T16:01:56Z</time>
      </trkpt>
      <trkpt lat="46.21173" lon="5.32139">
        <ele>288.6</ele>
        <time>2022-02-24T16:01:57Z</time>
      </trkpt>
      <trkpt lat="46.21173" lon="5.32144">
        <ele>288.6</ele>
        <time>2022-02-24T16:01:58Z</time>
      </trkpt>
      <trkpt lat="46.21173" lon="5.3215">
        <ele>289</ele>
        <time>2022-02-24T16:01:59Z</time>
      </trkpt>
      <trkpt lat="46.21173" lon="5.32155">
        <ele>289</ele>
        <time>2022-02-24T16:02:00Z</time>
      </trkpt>
      <trkpt lat="46.21173" lon="5.32161">
        <ele>289</ele>
        <time>2022-02-24T16:02:01Z</time>
      </trkpt>
      <trkpt lat="46.21173" lon="5.32166">
        <ele>289</ele>
        <time>2022-02-24T16:02:02Z</time>
      </trkpt>
      <trkpt lat="46.21173" lon="5.32172">
        <ele>289.2</ele>
        <time>2022-02-24T16:02:03Z</time>
      </trkpt>
      <trkpt lat="46.21173" lon="5.32177">
        <ele>289.2</ele>
        <time>2022-02-24T16:02:04Z</time>
      </trkpt>
      <trkpt lat="46.21173" lon="5.32183">
        <ele>289.2</ele>
        <time>2022-02-24T16:02:05Z</time>
      </trkpt>
      <trkpt lat="46.21173" lon="5.32189">
        <ele>289.4</ele>
        <time>2022-02-24T16:02:06Z</time>
      </trkpt>
      <trkpt lat="46.21173" lon="5.32195">
        <ele>289.4</ele>
        <time>2022-02-24T16:02:07Z</time>
      </trkpt>
      <trkpt lat="46.21173" lon="5.32201">
        <ele>289.4</ele>
        <time>2022-02-24T16:02:08Z</time>
      </trkpt>
      <trkpt lat="46.21174" lon="5.32206">
        <ele>289.4</ele>
        <time>2022-02-24T16:02:09Z</time>
      </trkpt>
      <trkpt lat="46.21174" lon="5.32212">
        <ele>289.4</ele>
        <time>2022-02-24T16:02:10Z</time>
      </trkpt>
      <trkpt lat="46.21174" lon="5.32218">
        <ele>289.8</ele>
        <time>2022-02-24T16:02:11Z</time>
      </trkpt>
      <trkpt lat="46.21174" lon="5.32224">
        <ele>289.8</ele>
        <time>2022-02-24T16:02:12Z</time>
      </trkpt>
      <trkpt lat="46.21175" lon="5.3223">
        <ele>289.8</ele>
        <time>2022-02-24T16:02:13Z</time>
      </trkpt>
      <trkpt lat="46.21176" lon="5.32236">
        <ele>290</ele>
        <time>2022-02-24T16:02:14Z</time>
      </trkpt>
      <trkpt lat="46.21177" lon="5.32241">
        <ele>290</ele>
        <time>2022-02-24T16:02:15Z</time>
      </trkpt>
      <trkpt lat="46.21177" lon="5.32247">
        <ele>290</ele>
        <time>2022-02-24T16:02:16Z</time>
      </trkpt>
      <trkpt lat="46.21178" lon="5.32253">
        <ele>290</ele>
        <time>2022-02-24T16:02:17Z</time>
      </trkpt>
      <trkpt lat="46.21178" lon="5.32259">
        <ele>290.2</ele>
        <time>2022-02-24T16:02:18Z</time>
      </trkpt>
      <trkpt lat="46.21179" lon="5.32264">
        <ele>290.2</ele>
        <time>2022-02-24T16:02:19Z</time>
      </trkpt>
      <trkpt lat="46.2118" lon="5.3227">
        <ele>290.2</ele>
        <time>2022-02-24T16:02:20Z</time>
      </trkpt>
      <trkpt lat="46.2118" lon="5.32276">
        <ele>290.2</ele>
        <time>2022-02-24T16:02:21Z</time>
      </trkpt>
      <trkpt lat="46.21181" lon="5.32281">
        <ele>290.4</ele>
        <time>2022-02-24T16:02:22Z</time>
      </trkpt>
      <trkpt lat="46.21182" lon="5.32287">
        <ele>290.4</ele>
        <time>2022-02-24T16:02:23Z</time>
      </trkpt>
      <trkpt lat="46.21182" lon="5.32292">
        <ele>290.6</ele>
        <time>2022-02-24T16:02:24Z</time>
      </trkpt>
      <trkpt lat="46.21183" lon="5.32297">
        <ele>290.6</ele>
        <time>2022-02-24T16:02:25Z</time>
      </trkpt>
      <trkpt lat="46.21184" lon="5.32303">
        <ele>290.6</ele>
        <time>2022-02-24T16:02:26Z</time>
      </trkpt>
      <trkpt lat="46.21185" lon="5.32309">
        <ele>291</ele>
        <time>2022-02-24T16:02:27Z</time>
      </trkpt>
      <trkpt lat="46.21185" lon="5.32315">
        <ele>291</ele>
        <time>2022-02-24T16:02:28Z</time>
      </trkpt>
      <trkpt lat="46.21186" lon="5.3232">
        <ele>291</ele>
        <time>2022-02-24T16:02:29Z</time>
      </trkpt>
      <trkpt lat="46.21187" lon="5.32326">
        <ele>291.4</ele>
        <time>2022-02-24T16:02:30Z</time>
      </trkpt>
      <trkpt lat="46.21188" lon="5.32331">
        <ele>291.4</ele>
        <time>2022-02-24T16:02:31Z</time>
      </trkpt>
      <trkpt lat="46.21188" lon="5.32337">
        <ele>291.4</ele>
        <time>2022-02-24T16:02:32Z</time>
      </trkpt>
      <trkpt lat="46.21188" lon="5.32342">
        <ele>291.6</ele>
        <time>2022-02-24T16:02:33Z</time>
      </trkpt>
      <trkpt lat="46.21189" lon="5.32348">
        <ele>291.6</ele>
        <time>2022-02-24T16:02:34Z</time>
      </trkpt>
      <trkpt lat="46.21189" lon="5.32353">
        <ele>291.6</ele>
        <time>2022-02-24T16:02:35Z</time>
      </trkpt>
      <trkpt lat="46.2119" lon="5.32359">
        <ele>291.8</ele>
        <time>2022-02-24T16:02:36Z</time>
      </trkpt>
      <trkpt lat="46.2119" lon="5.32365">
        <ele>291.8</ele>
        <time>2022-02-24T16:02:37Z</time>
      </trkpt>
      <trkpt lat="46.21191" lon="5.3237">
        <ele>292</ele>
        <time>2022-02-24T16:02:38Z</time>
      </trkpt>
      <trkpt lat="46.21192" lon="5.32376">
        <ele>292</ele>
        <time>2022-02-24T16:02:39Z</time>
      </trkpt>
      <trkpt lat="46.21192" lon="5.32382">
        <ele>292.2</ele>
        <time>2022-02-24T16:02:40Z</time>
      </trkpt>
      <trkpt lat="46.21193" lon="5.32388">
        <ele>292.2</ele>
        <time>2022-02-24T16:02:41Z</time>
      </trkpt>
      <trkpt lat="46.21194" lon="5.32394">
        <ele>292.4</ele>
        <time>2022-02-24T16:02:42Z</time>
      </trkpt>
      <trkpt lat="46.21195" lon="5.324">
        <ele>292.4</ele>
        <time>2022-02-24T16:02:43Z</time>
      </trkpt>
      <trkpt lat="46.21195" lon="5.32405">
        <ele>292.4</ele>
        <time>2022-02-24T16:02:44Z</time>
      </trkpt>
      <trkpt lat="46.21196" lon="5.32411">
        <ele>292.8</ele>
        <time>2022-02-24T16:02:45Z</time>
      </trkpt>
      <trkpt lat="46.21197" lon="5.32417">
        <ele>292.8</ele>
        <time>2022-02-24T16:02:46Z</time>
      </trkpt>
      <trkpt lat="46.21198" lon="5.32424">
        <ele>292.8</ele>
        <time>2022-02-24T16:02:47Z</time>
      </trkpt>
      <trkpt lat="46.21198" lon="5.3243">
        <ele>293</ele>
        <time>2022-02-24T16:02:48Z</time>
      </trkpt>
      <trkpt lat="46.21199" lon="5.32436">
        <ele>293</ele>
        <time>2022-02-24T16:02:49Z</time>
      </trkpt>
      <trkpt lat="46.21199" lon="5.32442">
        <ele>293</ele>
        <time>2022-02-24T16:02:50Z</time>
      </trkpt>
      <trkpt lat="46.212" lon="5.32448">
        <ele>293.2</ele>
        <time>2022-02-24T16:02:51Z</time>
      </trkpt>
      <trkpt lat="46.21202" lon="5.32454">
        <ele>293.2</ele>
        <time>2022-02-24T16:02:52Z</time>
      </trkpt>
      <trkpt lat="46.21203" lon="5.32459">
        <ele>293.2</ele>
        <time>2022-02-24T16:02:53Z</time>
      </trkpt>
      <trkpt lat="46.21204" lon="5.32464">
        <ele>293.2</ele>
        <time>2022-02-24T16:02:54Z</time>
      </trkpt>
      <trkpt lat="46.21205" lon="5.32469">
        <ele>293.4</ele>
        <time>2022-02-24T16:02:55Z</time>
      </trkpt>
      <trkpt lat="46.21206" lon="5.32475">
        <ele>293.4</ele>
        <time>2022-02-24T16:02:56Z</time>
      </trkpt>
      <trkpt lat="46.21206" lon="5.3248">
        <ele>293.4</ele>
        <time>2022-02-24T16:02:57Z</time>
      </trkpt>
      <trkpt lat="46.21206" lon="5.32486">
        <ele>293.6</ele>
        <time>2022-02-24T16:02:58Z</time>
      </trkpt>
      <trkpt lat="46.21207" lon="5.3249">
        <ele>293.6</ele>
        <time>2022-02-24T16:02:59Z</time>
      </trkpt>
      <trkpt lat="46.21208" lon="5.32496">
        <ele>294</ele>
        <time>2022-02-24T16:03:00Z</time>
      </trkpt>
      <trkpt lat="46.21208" lon="5.325">
        <ele>294</ele>
        <time>2022-02-24T16:03:01Z</time>
      </trkpt>
      <trkpt lat="46.21209" lon="5.32506">
        <ele>294.2</ele>
        <time>2022-02-24T16:03:02Z</time>
      </trkpt>
      <trkpt lat="46.21209" lon="5.32511">
        <ele>294.2</ele>
        <time>2022-02-24T16:03:03Z</time>
      </trkpt>
      <trkpt lat="46.2121" lon="5.32516">
        <ele>294.6</ele>
        <time>2022-02-24T16:03:04Z</time>
      </trkpt>
      <trkpt lat="46.21211" lon="5.32521">
        <ele>294.8</ele>
        <time>2022-02-24T16:03:05Z</time>
      </trkpt>
      <trkpt lat="46.21212" lon="5.32525">
        <ele>294.8</ele>
        <time>2022-02-24T16:03:06Z</time>
      </trkpt>
      <trkpt lat="46.21212" lon="5.3253">
        <ele>295</ele>
        <time>2022-02-24T16:03:07Z</time>
      </trkpt>
      <trkpt lat="46.21213" lon="5.32534">
        <ele>295</ele>
        <time>2022-02-24T16:03:08Z</time>
      </trkpt>
      <trkpt lat="46.21214" lon="5.32538">
        <ele>295.4</ele>
        <time>2022-02-24T16:03:09Z</time>
      </trkpt>
      <trkpt lat="46.21215" lon="5.32542">
        <ele>295.6</ele>
        <time>2022-02-24T16:03:10Z</time>
      </trkpt>
      <trkpt lat="46.21216" lon="5.32547">
        <ele>295.6</ele>
        <time>2022-02-24T16:03:11Z</time>
      </trkpt>
      <trkpt lat="46.21217" lon="5.3255">
        <ele>295.8</ele>
        <time>2022-02-24T16:03:12Z</time>
      </trkpt>
      <trkpt lat="46.21217" lon="5.32554">
        <ele>295.8</ele>
        <time>2022-02-24T16:03:13Z</time>
      </trkpt>
      <trkpt lat="46.21218" lon="5.32559">
        <ele>296</ele>
        <time>2022-02-24T16:03:14Z</time>
      </trkpt>
      <trkpt lat="46.21218" lon="5.32564">
        <ele>296</ele>
        <time>2022-02-24T16:03:15Z</time>
      </trkpt>
      <trkpt lat="46.21218" lon="5.32568">
        <ele>296.4</ele>
        <time>2022-02-24T16:03:16Z</time>
      </trkpt>
      <trkpt lat="46.21218" lon="5.32573">
        <ele>296.4</ele>
        <time>2022-02-24T16:03:17Z</time>
      </trkpt>
      <trkpt lat="46.21218" lon="5.32576">
        <ele>296.4</ele>
        <time>2022-02-24T16:03:18Z</time>
      </trkpt>
      <trkpt lat="46.21218" lon="5.32577">
        <ele>296.4</ele>
        <time>2022-02-24T16:03:19Z</time>
      </trkpt>
      <trkpt lat="46.21217" lon="5.32593">
        <ele>296.2</ele>
        <time>2022-02-24T16:11:46Z</time>
      </trkpt>
      <trkpt lat="46.21217" lon="5.32596">
        <ele>296.2</ele>
        <time>2022-02-24T16:11:47Z</time>
      </trkpt>
      <trkpt lat="46.21217" lon="5.32598">
        <ele>296.2</ele>
        <time>2022-02-24T16:11:48Z</time>
      </trkpt>
      <trkpt lat="46.21217" lon="5.32602">
        <ele>296.2</ele>
        <time>2022-02-24T16:11:49Z</time>
      </trkpt>
      <trkpt lat="46.21217" lon="5.32606">
        <ele>296.2</ele>
        <time>2022-02-24T16:11:50Z</time>
      </trkpt>
      <trkpt lat="46.21217" lon="5.32609">
        <ele>296.2</ele>
        <time>2022-02-24T16:11:51Z</time>
      </trkpt>
      <trkpt lat="46.21218" lon="5.32613">
        <ele>296.2</ele>
        <time>2022-02-24T16:11:52Z</time>
      </trkpt>
      <trkpt lat="46.21218" lon="5.32617">
        <ele>296.2</ele>
        <time>2022-02-24T16:11:53Z</time>
      </trkpt>
      <trkpt lat="46.2122" lon="5.3262">
        <ele>296.2</ele>
        <time>2022-02-24T16:11:54Z</time>
      </trkpt>
      <trkpt lat="46.2122" lon="5.32624">
        <ele>296.2</ele>
        <time>2022-02-24T16:11:55Z</time>
      </trkpt>
      <trkpt lat="46.2122" lon="5.32628">
        <ele>296.2</ele>
        <time>2022-02-24T16:11:56Z</time>
      </trkpt>
      <trkpt lat="46.2122" lon="5.32633">
        <ele>296.2</ele>
        <time>2022-02-24T16:11:57Z</time>
      </trkpt>
      <trkpt lat="46.21221" lon="5.32638">
        <ele>296.4</ele>
        <time>2022-02-24T16:11:58Z</time>
      </trkpt>
      <trkpt lat="46.21221" lon="5.32643">
        <ele>296.4</ele>
        <time>2022-02-24T16:11:59Z</time>
      </trkpt>
      <trkpt lat="46.21221" lon="5.32649">
        <ele>296.4</ele>
        <time>2022-02-24T16:12:00Z</time>
      </trkpt>
      <trkpt lat="46.21222" lon="5.32654">
        <ele>296.4</ele>
        <time>2022-02-24T16:12:01Z</time>
      </trkpt>
      <trkpt lat="46.21223" lon="5.3266">
        <ele>296.4</ele>
        <time>2022-02-24T16:12:02Z</time>
      </trkpt>
      <trkpt lat="46.21223" lon="5.32666">
        <ele>296.4</ele>
        <time>2022-02-24T16:12:03Z</time>
      </trkpt>
      <trkpt lat="46.21224" lon="5.32673">
        <ele>296.4</ele>
        <time>2022-02-24T16:12:04Z</time>
      </trkpt>
      <trkpt lat="46.21224" lon="5.32679">
        <ele>296.4</ele>
        <time>2022-02-24T16:12:05Z</time>
      </trkpt>
      <trkpt lat="46.21224" lon="5.32686">
        <ele>296.4</ele>
        <time>2022-02-24T16:12:06Z</time>
      </trkpt>
      <trkpt lat="46.21225" lon="5.32693">
        <ele>296.4</ele>
        <time>2022-02-24T16:12:07Z</time>
      </trkpt>
      <trkpt lat="46.21226" lon="5.32699">
        <ele>296.4</ele>
        <time>2022-02-24T16:12:08Z</time>
      </trkpt>
      <trkpt lat="46.21226" lon="5.32706">
        <ele>296.4</ele>
        <time>2022-02-24T16:12:09Z</time>
      </trkpt>
      <trkpt lat="46.21227" lon="5.32713">
        <ele>296.4</ele>
        <time>2022-02-24T16:12:10Z</time>
      </trkpt>
      <trkpt lat="46.21227" lon="5.3272">
        <ele>296.4</ele>
        <time>2022-02-24T16:12:11Z</time>
      </trkpt>
      <trkpt lat="46.21228" lon="5.32727">
        <ele>296.4</ele>
        <time>2022-02-24T16:12:12Z</time>
      </trkpt>
      <trkpt lat="46.21229" lon="5.32734">
        <ele>296.4</ele>
        <time>2022-02-24T16:12:13Z</time>
      </trkpt>
      <trkpt lat="46.2123" lon="5.32741">
        <ele>296.4</ele>
        <time>2022-02-24T16:12:14Z</time>
      </trkpt>
      <trkpt lat="46.2123" lon="5.32748">
        <ele>296.4</ele>
        <time>2022-02-24T16:12:15Z</time>
      </trkpt>
      <trkpt lat="46.21231" lon="5.32755">
        <ele>296.6</ele>
        <time>2022-02-24T16:12:16Z</time>
      </trkpt>
      <trkpt lat="46.21231" lon="5.32761">
        <ele>296.6</ele>
        <time>2022-02-24T16:12:17Z</time>
      </trkpt>
      <trkpt lat="46.21232" lon="5.32768">
        <ele>296.6</ele>
        <time>2022-02-24T16:12:18Z</time>
      </trkpt>
      <trkpt lat="46.21232" lon="5.32775">
        <ele>296.6</ele>
        <time>2022-02-24T16:12:19Z</time>
      </trkpt>
      <trkpt lat="46.21232" lon="5.32782">
        <ele>296.8</ele>
        <time>2022-02-24T16:12:20Z</time>
      </trkpt>
      <trkpt lat="46.21233" lon="5.32789">
        <ele>296.8</ele>
        <time>2022-02-24T16:12:21Z</time>
      </trkpt>
      <trkpt lat="46.21234" lon="5.32795">
        <ele>296.8</ele>
        <time>2022-02-24T16:12:22Z</time>
      </trkpt>
      <trkpt lat="46.21234" lon="5.32802">
        <ele>296.8</ele>
        <time>2022-02-24T16:12:23Z</time>
      </trkpt>
      <trkpt lat="46.21235" lon="5.32809">
        <ele>297.2</ele>
        <time>2022-02-24T16:12:24Z</time>
      </trkpt>
      <trkpt lat="46.21236" lon="5.32815">
        <ele>297.2</ele>
        <time>2022-02-24T16:12:25Z</time>
      </trkpt>
      <trkpt lat="46.21237" lon="5.32822">
        <ele>297.4</ele>
        <time>2022-02-24T16:12:26Z</time>
      </trkpt>
      <trkpt lat="46.21239" lon="5.32828">
        <ele>297.6</ele>
        <time>2022-02-24T16:12:27Z</time>
      </trkpt>
      <trkpt lat="46.21239" lon="5.32835">
        <ele>297.6</ele>
        <time>2022-02-24T16:12:28Z</time>
      </trkpt>
      <trkpt lat="46.2124" lon="5.32841">
        <ele>297.6</ele>
        <time>2022-02-24T16:12:29Z</time>
      </trkpt>
      <trkpt lat="46.21241" lon="5.32847">
        <ele>297.6</ele>
        <time>2022-02-24T16:12:30Z</time>
      </trkpt>
      <trkpt lat="46.21243" lon="5.32853">
        <ele>298</ele>
        <time>2022-02-24T16:12:31Z</time>
      </trkpt>
      <trkpt lat="46.21243" lon="5.32859">
        <ele>298</ele>
        <time>2022-02-24T16:12:32Z</time>
      </trkpt>
      <trkpt lat="46.21245" lon="5.32865">
        <ele>298</ele>
        <time>2022-02-24T16:12:33Z</time>
      </trkpt>
      <trkpt lat="46.21246" lon="5.32871">
        <ele>298.2</ele>
        <time>2022-02-24T16:12:34Z</time>
      </trkpt>
      <trkpt lat="46.21247" lon="5.32877">
        <ele>298.2</ele>
        <time>2022-02-24T16:12:35Z</time>
      </trkpt>
      <trkpt lat="46.21248" lon="5.32882">
        <ele>298.4</ele>
        <time>2022-02-24T16:12:36Z</time>
      </trkpt>
      <trkpt lat="46.21248" lon="5.32887">
        <ele>298.4</ele>
        <time>2022-02-24T16:12:37Z</time>
      </trkpt>
      <trkpt lat="46.21249" lon="5.32892">
        <ele>298.6</ele>
        <time>2022-02-24T16:12:38Z</time>
      </trkpt>
      <trkpt lat="46.2125" lon="5.32897">
        <ele>298.6</ele>
        <time>2022-02-24T16:12:39Z</time>
      </trkpt>
      <trkpt lat="46.21251" lon="5.32902">
        <ele>298.6</ele>
        <time>2022-02-24T16:12:40Z</time>
      </trkpt>
      <trkpt lat="46.21252" lon="5.32907">
        <ele>299.2</ele>
        <time>2022-02-24T16:12:41Z</time>
      </trkpt>
      <trkpt lat="46.21253" lon="5.32913">
        <ele>299.2</ele>
        <time>2022-02-24T16:12:42Z</time>
      </trkpt>
      <trkpt lat="46.21254" lon="5.32918">
        <ele>299.6</ele>
        <time>2022-02-24T16:12:43Z</time>
      </trkpt>
      <trkpt lat="46.21254" lon="5.32924">
        <ele>299.6</ele>
        <time>2022-02-24T16:12:44Z</time>
      </trkpt>
      <trkpt lat="46.21255" lon="5.32929">
        <ele>300</ele>
        <time>2022-02-24T16:12:45Z</time>
      </trkpt>
      <trkpt lat="46.21255" lon="5.32934">
        <ele>300.2</ele>
        <time>2022-02-24T16:12:46Z</time>
      </trkpt>
      <trkpt lat="46.21255" lon="5.32939">
        <ele>300.4</ele>
        <time>2022-02-24T16:12:47Z</time>
      </trkpt>
      <trkpt lat="46.21255" lon="5.32944">
        <ele>300.6</ele>
        <time>2022-02-24T16:12:48Z</time>
      </trkpt>
      <trkpt lat="46.21256" lon="5.32949">
        <ele>301</ele>
        <time>2022-02-24T16:12:49Z</time>
      </trkpt>
      <trkpt lat="46.21256" lon="5.32954">
        <ele>301.2</ele>
        <time>2022-02-24T16:12:50Z</time>
      </trkpt>
      <trkpt lat="46.21258" lon="5.32958">
        <ele>301.6</ele>
        <time>2022-02-24T16:12:51Z</time>
      </trkpt>
      <trkpt lat="46.21259" lon="5.32962">
        <ele>301.6</ele>
        <time>2022-02-24T16:12:52Z</time>
      </trkpt>
      <trkpt lat="46.2126" lon="5.32967">
        <ele>302</ele>
        <time>2022-02-24T16:12:53Z</time>
      </trkpt>
      <trkpt lat="46.21261" lon="5.32971">
        <ele>302</ele>
        <time>2022-02-24T16:12:54Z</time>
      </trkpt>
      <trkpt lat="46.21262" lon="5.32975">
        <ele>302.4</ele>
        <time>2022-02-24T16:12:55Z</time>
      </trkpt>
      <trkpt lat="46.21263" lon="5.32979">
        <ele>302.6</ele>
        <time>2022-02-24T16:12:56Z</time>
      </trkpt>
      <trkpt lat="46.21265" lon="5.32983">
        <ele>302.6</ele>
        <time>2022-02-24T16:12:57Z</time>
      </trkpt>
      <trkpt lat="46.21266" lon="5.32986">
        <ele>302.8</ele>
        <time>2022-02-24T16:12:58Z</time>
      </trkpt>
      <trkpt lat="46.21267" lon="5.3299">
        <ele>303.2</ele>
        <time>2022-02-24T16:12:59Z</time>
      </trkpt>
      <trkpt lat="46.21269" lon="5.32993">
        <ele>303.6</ele>
        <time>2022-02-24T16:13:00Z</time>
      </trkpt>
      <trkpt lat="46.2127" lon="5.32998">
        <ele>303.6</ele>
        <time>2022-02-24T16:13:01Z</time>
      </trkpt>
      <trkpt lat="46.21271" lon="5.33002">
        <ele>303.8</ele>
        <time>2022-02-24T16:13:02Z</time>
      </trkpt>
      <trkpt lat="46.21272" lon="5.33007">
        <ele>304.2</ele>
        <time>2022-02-24T16:13:03Z</time>
      </trkpt>
      <trkpt lat="46.21273" lon="5.33011">
        <ele>304.4</ele>
        <time>2022-02-24T16:13:04Z</time>
      </trkpt>
      <trkpt lat="46.21273" lon="5.33015">
        <ele>304.6</ele>
        <time>2022-02-24T16:13:05Z</time>
      </trkpt>
      <trkpt lat="46.21274" lon="5.3302">
        <ele>304.8</ele>
        <time>2022-02-24T16:13:06Z</time>
      </trkpt>
      <trkpt lat="46.21273" lon="5.33026">
        <ele>304.8</ele>
        <time>2022-02-24T16:13:07Z</time>
      </trkpt>
      <trkpt lat="46.21272" lon="5.33031">
        <ele>305</ele>
        <time>2022-02-24T16:13:08Z</time>
      </trkpt>
      <trkpt lat="46.21273" lon="5.33036">
        <ele>305</ele>
        <time>2022-02-24T16:13:09Z</time>
      </trkpt>
      <trkpt lat="46.21273" lon="5.33041">
        <ele>305.2</ele>
        <time>2022-02-24T16:13:10Z</time>
      </trkpt>
      <trkpt lat="46.21273" lon="5.33047">
        <ele>305.2</ele>
        <time>2022-02-24T16:13:11Z</time>
      </trkpt>
      <trkpt lat="46.21272" lon="5.33053">
        <ele>305.2</ele>
        <time>2022-02-24T16:13:12Z</time>
      </trkpt>
      <trkpt lat="46.21272" lon="5.33059">
        <ele>305.4</ele>
        <time>2022-02-24T16:13:13Z</time>
      </trkpt>
      <trkpt lat="46.21272" lon="5.33065">
        <ele>305.4</ele>
        <time>2022-02-24T16:13:14Z</time>
      </trkpt>
      <trkpt lat="46.21273" lon="5.33071">
        <ele>305.4</ele>
        <time>2022-02-24T16:13:15Z</time>
      </trkpt>
      <trkpt lat="46.21273" lon="5.33077">
        <ele>305.6</ele>
        <time>2022-02-24T16:13:16Z</time>
      </trkpt>
      <trkpt lat="46.21273" lon="5.33084">
        <ele>305.6</ele>
        <time>2022-02-24T16:13:17Z</time>
      </trkpt>
      <trkpt lat="46.21273" lon="5.3309">
        <ele>305.6</ele>
        <time>2022-02-24T16:13:18Z</time>
      </trkpt>
      <trkpt lat="46.21274" lon="5.33097">
        <ele>306</ele>
        <time>2022-02-24T16:13:19Z</time>
      </trkpt>
      <trkpt lat="46.21275" lon="5.33103">
        <ele>306</ele>
        <time>2022-02-24T16:13:20Z</time>
      </trkpt>
      <trkpt lat="46.21276" lon="5.3311">
        <ele>306</ele>
        <time>2022-02-24T16:13:21Z</time>
      </trkpt>
      <trkpt lat="46.21276" lon="5.33117">
        <ele>306</ele>
        <time>2022-02-24T16:13:22Z</time>
      </trkpt>
      <trkpt lat="46.21277" lon="5.33124">
        <ele>306</ele>
        <time>2022-02-24T16:13:23Z</time>
      </trkpt>
      <trkpt lat="46.21278" lon="5.33131">
        <ele>306.2</ele>
        <time>2022-02-24T16:13:24Z</time>
      </trkpt>
      <trkpt lat="46.21278" lon="5.33138">
        <ele>306.2</ele>
        <time>2022-02-24T16:13:25Z</time>
      </trkpt>
      <trkpt lat="46.21279" lon="5.33145">
        <ele>306.4</ele>
        <time>2022-02-24T16:13:26Z</time>
      </trkpt>
      <trkpt lat="46.2128" lon="5.33152">
        <ele>306.4</ele>
        <time>2022-02-24T16:13:27Z</time>
      </trkpt>
      <trkpt lat="46.21281" lon="5.33159">
        <ele>306.8</ele>
        <time>2022-02-24T16:13:28Z</time>
      </trkpt>
      <trkpt lat="46.21282" lon="5.33166">
        <ele>306.8</ele>
        <time>2022-02-24T16:13:29Z</time>
      </trkpt>
      <trkpt lat="46.21283" lon="5.33173">
        <ele>306.8</ele>
        <time>2022-02-24T16:13:30Z</time>
      </trkpt>
      <trkpt lat="46.21284" lon="5.33183">
        <ele>306.8</ele>
        <time>2022-02-24T16:13:31Z</time>
      </trkpt>
      <trkpt lat="46.21285" lon="5.33187">
        <ele>307</ele>
        <time>2022-02-24T16:13:32Z</time>
      </trkpt>
      <trkpt lat="46.21287" lon="5.33193">
        <ele>307</ele>
        <time>2022-02-24T16:13:33Z</time>
      </trkpt>
      <trkpt lat="46.21289" lon="5.33203">
        <ele>307</ele>
        <time>2022-02-24T16:13:34Z</time>
      </trkpt>
      <trkpt lat="46.2129" lon="5.33206">
        <ele>307.2</ele>
        <time>2022-02-24T16:13:35Z</time>
      </trkpt>
      <trkpt lat="46.21293" lon="5.33213">
        <ele>307.2</ele>
        <time>2022-02-24T16:13:36Z</time>
      </trkpt>
      <trkpt lat="46.21295" lon="5.33219">
        <ele>307.4</ele>
        <time>2022-02-24T16:13:37Z</time>
      </trkpt>
      <trkpt lat="46.21297" lon="5.33225">
        <ele>307.4</ele>
        <time>2022-02-24T16:13:38Z</time>
      </trkpt>
      <trkpt lat="46.213" lon="5.33231">
        <ele>307.6</ele>
        <time>2022-02-24T16:13:39Z</time>
      </trkpt>
      <trkpt lat="46.21303" lon="5.33236">
        <ele>307.6</ele>
        <time>2022-02-24T16:13:40Z</time>
      </trkpt>
      <trkpt lat="46.21306" lon="5.33242">
        <ele>308</ele>
        <time>2022-02-24T16:13:41Z</time>
      </trkpt>
      <trkpt lat="46.21309" lon="5.33248">
        <ele>308</ele>
        <time>2022-02-24T16:13:42Z</time>
      </trkpt>
      <trkpt lat="46.21312" lon="5.33253">
        <ele>308.2</ele>
        <time>2022-02-24T16:13:43Z</time>
      </trkpt>
      <trkpt lat="46.21315" lon="5.33258">
        <ele>308.2</ele>
        <time>2022-02-24T16:13:44Z</time>
      </trkpt>
      <trkpt lat="46.21319" lon="5.33264">
        <ele>308.8</ele>
        <time>2022-02-24T16:13:45Z</time>
      </trkpt>
      <trkpt lat="46.21322" lon="5.33269">
        <ele>309</ele>
        <time>2022-02-24T16:13:46Z</time>
      </trkpt>
      <trkpt lat="46.21325" lon="5.33274">
        <ele>309.4</ele>
        <time>2022-02-24T16:13:47Z</time>
      </trkpt>
      <trkpt lat="46.21327" lon="5.33279">
        <ele>309.4</ele>
        <time>2022-02-24T16:13:48Z</time>
      </trkpt>
      <trkpt lat="46.2133" lon="5.33284">
        <ele>309.6</ele>
        <time>2022-02-24T16:13:49Z</time>
      </trkpt>
      <trkpt lat="46.21333" lon="5.33289">
        <ele>309.6</ele>
        <time>2022-02-24T16:13:50Z</time>
      </trkpt>
      <trkpt lat="46.21335" lon="5.33294">
        <ele>310</ele>
        <time>2022-02-24T16:13:51Z</time>
      </trkpt>
      <trkpt lat="46.21338" lon="5.33299">
        <ele>310.2</ele>
        <time>2022-02-24T16:13:52Z</time>
      </trkpt>
      <trkpt lat="46.2134" lon="5.33304">
        <ele>310.2</ele>
        <time>2022-02-24T16:13:53Z</time>
      </trkpt>
      <trkpt lat="46.21342" lon="5.33308">
        <ele>310.4</ele>
        <time>2022-02-24T16:13:54Z</time>
      </trkpt>
      <trkpt lat="46.21345" lon="5.33313">
        <ele>310.6</ele>
        <time>2022-02-24T16:13:55Z</time>
      </trkpt>
      <trkpt lat="46.21347" lon="5.33317">
        <ele>310.6</ele>
        <time>2022-02-24T16:13:56Z</time>
      </trkpt>
      <trkpt lat="46.21349" lon="5.33322">
        <ele>311</ele>
        <time>2022-02-24T16:13:57Z</time>
      </trkpt>
      <trkpt lat="46.21352" lon="5.33329">
        <ele>311</ele>
        <time>2022-02-24T16:13:58Z</time>
      </trkpt>
      <trkpt lat="46.21353" lon="5.33331">
        <ele>311.2</ele>
        <time>2022-02-24T16:13:59Z</time>
      </trkpt>
      <trkpt lat="46.21356" lon="5.33336">
        <ele>311.2</ele>
        <time>2022-02-24T16:14:00Z</time>
      </trkpt>
      <trkpt lat="46.21358" lon="5.33341">
        <ele>311.4</ele>
        <time>2022-02-24T16:14:01Z</time>
      </trkpt>
      <trkpt lat="46.2136" lon="5.33346">
        <ele>311.4</ele>
        <time>2022-02-24T16:14:02Z</time>
      </trkpt>
      <trkpt lat="46.21362" lon="5.3335">
        <ele>311.8</ele>
        <time>2022-02-24T16:14:03Z</time>
      </trkpt>
      <trkpt lat="46.21365" lon="5.33355">
        <ele>311.8</ele>
        <time>2022-02-24T16:14:04Z</time>
      </trkpt>
      <trkpt lat="46.21367" lon="5.33359">
        <ele>312</ele>
        <time>2022-02-24T16:14:05Z</time>
      </trkpt>
      <trkpt lat="46.21369" lon="5.33364">
        <ele>312</ele>
        <time>2022-02-24T16:14:06Z</time>
      </trkpt>
      <trkpt lat="46.21372" lon="5.33368">
        <ele>312.4</ele>
        <time>2022-02-24T16:14:07Z</time>
      </trkpt>
      <trkpt lat="46.21374" lon="5.33373">
        <ele>312.4</ele>
        <time>2022-02-24T16:14:08Z</time>
      </trkpt>
      <trkpt lat="46.21376" lon="5.33378">
        <ele>312.6</ele>
        <time>2022-02-24T16:14:09Z</time>
      </trkpt>
      <trkpt lat="46.21378" lon="5.33382">
        <ele>312.6</ele>
        <time>2022-02-24T16:14:10Z</time>
      </trkpt>
      <trkpt lat="46.21381" lon="5.33387">
        <ele>313</ele>
        <time>2022-02-24T16:14:11Z</time>
      </trkpt>
      <trkpt lat="46.21383" lon="5.33392">
        <ele>313</ele>
        <time>2022-02-24T16:14:12Z</time>
      </trkpt>
      <trkpt lat="46.21385" lon="5.33396">
        <ele>313.4</ele>
        <time>2022-02-24T16:14:13Z</time>
      </trkpt>
      <trkpt lat="46.21388" lon="5.33401">
        <ele>313.6</ele>
        <time>2022-02-24T16:14:14Z</time>
      </trkpt>
      <trkpt lat="46.2139" lon="5.33405">
        <ele>313.6</ele>
        <time>2022-02-24T16:14:15Z</time>
      </trkpt>
      <trkpt lat="46.21393" lon="5.3341">
        <ele>314</ele>
        <time>2022-02-24T16:14:16Z</time>
      </trkpt>
      <trkpt lat="46.21395" lon="5.33414">
        <ele>314</ele>
        <time>2022-02-24T16:14:17Z</time>
      </trkpt>
      <trkpt lat="46.21397" lon="5.33418">
        <ele>314.2</ele>
        <time>2022-02-24T16:14:18Z</time>
      </trkpt>
      <trkpt lat="46.214" lon="5.33423">
        <ele>314.2</ele>
        <time>2022-02-24T16:14:19Z</time>
      </trkpt>
      <trkpt lat="46.21402" lon="5.33427">
        <ele>314.6</ele>
        <time>2022-02-24T16:14:20Z</time>
      </trkpt>
      <trkpt lat="46.21406" lon="5.33434">
        <ele>314.6</ele>
        <time>2022-02-24T16:14:21Z</time>
      </trkpt>
      <trkpt lat="46.21408" lon="5.33437">
        <ele>314.8</ele>
        <time>2022-02-24T16:14:22Z</time>
      </trkpt>
      <trkpt lat="46.2141" lon="5.33441">
        <ele>314.8</ele>
        <time>2022-02-24T16:14:23Z</time>
      </trkpt>
      <trkpt lat="46.21413" lon="5.33446">
        <ele>315</ele>
        <time>2022-02-24T16:14:24Z</time>
      </trkpt>
      <trkpt lat="46.21415" lon="5.33451">
        <ele>315.2</ele>
        <time>2022-02-24T16:14:25Z</time>
      </trkpt>
      <trkpt lat="46.21418" lon="5.33455">
        <ele>315.2</ele>
        <time>2022-02-24T16:14:26Z</time>
      </trkpt>
      <trkpt lat="46.2142" lon="5.3346">
        <ele>315.6</ele>
        <time>2022-02-24T16:14:27Z</time>
      </trkpt>
      <trkpt lat="46.21422" lon="5.33465">
        <ele>315.6</ele>
        <time>2022-02-24T16:14:28Z</time>
      </trkpt>
      <trkpt lat="46.21425" lon="5.33469">
        <ele>316</ele>
        <time>2022-02-24T16:14:29Z</time>
      </trkpt>
      <trkpt lat="46.21427" lon="5.33474">
        <ele>316</ele>
        <time>2022-02-24T16:14:30Z</time>
      </trkpt>
      <trkpt lat="46.21429" lon="5.33479">
        <ele>316.4</ele>
        <time>2022-02-24T16:14:31Z</time>
      </trkpt>
      <trkpt lat="46.21432" lon="5.33483">
        <ele>316.4</ele>
        <time>2022-02-24T16:14:32Z</time>
      </trkpt>
      <trkpt lat="46.21434" lon="5.33488">
        <ele>316.8</ele>
        <time>2022-02-24T16:14:33Z</time>
      </trkpt>
      <trkpt lat="46.21437" lon="5.33493">
        <ele>316.8</ele>
        <time>2022-02-24T16:14:34Z</time>
      </trkpt>
      <trkpt lat="46.21439" lon="5.33497">
        <ele>317.2</ele>
        <time>2022-02-24T16:14:35Z</time>
      </trkpt>
      <trkpt lat="46.21441" lon="5.33502">
        <ele>317.4</ele>
        <time>2022-02-24T16:14:36Z</time>
      </trkpt>
      <trkpt lat="46.21444" lon="5.33506">
        <ele>317.6</ele>
        <time>2022-02-24T16:14:37Z</time>
      </trkpt>
      <trkpt lat="46.21446" lon="5.33511">
        <ele>317.6</ele>
        <time>2022-02-24T16:14:38Z</time>
      </trkpt>
      <trkpt lat="46.21448" lon="5.33515">
        <ele>317.8</ele>
        <time>2022-02-24T16:14:39Z</time>
      </trkpt>
      <trkpt lat="46.21451" lon="5.33519">
        <ele>317.8</ele>
        <time>2022-02-24T16:14:40Z</time>
      </trkpt>
      <trkpt lat="46.21453" lon="5.33524">
        <ele>318.2</ele>
        <time>2022-02-24T16:14:41Z</time>
      </trkpt>
      <trkpt lat="46.21455" lon="5.33528">
        <ele>318.4</ele>
        <time>2022-02-24T16:14:42Z</time>
      </trkpt>
      <trkpt lat="46.21458" lon="5.33533">
        <ele>318.6</ele>
        <time>2022-02-24T16:14:43Z</time>
      </trkpt>
      <trkpt lat="46.2146" lon="5.33537">
        <ele>318.6</ele>
        <time>2022-02-24T16:14:44Z</time>
      </trkpt>
      <trkpt lat="46.21462" lon="5.33541">
        <ele>318.8</ele>
        <time>2022-02-24T16:14:45Z</time>
      </trkpt>
      <trkpt lat="46.21464" lon="5.33546">
        <ele>319.2</ele>
        <time>2022-02-24T16:14:46Z</time>
      </trkpt>
      <trkpt lat="46.21467" lon="5.33551">
        <ele>319.2</ele>
        <time>2022-02-24T16:14:47Z</time>
      </trkpt>
      <trkpt lat="46.21469" lon="5.33555">
        <ele>319.4</ele>
        <time>2022-02-24T16:14:48Z</time>
      </trkpt>
      <trkpt lat="46.21472" lon="5.33559">
        <ele>319.4</ele>
        <time>2022-02-24T16:14:49Z</time>
      </trkpt>
      <trkpt lat="46.21474" lon="5.33564">
        <ele>319.4</ele>
        <time>2022-02-24T16:14:50Z</time>
      </trkpt>
      <trkpt lat="46.21477" lon="5.33569">
        <ele>319.6</ele>
        <time>2022-02-24T16:14:51Z</time>
      </trkpt>
      <trkpt lat="46.21479" lon="5.33574">
        <ele>319.6</ele>
        <time>2022-02-24T16:14:52Z</time>
      </trkpt>
      <trkpt lat="46.21481" lon="5.33579">
        <ele>319.6</ele>
        <time>2022-02-24T16:14:53Z</time>
      </trkpt>
      <trkpt lat="46.21484" lon="5.33584">
        <ele>320</ele>
        <time>2022-02-24T16:14:54Z</time>
      </trkpt>
      <trkpt lat="46.21486" lon="5.33588">
        <ele>320</ele>
        <time>2022-02-24T16:14:55Z</time>
      </trkpt>
      <trkpt lat="46.21489" lon="5.33594">
        <ele>320</ele>
        <time>2022-02-24T16:14:56Z</time>
      </trkpt>
      <trkpt lat="46.21492" lon="5.33599">
        <ele>320.2</ele>
        <time>2022-02-24T16:14:57Z</time>
      </trkpt>
      <trkpt lat="46.21494" lon="5.33604">
        <ele>320.2</ele>
        <time>2022-02-24T16:14:58Z</time>
      </trkpt>
      <trkpt lat="46.21497" lon="5.33609">
        <ele>320.2</ele>
        <time>2022-02-24T16:14:59Z</time>
      </trkpt>
      <trkpt lat="46.215" lon="5.33615">
        <ele>320.2</ele>
        <time>2022-02-24T16:15:00Z</time>
      </trkpt>
      <trkpt lat="46.21503" lon="5.3362">
        <ele>320.6</ele>
        <time>2022-02-24T16:15:01Z</time>
      </trkpt>
      <trkpt lat="46.21505" lon="5.33626">
        <ele>320.6</ele>
        <time>2022-02-24T16:15:02Z</time>
      </trkpt>
      <trkpt lat="46.21508" lon="5.33631">
        <ele>320.6</ele>
        <time>2022-02-24T16:15:03Z</time>
      </trkpt>
      <trkpt lat="46.21511" lon="5.33637">
        <ele>320.8</ele>
        <time>2022-02-24T16:15:04Z</time>
      </trkpt>
      <trkpt lat="46.21514" lon="5.33642">
        <ele>320.8</ele>
        <time>2022-02-24T16:15:05Z</time>
      </trkpt>
      <trkpt lat="46.21516" lon="5.33648">
        <ele>321</ele>
        <time>2022-02-24T16:15:06Z</time>
      </trkpt>
      <trkpt lat="46.21519" lon="5.33653">
        <ele>321</ele>
        <time>2022-02-24T16:15:07Z</time>
      </trkpt>
      <trkpt lat="46.21522" lon="5.33658">
        <ele>321.2</ele>
        <time>2022-02-24T16:15:08Z</time>
      </trkpt>
      <trkpt lat="46.21525" lon="5.33664">
        <ele>321.2</ele>
        <time>2022-02-24T16:15:09Z</time>
      </trkpt>
      <trkpt lat="46.21527" lon="5.33669">
        <ele>321.2</ele>
        <time>2022-02-24T16:15:10Z</time>
      </trkpt>
      <trkpt lat="46.2153" lon="5.33674">
        <ele>321.4</ele>
        <time>2022-02-24T16:15:11Z</time>
      </trkpt>
      <trkpt lat="46.21533" lon="5.3368">
        <ele>321.4</ele>
        <time>2022-02-24T16:15:12Z</time>
      </trkpt>
      <trkpt lat="46.21536" lon="5.33685">
        <ele>321.4</ele>
        <time>2022-02-24T16:15:13Z</time>
      </trkpt>
      <trkpt lat="46.21538" lon="5.33691">
        <ele>321.8</ele>
        <time>2022-02-24T16:15:14Z</time>
      </trkpt>
      <trkpt lat="46.21541" lon="5.33696">
        <ele>321.8</ele>
        <time>2022-02-24T16:15:15Z</time>
      </trkpt>
      <trkpt lat="46.21544" lon="5.33702">
        <ele>321.8</ele>
        <time>2022-02-24T16:15:16Z</time>
      </trkpt>
      <trkpt lat="46.21546" lon="5.33707">
        <ele>322.2</ele>
        <time>2022-02-24T16:15:17Z</time>
      </trkpt>
      <trkpt lat="46.21549" lon="5.33712">
        <ele>322.2</ele>
        <time>2022-02-24T16:15:18Z</time>
      </trkpt>
      <trkpt lat="46.21552" lon="5.33717">
        <ele>322.2</ele>
        <time>2022-02-24T16:15:19Z</time>
      </trkpt>
      <trkpt lat="46.21554" lon="5.33722">
        <ele>322.6</ele>
        <time>2022-02-24T16:15:20Z</time>
      </trkpt>
      <trkpt lat="46.21557" lon="5.33728">
        <ele>322.6</ele>
        <time>2022-02-24T16:15:21Z</time>
      </trkpt>
      <trkpt lat="46.2156" lon="5.33734">
        <ele>322.8</ele>
        <time>2022-02-24T16:15:22Z</time>
      </trkpt>
      <trkpt lat="46.21562" lon="5.33739">
        <ele>322.8</ele>
        <time>2022-02-24T16:15:23Z</time>
      </trkpt>
      <trkpt lat="46.21565" lon="5.33744">
        <ele>322.8</ele>
        <time>2022-02-24T16:15:24Z</time>
      </trkpt>
      <trkpt lat="46.21567" lon="5.33749">
        <ele>323</ele>
        <time>2022-02-24T16:15:25Z</time>
      </trkpt>
      <trkpt lat="46.2157" lon="5.33754">
        <ele>323</ele>
        <time>2022-02-24T16:15:26Z</time>
      </trkpt>
      <trkpt lat="46.21572" lon="5.3376">
        <ele>323</ele>
        <time>2022-02-24T16:15:27Z</time>
      </trkpt>
      <trkpt lat="46.21575" lon="5.33765">
        <ele>323</ele>
        <time>2022-02-24T16:15:28Z</time>
      </trkpt>
      <trkpt lat="46.21577" lon="5.3377">
        <ele>323.2</ele>
        <time>2022-02-24T16:15:29Z</time>
      </trkpt>
      <trkpt lat="46.2158" lon="5.33775">
        <ele>323.2</ele>
        <time>2022-02-24T16:15:30Z</time>
      </trkpt>
      <trkpt lat="46.21583" lon="5.3378">
        <ele>323.2</ele>
        <time>2022-02-24T16:15:31Z</time>
      </trkpt>
      <trkpt lat="46.21585" lon="5.33784">
        <ele>323.6</ele>
        <time>2022-02-24T16:15:32Z</time>
      </trkpt>
      <trkpt lat="46.21588" lon="5.33789">
        <ele>323.6</ele>
        <time>2022-02-24T16:15:33Z</time>
      </trkpt>
      <trkpt lat="46.2159" lon="5.33794">
        <ele>323.8</ele>
        <time>2022-02-24T16:15:34Z</time>
      </trkpt>
      <trkpt lat="46.21593" lon="5.33799">
        <ele>323.8</ele>
        <time>2022-02-24T16:15:35Z</time>
      </trkpt>
      <trkpt lat="46.21595" lon="5.33804">
        <ele>324</ele>
        <time>2022-02-24T16:15:36Z</time>
      </trkpt>
      <trkpt lat="46.21598" lon="5.33809">
        <ele>324</ele>
        <time>2022-02-24T16:15:37Z</time>
      </trkpt>
      <trkpt lat="46.21601" lon="5.33814">
        <ele>324</ele>
        <time>2022-02-24T16:15:38Z</time>
      </trkpt>
      <trkpt lat="46.21604" lon="5.33819">
        <ele>324.4</ele>
        <time>2022-02-24T16:15:39Z</time>
      </trkpt>
      <trkpt lat="46.21606" lon="5.33824">
        <ele>324.4</ele>
        <time>2022-02-24T16:15:40Z</time>
      </trkpt>
      <trkpt lat="46.21609" lon="5.33829">
        <ele>324.8</ele>
        <time>2022-02-24T16:15:41Z</time>
      </trkpt>
      <trkpt lat="46.21611" lon="5.33835">
        <ele>325</ele>
        <time>2022-02-24T16:15:42Z</time>
      </trkpt>
      <trkpt lat="46.21614" lon="5.3384">
        <ele>325.2</ele>
        <time>2022-02-24T16:15:43Z</time>
      </trkpt>
      <trkpt lat="46.21616" lon="5.33845">
        <ele>325.2</ele>
        <time>2022-02-24T16:15:44Z</time>
      </trkpt>
      <trkpt lat="46.21619" lon="5.33851">
        <ele>325.6</ele>
        <time>2022-02-24T16:15:45Z</time>
      </trkpt>
      <trkpt lat="46.21622" lon="5.33856">
        <ele>325.6</ele>
        <time>2022-02-24T16:15:46Z</time>
      </trkpt>
      <trkpt lat="46.21625" lon="5.33862">
        <ele>325.8</ele>
        <time>2022-02-24T16:15:47Z</time>
      </trkpt>
      <trkpt lat="46.21627" lon="5.33867">
        <ele>325.8</ele>
        <time>2022-02-24T16:15:48Z</time>
      </trkpt>
      <trkpt lat="46.2163" lon="5.33873">
        <ele>326</ele>
        <time>2022-02-24T16:15:49Z</time>
      </trkpt>
      <trkpt lat="46.21633" lon="5.33878">
        <ele>326</ele>
        <time>2022-02-24T16:15:50Z</time>
      </trkpt>
      <trkpt lat="46.21636" lon="5.33883">
        <ele>326.2</ele>
        <time>2022-02-24T16:15:51Z</time>
      </trkpt>
      <trkpt lat="46.21639" lon="5.33888">
        <ele>326.2</ele>
        <time>2022-02-24T16:15:52Z</time>
      </trkpt>
      <trkpt lat="46.21642" lon="5.33893">
        <ele>326.6</ele>
        <time>2022-02-24T16:15:53Z</time>
      </trkpt>
      <trkpt lat="46.21645" lon="5.33898">
        <ele>326.6</ele>
        <time>2022-02-24T16:15:54Z</time>
      </trkpt>
      <trkpt lat="46.21647" lon="5.33904">
        <ele>326.8</ele>
        <time>2022-02-24T16:15:55Z</time>
      </trkpt>
      <trkpt lat="46.2165" lon="5.33909">
        <ele>326.8</ele>
        <time>2022-02-24T16:15:56Z</time>
      </trkpt>
      <trkpt lat="46.21652" lon="5.33914">
        <ele>327</ele>
        <time>2022-02-24T16:15:57Z</time>
      </trkpt>
      <trkpt lat="46.21655" lon="5.33919">
        <ele>327</ele>
        <time>2022-02-24T16:15:58Z</time>
      </trkpt>
      <trkpt lat="46.21658" lon="5.33924">
        <ele>327.2</ele>
        <time>2022-02-24T16:15:59Z</time>
      </trkpt>
      <trkpt lat="46.2166" lon="5.3393">
        <ele>327.2</ele>
        <time>2022-02-24T16:16:00Z</time>
      </trkpt>
      <trkpt lat="46.21663" lon="5.33935">
        <ele>327.4</ele>
        <time>2022-02-24T16:16:01Z</time>
      </trkpt>
      <trkpt lat="46.21666" lon="5.3394">
        <ele>327.4</ele>
        <time>2022-02-24T16:16:02Z</time>
      </trkpt>
      <trkpt lat="46.21668" lon="5.33945">
        <ele>327.8</ele>
        <time>2022-02-24T16:16:03Z</time>
      </trkpt>
      <trkpt lat="46.21671" lon="5.3395">
        <ele>327.8</ele>
        <time>2022-02-24T16:16:04Z</time>
      </trkpt>
      <trkpt lat="46.21674" lon="5.33955">
        <ele>328.2</ele>
        <time>2022-02-24T16:16:05Z</time>
      </trkpt>
      <trkpt lat="46.21677" lon="5.3396">
        <ele>328.2</ele>
        <time>2022-02-24T16:16:06Z</time>
      </trkpt>
      <trkpt lat="46.21679" lon="5.33966">
        <ele>328.4</ele>
        <time>2022-02-24T16:16:07Z</time>
      </trkpt>
      <trkpt lat="46.21682" lon="5.33971">
        <ele>328.4</ele>
        <time>2022-02-24T16:16:08Z</time>
      </trkpt>
      <trkpt lat="46.21685" lon="5.33976">
        <ele>328.8</ele>
        <time>2022-02-24T16:16:09Z</time>
      </trkpt>
      <trkpt lat="46.21687" lon="5.33982">
        <ele>328.8</ele>
        <time>2022-02-24T16:16:10Z</time>
      </trkpt>
      <trkpt lat="46.2169" lon="5.33987">
        <ele>329</ele>
        <time>2022-02-24T16:16:11Z</time>
      </trkpt>
      <trkpt lat="46.21692" lon="5.33992">
        <ele>329.2</ele>
        <time>2022-02-24T16:16:12Z</time>
      </trkpt>
      <trkpt lat="46.21695" lon="5.33998">
        <ele>329.2</ele>
        <time>2022-02-24T16:16:13Z</time>
      </trkpt>
      <trkpt lat="46.21698" lon="5.34003">
        <ele>329.4</ele>
        <time>2022-02-24T16:16:14Z</time>
      </trkpt>
      <trkpt lat="46.217" lon="5.34008">
        <ele>329.4</ele>
        <time>2022-02-24T16:16:15Z</time>
      </trkpt>
      <trkpt lat="46.21703" lon="5.34013">
        <ele>330.2</ele>
        <time>2022-02-24T16:16:16Z</time>
      </trkpt>
      <trkpt lat="46.21706" lon="5.34018">
        <ele>330.2</ele>
        <time>2022-02-24T16:16:17Z</time>
      </trkpt>
      <trkpt lat="46.21708" lon="5.34023">
        <ele>330.2</ele>
        <time>2022-02-24T16:16:18Z</time>
      </trkpt>
      <trkpt lat="46.21711" lon="5.34028">
        <ele>330.6</ele>
        <time>2022-02-24T16:16:19Z</time>
      </trkpt>
      <trkpt lat="46.21714" lon="5.34033">
        <ele>330.6</ele>
        <time>2022-02-24T16:16:20Z</time>
      </trkpt>
      <trkpt lat="46.21716" lon="5.34038">
        <ele>330.6</ele>
        <time>2022-02-24T16:16:21Z</time>
      </trkpt>
      <trkpt lat="46.21719" lon="5.34043">
        <ele>330.8</ele>
        <time>2022-02-24T16:16:22Z</time>
      </trkpt>
      <trkpt lat="46.21721" lon="5.34048">
        <ele>330.8</ele>
        <time>2022-02-24T16:16:23Z</time>
      </trkpt>
      <trkpt lat="46.21724" lon="5.34053">
        <ele>331.2</ele>
        <time>2022-02-24T16:16:24Z</time>
      </trkpt>
      <trkpt lat="46.21726" lon="5.34058">
        <ele>331.2</ele>
        <time>2022-02-24T16:16:25Z</time>
      </trkpt>
      <trkpt lat="46.21728" lon="5.34062">
        <ele>331.4</ele>
        <time>2022-02-24T16:16:26Z</time>
      </trkpt>
      <trkpt lat="46.21731" lon="5.34067">
        <ele>331.4</ele>
        <time>2022-02-24T16:16:27Z</time>
      </trkpt>
      <trkpt lat="46.21733" lon="5.34071">
        <ele>331.8</ele>
        <time>2022-02-24T16:16:28Z</time>
      </trkpt>
      <trkpt lat="46.21735" lon="5.34076">
        <ele>332</ele>
        <time>2022-02-24T16:16:29Z</time>
      </trkpt>
      <trkpt lat="46.21738" lon="5.3408">
        <ele>332.2</ele>
        <time>2022-02-24T16:16:30Z</time>
      </trkpt>
      <trkpt lat="46.2174" lon="5.34085">
        <ele>332.2</ele>
        <time>2022-02-24T16:16:31Z</time>
      </trkpt>
      <trkpt lat="46.21742" lon="5.34089">
        <ele>332.4</ele>
        <time>2022-02-24T16:16:32Z</time>
      </trkpt>
      <trkpt lat="46.21745" lon="5.34093">
        <ele>332.8</ele>
        <time>2022-02-24T16:16:33Z</time>
      </trkpt>
      <trkpt lat="46.21747" lon="5.34098">
        <ele>332.8</ele>
        <time>2022-02-24T16:16:34Z</time>
      </trkpt>
      <trkpt lat="46.21749" lon="5.34102">
        <ele>333.4</ele>
        <time>2022-02-24T16:16:35Z</time>
      </trkpt>
      <trkpt lat="46.21751" lon="5.34107">
        <ele>333.4</ele>
        <time>2022-02-24T16:16:36Z</time>
      </trkpt>
      <trkpt lat="46.21754" lon="5.34111">
        <ele>333.8</ele>
        <time>2022-02-24T16:16:37Z</time>
      </trkpt>
      <trkpt lat="46.21756" lon="5.34115">
        <ele>334</ele>
        <time>2022-02-24T16:16:38Z</time>
      </trkpt>
      <trkpt lat="46.21758" lon="5.34119">
        <ele>334.2</ele>
        <time>2022-02-24T16:16:39Z</time>
      </trkpt>
      <trkpt lat="46.2176" lon="5.34124">
        <ele>334.4</ele>
        <time>2022-02-24T16:16:40Z</time>
      </trkpt>
      <trkpt lat="46.21763" lon="5.34128">
        <ele>334.6</ele>
        <time>2022-02-24T16:16:41Z</time>
      </trkpt>
      <trkpt lat="46.21765" lon="5.34133">
        <ele>335</ele>
        <time>2022-02-24T16:16:42Z</time>
      </trkpt>
      <trkpt lat="46.21767" lon="5.34137">
        <ele>335</ele>
        <time>2022-02-24T16:16:43Z</time>
      </trkpt>
      <trkpt lat="46.21769" lon="5.34142">
        <ele>335.2</ele>
        <time>2022-02-24T16:16:44Z</time>
      </trkpt>
      <trkpt lat="46.21772" lon="5.34147">
        <ele>335.6</ele>
        <time>2022-02-24T16:16:45Z</time>
      </trkpt>
      <trkpt lat="46.21774" lon="5.34151">
        <ele>335.8</ele>
        <time>2022-02-24T16:16:46Z</time>
      </trkpt>
      <trkpt lat="46.21776" lon="5.34156">
        <ele>335.8</ele>
        <time>2022-02-24T16:16:47Z</time>
      </trkpt>
      <trkpt lat="46.21778" lon="5.34161">
        <ele>336.2</ele>
        <time>2022-02-24T16:16:48Z</time>
      </trkpt>
      <trkpt lat="46.21781" lon="5.34165">
        <ele>336.2</ele>
        <time>2022-02-24T16:16:49Z</time>
      </trkpt>
      <trkpt lat="46.21783" lon="5.34169">
        <ele>336.6</ele>
        <time>2022-02-24T16:16:50Z</time>
      </trkpt>
      <trkpt lat="46.21786" lon="5.34174">
        <ele>336.6</ele>
        <time>2022-02-24T16:16:51Z</time>
      </trkpt>
      <trkpt lat="46.21788" lon="5.34179">
        <ele>336.8</ele>
        <time>2022-02-24T16:16:52Z</time>
      </trkpt>
      <trkpt lat="46.2179" lon="5.34183">
        <ele>336.8</ele>
        <time>2022-02-24T16:16:53Z</time>
      </trkpt>
      <trkpt lat="46.21792" lon="5.34187">
        <ele>337</ele>
        <time>2022-02-24T16:16:54Z</time>
      </trkpt>
      <trkpt lat="46.21795" lon="5.34192">
        <ele>337</ele>
        <time>2022-02-24T16:16:55Z</time>
      </trkpt>
      <trkpt lat="46.21797" lon="5.34196">
        <ele>337</ele>
        <time>2022-02-24T16:16:56Z</time>
      </trkpt>
      <trkpt lat="46.21799" lon="5.34201">
        <ele>337.4</ele>
        <time>2022-02-24T16:16:57Z</time>
      </trkpt>
      <trkpt lat="46.21802" lon="5.34205">
        <ele>337.4</ele>
        <time>2022-02-24T16:16:58Z</time>
      </trkpt>
      <trkpt lat="46.21804" lon="5.3421">
        <ele>337.4</ele>
        <time>2022-02-24T16:16:59Z</time>
      </trkpt>
      <trkpt lat="46.21807" lon="5.34215">
        <ele>337.8</ele>
        <time>2022-02-24T16:17:00Z</time>
      </trkpt>
      <trkpt lat="46.21809" lon="5.34219">
        <ele>337.8</ele>
        <time>2022-02-24T16:17:01Z</time>
      </trkpt>
      <trkpt lat="46.21811" lon="5.34224">
        <ele>338</ele>
        <time>2022-02-24T16:17:02Z</time>
      </trkpt>
      <trkpt lat="46.21813" lon="5.34228">
        <ele>338</ele>
        <time>2022-02-24T16:17:03Z</time>
      </trkpt>
      <trkpt lat="46.21815" lon="5.34232">
        <ele>338.4</ele>
        <time>2022-02-24T16:17:04Z</time>
      </trkpt>
      <trkpt lat="46.21817" lon="5.34236">
        <ele>338.6</ele>
        <time>2022-02-24T16:17:05Z</time>
      </trkpt>
      <trkpt lat="46.2182" lon="5.34241">
        <ele>338.8</ele>
        <time>2022-02-24T16:17:06Z</time>
      </trkpt>
      <trkpt lat="46.21822" lon="5.34245">
        <ele>338.8</ele>
        <time>2022-02-24T16:17:07Z</time>
      </trkpt>
      <trkpt lat="46.21824" lon="5.34249">
        <ele>339.4</ele>
        <time>2022-02-24T16:17:08Z</time>
      </trkpt>
      <trkpt lat="46.21826" lon="5.34254">
        <ele>339.4</ele>
        <time>2022-02-24T16:17:09Z</time>
      </trkpt>
      <trkpt lat="46.21828" lon="5.34258">
        <ele>339.8</ele>
        <time>2022-02-24T16:17:10Z</time>
      </trkpt>
      <trkpt lat="46.2183" lon="5.34262">
        <ele>340</ele>
        <time>2022-02-24T16:17:11Z</time>
      </trkpt>
      <trkpt lat="46.21832" lon="5.34267">
        <ele>340</ele>
        <time>2022-02-24T16:17:12Z</time>
      </trkpt>
      <trkpt lat="46.21835" lon="5.34271">
        <ele>340.2</ele>
        <time>2022-02-24T16:17:13Z</time>
      </trkpt>
      <trkpt lat="46.21837" lon="5.34276">
        <ele>340.2</ele>
        <time>2022-02-24T16:17:14Z</time>
      </trkpt>
      <trkpt lat="46.21839" lon="5.3428">
        <ele>340.4</ele>
        <time>2022-02-24T16:17:15Z</time>
      </trkpt>
      <trkpt lat="46.21841" lon="5.34284">
        <ele>340.4</ele>
        <time>2022-02-24T16:17:16Z</time>
      </trkpt>
      <trkpt lat="46.21843" lon="5.34289">
        <ele>340.6</ele>
        <time>2022-02-24T16:17:17Z</time>
      </trkpt>
      <trkpt lat="46.21845" lon="5.34293">
        <ele>340.6</ele>
        <time>2022-02-24T16:17:18Z</time>
      </trkpt>
      <trkpt lat="46.21847" lon="5.34297">
        <ele>340.8</ele>
        <time>2022-02-24T16:17:19Z</time>
      </trkpt>
      <trkpt lat="46.2185" lon="5.34301">
        <ele>340.8</ele>
        <time>2022-02-24T16:17:20Z</time>
      </trkpt>
      <trkpt lat="46.21852" lon="5.34305">
        <ele>341.2</ele>
        <time>2022-02-24T16:17:21Z</time>
      </trkpt>
      <trkpt lat="46.21854" lon="5.3431">
        <ele>341.2</ele>
        <time>2022-02-24T16:17:22Z</time>
      </trkpt>
      <trkpt lat="46.21856" lon="5.34314">
        <ele>341.4</ele>
        <time>2022-02-24T16:17:23Z</time>
      </trkpt>
      <trkpt lat="46.21858" lon="5.34319">
        <ele>341.4</ele>
        <time>2022-02-24T16:17:24Z</time>
      </trkpt>
      <trkpt lat="46.21861" lon="5.34324">
        <ele>341.4</ele>
        <time>2022-02-24T16:17:25Z</time>
      </trkpt>
      <trkpt lat="46.21863" lon="5.34329">
        <ele>341.8</ele>
        <time>2022-02-24T16:17:26Z</time>
      </trkpt>
      <trkpt lat="46.21865" lon="5.34333">
        <ele>342</ele>
        <time>2022-02-24T16:17:27Z</time>
      </trkpt>
      <trkpt lat="46.21867" lon="5.34338">
        <ele>342</ele>
        <time>2022-02-24T16:17:28Z</time>
      </trkpt>
      <trkpt lat="46.2187" lon="5.34342">
        <ele>342.2</ele>
        <time>2022-02-24T16:17:29Z</time>
      </trkpt>
      <trkpt lat="46.21872" lon="5.34347">
        <ele>342.2</ele>
        <time>2022-02-24T16:17:30Z</time>
      </trkpt>
      <trkpt lat="46.21875" lon="5.34351">
        <ele>342.2</ele>
        <time>2022-02-24T16:17:31Z</time>
      </trkpt>
      <trkpt lat="46.21877" lon="5.34356">
        <ele>342.6</ele>
        <time>2022-02-24T16:17:32Z</time>
      </trkpt>
      <trkpt lat="46.2188" lon="5.3436">
        <ele>342.6</ele>
        <time>2022-02-24T16:17:33Z</time>
      </trkpt>
      <trkpt lat="46.21882" lon="5.34364">
        <ele>342.8</ele>
        <time>2022-02-24T16:17:34Z</time>
      </trkpt>
      <trkpt lat="46.21884" lon="5.34369">
        <ele>342.8</ele>
        <time>2022-02-24T16:17:35Z</time>
      </trkpt>
      <trkpt lat="46.21887" lon="5.34374">
        <ele>343.2</ele>
        <time>2022-02-24T16:17:36Z</time>
      </trkpt>
      <trkpt lat="46.21889" lon="5.34378">
        <ele>343.2</ele>
        <time>2022-02-24T16:17:37Z</time>
      </trkpt>
      <trkpt lat="46.21891" lon="5.34383">
        <ele>343.4</ele>
        <time>2022-02-24T16:17:38Z</time>
      </trkpt>
      <trkpt lat="46.21894" lon="5.34387">
        <ele>343.4</ele>
        <time>2022-02-24T16:17:39Z</time>
      </trkpt>
      <trkpt lat="46.21896" lon="5.34392">
        <ele>343.8</ele>
        <time>2022-02-24T16:17:40Z</time>
      </trkpt>
      <trkpt lat="46.21899" lon="5.34396">
        <ele>343.8</ele>
        <time>2022-02-24T16:17:41Z</time>
      </trkpt>
      <trkpt lat="46.21901" lon="5.344">
        <ele>344.2</ele>
        <time>2022-02-24T16:17:42Z</time>
      </trkpt>
      <trkpt lat="46.21903" lon="5.34405">
        <ele>344.2</ele>
        <time>2022-02-24T16:17:43Z</time>
      </trkpt>
      <trkpt lat="46.21905" lon="5.34409">
        <ele>344.4</ele>
        <time>2022-02-24T16:17:44Z</time>
      </trkpt>
      <trkpt lat="46.21908" lon="5.34413">
        <ele>344.6</ele>
        <time>2022-02-24T16:17:45Z</time>
      </trkpt>
      <trkpt lat="46.21911" lon="5.34417">
        <ele>344.8</ele>
        <time>2022-02-24T16:17:46Z</time>
      </trkpt>
      <trkpt lat="46.21913" lon="5.34421">
        <ele>345.2</ele>
        <time>2022-02-24T16:17:47Z</time>
      </trkpt>
      <trkpt lat="46.21916" lon="5.34425">
        <ele>345.4</ele>
        <time>2022-02-24T16:17:48Z</time>
      </trkpt>
      <trkpt lat="46.21919" lon="5.34429">
        <ele>345.6</ele>
        <time>2022-02-24T16:17:49Z</time>
      </trkpt>
      <trkpt lat="46.21922" lon="5.34433">
        <ele>345.6</ele>
        <time>2022-02-24T16:17:50Z</time>
      </trkpt>
      <trkpt lat="46.21926" lon="5.34436">
        <ele>346</ele>
        <time>2022-02-24T16:17:51Z</time>
      </trkpt>
      <trkpt lat="46.21928" lon="5.3444">
        <ele>346</ele>
        <time>2022-02-24T16:17:52Z</time>
      </trkpt>
      <trkpt lat="46.21931" lon="5.34443">
        <ele>346</ele>
        <time>2022-02-24T16:17:53Z</time>
      </trkpt>
      <trkpt lat="46.21934" lon="5.34447">
        <ele>346.2</ele>
        <time>2022-02-24T16:17:54Z</time>
      </trkpt>
      <trkpt lat="46.21937" lon="5.3445">
        <ele>346.2</ele>
        <time>2022-02-24T16:17:55Z</time>
      </trkpt>
      <trkpt lat="46.2194" lon="5.34454">
        <ele>346.6</ele>
        <time>2022-02-24T16:17:56Z</time>
      </trkpt>
      <trkpt lat="46.21944" lon="5.34457">
        <ele>346.8</ele>
        <time>2022-02-24T16:17:57Z</time>
      </trkpt>
      <trkpt lat="46.21947" lon="5.3446">
        <ele>346.8</ele>
        <time>2022-02-24T16:17:58Z</time>
      </trkpt>
      <trkpt lat="46.2195" lon="5.34464">
        <ele>347</ele>
        <time>2022-02-24T16:17:59Z</time>
      </trkpt>
      <trkpt lat="46.21954" lon="5.34467">
        <ele>347</ele>
        <time>2022-02-24T16:18:00Z</time>
      </trkpt>
      <trkpt lat="46.21957" lon="5.34471">
        <ele>347.4</ele>
        <time>2022-02-24T16:18:01Z</time>
      </trkpt>
      <trkpt lat="46.2196" lon="5.34474">
        <ele>347.4</ele>
        <time>2022-02-24T16:18:02Z</time>
      </trkpt>
      <trkpt lat="46.21963" lon="5.34478">
        <ele>347.6</ele>
        <time>2022-02-24T16:18:03Z</time>
      </trkpt>
      <trkpt lat="46.21967" lon="5.34482">
        <ele>347.6</ele>
        <time>2022-02-24T16:18:04Z</time>
      </trkpt>
      <trkpt lat="46.2197" lon="5.34485">
        <ele>348</ele>
        <time>2022-02-24T16:18:05Z</time>
      </trkpt>
      <trkpt lat="46.21974" lon="5.34489">
        <ele>348</ele>
        <time>2022-02-24T16:18:06Z</time>
      </trkpt>
      <trkpt lat="46.21977" lon="5.34493">
        <ele>348.2</ele>
        <time>2022-02-24T16:18:07Z</time>
      </trkpt>
      <trkpt lat="46.21981" lon="5.34497">
        <ele>348.2</ele>
        <time>2022-02-24T16:18:08Z</time>
      </trkpt>
      <trkpt lat="46.21985" lon="5.345">
        <ele>348.2</ele>
        <time>2022-02-24T16:18:09Z</time>
      </trkpt>
      <trkpt lat="46.21988" lon="5.34504">
        <ele>348.4</ele>
        <time>2022-02-24T16:18:10Z</time>
      </trkpt>
      <trkpt lat="46.21992" lon="5.34508">
        <ele>348.4</ele>
        <time>2022-02-24T16:18:11Z</time>
      </trkpt>
      <trkpt lat="46.21995" lon="5.34512">
        <ele>348.8</ele>
        <time>2022-02-24T16:18:12Z</time>
      </trkpt>
      <trkpt lat="46.21999" lon="5.34515">
        <ele>348.8</ele>
        <time>2022-02-24T16:18:13Z</time>
      </trkpt>
      <trkpt lat="46.22002" lon="5.34519">
        <ele>348.8</ele>
        <time>2022-02-24T16:18:14Z</time>
      </trkpt>
      <trkpt lat="46.22005" lon="5.34522">
        <ele>349</ele>
        <time>2022-02-24T16:18:15Z</time>
      </trkpt>
      <trkpt lat="46.22009" lon="5.34526">
        <ele>349</ele>
        <time>2022-02-24T16:18:16Z</time>
      </trkpt>
      <trkpt lat="46.22012" lon="5.34529">
        <ele>349</ele>
        <time>2022-02-24T16:18:17Z</time>
      </trkpt>
      <trkpt lat="46.22015" lon="5.34533">
        <ele>349.4</ele>
        <time>2022-02-24T16:18:18Z</time>
      </trkpt>
      <trkpt lat="46.22018" lon="5.34536">
        <ele>349.4</ele>
        <time>2022-02-24T16:18:19Z</time>
      </trkpt>
      <trkpt lat="46.22022" lon="5.34539">
        <ele>350</ele>
        <time>2022-02-24T16:18:20Z</time>
      </trkpt>
      <trkpt lat="46.22024" lon="5.34543">
        <ele>350</ele>
        <time>2022-02-24T16:18:21Z</time>
      </trkpt>
      <trkpt lat="46.22027" lon="5.34546">
        <ele>350.2</ele>
        <time>2022-02-24T16:18:22Z</time>
      </trkpt>
      <trkpt lat="46.2203" lon="5.34549">
        <ele>350.4</ele>
        <time>2022-02-24T16:18:23Z</time>
      </trkpt>
      <trkpt lat="46.22033" lon="5.34553">
        <ele>350.6</ele>
        <time>2022-02-24T16:18:24Z</time>
      </trkpt>
      <trkpt lat="46.22037" lon="5.34556">
        <ele>350.6</ele>
        <time>2022-02-24T16:18:25Z</time>
      </trkpt>
      <trkpt lat="46.2204" lon="5.3456">
        <ele>351</ele>
        <time>2022-02-24T16:18:26Z</time>
      </trkpt>
      <trkpt lat="46.22043" lon="5.34563">
        <ele>351</ele>
        <time>2022-02-24T16:18:27Z</time>
      </trkpt>
      <trkpt lat="46.22046" lon="5.34566">
        <ele>351.4</ele>
        <time>2022-02-24T16:18:28Z</time>
      </trkpt>
      <trkpt lat="46.2205" lon="5.34569">
        <ele>351.6</ele>
        <time>2022-02-24T16:18:29Z</time>
      </trkpt>
      <trkpt lat="46.22053" lon="5.34572">
        <ele>351.8</ele>
        <time>2022-02-24T16:18:30Z</time>
      </trkpt>
      <trkpt lat="46.22056" lon="5.34575">
        <ele>352.2</ele>
        <time>2022-02-24T16:18:31Z</time>
      </trkpt>
      <trkpt lat="46.22059" lon="5.34579">
        <ele>352.2</ele>
        <time>2022-02-24T16:18:32Z</time>
      </trkpt>
      <trkpt lat="46.22063" lon="5.34582">
        <ele>352.6</ele>
        <time>2022-02-24T16:18:33Z</time>
      </trkpt>
      <trkpt lat="46.22066" lon="5.34585">
        <ele>352.8</ele>
        <time>2022-02-24T16:18:34Z</time>
      </trkpt>
      <trkpt lat="46.2207" lon="5.34588">
        <ele>352.8</ele>
        <time>2022-02-24T16:18:35Z</time>
      </trkpt>
      <trkpt lat="46.22073" lon="5.34591">
        <ele>352.8</ele>
        <time>2022-02-24T16:18:36Z</time>
      </trkpt>
      <trkpt lat="46.22076" lon="5.34594">
        <ele>353.2</ele>
        <time>2022-02-24T16:18:37Z</time>
      </trkpt>
      <trkpt lat="46.2208" lon="5.34596">
        <ele>353.6</ele>
        <time>2022-02-24T16:18:38Z</time>
      </trkpt>
      <trkpt lat="46.22083" lon="5.34599">
        <ele>353.6</ele>
        <time>2022-02-24T16:18:39Z</time>
      </trkpt>
      <trkpt lat="46.22087" lon="5.34601">
        <ele>354</ele>
        <time>2022-02-24T16:18:40Z</time>
      </trkpt>
      <trkpt lat="46.2209" lon="5.34604">
        <ele>354.2</ele>
        <time>2022-02-24T16:18:41Z</time>
      </trkpt>
      <trkpt lat="46.22094" lon="5.34606">
        <ele>354.4</ele>
        <time>2022-02-24T16:18:42Z</time>
      </trkpt>
      <trkpt lat="46.22098" lon="5.34609">
        <ele>354.6</ele>
        <time>2022-02-24T16:18:43Z</time>
      </trkpt>
      <trkpt lat="46.22102" lon="5.34611">
        <ele>355</ele>
        <time>2022-02-24T16:18:44Z</time>
      </trkpt>
      <trkpt lat="46.22105" lon="5.34614">
        <ele>355.2</ele>
        <time>2022-02-24T16:18:45Z</time>
      </trkpt>
      <trkpt lat="46.22109" lon="5.34616">
        <ele>355.4</ele>
        <time>2022-02-24T16:18:46Z</time>
      </trkpt>
      <trkpt lat="46.22113" lon="5.34619">
        <ele>355.4</ele>
        <time>2022-02-24T16:18:47Z</time>
      </trkpt>
      <trkpt lat="46.22116" lon="5.34621">
        <ele>355.6</ele>
        <time>2022-02-24T16:18:48Z</time>
      </trkpt>
      <trkpt lat="46.2212" lon="5.34623">
        <ele>355.6</ele>
        <time>2022-02-24T16:18:49Z</time>
      </trkpt>
      <trkpt lat="46.22124" lon="5.34625">
        <ele>356</ele>
        <time>2022-02-24T16:18:50Z</time>
      </trkpt>
      <trkpt lat="46.22128" lon="5.34627">
        <ele>356.2</ele>
        <time>2022-02-24T16:18:51Z</time>
      </trkpt>
      <trkpt lat="46.22131" lon="5.34629">
        <ele>356.4</ele>
        <time>2022-02-24T16:18:52Z</time>
      </trkpt>
      <trkpt lat="46.22135" lon="5.34632">
        <ele>356.4</ele>
        <time>2022-02-24T16:18:53Z</time>
      </trkpt>
      <trkpt lat="46.22138" lon="5.34634">
        <ele>356.8</ele>
        <time>2022-02-24T16:18:54Z</time>
      </trkpt>
      <trkpt lat="46.22141" lon="5.34636">
        <ele>357</ele>
        <time>2022-02-24T16:18:55Z</time>
      </trkpt>
      <trkpt lat="46.22145" lon="5.34638">
        <ele>357.2</ele>
        <time>2022-02-24T16:18:56Z</time>
      </trkpt>
      <trkpt lat="46.22149" lon="5.3464">
        <ele>357.4</ele>
        <time>2022-02-24T16:18:57Z</time>
      </trkpt>
      <trkpt lat="46.22152" lon="5.34642">
        <ele>357.4</ele>
        <time>2022-02-24T16:18:58Z</time>
      </trkpt>
      <trkpt lat="46.22156" lon="5.34644">
        <ele>357.8</ele>
        <time>2022-02-24T16:18:59Z</time>
      </trkpt>
      <trkpt lat="46.22159" lon="5.34646">
        <ele>358</ele>
        <time>2022-02-24T16:19:00Z</time>
      </trkpt>
      <trkpt lat="46.22163" lon="5.34648">
        <ele>358</ele>
        <time>2022-02-24T16:19:01Z</time>
      </trkpt>
      <trkpt lat="46.22166" lon="5.3465">
        <ele>358.4</ele>
        <time>2022-02-24T16:19:02Z</time>
      </trkpt>
      <trkpt lat="46.22169" lon="5.34653">
        <ele>358.4</ele>
        <time>2022-02-24T16:19:03Z</time>
      </trkpt>
      <trkpt lat="46.22173" lon="5.34655">
        <ele>358.8</ele>
        <time>2022-02-24T16:19:04Z</time>
      </trkpt>
      <trkpt lat="46.22176" lon="5.34657">
        <ele>358.8</ele>
        <time>2022-02-24T16:19:05Z</time>
      </trkpt>
      <trkpt lat="46.22179" lon="5.34659">
        <ele>359.2</ele>
        <time>2022-02-24T16:19:06Z</time>
      </trkpt>
      <trkpt lat="46.22183" lon="5.34661">
        <ele>359.2</ele>
        <time>2022-02-24T16:19:07Z</time>
      </trkpt>
      <trkpt lat="46.22186" lon="5.34663">
        <ele>359.6</ele>
        <time>2022-02-24T16:19:08Z</time>
      </trkpt>
      <trkpt lat="46.22189" lon="5.34666">
        <ele>359.6</ele>
        <time>2022-02-24T16:19:09Z</time>
      </trkpt>
      <trkpt lat="46.22192" lon="5.34668">
        <ele>359.8</ele>
        <time>2022-02-24T16:19:10Z</time>
      </trkpt>
      <trkpt lat="46.22195" lon="5.3467">
        <ele>360.2</ele>
        <time>2022-02-24T16:19:11Z</time>
      </trkpt>
      <trkpt lat="46.22198" lon="5.34673">
        <ele>360.4</ele>
        <time>2022-02-24T16:19:12Z</time>
      </trkpt>
      <trkpt lat="46.22202" lon="5.34675">
        <ele>360.4</ele>
        <time>2022-02-24T16:19:13Z</time>
      </trkpt>
      <trkpt lat="46.22205" lon="5.34678">
        <ele>360.8</ele>
        <time>2022-02-24T16:19:14Z</time>
      </trkpt>
      <trkpt lat="46.22208" lon="5.3468">
        <ele>360.8</ele>
        <time>2022-02-24T16:19:15Z</time>
      </trkpt>
      <trkpt lat="46.22211" lon="5.34683">
        <ele>361.2</ele>
        <time>2022-02-24T16:19:16Z</time>
      </trkpt>
      <trkpt lat="46.22214" lon="5.34686">
        <ele>361.4</ele>
        <time>2022-02-24T16:19:17Z</time>
      </trkpt>
      <trkpt lat="46.22217" lon="5.34689">
        <ele>361.8</ele>
        <time>2022-02-24T16:19:18Z</time>
      </trkpt>
      <trkpt lat="46.2222" lon="5.34691">
        <ele>361.8</ele>
        <time>2022-02-24T16:19:19Z</time>
      </trkpt>
      <trkpt lat="46.22223" lon="5.34694">
        <ele>362</ele>
        <time>2022-02-24T16:19:20Z</time>
      </trkpt>
      <trkpt lat="46.22226" lon="5.34697">
        <ele>362</ele>
        <time>2022-02-24T16:19:21Z</time>
      </trkpt>
      <trkpt lat="46.22229" lon="5.347">
        <ele>362.6</ele>
        <time>2022-02-24T16:19:22Z</time>
      </trkpt>
      <trkpt lat="46.22232" lon="5.34703">
        <ele>362.8</ele>
        <time>2022-02-24T16:19:23Z</time>
      </trkpt>
      <trkpt lat="46.22234" lon="5.34706">
        <ele>363</ele>
        <time>2022-02-24T16:19:24Z</time>
      </trkpt>
      <trkpt lat="46.22237" lon="5.34709">
        <ele>363</ele>
        <time>2022-02-24T16:19:25Z</time>
      </trkpt>
      <trkpt lat="46.22239" lon="5.34713">
        <ele>363.4</ele>
        <time>2022-02-24T16:19:26Z</time>
      </trkpt>
      <trkpt lat="46.22242" lon="5.34716">
        <ele>363.4</ele>
        <time>2022-02-24T16:19:27Z</time>
      </trkpt>
      <trkpt lat="46.22244" lon="5.34719">
        <ele>363.6</ele>
        <time>2022-02-24T16:19:28Z</time>
      </trkpt>
      <trkpt lat="46.22247" lon="5.34723">
        <ele>363.6</ele>
        <time>2022-02-24T16:19:29Z</time>
      </trkpt>
      <trkpt lat="46.22249" lon="5.34726">
        <ele>364</ele>
        <time>2022-02-24T16:19:30Z</time>
      </trkpt>
      <trkpt lat="46.22252" lon="5.3473">
        <ele>364</ele>
        <time>2022-02-24T16:19:31Z</time>
      </trkpt>
      <trkpt lat="46.22254" lon="5.34733">
        <ele>364.6</ele>
        <time>2022-02-24T16:19:32Z</time>
      </trkpt>
      <trkpt lat="46.22257" lon="5.34737">
        <ele>364.8</ele>
        <time>2022-02-24T16:19:33Z</time>
      </trkpt>
      <trkpt lat="46.22259" lon="5.3474">
        <ele>364.8</ele>
        <time>2022-02-24T16:19:34Z</time>
      </trkpt>
      <trkpt lat="46.22261" lon="5.34744">
        <ele>365.2</ele>
        <time>2022-02-24T16:19:35Z</time>
      </trkpt>
      <trkpt lat="46.22264" lon="5.34748">
        <ele>365.4</ele>
        <time>2022-02-24T16:19:36Z</time>
      </trkpt>
      <trkpt lat="46.22266" lon="5.34751">
        <ele>365.4</ele>
        <time>2022-02-24T16:19:37Z</time>
      </trkpt>
      <trkpt lat="46.22268" lon="5.34755">
        <ele>365.8</ele>
        <time>2022-02-24T16:19:38Z</time>
      </trkpt>
      <trkpt lat="46.2227" lon="5.34759">
        <ele>365.8</ele>
        <time>2022-02-24T16:19:39Z</time>
      </trkpt>
      <trkpt lat="46.22272" lon="5.34762">
        <ele>366.2</ele>
        <time>2022-02-24T16:19:40Z</time>
      </trkpt>
      <trkpt lat="46.22275" lon="5.34766">
        <ele>366.6</ele>
        <time>2022-02-24T16:19:41Z</time>
      </trkpt>
      <trkpt lat="46.22277" lon="5.3477">
        <ele>366.6</ele>
        <time>2022-02-24T16:19:42Z</time>
      </trkpt>
      <trkpt lat="46.22279" lon="5.34774">
        <ele>367</ele>
        <time>2022-02-24T16:19:43Z</time>
      </trkpt>
      <trkpt lat="46.22282" lon="5.34778">
        <ele>367.2</ele>
        <time>2022-02-24T16:19:44Z</time>
      </trkpt>
      <trkpt lat="46.22284" lon="5.34782">
        <ele>367.6</ele>
        <time>2022-02-24T16:19:45Z</time>
      </trkpt>
      <trkpt lat="46.22287" lon="5.34786">
        <ele>367.8</ele>
        <time>2022-02-24T16:19:46Z</time>
      </trkpt>
      <trkpt lat="46.22289" lon="5.3479">
        <ele>368</ele>
        <time>2022-02-24T16:19:47Z</time>
      </trkpt>
      <trkpt lat="46.22291" lon="5.34794">
        <ele>368</ele>
        <time>2022-02-24T16:19:48Z</time>
      </trkpt>
      <trkpt lat="46.22294" lon="5.34798">
        <ele>368</ele>
        <time>2022-02-24T16:19:49Z</time>
      </trkpt>
      <trkpt lat="46.22296" lon="5.34802">
        <ele>368.2</ele>
        <time>2022-02-24T16:19:50Z</time>
      </trkpt>
      <trkpt lat="46.22298" lon="5.34806">
        <ele>368.2</ele>
        <time>2022-02-24T16:19:51Z</time>
      </trkpt>
      <trkpt lat="46.223" lon="5.3481">
        <ele>368.6</ele>
        <time>2022-02-24T16:19:52Z</time>
      </trkpt>
      <trkpt lat="46.22303" lon="5.34814">
        <ele>368.6</ele>
        <time>2022-02-24T16:19:53Z</time>
      </trkpt>
      <trkpt lat="46.22305" lon="5.34818">
        <ele>368.8</ele>
        <time>2022-02-24T16:19:54Z</time>
      </trkpt>
      <trkpt lat="46.22307" lon="5.34822">
        <ele>368.8</ele>
        <time>2022-02-24T16:19:55Z</time>
      </trkpt>
      <trkpt lat="46.2231" lon="5.34826">
        <ele>369.2</ele>
        <time>2022-02-24T16:19:56Z</time>
      </trkpt>
      <trkpt lat="46.22312" lon="5.3483">
        <ele>369.2</ele>
        <time>2022-02-24T16:19:57Z</time>
      </trkpt>
      <trkpt lat="46.22315" lon="5.34834">
        <ele>369.6</ele>
        <time>2022-02-24T16:19:58Z</time>
      </trkpt>
      <trkpt lat="46.22318" lon="5.34838">
        <ele>369.6</ele>
        <time>2022-02-24T16:19:59Z</time>
      </trkpt>
      <trkpt lat="46.2232" lon="5.34842">
        <ele>369.8</ele>
        <time>2022-02-24T16:20:00Z</time>
      </trkpt>
      <trkpt lat="46.22323" lon="5.34846">
        <ele>369.8</ele>
        <time>2022-02-24T16:20:01Z</time>
      </trkpt>
      <trkpt lat="46.22326" lon="5.3485">
        <ele>370.2</ele>
        <time>2022-02-24T16:20:02Z</time>
      </trkpt>
      <trkpt lat="46.22329" lon="5.34854">
        <ele>370.2</ele>
        <time>2022-02-24T16:20:03Z</time>
      </trkpt>
      <trkpt lat="46.22333" lon="5.34857">
        <ele>370.4</ele>
        <time>2022-02-24T16:20:04Z</time>
      </trkpt>
      <trkpt lat="46.22336" lon="5.34862">
        <ele>370.4</ele>
        <time>2022-02-24T16:20:05Z</time>
      </trkpt>
      <trkpt lat="46.22339" lon="5.34865">
        <ele>370.8</ele>
        <time>2022-02-24T16:20:06Z</time>
      </trkpt>
      <trkpt lat="46.22342" lon="5.34869">
        <ele>370.8</ele>
        <time>2022-02-24T16:20:07Z</time>
      </trkpt>
      <trkpt lat="46.22345" lon="5.34873">
        <ele>371</ele>
        <time>2022-02-24T16:20:08Z</time>
      </trkpt>
      <trkpt lat="46.22348" lon="5.34877">
        <ele>371</ele>
        <time>2022-02-24T16:20:09Z</time>
      </trkpt>
      <trkpt lat="46.22351" lon="5.34881">
        <ele>371.4</ele>
        <time>2022-02-24T16:20:10Z</time>
      </trkpt>
      <trkpt lat="46.22355" lon="5.34885">
        <ele>371.4</ele>
        <time>2022-02-24T16:20:11Z</time>
      </trkpt>
      <trkpt lat="46.22358" lon="5.34889">
        <ele>371.8</ele>
        <time>2022-02-24T16:20:12Z</time>
      </trkpt>
      <trkpt lat="46.22361" lon="5.34892">
        <ele>371.8</ele>
        <time>2022-02-24T16:20:13Z</time>
      </trkpt>
      <trkpt lat="46.22364" lon="5.34896">
        <ele>372</ele>
        <time>2022-02-24T16:20:14Z</time>
      </trkpt>
      <trkpt lat="46.22368" lon="5.34899">
        <ele>372</ele>
        <time>2022-02-24T16:20:15Z</time>
      </trkpt>
      <trkpt lat="46.22371" lon="5.34903">
        <ele>372.2</ele>
        <time>2022-02-24T16:20:16Z</time>
      </trkpt>
      <trkpt lat="46.22374" lon="5.34906">
        <ele>372.2</ele>
        <time>2022-02-24T16:20:18Z</time>
      </trkpt>
      <trkpt lat="46.22377" lon="5.3491">
        <ele>372.2</ele>
        <time>2022-02-24T16:20:19Z</time>
      </trkpt>
      <trkpt lat="46.2238" lon="5.34913">
        <ele>372.4</ele>
        <time>2022-02-24T16:20:20Z</time>
      </trkpt>
      <trkpt lat="46.22383" lon="5.34917">
        <ele>372.4</ele>
        <time>2022-02-24T16:20:21Z</time>
      </trkpt>
      <trkpt lat="46.22387" lon="5.3492">
        <ele>372.6</ele>
        <time>2022-02-24T16:20:22Z</time>
      </trkpt>
      <trkpt lat="46.2239" lon="5.34923">
        <ele>372.6</ele>
        <time>2022-02-24T16:20:23Z</time>
      </trkpt>
      <trkpt lat="46.22394" lon="5.34927">
        <ele>372.8</ele>
        <time>2022-02-24T16:20:24Z</time>
      </trkpt>
      <trkpt lat="46.22398" lon="5.3493">
        <ele>372.8</ele>
        <time>2022-02-24T16:20:25Z</time>
      </trkpt>
      <trkpt lat="46.22402" lon="5.34934">
        <ele>373</ele>
        <time>2022-02-24T16:20:26Z</time>
      </trkpt>
      <trkpt lat="46.22406" lon="5.34938">
        <ele>373</ele>
        <time>2022-02-24T16:20:27Z</time>
      </trkpt>
      <trkpt lat="46.22409" lon="5.34942">
        <ele>373</ele>
        <time>2022-02-24T16:20:28Z</time>
      </trkpt>
      <trkpt lat="46.22413" lon="5.34945">
        <ele>373</ele>
        <time>2022-02-24T16:20:29Z</time>
      </trkpt>
      <trkpt lat="46.22417" lon="5.34949">
        <ele>373.2</ele>
        <time>2022-02-24T16:20:30Z</time>
      </trkpt>
      <trkpt lat="46.22421" lon="5.34953">
        <ele>373.2</ele>
        <time>2022-02-24T16:20:31Z</time>
      </trkpt>
      <trkpt lat="46.22425" lon="5.34957">
        <ele>373.2</ele>
        <time>2022-02-24T16:20:32Z</time>
      </trkpt>
      <trkpt lat="46.22429" lon="5.3496">
        <ele>373.4</ele>
        <time>2022-02-24T16:20:33Z</time>
      </trkpt>
      <trkpt lat="46.22433" lon="5.34964">
        <ele>373.4</ele>
        <time>2022-02-24T16:20:34Z</time>
      </trkpt>
      <trkpt lat="46.22437" lon="5.34968">
        <ele>373.4</ele>
        <time>2022-02-24T16:20:35Z</time>
      </trkpt>
      <trkpt lat="46.22441" lon="5.34972">
        <ele>373.4</ele>
        <time>2022-02-24T16:20:36Z</time>
      </trkpt>
      <trkpt lat="46.22445" lon="5.34976">
        <ele>373.4</ele>
        <time>2022-02-24T16:20:37Z</time>
      </trkpt>
      <trkpt lat="46.22449" lon="5.3498">
        <ele>373.4</ele>
        <time>2022-02-24T16:20:38Z</time>
      </trkpt>
      <trkpt lat="46.22453" lon="5.34984">
        <ele>373.8</ele>
        <time>2022-02-24T16:20:39Z</time>
      </trkpt>
      <trkpt lat="46.22457" lon="5.34988">
        <ele>373.8</ele>
        <time>2022-02-24T16:20:40Z</time>
      </trkpt>
      <trkpt lat="46.22461" lon="5.34992">
        <ele>374</ele>
        <time>2022-02-24T16:20:41Z</time>
      </trkpt>
      <trkpt lat="46.22465" lon="5.34995">
        <ele>374</ele>
        <time>2022-02-24T16:20:42Z</time>
      </trkpt>
      <trkpt lat="46.22468" lon="5.34999">
        <ele>374.2</ele>
        <time>2022-02-24T16:20:43Z</time>
      </trkpt>
      <trkpt lat="46.22472" lon="5.35003">
        <ele>374.2</ele>
        <time>2022-02-24T16:20:44Z</time>
      </trkpt>
      <trkpt lat="46.22476" lon="5.35006">
        <ele>374.2</ele>
        <time>2022-02-24T16:20:45Z</time>
      </trkpt>
      <trkpt lat="46.2248" lon="5.3501">
        <ele>374.6</ele>
        <time>2022-02-24T16:20:46Z</time>
      </trkpt>
      <trkpt lat="46.22484" lon="5.35013">
        <ele>374.6</ele>
        <time>2022-02-24T16:20:47Z</time>
      </trkpt>
      <trkpt lat="46.22488" lon="5.35017">
        <ele>374.6</ele>
        <time>2022-02-24T16:20:48Z</time>
      </trkpt>
      <trkpt lat="46.22491" lon="5.35021">
        <ele>374.6</ele>
        <time>2022-02-24T16:20:49Z</time>
      </trkpt>
      <trkpt lat="46.22495" lon="5.35025">
        <ele>374.8</ele>
        <time>2022-02-24T16:20:50Z</time>
      </trkpt>
      <trkpt lat="46.22499" lon="5.35028">
        <ele>374.8</ele>
        <time>2022-02-24T16:20:51Z</time>
      </trkpt>
      <trkpt lat="46.22503" lon="5.35032">
        <ele>374.8</ele>
        <time>2022-02-24T16:20:52Z</time>
      </trkpt>
      <trkpt lat="46.22507" lon="5.35036">
        <ele>375</ele>
        <time>2022-02-24T16:20:53Z</time>
      </trkpt>
      <trkpt lat="46.22511" lon="5.3504">
        <ele>375</ele>
        <time>2022-02-24T16:20:54Z</time>
      </trkpt>
      <trkpt lat="46.22515" lon="5.35044">
        <ele>375</ele>
        <time>2022-02-24T16:20:55Z</time>
      </trkpt>
      <trkpt lat="46.22519" lon="5.35047">
        <ele>375</ele>
        <time>2022-02-24T16:20:56Z</time>
      </trkpt>
      <trkpt lat="46.22523" lon="5.35051">
        <ele>375</ele>
        <time>2022-02-24T16:20:57Z</time>
      </trkpt>
      <trkpt lat="46.22527" lon="5.35055">
        <ele>375</ele>
        <time>2022-02-24T16:20:58Z</time>
      </trkpt>
      <trkpt lat="46.22531" lon="5.35058">
        <ele>375</ele>
        <time>2022-02-24T16:20:59Z</time>
      </trkpt>
      <trkpt lat="46.22535" lon="5.35062">
        <ele>375</ele>
        <time>2022-02-24T16:21:00Z</time>
      </trkpt>
      <trkpt lat="46.22539" lon="5.35065">
        <ele>375</ele>
        <time>2022-02-24T16:21:01Z</time>
      </trkpt>
      <trkpt lat="46.22542" lon="5.35069">
        <ele>375</ele>
        <time>2022-02-24T16:21:02Z</time>
      </trkpt>
      <trkpt lat="46.22546" lon="5.35073">
        <ele>375</ele>
        <time>2022-02-24T16:21:03Z</time>
      </trkpt>
      <trkpt lat="46.2255" lon="5.35077">
        <ele>375</ele>
        <time>2022-02-24T16:21:04Z</time>
      </trkpt>
      <trkpt lat="46.22554" lon="5.3508">
        <ele>375</ele>
        <time>2022-02-24T16:21:05Z</time>
      </trkpt>
      <trkpt lat="46.22558" lon="5.35084">
        <ele>375</ele>
        <time>2022-02-24T16:21:06Z</time>
      </trkpt>
      <trkpt lat="46.22562" lon="5.35089">
        <ele>375</ele>
        <time>2022-02-24T16:21:07Z</time>
      </trkpt>
      <trkpt lat="46.22566" lon="5.35093">
        <ele>375</ele>
        <time>2022-02-24T16:21:08Z</time>
      </trkpt>
      <trkpt lat="46.2257" lon="5.35097">
        <ele>375</ele>
        <time>2022-02-24T16:21:09Z</time>
      </trkpt>
      <trkpt lat="46.22574" lon="5.35101">
        <ele>375</ele>
        <time>2022-02-24T16:21:10Z</time>
      </trkpt>
      <trkpt lat="46.22578" lon="5.35106">
        <ele>375</ele>
        <time>2022-02-24T16:21:11Z</time>
      </trkpt>
      <trkpt lat="46.22583" lon="5.3511">
        <ele>375</ele>
        <time>2022-02-24T16:21:12Z</time>
      </trkpt>
      <trkpt lat="46.22588" lon="5.35114">
        <ele>375</ele>
        <time>2022-02-24T16:21:13Z</time>
      </trkpt>
      <trkpt lat="46.22593" lon="5.35118">
        <ele>375</ele>
        <time>2022-02-24T16:21:14Z</time>
      </trkpt>
      <trkpt lat="46.22598" lon="5.35122">
        <ele>375</ele>
        <time>2022-02-24T16:21:15Z</time>
      </trkpt>
      <trkpt lat="46.22603" lon="5.35126">
        <ele>375</ele>
        <time>2022-02-24T16:21:16Z</time>
      </trkpt>
      <trkpt lat="46.22608" lon="5.3513">
        <ele>375</ele>
        <time>2022-02-24T16:21:17Z</time>
      </trkpt>
      <trkpt lat="46.22613" lon="5.35134">
        <ele>375</ele>
        <time>2022-02-24T16:21:18Z</time>
      </trkpt>
      <trkpt lat="46.22619" lon="5.35139">
        <ele>374.6</ele>
        <time>2022-02-24T16:21:19Z</time>
      </trkpt>
      <trkpt lat="46.22624" lon="5.35144">
        <ele>374.6</ele>
        <time>2022-02-24T16:21:20Z</time>
      </trkpt>
      <trkpt lat="46.22629" lon="5.3515">
        <ele>374.4</ele>
        <time>2022-02-24T16:21:21Z</time>
      </trkpt>
      <trkpt lat="46.22635" lon="5.35154">
        <ele>374.4</ele>
        <time>2022-02-24T16:21:22Z</time>
      </trkpt>
      <trkpt lat="46.22641" lon="5.35159">
        <ele>374</ele>
        <time>2022-02-24T16:21:23Z</time>
      </trkpt>
      <trkpt lat="46.22646" lon="5.35164">
        <ele>374</ele>
        <time>2022-02-24T16:21:24Z</time>
      </trkpt>
      <trkpt lat="46.22652" lon="5.35169">
        <ele>373.8</ele>
        <time>2022-02-24T16:21:25Z</time>
      </trkpt>
      <trkpt lat="46.22659" lon="5.35175">
        <ele>373.8</ele>
        <time>2022-02-24T16:21:26Z</time>
      </trkpt>
      <trkpt lat="46.22665" lon="5.3518">
        <ele>373.6</ele>
        <time>2022-02-24T16:21:27Z</time>
      </trkpt>
      <trkpt lat="46.22672" lon="5.35187">
        <ele>373.6</ele>
        <time>2022-02-24T16:21:28Z</time>
      </trkpt>
      <trkpt lat="46.22678" lon="5.35192">
        <ele>373.4</ele>
        <time>2022-02-24T16:21:29Z</time>
      </trkpt>
      <trkpt lat="46.22685" lon="5.35198">
        <ele>373.4</ele>
        <time>2022-02-24T16:21:30Z</time>
      </trkpt>
      <trkpt lat="46.22692" lon="5.35204">
        <ele>373.2</ele>
        <time>2022-02-24T16:21:31Z</time>
      </trkpt>
      <trkpt lat="46.22699" lon="5.3521">
        <ele>373.2</ele>
        <time>2022-02-24T16:21:32Z</time>
      </trkpt>
      <trkpt lat="46.22706" lon="5.35216">
        <ele>372.8</ele>
        <time>2022-02-24T16:21:33Z</time>
      </trkpt>
      <trkpt lat="46.22714" lon="5.35222">
        <ele>372.6</ele>
        <time>2022-02-24T16:21:34Z</time>
      </trkpt>
      <trkpt lat="46.22722" lon="5.35228">
        <ele>372.2</ele>
        <time>2022-02-24T16:21:35Z</time>
      </trkpt>
      <trkpt lat="46.22729" lon="5.35234">
        <ele>372</ele>
        <time>2022-02-24T16:21:36Z</time>
      </trkpt>
      <trkpt lat="46.22736" lon="5.35241">
        <ele>371.8</ele>
        <time>2022-02-24T16:21:37Z</time>
      </trkpt>
      <trkpt lat="46.22744" lon="5.35247">
        <ele>371.8</ele>
        <time>2022-02-24T16:21:38Z</time>
      </trkpt>
      <trkpt lat="46.22751" lon="5.35254">
        <ele>371.6</ele>
        <time>2022-02-24T16:21:39Z</time>
      </trkpt>
      <trkpt lat="46.22759" lon="5.35261">
        <ele>371.4</ele>
        <time>2022-02-24T16:21:40Z</time>
      </trkpt>
      <trkpt lat="46.22766" lon="5.35267">
        <ele>371.4</ele>
        <time>2022-02-24T16:21:41Z</time>
      </trkpt>
      <trkpt lat="46.22774" lon="5.35273">
        <ele>371</ele>
        <time>2022-02-24T16:21:42Z</time>
      </trkpt>
      <trkpt lat="46.22782" lon="5.3528">
        <ele>371</ele>
        <time>2022-02-24T16:21:43Z</time>
      </trkpt>
      <trkpt lat="46.2279" lon="5.35286">
        <ele>370.8</ele>
        <time>2022-02-24T16:21:44Z</time>
      </trkpt>
      <trkpt lat="46.22797" lon="5.35292">
        <ele>370.8</ele>
        <time>2022-02-24T16:21:45Z</time>
      </trkpt>
      <trkpt lat="46.22804" lon="5.35297">
        <ele>370.6</ele>
        <time>2022-02-24T16:21:46Z</time>
      </trkpt>
      <trkpt lat="46.22812" lon="5.35303">
        <ele>370.6</ele>
        <time>2022-02-24T16:21:47Z</time>
      </trkpt>
      <trkpt lat="46.22819" lon="5.35309">
        <ele>370.4</ele>
        <time>2022-02-24T16:21:48Z</time>
      </trkpt>
      <trkpt lat="46.22827" lon="5.35314">
        <ele>370.4</ele>
        <time>2022-02-24T16:21:49Z</time>
      </trkpt>
      <trkpt lat="46.22835" lon="5.35319">
        <ele>370.4</ele>
        <time>2022-02-24T16:21:50Z</time>
      </trkpt>
      <trkpt lat="46.22843" lon="5.35324">
        <ele>370.4</ele>
        <time>2022-02-24T16:21:51Z</time>
      </trkpt>
      <trkpt lat="46.2285" lon="5.35329">
        <ele>370.4</ele>
        <time>2022-02-24T16:21:52Z</time>
      </trkpt>
      <trkpt lat="46.22858" lon="5.35335">
        <ele>370.4</ele>
        <time>2022-02-24T16:21:53Z</time>
      </trkpt>
      <trkpt lat="46.22865" lon="5.3534">
        <ele>370.4</ele>
        <time>2022-02-24T16:21:54Z</time>
      </trkpt>
      <trkpt lat="46.22872" lon="5.35344">
        <ele>370.4</ele>
        <time>2022-02-24T16:21:55Z</time>
      </trkpt>
      <trkpt lat="46.22879" lon="5.35348">
        <ele>370.4</ele>
        <time>2022-02-24T16:21:56Z</time>
      </trkpt>
      <trkpt lat="46.22885" lon="5.35352">
        <ele>370.4</ele>
        <time>2022-02-24T16:21:57Z</time>
      </trkpt>
      <trkpt lat="46.22892" lon="5.35357">
        <ele>370.4</ele>
        <time>2022-02-24T16:21:58Z</time>
      </trkpt>
      <trkpt lat="46.22899" lon="5.35362">
        <ele>370.4</ele>
        <time>2022-02-24T16:21:59Z</time>
      </trkpt>
      <trkpt lat="46.22907" lon="5.35367">
        <ele>370.2</ele>
        <time>2022-02-24T16:22:00Z</time>
      </trkpt>
      <trkpt lat="46.22914" lon="5.35373">
        <ele>370.2</ele>
        <time>2022-02-24T16:22:01Z</time>
      </trkpt>
      <trkpt lat="46.22921" lon="5.35379">
        <ele>370.2</ele>
        <time>2022-02-24T16:22:02Z</time>
      </trkpt>
      <trkpt lat="46.22928" lon="5.35385">
        <ele>370.2</ele>
        <time>2022-02-24T16:22:03Z</time>
      </trkpt>
      <trkpt lat="46.22934" lon="5.3539">
        <ele>370.2</ele>
        <time>2022-02-24T16:22:04Z</time>
      </trkpt>
      <trkpt lat="46.22941" lon="5.35396">
        <ele>370.2</ele>
        <time>2022-02-24T16:22:05Z</time>
      </trkpt>
      <trkpt lat="46.22947" lon="5.35402">
        <ele>370.2</ele>
        <time>2022-02-24T16:22:06Z</time>
      </trkpt>
      <trkpt lat="46.22954" lon="5.35408">
        <ele>370.4</ele>
        <time>2022-02-24T16:22:07Z</time>
      </trkpt>
      <trkpt lat="46.2296" lon="5.35414">
        <ele>370.4</ele>
        <time>2022-02-24T16:22:08Z</time>
      </trkpt>
      <trkpt lat="46.22966" lon="5.35419">
        <ele>370.4</ele>
        <time>2022-02-24T16:22:09Z</time>
      </trkpt>
      <trkpt lat="46.22972" lon="5.35425">
        <ele>370.4</ele>
        <time>2022-02-24T16:22:10Z</time>
      </trkpt>
      <trkpt lat="46.22979" lon="5.35431">
        <ele>370.4</ele>
        <time>2022-02-24T16:22:11Z</time>
      </trkpt>
      <trkpt lat="46.22985" lon="5.35437">
        <ele>370.4</ele>
        <time>2022-02-24T16:22:12Z</time>
      </trkpt>
      <trkpt lat="46.22991" lon="5.35442">
        <ele>370.4</ele>
        <time>2022-02-24T16:22:13Z</time>
      </trkpt>
      <trkpt lat="46.22997" lon="5.35448">
        <ele>370.4</ele>
        <time>2022-02-24T16:22:14Z</time>
      </trkpt>
      <trkpt lat="46.23003" lon="5.35455">
        <ele>370.4</ele>
        <time>2022-02-24T16:22:15Z</time>
      </trkpt>
      <trkpt lat="46.23009" lon="5.35461">
        <ele>370.4</ele>
        <time>2022-02-24T16:22:16Z</time>
      </trkpt>
      <trkpt lat="46.23014" lon="5.35467">
        <ele>370.4</ele>
        <time>2022-02-24T16:22:17Z</time>
      </trkpt>
      <trkpt lat="46.2302" lon="5.35473">
        <ele>370.4</ele>
        <time>2022-02-24T16:22:18Z</time>
      </trkpt>
      <trkpt lat="46.23026" lon="5.35479">
        <ele>370.4</ele>
        <time>2022-02-24T16:22:19Z</time>
      </trkpt>
      <trkpt lat="46.23032" lon="5.35485">
        <ele>370.4</ele>
        <time>2022-02-24T16:22:20Z</time>
      </trkpt>
      <trkpt lat="46.23038" lon="5.35491">
        <ele>370.4</ele>
        <time>2022-02-24T16:22:21Z</time>
      </trkpt>
      <trkpt lat="46.23043" lon="5.35498">
        <ele>370.4</ele>
        <time>2022-02-24T16:22:22Z</time>
      </trkpt>
      <trkpt lat="46.23049" lon="5.35504">
        <ele>370.4</ele>
        <time>2022-02-24T16:22:23Z</time>
      </trkpt>
      <trkpt lat="46.23055" lon="5.35511">
        <ele>370.4</ele>
        <time>2022-02-24T16:22:24Z</time>
      </trkpt>
      <trkpt lat="46.23061" lon="5.35518">
        <ele>370.4</ele>
        <time>2022-02-24T16:22:25Z</time>
      </trkpt>
      <trkpt lat="46.23066" lon="5.35524">
        <ele>370.4</ele>
        <time>2022-02-24T16:22:26Z</time>
      </trkpt>
      <trkpt lat="46.23071" lon="5.35531">
        <ele>370.4</ele>
        <time>2022-02-24T16:22:27Z</time>
      </trkpt>
      <trkpt lat="46.23077" lon="5.35538">
        <ele>370.4</ele>
        <time>2022-02-24T16:22:28Z</time>
      </trkpt>
      <trkpt lat="46.23082" lon="5.35545">
        <ele>370.4</ele>
        <time>2022-02-24T16:22:29Z</time>
      </trkpt>
      <trkpt lat="46.23087" lon="5.35551">
        <ele>370.4</ele>
        <time>2022-02-24T16:22:30Z</time>
      </trkpt>
      <trkpt lat="46.23093" lon="5.35558">
        <ele>370.4</ele>
        <time>2022-02-24T16:22:31Z</time>
      </trkpt>
      <trkpt lat="46.23099" lon="5.35564">
        <ele>370.4</ele>
        <time>2022-02-24T16:22:32Z</time>
      </trkpt>
      <trkpt lat="46.23104" lon="5.35571">
        <ele>370.4</ele>
        <time>2022-02-24T16:22:33Z</time>
      </trkpt>
      <trkpt lat="46.2311" lon="5.35578">
        <ele>370.4</ele>
        <time>2022-02-24T16:22:34Z</time>
      </trkpt>
      <trkpt lat="46.23115" lon="5.35584">
        <ele>370.4</ele>
        <time>2022-02-24T16:22:35Z</time>
      </trkpt>
      <trkpt lat="46.23121" lon="5.35592">
        <ele>370.4</ele>
        <time>2022-02-24T16:22:36Z</time>
      </trkpt>
      <trkpt lat="46.23126" lon="5.35599">
        <ele>370.4</ele>
        <time>2022-02-24T16:22:37Z</time>
      </trkpt>
      <trkpt lat="46.23131" lon="5.35605">
        <ele>370.4</ele>
        <time>2022-02-24T16:22:38Z</time>
      </trkpt>
      <trkpt lat="46.23137" lon="5.35612">
        <ele>370.2</ele>
        <time>2022-02-24T16:22:39Z</time>
      </trkpt>
      <trkpt lat="46.23142" lon="5.35619">
        <ele>370.2</ele>
        <time>2022-02-24T16:22:40Z</time>
      </trkpt>
      <trkpt lat="46.23146" lon="5.35626">
        <ele>370</ele>
        <time>2022-02-24T16:22:41Z</time>
      </trkpt>
      <trkpt lat="46.23151" lon="5.35635">
        <ele>370</ele>
        <time>2022-02-24T16:22:42Z</time>
      </trkpt>
      <trkpt lat="46.23155" lon="5.35644">
        <ele>370</ele>
        <time>2022-02-24T16:22:43Z</time>
      </trkpt>
      <trkpt lat="46.23157" lon="5.35654">
        <ele>369.8</ele>
        <time>2022-02-24T16:22:44Z</time>
      </trkpt>
      <trkpt lat="46.23158" lon="5.35666">
        <ele>369.8</ele>
        <time>2022-02-24T16:22:45Z</time>
      </trkpt>
      <trkpt lat="46.23158" lon="5.35677">
        <ele>369.8</ele>
        <time>2022-02-24T16:22:46Z</time>
      </trkpt>
      <trkpt lat="46.23157" lon="5.35688">
        <ele>369.8</ele>
        <time>2022-02-24T16:22:47Z</time>
      </trkpt>
      <trkpt lat="46.23155" lon="5.35698">
        <ele>369.8</ele>
        <time>2022-02-24T16:22:48Z</time>
      </trkpt>
      <trkpt lat="46.23153" lon="5.35708">
        <ele>369.8</ele>
        <time>2022-02-24T16:22:49Z</time>
      </trkpt>
      <trkpt lat="46.23152" lon="5.35719">
        <ele>369.6</ele>
        <time>2022-02-24T16:22:50Z</time>
      </trkpt>
      <trkpt lat="46.23151" lon="5.35729">
        <ele>369.6</ele>
        <time>2022-02-24T16:22:51Z</time>
      </trkpt>
      <trkpt lat="46.2315" lon="5.3574">
        <ele>369.2</ele>
        <time>2022-02-24T16:22:52Z</time>
      </trkpt>
      <trkpt lat="46.23149" lon="5.3575">
        <ele>369.2</ele>
        <time>2022-02-24T16:22:53Z</time>
      </trkpt>
      <trkpt lat="46.23147" lon="5.35761">
        <ele>369.2</ele>
        <time>2022-02-24T16:22:54Z</time>
      </trkpt>
      <trkpt lat="46.23146" lon="5.35772">
        <ele>369</ele>
        <time>2022-02-24T16:22:55Z</time>
      </trkpt>
      <trkpt lat="46.23144" lon="5.35783">
        <ele>369</ele>
        <time>2022-02-24T16:22:56Z</time>
      </trkpt>
      <trkpt lat="46.23142" lon="5.35794">
        <ele>369</ele>
        <time>2022-02-24T16:22:57Z</time>
      </trkpt>
      <trkpt lat="46.2314" lon="5.35805">
        <ele>368.6</ele>
        <time>2022-02-24T16:22:58Z</time>
      </trkpt>
      <trkpt lat="46.23138" lon="5.35815">
        <ele>368.6</ele>
        <time>2022-02-24T16:22:59Z</time>
      </trkpt>
      <trkpt lat="46.23136" lon="5.35826">
        <ele>368.6</ele>
        <time>2022-02-24T16:23:00Z</time>
      </trkpt>
      <trkpt lat="46.23134" lon="5.35837">
        <ele>368.4</ele>
        <time>2022-02-24T16:23:01Z</time>
      </trkpt>
      <trkpt lat="46.23132" lon="5.35848">
        <ele>368.4</ele>
        <time>2022-02-24T16:23:02Z</time>
      </trkpt>
      <trkpt lat="46.2313" lon="5.35859">
        <ele>368</ele>
        <time>2022-02-24T16:23:03Z</time>
      </trkpt>
      <trkpt lat="46.23127" lon="5.35869">
        <ele>368</ele>
        <time>2022-02-24T16:23:04Z</time>
      </trkpt>
      <trkpt lat="46.23125" lon="5.3588">
        <ele>367.8</ele>
        <time>2022-02-24T16:23:05Z</time>
      </trkpt>
      <trkpt lat="46.23123" lon="5.35891">
        <ele>367.8</ele>
        <time>2022-02-24T16:23:06Z</time>
      </trkpt>
      <trkpt lat="46.23121" lon="5.35901">
        <ele>367.6</ele>
        <time>2022-02-24T16:23:07Z</time>
      </trkpt>
      <trkpt lat="46.23119" lon="5.35912">
        <ele>367.6</ele>
        <time>2022-02-24T16:23:08Z</time>
      </trkpt>
      <trkpt lat="46.23115" lon="5.35934">
        <ele>367.4</ele>
        <time>2022-02-24T16:23:09Z</time>
      </trkpt>
      <trkpt lat="46.23113" lon="5.35945">
        <ele>367.4</ele>
        <time>2022-02-24T16:23:10Z</time>
      </trkpt>
      <trkpt lat="46.23111" lon="5.35956">
        <ele>367</ele>
        <time>2022-02-24T16:23:11Z</time>
      </trkpt>
      <trkpt lat="46.23109" lon="5.35967">
        <ele>367</ele>
        <time>2022-02-24T16:23:12Z</time>
      </trkpt>
      <trkpt lat="46.23107" lon="5.35978">
        <ele>366.8</ele>
        <time>2022-02-24T16:23:13Z</time>
      </trkpt>
      <trkpt lat="46.23105" lon="5.35989">
        <ele>366.8</ele>
        <time>2022-02-24T16:23:14Z</time>
      </trkpt>
      <trkpt lat="46.23102" lon="5.36">
        <ele>366.6</ele>
        <time>2022-02-24T16:23:15Z</time>
      </trkpt>
      <trkpt lat="46.231" lon="5.36011">
        <ele>366.6</ele>
        <time>2022-02-24T16:23:16Z</time>
      </trkpt>
      <trkpt lat="46.23098" lon="5.36022">
        <ele>366.2</ele>
        <time>2022-02-24T16:23:17Z</time>
      </trkpt>
      <trkpt lat="46.23095" lon="5.36032">
        <ele>366.2</ele>
        <time>2022-02-24T16:23:18Z</time>
      </trkpt>
      <trkpt lat="46.23093" lon="5.36043">
        <ele>366</ele>
        <time>2022-02-24T16:23:19Z</time>
      </trkpt>
      <trkpt lat="46.23089" lon="5.36053">
        <ele>366</ele>
        <time>2022-02-24T16:23:20Z</time>
      </trkpt>
      <trkpt lat="46.23086" lon="5.36063">
        <ele>365.8</ele>
        <time>2022-02-24T16:23:21Z</time>
      </trkpt>
      <trkpt lat="46.23082" lon="5.36073">
        <ele>365.6</ele>
        <time>2022-02-24T16:23:22Z</time>
      </trkpt>
      <trkpt lat="46.23078" lon="5.36083">
        <ele>365.6</ele>
        <time>2022-02-24T16:23:23Z</time>
      </trkpt>
      <trkpt lat="46.23074" lon="5.36094">
        <ele>365.2</ele>
        <time>2022-02-24T16:23:24Z</time>
      </trkpt>
      <trkpt lat="46.23071" lon="5.36104">
        <ele>365.2</ele>
        <time>2022-02-24T16:23:25Z</time>
      </trkpt>
      <trkpt lat="46.23067" lon="5.36115">
        <ele>365</ele>
        <time>2022-02-24T16:23:26Z</time>
      </trkpt>
      <trkpt lat="46.23064" lon="5.36126">
        <ele>365</ele>
        <time>2022-02-24T16:23:27Z</time>
      </trkpt>
      <trkpt lat="46.23062" lon="5.36137">
        <ele>364.8</ele>
        <time>2022-02-24T16:23:28Z</time>
      </trkpt>
      <trkpt lat="46.2306" lon="5.36149">
        <ele>364.6</ele>
        <time>2022-02-24T16:23:29Z</time>
      </trkpt>
      <trkpt lat="46.2306" lon="5.36162">
        <ele>364.6</ele>
        <time>2022-02-24T16:23:30Z</time>
      </trkpt>
      <trkpt lat="46.2306" lon="5.36174">
        <ele>364.6</ele>
        <time>2022-02-24T16:23:31Z</time>
      </trkpt>
      <trkpt lat="46.23061" lon="5.36186">
        <ele>364.2</ele>
        <time>2022-02-24T16:23:32Z</time>
      </trkpt>
      <trkpt lat="46.23062" lon="5.36198">
        <ele>364.2</ele>
        <time>2022-02-24T16:23:33Z</time>
      </trkpt>
      <trkpt lat="46.23064" lon="5.3621">
        <ele>364</ele>
        <time>2022-02-24T16:23:34Z</time>
      </trkpt>
      <trkpt lat="46.23066" lon="5.36223">
        <ele>364</ele>
        <time>2022-02-24T16:23:35Z</time>
      </trkpt>
      <trkpt lat="46.23068" lon="5.36235">
        <ele>363.4</ele>
        <time>2022-02-24T16:23:36Z</time>
      </trkpt>
      <trkpt lat="46.2307" lon="5.36248">
        <ele>363.4</ele>
        <time>2022-02-24T16:23:37Z</time>
      </trkpt>
      <trkpt lat="46.23072" lon="5.36261">
        <ele>363</ele>
        <time>2022-02-24T16:23:38Z</time>
      </trkpt>
      <trkpt lat="46.23074" lon="5.36274">
        <ele>362.6</ele>
        <time>2022-02-24T16:23:39Z</time>
      </trkpt>
      <trkpt lat="46.23076" lon="5.36287">
        <ele>362.2</ele>
        <time>2022-02-24T16:23:40Z</time>
      </trkpt>
      <trkpt lat="46.23077" lon="5.363">
        <ele>361.8</ele>
        <time>2022-02-24T16:23:41Z</time>
      </trkpt>
      <trkpt lat="46.23077" lon="5.36314">
        <ele>361.6</ele>
        <time>2022-02-24T16:23:42Z</time>
      </trkpt>
      <trkpt lat="46.23077" lon="5.36327">
        <ele>361</ele>
        <time>2022-02-24T16:23:43Z</time>
      </trkpt>
      <trkpt lat="46.23076" lon="5.3634">
        <ele>360.8</ele>
        <time>2022-02-24T16:23:44Z</time>
      </trkpt>
      <trkpt lat="46.23075" lon="5.36353">
        <ele>360.4</ele>
        <time>2022-02-24T16:23:45Z</time>
      </trkpt>
      <trkpt lat="46.23074" lon="5.36366">
        <ele>360</ele>
        <time>2022-02-24T16:23:46Z</time>
      </trkpt>
      <trkpt lat="46.23073" lon="5.36379">
        <ele>359.6</ele>
        <time>2022-02-24T16:23:47Z</time>
      </trkpt>
      <trkpt lat="46.23072" lon="5.36391">
        <ele>359.4</ele>
        <time>2022-02-24T16:23:48Z</time>
      </trkpt>
      <trkpt lat="46.23071" lon="5.36404">
        <ele>359.2</ele>
        <time>2022-02-24T16:23:49Z</time>
      </trkpt>
      <trkpt lat="46.2307" lon="5.36416">
        <ele>359</ele>
        <time>2022-02-24T16:23:50Z</time>
      </trkpt>
      <trkpt lat="46.23069" lon="5.36428">
        <ele>359</ele>
        <time>2022-02-24T16:23:51Z</time>
      </trkpt>
      <trkpt lat="46.23068" lon="5.36441">
        <ele>358.4</ele>
        <time>2022-02-24T16:23:52Z</time>
      </trkpt>
      <trkpt lat="46.23067" lon="5.36453">
        <ele>358.4</ele>
        <time>2022-02-24T16:23:53Z</time>
      </trkpt>
      <trkpt lat="46.23066" lon="5.36465">
        <ele>358.2</ele>
        <time>2022-02-24T16:23:54Z</time>
      </trkpt>
      <trkpt lat="46.23066" lon="5.36478">
        <ele>358</ele>
        <time>2022-02-24T16:23:55Z</time>
      </trkpt>
      <trkpt lat="46.23067" lon="5.3649">
        <ele>358</ele>
        <time>2022-02-24T16:23:56Z</time>
      </trkpt>
      <trkpt lat="46.23069" lon="5.36502">
        <ele>357.8</ele>
        <time>2022-02-24T16:23:57Z</time>
      </trkpt>
      <trkpt lat="46.23071" lon="5.36513">
        <ele>357.8</ele>
        <time>2022-02-24T16:23:58Z</time>
      </trkpt>
      <trkpt lat="46.23074" lon="5.36525">
        <ele>357.8</ele>
        <time>2022-02-24T16:23:59Z</time>
      </trkpt>
      <trkpt lat="46.23076" lon="5.36536">
        <ele>357.4</ele>
        <time>2022-02-24T16:24:00Z</time>
      </trkpt>
      <trkpt lat="46.23079" lon="5.36548">
        <ele>357.4</ele>
        <time>2022-02-24T16:24:01Z</time>
      </trkpt>
      <trkpt lat="46.23082" lon="5.36559">
        <ele>357.2</ele>
        <time>2022-02-24T16:24:02Z</time>
      </trkpt>
      <trkpt lat="46.23085" lon="5.36571">
        <ele>357.2</ele>
        <time>2022-02-24T16:24:03Z</time>
      </trkpt>
      <trkpt lat="46.23088" lon="5.36582">
        <ele>357</ele>
        <time>2022-02-24T16:24:04Z</time>
      </trkpt>
      <trkpt lat="46.23091" lon="5.36593">
        <ele>357</ele>
        <time>2022-02-24T16:24:05Z</time>
      </trkpt>
      <trkpt lat="46.23094" lon="5.36603">
        <ele>356.6</ele>
        <time>2022-02-24T16:24:06Z</time>
      </trkpt>
      <trkpt lat="46.23098" lon="5.36614">
        <ele>356.4</ele>
        <time>2022-02-24T16:24:07Z</time>
      </trkpt>
      <trkpt lat="46.23101" lon="5.36624">
        <ele>356.4</ele>
        <time>2022-02-24T16:24:08Z</time>
      </trkpt>
      <trkpt lat="46.23105" lon="5.36634">
        <ele>356</ele>
        <time>2022-02-24T16:24:09Z</time>
      </trkpt>
      <trkpt lat="46.2311" lon="5.36644">
        <ele>355.8</ele>
        <time>2022-02-24T16:24:10Z</time>
      </trkpt>
      <trkpt lat="46.23114" lon="5.36654">
        <ele>355.8</ele>
        <time>2022-02-24T16:24:11Z</time>
      </trkpt>
      <trkpt lat="46.23119" lon="5.36663">
        <ele>355.4</ele>
        <time>2022-02-24T16:24:12Z</time>
      </trkpt>
      <trkpt lat="46.23124" lon="5.36671">
        <ele>355.2</ele>
        <time>2022-02-24T16:24:13Z</time>
      </trkpt>
      <trkpt lat="46.23129" lon="5.36679">
        <ele>355</ele>
        <time>2022-02-24T16:24:14Z</time>
      </trkpt>
      <trkpt lat="46.23135" lon="5.36686">
        <ele>355</ele>
        <time>2022-02-24T16:24:15Z</time>
      </trkpt>
      <trkpt lat="46.23141" lon="5.36694">
        <ele>354.8</ele>
        <time>2022-02-24T16:24:16Z</time>
      </trkpt>
      <trkpt lat="46.23147" lon="5.36701">
        <ele>354.8</ele>
        <time>2022-02-24T16:24:17Z</time>
      </trkpt>
      <trkpt lat="46.23154" lon="5.36709">
        <ele>354.4</ele>
        <time>2022-02-24T16:24:18Z</time>
      </trkpt>
      <trkpt lat="46.2316" lon="5.36717">
        <ele>354.2</ele>
        <time>2022-02-24T16:24:19Z</time>
      </trkpt>
      <trkpt lat="46.23167" lon="5.36725">
        <ele>354</ele>
        <time>2022-02-24T16:24:20Z</time>
      </trkpt>
      <trkpt lat="46.23174" lon="5.36733">
        <ele>353.8</ele>
        <time>2022-02-24T16:24:21Z</time>
      </trkpt>
      <trkpt lat="46.2318" lon="5.36741">
        <ele>353.8</ele>
        <time>2022-02-24T16:24:22Z</time>
      </trkpt>
      <trkpt lat="46.23187" lon="5.3675">
        <ele>353.2</ele>
        <time>2022-02-24T16:24:23Z</time>
      </trkpt>
      <trkpt lat="46.23192" lon="5.3676">
        <ele>353.2</ele>
        <time>2022-02-24T16:24:24Z</time>
      </trkpt>
      <trkpt lat="46.23197" lon="5.36771">
        <ele>353</ele>
        <time>2022-02-24T16:24:25Z</time>
      </trkpt>
      <trkpt lat="46.23201" lon="5.36783">
        <ele>353</ele>
        <time>2022-02-24T16:24:26Z</time>
      </trkpt>
      <trkpt lat="46.23204" lon="5.36796">
        <ele>353</ele>
        <time>2022-02-24T16:24:27Z</time>
      </trkpt>
      <trkpt lat="46.23205" lon="5.36808">
        <ele>352.6</ele>
        <time>2022-02-24T16:24:28Z</time>
      </trkpt>
      <trkpt lat="46.23206" lon="5.36822">
        <ele>352.6</ele>
        <time>2022-02-24T16:24:29Z</time>
      </trkpt>
      <trkpt lat="46.23208" lon="5.36835">
        <ele>352.2</ele>
        <time>2022-02-24T16:24:30Z</time>
      </trkpt>
      <trkpt lat="46.23208" lon="5.36849">
        <ele>352</ele>
        <time>2022-02-24T16:24:31Z</time>
      </trkpt>
      <trkpt lat="46.23208" lon="5.36863">
        <ele>352</ele>
        <time>2022-02-24T16:24:32Z</time>
      </trkpt>
      <trkpt lat="46.23209" lon="5.36877">
        <ele>351.6</ele>
        <time>2022-02-24T16:24:33Z</time>
      </trkpt>
      <trkpt lat="46.2321" lon="5.3689">
        <ele>351.6</ele>
        <time>2022-02-24T16:24:34Z</time>
      </trkpt>
      <trkpt lat="46.23211" lon="5.36903">
        <ele>351.4</ele>
        <time>2022-02-24T16:24:35Z</time>
      </trkpt>
      <trkpt lat="46.23213" lon="5.36916">
        <ele>351.4</ele>
        <time>2022-02-24T16:24:36Z</time>
      </trkpt>
      <trkpt lat="46.23217" lon="5.36928">
        <ele>351</ele>
        <time>2022-02-24T16:24:37Z</time>
      </trkpt>
      <trkpt lat="46.23221" lon="5.36939">
        <ele>350.8</ele>
        <time>2022-02-24T16:24:38Z</time>
      </trkpt>
      <trkpt lat="46.23226" lon="5.3695">
        <ele>350.8</ele>
        <time>2022-02-24T16:24:39Z</time>
      </trkpt>
      <trkpt lat="46.23231" lon="5.36962">
        <ele>350.4</ele>
        <time>2022-02-24T16:24:40Z</time>
      </trkpt>
      <trkpt lat="46.23237" lon="5.3697">
        <ele>350.4</ele>
        <time>2022-02-24T16:24:41Z</time>
      </trkpt>
      <trkpt lat="46.23244" lon="5.36979">
        <ele>350</ele>
        <time>2022-02-24T16:24:42Z</time>
      </trkpt>
      <trkpt lat="46.23253" lon="5.36987">
        <ele>349.8</ele>
        <time>2022-02-24T16:24:43Z</time>
      </trkpt>
      <trkpt lat="46.23261" lon="5.36995">
        <ele>349.8</ele>
        <time>2022-02-24T16:24:44Z</time>
      </trkpt>
      <trkpt lat="46.23269" lon="5.37004">
        <ele>349.6</ele>
        <time>2022-02-24T16:24:45Z</time>
      </trkpt>
      <trkpt lat="46.23278" lon="5.37011">
        <ele>349.6</ele>
        <time>2022-02-24T16:24:46Z</time>
      </trkpt>
      <trkpt lat="46.23285" lon="5.37018">
        <ele>349.2</ele>
        <time>2022-02-24T16:24:47Z</time>
      </trkpt>
      <trkpt lat="46.23292" lon="5.37026">
        <ele>349</ele>
        <time>2022-02-24T16:24:48Z</time>
      </trkpt>
      <trkpt lat="46.233" lon="5.37035">
        <ele>349</ele>
        <time>2022-02-24T16:24:49Z</time>
      </trkpt>
      <trkpt lat="46.23307" lon="5.37042">
        <ele>349</ele>
        <time>2022-02-24T16:24:50Z</time>
      </trkpt>
      <trkpt lat="46.23315" lon="5.3705">
        <ele>348.8</ele>
        <time>2022-02-24T16:24:51Z</time>
      </trkpt>
      <trkpt lat="46.23325" lon="5.37055">
        <ele>348.4</ele>
        <time>2022-02-24T16:24:52Z</time>
      </trkpt>
      <trkpt lat="46.23333" lon="5.37063">
        <ele>348.4</ele>
        <time>2022-02-24T16:24:53Z</time>
      </trkpt>
      <trkpt lat="46.2334" lon="5.37071">
        <ele>348.2</ele>
        <time>2022-02-24T16:24:54Z</time>
      </trkpt>
      <trkpt lat="46.23347" lon="5.3708">
        <ele>348.2</ele>
        <time>2022-02-24T16:24:55Z</time>
      </trkpt>
      <trkpt lat="46.23354" lon="5.3709">
        <ele>347.8</ele>
        <time>2022-02-24T16:24:56Z</time>
      </trkpt>
      <trkpt lat="46.23363" lon="5.37097">
        <ele>347.6</ele>
        <time>2022-02-24T16:24:57Z</time>
      </trkpt>
      <trkpt lat="46.2337" lon="5.37106">
        <ele>347.6</ele>
        <time>2022-02-24T16:24:58Z</time>
      </trkpt>
      <trkpt lat="46.23377" lon="5.37114">
        <ele>347.2</ele>
        <time>2022-02-24T16:24:59Z</time>
      </trkpt>
      <trkpt lat="46.23384" lon="5.37122">
        <ele>346.8</ele>
        <time>2022-02-24T16:25:00Z</time>
      </trkpt>
      <trkpt lat="46.23391" lon="5.3713">
        <ele>346.6</ele>
        <time>2022-02-24T16:25:01Z</time>
      </trkpt>
      <trkpt lat="46.23398" lon="5.37139">
        <ele>346.2</ele>
        <time>2022-02-24T16:25:02Z</time>
      </trkpt>
      <trkpt lat="46.23404" lon="5.37148">
        <ele>346</ele>
        <time>2022-02-24T16:25:03Z</time>
      </trkpt>
      <trkpt lat="46.23409" lon="5.37158">
        <ele>345.6</ele>
        <time>2022-02-24T16:25:04Z</time>
      </trkpt>
      <trkpt lat="46.23415" lon="5.37167">
        <ele>345.4</ele>
        <time>2022-02-24T16:25:05Z</time>
      </trkpt>
      <trkpt lat="46.2342" lon="5.37177">
        <ele>345.2</ele>
        <time>2022-02-24T16:25:06Z</time>
      </trkpt>
      <trkpt lat="46.23426" lon="5.37187">
        <ele>344.8</ele>
        <time>2022-02-24T16:25:07Z</time>
      </trkpt>
      <trkpt lat="46.23431" lon="5.37197">
        <ele>344.6</ele>
        <time>2022-02-24T16:25:08Z</time>
      </trkpt>
      <trkpt lat="46.23436" lon="5.37207">
        <ele>344.6</ele>
        <time>2022-02-24T16:25:09Z</time>
      </trkpt>
      <trkpt lat="46.23442" lon="5.37217">
        <ele>344.4</ele>
        <time>2022-02-24T16:25:10Z</time>
      </trkpt>
      <trkpt lat="46.23447" lon="5.37227">
        <ele>344.4</ele>
        <time>2022-02-24T16:25:11Z</time>
      </trkpt>
      <trkpt lat="46.23452" lon="5.37237">
        <ele>344</ele>
        <time>2022-02-24T16:25:12Z</time>
      </trkpt>
      <trkpt lat="46.23457" lon="5.37247">
        <ele>344</ele>
        <time>2022-02-24T16:25:13Z</time>
      </trkpt>
      <trkpt lat="46.23462" lon="5.37258">
        <ele>343.6</ele>
        <time>2022-02-24T16:25:14Z</time>
      </trkpt>
      <trkpt lat="46.23468" lon="5.37268">
        <ele>343.6</ele>
        <time>2022-02-24T16:25:15Z</time>
      </trkpt>
      <trkpt lat="46.23473" lon="5.37278">
        <ele>343.6</ele>
        <time>2022-02-24T16:25:16Z</time>
      </trkpt>
      <trkpt lat="46.23478" lon="5.37287">
        <ele>343.4</ele>
        <time>2022-02-24T16:25:17Z</time>
      </trkpt>
      <trkpt lat="46.23484" lon="5.37297">
        <ele>343.4</ele>
        <time>2022-02-24T16:25:18Z</time>
      </trkpt>
      <trkpt lat="46.23489" lon="5.37306">
        <ele>343.2</ele>
        <time>2022-02-24T16:25:19Z</time>
      </trkpt>
      <trkpt lat="46.23494" lon="5.37316">
        <ele>343.2</ele>
        <time>2022-02-24T16:25:20Z</time>
      </trkpt>
      <trkpt lat="46.23498" lon="5.37326">
        <ele>342.8</ele>
        <time>2022-02-24T16:25:21Z</time>
      </trkpt>
      <trkpt lat="46.23503" lon="5.37336">
        <ele>342.8</ele>
        <time>2022-02-24T16:25:22Z</time>
      </trkpt>
      <trkpt lat="46.23508" lon="5.37345">
        <ele>342.6</ele>
        <time>2022-02-24T16:25:23Z</time>
      </trkpt>
      <trkpt lat="46.23513" lon="5.37354">
        <ele>342.6</ele>
        <time>2022-02-24T16:25:24Z</time>
      </trkpt>
      <trkpt lat="46.23519" lon="5.37363">
        <ele>342.6</ele>
        <time>2022-02-24T16:25:25Z</time>
      </trkpt>
      <trkpt lat="46.23525" lon="5.37372">
        <ele>342.6</ele>
        <time>2022-02-24T16:25:26Z</time>
      </trkpt>
      <trkpt lat="46.2353" lon="5.3738">
        <ele>342.4</ele>
        <time>2022-02-24T16:25:27Z</time>
      </trkpt>
      <trkpt lat="46.23537" lon="5.37387">
        <ele>342.2</ele>
        <time>2022-02-24T16:25:28Z</time>
      </trkpt>
      <trkpt lat="46.23544" lon="5.37394">
        <ele>342</ele>
        <time>2022-02-24T16:25:29Z</time>
      </trkpt>
      <trkpt lat="46.23551" lon="5.374">
        <ele>342</ele>
        <time>2022-02-24T16:25:30Z</time>
      </trkpt>
      <trkpt lat="46.23559" lon="5.37405">
        <ele>341.8</ele>
        <time>2022-02-24T16:25:31Z</time>
      </trkpt>
      <trkpt lat="46.23566" lon="5.3741">
        <ele>341.8</ele>
        <time>2022-02-24T16:25:32Z</time>
      </trkpt>
      <trkpt lat="46.23573" lon="5.37415">
        <ele>341.4</ele>
        <time>2022-02-24T16:25:33Z</time>
      </trkpt>
      <trkpt lat="46.23581" lon="5.37421">
        <ele>341.2</ele>
        <time>2022-02-24T16:25:34Z</time>
      </trkpt>
      <trkpt lat="46.23588" lon="5.37426">
        <ele>341.2</ele>
        <time>2022-02-24T16:25:35Z</time>
      </trkpt>
      <trkpt lat="46.23595" lon="5.37432">
        <ele>340.8</ele>
        <time>2022-02-24T16:25:36Z</time>
      </trkpt>
      <trkpt lat="46.23603" lon="5.37438">
        <ele>340.8</ele>
        <time>2022-02-24T16:25:37Z</time>
      </trkpt>
      <trkpt lat="46.23611" lon="5.37443">
        <ele>340.4</ele>
        <time>2022-02-24T16:25:38Z</time>
      </trkpt>
      <trkpt lat="46.2362" lon="5.37448">
        <ele>340.2</ele>
        <time>2022-02-24T16:25:39Z</time>
      </trkpt>
      <trkpt lat="46.23628" lon="5.37454">
        <ele>340</ele>
        <time>2022-02-24T16:25:40Z</time>
      </trkpt>
      <trkpt lat="46.23636" lon="5.37459">
        <ele>339.8</ele>
        <time>2022-02-24T16:25:41Z</time>
      </trkpt>
      <trkpt lat="46.23645" lon="5.37464">
        <ele>339.8</ele>
        <time>2022-02-24T16:25:42Z</time>
      </trkpt>
      <trkpt lat="46.23652" lon="5.3747">
        <ele>339.4</ele>
        <time>2022-02-24T16:25:43Z</time>
      </trkpt>
      <trkpt lat="46.23661" lon="5.37475">
        <ele>339.4</ele>
        <time>2022-02-24T16:25:44Z</time>
      </trkpt>
      <trkpt lat="46.23668" lon="5.3748">
        <ele>339</ele>
        <time>2022-02-24T16:25:45Z</time>
      </trkpt>
      <trkpt lat="46.23676" lon="5.37486">
        <ele>338.8</ele>
        <time>2022-02-24T16:25:46Z</time>
      </trkpt>
      <trkpt lat="46.23683" lon="5.37491">
        <ele>338.6</ele>
        <time>2022-02-24T16:25:47Z</time>
      </trkpt>
      <trkpt lat="46.2369" lon="5.37496">
        <ele>338.6</ele>
        <time>2022-02-24T16:25:48Z</time>
      </trkpt>
      <trkpt lat="46.23698" lon="5.37501">
        <ele>338.2</ele>
        <time>2022-02-24T16:25:49Z</time>
      </trkpt>
      <trkpt lat="46.23705" lon="5.37506">
        <ele>338</ele>
        <time>2022-02-24T16:25:50Z</time>
      </trkpt>
      <trkpt lat="46.23713" lon="5.37512">
        <ele>337.6</ele>
        <time>2022-02-24T16:25:51Z</time>
      </trkpt>
      <trkpt lat="46.2372" lon="5.37518">
        <ele>337.4</ele>
        <time>2022-02-24T16:25:52Z</time>
      </trkpt>
      <trkpt lat="46.23727" lon="5.37525">
        <ele>337.2</ele>
        <time>2022-02-24T16:25:53Z</time>
      </trkpt>
      <trkpt lat="46.23734" lon="5.37533">
        <ele>336.8</ele>
        <time>2022-02-24T16:25:54Z</time>
      </trkpt>
      <trkpt lat="46.2374" lon="5.37542">
        <ele>336.4</ele>
        <time>2022-02-24T16:25:55Z</time>
      </trkpt>
      <trkpt lat="46.23746" lon="5.37552">
        <ele>336.2</ele>
        <time>2022-02-24T16:25:56Z</time>
      </trkpt>
      <trkpt lat="46.2375" lon="5.37562">
        <ele>336.2</ele>
        <time>2022-02-24T16:25:57Z</time>
      </trkpt>
      <trkpt lat="46.23755" lon="5.37573">
        <ele>335.8</ele>
        <time>2022-02-24T16:25:58Z</time>
      </trkpt>
      <trkpt lat="46.23759" lon="5.37584">
        <ele>335.6</ele>
        <time>2022-02-24T16:25:59Z</time>
      </trkpt>
      <trkpt lat="46.23762" lon="5.37595">
        <ele>335.6</ele>
        <time>2022-02-24T16:26:00Z</time>
      </trkpt>
      <trkpt lat="46.23765" lon="5.37607">
        <ele>335.2</ele>
        <time>2022-02-24T16:26:01Z</time>
      </trkpt>
      <trkpt lat="46.23768" lon="5.37619">
        <ele>335</ele>
        <time>2022-02-24T16:26:02Z</time>
      </trkpt>
      <trkpt lat="46.23772" lon="5.3763">
        <ele>334.6</ele>
        <time>2022-02-24T16:26:03Z</time>
      </trkpt>
      <trkpt lat="46.23775" lon="5.37643">
        <ele>334.6</ele>
        <time>2022-02-24T16:26:04Z</time>
      </trkpt>
      <trkpt lat="46.23778" lon="5.37655">
        <ele>334.2</ele>
        <time>2022-02-24T16:26:05Z</time>
      </trkpt>
      <trkpt lat="46.23781" lon="5.37667">
        <ele>334.2</ele>
        <time>2022-02-24T16:26:06Z</time>
      </trkpt>
      <trkpt lat="46.23785" lon="5.37679">
        <ele>333.8</ele>
        <time>2022-02-24T16:26:07Z</time>
      </trkpt>
      <trkpt lat="46.23789" lon="5.37693">
        <ele>333.6</ele>
        <time>2022-02-24T16:26:08Z</time>
      </trkpt>
      <trkpt lat="46.23793" lon="5.37705">
        <ele>333.4</ele>
        <time>2022-02-24T16:26:09Z</time>
      </trkpt>
      <trkpt lat="46.23796" lon="5.37718">
        <ele>333</ele>
        <time>2022-02-24T16:26:10Z</time>
      </trkpt>
      <trkpt lat="46.23801" lon="5.37731">
        <ele>332.8</ele>
        <time>2022-02-24T16:26:11Z</time>
      </trkpt>
      <trkpt lat="46.23804" lon="5.37743">
        <ele>332.4</ele>
        <time>2022-02-24T16:26:12Z</time>
      </trkpt>
      <trkpt lat="46.23808" lon="5.37756">
        <ele>332.4</ele>
        <time>2022-02-24T16:26:13Z</time>
      </trkpt>
      <trkpt lat="46.23811" lon="5.37769">
        <ele>332</ele>
        <time>2022-02-24T16:26:14Z</time>
      </trkpt>
      <trkpt lat="46.23814" lon="5.37782">
        <ele>331.8</ele>
        <time>2022-02-24T16:26:15Z</time>
      </trkpt>
      <trkpt lat="46.23817" lon="5.37794">
        <ele>331.8</ele>
        <time>2022-02-24T16:26:16Z</time>
      </trkpt>
      <trkpt lat="46.23821" lon="5.37805">
        <ele>331.6</ele>
        <time>2022-02-24T16:26:17Z</time>
      </trkpt>
      <trkpt lat="46.23824" lon="5.37817">
        <ele>331.4</ele>
        <time>2022-02-24T16:26:18Z</time>
      </trkpt>
      <trkpt lat="46.23826" lon="5.37829">
        <ele>331.4</ele>
        <time>2022-02-24T16:26:19Z</time>
      </trkpt>
      <trkpt lat="46.2383" lon="5.3784">
        <ele>331</ele>
        <time>2022-02-24T16:26:20Z</time>
      </trkpt>
      <trkpt lat="46.23832" lon="5.37852">
        <ele>331</ele>
        <time>2022-02-24T16:26:21Z</time>
      </trkpt>
      <trkpt lat="46.23835" lon="5.37863">
        <ele>331</ele>
        <time>2022-02-24T16:26:22Z</time>
      </trkpt>
      <trkpt lat="46.23839" lon="5.37874">
        <ele>330.8</ele>
        <time>2022-02-24T16:26:23Z</time>
      </trkpt>
      <trkpt lat="46.23842" lon="5.37885">
        <ele>330.8</ele>
        <time>2022-02-24T16:26:24Z</time>
      </trkpt>
      <trkpt lat="46.23845" lon="5.37895">
        <ele>330.8</ele>
        <time>2022-02-24T16:26:25Z</time>
      </trkpt>
      <trkpt lat="46.23849" lon="5.37906">
        <ele>330.8</ele>
        <time>2022-02-24T16:26:26Z</time>
      </trkpt>
      <trkpt lat="46.23854" lon="5.37916">
        <ele>330.8</ele>
        <time>2022-02-24T16:26:27Z</time>
      </trkpt>
      <trkpt lat="46.23859" lon="5.37925">
        <ele>330.8</ele>
        <time>2022-02-24T16:26:28Z</time>
      </trkpt>
      <trkpt lat="46.23864" lon="5.37934">
        <ele>330.8</ele>
        <time>2022-02-24T16:26:29Z</time>
      </trkpt>
      <trkpt lat="46.2387" lon="5.37943">
        <ele>330.8</ele>
        <time>2022-02-24T16:26:30Z</time>
      </trkpt>
      <trkpt lat="46.23876" lon="5.37951">
        <ele>330.8</ele>
        <time>2022-02-24T16:26:31Z</time>
      </trkpt>
      <trkpt lat="46.23882" lon="5.37958">
        <ele>330.6</ele>
        <time>2022-02-24T16:26:32Z</time>
      </trkpt>
      <trkpt lat="46.23889" lon="5.37965">
        <ele>330.6</ele>
        <time>2022-02-24T16:26:33Z</time>
      </trkpt>
      <trkpt lat="46.23897" lon="5.37972">
        <ele>330.6</ele>
        <time>2022-02-24T16:26:34Z</time>
      </trkpt>
      <trkpt lat="46.23904" lon="5.37977">
        <ele>330.6</ele>
        <time>2022-02-24T16:26:35Z</time>
      </trkpt>
      <trkpt lat="46.23911" lon="5.37983">
        <ele>330.6</ele>
        <time>2022-02-24T16:26:36Z</time>
      </trkpt>
      <trkpt lat="46.23919" lon="5.37987">
        <ele>330.8</ele>
        <time>2022-02-24T16:26:37Z</time>
      </trkpt>
      <trkpt lat="46.23926" lon="5.37992">
        <ele>330.8</ele>
        <time>2022-02-24T16:26:38Z</time>
      </trkpt>
      <trkpt lat="46.23933" lon="5.37996">
        <ele>330.8</ele>
        <time>2022-02-24T16:26:39Z</time>
      </trkpt>
      <trkpt lat="46.2394" lon="5.38001">
        <ele>330.8</ele>
        <time>2022-02-24T16:26:40Z</time>
      </trkpt>
      <trkpt lat="46.23948" lon="5.38005">
        <ele>331</ele>
        <time>2022-02-24T16:26:41Z</time>
      </trkpt>
      <trkpt lat="46.23955" lon="5.38009">
        <ele>331</ele>
        <time>2022-02-24T16:26:42Z</time>
      </trkpt>
      <trkpt lat="46.23962" lon="5.38013">
        <ele>331</ele>
        <time>2022-02-24T16:26:43Z</time>
      </trkpt>
      <trkpt lat="46.23969" lon="5.38017">
        <ele>331</ele>
        <time>2022-02-24T16:26:44Z</time>
      </trkpt>
      <trkpt lat="46.23977" lon="5.38022">
        <ele>331</ele>
        <time>2022-02-24T16:26:45Z</time>
      </trkpt>
      <trkpt lat="46.23984" lon="5.38026">
        <ele>331</ele>
        <time>2022-02-24T16:26:46Z</time>
      </trkpt>
      <trkpt lat="46.23991" lon="5.3803">
        <ele>331</ele>
        <time>2022-02-24T16:26:47Z</time>
      </trkpt>
      <trkpt lat="46.23999" lon="5.38034">
        <ele>331</ele>
        <time>2022-02-24T16:26:48Z</time>
      </trkpt>
      <trkpt lat="46.24006" lon="5.38039">
        <ele>331</ele>
        <time>2022-02-24T16:26:49Z</time>
      </trkpt>
      <trkpt lat="46.24013" lon="5.38043">
        <ele>330.8</ele>
        <time>2022-02-24T16:26:50Z</time>
      </trkpt>
      <trkpt lat="46.2402" lon="5.38048">
        <ele>330.8</ele>
        <time>2022-02-24T16:26:51Z</time>
      </trkpt>
      <trkpt lat="46.24027" lon="5.38052">
        <ele>330.8</ele>
        <time>2022-02-24T16:26:52Z</time>
      </trkpt>
      <trkpt lat="46.24034" lon="5.38056">
        <ele>330.8</ele>
        <time>2022-02-24T16:26:53Z</time>
      </trkpt>
      <trkpt lat="46.24041" lon="5.3806">
        <ele>330.8</ele>
        <time>2022-02-24T16:26:54Z</time>
      </trkpt>
      <trkpt lat="46.24048" lon="5.38064">
        <ele>331</ele>
        <time>2022-02-24T16:26:55Z</time>
      </trkpt>
      <trkpt lat="46.24055" lon="5.38068">
        <ele>331</ele>
        <time>2022-02-24T16:26:56Z</time>
      </trkpt>
      <trkpt lat="46.24061" lon="5.38072">
        <ele>331.2</ele>
        <time>2022-02-24T16:26:57Z</time>
      </trkpt>
      <trkpt lat="46.24068" lon="5.38076">
        <ele>331.2</ele>
        <time>2022-02-24T16:26:58Z</time>
      </trkpt>
      <trkpt lat="46.24074" lon="5.38079">
        <ele>331.6</ele>
        <time>2022-02-24T16:26:59Z</time>
      </trkpt>
      <trkpt lat="46.2408" lon="5.38083">
        <ele>331.8</ele>
        <time>2022-02-24T16:27:00Z</time>
      </trkpt>
      <trkpt lat="46.24085" lon="5.38086">
        <ele>331.8</ele>
        <time>2022-02-24T16:27:01Z</time>
      </trkpt>
      <trkpt lat="46.24092" lon="5.3809">
        <ele>332</ele>
        <time>2022-02-24T16:27:02Z</time>
      </trkpt>
      <trkpt lat="46.24098" lon="5.38093">
        <ele>332</ele>
        <time>2022-02-24T16:27:03Z</time>
      </trkpt>
      <trkpt lat="46.24104" lon="5.38097">
        <ele>332.4</ele>
        <time>2022-02-24T16:27:04Z</time>
      </trkpt>
      <trkpt lat="46.2411" lon="5.381">
        <ele>332.4</ele>
        <time>2022-02-24T16:27:05Z</time>
      </trkpt>
      <trkpt lat="46.24116" lon="5.38104">
        <ele>332.4</ele>
        <time>2022-02-24T16:27:06Z</time>
      </trkpt>
      <trkpt lat="46.24122" lon="5.38107">
        <ele>332.6</ele>
        <time>2022-02-24T16:27:07Z</time>
      </trkpt>
      <trkpt lat="46.24128" lon="5.38111">
        <ele>332.6</ele>
        <time>2022-02-24T16:27:08Z</time>
      </trkpt>
      <trkpt lat="46.24133" lon="5.38115">
        <ele>333</ele>
        <time>2022-02-24T16:27:09Z</time>
      </trkpt>
      <trkpt lat="46.24139" lon="5.38118">
        <ele>333</ele>
        <time>2022-02-24T16:27:10Z</time>
      </trkpt>
      <trkpt lat="46.24145" lon="5.38121">
        <ele>333.2</ele>
        <time>2022-02-24T16:27:11Z</time>
      </trkpt>
      <trkpt lat="46.2415" lon="5.38125">
        <ele>333.2</ele>
        <time>2022-02-24T16:27:12Z</time>
      </trkpt>
      <trkpt lat="46.24156" lon="5.38128">
        <ele>333.6</ele>
        <time>2022-02-24T16:27:13Z</time>
      </trkpt>
      <trkpt lat="46.24161" lon="5.38132">
        <ele>333.6</ele>
        <time>2022-02-24T16:27:14Z</time>
      </trkpt>
      <trkpt lat="46.24166" lon="5.38135">
        <ele>334</ele>
        <time>2022-02-24T16:27:15Z</time>
      </trkpt>
      <trkpt lat="46.24171" lon="5.38138">
        <ele>334.2</ele>
        <time>2022-02-24T16:27:16Z</time>
      </trkpt>
      <trkpt lat="46.24176" lon="5.38142">
        <ele>334.2</ele>
        <time>2022-02-24T16:27:17Z</time>
      </trkpt>
      <trkpt lat="46.24181" lon="5.38145">
        <ele>334.4</ele>
        <time>2022-02-24T16:27:18Z</time>
      </trkpt>
      <trkpt lat="46.24186" lon="5.38148">
        <ele>334.4</ele>
        <time>2022-02-24T16:27:19Z</time>
      </trkpt>
      <trkpt lat="46.24191" lon="5.3815">
        <ele>334.8</ele>
        <time>2022-02-24T16:27:20Z</time>
      </trkpt>
      <trkpt lat="46.24195" lon="5.38153">
        <ele>335</ele>
        <time>2022-02-24T16:27:21Z</time>
      </trkpt>
      <trkpt lat="46.242" lon="5.38156">
        <ele>335</ele>
        <time>2022-02-24T16:27:22Z</time>
      </trkpt>
      <trkpt lat="46.24205" lon="5.3816">
        <ele>335.2</ele>
        <time>2022-02-24T16:27:23Z</time>
      </trkpt>
      <trkpt lat="46.2421" lon="5.38163">
        <ele>335.2</ele>
        <time>2022-02-24T16:27:24Z</time>
      </trkpt>
      <trkpt lat="46.24214" lon="5.38166">
        <ele>335.2</ele>
        <time>2022-02-24T16:27:25Z</time>
      </trkpt>
      <trkpt lat="46.24219" lon="5.38169">
        <ele>335.4</ele>
        <time>2022-02-24T16:27:26Z</time>
      </trkpt>
      <trkpt lat="46.24224" lon="5.38173">
        <ele>335.4</ele>
        <time>2022-02-24T16:27:27Z</time>
      </trkpt>
      <trkpt lat="46.24228" lon="5.38176">
        <ele>335.8</ele>
        <time>2022-02-24T16:27:28Z</time>
      </trkpt>
      <trkpt lat="46.24233" lon="5.3818">
        <ele>335.8</ele>
        <time>2022-02-24T16:27:29Z</time>
      </trkpt>
      <trkpt lat="46.24238" lon="5.38183">
        <ele>336</ele>
        <time>2022-02-24T16:27:30Z</time>
      </trkpt>
      <trkpt lat="46.24243" lon="5.38185">
        <ele>336</ele>
        <time>2022-02-24T16:27:31Z</time>
      </trkpt>
      <trkpt lat="46.24248" lon="5.38188">
        <ele>336</ele>
        <time>2022-02-24T16:27:32Z</time>
      </trkpt>
      <trkpt lat="46.24252" lon="5.3819">
        <ele>336</ele>
        <time>2022-02-24T16:27:33Z</time>
      </trkpt>
      <trkpt lat="46.24257" lon="5.38193">
        <ele>336.2</ele>
        <time>2022-02-24T16:27:34Z</time>
      </trkpt>
      <trkpt lat="46.24262" lon="5.38195">
        <ele>336.2</ele>
        <time>2022-02-24T16:27:35Z</time>
      </trkpt>
      <trkpt lat="46.24266" lon="5.38198">
        <ele>336.6</ele>
        <time>2022-02-24T16:27:36Z</time>
      </trkpt>
      <trkpt lat="46.24271" lon="5.38201">
        <ele>336.6</ele>
        <time>2022-02-24T16:27:37Z</time>
      </trkpt>
      <trkpt lat="46.24275" lon="5.38203">
        <ele>336.8</ele>
        <time>2022-02-24T16:27:38Z</time>
      </trkpt>
      <trkpt lat="46.2428" lon="5.38206">
        <ele>337</ele>
        <time>2022-02-24T16:27:39Z</time>
      </trkpt>
      <trkpt lat="46.24284" lon="5.38209">
        <ele>337.4</ele>
        <time>2022-02-24T16:27:40Z</time>
      </trkpt>
      <trkpt lat="46.24288" lon="5.38212">
        <ele>337.6</ele>
        <time>2022-02-24T16:27:41Z</time>
      </trkpt>
      <trkpt lat="46.24292" lon="5.38214">
        <ele>337.6</ele>
        <time>2022-02-24T16:27:42Z</time>
      </trkpt>
      <trkpt lat="46.24296" lon="5.38217">
        <ele>338</ele>
        <time>2022-02-24T16:27:43Z</time>
      </trkpt>
      <trkpt lat="46.24301" lon="5.3822">
        <ele>338.2</ele>
        <time>2022-02-24T16:27:44Z</time>
      </trkpt>
      <trkpt lat="46.24305" lon="5.38222">
        <ele>338.4</ele>
        <time>2022-02-24T16:27:45Z</time>
      </trkpt>
      <trkpt lat="46.24309" lon="5.38225">
        <ele>338.4</ele>
        <time>2022-02-24T16:27:46Z</time>
      </trkpt>
      <trkpt lat="46.24313" lon="5.38227">
        <ele>338.6</ele>
        <time>2022-02-24T16:27:47Z</time>
      </trkpt>
      <trkpt lat="46.24317" lon="5.38229">
        <ele>338.6</ele>
        <time>2022-02-24T16:27:48Z</time>
      </trkpt>
      <trkpt lat="46.2432" lon="5.38232">
        <ele>339</ele>
        <time>2022-02-24T16:27:49Z</time>
      </trkpt>
      <trkpt lat="46.24324" lon="5.38235">
        <ele>339</ele>
        <time>2022-02-24T16:27:50Z</time>
      </trkpt>
      <trkpt lat="46.24328" lon="5.38237">
        <ele>339.2</ele>
        <time>2022-02-24T16:27:51Z</time>
      </trkpt>
      <trkpt lat="46.24332" lon="5.3824">
        <ele>339.2</ele>
        <time>2022-02-24T16:27:52Z</time>
      </trkpt>
      <trkpt lat="46.24335" lon="5.38242">
        <ele>339.6</ele>
        <time>2022-02-24T16:27:53Z</time>
      </trkpt>
      <trkpt lat="46.24339" lon="5.38244">
        <ele>339.8</ele>
        <time>2022-02-24T16:27:54Z</time>
      </trkpt>
      <trkpt lat="46.24342" lon="5.38246">
        <ele>339.8</ele>
        <time>2022-02-24T16:27:55Z</time>
      </trkpt>
      <trkpt lat="46.24346" lon="5.38248">
        <ele>340.2</ele>
        <time>2022-02-24T16:27:56Z</time>
      </trkpt>
      <trkpt lat="46.2435" lon="5.38251">
        <ele>340.4</ele>
        <time>2022-02-24T16:27:57Z</time>
      </trkpt>
      <trkpt lat="46.24354" lon="5.38253">
        <ele>340.4</ele>
        <time>2022-02-24T16:27:58Z</time>
      </trkpt>
      <trkpt lat="46.24358" lon="5.38255">
        <ele>340.6</ele>
        <time>2022-02-24T16:27:59Z</time>
      </trkpt>
      <trkpt lat="46.24362" lon="5.38256">
        <ele>340.6</ele>
        <time>2022-02-24T16:28:00Z</time>
      </trkpt>
      <trkpt lat="46.24365" lon="5.38258">
        <ele>341</ele>
        <time>2022-02-24T16:28:01Z</time>
      </trkpt>
      <trkpt lat="46.24368" lon="5.3826">
        <ele>341</ele>
        <time>2022-02-24T16:28:02Z</time>
      </trkpt>
      <trkpt lat="46.24371" lon="5.38262">
        <ele>341.2</ele>
        <time>2022-02-24T16:28:03Z</time>
      </trkpt>
      <trkpt lat="46.24375" lon="5.38264">
        <ele>341.2</ele>
        <time>2022-02-24T16:28:04Z</time>
      </trkpt>
      <trkpt lat="46.24378" lon="5.38266">
        <ele>341.6</ele>
        <time>2022-02-24T16:28:05Z</time>
      </trkpt>
      <trkpt lat="46.24381" lon="5.38268">
        <ele>341.6</ele>
        <time>2022-02-24T16:28:06Z</time>
      </trkpt>
      <trkpt lat="46.24385" lon="5.3827">
        <ele>341.8</ele>
        <time>2022-02-24T16:28:07Z</time>
      </trkpt>
      <trkpt lat="46.24388" lon="5.38271">
        <ele>341.8</ele>
        <time>2022-02-24T16:28:08Z</time>
      </trkpt>
      <trkpt lat="46.24391" lon="5.38273">
        <ele>342.2</ele>
        <time>2022-02-24T16:28:09Z</time>
      </trkpt>
      <trkpt lat="46.24394" lon="5.38275">
        <ele>342.2</ele>
        <time>2022-02-24T16:28:10Z</time>
      </trkpt>
      <trkpt lat="46.24398" lon="5.38277">
        <ele>342.4</ele>
        <time>2022-02-24T16:28:11Z</time>
      </trkpt>
      <trkpt lat="46.24401" lon="5.38279">
        <ele>342.4</ele>
        <time>2022-02-24T16:28:12Z</time>
      </trkpt>
      <trkpt lat="46.24405" lon="5.38281">
        <ele>342.8</ele>
        <time>2022-02-24T16:28:13Z</time>
      </trkpt>
      <trkpt lat="46.24408" lon="5.38283">
        <ele>342.8</ele>
        <time>2022-02-24T16:28:14Z</time>
      </trkpt>
      <trkpt lat="46.24412" lon="5.38285">
        <ele>343</ele>
        <time>2022-02-24T16:28:15Z</time>
      </trkpt>
      <trkpt lat="46.24415" lon="5.38287">
        <ele>343</ele>
        <time>2022-02-24T16:28:16Z</time>
      </trkpt>
      <trkpt lat="46.24419" lon="5.38289">
        <ele>343.4</ele>
        <time>2022-02-24T16:28:17Z</time>
      </trkpt>
      <trkpt lat="46.24422" lon="5.3829">
        <ele>343.4</ele>
        <time>2022-02-24T16:28:18Z</time>
      </trkpt>
      <trkpt lat="46.24426" lon="5.38292">
        <ele>343.6</ele>
        <time>2022-02-24T16:28:19Z</time>
      </trkpt>
      <trkpt lat="46.24429" lon="5.38295">
        <ele>343.6</ele>
        <time>2022-02-24T16:28:20Z</time>
      </trkpt>
      <trkpt lat="46.24432" lon="5.38297">
        <ele>343.6</ele>
        <time>2022-02-24T16:28:21Z</time>
      </trkpt>
      <trkpt lat="46.24435" lon="5.38299">
        <ele>343.8</ele>
        <time>2022-02-24T16:28:22Z</time>
      </trkpt>
      <trkpt lat="46.24438" lon="5.38301">
        <ele>343.8</ele>
        <time>2022-02-24T16:28:23Z</time>
      </trkpt>
      <trkpt lat="46.24442" lon="5.38302">
        <ele>344.2</ele>
        <time>2022-02-24T16:28:24Z</time>
      </trkpt>
      <trkpt lat="46.24445" lon="5.38304">
        <ele>344.2</ele>
        <time>2022-02-24T16:28:25Z</time>
      </trkpt>
      <trkpt lat="46.24448" lon="5.38306">
        <ele>344.6</ele>
        <time>2022-02-24T16:28:26Z</time>
      </trkpt>
      <trkpt lat="46.24451" lon="5.38308">
        <ele>344.6</ele>
        <time>2022-02-24T16:28:27Z</time>
      </trkpt>
      <trkpt lat="46.24454" lon="5.3831">
        <ele>344.8</ele>
        <time>2022-02-24T16:28:28Z</time>
      </trkpt>
      <trkpt lat="46.24457" lon="5.38311">
        <ele>344.8</ele>
        <time>2022-02-24T16:28:29Z</time>
      </trkpt>
      <trkpt lat="46.2446" lon="5.38313">
        <ele>345.2</ele>
        <time>2022-02-24T16:28:30Z</time>
      </trkpt>
      <trkpt lat="46.24463" lon="5.38315">
        <ele>345.2</ele>
        <time>2022-02-24T16:28:31Z</time>
      </trkpt>
      <trkpt lat="46.24466" lon="5.38318">
        <ele>345.4</ele>
        <time>2022-02-24T16:28:32Z</time>
      </trkpt>
      <trkpt lat="46.2447" lon="5.38321">
        <ele>345.4</ele>
        <time>2022-02-24T16:28:33Z</time>
      </trkpt>
      <trkpt lat="46.24473" lon="5.38323">
        <ele>345.6</ele>
        <time>2022-02-24T16:28:34Z</time>
      </trkpt>
      <trkpt lat="46.24476" lon="5.38325">
        <ele>345.6</ele>
        <time>2022-02-24T16:28:35Z</time>
      </trkpt>
      <trkpt lat="46.24479" lon="5.38328">
        <ele>346</ele>
        <time>2022-02-24T16:28:36Z</time>
      </trkpt>
      <trkpt lat="46.24482" lon="5.3833">
        <ele>346.2</ele>
        <time>2022-02-24T16:28:37Z</time>
      </trkpt>
      <trkpt lat="46.24486" lon="5.38333">
        <ele>346.4</ele>
        <time>2022-02-24T16:28:38Z</time>
      </trkpt>
      <trkpt lat="46.24489" lon="5.38335">
        <ele>346.4</ele>
        <time>2022-02-24T16:28:39Z</time>
      </trkpt>
      <trkpt lat="46.24492" lon="5.38338">
        <ele>346.8</ele>
        <time>2022-02-24T16:28:40Z</time>
      </trkpt>
      <trkpt lat="46.24495" lon="5.3834">
        <ele>346.8</ele>
        <time>2022-02-24T16:28:41Z</time>
      </trkpt>
      <trkpt lat="46.24498" lon="5.38343">
        <ele>347.2</ele>
        <time>2022-02-24T16:28:42Z</time>
      </trkpt>
      <trkpt lat="46.24501" lon="5.38346">
        <ele>347.2</ele>
        <time>2022-02-24T16:28:43Z</time>
      </trkpt>
      <trkpt lat="46.24504" lon="5.38349">
        <ele>347.4</ele>
        <time>2022-02-24T16:28:44Z</time>
      </trkpt>
      <trkpt lat="46.24507" lon="5.38352">
        <ele>347.4</ele>
        <time>2022-02-24T16:28:45Z</time>
      </trkpt>
      <trkpt lat="46.24509" lon="5.38355">
        <ele>347.8</ele>
        <time>2022-02-24T16:28:46Z</time>
      </trkpt>
      <trkpt lat="46.24512" lon="5.38359">
        <ele>347.8</ele>
        <time>2022-02-24T16:28:47Z</time>
      </trkpt>
      <trkpt lat="46.24515" lon="5.38362">
        <ele>348</ele>
        <time>2022-02-24T16:28:48Z</time>
      </trkpt>
      <trkpt lat="46.24518" lon="5.38366">
        <ele>348</ele>
        <time>2022-02-24T16:28:49Z</time>
      </trkpt>
      <trkpt lat="46.2452" lon="5.3837">
        <ele>348.4</ele>
        <time>2022-02-24T16:28:50Z</time>
      </trkpt>
      <trkpt lat="46.24523" lon="5.38373">
        <ele>348.4</ele>
        <time>2022-02-24T16:28:51Z</time>
      </trkpt>
      <trkpt lat="46.24526" lon="5.38377">
        <ele>348.6</ele>
        <time>2022-02-24T16:28:52Z</time>
      </trkpt>
      <trkpt lat="46.24528" lon="5.38381">
        <ele>349</ele>
        <time>2022-02-24T16:28:53Z</time>
      </trkpt>
      <trkpt lat="46.24531" lon="5.38385">
        <ele>349</ele>
        <time>2022-02-24T16:28:54Z</time>
      </trkpt>
      <trkpt lat="46.24533" lon="5.38388">
        <ele>349.2</ele>
        <time>2022-02-24T16:28:55Z</time>
      </trkpt>
      <trkpt lat="46.24536" lon="5.38392">
        <ele>349.2</ele>
        <time>2022-02-24T16:28:56Z</time>
      </trkpt>
      <trkpt lat="46.24538" lon="5.38396">
        <ele>349.6</ele>
        <time>2022-02-24T16:28:57Z</time>
      </trkpt>
      <trkpt lat="46.24541" lon="5.384">
        <ele>349.6</ele>
        <time>2022-02-24T16:28:58Z</time>
      </trkpt>
      <trkpt lat="46.24543" lon="5.38404">
        <ele>350</ele>
        <time>2022-02-24T16:28:59Z</time>
      </trkpt>
      <trkpt lat="46.24545" lon="5.38408">
        <ele>350</ele>
        <time>2022-02-24T16:29:00Z</time>
      </trkpt>
      <trkpt lat="46.24547" lon="5.38412">
        <ele>350.2</ele>
        <time>2022-02-24T16:29:01Z</time>
      </trkpt>
      <trkpt lat="46.2455" lon="5.38417">
        <ele>350.2</ele>
        <time>2022-02-24T16:29:02Z</time>
      </trkpt>
      <trkpt lat="46.24552" lon="5.38421">
        <ele>350.4</ele>
        <time>2022-02-24T16:29:03Z</time>
      </trkpt>
      <trkpt lat="46.24554" lon="5.38425">
        <ele>350.4</ele>
        <time>2022-02-24T16:29:04Z</time>
      </trkpt>
      <trkpt lat="46.24556" lon="5.3843">
        <ele>350.4</ele>
        <time>2022-02-24T16:29:05Z</time>
      </trkpt>
      <trkpt lat="46.24558" lon="5.38434">
        <ele>350.6</ele>
        <time>2022-02-24T16:29:06Z</time>
      </trkpt>
      <trkpt lat="46.2456" lon="5.38439">
        <ele>350.6</ele>
        <time>2022-02-24T16:29:07Z</time>
      </trkpt>
      <trkpt lat="46.24561" lon="5.38443">
        <ele>351</ele>
        <time>2022-02-24T16:29:08Z</time>
      </trkpt>
      <trkpt lat="46.24563" lon="5.38448">
        <ele>351</ele>
        <time>2022-02-24T16:29:09Z</time>
      </trkpt>
      <trkpt lat="46.24565" lon="5.38453">
        <ele>351.2</ele>
        <time>2022-02-24T16:29:10Z</time>
      </trkpt>
      <trkpt lat="46.24567" lon="5.38458">
        <ele>351.2</ele>
        <time>2022-02-24T16:29:11Z</time>
      </trkpt>
      <trkpt lat="46.24568" lon="5.38463">
        <ele>351.6</ele>
        <time>2022-02-24T16:29:12Z</time>
      </trkpt>
      <trkpt lat="46.2457" lon="5.38467">
        <ele>351.6</ele>
        <time>2022-02-24T16:29:13Z</time>
      </trkpt>
      <trkpt lat="46.24571" lon="5.38472">
        <ele>351.8</ele>
        <time>2022-02-24T16:29:14Z</time>
      </trkpt>
      <trkpt lat="46.24573" lon="5.38477">
        <ele>351.8</ele>
        <time>2022-02-24T16:29:15Z</time>
      </trkpt>
      <trkpt lat="46.24574" lon="5.38482">
        <ele>352.2</ele>
        <time>2022-02-24T16:29:16Z</time>
      </trkpt>
      <trkpt lat="46.24575" lon="5.38487">
        <ele>352.2</ele>
        <time>2022-02-24T16:29:17Z</time>
      </trkpt>
      <trkpt lat="46.24576" lon="5.38491">
        <ele>352.4</ele>
        <time>2022-02-24T16:29:18Z</time>
      </trkpt>
      <trkpt lat="46.24577" lon="5.38496">
        <ele>352.8</ele>
        <time>2022-02-24T16:29:19Z</time>
      </trkpt>
      <trkpt lat="46.24578" lon="5.38501">
        <ele>352.8</ele>
        <time>2022-02-24T16:29:20Z</time>
      </trkpt>
      <trkpt lat="46.24579" lon="5.38506">
        <ele>353</ele>
        <time>2022-02-24T16:29:21Z</time>
      </trkpt>
      <trkpt lat="46.2458" lon="5.38512">
        <ele>353</ele>
        <time>2022-02-24T16:29:22Z</time>
      </trkpt>
      <trkpt lat="46.24581" lon="5.38517">
        <ele>353.4</ele>
        <time>2022-02-24T16:29:23Z</time>
      </trkpt>
      <trkpt lat="46.24582" lon="5.38522">
        <ele>353.4</ele>
        <time>2022-02-24T16:29:24Z</time>
      </trkpt>
      <trkpt lat="46.24582" lon="5.38527">
        <ele>353.8</ele>
        <time>2022-02-24T16:29:25Z</time>
      </trkpt>
      <trkpt lat="46.24583" lon="5.38532">
        <ele>353.8</ele>
        <time>2022-02-24T16:29:26Z</time>
      </trkpt>
      <trkpt lat="46.24584" lon="5.38538">
        <ele>354</ele>
        <time>2022-02-24T16:29:27Z</time>
      </trkpt>
      <trkpt lat="46.24585" lon="5.38543">
        <ele>354</ele>
        <time>2022-02-24T16:29:28Z</time>
      </trkpt>
      <trkpt lat="46.24585" lon="5.38549">
        <ele>354.4</ele>
        <time>2022-02-24T16:29:29Z</time>
      </trkpt>
      <trkpt lat="46.24586" lon="5.38554">
        <ele>354.4</ele>
        <time>2022-02-24T16:29:30Z</time>
      </trkpt>
      <trkpt lat="46.24586" lon="5.38559">
        <ele>354.6</ele>
        <time>2022-02-24T16:29:31Z</time>
      </trkpt>
      <trkpt lat="46.24587" lon="5.38565">
        <ele>354.6</ele>
        <time>2022-02-24T16:29:32Z</time>
      </trkpt>
      <trkpt lat="46.24588" lon="5.3857">
        <ele>355</ele>
        <time>2022-02-24T16:29:33Z</time>
      </trkpt>
      <trkpt lat="46.24588" lon="5.38575">
        <ele>355</ele>
        <time>2022-02-24T16:29:34Z</time>
      </trkpt>
      <trkpt lat="46.24588" lon="5.3858">
        <ele>355.2</ele>
        <time>2022-02-24T16:29:35Z</time>
      </trkpt>
      <trkpt lat="46.24588" lon="5.38585">
        <ele>355.2</ele>
        <time>2022-02-24T16:29:36Z</time>
      </trkpt>
      <trkpt lat="46.24588" lon="5.3859">
        <ele>355.4</ele>
        <time>2022-02-24T16:29:37Z</time>
      </trkpt>
      <trkpt lat="46.24588" lon="5.38595">
        <ele>355.4</ele>
        <time>2022-02-24T16:29:38Z</time>
      </trkpt>
      <trkpt lat="46.24588" lon="5.38601">
        <ele>355.8</ele>
        <time>2022-02-24T16:29:39Z</time>
      </trkpt>
      <trkpt lat="46.24588" lon="5.38606">
        <ele>355.8</ele>
        <time>2022-02-24T16:29:40Z</time>
      </trkpt>
      <trkpt lat="46.24588" lon="5.38611">
        <ele>356</ele>
        <time>2022-02-24T16:29:41Z</time>
      </trkpt>
      <trkpt lat="46.24588" lon="5.38616">
        <ele>356</ele>
        <time>2022-02-24T16:29:42Z</time>
      </trkpt>
      <trkpt lat="46.24588" lon="5.38621">
        <ele>356.4</ele>
        <time>2022-02-24T16:29:43Z</time>
      </trkpt>
      <trkpt lat="46.24588" lon="5.38626">
        <ele>356.4</ele>
        <time>2022-02-24T16:29:44Z</time>
      </trkpt>
      <trkpt lat="46.24588" lon="5.3863">
        <ele>356.8</ele>
        <time>2022-02-24T16:29:45Z</time>
      </trkpt>
      <trkpt lat="46.24587" lon="5.38635">
        <ele>356.8</ele>
        <time>2022-02-24T16:29:46Z</time>
      </trkpt>
      <trkpt lat="46.24587" lon="5.3864">
        <ele>357.2</ele>
        <time>2022-02-24T16:29:47Z</time>
      </trkpt>
      <trkpt lat="46.24587" lon="5.38645">
        <ele>357.2</ele>
        <time>2022-02-24T16:29:48Z</time>
      </trkpt>
      <trkpt lat="46.24587" lon="5.3865">
        <ele>357.4</ele>
        <time>2022-02-24T16:29:49Z</time>
      </trkpt>
      <trkpt lat="46.24586" lon="5.38655">
        <ele>357.4</ele>
        <time>2022-02-24T16:29:50Z</time>
      </trkpt>
      <trkpt lat="46.24586" lon="5.3866">
        <ele>357.8</ele>
        <time>2022-02-24T16:29:51Z</time>
      </trkpt>
      <trkpt lat="46.24586" lon="5.38664">
        <ele>357.8</ele>
        <time>2022-02-24T16:29:52Z</time>
      </trkpt>
      <trkpt lat="46.24586" lon="5.38669">
        <ele>358.2</ele>
        <time>2022-02-24T16:29:53Z</time>
      </trkpt>
      <trkpt lat="46.24586" lon="5.38673">
        <ele>358.2</ele>
        <time>2022-02-24T16:29:54Z</time>
      </trkpt>
      <trkpt lat="46.24586" lon="5.38678">
        <ele>358.4</ele>
        <time>2022-02-24T16:29:55Z</time>
      </trkpt>
      <trkpt lat="46.24587" lon="5.38683">
        <ele>358.4</ele>
        <time>2022-02-24T16:29:56Z</time>
      </trkpt>
      <trkpt lat="46.24587" lon="5.38688">
        <ele>358.8</ele>
        <time>2022-02-24T16:29:57Z</time>
      </trkpt>
      <trkpt lat="46.24587" lon="5.38692">
        <ele>358.8</ele>
        <time>2022-02-24T16:29:58Z</time>
      </trkpt>
      <trkpt lat="46.24587" lon="5.38696">
        <ele>359</ele>
        <time>2022-02-24T16:29:59Z</time>
      </trkpt>
      <trkpt lat="46.24586" lon="5.38701">
        <ele>359</ele>
        <time>2022-02-24T16:30:00Z</time>
      </trkpt>
      <trkpt lat="46.24587" lon="5.38706">
        <ele>359.4</ele>
        <time>2022-02-24T16:30:01Z</time>
      </trkpt>
      <trkpt lat="46.24587" lon="5.3871">
        <ele>359.4</ele>
        <time>2022-02-24T16:30:02Z</time>
      </trkpt>
      <trkpt lat="46.24587" lon="5.38714">
        <ele>359.8</ele>
        <time>2022-02-24T16:30:03Z</time>
      </trkpt>
      <trkpt lat="46.24587" lon="5.38718">
        <ele>359.8</ele>
        <time>2022-02-24T16:30:04Z</time>
      </trkpt>
      <trkpt lat="46.24588" lon="5.38723">
        <ele>360</ele>
        <time>2022-02-24T16:30:05Z</time>
      </trkpt>
      <trkpt lat="46.24588" lon="5.38728">
        <ele>360</ele>
        <time>2022-02-24T16:30:06Z</time>
      </trkpt>
      <trkpt lat="46.24588" lon="5.38733">
        <ele>360.2</ele>
        <time>2022-02-24T16:30:07Z</time>
      </trkpt>
      <trkpt lat="46.24589" lon="5.38738">
        <ele>360.2</ele>
        <time>2022-02-24T16:30:08Z</time>
      </trkpt>
      <trkpt lat="46.2459" lon="5.38742">
        <ele>360.6</ele>
        <time>2022-02-24T16:30:09Z</time>
      </trkpt>
      <trkpt lat="46.2459" lon="5.38747">
        <ele>360.6</ele>
        <time>2022-02-24T16:30:10Z</time>
      </trkpt>
      <trkpt lat="46.24591" lon="5.38752">
        <ele>360.8</ele>
        <time>2022-02-24T16:30:11Z</time>
      </trkpt>
      <trkpt lat="46.24592" lon="5.38756">
        <ele>360.8</ele>
        <time>2022-02-24T16:30:12Z</time>
      </trkpt>
      <trkpt lat="46.24592" lon="5.38761">
        <ele>361.2</ele>
        <time>2022-02-24T16:30:13Z</time>
      </trkpt>
      <trkpt lat="46.24593" lon="5.38765">
        <ele>361.2</ele>
        <time>2022-02-24T16:30:14Z</time>
      </trkpt>
      <trkpt lat="46.24594" lon="5.3877">
        <ele>361.4</ele>
        <time>2022-02-24T16:30:15Z</time>
      </trkpt>
      <trkpt lat="46.24595" lon="5.38775">
        <ele>361.4</ele>
        <time>2022-02-24T16:30:16Z</time>
      </trkpt>
      <trkpt lat="46.24596" lon="5.38779">
        <ele>361.8</ele>
        <time>2022-02-24T16:30:17Z</time>
      </trkpt>
      <trkpt lat="46.24598" lon="5.38783">
        <ele>361.8</ele>
        <time>2022-02-24T16:30:18Z</time>
      </trkpt>
      <trkpt lat="46.24599" lon="5.38788">
        <ele>362</ele>
        <time>2022-02-24T16:30:19Z</time>
      </trkpt>
      <trkpt lat="46.246" lon="5.38792">
        <ele>362</ele>
        <time>2022-02-24T16:30:20Z</time>
      </trkpt>
      <trkpt lat="46.24601" lon="5.38796">
        <ele>362.2</ele>
        <time>2022-02-24T16:30:21Z</time>
      </trkpt>
      <trkpt lat="46.24603" lon="5.388">
        <ele>362.2</ele>
        <time>2022-02-24T16:30:22Z</time>
      </trkpt>
      <trkpt lat="46.24604" lon="5.38803">
        <ele>362.6</ele>
        <time>2022-02-24T16:30:23Z</time>
      </trkpt>
      <trkpt lat="46.24605" lon="5.38806">
        <ele>362.6</ele>
        <time>2022-02-24T16:30:24Z</time>
      </trkpt>
      <trkpt lat="46.24606" lon="5.38809">
        <ele>363</ele>
        <time>2022-02-24T16:30:25Z</time>
      </trkpt>
      <trkpt lat="46.24607" lon="5.38812">
        <ele>363</ele>
        <time>2022-02-24T16:30:26Z</time>
      </trkpt>
      <trkpt lat="46.24609" lon="5.38815">
        <ele>363.4</ele>
        <time>2022-02-24T16:30:27Z</time>
      </trkpt>
      <trkpt lat="46.24611" lon="5.38818">
        <ele>363.4</ele>
        <time>2022-02-24T16:30:28Z</time>
      </trkpt>
      <trkpt lat="46.24614" lon="5.38821">
        <ele>363.8</ele>
        <time>2022-02-24T16:30:29Z</time>
      </trkpt>
      <trkpt lat="46.24616" lon="5.38824">
        <ele>364</ele>
        <time>2022-02-24T16:30:30Z</time>
      </trkpt>
      <trkpt lat="46.24619" lon="5.38827">
        <ele>364</ele>
        <time>2022-02-24T16:30:31Z</time>
      </trkpt>
      <trkpt lat="46.24622" lon="5.3883">
        <ele>364.4</ele>
        <time>2022-02-24T16:30:32Z</time>
      </trkpt>
      <trkpt lat="46.24624" lon="5.38832">
        <ele>364.4</ele>
        <time>2022-02-24T16:30:33Z</time>
      </trkpt>
      <trkpt lat="46.24626" lon="5.38835">
        <ele>364.6</ele>
        <time>2022-02-24T16:30:34Z</time>
      </trkpt>
      <trkpt lat="46.24629" lon="5.38839">
        <ele>364.6</ele>
        <time>2022-02-24T16:30:35Z</time>
      </trkpt>
      <trkpt lat="46.24632" lon="5.38842">
        <ele>364.8</ele>
        <time>2022-02-24T16:30:36Z</time>
      </trkpt>
      <trkpt lat="46.24634" lon="5.38845">
        <ele>364.8</ele>
        <time>2022-02-24T16:30:37Z</time>
      </trkpt>
      <trkpt lat="46.24637" lon="5.38848">
        <ele>365.2</ele>
        <time>2022-02-24T16:30:38Z</time>
      </trkpt>
      <trkpt lat="46.24639" lon="5.38851">
        <ele>365.2</ele>
        <time>2022-02-24T16:30:39Z</time>
      </trkpt>
      <trkpt lat="46.24642" lon="5.38854">
        <ele>365.4</ele>
        <time>2022-02-24T16:30:40Z</time>
      </trkpt>
      <trkpt lat="46.24644" lon="5.38857">
        <ele>365.4</ele>
        <time>2022-02-24T16:30:41Z</time>
      </trkpt>
      <trkpt lat="46.24648" lon="5.38859">
        <ele>365.6</ele>
        <time>2022-02-24T16:30:42Z</time>
      </trkpt>
      <trkpt lat="46.24651" lon="5.38862">
        <ele>365.6</ele>
        <time>2022-02-24T16:30:43Z</time>
      </trkpt>
      <trkpt lat="46.24654" lon="5.38865">
        <ele>365.6</ele>
        <time>2022-02-24T16:30:44Z</time>
      </trkpt>
      <trkpt lat="46.24657" lon="5.38869">
        <ele>365.8</ele>
        <time>2022-02-24T16:30:45Z</time>
      </trkpt>
      <trkpt lat="46.2466" lon="5.38872">
        <ele>365.8</ele>
        <time>2022-02-24T16:30:46Z</time>
      </trkpt>
      <trkpt lat="46.24662" lon="5.38875">
        <ele>366.2</ele>
        <time>2022-02-24T16:30:47Z</time>
      </trkpt>
      <trkpt lat="46.24665" lon="5.38878">
        <ele>366.2</ele>
        <time>2022-02-24T16:30:48Z</time>
      </trkpt>
      <trkpt lat="46.24669" lon="5.38881">
        <ele>366.6</ele>
        <time>2022-02-24T16:30:49Z</time>
      </trkpt>
      <trkpt lat="46.24672" lon="5.38884">
        <ele>366.6</ele>
        <time>2022-02-24T16:30:50Z</time>
      </trkpt>
      <trkpt lat="46.24675" lon="5.38887">
        <ele>366.8</ele>
        <time>2022-02-24T16:30:51Z</time>
      </trkpt>
      <trkpt lat="46.24678" lon="5.38889">
        <ele>366.8</ele>
        <time>2022-02-24T16:30:52Z</time>
      </trkpt>
      <trkpt lat="46.24681" lon="5.38892">
        <ele>367.2</ele>
        <time>2022-02-24T16:30:53Z</time>
      </trkpt>
      <trkpt lat="46.24683" lon="5.38896">
        <ele>367.2</ele>
        <time>2022-02-24T16:30:54Z</time>
      </trkpt>
      <trkpt lat="46.24686" lon="5.38899">
        <ele>367.4</ele>
        <time>2022-02-24T16:30:55Z</time>
      </trkpt>
      <trkpt lat="46.2469" lon="5.38902">
        <ele>367.4</ele>
        <time>2022-02-24T16:30:56Z</time>
      </trkpt>
      <trkpt lat="46.24693" lon="5.38905">
        <ele>367.8</ele>
        <time>2022-02-24T16:30:57Z</time>
      </trkpt>
      <trkpt lat="46.24696" lon="5.38908">
        <ele>367.8</ele>
        <time>2022-02-24T16:30:58Z</time>
      </trkpt>
      <trkpt lat="46.247" lon="5.38911">
        <ele>368</ele>
        <time>2022-02-24T16:30:59Z</time>
      </trkpt>
      <trkpt lat="46.24704" lon="5.38914">
        <ele>368</ele>
        <time>2022-02-24T16:31:00Z</time>
      </trkpt>
      <trkpt lat="46.24707" lon="5.38918">
        <ele>368.2</ele>
        <time>2022-02-24T16:31:01Z</time>
      </trkpt>
      <trkpt lat="46.24711" lon="5.3892">
        <ele>368.2</ele>
        <time>2022-02-24T16:31:02Z</time>
      </trkpt>
      <trkpt lat="46.24714" lon="5.38923">
        <ele>368.6</ele>
        <time>2022-02-24T16:31:03Z</time>
      </trkpt>
      <trkpt lat="46.24717" lon="5.38926">
        <ele>368.6</ele>
        <time>2022-02-24T16:31:04Z</time>
      </trkpt>
      <trkpt lat="46.24717" lon="5.38926">
        <ele>369</ele>
        <time>2022-02-24T16:31:05Z</time>
      </trkpt>
      <trkpt lat="46.2472" lon="5.38929">
        <ele>369</ele>
        <time>2022-02-24T16:31:06Z</time>
      </trkpt>
      <trkpt lat="46.24723" lon="5.38933">
        <ele>369.2</ele>
        <time>2022-02-24T16:31:07Z</time>
      </trkpt>
      <trkpt lat="46.24727" lon="5.38936">
        <ele>369.2</ele>
        <time>2022-02-24T16:31:08Z</time>
      </trkpt>
      <trkpt lat="46.2473" lon="5.3894">
        <ele>369.6</ele>
        <time>2022-02-24T16:31:09Z</time>
      </trkpt>
      <trkpt lat="46.24734" lon="5.38943">
        <ele>369.6</ele>
        <time>2022-02-24T16:31:10Z</time>
      </trkpt>
      <trkpt lat="46.24737" lon="5.38947">
        <ele>369.8</ele>
        <time>2022-02-24T16:31:11Z</time>
      </trkpt>
      <trkpt lat="46.2474" lon="5.3895">
        <ele>370</ele>
        <time>2022-02-24T16:31:12Z</time>
      </trkpt>
      <trkpt lat="46.24743" lon="5.38954">
        <ele>370</ele>
        <time>2022-02-24T16:31:13Z</time>
      </trkpt>
      <trkpt lat="46.24746" lon="5.38957">
        <ele>370.2</ele>
        <time>2022-02-24T16:31:14Z</time>
      </trkpt>
      <trkpt lat="46.24749" lon="5.38961">
        <ele>370.2</ele>
        <time>2022-02-24T16:31:15Z</time>
      </trkpt>
      <trkpt lat="46.24752" lon="5.38964">
        <ele>370.6</ele>
        <time>2022-02-24T16:31:16Z</time>
      </trkpt>
      <trkpt lat="46.24755" lon="5.38968">
        <ele>370.8</ele>
        <time>2022-02-24T16:31:17Z</time>
      </trkpt>
      <trkpt lat="46.24758" lon="5.38971">
        <ele>371</ele>
        <time>2022-02-24T16:31:18Z</time>
      </trkpt>
      <trkpt lat="46.24761" lon="5.38975">
        <ele>371</ele>
        <time>2022-02-24T16:31:19Z</time>
      </trkpt>
      <trkpt lat="46.24763" lon="5.38978">
        <ele>371.4</ele>
        <time>2022-02-24T16:31:20Z</time>
      </trkpt>
      <trkpt lat="46.24766" lon="5.38982">
        <ele>371.6</ele>
        <time>2022-02-24T16:31:21Z</time>
      </trkpt>
      <trkpt lat="46.24769" lon="5.38985">
        <ele>371.6</ele>
        <time>2022-02-24T16:31:22Z</time>
      </trkpt>
      <trkpt lat="46.24771" lon="5.38989">
        <ele>372</ele>
        <time>2022-02-24T16:31:23Z</time>
      </trkpt>
      <trkpt lat="46.24773" lon="5.38993">
        <ele>372</ele>
        <time>2022-02-24T16:31:24Z</time>
      </trkpt>
      <trkpt lat="46.24775" lon="5.38997">
        <ele>372.2</ele>
        <time>2022-02-24T16:31:25Z</time>
      </trkpt>
      <trkpt lat="46.24777" lon="5.39">
        <ele>372.2</ele>
        <time>2022-02-24T16:31:26Z</time>
      </trkpt>
      <trkpt lat="46.24778" lon="5.39004">
        <ele>372.6</ele>
        <time>2022-02-24T16:31:27Z</time>
      </trkpt>
      <trkpt lat="46.2478" lon="5.39008">
        <ele>372.8</ele>
        <time>2022-02-24T16:31:28Z</time>
      </trkpt>
      <trkpt lat="46.24782" lon="5.39012">
        <ele>372.8</ele>
        <time>2022-02-24T16:31:29Z</time>
      </trkpt>
      <trkpt lat="46.24783" lon="5.39016">
        <ele>373</ele>
        <time>2022-02-24T16:31:30Z</time>
      </trkpt>
      <trkpt lat="46.24785" lon="5.3902">
        <ele>373</ele>
        <time>2022-02-24T16:31:31Z</time>
      </trkpt>
      <trkpt lat="46.24786" lon="5.39024">
        <ele>373.2</ele>
        <time>2022-02-24T16:31:32Z</time>
      </trkpt>
      <trkpt lat="46.24788" lon="5.39028">
        <ele>373.2</ele>
        <time>2022-02-24T16:31:33Z</time>
      </trkpt>
      <trkpt lat="46.24789" lon="5.39032">
        <ele>373.2</ele>
        <time>2022-02-24T16:31:34Z</time>
      </trkpt>
      <trkpt lat="46.24791" lon="5.39037">
        <ele>373.4</ele>
        <time>2022-02-24T16:31:35Z</time>
      </trkpt>
      <trkpt lat="46.24792" lon="5.39042">
        <ele>373.4</ele>
        <time>2022-02-24T16:31:36Z</time>
      </trkpt>
      <trkpt lat="46.24794" lon="5.39046">
        <ele>373.4</ele>
        <time>2022-02-24T16:31:37Z</time>
      </trkpt>
      <trkpt lat="46.24795" lon="5.39051">
        <ele>373.6</ele>
        <time>2022-02-24T16:31:38Z</time>
      </trkpt>
      <trkpt lat="46.24797" lon="5.39056">
        <ele>373.6</ele>
        <time>2022-02-24T16:31:39Z</time>
      </trkpt>
      <trkpt lat="46.24799" lon="5.3906">
        <ele>373.8</ele>
        <time>2022-02-24T16:31:40Z</time>
      </trkpt>
      <trkpt lat="46.24801" lon="5.39065">
        <ele>373.8</ele>
        <time>2022-02-24T16:31:41Z</time>
      </trkpt>
      <trkpt lat="46.24804" lon="5.3907">
        <ele>374.2</ele>
        <time>2022-02-24T16:31:42Z</time>
      </trkpt>
      <trkpt lat="46.24807" lon="5.39074">
        <ele>374.2</ele>
        <time>2022-02-24T16:31:43Z</time>
      </trkpt>
      <trkpt lat="46.2481" lon="5.39079">
        <ele>374.4</ele>
        <time>2022-02-24T16:31:44Z</time>
      </trkpt>
      <trkpt lat="46.24814" lon="5.39083">
        <ele>374.4</ele>
        <time>2022-02-24T16:31:45Z</time>
      </trkpt>
      <trkpt lat="46.24817" lon="5.39087">
        <ele>374.8</ele>
        <time>2022-02-24T16:31:46Z</time>
      </trkpt>
      <trkpt lat="46.2482" lon="5.39092">
        <ele>374.8</ele>
        <time>2022-02-24T16:31:47Z</time>
      </trkpt>
      <trkpt lat="46.24822" lon="5.39096">
        <ele>375</ele>
        <time>2022-02-24T16:31:48Z</time>
      </trkpt>
      <trkpt lat="46.24824" lon="5.391">
        <ele>375</ele>
        <time>2022-02-24T16:31:49Z</time>
      </trkpt>
      <trkpt lat="46.24826" lon="5.39105">
        <ele>375</ele>
        <time>2022-02-24T16:31:50Z</time>
      </trkpt>
      <trkpt lat="46.24829" lon="5.3911">
        <ele>375</ele>
        <time>2022-02-24T16:31:51Z</time>
      </trkpt>
      <trkpt lat="46.24832" lon="5.39115">
        <ele>375</ele>
        <time>2022-02-24T16:31:52Z</time>
      </trkpt>
      <trkpt lat="46.24834" lon="5.3912">
        <ele>375</ele>
        <time>2022-02-24T16:31:53Z</time>
      </trkpt>
      <trkpt lat="46.24836" lon="5.39126">
        <ele>375</ele>
        <time>2022-02-24T16:31:54Z</time>
      </trkpt>
      <trkpt lat="46.24839" lon="5.39131">
        <ele>375</ele>
        <time>2022-02-24T16:31:55Z</time>
      </trkpt>
      <trkpt lat="46.24841" lon="5.39137">
        <ele>375</ele>
        <time>2022-02-24T16:31:56Z</time>
      </trkpt>
      <trkpt lat="46.24844" lon="5.39143">
        <ele>375</ele>
        <time>2022-02-24T16:31:57Z</time>
      </trkpt>
      <trkpt lat="46.24846" lon="5.39148">
        <ele>375</ele>
        <time>2022-02-24T16:31:58Z</time>
      </trkpt>
      <trkpt lat="46.24849" lon="5.39154">
        <ele>375</ele>
        <time>2022-02-24T16:31:59Z</time>
      </trkpt>
      <trkpt lat="46.24851" lon="5.3916">
        <ele>375</ele>
        <time>2022-02-24T16:32:00Z</time>
      </trkpt>
      <trkpt lat="46.24854" lon="5.39167">
        <ele>375</ele>
        <time>2022-02-24T16:32:01Z</time>
      </trkpt>
      <trkpt lat="46.24857" lon="5.39173">
        <ele>375</ele>
        <time>2022-02-24T16:32:02Z</time>
      </trkpt>
      <trkpt lat="46.2486" lon="5.3918">
        <ele>375</ele>
        <time>2022-02-24T16:32:03Z</time>
      </trkpt>
      <trkpt lat="46.24863" lon="5.39187">
        <ele>375</ele>
        <time>2022-02-24T16:32:04Z</time>
      </trkpt>
      <trkpt lat="46.24865" lon="5.39194">
        <ele>375</ele>
        <time>2022-02-24T16:32:05Z</time>
      </trkpt>
      <trkpt lat="46.24868" lon="5.39201">
        <ele>375</ele>
        <time>2022-02-24T16:32:06Z</time>
      </trkpt>
      <trkpt lat="46.24871" lon="5.39209">
        <ele>375</ele>
        <time>2022-02-24T16:32:07Z</time>
      </trkpt>
      <trkpt lat="46.24874" lon="5.39216">
        <ele>375</ele>
        <time>2022-02-24T16:32:08Z</time>
      </trkpt>
      <trkpt lat="46.24878" lon="5.39223">
        <ele>375</ele>
        <time>2022-02-24T16:32:09Z</time>
      </trkpt>
      <trkpt lat="46.24881" lon="5.3923">
        <ele>375</ele>
        <time>2022-02-24T16:32:10Z</time>
      </trkpt>
      <trkpt lat="46.24884" lon="5.39237">
        <ele>375</ele>
        <time>2022-02-24T16:32:11Z</time>
      </trkpt>
      <trkpt lat="46.24886" lon="5.39245">
        <ele>374.8</ele>
        <time>2022-02-24T16:32:12Z</time>
      </trkpt>
      <trkpt lat="46.24889" lon="5.39253">
        <ele>374.8</ele>
        <time>2022-02-24T16:32:13Z</time>
      </trkpt>
      <trkpt lat="46.24892" lon="5.39261">
        <ele>374.4</ele>
        <time>2022-02-24T16:32:14Z</time>
      </trkpt>
      <trkpt lat="46.24895" lon="5.39269">
        <ele>374</ele>
        <time>2022-02-24T16:32:15Z</time>
      </trkpt>
      <trkpt lat="46.24898" lon="5.39278">
        <ele>373.8</ele>
        <time>2022-02-24T16:32:16Z</time>
      </trkpt>
      <trkpt lat="46.24901" lon="5.39287">
        <ele>373.4</ele>
        <time>2022-02-24T16:32:17Z</time>
      </trkpt>
      <trkpt lat="46.24904" lon="5.39296">
        <ele>373.2</ele>
        <time>2022-02-24T16:32:18Z</time>
      </trkpt>
      <trkpt lat="46.24907" lon="5.39306">
        <ele>373</ele>
        <time>2022-02-24T16:32:19Z</time>
      </trkpt>
      <trkpt lat="46.2491" lon="5.39316">
        <ele>372.6</ele>
        <time>2022-02-24T16:32:20Z</time>
      </trkpt>
      <trkpt lat="46.24913" lon="5.39326">
        <ele>372.4</ele>
        <time>2022-02-24T16:32:21Z</time>
      </trkpt>
      <trkpt lat="46.24916" lon="5.39337">
        <ele>372</ele>
        <time>2022-02-24T16:32:22Z</time>
      </trkpt>
      <trkpt lat="46.24918" lon="5.39348">
        <ele>371.6</ele>
        <time>2022-02-24T16:32:23Z</time>
      </trkpt>
      <trkpt lat="46.24921" lon="5.39359">
        <ele>371.2</ele>
        <time>2022-02-24T16:32:24Z</time>
      </trkpt>
      <trkpt lat="46.24923" lon="5.39371">
        <ele>370.8</ele>
        <time>2022-02-24T16:32:25Z</time>
      </trkpt>
      <trkpt lat="46.24925" lon="5.39383">
        <ele>370.4</ele>
        <time>2022-02-24T16:32:26Z</time>
      </trkpt>
      <trkpt lat="46.24927" lon="5.39396">
        <ele>370</ele>
        <time>2022-02-24T16:32:27Z</time>
      </trkpt>
      <trkpt lat="46.24928" lon="5.39408">
        <ele>369.8</ele>
        <time>2022-02-24T16:32:28Z</time>
      </trkpt>
      <trkpt lat="46.2493" lon="5.39421">
        <ele>369.4</ele>
        <time>2022-02-24T16:32:29Z</time>
      </trkpt>
      <trkpt lat="46.24931" lon="5.39434">
        <ele>369</ele>
        <time>2022-02-24T16:32:30Z</time>
      </trkpt>
      <trkpt lat="46.24932" lon="5.39447">
        <ele>368.6</ele>
        <time>2022-02-24T16:32:31Z</time>
      </trkpt>
      <trkpt lat="46.24933" lon="5.3946">
        <ele>368.4</ele>
        <time>2022-02-24T16:32:32Z</time>
      </trkpt>
      <trkpt lat="46.24934" lon="5.39473">
        <ele>368</ele>
        <time>2022-02-24T16:32:33Z</time>
      </trkpt>
      <trkpt lat="46.24935" lon="5.39487">
        <ele>367.6</ele>
        <time>2022-02-24T16:32:34Z</time>
      </trkpt>
      <trkpt lat="46.24936" lon="5.39501">
        <ele>367</ele>
        <time>2022-02-24T16:32:35Z</time>
      </trkpt>
      <trkpt lat="46.24938" lon="5.39515">
        <ele>366.6</ele>
        <time>2022-02-24T16:32:36Z</time>
      </trkpt>
      <trkpt lat="46.2494" lon="5.39529">
        <ele>366.2</ele>
        <time>2022-02-24T16:32:37Z</time>
      </trkpt>
      <trkpt lat="46.24941" lon="5.39543">
        <ele>365.6</ele>
        <time>2022-02-24T16:32:38Z</time>
      </trkpt>
      <trkpt lat="46.24943" lon="5.39558">
        <ele>365.2</ele>
        <time>2022-02-24T16:32:39Z</time>
      </trkpt>
      <trkpt lat="46.24947" lon="5.39571">
        <ele>364.6</ele>
        <time>2022-02-24T16:32:40Z</time>
      </trkpt>
      <trkpt lat="46.24949" lon="5.39585">
        <ele>364</ele>
        <time>2022-02-24T16:32:41Z</time>
      </trkpt>
      <trkpt lat="46.24951" lon="5.396">
        <ele>363.6</ele>
        <time>2022-02-24T16:32:42Z</time>
      </trkpt>
      <trkpt lat="46.24953" lon="5.39617">
        <ele>363</ele>
        <time>2022-02-24T16:32:43Z</time>
      </trkpt>
      <trkpt lat="46.24955" lon="5.39634">
        <ele>362.6</ele>
        <time>2022-02-24T16:32:44Z</time>
      </trkpt>
      <trkpt lat="46.24955" lon="5.39649">
        <ele>362</ele>
        <time>2022-02-24T16:32:45Z</time>
      </trkpt>
      <trkpt lat="46.24956" lon="5.39666">
        <ele>361.6</ele>
        <time>2022-02-24T16:32:46Z</time>
      </trkpt>
      <trkpt lat="46.24958" lon="5.39681">
        <ele>361.2</ele>
        <time>2022-02-24T16:32:47Z</time>
      </trkpt>
      <trkpt lat="46.24959" lon="5.39697">
        <ele>360.6</ele>
        <time>2022-02-24T16:32:48Z</time>
      </trkpt>
      <trkpt lat="46.2496" lon="5.39712">
        <ele>360.2</ele>
        <time>2022-02-24T16:32:49Z</time>
      </trkpt>
      <trkpt lat="46.24962" lon="5.39728">
        <ele>359.6</ele>
        <time>2022-02-24T16:32:50Z</time>
      </trkpt>
      <trkpt lat="46.24963" lon="5.39744">
        <ele>359.2</ele>
        <time>2022-02-24T16:32:51Z</time>
      </trkpt>
      <trkpt lat="46.24964" lon="5.39758">
        <ele>358.6</ele>
        <time>2022-02-24T16:32:52Z</time>
      </trkpt>
      <trkpt lat="46.24965" lon="5.39774">
        <ele>358.2</ele>
        <time>2022-02-24T16:32:53Z</time>
      </trkpt>
      <trkpt lat="46.24967" lon="5.39789">
        <ele>357.8</ele>
        <time>2022-02-24T16:32:54Z</time>
      </trkpt>
      <trkpt lat="46.24968" lon="5.39803">
        <ele>357.4</ele>
        <time>2022-02-24T16:32:55Z</time>
      </trkpt>
      <trkpt lat="46.24969" lon="5.39817">
        <ele>356.8</ele>
        <time>2022-02-24T16:32:56Z</time>
      </trkpt>
      <trkpt lat="46.24972" lon="5.39831">
        <ele>356.4</ele>
        <time>2022-02-24T16:32:57Z</time>
      </trkpt>
      <trkpt lat="46.24976" lon="5.39844">
        <ele>355.8</ele>
        <time>2022-02-24T16:32:58Z</time>
      </trkpt>
      <trkpt lat="46.2498" lon="5.39858">
        <ele>355.8</ele>
        <time>2022-02-24T16:32:59Z</time>
      </trkpt>
      <trkpt lat="46.24985" lon="5.39872">
        <ele>355.4</ele>
        <time>2022-02-24T16:33:00Z</time>
      </trkpt>
      <trkpt lat="46.24993" lon="5.39883">
        <ele>354.8</ele>
        <time>2022-02-24T16:33:01Z</time>
      </trkpt>
      <trkpt lat="46.25" lon="5.39894">
        <ele>354.2</ele>
        <time>2022-02-24T16:33:02Z</time>
      </trkpt>
      <trkpt lat="46.25008" lon="5.39907">
        <ele>353.8</ele>
        <time>2022-02-24T16:33:03Z</time>
      </trkpt>
      <trkpt lat="46.25015" lon="5.39918">
        <ele>353.4</ele>
        <time>2022-02-24T16:33:04Z</time>
      </trkpt>
      <trkpt lat="46.25023" lon="5.39929">
        <ele>352.8</ele>
        <time>2022-02-24T16:33:05Z</time>
      </trkpt>
      <trkpt lat="46.2503" lon="5.3994">
        <ele>352.4</ele>
        <time>2022-02-24T16:33:06Z</time>
      </trkpt>
      <trkpt lat="46.25037" lon="5.39952">
        <ele>352</ele>
        <time>2022-02-24T16:33:07Z</time>
      </trkpt>
      <trkpt lat="46.25044" lon="5.39963">
        <ele>351.6</ele>
        <time>2022-02-24T16:33:08Z</time>
      </trkpt>
      <trkpt lat="46.25051" lon="5.39973">
        <ele>351.2</ele>
        <time>2022-02-24T16:33:09Z</time>
      </trkpt>
      <trkpt lat="46.2506" lon="5.39982">
        <ele>350.8</ele>
        <time>2022-02-24T16:33:10Z</time>
      </trkpt>
      <trkpt lat="46.25069" lon="5.39989">
        <ele>350.4</ele>
        <time>2022-02-24T16:33:11Z</time>
      </trkpt>
      <trkpt lat="46.25078" lon="5.39997">
        <ele>350</ele>
        <time>2022-02-24T16:33:12Z</time>
      </trkpt>
      <trkpt lat="46.25088" lon="5.40005">
        <ele>349.6</ele>
        <time>2022-02-24T16:33:13Z</time>
      </trkpt>
      <trkpt lat="46.25102" lon="5.40016">
        <ele>348.8</ele>
        <time>2022-02-24T16:33:14Z</time>
      </trkpt>
      <trkpt lat="46.25117" lon="5.40028">
        <ele>348.4</ele>
        <time>2022-02-24T16:33:15Z</time>
      </trkpt>
      <trkpt lat="46.25126" lon="5.40035">
        <ele>347.8</ele>
        <time>2022-02-24T16:33:16Z</time>
      </trkpt>
      <trkpt lat="46.25136" lon="5.40042">
        <ele>347.2</ele>
        <time>2022-02-24T16:33:17Z</time>
      </trkpt>
      <trkpt lat="46.25146" lon="5.40048">
        <ele>346.6</ele>
        <time>2022-02-24T16:33:18Z</time>
      </trkpt>
      <trkpt lat="46.25156" lon="5.40054">
        <ele>346.2</ele>
        <time>2022-02-24T16:33:19Z</time>
      </trkpt>
      <trkpt lat="46.25166" lon="5.40059">
        <ele>345.6</ele>
        <time>2022-02-24T16:33:20Z</time>
      </trkpt>
      <trkpt lat="46.25176" lon="5.40063">
        <ele>345.2</ele>
        <time>2022-02-24T16:33:21Z</time>
      </trkpt>
      <trkpt lat="46.25186" lon="5.40068">
        <ele>344.6</ele>
        <time>2022-02-24T16:33:22Z</time>
      </trkpt>
      <trkpt lat="46.25197" lon="5.40071">
        <ele>344</ele>
        <time>2022-02-24T16:33:23Z</time>
      </trkpt>
      <trkpt lat="46.25207" lon="5.40074">
        <ele>343.6</ele>
        <time>2022-02-24T16:33:24Z</time>
      </trkpt>
      <trkpt lat="46.25217" lon="5.40077">
        <ele>343</ele>
        <time>2022-02-24T16:33:25Z</time>
      </trkpt>
      <trkpt lat="46.25229" lon="5.40078">
        <ele>342.6</ele>
        <time>2022-02-24T16:33:26Z</time>
      </trkpt>
      <trkpt lat="46.2524" lon="5.40078">
        <ele>342</ele>
        <time>2022-02-24T16:33:27Z</time>
      </trkpt>
      <trkpt lat="46.25251" lon="5.40078">
        <ele>341.4</ele>
        <time>2022-02-24T16:33:28Z</time>
      </trkpt>
      <trkpt lat="46.25262" lon="5.40075">
        <ele>341</ele>
        <time>2022-02-24T16:33:29Z</time>
      </trkpt>
      <trkpt lat="46.25274" lon="5.40073">
        <ele>340.4</ele>
        <time>2022-02-24T16:33:30Z</time>
      </trkpt>
      <trkpt lat="46.25286" lon="5.40072">
        <ele>339.8</ele>
        <time>2022-02-24T16:33:31Z</time>
      </trkpt>
      <trkpt lat="46.25297" lon="5.4007">
        <ele>339.4</ele>
        <time>2022-02-24T16:33:32Z</time>
      </trkpt>
      <trkpt lat="46.25308" lon="5.40072">
        <ele>338.8</ele>
        <time>2022-02-24T16:33:33Z</time>
      </trkpt>
      <trkpt lat="46.2532" lon="5.40076">
        <ele>338.2</ele>
        <time>2022-02-24T16:33:34Z</time>
      </trkpt>
      <trkpt lat="46.25332" lon="5.40081">
        <ele>337.8</ele>
        <time>2022-02-24T16:33:35Z</time>
      </trkpt>
      <trkpt lat="46.25345" lon="5.40086">
        <ele>337.2</ele>
        <time>2022-02-24T16:33:36Z</time>
      </trkpt>
      <trkpt lat="46.25357" lon="5.40094">
        <ele>336.8</ele>
        <time>2022-02-24T16:33:37Z</time>
      </trkpt>
      <trkpt lat="46.25368" lon="5.40101">
        <ele>336.2</ele>
        <time>2022-02-24T16:33:39Z</time>
      </trkpt>
      <trkpt lat="46.25378" lon="5.40111">
        <ele>335.8</ele>
        <time>2022-02-24T16:33:40Z</time>
      </trkpt>
      <trkpt lat="46.25387" lon="5.40122">
        <ele>335.2</ele>
        <time>2022-02-24T16:33:41Z</time>
      </trkpt>
      <trkpt lat="46.25397" lon="5.40131">
        <ele>334.6</ele>
        <time>2022-02-24T16:33:42Z</time>
      </trkpt>
      <trkpt lat="46.25405" lon="5.40141">
        <ele>334.2</ele>
        <time>2022-02-24T16:33:43Z</time>
      </trkpt>
      <trkpt lat="46.25416" lon="5.40148">
        <ele>333.8</ele>
        <time>2022-02-24T16:33:44Z</time>
      </trkpt>
      <trkpt lat="46.25427" lon="5.40156">
        <ele>333</ele>
        <time>2022-02-24T16:33:45Z</time>
      </trkpt>
      <trkpt lat="46.25436" lon="5.40166">
        <ele>332.4</ele>
        <time>2022-02-24T16:33:46Z</time>
      </trkpt>
      <trkpt lat="46.25446" lon="5.40175">
        <ele>332</ele>
        <time>2022-02-24T16:33:47Z</time>
      </trkpt>
      <trkpt lat="46.25455" lon="5.40183">
        <ele>331.4</ele>
        <time>2022-02-24T16:33:48Z</time>
      </trkpt>
      <trkpt lat="46.25464" lon="5.40193">
        <ele>330.8</ele>
        <time>2022-02-24T16:33:49Z</time>
      </trkpt>
      <trkpt lat="46.25473" lon="5.40202">
        <ele>330.2</ele>
        <time>2022-02-24T16:33:50Z</time>
      </trkpt>
      <trkpt lat="46.25483" lon="5.4021">
        <ele>329.8</ele>
        <time>2022-02-24T16:33:51Z</time>
      </trkpt>
      <trkpt lat="46.25492" lon="5.40219">
        <ele>329.4</ele>
        <time>2022-02-24T16:33:52Z</time>
      </trkpt>
      <trkpt lat="46.25501" lon="5.40228">
        <ele>328.8</ele>
        <time>2022-02-24T16:33:53Z</time>
      </trkpt>
      <trkpt lat="46.2551" lon="5.40237">
        <ele>328.4</ele>
        <time>2022-02-24T16:33:54Z</time>
      </trkpt>
      <trkpt lat="46.25518" lon="5.40246">
        <ele>327.8</ele>
        <time>2022-02-24T16:33:55Z</time>
      </trkpt>
      <trkpt lat="46.25527" lon="5.40256">
        <ele>327.4</ele>
        <time>2022-02-24T16:33:56Z</time>
      </trkpt>
      <trkpt lat="46.25535" lon="5.40267">
        <ele>327</ele>
        <time>2022-02-24T16:33:57Z</time>
      </trkpt>
      <trkpt lat="46.25541" lon="5.4028">
        <ele>326.6</ele>
        <time>2022-02-24T16:33:58Z</time>
      </trkpt>
      <trkpt lat="46.25546" lon="5.40293">
        <ele>326.2</ele>
        <time>2022-02-24T16:33:59Z</time>
      </trkpt>
      <trkpt lat="46.25551" lon="5.40307">
        <ele>325.8</ele>
        <time>2022-02-24T16:34:00Z</time>
      </trkpt>
      <trkpt lat="46.25554" lon="5.40322">
        <ele>325.4</ele>
        <time>2022-02-24T16:34:01Z</time>
      </trkpt>
      <trkpt lat="46.25556" lon="5.40336">
        <ele>325</ele>
        <time>2022-02-24T16:34:02Z</time>
      </trkpt>
      <trkpt lat="46.25557" lon="5.4035">
        <ele>324.8</ele>
        <time>2022-02-24T16:34:03Z</time>
      </trkpt>
      <trkpt lat="46.25559" lon="5.40361">
        <ele>324.4</ele>
        <time>2022-02-24T16:34:04Z</time>
      </trkpt>
      <trkpt lat="46.25558" lon="5.40373">
        <ele>324.2</ele>
        <time>2022-02-24T16:34:05Z</time>
      </trkpt>
      <trkpt lat="46.25556" lon="5.40386">
        <ele>323.8</ele>
        <time>2022-02-24T16:34:06Z</time>
      </trkpt>
      <trkpt lat="46.25554" lon="5.40398">
        <ele>323.4</ele>
        <time>2022-02-24T16:34:07Z</time>
      </trkpt>
      <trkpt lat="46.25551" lon="5.40409">
        <ele>322.8</ele>
        <time>2022-02-24T16:34:08Z</time>
      </trkpt>
      <trkpt lat="46.25548" lon="5.40421">
        <ele>322.6</ele>
        <time>2022-02-24T16:34:09Z</time>
      </trkpt>
      <trkpt lat="46.25546" lon="5.40432">
        <ele>322.2</ele>
        <time>2022-02-24T16:34:10Z</time>
      </trkpt>
      <trkpt lat="46.25543" lon="5.40444">
        <ele>322</ele>
        <time>2022-02-24T16:34:11Z</time>
      </trkpt>
      <trkpt lat="46.25539" lon="5.40456">
        <ele>321.6</ele>
        <time>2022-02-24T16:34:12Z</time>
      </trkpt>
      <trkpt lat="46.25536" lon="5.40466">
        <ele>321.4</ele>
        <time>2022-02-24T16:34:13Z</time>
      </trkpt>
      <trkpt lat="46.25534" lon="5.40476">
        <ele>321</ele>
        <time>2022-02-24T16:34:14Z</time>
      </trkpt>
      <trkpt lat="46.25532" lon="5.40484">
        <ele>320.8</ele>
        <time>2022-02-24T16:34:15Z</time>
      </trkpt>
      <trkpt lat="46.25531" lon="5.4049">
        <ele>320.4</ele>
        <time>2022-02-24T16:34:16Z</time>
      </trkpt>
      <trkpt lat="46.25532" lon="5.40494">
        <ele>320.2</ele>
        <time>2022-02-24T16:34:17Z</time>
      </trkpt>
      <trkpt lat="46.25534" lon="5.40497">
        <ele>320</ele>
        <time>2022-02-24T16:34:18Z</time>
      </trkpt>
      <trkpt lat="46.25537" lon="5.40498">
        <ele>320</ele>
        <time>2022-02-24T16:34:19Z</time>
      </trkpt>
      <trkpt lat="46.2554" lon="5.40498">
        <ele>319.8</ele>
        <time>2022-02-24T16:34:20Z</time>
      </trkpt>
      <trkpt lat="46.25543" lon="5.40498">
        <ele>319.8</ele>
        <time>2022-02-24T16:34:21Z</time>
      </trkpt>
      <trkpt lat="46.25544" lon="5.405">
        <ele>319.8</ele>
        <time>2022-02-24T16:34:22Z</time>
      </trkpt>
      <trkpt lat="46.25544" lon="5.40503">
        <ele>319.8</ele>
        <time>2022-02-24T16:34:23Z</time>
      </trkpt>
      <trkpt lat="46.25543" lon="5.40507">
        <ele>319.8</ele>
        <time>2022-02-24T16:34:24Z</time>
      </trkpt>
      <trkpt lat="46.25543" lon="5.4051">
        <ele>319.8</ele>
        <time>2022-02-24T16:34:25Z</time>
      </trkpt>
      <trkpt lat="46.25542" lon="5.40515">
        <ele>319.8</ele>
        <time>2022-02-24T16:34:26Z</time>
      </trkpt>
      <trkpt lat="46.25542" lon="5.40519">
        <ele>319.8</ele>
        <time>2022-02-24T16:34:27Z</time>
      </trkpt>
      <trkpt lat="46.25542" lon="5.40523">
        <ele>319.8</ele>
        <time>2022-02-24T16:34:28Z</time>
      </trkpt>
      <trkpt lat="46.25542" lon="5.40527">
        <ele>319.8</ele>
        <time>2022-02-24T16:34:29Z</time>
      </trkpt>
      <trkpt lat="46.25542" lon="5.40531">
        <ele>319.8</ele>
        <time>2022-02-24T16:34:30Z</time>
      </trkpt>
      <trkpt lat="46.25541" lon="5.40537">
        <ele>319.8</ele>
        <time>2022-02-24T16:34:31Z</time>
      </trkpt>
      <trkpt lat="46.2554" lon="5.40542">
        <ele>319.8</ele>
        <time>2022-02-24T16:34:32Z</time>
      </trkpt>
      <trkpt lat="46.25539" lon="5.40546">
        <ele>319.8</ele>
        <time>2022-02-24T16:34:33Z</time>
      </trkpt>
      <trkpt lat="46.25537" lon="5.40549">
        <ele>320</ele>
        <time>2022-02-24T16:34:34Z</time>
      </trkpt>
      <trkpt lat="46.25536" lon="5.40553">
        <ele>320</ele>
        <time>2022-02-24T16:34:35Z</time>
      </trkpt>
      <trkpt lat="46.25534" lon="5.40556">
        <ele>320</ele>
        <time>2022-02-24T16:34:36Z</time>
      </trkpt>
      <trkpt lat="46.25532" lon="5.4056">
        <ele>320</ele>
        <time>2022-02-24T16:34:37Z</time>
      </trkpt>
      <trkpt lat="46.2553" lon="5.40563">
        <ele>320</ele>
        <time>2022-02-24T16:34:38Z</time>
      </trkpt>
      <trkpt lat="46.25528" lon="5.40571">
        <ele>320</ele>
        <time>2022-02-24T16:34:39Z</time>
      </trkpt>
      <trkpt lat="46.25528" lon="5.40576">
        <ele>320</ele>
        <time>2022-02-24T16:34:40Z</time>
      </trkpt>
      <trkpt lat="46.25528" lon="5.4058">
        <ele>320</ele>
        <time>2022-02-24T16:34:41Z</time>
      </trkpt>
      <trkpt lat="46.2553" lon="5.40584">
        <ele>320</ele>
        <time>2022-02-24T16:34:42Z</time>
      </trkpt>
      <trkpt lat="46.25531" lon="5.40588">
        <ele>320</ele>
        <time>2022-02-24T16:34:43Z</time>
      </trkpt>
      <trkpt lat="46.25532" lon="5.40593">
        <ele>320</ele>
        <time>2022-02-24T16:34:44Z</time>
      </trkpt>
      <trkpt lat="46.25533" lon="5.40597">
        <ele>320</ele>
        <time>2022-02-24T16:34:45Z</time>
      </trkpt>
      <trkpt lat="46.25534" lon="5.40601">
        <ele>320.2</ele>
        <time>2022-02-24T16:34:46Z</time>
      </trkpt>
      <trkpt lat="46.25535" lon="5.40604">
        <ele>320.2</ele>
        <time>2022-02-24T16:34:47Z</time>
      </trkpt>
      <trkpt lat="46.25536" lon="5.4061">
        <ele>320.2</ele>
        <time>2022-02-24T16:34:48Z</time>
      </trkpt>
      <trkpt lat="46.25538" lon="5.40616">
        <ele>320.2</ele>
        <time>2022-02-24T16:34:49Z</time>
      </trkpt>
      <trkpt lat="46.25539" lon="5.40622">
        <ele>320.2</ele>
        <time>2022-02-24T16:34:50Z</time>
      </trkpt>
      <trkpt lat="46.2554" lon="5.40629">
        <ele>320</ele>
        <time>2022-02-24T16:34:51Z</time>
      </trkpt>
      <trkpt lat="46.25542" lon="5.40636">
        <ele>320</ele>
        <time>2022-02-24T16:34:52Z</time>
      </trkpt>
      <trkpt lat="46.25544" lon="5.40644">
        <ele>319.6</ele>
        <time>2022-02-24T16:34:53Z</time>
      </trkpt>
      <trkpt lat="46.25546" lon="5.40652">
        <ele>319.4</ele>
        <time>2022-02-24T16:34:54Z</time>
      </trkpt>
      <trkpt lat="46.25548" lon="5.40661">
        <ele>319</ele>
        <time>2022-02-24T16:34:55Z</time>
      </trkpt>
      <trkpt lat="46.2555" lon="5.40669">
        <ele>318.8</ele>
        <time>2022-02-24T16:34:56Z</time>
      </trkpt>
      <trkpt lat="46.25552" lon="5.40678">
        <ele>318.6</ele>
        <time>2022-02-24T16:34:57Z</time>
      </trkpt>
      <trkpt lat="46.25554" lon="5.40687">
        <ele>318.4</ele>
        <time>2022-02-24T16:34:58Z</time>
      </trkpt>
      <trkpt lat="46.25555" lon="5.40695">
        <ele>318.4</ele>
        <time>2022-02-24T16:34:59Z</time>
      </trkpt>
      <trkpt lat="46.25557" lon="5.40704">
        <ele>318.2</ele>
        <time>2022-02-24T16:35:00Z</time>
      </trkpt>
      <trkpt lat="46.25559" lon="5.40713">
        <ele>318.2</ele>
        <time>2022-02-24T16:35:01Z</time>
      </trkpt>
      <trkpt lat="46.2556" lon="5.40721">
        <ele>318</ele>
        <time>2022-02-24T16:35:02Z</time>
      </trkpt>
      <trkpt lat="46.25562" lon="5.40729">
        <ele>318</ele>
        <time>2022-02-24T16:35:03Z</time>
      </trkpt>
      <trkpt lat="46.25564" lon="5.40737">
        <ele>318</ele>
        <time>2022-02-24T16:35:04Z</time>
      </trkpt>
      <trkpt lat="46.25567" lon="5.40743">
        <ele>318</ele>
        <time>2022-02-24T16:35:05Z</time>
      </trkpt>
      <trkpt lat="46.2557" lon="5.40748">
        <ele>318</ele>
        <time>2022-02-24T16:35:06Z</time>
      </trkpt>
      <trkpt lat="46.25572" lon="5.40753">
        <ele>318.2</ele>
        <time>2022-02-24T16:35:07Z</time>
      </trkpt>
      <trkpt lat="46.25575" lon="5.40756">
        <ele>318.2</ele>
        <time>2022-02-24T16:35:08Z</time>
      </trkpt>
      <trkpt lat="46.25578" lon="5.4076">
        <ele>318.6</ele>
        <time>2022-02-24T16:35:09Z</time>
      </trkpt>
      <trkpt lat="46.25582" lon="5.40762">
        <ele>318.6</ele>
        <time>2022-02-24T16:35:10Z</time>
      </trkpt>
      <trkpt lat="46.25585" lon="5.40765">
        <ele>319</ele>
        <time>2022-02-24T16:35:11Z</time>
      </trkpt>
      <trkpt lat="46.25588" lon="5.40768">
        <ele>319</ele>
        <time>2022-02-24T16:35:12Z</time>
      </trkpt>
      <trkpt lat="46.25591" lon="5.40771">
        <ele>319.2</ele>
        <time>2022-02-24T16:35:13Z</time>
      </trkpt>
      <trkpt lat="46.25594" lon="5.40774">
        <ele>319.2</ele>
        <time>2022-02-24T16:35:14Z</time>
      </trkpt>
      <trkpt lat="46.25597" lon="5.40776">
        <ele>319.6</ele>
        <time>2022-02-24T16:35:15Z</time>
      </trkpt>
      <trkpt lat="46.256" lon="5.40779">
        <ele>319.6</ele>
        <time>2022-02-24T16:35:16Z</time>
      </trkpt>
      <trkpt lat="46.25604" lon="5.40782">
        <ele>319.8</ele>
        <time>2022-02-24T16:35:17Z</time>
      </trkpt>
      <trkpt lat="46.25607" lon="5.40785">
        <ele>319.8</ele>
        <time>2022-02-24T16:35:18Z</time>
      </trkpt>
      <trkpt lat="46.2561" lon="5.40788">
        <ele>320</ele>
        <time>2022-02-24T16:35:19Z</time>
      </trkpt>
      <trkpt lat="46.25614" lon="5.40791">
        <ele>320</ele>
        <time>2022-02-24T16:35:20Z</time>
      </trkpt>
      <trkpt lat="46.25617" lon="5.40794">
        <ele>320.4</ele>
        <time>2022-02-24T16:35:21Z</time>
      </trkpt>
      <trkpt lat="46.2562" lon="5.40798">
        <ele>320.4</ele>
        <time>2022-02-24T16:35:22Z</time>
      </trkpt>
      <trkpt lat="46.25622" lon="5.40801">
        <ele>320.4</ele>
        <time>2022-02-24T16:35:23Z</time>
      </trkpt>
      <trkpt lat="46.25625" lon="5.40804">
        <ele>320.6</ele>
        <time>2022-02-24T16:35:24Z</time>
      </trkpt>
      <trkpt lat="46.25627" lon="5.40809">
        <ele>320.6</ele>
        <time>2022-02-24T16:35:25Z</time>
      </trkpt>
      <trkpt lat="46.25629" lon="5.40812">
        <ele>321</ele>
        <time>2022-02-24T16:35:26Z</time>
      </trkpt>
      <trkpt lat="46.2563" lon="5.40816">
        <ele>321</ele>
        <time>2022-02-24T16:35:27Z</time>
      </trkpt>
      <trkpt lat="46.25632" lon="5.4082">
        <ele>321.2</ele>
        <time>2022-02-24T16:35:28Z</time>
      </trkpt>
      <trkpt lat="46.25632" lon="5.40825">
        <ele>321.2</ele>
        <time>2022-02-24T16:35:29Z</time>
      </trkpt>
      <trkpt lat="46.25633" lon="5.4083">
        <ele>321.6</ele>
        <time>2022-02-24T16:35:30Z</time>
      </trkpt>
      <trkpt lat="46.25633" lon="5.40834">
        <ele>321.8</ele>
        <time>2022-02-24T16:35:31Z</time>
      </trkpt>
      <trkpt lat="46.25633" lon="5.40839">
        <ele>321.8</ele>
        <time>2022-02-24T16:35:32Z</time>
      </trkpt>
      <trkpt lat="46.25633" lon="5.40845">
        <ele>322.2</ele>
        <time>2022-02-24T16:35:33Z</time>
      </trkpt>
      <trkpt lat="46.25632" lon="5.4085">
        <ele>322.2</ele>
        <time>2022-02-24T16:35:34Z</time>
      </trkpt>
      <trkpt lat="46.25632" lon="5.40855">
        <ele>322.4</ele>
        <time>2022-02-24T16:35:35Z</time>
      </trkpt>
      <trkpt lat="46.25631" lon="5.4086">
        <ele>322.4</ele>
        <time>2022-02-24T16:35:36Z</time>
      </trkpt>
      <trkpt lat="46.25631" lon="5.40866">
        <ele>322.8</ele>
        <time>2022-02-24T16:35:37Z</time>
      </trkpt>
      <trkpt lat="46.25631" lon="5.40872">
        <ele>322.8</ele>
        <time>2022-02-24T16:35:38Z</time>
      </trkpt>
      <trkpt lat="46.25631" lon="5.40877">
        <ele>323.2</ele>
        <time>2022-02-24T16:35:39Z</time>
      </trkpt>
      <trkpt lat="46.2563" lon="5.40882">
        <ele>323.2</ele>
        <time>2022-02-24T16:35:40Z</time>
      </trkpt>
      <trkpt lat="46.2563" lon="5.40888">
        <ele>323.6</ele>
        <time>2022-02-24T16:35:41Z</time>
      </trkpt>
      <trkpt lat="46.25629" lon="5.40892">
        <ele>323.6</ele>
        <time>2022-02-24T16:35:42Z</time>
      </trkpt>
      <trkpt lat="46.25628" lon="5.40898">
        <ele>323.8</ele>
        <time>2022-02-24T16:35:43Z</time>
      </trkpt>
      <trkpt lat="46.25628" lon="5.40903">
        <ele>323.8</ele>
        <time>2022-02-24T16:35:44Z</time>
      </trkpt>
      <trkpt lat="46.25628" lon="5.40909">
        <ele>324.2</ele>
        <time>2022-02-24T16:35:45Z</time>
      </trkpt>
      <trkpt lat="46.25627" lon="5.40915">
        <ele>324.2</ele>
        <time>2022-02-24T16:35:46Z</time>
      </trkpt>
      <trkpt lat="46.25627" lon="5.4092">
        <ele>324.2</ele>
        <time>2022-02-24T16:35:47Z</time>
      </trkpt>
      <trkpt lat="46.25627" lon="5.40927">
        <ele>324.2</ele>
        <time>2022-02-24T16:35:48Z</time>
      </trkpt>
      <trkpt lat="46.25626" lon="5.40934">
        <ele>324.2</ele>
        <time>2022-02-24T16:35:49Z</time>
      </trkpt>
      <trkpt lat="46.25626" lon="5.40941">
        <ele>324.2</ele>
        <time>2022-02-24T16:35:50Z</time>
      </trkpt>
      <trkpt lat="46.25626" lon="5.40948">
        <ele>324.2</ele>
        <time>2022-02-24T16:35:51Z</time>
      </trkpt>
      <trkpt lat="46.25626" lon="5.40955">
        <ele>324.2</ele>
        <time>2022-02-24T16:35:52Z</time>
      </trkpt>
      <trkpt lat="46.25627" lon="5.40963">
        <ele>323.8</ele>
        <time>2022-02-24T16:35:53Z</time>
      </trkpt>
      <trkpt lat="46.25629" lon="5.40971">
        <ele>323.6</ele>
        <time>2022-02-24T16:35:54Z</time>
      </trkpt>
      <trkpt lat="46.25632" lon="5.40979">
        <ele>323.6</ele>
        <time>2022-02-24T16:35:55Z</time>
      </trkpt>
      <trkpt lat="46.25635" lon="5.40987">
        <ele>323.4</ele>
        <time>2022-02-24T16:35:56Z</time>
      </trkpt>
      <trkpt lat="46.25639" lon="5.40995">
        <ele>323</ele>
        <time>2022-02-24T16:35:57Z</time>
      </trkpt>
      <trkpt lat="46.25643" lon="5.41004">
        <ele>322.8</ele>
        <time>2022-02-24T16:35:58Z</time>
      </trkpt>
      <trkpt lat="46.25647" lon="5.41013">
        <ele>322.4</ele>
        <time>2022-02-24T16:35:59Z</time>
      </trkpt>
      <trkpt lat="46.25651" lon="5.41021">
        <ele>322.2</ele>
        <time>2022-02-24T16:36:00Z</time>
      </trkpt>
      <trkpt lat="46.25655" lon="5.41031">
        <ele>321.8</ele>
        <time>2022-02-24T16:36:01Z</time>
      </trkpt>
      <trkpt lat="46.25658" lon="5.4104">
        <ele>321.4</ele>
        <time>2022-02-24T16:36:02Z</time>
      </trkpt>
      <trkpt lat="46.25661" lon="5.4105">
        <ele>321.4</ele>
        <time>2022-02-24T16:36:03Z</time>
      </trkpt>
      <trkpt lat="46.25663" lon="5.4106">
        <ele>321.2</ele>
        <time>2022-02-24T16:36:04Z</time>
      </trkpt>
      <trkpt lat="46.25665" lon="5.41069">
        <ele>321.2</ele>
        <time>2022-02-24T16:36:05Z</time>
      </trkpt>
      <trkpt lat="46.25666" lon="5.41079">
        <ele>320.8</ele>
        <time>2022-02-24T16:36:06Z</time>
      </trkpt>
      <trkpt lat="46.25668" lon="5.41088">
        <ele>320.8</ele>
        <time>2022-02-24T16:36:07Z</time>
      </trkpt>
      <trkpt lat="46.25671" lon="5.41098">
        <ele>320.8</ele>
        <time>2022-02-24T16:36:08Z</time>
      </trkpt>
      <trkpt lat="46.25674" lon="5.41106">
        <ele>320.8</ele>
        <time>2022-02-24T16:36:09Z</time>
      </trkpt>
      <trkpt lat="46.25678" lon="5.41115">
        <ele>320.8</ele>
        <time>2022-02-24T16:36:10Z</time>
      </trkpt>
      <trkpt lat="46.25683" lon="5.41122">
        <ele>320.6</ele>
        <time>2022-02-24T16:36:11Z</time>
      </trkpt>
      <trkpt lat="46.25688" lon="5.41129">
        <ele>320.6</ele>
        <time>2022-02-24T16:36:12Z</time>
      </trkpt>
      <trkpt lat="46.25693" lon="5.41135">
        <ele>320.6</ele>
        <time>2022-02-24T16:36:13Z</time>
      </trkpt>
      <trkpt lat="46.25699" lon="5.41141">
        <ele>320.4</ele>
        <time>2022-02-24T16:36:14Z</time>
      </trkpt>
      <trkpt lat="46.25705" lon="5.41147">
        <ele>320.4</ele>
        <time>2022-02-24T16:36:15Z</time>
      </trkpt>
      <trkpt lat="46.2571" lon="5.41152">
        <ele>320.2</ele>
        <time>2022-02-24T16:36:16Z</time>
      </trkpt>
      <trkpt lat="46.25716" lon="5.41158">
        <ele>320.2</ele>
        <time>2022-02-24T16:36:17Z</time>
      </trkpt>
      <trkpt lat="46.25722" lon="5.41164">
        <ele>320</ele>
        <time>2022-02-24T16:36:18Z</time>
      </trkpt>
      <trkpt lat="46.25727" lon="5.4117">
        <ele>319.8</ele>
        <time>2022-02-24T16:36:19Z</time>
      </trkpt>
      <trkpt lat="46.25733" lon="5.41177">
        <ele>319.4</ele>
        <time>2022-02-24T16:36:20Z</time>
      </trkpt>
      <trkpt lat="46.25738" lon="5.41185">
        <ele>319.2</ele>
        <time>2022-02-24T16:36:21Z</time>
      </trkpt>
      <trkpt lat="46.25744" lon="5.41193">
        <ele>318.8</ele>
        <time>2022-02-24T16:36:22Z</time>
      </trkpt>
      <trkpt lat="46.25748" lon="5.41202">
        <ele>318.6</ele>
        <time>2022-02-24T16:36:23Z</time>
      </trkpt>
      <trkpt lat="46.25752" lon="5.41212">
        <ele>318.2</ele>
        <time>2022-02-24T16:36:24Z</time>
      </trkpt>
      <trkpt lat="46.25755" lon="5.41223">
        <ele>318</ele>
        <time>2022-02-24T16:36:25Z</time>
      </trkpt>
      <trkpt lat="46.25757" lon="5.41233">
        <ele>317.6</ele>
        <time>2022-02-24T16:36:26Z</time>
      </trkpt>
      <trkpt lat="46.25759" lon="5.41244">
        <ele>317.4</ele>
        <time>2022-02-24T16:36:27Z</time>
      </trkpt>
      <trkpt lat="46.2576" lon="5.41255">
        <ele>317.4</ele>
        <time>2022-02-24T16:36:28Z</time>
      </trkpt>
      <trkpt lat="46.2576" lon="5.41266">
        <ele>317.2</ele>
        <time>2022-02-24T16:36:29Z</time>
      </trkpt>
      <trkpt lat="46.2576" lon="5.41277">
        <ele>317.2</ele>
        <time>2022-02-24T16:36:30Z</time>
      </trkpt>
      <trkpt lat="46.25759" lon="5.41288">
        <ele>316.8</ele>
        <time>2022-02-24T16:36:31Z</time>
      </trkpt>
      <trkpt lat="46.25758" lon="5.41297">
        <ele>316.8</ele>
        <time>2022-02-24T16:36:32Z</time>
      </trkpt>
      <trkpt lat="46.25757" lon="5.41307">
        <ele>316.8</ele>
        <time>2022-02-24T16:36:33Z</time>
      </trkpt>
      <trkpt lat="46.25756" lon="5.41317">
        <ele>316.8</ele>
        <time>2022-02-24T16:36:34Z</time>
      </trkpt>
      <trkpt lat="46.25755" lon="5.41327">
        <ele>316.8</ele>
        <time>2022-02-24T16:36:35Z</time>
      </trkpt>
      <trkpt lat="46.25754" lon="5.41336">
        <ele>316.8</ele>
        <time>2022-02-24T16:36:36Z</time>
      </trkpt>
      <trkpt lat="46.25753" lon="5.41344">
        <ele>316.8</ele>
        <time>2022-02-24T16:36:37Z</time>
      </trkpt>
      <trkpt lat="46.25752" lon="5.41353">
        <ele>316.8</ele>
        <time>2022-02-24T16:36:38Z</time>
      </trkpt>
      <trkpt lat="46.25752" lon="5.41361">
        <ele>317.2</ele>
        <time>2022-02-24T16:36:39Z</time>
      </trkpt>
      <trkpt lat="46.25751" lon="5.41369">
        <ele>317.2</ele>
        <time>2022-02-24T16:36:40Z</time>
      </trkpt>
      <trkpt lat="46.25751" lon="5.41377">
        <ele>317.4</ele>
        <time>2022-02-24T16:36:41Z</time>
      </trkpt>
      <trkpt lat="46.25751" lon="5.41384">
        <ele>317.6</ele>
        <time>2022-02-24T16:36:42Z</time>
      </trkpt>
      <trkpt lat="46.25751" lon="5.41391">
        <ele>317.8</ele>
        <time>2022-02-24T16:36:43Z</time>
      </trkpt>
      <trkpt lat="46.25752" lon="5.41398">
        <ele>318.2</ele>
        <time>2022-02-24T16:36:44Z</time>
      </trkpt>
      <trkpt lat="46.25753" lon="5.41404">
        <ele>318.2</ele>
        <time>2022-02-24T16:36:45Z</time>
      </trkpt>
      <trkpt lat="46.25753" lon="5.4141">
        <ele>318.4</ele>
        <time>2022-02-24T16:36:46Z</time>
      </trkpt>
      <trkpt lat="46.25755" lon="5.41416">
        <ele>318.4</ele>
        <time>2022-02-24T16:36:47Z</time>
      </trkpt>
      <trkpt lat="46.25756" lon="5.41421">
        <ele>318.8</ele>
        <time>2022-02-24T16:36:48Z</time>
      </trkpt>
      <trkpt lat="46.25758" lon="5.41425">
        <ele>319</ele>
        <time>2022-02-24T16:36:49Z</time>
      </trkpt>
      <trkpt lat="46.2576" lon="5.41429">
        <ele>319.2</ele>
        <time>2022-02-24T16:36:50Z</time>
      </trkpt>
      <trkpt lat="46.25762" lon="5.41433">
        <ele>319.6</ele>
        <time>2022-02-24T16:36:51Z</time>
      </trkpt>
      <trkpt lat="46.25764" lon="5.41436">
        <ele>319.8</ele>
        <time>2022-02-24T16:36:52Z</time>
      </trkpt>
      <trkpt lat="46.25767" lon="5.4144">
        <ele>320</ele>
        <time>2022-02-24T16:36:53Z</time>
      </trkpt>
      <trkpt lat="46.25769" lon="5.41444">
        <ele>320.2</ele>
        <time>2022-02-24T16:36:54Z</time>
      </trkpt>
      <trkpt lat="46.25772" lon="5.41447">
        <ele>320.6</ele>
        <time>2022-02-24T16:36:55Z</time>
      </trkpt>
      <trkpt lat="46.25775" lon="5.41451">
        <ele>320.8</ele>
        <time>2022-02-24T16:36:56Z</time>
      </trkpt>
      <trkpt lat="46.25777" lon="5.41454">
        <ele>321</ele>
        <time>2022-02-24T16:36:57Z</time>
      </trkpt>
      <trkpt lat="46.2578" lon="5.41458">
        <ele>321.6</ele>
        <time>2022-02-24T16:36:58Z</time>
      </trkpt>
      <trkpt lat="46.25782" lon="5.41461">
        <ele>321.8</ele>
        <time>2022-02-24T16:36:59Z</time>
      </trkpt>
      <trkpt lat="46.25785" lon="5.41464">
        <ele>322</ele>
        <time>2022-02-24T16:37:00Z</time>
      </trkpt>
      <trkpt lat="46.25787" lon="5.41466">
        <ele>322.2</ele>
        <time>2022-02-24T16:37:01Z</time>
      </trkpt>
      <trkpt lat="46.2579" lon="5.41468">
        <ele>322.4</ele>
        <time>2022-02-24T16:37:02Z</time>
      </trkpt>
      <trkpt lat="46.25793" lon="5.4147">
        <ele>322.8</ele>
        <time>2022-02-24T16:37:03Z</time>
      </trkpt>
      <trkpt lat="46.25796" lon="5.41471">
        <ele>323</ele>
        <time>2022-02-24T16:37:04Z</time>
      </trkpt>
      <trkpt lat="46.25799" lon="5.41472">
        <ele>323.2</ele>
        <time>2022-02-24T16:37:05Z</time>
      </trkpt>
      <trkpt lat="46.25801" lon="5.41473">
        <ele>323.4</ele>
        <time>2022-02-24T16:37:06Z</time>
      </trkpt>
      <trkpt lat="46.25803" lon="5.41475">
        <ele>323.6</ele>
        <time>2022-02-24T16:37:07Z</time>
      </trkpt>
      <trkpt lat="46.25805" lon="5.41476">
        <ele>323.6</ele>
        <time>2022-02-24T16:37:08Z</time>
      </trkpt>
      <trkpt lat="46.25808" lon="5.41477">
        <ele>324</ele>
        <time>2022-02-24T16:37:09Z</time>
      </trkpt>
      <trkpt lat="46.25811" lon="5.41478">
        <ele>324.4</ele>
        <time>2022-02-24T16:37:10Z</time>
      </trkpt>
      <trkpt lat="46.25814" lon="5.41479">
        <ele>324.4</ele>
        <time>2022-02-24T16:37:11Z</time>
      </trkpt>
      <trkpt lat="46.25817" lon="5.41481">
        <ele>324.8</ele>
        <time>2022-02-24T16:37:12Z</time>
      </trkpt>
      <trkpt lat="46.25819" lon="5.41483">
        <ele>324.8</ele>
        <time>2022-02-24T16:37:13Z</time>
      </trkpt>
      <trkpt lat="46.25822" lon="5.41485">
        <ele>325</ele>
        <time>2022-02-24T16:37:14Z</time>
      </trkpt>
      <trkpt lat="46.25824" lon="5.41486">
        <ele>325.2</ele>
        <time>2022-02-24T16:37:15Z</time>
      </trkpt>
      <trkpt lat="46.25826" lon="5.41487">
        <ele>325.4</ele>
        <time>2022-02-24T16:37:16Z</time>
      </trkpt>
      <trkpt lat="46.25829" lon="5.41488">
        <ele>325.4</ele>
        <time>2022-02-24T16:37:17Z</time>
      </trkpt>
      <trkpt lat="46.25832" lon="5.41489">
        <ele>325.8</ele>
        <time>2022-02-24T16:37:18Z</time>
      </trkpt>
      <trkpt lat="46.25835" lon="5.4149">
        <ele>325.8</ele>
        <time>2022-02-24T16:37:19Z</time>
      </trkpt>
      <trkpt lat="46.25838" lon="5.41492">
        <ele>326.2</ele>
        <time>2022-02-24T16:37:20Z</time>
      </trkpt>
      <trkpt lat="46.2584" lon="5.41493">
        <ele>326.2</ele>
        <time>2022-02-24T16:37:21Z</time>
      </trkpt>
      <trkpt lat="46.25843" lon="5.41494">
        <ele>326.6</ele>
        <time>2022-02-24T16:37:22Z</time>
      </trkpt>
      <trkpt lat="46.25846" lon="5.41495">
        <ele>326.6</ele>
        <time>2022-02-24T16:37:23Z</time>
      </trkpt>
      <trkpt lat="46.25849" lon="5.41497">
        <ele>326.8</ele>
        <time>2022-02-24T16:37:24Z</time>
      </trkpt>
      <trkpt lat="46.25852" lon="5.41498">
        <ele>326.8</ele>
        <time>2022-02-24T16:37:25Z</time>
      </trkpt>
      <trkpt lat="46.25855" lon="5.41499">
        <ele>327</ele>
        <time>2022-02-24T16:37:26Z</time>
      </trkpt>
      <trkpt lat="46.25858" lon="5.415">
        <ele>327</ele>
        <time>2022-02-24T16:37:27Z</time>
      </trkpt>
      <trkpt lat="46.2586" lon="5.41502">
        <ele>327.4</ele>
        <time>2022-02-24T16:37:28Z</time>
      </trkpt>
      <trkpt lat="46.25863" lon="5.41503">
        <ele>327.6</ele>
        <time>2022-02-24T16:37:29Z</time>
      </trkpt>
      <trkpt lat="46.25866" lon="5.41505">
        <ele>327.6</ele>
        <time>2022-02-24T16:37:30Z</time>
      </trkpt>
      <trkpt lat="46.25869" lon="5.41506">
        <ele>327.8</ele>
        <time>2022-02-24T16:37:31Z</time>
      </trkpt>
      <trkpt lat="46.25872" lon="5.41508">
        <ele>327.8</ele>
        <time>2022-02-24T16:37:32Z</time>
      </trkpt>
      <trkpt lat="46.25874" lon="5.4151">
        <ele>328.2</ele>
        <time>2022-02-24T16:37:33Z</time>
      </trkpt>
      <trkpt lat="46.25877" lon="5.41511">
        <ele>328.2</ele>
        <time>2022-02-24T16:37:34Z</time>
      </trkpt>
      <trkpt lat="46.2588" lon="5.41512">
        <ele>328.4</ele>
        <time>2022-02-24T16:37:35Z</time>
      </trkpt>
      <trkpt lat="46.25883" lon="5.41514">
        <ele>328.4</ele>
        <time>2022-02-24T16:37:36Z</time>
      </trkpt>
      <trkpt lat="46.25885" lon="5.41515">
        <ele>328.8</ele>
        <time>2022-02-24T16:37:37Z</time>
      </trkpt>
      <trkpt lat="46.25888" lon="5.41516">
        <ele>329</ele>
        <time>2022-02-24T16:37:38Z</time>
      </trkpt>
      <trkpt lat="46.2589" lon="5.41518">
        <ele>329.2</ele>
        <time>2022-02-24T16:37:39Z</time>
      </trkpt>
      <trkpt lat="46.25893" lon="5.41519">
        <ele>329.2</ele>
        <time>2022-02-24T16:37:40Z</time>
      </trkpt>
      <trkpt lat="46.25895" lon="5.41521">
        <ele>329.4</ele>
        <time>2022-02-24T16:37:41Z</time>
      </trkpt>
      <trkpt lat="46.25898" lon="5.41523">
        <ele>329.4</ele>
        <time>2022-02-24T16:37:42Z</time>
      </trkpt>
      <trkpt lat="46.25901" lon="5.41525">
        <ele>329.8</ele>
        <time>2022-02-24T16:37:43Z</time>
      </trkpt>
      <trkpt lat="46.25903" lon="5.41526">
        <ele>330</ele>
        <time>2022-02-24T16:37:44Z</time>
      </trkpt>
      <trkpt lat="46.25905" lon="5.41528">
        <ele>330</ele>
        <time>2022-02-24T16:37:45Z</time>
      </trkpt>
      <trkpt lat="46.25908" lon="5.4153">
        <ele>330.4</ele>
        <time>2022-02-24T16:37:46Z</time>
      </trkpt>
      <trkpt lat="46.2591" lon="5.41532">
        <ele>330.6</ele>
        <time>2022-02-24T16:37:47Z</time>
      </trkpt>
      <trkpt lat="46.25913" lon="5.41534">
        <ele>330.6</ele>
        <time>2022-02-24T16:37:48Z</time>
      </trkpt>
      <trkpt lat="46.25916" lon="5.41536">
        <ele>331</ele>
        <time>2022-02-24T16:37:49Z</time>
      </trkpt>
      <trkpt lat="46.25918" lon="5.41538">
        <ele>331</ele>
        <time>2022-02-24T16:37:50Z</time>
      </trkpt>
      <trkpt lat="46.25921" lon="5.4154">
        <ele>331.2</ele>
        <time>2022-02-24T16:37:51Z</time>
      </trkpt>
      <trkpt lat="46.25923" lon="5.41541">
        <ele>331.4</ele>
        <time>2022-02-24T16:37:52Z</time>
      </trkpt>
      <trkpt lat="46.25926" lon="5.41543">
        <ele>331.4</ele>
        <time>2022-02-24T16:37:53Z</time>
      </trkpt>
      <trkpt lat="46.25928" lon="5.41544">
        <ele>331.8</ele>
        <time>2022-02-24T16:37:54Z</time>
      </trkpt>
      <trkpt lat="46.25931" lon="5.41545">
        <ele>331.8</ele>
        <time>2022-02-24T16:37:55Z</time>
      </trkpt>
      <trkpt lat="46.25933" lon="5.41545">
        <ele>332.2</ele>
        <time>2022-02-24T16:37:56Z</time>
      </trkpt>
      <trkpt lat="46.25936" lon="5.41547">
        <ele>332.2</ele>
        <time>2022-02-24T16:37:57Z</time>
      </trkpt>
      <trkpt lat="46.25938" lon="5.41547">
        <ele>332.6</ele>
        <time>2022-02-24T16:37:58Z</time>
      </trkpt>
      <trkpt lat="46.25941" lon="5.41548">
        <ele>332.6</ele>
        <time>2022-02-24T16:37:59Z</time>
      </trkpt>
      <trkpt lat="46.25943" lon="5.41548">
        <ele>333</ele>
        <time>2022-02-24T16:38:00Z</time>
      </trkpt>
      <trkpt lat="46.25946" lon="5.41549">
        <ele>333</ele>
        <time>2022-02-24T16:38:01Z</time>
      </trkpt>
      <trkpt lat="46.25948" lon="5.41549">
        <ele>333.4</ele>
        <time>2022-02-24T16:38:02Z</time>
      </trkpt>
      <trkpt lat="46.25951" lon="5.41548">
        <ele>333.4</ele>
        <time>2022-02-24T16:38:03Z</time>
      </trkpt>
      <trkpt lat="46.25953" lon="5.41547">
        <ele>333.6</ele>
        <time>2022-02-24T16:38:04Z</time>
      </trkpt>
      <trkpt lat="46.25956" lon="5.41547">
        <ele>333.6</ele>
        <time>2022-02-24T16:38:05Z</time>
      </trkpt>
      <trkpt lat="46.25959" lon="5.41546">
        <ele>333.8</ele>
        <time>2022-02-24T16:38:06Z</time>
      </trkpt>
      <trkpt lat="46.25962" lon="5.41546">
        <ele>333.8</ele>
        <time>2022-02-24T16:38:07Z</time>
      </trkpt>
      <trkpt lat="46.25964" lon="5.41547">
        <ele>334.2</ele>
        <time>2022-02-24T16:38:08Z</time>
      </trkpt>
      <trkpt lat="46.25966" lon="5.41547">
        <ele>334.2</ele>
        <time>2022-02-24T16:38:09Z</time>
      </trkpt>
      <trkpt lat="46.25969" lon="5.41547">
        <ele>334.6</ele>
        <time>2022-02-24T16:38:10Z</time>
      </trkpt>
      <trkpt lat="46.25972" lon="5.41548">
        <ele>334.8</ele>
        <time>2022-02-24T16:38:11Z</time>
      </trkpt>
      <trkpt lat="46.25974" lon="5.4155">
        <ele>335.2</ele>
        <time>2022-02-24T16:38:12Z</time>
      </trkpt>
      <trkpt lat="46.25976" lon="5.41552">
        <ele>335.4</ele>
        <time>2022-02-24T16:38:13Z</time>
      </trkpt>
      <trkpt lat="46.25978" lon="5.41555">
        <ele>335.6</ele>
        <time>2022-02-24T16:38:14Z</time>
      </trkpt>
      <trkpt lat="46.25979" lon="5.41557">
        <ele>335.8</ele>
        <time>2022-02-24T16:38:15Z</time>
      </trkpt>
      <trkpt lat="46.25981" lon="5.4156">
        <ele>336</ele>
        <time>2022-02-24T16:38:16Z</time>
      </trkpt>
      <trkpt lat="46.25982" lon="5.41562">
        <ele>336.4</ele>
        <time>2022-02-24T16:38:17Z</time>
      </trkpt>
      <trkpt lat="46.25982" lon="5.41565">
        <ele>336.6</ele>
        <time>2022-02-24T16:38:18Z</time>
      </trkpt>
      <trkpt lat="46.25983" lon="5.41567">
        <ele>336.8</ele>
        <time>2022-02-24T16:38:19Z</time>
      </trkpt>
      <trkpt lat="46.25983" lon="5.4157">
        <ele>337</ele>
        <time>2022-02-24T16:38:20Z</time>
      </trkpt>
      <trkpt lat="46.25983" lon="5.41573">
        <ele>337.2</ele>
        <time>2022-02-24T16:38:21Z</time>
      </trkpt>
      <trkpt lat="46.25983" lon="5.41576">
        <ele>337.2</ele>
        <time>2022-02-24T16:38:22Z</time>
      </trkpt>
      <trkpt lat="46.25982" lon="5.41579">
        <ele>337.6</ele>
        <time>2022-02-24T16:38:23Z</time>
      </trkpt>
      <trkpt lat="46.25982" lon="5.41582">
        <ele>337.6</ele>
        <time>2022-02-24T16:38:24Z</time>
      </trkpt>
      <trkpt lat="46.25982" lon="5.41585">
        <ele>338</ele>
        <time>2022-02-24T16:38:25Z</time>
      </trkpt>
      <trkpt lat="46.25981" lon="5.41589">
        <ele>338</ele>
        <time>2022-02-24T16:38:26Z</time>
      </trkpt>
      <trkpt lat="46.2598" lon="5.41592">
        <ele>338.2</ele>
        <time>2022-02-24T16:38:27Z</time>
      </trkpt>
      <trkpt lat="46.2598" lon="5.41596">
        <ele>338.2</ele>
        <time>2022-02-24T16:38:28Z</time>
      </trkpt>
      <trkpt lat="46.25979" lon="5.41599">
        <ele>338.4</ele>
        <time>2022-02-24T16:38:29Z</time>
      </trkpt>
      <trkpt lat="46.25978" lon="5.41603">
        <ele>338.4</ele>
        <time>2022-02-24T16:38:30Z</time>
      </trkpt>
      <trkpt lat="46.25977" lon="5.41606">
        <ele>338.8</ele>
        <time>2022-02-24T16:38:31Z</time>
      </trkpt>
      <trkpt lat="46.25976" lon="5.41609">
        <ele>338.8</ele>
        <time>2022-02-24T16:38:32Z</time>
      </trkpt>
      <trkpt lat="46.25976" lon="5.41612">
        <ele>339</ele>
        <time>2022-02-24T16:38:33Z</time>
      </trkpt>
      <trkpt lat="46.25975" lon="5.41616">
        <ele>339</ele>
        <time>2022-02-24T16:38:34Z</time>
      </trkpt>
      <trkpt lat="46.25974" lon="5.4162">
        <ele>339.4</ele>
        <time>2022-02-24T16:38:35Z</time>
      </trkpt>
      <trkpt lat="46.25973" lon="5.41624">
        <ele>339.4</ele>
        <time>2022-02-24T16:38:36Z</time>
      </trkpt>
      <trkpt lat="46.25973" lon="5.41627">
        <ele>339.6</ele>
        <time>2022-02-24T16:38:37Z</time>
      </trkpt>
      <trkpt lat="46.25973" lon="5.4163">
        <ele>339.6</ele>
        <time>2022-02-24T16:38:38Z</time>
      </trkpt>
      <trkpt lat="46.25972" lon="5.41633">
        <ele>340</ele>
        <time>2022-02-24T16:38:39Z</time>
      </trkpt>
      <trkpt lat="46.25971" lon="5.41636">
        <ele>340</ele>
        <time>2022-02-24T16:38:40Z</time>
      </trkpt>
      <trkpt lat="46.2597" lon="5.41639">
        <ele>340.2</ele>
        <time>2022-02-24T16:38:41Z</time>
      </trkpt>
      <trkpt lat="46.25969" lon="5.41642">
        <ele>340.2</ele>
        <time>2022-02-24T16:38:42Z</time>
      </trkpt>
      <trkpt lat="46.25969" lon="5.41645">
        <ele>340.6</ele>
        <time>2022-02-24T16:38:43Z</time>
      </trkpt>
      <trkpt lat="46.25968" lon="5.41647">
        <ele>340.6</ele>
        <time>2022-02-24T16:38:44Z</time>
      </trkpt>
      <trkpt lat="46.25968" lon="5.4165">
        <ele>341</ele>
        <time>2022-02-24T16:38:45Z</time>
      </trkpt>
      <trkpt lat="46.25968" lon="5.41653">
        <ele>341</ele>
        <time>2022-02-24T16:38:46Z</time>
      </trkpt>
      <trkpt lat="46.25967" lon="5.41655">
        <ele>341</ele>
        <time>2022-02-24T16:38:47Z</time>
      </trkpt>
      <trkpt lat="46.25968" lon="5.41657">
        <ele>341.2</ele>
        <time>2022-02-24T16:38:48Z</time>
      </trkpt>
      <trkpt lat="46.25968" lon="5.41659">
        <ele>341.2</ele>
        <time>2022-02-24T16:38:49Z</time>
      </trkpt>
      <trkpt lat="46.25968" lon="5.41661">
        <ele>341.2</ele>
        <time>2022-02-24T16:38:50Z</time>
      </trkpt>
      <trkpt lat="46.25968" lon="5.41662">
        <ele>341.4</ele>
        <time>2022-02-24T16:38:51Z</time>
      </trkpt>
      <trkpt lat="46.25968" lon="5.41676">
        <ele>342.4</ele>
        <time>2022-02-24T16:45:39Z</time>
      </trkpt>
      <trkpt lat="46.25968" lon="5.41678">
        <ele>342.4</ele>
        <time>2022-02-24T16:45:40Z</time>
      </trkpt>
      <trkpt lat="46.25967" lon="5.41681">
        <ele>342.4</ele>
        <time>2022-02-24T16:45:41Z</time>
      </trkpt>
      <trkpt lat="46.25966" lon="5.41685">
        <ele>342.4</ele>
        <time>2022-02-24T16:45:42Z</time>
      </trkpt>
      <trkpt lat="46.25966" lon="5.41689">
        <ele>342.4</ele>
        <time>2022-02-24T16:45:43Z</time>
      </trkpt>
      <trkpt lat="46.25966" lon="5.41693">
        <ele>342.4</ele>
        <time>2022-02-24T16:45:44Z</time>
      </trkpt>
      <trkpt lat="46.25966" lon="5.41697">
        <ele>342.4</ele>
        <time>2022-02-24T16:45:45Z</time>
      </trkpt>
      <trkpt lat="46.25967" lon="5.41701">
        <ele>342.4</ele>
        <time>2022-02-24T16:45:46Z</time>
      </trkpt>
      <trkpt lat="46.25967" lon="5.41705">
        <ele>342.6</ele>
        <time>2022-02-24T16:45:47Z</time>
      </trkpt>
      <trkpt lat="46.25968" lon="5.41709">
        <ele>342.6</ele>
        <time>2022-02-24T16:45:48Z</time>
      </trkpt>
      <trkpt lat="46.25968" lon="5.41713">
        <ele>342.6</ele>
        <time>2022-02-24T16:45:49Z</time>
      </trkpt>
      <trkpt lat="46.25969" lon="5.41717">
        <ele>342.8</ele>
        <time>2022-02-24T16:45:50Z</time>
      </trkpt>
      <trkpt lat="46.2597" lon="5.41721">
        <ele>342.8</ele>
        <time>2022-02-24T16:45:51Z</time>
      </trkpt>
      <trkpt lat="46.2597" lon="5.41725">
        <ele>343.2</ele>
        <time>2022-02-24T16:45:52Z</time>
      </trkpt>
      <trkpt lat="46.25971" lon="5.41729">
        <ele>343.2</ele>
        <time>2022-02-24T16:45:53Z</time>
      </trkpt>
      <trkpt lat="46.25971" lon="5.41733">
        <ele>343.2</ele>
        <time>2022-02-24T16:45:54Z</time>
      </trkpt>
      <trkpt lat="46.25971" lon="5.41738">
        <ele>343.4</ele>
        <time>2022-02-24T16:45:55Z</time>
      </trkpt>
      <trkpt lat="46.25971" lon="5.41742">
        <ele>343.4</ele>
        <time>2022-02-24T16:45:56Z</time>
      </trkpt>
      <trkpt lat="46.25971" lon="5.41747">
        <ele>343.6</ele>
        <time>2022-02-24T16:45:57Z</time>
      </trkpt>
      <trkpt lat="46.25971" lon="5.41751">
        <ele>343.6</ele>
        <time>2022-02-24T16:45:58Z</time>
      </trkpt>
      <trkpt lat="46.25972" lon="5.41756">
        <ele>344</ele>
        <time>2022-02-24T16:45:59Z</time>
      </trkpt>
      <trkpt lat="46.25971" lon="5.4176">
        <ele>344</ele>
        <time>2022-02-24T16:46:00Z</time>
      </trkpt>
      <trkpt lat="46.25971" lon="5.41764">
        <ele>344.2</ele>
        <time>2022-02-24T16:46:01Z</time>
      </trkpt>
      <trkpt lat="46.25971" lon="5.41768">
        <ele>344.2</ele>
        <time>2022-02-24T16:46:02Z</time>
      </trkpt>
      <trkpt lat="46.25972" lon="5.41772">
        <ele>344.2</ele>
        <time>2022-02-24T16:46:03Z</time>
      </trkpt>
      <trkpt lat="46.25972" lon="5.41776">
        <ele>344.4</ele>
        <time>2022-02-24T16:46:04Z</time>
      </trkpt>
      <trkpt lat="46.25973" lon="5.4178">
        <ele>344.4</ele>
        <time>2022-02-24T16:46:05Z</time>
      </trkpt>
      <trkpt lat="46.25973" lon="5.41784">
        <ele>344.8</ele>
        <time>2022-02-24T16:46:06Z</time>
      </trkpt>
      <trkpt lat="46.25974" lon="5.41788">
        <ele>344.8</ele>
        <time>2022-02-24T16:46:07Z</time>
      </trkpt>
      <trkpt lat="46.25975" lon="5.41793">
        <ele>344.8</ele>
        <time>2022-02-24T16:46:08Z</time>
      </trkpt>
      <trkpt lat="46.25975" lon="5.41798">
        <ele>345</ele>
        <time>2022-02-24T16:46:09Z</time>
      </trkpt>
      <trkpt lat="46.25976" lon="5.41802">
        <ele>345</ele>
        <time>2022-02-24T16:46:10Z</time>
      </trkpt>
      <trkpt lat="46.25977" lon="5.41807">
        <ele>345</ele>
        <time>2022-02-24T16:46:11Z</time>
      </trkpt>
      <trkpt lat="46.25978" lon="5.41812">
        <ele>345.2</ele>
        <time>2022-02-24T16:46:12Z</time>
      </trkpt>
      <trkpt lat="46.25979" lon="5.41817">
        <ele>345.2</ele>
        <time>2022-02-24T16:46:13Z</time>
      </trkpt>
      <trkpt lat="46.25981" lon="5.41822">
        <ele>345.6</ele>
        <time>2022-02-24T16:46:14Z</time>
      </trkpt>
      <trkpt lat="46.25983" lon="5.41827">
        <ele>345.6</ele>
        <time>2022-02-24T16:46:15Z</time>
      </trkpt>
      <trkpt lat="46.25985" lon="5.41832">
        <ele>345.6</ele>
        <time>2022-02-24T16:46:16Z</time>
      </trkpt>
      <trkpt lat="46.25987" lon="5.41837">
        <ele>345.6</ele>
        <time>2022-02-24T16:46:17Z</time>
      </trkpt>
      <trkpt lat="46.25989" lon="5.41842">
        <ele>345.6</ele>
        <time>2022-02-24T16:46:18Z</time>
      </trkpt>
      <trkpt lat="46.25991" lon="5.41848">
        <ele>345.6</ele>
        <time>2022-02-24T16:46:19Z</time>
      </trkpt>
      <trkpt lat="46.25992" lon="5.41854">
        <ele>345.2</ele>
        <time>2022-02-24T16:46:20Z</time>
      </trkpt>
      <trkpt lat="46.25994" lon="5.41861">
        <ele>345.2</ele>
        <time>2022-02-24T16:46:21Z</time>
      </trkpt>
      <trkpt lat="46.25996" lon="5.41868">
        <ele>345</ele>
        <time>2022-02-24T16:46:22Z</time>
      </trkpt>
      <trkpt lat="46.25998" lon="5.41876">
        <ele>345</ele>
        <time>2022-02-24T16:46:23Z</time>
      </trkpt>
      <trkpt lat="46.26002" lon="5.41883">
        <ele>344.8</ele>
        <time>2022-02-24T16:46:24Z</time>
      </trkpt>
      <trkpt lat="46.26005" lon="5.41891">
        <ele>344.8</ele>
        <time>2022-02-24T16:46:25Z</time>
      </trkpt>
      <trkpt lat="46.26009" lon="5.41898">
        <ele>344.4</ele>
        <time>2022-02-24T16:46:26Z</time>
      </trkpt>
      <trkpt lat="46.26013" lon="5.41906">
        <ele>344.4</ele>
        <time>2022-02-24T16:46:27Z</time>
      </trkpt>
      <trkpt lat="46.26017" lon="5.41914">
        <ele>343.8</ele>
        <time>2022-02-24T16:46:28Z</time>
      </trkpt>
      <trkpt lat="46.26023" lon="5.41923">
        <ele>343.6</ele>
        <time>2022-02-24T16:46:29Z</time>
      </trkpt>
      <trkpt lat="46.26028" lon="5.41931">
        <ele>343.2</ele>
        <time>2022-02-24T16:46:30Z</time>
      </trkpt>
      <trkpt lat="46.26033" lon="5.4194">
        <ele>342.8</ele>
        <time>2022-02-24T16:46:31Z</time>
      </trkpt>
      <trkpt lat="46.26039" lon="5.41949">
        <ele>342.6</ele>
        <time>2022-02-24T16:46:32Z</time>
      </trkpt>
      <trkpt lat="46.26045" lon="5.41958">
        <ele>342.2</ele>
        <time>2022-02-24T16:46:33Z</time>
      </trkpt>
      <trkpt lat="46.26051" lon="5.41967">
        <ele>341.2</ele>
        <time>2022-02-24T16:46:34Z</time>
      </trkpt>
      <trkpt lat="46.26057" lon="5.41976">
        <ele>340.8</ele>
        <time>2022-02-24T16:46:35Z</time>
      </trkpt>
      <trkpt lat="46.26064" lon="5.41985">
        <ele>340.2</ele>
        <time>2022-02-24T16:46:36Z</time>
      </trkpt>
      <trkpt lat="46.26071" lon="5.41999">
        <ele>339.8</ele>
        <time>2022-02-24T16:46:37Z</time>
      </trkpt>
      <trkpt lat="46.26078" lon="5.42011">
        <ele>339.2</ele>
        <time>2022-02-24T16:46:38Z</time>
      </trkpt>
      <trkpt lat="46.26085" lon="5.42022">
        <ele>338.6</ele>
        <time>2022-02-24T16:46:39Z</time>
      </trkpt>
      <trkpt lat="46.26093" lon="5.42032">
        <ele>338</ele>
        <time>2022-02-24T16:46:40Z</time>
      </trkpt>
      <trkpt lat="46.26101" lon="5.42043">
        <ele>337.4</ele>
        <time>2022-02-24T16:46:41Z</time>
      </trkpt>
      <trkpt lat="46.26108" lon="5.42053">
        <ele>336.8</ele>
        <time>2022-02-24T16:46:42Z</time>
      </trkpt>
      <trkpt lat="46.26115" lon="5.42062">
        <ele>336</ele>
        <time>2022-02-24T16:46:43Z</time>
      </trkpt>
      <trkpt lat="46.26123" lon="5.42072">
        <ele>335.4</ele>
        <time>2022-02-24T16:46:44Z</time>
      </trkpt>
      <trkpt lat="46.26132" lon="5.42079">
        <ele>334.8</ele>
        <time>2022-02-24T16:46:45Z</time>
      </trkpt>
      <trkpt lat="46.26141" lon="5.42086">
        <ele>334.2</ele>
        <time>2022-02-24T16:46:46Z</time>
      </trkpt>
      <trkpt lat="46.26153" lon="5.4209">
        <ele>333.6</ele>
        <time>2022-02-24T16:46:47Z</time>
      </trkpt>
      <trkpt lat="46.26164" lon="5.42096">
        <ele>333</ele>
        <time>2022-02-24T16:46:48Z</time>
      </trkpt>
      <trkpt lat="46.26175" lon="5.421">
        <ele>332.2</ele>
        <time>2022-02-24T16:46:49Z</time>
      </trkpt>
      <trkpt lat="46.26187" lon="5.42105">
        <ele>331.6</ele>
        <time>2022-02-24T16:46:50Z</time>
      </trkpt>
      <trkpt lat="46.26197" lon="5.42112">
        <ele>330.8</ele>
        <time>2022-02-24T16:46:51Z</time>
      </trkpt>
      <trkpt lat="46.26205" lon="5.42121">
        <ele>330</ele>
        <time>2022-02-24T16:46:52Z</time>
      </trkpt>
      <trkpt lat="46.26212" lon="5.42132">
        <ele>329.2</ele>
        <time>2022-02-24T16:46:53Z</time>
      </trkpt>
      <trkpt lat="46.26217" lon="5.42146">
        <ele>328.6</ele>
        <time>2022-02-24T16:46:54Z</time>
      </trkpt>
      <trkpt lat="46.2622" lon="5.42161">
        <ele>328</ele>
        <time>2022-02-24T16:46:55Z</time>
      </trkpt>
      <trkpt lat="46.26223" lon="5.42176">
        <ele>327.4</ele>
        <time>2022-02-24T16:46:56Z</time>
      </trkpt>
      <trkpt lat="46.26222" lon="5.42192">
        <ele>326.6</ele>
        <time>2022-02-24T16:46:57Z</time>
      </trkpt>
      <trkpt lat="46.26221" lon="5.42209">
        <ele>326</ele>
        <time>2022-02-24T16:46:58Z</time>
      </trkpt>
      <trkpt lat="46.26219" lon="5.42226">
        <ele>325.4</ele>
        <time>2022-02-24T16:46:59Z</time>
      </trkpt>
      <trkpt lat="46.26218" lon="5.42242">
        <ele>324.8</ele>
        <time>2022-02-24T16:47:00Z</time>
      </trkpt>
      <trkpt lat="46.26218" lon="5.42259">
        <ele>324.4</ele>
        <time>2022-02-24T16:47:01Z</time>
      </trkpt>
      <trkpt lat="46.2622" lon="5.42273">
        <ele>324</ele>
        <time>2022-02-24T16:47:02Z</time>
      </trkpt>
      <trkpt lat="46.26221" lon="5.42287">
        <ele>323.6</ele>
        <time>2022-02-24T16:47:03Z</time>
      </trkpt>
      <trkpt lat="46.26223" lon="5.42303">
        <ele>323.4</ele>
        <time>2022-02-24T16:47:04Z</time>
      </trkpt>
      <trkpt lat="46.26224" lon="5.42317">
        <ele>323.4</ele>
        <time>2022-02-24T16:47:05Z</time>
      </trkpt>
      <trkpt lat="46.26225" lon="5.42331">
        <ele>323</ele>
        <time>2022-02-24T16:47:06Z</time>
      </trkpt>
      <trkpt lat="46.26228" lon="5.42344">
        <ele>323</ele>
        <time>2022-02-24T16:47:07Z</time>
      </trkpt>
      <trkpt lat="46.26232" lon="5.42357">
        <ele>322.6</ele>
        <time>2022-02-24T16:47:08Z</time>
      </trkpt>
      <trkpt lat="46.26236" lon="5.42368">
        <ele>322.6</ele>
        <time>2022-02-24T16:47:09Z</time>
      </trkpt>
      <trkpt lat="46.2624" lon="5.42379">
        <ele>322.4</ele>
        <time>2022-02-24T16:47:10Z</time>
      </trkpt>
      <trkpt lat="46.26245" lon="5.42389">
        <ele>322.4</ele>
        <time>2022-02-24T16:47:11Z</time>
      </trkpt>
      <trkpt lat="46.26248" lon="5.424">
        <ele>322.2</ele>
        <time>2022-02-24T16:47:12Z</time>
      </trkpt>
      <trkpt lat="46.26253" lon="5.42409">
        <ele>322.2</ele>
        <time>2022-02-24T16:47:13Z</time>
      </trkpt>
      <trkpt lat="46.26257" lon="5.42418">
        <ele>321.8</ele>
        <time>2022-02-24T16:47:14Z</time>
      </trkpt>
      <trkpt lat="46.26261" lon="5.42428">
        <ele>321.8</ele>
        <time>2022-02-24T16:47:15Z</time>
      </trkpt>
      <trkpt lat="46.26265" lon="5.42436">
        <ele>321.8</ele>
        <time>2022-02-24T16:47:16Z</time>
      </trkpt>
      <trkpt lat="46.2627" lon="5.42444">
        <ele>321.4</ele>
        <time>2022-02-24T16:47:17Z</time>
      </trkpt>
      <trkpt lat="46.26275" lon="5.42451">
        <ele>321.4</ele>
        <time>2022-02-24T16:47:18Z</time>
      </trkpt>
      <trkpt lat="46.2628" lon="5.42457">
        <ele>321</ele>
        <time>2022-02-24T16:47:19Z</time>
      </trkpt>
      <trkpt lat="46.26286" lon="5.42463">
        <ele>320.8</ele>
        <time>2022-02-24T16:47:20Z</time>
      </trkpt>
      <trkpt lat="46.26292" lon="5.42469">
        <ele>320.6</ele>
        <time>2022-02-24T16:47:21Z</time>
      </trkpt>
      <trkpt lat="46.26298" lon="5.42474">
        <ele>320.6</ele>
        <time>2022-02-24T16:47:22Z</time>
      </trkpt>
      <trkpt lat="46.26303" lon="5.42479">
        <ele>320.2</ele>
        <time>2022-02-24T16:47:23Z</time>
      </trkpt>
      <trkpt lat="46.26309" lon="5.42483">
        <ele>320.2</ele>
        <time>2022-02-24T16:47:24Z</time>
      </trkpt>
      <trkpt lat="46.26313" lon="5.42488">
        <ele>320</ele>
        <time>2022-02-24T16:47:25Z</time>
      </trkpt>
      <trkpt lat="46.26318" lon="5.42491">
        <ele>320</ele>
        <time>2022-02-24T16:47:26Z</time>
      </trkpt>
      <trkpt lat="46.26323" lon="5.42496">
        <ele>319.6</ele>
        <time>2022-02-24T16:47:27Z</time>
      </trkpt>
      <trkpt lat="46.26328" lon="5.42501">
        <ele>319.4</ele>
        <time>2022-02-24T16:47:28Z</time>
      </trkpt>
      <trkpt lat="46.26331" lon="5.42508">
        <ele>319.2</ele>
        <time>2022-02-24T16:47:29Z</time>
      </trkpt>
      <trkpt lat="46.26333" lon="5.42516">
        <ele>319.2</ele>
        <time>2022-02-24T16:47:30Z</time>
      </trkpt>
      <trkpt lat="46.26334" lon="5.42524">
        <ele>318.8</ele>
        <time>2022-02-24T16:47:31Z</time>
      </trkpt>
      <trkpt lat="46.26335" lon="5.42532">
        <ele>318.8</ele>
        <time>2022-02-24T16:47:32Z</time>
      </trkpt>
      <trkpt lat="46.26336" lon="5.42539">
        <ele>318.8</ele>
        <time>2022-02-24T16:47:33Z</time>
      </trkpt>
      <trkpt lat="46.26337" lon="5.42547">
        <ele>318.4</ele>
        <time>2022-02-24T16:47:34Z</time>
      </trkpt>
      <trkpt lat="46.26338" lon="5.42553">
        <ele>318.4</ele>
        <time>2022-02-24T16:47:35Z</time>
      </trkpt>
      <trkpt lat="46.26339" lon="5.42558">
        <ele>318.2</ele>
        <time>2022-02-24T16:47:36Z</time>
      </trkpt>
      <trkpt lat="46.2634" lon="5.42563">
        <ele>318.2</ele>
        <time>2022-02-24T16:47:37Z</time>
      </trkpt>
      <trkpt lat="46.2634" lon="5.42567">
        <ele>318.2</ele>
        <time>2022-02-24T16:47:38Z</time>
      </trkpt>
      <trkpt lat="46.2634" lon="5.4257">
        <ele>318.2</ele>
        <time>2022-02-24T16:47:39Z</time>
      </trkpt>
      <trkpt lat="46.26341" lon="5.42572">
        <ele>318.2</ele>
        <time>2022-02-24T16:47:40Z</time>
      </trkpt>
      <trkpt lat="46.26341" lon="5.42574">
        <ele>318.2</ele>
        <time>2022-02-24T16:47:41Z</time>
      </trkpt>
      <trkpt lat="46.26341" lon="5.42575">
        <ele>318</ele>
        <time>2022-02-24T16:47:42Z</time>
      </trkpt>
      <trkpt lat="46.26342" lon="5.42577">
        <ele>318</ele>
        <time>2022-02-24T16:47:43Z</time>
      </trkpt>
      <trkpt lat="46.26343" lon="5.42579">
        <ele>318</ele>
        <time>2022-02-24T16:47:44Z</time>
      </trkpt>
      <trkpt lat="46.26344" lon="5.42581">
        <ele>318</ele>
        <time>2022-02-24T16:47:45Z</time>
      </trkpt>
      <trkpt lat="46.26346" lon="5.42582">
        <ele>318</ele>
        <time>2022-02-24T16:47:46Z</time>
      </trkpt>
      <trkpt lat="46.26349" lon="5.42583">
        <ele>318</ele>
        <time>2022-02-24T16:47:47Z</time>
      </trkpt>
      <trkpt lat="46.26351" lon="5.42583">
        <ele>318</ele>
        <time>2022-02-24T16:47:48Z</time>
      </trkpt>
      <trkpt lat="46.26355" lon="5.42583">
        <ele>318</ele>
        <time>2022-02-24T16:47:49Z</time>
      </trkpt>
      <trkpt lat="46.26358" lon="5.42583">
        <ele>318</ele>
        <time>2022-02-24T16:47:50Z</time>
      </trkpt>
      <trkpt lat="46.26362" lon="5.42583">
        <ele>318</ele>
        <time>2022-02-24T16:47:51Z</time>
      </trkpt>
      <trkpt lat="46.26366" lon="5.42583">
        <ele>318</ele>
        <time>2022-02-24T16:47:52Z</time>
      </trkpt>
      <trkpt lat="46.2637" lon="5.42584">
        <ele>318</ele>
        <time>2022-02-24T16:47:53Z</time>
      </trkpt>
      <trkpt lat="46.26373" lon="5.42584">
        <ele>318</ele>
        <time>2022-02-24T16:47:54Z</time>
      </trkpt>
      <trkpt lat="46.26377" lon="5.42584">
        <ele>318</ele>
        <time>2022-02-24T16:47:55Z</time>
      </trkpt>
      <trkpt lat="46.26381" lon="5.42584">
        <ele>318</ele>
        <time>2022-02-24T16:47:56Z</time>
      </trkpt>
      <trkpt lat="46.26385" lon="5.42584">
        <ele>318</ele>
        <time>2022-02-24T16:47:57Z</time>
      </trkpt>
      <trkpt lat="46.26389" lon="5.42585">
        <ele>318</ele>
        <time>2022-02-24T16:47:58Z</time>
      </trkpt>
      <trkpt lat="46.26393" lon="5.42585">
        <ele>318</ele>
        <time>2022-02-24T16:47:59Z</time>
      </trkpt>
      <trkpt lat="46.26397" lon="5.42586">
        <ele>318</ele>
        <time>2022-02-24T16:48:00Z</time>
      </trkpt>
      <trkpt lat="46.264" lon="5.42587">
        <ele>318</ele>
        <time>2022-02-24T16:48:01Z</time>
      </trkpt>
      <trkpt lat="46.26404" lon="5.42587">
        <ele>318</ele>
        <time>2022-02-24T16:48:02Z</time>
      </trkpt>
      <trkpt lat="46.26407" lon="5.4259">
        <ele>318</ele>
        <time>2022-02-24T16:48:03Z</time>
      </trkpt>
      <trkpt lat="46.2641" lon="5.42593">
        <ele>318</ele>
        <time>2022-02-24T16:48:04Z</time>
      </trkpt>
      <trkpt lat="46.26412" lon="5.42599">
        <ele>318</ele>
        <time>2022-02-24T16:48:05Z</time>
      </trkpt>
      <trkpt lat="46.26413" lon="5.42605">
        <ele>318</ele>
        <time>2022-02-24T16:48:06Z</time>
      </trkpt>
      <trkpt lat="46.26413" lon="5.42612">
        <ele>318</ele>
        <time>2022-02-24T16:48:07Z</time>
      </trkpt>
      <trkpt lat="46.26413" lon="5.4262">
        <ele>318</ele>
        <time>2022-02-24T16:48:08Z</time>
      </trkpt>
      <trkpt lat="46.26411" lon="5.42628">
        <ele>318</ele>
        <time>2022-02-24T16:48:09Z</time>
      </trkpt>
      <trkpt lat="46.2641" lon="5.42635">
        <ele>318</ele>
        <time>2022-02-24T16:48:10Z</time>
      </trkpt>
      <trkpt lat="46.26409" lon="5.42641">
        <ele>318</ele>
        <time>2022-02-24T16:48:11Z</time>
      </trkpt>
      <trkpt lat="46.26408" lon="5.42649">
        <ele>318</ele>
        <time>2022-02-24T16:48:12Z</time>
      </trkpt>
      <trkpt lat="46.26407" lon="5.42656">
        <ele>318</ele>
        <time>2022-02-24T16:48:13Z</time>
      </trkpt>
      <trkpt lat="46.26407" lon="5.42664">
        <ele>318</ele>
        <time>2022-02-24T16:48:14Z</time>
      </trkpt>
      <trkpt lat="46.26408" lon="5.42672">
        <ele>318</ele>
        <time>2022-02-24T16:48:15Z</time>
      </trkpt>
      <trkpt lat="46.26408" lon="5.42681">
        <ele>318</ele>
        <time>2022-02-24T16:48:16Z</time>
      </trkpt>
      <trkpt lat="46.26408" lon="5.42689">
        <ele>318</ele>
        <time>2022-02-24T16:48:17Z</time>
      </trkpt>
      <trkpt lat="46.26408" lon="5.42697">
        <ele>317.8</ele>
        <time>2022-02-24T16:48:18Z</time>
      </trkpt>
      <trkpt lat="46.26408" lon="5.42705">
        <ele>317.8</ele>
        <time>2022-02-24T16:48:19Z</time>
      </trkpt>
      <trkpt lat="46.26409" lon="5.42713">
        <ele>317.8</ele>
        <time>2022-02-24T16:48:20Z</time>
      </trkpt>
      <trkpt lat="46.2641" lon="5.42721">
        <ele>317.6</ele>
        <time>2022-02-24T16:48:21Z</time>
      </trkpt>
      <trkpt lat="46.2641" lon="5.42729">
        <ele>317.6</ele>
        <time>2022-02-24T16:48:22Z</time>
      </trkpt>
      <trkpt lat="46.26411" lon="5.42738">
        <ele>317.4</ele>
        <time>2022-02-24T16:48:23Z</time>
      </trkpt>
      <trkpt lat="46.26412" lon="5.42746">
        <ele>317.4</ele>
        <time>2022-02-24T16:48:24Z</time>
      </trkpt>
      <trkpt lat="46.26414" lon="5.42754">
        <ele>317.4</ele>
        <time>2022-02-24T16:48:25Z</time>
      </trkpt>
      <trkpt lat="46.26415" lon="5.42763">
        <ele>317.4</ele>
        <time>2022-02-24T16:48:26Z</time>
      </trkpt>
      <trkpt lat="46.26418" lon="5.42771">
        <ele>317.4</ele>
        <time>2022-02-24T16:48:27Z</time>
      </trkpt>
      <trkpt lat="46.2642" lon="5.4278">
        <ele>317.4</ele>
        <time>2022-02-24T16:48:28Z</time>
      </trkpt>
      <trkpt lat="46.26423" lon="5.42788">
        <ele>317.4</ele>
        <time>2022-02-24T16:48:29Z</time>
      </trkpt>
      <trkpt lat="46.26425" lon="5.42795">
        <ele>317.4</ele>
        <time>2022-02-24T16:48:30Z</time>
      </trkpt>
      <trkpt lat="46.26428" lon="5.42803">
        <ele>317.4</ele>
        <time>2022-02-24T16:48:31Z</time>
      </trkpt>
      <trkpt lat="46.26431" lon="5.42811">
        <ele>317.4</ele>
        <time>2022-02-24T16:48:32Z</time>
      </trkpt>
      <trkpt lat="46.26433" lon="5.42819">
        <ele>317.4</ele>
        <time>2022-02-24T16:48:33Z</time>
      </trkpt>
      <trkpt lat="46.26435" lon="5.42827">
        <ele>317.4</ele>
        <time>2022-02-24T16:48:34Z</time>
      </trkpt>
      <trkpt lat="46.26437" lon="5.42835">
        <ele>317.4</ele>
        <time>2022-02-24T16:48:35Z</time>
      </trkpt>
      <trkpt lat="46.26439" lon="5.42843">
        <ele>317</ele>
        <time>2022-02-24T16:48:36Z</time>
      </trkpt>
      <trkpt lat="46.26441" lon="5.42852">
        <ele>317</ele>
        <time>2022-02-24T16:48:37Z</time>
      </trkpt>
      <trkpt lat="46.26443" lon="5.42861">
        <ele>317</ele>
        <time>2022-02-24T16:48:38Z</time>
      </trkpt>
      <trkpt lat="46.26444" lon="5.4287">
        <ele>317</ele>
        <time>2022-02-24T16:48:39Z</time>
      </trkpt>
      <trkpt lat="46.26445" lon="5.42879">
        <ele>316.8</ele>
        <time>2022-02-24T16:48:40Z</time>
      </trkpt>
      <trkpt lat="46.26445" lon="5.42888">
        <ele>316.8</ele>
        <time>2022-02-24T16:48:41Z</time>
      </trkpt>
      <trkpt lat="46.26445" lon="5.42897">
        <ele>316.8</ele>
        <time>2022-02-24T16:48:42Z</time>
      </trkpt>
      <trkpt lat="46.26446" lon="5.42905">
        <ele>316.8</ele>
        <time>2022-02-24T16:48:43Z</time>
      </trkpt>
      <trkpt lat="46.26446" lon="5.42914">
        <ele>317.2</ele>
        <time>2022-02-24T16:48:44Z</time>
      </trkpt>
      <trkpt lat="46.26446" lon="5.42922">
        <ele>317.2</ele>
        <time>2022-02-24T16:48:45Z</time>
      </trkpt>
      <trkpt lat="46.26446" lon="5.42929">
        <ele>317.4</ele>
        <time>2022-02-24T16:48:46Z</time>
      </trkpt>
      <trkpt lat="46.26446" lon="5.42937">
        <ele>317.4</ele>
        <time>2022-02-24T16:48:47Z</time>
      </trkpt>
      <trkpt lat="46.26447" lon="5.42944">
        <ele>317.6</ele>
        <time>2022-02-24T16:48:48Z</time>
      </trkpt>
      <trkpt lat="46.26447" lon="5.42951">
        <ele>317.6</ele>
        <time>2022-02-24T16:48:49Z</time>
      </trkpt>
      <trkpt lat="46.26447" lon="5.42959">
        <ele>317.6</ele>
        <time>2022-02-24T16:48:50Z</time>
      </trkpt>
      <trkpt lat="46.26447" lon="5.42966">
        <ele>317.6</ele>
        <time>2022-02-24T16:48:51Z</time>
      </trkpt>
      <trkpt lat="46.26447" lon="5.42974">
        <ele>318</ele>
        <time>2022-02-24T16:48:52Z</time>
      </trkpt>
      <trkpt lat="46.26447" lon="5.42981">
        <ele>318</ele>
        <time>2022-02-24T16:48:53Z</time>
      </trkpt>
      <trkpt lat="46.26447" lon="5.42988">
        <ele>318.2</ele>
        <time>2022-02-24T16:48:54Z</time>
      </trkpt>
      <trkpt lat="46.26447" lon="5.42994">
        <ele>318.2</ele>
        <time>2022-02-24T16:48:55Z</time>
      </trkpt>
      <trkpt lat="46.26447" lon="5.43">
        <ele>318.4</ele>
        <time>2022-02-24T16:48:56Z</time>
      </trkpt>
      <trkpt lat="46.26447" lon="5.43006">
        <ele>318.4</ele>
        <time>2022-02-24T16:48:57Z</time>
      </trkpt>
      <trkpt lat="46.26447" lon="5.43011">
        <ele>318.8</ele>
        <time>2022-02-24T16:48:58Z</time>
      </trkpt>
      <trkpt lat="46.26447" lon="5.43017">
        <ele>319.2</ele>
        <time>2022-02-24T16:48:59Z</time>
      </trkpt>
      <trkpt lat="46.26447" lon="5.43022">
        <ele>319.4</ele>
        <time>2022-02-24T16:49:00Z</time>
      </trkpt>
      <trkpt lat="46.26448" lon="5.43028">
        <ele>319.8</ele>
        <time>2022-02-24T16:49:01Z</time>
      </trkpt>
      <trkpt lat="46.26448" lon="5.43033">
        <ele>320</ele>
        <time>2022-02-24T16:49:02Z</time>
      </trkpt>
      <trkpt lat="46.26448" lon="5.43038">
        <ele>320.2</ele>
        <time>2022-02-24T16:49:03Z</time>
      </trkpt>
      <trkpt lat="46.26447" lon="5.43043">
        <ele>320.4</ele>
        <time>2022-02-24T16:49:04Z</time>
      </trkpt>
      <trkpt lat="46.26448" lon="5.43049">
        <ele>320.6</ele>
        <time>2022-02-24T16:49:05Z</time>
      </trkpt>
      <trkpt lat="46.26448" lon="5.43054">
        <ele>320.8</ele>
        <time>2022-02-24T16:49:06Z</time>
      </trkpt>
      <trkpt lat="46.26448" lon="5.43059">
        <ele>321.2</ele>
        <time>2022-02-24T16:49:07Z</time>
      </trkpt>
      <trkpt lat="46.26448" lon="5.43064">
        <ele>321.2</ele>
        <time>2022-02-24T16:49:08Z</time>
      </trkpt>
      <trkpt lat="46.26448" lon="5.43069">
        <ele>321.6</ele>
        <time>2022-02-24T16:49:09Z</time>
      </trkpt>
      <trkpt lat="46.26448" lon="5.43075">
        <ele>321.6</ele>
        <time>2022-02-24T16:49:10Z</time>
      </trkpt>
      <trkpt lat="46.26448" lon="5.4308">
        <ele>321.8</ele>
        <time>2022-02-24T16:49:11Z</time>
      </trkpt>
      <trkpt lat="46.26448" lon="5.43085">
        <ele>321.8</ele>
        <time>2022-02-24T16:49:12Z</time>
      </trkpt>
      <trkpt lat="46.26448" lon="5.4309">
        <ele>322.2</ele>
        <time>2022-02-24T16:49:13Z</time>
      </trkpt>
      <trkpt lat="46.26448" lon="5.43095">
        <ele>322.6</ele>
        <time>2022-02-24T16:49:14Z</time>
      </trkpt>
      <trkpt lat="46.26448" lon="5.431">
        <ele>322.8</ele>
        <time>2022-02-24T16:49:15Z</time>
      </trkpt>
      <trkpt lat="46.26448" lon="5.431">
        <ele>322.8</ele>
        <time>2022-02-24T16:49:16Z</time>
      </trkpt>
      <trkpt lat="46.26448" lon="5.43105">
        <ele>323.2</ele>
        <time>2022-02-24T16:49:17Z</time>
      </trkpt>
      <trkpt lat="46.26448" lon="5.43111">
        <ele>323.2</ele>
        <time>2022-02-24T16:49:18Z</time>
      </trkpt>
      <trkpt lat="46.26448" lon="5.43116">
        <ele>323.6</ele>
        <time>2022-02-24T16:49:19Z</time>
      </trkpt>
      <trkpt lat="46.26448" lon="5.43121">
        <ele>323.8</ele>
        <time>2022-02-24T16:49:20Z</time>
      </trkpt>
      <trkpt lat="46.26449" lon="5.43125">
        <ele>324.2</ele>
        <time>2022-02-24T16:49:21Z</time>
      </trkpt>
      <trkpt lat="46.26449" lon="5.4313">
        <ele>324.2</ele>
        <time>2022-02-24T16:49:22Z</time>
      </trkpt>
      <trkpt lat="46.26449" lon="5.43135">
        <ele>324.6</ele>
        <time>2022-02-24T16:49:23Z</time>
      </trkpt>
      <trkpt lat="46.26449" lon="5.4314">
        <ele>324.8</ele>
        <time>2022-02-24T16:49:24Z</time>
      </trkpt>
      <trkpt lat="46.26449" lon="5.43144">
        <ele>325</ele>
        <time>2022-02-24T16:49:25Z</time>
      </trkpt>
      <trkpt lat="46.26449" lon="5.43149">
        <ele>325.4</ele>
        <time>2022-02-24T16:49:26Z</time>
      </trkpt>
      <trkpt lat="46.26449" lon="5.43153">
        <ele>325.6</ele>
        <time>2022-02-24T16:49:27Z</time>
      </trkpt>
      <trkpt lat="46.26449" lon="5.43158">
        <ele>325.6</ele>
        <time>2022-02-24T16:49:28Z</time>
      </trkpt>
      <trkpt lat="46.26449" lon="5.43162">
        <ele>326</ele>
        <time>2022-02-24T16:49:29Z</time>
      </trkpt>
      <trkpt lat="46.26449" lon="5.43166">
        <ele>326</ele>
        <time>2022-02-24T16:49:30Z</time>
      </trkpt>
      <trkpt lat="46.26449" lon="5.4317">
        <ele>326.2</ele>
        <time>2022-02-24T16:49:31Z</time>
      </trkpt>
      <trkpt lat="46.26449" lon="5.43174">
        <ele>326.2</ele>
        <time>2022-02-24T16:49:32Z</time>
      </trkpt>
      <trkpt lat="46.26449" lon="5.43178">
        <ele>326.6</ele>
        <time>2022-02-24T16:49:33Z</time>
      </trkpt>
      <trkpt lat="46.26449" lon="5.43182">
        <ele>326.6</ele>
        <time>2022-02-24T16:49:34Z</time>
      </trkpt>
      <trkpt lat="46.26449" lon="5.43187">
        <ele>327</ele>
        <time>2022-02-24T16:49:35Z</time>
      </trkpt>
      <trkpt lat="46.26449" lon="5.43191">
        <ele>327</ele>
        <time>2022-02-24T16:49:36Z</time>
      </trkpt>
      <trkpt lat="46.2645" lon="5.43194">
        <ele>327.4</ele>
        <time>2022-02-24T16:49:37Z</time>
      </trkpt>
      <trkpt lat="46.2645" lon="5.43198">
        <ele>327.4</ele>
        <time>2022-02-24T16:49:38Z</time>
      </trkpt>
      <trkpt lat="46.2645" lon="5.43202">
        <ele>327.8</ele>
        <time>2022-02-24T16:49:39Z</time>
      </trkpt>
      <trkpt lat="46.2645" lon="5.43206">
        <ele>327.8</ele>
        <time>2022-02-24T16:49:40Z</time>
      </trkpt>
      <trkpt lat="46.2645" lon="5.4321">
        <ele>328.2</ele>
        <time>2022-02-24T16:49:41Z</time>
      </trkpt>
      <trkpt lat="46.2645" lon="5.43213">
        <ele>328.2</ele>
        <time>2022-02-24T16:49:42Z</time>
      </trkpt>
      <trkpt lat="46.26449" lon="5.43217">
        <ele>328.4</ele>
        <time>2022-02-24T16:49:43Z</time>
      </trkpt>
      <trkpt lat="46.26449" lon="5.43221">
        <ele>328.4</ele>
        <time>2022-02-24T16:49:44Z</time>
      </trkpt>
      <trkpt lat="46.26449" lon="5.43224">
        <ele>328.8</ele>
        <time>2022-02-24T16:49:45Z</time>
      </trkpt>
      <trkpt lat="46.26449" lon="5.43228">
        <ele>329</ele>
        <time>2022-02-24T16:49:46Z</time>
      </trkpt>
      <trkpt lat="46.26449" lon="5.43232">
        <ele>329</ele>
        <time>2022-02-24T16:49:47Z</time>
      </trkpt>
      <trkpt lat="46.26449" lon="5.43235">
        <ele>329.4</ele>
        <time>2022-02-24T16:49:48Z</time>
      </trkpt>
      <trkpt lat="46.26449" lon="5.43239">
        <ele>329.4</ele>
        <time>2022-02-24T16:49:49Z</time>
      </trkpt>
      <trkpt lat="46.26449" lon="5.43243">
        <ele>329.6</ele>
        <time>2022-02-24T16:49:50Z</time>
      </trkpt>
      <trkpt lat="46.26449" lon="5.43247">
        <ele>329.8</ele>
        <time>2022-02-24T16:49:51Z</time>
      </trkpt>
      <trkpt lat="46.26449" lon="5.4325">
        <ele>330</ele>
        <time>2022-02-24T16:49:52Z</time>
      </trkpt>
      <trkpt lat="46.26449" lon="5.43254">
        <ele>330</ele>
        <time>2022-02-24T16:49:53Z</time>
      </trkpt>
      <trkpt lat="46.26449" lon="5.43257">
        <ele>330.4</ele>
        <time>2022-02-24T16:49:54Z</time>
      </trkpt>
      <trkpt lat="46.26449" lon="5.43261">
        <ele>330.4</ele>
        <time>2022-02-24T16:49:55Z</time>
      </trkpt>
      <trkpt lat="46.2645" lon="5.43265">
        <ele>330.8</ele>
        <time>2022-02-24T16:49:56Z</time>
      </trkpt>
      <trkpt lat="46.2645" lon="5.43268">
        <ele>330.8</ele>
        <time>2022-02-24T16:49:57Z</time>
      </trkpt>
      <trkpt lat="46.2645" lon="5.43272">
        <ele>331.2</ele>
        <time>2022-02-24T16:49:58Z</time>
      </trkpt>
      <trkpt lat="46.2645" lon="5.43276">
        <ele>331.2</ele>
        <time>2022-02-24T16:49:59Z</time>
      </trkpt>
      <trkpt lat="46.2645" lon="5.4328">
        <ele>331.4</ele>
        <time>2022-02-24T16:50:00Z</time>
      </trkpt>
      <trkpt lat="46.2645" lon="5.43284">
        <ele>331.6</ele>
        <time>2022-02-24T16:50:01Z</time>
      </trkpt>
      <trkpt lat="46.2645" lon="5.43287">
        <ele>331.6</ele>
        <time>2022-02-24T16:50:02Z</time>
      </trkpt>
      <trkpt lat="46.2645" lon="5.43291">
        <ele>332</ele>
        <time>2022-02-24T16:50:03Z</time>
      </trkpt>
      <trkpt lat="46.26451" lon="5.43294">
        <ele>332</ele>
        <time>2022-02-24T16:50:04Z</time>
      </trkpt>
      <trkpt lat="46.26451" lon="5.43298">
        <ele>332.4</ele>
        <time>2022-02-24T16:50:05Z</time>
      </trkpt>
      <trkpt lat="46.26451" lon="5.43301">
        <ele>332.4</ele>
        <time>2022-02-24T16:50:06Z</time>
      </trkpt>
      <trkpt lat="46.26452" lon="5.43305">
        <ele>332.6</ele>
        <time>2022-02-24T16:50:07Z</time>
      </trkpt>
      <trkpt lat="46.26452" lon="5.43308">
        <ele>332.8</ele>
        <time>2022-02-24T16:50:08Z</time>
      </trkpt>
      <trkpt lat="46.26452" lon="5.43311">
        <ele>333</ele>
        <time>2022-02-24T16:50:09Z</time>
      </trkpt>
      <trkpt lat="46.26452" lon="5.43315">
        <ele>333</ele>
        <time>2022-02-24T16:50:10Z</time>
      </trkpt>
      <trkpt lat="46.26453" lon="5.43318">
        <ele>333.4</ele>
        <time>2022-02-24T16:50:11Z</time>
      </trkpt>
      <trkpt lat="46.26454" lon="5.43321">
        <ele>333.4</ele>
        <time>2022-02-24T16:50:12Z</time>
      </trkpt>
      <trkpt lat="46.26455" lon="5.43324">
        <ele>333.8</ele>
        <time>2022-02-24T16:50:13Z</time>
      </trkpt>
      <trkpt lat="46.26456" lon="5.43327">
        <ele>333.8</ele>
        <time>2022-02-24T16:50:14Z</time>
      </trkpt>
      <trkpt lat="46.26457" lon="5.4333">
        <ele>334.2</ele>
        <time>2022-02-24T16:50:15Z</time>
      </trkpt>
      <trkpt lat="46.26458" lon="5.43333">
        <ele>334.2</ele>
        <time>2022-02-24T16:50:16Z</time>
      </trkpt>
      <trkpt lat="46.26459" lon="5.43337">
        <ele>334.6</ele>
        <time>2022-02-24T16:50:17Z</time>
      </trkpt>
      <trkpt lat="46.2646" lon="5.43339">
        <ele>334.6</ele>
        <time>2022-02-24T16:50:18Z</time>
      </trkpt>
      <trkpt lat="46.26462" lon="5.43342">
        <ele>335</ele>
        <time>2022-02-24T16:50:19Z</time>
      </trkpt>
      <trkpt lat="46.26463" lon="5.43345">
        <ele>335</ele>
        <time>2022-02-24T16:50:20Z</time>
      </trkpt>
      <trkpt lat="46.26465" lon="5.43348">
        <ele>335</ele>
        <time>2022-02-24T16:50:21Z</time>
      </trkpt>
      <trkpt lat="46.26466" lon="5.43351">
        <ele>335.4</ele>
        <time>2022-02-24T16:50:22Z</time>
      </trkpt>
      <trkpt lat="46.26468" lon="5.43354">
        <ele>335.6</ele>
        <time>2022-02-24T16:50:23Z</time>
      </trkpt>
      <trkpt lat="46.26469" lon="5.43356">
        <ele>335.6</ele>
        <time>2022-02-24T16:50:24Z</time>
      </trkpt>
      <trkpt lat="46.26471" lon="5.43359">
        <ele>336</ele>
        <time>2022-02-24T16:50:25Z</time>
      </trkpt>
      <trkpt lat="46.26473" lon="5.43362">
        <ele>336</ele>
        <time>2022-02-24T16:50:26Z</time>
      </trkpt>
      <trkpt lat="46.26475" lon="5.43364">
        <ele>336.2</ele>
        <time>2022-02-24T16:50:27Z</time>
      </trkpt>
      <trkpt lat="46.26477" lon="5.43367">
        <ele>336.2</ele>
        <time>2022-02-24T16:50:28Z</time>
      </trkpt>
      <trkpt lat="46.26479" lon="5.43369">
        <ele>336.6</ele>
        <time>2022-02-24T16:50:29Z</time>
      </trkpt>
      <trkpt lat="46.26481" lon="5.43371">
        <ele>336.8</ele>
        <time>2022-02-24T16:50:30Z</time>
      </trkpt>
      <trkpt lat="46.26483" lon="5.43373">
        <ele>336.8</ele>
        <time>2022-02-24T16:50:31Z</time>
      </trkpt>
      <trkpt lat="46.26485" lon="5.43376">
        <ele>337.2</ele>
        <time>2022-02-24T16:50:32Z</time>
      </trkpt>
      <trkpt lat="46.26487" lon="5.43378">
        <ele>337.2</ele>
        <time>2022-02-24T16:50:33Z</time>
      </trkpt>
      <trkpt lat="46.26489" lon="5.4338">
        <ele>337.4</ele>
        <time>2022-02-24T16:50:34Z</time>
      </trkpt>
      <trkpt lat="46.26492" lon="5.43381">
        <ele>337.4</ele>
        <time>2022-02-24T16:50:35Z</time>
      </trkpt>
      <trkpt lat="46.26494" lon="5.43383">
        <ele>337.8</ele>
        <time>2022-02-24T16:50:36Z</time>
      </trkpt>
      <trkpt lat="46.26496" lon="5.43385">
        <ele>337.8</ele>
        <time>2022-02-24T16:50:37Z</time>
      </trkpt>
      <trkpt lat="46.26498" lon="5.43388">
        <ele>337.8</ele>
        <time>2022-02-24T16:50:38Z</time>
      </trkpt>
      <trkpt lat="46.265" lon="5.4339">
        <ele>338</ele>
        <time>2022-02-24T16:50:39Z</time>
      </trkpt>
      <trkpt lat="46.26502" lon="5.43392">
        <ele>338</ele>
        <time>2022-02-24T16:50:40Z</time>
      </trkpt>
      <trkpt lat="46.26504" lon="5.43394">
        <ele>338.4</ele>
        <time>2022-02-24T16:50:41Z</time>
      </trkpt>
      <trkpt lat="46.26506" lon="5.43397">
        <ele>338.4</ele>
        <time>2022-02-24T16:50:42Z</time>
      </trkpt>
      <trkpt lat="46.26508" lon="5.43399">
        <ele>338.6</ele>
        <time>2022-02-24T16:50:43Z</time>
      </trkpt>
      <trkpt lat="46.2651" lon="5.43401">
        <ele>338.6</ele>
        <time>2022-02-24T16:50:44Z</time>
      </trkpt>
      <trkpt lat="46.26511" lon="5.43404">
        <ele>338.8</ele>
        <time>2022-02-24T16:50:45Z</time>
      </trkpt>
      <trkpt lat="46.26513" lon="5.43407">
        <ele>339.2</ele>
        <time>2022-02-24T16:50:46Z</time>
      </trkpt>
      <trkpt lat="46.26515" lon="5.4341">
        <ele>339.2</ele>
        <time>2022-02-24T16:50:47Z</time>
      </trkpt>
      <trkpt lat="46.26517" lon="5.43413">
        <ele>339.4</ele>
        <time>2022-02-24T16:50:48Z</time>
      </trkpt>
      <trkpt lat="46.26518" lon="5.43415">
        <ele>339.4</ele>
        <time>2022-02-24T16:50:49Z</time>
      </trkpt>
      <trkpt lat="46.2652" lon="5.43418">
        <ele>339.8</ele>
        <time>2022-02-24T16:50:50Z</time>
      </trkpt>
      <trkpt lat="46.26522" lon="5.43421">
        <ele>339.8</ele>
        <time>2022-02-24T16:50:51Z</time>
      </trkpt>
      <trkpt lat="46.26523" lon="5.43423">
        <ele>340</ele>
        <time>2022-02-24T16:50:52Z</time>
      </trkpt>
      <trkpt lat="46.26525" lon="5.43426">
        <ele>340.2</ele>
        <time>2022-02-24T16:50:53Z</time>
      </trkpt>
      <trkpt lat="46.26526" lon="5.43429">
        <ele>340.2</ele>
        <time>2022-02-24T16:50:54Z</time>
      </trkpt>
      <trkpt lat="46.26528" lon="5.43431">
        <ele>340.6</ele>
        <time>2022-02-24T16:50:55Z</time>
      </trkpt>
      <trkpt lat="46.2653" lon="5.43434">
        <ele>340.6</ele>
        <time>2022-02-24T16:50:56Z</time>
      </trkpt>
      <trkpt lat="46.26532" lon="5.43437">
        <ele>341</ele>
        <time>2022-02-24T16:50:57Z</time>
      </trkpt>
      <trkpt lat="46.26533" lon="5.43439">
        <ele>341</ele>
        <time>2022-02-24T16:50:58Z</time>
      </trkpt>
      <trkpt lat="46.26535" lon="5.43442">
        <ele>341.2</ele>
        <time>2022-02-24T16:50:59Z</time>
      </trkpt>
      <trkpt lat="46.26536" lon="5.43445">
        <ele>341.6</ele>
        <time>2022-02-24T16:51:00Z</time>
      </trkpt>
      <trkpt lat="46.26538" lon="5.43448">
        <ele>341.6</ele>
        <time>2022-02-24T16:51:01Z</time>
      </trkpt>
      <trkpt lat="46.26539" lon="5.43451">
        <ele>341.8</ele>
        <time>2022-02-24T16:51:02Z</time>
      </trkpt>
      <trkpt lat="46.26541" lon="5.43454">
        <ele>341.8</ele>
        <time>2022-02-24T16:51:03Z</time>
      </trkpt>
      <trkpt lat="46.26542" lon="5.43457">
        <ele>342</ele>
        <time>2022-02-24T16:51:04Z</time>
      </trkpt>
      <trkpt lat="46.26544" lon="5.4346">
        <ele>342</ele>
        <time>2022-02-24T16:51:05Z</time>
      </trkpt>
      <trkpt lat="46.26545" lon="5.43463">
        <ele>342.4</ele>
        <time>2022-02-24T16:51:06Z</time>
      </trkpt>
      <trkpt lat="46.26547" lon="5.43466">
        <ele>342.4</ele>
        <time>2022-02-24T16:51:07Z</time>
      </trkpt>
      <trkpt lat="46.26548" lon="5.43469">
        <ele>342.8</ele>
        <time>2022-02-24T16:51:08Z</time>
      </trkpt>
      <trkpt lat="46.26549" lon="5.43473">
        <ele>343</ele>
        <time>2022-02-24T16:51:09Z</time>
      </trkpt>
      <trkpt lat="46.26551" lon="5.43476">
        <ele>343.2</ele>
        <time>2022-02-24T16:51:10Z</time>
      </trkpt>
      <trkpt lat="46.26552" lon="5.43478">
        <ele>343.2</ele>
        <time>2022-02-24T16:51:11Z</time>
      </trkpt>
      <trkpt lat="46.26553" lon="5.43482">
        <ele>343.6</ele>
        <time>2022-02-24T16:51:12Z</time>
      </trkpt>
      <trkpt lat="46.26554" lon="5.43485">
        <ele>343.6</ele>
        <time>2022-02-24T16:51:13Z</time>
      </trkpt>
      <trkpt lat="46.26556" lon="5.43488">
        <ele>343.8</ele>
        <time>2022-02-24T16:51:14Z</time>
      </trkpt>
      <trkpt lat="46.26557" lon="5.43491">
        <ele>344</ele>
        <time>2022-02-24T16:51:15Z</time>
      </trkpt>
      <trkpt lat="46.26558" lon="5.43494">
        <ele>344</ele>
        <time>2022-02-24T16:51:16Z</time>
      </trkpt>
      <trkpt lat="46.26559" lon="5.43497">
        <ele>344.4</ele>
        <time>2022-02-24T16:51:17Z</time>
      </trkpt>
      <trkpt lat="46.2656" lon="5.43499">
        <ele>344.4</ele>
        <time>2022-02-24T16:51:18Z</time>
      </trkpt>
      <trkpt lat="46.26561" lon="5.43502">
        <ele>344.6</ele>
        <time>2022-02-24T16:51:19Z</time>
      </trkpt>
      <trkpt lat="46.26562" lon="5.43505">
        <ele>344.6</ele>
        <time>2022-02-24T16:51:20Z</time>
      </trkpt>
      <trkpt lat="46.26563" lon="5.43508">
        <ele>344.8</ele>
        <time>2022-02-24T16:51:21Z</time>
      </trkpt>
      <trkpt lat="46.26565" lon="5.43511">
        <ele>344.8</ele>
        <time>2022-02-24T16:51:22Z</time>
      </trkpt>
      <trkpt lat="46.26566" lon="5.43514">
        <ele>345.2</ele>
        <time>2022-02-24T16:51:23Z</time>
      </trkpt>
      <trkpt lat="46.26567" lon="5.43517">
        <ele>345.2</ele>
        <time>2022-02-24T16:51:24Z</time>
      </trkpt>
      <trkpt lat="46.26568" lon="5.43519">
        <ele>345.6</ele>
        <time>2022-02-24T16:51:25Z</time>
      </trkpt>
      <trkpt lat="46.2657" lon="5.43522">
        <ele>345.6</ele>
        <time>2022-02-24T16:51:26Z</time>
      </trkpt>
      <trkpt lat="46.26571" lon="5.43525">
        <ele>345.8</ele>
        <time>2022-02-24T16:51:27Z</time>
      </trkpt>
      <trkpt lat="46.26573" lon="5.43527">
        <ele>345.8</ele>
        <time>2022-02-24T16:51:28Z</time>
      </trkpt>
      <trkpt lat="46.26575" lon="5.43528">
        <ele>346.2</ele>
        <time>2022-02-24T16:51:29Z</time>
      </trkpt>
      <trkpt lat="46.26578" lon="5.43529">
        <ele>346.4</ele>
        <time>2022-02-24T16:51:30Z</time>
      </trkpt>
      <trkpt lat="46.2658" lon="5.43531">
        <ele>346.4</ele>
        <time>2022-02-24T16:51:31Z</time>
      </trkpt>
      <trkpt lat="46.26583" lon="5.43532">
        <ele>346.8</ele>
        <time>2022-02-24T16:51:32Z</time>
      </trkpt>
      <trkpt lat="46.26585" lon="5.43533">
        <ele>347</ele>
        <time>2022-02-24T16:51:33Z</time>
      </trkpt>
      <trkpt lat="46.26587" lon="5.43534">
        <ele>347</ele>
        <time>2022-02-24T16:51:34Z</time>
      </trkpt>
      <trkpt lat="46.2659" lon="5.43535">
        <ele>347.2</ele>
        <time>2022-02-24T16:51:35Z</time>
      </trkpt>
      <trkpt lat="46.26592" lon="5.43537">
        <ele>347.2</ele>
        <time>2022-02-24T16:51:36Z</time>
      </trkpt>
      <trkpt lat="46.26594" lon="5.43538">
        <ele>347.6</ele>
        <time>2022-02-24T16:51:37Z</time>
      </trkpt>
      <trkpt lat="46.26596" lon="5.4354">
        <ele>347.8</ele>
        <time>2022-02-24T16:51:38Z</time>
      </trkpt>
      <trkpt lat="46.26598" lon="5.43542">
        <ele>347.8</ele>
        <time>2022-02-24T16:51:39Z</time>
      </trkpt>
      <trkpt lat="46.266" lon="5.43544">
        <ele>348.2</ele>
        <time>2022-02-24T16:51:40Z</time>
      </trkpt>
      <trkpt lat="46.26602" lon="5.43545">
        <ele>348.2</ele>
        <time>2022-02-24T16:51:41Z</time>
      </trkpt>
      <trkpt lat="46.26605" lon="5.43546">
        <ele>348.6</ele>
        <time>2022-02-24T16:51:42Z</time>
      </trkpt>
      <trkpt lat="46.26607" lon="5.43547">
        <ele>348.6</ele>
        <time>2022-02-24T16:51:43Z</time>
      </trkpt>
      <trkpt lat="46.26609" lon="5.43549">
        <ele>348.8</ele>
        <time>2022-02-24T16:51:44Z</time>
      </trkpt>
      <trkpt lat="46.26612" lon="5.43549">
        <ele>348.8</ele>
        <time>2022-02-24T16:51:45Z</time>
      </trkpt>
      <trkpt lat="46.26614" lon="5.4355">
        <ele>349.2</ele>
        <time>2022-02-24T16:51:46Z</time>
      </trkpt>
      <trkpt lat="46.26617" lon="5.43551">
        <ele>349.2</ele>
        <time>2022-02-24T16:51:47Z</time>
      </trkpt>
      <trkpt lat="46.2662" lon="5.43552">
        <ele>349.4</ele>
        <time>2022-02-24T16:51:48Z</time>
      </trkpt>
      <trkpt lat="46.26622" lon="5.43553">
        <ele>349.4</ele>
        <time>2022-02-24T16:51:49Z</time>
      </trkpt>
      <trkpt lat="46.26625" lon="5.43553">
        <ele>349.8</ele>
        <time>2022-02-24T16:51:50Z</time>
      </trkpt>
      <trkpt lat="46.26627" lon="5.43554">
        <ele>350</ele>
        <time>2022-02-24T16:51:51Z</time>
      </trkpt>
      <trkpt lat="46.2663" lon="5.43554">
        <ele>350</ele>
        <time>2022-02-24T16:51:52Z</time>
      </trkpt>
      <trkpt lat="46.26632" lon="5.43555">
        <ele>350</ele>
        <time>2022-02-24T16:51:53Z</time>
      </trkpt>
      <trkpt lat="46.26635" lon="5.43556">
        <ele>350.2</ele>
        <time>2022-02-24T16:51:54Z</time>
      </trkpt>
      <trkpt lat="46.26638" lon="5.43557">
        <ele>350.2</ele>
        <time>2022-02-24T16:51:55Z</time>
      </trkpt>
      <trkpt lat="46.2664" lon="5.43557">
        <ele>350.6</ele>
        <time>2022-02-24T16:51:56Z</time>
      </trkpt>
      <trkpt lat="46.26642" lon="5.43558">
        <ele>350.6</ele>
        <time>2022-02-24T16:51:57Z</time>
      </trkpt>
      <trkpt lat="46.26645" lon="5.43559">
        <ele>351</ele>
        <time>2022-02-24T16:51:58Z</time>
      </trkpt>
      <trkpt lat="46.26648" lon="5.4356">
        <ele>351</ele>
        <time>2022-02-24T16:51:59Z</time>
      </trkpt>
      <trkpt lat="46.2665" lon="5.4356">
        <ele>351.4</ele>
        <time>2022-02-24T16:52:00Z</time>
      </trkpt>
      <trkpt lat="46.26653" lon="5.43562">
        <ele>351.6</ele>
        <time>2022-02-24T16:52:01Z</time>
      </trkpt>
      <trkpt lat="46.26655" lon="5.43563">
        <ele>351.6</ele>
        <time>2022-02-24T16:52:02Z</time>
      </trkpt>
      <trkpt lat="46.26657" lon="5.43564">
        <ele>352</ele>
        <time>2022-02-24T16:52:03Z</time>
      </trkpt>
      <trkpt lat="46.26659" lon="5.43565">
        <ele>352.2</ele>
        <time>2022-02-24T16:52:04Z</time>
      </trkpt>
      <trkpt lat="46.26661" lon="5.43565">
        <ele>352.4</ele>
        <time>2022-02-24T16:52:05Z</time>
      </trkpt>
      <trkpt lat="46.26663" lon="5.43566">
        <ele>352.6</ele>
        <time>2022-02-24T16:52:06Z</time>
      </trkpt>
      <trkpt lat="46.26666" lon="5.43566">
        <ele>352.6</ele>
        <time>2022-02-24T16:52:07Z</time>
      </trkpt>
      <trkpt lat="46.26668" lon="5.43566">
        <ele>353</ele>
        <time>2022-02-24T16:52:08Z</time>
      </trkpt>
      <trkpt lat="46.26671" lon="5.43567">
        <ele>353.2</ele>
        <time>2022-02-24T16:52:09Z</time>
      </trkpt>
      <trkpt lat="46.26674" lon="5.43567">
        <ele>353.6</ele>
        <time>2022-02-24T16:52:10Z</time>
      </trkpt>
      <trkpt lat="46.26677" lon="5.43568">
        <ele>353.8</ele>
        <time>2022-02-24T16:52:11Z</time>
      </trkpt>
      <trkpt lat="46.26679" lon="5.43569">
        <ele>354</ele>
        <time>2022-02-24T16:52:12Z</time>
      </trkpt>
      <trkpt lat="46.26681" lon="5.43569">
        <ele>354</ele>
        <time>2022-02-24T16:52:13Z</time>
      </trkpt>
      <trkpt lat="46.26684" lon="5.4357">
        <ele>354.4</ele>
        <time>2022-02-24T16:52:14Z</time>
      </trkpt>
      <trkpt lat="46.26687" lon="5.4357">
        <ele>354.4</ele>
        <time>2022-02-24T16:52:15Z</time>
      </trkpt>
      <trkpt lat="46.26689" lon="5.4357">
        <ele>354.8</ele>
        <time>2022-02-24T16:52:16Z</time>
      </trkpt>
      <trkpt lat="46.26693" lon="5.43571">
        <ele>354.8</ele>
        <time>2022-02-24T16:52:17Z</time>
      </trkpt>
      <trkpt lat="46.26696" lon="5.43571">
        <ele>355.2</ele>
        <time>2022-02-24T16:52:18Z</time>
      </trkpt>
      <trkpt lat="46.26698" lon="5.43572">
        <ele>355.2</ele>
        <time>2022-02-24T16:52:19Z</time>
      </trkpt>
      <trkpt lat="46.26701" lon="5.43572">
        <ele>355.4</ele>
        <time>2022-02-24T16:52:20Z</time>
      </trkpt>
      <trkpt lat="46.26704" lon="5.43572">
        <ele>355.6</ele>
        <time>2022-02-24T16:52:21Z</time>
      </trkpt>
      <trkpt lat="46.26707" lon="5.43573">
        <ele>355.6</ele>
        <time>2022-02-24T16:52:22Z</time>
      </trkpt>
      <trkpt lat="46.26709" lon="5.43573">
        <ele>356</ele>
        <time>2022-02-24T16:52:23Z</time>
      </trkpt>
      <trkpt lat="46.26712" lon="5.43574">
        <ele>356.2</ele>
        <time>2022-02-24T16:52:24Z</time>
      </trkpt>
      <trkpt lat="46.26714" lon="5.43575">
        <ele>356.2</ele>
        <time>2022-02-24T16:52:25Z</time>
      </trkpt>
      <trkpt lat="46.26717" lon="5.43575">
        <ele>356.4</ele>
        <time>2022-02-24T16:52:26Z</time>
      </trkpt>
      <trkpt lat="46.2672" lon="5.43575">
        <ele>356.6</ele>
        <time>2022-02-24T16:52:27Z</time>
      </trkpt>
      <trkpt lat="46.26724" lon="5.43576">
        <ele>356.6</ele>
        <time>2022-02-24T16:52:28Z</time>
      </trkpt>
      <trkpt lat="46.26727" lon="5.43576">
        <ele>357</ele>
        <time>2022-02-24T16:52:29Z</time>
      </trkpt>
      <trkpt lat="46.26731" lon="5.43576">
        <ele>357.2</ele>
        <time>2022-02-24T16:52:30Z</time>
      </trkpt>
      <trkpt lat="46.26734" lon="5.43577">
        <ele>357.2</ele>
        <time>2022-02-24T16:52:31Z</time>
      </trkpt>
      <trkpt lat="46.26737" lon="5.43577">
        <ele>357.6</ele>
        <time>2022-02-24T16:52:32Z</time>
      </trkpt>
      <trkpt lat="46.2674" lon="5.43577">
        <ele>357.6</ele>
        <time>2022-02-24T16:52:33Z</time>
      </trkpt>
      <trkpt lat="46.26744" lon="5.43578">
        <ele>357.8</ele>
        <time>2022-02-24T16:52:34Z</time>
      </trkpt>
      <trkpt lat="46.26747" lon="5.43578">
        <ele>357.8</ele>
        <time>2022-02-24T16:52:35Z</time>
      </trkpt>
      <trkpt lat="46.2675" lon="5.43579">
        <ele>358.2</ele>
        <time>2022-02-24T16:52:36Z</time>
      </trkpt>
      <trkpt lat="46.26752" lon="5.4358">
        <ele>358.2</ele>
        <time>2022-02-24T16:52:37Z</time>
      </trkpt>
      <trkpt lat="46.26755" lon="5.4358">
        <ele>358.4</ele>
        <time>2022-02-24T16:52:38Z</time>
      </trkpt>
      <trkpt lat="46.26757" lon="5.43581">
        <ele>358.4</ele>
        <time>2022-02-24T16:52:39Z</time>
      </trkpt>
      <trkpt lat="46.2676" lon="5.43581">
        <ele>358.8</ele>
        <time>2022-02-24T16:52:40Z</time>
      </trkpt>
      <trkpt lat="46.26762" lon="5.43581">
        <ele>359</ele>
        <time>2022-02-24T16:52:41Z</time>
      </trkpt>
      <trkpt lat="46.26765" lon="5.43582">
        <ele>359</ele>
        <time>2022-02-24T16:52:42Z</time>
      </trkpt>
      <trkpt lat="46.26767" lon="5.43582">
        <ele>359.4</ele>
        <time>2022-02-24T16:52:43Z</time>
      </trkpt>
      <trkpt lat="46.26769" lon="5.43582">
        <ele>359.4</ele>
        <time>2022-02-24T16:52:44Z</time>
      </trkpt>
      <trkpt lat="46.26772" lon="5.43581">
        <ele>359.8</ele>
        <time>2022-02-24T16:52:45Z</time>
      </trkpt>
      <trkpt lat="46.26775" lon="5.43582">
        <ele>359.8</ele>
        <time>2022-02-24T16:52:46Z</time>
      </trkpt>
      <trkpt lat="46.26778" lon="5.43582">
        <ele>360</ele>
        <time>2022-02-24T16:52:47Z</time>
      </trkpt>
      <trkpt lat="46.2678" lon="5.43582">
        <ele>360.2</ele>
        <time>2022-02-24T16:52:48Z</time>
      </trkpt>
      <trkpt lat="46.26783" lon="5.43582">
        <ele>360.4</ele>
        <time>2022-02-24T16:52:49Z</time>
      </trkpt>
      <trkpt lat="46.26786" lon="5.43582">
        <ele>360.4</ele>
        <time>2022-02-24T16:52:50Z</time>
      </trkpt>
      <trkpt lat="46.26789" lon="5.43582">
        <ele>360.8</ele>
        <time>2022-02-24T16:52:51Z</time>
      </trkpt>
      <trkpt lat="46.26791" lon="5.43582">
        <ele>361</ele>
        <time>2022-02-24T16:52:52Z</time>
      </trkpt>
      <trkpt lat="46.26794" lon="5.43583">
        <ele>361.2</ele>
        <time>2022-02-24T16:52:53Z</time>
      </trkpt>
      <trkpt lat="46.26796" lon="5.43583">
        <ele>361.2</ele>
        <time>2022-02-24T16:52:54Z</time>
      </trkpt>
      <trkpt lat="46.26799" lon="5.43584">
        <ele>361.4</ele>
        <time>2022-02-24T16:52:55Z</time>
      </trkpt>
      <trkpt lat="46.26802" lon="5.43584">
        <ele>361.8</ele>
        <time>2022-02-24T16:52:56Z</time>
      </trkpt>
      <trkpt lat="46.26806" lon="5.43584">
        <ele>361.8</ele>
        <time>2022-02-24T16:52:57Z</time>
      </trkpt>
      <trkpt lat="46.26809" lon="5.43584">
        <ele>362</ele>
        <time>2022-02-24T16:52:58Z</time>
      </trkpt>
      <trkpt lat="46.26812" lon="5.43585">
        <ele>362</ele>
        <time>2022-02-24T16:52:59Z</time>
      </trkpt>
      <trkpt lat="46.26815" lon="5.43586">
        <ele>362.4</ele>
        <time>2022-02-24T16:53:00Z</time>
      </trkpt>
      <trkpt lat="46.26819" lon="5.43586">
        <ele>362.4</ele>
        <time>2022-02-24T16:53:01Z</time>
      </trkpt>
      <trkpt lat="46.26822" lon="5.43586">
        <ele>362.6</ele>
        <time>2022-02-24T16:53:02Z</time>
      </trkpt>
      <trkpt lat="46.26825" lon="5.43586">
        <ele>362.6</ele>
        <time>2022-02-24T16:53:03Z</time>
      </trkpt>
      <trkpt lat="46.26828" lon="5.43586">
        <ele>362.8</ele>
        <time>2022-02-24T16:53:04Z</time>
      </trkpt>
      <trkpt lat="46.26831" lon="5.43586">
        <ele>362.8</ele>
        <time>2022-02-24T16:53:05Z</time>
      </trkpt>
      <trkpt lat="46.26834" lon="5.43587">
        <ele>363.2</ele>
        <time>2022-02-24T16:53:06Z</time>
      </trkpt>
      <trkpt lat="46.26837" lon="5.43587">
        <ele>363.2</ele>
        <time>2022-02-24T16:53:07Z</time>
      </trkpt>
      <trkpt lat="46.26839" lon="5.43588">
        <ele>363.4</ele>
        <time>2022-02-24T16:53:08Z</time>
      </trkpt>
      <trkpt lat="46.26841" lon="5.43589">
        <ele>363.4</ele>
        <time>2022-02-24T16:53:09Z</time>
      </trkpt>
      <trkpt lat="46.26843" lon="5.4359">
        <ele>363.8</ele>
        <time>2022-02-24T16:53:10Z</time>
      </trkpt>
      <trkpt lat="46.26844" lon="5.43592">
        <ele>363.8</ele>
        <time>2022-02-24T16:53:11Z</time>
      </trkpt>
      <trkpt lat="46.26845" lon="5.43594">
        <ele>364.2</ele>
        <time>2022-02-24T16:53:12Z</time>
      </trkpt>
      <trkpt lat="46.26846" lon="5.43597">
        <ele>364.2</ele>
        <time>2022-02-24T16:53:13Z</time>
      </trkpt>
      <trkpt lat="46.26845" lon="5.43599">
        <ele>364.4</ele>
        <time>2022-02-24T16:53:14Z</time>
      </trkpt>
      <trkpt lat="46.26844" lon="5.43601">
        <ele>364.4</ele>
        <time>2022-02-24T16:53:15Z</time>
      </trkpt>
      <trkpt lat="46.26843" lon="5.43603">
        <ele>364.8</ele>
        <time>2022-02-24T16:53:16Z</time>
      </trkpt>
      <trkpt lat="46.2684" lon="5.43604">
        <ele>365</ele>
        <time>2022-02-24T16:53:17Z</time>
      </trkpt>
      <trkpt lat="46.26838" lon="5.43604">
        <ele>365.2</ele>
        <time>2022-02-24T16:53:18Z</time>
      </trkpt>
      <trkpt lat="46.26836" lon="5.43604">
        <ele>365.6</ele>
        <time>2022-02-24T16:53:19Z</time>
      </trkpt>
      <trkpt lat="46.26833" lon="5.43604">
        <ele>365.6</ele>
        <time>2022-02-24T16:53:20Z</time>
      </trkpt>
      <trkpt lat="46.26831" lon="5.43604">
        <ele>365.8</ele>
        <time>2022-02-24T16:53:21Z</time>
      </trkpt>
      <trkpt lat="46.26829" lon="5.43604">
        <ele>366.2</ele>
        <time>2022-02-24T16:53:22Z</time>
      </trkpt>
      <trkpt lat="46.26826" lon="5.43605">
        <ele>366.4</ele>
        <time>2022-02-24T16:53:23Z</time>
      </trkpt>
      <trkpt lat="46.26824" lon="5.43604">
        <ele>366.4</ele>
        <time>2022-02-24T16:53:24Z</time>
      </trkpt>
      <trkpt lat="46.26821" lon="5.43604">
        <ele>366.8</ele>
        <time>2022-02-24T16:53:25Z</time>
      </trkpt>
      <trkpt lat="46.26818" lon="5.43604">
        <ele>366.8</ele>
        <time>2022-02-24T16:53:26Z</time>
      </trkpt>
      <trkpt lat="46.26816" lon="5.43604">
        <ele>367</ele>
        <time>2022-02-24T16:53:27Z</time>
      </trkpt>
      <trkpt lat="46.26813" lon="5.43604">
        <ele>367</ele>
        <time>2022-02-24T16:53:28Z</time>
      </trkpt>
      <trkpt lat="46.26811" lon="5.43605">
        <ele>367.4</ele>
        <time>2022-02-24T16:53:29Z</time>
      </trkpt>
      <trkpt lat="46.26808" lon="5.43605">
        <ele>367.4</ele>
        <time>2022-02-24T16:53:30Z</time>
      </trkpt>
      <trkpt lat="46.26805" lon="5.43605">
        <ele>367.8</ele>
        <time>2022-02-24T16:53:31Z</time>
      </trkpt>
      <trkpt lat="46.26802" lon="5.43606">
        <ele>367.8</ele>
        <time>2022-02-24T16:53:32Z</time>
      </trkpt>
      <trkpt lat="46.268" lon="5.43606">
        <ele>368</ele>
        <time>2022-02-24T16:53:33Z</time>
      </trkpt>
      <trkpt lat="46.26797" lon="5.43607">
        <ele>368</ele>
        <time>2022-02-24T16:53:34Z</time>
      </trkpt>
      <trkpt lat="46.26795" lon="5.43608">
        <ele>368.4</ele>
        <time>2022-02-24T16:53:35Z</time>
      </trkpt>
      <trkpt lat="46.26793" lon="5.43608">
        <ele>368.4</ele>
        <time>2022-02-24T16:53:36Z</time>
      </trkpt>
      <trkpt lat="46.2679" lon="5.43609">
        <ele>368.8</ele>
        <time>2022-02-24T16:53:37Z</time>
      </trkpt>
      <trkpt lat="46.26788" lon="5.4361">
        <ele>369</ele>
        <time>2022-02-24T16:53:38Z</time>
      </trkpt>
      <trkpt lat="46.26785" lon="5.43611">
        <ele>369.2</ele>
        <time>2022-02-24T16:53:39Z</time>
      </trkpt>
      <trkpt lat="46.26781" lon="5.43611">
        <ele>369.4</ele>
        <time>2022-02-24T16:53:40Z</time>
      </trkpt>
      <trkpt lat="46.26778" lon="5.43612">
        <ele>369.4</ele>
        <time>2022-02-24T16:53:41Z</time>
      </trkpt>
      <trkpt lat="46.26775" lon="5.43613">
        <ele>369.6</ele>
        <time>2022-02-24T16:53:42Z</time>
      </trkpt>
      <trkpt lat="46.26773" lon="5.43613">
        <ele>369.6</ele>
        <time>2022-02-24T16:53:43Z</time>
      </trkpt>
      <trkpt lat="46.2677" lon="5.43614">
        <ele>370</ele>
        <time>2022-02-24T16:53:44Z</time>
      </trkpt>
      <trkpt lat="46.26767" lon="5.43615">
        <ele>370</ele>
        <time>2022-02-24T16:53:45Z</time>
      </trkpt>
      <trkpt lat="46.26764" lon="5.43616">
        <ele>370.4</ele>
        <time>2022-02-24T16:53:46Z</time>
      </trkpt>
      <trkpt lat="46.26761" lon="5.43617">
        <ele>370.4</ele>
        <time>2022-02-24T16:53:47Z</time>
      </trkpt>
      <trkpt lat="46.26758" lon="5.43618">
        <ele>370.6</ele>
        <time>2022-02-24T16:53:48Z</time>
      </trkpt>
      <trkpt lat="46.26755" lon="5.43619">
        <ele>370.8</ele>
        <time>2022-02-24T16:53:49Z</time>
      </trkpt>
      <trkpt lat="46.26752" lon="5.4362">
        <ele>370.8</ele>
        <time>2022-02-24T16:53:50Z</time>
      </trkpt>
      <trkpt lat="46.26749" lon="5.4362">
        <ele>371.2</ele>
        <time>2022-02-24T16:53:51Z</time>
      </trkpt>
      <trkpt lat="46.26747" lon="5.43621">
        <ele>371.2</ele>
        <time>2022-02-24T16:53:52Z</time>
      </trkpt>
      <trkpt lat="46.26743" lon="5.43621">
        <ele>371.4</ele>
        <time>2022-02-24T16:53:53Z</time>
      </trkpt>
      <trkpt lat="46.2674" lon="5.43621">
        <ele>371.4</ele>
        <time>2022-02-24T16:53:54Z</time>
      </trkpt>
      <trkpt lat="46.26738" lon="5.43622">
        <ele>371.8</ele>
        <time>2022-02-24T16:53:55Z</time>
      </trkpt>
      <trkpt lat="46.26735" lon="5.43623">
        <ele>371.8</ele>
        <time>2022-02-24T16:53:56Z</time>
      </trkpt>
      <trkpt lat="46.26729" lon="5.43625">
        <ele>372.4</ele>
        <time>2022-02-24T16:53:57Z</time>
      </trkpt>
      <trkpt lat="46.26727" lon="5.43627">
        <ele>372.4</ele>
        <time>2022-02-24T16:53:58Z</time>
      </trkpt>
      <trkpt lat="46.26725" lon="5.43628">
        <ele>372.8</ele>
        <time>2022-02-24T16:53:59Z</time>
      </trkpt>
      <trkpt lat="46.26722" lon="5.43629">
        <ele>373</ele>
        <time>2022-02-24T16:54:00Z</time>
      </trkpt>
      <trkpt lat="46.2672" lon="5.43629">
        <ele>373</ele>
        <time>2022-02-24T16:54:01Z</time>
      </trkpt>
      <trkpt lat="46.26717" lon="5.4363">
        <ele>373.4</ele>
        <time>2022-02-24T16:54:02Z</time>
      </trkpt>
      <trkpt lat="46.26715" lon="5.43631">
        <ele>373.4</ele>
        <time>2022-02-24T16:54:03Z</time>
      </trkpt>
      <trkpt lat="46.26713" lon="5.43631">
        <ele>373.8</ele>
        <time>2022-02-24T16:54:04Z</time>
      </trkpt>
      <trkpt lat="46.2671" lon="5.43632">
        <ele>373.8</ele>
        <time>2022-02-24T16:54:05Z</time>
      </trkpt>
      <trkpt lat="46.26708" lon="5.43632">
        <ele>374.2</ele>
        <time>2022-02-24T16:54:06Z</time>
      </trkpt>
      <trkpt lat="46.26705" lon="5.43633">
        <ele>374.2</ele>
        <time>2022-02-24T16:54:07Z</time>
      </trkpt>
      <trkpt lat="46.26703" lon="5.43634">
        <ele>374.4</ele>
        <time>2022-02-24T16:54:08Z</time>
      </trkpt>
      <trkpt lat="46.267" lon="5.43635">
        <ele>374.4</ele>
        <time>2022-02-24T16:54:09Z</time>
      </trkpt>
      <trkpt lat="46.26698" lon="5.43636">
        <ele>374.8</ele>
        <time>2022-02-24T16:54:10Z</time>
      </trkpt>
      <trkpt lat="46.26695" lon="5.43637">
        <ele>374.8</ele>
        <time>2022-02-24T16:54:11Z</time>
      </trkpt>
      <trkpt lat="46.26692" lon="5.43638">
        <ele>375.2</ele>
        <time>2022-02-24T16:54:12Z</time>
      </trkpt>
      <trkpt lat="46.2669" lon="5.43638">
        <ele>375.4</ele>
        <time>2022-02-24T16:54:13Z</time>
      </trkpt>
      <trkpt lat="46.26687" lon="5.43639">
        <ele>375.4</ele>
        <time>2022-02-24T16:54:14Z</time>
      </trkpt>
      <trkpt lat="46.26684" lon="5.4364">
        <ele>375.8</ele>
        <time>2022-02-24T16:54:15Z</time>
      </trkpt>
      <trkpt lat="46.26682" lon="5.4364">
        <ele>375.8</ele>
        <time>2022-02-24T16:54:16Z</time>
      </trkpt>
      <trkpt lat="46.26679" lon="5.4364">
        <ele>376</ele>
        <time>2022-02-24T16:54:17Z</time>
      </trkpt>
      <trkpt lat="46.26677" lon="5.4364">
        <ele>376</ele>
        <time>2022-02-24T16:54:18Z</time>
      </trkpt>
      <trkpt lat="46.26674" lon="5.43641">
        <ele>376.4</ele>
        <time>2022-02-24T16:54:19Z</time>
      </trkpt>
      <trkpt lat="46.26672" lon="5.43641">
        <ele>376.4</ele>
        <time>2022-02-24T16:54:20Z</time>
      </trkpt>
      <trkpt lat="46.2667" lon="5.43642">
        <ele>376.8</ele>
        <time>2022-02-24T16:54:21Z</time>
      </trkpt>
      <trkpt lat="46.26668" lon="5.43643">
        <ele>376.8</ele>
        <time>2022-02-24T16:54:22Z</time>
      </trkpt>
      <trkpt lat="46.26666" lon="5.43644">
        <ele>377</ele>
        <time>2022-02-24T16:54:23Z</time>
      </trkpt>
      <trkpt lat="46.26664" lon="5.43645">
        <ele>377</ele>
        <time>2022-02-24T16:54:24Z</time>
      </trkpt>
      <trkpt lat="46.26662" lon="5.43646">
        <ele>377.4</ele>
        <time>2022-02-24T16:54:25Z</time>
      </trkpt>
      <trkpt lat="46.26659" lon="5.43646">
        <ele>377.4</ele>
        <time>2022-02-24T16:54:26Z</time>
      </trkpt>
      <trkpt lat="46.26656" lon="5.43646">
        <ele>377.6</ele>
        <time>2022-02-24T16:54:27Z</time>
      </trkpt>
      <trkpt lat="46.26654" lon="5.43646">
        <ele>377.6</ele>
        <time>2022-02-24T16:54:28Z</time>
      </trkpt>
      <trkpt lat="46.26651" lon="5.43647">
        <ele>378</ele>
        <time>2022-02-24T16:54:29Z</time>
      </trkpt>
      <trkpt lat="46.26649" lon="5.43648">
        <ele>378</ele>
        <time>2022-02-24T16:54:30Z</time>
      </trkpt>
      <trkpt lat="46.26647" lon="5.43648">
        <ele>378.2</ele>
        <time>2022-02-24T16:54:31Z</time>
      </trkpt>
      <trkpt lat="46.26643" lon="5.43649">
        <ele>378.2</ele>
        <time>2022-02-24T16:54:32Z</time>
      </trkpt>
      <trkpt lat="46.26641" lon="5.43649">
        <ele>378.6</ele>
        <time>2022-02-24T16:54:33Z</time>
      </trkpt>
      <trkpt lat="46.26638" lon="5.43649">
        <ele>378.8</ele>
        <time>2022-02-24T16:54:34Z</time>
      </trkpt>
      <trkpt lat="46.26635" lon="5.4365">
        <ele>378.8</ele>
        <time>2022-02-24T16:54:35Z</time>
      </trkpt>
      <trkpt lat="46.26631" lon="5.43649">
        <ele>379.2</ele>
        <time>2022-02-24T16:54:36Z</time>
      </trkpt>
      <trkpt lat="46.26628" lon="5.43649">
        <ele>379.2</ele>
        <time>2022-02-24T16:54:37Z</time>
      </trkpt>
      <trkpt lat="46.26625" lon="5.43649">
        <ele>379.4</ele>
        <time>2022-02-24T16:54:38Z</time>
      </trkpt>
      <trkpt lat="46.26622" lon="5.4365">
        <ele>379.4</ele>
        <time>2022-02-24T16:54:39Z</time>
      </trkpt>
      <trkpt lat="46.26618" lon="5.4365">
        <ele>379.8</ele>
        <time>2022-02-24T16:54:40Z</time>
      </trkpt>
      <trkpt lat="46.26615" lon="5.43651">
        <ele>379.8</ele>
        <time>2022-02-24T16:54:41Z</time>
      </trkpt>
      <trkpt lat="46.26612" lon="5.43651">
        <ele>380</ele>
        <time>2022-02-24T16:54:42Z</time>
      </trkpt>
      <trkpt lat="46.2661" lon="5.43652">
        <ele>380</ele>
        <time>2022-02-24T16:54:43Z</time>
      </trkpt>
      <trkpt lat="46.26607" lon="5.43652">
        <ele>380.4</ele>
        <time>2022-02-24T16:54:44Z</time>
      </trkpt>
      <trkpt lat="46.26603" lon="5.43652">
        <ele>380.4</ele>
        <time>2022-02-24T16:54:45Z</time>
      </trkpt>
      <trkpt lat="46.266" lon="5.43653">
        <ele>380.8</ele>
        <time>2022-02-24T16:54:46Z</time>
      </trkpt>
      <trkpt lat="46.26597" lon="5.43653">
        <ele>380.8</ele>
        <time>2022-02-24T16:54:47Z</time>
      </trkpt>
      <trkpt lat="46.26594" lon="5.43654">
        <ele>381</ele>
        <time>2022-02-24T16:54:48Z</time>
      </trkpt>
      <trkpt lat="46.26591" lon="5.43654">
        <ele>381.2</ele>
        <time>2022-02-24T16:54:49Z</time>
      </trkpt>
      <trkpt lat="46.26588" lon="5.43655">
        <ele>381.2</ele>
        <time>2022-02-24T16:54:50Z</time>
      </trkpt>
      <trkpt lat="46.26585" lon="5.43656">
        <ele>381.4</ele>
        <time>2022-02-24T16:54:51Z</time>
      </trkpt>
      <trkpt lat="46.26582" lon="5.43656">
        <ele>381.4</ele>
        <time>2022-02-24T16:54:52Z</time>
      </trkpt>
      <trkpt lat="46.26579" lon="5.43657">
        <ele>381.8</ele>
        <time>2022-02-24T16:54:53Z</time>
      </trkpt>
      <trkpt lat="46.26577" lon="5.43658">
        <ele>381.8</ele>
        <time>2022-02-24T16:54:54Z</time>
      </trkpt>
      <trkpt lat="46.26575" lon="5.43661">
        <ele>382</ele>
        <time>2022-02-24T16:54:55Z</time>
      </trkpt>
      <trkpt lat="46.26574" lon="5.43665">
        <ele>382</ele>
        <time>2022-02-24T16:54:56Z</time>
      </trkpt>
      <trkpt lat="46.26573" lon="5.43668">
        <ele>382</ele>
        <time>2022-02-24T16:54:57Z</time>
      </trkpt>
      <trkpt lat="46.26573" lon="5.43672">
        <ele>382.4</ele>
        <time>2022-02-24T16:54:58Z</time>
      </trkpt>
      <trkpt lat="46.26574" lon="5.43676">
        <ele>382.4</ele>
        <time>2022-02-24T16:54:59Z</time>
      </trkpt>
      <trkpt lat="46.26576" lon="5.4368">
        <ele>382.8</ele>
        <time>2022-02-24T16:55:00Z</time>
      </trkpt>
      <trkpt lat="46.26579" lon="5.43682">
        <ele>382.8</ele>
        <time>2022-02-24T16:55:01Z</time>
      </trkpt>
      <trkpt lat="46.26582" lon="5.43684">
        <ele>383</ele>
        <time>2022-02-24T16:55:02Z</time>
      </trkpt>
      <trkpt lat="46.26585" lon="5.43685">
        <ele>383</ele>
        <time>2022-02-24T16:55:03Z</time>
      </trkpt>
      <trkpt lat="46.26589" lon="5.43685">
        <ele>383</ele>
        <time>2022-02-24T16:55:04Z</time>
      </trkpt>
      <trkpt lat="46.26591" lon="5.43685">
        <ele>383.2</ele>
        <time>2022-02-24T16:55:05Z</time>
      </trkpt>
      <trkpt lat="46.26594" lon="5.43684">
        <ele>383.2</ele>
        <time>2022-02-24T16:55:06Z</time>
      </trkpt>
      <trkpt lat="46.26597" lon="5.43684">
        <ele>383.6</ele>
        <time>2022-02-24T16:55:07Z</time>
      </trkpt>
      <trkpt lat="46.266" lon="5.43684">
        <ele>383.6</ele>
        <time>2022-02-24T16:55:08Z</time>
      </trkpt>
      <trkpt lat="46.26603" lon="5.43684">
        <ele>383.8</ele>
        <time>2022-02-24T16:55:09Z</time>
      </trkpt>
      <trkpt lat="46.26606" lon="5.43684">
        <ele>383.8</ele>
        <time>2022-02-24T16:55:10Z</time>
      </trkpt>
      <trkpt lat="46.26609" lon="5.43684">
        <ele>384</ele>
        <time>2022-02-24T16:55:11Z</time>
      </trkpt>
      <trkpt lat="46.26612" lon="5.43684">
        <ele>384</ele>
        <time>2022-02-24T16:55:12Z</time>
      </trkpt>
      <trkpt lat="46.26614" lon="5.43684">
        <ele>384.4</ele>
        <time>2022-02-24T16:55:13Z</time>
      </trkpt>
      <trkpt lat="46.26617" lon="5.43683">
        <ele>384.6</ele>
        <time>2022-02-24T16:55:14Z</time>
      </trkpt>
      <trkpt lat="46.2662" lon="5.43683">
        <ele>384.8</ele>
        <time>2022-02-24T16:55:15Z</time>
      </trkpt>
      <trkpt lat="46.26623" lon="5.43682">
        <ele>385.2</ele>
        <time>2022-02-24T16:55:16Z</time>
      </trkpt>
      <trkpt lat="46.26625" lon="5.43682">
        <ele>385.4</ele>
        <time>2022-02-24T16:55:17Z</time>
      </trkpt>
      <trkpt lat="46.26628" lon="5.43681">
        <ele>385.6</ele>
        <time>2022-02-24T16:55:18Z</time>
      </trkpt>
      <trkpt lat="46.26631" lon="5.43681">
        <ele>385.6</ele>
        <time>2022-02-24T16:55:19Z</time>
      </trkpt>
      <trkpt lat="46.26633" lon="5.43681">
        <ele>386</ele>
        <time>2022-02-24T16:55:20Z</time>
      </trkpt>
      <trkpt lat="46.26635" lon="5.43681">
        <ele>386.2</ele>
        <time>2022-02-24T16:55:21Z</time>
      </trkpt>
      <trkpt lat="46.26637" lon="5.43681">
        <ele>386.2</ele>
        <time>2022-02-24T16:55:22Z</time>
      </trkpt>
      <trkpt lat="46.2664" lon="5.43681">
        <ele>386.4</ele>
        <time>2022-02-24T16:55:23Z</time>
      </trkpt>
      <trkpt lat="46.26643" lon="5.43681">
        <ele>386.4</ele>
        <time>2022-02-24T16:55:24Z</time>
      </trkpt>
      <trkpt lat="46.26645" lon="5.43681">
        <ele>386.8</ele>
        <time>2022-02-24T16:55:25Z</time>
      </trkpt>
      <trkpt lat="46.26647" lon="5.43681">
        <ele>386.8</ele>
        <time>2022-02-24T16:55:26Z</time>
      </trkpt>
      <trkpt lat="46.2665" lon="5.43681">
        <ele>387</ele>
        <time>2022-02-24T16:55:27Z</time>
      </trkpt>
      <trkpt lat="46.26652" lon="5.43681">
        <ele>387</ele>
        <time>2022-02-24T16:55:28Z</time>
      </trkpt>
      <trkpt lat="46.26655" lon="5.4368">
        <ele>387.4</ele>
        <time>2022-02-24T16:55:29Z</time>
      </trkpt>
      <trkpt lat="46.26657" lon="5.4368">
        <ele>387.4</ele>
        <time>2022-02-24T16:55:30Z</time>
      </trkpt>
      <trkpt lat="46.2666" lon="5.4368">
        <ele>387.6</ele>
        <time>2022-02-24T16:55:31Z</time>
      </trkpt>
      <trkpt lat="46.26662" lon="5.43679">
        <ele>387.6</ele>
        <time>2022-02-24T16:55:32Z</time>
      </trkpt>
      <trkpt lat="46.26665" lon="5.43679">
        <ele>388</ele>
        <time>2022-02-24T16:55:33Z</time>
      </trkpt>
      <trkpt lat="46.26667" lon="5.43679">
        <ele>388</ele>
        <time>2022-02-24T16:55:34Z</time>
      </trkpt>
      <trkpt lat="46.2667" lon="5.43679">
        <ele>388.2</ele>
        <time>2022-02-24T16:55:35Z</time>
      </trkpt>
      <trkpt lat="46.26672" lon="5.43679">
        <ele>388.2</ele>
        <time>2022-02-24T16:55:36Z</time>
      </trkpt>
      <trkpt lat="46.26675" lon="5.43679">
        <ele>388.2</ele>
        <time>2022-02-24T16:55:37Z</time>
      </trkpt>
      <trkpt lat="46.26677" lon="5.43679">
        <ele>388.6</ele>
        <time>2022-02-24T16:55:38Z</time>
      </trkpt>
      <trkpt lat="46.26679" lon="5.43679">
        <ele>388.6</ele>
        <time>2022-02-24T16:55:39Z</time>
      </trkpt>
      <trkpt lat="46.26682" lon="5.43679">
        <ele>388.8</ele>
        <time>2022-02-24T16:55:40Z</time>
      </trkpt>
      <trkpt lat="46.26684" lon="5.43679">
        <ele>388.8</ele>
        <time>2022-02-24T16:55:41Z</time>
      </trkpt>
      <trkpt lat="46.26686" lon="5.43679">
        <ele>389.2</ele>
        <time>2022-02-24T16:55:42Z</time>
      </trkpt>
      <trkpt lat="46.26689" lon="5.4368">
        <ele>389.2</ele>
        <time>2022-02-24T16:55:43Z</time>
      </trkpt>
      <trkpt lat="46.26691" lon="5.4368">
        <ele>389.4</ele>
        <time>2022-02-24T16:55:44Z</time>
      </trkpt>
      <trkpt lat="46.26693" lon="5.4368">
        <ele>389.4</ele>
        <time>2022-02-24T16:55:45Z</time>
      </trkpt>
      <trkpt lat="46.26695" lon="5.43681">
        <ele>389.8</ele>
        <time>2022-02-24T16:55:46Z</time>
      </trkpt>
      <trkpt lat="46.26697" lon="5.43681">
        <ele>389.8</ele>
        <time>2022-02-24T16:55:47Z</time>
      </trkpt>
      <trkpt lat="46.26699" lon="5.43682">
        <ele>390</ele>
        <time>2022-02-24T16:55:48Z</time>
      </trkpt>
      <trkpt lat="46.26701" lon="5.43682">
        <ele>390</ele>
        <time>2022-02-24T16:55:49Z</time>
      </trkpt>
      <trkpt lat="46.26703" lon="5.43681">
        <ele>390.2</ele>
        <time>2022-02-24T16:55:50Z</time>
      </trkpt>
      <trkpt lat="46.26705" lon="5.43681">
        <ele>390.2</ele>
        <time>2022-02-24T16:55:51Z</time>
      </trkpt>
      <trkpt lat="46.26708" lon="5.43681">
        <ele>390.4</ele>
        <time>2022-02-24T16:55:52Z</time>
      </trkpt>
      <trkpt lat="46.2671" lon="5.43681">
        <ele>390.4</ele>
        <time>2022-02-24T16:55:53Z</time>
      </trkpt>
      <trkpt lat="46.26712" lon="5.43681">
        <ele>390.8</ele>
        <time>2022-02-24T16:55:54Z</time>
      </trkpt>
      <trkpt lat="46.26714" lon="5.43681">
        <ele>391</ele>
        <time>2022-02-24T16:55:55Z</time>
      </trkpt>
      <trkpt lat="46.26716" lon="5.43681">
        <ele>391</ele>
        <time>2022-02-24T16:55:56Z</time>
      </trkpt>
      <trkpt lat="46.26719" lon="5.43681">
        <ele>391.4</ele>
        <time>2022-02-24T16:55:57Z</time>
      </trkpt>
      <trkpt lat="46.26721" lon="5.43681">
        <ele>391.4</ele>
        <time>2022-02-24T16:55:58Z</time>
      </trkpt>
      <trkpt lat="46.26723" lon="5.43681">
        <ele>391.6</ele>
        <time>2022-02-24T16:55:59Z</time>
      </trkpt>
      <trkpt lat="46.26725" lon="5.43682">
        <ele>391.6</ele>
        <time>2022-02-24T16:56:00Z</time>
      </trkpt>
      <trkpt lat="46.26727" lon="5.43683">
        <ele>391.8</ele>
        <time>2022-02-24T16:56:01Z</time>
      </trkpt>
      <trkpt lat="46.26729" lon="5.43683">
        <ele>391.8</ele>
        <time>2022-02-24T16:56:02Z</time>
      </trkpt>
      <trkpt lat="46.26731" lon="5.43684">
        <ele>392.2</ele>
        <time>2022-02-24T16:56:03Z</time>
      </trkpt>
      <trkpt lat="46.26734" lon="5.43684">
        <ele>392.2</ele>
        <time>2022-02-24T16:56:04Z</time>
      </trkpt>
      <trkpt lat="46.26736" lon="5.43683">
        <ele>392.6</ele>
        <time>2022-02-24T16:56:05Z</time>
      </trkpt>
      <trkpt lat="46.26738" lon="5.43683">
        <ele>392.6</ele>
        <time>2022-02-24T16:56:06Z</time>
      </trkpt>
      <trkpt lat="46.2674" lon="5.43682">
        <ele>392.6</ele>
        <time>2022-02-24T16:56:07Z</time>
      </trkpt>
      <trkpt lat="46.26742" lon="5.43682">
        <ele>392.8</ele>
        <time>2022-02-24T16:56:08Z</time>
      </trkpt>
      <trkpt lat="46.26744" lon="5.43682">
        <ele>392.8</ele>
        <time>2022-02-24T16:56:09Z</time>
      </trkpt>
      <trkpt lat="46.26747" lon="5.43683">
        <ele>393.2</ele>
        <time>2022-02-24T16:56:10Z</time>
      </trkpt>
      <trkpt lat="46.2675" lon="5.43683">
        <ele>393.2</ele>
        <time>2022-02-24T16:56:11Z</time>
      </trkpt>
      <trkpt lat="46.26752" lon="5.43683">
        <ele>393.6</ele>
        <time>2022-02-24T16:56:12Z</time>
      </trkpt>
      <trkpt lat="46.26755" lon="5.43683">
        <ele>393.8</ele>
        <time>2022-02-24T16:56:13Z</time>
      </trkpt>
      <trkpt lat="46.26757" lon="5.43683">
        <ele>394</ele>
        <time>2022-02-24T16:56:14Z</time>
      </trkpt>
      <trkpt lat="46.2676" lon="5.43684">
        <ele>394</ele>
        <time>2022-02-24T16:56:15Z</time>
      </trkpt>
      <trkpt lat="46.26762" lon="5.43684">
        <ele>394.4</ele>
        <time>2022-02-24T16:56:16Z</time>
      </trkpt>
      <trkpt lat="46.26765" lon="5.43684">
        <ele>394.4</ele>
        <time>2022-02-24T16:56:17Z</time>
      </trkpt>
      <trkpt lat="46.26768" lon="5.43684">
        <ele>394.6</ele>
        <time>2022-02-24T16:56:18Z</time>
      </trkpt>
      <trkpt lat="46.26773" lon="5.43684">
        <ele>394.6</ele>
        <time>2022-02-24T16:56:19Z</time>
      </trkpt>
      <trkpt lat="46.26776" lon="5.43684">
        <ele>394.8</ele>
        <time>2022-02-24T16:56:20Z</time>
      </trkpt>
      <trkpt lat="46.26779" lon="5.43684">
        <ele>394.8</ele>
        <time>2022-02-24T16:56:21Z</time>
      </trkpt>
      <trkpt lat="46.26781" lon="5.43685">
        <ele>395.2</ele>
        <time>2022-02-24T16:56:22Z</time>
      </trkpt>
      <trkpt lat="46.26784" lon="5.43685">
        <ele>395.2</ele>
        <time>2022-02-24T16:56:23Z</time>
      </trkpt>
      <trkpt lat="46.26786" lon="5.43686">
        <ele>395.2</ele>
        <time>2022-02-24T16:56:24Z</time>
      </trkpt>
      <trkpt lat="46.26789" lon="5.43685">
        <ele>395.6</ele>
        <time>2022-02-24T16:56:25Z</time>
      </trkpt>
      <trkpt lat="46.26792" lon="5.43685">
        <ele>395.6</ele>
        <time>2022-02-24T16:56:26Z</time>
      </trkpt>
      <trkpt lat="46.26794" lon="5.43685">
        <ele>396</ele>
        <time>2022-02-24T16:56:27Z</time>
      </trkpt>
      <trkpt lat="46.26797" lon="5.43686">
        <ele>396</ele>
        <time>2022-02-24T16:56:28Z</time>
      </trkpt>
      <trkpt lat="46.26799" lon="5.43686">
        <ele>396.4</ele>
        <time>2022-02-24T16:56:29Z</time>
      </trkpt>
      <trkpt lat="46.26801" lon="5.43687">
        <ele>396.4</ele>
        <time>2022-02-24T16:56:30Z</time>
      </trkpt>
      <trkpt lat="46.26804" lon="5.43687">
        <ele>396.8</ele>
        <time>2022-02-24T16:56:31Z</time>
      </trkpt>
      <trkpt lat="46.26807" lon="5.43687">
        <ele>396.8</ele>
        <time>2022-02-24T16:56:32Z</time>
      </trkpt>
      <trkpt lat="46.26809" lon="5.43687">
        <ele>397</ele>
        <time>2022-02-24T16:56:33Z</time>
      </trkpt>
      <trkpt lat="46.26812" lon="5.43687">
        <ele>397</ele>
        <time>2022-02-24T16:56:34Z</time>
      </trkpt>
      <trkpt lat="46.26814" lon="5.43688">
        <ele>397.4</ele>
        <time>2022-02-24T16:56:35Z</time>
      </trkpt>
      <trkpt lat="46.26816" lon="5.43689">
        <ele>397.6</ele>
        <time>2022-02-24T16:56:36Z</time>
      </trkpt>
      <trkpt lat="46.26818" lon="5.4369">
        <ele>397.8</ele>
        <time>2022-02-24T16:56:37Z</time>
      </trkpt>
      <trkpt lat="46.2682" lon="5.43691">
        <ele>397.8</ele>
        <time>2022-02-24T16:56:38Z</time>
      </trkpt>
      <trkpt lat="46.26822" lon="5.43692">
        <ele>398</ele>
        <time>2022-02-24T16:56:39Z</time>
      </trkpt>
      <trkpt lat="46.26824" lon="5.43693">
        <ele>398</ele>
        <time>2022-02-24T16:56:40Z</time>
      </trkpt>
      <trkpt lat="46.26827" lon="5.43694">
        <ele>398.4</ele>
        <time>2022-02-24T16:56:41Z</time>
      </trkpt>
      <trkpt lat="46.26829" lon="5.43695">
        <ele>398.4</ele>
        <time>2022-02-24T16:56:42Z</time>
      </trkpt>
      <trkpt lat="46.26831" lon="5.43696">
        <ele>398.6</ele>
        <time>2022-02-24T16:56:43Z</time>
      </trkpt>
      <trkpt lat="46.26831" lon="5.43696">
        <ele>398.6</ele>
        <time>2022-02-24T16:56:44Z</time>
      </trkpt>
      <trkpt lat="46.26833" lon="5.43697">
        <ele>399</ele>
        <time>2022-02-24T16:56:45Z</time>
      </trkpt>
      <trkpt lat="46.26835" lon="5.43697">
        <ele>399</ele>
        <time>2022-02-24T16:56:46Z</time>
      </trkpt>
      <trkpt lat="46.26837" lon="5.43697">
        <ele>399.2</ele>
        <time>2022-02-24T16:56:47Z</time>
      </trkpt>
      <trkpt lat="46.26839" lon="5.43697">
        <ele>399.2</ele>
        <time>2022-02-24T16:56:48Z</time>
      </trkpt>
      <trkpt lat="46.26841" lon="5.43698">
        <ele>399.4</ele>
        <time>2022-02-24T16:56:49Z</time>
      </trkpt>
      <trkpt lat="46.26843" lon="5.43698">
        <ele>399.4</ele>
        <time>2022-02-24T16:56:50Z</time>
      </trkpt>
      <trkpt lat="46.26846" lon="5.43698">
        <ele>399.8</ele>
        <time>2022-02-24T16:56:51Z</time>
      </trkpt>
      <trkpt lat="46.26848" lon="5.43698">
        <ele>399.8</ele>
        <time>2022-02-24T16:56:52Z</time>
      </trkpt>
      <trkpt lat="46.26851" lon="5.43698">
        <ele>400</ele>
        <time>2022-02-24T16:56:53Z</time>
      </trkpt>
      <trkpt lat="46.26853" lon="5.43698">
        <ele>400</ele>
        <time>2022-02-24T16:56:54Z</time>
      </trkpt>
      <trkpt lat="46.26856" lon="5.43698">
        <ele>400.4</ele>
        <time>2022-02-24T16:56:55Z</time>
      </trkpt>
      <trkpt lat="46.26859" lon="5.43699">
        <ele>400.4</ele>
        <time>2022-02-24T16:56:56Z</time>
      </trkpt>
      <trkpt lat="46.26861" lon="5.437">
        <ele>400.6</ele>
        <time>2022-02-24T16:56:57Z</time>
      </trkpt>
      <trkpt lat="46.26864" lon="5.43701">
        <ele>400.6</ele>
        <time>2022-02-24T16:56:58Z</time>
      </trkpt>
      <trkpt lat="46.26866" lon="5.43703">
        <ele>401</ele>
        <time>2022-02-24T16:56:59Z</time>
      </trkpt>
      <trkpt lat="46.26868" lon="5.43705">
        <ele>401.2</ele>
        <time>2022-02-24T16:57:00Z</time>
      </trkpt>
      <trkpt lat="46.2687" lon="5.43705">
        <ele>401.2</ele>
        <time>2022-02-24T16:57:01Z</time>
      </trkpt>
      <trkpt lat="46.26872" lon="5.43706">
        <ele>401.6</ele>
        <time>2022-02-24T16:57:02Z</time>
      </trkpt>
      <trkpt lat="46.26874" lon="5.43707">
        <ele>401.6</ele>
        <time>2022-02-24T16:57:03Z</time>
      </trkpt>
      <trkpt lat="46.26876" lon="5.43708">
        <ele>402</ele>
        <time>2022-02-24T16:57:04Z</time>
      </trkpt>
      <trkpt lat="46.26877" lon="5.43709">
        <ele>402.2</ele>
        <time>2022-02-24T16:57:05Z</time>
      </trkpt>
      <trkpt lat="46.26879" lon="5.4371">
        <ele>402.2</ele>
        <time>2022-02-24T16:57:06Z</time>
      </trkpt>
      <trkpt lat="46.26881" lon="5.43711">
        <ele>402.4</ele>
        <time>2022-02-24T16:57:07Z</time>
      </trkpt>
      <trkpt lat="46.26882" lon="5.43712">
        <ele>402.4</ele>
        <time>2022-02-24T16:57:08Z</time>
      </trkpt>
      <trkpt lat="46.26884" lon="5.43713">
        <ele>402.8</ele>
        <time>2022-02-24T16:57:09Z</time>
      </trkpt>
      <trkpt lat="46.26886" lon="5.43714">
        <ele>402.8</ele>
        <time>2022-02-24T16:57:10Z</time>
      </trkpt>
      <trkpt lat="46.26889" lon="5.43715">
        <ele>403</ele>
        <time>2022-02-24T16:57:11Z</time>
      </trkpt>
      <trkpt lat="46.26891" lon="5.43717">
        <ele>403</ele>
        <time>2022-02-24T16:57:12Z</time>
      </trkpt>
      <trkpt lat="46.26893" lon="5.43718">
        <ele>403.4</ele>
        <time>2022-02-24T16:57:13Z</time>
      </trkpt>
      <trkpt lat="46.26895" lon="5.43719">
        <ele>403.6</ele>
        <time>2022-02-24T16:57:14Z</time>
      </trkpt>
      <trkpt lat="46.26898" lon="5.4372">
        <ele>403.6</ele>
        <time>2022-02-24T16:57:15Z</time>
      </trkpt>
      <trkpt lat="46.26901" lon="5.4372">
        <ele>404</ele>
        <time>2022-02-24T16:57:16Z</time>
      </trkpt>
      <trkpt lat="46.26903" lon="5.4372">
        <ele>404</ele>
        <time>2022-02-24T16:57:17Z</time>
      </trkpt>
      <trkpt lat="46.26906" lon="5.4372">
        <ele>404.4</ele>
        <time>2022-02-24T16:57:18Z</time>
      </trkpt>
      <trkpt lat="46.26909" lon="5.4372">
        <ele>404.6</ele>
        <time>2022-02-24T16:57:19Z</time>
      </trkpt>
      <trkpt lat="46.26911" lon="5.4372">
        <ele>404.8</ele>
        <time>2022-02-24T16:57:20Z</time>
      </trkpt>
      <trkpt lat="46.26914" lon="5.4372">
        <ele>405</ele>
        <time>2022-02-24T16:57:21Z</time>
      </trkpt>
      <trkpt lat="46.26916" lon="5.4372">
        <ele>405</ele>
        <time>2022-02-24T16:57:22Z</time>
      </trkpt>
      <trkpt lat="46.26919" lon="5.4372">
        <ele>405.4</ele>
        <time>2022-02-24T16:57:23Z</time>
      </trkpt>
      <trkpt lat="46.26922" lon="5.4372">
        <ele>405.4</ele>
        <time>2022-02-24T16:57:24Z</time>
      </trkpt>
      <trkpt lat="46.26924" lon="5.4372">
        <ele>405.6</ele>
        <time>2022-02-24T16:57:25Z</time>
      </trkpt>
      <trkpt lat="46.26927" lon="5.4372">
        <ele>405.6</ele>
        <time>2022-02-24T16:57:26Z</time>
      </trkpt>
      <trkpt lat="46.26929" lon="5.4372">
        <ele>406</ele>
        <time>2022-02-24T16:57:27Z</time>
      </trkpt>
      <trkpt lat="46.26932" lon="5.4372">
        <ele>406</ele>
        <time>2022-02-24T16:57:28Z</time>
      </trkpt>
      <trkpt lat="46.26935" lon="5.43721">
        <ele>406.2</ele>
        <time>2022-02-24T16:57:29Z</time>
      </trkpt>
      <trkpt lat="46.26937" lon="5.43722">
        <ele>406.2</ele>
        <time>2022-02-24T16:57:30Z</time>
      </trkpt>
      <trkpt lat="46.2694" lon="5.43723">
        <ele>406.4</ele>
        <time>2022-02-24T16:57:31Z</time>
      </trkpt>
      <trkpt lat="46.26943" lon="5.43724">
        <ele>406.4</ele>
        <time>2022-02-24T16:57:32Z</time>
      </trkpt>
      <trkpt lat="46.26945" lon="5.43725">
        <ele>406.8</ele>
        <time>2022-02-24T16:57:33Z</time>
      </trkpt>
      <trkpt lat="46.26948" lon="5.43726">
        <ele>406.8</ele>
        <time>2022-02-24T16:57:34Z</time>
      </trkpt>
      <trkpt lat="46.2695" lon="5.43726">
        <ele>407</ele>
        <time>2022-02-24T16:57:35Z</time>
      </trkpt>
      <trkpt lat="46.26953" lon="5.43727">
        <ele>407</ele>
        <time>2022-02-24T16:57:36Z</time>
      </trkpt>
      <trkpt lat="46.26955" lon="5.43728">
        <ele>407.4</ele>
        <time>2022-02-24T16:57:37Z</time>
      </trkpt>
      <trkpt lat="46.26958" lon="5.43728">
        <ele>407.6</ele>
        <time>2022-02-24T16:57:38Z</time>
      </trkpt>
      <trkpt lat="46.2696" lon="5.43729">
        <ele>407.6</ele>
        <time>2022-02-24T16:57:39Z</time>
      </trkpt>
      <trkpt lat="46.26963" lon="5.43731">
        <ele>407.8</ele>
        <time>2022-02-24T16:57:40Z</time>
      </trkpt>
      <trkpt lat="46.26965" lon="5.43732">
        <ele>407.8</ele>
        <time>2022-02-24T16:57:41Z</time>
      </trkpt>
      <trkpt lat="46.26968" lon="5.43734">
        <ele>408.2</ele>
        <time>2022-02-24T16:57:42Z</time>
      </trkpt>
      <trkpt lat="46.2697" lon="5.43735">
        <ele>408.4</ele>
        <time>2022-02-24T16:57:43Z</time>
      </trkpt>
      <trkpt lat="46.26972" lon="5.43736">
        <ele>408.4</ele>
        <time>2022-02-24T16:57:44Z</time>
      </trkpt>
      <trkpt lat="46.26975" lon="5.43736">
        <ele>408.6</ele>
        <time>2022-02-24T16:57:45Z</time>
      </trkpt>
      <trkpt lat="46.26977" lon="5.43737">
        <ele>408.6</ele>
        <time>2022-02-24T16:57:46Z</time>
      </trkpt>
      <trkpt lat="46.2698" lon="5.43737">
        <ele>409</ele>
        <time>2022-02-24T16:57:47Z</time>
      </trkpt>
      <trkpt lat="46.26982" lon="5.43739">
        <ele>409</ele>
        <time>2022-02-24T16:57:48Z</time>
      </trkpt>
      <trkpt lat="46.26985" lon="5.4374">
        <ele>409.2</ele>
        <time>2022-02-24T16:57:49Z</time>
      </trkpt>
      <trkpt lat="46.26987" lon="5.43742">
        <ele>409.2</ele>
        <time>2022-02-24T16:57:50Z</time>
      </trkpt>
      <trkpt lat="46.2699" lon="5.43743">
        <ele>409.6</ele>
        <time>2022-02-24T16:57:51Z</time>
      </trkpt>
      <trkpt lat="46.26993" lon="5.43744">
        <ele>409.6</ele>
        <time>2022-02-24T16:57:52Z</time>
      </trkpt>
      <trkpt lat="46.26996" lon="5.43745">
        <ele>410</ele>
        <time>2022-02-24T16:57:53Z</time>
      </trkpt>
      <trkpt lat="46.26999" lon="5.43747">
        <ele>410</ele>
        <time>2022-02-24T16:57:54Z</time>
      </trkpt>
      <trkpt lat="46.27001" lon="5.43748">
        <ele>410.4</ele>
        <time>2022-02-24T16:57:55Z</time>
      </trkpt>
      <trkpt lat="46.27004" lon="5.43748">
        <ele>410.4</ele>
        <time>2022-02-24T16:57:56Z</time>
      </trkpt>
      <trkpt lat="46.27007" lon="5.43749">
        <ele>410.8</ele>
        <time>2022-02-24T16:57:57Z</time>
      </trkpt>
      <trkpt lat="46.27009" lon="5.4375">
        <ele>410.8</ele>
        <time>2022-02-24T16:57:58Z</time>
      </trkpt>
      <trkpt lat="46.27012" lon="5.43752">
        <ele>411.2</ele>
        <time>2022-02-24T16:57:59Z</time>
      </trkpt>
      <trkpt lat="46.27015" lon="5.43753">
        <ele>411.2</ele>
        <time>2022-02-24T16:58:00Z</time>
      </trkpt>
      <trkpt lat="46.27017" lon="5.43754">
        <ele>411.6</ele>
        <time>2022-02-24T16:58:01Z</time>
      </trkpt>
      <trkpt lat="46.2702" lon="5.43756">
        <ele>411.6</ele>
        <time>2022-02-24T16:58:02Z</time>
      </trkpt>
      <trkpt lat="46.27022" lon="5.43757">
        <ele>411.8</ele>
        <time>2022-02-24T16:58:03Z</time>
      </trkpt>
      <trkpt lat="46.27025" lon="5.43758">
        <ele>412</ele>
        <time>2022-02-24T16:58:04Z</time>
      </trkpt>
      <trkpt lat="46.27027" lon="5.4376">
        <ele>412</ele>
        <time>2022-02-24T16:58:05Z</time>
      </trkpt>
      <trkpt lat="46.2703" lon="5.4376">
        <ele>412.4</ele>
        <time>2022-02-24T16:58:06Z</time>
      </trkpt>
      <trkpt lat="46.27032" lon="5.4376">
        <ele>412.4</ele>
        <time>2022-02-24T16:58:07Z</time>
      </trkpt>
      <trkpt lat="46.27034" lon="5.43759">
        <ele>412.8</ele>
        <time>2022-02-24T16:58:08Z</time>
      </trkpt>
      <trkpt lat="46.27037" lon="5.4376">
        <ele>412.8</ele>
        <time>2022-02-24T16:58:09Z</time>
      </trkpt>
      <trkpt lat="46.2704" lon="5.43761">
        <ele>413</ele>
        <time>2022-02-24T16:58:10Z</time>
      </trkpt>
      <trkpt lat="46.27042" lon="5.43762">
        <ele>413</ele>
        <time>2022-02-24T16:58:11Z</time>
      </trkpt>
      <trkpt lat="46.27045" lon="5.43763">
        <ele>413.4</ele>
        <time>2022-02-24T16:58:12Z</time>
      </trkpt>
      <trkpt lat="46.27047" lon="5.43765">
        <ele>413.4</ele>
        <time>2022-02-24T16:58:13Z</time>
      </trkpt>
      <trkpt lat="46.2705" lon="5.43766">
        <ele>413.8</ele>
        <time>2022-02-24T16:58:14Z</time>
      </trkpt>
      <trkpt lat="46.27053" lon="5.43767">
        <ele>413.8</ele>
        <time>2022-02-24T16:58:15Z</time>
      </trkpt>
      <trkpt lat="46.27055" lon="5.43768">
        <ele>414</ele>
        <time>2022-02-24T16:58:16Z</time>
      </trkpt>
      <trkpt lat="46.27058" lon="5.43769">
        <ele>414</ele>
        <time>2022-02-24T16:58:17Z</time>
      </trkpt>
      <trkpt lat="46.27061" lon="5.43772">
        <ele>414.4</ele>
        <time>2022-02-24T16:58:18Z</time>
      </trkpt>
      <trkpt lat="46.27064" lon="5.43774">
        <ele>414.4</ele>
        <time>2022-02-24T16:58:19Z</time>
      </trkpt>
      <trkpt lat="46.27066" lon="5.43776">
        <ele>414.6</ele>
        <time>2022-02-24T16:58:20Z</time>
      </trkpt>
      <trkpt lat="46.27069" lon="5.43778">
        <ele>414.6</ele>
        <time>2022-02-24T16:58:21Z</time>
      </trkpt>
      <trkpt lat="46.27072" lon="5.4378">
        <ele>415</ele>
        <time>2022-02-24T16:58:22Z</time>
      </trkpt>
      <trkpt lat="46.27075" lon="5.43781">
        <ele>415.2</ele>
        <time>2022-02-24T16:58:23Z</time>
      </trkpt>
      <trkpt lat="46.27077" lon="5.43783">
        <ele>415.2</ele>
        <time>2022-02-24T16:58:24Z</time>
      </trkpt>
      <trkpt lat="46.2708" lon="5.43784">
        <ele>415.6</ele>
        <time>2022-02-24T16:58:25Z</time>
      </trkpt>
      <trkpt lat="46.27082" lon="5.43786">
        <ele>415.6</ele>
        <time>2022-02-24T16:58:26Z</time>
      </trkpt>
      <trkpt lat="46.27085" lon="5.43787">
        <ele>416</ele>
        <time>2022-02-24T16:58:27Z</time>
      </trkpt>
      <trkpt lat="46.27088" lon="5.43788">
        <ele>416.2</ele>
        <time>2022-02-24T16:58:28Z</time>
      </trkpt>
      <trkpt lat="46.2709" lon="5.43789">
        <ele>416.2</ele>
        <time>2022-02-24T16:58:29Z</time>
      </trkpt>
      <trkpt lat="46.27093" lon="5.4379">
        <ele>416.6</ele>
        <time>2022-02-24T16:58:30Z</time>
      </trkpt>
      <trkpt lat="46.27096" lon="5.43791">
        <ele>416.6</ele>
        <time>2022-02-24T16:58:31Z</time>
      </trkpt>
      <trkpt lat="46.27098" lon="5.43791">
        <ele>416.8</ele>
        <time>2022-02-24T16:58:32Z</time>
      </trkpt>
      <trkpt lat="46.27101" lon="5.43792">
        <ele>416.8</ele>
        <time>2022-02-24T16:58:33Z</time>
      </trkpt>
      <trkpt lat="46.27104" lon="5.43793">
        <ele>417.2</ele>
        <time>2022-02-24T16:58:34Z</time>
      </trkpt>
      <trkpt lat="46.27106" lon="5.43794">
        <ele>417.2</ele>
        <time>2022-02-24T16:58:35Z</time>
      </trkpt>
      <trkpt lat="46.27109" lon="5.43796">
        <ele>417.6</ele>
        <time>2022-02-24T16:58:36Z</time>
      </trkpt>
      <trkpt lat="46.27112" lon="5.43798">
        <ele>417.6</ele>
        <time>2022-02-24T16:58:37Z</time>
      </trkpt>
      <trkpt lat="46.27114" lon="5.438">
        <ele>418</ele>
        <time>2022-02-24T16:58:38Z</time>
      </trkpt>
      <trkpt lat="46.27116" lon="5.43802">
        <ele>418.2</ele>
        <time>2022-02-24T16:58:39Z</time>
      </trkpt>
      <trkpt lat="46.27119" lon="5.43803">
        <ele>418.2</ele>
        <time>2022-02-24T16:58:40Z</time>
      </trkpt>
      <trkpt lat="46.27122" lon="5.43804">
        <ele>418.2</ele>
        <time>2022-02-24T16:58:41Z</time>
      </trkpt>
      <trkpt lat="46.27124" lon="5.43805">
        <ele>418.6</ele>
        <time>2022-02-24T16:58:42Z</time>
      </trkpt>
      <trkpt lat="46.27126" lon="5.43807">
        <ele>418.6</ele>
        <time>2022-02-24T16:58:43Z</time>
      </trkpt>
      <trkpt lat="46.27128" lon="5.43808">
        <ele>418.8</ele>
        <time>2022-02-24T16:58:44Z</time>
      </trkpt>
      <trkpt lat="46.2713" lon="5.43809">
        <ele>418.8</ele>
        <time>2022-02-24T16:58:45Z</time>
      </trkpt>
      <trkpt lat="46.27133" lon="5.43811">
        <ele>419.2</ele>
        <time>2022-02-24T16:58:46Z</time>
      </trkpt>
      <trkpt lat="46.27135" lon="5.43811">
        <ele>419.2</ele>
        <time>2022-02-24T16:58:47Z</time>
      </trkpt>
      <trkpt lat="46.27138" lon="5.43812">
        <ele>419.4</ele>
        <time>2022-02-24T16:58:48Z</time>
      </trkpt>
      <trkpt lat="46.2714" lon="5.43813">
        <ele>419.4</ele>
        <time>2022-02-24T16:58:49Z</time>
      </trkpt>
      <trkpt lat="46.27142" lon="5.43814">
        <ele>419.8</ele>
        <time>2022-02-24T16:58:50Z</time>
      </trkpt>
      <trkpt lat="46.27145" lon="5.43814">
        <ele>419.8</ele>
        <time>2022-02-24T16:58:51Z</time>
      </trkpt>
      <trkpt lat="46.27147" lon="5.43815">
        <ele>420.2</ele>
        <time>2022-02-24T16:58:52Z</time>
      </trkpt>
      <trkpt lat="46.27149" lon="5.43816">
        <ele>420.2</ele>
        <time>2022-02-24T16:58:53Z</time>
      </trkpt>
      <trkpt lat="46.27152" lon="5.43818">
        <ele>420.4</ele>
        <time>2022-02-24T16:58:54Z</time>
      </trkpt>
      <trkpt lat="46.27154" lon="5.43819">
        <ele>420.4</ele>
        <time>2022-02-24T16:58:55Z</time>
      </trkpt>
      <trkpt lat="46.27157" lon="5.43821">
        <ele>420.8</ele>
        <time>2022-02-24T16:58:56Z</time>
      </trkpt>
      <trkpt lat="46.27159" lon="5.43822">
        <ele>420.8</ele>
        <time>2022-02-24T16:58:57Z</time>
      </trkpt>
      <trkpt lat="46.27161" lon="5.43823">
        <ele>421</ele>
        <time>2022-02-24T16:58:58Z</time>
      </trkpt>
      <trkpt lat="46.27163" lon="5.43824">
        <ele>421</ele>
        <time>2022-02-24T16:58:59Z</time>
      </trkpt>
      <trkpt lat="46.27165" lon="5.43826">
        <ele>421.4</ele>
        <time>2022-02-24T16:59:00Z</time>
      </trkpt>
      <trkpt lat="46.27168" lon="5.43827">
        <ele>421.4</ele>
        <time>2022-02-24T16:59:01Z</time>
      </trkpt>
      <trkpt lat="46.2717" lon="5.43828">
        <ele>421.6</ele>
        <time>2022-02-24T16:59:02Z</time>
      </trkpt>
      <trkpt lat="46.27173" lon="5.4383">
        <ele>421.6</ele>
        <time>2022-02-24T16:59:03Z</time>
      </trkpt>
      <trkpt lat="46.27175" lon="5.43831">
        <ele>422</ele>
        <time>2022-02-24T16:59:04Z</time>
      </trkpt>
      <trkpt lat="46.27178" lon="5.43832">
        <ele>422</ele>
        <time>2022-02-24T16:59:05Z</time>
      </trkpt>
      <trkpt lat="46.2718" lon="5.43833">
        <ele>422.2</ele>
        <time>2022-02-24T16:59:06Z</time>
      </trkpt>
      <trkpt lat="46.27183" lon="5.43835">
        <ele>422.4</ele>
        <time>2022-02-24T16:59:07Z</time>
      </trkpt>
      <trkpt lat="46.27185" lon="5.43837">
        <ele>422.4</ele>
        <time>2022-02-24T16:59:08Z</time>
      </trkpt>
      <trkpt lat="46.27188" lon="5.43838">
        <ele>422.8</ele>
        <time>2022-02-24T16:59:09Z</time>
      </trkpt>
      <trkpt lat="46.2719" lon="5.43839">
        <ele>422.8</ele>
        <time>2022-02-24T16:59:10Z</time>
      </trkpt>
      <trkpt lat="46.27192" lon="5.4384">
        <ele>423</ele>
        <time>2022-02-24T16:59:11Z</time>
      </trkpt>
      <trkpt lat="46.27195" lon="5.43841">
        <ele>423.2</ele>
        <time>2022-02-24T16:59:12Z</time>
      </trkpt>
      <trkpt lat="46.27197" lon="5.43842">
        <ele>423.2</ele>
        <time>2022-02-24T16:59:13Z</time>
      </trkpt>
      <trkpt lat="46.272" lon="5.43844">
        <ele>423.6</ele>
        <time>2022-02-24T16:59:14Z</time>
      </trkpt>
      <trkpt lat="46.27202" lon="5.43845">
        <ele>423.6</ele>
        <time>2022-02-24T16:59:15Z</time>
      </trkpt>
      <trkpt lat="46.27204" lon="5.43846">
        <ele>423.8</ele>
        <time>2022-02-24T16:59:16Z</time>
      </trkpt>
      <trkpt lat="46.27207" lon="5.43848">
        <ele>423.8</ele>
        <time>2022-02-24T16:59:17Z</time>
      </trkpt>
      <trkpt lat="46.27209" lon="5.43849">
        <ele>424.2</ele>
        <time>2022-02-24T16:59:18Z</time>
      </trkpt>
      <trkpt lat="46.27212" lon="5.43849">
        <ele>424.2</ele>
        <time>2022-02-24T16:59:19Z</time>
      </trkpt>
      <trkpt lat="46.27214" lon="5.4385">
        <ele>424.6</ele>
        <time>2022-02-24T16:59:20Z</time>
      </trkpt>
      <trkpt lat="46.27216" lon="5.43851">
        <ele>424.8</ele>
        <time>2022-02-24T16:59:21Z</time>
      </trkpt>
      <trkpt lat="46.27219" lon="5.43852">
        <ele>425.2</ele>
        <time>2022-02-24T16:59:22Z</time>
      </trkpt>
      <trkpt lat="46.27221" lon="5.43853">
        <ele>425.2</ele>
        <time>2022-02-24T16:59:23Z</time>
      </trkpt>
      <trkpt lat="46.27223" lon="5.43855">
        <ele>425.4</ele>
        <time>2022-02-24T16:59:24Z</time>
      </trkpt>
      <trkpt lat="46.27225" lon="5.43856">
        <ele>425.4</ele>
        <time>2022-02-24T16:59:25Z</time>
      </trkpt>
      <trkpt lat="46.27228" lon="5.43858">
        <ele>425.4</ele>
        <time>2022-02-24T16:59:26Z</time>
      </trkpt>
      <trkpt lat="46.2723" lon="5.43859">
        <ele>425.8</ele>
        <time>2022-02-24T16:59:27Z</time>
      </trkpt>
      <trkpt lat="46.27232" lon="5.4386">
        <ele>425.8</ele>
        <time>2022-02-24T16:59:28Z</time>
      </trkpt>
      <trkpt lat="46.27235" lon="5.43861">
        <ele>426</ele>
        <time>2022-02-24T16:59:29Z</time>
      </trkpt>
      <trkpt lat="46.27237" lon="5.43861">
        <ele>426</ele>
        <time>2022-02-24T16:59:30Z</time>
      </trkpt>
      <trkpt lat="46.2724" lon="5.43861">
        <ele>426.4</ele>
        <time>2022-02-24T16:59:31Z</time>
      </trkpt>
      <trkpt lat="46.27242" lon="5.43862">
        <ele>426.4</ele>
        <time>2022-02-24T16:59:32Z</time>
      </trkpt>
      <trkpt lat="46.27245" lon="5.43863">
        <ele>426.6</ele>
        <time>2022-02-24T16:59:33Z</time>
      </trkpt>
      <trkpt lat="46.27247" lon="5.43863">
        <ele>426.6</ele>
        <time>2022-02-24T16:59:34Z</time>
      </trkpt>
      <trkpt lat="46.2725" lon="5.43865">
        <ele>427</ele>
        <time>2022-02-24T16:59:35Z</time>
      </trkpt>
      <trkpt lat="46.27252" lon="5.43866">
        <ele>427.2</ele>
        <time>2022-02-24T16:59:36Z</time>
      </trkpt>
      <trkpt lat="46.27254" lon="5.43867">
        <ele>427.2</ele>
        <time>2022-02-24T16:59:37Z</time>
      </trkpt>
      <trkpt lat="46.27257" lon="5.43868">
        <ele>427.4</ele>
        <time>2022-02-24T16:59:38Z</time>
      </trkpt>
      <trkpt lat="46.27259" lon="5.43869">
        <ele>427.4</ele>
        <time>2022-02-24T16:59:39Z</time>
      </trkpt>
      <trkpt lat="46.27262" lon="5.43869">
        <ele>427.8</ele>
        <time>2022-02-24T16:59:40Z</time>
      </trkpt>
      <trkpt lat="46.27264" lon="5.4387">
        <ele>427.8</ele>
        <time>2022-02-24T16:59:41Z</time>
      </trkpt>
      <trkpt lat="46.27267" lon="5.43871">
        <ele>428</ele>
        <time>2022-02-24T16:59:42Z</time>
      </trkpt>
      <trkpt lat="46.27269" lon="5.43872">
        <ele>428</ele>
        <time>2022-02-24T16:59:43Z</time>
      </trkpt>
      <trkpt lat="46.27271" lon="5.43873">
        <ele>428.4</ele>
        <time>2022-02-24T16:59:44Z</time>
      </trkpt>
      <trkpt lat="46.27273" lon="5.43874">
        <ele>428.4</ele>
        <time>2022-02-24T16:59:45Z</time>
      </trkpt>
      <trkpt lat="46.27275" lon="5.43875">
        <ele>428.8</ele>
        <time>2022-02-24T16:59:46Z</time>
      </trkpt>
      <trkpt lat="46.27278" lon="5.43876">
        <ele>428.8</ele>
        <time>2022-02-24T16:59:47Z</time>
      </trkpt>
      <trkpt lat="46.2728" lon="5.43878">
        <ele>429.2</ele>
        <time>2022-02-24T16:59:48Z</time>
      </trkpt>
      <trkpt lat="46.27282" lon="5.4388">
        <ele>429.4</ele>
        <time>2022-02-24T16:59:49Z</time>
      </trkpt>
      <trkpt lat="46.27284" lon="5.43882">
        <ele>429.4</ele>
        <time>2022-02-24T16:59:50Z</time>
      </trkpt>
      <trkpt lat="46.27286" lon="5.43883">
        <ele>429.6</ele>
        <time>2022-02-24T16:59:51Z</time>
      </trkpt>
      <trkpt lat="46.27289" lon="5.43883">
        <ele>429.6</ele>
        <time>2022-02-24T16:59:52Z</time>
      </trkpt>
      <trkpt lat="46.27291" lon="5.43885">
        <ele>430</ele>
        <time>2022-02-24T16:59:53Z</time>
      </trkpt>
      <trkpt lat="46.27294" lon="5.43886">
        <ele>430</ele>
        <time>2022-02-24T16:59:54Z</time>
      </trkpt>
      <trkpt lat="46.27296" lon="5.43887">
        <ele>430.4</ele>
        <time>2022-02-24T16:59:55Z</time>
      </trkpt>
      <trkpt lat="46.27299" lon="5.43888">
        <ele>430.4</ele>
        <time>2022-02-24T16:59:56Z</time>
      </trkpt>
      <trkpt lat="46.27301" lon="5.43889">
        <ele>430.8</ele>
        <time>2022-02-24T16:59:57Z</time>
      </trkpt>
      <trkpt lat="46.27304" lon="5.4389">
        <ele>431</ele>
        <time>2022-02-24T16:59:58Z</time>
      </trkpt>
      <trkpt lat="46.27308" lon="5.43891">
        <ele>431.2</ele>
        <time>2022-02-24T16:59:59Z</time>
      </trkpt>
      <trkpt lat="46.27309" lon="5.43891">
        <ele>431.4</ele>
        <time>2022-02-24T17:00:00Z</time>
      </trkpt>
      <trkpt lat="46.27311" lon="5.43891">
        <ele>431.4</ele>
        <time>2022-02-24T17:00:01Z</time>
      </trkpt>
      <trkpt lat="46.27314" lon="5.43892">
        <ele>431.8</ele>
        <time>2022-02-24T17:00:02Z</time>
      </trkpt>
      <trkpt lat="46.27317" lon="5.43892">
        <ele>431.8</ele>
        <time>2022-02-24T17:00:03Z</time>
      </trkpt>
      <trkpt lat="46.27319" lon="5.43893">
        <ele>432</ele>
        <time>2022-02-24T17:00:04Z</time>
      </trkpt>
      <trkpt lat="46.27322" lon="5.43894">
        <ele>432</ele>
        <time>2022-02-24T17:00:05Z</time>
      </trkpt>
      <trkpt lat="46.27324" lon="5.43896">
        <ele>432.4</ele>
        <time>2022-02-24T17:00:06Z</time>
      </trkpt>
      <trkpt lat="46.27327" lon="5.43897">
        <ele>432.4</ele>
        <time>2022-02-24T17:00:07Z</time>
      </trkpt>
      <trkpt lat="46.27329" lon="5.43898">
        <ele>432.6</ele>
        <time>2022-02-24T17:00:08Z</time>
      </trkpt>
      <trkpt lat="46.27332" lon="5.43899">
        <ele>432.6</ele>
        <time>2022-02-24T17:00:09Z</time>
      </trkpt>
      <trkpt lat="46.27334" lon="5.439">
        <ele>433</ele>
        <time>2022-02-24T17:00:10Z</time>
      </trkpt>
      <trkpt lat="46.27336" lon="5.43901">
        <ele>433.2</ele>
        <time>2022-02-24T17:00:11Z</time>
      </trkpt>
      <trkpt lat="46.27338" lon="5.43902">
        <ele>433.4</ele>
        <time>2022-02-24T17:00:12Z</time>
      </trkpt>
      <trkpt lat="46.2734" lon="5.43904">
        <ele>433.4</ele>
        <time>2022-02-24T17:00:13Z</time>
      </trkpt>
      <trkpt lat="46.27343" lon="5.43906">
        <ele>433.8</ele>
        <time>2022-02-24T17:00:14Z</time>
      </trkpt>
      <trkpt lat="46.27345" lon="5.43907">
        <ele>433.8</ele>
        <time>2022-02-24T17:00:15Z</time>
      </trkpt>
      <trkpt lat="46.27347" lon="5.43909">
        <ele>434.2</ele>
        <time>2022-02-24T17:00:16Z</time>
      </trkpt>
      <trkpt lat="46.27349" lon="5.4391">
        <ele>434.2</ele>
        <time>2022-02-24T17:00:17Z</time>
      </trkpt>
      <trkpt lat="46.27352" lon="5.43911">
        <ele>434.4</ele>
        <time>2022-02-24T17:00:18Z</time>
      </trkpt>
      <trkpt lat="46.27354" lon="5.43912">
        <ele>434.6</ele>
        <time>2022-02-24T17:00:19Z</time>
      </trkpt>
      <trkpt lat="46.27357" lon="5.43913">
        <ele>434.6</ele>
        <time>2022-02-24T17:00:20Z</time>
      </trkpt>
      <trkpt lat="46.27359" lon="5.43913">
        <ele>434.8</ele>
        <time>2022-02-24T17:00:21Z</time>
      </trkpt>
      <trkpt lat="46.27362" lon="5.43914">
        <ele>434.8</ele>
        <time>2022-02-24T17:00:22Z</time>
      </trkpt>
      <trkpt lat="46.27365" lon="5.43915">
        <ele>435.4</ele>
        <time>2022-02-24T17:00:23Z</time>
      </trkpt>
      <trkpt lat="46.27367" lon="5.43916">
        <ele>435.6</ele>
        <time>2022-02-24T17:00:24Z</time>
      </trkpt>
      <trkpt lat="46.2737" lon="5.43917">
        <ele>435.8</ele>
        <time>2022-02-24T17:00:25Z</time>
      </trkpt>
      <trkpt lat="46.27373" lon="5.43919">
        <ele>435.8</ele>
        <time>2022-02-24T17:00:26Z</time>
      </trkpt>
      <trkpt lat="46.27375" lon="5.4392">
        <ele>436.2</ele>
        <time>2022-02-24T17:00:27Z</time>
      </trkpt>
      <trkpt lat="46.27378" lon="5.43921">
        <ele>436.2</ele>
        <time>2022-02-24T17:00:28Z</time>
      </trkpt>
      <trkpt lat="46.2738" lon="5.43922">
        <ele>436.6</ele>
        <time>2022-02-24T17:00:29Z</time>
      </trkpt>
      <trkpt lat="46.27382" lon="5.43923">
        <ele>436.6</ele>
        <time>2022-02-24T17:00:30Z</time>
      </trkpt>
      <trkpt lat="46.27385" lon="5.43923">
        <ele>436.8</ele>
        <time>2022-02-24T17:00:31Z</time>
      </trkpt>
      <trkpt lat="46.27388" lon="5.43924">
        <ele>436.8</ele>
        <time>2022-02-24T17:00:32Z</time>
      </trkpt>
      <trkpt lat="46.2739" lon="5.43926">
        <ele>437.2</ele>
        <time>2022-02-24T17:00:33Z</time>
      </trkpt>
      <trkpt lat="46.27393" lon="5.43927">
        <ele>437.4</ele>
        <time>2022-02-24T17:00:34Z</time>
      </trkpt>
      <trkpt lat="46.27395" lon="5.43928">
        <ele>437.4</ele>
        <time>2022-02-24T17:00:35Z</time>
      </trkpt>
      <trkpt lat="46.27397" lon="5.43929">
        <ele>437.8</ele>
        <time>2022-02-24T17:00:36Z</time>
      </trkpt>
      <trkpt lat="46.274" lon="5.4393">
        <ele>437.8</ele>
        <time>2022-02-24T17:00:37Z</time>
      </trkpt>
      <trkpt lat="46.27403" lon="5.43931">
        <ele>438</ele>
        <time>2022-02-24T17:00:38Z</time>
      </trkpt>
      <trkpt lat="46.27406" lon="5.43932">
        <ele>438</ele>
        <time>2022-02-24T17:00:39Z</time>
      </trkpt>
      <trkpt lat="46.27408" lon="5.43933">
        <ele>438.4</ele>
        <time>2022-02-24T17:00:40Z</time>
      </trkpt>
      <trkpt lat="46.27411" lon="5.43934">
        <ele>438.4</ele>
        <time>2022-02-24T17:00:41Z</time>
      </trkpt>
      <trkpt lat="46.27413" lon="5.43935">
        <ele>438.8</ele>
        <time>2022-02-24T17:00:42Z</time>
      </trkpt>
      <trkpt lat="46.27415" lon="5.43935">
        <ele>438.8</ele>
        <time>2022-02-24T17:00:43Z</time>
      </trkpt>
      <trkpt lat="46.27418" lon="5.43936">
        <ele>439.2</ele>
        <time>2022-02-24T17:00:44Z</time>
      </trkpt>
      <trkpt lat="46.2742" lon="5.43937">
        <ele>439.4</ele>
        <time>2022-02-24T17:00:45Z</time>
      </trkpt>
      <trkpt lat="46.27423" lon="5.43938">
        <ele>439.4</ele>
        <time>2022-02-24T17:00:46Z</time>
      </trkpt>
      <trkpt lat="46.27425" lon="5.43939">
        <ele>439.8</ele>
        <time>2022-02-24T17:00:47Z</time>
      </trkpt>
      <trkpt lat="46.27428" lon="5.4394">
        <ele>440</ele>
        <time>2022-02-24T17:00:48Z</time>
      </trkpt>
      <trkpt lat="46.2743" lon="5.43941">
        <ele>440.2</ele>
        <time>2022-02-24T17:00:49Z</time>
      </trkpt>
      <trkpt lat="46.27433" lon="5.43942">
        <ele>440.2</ele>
        <time>2022-02-24T17:00:50Z</time>
      </trkpt>
      <trkpt lat="46.27435" lon="5.43943">
        <ele>440.6</ele>
        <time>2022-02-24T17:00:51Z</time>
      </trkpt>
      <trkpt lat="46.27438" lon="5.43943">
        <ele>440.6</ele>
        <time>2022-02-24T17:00:52Z</time>
      </trkpt>
      <trkpt lat="46.2744" lon="5.43944">
        <ele>441</ele>
        <time>2022-02-24T17:00:53Z</time>
      </trkpt>
      <trkpt lat="46.27443" lon="5.43944">
        <ele>441</ele>
        <time>2022-02-24T17:00:54Z</time>
      </trkpt>
      <trkpt lat="46.27445" lon="5.43945">
        <ele>441.2</ele>
        <time>2022-02-24T17:00:55Z</time>
      </trkpt>
      <trkpt lat="46.27448" lon="5.43946">
        <ele>441.2</ele>
        <time>2022-02-24T17:00:56Z</time>
      </trkpt>
      <trkpt lat="46.2745" lon="5.43947">
        <ele>441.6</ele>
        <time>2022-02-24T17:00:57Z</time>
      </trkpt>
      <trkpt lat="46.27453" lon="5.43948">
        <ele>441.6</ele>
        <time>2022-02-24T17:00:58Z</time>
      </trkpt>
      <trkpt lat="46.27457" lon="5.43949">
        <ele>442</ele>
        <time>2022-02-24T17:00:59Z</time>
      </trkpt>
      <trkpt lat="46.27459" lon="5.43949">
        <ele>442</ele>
        <time>2022-02-24T17:01:00Z</time>
      </trkpt>
      <trkpt lat="46.27462" lon="5.4395">
        <ele>442.4</ele>
        <time>2022-02-24T17:01:01Z</time>
      </trkpt>
      <trkpt lat="46.27465" lon="5.43951">
        <ele>442.4</ele>
        <time>2022-02-24T17:01:02Z</time>
      </trkpt>
      <trkpt lat="46.27467" lon="5.43952">
        <ele>442.8</ele>
        <time>2022-02-24T17:01:03Z</time>
      </trkpt>
      <trkpt lat="46.2747" lon="5.43953">
        <ele>443</ele>
        <time>2022-02-24T17:01:04Z</time>
      </trkpt>
      <trkpt lat="46.27473" lon="5.43955">
        <ele>443</ele>
        <time>2022-02-24T17:01:05Z</time>
      </trkpt>
      <trkpt lat="46.27476" lon="5.43956">
        <ele>443.2</ele>
        <time>2022-02-24T17:01:06Z</time>
      </trkpt>
      <trkpt lat="46.27479" lon="5.43958">
        <ele>443.2</ele>
        <time>2022-02-24T17:01:07Z</time>
      </trkpt>
      <trkpt lat="46.27481" lon="5.4396">
        <ele>443.6</ele>
        <time>2022-02-24T17:01:08Z</time>
      </trkpt>
      <trkpt lat="46.27484" lon="5.43963">
        <ele>443.6</ele>
        <time>2022-02-24T17:01:09Z</time>
      </trkpt>
      <trkpt lat="46.27486" lon="5.43965">
        <ele>443.8</ele>
        <time>2022-02-24T17:01:10Z</time>
      </trkpt>
      <trkpt lat="46.27488" lon="5.43967">
        <ele>444</ele>
        <time>2022-02-24T17:01:11Z</time>
      </trkpt>
      <trkpt lat="46.27491" lon="5.4397">
        <ele>444</ele>
        <time>2022-02-24T17:01:12Z</time>
      </trkpt>
      <trkpt lat="46.27493" lon="5.43972">
        <ele>444.4</ele>
        <time>2022-02-24T17:01:13Z</time>
      </trkpt>
      <trkpt lat="46.27495" lon="5.43975">
        <ele>444.6</ele>
        <time>2022-02-24T17:01:14Z</time>
      </trkpt>
      <trkpt lat="46.27497" lon="5.43977">
        <ele>444.6</ele>
        <time>2022-02-24T17:01:15Z</time>
      </trkpt>
      <trkpt lat="46.27499" lon="5.4398">
        <ele>444.8</ele>
        <time>2022-02-24T17:01:16Z</time>
      </trkpt>
      <trkpt lat="46.27501" lon="5.43983">
        <ele>444.8</ele>
        <time>2022-02-24T17:01:17Z</time>
      </trkpt>
      <trkpt lat="46.27503" lon="5.43986">
        <ele>445.2</ele>
        <time>2022-02-24T17:01:18Z</time>
      </trkpt>
      <trkpt lat="46.27506" lon="5.43989">
        <ele>445.4</ele>
        <time>2022-02-24T17:01:19Z</time>
      </trkpt>
      <trkpt lat="46.27508" lon="5.43991">
        <ele>445.4</ele>
        <time>2022-02-24T17:01:20Z</time>
      </trkpt>
      <trkpt lat="46.2751" lon="5.43994">
        <ele>445.6</ele>
        <time>2022-02-24T17:01:21Z</time>
      </trkpt>
      <trkpt lat="46.27512" lon="5.43997">
        <ele>445.8</ele>
        <time>2022-02-24T17:01:22Z</time>
      </trkpt>
      <trkpt lat="46.27514" lon="5.44">
        <ele>445.8</ele>
        <time>2022-02-24T17:01:23Z</time>
      </trkpt>
      <trkpt lat="46.27515" lon="5.44004">
        <ele>446</ele>
        <time>2022-02-24T17:01:24Z</time>
      </trkpt>
      <trkpt lat="46.27516" lon="5.44007">
        <ele>446</ele>
        <time>2022-02-24T17:01:25Z</time>
      </trkpt>
      <trkpt lat="46.27517" lon="5.44011">
        <ele>446.4</ele>
        <time>2022-02-24T17:01:26Z</time>
      </trkpt>
      <trkpt lat="46.27518" lon="5.44015">
        <ele>446.4</ele>
        <time>2022-02-24T17:01:27Z</time>
      </trkpt>
      <trkpt lat="46.27519" lon="5.44018">
        <ele>446.6</ele>
        <time>2022-02-24T17:01:28Z</time>
      </trkpt>
      <trkpt lat="46.2752" lon="5.44022">
        <ele>446.6</ele>
        <time>2022-02-24T17:01:29Z</time>
      </trkpt>
      <trkpt lat="46.27521" lon="5.44025">
        <ele>447</ele>
        <time>2022-02-24T17:01:30Z</time>
      </trkpt>
      <trkpt lat="46.27521" lon="5.44029">
        <ele>447</ele>
        <time>2022-02-24T17:01:31Z</time>
      </trkpt>
      <trkpt lat="46.27522" lon="5.44033">
        <ele>447.2</ele>
        <time>2022-02-24T17:01:32Z</time>
      </trkpt>
      <trkpt lat="46.27522" lon="5.44037">
        <ele>447.2</ele>
        <time>2022-02-24T17:01:33Z</time>
      </trkpt>
      <trkpt lat="46.27523" lon="5.4404">
        <ele>447.4</ele>
        <time>2022-02-24T17:01:34Z</time>
      </trkpt>
      <trkpt lat="46.27524" lon="5.44044">
        <ele>447.4</ele>
        <time>2022-02-24T17:01:35Z</time>
      </trkpt>
      <trkpt lat="46.27526" lon="5.44047">
        <ele>447.6</ele>
        <time>2022-02-24T17:01:36Z</time>
      </trkpt>
      <trkpt lat="46.27527" lon="5.4405">
        <ele>447.6</ele>
        <time>2022-02-24T17:01:37Z</time>
      </trkpt>
      <trkpt lat="46.27529" lon="5.44054">
        <ele>448</ele>
        <time>2022-02-24T17:01:38Z</time>
      </trkpt>
      <trkpt lat="46.2753" lon="5.44057">
        <ele>448</ele>
        <time>2022-02-24T17:01:39Z</time>
      </trkpt>
      <trkpt lat="46.27531" lon="5.44061">
        <ele>448.2</ele>
        <time>2022-02-24T17:01:40Z</time>
      </trkpt>
      <trkpt lat="46.27533" lon="5.44063">
        <ele>448.2</ele>
        <time>2022-02-24T17:01:41Z</time>
      </trkpt>
      <trkpt lat="46.27535" lon="5.44065">
        <ele>448.4</ele>
        <time>2022-02-24T17:01:42Z</time>
      </trkpt>
      <trkpt lat="46.27538" lon="5.44066">
        <ele>448.4</ele>
        <time>2022-02-24T17:01:43Z</time>
      </trkpt>
      <trkpt lat="46.27541" lon="5.44067">
        <ele>448.4</ele>
        <time>2022-02-24T17:01:44Z</time>
      </trkpt>
      <trkpt lat="46.27543" lon="5.44067">
        <ele>448.8</ele>
        <time>2022-02-24T17:01:45Z</time>
      </trkpt>
      <trkpt lat="46.27546" lon="5.44067">
        <ele>448.8</ele>
        <time>2022-02-24T17:01:46Z</time>
      </trkpt>
      <trkpt lat="46.27549" lon="5.44067">
        <ele>449</ele>
        <time>2022-02-24T17:01:47Z</time>
      </trkpt>
      <trkpt lat="46.27551" lon="5.44067">
        <ele>449</ele>
        <time>2022-02-24T17:01:48Z</time>
      </trkpt>
      <trkpt lat="46.27554" lon="5.44066">
        <ele>449.4</ele>
        <time>2022-02-24T17:01:49Z</time>
      </trkpt>
      <trkpt lat="46.27557" lon="5.44066">
        <ele>449.4</ele>
        <time>2022-02-24T17:01:50Z</time>
      </trkpt>
      <trkpt lat="46.2756" lon="5.44066">
        <ele>449.8</ele>
        <time>2022-02-24T17:01:51Z</time>
      </trkpt>
      <trkpt lat="46.27563" lon="5.44065">
        <ele>450</ele>
        <time>2022-02-24T17:01:52Z</time>
      </trkpt>
      <trkpt lat="46.27566" lon="5.44065">
        <ele>450</ele>
        <time>2022-02-24T17:01:53Z</time>
      </trkpt>
      <trkpt lat="46.27569" lon="5.44064">
        <ele>450.2</ele>
        <time>2022-02-24T17:01:54Z</time>
      </trkpt>
      <trkpt lat="46.27572" lon="5.44064">
        <ele>450.2</ele>
        <time>2022-02-24T17:01:55Z</time>
      </trkpt>
      <trkpt lat="46.27575" lon="5.44065">
        <ele>450.6</ele>
        <time>2022-02-24T17:01:56Z</time>
      </trkpt>
      <trkpt lat="46.27578" lon="5.44066">
        <ele>450.8</ele>
        <time>2022-02-24T17:01:57Z</time>
      </trkpt>
      <trkpt lat="46.27581" lon="5.44067">
        <ele>450.8</ele>
        <time>2022-02-24T17:01:58Z</time>
      </trkpt>
      <trkpt lat="46.27584" lon="5.44068">
        <ele>451.2</ele>
        <time>2022-02-24T17:01:59Z</time>
      </trkpt>
      <trkpt lat="46.27588" lon="5.44069">
        <ele>451.2</ele>
        <time>2022-02-24T17:02:00Z</time>
      </trkpt>
      <trkpt lat="46.2759" lon="5.44071">
        <ele>451.6</ele>
        <time>2022-02-24T17:02:01Z</time>
      </trkpt>
      <trkpt lat="46.27593" lon="5.44074">
        <ele>451.8</ele>
        <time>2022-02-24T17:02:02Z</time>
      </trkpt>
      <trkpt lat="46.27596" lon="5.44076">
        <ele>451.8</ele>
        <time>2022-02-24T17:02:03Z</time>
      </trkpt>
      <trkpt lat="46.276" lon="5.4408">
        <ele>452</ele>
        <time>2022-02-24T17:02:04Z</time>
      </trkpt>
      <trkpt lat="46.27602" lon="5.44083">
        <ele>452</ele>
        <time>2022-02-24T17:02:05Z</time>
      </trkpt>
      <trkpt lat="46.27605" lon="5.44086">
        <ele>452.4</ele>
        <time>2022-02-24T17:02:06Z</time>
      </trkpt>
      <trkpt lat="46.27608" lon="5.44089">
        <ele>452.4</ele>
        <time>2022-02-24T17:02:07Z</time>
      </trkpt>
      <trkpt lat="46.27611" lon="5.44092">
        <ele>452.6</ele>
        <time>2022-02-24T17:02:08Z</time>
      </trkpt>
      <trkpt lat="46.27614" lon="5.44095">
        <ele>452.6</ele>
        <time>2022-02-24T17:02:09Z</time>
      </trkpt>
      <trkpt lat="46.27617" lon="5.44098">
        <ele>453</ele>
        <time>2022-02-24T17:02:10Z</time>
      </trkpt>
      <trkpt lat="46.2762" lon="5.44101">
        <ele>453</ele>
        <time>2022-02-24T17:02:11Z</time>
      </trkpt>
      <trkpt lat="46.27623" lon="5.44103">
        <ele>453.4</ele>
        <time>2022-02-24T17:02:12Z</time>
      </trkpt>
      <trkpt lat="46.27625" lon="5.44106">
        <ele>453.4</ele>
        <time>2022-02-24T17:02:13Z</time>
      </trkpt>
      <trkpt lat="46.27628" lon="5.44108">
        <ele>453.6</ele>
        <time>2022-02-24T17:02:14Z</time>
      </trkpt>
      <trkpt lat="46.2763" lon="5.44111">
        <ele>453.6</ele>
        <time>2022-02-24T17:02:15Z</time>
      </trkpt>
      <trkpt lat="46.27633" lon="5.44113">
        <ele>454</ele>
        <time>2022-02-24T17:02:16Z</time>
      </trkpt>
      <trkpt lat="46.27635" lon="5.44115">
        <ele>454</ele>
        <time>2022-02-24T17:02:17Z</time>
      </trkpt>
      <trkpt lat="46.27637" lon="5.44117">
        <ele>454.2</ele>
        <time>2022-02-24T17:02:18Z</time>
      </trkpt>
      <trkpt lat="46.27639" lon="5.44119">
        <ele>454.2</ele>
        <time>2022-02-24T17:02:19Z</time>
      </trkpt>
      <trkpt lat="46.27641" lon="5.44121">
        <ele>454.6</ele>
        <time>2022-02-24T17:02:20Z</time>
      </trkpt>
      <trkpt lat="46.27643" lon="5.44124">
        <ele>454.6</ele>
        <time>2022-02-24T17:02:21Z</time>
      </trkpt>
      <trkpt lat="46.27645" lon="5.44126">
        <ele>454.8</ele>
        <time>2022-02-24T17:02:22Z</time>
      </trkpt>
      <trkpt lat="46.27647" lon="5.44129">
        <ele>454.8</ele>
        <time>2022-02-24T17:02:23Z</time>
      </trkpt>
      <trkpt lat="46.27649" lon="5.44131">
        <ele>455.2</ele>
        <time>2022-02-24T17:02:24Z</time>
      </trkpt>
      <trkpt lat="46.27651" lon="5.44133">
        <ele>455.2</ele>
        <time>2022-02-24T17:02:25Z</time>
      </trkpt>
      <trkpt lat="46.27653" lon="5.44135">
        <ele>455.6</ele>
        <time>2022-02-24T17:02:26Z</time>
      </trkpt>
      <trkpt lat="46.27655" lon="5.44138">
        <ele>455.6</ele>
        <time>2022-02-24T17:02:27Z</time>
      </trkpt>
      <trkpt lat="46.27657" lon="5.44141">
        <ele>455.8</ele>
        <time>2022-02-24T17:02:28Z</time>
      </trkpt>
      <trkpt lat="46.27659" lon="5.44144">
        <ele>455.8</ele>
        <time>2022-02-24T17:02:29Z</time>
      </trkpt>
      <trkpt lat="46.27661" lon="5.44147">
        <ele>456.2</ele>
        <time>2022-02-24T17:02:30Z</time>
      </trkpt>
      <trkpt lat="46.27663" lon="5.4415">
        <ele>456.2</ele>
        <time>2022-02-24T17:02:31Z</time>
      </trkpt>
      <trkpt lat="46.27665" lon="5.44153">
        <ele>456.4</ele>
        <time>2022-02-24T17:02:32Z</time>
      </trkpt>
      <trkpt lat="46.27667" lon="5.44156">
        <ele>456.4</ele>
        <time>2022-02-24T17:02:33Z</time>
      </trkpt>
      <trkpt lat="46.27669" lon="5.44159">
        <ele>456.4</ele>
        <time>2022-02-24T17:02:34Z</time>
      </trkpt>
      <trkpt lat="46.2767" lon="5.44162">
        <ele>456.8</ele>
        <time>2022-02-24T17:02:35Z</time>
      </trkpt>
      <trkpt lat="46.27672" lon="5.44165">
        <ele>456.8</ele>
        <time>2022-02-24T17:02:36Z</time>
      </trkpt>
      <trkpt lat="46.27674" lon="5.44168">
        <ele>457</ele>
        <time>2022-02-24T17:02:37Z</time>
      </trkpt>
      <trkpt lat="46.27675" lon="5.44172">
        <ele>457</ele>
        <time>2022-02-24T17:02:38Z</time>
      </trkpt>
      <trkpt lat="46.27676" lon="5.44175">
        <ele>457.4</ele>
        <time>2022-02-24T17:02:39Z</time>
      </trkpt>
      <trkpt lat="46.27677" lon="5.44178">
        <ele>457.4</ele>
        <time>2022-02-24T17:02:40Z</time>
      </trkpt>
      <trkpt lat="46.27679" lon="5.44182">
        <ele>457.4</ele>
        <time>2022-02-24T17:02:41Z</time>
      </trkpt>
      <trkpt lat="46.2768" lon="5.44185">
        <ele>457.6</ele>
        <time>2022-02-24T17:02:42Z</time>
      </trkpt>
      <trkpt lat="46.2768" lon="5.44189">
        <ele>457.6</ele>
        <time>2022-02-24T17:02:43Z</time>
      </trkpt>
      <trkpt lat="46.27681" lon="5.44193">
        <ele>458</ele>
        <time>2022-02-24T17:02:44Z</time>
      </trkpt>
      <trkpt lat="46.27682" lon="5.44197">
        <ele>458</ele>
        <time>2022-02-24T17:02:45Z</time>
      </trkpt>
      <trkpt lat="46.27683" lon="5.442">
        <ele>458.2</ele>
        <time>2022-02-24T17:02:46Z</time>
      </trkpt>
      <trkpt lat="46.27684" lon="5.44204">
        <ele>458.2</ele>
        <time>2022-02-24T17:02:47Z</time>
      </trkpt>
      <trkpt lat="46.27685" lon="5.44207">
        <ele>458.4</ele>
        <time>2022-02-24T17:02:48Z</time>
      </trkpt>
      <trkpt lat="46.27687" lon="5.44211">
        <ele>458.4</ele>
        <time>2022-02-24T17:02:49Z</time>
      </trkpt>
      <trkpt lat="46.27687" lon="5.44214">
        <ele>458.8</ele>
        <time>2022-02-24T17:02:50Z</time>
      </trkpt>
      <trkpt lat="46.27689" lon="5.44218">
        <ele>459</ele>
        <time>2022-02-24T17:02:51Z</time>
      </trkpt>
      <trkpt lat="46.2769" lon="5.44221">
        <ele>459.2</ele>
        <time>2022-02-24T17:02:52Z</time>
      </trkpt>
      <trkpt lat="46.27691" lon="5.44224">
        <ele>459.6</ele>
        <time>2022-02-24T17:02:53Z</time>
      </trkpt>
      <trkpt lat="46.27692" lon="5.44227">
        <ele>459.6</ele>
        <time>2022-02-24T17:02:54Z</time>
      </trkpt>
      <trkpt lat="46.27693" lon="5.44231">
        <ele>459.6</ele>
        <time>2022-02-24T17:02:55Z</time>
      </trkpt>
      <trkpt lat="46.27694" lon="5.44234">
        <ele>459.8</ele>
        <time>2022-02-24T17:02:56Z</time>
      </trkpt>
      <trkpt lat="46.27694" lon="5.44237">
        <ele>459.8</ele>
        <time>2022-02-24T17:02:57Z</time>
      </trkpt>
      <trkpt lat="46.27695" lon="5.44241">
        <ele>460.2</ele>
        <time>2022-02-24T17:02:58Z</time>
      </trkpt>
      <trkpt lat="46.27696" lon="5.44244">
        <ele>460.2</ele>
        <time>2022-02-24T17:02:59Z</time>
      </trkpt>
      <trkpt lat="46.27697" lon="5.44248">
        <ele>460.4</ele>
        <time>2022-02-24T17:03:00Z</time>
      </trkpt>
      <trkpt lat="46.27698" lon="5.44252">
        <ele>460.4</ele>
        <time>2022-02-24T17:03:01Z</time>
      </trkpt>
      <trkpt lat="46.277" lon="5.44255">
        <ele>460.6</ele>
        <time>2022-02-24T17:03:02Z</time>
      </trkpt>
      <trkpt lat="46.27702" lon="5.44258">
        <ele>460.6</ele>
        <time>2022-02-24T17:03:03Z</time>
      </trkpt>
      <trkpt lat="46.27703" lon="5.44261">
        <ele>461</ele>
        <time>2022-02-24T17:03:04Z</time>
      </trkpt>
      <trkpt lat="46.27705" lon="5.44265">
        <ele>461</ele>
        <time>2022-02-24T17:03:05Z</time>
      </trkpt>
      <trkpt lat="46.27707" lon="5.44268">
        <ele>461.2</ele>
        <time>2022-02-24T17:03:06Z</time>
      </trkpt>
      <trkpt lat="46.27709" lon="5.44271">
        <ele>461.2</ele>
        <time>2022-02-24T17:03:07Z</time>
      </trkpt>
      <trkpt lat="46.27711" lon="5.44274">
        <ele>461.6</ele>
        <time>2022-02-24T17:03:08Z</time>
      </trkpt>
      <trkpt lat="46.27713" lon="5.44277">
        <ele>461.6</ele>
        <time>2022-02-24T17:03:09Z</time>
      </trkpt>
      <trkpt lat="46.27715" lon="5.4428">
        <ele>461.6</ele>
        <time>2022-02-24T17:03:10Z</time>
      </trkpt>
      <trkpt lat="46.27718" lon="5.44283">
        <ele>461.8</ele>
        <time>2022-02-24T17:03:11Z</time>
      </trkpt>
      <trkpt lat="46.2772" lon="5.44286">
        <ele>462</ele>
        <time>2022-02-24T17:03:12Z</time>
      </trkpt>
      <trkpt lat="46.27722" lon="5.44288">
        <ele>462</ele>
        <time>2022-02-24T17:03:13Z</time>
      </trkpt>
      <trkpt lat="46.27725" lon="5.44291">
        <ele>462.4</ele>
        <time>2022-02-24T17:03:14Z</time>
      </trkpt>
      <trkpt lat="46.27727" lon="5.44294">
        <ele>462.4</ele>
        <time>2022-02-24T17:03:15Z</time>
      </trkpt>
      <trkpt lat="46.27729" lon="5.44296">
        <ele>462.6</ele>
        <time>2022-02-24T17:03:16Z</time>
      </trkpt>
      <trkpt lat="46.27732" lon="5.44298">
        <ele>462.6</ele>
        <time>2022-02-24T17:03:17Z</time>
      </trkpt>
      <trkpt lat="46.27734" lon="5.44301">
        <ele>462.8</ele>
        <time>2022-02-24T17:03:18Z</time>
      </trkpt>
      <trkpt lat="46.27735" lon="5.44304">
        <ele>462.8</ele>
        <time>2022-02-24T17:03:19Z</time>
      </trkpt>
      <trkpt lat="46.27737" lon="5.44307">
        <ele>463.2</ele>
        <time>2022-02-24T17:03:20Z</time>
      </trkpt>
      <trkpt lat="46.27737" lon="5.44311">
        <ele>463.2</ele>
        <time>2022-02-24T17:03:21Z</time>
      </trkpt>
      <trkpt lat="46.27738" lon="5.44315">
        <ele>463.4</ele>
        <time>2022-02-24T17:03:22Z</time>
      </trkpt>
      <trkpt lat="46.27739" lon="5.44319">
        <ele>463.6</ele>
        <time>2022-02-24T17:03:23Z</time>
      </trkpt>
      <trkpt lat="46.27738" lon="5.44323">
        <ele>463.6</ele>
        <time>2022-02-24T17:03:24Z</time>
      </trkpt>
      <trkpt lat="46.27737" lon="5.44326">
        <ele>464</ele>
        <time>2022-02-24T17:03:25Z</time>
      </trkpt>
      <trkpt lat="46.27736" lon="5.44329">
        <ele>464</ele>
        <time>2022-02-24T17:03:26Z</time>
      </trkpt>
      <trkpt lat="46.27735" lon="5.44332">
        <ele>464.2</ele>
        <time>2022-02-24T17:03:27Z</time>
      </trkpt>
      <trkpt lat="46.27733" lon="5.44333">
        <ele>464.2</ele>
        <time>2022-02-24T17:03:28Z</time>
      </trkpt>
      <trkpt lat="46.2773" lon="5.44334">
        <ele>464.6</ele>
        <time>2022-02-24T17:03:29Z</time>
      </trkpt>
      <trkpt lat="46.27727" lon="5.44335">
        <ele>464.6</ele>
        <time>2022-02-24T17:03:30Z</time>
      </trkpt>
      <trkpt lat="46.27724" lon="5.44337">
        <ele>465</ele>
        <time>2022-02-24T17:03:31Z</time>
      </trkpt>
      <trkpt lat="46.27722" lon="5.44338">
        <ele>465</ele>
        <time>2022-02-24T17:03:32Z</time>
      </trkpt>
      <trkpt lat="46.27719" lon="5.44339">
        <ele>465.2</ele>
        <time>2022-02-24T17:03:33Z</time>
      </trkpt>
      <trkpt lat="46.27717" lon="5.4434">
        <ele>465.2</ele>
        <time>2022-02-24T17:03:34Z</time>
      </trkpt>
      <trkpt lat="46.27714" lon="5.44342">
        <ele>465.4</ele>
        <time>2022-02-24T17:03:35Z</time>
      </trkpt>
      <trkpt lat="46.27712" lon="5.44343">
        <ele>465.4</ele>
        <time>2022-02-24T17:03:36Z</time>
      </trkpt>
      <trkpt lat="46.27709" lon="5.44344">
        <ele>465.8</ele>
        <time>2022-02-24T17:03:37Z</time>
      </trkpt>
      <trkpt lat="46.27707" lon="5.44344">
        <ele>465.8</ele>
        <time>2022-02-24T17:03:38Z</time>
      </trkpt>
      <trkpt lat="46.27705" lon="5.44345">
        <ele>466.2</ele>
        <time>2022-02-24T17:03:39Z</time>
      </trkpt>
      <trkpt lat="46.27703" lon="5.44345">
        <ele>466.2</ele>
        <time>2022-02-24T17:03:40Z</time>
      </trkpt>
      <trkpt lat="46.27701" lon="5.44345">
        <ele>466.4</ele>
        <time>2022-02-24T17:03:41Z</time>
      </trkpt>
      <trkpt lat="46.27698" lon="5.44346">
        <ele>466.4</ele>
        <time>2022-02-24T17:03:42Z</time>
      </trkpt>
      <trkpt lat="46.27696" lon="5.44346">
        <ele>466.6</ele>
        <time>2022-02-24T17:03:43Z</time>
      </trkpt>
      <trkpt lat="46.27693" lon="5.44346">
        <ele>466.6</ele>
        <time>2022-02-24T17:03:44Z</time>
      </trkpt>
      <trkpt lat="46.2769" lon="5.44347">
        <ele>467</ele>
        <time>2022-02-24T17:03:45Z</time>
      </trkpt>
      <trkpt lat="46.27688" lon="5.44347">
        <ele>467</ele>
        <time>2022-02-24T17:03:46Z</time>
      </trkpt>
      <trkpt lat="46.27685" lon="5.44347">
        <ele>467.2</ele>
        <time>2022-02-24T17:03:47Z</time>
      </trkpt>
      <trkpt lat="46.27683" lon="5.44348">
        <ele>467.6</ele>
        <time>2022-02-24T17:03:48Z</time>
      </trkpt>
      <trkpt lat="46.2768" lon="5.44348">
        <ele>467.6</ele>
        <time>2022-02-24T17:03:49Z</time>
      </trkpt>
      <trkpt lat="46.27677" lon="5.44348">
        <ele>468</ele>
        <time>2022-02-24T17:03:50Z</time>
      </trkpt>
      <trkpt lat="46.27675" lon="5.44349">
        <ele>468</ele>
        <time>2022-02-24T17:03:51Z</time>
      </trkpt>
      <trkpt lat="46.27673" lon="5.44349">
        <ele>468.2</ele>
        <time>2022-02-24T17:03:52Z</time>
      </trkpt>
      <trkpt lat="46.2767" lon="5.44349">
        <ele>468.2</ele>
        <time>2022-02-24T17:03:53Z</time>
      </trkpt>
      <trkpt lat="46.27668" lon="5.44348">
        <ele>468.4</ele>
        <time>2022-02-24T17:03:54Z</time>
      </trkpt>
      <trkpt lat="46.27665" lon="5.44348">
        <ele>468.4</ele>
        <time>2022-02-24T17:03:55Z</time>
      </trkpt>
      <trkpt lat="46.27663" lon="5.44349">
        <ele>468.6</ele>
        <time>2022-02-24T17:03:56Z</time>
      </trkpt>
      <trkpt lat="46.2766" lon="5.44349">
        <ele>468.6</ele>
        <time>2022-02-24T17:03:57Z</time>
      </trkpt>
      <trkpt lat="46.27658" lon="5.4435">
        <ele>469</ele>
        <time>2022-02-24T17:03:58Z</time>
      </trkpt>
      <trkpt lat="46.27655" lon="5.4435">
        <ele>469</ele>
        <time>2022-02-24T17:03:59Z</time>
      </trkpt>
      <trkpt lat="46.27653" lon="5.44351">
        <ele>469.2</ele>
        <time>2022-02-24T17:04:00Z</time>
      </trkpt>
      <trkpt lat="46.2765" lon="5.44351">
        <ele>469.2</ele>
        <time>2022-02-24T17:04:01Z</time>
      </trkpt>
      <trkpt lat="46.27648" lon="5.44352">
        <ele>469.6</ele>
        <time>2022-02-24T17:04:02Z</time>
      </trkpt>
      <trkpt lat="46.27646" lon="5.44353">
        <ele>469.6</ele>
        <time>2022-02-24T17:04:03Z</time>
      </trkpt>
      <trkpt lat="46.27643" lon="5.44354">
        <ele>469.8</ele>
        <time>2022-02-24T17:04:04Z</time>
      </trkpt>
      <trkpt lat="46.27641" lon="5.44355">
        <ele>469.8</ele>
        <time>2022-02-24T17:04:05Z</time>
      </trkpt>
      <trkpt lat="46.27638" lon="5.44356">
        <ele>470</ele>
        <time>2022-02-24T17:04:06Z</time>
      </trkpt>
      <trkpt lat="46.27635" lon="5.44357">
        <ele>470</ele>
        <time>2022-02-24T17:04:07Z</time>
      </trkpt>
      <trkpt lat="46.27633" lon="5.44358">
        <ele>470.2</ele>
        <time>2022-02-24T17:04:08Z</time>
      </trkpt>
      <trkpt lat="46.2763" lon="5.44359">
        <ele>470.2</ele>
        <time>2022-02-24T17:04:09Z</time>
      </trkpt>
      <trkpt lat="46.27628" lon="5.4436">
        <ele>470.6</ele>
        <time>2022-02-24T17:04:10Z</time>
      </trkpt>
      <trkpt lat="46.27625" lon="5.44361">
        <ele>470.6</ele>
        <time>2022-02-24T17:04:11Z</time>
      </trkpt>
      <trkpt lat="46.27622" lon="5.44362">
        <ele>470.8</ele>
        <time>2022-02-24T17:04:12Z</time>
      </trkpt>
      <trkpt lat="46.2762" lon="5.44363">
        <ele>470.8</ele>
        <time>2022-02-24T17:04:13Z</time>
      </trkpt>
      <trkpt lat="46.27617" lon="5.44364">
        <ele>471.2</ele>
        <time>2022-02-24T17:04:14Z</time>
      </trkpt>
      <trkpt lat="46.27615" lon="5.44365">
        <ele>471.2</ele>
        <time>2022-02-24T17:04:15Z</time>
      </trkpt>
      <trkpt lat="46.27613" lon="5.44366">
        <ele>471.4</ele>
        <time>2022-02-24T17:04:16Z</time>
      </trkpt>
      <trkpt lat="46.27611" lon="5.44367">
        <ele>471.4</ele>
        <time>2022-02-24T17:04:17Z</time>
      </trkpt>
      <trkpt lat="46.27609" lon="5.44367">
        <ele>471.8</ele>
        <time>2022-02-24T17:04:18Z</time>
      </trkpt>
      <trkpt lat="46.27608" lon="5.44369">
        <ele>471.8</ele>
        <time>2022-02-24T17:04:19Z</time>
      </trkpt>
      <trkpt lat="46.27606" lon="5.4437">
        <ele>472</ele>
        <time>2022-02-24T17:04:20Z</time>
      </trkpt>
      <trkpt lat="46.27604" lon="5.4437">
        <ele>472</ele>
        <time>2022-02-24T17:04:21Z</time>
      </trkpt>
      <trkpt lat="46.27602" lon="5.44371">
        <ele>472.4</ele>
        <time>2022-02-24T17:04:22Z</time>
      </trkpt>
      <trkpt lat="46.27599" lon="5.44373">
        <ele>472.4</ele>
        <time>2022-02-24T17:04:23Z</time>
      </trkpt>
      <trkpt lat="46.27597" lon="5.44374">
        <ele>472.8</ele>
        <time>2022-02-24T17:04:24Z</time>
      </trkpt>
      <trkpt lat="46.27595" lon="5.44375">
        <ele>472.8</ele>
        <time>2022-02-24T17:04:25Z</time>
      </trkpt>
      <trkpt lat="46.27593" lon="5.44377">
        <ele>473.2</ele>
        <time>2022-02-24T17:04:26Z</time>
      </trkpt>
      <trkpt lat="46.27591" lon="5.44379">
        <ele>473.2</ele>
        <time>2022-02-24T17:04:27Z</time>
      </trkpt>
      <trkpt lat="46.27589" lon="5.44381">
        <ele>473.4</ele>
        <time>2022-02-24T17:04:28Z</time>
      </trkpt>
      <trkpt lat="46.27587" lon="5.44382">
        <ele>473.4</ele>
        <time>2022-02-24T17:04:29Z</time>
      </trkpt>
      <trkpt lat="46.27585" lon="5.44385">
        <ele>473.8</ele>
        <time>2022-02-24T17:04:30Z</time>
      </trkpt>
      <trkpt lat="46.27584" lon="5.44388">
        <ele>473.8</ele>
        <time>2022-02-24T17:04:31Z</time>
      </trkpt>
      <trkpt lat="46.27582" lon="5.44391">
        <ele>474</ele>
        <time>2022-02-24T17:04:32Z</time>
      </trkpt>
      <trkpt lat="46.2758" lon="5.44395">
        <ele>474.2</ele>
        <time>2022-02-24T17:04:33Z</time>
      </trkpt>
      <trkpt lat="46.27578" lon="5.44399">
        <ele>474.2</ele>
        <time>2022-02-24T17:04:34Z</time>
      </trkpt>
      <trkpt lat="46.27576" lon="5.44402">
        <ele>474.4</ele>
        <time>2022-02-24T17:04:35Z</time>
      </trkpt>
      <trkpt lat="46.27575" lon="5.44406">
        <ele>474.4</ele>
        <time>2022-02-24T17:04:36Z</time>
      </trkpt>
      <trkpt lat="46.27574" lon="5.4441">
        <ele>474.8</ele>
        <time>2022-02-24T17:04:37Z</time>
      </trkpt>
      <trkpt lat="46.27573" lon="5.44414">
        <ele>474.8</ele>
        <time>2022-02-24T17:04:38Z</time>
      </trkpt>
      <trkpt lat="46.27572" lon="5.44418">
        <ele>475</ele>
        <time>2022-02-24T17:04:39Z</time>
      </trkpt>
      <trkpt lat="46.27571" lon="5.44421">
        <ele>475</ele>
        <time>2022-02-24T17:04:40Z</time>
      </trkpt>
      <trkpt lat="46.2757" lon="5.44425">
        <ele>475.2</ele>
        <time>2022-02-24T17:04:41Z</time>
      </trkpt>
      <trkpt lat="46.27569" lon="5.44429">
        <ele>475.2</ele>
        <time>2022-02-24T17:04:42Z</time>
      </trkpt>
      <trkpt lat="46.27568" lon="5.44434">
        <ele>475.6</ele>
        <time>2022-02-24T17:04:43Z</time>
      </trkpt>
      <trkpt lat="46.27567" lon="5.44438">
        <ele>475.6</ele>
        <time>2022-02-24T17:04:44Z</time>
      </trkpt>
      <trkpt lat="46.27567" lon="5.44442">
        <ele>475.8</ele>
        <time>2022-02-24T17:04:45Z</time>
      </trkpt>
      <trkpt lat="46.27566" lon="5.44445">
        <ele>475.8</ele>
        <time>2022-02-24T17:04:46Z</time>
      </trkpt>
      <trkpt lat="46.27565" lon="5.44449">
        <ele>476</ele>
        <time>2022-02-24T17:04:47Z</time>
      </trkpt>
      <trkpt lat="46.27564" lon="5.44453">
        <ele>476</ele>
        <time>2022-02-24T17:04:48Z</time>
      </trkpt>
      <trkpt lat="46.27563" lon="5.44456">
        <ele>476</ele>
        <time>2022-02-24T17:04:49Z</time>
      </trkpt>
      <trkpt lat="46.27562" lon="5.44461">
        <ele>476.4</ele>
        <time>2022-02-24T17:04:50Z</time>
      </trkpt>
      <trkpt lat="46.27561" lon="5.44465">
        <ele>476.4</ele>
        <time>2022-02-24T17:04:51Z</time>
      </trkpt>
      <trkpt lat="46.2756" lon="5.44468">
        <ele>476.6</ele>
        <time>2022-02-24T17:04:52Z</time>
      </trkpt>
      <trkpt lat="46.27559" lon="5.44473">
        <ele>476.6</ele>
        <time>2022-02-24T17:04:53Z</time>
      </trkpt>
      <trkpt lat="46.27557" lon="5.44477">
        <ele>476.6</ele>
        <time>2022-02-24T17:04:54Z</time>
      </trkpt>
      <trkpt lat="46.27555" lon="5.4448">
        <ele>476.8</ele>
        <time>2022-02-24T17:04:55Z</time>
      </trkpt>
      <trkpt lat="46.27551" lon="5.44484">
        <ele>477</ele>
        <time>2022-02-24T17:04:56Z</time>
      </trkpt>
      <trkpt lat="46.27547" lon="5.44487">
        <ele>477.2</ele>
        <time>2022-02-24T17:04:57Z</time>
      </trkpt>
      <trkpt lat="46.27544" lon="5.4449">
        <ele>477.2</ele>
        <time>2022-02-24T17:04:58Z</time>
      </trkpt>
      <trkpt lat="46.2754" lon="5.44494">
        <ele>477.6</ele>
        <time>2022-02-24T17:04:59Z</time>
      </trkpt>
      <trkpt lat="46.27537" lon="5.44497">
        <ele>477.6</ele>
        <time>2022-02-24T17:05:00Z</time>
      </trkpt>
      <trkpt lat="46.27534" lon="5.445">
        <ele>477.8</ele>
        <time>2022-02-24T17:05:01Z</time>
      </trkpt>
      <trkpt lat="46.27532" lon="5.44503">
        <ele>477.8</ele>
        <time>2022-02-24T17:05:02Z</time>
      </trkpt>
      <trkpt lat="46.27529" lon="5.44506">
        <ele>478.2</ele>
        <time>2022-02-24T17:05:03Z</time>
      </trkpt>
      <trkpt lat="46.27526" lon="5.44509">
        <ele>478.2</ele>
        <time>2022-02-24T17:05:04Z</time>
      </trkpt>
      <trkpt lat="46.27523" lon="5.44512">
        <ele>478.4</ele>
        <time>2022-02-24T17:05:05Z</time>
      </trkpt>
      <trkpt lat="46.27521" lon="5.44514">
        <ele>478.4</ele>
        <time>2022-02-24T17:05:06Z</time>
      </trkpt>
      <trkpt lat="46.27519" lon="5.44517">
        <ele>478.8</ele>
        <time>2022-02-24T17:05:07Z</time>
      </trkpt>
      <trkpt lat="46.27517" lon="5.4452">
        <ele>478.8</ele>
        <time>2022-02-24T17:05:08Z</time>
      </trkpt>
      <trkpt lat="46.27514" lon="5.44523">
        <ele>479</ele>
        <time>2022-02-24T17:05:09Z</time>
      </trkpt>
      <trkpt lat="46.27512" lon="5.44526">
        <ele>479</ele>
        <time>2022-02-24T17:05:10Z</time>
      </trkpt>
      <trkpt lat="46.27509" lon="5.44529">
        <ele>479.4</ele>
        <time>2022-02-24T17:05:11Z</time>
      </trkpt>
      <trkpt lat="46.27507" lon="5.44531">
        <ele>479.4</ele>
        <time>2022-02-24T17:05:12Z</time>
      </trkpt>
      <trkpt lat="46.27505" lon="5.44533">
        <ele>479.6</ele>
        <time>2022-02-24T17:05:13Z</time>
      </trkpt>
      <trkpt lat="46.27502" lon="5.44536">
        <ele>479.6</ele>
        <time>2022-02-24T17:05:14Z</time>
      </trkpt>
      <trkpt lat="46.275" lon="5.44539">
        <ele>480</ele>
        <time>2022-02-24T17:05:15Z</time>
      </trkpt>
      <trkpt lat="46.27497" lon="5.44542">
        <ele>480</ele>
        <time>2022-02-24T17:05:16Z</time>
      </trkpt>
      <trkpt lat="46.27495" lon="5.44544">
        <ele>480.2</ele>
        <time>2022-02-24T17:05:17Z</time>
      </trkpt>
      <trkpt lat="46.27493" lon="5.44547">
        <ele>480.4</ele>
        <time>2022-02-24T17:05:18Z</time>
      </trkpt>
      <trkpt lat="46.2749" lon="5.4455">
        <ele>480.4</ele>
        <time>2022-02-24T17:05:19Z</time>
      </trkpt>
      <trkpt lat="46.27488" lon="5.44553">
        <ele>480.6</ele>
        <time>2022-02-24T17:05:20Z</time>
      </trkpt>
      <trkpt lat="46.27486" lon="5.44556">
        <ele>480.6</ele>
        <time>2022-02-24T17:05:21Z</time>
      </trkpt>
      <trkpt lat="46.27484" lon="5.44559">
        <ele>481</ele>
        <time>2022-02-24T17:05:22Z</time>
      </trkpt>
      <trkpt lat="46.27482" lon="5.44563">
        <ele>481</ele>
        <time>2022-02-24T17:05:23Z</time>
      </trkpt>
      <trkpt lat="46.2748" lon="5.44566">
        <ele>481.2</ele>
        <time>2022-02-24T17:05:24Z</time>
      </trkpt>
      <trkpt lat="46.27478" lon="5.44569">
        <ele>481.2</ele>
        <time>2022-02-24T17:05:25Z</time>
      </trkpt>
      <trkpt lat="46.27476" lon="5.44572">
        <ele>481.6</ele>
        <time>2022-02-24T17:05:26Z</time>
      </trkpt>
      <trkpt lat="46.27475" lon="5.44575">
        <ele>481.6</ele>
        <time>2022-02-24T17:05:27Z</time>
      </trkpt>
      <trkpt lat="46.27473" lon="5.44579">
        <ele>481.8</ele>
        <time>2022-02-24T17:05:28Z</time>
      </trkpt>
      <trkpt lat="46.27471" lon="5.44582">
        <ele>481.8</ele>
        <time>2022-02-24T17:05:29Z</time>
      </trkpt>
      <trkpt lat="46.2747" lon="5.44585">
        <ele>482.2</ele>
        <time>2022-02-24T17:05:30Z</time>
      </trkpt>
      <trkpt lat="46.27468" lon="5.44589">
        <ele>482.2</ele>
        <time>2022-02-24T17:05:31Z</time>
      </trkpt>
      <trkpt lat="46.27467" lon="5.44592">
        <ele>482.6</ele>
        <time>2022-02-24T17:05:32Z</time>
      </trkpt>
      <trkpt lat="46.27464" lon="5.44595">
        <ele>482.8</ele>
        <time>2022-02-24T17:05:33Z</time>
      </trkpt>
      <trkpt lat="46.27463" lon="5.44598">
        <ele>482.8</ele>
        <time>2022-02-24T17:05:34Z</time>
      </trkpt>
      <trkpt lat="46.27461" lon="5.44601">
        <ele>483</ele>
        <time>2022-02-24T17:05:35Z</time>
      </trkpt>
      <trkpt lat="46.27459" lon="5.44603">
        <ele>483</ele>
        <time>2022-02-24T17:05:36Z</time>
      </trkpt>
      <trkpt lat="46.27457" lon="5.44606">
        <ele>483.2</ele>
        <time>2022-02-24T17:05:37Z</time>
      </trkpt>
      <trkpt lat="46.27455" lon="5.44608">
        <ele>483.2</ele>
        <time>2022-02-24T17:05:38Z</time>
      </trkpt>
      <trkpt lat="46.27453" lon="5.4461">
        <ele>483.6</ele>
        <time>2022-02-24T17:05:39Z</time>
      </trkpt>
      <trkpt lat="46.2745" lon="5.44613">
        <ele>483.6</ele>
        <time>2022-02-24T17:05:40Z</time>
      </trkpt>
      <trkpt lat="46.27448" lon="5.44615">
        <ele>483.8</ele>
        <time>2022-02-24T17:05:41Z</time>
      </trkpt>
      <trkpt lat="46.27447" lon="5.44617">
        <ele>483.8</ele>
        <time>2022-02-24T17:05:42Z</time>
      </trkpt>
      <trkpt lat="46.27445" lon="5.44619">
        <ele>483.8</ele>
        <time>2022-02-24T17:05:43Z</time>
      </trkpt>
      <trkpt lat="46.27444" lon="5.44622">
        <ele>484.2</ele>
        <time>2022-02-24T17:05:44Z</time>
      </trkpt>
      <trkpt lat="46.27443" lon="5.44625">
        <ele>484.2</ele>
        <time>2022-02-24T17:05:45Z</time>
      </trkpt>
      <trkpt lat="46.27442" lon="5.44629">
        <ele>484.4</ele>
        <time>2022-02-24T17:05:46Z</time>
      </trkpt>
      <trkpt lat="46.27442" lon="5.44633">
        <ele>484.4</ele>
        <time>2022-02-24T17:05:47Z</time>
      </trkpt>
      <trkpt lat="46.27442" lon="5.44637">
        <ele>484.8</ele>
        <time>2022-02-24T17:05:48Z</time>
      </trkpt>
      <trkpt lat="46.27442" lon="5.44641">
        <ele>485</ele>
        <time>2022-02-24T17:05:49Z</time>
      </trkpt>
      <trkpt lat="46.27442" lon="5.44644">
        <ele>485.4</ele>
        <time>2022-02-24T17:05:50Z</time>
      </trkpt>
      <trkpt lat="46.27443" lon="5.44647">
        <ele>485.4</ele>
        <time>2022-02-24T17:05:51Z</time>
      </trkpt>
      <trkpt lat="46.27443" lon="5.44651">
        <ele>485.6</ele>
        <time>2022-02-24T17:05:52Z</time>
      </trkpt>
      <trkpt lat="46.27443" lon="5.44654">
        <ele>485.6</ele>
        <time>2022-02-24T17:05:53Z</time>
      </trkpt>
      <trkpt lat="46.27443" lon="5.44658">
        <ele>485.6</ele>
        <time>2022-02-24T17:05:54Z</time>
      </trkpt>
      <trkpt lat="46.27444" lon="5.44662">
        <ele>485.6</ele>
        <time>2022-02-24T17:05:55Z</time>
      </trkpt>
      <trkpt lat="46.27444" lon="5.44666">
        <ele>485.6</ele>
        <time>2022-02-24T17:05:56Z</time>
      </trkpt>
      <trkpt lat="46.27444" lon="5.44671">
        <ele>485.6</ele>
        <time>2022-02-24T17:05:57Z</time>
      </trkpt>
      <trkpt lat="46.27445" lon="5.44677">
        <ele>485.6</ele>
        <time>2022-02-24T17:05:58Z</time>
      </trkpt>
      <trkpt lat="46.27446" lon="5.44682">
        <ele>485.6</ele>
        <time>2022-02-24T17:05:59Z</time>
      </trkpt>
      <trkpt lat="46.27446" lon="5.44688">
        <ele>485.6</ele>
        <time>2022-02-24T17:06:00Z</time>
      </trkpt>
      <trkpt lat="46.27447" lon="5.44693">
        <ele>485.6</ele>
        <time>2022-02-24T17:06:01Z</time>
      </trkpt>
      <trkpt lat="46.27448" lon="5.44699">
        <ele>485.4</ele>
        <time>2022-02-24T17:06:02Z</time>
      </trkpt>
      <trkpt lat="46.27448" lon="5.44705">
        <ele>485.4</ele>
        <time>2022-02-24T17:06:03Z</time>
      </trkpt>
      <trkpt lat="46.27448" lon="5.4471">
        <ele>485.4</ele>
        <time>2022-02-24T17:06:04Z</time>
      </trkpt>
      <trkpt lat="46.27448" lon="5.44715">
        <ele>485.4</ele>
        <time>2022-02-24T17:06:05Z</time>
      </trkpt>
      <trkpt lat="46.27447" lon="5.44721">
        <ele>485.4</ele>
        <time>2022-02-24T17:06:06Z</time>
      </trkpt>
      <trkpt lat="46.27447" lon="5.44726">
        <ele>485.4</ele>
        <time>2022-02-24T17:06:07Z</time>
      </trkpt>
      <trkpt lat="46.27446" lon="5.44732">
        <ele>485</ele>
        <time>2022-02-24T17:06:08Z</time>
      </trkpt>
      <trkpt lat="46.27446" lon="5.44738">
        <ele>484.8</ele>
        <time>2022-02-24T17:06:09Z</time>
      </trkpt>
      <trkpt lat="46.27445" lon="5.44745">
        <ele>484.4</ele>
        <time>2022-02-24T17:06:10Z</time>
      </trkpt>
      <trkpt lat="46.27444" lon="5.44753">
        <ele>484.2</ele>
        <time>2022-02-24T17:06:11Z</time>
      </trkpt>
      <trkpt lat="46.27443" lon="5.44761">
        <ele>484.2</ele>
        <time>2022-02-24T17:06:12Z</time>
      </trkpt>
      <trkpt lat="46.27443" lon="5.44769">
        <ele>484</ele>
        <time>2022-02-24T17:06:13Z</time>
      </trkpt>
      <trkpt lat="46.27442" lon="5.44777">
        <ele>484</ele>
        <time>2022-02-24T17:06:14Z</time>
      </trkpt>
      <trkpt lat="46.27442" lon="5.44785">
        <ele>483.8</ele>
        <time>2022-02-24T17:06:15Z</time>
      </trkpt>
      <trkpt lat="46.27443" lon="5.44793">
        <ele>483.8</ele>
        <time>2022-02-24T17:06:16Z</time>
      </trkpt>
      <trkpt lat="46.27444" lon="5.448">
        <ele>483.8</ele>
        <time>2022-02-24T17:06:17Z</time>
      </trkpt>
      <trkpt lat="46.27446" lon="5.44807">
        <ele>483.8</ele>
        <time>2022-02-24T17:06:18Z</time>
      </trkpt>
      <trkpt lat="46.27449" lon="5.44812">
        <ele>483.8</ele>
        <time>2022-02-24T17:06:19Z</time>
      </trkpt>
      <trkpt lat="46.27453" lon="5.44818">
        <ele>483.8</ele>
        <time>2022-02-24T17:06:20Z</time>
      </trkpt>
      <trkpt lat="46.27456" lon="5.44822">
        <ele>484</ele>
        <time>2022-02-24T17:06:21Z</time>
      </trkpt>
      <trkpt lat="46.2746" lon="5.44825">
        <ele>484</ele>
        <time>2022-02-24T17:06:22Z</time>
      </trkpt>
      <trkpt lat="46.27464" lon="5.44828">
        <ele>484</ele>
        <time>2022-02-24T17:06:23Z</time>
      </trkpt>
      <trkpt lat="46.27467" lon="5.4483">
        <ele>484.4</ele>
        <time>2022-02-24T17:06:24Z</time>
      </trkpt>
      <trkpt lat="46.27471" lon="5.44831">
        <ele>484.6</ele>
        <time>2022-02-24T17:06:25Z</time>
      </trkpt>
      <trkpt lat="46.27474" lon="5.44833">
        <ele>484.6</ele>
        <time>2022-02-24T17:06:26Z</time>
      </trkpt>
      <trkpt lat="46.27477" lon="5.44834">
        <ele>484.8</ele>
        <time>2022-02-24T17:06:27Z</time>
      </trkpt>
      <trkpt lat="46.2748" lon="5.44835">
        <ele>484.8</ele>
        <time>2022-02-24T17:06:28Z</time>
      </trkpt>
      <trkpt lat="46.27483" lon="5.44836">
        <ele>485</ele>
        <time>2022-02-24T17:06:29Z</time>
      </trkpt>
      <trkpt lat="46.27486" lon="5.44837">
        <ele>485</ele>
        <time>2022-02-24T17:06:30Z</time>
      </trkpt>
      <trkpt lat="46.27488" lon="5.44839">
        <ele>485.4</ele>
        <time>2022-02-24T17:06:31Z</time>
      </trkpt>
      <trkpt lat="46.2749" lon="5.44841">
        <ele>485.6</ele>
        <time>2022-02-24T17:06:32Z</time>
      </trkpt>
      <trkpt lat="46.27492" lon="5.44843">
        <ele>485.6</ele>
        <time>2022-02-24T17:06:33Z</time>
      </trkpt>
      <trkpt lat="46.27494" lon="5.44844">
        <ele>486</ele>
        <time>2022-02-24T17:06:34Z</time>
      </trkpt>
      <trkpt lat="46.27496" lon="5.44847">
        <ele>486</ele>
        <time>2022-02-24T17:06:35Z</time>
      </trkpt>
      <trkpt lat="46.27498" lon="5.44849">
        <ele>486.4</ele>
        <time>2022-02-24T17:06:36Z</time>
      </trkpt>
      <trkpt lat="46.275" lon="5.44852">
        <ele>486.4</ele>
        <time>2022-02-24T17:06:37Z</time>
      </trkpt>
      <trkpt lat="46.27502" lon="5.44855">
        <ele>486.8</ele>
        <time>2022-02-24T17:06:38Z</time>
      </trkpt>
      <trkpt lat="46.27504" lon="5.44858">
        <ele>486.8</ele>
        <time>2022-02-24T17:06:39Z</time>
      </trkpt>
      <trkpt lat="46.27505" lon="5.44862">
        <ele>487.2</ele>
        <time>2022-02-24T17:06:40Z</time>
      </trkpt>
      <trkpt lat="46.27506" lon="5.44865">
        <ele>487.4</ele>
        <time>2022-02-24T17:06:41Z</time>
      </trkpt>
      <trkpt lat="46.27507" lon="5.44869">
        <ele>487.4</ele>
        <time>2022-02-24T17:06:42Z</time>
      </trkpt>
      <trkpt lat="46.27508" lon="5.44872">
        <ele>487.8</ele>
        <time>2022-02-24T17:06:43Z</time>
      </trkpt>
      <trkpt lat="46.27509" lon="5.44876">
        <ele>487.8</ele>
        <time>2022-02-24T17:06:44Z</time>
      </trkpt>
      <trkpt lat="46.27509" lon="5.4488">
        <ele>488</ele>
        <time>2022-02-24T17:06:45Z</time>
      </trkpt>
      <trkpt lat="46.2751" lon="5.44884">
        <ele>488</ele>
        <time>2022-02-24T17:06:46Z</time>
      </trkpt>
      <trkpt lat="46.2751" lon="5.44888">
        <ele>488.4</ele>
        <time>2022-02-24T17:06:47Z</time>
      </trkpt>
      <trkpt lat="46.2751" lon="5.44892">
        <ele>488.4</ele>
        <time>2022-02-24T17:06:48Z</time>
      </trkpt>
      <trkpt lat="46.2751" lon="5.44896">
        <ele>488.6</ele>
        <time>2022-02-24T17:06:49Z</time>
      </trkpt>
      <trkpt lat="46.2751" lon="5.449">
        <ele>488.6</ele>
        <time>2022-02-24T17:06:50Z</time>
      </trkpt>
      <trkpt lat="46.27509" lon="5.44903">
        <ele>489</ele>
        <time>2022-02-24T17:06:51Z</time>
      </trkpt>
      <trkpt lat="46.27509" lon="5.44907">
        <ele>489</ele>
        <time>2022-02-24T17:06:52Z</time>
      </trkpt>
      <trkpt lat="46.27508" lon="5.44911">
        <ele>489.4</ele>
        <time>2022-02-24T17:06:53Z</time>
      </trkpt>
      <trkpt lat="46.27506" lon="5.44914">
        <ele>489.4</ele>
        <time>2022-02-24T17:06:54Z</time>
      </trkpt>
      <trkpt lat="46.27504" lon="5.44918">
        <ele>489.4</ele>
        <time>2022-02-24T17:06:55Z</time>
      </trkpt>
      <trkpt lat="46.27502" lon="5.44921">
        <ele>489.4</ele>
        <time>2022-02-24T17:06:56Z</time>
      </trkpt>
      <trkpt lat="46.27499" lon="5.44926">
        <ele>489.4</ele>
        <time>2022-02-24T17:06:57Z</time>
      </trkpt>
      <trkpt lat="46.27497" lon="5.44931">
        <ele>489.4</ele>
        <time>2022-02-24T17:06:58Z</time>
      </trkpt>
      <trkpt lat="46.27495" lon="5.44936">
        <ele>489.4</ele>
        <time>2022-02-24T17:06:59Z</time>
      </trkpt>
      <trkpt lat="46.27493" lon="5.44942">
        <ele>489.4</ele>
        <time>2022-02-24T17:07:00Z</time>
      </trkpt>
      <trkpt lat="46.27492" lon="5.44948">
        <ele>489.4</ele>
        <time>2022-02-24T17:07:01Z</time>
      </trkpt>
      <trkpt lat="46.27491" lon="5.44954">
        <ele>489.4</ele>
        <time>2022-02-24T17:07:02Z</time>
      </trkpt>
      <trkpt lat="46.2749" lon="5.4496">
        <ele>489.4</ele>
        <time>2022-02-24T17:07:03Z</time>
      </trkpt>
      <trkpt lat="46.2749" lon="5.44966">
        <ele>489.4</ele>
        <time>2022-02-24T17:07:04Z</time>
      </trkpt>
      <trkpt lat="46.27491" lon="5.44972">
        <ele>489.6</ele>
        <time>2022-02-24T17:07:05Z</time>
      </trkpt>
      <trkpt lat="46.27491" lon="5.44977">
        <ele>489.6</ele>
        <time>2022-02-24T17:07:06Z</time>
      </trkpt>
      <trkpt lat="46.27493" lon="5.44981">
        <ele>490</ele>
        <time>2022-02-24T17:07:07Z</time>
      </trkpt>
      <trkpt lat="46.27494" lon="5.44985">
        <ele>490</ele>
        <time>2022-02-24T17:07:08Z</time>
      </trkpt>
      <trkpt lat="46.27495" lon="5.44988">
        <ele>490.2</ele>
        <time>2022-02-24T17:07:09Z</time>
      </trkpt>
      <trkpt lat="46.27496" lon="5.44992">
        <ele>490.2</ele>
        <time>2022-02-24T17:07:10Z</time>
      </trkpt>
      <trkpt lat="46.27497" lon="5.44995">
        <ele>490.6</ele>
        <time>2022-02-24T17:07:11Z</time>
      </trkpt>
      <trkpt lat="46.27498" lon="5.44999">
        <ele>490.6</ele>
        <time>2022-02-24T17:07:12Z</time>
      </trkpt>
      <trkpt lat="46.275" lon="5.45002">
        <ele>490.8</ele>
        <time>2022-02-24T17:07:13Z</time>
      </trkpt>
      <trkpt lat="46.27502" lon="5.45005">
        <ele>491.2</ele>
        <time>2022-02-24T17:07:14Z</time>
      </trkpt>
      <trkpt lat="46.27504" lon="5.45008">
        <ele>491.2</ele>
        <time>2022-02-24T17:07:15Z</time>
      </trkpt>
      <trkpt lat="46.27506" lon="5.45012">
        <ele>491.4</ele>
        <time>2022-02-24T17:07:16Z</time>
      </trkpt>
      <trkpt lat="46.27507" lon="5.45015">
        <ele>491.4</ele>
        <time>2022-02-24T17:07:17Z</time>
      </trkpt>
      <trkpt lat="46.27509" lon="5.45019">
        <ele>491.6</ele>
        <time>2022-02-24T17:07:18Z</time>
      </trkpt>
      <trkpt lat="46.27511" lon="5.45022">
        <ele>491.6</ele>
        <time>2022-02-24T17:07:19Z</time>
      </trkpt>
      <trkpt lat="46.27514" lon="5.45025">
        <ele>491.6</ele>
        <time>2022-02-24T17:07:20Z</time>
      </trkpt>
      <trkpt lat="46.27516" lon="5.45028">
        <ele>491.8</ele>
        <time>2022-02-24T17:07:21Z</time>
      </trkpt>
      <trkpt lat="46.27518" lon="5.45031">
        <ele>491.8</ele>
        <time>2022-02-24T17:07:22Z</time>
      </trkpt>
      <trkpt lat="46.2752" lon="5.45035">
        <ele>492.2</ele>
        <time>2022-02-24T17:07:23Z</time>
      </trkpt>
      <trkpt lat="46.27521" lon="5.45038">
        <ele>492.2</ele>
        <time>2022-02-24T17:07:24Z</time>
      </trkpt>
      <trkpt lat="46.27523" lon="5.45041">
        <ele>492.4</ele>
        <time>2022-02-24T17:07:25Z</time>
      </trkpt>
      <trkpt lat="46.27526" lon="5.45044">
        <ele>492.4</ele>
        <time>2022-02-24T17:07:26Z</time>
      </trkpt>
      <trkpt lat="46.27528" lon="5.45047">
        <ele>492.8</ele>
        <time>2022-02-24T17:07:27Z</time>
      </trkpt>
      <trkpt lat="46.27529" lon="5.4505">
        <ele>492.8</ele>
        <time>2022-02-24T17:07:28Z</time>
      </trkpt>
      <trkpt lat="46.27531" lon="5.45052">
        <ele>493.2</ele>
        <time>2022-02-24T17:07:29Z</time>
      </trkpt>
      <trkpt lat="46.27533" lon="5.45055">
        <ele>493.2</ele>
        <time>2022-02-24T17:07:30Z</time>
      </trkpt>
      <trkpt lat="46.27535" lon="5.45058">
        <ele>493.6</ele>
        <time>2022-02-24T17:07:31Z</time>
      </trkpt>
      <trkpt lat="46.27537" lon="5.4506">
        <ele>493.6</ele>
        <time>2022-02-24T17:07:32Z</time>
      </trkpt>
      <trkpt lat="46.27539" lon="5.45063">
        <ele>493.8</ele>
        <time>2022-02-24T17:07:33Z</time>
      </trkpt>
      <trkpt lat="46.27541" lon="5.45065">
        <ele>493.8</ele>
        <time>2022-02-24T17:07:34Z</time>
      </trkpt>
      <trkpt lat="46.27543" lon="5.45068">
        <ele>494</ele>
        <time>2022-02-24T17:07:35Z</time>
      </trkpt>
      <trkpt lat="46.27546" lon="5.4507">
        <ele>494</ele>
        <time>2022-02-24T17:07:36Z</time>
      </trkpt>
      <trkpt lat="46.27549" lon="5.45072">
        <ele>494.2</ele>
        <time>2022-02-24T17:07:37Z</time>
      </trkpt>
      <trkpt lat="46.27552" lon="5.45074">
        <ele>494.2</ele>
        <time>2022-02-24T17:07:38Z</time>
      </trkpt>
      <trkpt lat="46.27555" lon="5.45076">
        <ele>494.6</ele>
        <time>2022-02-24T17:07:39Z</time>
      </trkpt>
      <trkpt lat="46.27558" lon="5.45077">
        <ele>494.6</ele>
        <time>2022-02-24T17:07:40Z</time>
      </trkpt>
      <trkpt lat="46.27561" lon="5.45078">
        <ele>494.8</ele>
        <time>2022-02-24T17:07:41Z</time>
      </trkpt>
      <trkpt lat="46.27564" lon="5.45078">
        <ele>494.8</ele>
        <time>2022-02-24T17:07:42Z</time>
      </trkpt>
      <trkpt lat="46.27566" lon="5.45079">
        <ele>495.2</ele>
        <time>2022-02-24T17:07:43Z</time>
      </trkpt>
      <trkpt lat="46.27568" lon="5.45079">
        <ele>495.2</ele>
        <time>2022-02-24T17:07:44Z</time>
      </trkpt>
      <trkpt lat="46.2757" lon="5.4508">
        <ele>495.6</ele>
        <time>2022-02-24T17:07:45Z</time>
      </trkpt>
      <trkpt lat="46.27573" lon="5.4508">
        <ele>495.8</ele>
        <time>2022-02-24T17:07:46Z</time>
      </trkpt>
      <trkpt lat="46.27576" lon="5.4508">
        <ele>495.8</ele>
        <time>2022-02-24T17:07:47Z</time>
      </trkpt>
      <trkpt lat="46.27578" lon="5.4508">
        <ele>496.2</ele>
        <time>2022-02-24T17:07:48Z</time>
      </trkpt>
      <trkpt lat="46.27581" lon="5.4508">
        <ele>496.2</ele>
        <time>2022-02-24T17:07:49Z</time>
      </trkpt>
      <trkpt lat="46.27584" lon="5.4508">
        <ele>496.6</ele>
        <time>2022-02-24T17:07:50Z</time>
      </trkpt>
      <trkpt lat="46.27587" lon="5.45079">
        <ele>496.6</ele>
        <time>2022-02-24T17:07:51Z</time>
      </trkpt>
      <trkpt lat="46.2759" lon="5.45079">
        <ele>497</ele>
        <time>2022-02-24T17:07:52Z</time>
      </trkpt>
      <trkpt lat="46.27593" lon="5.45079">
        <ele>497</ele>
        <time>2022-02-24T17:07:53Z</time>
      </trkpt>
      <trkpt lat="46.27596" lon="5.45078">
        <ele>497.2</ele>
        <time>2022-02-24T17:07:54Z</time>
      </trkpt>
      <trkpt lat="46.27599" lon="5.45077">
        <ele>497.4</ele>
        <time>2022-02-24T17:07:55Z</time>
      </trkpt>
      <trkpt lat="46.27602" lon="5.45077">
        <ele>497.4</ele>
        <time>2022-02-24T17:07:56Z</time>
      </trkpt>
      <trkpt lat="46.27608" lon="5.45075">
        <ele>497.8</ele>
        <time>2022-02-24T17:07:57Z</time>
      </trkpt>
      <trkpt lat="46.27611" lon="5.45074">
        <ele>498</ele>
        <time>2022-02-24T17:07:58Z</time>
      </trkpt>
      <trkpt lat="46.27613" lon="5.45073">
        <ele>498</ele>
        <time>2022-02-24T17:07:59Z</time>
      </trkpt>
      <trkpt lat="46.27616" lon="5.45072">
        <ele>498.4</ele>
        <time>2022-02-24T17:08:00Z</time>
      </trkpt>
      <trkpt lat="46.27619" lon="5.45071">
        <ele>498.4</ele>
        <time>2022-02-24T17:08:01Z</time>
      </trkpt>
      <trkpt lat="46.27621" lon="5.45069">
        <ele>498.6</ele>
        <time>2022-02-24T17:08:02Z</time>
      </trkpt>
      <trkpt lat="46.27624" lon="5.45068">
        <ele>498.6</ele>
        <time>2022-02-24T17:08:03Z</time>
      </trkpt>
      <trkpt lat="46.27626" lon="5.45066">
        <ele>498.6</ele>
        <time>2022-02-24T17:08:04Z</time>
      </trkpt>
      <trkpt lat="46.27629" lon="5.45064">
        <ele>498.8</ele>
        <time>2022-02-24T17:08:05Z</time>
      </trkpt>
      <trkpt lat="46.27631" lon="5.45063">
        <ele>498.8</ele>
        <time>2022-02-24T17:08:06Z</time>
      </trkpt>
      <trkpt lat="46.27634" lon="5.45061">
        <ele>499.2</ele>
        <time>2022-02-24T17:08:07Z</time>
      </trkpt>
      <trkpt lat="46.27637" lon="5.4506">
        <ele>499.2</ele>
        <time>2022-02-24T17:08:08Z</time>
      </trkpt>
      <trkpt lat="46.27639" lon="5.45058">
        <ele>499.6</ele>
        <time>2022-02-24T17:08:09Z</time>
      </trkpt>
      <trkpt lat="46.27641" lon="5.45056">
        <ele>499.6</ele>
        <time>2022-02-24T17:08:10Z</time>
      </trkpt>
      <trkpt lat="46.27644" lon="5.45055">
        <ele>499.8</ele>
        <time>2022-02-24T17:08:11Z</time>
      </trkpt>
      <trkpt lat="46.27646" lon="5.45053">
        <ele>499.8</ele>
        <time>2022-02-24T17:08:12Z</time>
      </trkpt>
      <trkpt lat="46.27649" lon="5.45051">
        <ele>500.2</ele>
        <time>2022-02-24T17:08:13Z</time>
      </trkpt>
      <trkpt lat="46.27651" lon="5.45049">
        <ele>500.2</ele>
        <time>2022-02-24T17:08:14Z</time>
      </trkpt>
      <trkpt lat="46.27653" lon="5.45047">
        <ele>500.6</ele>
        <time>2022-02-24T17:08:15Z</time>
      </trkpt>
      <trkpt lat="46.27655" lon="5.45046">
        <ele>500.6</ele>
        <time>2022-02-24T17:08:16Z</time>
      </trkpt>
      <trkpt lat="46.27657" lon="5.45044">
        <ele>500.8</ele>
        <time>2022-02-24T17:08:17Z</time>
      </trkpt>
      <trkpt lat="46.2766" lon="5.45043">
        <ele>500.8</ele>
        <time>2022-02-24T17:08:18Z</time>
      </trkpt>
      <trkpt lat="46.27663" lon="5.45043">
        <ele>501</ele>
        <time>2022-02-24T17:08:19Z</time>
      </trkpt>
      <trkpt lat="46.27666" lon="5.45042">
        <ele>501</ele>
        <time>2022-02-24T17:08:20Z</time>
      </trkpt>
      <trkpt lat="46.27668" lon="5.45041">
        <ele>501.4</ele>
        <time>2022-02-24T17:08:21Z</time>
      </trkpt>
      <trkpt lat="46.27671" lon="5.45041">
        <ele>501.4</ele>
        <time>2022-02-24T17:08:22Z</time>
      </trkpt>
      <trkpt lat="46.27674" lon="5.45041">
        <ele>501.6</ele>
        <time>2022-02-24T17:08:23Z</time>
      </trkpt>
      <trkpt lat="46.27677" lon="5.45042">
        <ele>501.6</ele>
        <time>2022-02-24T17:08:24Z</time>
      </trkpt>
      <trkpt lat="46.2768" lon="5.45043">
        <ele>501.8</ele>
        <time>2022-02-24T17:08:25Z</time>
      </trkpt>
      <trkpt lat="46.27682" lon="5.45045">
        <ele>501.8</ele>
        <time>2022-02-24T17:08:26Z</time>
      </trkpt>
      <trkpt lat="46.27685" lon="5.45047">
        <ele>502</ele>
        <time>2022-02-24T17:08:27Z</time>
      </trkpt>
      <trkpt lat="46.27687" lon="5.45048">
        <ele>502.4</ele>
        <time>2022-02-24T17:08:28Z</time>
      </trkpt>
      <trkpt lat="46.2769" lon="5.4505">
        <ele>502.4</ele>
        <time>2022-02-24T17:08:29Z</time>
      </trkpt>
      <trkpt lat="46.27692" lon="5.45052">
        <ele>502.6</ele>
        <time>2022-02-24T17:08:30Z</time>
      </trkpt>
      <trkpt lat="46.27695" lon="5.45054">
        <ele>502.8</ele>
        <time>2022-02-24T17:08:31Z</time>
      </trkpt>
      <trkpt lat="46.27697" lon="5.45056">
        <ele>502.8</ele>
        <time>2022-02-24T17:08:32Z</time>
      </trkpt>
      <trkpt lat="46.27699" lon="5.45057">
        <ele>503</ele>
        <time>2022-02-24T17:08:33Z</time>
      </trkpt>
      <trkpt lat="46.27702" lon="5.45058">
        <ele>503</ele>
        <time>2022-02-24T17:08:34Z</time>
      </trkpt>
      <trkpt lat="46.27704" lon="5.4506">
        <ele>503.4</ele>
        <time>2022-02-24T17:08:35Z</time>
      </trkpt>
      <trkpt lat="46.27706" lon="5.45061">
        <ele>503.4</ele>
        <time>2022-02-24T17:08:36Z</time>
      </trkpt>
      <trkpt lat="46.27708" lon="5.45062">
        <ele>503.6</ele>
        <time>2022-02-24T17:08:37Z</time>
      </trkpt>
      <trkpt lat="46.2771" lon="5.45064">
        <ele>503.6</ele>
        <time>2022-02-24T17:08:38Z</time>
      </trkpt>
      <trkpt lat="46.27712" lon="5.45066">
        <ele>503.8</ele>
        <time>2022-02-24T17:08:39Z</time>
      </trkpt>
      <trkpt lat="46.27715" lon="5.45067">
        <ele>503.8</ele>
        <time>2022-02-24T17:08:40Z</time>
      </trkpt>
      <trkpt lat="46.27717" lon="5.45069">
        <ele>503.8</ele>
        <time>2022-02-24T17:08:41Z</time>
      </trkpt>
      <trkpt lat="46.27719" lon="5.4507">
        <ele>504.2</ele>
        <time>2022-02-24T17:08:42Z</time>
      </trkpt>
      <trkpt lat="46.27722" lon="5.45071">
        <ele>504.4</ele>
        <time>2022-02-24T17:08:43Z</time>
      </trkpt>
      <trkpt lat="46.27724" lon="5.45072">
        <ele>504.6</ele>
        <time>2022-02-24T17:08:44Z</time>
      </trkpt>
      <trkpt lat="46.27727" lon="5.45073">
        <ele>504.6</ele>
        <time>2022-02-24T17:08:45Z</time>
      </trkpt>
      <trkpt lat="46.27729" lon="5.45074">
        <ele>504.8</ele>
        <time>2022-02-24T17:08:46Z</time>
      </trkpt>
      <trkpt lat="46.27731" lon="5.45075">
        <ele>504.8</ele>
        <time>2022-02-24T17:08:47Z</time>
      </trkpt>
      <trkpt lat="46.27733" lon="5.45076">
        <ele>505.4</ele>
        <time>2022-02-24T17:08:48Z</time>
      </trkpt>
      <trkpt lat="46.27736" lon="5.45077">
        <ele>505.4</ele>
        <time>2022-02-24T17:08:49Z</time>
      </trkpt>
      <trkpt lat="46.27738" lon="5.45078">
        <ele>505.4</ele>
        <time>2022-02-24T17:08:50Z</time>
      </trkpt>
      <trkpt lat="46.2774" lon="5.45078">
        <ele>505.8</ele>
        <time>2022-02-24T17:08:51Z</time>
      </trkpt>
      <trkpt lat="46.27742" lon="5.45079">
        <ele>505.8</ele>
        <time>2022-02-24T17:08:52Z</time>
      </trkpt>
      <trkpt lat="46.27745" lon="5.45079">
        <ele>506</ele>
        <time>2022-02-24T17:08:53Z</time>
      </trkpt>
      <trkpt lat="46.27747" lon="5.4508">
        <ele>506</ele>
        <time>2022-02-24T17:08:54Z</time>
      </trkpt>
      <trkpt lat="46.27749" lon="5.45081">
        <ele>506.4</ele>
        <time>2022-02-24T17:08:55Z</time>
      </trkpt>
      <trkpt lat="46.27752" lon="5.45081">
        <ele>506.4</ele>
        <time>2022-02-24T17:08:56Z</time>
      </trkpt>
      <trkpt lat="46.27754" lon="5.45082">
        <ele>506.6</ele>
        <time>2022-02-24T17:08:57Z</time>
      </trkpt>
      <trkpt lat="46.27757" lon="5.45082">
        <ele>506.6</ele>
        <time>2022-02-24T17:08:58Z</time>
      </trkpt>
      <trkpt lat="46.27759" lon="5.45083">
        <ele>507</ele>
        <time>2022-02-24T17:08:59Z</time>
      </trkpt>
      <trkpt lat="46.27761" lon="5.45083">
        <ele>507</ele>
        <time>2022-02-24T17:09:00Z</time>
      </trkpt>
      <trkpt lat="46.27764" lon="5.45084">
        <ele>507.2</ele>
        <time>2022-02-24T17:09:01Z</time>
      </trkpt>
      <trkpt lat="46.27766" lon="5.45085">
        <ele>507.4</ele>
        <time>2022-02-24T17:09:02Z</time>
      </trkpt>
      <trkpt lat="46.27769" lon="5.45085">
        <ele>507.4</ele>
        <time>2022-02-24T17:09:03Z</time>
      </trkpt>
      <trkpt lat="46.27771" lon="5.45085">
        <ele>507.8</ele>
        <time>2022-02-24T17:09:04Z</time>
      </trkpt>
      <trkpt lat="46.27774" lon="5.45086">
        <ele>507.8</ele>
        <time>2022-02-24T17:09:05Z</time>
      </trkpt>
      <trkpt lat="46.27776" lon="5.45086">
        <ele>508.2</ele>
        <time>2022-02-24T17:09:06Z</time>
      </trkpt>
      <trkpt lat="46.27779" lon="5.45086">
        <ele>508.2</ele>
        <time>2022-02-24T17:09:07Z</time>
      </trkpt>
      <trkpt lat="46.27782" lon="5.45087">
        <ele>508.2</ele>
        <time>2022-02-24T17:09:08Z</time>
      </trkpt>
      <trkpt lat="46.27784" lon="5.45088">
        <ele>508.4</ele>
        <time>2022-02-24T17:09:09Z</time>
      </trkpt>
      <trkpt lat="46.27787" lon="5.45089">
        <ele>508.4</ele>
        <time>2022-02-24T17:09:10Z</time>
      </trkpt>
      <trkpt lat="46.27789" lon="5.45089">
        <ele>508.8</ele>
        <time>2022-02-24T17:09:11Z</time>
      </trkpt>
      <trkpt lat="46.27792" lon="5.4509">
        <ele>509</ele>
        <time>2022-02-24T17:09:12Z</time>
      </trkpt>
      <trkpt lat="46.27794" lon="5.4509">
        <ele>509</ele>
        <time>2022-02-24T17:09:13Z</time>
      </trkpt>
      <trkpt lat="46.27797" lon="5.4509">
        <ele>509.4</ele>
        <time>2022-02-24T17:09:14Z</time>
      </trkpt>
      <trkpt lat="46.27799" lon="5.45091">
        <ele>509.6</ele>
        <time>2022-02-24T17:09:15Z</time>
      </trkpt>
      <trkpt lat="46.27802" lon="5.45091">
        <ele>509.6</ele>
        <time>2022-02-24T17:09:16Z</time>
      </trkpt>
      <trkpt lat="46.27805" lon="5.45092">
        <ele>509.8</ele>
        <time>2022-02-24T17:09:17Z</time>
      </trkpt>
      <trkpt lat="46.27808" lon="5.45093">
        <ele>509.8</ele>
        <time>2022-02-24T17:09:18Z</time>
      </trkpt>
      <trkpt lat="46.27811" lon="5.45093">
        <ele>510</ele>
        <time>2022-02-24T17:09:19Z</time>
      </trkpt>
      <trkpt lat="46.27814" lon="5.45094">
        <ele>510.4</ele>
        <time>2022-02-24T17:09:20Z</time>
      </trkpt>
      <trkpt lat="46.27817" lon="5.45095">
        <ele>510.4</ele>
        <time>2022-02-24T17:09:21Z</time>
      </trkpt>
      <trkpt lat="46.2782" lon="5.45096">
        <ele>510.6</ele>
        <time>2022-02-24T17:09:22Z</time>
      </trkpt>
      <trkpt lat="46.27823" lon="5.45098">
        <ele>510.6</ele>
        <time>2022-02-24T17:09:23Z</time>
      </trkpt>
      <trkpt lat="46.27825" lon="5.45099">
        <ele>510.8</ele>
        <time>2022-02-24T17:09:24Z</time>
      </trkpt>
      <trkpt lat="46.27828" lon="5.451">
        <ele>510.8</ele>
        <time>2022-02-24T17:09:25Z</time>
      </trkpt>
      <trkpt lat="46.27832" lon="5.45101">
        <ele>511</ele>
        <time>2022-02-24T17:09:26Z</time>
      </trkpt>
      <trkpt lat="46.27835" lon="5.45102">
        <ele>511</ele>
        <time>2022-02-24T17:09:27Z</time>
      </trkpt>
      <trkpt lat="46.27837" lon="5.45103">
        <ele>511.4</ele>
        <time>2022-02-24T17:09:28Z</time>
      </trkpt>
      <trkpt lat="46.2784" lon="5.45104">
        <ele>511.4</ele>
        <time>2022-02-24T17:09:29Z</time>
      </trkpt>
      <trkpt lat="46.27843" lon="5.45105">
        <ele>511.6</ele>
        <time>2022-02-24T17:09:30Z</time>
      </trkpt>
      <trkpt lat="46.27846" lon="5.45106">
        <ele>511.6</ele>
        <time>2022-02-24T17:09:31Z</time>
      </trkpt>
      <trkpt lat="46.27849" lon="5.45107">
        <ele>512</ele>
        <time>2022-02-24T17:09:32Z</time>
      </trkpt>
      <trkpt lat="46.27852" lon="5.45108">
        <ele>512</ele>
        <time>2022-02-24T17:09:33Z</time>
      </trkpt>
      <trkpt lat="46.27855" lon="5.45109">
        <ele>512.4</ele>
        <time>2022-02-24T17:09:34Z</time>
      </trkpt>
      <trkpt lat="46.27858" lon="5.45109">
        <ele>512.4</ele>
        <time>2022-02-24T17:09:35Z</time>
      </trkpt>
      <trkpt lat="46.27861" lon="5.4511">
        <ele>512.6</ele>
        <time>2022-02-24T17:09:36Z</time>
      </trkpt>
      <trkpt lat="46.27864" lon="5.45111">
        <ele>512.6</ele>
        <time>2022-02-24T17:09:37Z</time>
      </trkpt>
      <trkpt lat="46.27867" lon="5.45112">
        <ele>513</ele>
        <time>2022-02-24T17:09:38Z</time>
      </trkpt>
      <trkpt lat="46.2787" lon="5.45114">
        <ele>513</ele>
        <time>2022-02-24T17:09:39Z</time>
      </trkpt>
      <trkpt lat="46.27873" lon="5.45115">
        <ele>513.2</ele>
        <time>2022-02-24T17:09:40Z</time>
      </trkpt>
      <trkpt lat="46.27876" lon="5.45116">
        <ele>513.6</ele>
        <time>2022-02-24T17:09:41Z</time>
      </trkpt>
      <trkpt lat="46.27879" lon="5.45117">
        <ele>513.8</ele>
        <time>2022-02-24T17:09:42Z</time>
      </trkpt>
      <trkpt lat="46.27882" lon="5.45118">
        <ele>513.8</ele>
        <time>2022-02-24T17:09:43Z</time>
      </trkpt>
      <trkpt lat="46.27885" lon="5.45119">
        <ele>514.2</ele>
        <time>2022-02-24T17:09:44Z</time>
      </trkpt>
      <trkpt lat="46.27888" lon="5.4512">
        <ele>514.4</ele>
        <time>2022-02-24T17:09:45Z</time>
      </trkpt>
      <trkpt lat="46.2789" lon="5.45121">
        <ele>514.4</ele>
        <time>2022-02-24T17:09:46Z</time>
      </trkpt>
      <trkpt lat="46.27893" lon="5.45122">
        <ele>514.6</ele>
        <time>2022-02-24T17:09:47Z</time>
      </trkpt>
      <trkpt lat="46.27896" lon="5.45124">
        <ele>514.8</ele>
        <time>2022-02-24T17:09:48Z</time>
      </trkpt>
      <trkpt lat="46.27899" lon="5.45126">
        <ele>514.8</ele>
        <time>2022-02-24T17:09:49Z</time>
      </trkpt>
      <trkpt lat="46.27902" lon="5.45128">
        <ele>515.2</ele>
        <time>2022-02-24T17:09:50Z</time>
      </trkpt>
      <trkpt lat="46.27905" lon="5.4513">
        <ele>515.2</ele>
        <time>2022-02-24T17:09:51Z</time>
      </trkpt>
      <trkpt lat="46.27908" lon="5.45133">
        <ele>515.2</ele>
        <time>2022-02-24T17:09:52Z</time>
      </trkpt>
      <trkpt lat="46.2791" lon="5.45135">
        <ele>515.4</ele>
        <time>2022-02-24T17:09:53Z</time>
      </trkpt>
      <trkpt lat="46.27913" lon="5.45137">
        <ele>515.4</ele>
        <time>2022-02-24T17:09:54Z</time>
      </trkpt>
      <trkpt lat="46.27916" lon="5.45139">
        <ele>515.8</ele>
        <time>2022-02-24T17:09:55Z</time>
      </trkpt>
      <trkpt lat="46.27919" lon="5.45141">
        <ele>515.8</ele>
        <time>2022-02-24T17:09:56Z</time>
      </trkpt>
      <trkpt lat="46.27921" lon="5.45142">
        <ele>516</ele>
        <time>2022-02-24T17:09:57Z</time>
      </trkpt>
      <trkpt lat="46.27924" lon="5.45143">
        <ele>516.2</ele>
        <time>2022-02-24T17:09:58Z</time>
      </trkpt>
      <trkpt lat="46.27927" lon="5.45145">
        <ele>516.2</ele>
        <time>2022-02-24T17:09:59Z</time>
      </trkpt>
      <trkpt lat="46.2793" lon="5.45146">
        <ele>516.6</ele>
        <time>2022-02-24T17:10:00Z</time>
      </trkpt>
      <trkpt lat="46.27933" lon="5.45148">
        <ele>516.6</ele>
        <time>2022-02-24T17:10:01Z</time>
      </trkpt>
      <trkpt lat="46.27936" lon="5.45149">
        <ele>516.8</ele>
        <time>2022-02-24T17:10:02Z</time>
      </trkpt>
      <trkpt lat="46.27939" lon="5.4515">
        <ele>516.8</ele>
        <time>2022-02-24T17:10:03Z</time>
      </trkpt>
      <trkpt lat="46.27942" lon="5.4515">
        <ele>517.2</ele>
        <time>2022-02-24T17:10:04Z</time>
      </trkpt>
      <trkpt lat="46.27945" lon="5.45152">
        <ele>517.2</ele>
        <time>2022-02-24T17:10:05Z</time>
      </trkpt>
      <trkpt lat="46.27947" lon="5.45153">
        <ele>517.6</ele>
        <time>2022-02-24T17:10:06Z</time>
      </trkpt>
      <trkpt lat="46.2795" lon="5.45154">
        <ele>517.6</ele>
        <time>2022-02-24T17:10:07Z</time>
      </trkpt>
      <trkpt lat="46.27952" lon="5.45155">
        <ele>518</ele>
        <time>2022-02-24T17:10:08Z</time>
      </trkpt>
      <trkpt lat="46.27955" lon="5.45156">
        <ele>518</ele>
        <time>2022-02-24T17:10:09Z</time>
      </trkpt>
      <trkpt lat="46.27958" lon="5.45157">
        <ele>518.4</ele>
        <time>2022-02-24T17:10:10Z</time>
      </trkpt>
      <trkpt lat="46.2796" lon="5.45159">
        <ele>518.4</ele>
        <time>2022-02-24T17:10:11Z</time>
      </trkpt>
      <trkpt lat="46.27963" lon="5.45161">
        <ele>518.8</ele>
        <time>2022-02-24T17:10:12Z</time>
      </trkpt>
      <trkpt lat="46.27966" lon="5.45162">
        <ele>518.8</ele>
        <time>2022-02-24T17:10:13Z</time>
      </trkpt>
      <trkpt lat="46.27969" lon="5.45164">
        <ele>519.2</ele>
        <time>2022-02-24T17:10:14Z</time>
      </trkpt>
      <trkpt lat="46.27972" lon="5.45165">
        <ele>519.2</ele>
        <time>2022-02-24T17:10:15Z</time>
      </trkpt>
      <trkpt lat="46.27976" lon="5.45167">
        <ele>519.4</ele>
        <time>2022-02-24T17:10:16Z</time>
      </trkpt>
      <trkpt lat="46.27979" lon="5.45168">
        <ele>519.4</ele>
        <time>2022-02-24T17:10:17Z</time>
      </trkpt>
      <trkpt lat="46.27982" lon="5.45169">
        <ele>519.6</ele>
        <time>2022-02-24T17:10:18Z</time>
      </trkpt>
      <trkpt lat="46.27985" lon="5.4517">
        <ele>519.8</ele>
        <time>2022-02-24T17:10:19Z</time>
      </trkpt>
      <trkpt lat="46.27988" lon="5.45171">
        <ele>519.8</ele>
        <time>2022-02-24T17:10:20Z</time>
      </trkpt>
      <trkpt lat="46.27991" lon="5.45172">
        <ele>520.2</ele>
        <time>2022-02-24T17:10:21Z</time>
      </trkpt>
      <trkpt lat="46.27994" lon="5.45174">
        <ele>520.6</ele>
        <time>2022-02-24T17:10:22Z</time>
      </trkpt>
      <trkpt lat="46.27997" lon="5.45176">
        <ele>520.8</ele>
        <time>2022-02-24T17:10:23Z</time>
      </trkpt>
      <trkpt lat="46.28" lon="5.45178">
        <ele>520.8</ele>
        <time>2022-02-24T17:10:24Z</time>
      </trkpt>
      <trkpt lat="46.28002" lon="5.4518">
        <ele>521</ele>
        <time>2022-02-24T17:10:25Z</time>
      </trkpt>
      <trkpt lat="46.28006" lon="5.45182">
        <ele>521</ele>
        <time>2022-02-24T17:10:26Z</time>
      </trkpt>
      <trkpt lat="46.28009" lon="5.45184">
        <ele>521.4</ele>
        <time>2022-02-24T17:10:27Z</time>
      </trkpt>
      <trkpt lat="46.28012" lon="5.45186">
        <ele>521.4</ele>
        <time>2022-02-24T17:10:28Z</time>
      </trkpt>
      <trkpt lat="46.28015" lon="5.45189">
        <ele>521.8</ele>
        <time>2022-02-24T17:10:29Z</time>
      </trkpt>
      <trkpt lat="46.28018" lon="5.45191">
        <ele>521.8</ele>
        <time>2022-02-24T17:10:30Z</time>
      </trkpt>
      <trkpt lat="46.28021" lon="5.45193">
        <ele>522.2</ele>
        <time>2022-02-24T17:10:31Z</time>
      </trkpt>
      <trkpt lat="46.28024" lon="5.45195">
        <ele>522.2</ele>
        <time>2022-02-24T17:10:32Z</time>
      </trkpt>
      <trkpt lat="46.28026" lon="5.45197">
        <ele>522.4</ele>
        <time>2022-02-24T17:10:33Z</time>
      </trkpt>
      <trkpt lat="46.28029" lon="5.45199">
        <ele>522.4</ele>
        <time>2022-02-24T17:10:34Z</time>
      </trkpt>
      <trkpt lat="46.28032" lon="5.45201">
        <ele>522.8</ele>
        <time>2022-02-24T17:10:35Z</time>
      </trkpt>
      <trkpt lat="46.28035" lon="5.45202">
        <ele>522.8</ele>
        <time>2022-02-24T17:10:36Z</time>
      </trkpt>
      <trkpt lat="46.28038" lon="5.45204">
        <ele>523.2</ele>
        <time>2022-02-24T17:10:37Z</time>
      </trkpt>
      <trkpt lat="46.28041" lon="5.45206">
        <ele>523.2</ele>
        <time>2022-02-24T17:10:38Z</time>
      </trkpt>
      <trkpt lat="46.28044" lon="5.45208">
        <ele>523.6</ele>
        <time>2022-02-24T17:10:39Z</time>
      </trkpt>
      <trkpt lat="46.28047" lon="5.4521">
        <ele>523.6</ele>
        <time>2022-02-24T17:10:40Z</time>
      </trkpt>
      <trkpt lat="46.28049" lon="5.45212">
        <ele>523.8</ele>
        <time>2022-02-24T17:10:41Z</time>
      </trkpt>
      <trkpt lat="46.28052" lon="5.45214">
        <ele>523.8</ele>
        <time>2022-02-24T17:10:42Z</time>
      </trkpt>
      <trkpt lat="46.28055" lon="5.45216">
        <ele>524.2</ele>
        <time>2022-02-24T17:10:43Z</time>
      </trkpt>
      <trkpt lat="46.28058" lon="5.45218">
        <ele>524.2</ele>
        <time>2022-02-24T17:10:44Z</time>
      </trkpt>
      <trkpt lat="46.28061" lon="5.45219">
        <ele>524.6</ele>
        <time>2022-02-24T17:10:45Z</time>
      </trkpt>
      <trkpt lat="46.28064" lon="5.45221">
        <ele>524.6</ele>
        <time>2022-02-24T17:10:46Z</time>
      </trkpt>
      <trkpt lat="46.28067" lon="5.45223">
        <ele>525</ele>
        <time>2022-02-24T17:10:47Z</time>
      </trkpt>
      <trkpt lat="46.2807" lon="5.45225">
        <ele>525.2</ele>
        <time>2022-02-24T17:10:48Z</time>
      </trkpt>
      <trkpt lat="46.28073" lon="5.45227">
        <ele>525.2</ele>
        <time>2022-02-24T17:10:49Z</time>
      </trkpt>
      <trkpt lat="46.28076" lon="5.4523">
        <ele>525.4</ele>
        <time>2022-02-24T17:10:50Z</time>
      </trkpt>
      <trkpt lat="46.28079" lon="5.45232">
        <ele>525.4</ele>
        <time>2022-02-24T17:10:51Z</time>
      </trkpt>
      <trkpt lat="46.28082" lon="5.45235">
        <ele>525.8</ele>
        <time>2022-02-24T17:10:52Z</time>
      </trkpt>
      <trkpt lat="46.28085" lon="5.45237">
        <ele>525.8</ele>
        <time>2022-02-24T17:10:53Z</time>
      </trkpt>
      <trkpt lat="46.28088" lon="5.4524">
        <ele>525.8</ele>
        <time>2022-02-24T17:10:54Z</time>
      </trkpt>
      <trkpt lat="46.28091" lon="5.45243">
        <ele>526.2</ele>
        <time>2022-02-24T17:10:55Z</time>
      </trkpt>
      <trkpt lat="46.28095" lon="5.45246">
        <ele>526.2</ele>
        <time>2022-02-24T17:10:56Z</time>
      </trkpt>
      <trkpt lat="46.28098" lon="5.45249">
        <ele>526.4</ele>
        <time>2022-02-24T17:10:57Z</time>
      </trkpt>
      <trkpt lat="46.28098" lon="5.45249">
        <ele>526.4</ele>
        <time>2022-02-24T17:10:58Z</time>
      </trkpt>
      <trkpt lat="46.28101" lon="5.45251">
        <ele>526.4</ele>
        <time>2022-02-24T17:10:59Z</time>
      </trkpt>
      <trkpt lat="46.28104" lon="5.45254">
        <ele>526.8</ele>
        <time>2022-02-24T17:11:00Z</time>
      </trkpt>
      <trkpt lat="46.28107" lon="5.45257">
        <ele>526.8</ele>
        <time>2022-02-24T17:11:01Z</time>
      </trkpt>
      <trkpt lat="46.2811" lon="5.4526">
        <ele>527</ele>
        <time>2022-02-24T17:11:02Z</time>
      </trkpt>
      <trkpt lat="46.28113" lon="5.45262">
        <ele>527</ele>
        <time>2022-02-24T17:11:03Z</time>
      </trkpt>
      <trkpt lat="46.28116" lon="5.45265">
        <ele>527.2</ele>
        <time>2022-02-24T17:11:04Z</time>
      </trkpt>
      <trkpt lat="46.28119" lon="5.45268">
        <ele>527.2</ele>
        <time>2022-02-24T17:11:05Z</time>
      </trkpt>
      <trkpt lat="46.28122" lon="5.45271">
        <ele>527.2</ele>
        <time>2022-02-24T17:11:06Z</time>
      </trkpt>
      <trkpt lat="46.28125" lon="5.45275">
        <ele>527.6</ele>
        <time>2022-02-24T17:11:07Z</time>
      </trkpt>
      <trkpt lat="46.28128" lon="5.45277">
        <ele>527.6</ele>
        <time>2022-02-24T17:11:08Z</time>
      </trkpt>
      <trkpt lat="46.28132" lon="5.4528">
        <ele>527.6</ele>
        <time>2022-02-24T17:11:09Z</time>
      </trkpt>
      <trkpt lat="46.28135" lon="5.45283">
        <ele>527.6</ele>
        <time>2022-02-24T17:11:10Z</time>
      </trkpt>
      <trkpt lat="46.28139" lon="5.45286">
        <ele>527.8</ele>
        <time>2022-02-24T17:11:11Z</time>
      </trkpt>
      <trkpt lat="46.28142" lon="5.45289">
        <ele>527.8</ele>
        <time>2022-02-24T17:11:12Z</time>
      </trkpt>
      <trkpt lat="46.28145" lon="5.45292">
        <ele>527.8</ele>
        <time>2022-02-24T17:11:13Z</time>
      </trkpt>
      <trkpt lat="46.28149" lon="5.45295">
        <ele>527.8</ele>
        <time>2022-02-24T17:11:14Z</time>
      </trkpt>
      <trkpt lat="46.28152" lon="5.45298">
        <ele>527.8</ele>
        <time>2022-02-24T17:11:15Z</time>
      </trkpt>
      <trkpt lat="46.28156" lon="5.45302">
        <ele>527.8</ele>
        <time>2022-02-24T17:11:16Z</time>
      </trkpt>
      <trkpt lat="46.28159" lon="5.45306">
        <ele>527.8</ele>
        <time>2022-02-24T17:11:17Z</time>
      </trkpt>
      <trkpt lat="46.28163" lon="5.45309">
        <ele>528</ele>
        <time>2022-02-24T17:11:18Z</time>
      </trkpt>
      <trkpt lat="46.28166" lon="5.45313">
        <ele>528</ele>
        <time>2022-02-24T17:11:19Z</time>
      </trkpt>
      <trkpt lat="46.2817" lon="5.45318">
        <ele>528</ele>
        <time>2022-02-24T17:11:20Z</time>
      </trkpt>
      <trkpt lat="46.28174" lon="5.45322">
        <ele>528</ele>
        <time>2022-02-24T17:11:21Z</time>
      </trkpt>
      <trkpt lat="46.28177" lon="5.45326">
        <ele>528</ele>
        <time>2022-02-24T17:11:22Z</time>
      </trkpt>
      <trkpt lat="46.28181" lon="5.45332">
        <ele>528</ele>
        <time>2022-02-24T17:11:23Z</time>
      </trkpt>
      <trkpt lat="46.28184" lon="5.45337">
        <ele>528</ele>
        <time>2022-02-24T17:11:24Z</time>
      </trkpt>
      <trkpt lat="46.28187" lon="5.45344">
        <ele>528</ele>
        <time>2022-02-24T17:11:25Z</time>
      </trkpt>
      <trkpt lat="46.28189" lon="5.45351">
        <ele>528</ele>
        <time>2022-02-24T17:11:26Z</time>
      </trkpt>
      <trkpt lat="46.28191" lon="5.45357">
        <ele>528</ele>
        <time>2022-02-24T17:11:27Z</time>
      </trkpt>
      <trkpt lat="46.28193" lon="5.45364">
        <ele>528</ele>
        <time>2022-02-24T17:11:28Z</time>
      </trkpt>
      <trkpt lat="46.28195" lon="5.45371">
        <ele>528</ele>
        <time>2022-02-24T17:11:29Z</time>
      </trkpt>
      <trkpt lat="46.28196" lon="5.45378">
        <ele>528</ele>
        <time>2022-02-24T17:11:30Z</time>
      </trkpt>
      <trkpt lat="46.28197" lon="5.45385">
        <ele>528.2</ele>
        <time>2022-02-24T17:11:31Z</time>
      </trkpt>
      <trkpt lat="46.28199" lon="5.45392">
        <ele>528.2</ele>
        <time>2022-02-24T17:11:32Z</time>
      </trkpt>
      <trkpt lat="46.282" lon="5.45398">
        <ele>528.2</ele>
        <time>2022-02-24T17:11:33Z</time>
      </trkpt>
      <trkpt lat="46.28201" lon="5.45405">
        <ele>528.2</ele>
        <time>2022-02-24T17:11:34Z</time>
      </trkpt>
      <trkpt lat="46.28203" lon="5.45411">
        <ele>528.4</ele>
        <time>2022-02-24T17:11:35Z</time>
      </trkpt>
      <trkpt lat="46.28204" lon="5.45417">
        <ele>528.4</ele>
        <time>2022-02-24T17:11:36Z</time>
      </trkpt>
      <trkpt lat="46.28204" lon="5.45423">
        <ele>528.4</ele>
        <time>2022-02-24T17:11:37Z</time>
      </trkpt>
      <trkpt lat="46.28205" lon="5.45429">
        <ele>528.4</ele>
        <time>2022-02-24T17:11:38Z</time>
      </trkpt>
      <trkpt lat="46.28206" lon="5.45435">
        <ele>528.4</ele>
        <time>2022-02-24T17:11:39Z</time>
      </trkpt>
      <trkpt lat="46.28207" lon="5.45441">
        <ele>528.6</ele>
        <time>2022-02-24T17:11:40Z</time>
      </trkpt>
      <trkpt lat="46.28207" lon="5.45448">
        <ele>528.6</ele>
        <time>2022-02-24T17:11:41Z</time>
      </trkpt>
      <trkpt lat="46.28208" lon="5.45454">
        <ele>528.6</ele>
        <time>2022-02-24T17:11:42Z</time>
      </trkpt>
      <trkpt lat="46.28209" lon="5.4546">
        <ele>528.6</ele>
        <time>2022-02-24T17:11:43Z</time>
      </trkpt>
      <trkpt lat="46.2821" lon="5.45466">
        <ele>529</ele>
        <time>2022-02-24T17:11:44Z</time>
      </trkpt>
      <trkpt lat="46.28212" lon="5.45472">
        <ele>529</ele>
        <time>2022-02-24T17:11:45Z</time>
      </trkpt>
      <trkpt lat="46.28212" lon="5.45478">
        <ele>529</ele>
        <time>2022-02-24T17:11:46Z</time>
      </trkpt>
      <trkpt lat="46.28213" lon="5.45484">
        <ele>529.2</ele>
        <time>2022-02-24T17:11:47Z</time>
      </trkpt>
      <trkpt lat="46.28214" lon="5.45489">
        <ele>529.2</ele>
        <time>2022-02-24T17:11:48Z</time>
      </trkpt>
      <trkpt lat="46.28215" lon="5.45495">
        <ele>529.2</ele>
        <time>2022-02-24T17:11:49Z</time>
      </trkpt>
      <trkpt lat="46.28216" lon="5.455">
        <ele>529.4</ele>
        <time>2022-02-24T17:11:50Z</time>
      </trkpt>
      <trkpt lat="46.28217" lon="5.45505">
        <ele>529.4</ele>
        <time>2022-02-24T17:11:51Z</time>
      </trkpt>
      <trkpt lat="46.28217" lon="5.4551">
        <ele>529.8</ele>
        <time>2022-02-24T17:11:52Z</time>
      </trkpt>
      <trkpt lat="46.28218" lon="5.45515">
        <ele>529.8</ele>
        <time>2022-02-24T17:11:53Z</time>
      </trkpt>
      <trkpt lat="46.28219" lon="5.45521">
        <ele>530.2</ele>
        <time>2022-02-24T17:11:54Z</time>
      </trkpt>
      <trkpt lat="46.28219" lon="5.45526">
        <ele>530.2</ele>
        <time>2022-02-24T17:11:55Z</time>
      </trkpt>
      <trkpt lat="46.28219" lon="5.45531">
        <ele>530.4</ele>
        <time>2022-02-24T17:11:56Z</time>
      </trkpt>
      <trkpt lat="46.28219" lon="5.45536">
        <ele>530.4</ele>
        <time>2022-02-24T17:11:57Z</time>
      </trkpt>
      <trkpt lat="46.28219" lon="5.45541">
        <ele>530.8</ele>
        <time>2022-02-24T17:11:58Z</time>
      </trkpt>
      <trkpt lat="46.28219" lon="5.45547">
        <ele>530.8</ele>
        <time>2022-02-24T17:11:59Z</time>
      </trkpt>
      <trkpt lat="46.28218" lon="5.45551">
        <ele>531</ele>
        <time>2022-02-24T17:12:00Z</time>
      </trkpt>
      <trkpt lat="46.28217" lon="5.45556">
        <ele>531</ele>
        <time>2022-02-24T17:12:01Z</time>
      </trkpt>
      <trkpt lat="46.28216" lon="5.4556">
        <ele>531.2</ele>
        <time>2022-02-24T17:12:02Z</time>
      </trkpt>
      <trkpt lat="46.28215" lon="5.45565">
        <ele>531.2</ele>
        <time>2022-02-24T17:12:03Z</time>
      </trkpt>
      <trkpt lat="46.28214" lon="5.4557">
        <ele>531.6</ele>
        <time>2022-02-24T17:12:04Z</time>
      </trkpt>
      <trkpt lat="46.28213" lon="5.45574">
        <ele>531.6</ele>
        <time>2022-02-24T17:12:05Z</time>
      </trkpt>
      <trkpt lat="46.28211" lon="5.45578">
        <ele>531.8</ele>
        <time>2022-02-24T17:12:06Z</time>
      </trkpt>
      <trkpt lat="46.2821" lon="5.45583">
        <ele>532</ele>
        <time>2022-02-24T17:12:07Z</time>
      </trkpt>
      <trkpt lat="46.28208" lon="5.45588">
        <ele>532</ele>
        <time>2022-02-24T17:12:08Z</time>
      </trkpt>
      <trkpt lat="46.28207" lon="5.45593">
        <ele>532.4</ele>
        <time>2022-02-24T17:12:09Z</time>
      </trkpt>
      <trkpt lat="46.28206" lon="5.45597">
        <ele>532.4</ele>
        <time>2022-02-24T17:12:10Z</time>
      </trkpt>
      <trkpt lat="46.28205" lon="5.45602">
        <ele>532.6</ele>
        <time>2022-02-24T17:12:11Z</time>
      </trkpt>
      <trkpt lat="46.28204" lon="5.45607">
        <ele>532.6</ele>
        <time>2022-02-24T17:12:12Z</time>
      </trkpt>
      <trkpt lat="46.28203" lon="5.45611">
        <ele>533</ele>
        <time>2022-02-24T17:12:13Z</time>
      </trkpt>
      <trkpt lat="46.28202" lon="5.45616">
        <ele>533</ele>
        <time>2022-02-24T17:12:14Z</time>
      </trkpt>
      <trkpt lat="46.28201" lon="5.4562">
        <ele>533.2</ele>
        <time>2022-02-24T17:12:15Z</time>
      </trkpt>
      <trkpt lat="46.282" lon="5.45624">
        <ele>533.2</ele>
        <time>2022-02-24T17:12:16Z</time>
      </trkpt>
      <trkpt lat="46.28199" lon="5.45628">
        <ele>533.4</ele>
        <time>2022-02-24T17:12:17Z</time>
      </trkpt>
      <trkpt lat="46.28198" lon="5.45633">
        <ele>533.4</ele>
        <time>2022-02-24T17:12:18Z</time>
      </trkpt>
      <trkpt lat="46.28196" lon="5.45637">
        <ele>533.6</ele>
        <time>2022-02-24T17:12:19Z</time>
      </trkpt>
      <trkpt lat="46.28196" lon="5.45642">
        <ele>533.6</ele>
        <time>2022-02-24T17:12:20Z</time>
      </trkpt>
      <trkpt lat="46.28195" lon="5.45647">
        <ele>533.6</ele>
        <time>2022-02-24T17:12:21Z</time>
      </trkpt>
      <trkpt lat="46.28194" lon="5.45651">
        <ele>534</ele>
        <time>2022-02-24T17:12:22Z</time>
      </trkpt>
      <trkpt lat="46.28193" lon="5.45656">
        <ele>534</ele>
        <time>2022-02-24T17:12:23Z</time>
      </trkpt>
      <trkpt lat="46.28192" lon="5.45661">
        <ele>534</ele>
        <time>2022-02-24T17:12:24Z</time>
      </trkpt>
      <trkpt lat="46.2819" lon="5.45665">
        <ele>534.4</ele>
        <time>2022-02-24T17:12:25Z</time>
      </trkpt>
      <trkpt lat="46.28189" lon="5.4567">
        <ele>534.4</ele>
        <time>2022-02-24T17:12:26Z</time>
      </trkpt>
      <trkpt lat="46.28188" lon="5.45674">
        <ele>534.6</ele>
        <time>2022-02-24T17:12:27Z</time>
      </trkpt>
      <trkpt lat="46.28187" lon="5.45679">
        <ele>534.6</ele>
        <time>2022-02-24T17:12:28Z</time>
      </trkpt>
      <trkpt lat="46.28185" lon="5.45683">
        <ele>534.8</ele>
        <time>2022-02-24T17:12:29Z</time>
      </trkpt>
      <trkpt lat="46.28184" lon="5.45687">
        <ele>534.8</ele>
        <time>2022-02-24T17:12:30Z</time>
      </trkpt>
      <trkpt lat="46.28182" lon="5.45691">
        <ele>535.2</ele>
        <time>2022-02-24T17:12:31Z</time>
      </trkpt>
      <trkpt lat="46.2818" lon="5.45695">
        <ele>535.2</ele>
        <time>2022-02-24T17:12:32Z</time>
      </trkpt>
      <trkpt lat="46.28178" lon="5.45698">
        <ele>535.4</ele>
        <time>2022-02-24T17:12:33Z</time>
      </trkpt>
      <trkpt lat="46.28176" lon="5.45703">
        <ele>535.4</ele>
        <time>2022-02-24T17:12:34Z</time>
      </trkpt>
      <trkpt lat="46.28173" lon="5.45706">
        <ele>535.4</ele>
        <time>2022-02-24T17:12:35Z</time>
      </trkpt>
      <trkpt lat="46.28169" lon="5.45709">
        <ele>535.8</ele>
        <time>2022-02-24T17:12:36Z</time>
      </trkpt>
      <trkpt lat="46.28165" lon="5.45711">
        <ele>535.8</ele>
        <time>2022-02-24T17:12:37Z</time>
      </trkpt>
      <trkpt lat="46.28162" lon="5.45713">
        <ele>536</ele>
        <time>2022-02-24T17:12:38Z</time>
      </trkpt>
      <trkpt lat="46.28158" lon="5.45714">
        <ele>536</ele>
        <time>2022-02-24T17:12:39Z</time>
      </trkpt>
      <trkpt lat="46.28154" lon="5.45715">
        <ele>536.2</ele>
        <time>2022-02-24T17:12:40Z</time>
      </trkpt>
      <trkpt lat="46.2815" lon="5.45715">
        <ele>536.2</ele>
        <time>2022-02-24T17:12:41Z</time>
      </trkpt>
      <trkpt lat="46.28146" lon="5.45715">
        <ele>536.2</ele>
        <time>2022-02-24T17:12:42Z</time>
      </trkpt>
      <trkpt lat="46.28143" lon="5.45715">
        <ele>536.6</ele>
        <time>2022-02-24T17:12:43Z</time>
      </trkpt>
      <trkpt lat="46.28139" lon="5.45715">
        <ele>536.6</ele>
        <time>2022-02-24T17:12:44Z</time>
      </trkpt>
      <trkpt lat="46.28136" lon="5.45715">
        <ele>536.6</ele>
        <time>2022-02-24T17:12:45Z</time>
      </trkpt>
      <trkpt lat="46.28132" lon="5.45716">
        <ele>537</ele>
        <time>2022-02-24T17:12:46Z</time>
      </trkpt>
      <trkpt lat="46.28129" lon="5.45716">
        <ele>537.2</ele>
        <time>2022-02-24T17:12:47Z</time>
      </trkpt>
      <trkpt lat="46.28125" lon="5.45717">
        <ele>537.2</ele>
        <time>2022-02-24T17:12:48Z</time>
      </trkpt>
      <trkpt lat="46.28122" lon="5.45718">
        <ele>537.4</ele>
        <time>2022-02-24T17:12:49Z</time>
      </trkpt>
      <trkpt lat="46.28118" lon="5.45719">
        <ele>537.4</ele>
        <time>2022-02-24T17:12:50Z</time>
      </trkpt>
      <trkpt lat="46.28115" lon="5.45719">
        <ele>537.6</ele>
        <time>2022-02-24T17:12:51Z</time>
      </trkpt>
      <trkpt lat="46.28112" lon="5.4572">
        <ele>537.6</ele>
        <time>2022-02-24T17:12:52Z</time>
      </trkpt>
      <trkpt lat="46.28108" lon="5.4572">
        <ele>537.8</ele>
        <time>2022-02-24T17:12:53Z</time>
      </trkpt>
      <trkpt lat="46.28105" lon="5.45721">
        <ele>537.8</ele>
        <time>2022-02-24T17:12:54Z</time>
      </trkpt>
      <trkpt lat="46.28102" lon="5.45722">
        <ele>538.2</ele>
        <time>2022-02-24T17:12:55Z</time>
      </trkpt>
      <trkpt lat="46.28098" lon="5.45723">
        <ele>538.2</ele>
        <time>2022-02-24T17:12:56Z</time>
      </trkpt>
      <trkpt lat="46.28095" lon="5.45723">
        <ele>538.6</ele>
        <time>2022-02-24T17:12:57Z</time>
      </trkpt>
      <trkpt lat="46.28092" lon="5.45724">
        <ele>538.6</ele>
        <time>2022-02-24T17:12:58Z</time>
      </trkpt>
      <trkpt lat="46.28088" lon="5.45725">
        <ele>538.8</ele>
        <time>2022-02-24T17:12:59Z</time>
      </trkpt>
      <trkpt lat="46.28085" lon="5.45725">
        <ele>538.8</ele>
        <time>2022-02-24T17:13:00Z</time>
      </trkpt>
      <trkpt lat="46.28081" lon="5.45726">
        <ele>539</ele>
        <time>2022-02-24T17:13:01Z</time>
      </trkpt>
      <trkpt lat="46.28078" lon="5.45726">
        <ele>539</ele>
        <time>2022-02-24T17:13:02Z</time>
      </trkpt>
      <trkpt lat="46.28074" lon="5.45726">
        <ele>539.2</ele>
        <time>2022-02-24T17:13:03Z</time>
      </trkpt>
      <trkpt lat="46.28071" lon="5.45726">
        <ele>539.2</ele>
        <time>2022-02-24T17:13:04Z</time>
      </trkpt>
      <trkpt lat="46.28067" lon="5.45727">
        <ele>539.4</ele>
        <time>2022-02-24T17:13:05Z</time>
      </trkpt>
      <trkpt lat="46.28063" lon="5.45727">
        <ele>539.4</ele>
        <time>2022-02-24T17:13:06Z</time>
      </trkpt>
      <trkpt lat="46.2806" lon="5.45727">
        <ele>539.8</ele>
        <time>2022-02-24T17:13:07Z</time>
      </trkpt>
      <trkpt lat="46.28057" lon="5.45727">
        <ele>539.8</ele>
        <time>2022-02-24T17:13:08Z</time>
      </trkpt>
      <trkpt lat="46.28053" lon="5.45727">
        <ele>540</ele>
        <time>2022-02-24T17:13:09Z</time>
      </trkpt>
      <trkpt lat="46.2805" lon="5.45728">
        <ele>540</ele>
        <time>2022-02-24T17:13:10Z</time>
      </trkpt>
      <trkpt lat="46.28046" lon="5.45728">
        <ele>540.4</ele>
        <time>2022-02-24T17:13:11Z</time>
      </trkpt>
      <trkpt lat="46.28043" lon="5.45728">
        <ele>540.4</ele>
        <time>2022-02-24T17:13:12Z</time>
      </trkpt>
      <trkpt lat="46.2804" lon="5.45727">
        <ele>540.6</ele>
        <time>2022-02-24T17:13:13Z</time>
      </trkpt>
      <trkpt lat="46.28036" lon="5.45727">
        <ele>540.6</ele>
        <time>2022-02-24T17:13:14Z</time>
      </trkpt>
      <trkpt lat="46.28033" lon="5.45727">
        <ele>540.6</ele>
        <time>2022-02-24T17:13:15Z</time>
      </trkpt>
      <trkpt lat="46.2803" lon="5.45726">
        <ele>540.8</ele>
        <time>2022-02-24T17:13:16Z</time>
      </trkpt>
      <trkpt lat="46.28026" lon="5.45725">
        <ele>540.8</ele>
        <time>2022-02-24T17:13:17Z</time>
      </trkpt>
      <trkpt lat="46.28023" lon="5.45724">
        <ele>541.2</ele>
        <time>2022-02-24T17:13:18Z</time>
      </trkpt>
      <trkpt lat="46.2802" lon="5.45723">
        <ele>541.2</ele>
        <time>2022-02-24T17:13:19Z</time>
      </trkpt>
      <trkpt lat="46.28017" lon="5.45722">
        <ele>541.4</ele>
        <time>2022-02-24T17:13:20Z</time>
      </trkpt>
      <trkpt lat="46.28014" lon="5.45721">
        <ele>541.4</ele>
        <time>2022-02-24T17:13:21Z</time>
      </trkpt>
      <trkpt lat="46.28011" lon="5.4572">
        <ele>541.8</ele>
        <time>2022-02-24T17:13:22Z</time>
      </trkpt>
      <trkpt lat="46.28008" lon="5.45718">
        <ele>541.8</ele>
        <time>2022-02-24T17:13:23Z</time>
      </trkpt>
      <trkpt lat="46.28005" lon="5.45717">
        <ele>542</ele>
        <time>2022-02-24T17:13:24Z</time>
      </trkpt>
      <trkpt lat="46.28001" lon="5.45716">
        <ele>542</ele>
        <time>2022-02-24T17:13:25Z</time>
      </trkpt>
      <trkpt lat="46.27998" lon="5.45714">
        <ele>542.4</ele>
        <time>2022-02-24T17:13:26Z</time>
      </trkpt>
      <trkpt lat="46.27995" lon="5.45712">
        <ele>542.4</ele>
        <time>2022-02-24T17:13:27Z</time>
      </trkpt>
      <trkpt lat="46.27992" lon="5.4571">
        <ele>542.6</ele>
        <time>2022-02-24T17:13:28Z</time>
      </trkpt>
      <trkpt lat="46.27989" lon="5.45707">
        <ele>542.6</ele>
        <time>2022-02-24T17:13:29Z</time>
      </trkpt>
      <trkpt lat="46.27986" lon="5.45705">
        <ele>543</ele>
        <time>2022-02-24T17:13:30Z</time>
      </trkpt>
      <trkpt lat="46.27983" lon="5.45704">
        <ele>543</ele>
        <time>2022-02-24T17:13:31Z</time>
      </trkpt>
      <trkpt lat="46.2798" lon="5.45703">
        <ele>543.2</ele>
        <time>2022-02-24T17:13:32Z</time>
      </trkpt>
      <trkpt lat="46.27977" lon="5.45701">
        <ele>543.2</ele>
        <time>2022-02-24T17:13:33Z</time>
      </trkpt>
      <trkpt lat="46.27974" lon="5.45699">
        <ele>543.6</ele>
        <time>2022-02-24T17:13:34Z</time>
      </trkpt>
      <trkpt lat="46.27972" lon="5.45698">
        <ele>543.6</ele>
        <time>2022-02-24T17:13:35Z</time>
      </trkpt>
      <trkpt lat="46.27969" lon="5.45696">
        <ele>543.8</ele>
        <time>2022-02-24T17:13:36Z</time>
      </trkpt>
      <trkpt lat="46.27966" lon="5.45695">
        <ele>543.8</ele>
        <time>2022-02-24T17:13:37Z</time>
      </trkpt>
      <trkpt lat="46.27963" lon="5.45693">
        <ele>544.2</ele>
        <time>2022-02-24T17:13:38Z</time>
      </trkpt>
      <trkpt lat="46.2796" lon="5.45692">
        <ele>544.2</ele>
        <time>2022-02-24T17:13:39Z</time>
      </trkpt>
      <trkpt lat="46.27958" lon="5.4569">
        <ele>544.4</ele>
        <time>2022-02-24T17:13:40Z</time>
      </trkpt>
      <trkpt lat="46.27955" lon="5.45688">
        <ele>544.4</ele>
        <time>2022-02-24T17:13:41Z</time>
      </trkpt>
      <trkpt lat="46.27952" lon="5.45687">
        <ele>544.6</ele>
        <time>2022-02-24T17:13:42Z</time>
      </trkpt>
      <trkpt lat="46.27949" lon="5.45685">
        <ele>544.6</ele>
        <time>2022-02-24T17:13:43Z</time>
      </trkpt>
      <trkpt lat="46.27946" lon="5.45683">
        <ele>544.8</ele>
        <time>2022-02-24T17:13:44Z</time>
      </trkpt>
      <trkpt lat="46.27943" lon="5.45681">
        <ele>544.8</ele>
        <time>2022-02-24T17:13:45Z</time>
      </trkpt>
      <trkpt lat="46.2794" lon="5.4568">
        <ele>544.8</ele>
        <time>2022-02-24T17:13:46Z</time>
      </trkpt>
      <trkpt lat="46.27937" lon="5.45678">
        <ele>545.2</ele>
        <time>2022-02-24T17:13:47Z</time>
      </trkpt>
      <trkpt lat="46.27933" lon="5.45677">
        <ele>545.2</ele>
        <time>2022-02-24T17:13:48Z</time>
      </trkpt>
      <trkpt lat="46.2793" lon="5.45675">
        <ele>545.2</ele>
        <time>2022-02-24T17:13:49Z</time>
      </trkpt>
      <trkpt lat="46.27927" lon="5.45674">
        <ele>545.4</ele>
        <time>2022-02-24T17:13:50Z</time>
      </trkpt>
      <trkpt lat="46.27923" lon="5.45673">
        <ele>545.4</ele>
        <time>2022-02-24T17:13:51Z</time>
      </trkpt>
      <trkpt lat="46.2792" lon="5.45672">
        <ele>545.4</ele>
        <time>2022-02-24T17:13:52Z</time>
      </trkpt>
      <trkpt lat="46.27916" lon="5.45673">
        <ele>545.8</ele>
        <time>2022-02-24T17:13:53Z</time>
      </trkpt>
      <trkpt lat="46.27913" lon="5.45673">
        <ele>545.8</ele>
        <time>2022-02-24T17:13:54Z</time>
      </trkpt>
      <trkpt lat="46.27909" lon="5.45674">
        <ele>545.8</ele>
        <time>2022-02-24T17:13:55Z</time>
      </trkpt>
      <trkpt lat="46.27906" lon="5.45675">
        <ele>546</ele>
        <time>2022-02-24T17:13:56Z</time>
      </trkpt>
      <trkpt lat="46.27903" lon="5.45677">
        <ele>546</ele>
        <time>2022-02-24T17:13:57Z</time>
      </trkpt>
      <trkpt lat="46.279" lon="5.4568">
        <ele>546.4</ele>
        <time>2022-02-24T17:13:58Z</time>
      </trkpt>
      <trkpt lat="46.27897" lon="5.45684">
        <ele>546.4</ele>
        <time>2022-02-24T17:13:59Z</time>
      </trkpt>
      <trkpt lat="46.27895" lon="5.45688">
        <ele>546.4</ele>
        <time>2022-02-24T17:14:00Z</time>
      </trkpt>
      <trkpt lat="46.27893" lon="5.45693">
        <ele>546.4</ele>
        <time>2022-02-24T17:14:01Z</time>
      </trkpt>
      <trkpt lat="46.27891" lon="5.45698">
        <ele>546.4</ele>
        <time>2022-02-24T17:14:02Z</time>
      </trkpt>
      <trkpt lat="46.2789" lon="5.45703">
        <ele>546.4</ele>
        <time>2022-02-24T17:14:03Z</time>
      </trkpt>
      <trkpt lat="46.2789" lon="5.45709">
        <ele>546.6</ele>
        <time>2022-02-24T17:14:04Z</time>
      </trkpt>
      <trkpt lat="46.27891" lon="5.45715">
        <ele>546.6</ele>
        <time>2022-02-24T17:14:05Z</time>
      </trkpt>
      <trkpt lat="46.27893" lon="5.45721">
        <ele>546.6</ele>
        <time>2022-02-24T17:14:06Z</time>
      </trkpt>
      <trkpt lat="46.27895" lon="5.45726">
        <ele>547</ele>
        <time>2022-02-24T17:14:07Z</time>
      </trkpt>
      <trkpt lat="46.27897" lon="5.45731">
        <ele>547</ele>
        <time>2022-02-24T17:14:08Z</time>
      </trkpt>
      <trkpt lat="46.279" lon="5.45736">
        <ele>547.2</ele>
        <time>2022-02-24T17:14:09Z</time>
      </trkpt>
      <trkpt lat="46.27902" lon="5.4574">
        <ele>547.2</ele>
        <time>2022-02-24T17:14:10Z</time>
      </trkpt>
      <trkpt lat="46.27905" lon="5.45744">
        <ele>547.4</ele>
        <time>2022-02-24T17:14:11Z</time>
      </trkpt>
      <trkpt lat="46.27908" lon="5.45748">
        <ele>547.4</ele>
        <time>2022-02-24T17:14:12Z</time>
      </trkpt>
      <trkpt lat="46.2791" lon="5.45752">
        <ele>547.6</ele>
        <time>2022-02-24T17:14:13Z</time>
      </trkpt>
      <trkpt lat="46.27912" lon="5.45757">
        <ele>547.6</ele>
        <time>2022-02-24T17:14:14Z</time>
      </trkpt>
      <trkpt lat="46.27915" lon="5.45761">
        <ele>548</ele>
        <time>2022-02-24T17:14:15Z</time>
      </trkpt>
      <trkpt lat="46.27917" lon="5.45765">
        <ele>548</ele>
        <time>2022-02-24T17:14:16Z</time>
      </trkpt>
      <trkpt lat="46.2792" lon="5.45769">
        <ele>548.4</ele>
        <time>2022-02-24T17:14:17Z</time>
      </trkpt>
      <trkpt lat="46.27922" lon="5.45774">
        <ele>548.4</ele>
        <time>2022-02-24T17:14:18Z</time>
      </trkpt>
      <trkpt lat="46.27924" lon="5.45778">
        <ele>548.8</ele>
        <time>2022-02-24T17:14:19Z</time>
      </trkpt>
      <trkpt lat="46.27926" lon="5.45782">
        <ele>549</ele>
        <time>2022-02-24T17:14:20Z</time>
      </trkpt>
      <trkpt lat="46.27928" lon="5.45786">
        <ele>549</ele>
        <time>2022-02-24T17:14:21Z</time>
      </trkpt>
      <trkpt lat="46.2793" lon="5.45791">
        <ele>549.4</ele>
        <time>2022-02-24T17:14:22Z</time>
      </trkpt>
      <trkpt lat="46.27932" lon="5.45795">
        <ele>549.8</ele>
        <time>2022-02-24T17:14:23Z</time>
      </trkpt>
      <trkpt lat="46.27933" lon="5.458">
        <ele>550</ele>
        <time>2022-02-24T17:14:24Z</time>
      </trkpt>
      <trkpt lat="46.27935" lon="5.45805">
        <ele>550</ele>
        <time>2022-02-24T17:14:25Z</time>
      </trkpt>
      <trkpt lat="46.27937" lon="5.4581">
        <ele>550.2</ele>
        <time>2022-02-24T17:14:26Z</time>
      </trkpt>
      <trkpt lat="46.27939" lon="5.45815">
        <ele>550.2</ele>
        <time>2022-02-24T17:14:27Z</time>
      </trkpt>
      <trkpt lat="46.27941" lon="5.45821">
        <ele>550.2</ele>
        <time>2022-02-24T17:14:28Z</time>
      </trkpt>
      <trkpt lat="46.27943" lon="5.45827">
        <ele>550.2</ele>
        <time>2022-02-24T17:14:29Z</time>
      </trkpt>
      <trkpt lat="46.27945" lon="5.45833">
        <ele>550.2</ele>
        <time>2022-02-24T17:14:30Z</time>
      </trkpt>
      <trkpt lat="46.27947" lon="5.45839">
        <ele>550.2</ele>
        <time>2022-02-24T17:14:31Z</time>
      </trkpt>
      <trkpt lat="46.27949" lon="5.45845">
        <ele>550.2</ele>
        <time>2022-02-24T17:14:32Z</time>
      </trkpt>
      <trkpt lat="46.27952" lon="5.45851">
        <ele>550.2</ele>
        <time>2022-02-24T17:14:33Z</time>
      </trkpt>
      <trkpt lat="46.27954" lon="5.45858">
        <ele>550.2</ele>
        <time>2022-02-24T17:14:34Z</time>
      </trkpt>
      <trkpt lat="46.27957" lon="5.45864">
        <ele>550.2</ele>
        <time>2022-02-24T17:14:35Z</time>
      </trkpt>
      <trkpt lat="46.27959" lon="5.4587">
        <ele>550.2</ele>
        <time>2022-02-24T17:14:36Z</time>
      </trkpt>
      <trkpt lat="46.27962" lon="5.45876">
        <ele>550.4</ele>
        <time>2022-02-24T17:14:37Z</time>
      </trkpt>
      <trkpt lat="46.27965" lon="5.45881">
        <ele>550.4</ele>
        <time>2022-02-24T17:14:38Z</time>
      </trkpt>
      <trkpt lat="46.27968" lon="5.45886">
        <ele>550.8</ele>
        <time>2022-02-24T17:14:39Z</time>
      </trkpt>
      <trkpt lat="46.27971" lon="5.4589">
        <ele>550.8</ele>
        <time>2022-02-24T17:14:40Z</time>
      </trkpt>
      <trkpt lat="46.27975" lon="5.45895">
        <ele>551</ele>
        <time>2022-02-24T17:14:41Z</time>
      </trkpt>
      <trkpt lat="46.27978" lon="5.45899">
        <ele>551</ele>
        <time>2022-02-24T17:14:42Z</time>
      </trkpt>
      <trkpt lat="46.27981" lon="5.45903">
        <ele>551.4</ele>
        <time>2022-02-24T17:14:43Z</time>
      </trkpt>
      <trkpt lat="46.27984" lon="5.45907">
        <ele>551.4</ele>
        <time>2022-02-24T17:14:44Z</time>
      </trkpt>
      <trkpt lat="46.27986" lon="5.45911">
        <ele>551.6</ele>
        <time>2022-02-24T17:14:45Z</time>
      </trkpt>
      <trkpt lat="46.27988" lon="5.45915">
        <ele>551.6</ele>
        <time>2022-02-24T17:14:46Z</time>
      </trkpt>
      <trkpt lat="46.2799" lon="5.45919">
        <ele>552</ele>
        <time>2022-02-24T17:14:47Z</time>
      </trkpt>
      <trkpt lat="46.27991" lon="5.45923">
        <ele>552.2</ele>
        <time>2022-02-24T17:14:48Z</time>
      </trkpt>
      <trkpt lat="46.27993" lon="5.45927">
        <ele>552.2</ele>
        <time>2022-02-24T17:14:49Z</time>
      </trkpt>
      <trkpt lat="46.27994" lon="5.45932">
        <ele>552.6</ele>
        <time>2022-02-24T17:14:50Z</time>
      </trkpt>
      <trkpt lat="46.27996" lon="5.45936">
        <ele>552.6</ele>
        <time>2022-02-24T17:14:51Z</time>
      </trkpt>
      <trkpt lat="46.27996" lon="5.4594">
        <ele>553</ele>
        <time>2022-02-24T17:14:52Z</time>
      </trkpt>
      <trkpt lat="46.27997" lon="5.45945">
        <ele>553.2</ele>
        <time>2022-02-24T17:14:53Z</time>
      </trkpt>
      <trkpt lat="46.27998" lon="5.45949">
        <ele>553.2</ele>
        <time>2022-02-24T17:14:54Z</time>
      </trkpt>
      <trkpt lat="46.27998" lon="5.45954">
        <ele>553.4</ele>
        <time>2022-02-24T17:14:55Z</time>
      </trkpt>
      <trkpt lat="46.27998" lon="5.45959">
        <ele>553.4</ele>
        <time>2022-02-24T17:14:56Z</time>
      </trkpt>
      <trkpt lat="46.27999" lon="5.45964">
        <ele>553.8</ele>
        <time>2022-02-24T17:14:57Z</time>
      </trkpt>
      <trkpt lat="46.27999" lon="5.4597">
        <ele>553.8</ele>
        <time>2022-02-24T17:14:58Z</time>
      </trkpt>
      <trkpt lat="46.27999" lon="5.45975">
        <ele>554.2</ele>
        <time>2022-02-24T17:14:59Z</time>
      </trkpt>
      <trkpt lat="46.27999" lon="5.4598">
        <ele>554.2</ele>
        <time>2022-02-24T17:15:00Z</time>
      </trkpt>
      <trkpt lat="46.28" lon="5.45985">
        <ele>554.6</ele>
        <time>2022-02-24T17:15:01Z</time>
      </trkpt>
      <trkpt lat="46.28" lon="5.4599">
        <ele>554.8</ele>
        <time>2022-02-24T17:15:02Z</time>
      </trkpt>
      <trkpt lat="46.28" lon="5.45995">
        <ele>554.8</ele>
        <time>2022-02-24T17:15:03Z</time>
      </trkpt>
      <trkpt lat="46.28" lon="5.46">
        <ele>555.2</ele>
        <time>2022-02-24T17:15:04Z</time>
      </trkpt>
      <trkpt lat="46.28" lon="5.46004">
        <ele>555.2</ele>
        <time>2022-02-24T17:15:05Z</time>
      </trkpt>
      <trkpt lat="46.28" lon="5.46009">
        <ele>555.6</ele>
        <time>2022-02-24T17:15:06Z</time>
      </trkpt>
      <trkpt lat="46.28" lon="5.46014">
        <ele>555.8</ele>
        <time>2022-02-24T17:15:07Z</time>
      </trkpt>
      <trkpt lat="46.28" lon="5.46018">
        <ele>555.8</ele>
        <time>2022-02-24T17:15:08Z</time>
      </trkpt>
      <trkpt lat="46.28001" lon="5.46023">
        <ele>556.2</ele>
        <time>2022-02-24T17:15:09Z</time>
      </trkpt>
      <trkpt lat="46.28001" lon="5.46027">
        <ele>556.2</ele>
        <time>2022-02-24T17:15:10Z</time>
      </trkpt>
      <trkpt lat="46.28002" lon="5.46031">
        <ele>556.4</ele>
        <time>2022-02-24T17:15:11Z</time>
      </trkpt>
      <trkpt lat="46.28003" lon="5.46036">
        <ele>556.4</ele>
        <time>2022-02-24T17:15:12Z</time>
      </trkpt>
      <trkpt lat="46.28004" lon="5.4604">
        <ele>556.8</ele>
        <time>2022-02-24T17:15:13Z</time>
      </trkpt>
      <trkpt lat="46.28005" lon="5.46045">
        <ele>556.8</ele>
        <time>2022-02-24T17:15:14Z</time>
      </trkpt>
      <trkpt lat="46.28006" lon="5.46049">
        <ele>557</ele>
        <time>2022-02-24T17:15:15Z</time>
      </trkpt>
      <trkpt lat="46.28007" lon="5.46053">
        <ele>557</ele>
        <time>2022-02-24T17:15:16Z</time>
      </trkpt>
      <trkpt lat="46.28008" lon="5.46057">
        <ele>557.4</ele>
        <time>2022-02-24T17:15:17Z</time>
      </trkpt>
      <trkpt lat="46.2801" lon="5.46062">
        <ele>557.4</ele>
        <time>2022-02-24T17:15:18Z</time>
      </trkpt>
      <trkpt lat="46.28011" lon="5.46066">
        <ele>557.6</ele>
        <time>2022-02-24T17:15:19Z</time>
      </trkpt>
      <trkpt lat="46.28013" lon="5.4607">
        <ele>557.6</ele>
        <time>2022-02-24T17:15:20Z</time>
      </trkpt>
      <trkpt lat="46.28014" lon="5.46074">
        <ele>558</ele>
        <time>2022-02-24T17:15:21Z</time>
      </trkpt>
      <trkpt lat="46.28016" lon="5.46078">
        <ele>558.2</ele>
        <time>2022-02-24T17:15:22Z</time>
      </trkpt>
      <trkpt lat="46.28018" lon="5.46081">
        <ele>558.2</ele>
        <time>2022-02-24T17:15:23Z</time>
      </trkpt>
      <trkpt lat="46.2802" lon="5.46085">
        <ele>558.8</ele>
        <time>2022-02-24T17:15:24Z</time>
      </trkpt>
      <trkpt lat="46.28022" lon="5.46089">
        <ele>558.8</ele>
        <time>2022-02-24T17:15:25Z</time>
      </trkpt>
      <trkpt lat="46.28023" lon="5.46092">
        <ele>559</ele>
        <time>2022-02-24T17:15:26Z</time>
      </trkpt>
      <trkpt lat="46.28025" lon="5.46096">
        <ele>559.2</ele>
        <time>2022-02-24T17:15:27Z</time>
      </trkpt>
      <trkpt lat="46.28027" lon="5.461">
        <ele>559.2</ele>
        <time>2022-02-24T17:15:28Z</time>
      </trkpt>
      <trkpt lat="46.28029" lon="5.46103">
        <ele>559.6</ele>
        <time>2022-02-24T17:15:29Z</time>
      </trkpt>
      <trkpt lat="46.28031" lon="5.46107">
        <ele>559.6</ele>
        <time>2022-02-24T17:15:30Z</time>
      </trkpt>
      <trkpt lat="46.28033" lon="5.46111">
        <ele>560</ele>
        <time>2022-02-24T17:15:31Z</time>
      </trkpt>
      <trkpt lat="46.28034" lon="5.46115">
        <ele>560</ele>
        <time>2022-02-24T17:15:32Z</time>
      </trkpt>
      <trkpt lat="46.28036" lon="5.4612">
        <ele>560.2</ele>
        <time>2022-02-24T17:15:33Z</time>
      </trkpt>
      <trkpt lat="46.28038" lon="5.46124">
        <ele>560.2</ele>
        <time>2022-02-24T17:15:34Z</time>
      </trkpt>
      <trkpt lat="46.28039" lon="5.46128">
        <ele>560.6</ele>
        <time>2022-02-24T17:15:35Z</time>
      </trkpt>
      <trkpt lat="46.28041" lon="5.46132">
        <ele>560.6</ele>
        <time>2022-02-24T17:15:36Z</time>
      </trkpt>
      <trkpt lat="46.28043" lon="5.46136">
        <ele>560.8</ele>
        <time>2022-02-24T17:15:37Z</time>
      </trkpt>
      <trkpt lat="46.28044" lon="5.46141">
        <ele>560.8</ele>
        <time>2022-02-24T17:15:38Z</time>
      </trkpt>
      <trkpt lat="46.28045" lon="5.46145">
        <ele>561.2</ele>
        <time>2022-02-24T17:15:39Z</time>
      </trkpt>
      <trkpt lat="46.28047" lon="5.46149">
        <ele>561.2</ele>
        <time>2022-02-24T17:15:40Z</time>
      </trkpt>
      <trkpt lat="46.28048" lon="5.46154">
        <ele>561.4</ele>
        <time>2022-02-24T17:15:41Z</time>
      </trkpt>
      <trkpt lat="46.2805" lon="5.46157">
        <ele>561.4</ele>
        <time>2022-02-24T17:15:42Z</time>
      </trkpt>
      <trkpt lat="46.28052" lon="5.46161">
        <ele>561.8</ele>
        <time>2022-02-24T17:15:43Z</time>
      </trkpt>
      <trkpt lat="46.28053" lon="5.46165">
        <ele>562</ele>
        <time>2022-02-24T17:15:44Z</time>
      </trkpt>
      <trkpt lat="46.28054" lon="5.46169">
        <ele>562.2</ele>
        <time>2022-02-24T17:15:45Z</time>
      </trkpt>
      <trkpt lat="46.28055" lon="5.46173">
        <ele>562.4</ele>
        <time>2022-02-24T17:15:46Z</time>
      </trkpt>
      <trkpt lat="46.28056" lon="5.46178">
        <ele>562.4</ele>
        <time>2022-02-24T17:15:47Z</time>
      </trkpt>
      <trkpt lat="46.28057" lon="5.46182">
        <ele>562.8</ele>
        <time>2022-02-24T17:15:48Z</time>
      </trkpt>
      <trkpt lat="46.28058" lon="5.46186">
        <ele>562.8</ele>
        <time>2022-02-24T17:15:49Z</time>
      </trkpt>
      <trkpt lat="46.28059" lon="5.4619">
        <ele>562.8</ele>
        <time>2022-02-24T17:15:50Z</time>
      </trkpt>
      <trkpt lat="46.2806" lon="5.46194">
        <ele>563</ele>
        <time>2022-02-24T17:15:51Z</time>
      </trkpt>
      <trkpt lat="46.28061" lon="5.46198">
        <ele>563</ele>
        <time>2022-02-24T17:15:52Z</time>
      </trkpt>
      <trkpt lat="46.28061" lon="5.46202">
        <ele>563.4</ele>
        <time>2022-02-24T17:15:53Z</time>
      </trkpt>
      <trkpt lat="46.28062" lon="5.46207">
        <ele>563.4</ele>
        <time>2022-02-24T17:15:54Z</time>
      </trkpt>
      <trkpt lat="46.28062" lon="5.46211">
        <ele>563.6</ele>
        <time>2022-02-24T17:15:55Z</time>
      </trkpt>
      <trkpt lat="46.28062" lon="5.46215">
        <ele>563.6</ele>
        <time>2022-02-24T17:15:56Z</time>
      </trkpt>
      <trkpt lat="46.28063" lon="5.46219">
        <ele>563.6</ele>
        <time>2022-02-24T17:15:57Z</time>
      </trkpt>
      <trkpt lat="46.28063" lon="5.46224">
        <ele>563.6</ele>
        <time>2022-02-24T17:15:58Z</time>
      </trkpt>
      <trkpt lat="46.28064" lon="5.46228">
        <ele>563.6</ele>
        <time>2022-02-24T17:15:59Z</time>
      </trkpt>
      <trkpt lat="46.28065" lon="5.46233">
        <ele>563.6</ele>
        <time>2022-02-24T17:16:00Z</time>
      </trkpt>
      <trkpt lat="46.28067" lon="5.46238">
        <ele>563.4</ele>
        <time>2022-02-24T17:16:01Z</time>
      </trkpt>
      <trkpt lat="46.28069" lon="5.46242">
        <ele>563.2</ele>
        <time>2022-02-24T17:16:02Z</time>
      </trkpt>
      <trkpt lat="46.28073" lon="5.46247">
        <ele>562.8</ele>
        <time>2022-02-24T17:16:03Z</time>
      </trkpt>
      <trkpt lat="46.28078" lon="5.46253">
        <ele>562.6</ele>
        <time>2022-02-24T17:16:04Z</time>
      </trkpt>
      <trkpt lat="46.28082" lon="5.46259">
        <ele>562.2</ele>
        <time>2022-02-24T17:16:05Z</time>
      </trkpt>
      <trkpt lat="46.28087" lon="5.46265">
        <ele>561.8</ele>
        <time>2022-02-24T17:16:06Z</time>
      </trkpt>
      <trkpt lat="46.28092" lon="5.46272">
        <ele>561.4</ele>
        <time>2022-02-24T17:16:07Z</time>
      </trkpt>
      <trkpt lat="46.28097" lon="5.4628">
        <ele>560.8</ele>
        <time>2022-02-24T17:16:08Z</time>
      </trkpt>
      <trkpt lat="46.28102" lon="5.46288">
        <ele>560.2</ele>
        <time>2022-02-24T17:16:09Z</time>
      </trkpt>
      <trkpt lat="46.28108" lon="5.46296">
        <ele>559.6</ele>
        <time>2022-02-24T17:16:10Z</time>
      </trkpt>
      <trkpt lat="46.28115" lon="5.46304">
        <ele>559.2</ele>
        <time>2022-02-24T17:16:11Z</time>
      </trkpt>
      <trkpt lat="46.28122" lon="5.46313">
        <ele>558.6</ele>
        <time>2022-02-24T17:16:12Z</time>
      </trkpt>
      <trkpt lat="46.28129" lon="5.46321">
        <ele>558.2</ele>
        <time>2022-02-24T17:16:13Z</time>
      </trkpt>
      <trkpt lat="46.28138" lon="5.46327">
        <ele>557.6</ele>
        <time>2022-02-24T17:16:14Z</time>
      </trkpt>
      <trkpt lat="46.28147" lon="5.46333">
        <ele>556.8</ele>
        <time>2022-02-24T17:16:15Z</time>
      </trkpt>
      <trkpt lat="46.28156" lon="5.46339">
        <ele>556</ele>
        <time>2022-02-24T17:16:16Z</time>
      </trkpt>
      <trkpt lat="46.28166" lon="5.46343">
        <ele>555.4</ele>
        <time>2022-02-24T17:16:17Z</time>
      </trkpt>
      <trkpt lat="46.28176" lon="5.46349">
        <ele>554.8</ele>
        <time>2022-02-24T17:16:18Z</time>
      </trkpt>
      <trkpt lat="46.28186" lon="5.46353">
        <ele>554</ele>
        <time>2022-02-24T17:16:19Z</time>
      </trkpt>
      <trkpt lat="46.28196" lon="5.46358">
        <ele>553.4</ele>
        <time>2022-02-24T17:16:20Z</time>
      </trkpt>
      <trkpt lat="46.28207" lon="5.46363">
        <ele>552.6</ele>
        <time>2022-02-24T17:16:21Z</time>
      </trkpt>
      <trkpt lat="46.28218" lon="5.46369">
        <ele>551.8</ele>
        <time>2022-02-24T17:16:22Z</time>
      </trkpt>
      <trkpt lat="46.28229" lon="5.46377">
        <ele>551</ele>
        <time>2022-02-24T17:16:23Z</time>
      </trkpt>
      <trkpt lat="46.28239" lon="5.46387">
        <ele>550.4</ele>
        <time>2022-02-24T17:16:24Z</time>
      </trkpt>
      <trkpt lat="46.28248" lon="5.46398">
        <ele>549.8</ele>
        <time>2022-02-24T17:16:25Z</time>
      </trkpt>
      <trkpt lat="46.28256" lon="5.46408">
        <ele>549.6</ele>
        <time>2022-02-24T17:16:26Z</time>
      </trkpt>
      <trkpt lat="46.28264" lon="5.46417">
        <ele>549.2</ele>
        <time>2022-02-24T17:16:27Z</time>
      </trkpt>
      <trkpt lat="46.28272" lon="5.46426">
        <ele>548.8</ele>
        <time>2022-02-24T17:16:28Z</time>
      </trkpt>
      <trkpt lat="46.28281" lon="5.46434">
        <ele>548.2</ele>
        <time>2022-02-24T17:16:29Z</time>
      </trkpt>
      <trkpt lat="46.28291" lon="5.46442">
        <ele>547.6</ele>
        <time>2022-02-24T17:16:30Z</time>
      </trkpt>
      <trkpt lat="46.28301" lon="5.46451">
        <ele>546.8</ele>
        <time>2022-02-24T17:16:31Z</time>
      </trkpt>
      <trkpt lat="46.2831" lon="5.46459">
        <ele>546.2</ele>
        <time>2022-02-24T17:16:32Z</time>
      </trkpt>
      <trkpt lat="46.28319" lon="5.46469">
        <ele>545.8</ele>
        <time>2022-02-24T17:16:33Z</time>
      </trkpt>
      <trkpt lat="46.28327" lon="5.46479">
        <ele>545.2</ele>
        <time>2022-02-24T17:16:34Z</time>
      </trkpt>
      <trkpt lat="46.28334" lon="5.46489">
        <ele>544.6</ele>
        <time>2022-02-24T17:16:35Z</time>
      </trkpt>
      <trkpt lat="46.28343" lon="5.465">
        <ele>544.2</ele>
        <time>2022-02-24T17:16:36Z</time>
      </trkpt>
      <trkpt lat="46.28352" lon="5.46509">
        <ele>543.8</ele>
        <time>2022-02-24T17:16:37Z</time>
      </trkpt>
      <trkpt lat="46.28361" lon="5.46517">
        <ele>543.2</ele>
        <time>2022-02-24T17:16:38Z</time>
      </trkpt>
      <trkpt lat="46.2837" lon="5.46526">
        <ele>542.8</ele>
        <time>2022-02-24T17:16:39Z</time>
      </trkpt>
      <trkpt lat="46.28379" lon="5.46534">
        <ele>542.2</ele>
        <time>2022-02-24T17:16:40Z</time>
      </trkpt>
      <trkpt lat="46.28389" lon="5.46543">
        <ele>541.8</ele>
        <time>2022-02-24T17:16:41Z</time>
      </trkpt>
      <trkpt lat="46.28398" lon="5.46553">
        <ele>541.2</ele>
        <time>2022-02-24T17:16:42Z</time>
      </trkpt>
      <trkpt lat="46.28407" lon="5.46563">
        <ele>540.8</ele>
        <time>2022-02-24T17:16:43Z</time>
      </trkpt>
      <trkpt lat="46.28416" lon="5.46571">
        <ele>540.2</ele>
        <time>2022-02-24T17:16:44Z</time>
      </trkpt>
      <trkpt lat="46.28425" lon="5.46581">
        <ele>539.8</ele>
        <time>2022-02-24T17:16:45Z</time>
      </trkpt>
      <trkpt lat="46.28434" lon="5.4659">
        <ele>539.2</ele>
        <time>2022-02-24T17:16:46Z</time>
      </trkpt>
      <trkpt lat="46.28444" lon="5.46599">
        <ele>538.8</ele>
        <time>2022-02-24T17:16:47Z</time>
      </trkpt>
      <trkpt lat="46.28453" lon="5.4661">
        <ele>538</ele>
        <time>2022-02-24T17:16:48Z</time>
      </trkpt>
      <trkpt lat="46.28462" lon="5.4662">
        <ele>537.4</ele>
        <time>2022-02-24T17:16:49Z</time>
      </trkpt>
      <trkpt lat="46.28471" lon="5.46631">
        <ele>536.8</ele>
        <time>2022-02-24T17:16:50Z</time>
      </trkpt>
      <trkpt lat="46.28481" lon="5.46642">
        <ele>536.2</ele>
        <time>2022-02-24T17:16:51Z</time>
      </trkpt>
      <trkpt lat="46.2849" lon="5.46653">
        <ele>535.6</ele>
        <time>2022-02-24T17:16:52Z</time>
      </trkpt>
      <trkpt lat="46.28498" lon="5.46664">
        <ele>535</ele>
        <time>2022-02-24T17:16:53Z</time>
      </trkpt>
      <trkpt lat="46.28506" lon="5.46675">
        <ele>534.6</ele>
        <time>2022-02-24T17:16:54Z</time>
      </trkpt>
      <trkpt lat="46.28514" lon="5.46686">
        <ele>534</ele>
        <time>2022-02-24T17:16:55Z</time>
      </trkpt>
      <trkpt lat="46.28523" lon="5.46698">
        <ele>533.2</ele>
        <time>2022-02-24T17:16:56Z</time>
      </trkpt>
      <trkpt lat="46.28532" lon="5.46708">
        <ele>532.6</ele>
        <time>2022-02-24T17:16:57Z</time>
      </trkpt>
      <trkpt lat="46.28541" lon="5.46717">
        <ele>532</ele>
        <time>2022-02-24T17:16:58Z</time>
      </trkpt>
      <trkpt lat="46.2855" lon="5.46726">
        <ele>531.4</ele>
        <time>2022-02-24T17:16:59Z</time>
      </trkpt>
      <trkpt lat="46.2856" lon="5.46735">
        <ele>530.8</ele>
        <time>2022-02-24T17:17:00Z</time>
      </trkpt>
      <trkpt lat="46.28571" lon="5.46743">
        <ele>530</ele>
        <time>2022-02-24T17:17:01Z</time>
      </trkpt>
      <trkpt lat="46.28583" lon="5.46753">
        <ele>529.2</ele>
        <time>2022-02-24T17:17:02Z</time>
      </trkpt>
      <trkpt lat="46.28594" lon="5.46761">
        <ele>528.6</ele>
        <time>2022-02-24T17:17:03Z</time>
      </trkpt>
      <trkpt lat="46.28606" lon="5.46768">
        <ele>528.2</ele>
        <time>2022-02-24T17:17:04Z</time>
      </trkpt>
      <trkpt lat="46.28617" lon="5.46775">
        <ele>527.6</ele>
        <time>2022-02-24T17:17:05Z</time>
      </trkpt>
      <trkpt lat="46.28628" lon="5.46782">
        <ele>527</ele>
        <time>2022-02-24T17:17:06Z</time>
      </trkpt>
      <trkpt lat="46.28639" lon="5.46789">
        <ele>526.4</ele>
        <time>2022-02-24T17:17:07Z</time>
      </trkpt>
      <trkpt lat="46.28651" lon="5.46797">
        <ele>525.6</ele>
        <time>2022-02-24T17:17:08Z</time>
      </trkpt>
      <trkpt lat="46.28662" lon="5.46805">
        <ele>524.8</ele>
        <time>2022-02-24T17:17:09Z</time>
      </trkpt>
      <trkpt lat="46.28674" lon="5.46811">
        <ele>524</ele>
        <time>2022-02-24T17:17:10Z</time>
      </trkpt>
      <trkpt lat="46.28686" lon="5.46818">
        <ele>523.2</ele>
        <time>2022-02-24T17:17:11Z</time>
      </trkpt>
      <trkpt lat="46.28698" lon="5.46825">
        <ele>522.4</ele>
        <time>2022-02-24T17:17:12Z</time>
      </trkpt>
      <trkpt lat="46.2871" lon="5.46831">
        <ele>521.6</ele>
        <time>2022-02-24T17:17:13Z</time>
      </trkpt>
      <trkpt lat="46.28722" lon="5.46838">
        <ele>520.8</ele>
        <time>2022-02-24T17:17:14Z</time>
      </trkpt>
      <trkpt lat="46.28733" lon="5.46843">
        <ele>520</ele>
        <time>2022-02-24T17:17:15Z</time>
      </trkpt>
      <trkpt lat="46.28745" lon="5.4685">
        <ele>519.4</ele>
        <time>2022-02-24T17:17:16Z</time>
      </trkpt>
      <trkpt lat="46.28757" lon="5.46856">
        <ele>518.8</ele>
        <time>2022-02-24T17:17:17Z</time>
      </trkpt>
      <trkpt lat="46.28769" lon="5.46862">
        <ele>518.2</ele>
        <time>2022-02-24T17:17:18Z</time>
      </trkpt>
      <trkpt lat="46.2878" lon="5.46869">
        <ele>517.8</ele>
        <time>2022-02-24T17:17:19Z</time>
      </trkpt>
      <trkpt lat="46.28792" lon="5.46875">
        <ele>517.2</ele>
        <time>2022-02-24T17:17:20Z</time>
      </trkpt>
      <trkpt lat="46.28804" lon="5.46882">
        <ele>516.6</ele>
        <time>2022-02-24T17:17:21Z</time>
      </trkpt>
      <trkpt lat="46.28815" lon="5.4689">
        <ele>516</ele>
        <time>2022-02-24T17:17:22Z</time>
      </trkpt>
      <trkpt lat="46.28826" lon="5.46897">
        <ele>515.2</ele>
        <time>2022-02-24T17:17:23Z</time>
      </trkpt>
      <trkpt lat="46.28839" lon="5.46904">
        <ele>514.4</ele>
        <time>2022-02-24T17:17:24Z</time>
      </trkpt>
      <trkpt lat="46.28851" lon="5.46909">
        <ele>513.6</ele>
        <time>2022-02-24T17:17:25Z</time>
      </trkpt>
      <trkpt lat="46.28863" lon="5.46914">
        <ele>513</ele>
        <time>2022-02-24T17:17:26Z</time>
      </trkpt>
      <trkpt lat="46.28875" lon="5.4692">
        <ele>512.4</ele>
        <time>2022-02-24T17:17:27Z</time>
      </trkpt>
      <trkpt lat="46.28887" lon="5.46925">
        <ele>511.6</ele>
        <time>2022-02-24T17:17:28Z</time>
      </trkpt>
      <trkpt lat="46.28898" lon="5.46931">
        <ele>511.2</ele>
        <time>2022-02-24T17:17:29Z</time>
      </trkpt>
      <trkpt lat="46.28908" lon="5.46936">
        <ele>510.6</ele>
        <time>2022-02-24T17:17:30Z</time>
      </trkpt>
      <trkpt lat="46.2892" lon="5.46941">
        <ele>509.8</ele>
        <time>2022-02-24T17:17:31Z</time>
      </trkpt>
      <trkpt lat="46.2893" lon="5.46946">
        <ele>509.2</ele>
        <time>2022-02-24T17:17:32Z</time>
      </trkpt>
      <trkpt lat="46.28941" lon="5.46949">
        <ele>508.2</ele>
        <time>2022-02-24T17:17:33Z</time>
      </trkpt>
      <trkpt lat="46.28953" lon="5.46953">
        <ele>507.2</ele>
        <time>2022-02-24T17:17:34Z</time>
      </trkpt>
      <trkpt lat="46.28966" lon="5.46957">
        <ele>506.4</ele>
        <time>2022-02-24T17:17:35Z</time>
      </trkpt>
      <trkpt lat="46.28979" lon="5.46958">
        <ele>505.4</ele>
        <time>2022-02-24T17:17:36Z</time>
      </trkpt>
      <trkpt lat="46.28992" lon="5.46961">
        <ele>504.6</ele>
        <time>2022-02-24T17:17:37Z</time>
      </trkpt>
      <trkpt lat="46.29005" lon="5.46966">
        <ele>503.6</ele>
        <time>2022-02-24T17:17:38Z</time>
      </trkpt>
      <trkpt lat="46.29017" lon="5.4697">
        <ele>502.8</ele>
        <time>2022-02-24T17:17:39Z</time>
      </trkpt>
      <trkpt lat="46.2903" lon="5.46974">
        <ele>502</ele>
        <time>2022-02-24T17:17:40Z</time>
      </trkpt>
      <trkpt lat="46.29043" lon="5.46979">
        <ele>501.2</ele>
        <time>2022-02-24T17:17:41Z</time>
      </trkpt>
      <trkpt lat="46.29056" lon="5.46984">
        <ele>500.4</ele>
        <time>2022-02-24T17:17:42Z</time>
      </trkpt>
      <trkpt lat="46.29067" lon="5.4699">
        <ele>499.6</ele>
        <time>2022-02-24T17:17:43Z</time>
      </trkpt>
      <trkpt lat="46.29079" lon="5.46996">
        <ele>498.8</ele>
        <time>2022-02-24T17:17:44Z</time>
      </trkpt>
      <trkpt lat="46.29091" lon="5.47002">
        <ele>498</ele>
        <time>2022-02-24T17:17:45Z</time>
      </trkpt>
      <trkpt lat="46.29101" lon="5.47008">
        <ele>497.2</ele>
        <time>2022-02-24T17:17:46Z</time>
      </trkpt>
      <trkpt lat="46.29112" lon="5.47016">
        <ele>496.4</ele>
        <time>2022-02-24T17:17:47Z</time>
      </trkpt>
      <trkpt lat="46.29122" lon="5.47025">
        <ele>495.6</ele>
        <time>2022-02-24T17:17:48Z</time>
      </trkpt>
      <trkpt lat="46.29131" lon="5.47032">
        <ele>495</ele>
        <time>2022-02-24T17:17:49Z</time>
      </trkpt>
      <trkpt lat="46.2914" lon="5.47038">
        <ele>494.4</ele>
        <time>2022-02-24T17:17:50Z</time>
      </trkpt>
      <trkpt lat="46.29148" lon="5.47043">
        <ele>494</ele>
        <time>2022-02-24T17:17:51Z</time>
      </trkpt>
      <trkpt lat="46.29155" lon="5.47047">
        <ele>493.6</ele>
        <time>2022-02-24T17:17:52Z</time>
      </trkpt>
      <trkpt lat="46.29161" lon="5.4705">
        <ele>493</ele>
        <time>2022-02-24T17:17:53Z</time>
      </trkpt>
      <trkpt lat="46.29166" lon="5.47053">
        <ele>492.2</ele>
        <time>2022-02-24T17:17:55Z</time>
      </trkpt>
      <trkpt lat="46.29169" lon="5.47058">
        <ele>491.8</ele>
        <time>2022-02-24T17:17:56Z</time>
      </trkpt>
      <trkpt lat="46.29171" lon="5.47064">
        <ele>491</ele>
        <time>2022-02-24T17:17:57Z</time>
      </trkpt>
      <trkpt lat="46.29171" lon="5.47073">
        <ele>490.6</ele>
        <time>2022-02-24T17:17:58Z</time>
      </trkpt>
      <trkpt lat="46.29168" lon="5.47081">
        <ele>490</ele>
        <time>2022-02-24T17:17:59Z</time>
      </trkpt>
      <trkpt lat="46.29162" lon="5.47087">
        <ele>489.4</ele>
        <time>2022-02-24T17:18:00Z</time>
      </trkpt>
      <trkpt lat="46.29155" lon="5.4709">
        <ele>489</ele>
        <time>2022-02-24T17:18:01Z</time>
      </trkpt>
      <trkpt lat="46.29147" lon="5.4709">
        <ele>488.6</ele>
        <time>2022-02-24T17:18:02Z</time>
      </trkpt>
      <trkpt lat="46.2914" lon="5.47089">
        <ele>488</ele>
        <time>2022-02-24T17:18:03Z</time>
      </trkpt>
      <trkpt lat="46.29132" lon="5.47087">
        <ele>487.6</ele>
        <time>2022-02-24T17:18:04Z</time>
      </trkpt>
      <trkpt lat="46.29124" lon="5.47085">
        <ele>487.2</ele>
        <time>2022-02-24T17:18:05Z</time>
      </trkpt>
      <trkpt lat="46.29116" lon="5.47084">
        <ele>486.6</ele>
        <time>2022-02-24T17:18:06Z</time>
      </trkpt>
      <trkpt lat="46.29107" lon="5.47083">
        <ele>486.2</ele>
        <time>2022-02-24T17:18:07Z</time>
      </trkpt>
      <trkpt lat="46.29098" lon="5.47085">
        <ele>485.8</ele>
        <time>2022-02-24T17:18:08Z</time>
      </trkpt>
      <trkpt lat="46.2909" lon="5.47088">
        <ele>485.2</ele>
        <time>2022-02-24T17:18:09Z</time>
      </trkpt>
      <trkpt lat="46.29083" lon="5.47094">
        <ele>484.6</ele>
        <time>2022-02-24T17:18:10Z</time>
      </trkpt>
      <trkpt lat="46.29078" lon="5.47102">
        <ele>484</ele>
        <time>2022-02-24T17:18:11Z</time>
      </trkpt>
      <trkpt lat="46.29074" lon="5.47113">
        <ele>483.4</ele>
        <time>2022-02-24T17:18:12Z</time>
      </trkpt>
      <trkpt lat="46.29072" lon="5.47126">
        <ele>482.8</ele>
        <time>2022-02-24T17:18:13Z</time>
      </trkpt>
      <trkpt lat="46.29071" lon="5.47139">
        <ele>482.2</ele>
        <time>2022-02-24T17:18:14Z</time>
      </trkpt>
      <trkpt lat="46.29071" lon="5.47154">
        <ele>481.6</ele>
        <time>2022-02-24T17:18:15Z</time>
      </trkpt>
      <trkpt lat="46.2907" lon="5.47169">
        <ele>481</ele>
        <time>2022-02-24T17:18:16Z</time>
      </trkpt>
      <trkpt lat="46.2907" lon="5.47184">
        <ele>480.4</ele>
        <time>2022-02-24T17:18:17Z</time>
      </trkpt>
      <trkpt lat="46.29069" lon="5.47199">
        <ele>479.8</ele>
        <time>2022-02-24T17:18:18Z</time>
      </trkpt>
      <trkpt lat="46.29068" lon="5.47215">
        <ele>479.2</ele>
        <time>2022-02-24T17:18:19Z</time>
      </trkpt>
      <trkpt lat="46.29067" lon="5.47229">
        <ele>478.8</ele>
        <time>2022-02-24T17:18:20Z</time>
      </trkpt>
      <trkpt lat="46.29066" lon="5.47243">
        <ele>478.4</ele>
        <time>2022-02-24T17:18:21Z</time>
      </trkpt>
      <trkpt lat="46.29065" lon="5.47258">
        <ele>478</ele>
        <time>2022-02-24T17:18:22Z</time>
      </trkpt>
      <trkpt lat="46.29065" lon="5.47272">
        <ele>477.6</ele>
        <time>2022-02-24T17:18:23Z</time>
      </trkpt>
      <trkpt lat="46.29065" lon="5.47286">
        <ele>477.2</ele>
        <time>2022-02-24T17:18:24Z</time>
      </trkpt>
      <trkpt lat="46.29064" lon="5.473">
        <ele>477</ele>
        <time>2022-02-24T17:18:25Z</time>
      </trkpt>
      <trkpt lat="46.29064" lon="5.47314">
        <ele>477</ele>
        <time>2022-02-24T17:18:26Z</time>
      </trkpt>
      <trkpt lat="46.29063" lon="5.47327">
        <ele>477</ele>
        <time>2022-02-24T17:18:27Z</time>
      </trkpt>
      <trkpt lat="46.29062" lon="5.47339">
        <ele>476.8</ele>
        <time>2022-02-24T17:18:28Z</time>
      </trkpt>
      <trkpt lat="46.2906" lon="5.47352">
        <ele>476.8</ele>
        <time>2022-02-24T17:18:29Z</time>
      </trkpt>
      <trkpt lat="46.29057" lon="5.47363">
        <ele>476.4</ele>
        <time>2022-02-24T17:18:30Z</time>
      </trkpt>
      <trkpt lat="46.29054" lon="5.47374">
        <ele>476.4</ele>
        <time>2022-02-24T17:18:31Z</time>
      </trkpt>
      <trkpt lat="46.2905" lon="5.47384">
        <ele>476.2</ele>
        <time>2022-02-24T17:18:32Z</time>
      </trkpt>
      <trkpt lat="46.29045" lon="5.47393">
        <ele>476.2</ele>
        <time>2022-02-24T17:18:33Z</time>
      </trkpt>
      <trkpt lat="46.29039" lon="5.47401">
        <ele>476.2</ele>
        <time>2022-02-24T17:18:34Z</time>
      </trkpt>
      <trkpt lat="46.29034" lon="5.47409">
        <ele>476.2</ele>
        <time>2022-02-24T17:18:35Z</time>
      </trkpt>
      <trkpt lat="46.29028" lon="5.47416">
        <ele>476.2</ele>
        <time>2022-02-24T17:18:36Z</time>
      </trkpt>
      <trkpt lat="46.29022" lon="5.47423">
        <ele>476.2</ele>
        <time>2022-02-24T17:18:37Z</time>
      </trkpt>
      <trkpt lat="46.29017" lon="5.47428">
        <ele>476.2</ele>
        <time>2022-02-24T17:18:38Z</time>
      </trkpt>
      <trkpt lat="46.29011" lon="5.47433">
        <ele>476.2</ele>
        <time>2022-02-24T17:18:39Z</time>
      </trkpt>
      <trkpt lat="46.29005" lon="5.47436">
        <ele>476.4</ele>
        <time>2022-02-24T17:18:40Z</time>
      </trkpt>
      <trkpt lat="46.29" lon="5.47441">
        <ele>476.4</ele>
        <time>2022-02-24T17:18:41Z</time>
      </trkpt>
      <trkpt lat="46.28995" lon="5.47445">
        <ele>476.8</ele>
        <time>2022-02-24T17:18:42Z</time>
      </trkpt>
      <trkpt lat="46.2899" lon="5.47448">
        <ele>476.8</ele>
        <time>2022-02-24T17:18:43Z</time>
      </trkpt>
      <trkpt lat="46.28985" lon="5.47452">
        <ele>477</ele>
        <time>2022-02-24T17:18:44Z</time>
      </trkpt>
      <trkpt lat="46.2898" lon="5.47455">
        <ele>477</ele>
        <time>2022-02-24T17:18:45Z</time>
      </trkpt>
      <trkpt lat="46.28976" lon="5.47458">
        <ele>477.4</ele>
        <time>2022-02-24T17:18:46Z</time>
      </trkpt>
      <trkpt lat="46.28971" lon="5.47462">
        <ele>477.4</ele>
        <time>2022-02-24T17:18:47Z</time>
      </trkpt>
      <trkpt lat="46.28967" lon="5.47466">
        <ele>477.4</ele>
        <time>2022-02-24T17:18:48Z</time>
      </trkpt>
      <trkpt lat="46.28963" lon="5.4747">
        <ele>477.4</ele>
        <time>2022-02-24T17:18:49Z</time>
      </trkpt>
      <trkpt lat="46.28959" lon="5.47474">
        <ele>477.6</ele>
        <time>2022-02-24T17:18:50Z</time>
      </trkpt>
      <trkpt lat="46.28954" lon="5.47477">
        <ele>477.6</ele>
        <time>2022-02-24T17:18:51Z</time>
      </trkpt>
      <trkpt lat="46.2895" lon="5.47481">
        <ele>477.6</ele>
        <time>2022-02-24T17:18:52Z</time>
      </trkpt>
      <trkpt lat="46.28946" lon="5.47484">
        <ele>477.6</ele>
        <time>2022-02-24T17:18:53Z</time>
      </trkpt>
      <trkpt lat="46.28941" lon="5.47488">
        <ele>477.6</ele>
        <time>2022-02-24T17:18:54Z</time>
      </trkpt>
      <trkpt lat="46.28937" lon="5.47493">
        <ele>477.8</ele>
        <time>2022-02-24T17:18:55Z</time>
      </trkpt>
      <trkpt lat="46.28932" lon="5.47497">
        <ele>477.8</ele>
        <time>2022-02-24T17:18:56Z</time>
      </trkpt>
      <trkpt lat="46.28928" lon="5.475">
        <ele>477.8</ele>
        <time>2022-02-24T17:18:57Z</time>
      </trkpt>
      <trkpt lat="46.28923" lon="5.47504">
        <ele>477.8</ele>
        <time>2022-02-24T17:18:58Z</time>
      </trkpt>
      <trkpt lat="46.28918" lon="5.47508">
        <ele>477.8</ele>
        <time>2022-02-24T17:18:59Z</time>
      </trkpt>
      <trkpt lat="46.28914" lon="5.47513">
        <ele>477.8</ele>
        <time>2022-02-24T17:19:00Z</time>
      </trkpt>
      <trkpt lat="46.28909" lon="5.47517">
        <ele>477.8</ele>
        <time>2022-02-24T17:19:01Z</time>
      </trkpt>
      <trkpt lat="46.28904" lon="5.47522">
        <ele>477.8</ele>
        <time>2022-02-24T17:19:02Z</time>
      </trkpt>
      <trkpt lat="46.28899" lon="5.47526">
        <ele>477.6</ele>
        <time>2022-02-24T17:19:03Z</time>
      </trkpt>
      <trkpt lat="46.28895" lon="5.47531">
        <ele>477.6</ele>
        <time>2022-02-24T17:19:04Z</time>
      </trkpt>
      <trkpt lat="46.28891" lon="5.47537">
        <ele>477.6</ele>
        <time>2022-02-24T17:19:05Z</time>
      </trkpt>
      <trkpt lat="46.28887" lon="5.47542">
        <ele>477.6</ele>
        <time>2022-02-24T17:19:06Z</time>
      </trkpt>
      <trkpt lat="46.28884" lon="5.47549">
        <ele>477.6</ele>
        <time>2022-02-24T17:19:07Z</time>
      </trkpt>
      <trkpt lat="46.28881" lon="5.47556">
        <ele>477.6</ele>
        <time>2022-02-24T17:19:08Z</time>
      </trkpt>
      <trkpt lat="46.2888" lon="5.47563">
        <ele>478</ele>
        <time>2022-02-24T17:19:09Z</time>
      </trkpt>
      <trkpt lat="46.28879" lon="5.4757">
        <ele>478.2</ele>
        <time>2022-02-24T17:19:10Z</time>
      </trkpt>
      <trkpt lat="46.28878" lon="5.47577">
        <ele>478.4</ele>
        <time>2022-02-24T17:19:11Z</time>
      </trkpt>
      <trkpt lat="46.28878" lon="5.47583">
        <ele>478.6</ele>
        <time>2022-02-24T17:19:12Z</time>
      </trkpt>
      <trkpt lat="46.28878" lon="5.47589">
        <ele>478.6</ele>
        <time>2022-02-24T17:19:13Z</time>
      </trkpt>
      <trkpt lat="46.28878" lon="5.47594">
        <ele>479</ele>
        <time>2022-02-24T17:19:14Z</time>
      </trkpt>
      <trkpt lat="46.28878" lon="5.47599">
        <ele>479</ele>
        <time>2022-02-24T17:19:15Z</time>
      </trkpt>
      <trkpt lat="46.28878" lon="5.47605">
        <ele>479.2</ele>
        <time>2022-02-24T17:19:16Z</time>
      </trkpt>
      <trkpt lat="46.28879" lon="5.4761">
        <ele>479.2</ele>
        <time>2022-02-24T17:19:17Z</time>
      </trkpt>
      <trkpt lat="46.28879" lon="5.47616">
        <ele>479.4</ele>
        <time>2022-02-24T17:19:18Z</time>
      </trkpt>
      <trkpt lat="46.2888" lon="5.47622">
        <ele>479.4</ele>
        <time>2022-02-24T17:19:19Z</time>
      </trkpt>
      <trkpt lat="46.2888" lon="5.47629">
        <ele>479.4</ele>
        <time>2022-02-24T17:19:20Z</time>
      </trkpt>
      <trkpt lat="46.28881" lon="5.47636">
        <ele>479.4</ele>
        <time>2022-02-24T17:19:21Z</time>
      </trkpt>
      <trkpt lat="46.28881" lon="5.47643">
        <ele>479.8</ele>
        <time>2022-02-24T17:19:22Z</time>
      </trkpt>
      <trkpt lat="46.28881" lon="5.47649">
        <ele>479.8</ele>
        <time>2022-02-24T17:19:23Z</time>
      </trkpt>
      <trkpt lat="46.28882" lon="5.47656">
        <ele>479.8</ele>
        <time>2022-02-24T17:19:24Z</time>
      </trkpt>
      <trkpt lat="46.28882" lon="5.47663">
        <ele>479.8</ele>
        <time>2022-02-24T17:19:25Z</time>
      </trkpt>
      <trkpt lat="46.28883" lon="5.4767">
        <ele>479.8</ele>
        <time>2022-02-24T17:19:26Z</time>
      </trkpt>
      <trkpt lat="46.28883" lon="5.47677">
        <ele>479.8</ele>
        <time>2022-02-24T17:19:27Z</time>
      </trkpt>
      <trkpt lat="46.28883" lon="5.47684">
        <ele>480</ele>
        <time>2022-02-24T17:19:28Z</time>
      </trkpt>
      <trkpt lat="46.28884" lon="5.47691">
        <ele>480</ele>
        <time>2022-02-24T17:19:29Z</time>
      </trkpt>
      <trkpt lat="46.28884" lon="5.47697">
        <ele>480.2</ele>
        <time>2022-02-24T17:19:30Z</time>
      </trkpt>
      <trkpt lat="46.28884" lon="5.47704">
        <ele>480.2</ele>
        <time>2022-02-24T17:19:31Z</time>
      </trkpt>
      <trkpt lat="46.28884" lon="5.4771">
        <ele>480.4</ele>
        <time>2022-02-24T17:19:32Z</time>
      </trkpt>
      <trkpt lat="46.28884" lon="5.47717">
        <ele>480.4</ele>
        <time>2022-02-24T17:19:33Z</time>
      </trkpt>
      <trkpt lat="46.28884" lon="5.47723">
        <ele>480.8</ele>
        <time>2022-02-24T17:19:34Z</time>
      </trkpt>
      <trkpt lat="46.28884" lon="5.4773">
        <ele>481.2</ele>
        <time>2022-02-24T17:19:35Z</time>
      </trkpt>
      <trkpt lat="46.28884" lon="5.47736">
        <ele>481.4</ele>
        <time>2022-02-24T17:19:36Z</time>
      </trkpt>
      <trkpt lat="46.28884" lon="5.47743">
        <ele>481.6</ele>
        <time>2022-02-24T17:19:37Z</time>
      </trkpt>
      <trkpt lat="46.28885" lon="5.47748">
        <ele>482</ele>
        <time>2022-02-24T17:19:38Z</time>
      </trkpt>
      <trkpt lat="46.28886" lon="5.47754">
        <ele>482.2</ele>
        <time>2022-02-24T17:19:39Z</time>
      </trkpt>
      <trkpt lat="46.28887" lon="5.47759">
        <ele>482.6</ele>
        <time>2022-02-24T17:19:40Z</time>
      </trkpt>
      <trkpt lat="46.28889" lon="5.47768">
        <ele>482.8</ele>
        <time>2022-02-24T17:19:41Z</time>
      </trkpt>
      <trkpt lat="46.2889" lon="5.47772">
        <ele>483</ele>
        <time>2022-02-24T17:19:42Z</time>
      </trkpt>
      <trkpt lat="46.28892" lon="5.47777">
        <ele>483</ele>
        <time>2022-02-24T17:19:43Z</time>
      </trkpt>
      <trkpt lat="46.28893" lon="5.47781">
        <ele>483.4</ele>
        <time>2022-02-24T17:19:44Z</time>
      </trkpt>
      <trkpt lat="46.28894" lon="5.47785">
        <ele>483.4</ele>
        <time>2022-02-24T17:19:45Z</time>
      </trkpt>
      <trkpt lat="46.28895" lon="5.4779">
        <ele>483.8</ele>
        <time>2022-02-24T17:19:46Z</time>
      </trkpt>
      <trkpt lat="46.28896" lon="5.47794">
        <ele>483.8</ele>
        <time>2022-02-24T17:19:47Z</time>
      </trkpt>
      <trkpt lat="46.28898" lon="5.47799">
        <ele>483.8</ele>
        <time>2022-02-24T17:19:48Z</time>
      </trkpt>
      <trkpt lat="46.289" lon="5.47804">
        <ele>484</ele>
        <time>2022-02-24T17:19:49Z</time>
      </trkpt>
      <trkpt lat="46.28902" lon="5.47809">
        <ele>484</ele>
        <time>2022-02-24T17:19:50Z</time>
      </trkpt>
      <trkpt lat="46.28904" lon="5.47814">
        <ele>484</ele>
        <time>2022-02-24T17:19:51Z</time>
      </trkpt>
      <trkpt lat="46.28906" lon="5.4782">
        <ele>484</ele>
        <time>2022-02-24T17:19:52Z</time>
      </trkpt>
      <trkpt lat="46.28908" lon="5.47826">
        <ele>484</ele>
        <time>2022-02-24T17:19:53Z</time>
      </trkpt>
      <trkpt lat="46.2891" lon="5.47833">
        <ele>484</ele>
        <time>2022-02-24T17:19:54Z</time>
      </trkpt>
      <trkpt lat="46.28913" lon="5.4784">
        <ele>483.8</ele>
        <time>2022-02-24T17:19:55Z</time>
      </trkpt>
      <trkpt lat="46.28916" lon="5.47846">
        <ele>483.8</ele>
        <time>2022-02-24T17:19:56Z</time>
      </trkpt>
      <trkpt lat="46.2892" lon="5.47853">
        <ele>483.8</ele>
        <time>2022-02-24T17:19:57Z</time>
      </trkpt>
      <trkpt lat="46.28923" lon="5.4786">
        <ele>483.4</ele>
        <time>2022-02-24T17:19:58Z</time>
      </trkpt>
      <trkpt lat="46.28927" lon="5.47867">
        <ele>483.4</ele>
        <time>2022-02-24T17:19:59Z</time>
      </trkpt>
      <trkpt lat="46.28931" lon="5.47874">
        <ele>483.2</ele>
        <time>2022-02-24T17:20:00Z</time>
      </trkpt>
      <trkpt lat="46.28935" lon="5.4788">
        <ele>483.2</ele>
        <time>2022-02-24T17:20:01Z</time>
      </trkpt>
      <trkpt lat="46.2894" lon="5.47886">
        <ele>483.2</ele>
        <time>2022-02-24T17:20:02Z</time>
      </trkpt>
      <trkpt lat="46.28944" lon="5.47892">
        <ele>483.2</ele>
        <time>2022-02-24T17:20:03Z</time>
      </trkpt>
      <trkpt lat="46.28949" lon="5.47897">
        <ele>483</ele>
        <time>2022-02-24T17:20:04Z</time>
      </trkpt>
      <trkpt lat="46.28954" lon="5.47903">
        <ele>483</ele>
        <time>2022-02-24T17:20:05Z</time>
      </trkpt>
      <trkpt lat="46.28959" lon="5.47908">
        <ele>483</ele>
        <time>2022-02-24T17:20:06Z</time>
      </trkpt>
      <trkpt lat="46.28964" lon="5.47914">
        <ele>482.6</ele>
        <time>2022-02-24T17:20:07Z</time>
      </trkpt>
      <trkpt lat="46.28969" lon="5.47921">
        <ele>482.6</ele>
        <time>2022-02-24T17:20:08Z</time>
      </trkpt>
      <trkpt lat="46.28974" lon="5.47928">
        <ele>482.2</ele>
        <time>2022-02-24T17:20:09Z</time>
      </trkpt>
      <trkpt lat="46.28979" lon="5.47935">
        <ele>482</ele>
        <time>2022-02-24T17:20:10Z</time>
      </trkpt>
      <trkpt lat="46.28984" lon="5.47943">
        <ele>481.6</ele>
        <time>2022-02-24T17:20:11Z</time>
      </trkpt>
      <trkpt lat="46.2899" lon="5.47951">
        <ele>481.2</ele>
        <time>2022-02-24T17:20:12Z</time>
      </trkpt>
      <trkpt lat="46.28996" lon="5.47958">
        <ele>480.8</ele>
        <time>2022-02-24T17:20:13Z</time>
      </trkpt>
      <trkpt lat="46.29003" lon="5.47965">
        <ele>480.2</ele>
        <time>2022-02-24T17:20:14Z</time>
      </trkpt>
      <trkpt lat="46.2901" lon="5.47971">
        <ele>479.6</ele>
        <time>2022-02-24T17:20:15Z</time>
      </trkpt>
      <trkpt lat="46.29019" lon="5.47977">
        <ele>479.2</ele>
        <time>2022-02-24T17:20:16Z</time>
      </trkpt>
      <trkpt lat="46.29027" lon="5.47983">
        <ele>478.6</ele>
        <time>2022-02-24T17:20:17Z</time>
      </trkpt>
      <trkpt lat="46.29036" lon="5.47987">
        <ele>478</ele>
        <time>2022-02-24T17:20:18Z</time>
      </trkpt>
      <trkpt lat="46.29046" lon="5.47991">
        <ele>477.4</ele>
        <time>2022-02-24T17:20:19Z</time>
      </trkpt>
      <trkpt lat="46.29057" lon="5.47994">
        <ele>477</ele>
        <time>2022-02-24T17:20:20Z</time>
      </trkpt>
      <trkpt lat="46.29066" lon="5.47997">
        <ele>476.8</ele>
        <time>2022-02-24T17:20:21Z</time>
      </trkpt>
      <trkpt lat="46.29075" lon="5.48">
        <ele>476.6</ele>
        <time>2022-02-24T17:20:22Z</time>
      </trkpt>
      <trkpt lat="46.29083" lon="5.48002">
        <ele>476.6</ele>
        <time>2022-02-24T17:20:23Z</time>
      </trkpt>
      <trkpt lat="46.29092" lon="5.48005">
        <ele>476.2</ele>
        <time>2022-02-24T17:20:24Z</time>
      </trkpt>
      <trkpt lat="46.29101" lon="5.48007">
        <ele>476.2</ele>
        <time>2022-02-24T17:20:25Z</time>
      </trkpt>
      <trkpt lat="46.29108" lon="5.48011">
        <ele>476.2</ele>
        <time>2022-02-24T17:20:26Z</time>
      </trkpt>
      <trkpt lat="46.29116" lon="5.48015">
        <ele>476</ele>
        <time>2022-02-24T17:20:27Z</time>
      </trkpt>
      <trkpt lat="46.29123" lon="5.48018">
        <ele>476</ele>
        <time>2022-02-24T17:20:28Z</time>
      </trkpt>
      <trkpt lat="46.2913" lon="5.48022">
        <ele>476</ele>
        <time>2022-02-24T17:20:29Z</time>
      </trkpt>
      <trkpt lat="46.29137" lon="5.48024">
        <ele>475.6</ele>
        <time>2022-02-24T17:20:30Z</time>
      </trkpt>
      <trkpt lat="46.29144" lon="5.48027">
        <ele>475.6</ele>
        <time>2022-02-24T17:20:31Z</time>
      </trkpt>
      <trkpt lat="46.29151" lon="5.4803">
        <ele>475.6</ele>
        <time>2022-02-24T17:20:32Z</time>
      </trkpt>
      <trkpt lat="46.29157" lon="5.48032">
        <ele>475.4</ele>
        <time>2022-02-24T17:20:33Z</time>
      </trkpt>
      <trkpt lat="46.29164" lon="5.48034">
        <ele>475.4</ele>
        <time>2022-02-24T17:20:34Z</time>
      </trkpt>
      <trkpt lat="46.2917" lon="5.48036">
        <ele>475.4</ele>
        <time>2022-02-24T17:20:35Z</time>
      </trkpt>
      <trkpt lat="46.29175" lon="5.48038">
        <ele>475.4</ele>
        <time>2022-02-24T17:20:36Z</time>
      </trkpt>
      <trkpt lat="46.29181" lon="5.48041">
        <ele>475.6</ele>
        <time>2022-02-24T17:20:37Z</time>
      </trkpt>
      <trkpt lat="46.29186" lon="5.48043">
        <ele>475.6</ele>
        <time>2022-02-24T17:20:38Z</time>
      </trkpt>
      <trkpt lat="46.29191" lon="5.48045">
        <ele>476</ele>
        <time>2022-02-24T17:20:39Z</time>
      </trkpt>
      <trkpt lat="46.29195" lon="5.48047">
        <ele>476</ele>
        <time>2022-02-24T17:20:40Z</time>
      </trkpt>
      <trkpt lat="46.29199" lon="5.48049">
        <ele>476.2</ele>
        <time>2022-02-24T17:20:41Z</time>
      </trkpt>
      <trkpt lat="46.29203" lon="5.48051">
        <ele>476.2</ele>
        <time>2022-02-24T17:20:42Z</time>
      </trkpt>
      <trkpt lat="46.29207" lon="5.48053">
        <ele>476.4</ele>
        <time>2022-02-24T17:20:43Z</time>
      </trkpt>
      <trkpt lat="46.2921" lon="5.48056">
        <ele>476.4</ele>
        <time>2022-02-24T17:20:44Z</time>
      </trkpt>
      <trkpt lat="46.29213" lon="5.4806">
        <ele>476.4</ele>
        <time>2022-02-24T17:20:45Z</time>
      </trkpt>
      <trkpt lat="46.29216" lon="5.48063">
        <ele>476.8</ele>
        <time>2022-02-24T17:20:46Z</time>
      </trkpt>
      <trkpt lat="46.29219" lon="5.48067">
        <ele>476.8</ele>
        <time>2022-02-24T17:20:47Z</time>
      </trkpt>
      <trkpt lat="46.29222" lon="5.48072">
        <ele>476.8</ele>
        <time>2022-02-24T17:20:48Z</time>
      </trkpt>
      <trkpt lat="46.29224" lon="5.48077">
        <ele>476.4</ele>
        <time>2022-02-24T17:20:49Z</time>
      </trkpt>
      <trkpt lat="46.29226" lon="5.48082">
        <ele>476.4</ele>
        <time>2022-02-24T17:20:50Z</time>
      </trkpt>
      <trkpt lat="46.29228" lon="5.48087">
        <ele>476</ele>
        <time>2022-02-24T17:20:51Z</time>
      </trkpt>
      <trkpt lat="46.2923" lon="5.48091">
        <ele>475.8</ele>
        <time>2022-02-24T17:20:52Z</time>
      </trkpt>
      <trkpt lat="46.29234" lon="5.48095">
        <ele>475.6</ele>
        <time>2022-02-24T17:20:53Z</time>
      </trkpt>
      <trkpt lat="46.29237" lon="5.48098">
        <ele>475.2</ele>
        <time>2022-02-24T17:20:54Z</time>
      </trkpt>
      <trkpt lat="46.29242" lon="5.48099">
        <ele>475</ele>
        <time>2022-02-24T17:20:55Z</time>
      </trkpt>
      <trkpt lat="46.29246" lon="5.48101">
        <ele>474.6</ele>
        <time>2022-02-24T17:20:56Z</time>
      </trkpt>
      <trkpt lat="46.29252" lon="5.48101">
        <ele>474.4</ele>
        <time>2022-02-24T17:20:57Z</time>
      </trkpt>
      <trkpt lat="46.29257" lon="5.48101">
        <ele>474</ele>
        <time>2022-02-24T17:20:58Z</time>
      </trkpt>
      <trkpt lat="46.29264" lon="5.481">
        <ele>473.4</ele>
        <time>2022-02-24T17:20:59Z</time>
      </trkpt>
      <trkpt lat="46.2927" lon="5.48097">
        <ele>473</ele>
        <time>2022-02-24T17:21:00Z</time>
      </trkpt>
      <trkpt lat="46.29277" lon="5.48093">
        <ele>472.6</ele>
        <time>2022-02-24T17:21:01Z</time>
      </trkpt>
      <trkpt lat="46.29283" lon="5.4809">
        <ele>472.2</ele>
        <time>2022-02-24T17:21:02Z</time>
      </trkpt>
      <trkpt lat="46.2929" lon="5.48089">
        <ele>471.8</ele>
        <time>2022-02-24T17:21:03Z</time>
      </trkpt>
      <trkpt lat="46.29297" lon="5.4809">
        <ele>471.4</ele>
        <time>2022-02-24T17:21:04Z</time>
      </trkpt>
      <trkpt lat="46.29304" lon="5.48094">
        <ele>471.2</ele>
        <time>2022-02-24T17:21:05Z</time>
      </trkpt>
      <trkpt lat="46.2931" lon="5.48098">
        <ele>471</ele>
        <time>2022-02-24T17:21:06Z</time>
      </trkpt>
      <trkpt lat="46.29315" lon="5.48104">
        <ele>470.8</ele>
        <time>2022-02-24T17:21:07Z</time>
      </trkpt>
      <trkpt lat="46.2932" lon="5.48111">
        <ele>470.8</ele>
        <time>2022-02-24T17:21:08Z</time>
      </trkpt>
      <trkpt lat="46.29324" lon="5.48118">
        <ele>470.4</ele>
        <time>2022-02-24T17:21:09Z</time>
      </trkpt>
      <trkpt lat="46.29328" lon="5.48126">
        <ele>470.4</ele>
        <time>2022-02-24T17:21:10Z</time>
      </trkpt>
      <trkpt lat="46.29333" lon="5.48133">
        <ele>470</ele>
        <time>2022-02-24T17:21:11Z</time>
      </trkpt>
      <trkpt lat="46.29337" lon="5.48141">
        <ele>469.8</ele>
        <time>2022-02-24T17:21:12Z</time>
      </trkpt>
      <trkpt lat="46.29342" lon="5.48149">
        <ele>469.8</ele>
        <time>2022-02-24T17:21:13Z</time>
      </trkpt>
      <trkpt lat="46.29346" lon="5.48156">
        <ele>469.6</ele>
        <time>2022-02-24T17:21:14Z</time>
      </trkpt>
      <trkpt lat="46.29352" lon="5.48163">
        <ele>469.6</ele>
        <time>2022-02-24T17:21:15Z</time>
      </trkpt>
      <trkpt lat="46.29357" lon="5.48169">
        <ele>469.6</ele>
        <time>2022-02-24T17:21:16Z</time>
      </trkpt>
      <trkpt lat="46.29362" lon="5.48176">
        <ele>469.6</ele>
        <time>2022-02-24T17:21:17Z</time>
      </trkpt>
      <trkpt lat="46.29367" lon="5.48183">
        <ele>469.6</ele>
        <time>2022-02-24T17:21:18Z</time>
      </trkpt>
      <trkpt lat="46.29372" lon="5.48191">
        <ele>469.4</ele>
        <time>2022-02-24T17:21:19Z</time>
      </trkpt>
      <trkpt lat="46.29377" lon="5.48198">
        <ele>469.4</ele>
        <time>2022-02-24T17:21:20Z</time>
      </trkpt>
      <trkpt lat="46.29382" lon="5.48205">
        <ele>469</ele>
        <time>2022-02-24T17:21:21Z</time>
      </trkpt>
      <trkpt lat="46.29387" lon="5.48211">
        <ele>469</ele>
        <time>2022-02-24T17:21:22Z</time>
      </trkpt>
      <trkpt lat="46.29392" lon="5.48217">
        <ele>469</ele>
        <time>2022-02-24T17:21:23Z</time>
      </trkpt>
      <trkpt lat="46.29397" lon="5.48223">
        <ele>468.8</ele>
        <time>2022-02-24T17:21:24Z</time>
      </trkpt>
      <trkpt lat="46.29402" lon="5.48229">
        <ele>468.8</ele>
        <time>2022-02-24T17:21:25Z</time>
      </trkpt>
      <trkpt lat="46.29407" lon="5.48234">
        <ele>468.8</ele>
        <time>2022-02-24T17:21:26Z</time>
      </trkpt>
      <trkpt lat="46.29413" lon="5.48238">
        <ele>468.8</ele>
        <time>2022-02-24T17:21:27Z</time>
      </trkpt>
      <trkpt lat="46.29418" lon="5.48243">
        <ele>468.8</ele>
        <time>2022-02-24T17:21:28Z</time>
      </trkpt>
      <trkpt lat="46.29423" lon="5.48248">
        <ele>468.8</ele>
        <time>2022-02-24T17:21:29Z</time>
      </trkpt>
      <trkpt lat="46.29429" lon="5.48253">
        <ele>468.8</ele>
        <time>2022-02-24T17:21:30Z</time>
      </trkpt>
      <trkpt lat="46.29434" lon="5.48258">
        <ele>468.6</ele>
        <time>2022-02-24T17:21:31Z</time>
      </trkpt>
      <trkpt lat="46.2944" lon="5.48262">
        <ele>468.6</ele>
        <time>2022-02-24T17:21:32Z</time>
      </trkpt>
      <trkpt lat="46.29446" lon="5.48267">
        <ele>468.6</ele>
        <time>2022-02-24T17:21:33Z</time>
      </trkpt>
      <trkpt lat="46.29451" lon="5.48271">
        <ele>468.4</ele>
        <time>2022-02-24T17:21:34Z</time>
      </trkpt>
      <trkpt lat="46.29457" lon="5.48276">
        <ele>468.4</ele>
        <time>2022-02-24T17:21:35Z</time>
      </trkpt>
      <trkpt lat="46.29462" lon="5.48281">
        <ele>468.4</ele>
        <time>2022-02-24T17:21:36Z</time>
      </trkpt>
      <trkpt lat="46.29468" lon="5.48285">
        <ele>468.4</ele>
        <time>2022-02-24T17:21:37Z</time>
      </trkpt>
      <trkpt lat="46.29474" lon="5.48289">
        <ele>468.4</ele>
        <time>2022-02-24T17:21:38Z</time>
      </trkpt>
      <trkpt lat="46.2948" lon="5.48292">
        <ele>468.4</ele>
        <time>2022-02-24T17:21:39Z</time>
      </trkpt>
      <trkpt lat="46.29486" lon="5.48295">
        <ele>468.4</ele>
        <time>2022-02-24T17:21:40Z</time>
      </trkpt>
      <trkpt lat="46.29493" lon="5.48299">
        <ele>468.2</ele>
        <time>2022-02-24T17:21:41Z</time>
      </trkpt>
      <trkpt lat="46.29499" lon="5.48301">
        <ele>468.2</ele>
        <time>2022-02-24T17:21:42Z</time>
      </trkpt>
      <trkpt lat="46.29505" lon="5.48304">
        <ele>468.2</ele>
        <time>2022-02-24T17:21:43Z</time>
      </trkpt>
      <trkpt lat="46.29512" lon="5.48307">
        <ele>468.2</ele>
        <time>2022-02-24T17:21:44Z</time>
      </trkpt>
      <trkpt lat="46.29518" lon="5.48309">
        <ele>468.2</ele>
        <time>2022-02-24T17:21:45Z</time>
      </trkpt>
      <trkpt lat="46.29524" lon="5.48312">
        <ele>468.2</ele>
        <time>2022-02-24T17:21:46Z</time>
      </trkpt>
      <trkpt lat="46.29531" lon="5.48316">
        <ele>468.2</ele>
        <time>2022-02-24T17:21:47Z</time>
      </trkpt>
      <trkpt lat="46.29537" lon="5.48318">
        <ele>468.2</ele>
        <time>2022-02-24T17:21:48Z</time>
      </trkpt>
      <trkpt lat="46.29544" lon="5.48321">
        <ele>468.2</ele>
        <time>2022-02-24T17:21:49Z</time>
      </trkpt>
      <trkpt lat="46.2955" lon="5.48325">
        <ele>468.2</ele>
        <time>2022-02-24T17:21:50Z</time>
      </trkpt>
      <trkpt lat="46.29557" lon="5.48328">
        <ele>468.2</ele>
        <time>2022-02-24T17:21:51Z</time>
      </trkpt>
      <trkpt lat="46.29563" lon="5.48331">
        <ele>468.2</ele>
        <time>2022-02-24T17:21:52Z</time>
      </trkpt>
      <trkpt lat="46.29569" lon="5.48335">
        <ele>468</ele>
        <time>2022-02-24T17:21:53Z</time>
      </trkpt>
      <trkpt lat="46.29576" lon="5.48338">
        <ele>468</ele>
        <time>2022-02-24T17:21:54Z</time>
      </trkpt>
      <trkpt lat="46.29582" lon="5.48342">
        <ele>468</ele>
        <time>2022-02-24T17:21:55Z</time>
      </trkpt>
      <trkpt lat="46.29588" lon="5.48346">
        <ele>468</ele>
        <time>2022-02-24T17:21:56Z</time>
      </trkpt>
      <trkpt lat="46.29594" lon="5.48349">
        <ele>468.2</ele>
        <time>2022-02-24T17:21:57Z</time>
      </trkpt>
      <trkpt lat="46.296" lon="5.48353">
        <ele>468.2</ele>
        <time>2022-02-24T17:21:58Z</time>
      </trkpt>
      <trkpt lat="46.29606" lon="5.48356">
        <ele>468.4</ele>
        <time>2022-02-24T17:21:59Z</time>
      </trkpt>
      <trkpt lat="46.29612" lon="5.48359">
        <ele>468.6</ele>
        <time>2022-02-24T17:22:00Z</time>
      </trkpt>
      <trkpt lat="46.29618" lon="5.48362">
        <ele>468.6</ele>
        <time>2022-02-24T17:22:01Z</time>
      </trkpt>
      <trkpt lat="46.29623" lon="5.48364">
        <ele>469</ele>
        <time>2022-02-24T17:22:02Z</time>
      </trkpt>
      <trkpt lat="46.29628" lon="5.48366">
        <ele>469</ele>
        <time>2022-02-24T17:22:03Z</time>
      </trkpt>
      <trkpt lat="46.29634" lon="5.48369">
        <ele>469.4</ele>
        <time>2022-02-24T17:22:04Z</time>
      </trkpt>
      <trkpt lat="46.29639" lon="5.48372">
        <ele>469.4</ele>
        <time>2022-02-24T17:22:05Z</time>
      </trkpt>
      <trkpt lat="46.29644" lon="5.48375">
        <ele>469.6</ele>
        <time>2022-02-24T17:22:06Z</time>
      </trkpt>
      <trkpt lat="46.29649" lon="5.48378">
        <ele>469.6</ele>
        <time>2022-02-24T17:22:07Z</time>
      </trkpt>
      <trkpt lat="46.29655" lon="5.48381">
        <ele>469.6</ele>
        <time>2022-02-24T17:22:08Z</time>
      </trkpt>
      <trkpt lat="46.2966" lon="5.48385">
        <ele>469.8</ele>
        <time>2022-02-24T17:22:09Z</time>
      </trkpt>
      <trkpt lat="46.29666" lon="5.48388">
        <ele>469.8</ele>
        <time>2022-02-24T17:22:10Z</time>
      </trkpt>
      <trkpt lat="46.29671" lon="5.48391">
        <ele>469.8</ele>
        <time>2022-02-24T17:22:11Z</time>
      </trkpt>
      <trkpt lat="46.29677" lon="5.48394">
        <ele>469.8</ele>
        <time>2022-02-24T17:22:12Z</time>
      </trkpt>
      <trkpt lat="46.29682" lon="5.48397">
        <ele>469.8</ele>
        <time>2022-02-24T17:22:13Z</time>
      </trkpt>
      <trkpt lat="46.29688" lon="5.484">
        <ele>469.8</ele>
        <time>2022-02-24T17:22:14Z</time>
      </trkpt>
      <trkpt lat="46.29693" lon="5.48403">
        <ele>470</ele>
        <time>2022-02-24T17:22:15Z</time>
      </trkpt>
      <trkpt lat="46.29699" lon="5.48406">
        <ele>470</ele>
        <time>2022-02-24T17:22:16Z</time>
      </trkpt>
      <trkpt lat="46.29704" lon="5.48409">
        <ele>470.2</ele>
        <time>2022-02-24T17:22:17Z</time>
      </trkpt>
      <trkpt lat="46.2971" lon="5.48413">
        <ele>470.2</ele>
        <time>2022-02-24T17:22:18Z</time>
      </trkpt>
      <trkpt lat="46.29715" lon="5.48416">
        <ele>470.2</ele>
        <time>2022-02-24T17:22:19Z</time>
      </trkpt>
      <trkpt lat="46.29721" lon="5.48419">
        <ele>470.2</ele>
        <time>2022-02-24T17:22:20Z</time>
      </trkpt>
      <trkpt lat="46.29726" lon="5.48423">
        <ele>470.2</ele>
        <time>2022-02-24T17:22:21Z</time>
      </trkpt>
      <trkpt lat="46.29732" lon="5.48427">
        <ele>470.2</ele>
        <time>2022-02-24T17:22:22Z</time>
      </trkpt>
      <trkpt lat="46.29736" lon="5.48431">
        <ele>470.2</ele>
        <time>2022-02-24T17:22:23Z</time>
      </trkpt>
      <trkpt lat="46.29741" lon="5.48436">
        <ele>470.2</ele>
        <time>2022-02-24T17:22:24Z</time>
      </trkpt>
      <trkpt lat="46.29745" lon="5.48442">
        <ele>470.4</ele>
        <time>2022-02-24T17:22:25Z</time>
      </trkpt>
      <trkpt lat="46.29749" lon="5.48448">
        <ele>470.4</ele>
        <time>2022-02-24T17:22:26Z</time>
      </trkpt>
      <trkpt lat="46.29753" lon="5.48454">
        <ele>470.4</ele>
        <time>2022-02-24T17:22:27Z</time>
      </trkpt>
      <trkpt lat="46.29757" lon="5.48461">
        <ele>470.4</ele>
        <time>2022-02-24T17:22:28Z</time>
      </trkpt>
      <trkpt lat="46.29761" lon="5.48468">
        <ele>470.4</ele>
        <time>2022-02-24T17:22:29Z</time>
      </trkpt>
      <trkpt lat="46.29765" lon="5.48474">
        <ele>470.4</ele>
        <time>2022-02-24T17:22:30Z</time>
      </trkpt>
      <trkpt lat="46.29769" lon="5.4848">
        <ele>470.6</ele>
        <time>2022-02-24T17:22:31Z</time>
      </trkpt>
      <trkpt lat="46.29775" lon="5.48485">
        <ele>470.6</ele>
        <time>2022-02-24T17:22:32Z</time>
      </trkpt>
      <trkpt lat="46.2978" lon="5.48489">
        <ele>470.6</ele>
        <time>2022-02-24T17:22:33Z</time>
      </trkpt>
      <trkpt lat="46.29785" lon="5.48493">
        <ele>470.6</ele>
        <time>2022-02-24T17:22:34Z</time>
      </trkpt>
      <trkpt lat="46.29791" lon="5.48497">
        <ele>470.6</ele>
        <time>2022-02-24T17:22:35Z</time>
      </trkpt>
      <trkpt lat="46.29796" lon="5.48501">
        <ele>470.6</ele>
        <time>2022-02-24T17:22:36Z</time>
      </trkpt>
      <trkpt lat="46.29802" lon="5.48505">
        <ele>470.6</ele>
        <time>2022-02-24T17:22:37Z</time>
      </trkpt>
      <trkpt lat="46.29808" lon="5.48509">
        <ele>470.6</ele>
        <time>2022-02-24T17:22:38Z</time>
      </trkpt>
      <trkpt lat="46.29814" lon="5.48513">
        <ele>470.6</ele>
        <time>2022-02-24T17:22:39Z</time>
      </trkpt>
      <trkpt lat="46.2982" lon="5.48517">
        <ele>470.6</ele>
        <time>2022-02-24T17:22:40Z</time>
      </trkpt>
      <trkpt lat="46.29826" lon="5.4852">
        <ele>470.6</ele>
        <time>2022-02-24T17:22:41Z</time>
      </trkpt>
      <trkpt lat="46.29832" lon="5.48523">
        <ele>470.6</ele>
        <time>2022-02-24T17:22:42Z</time>
      </trkpt>
      <trkpt lat="46.29838" lon="5.48526">
        <ele>470.6</ele>
        <time>2022-02-24T17:22:43Z</time>
      </trkpt>
      <trkpt lat="46.29845" lon="5.48528">
        <ele>470.6</ele>
        <time>2022-02-24T17:22:44Z</time>
      </trkpt>
      <trkpt lat="46.29851" lon="5.48529">
        <ele>470.6</ele>
        <time>2022-02-24T17:22:45Z</time>
      </trkpt>
      <trkpt lat="46.29857" lon="5.4853">
        <ele>470.6</ele>
        <time>2022-02-24T17:22:46Z</time>
      </trkpt>
      <trkpt lat="46.29863" lon="5.48529">
        <ele>470.6</ele>
        <time>2022-02-24T17:22:47Z</time>
      </trkpt>
      <trkpt lat="46.2987" lon="5.48528">
        <ele>470.6</ele>
        <time>2022-02-24T17:22:48Z</time>
      </trkpt>
      <trkpt lat="46.29876" lon="5.48527">
        <ele>470.6</ele>
        <time>2022-02-24T17:22:49Z</time>
      </trkpt>
      <trkpt lat="46.29882" lon="5.48525">
        <ele>470.6</ele>
        <time>2022-02-24T17:22:50Z</time>
      </trkpt>
      <trkpt lat="46.29888" lon="5.48522">
        <ele>470.6</ele>
        <time>2022-02-24T17:22:51Z</time>
      </trkpt>
      <trkpt lat="46.29893" lon="5.4852">
        <ele>470.6</ele>
        <time>2022-02-24T17:22:52Z</time>
      </trkpt>
      <trkpt lat="46.29899" lon="5.48517">
        <ele>470.8</ele>
        <time>2022-02-24T17:22:53Z</time>
      </trkpt>
      <trkpt lat="46.29905" lon="5.48515">
        <ele>470.8</ele>
        <time>2022-02-24T17:22:54Z</time>
      </trkpt>
      <trkpt lat="46.29911" lon="5.48512">
        <ele>470.8</ele>
        <time>2022-02-24T17:22:55Z</time>
      </trkpt>
      <trkpt lat="46.29916" lon="5.48509">
        <ele>471</ele>
        <time>2022-02-24T17:22:56Z</time>
      </trkpt>
      <trkpt lat="46.29922" lon="5.48507">
        <ele>471</ele>
        <time>2022-02-24T17:22:57Z</time>
      </trkpt>
      <trkpt lat="46.29928" lon="5.48504">
        <ele>471</ele>
        <time>2022-02-24T17:22:58Z</time>
      </trkpt>
      <trkpt lat="46.29933" lon="5.48501">
        <ele>471</ele>
        <time>2022-02-24T17:22:59Z</time>
      </trkpt>
      <trkpt lat="46.29939" lon="5.48498">
        <ele>471.4</ele>
        <time>2022-02-24T17:23:00Z</time>
      </trkpt>
      <trkpt lat="46.29944" lon="5.48495">
        <ele>471.4</ele>
        <time>2022-02-24T17:23:01Z</time>
      </trkpt>
      <trkpt lat="46.2995" lon="5.48491">
        <ele>471.4</ele>
        <time>2022-02-24T17:23:02Z</time>
      </trkpt>
      <trkpt lat="46.29955" lon="5.48487">
        <ele>471.4</ele>
        <time>2022-02-24T17:23:03Z</time>
      </trkpt>
      <trkpt lat="46.2996" lon="5.48483">
        <ele>471.4</ele>
        <time>2022-02-24T17:23:04Z</time>
      </trkpt>
      <trkpt lat="46.29965" lon="5.48478">
        <ele>471.4</ele>
        <time>2022-02-24T17:23:05Z</time>
      </trkpt>
      <trkpt lat="46.29969" lon="5.48474">
        <ele>471.4</ele>
        <time>2022-02-24T17:23:06Z</time>
      </trkpt>
      <trkpt lat="46.29974" lon="5.48469">
        <ele>471.4</ele>
        <time>2022-02-24T17:23:07Z</time>
      </trkpt>
      <trkpt lat="46.29979" lon="5.48464">
        <ele>471.4</ele>
        <time>2022-02-24T17:23:08Z</time>
      </trkpt>
      <trkpt lat="46.29984" lon="5.4846">
        <ele>471.4</ele>
        <time>2022-02-24T17:23:09Z</time>
      </trkpt>
      <trkpt lat="46.29989" lon="5.48455">
        <ele>471.6</ele>
        <time>2022-02-24T17:23:10Z</time>
      </trkpt>
      <trkpt lat="46.29994" lon="5.4845">
        <ele>471.6</ele>
        <time>2022-02-24T17:23:11Z</time>
      </trkpt>
      <trkpt lat="46.29998" lon="5.48446">
        <ele>471.6</ele>
        <time>2022-02-24T17:23:12Z</time>
      </trkpt>
      <trkpt lat="46.30003" lon="5.48441">
        <ele>471.6</ele>
        <time>2022-02-24T17:23:13Z</time>
      </trkpt>
      <trkpt lat="46.30008" lon="5.48437">
        <ele>471.6</ele>
        <time>2022-02-24T17:23:14Z</time>
      </trkpt>
      <trkpt lat="46.30013" lon="5.48432">
        <ele>471.6</ele>
        <time>2022-02-24T17:23:15Z</time>
      </trkpt>
      <trkpt lat="46.30018" lon="5.48428">
        <ele>471.6</ele>
        <time>2022-02-24T17:23:16Z</time>
      </trkpt>
      <trkpt lat="46.30023" lon="5.48424">
        <ele>471.8</ele>
        <time>2022-02-24T17:23:17Z</time>
      </trkpt>
      <trkpt lat="46.30028" lon="5.4842">
        <ele>471.8</ele>
        <time>2022-02-24T17:23:18Z</time>
      </trkpt>
      <trkpt lat="46.30033" lon="5.48417">
        <ele>471.8</ele>
        <time>2022-02-24T17:23:19Z</time>
      </trkpt>
      <trkpt lat="46.30038" lon="5.48415">
        <ele>471.8</ele>
        <time>2022-02-24T17:23:20Z</time>
      </trkpt>
      <trkpt lat="46.30043" lon="5.48413">
        <ele>471.8</ele>
        <time>2022-02-24T17:23:21Z</time>
      </trkpt>
      <trkpt lat="46.30048" lon="5.48411">
        <ele>472.2</ele>
        <time>2022-02-24T17:23:22Z</time>
      </trkpt>
      <trkpt lat="46.30052" lon="5.4841">
        <ele>472.2</ele>
        <time>2022-02-24T17:23:23Z</time>
      </trkpt>
      <trkpt lat="46.30057" lon="5.48409">
        <ele>472.6</ele>
        <time>2022-02-24T17:23:24Z</time>
      </trkpt>
      <trkpt lat="46.30061" lon="5.48408">
        <ele>472.8</ele>
        <time>2022-02-24T17:23:25Z</time>
      </trkpt>
      <trkpt lat="46.30066" lon="5.48407">
        <ele>472.8</ele>
        <time>2022-02-24T17:23:26Z</time>
      </trkpt>
      <trkpt lat="46.3007" lon="5.48406">
        <ele>473</ele>
        <time>2022-02-24T17:23:27Z</time>
      </trkpt>
      <trkpt lat="46.30075" lon="5.48406">
        <ele>473</ele>
        <time>2022-02-24T17:23:28Z</time>
      </trkpt>
      <trkpt lat="46.3008" lon="5.48406">
        <ele>473.4</ele>
        <time>2022-02-24T17:23:29Z</time>
      </trkpt>
      <trkpt lat="46.30085" lon="5.48407">
        <ele>473.6</ele>
        <time>2022-02-24T17:23:30Z</time>
      </trkpt>
      <trkpt lat="46.3009" lon="5.48408">
        <ele>473.6</ele>
        <time>2022-02-24T17:23:31Z</time>
      </trkpt>
      <trkpt lat="46.30095" lon="5.48408">
        <ele>473.8</ele>
        <time>2022-02-24T17:23:32Z</time>
      </trkpt>
      <trkpt lat="46.30101" lon="5.48409">
        <ele>473.8</ele>
        <time>2022-02-24T17:23:33Z</time>
      </trkpt>
      <trkpt lat="46.30107" lon="5.48409">
        <ele>473.8</ele>
        <time>2022-02-24T17:23:34Z</time>
      </trkpt>
      <trkpt lat="46.30112" lon="5.48409">
        <ele>473.8</ele>
        <time>2022-02-24T17:23:35Z</time>
      </trkpt>
      <trkpt lat="46.30118" lon="5.4841">
        <ele>473.8</ele>
        <time>2022-02-24T17:23:36Z</time>
      </trkpt>
      <trkpt lat="46.30124" lon="5.4841">
        <ele>473.8</ele>
        <time>2022-02-24T17:23:37Z</time>
      </trkpt>
      <trkpt lat="46.3013" lon="5.4841">
        <ele>473.8</ele>
        <time>2022-02-24T17:23:38Z</time>
      </trkpt>
      <trkpt lat="46.30136" lon="5.48409">
        <ele>473.8</ele>
        <time>2022-02-24T17:23:39Z</time>
      </trkpt>
      <trkpt lat="46.30142" lon="5.48409">
        <ele>473.8</ele>
        <time>2022-02-24T17:23:40Z</time>
      </trkpt>
      <trkpt lat="46.30149" lon="5.48409">
        <ele>473.8</ele>
        <time>2022-02-24T17:23:41Z</time>
      </trkpt>
      <trkpt lat="46.30155" lon="5.48409">
        <ele>473.8</ele>
        <time>2022-02-24T17:23:42Z</time>
      </trkpt>
      <trkpt lat="46.30161" lon="5.48409">
        <ele>473.8</ele>
        <time>2022-02-24T17:23:43Z</time>
      </trkpt>
      <trkpt lat="46.30167" lon="5.48408">
        <ele>473.8</ele>
        <time>2022-02-24T17:23:44Z</time>
      </trkpt>
      <trkpt lat="46.30173" lon="5.48407">
        <ele>473.8</ele>
        <time>2022-02-24T17:23:45Z</time>
      </trkpt>
      <trkpt lat="46.30179" lon="5.48407">
        <ele>473.8</ele>
        <time>2022-02-24T17:23:46Z</time>
      </trkpt>
      <trkpt lat="46.30185" lon="5.48406">
        <ele>473.8</ele>
        <time>2022-02-24T17:23:47Z</time>
      </trkpt>
      <trkpt lat="46.30191" lon="5.48405">
        <ele>473.8</ele>
        <time>2022-02-24T17:23:48Z</time>
      </trkpt>
      <trkpt lat="46.30197" lon="5.48405">
        <ele>474</ele>
        <time>2022-02-24T17:23:49Z</time>
      </trkpt>
      <trkpt lat="46.30203" lon="5.48405">
        <ele>474</ele>
        <time>2022-02-24T17:23:50Z</time>
      </trkpt>
      <trkpt lat="46.30209" lon="5.48404">
        <ele>474</ele>
        <time>2022-02-24T17:23:51Z</time>
      </trkpt>
      <trkpt lat="46.30215" lon="5.48404">
        <ele>474</ele>
        <time>2022-02-24T17:23:52Z</time>
      </trkpt>
      <trkpt lat="46.3022" lon="5.48405">
        <ele>474</ele>
        <time>2022-02-24T17:23:53Z</time>
      </trkpt>
      <trkpt lat="46.30226" lon="5.48406">
        <ele>474.2</ele>
        <time>2022-02-24T17:23:54Z</time>
      </trkpt>
      <trkpt lat="46.30231" lon="5.48407">
        <ele>474.2</ele>
        <time>2022-02-24T17:23:55Z</time>
      </trkpt>
      <trkpt lat="46.30236" lon="5.4841">
        <ele>474.6</ele>
        <time>2022-02-24T17:23:56Z</time>
      </trkpt>
      <trkpt lat="46.30241" lon="5.48412">
        <ele>474.6</ele>
        <time>2022-02-24T17:23:57Z</time>
      </trkpt>
      <trkpt lat="46.30246" lon="5.48416">
        <ele>475</ele>
        <time>2022-02-24T17:23:58Z</time>
      </trkpt>
      <trkpt lat="46.3025" lon="5.48419">
        <ele>475.2</ele>
        <time>2022-02-24T17:23:59Z</time>
      </trkpt>
      <trkpt lat="46.30254" lon="5.48423">
        <ele>475.6</ele>
        <time>2022-02-24T17:24:00Z</time>
      </trkpt>
      <trkpt lat="46.30259" lon="5.48426">
        <ele>475.8</ele>
        <time>2022-02-24T17:24:01Z</time>
      </trkpt>
      <trkpt lat="46.30263" lon="5.48429">
        <ele>476</ele>
        <time>2022-02-24T17:24:02Z</time>
      </trkpt>
      <trkpt lat="46.30267" lon="5.48432">
        <ele>476.4</ele>
        <time>2022-02-24T17:24:03Z</time>
      </trkpt>
      <trkpt lat="46.30271" lon="5.48435">
        <ele>476.4</ele>
        <time>2022-02-24T17:24:04Z</time>
      </trkpt>
      <trkpt lat="46.30275" lon="5.48437">
        <ele>476.6</ele>
        <time>2022-02-24T17:24:05Z</time>
      </trkpt>
      <trkpt lat="46.30279" lon="5.48439">
        <ele>476.6</ele>
        <time>2022-02-24T17:24:06Z</time>
      </trkpt>
      <trkpt lat="46.30283" lon="5.4844">
        <ele>477</ele>
        <time>2022-02-24T17:24:07Z</time>
      </trkpt>
      <trkpt lat="46.30287" lon="5.48442">
        <ele>477</ele>
        <time>2022-02-24T17:24:08Z</time>
      </trkpt>
      <trkpt lat="46.30292" lon="5.48444">
        <ele>477.2</ele>
        <time>2022-02-24T17:24:09Z</time>
      </trkpt>
      <trkpt lat="46.30296" lon="5.48445">
        <ele>477.2</ele>
        <time>2022-02-24T17:24:10Z</time>
      </trkpt>
      <trkpt lat="46.30301" lon="5.48446">
        <ele>477.2</ele>
        <time>2022-02-24T17:24:11Z</time>
      </trkpt>
      <trkpt lat="46.30306" lon="5.48447">
        <ele>477.2</ele>
        <time>2022-02-24T17:24:12Z</time>
      </trkpt>
      <trkpt lat="46.30311" lon="5.48448">
        <ele>477.2</ele>
        <time>2022-02-24T17:24:13Z</time>
      </trkpt>
      <trkpt lat="46.30317" lon="5.4845">
        <ele>477.2</ele>
        <time>2022-02-24T17:24:14Z</time>
      </trkpt>
      <trkpt lat="46.30322" lon="5.48451">
        <ele>477.2</ele>
        <time>2022-02-24T17:24:15Z</time>
      </trkpt>
      <trkpt lat="46.30328" lon="5.48454">
        <ele>477.2</ele>
        <time>2022-02-24T17:24:16Z</time>
      </trkpt>
      <trkpt lat="46.30333" lon="5.48457">
        <ele>477.2</ele>
        <time>2022-02-24T17:24:17Z</time>
      </trkpt>
      <trkpt lat="46.30339" lon="5.48461">
        <ele>477</ele>
        <time>2022-02-24T17:24:18Z</time>
      </trkpt>
      <trkpt lat="46.30345" lon="5.48465">
        <ele>477</ele>
        <time>2022-02-24T17:24:19Z</time>
      </trkpt>
      <trkpt lat="46.3035" lon="5.4847">
        <ele>477</ele>
        <time>2022-02-24T17:24:20Z</time>
      </trkpt>
      <trkpt lat="46.30355" lon="5.48475">
        <ele>477</ele>
        <time>2022-02-24T17:24:21Z</time>
      </trkpt>
      <trkpt lat="46.3036" lon="5.4848">
        <ele>476.8</ele>
        <time>2022-02-24T17:24:22Z</time>
      </trkpt>
      <trkpt lat="46.30365" lon="5.48486">
        <ele>476.8</ele>
        <time>2022-02-24T17:24:23Z</time>
      </trkpt>
      <trkpt lat="46.30369" lon="5.48491">
        <ele>476.8</ele>
        <time>2022-02-24T17:24:24Z</time>
      </trkpt>
      <trkpt lat="46.30374" lon="5.48497">
        <ele>476.8</ele>
        <time>2022-02-24T17:24:25Z</time>
      </trkpt>
      <trkpt lat="46.30378" lon="5.48502">
        <ele>476.8</ele>
        <time>2022-02-24T17:24:26Z</time>
      </trkpt>
      <trkpt lat="46.30383" lon="5.48508">
        <ele>476.8</ele>
        <time>2022-02-24T17:24:27Z</time>
      </trkpt>
      <trkpt lat="46.30389" lon="5.48513">
        <ele>476.8</ele>
        <time>2022-02-24T17:24:28Z</time>
      </trkpt>
      <trkpt lat="46.30394" lon="5.48517">
        <ele>476.8</ele>
        <time>2022-02-24T17:24:29Z</time>
      </trkpt>
      <trkpt lat="46.304" lon="5.48521">
        <ele>476.8</ele>
        <time>2022-02-24T17:24:30Z</time>
      </trkpt>
      <trkpt lat="46.30406" lon="5.48524">
        <ele>476.8</ele>
        <time>2022-02-24T17:24:31Z</time>
      </trkpt>
      <trkpt lat="46.30412" lon="5.48528">
        <ele>476.8</ele>
        <time>2022-02-24T17:24:32Z</time>
      </trkpt>
      <trkpt lat="46.30418" lon="5.48532">
        <ele>476.8</ele>
        <time>2022-02-24T17:24:33Z</time>
      </trkpt>
      <trkpt lat="46.30424" lon="5.48535">
        <ele>476.8</ele>
        <time>2022-02-24T17:24:34Z</time>
      </trkpt>
      <trkpt lat="46.3043" lon="5.48538">
        <ele>476.8</ele>
        <time>2022-02-24T17:24:35Z</time>
      </trkpt>
      <trkpt lat="46.30435" lon="5.48541">
        <ele>476.8</ele>
        <time>2022-02-24T17:24:36Z</time>
      </trkpt>
      <trkpt lat="46.30441" lon="5.48543">
        <ele>476.8</ele>
        <time>2022-02-24T17:24:37Z</time>
      </trkpt>
      <trkpt lat="46.30447" lon="5.48546">
        <ele>476.8</ele>
        <time>2022-02-24T17:24:38Z</time>
      </trkpt>
      <trkpt lat="46.30453" lon="5.48547">
        <ele>476.8</ele>
        <time>2022-02-24T17:24:39Z</time>
      </trkpt>
      <trkpt lat="46.30459" lon="5.48549">
        <ele>476.8</ele>
        <time>2022-02-24T17:24:40Z</time>
      </trkpt>
      <trkpt lat="46.30465" lon="5.4855">
        <ele>476.8</ele>
        <time>2022-02-24T17:24:41Z</time>
      </trkpt>
      <trkpt lat="46.30471" lon="5.48551">
        <ele>476.8</ele>
        <time>2022-02-24T17:24:42Z</time>
      </trkpt>
      <trkpt lat="46.30478" lon="5.48553">
        <ele>476.8</ele>
        <time>2022-02-24T17:24:43Z</time>
      </trkpt>
      <trkpt lat="46.30485" lon="5.48554">
        <ele>476.4</ele>
        <time>2022-02-24T17:24:44Z</time>
      </trkpt>
      <trkpt lat="46.30492" lon="5.48555">
        <ele>476.4</ele>
        <time>2022-02-24T17:24:45Z</time>
      </trkpt>
      <trkpt lat="46.30499" lon="5.48557">
        <ele>476.2</ele>
        <time>2022-02-24T17:24:46Z</time>
      </trkpt>
      <trkpt lat="46.30506" lon="5.48558">
        <ele>475.8</ele>
        <time>2022-02-24T17:24:47Z</time>
      </trkpt>
      <trkpt lat="46.30513" lon="5.48559">
        <ele>475.8</ele>
        <time>2022-02-24T17:24:48Z</time>
      </trkpt>
      <trkpt lat="46.3052" lon="5.48559">
        <ele>475.6</ele>
        <time>2022-02-24T17:24:49Z</time>
      </trkpt>
      <trkpt lat="46.30527" lon="5.4856">
        <ele>475.6</ele>
        <time>2022-02-24T17:24:50Z</time>
      </trkpt>
      <trkpt lat="46.30534" lon="5.4856">
        <ele>475.4</ele>
        <time>2022-02-24T17:24:51Z</time>
      </trkpt>
      <trkpt lat="46.30541" lon="5.4856">
        <ele>475.4</ele>
        <time>2022-02-24T17:24:52Z</time>
      </trkpt>
      <trkpt lat="46.30548" lon="5.4856">
        <ele>475.4</ele>
        <time>2022-02-24T17:24:53Z</time>
      </trkpt>
      <trkpt lat="46.30555" lon="5.48559">
        <ele>475.4</ele>
        <time>2022-02-24T17:24:54Z</time>
      </trkpt>
      <trkpt lat="46.30561" lon="5.48559">
        <ele>475.4</ele>
        <time>2022-02-24T17:24:55Z</time>
      </trkpt>
      <trkpt lat="46.30568" lon="5.48558">
        <ele>475.4</ele>
        <time>2022-02-24T17:24:56Z</time>
      </trkpt>
      <trkpt lat="46.30574" lon="5.48557">
        <ele>475.6</ele>
        <time>2022-02-24T17:24:57Z</time>
      </trkpt>
      <trkpt lat="46.30581" lon="5.48555">
        <ele>475.6</ele>
        <time>2022-02-24T17:24:58Z</time>
      </trkpt>
      <trkpt lat="46.30587" lon="5.48554">
        <ele>475.6</ele>
        <time>2022-02-24T17:24:59Z</time>
      </trkpt>
      <trkpt lat="46.30593" lon="5.48553">
        <ele>475.6</ele>
        <time>2022-02-24T17:25:00Z</time>
      </trkpt>
      <trkpt lat="46.306" lon="5.48552">
        <ele>475.6</ele>
        <time>2022-02-24T17:25:01Z</time>
      </trkpt>
      <trkpt lat="46.30606" lon="5.48551">
        <ele>475.6</ele>
        <time>2022-02-24T17:25:02Z</time>
      </trkpt>
      <trkpt lat="46.30612" lon="5.48549">
        <ele>475.8</ele>
        <time>2022-02-24T17:25:03Z</time>
      </trkpt>
      <trkpt lat="46.30618" lon="5.48547">
        <ele>475.8</ele>
        <time>2022-02-24T17:25:04Z</time>
      </trkpt>
      <trkpt lat="46.30624" lon="5.48544">
        <ele>475.8</ele>
        <time>2022-02-24T17:25:05Z</time>
      </trkpt>
      <trkpt lat="46.30629" lon="5.48542">
        <ele>476.2</ele>
        <time>2022-02-24T17:25:06Z</time>
      </trkpt>
      <trkpt lat="46.30635" lon="5.48541">
        <ele>476.2</ele>
        <time>2022-02-24T17:25:07Z</time>
      </trkpt>
      <trkpt lat="46.3064" lon="5.48539">
        <ele>476.4</ele>
        <time>2022-02-24T17:25:08Z</time>
      </trkpt>
      <trkpt lat="46.30645" lon="5.48537">
        <ele>476.4</ele>
        <time>2022-02-24T17:25:09Z</time>
      </trkpt>
      <trkpt lat="46.3065" lon="5.48535">
        <ele>476.4</ele>
        <time>2022-02-24T17:25:10Z</time>
      </trkpt>
      <trkpt lat="46.30655" lon="5.48533">
        <ele>476.4</ele>
        <time>2022-02-24T17:25:11Z</time>
      </trkpt>
      <trkpt lat="46.30661" lon="5.48531">
        <ele>476.4</ele>
        <time>2022-02-24T17:25:12Z</time>
      </trkpt>
      <trkpt lat="46.30667" lon="5.4853">
        <ele>476.4</ele>
        <time>2022-02-24T17:25:13Z</time>
      </trkpt>
      <trkpt lat="46.30673" lon="5.48528">
        <ele>476.4</ele>
        <time>2022-02-24T17:25:14Z</time>
      </trkpt>
      <trkpt lat="46.30679" lon="5.48527">
        <ele>476.4</ele>
        <time>2022-02-24T17:25:15Z</time>
      </trkpt>
      <trkpt lat="46.30685" lon="5.48526">
        <ele>476.4</ele>
        <time>2022-02-24T17:25:16Z</time>
      </trkpt>
      <trkpt lat="46.3069" lon="5.48525">
        <ele>476.6</ele>
        <time>2022-02-24T17:25:17Z</time>
      </trkpt>
      <trkpt lat="46.30697" lon="5.48525">
        <ele>476.6</ele>
        <time>2022-02-24T17:25:18Z</time>
      </trkpt>
      <trkpt lat="46.30703" lon="5.48526">
        <ele>476.6</ele>
        <time>2022-02-24T17:25:19Z</time>
      </trkpt>
      <trkpt lat="46.30709" lon="5.48527">
        <ele>476.6</ele>
        <time>2022-02-24T17:25:20Z</time>
      </trkpt>
      <trkpt lat="46.30716" lon="5.4853">
        <ele>476.4</ele>
        <time>2022-02-24T17:25:21Z</time>
      </trkpt>
      <trkpt lat="46.30722" lon="5.48532">
        <ele>476.4</ele>
        <time>2022-02-24T17:25:22Z</time>
      </trkpt>
      <trkpt lat="46.30729" lon="5.48535">
        <ele>476</ele>
        <time>2022-02-24T17:25:23Z</time>
      </trkpt>
      <trkpt lat="46.30735" lon="5.48537">
        <ele>476</ele>
        <time>2022-02-24T17:25:24Z</time>
      </trkpt>
      <trkpt lat="46.30742" lon="5.4854">
        <ele>476</ele>
        <time>2022-02-24T17:25:25Z</time>
      </trkpt>
      <trkpt lat="46.30749" lon="5.48542">
        <ele>475.8</ele>
        <time>2022-02-24T17:25:26Z</time>
      </trkpt>
      <trkpt lat="46.30756" lon="5.48545">
        <ele>475.8</ele>
        <time>2022-02-24T17:25:27Z</time>
      </trkpt>
      <trkpt lat="46.30762" lon="5.48547">
        <ele>475.8</ele>
        <time>2022-02-24T17:25:28Z</time>
      </trkpt>
      <trkpt lat="46.30769" lon="5.48549">
        <ele>475.8</ele>
        <time>2022-02-24T17:25:29Z</time>
      </trkpt>
      <trkpt lat="46.30775" lon="5.48551">
        <ele>475.8</ele>
        <time>2022-02-24T17:25:30Z</time>
      </trkpt>
      <trkpt lat="46.30781" lon="5.48552">
        <ele>475.8</ele>
        <time>2022-02-24T17:25:31Z</time>
      </trkpt>
      <trkpt lat="46.30787" lon="5.48554">
        <ele>475.8</ele>
        <time>2022-02-24T17:25:32Z</time>
      </trkpt>
      <trkpt lat="46.30794" lon="5.48555">
        <ele>475.8</ele>
        <time>2022-02-24T17:25:33Z</time>
      </trkpt>
      <trkpt lat="46.308" lon="5.48556">
        <ele>475.8</ele>
        <time>2022-02-24T17:25:34Z</time>
      </trkpt>
      <trkpt lat="46.30806" lon="5.48557">
        <ele>476.2</ele>
        <time>2022-02-24T17:25:35Z</time>
      </trkpt>
      <trkpt lat="46.30812" lon="5.48558">
        <ele>476.2</ele>
        <time>2022-02-24T17:25:36Z</time>
      </trkpt>
      <trkpt lat="46.30818" lon="5.48559">
        <ele>476.2</ele>
        <time>2022-02-24T17:25:37Z</time>
      </trkpt>
      <trkpt lat="46.30824" lon="5.4856">
        <ele>476.2</ele>
        <time>2022-02-24T17:25:38Z</time>
      </trkpt>
      <trkpt lat="46.3083" lon="5.48561">
        <ele>476.2</ele>
        <time>2022-02-24T17:25:39Z</time>
      </trkpt>
      <trkpt lat="46.30836" lon="5.48562">
        <ele>476.2</ele>
        <time>2022-02-24T17:25:40Z</time>
      </trkpt>
      <trkpt lat="46.30842" lon="5.48563">
        <ele>476.2</ele>
        <time>2022-02-24T17:25:41Z</time>
      </trkpt>
      <trkpt lat="46.30848" lon="5.48563">
        <ele>476.2</ele>
        <time>2022-02-24T17:25:42Z</time>
      </trkpt>
      <trkpt lat="46.30854" lon="5.48562">
        <ele>476.2</ele>
        <time>2022-02-24T17:25:43Z</time>
      </trkpt>
      <trkpt lat="46.3086" lon="5.48559">
        <ele>476.2</ele>
        <time>2022-02-24T17:25:44Z</time>
      </trkpt>
      <trkpt lat="46.30866" lon="5.48555">
        <ele>476</ele>
        <time>2022-02-24T17:25:45Z</time>
      </trkpt>
      <trkpt lat="46.30872" lon="5.4855">
        <ele>476</ele>
        <time>2022-02-24T17:25:46Z</time>
      </trkpt>
      <trkpt lat="46.30877" lon="5.48544">
        <ele>475.8</ele>
        <time>2022-02-24T17:25:47Z</time>
      </trkpt>
      <trkpt lat="46.30882" lon="5.48537">
        <ele>475.8</ele>
        <time>2022-02-24T17:25:48Z</time>
      </trkpt>
      <trkpt lat="46.30885" lon="5.48528">
        <ele>475.8</ele>
        <time>2022-02-24T17:25:49Z</time>
      </trkpt>
      <trkpt lat="46.30888" lon="5.48518">
        <ele>475.4</ele>
        <time>2022-02-24T17:25:50Z</time>
      </trkpt>
      <trkpt lat="46.3089" lon="5.48509">
        <ele>475.4</ele>
        <time>2022-02-24T17:25:51Z</time>
      </trkpt>
      <trkpt lat="46.30893" lon="5.48499">
        <ele>475.4</ele>
        <time>2022-02-24T17:25:52Z</time>
      </trkpt>
      <trkpt lat="46.30895" lon="5.48489">
        <ele>475.4</ele>
        <time>2022-02-24T17:25:53Z</time>
      </trkpt>
      <trkpt lat="46.30897" lon="5.4848">
        <ele>475.4</ele>
        <time>2022-02-24T17:25:54Z</time>
      </trkpt>
      <trkpt lat="46.309" lon="5.48471">
        <ele>475.4</ele>
        <time>2022-02-24T17:25:55Z</time>
      </trkpt>
      <trkpt lat="46.30902" lon="5.48462">
        <ele>475.4</ele>
        <time>2022-02-24T17:25:56Z</time>
      </trkpt>
      <trkpt lat="46.30905" lon="5.48453">
        <ele>475.4</ele>
        <time>2022-02-24T17:25:57Z</time>
      </trkpt>
      <trkpt lat="46.30908" lon="5.48445">
        <ele>475.4</ele>
        <time>2022-02-24T17:25:58Z</time>
      </trkpt>
      <trkpt lat="46.30908" lon="5.48445">
        <ele>475.4</ele>
        <time>2022-02-24T17:25:59Z</time>
      </trkpt>
      <trkpt lat="46.30911" lon="5.48436">
        <ele>475.4</ele>
        <time>2022-02-24T17:26:00Z</time>
      </trkpt>
      <trkpt lat="46.30915" lon="5.48428">
        <ele>475.4</ele>
        <time>2022-02-24T17:26:01Z</time>
      </trkpt>
      <trkpt lat="46.30918" lon="5.48421">
        <ele>475.4</ele>
        <time>2022-02-24T17:26:02Z</time>
      </trkpt>
      <trkpt lat="46.30922" lon="5.48413">
        <ele>475.4</ele>
        <time>2022-02-24T17:26:03Z</time>
      </trkpt>
      <trkpt lat="46.30926" lon="5.48405">
        <ele>475.4</ele>
        <time>2022-02-24T17:26:04Z</time>
      </trkpt>
      <trkpt lat="46.30929" lon="5.48398">
        <ele>475.4</ele>
        <time>2022-02-24T17:26:05Z</time>
      </trkpt>
      <trkpt lat="46.30933" lon="5.4839">
        <ele>475.4</ele>
        <time>2022-02-24T17:26:06Z</time>
      </trkpt>
      <trkpt lat="46.30937" lon="5.48383">
        <ele>475.4</ele>
        <time>2022-02-24T17:26:07Z</time>
      </trkpt>
      <trkpt lat="46.3094" lon="5.48376">
        <ele>475.4</ele>
        <time>2022-02-24T17:26:08Z</time>
      </trkpt>
      <trkpt lat="46.30943" lon="5.48369">
        <ele>475.8</ele>
        <time>2022-02-24T17:26:09Z</time>
      </trkpt>
      <trkpt lat="46.30946" lon="5.48362">
        <ele>475.8</ele>
        <time>2022-02-24T17:26:10Z</time>
      </trkpt>
      <trkpt lat="46.30949" lon="5.48354">
        <ele>475.8</ele>
        <time>2022-02-24T17:26:11Z</time>
      </trkpt>
      <trkpt lat="46.30952" lon="5.48347">
        <ele>476</ele>
        <time>2022-02-24T17:26:12Z</time>
      </trkpt>
      <trkpt lat="46.30954" lon="5.4834">
        <ele>476</ele>
        <time>2022-02-24T17:26:13Z</time>
      </trkpt>
      <trkpt lat="46.30957" lon="5.48332">
        <ele>476</ele>
        <time>2022-02-24T17:26:14Z</time>
      </trkpt>
      <trkpt lat="46.3096" lon="5.48325">
        <ele>476.2</ele>
        <time>2022-02-24T17:26:15Z</time>
      </trkpt>
      <trkpt lat="46.30962" lon="5.48318">
        <ele>476.2</ele>
        <time>2022-02-24T17:26:16Z</time>
      </trkpt>
      <trkpt lat="46.30965" lon="5.48312">
        <ele>476.2</ele>
        <time>2022-02-24T17:26:17Z</time>
      </trkpt>
      <trkpt lat="46.30968" lon="5.48306">
        <ele>476.6</ele>
        <time>2022-02-24T17:26:18Z</time>
      </trkpt>
      <trkpt lat="46.30971" lon="5.483">
        <ele>476.6</ele>
        <time>2022-02-24T17:26:19Z</time>
      </trkpt>
      <trkpt lat="46.30974" lon="5.48294">
        <ele>476.6</ele>
        <time>2022-02-24T17:26:20Z</time>
      </trkpt>
      <trkpt lat="46.30977" lon="5.48289">
        <ele>476.6</ele>
        <time>2022-02-24T17:26:21Z</time>
      </trkpt>
      <trkpt lat="46.30981" lon="5.48284">
        <ele>476.6</ele>
        <time>2022-02-24T17:26:22Z</time>
      </trkpt>
      <trkpt lat="46.30986" lon="5.4828">
        <ele>476.6</ele>
        <time>2022-02-24T17:26:23Z</time>
      </trkpt>
      <trkpt lat="46.30991" lon="5.48276">
        <ele>476.6</ele>
        <time>2022-02-24T17:26:24Z</time>
      </trkpt>
      <trkpt lat="46.30996" lon="5.48273">
        <ele>476.6</ele>
        <time>2022-02-24T17:26:25Z</time>
      </trkpt>
      <trkpt lat="46.31001" lon="5.48271">
        <ele>476.8</ele>
        <time>2022-02-24T17:26:26Z</time>
      </trkpt>
      <trkpt lat="46.31007" lon="5.4827">
        <ele>476.8</ele>
        <time>2022-02-24T17:26:27Z</time>
      </trkpt>
      <trkpt lat="46.31012" lon="5.48269">
        <ele>477</ele>
        <time>2022-02-24T17:26:28Z</time>
      </trkpt>
      <trkpt lat="46.31018" lon="5.48269">
        <ele>477</ele>
        <time>2022-02-24T17:26:29Z</time>
      </trkpt>
      <trkpt lat="46.31024" lon="5.4827">
        <ele>477</ele>
        <time>2022-02-24T17:26:30Z</time>
      </trkpt>
      <trkpt lat="46.3103" lon="5.48271">
        <ele>477.2</ele>
        <time>2022-02-24T17:26:31Z</time>
      </trkpt>
      <trkpt lat="46.31035" lon="5.48273">
        <ele>477.6</ele>
        <time>2022-02-24T17:26:32Z</time>
      </trkpt>
      <trkpt lat="46.3104" lon="5.48275">
        <ele>477.8</ele>
        <time>2022-02-24T17:26:33Z</time>
      </trkpt>
      <trkpt lat="46.31045" lon="5.48277">
        <ele>477.8</ele>
        <time>2022-02-24T17:26:34Z</time>
      </trkpt>
      <trkpt lat="46.3105" lon="5.48278">
        <ele>478</ele>
        <time>2022-02-24T17:26:35Z</time>
      </trkpt>
      <trkpt lat="46.31055" lon="5.4828">
        <ele>478</ele>
        <time>2022-02-24T17:26:36Z</time>
      </trkpt>
      <trkpt lat="46.3106" lon="5.48281">
        <ele>478</ele>
        <time>2022-02-24T17:26:37Z</time>
      </trkpt>
      <trkpt lat="46.31065" lon="5.48282">
        <ele>478</ele>
        <time>2022-02-24T17:26:38Z</time>
      </trkpt>
      <trkpt lat="46.31071" lon="5.48282">
        <ele>478</ele>
        <time>2022-02-24T17:26:39Z</time>
      </trkpt>
      <trkpt lat="46.31076" lon="5.48283">
        <ele>478.2</ele>
        <time>2022-02-24T17:26:40Z</time>
      </trkpt>
      <trkpt lat="46.31082" lon="5.48283">
        <ele>478.2</ele>
        <time>2022-02-24T17:26:41Z</time>
      </trkpt>
      <trkpt lat="46.31088" lon="5.48282">
        <ele>478.2</ele>
        <time>2022-02-24T17:26:42Z</time>
      </trkpt>
      <trkpt lat="46.31094" lon="5.4828">
        <ele>478.2</ele>
        <time>2022-02-24T17:26:43Z</time>
      </trkpt>
      <trkpt lat="46.311" lon="5.48278">
        <ele>478.2</ele>
        <time>2022-02-24T17:26:44Z</time>
      </trkpt>
      <trkpt lat="46.31106" lon="5.48275">
        <ele>478.2</ele>
        <time>2022-02-24T17:26:45Z</time>
      </trkpt>
      <trkpt lat="46.31111" lon="5.48272">
        <ele>478.2</ele>
        <time>2022-02-24T17:26:46Z</time>
      </trkpt>
      <trkpt lat="46.31117" lon="5.48269">
        <ele>478.2</ele>
        <time>2022-02-24T17:26:47Z</time>
      </trkpt>
      <trkpt lat="46.31123" lon="5.48265">
        <ele>478.2</ele>
        <time>2022-02-24T17:26:48Z</time>
      </trkpt>
      <trkpt lat="46.31128" lon="5.48261">
        <ele>478.2</ele>
        <time>2022-02-24T17:26:49Z</time>
      </trkpt>
      <trkpt lat="46.31134" lon="5.48257">
        <ele>478.2</ele>
        <time>2022-02-24T17:26:50Z</time>
      </trkpt>
      <trkpt lat="46.3114" lon="5.48253">
        <ele>478.2</ele>
        <time>2022-02-24T17:26:51Z</time>
      </trkpt>
      <trkpt lat="46.31145" lon="5.48249">
        <ele>478.4</ele>
        <time>2022-02-24T17:26:52Z</time>
      </trkpt>
      <trkpt lat="46.3115" lon="5.48244">
        <ele>478.4</ele>
        <time>2022-02-24T17:26:53Z</time>
      </trkpt>
      <trkpt lat="46.31156" lon="5.4824">
        <ele>478.4</ele>
        <time>2022-02-24T17:26:54Z</time>
      </trkpt>
      <trkpt lat="46.31161" lon="5.48235">
        <ele>478.4</ele>
        <time>2022-02-24T17:26:55Z</time>
      </trkpt>
      <trkpt lat="46.31172" lon="5.48226">
        <ele>478.4</ele>
        <time>2022-02-24T17:26:56Z</time>
      </trkpt>
      <trkpt lat="46.31177" lon="5.48223">
        <ele>478.4</ele>
        <time>2022-02-24T17:26:57Z</time>
      </trkpt>
      <trkpt lat="46.31184" lon="5.48221">
        <ele>478.4</ele>
        <time>2022-02-24T17:26:58Z</time>
      </trkpt>
      <trkpt lat="46.3119" lon="5.48219">
        <ele>478.4</ele>
        <time>2022-02-24T17:26:59Z</time>
      </trkpt>
      <trkpt lat="46.31197" lon="5.48218">
        <ele>478.4</ele>
        <time>2022-02-24T17:27:00Z</time>
      </trkpt>
      <trkpt lat="46.31204" lon="5.48219">
        <ele>478.4</ele>
        <time>2022-02-24T17:27:01Z</time>
      </trkpt>
      <trkpt lat="46.3121" lon="5.4822">
        <ele>478.4</ele>
        <time>2022-02-24T17:27:02Z</time>
      </trkpt>
      <trkpt lat="46.31217" lon="5.48222">
        <ele>478.4</ele>
        <time>2022-02-24T17:27:03Z</time>
      </trkpt>
      <trkpt lat="46.31223" lon="5.48224">
        <ele>478.4</ele>
        <time>2022-02-24T17:27:04Z</time>
      </trkpt>
      <trkpt lat="46.31229" lon="5.48226">
        <ele>478.4</ele>
        <time>2022-02-24T17:27:05Z</time>
      </trkpt>
      <trkpt lat="46.31235" lon="5.48228">
        <ele>478.4</ele>
        <time>2022-02-24T17:27:06Z</time>
      </trkpt>
      <trkpt lat="46.31242" lon="5.48231">
        <ele>478.4</ele>
        <time>2022-02-24T17:27:07Z</time>
      </trkpt>
      <trkpt lat="46.31248" lon="5.48233">
        <ele>478.4</ele>
        <time>2022-02-24T17:27:08Z</time>
      </trkpt>
      <trkpt lat="46.31254" lon="5.48236">
        <ele>478.2</ele>
        <time>2022-02-24T17:27:09Z</time>
      </trkpt>
      <trkpt lat="46.3126" lon="5.48238">
        <ele>478.2</ele>
        <time>2022-02-24T17:27:10Z</time>
      </trkpt>
      <trkpt lat="46.31266" lon="5.48241">
        <ele>478.2</ele>
        <time>2022-02-24T17:27:11Z</time>
      </trkpt>
      <trkpt lat="46.31272" lon="5.48244">
        <ele>478.2</ele>
        <time>2022-02-24T17:27:12Z</time>
      </trkpt>
      <trkpt lat="46.31278" lon="5.48247">
        <ele>478.2</ele>
        <time>2022-02-24T17:27:13Z</time>
      </trkpt>
      <trkpt lat="46.31283" lon="5.48249">
        <ele>478.2</ele>
        <time>2022-02-24T17:27:14Z</time>
      </trkpt>
      <trkpt lat="46.31289" lon="5.48252">
        <ele>478.4</ele>
        <time>2022-02-24T17:27:15Z</time>
      </trkpt>
      <trkpt lat="46.31294" lon="5.48254">
        <ele>478.4</ele>
        <time>2022-02-24T17:27:16Z</time>
      </trkpt>
      <trkpt lat="46.313" lon="5.48257">
        <ele>478.4</ele>
        <time>2022-02-24T17:27:17Z</time>
      </trkpt>
      <trkpt lat="46.31306" lon="5.48261">
        <ele>478.4</ele>
        <time>2022-02-24T17:27:18Z</time>
      </trkpt>
      <trkpt lat="46.31312" lon="5.48264">
        <ele>478.6</ele>
        <time>2022-02-24T17:27:19Z</time>
      </trkpt>
      <trkpt lat="46.31318" lon="5.48268">
        <ele>478.6</ele>
        <time>2022-02-24T17:27:20Z</time>
      </trkpt>
      <trkpt lat="46.31323" lon="5.48272">
        <ele>478.6</ele>
        <time>2022-02-24T17:27:21Z</time>
      </trkpt>
      <trkpt lat="46.31328" lon="5.48277">
        <ele>479</ele>
        <time>2022-02-24T17:27:22Z</time>
      </trkpt>
      <trkpt lat="46.31332" lon="5.48283">
        <ele>479</ele>
        <time>2022-02-24T17:27:23Z</time>
      </trkpt>
      <trkpt lat="46.31336" lon="5.48289">
        <ele>479</ele>
        <time>2022-02-24T17:27:24Z</time>
      </trkpt>
      <trkpt lat="46.3134" lon="5.48297">
        <ele>479</ele>
        <time>2022-02-24T17:27:25Z</time>
      </trkpt>
      <trkpt lat="46.31344" lon="5.48304">
        <ele>479</ele>
        <time>2022-02-24T17:27:26Z</time>
      </trkpt>
      <trkpt lat="46.31347" lon="5.48312">
        <ele>479</ele>
        <time>2022-02-24T17:27:27Z</time>
      </trkpt>
      <trkpt lat="46.31351" lon="5.48319">
        <ele>479</ele>
        <time>2022-02-24T17:27:28Z</time>
      </trkpt>
      <trkpt lat="46.31355" lon="5.48326">
        <ele>479</ele>
        <time>2022-02-24T17:27:29Z</time>
      </trkpt>
      <trkpt lat="46.31359" lon="5.48333">
        <ele>478.6</ele>
        <time>2022-02-24T17:27:30Z</time>
      </trkpt>
      <trkpt lat="46.31363" lon="5.48341">
        <ele>478.6</ele>
        <time>2022-02-24T17:27:31Z</time>
      </trkpt>
      <trkpt lat="46.31367" lon="5.48348">
        <ele>478.6</ele>
        <time>2022-02-24T17:27:32Z</time>
      </trkpt>
      <trkpt lat="46.3137" lon="5.48355">
        <ele>478.6</ele>
        <time>2022-02-24T17:27:33Z</time>
      </trkpt>
      <trkpt lat="46.31374" lon="5.48362">
        <ele>478.6</ele>
        <time>2022-02-24T17:27:34Z</time>
      </trkpt>
      <trkpt lat="46.31377" lon="5.48369">
        <ele>478.6</ele>
        <time>2022-02-24T17:27:35Z</time>
      </trkpt>
      <trkpt lat="46.31381" lon="5.48376">
        <ele>478.6</ele>
        <time>2022-02-24T17:27:36Z</time>
      </trkpt>
      <trkpt lat="46.31385" lon="5.48382">
        <ele>479</ele>
        <time>2022-02-24T17:27:37Z</time>
      </trkpt>
      <trkpt lat="46.31388" lon="5.48389">
        <ele>479</ele>
        <time>2022-02-24T17:27:38Z</time>
      </trkpt>
      <trkpt lat="46.31392" lon="5.48396">
        <ele>479.2</ele>
        <time>2022-02-24T17:27:39Z</time>
      </trkpt>
      <trkpt lat="46.31396" lon="5.48402">
        <ele>479.2</ele>
        <time>2022-02-24T17:27:40Z</time>
      </trkpt>
      <trkpt lat="46.31399" lon="5.48409">
        <ele>479.4</ele>
        <time>2022-02-24T17:27:41Z</time>
      </trkpt>
      <trkpt lat="46.31403" lon="5.48415">
        <ele>479.4</ele>
        <time>2022-02-24T17:27:42Z</time>
      </trkpt>
      <trkpt lat="46.31406" lon="5.48421">
        <ele>479.4</ele>
        <time>2022-02-24T17:27:43Z</time>
      </trkpt>
      <trkpt lat="46.3141" lon="5.48428">
        <ele>479.4</ele>
        <time>2022-02-24T17:27:44Z</time>
      </trkpt>
      <trkpt lat="46.31413" lon="5.48435">
        <ele>479.4</ele>
        <time>2022-02-24T17:27:45Z</time>
      </trkpt>
      <trkpt lat="46.31417" lon="5.48442">
        <ele>479.4</ele>
        <time>2022-02-24T17:27:46Z</time>
      </trkpt>
      <trkpt lat="46.3142" lon="5.48449">
        <ele>479.4</ele>
        <time>2022-02-24T17:27:47Z</time>
      </trkpt>
      <trkpt lat="46.31424" lon="5.48455">
        <ele>479.6</ele>
        <time>2022-02-24T17:27:48Z</time>
      </trkpt>
      <trkpt lat="46.31427" lon="5.48462">
        <ele>479.6</ele>
        <time>2022-02-24T17:27:49Z</time>
      </trkpt>
      <trkpt lat="46.3143" lon="5.48469">
        <ele>479.6</ele>
        <time>2022-02-24T17:27:50Z</time>
      </trkpt>
      <trkpt lat="46.31434" lon="5.48476">
        <ele>479.6</ele>
        <time>2022-02-24T17:27:51Z</time>
      </trkpt>
      <trkpt lat="46.31437" lon="5.48482">
        <ele>480</ele>
        <time>2022-02-24T17:27:52Z</time>
      </trkpt>
      <trkpt lat="46.3144" lon="5.48489">
        <ele>480</ele>
        <time>2022-02-24T17:27:53Z</time>
      </trkpt>
      <trkpt lat="46.31444" lon="5.48495">
        <ele>480.2</ele>
        <time>2022-02-24T17:27:54Z</time>
      </trkpt>
      <trkpt lat="46.31447" lon="5.485">
        <ele>480.2</ele>
        <time>2022-02-24T17:27:55Z</time>
      </trkpt>
      <trkpt lat="46.31451" lon="5.48506">
        <ele>480.2</ele>
        <time>2022-02-24T17:27:56Z</time>
      </trkpt>
      <trkpt lat="46.31455" lon="5.48512">
        <ele>480.6</ele>
        <time>2022-02-24T17:27:57Z</time>
      </trkpt>
      <trkpt lat="46.31458" lon="5.48517">
        <ele>480.6</ele>
        <time>2022-02-24T17:27:58Z</time>
      </trkpt>
      <trkpt lat="46.31462" lon="5.48523">
        <ele>480.8</ele>
        <time>2022-02-24T17:27:59Z</time>
      </trkpt>
      <trkpt lat="46.31467" lon="5.48528">
        <ele>480.8</ele>
        <time>2022-02-24T17:28:00Z</time>
      </trkpt>
      <trkpt lat="46.31471" lon="5.48533">
        <ele>481</ele>
        <time>2022-02-24T17:28:01Z</time>
      </trkpt>
      <trkpt lat="46.31476" lon="5.48538">
        <ele>481</ele>
        <time>2022-02-24T17:28:02Z</time>
      </trkpt>
      <trkpt lat="46.31481" lon="5.48542">
        <ele>481</ele>
        <time>2022-02-24T17:28:03Z</time>
      </trkpt>
      <trkpt lat="46.31486" lon="5.48546">
        <ele>481</ele>
        <time>2022-02-24T17:28:04Z</time>
      </trkpt>
      <trkpt lat="46.31492" lon="5.48549">
        <ele>481</ele>
        <time>2022-02-24T17:28:05Z</time>
      </trkpt>
      <trkpt lat="46.31498" lon="5.48552">
        <ele>481</ele>
        <time>2022-02-24T17:28:06Z</time>
      </trkpt>
      <trkpt lat="46.31503" lon="5.48555">
        <ele>481</ele>
        <time>2022-02-24T17:28:07Z</time>
      </trkpt>
      <trkpt lat="46.31509" lon="5.48558">
        <ele>481</ele>
        <time>2022-02-24T17:28:08Z</time>
      </trkpt>
      <trkpt lat="46.31514" lon="5.48561">
        <ele>481</ele>
        <time>2022-02-24T17:28:09Z</time>
      </trkpt>
      <trkpt lat="46.3152" lon="5.48563">
        <ele>481</ele>
        <time>2022-02-24T17:28:10Z</time>
      </trkpt>
      <trkpt lat="46.31526" lon="5.48565">
        <ele>481</ele>
        <time>2022-02-24T17:28:11Z</time>
      </trkpt>
      <trkpt lat="46.31532" lon="5.48567">
        <ele>481.2</ele>
        <time>2022-02-24T17:28:12Z</time>
      </trkpt>
      <trkpt lat="46.31538" lon="5.48568">
        <ele>481.2</ele>
        <time>2022-02-24T17:28:13Z</time>
      </trkpt>
      <trkpt lat="46.31544" lon="5.4857">
        <ele>481.2</ele>
        <time>2022-02-24T17:28:14Z</time>
      </trkpt>
      <trkpt lat="46.3155" lon="5.48572">
        <ele>481.2</ele>
        <time>2022-02-24T17:28:15Z</time>
      </trkpt>
      <trkpt lat="46.31556" lon="5.48574">
        <ele>481.2</ele>
        <time>2022-02-24T17:28:16Z</time>
      </trkpt>
      <trkpt lat="46.31562" lon="5.48576">
        <ele>481.2</ele>
        <time>2022-02-24T17:28:17Z</time>
      </trkpt>
      <trkpt lat="46.31568" lon="5.48578">
        <ele>481.2</ele>
        <time>2022-02-24T17:28:18Z</time>
      </trkpt>
      <trkpt lat="46.31574" lon="5.48581">
        <ele>481.2</ele>
        <time>2022-02-24T17:28:19Z</time>
      </trkpt>
      <trkpt lat="46.31579" lon="5.48584">
        <ele>481.2</ele>
        <time>2022-02-24T17:28:20Z</time>
      </trkpt>
      <trkpt lat="46.31585" lon="5.48586">
        <ele>481.2</ele>
        <time>2022-02-24T17:28:21Z</time>
      </trkpt>
      <trkpt lat="46.31591" lon="5.48588">
        <ele>481.2</ele>
        <time>2022-02-24T17:28:22Z</time>
      </trkpt>
      <trkpt lat="46.31596" lon="5.4859">
        <ele>481.2</ele>
        <time>2022-02-24T17:28:23Z</time>
      </trkpt>
      <trkpt lat="46.31602" lon="5.48592">
        <ele>481.2</ele>
        <time>2022-02-24T17:28:24Z</time>
      </trkpt>
      <trkpt lat="46.31607" lon="5.48595">
        <ele>481.2</ele>
        <time>2022-02-24T17:28:25Z</time>
      </trkpt>
      <trkpt lat="46.31613" lon="5.48597">
        <ele>481.2</ele>
        <time>2022-02-24T17:28:26Z</time>
      </trkpt>
      <trkpt lat="46.31618" lon="5.48598">
        <ele>481.2</ele>
        <time>2022-02-24T17:28:27Z</time>
      </trkpt>
      <trkpt lat="46.31624" lon="5.486">
        <ele>481.6</ele>
        <time>2022-02-24T17:28:28Z</time>
      </trkpt>
      <trkpt lat="46.31629" lon="5.48602">
        <ele>481.6</ele>
        <time>2022-02-24T17:28:29Z</time>
      </trkpt>
      <trkpt lat="46.31635" lon="5.48604">
        <ele>481.8</ele>
        <time>2022-02-24T17:28:30Z</time>
      </trkpt>
      <trkpt lat="46.3164" lon="5.48605">
        <ele>481.8</ele>
        <time>2022-02-24T17:28:31Z</time>
      </trkpt>
      <trkpt lat="46.31646" lon="5.48606">
        <ele>481.8</ele>
        <time>2022-02-24T17:28:32Z</time>
      </trkpt>
      <trkpt lat="46.31651" lon="5.48607">
        <ele>482</ele>
        <time>2022-02-24T17:28:33Z</time>
      </trkpt>
      <trkpt lat="46.31657" lon="5.48607">
        <ele>482</ele>
        <time>2022-02-24T17:28:34Z</time>
      </trkpt>
      <trkpt lat="46.31662" lon="5.48606">
        <ele>482.2</ele>
        <time>2022-02-24T17:28:35Z</time>
      </trkpt>
      <trkpt lat="46.31668" lon="5.48606">
        <ele>482.2</ele>
        <time>2022-02-24T17:28:36Z</time>
      </trkpt>
      <trkpt lat="46.31673" lon="5.48606">
        <ele>482.2</ele>
        <time>2022-02-24T17:28:37Z</time>
      </trkpt>
      <trkpt lat="46.31678" lon="5.48606">
        <ele>482.6</ele>
        <time>2022-02-24T17:28:38Z</time>
      </trkpt>
      <trkpt lat="46.31683" lon="5.48605">
        <ele>482.6</ele>
        <time>2022-02-24T17:28:39Z</time>
      </trkpt>
      <trkpt lat="46.31688" lon="5.48606">
        <ele>482.8</ele>
        <time>2022-02-24T17:28:40Z</time>
      </trkpt>
      <trkpt lat="46.31693" lon="5.48606">
        <ele>482.8</ele>
        <time>2022-02-24T17:28:41Z</time>
      </trkpt>
      <trkpt lat="46.31698" lon="5.48606">
        <ele>483.2</ele>
        <time>2022-02-24T17:28:42Z</time>
      </trkpt>
      <trkpt lat="46.31702" lon="5.48607">
        <ele>483.2</ele>
        <time>2022-02-24T17:28:43Z</time>
      </trkpt>
      <trkpt lat="46.31707" lon="5.48607">
        <ele>483.4</ele>
        <time>2022-02-24T17:28:44Z</time>
      </trkpt>
      <trkpt lat="46.31712" lon="5.48607">
        <ele>483.4</ele>
        <time>2022-02-24T17:28:45Z</time>
      </trkpt>
      <trkpt lat="46.31716" lon="5.48607">
        <ele>483.8</ele>
        <time>2022-02-24T17:28:46Z</time>
      </trkpt>
      <trkpt lat="46.31721" lon="5.48608">
        <ele>483.8</ele>
        <time>2022-02-24T17:28:47Z</time>
      </trkpt>
      <trkpt lat="46.31726" lon="5.48608">
        <ele>484</ele>
        <time>2022-02-24T17:28:48Z</time>
      </trkpt>
      <trkpt lat="46.3173" lon="5.48609">
        <ele>484.2</ele>
        <time>2022-02-24T17:28:49Z</time>
      </trkpt>
      <trkpt lat="46.31735" lon="5.48609">
        <ele>484.2</ele>
        <time>2022-02-24T17:28:50Z</time>
      </trkpt>
      <trkpt lat="46.3174" lon="5.48609">
        <ele>484.6</ele>
        <time>2022-02-24T17:28:51Z</time>
      </trkpt>
      <trkpt lat="46.31745" lon="5.4861">
        <ele>484.6</ele>
        <time>2022-02-24T17:28:52Z</time>
      </trkpt>
      <trkpt lat="46.31749" lon="5.48611">
        <ele>484.6</ele>
        <time>2022-02-24T17:28:53Z</time>
      </trkpt>
      <trkpt lat="46.31754" lon="5.48612">
        <ele>484.8</ele>
        <time>2022-02-24T17:28:54Z</time>
      </trkpt>
      <trkpt lat="46.31758" lon="5.48614">
        <ele>484.8</ele>
        <time>2022-02-24T17:28:55Z</time>
      </trkpt>
      <trkpt lat="46.31763" lon="5.48615">
        <ele>485</ele>
        <time>2022-02-24T17:28:56Z</time>
      </trkpt>
      <trkpt lat="46.31767" lon="5.48617">
        <ele>485</ele>
        <time>2022-02-24T17:28:57Z</time>
      </trkpt>
      <trkpt lat="46.31771" lon="5.48618">
        <ele>485.2</ele>
        <time>2022-02-24T17:28:58Z</time>
      </trkpt>
      <trkpt lat="46.31775" lon="5.48619">
        <ele>485.2</ele>
        <time>2022-02-24T17:28:59Z</time>
      </trkpt>
      <trkpt lat="46.31779" lon="5.4862">
        <ele>485.6</ele>
        <time>2022-02-24T17:29:00Z</time>
      </trkpt>
      <trkpt lat="46.31782" lon="5.48621">
        <ele>485.6</ele>
        <time>2022-02-24T17:29:01Z</time>
      </trkpt>
      <trkpt lat="46.31786" lon="5.48622">
        <ele>486</ele>
        <time>2022-02-24T17:29:02Z</time>
      </trkpt>
      <trkpt lat="46.3179" lon="5.48624">
        <ele>486.2</ele>
        <time>2022-02-24T17:29:03Z</time>
      </trkpt>
      <trkpt lat="46.31793" lon="5.48626">
        <ele>486.2</ele>
        <time>2022-02-24T17:29:04Z</time>
      </trkpt>
      <trkpt lat="46.31797" lon="5.48628">
        <ele>486.2</ele>
        <time>2022-02-24T17:29:05Z</time>
      </trkpt>
      <trkpt lat="46.31801" lon="5.48631">
        <ele>486.2</ele>
        <time>2022-02-24T17:29:06Z</time>
      </trkpt>
      <trkpt lat="46.31805" lon="5.48634">
        <ele>486.2</ele>
        <time>2022-02-24T17:29:07Z</time>
      </trkpt>
      <trkpt lat="46.3181" lon="5.48637">
        <ele>486.2</ele>
        <time>2022-02-24T17:29:08Z</time>
      </trkpt>
      <trkpt lat="46.31814" lon="5.48639">
        <ele>486.2</ele>
        <time>2022-02-24T17:29:09Z</time>
      </trkpt>
      <trkpt lat="46.31819" lon="5.48642">
        <ele>486.2</ele>
        <time>2022-02-24T17:29:10Z</time>
      </trkpt>
      <trkpt lat="46.31823" lon="5.48646">
        <ele>485.8</ele>
        <time>2022-02-24T17:29:11Z</time>
      </trkpt>
      <trkpt lat="46.31828" lon="5.48649">
        <ele>485.8</ele>
        <time>2022-02-24T17:29:12Z</time>
      </trkpt>
      <trkpt lat="46.31834" lon="5.48652">
        <ele>485.8</ele>
        <time>2022-02-24T17:29:13Z</time>
      </trkpt>
      <trkpt lat="46.31839" lon="5.48655">
        <ele>485.6</ele>
        <time>2022-02-24T17:29:14Z</time>
      </trkpt>
      <trkpt lat="46.31845" lon="5.48657">
        <ele>485.6</ele>
        <time>2022-02-24T17:29:15Z</time>
      </trkpt>
      <trkpt lat="46.31852" lon="5.48659">
        <ele>485.4</ele>
        <time>2022-02-24T17:29:16Z</time>
      </trkpt>
      <trkpt lat="46.31858" lon="5.4866">
        <ele>485.4</ele>
        <time>2022-02-24T17:29:17Z</time>
      </trkpt>
      <trkpt lat="46.31864" lon="5.48662">
        <ele>485.4</ele>
        <time>2022-02-24T17:29:18Z</time>
      </trkpt>
      <trkpt lat="46.31871" lon="5.48663">
        <ele>485.4</ele>
        <time>2022-02-24T17:29:19Z</time>
      </trkpt>
      <trkpt lat="46.31877" lon="5.48665">
        <ele>485</ele>
        <time>2022-02-24T17:29:20Z</time>
      </trkpt>
      <trkpt lat="46.31883" lon="5.48667">
        <ele>485</ele>
        <time>2022-02-24T17:29:21Z</time>
      </trkpt>
      <trkpt lat="46.31889" lon="5.48668">
        <ele>485</ele>
        <time>2022-02-24T17:29:22Z</time>
      </trkpt>
      <trkpt lat="46.31896" lon="5.48669">
        <ele>485</ele>
        <time>2022-02-24T17:29:23Z</time>
      </trkpt>
      <trkpt lat="46.31902" lon="5.4867">
        <ele>485</ele>
        <time>2022-02-24T17:29:24Z</time>
      </trkpt>
      <trkpt lat="46.31908" lon="5.48672">
        <ele>485</ele>
        <time>2022-02-24T17:29:25Z</time>
      </trkpt>
      <trkpt lat="46.31914" lon="5.48673">
        <ele>485</ele>
        <time>2022-02-24T17:29:26Z</time>
      </trkpt>
      <trkpt lat="46.3192" lon="5.48675">
        <ele>485</ele>
        <time>2022-02-24T17:29:27Z</time>
      </trkpt>
      <trkpt lat="46.31926" lon="5.48676">
        <ele>485</ele>
        <time>2022-02-24T17:29:28Z</time>
      </trkpt>
      <trkpt lat="46.31932" lon="5.48676">
        <ele>485</ele>
        <time>2022-02-24T17:29:29Z</time>
      </trkpt>
      <trkpt lat="46.31938" lon="5.48677">
        <ele>485</ele>
        <time>2022-02-24T17:29:30Z</time>
      </trkpt>
      <trkpt lat="46.31938" lon="5.48677">
        <ele>485</ele>
        <time>2022-02-24T17:29:31Z</time>
      </trkpt>
      <trkpt lat="46.31944" lon="5.48678">
        <ele>485</ele>
        <time>2022-02-24T17:29:32Z</time>
      </trkpt>
      <trkpt lat="46.3195" lon="5.48679">
        <ele>485</ele>
        <time>2022-02-24T17:29:33Z</time>
      </trkpt>
      <trkpt lat="46.31956" lon="5.48679">
        <ele>485</ele>
        <time>2022-02-24T17:29:34Z</time>
      </trkpt>
      <trkpt lat="46.31962" lon="5.4868">
        <ele>485</ele>
        <time>2022-02-24T17:29:35Z</time>
      </trkpt>
      <trkpt lat="46.31968" lon="5.4868">
        <ele>485</ele>
        <time>2022-02-24T17:29:36Z</time>
      </trkpt>
      <trkpt lat="46.31974" lon="5.4868">
        <ele>485</ele>
        <time>2022-02-24T17:29:37Z</time>
      </trkpt>
      <trkpt lat="46.3198" lon="5.4868">
        <ele>485</ele>
        <time>2022-02-24T17:29:38Z</time>
      </trkpt>
      <trkpt lat="46.31986" lon="5.48679">
        <ele>485</ele>
        <time>2022-02-24T17:29:39Z</time>
      </trkpt>
      <trkpt lat="46.31992" lon="5.48678">
        <ele>485</ele>
        <time>2022-02-24T17:29:40Z</time>
      </trkpt>
      <trkpt lat="46.31998" lon="5.48678">
        <ele>485</ele>
        <time>2022-02-24T17:29:41Z</time>
      </trkpt>
      <trkpt lat="46.32003" lon="5.48677">
        <ele>485.2</ele>
        <time>2022-02-24T17:29:42Z</time>
      </trkpt>
      <trkpt lat="46.32009" lon="5.48676">
        <ele>485.2</ele>
        <time>2022-02-24T17:29:43Z</time>
      </trkpt>
      <trkpt lat="46.32015" lon="5.48676">
        <ele>485.2</ele>
        <time>2022-02-24T17:29:44Z</time>
      </trkpt>
      <trkpt lat="46.3202" lon="5.48676">
        <ele>485.2</ele>
        <time>2022-02-24T17:29:45Z</time>
      </trkpt>
      <trkpt lat="46.32026" lon="5.48675">
        <ele>485.2</ele>
        <time>2022-02-24T17:29:46Z</time>
      </trkpt>
      <trkpt lat="46.32032" lon="5.48675">
        <ele>485.2</ele>
        <time>2022-02-24T17:29:47Z</time>
      </trkpt>
      <trkpt lat="46.32038" lon="5.48674">
        <ele>485.2</ele>
        <time>2022-02-24T17:29:48Z</time>
      </trkpt>
      <trkpt lat="46.32043" lon="5.48674">
        <ele>485.2</ele>
        <time>2022-02-24T17:29:49Z</time>
      </trkpt>
      <trkpt lat="46.32049" lon="5.48674">
        <ele>485.4</ele>
        <time>2022-02-24T17:29:50Z</time>
      </trkpt>
      <trkpt lat="46.32054" lon="5.48674">
        <ele>485.4</ele>
        <time>2022-02-24T17:29:51Z</time>
      </trkpt>
      <trkpt lat="46.3206" lon="5.48674">
        <ele>485.4</ele>
        <time>2022-02-24T17:29:52Z</time>
      </trkpt>
      <trkpt lat="46.32065" lon="5.48674">
        <ele>485.4</ele>
        <time>2022-02-24T17:29:53Z</time>
      </trkpt>
      <trkpt lat="46.32071" lon="5.48673">
        <ele>485.4</ele>
        <time>2022-02-24T17:29:54Z</time>
      </trkpt>
      <trkpt lat="46.32076" lon="5.48673">
        <ele>485.6</ele>
        <time>2022-02-24T17:29:55Z</time>
      </trkpt>
      <trkpt lat="46.32082" lon="5.48673">
        <ele>485.6</ele>
        <time>2022-02-24T17:29:56Z</time>
      </trkpt>
      <trkpt lat="46.32087" lon="5.48673">
        <ele>486</ele>
        <time>2022-02-24T17:29:57Z</time>
      </trkpt>
      <trkpt lat="46.32093" lon="5.48673">
        <ele>486</ele>
        <time>2022-02-24T17:29:58Z</time>
      </trkpt>
      <trkpt lat="46.32098" lon="5.48673">
        <ele>486</ele>
        <time>2022-02-24T17:29:59Z</time>
      </trkpt>
      <trkpt lat="46.32104" lon="5.48673">
        <ele>486.2</ele>
        <time>2022-02-24T17:30:00Z</time>
      </trkpt>
      <trkpt lat="46.3211" lon="5.48673">
        <ele>486.2</ele>
        <time>2022-02-24T17:30:01Z</time>
      </trkpt>
      <trkpt lat="46.32115" lon="5.48673">
        <ele>486.2</ele>
        <time>2022-02-24T17:30:02Z</time>
      </trkpt>
      <trkpt lat="46.32121" lon="5.48673">
        <ele>486.2</ele>
        <time>2022-02-24T17:30:03Z</time>
      </trkpt>
      <trkpt lat="46.32126" lon="5.48673">
        <ele>486.2</ele>
        <time>2022-02-24T17:30:04Z</time>
      </trkpt>
      <trkpt lat="46.32132" lon="5.48673">
        <ele>486.2</ele>
        <time>2022-02-24T17:30:05Z</time>
      </trkpt>
      <trkpt lat="46.32137" lon="5.48673">
        <ele>486.6</ele>
        <time>2022-02-24T17:30:06Z</time>
      </trkpt>
      <trkpt lat="46.32143" lon="5.48673">
        <ele>486.6</ele>
        <time>2022-02-24T17:30:07Z</time>
      </trkpt>
      <trkpt lat="46.32148" lon="5.48673">
        <ele>486.6</ele>
        <time>2022-02-24T17:30:08Z</time>
      </trkpt>
      <trkpt lat="46.32154" lon="5.48673">
        <ele>486.6</ele>
        <time>2022-02-24T17:30:09Z</time>
      </trkpt>
      <trkpt lat="46.3216" lon="5.48673">
        <ele>486.6</ele>
        <time>2022-02-24T17:30:10Z</time>
      </trkpt>
      <trkpt lat="46.32165" lon="5.48673">
        <ele>486.6</ele>
        <time>2022-02-24T17:30:11Z</time>
      </trkpt>
      <trkpt lat="46.32171" lon="5.48673">
        <ele>486.6</ele>
        <time>2022-02-24T17:30:12Z</time>
      </trkpt>
      <trkpt lat="46.32177" lon="5.48673">
        <ele>486.8</ele>
        <time>2022-02-24T17:30:13Z</time>
      </trkpt>
      <trkpt lat="46.32182" lon="5.48673">
        <ele>486.8</ele>
        <time>2022-02-24T17:30:14Z</time>
      </trkpt>
      <trkpt lat="46.32188" lon="5.48672">
        <ele>486.8</ele>
        <time>2022-02-24T17:30:15Z</time>
      </trkpt>
      <trkpt lat="46.32194" lon="5.48673">
        <ele>486.8</ele>
        <time>2022-02-24T17:30:16Z</time>
      </trkpt>
      <trkpt lat="46.322" lon="5.48673">
        <ele>487</ele>
        <time>2022-02-24T17:30:17Z</time>
      </trkpt>
      <trkpt lat="46.32205" lon="5.48673">
        <ele>487</ele>
        <time>2022-02-24T17:30:18Z</time>
      </trkpt>
      <trkpt lat="46.32211" lon="5.48673">
        <ele>487</ele>
        <time>2022-02-24T17:30:19Z</time>
      </trkpt>
      <trkpt lat="46.32217" lon="5.48673">
        <ele>487</ele>
        <time>2022-02-24T17:30:20Z</time>
      </trkpt>
      <trkpt lat="46.32229" lon="5.48674">
        <ele>487</ele>
        <time>2022-02-24T17:30:21Z</time>
      </trkpt>
      <trkpt lat="46.32235" lon="5.48675">
        <ele>487</ele>
        <time>2022-02-24T17:30:22Z</time>
      </trkpt>
      <trkpt lat="46.32241" lon="5.48675">
        <ele>487</ele>
        <time>2022-02-24T17:30:23Z</time>
      </trkpt>
      <trkpt lat="46.32247" lon="5.48676">
        <ele>487.2</ele>
        <time>2022-02-24T17:30:24Z</time>
      </trkpt>
      <trkpt lat="46.32252" lon="5.48676">
        <ele>487.2</ele>
        <time>2022-02-24T17:30:25Z</time>
      </trkpt>
      <trkpt lat="46.32258" lon="5.48678">
        <ele>487.2</ele>
        <time>2022-02-24T17:30:26Z</time>
      </trkpt>
      <trkpt lat="46.32264" lon="5.48679">
        <ele>487.2</ele>
        <time>2022-02-24T17:30:27Z</time>
      </trkpt>
      <trkpt lat="46.3227" lon="5.48681">
        <ele>487.2</ele>
        <time>2022-02-24T17:30:28Z</time>
      </trkpt>
      <trkpt lat="46.32276" lon="5.48683">
        <ele>487.2</ele>
        <time>2022-02-24T17:30:29Z</time>
      </trkpt>
      <trkpt lat="46.32281" lon="5.48684">
        <ele>487.2</ele>
        <time>2022-02-24T17:30:30Z</time>
      </trkpt>
      <trkpt lat="46.32287" lon="5.48686">
        <ele>487.2</ele>
        <time>2022-02-24T17:30:31Z</time>
      </trkpt>
      <trkpt lat="46.32293" lon="5.48687">
        <ele>487.2</ele>
        <time>2022-02-24T17:30:32Z</time>
      </trkpt>
      <trkpt lat="46.32299" lon="5.48688">
        <ele>487.2</ele>
        <time>2022-02-24T17:30:33Z</time>
      </trkpt>
      <trkpt lat="46.32305" lon="5.48689">
        <ele>487.2</ele>
        <time>2022-02-24T17:30:34Z</time>
      </trkpt>
      <trkpt lat="46.3231" lon="5.48691">
        <ele>487.2</ele>
        <time>2022-02-24T17:30:35Z</time>
      </trkpt>
      <trkpt lat="46.32316" lon="5.48692">
        <ele>487.2</ele>
        <time>2022-02-24T17:30:36Z</time>
      </trkpt>
      <trkpt lat="46.32322" lon="5.48692">
        <ele>487.2</ele>
        <time>2022-02-24T17:30:37Z</time>
      </trkpt>
      <trkpt lat="46.32328" lon="5.48693">
        <ele>487.6</ele>
        <time>2022-02-24T17:30:38Z</time>
      </trkpt>
      <trkpt lat="46.32334" lon="5.48693">
        <ele>487.6</ele>
        <time>2022-02-24T17:30:39Z</time>
      </trkpt>
      <trkpt lat="46.32341" lon="5.48693">
        <ele>487.6</ele>
        <time>2022-02-24T17:30:40Z</time>
      </trkpt>
      <trkpt lat="46.32346" lon="5.48694">
        <ele>487.6</ele>
        <time>2022-02-24T17:30:41Z</time>
      </trkpt>
      <trkpt lat="46.32352" lon="5.48694">
        <ele>487.6</ele>
        <time>2022-02-24T17:30:42Z</time>
      </trkpt>
      <trkpt lat="46.32359" lon="5.48695">
        <ele>487.8</ele>
        <time>2022-02-24T17:30:43Z</time>
      </trkpt>
      <trkpt lat="46.32365" lon="5.48696">
        <ele>487.8</ele>
        <time>2022-02-24T17:30:44Z</time>
      </trkpt>
      <trkpt lat="46.32371" lon="5.48696">
        <ele>487.8</ele>
        <time>2022-02-24T17:30:45Z</time>
      </trkpt>
      <trkpt lat="46.32377" lon="5.48696">
        <ele>487.8</ele>
        <time>2022-02-24T17:30:46Z</time>
      </trkpt>
      <trkpt lat="46.32383" lon="5.48697">
        <ele>487.8</ele>
        <time>2022-02-24T17:30:47Z</time>
      </trkpt>
      <trkpt lat="46.32389" lon="5.48698">
        <ele>487.8</ele>
        <time>2022-02-24T17:30:48Z</time>
      </trkpt>
      <trkpt lat="46.32395" lon="5.48699">
        <ele>487.8</ele>
        <time>2022-02-24T17:30:49Z</time>
      </trkpt>
      <trkpt lat="46.32402" lon="5.48699">
        <ele>487.8</ele>
        <time>2022-02-24T17:30:50Z</time>
      </trkpt>
      <trkpt lat="46.32408" lon="5.487">
        <ele>488</ele>
        <time>2022-02-24T17:30:51Z</time>
      </trkpt>
      <trkpt lat="46.32414" lon="5.48701">
        <ele>488</ele>
        <time>2022-02-24T17:30:52Z</time>
      </trkpt>
      <trkpt lat="46.3242" lon="5.48702">
        <ele>488.2</ele>
        <time>2022-02-24T17:30:53Z</time>
      </trkpt>
      <trkpt lat="46.32427" lon="5.48703">
        <ele>488.2</ele>
        <time>2022-02-24T17:30:54Z</time>
      </trkpt>
      <trkpt lat="46.32433" lon="5.48703">
        <ele>488.2</ele>
        <time>2022-02-24T17:30:55Z</time>
      </trkpt>
      <trkpt lat="46.32439" lon="5.48704">
        <ele>488.2</ele>
        <time>2022-02-24T17:30:56Z</time>
      </trkpt>
      <trkpt lat="46.32446" lon="5.48705">
        <ele>488.2</ele>
        <time>2022-02-24T17:30:57Z</time>
      </trkpt>
      <trkpt lat="46.32452" lon="5.48706">
        <ele>488.2</ele>
        <time>2022-02-24T17:30:58Z</time>
      </trkpt>
      <trkpt lat="46.32458" lon="5.48707">
        <ele>488.2</ele>
        <time>2022-02-24T17:30:59Z</time>
      </trkpt>
      <trkpt lat="46.32464" lon="5.48708">
        <ele>488.4</ele>
        <time>2022-02-24T17:31:00Z</time>
      </trkpt>
      <trkpt lat="46.32471" lon="5.48709">
        <ele>488.4</ele>
        <time>2022-02-24T17:31:01Z</time>
      </trkpt>
      <trkpt lat="46.32477" lon="5.48709">
        <ele>488.4</ele>
        <time>2022-02-24T17:31:02Z</time>
      </trkpt>
      <trkpt lat="46.32483" lon="5.4871">
        <ele>488.6</ele>
        <time>2022-02-24T17:31:03Z</time>
      </trkpt>
      <trkpt lat="46.32489" lon="5.48711">
        <ele>488.6</ele>
        <time>2022-02-24T17:31:04Z</time>
      </trkpt>
      <trkpt lat="46.32495" lon="5.48712">
        <ele>488.6</ele>
        <time>2022-02-24T17:31:05Z</time>
      </trkpt>
      <trkpt lat="46.32501" lon="5.48712">
        <ele>488.6</ele>
        <time>2022-02-24T17:31:06Z</time>
      </trkpt>
      <trkpt lat="46.32507" lon="5.48713">
        <ele>488.6</ele>
        <time>2022-02-24T17:31:07Z</time>
      </trkpt>
      <trkpt lat="46.32513" lon="5.48714">
        <ele>489</ele>
        <time>2022-02-24T17:31:08Z</time>
      </trkpt>
      <trkpt lat="46.32518" lon="5.48715">
        <ele>489</ele>
        <time>2022-02-24T17:31:09Z</time>
      </trkpt>
      <trkpt lat="46.32524" lon="5.48716">
        <ele>489</ele>
        <time>2022-02-24T17:31:10Z</time>
      </trkpt>
      <trkpt lat="46.3253" lon="5.48717">
        <ele>489</ele>
        <time>2022-02-24T17:31:11Z</time>
      </trkpt>
      <trkpt lat="46.32535" lon="5.48719">
        <ele>489.2</ele>
        <time>2022-02-24T17:31:12Z</time>
      </trkpt>
      <trkpt lat="46.32541" lon="5.4872">
        <ele>489.2</ele>
        <time>2022-02-24T17:31:13Z</time>
      </trkpt>
      <trkpt lat="46.32547" lon="5.48721">
        <ele>489.4</ele>
        <time>2022-02-24T17:31:14Z</time>
      </trkpt>
      <trkpt lat="46.32552" lon="5.48723">
        <ele>489.4</ele>
        <time>2022-02-24T17:31:15Z</time>
      </trkpt>
      <trkpt lat="46.32558" lon="5.48725">
        <ele>489.4</ele>
        <time>2022-02-24T17:31:16Z</time>
      </trkpt>
      <trkpt lat="46.32564" lon="5.48726">
        <ele>489.4</ele>
        <time>2022-02-24T17:31:17Z</time>
      </trkpt>
      <trkpt lat="46.32569" lon="5.48728">
        <ele>489.6</ele>
        <time>2022-02-24T17:31:18Z</time>
      </trkpt>
      <trkpt lat="46.32575" lon="5.4873">
        <ele>489.6</ele>
        <time>2022-02-24T17:31:19Z</time>
      </trkpt>
      <trkpt lat="46.3258" lon="5.48732">
        <ele>489.6</ele>
        <time>2022-02-24T17:31:20Z</time>
      </trkpt>
      <trkpt lat="46.32586" lon="5.48733">
        <ele>490</ele>
        <time>2022-02-24T17:31:21Z</time>
      </trkpt>
      <trkpt lat="46.32591" lon="5.48735">
        <ele>490</ele>
        <time>2022-02-24T17:31:22Z</time>
      </trkpt>
      <trkpt lat="46.32597" lon="5.48737">
        <ele>490</ele>
        <time>2022-02-24T17:31:23Z</time>
      </trkpt>
      <trkpt lat="46.32602" lon="5.48738">
        <ele>490.2</ele>
        <time>2022-02-24T17:31:24Z</time>
      </trkpt>
      <trkpt lat="46.32608" lon="5.4874">
        <ele>490.2</ele>
        <time>2022-02-24T17:31:25Z</time>
      </trkpt>
      <trkpt lat="46.32613" lon="5.48742">
        <ele>490.2</ele>
        <time>2022-02-24T17:31:26Z</time>
      </trkpt>
      <trkpt lat="46.32619" lon="5.48743">
        <ele>490.2</ele>
        <time>2022-02-24T17:31:27Z</time>
      </trkpt>
      <trkpt lat="46.32624" lon="5.48745">
        <ele>490.2</ele>
        <time>2022-02-24T17:31:28Z</time>
      </trkpt>
      <trkpt lat="46.3263" lon="5.48747">
        <ele>490.2</ele>
        <time>2022-02-24T17:31:29Z</time>
      </trkpt>
      <trkpt lat="46.32635" lon="5.48749">
        <ele>490.4</ele>
        <time>2022-02-24T17:31:30Z</time>
      </trkpt>
      <trkpt lat="46.32641" lon="5.4875">
        <ele>490.4</ele>
        <time>2022-02-24T17:31:31Z</time>
      </trkpt>
      <trkpt lat="46.32646" lon="5.48752">
        <ele>490.4</ele>
        <time>2022-02-24T17:31:32Z</time>
      </trkpt>
      <trkpt lat="46.32652" lon="5.48754">
        <ele>490.4</ele>
        <time>2022-02-24T17:31:33Z</time>
      </trkpt>
      <trkpt lat="46.32657" lon="5.48755">
        <ele>490.8</ele>
        <time>2022-02-24T17:31:34Z</time>
      </trkpt>
      <trkpt lat="46.32663" lon="5.48757">
        <ele>490.8</ele>
        <time>2022-02-24T17:31:35Z</time>
      </trkpt>
      <trkpt lat="46.32668" lon="5.48758">
        <ele>491</ele>
        <time>2022-02-24T17:31:36Z</time>
      </trkpt>
      <trkpt lat="46.32673" lon="5.4876">
        <ele>491</ele>
        <time>2022-02-24T17:31:37Z</time>
      </trkpt>
      <trkpt lat="46.32679" lon="5.48762">
        <ele>491.2</ele>
        <time>2022-02-24T17:31:38Z</time>
      </trkpt>
      <trkpt lat="46.32684" lon="5.48763">
        <ele>491.2</ele>
        <time>2022-02-24T17:31:39Z</time>
      </trkpt>
      <trkpt lat="46.32689" lon="5.48765">
        <ele>491.2</ele>
        <time>2022-02-24T17:31:40Z</time>
      </trkpt>
      <trkpt lat="46.32695" lon="5.48766">
        <ele>491.2</ele>
        <time>2022-02-24T17:31:41Z</time>
      </trkpt>
      <trkpt lat="46.327" lon="5.48768">
        <ele>491.2</ele>
        <time>2022-02-24T17:31:42Z</time>
      </trkpt>
      <trkpt lat="46.32705" lon="5.4877">
        <ele>491.4</ele>
        <time>2022-02-24T17:31:43Z</time>
      </trkpt>
      <trkpt lat="46.3271" lon="5.48771">
        <ele>491.4</ele>
        <time>2022-02-24T17:31:44Z</time>
      </trkpt>
      <trkpt lat="46.32716" lon="5.48773">
        <ele>491.4</ele>
        <time>2022-02-24T17:31:45Z</time>
      </trkpt>
      <trkpt lat="46.32721" lon="5.48774">
        <ele>491.4</ele>
        <time>2022-02-24T17:31:46Z</time>
      </trkpt>
      <trkpt lat="46.32726" lon="5.48775">
        <ele>491.4</ele>
        <time>2022-02-24T17:31:47Z</time>
      </trkpt>
      <trkpt lat="46.32732" lon="5.48777">
        <ele>491.4</ele>
        <time>2022-02-24T17:31:48Z</time>
      </trkpt>
      <trkpt lat="46.32737" lon="5.48778">
        <ele>491.4</ele>
        <time>2022-02-24T17:31:49Z</time>
      </trkpt>
      <trkpt lat="46.32742" lon="5.4878">
        <ele>491.6</ele>
        <time>2022-02-24T17:31:50Z</time>
      </trkpt>
      <trkpt lat="46.32747" lon="5.48782">
        <ele>491.6</ele>
        <time>2022-02-24T17:31:51Z</time>
      </trkpt>
      <trkpt lat="46.32753" lon="5.48784">
        <ele>492</ele>
        <time>2022-02-24T17:31:52Z</time>
      </trkpt>
      <trkpt lat="46.32758" lon="5.48786">
        <ele>492</ele>
        <time>2022-02-24T17:31:53Z</time>
      </trkpt>
      <trkpt lat="46.32763" lon="5.48788">
        <ele>492.2</ele>
        <time>2022-02-24T17:31:54Z</time>
      </trkpt>
      <trkpt lat="46.32768" lon="5.48789">
        <ele>492.2</ele>
        <time>2022-02-24T17:31:55Z</time>
      </trkpt>
      <trkpt lat="46.32774" lon="5.48791">
        <ele>492.4</ele>
        <time>2022-02-24T17:31:56Z</time>
      </trkpt>
      <trkpt lat="46.3278" lon="5.48793">
        <ele>492.4</ele>
        <time>2022-02-24T17:31:57Z</time>
      </trkpt>
      <trkpt lat="46.32785" lon="5.48795">
        <ele>492.4</ele>
        <time>2022-02-24T17:31:58Z</time>
      </trkpt>
      <trkpt lat="46.3279" lon="5.48797">
        <ele>492.6</ele>
        <time>2022-02-24T17:31:59Z</time>
      </trkpt>
      <trkpt lat="46.32796" lon="5.48799">
        <ele>492.6</ele>
        <time>2022-02-24T17:32:00Z</time>
      </trkpt>
      <trkpt lat="46.32801" lon="5.48801">
        <ele>492.6</ele>
        <time>2022-02-24T17:32:01Z</time>
      </trkpt>
      <trkpt lat="46.32807" lon="5.48803">
        <ele>493</ele>
        <time>2022-02-24T17:32:02Z</time>
      </trkpt>
      <trkpt lat="46.32812" lon="5.48804">
        <ele>493</ele>
        <time>2022-02-24T17:32:03Z</time>
      </trkpt>
      <trkpt lat="46.32818" lon="5.48806">
        <ele>493.2</ele>
        <time>2022-02-24T17:32:04Z</time>
      </trkpt>
      <trkpt lat="46.32823" lon="5.48808">
        <ele>493.2</ele>
        <time>2022-02-24T17:32:05Z</time>
      </trkpt>
      <trkpt lat="46.32828" lon="5.4881">
        <ele>493.2</ele>
        <time>2022-02-24T17:32:06Z</time>
      </trkpt>
      <trkpt lat="46.32834" lon="5.48812">
        <ele>493.6</ele>
        <time>2022-02-24T17:32:07Z</time>
      </trkpt>
      <trkpt lat="46.3284" lon="5.48813">
        <ele>493.6</ele>
        <time>2022-02-24T17:32:08Z</time>
      </trkpt>
      <trkpt lat="46.32845" lon="5.48816">
        <ele>493.8</ele>
        <time>2022-02-24T17:32:09Z</time>
      </trkpt>
      <trkpt lat="46.32851" lon="5.48818">
        <ele>493.8</ele>
        <time>2022-02-24T17:32:10Z</time>
      </trkpt>
      <trkpt lat="46.32856" lon="5.4882">
        <ele>493.8</ele>
        <time>2022-02-24T17:32:11Z</time>
      </trkpt>
      <trkpt lat="46.32862" lon="5.48822">
        <ele>494</ele>
        <time>2022-02-24T17:32:12Z</time>
      </trkpt>
      <trkpt lat="46.32868" lon="5.48824">
        <ele>494</ele>
        <time>2022-02-24T17:32:13Z</time>
      </trkpt>
      <trkpt lat="46.32873" lon="5.48826">
        <ele>494.2</ele>
        <time>2022-02-24T17:32:14Z</time>
      </trkpt>
      <trkpt lat="46.32879" lon="5.48829">
        <ele>494.2</ele>
        <time>2022-02-24T17:32:15Z</time>
      </trkpt>
      <trkpt lat="46.32884" lon="5.48831">
        <ele>494.2</ele>
        <time>2022-02-24T17:32:16Z</time>
      </trkpt>
      <trkpt lat="46.3289" lon="5.48833">
        <ele>494.4</ele>
        <time>2022-02-24T17:32:17Z</time>
      </trkpt>
      <trkpt lat="46.32895" lon="5.48835">
        <ele>494.4</ele>
        <time>2022-02-24T17:32:18Z</time>
      </trkpt>
      <trkpt lat="46.32901" lon="5.48838">
        <ele>494.4</ele>
        <time>2022-02-24T17:32:19Z</time>
      </trkpt>
      <trkpt lat="46.32906" lon="5.4884">
        <ele>494.6</ele>
        <time>2022-02-24T17:32:20Z</time>
      </trkpt>
      <trkpt lat="46.32912" lon="5.48842">
        <ele>494.6</ele>
        <time>2022-02-24T17:32:21Z</time>
      </trkpt>
      <trkpt lat="46.32917" lon="5.48844">
        <ele>494.6</ele>
        <time>2022-02-24T17:32:22Z</time>
      </trkpt>
      <trkpt lat="46.32923" lon="5.48846">
        <ele>494.6</ele>
        <time>2022-02-24T17:32:23Z</time>
      </trkpt>
      <trkpt lat="46.32929" lon="5.48848">
        <ele>494.6</ele>
        <time>2022-02-24T17:32:24Z</time>
      </trkpt>
      <trkpt lat="46.32934" lon="5.4885">
        <ele>494.8</ele>
        <time>2022-02-24T17:32:25Z</time>
      </trkpt>
      <trkpt lat="46.3294" lon="5.48852">
        <ele>494.8</ele>
        <time>2022-02-24T17:32:26Z</time>
      </trkpt>
      <trkpt lat="46.32945" lon="5.48855">
        <ele>495.2</ele>
        <time>2022-02-24T17:32:27Z</time>
      </trkpt>
      <trkpt lat="46.32951" lon="5.48857">
        <ele>495.2</ele>
        <time>2022-02-24T17:32:28Z</time>
      </trkpt>
      <trkpt lat="46.32956" lon="5.48859">
        <ele>495.2</ele>
        <time>2022-02-24T17:32:29Z</time>
      </trkpt>
      <trkpt lat="46.32962" lon="5.48861">
        <ele>495.4</ele>
        <time>2022-02-24T17:32:30Z</time>
      </trkpt>
      <trkpt lat="46.32967" lon="5.48863">
        <ele>495.4</ele>
        <time>2022-02-24T17:32:31Z</time>
      </trkpt>
      <trkpt lat="46.32972" lon="5.48865">
        <ele>495.6</ele>
        <time>2022-02-24T17:32:32Z</time>
      </trkpt>
      <trkpt lat="46.32978" lon="5.48867">
        <ele>495.6</ele>
        <time>2022-02-24T17:32:33Z</time>
      </trkpt>
      <trkpt lat="46.32983" lon="5.48869">
        <ele>495.6</ele>
        <time>2022-02-24T17:32:34Z</time>
      </trkpt>
      <trkpt lat="46.32989" lon="5.48871">
        <ele>495.8</ele>
        <time>2022-02-24T17:32:35Z</time>
      </trkpt>
      <trkpt lat="46.32994" lon="5.48873">
        <ele>495.8</ele>
        <time>2022-02-24T17:32:36Z</time>
      </trkpt>
      <trkpt lat="46.33" lon="5.48875">
        <ele>496</ele>
        <time>2022-02-24T17:32:37Z</time>
      </trkpt>
      <trkpt lat="46.33005" lon="5.48877">
        <ele>496</ele>
        <time>2022-02-24T17:32:38Z</time>
      </trkpt>
      <trkpt lat="46.3301" lon="5.48879">
        <ele>496.2</ele>
        <time>2022-02-24T17:32:39Z</time>
      </trkpt>
      <trkpt lat="46.33016" lon="5.48882">
        <ele>496.2</ele>
        <time>2022-02-24T17:32:40Z</time>
      </trkpt>
      <trkpt lat="46.33021" lon="5.48884">
        <ele>496.2</ele>
        <time>2022-02-24T17:32:41Z</time>
      </trkpt>
      <trkpt lat="46.33026" lon="5.48888">
        <ele>496.4</ele>
        <time>2022-02-24T17:32:42Z</time>
      </trkpt>
      <trkpt lat="46.33031" lon="5.48891">
        <ele>496.4</ele>
        <time>2022-02-24T17:32:43Z</time>
      </trkpt>
      <trkpt lat="46.33036" lon="5.48895">
        <ele>496.4</ele>
        <time>2022-02-24T17:32:44Z</time>
      </trkpt>
      <trkpt lat="46.3304" lon="5.48899">
        <ele>496.6</ele>
        <time>2022-02-24T17:32:45Z</time>
      </trkpt>
      <trkpt lat="46.33045" lon="5.48902">
        <ele>496.6</ele>
        <time>2022-02-24T17:32:46Z</time>
      </trkpt>
      <trkpt lat="46.3305" lon="5.48907">
        <ele>496.6</ele>
        <time>2022-02-24T17:32:47Z</time>
      </trkpt>
      <trkpt lat="46.33054" lon="5.48911">
        <ele>497</ele>
        <time>2022-02-24T17:32:48Z</time>
      </trkpt>
      <trkpt lat="46.33059" lon="5.48914">
        <ele>497</ele>
        <time>2022-02-24T17:32:49Z</time>
      </trkpt>
      <trkpt lat="46.33064" lon="5.48918">
        <ele>497.2</ele>
        <time>2022-02-24T17:32:50Z</time>
      </trkpt>
      <trkpt lat="46.33069" lon="5.48921">
        <ele>497.2</ele>
        <time>2022-02-24T17:32:51Z</time>
      </trkpt>
      <trkpt lat="46.33074" lon="5.48924">
        <ele>497.2</ele>
        <time>2022-02-24T17:32:52Z</time>
      </trkpt>
      <trkpt lat="46.33079" lon="5.48927">
        <ele>497.2</ele>
        <time>2022-02-24T17:32:53Z</time>
      </trkpt>
      <trkpt lat="46.33084" lon="5.4893">
        <ele>497.2</ele>
        <time>2022-02-24T17:32:54Z</time>
      </trkpt>
      <trkpt lat="46.3309" lon="5.48932">
        <ele>497.2</ele>
        <time>2022-02-24T17:32:55Z</time>
      </trkpt>
      <trkpt lat="46.33095" lon="5.48935">
        <ele>497.2</ele>
        <time>2022-02-24T17:32:56Z</time>
      </trkpt>
      <trkpt lat="46.331" lon="5.48938">
        <ele>497.4</ele>
        <time>2022-02-24T17:32:57Z</time>
      </trkpt>
      <trkpt lat="46.33105" lon="5.4894">
        <ele>497.4</ele>
        <time>2022-02-24T17:32:58Z</time>
      </trkpt>
      <trkpt lat="46.3311" lon="5.48942">
        <ele>497.6</ele>
        <time>2022-02-24T17:32:59Z</time>
      </trkpt>
      <trkpt lat="46.33116" lon="5.48944">
        <ele>497.6</ele>
        <time>2022-02-24T17:33:00Z</time>
      </trkpt>
      <trkpt lat="46.33121" lon="5.48946">
        <ele>497.8</ele>
        <time>2022-02-24T17:33:01Z</time>
      </trkpt>
      <trkpt lat="46.33125" lon="5.48948">
        <ele>497.8</ele>
        <time>2022-02-24T17:33:02Z</time>
      </trkpt>
      <trkpt lat="46.3313" lon="5.4895">
        <ele>498.2</ele>
        <time>2022-02-24T17:33:03Z</time>
      </trkpt>
      <trkpt lat="46.33135" lon="5.48952">
        <ele>498.2</ele>
        <time>2022-02-24T17:33:04Z</time>
      </trkpt>
      <trkpt lat="46.3314" lon="5.48954">
        <ele>498.2</ele>
        <time>2022-02-24T17:33:05Z</time>
      </trkpt>
      <trkpt lat="46.33145" lon="5.48957">
        <ele>498.4</ele>
        <time>2022-02-24T17:33:06Z</time>
      </trkpt>
      <trkpt lat="46.3315" lon="5.48959">
        <ele>498.4</ele>
        <time>2022-02-24T17:33:07Z</time>
      </trkpt>
      <trkpt lat="46.33155" lon="5.48961">
        <ele>498.6</ele>
        <time>2022-02-24T17:33:08Z</time>
      </trkpt>
      <trkpt lat="46.3316" lon="5.48963">
        <ele>498.6</ele>
        <time>2022-02-24T17:33:09Z</time>
      </trkpt>
      <trkpt lat="46.33165" lon="5.48966">
        <ele>498.8</ele>
        <time>2022-02-24T17:33:10Z</time>
      </trkpt>
      <trkpt lat="46.3317" lon="5.48968">
        <ele>498.8</ele>
        <time>2022-02-24T17:33:11Z</time>
      </trkpt>
      <trkpt lat="46.33174" lon="5.4897">
        <ele>498.8</ele>
        <time>2022-02-24T17:33:12Z</time>
      </trkpt>
      <trkpt lat="46.33179" lon="5.48972">
        <ele>499</ele>
        <time>2022-02-24T17:33:13Z</time>
      </trkpt>
      <trkpt lat="46.33183" lon="5.48974">
        <ele>499</ele>
        <time>2022-02-24T17:33:14Z</time>
      </trkpt>
      <trkpt lat="46.33187" lon="5.48976">
        <ele>499.4</ele>
        <time>2022-02-24T17:33:15Z</time>
      </trkpt>
      <trkpt lat="46.33191" lon="5.48979">
        <ele>499.6</ele>
        <time>2022-02-24T17:33:16Z</time>
      </trkpt>
      <trkpt lat="46.33195" lon="5.48981">
        <ele>499.6</ele>
        <time>2022-02-24T17:33:17Z</time>
      </trkpt>
      <trkpt lat="46.33198" lon="5.48982">
        <ele>500</ele>
        <time>2022-02-24T17:33:18Z</time>
      </trkpt>
      <trkpt lat="46.33201" lon="5.48984">
        <ele>500</ele>
        <time>2022-02-24T17:33:19Z</time>
      </trkpt>
      <trkpt lat="46.33203" lon="5.48985">
        <ele>500</ele>
        <time>2022-02-24T17:33:20Z</time>
      </trkpt>
      <trkpt lat="46.33204" lon="5.48987">
        <ele>500.2</ele>
        <time>2022-02-24T17:33:21Z</time>
      </trkpt>
      <trkpt lat="46.33206" lon="5.48989">
        <ele>500.2</ele>
        <time>2022-02-24T17:33:22Z</time>
      </trkpt>
      <trkpt lat="46.33206" lon="5.48991">
        <ele>500.2</ele>
        <time>2022-02-24T17:33:23Z</time>
      </trkpt>
      <trkpt lat="46.33207" lon="5.48992">
        <ele>500.2</ele>
        <time>2022-02-24T17:33:24Z</time>
      </trkpt>
      <trkpt lat="46.33208" lon="5.48993">
        <ele>500.2</ele>
        <time>2022-02-24T17:33:25Z</time>
      </trkpt>
      <trkpt lat="46.33214" lon="5.48992">
        <ele>498.6</ele>
        <time>2022-02-24T17:46:13Z</time>
      </trkpt>
      <trkpt lat="46.33215" lon="5.48992">
        <ele>498.6</ele>
        <time>2022-02-24T17:46:14Z</time>
      </trkpt>
      <trkpt lat="46.33217" lon="5.48991">
        <ele>498.6</ele>
        <time>2022-02-24T17:46:15Z</time>
      </trkpt>
      <trkpt lat="46.3322" lon="5.4899">
        <ele>498.6</ele>
        <time>2022-02-24T17:46:16Z</time>
      </trkpt>
      <trkpt lat="46.33222" lon="5.4899">
        <ele>498.6</ele>
        <time>2022-02-24T17:46:17Z</time>
      </trkpt>
      <trkpt lat="46.33225" lon="5.48989">
        <ele>498.6</ele>
        <time>2022-02-24T17:46:18Z</time>
      </trkpt>
      <trkpt lat="46.33228" lon="5.48989">
        <ele>499</ele>
        <time>2022-02-24T17:46:19Z</time>
      </trkpt>
      <trkpt lat="46.33231" lon="5.48989">
        <ele>499</ele>
        <time>2022-02-24T17:46:20Z</time>
      </trkpt>
      <trkpt lat="46.33234" lon="5.48989">
        <ele>499.2</ele>
        <time>2022-02-24T17:46:21Z</time>
      </trkpt>
      <trkpt lat="46.33237" lon="5.48989">
        <ele>499.2</ele>
        <time>2022-02-24T17:46:22Z</time>
      </trkpt>
      <trkpt lat="46.3324" lon="5.48989">
        <ele>499.2</ele>
        <time>2022-02-24T17:46:23Z</time>
      </trkpt>
      <trkpt lat="46.33244" lon="5.48989">
        <ele>499.4</ele>
        <time>2022-02-24T17:46:24Z</time>
      </trkpt>
      <trkpt lat="46.33247" lon="5.48987">
        <ele>499.4</ele>
        <time>2022-02-24T17:46:25Z</time>
      </trkpt>
      <trkpt lat="46.3325" lon="5.48985">
        <ele>499.4</ele>
        <time>2022-02-24T17:46:26Z</time>
      </trkpt>
      <trkpt lat="46.33252" lon="5.48982">
        <ele>499.4</ele>
        <time>2022-02-24T17:46:27Z</time>
      </trkpt>
      <trkpt lat="46.33254" lon="5.48979">
        <ele>499.4</ele>
        <time>2022-02-24T17:46:28Z</time>
      </trkpt>
      <trkpt lat="46.33255" lon="5.48975">
        <ele>499.4</ele>
        <time>2022-02-24T17:46:29Z</time>
      </trkpt>
      <trkpt lat="46.33255" lon="5.4897">
        <ele>499.4</ele>
        <time>2022-02-24T17:46:30Z</time>
      </trkpt>
      <trkpt lat="46.33256" lon="5.48965">
        <ele>499.4</ele>
        <time>2022-02-24T17:46:31Z</time>
      </trkpt>
      <trkpt lat="46.33257" lon="5.4896">
        <ele>499.4</ele>
        <time>2022-02-24T17:46:32Z</time>
      </trkpt>
      <trkpt lat="46.33258" lon="5.48955">
        <ele>499.4</ele>
        <time>2022-02-24T17:46:33Z</time>
      </trkpt>
      <trkpt lat="46.33258" lon="5.4895">
        <ele>499.4</ele>
        <time>2022-02-24T17:46:34Z</time>
      </trkpt>
      <trkpt lat="46.33259" lon="5.48944">
        <ele>499.4</ele>
        <time>2022-02-24T17:46:35Z</time>
      </trkpt>
      <trkpt lat="46.33259" lon="5.48938">
        <ele>499.2</ele>
        <time>2022-02-24T17:46:36Z</time>
      </trkpt>
      <trkpt lat="46.33259" lon="5.48932">
        <ele>499.2</ele>
        <time>2022-02-24T17:46:37Z</time>
      </trkpt>
      <trkpt lat="46.3326" lon="5.48926">
        <ele>499</ele>
        <time>2022-02-24T17:46:38Z</time>
      </trkpt>
      <trkpt lat="46.3326" lon="5.4892">
        <ele>499</ele>
        <time>2022-02-24T17:46:39Z</time>
      </trkpt>
      <trkpt lat="46.33261" lon="5.48914">
        <ele>499</ele>
        <time>2022-02-24T17:46:40Z</time>
      </trkpt>
      <trkpt lat="46.33261" lon="5.48908">
        <ele>498.6</ele>
        <time>2022-02-24T17:46:41Z</time>
      </trkpt>
      <trkpt lat="46.33262" lon="5.48902">
        <ele>498.6</ele>
        <time>2022-02-24T17:46:42Z</time>
      </trkpt>
      <trkpt lat="46.33262" lon="5.48896">
        <ele>498.6</ele>
        <time>2022-02-24T17:46:43Z</time>
      </trkpt>
      <trkpt lat="46.33262" lon="5.4889">
        <ele>498.6</ele>
        <time>2022-02-24T17:46:44Z</time>
      </trkpt>
      <trkpt lat="46.33263" lon="5.48884">
        <ele>498.6</ele>
        <time>2022-02-24T17:46:45Z</time>
      </trkpt>
      <trkpt lat="46.33263" lon="5.48879">
        <ele>498.6</ele>
        <time>2022-02-24T17:46:46Z</time>
      </trkpt>
      <trkpt lat="46.33264" lon="5.48874">
        <ele>498.4</ele>
        <time>2022-02-24T17:46:47Z</time>
      </trkpt>
      <trkpt lat="46.33265" lon="5.48871">
        <ele>498.4</ele>
        <time>2022-02-24T17:46:48Z</time>
      </trkpt>
      <trkpt lat="46.33265" lon="5.48869">
        <ele>498.4</ele>
        <time>2022-02-24T17:46:49Z</time>
      </trkpt>
      <trkpt lat="46.33265" lon="5.48868">
        <ele>498.4</ele>
        <time>2022-02-24T17:46:50Z</time>
      </trkpt>
      <trkpt lat="46.33264" lon="5.48871">
        <ele>498.2</ele>
        <time>2022-02-24T17:46:59Z</time>
      </trkpt>
      <trkpt lat="46.33264" lon="5.48873">
        <ele>498.2</ele>
        <time>2022-02-24T17:47:00Z</time>
      </trkpt>
      <trkpt lat="46.33264" lon="5.48876">
        <ele>498.2</ele>
        <time>2022-02-24T17:47:01Z</time>
      </trkpt>
      <trkpt lat="46.33264" lon="5.48879">
        <ele>498.2</ele>
        <time>2022-02-24T17:47:02Z</time>
      </trkpt>
      <trkpt lat="46.33264" lon="5.48883">
        <ele>498.2</ele>
        <time>2022-02-24T17:47:03Z</time>
      </trkpt>
      <trkpt lat="46.33263" lon="5.48887">
        <ele>498.2</ele>
        <time>2022-02-24T17:47:04Z</time>
      </trkpt>
      <trkpt lat="46.33263" lon="5.48891">
        <ele>498.2</ele>
        <time>2022-02-24T17:47:05Z</time>
      </trkpt>
      <trkpt lat="46.33263" lon="5.48896">
        <ele>498.2</ele>
        <time>2022-02-24T17:47:06Z</time>
      </trkpt>
      <trkpt lat="46.33263" lon="5.48901">
        <ele>498.2</ele>
        <time>2022-02-24T17:47:07Z</time>
      </trkpt>
      <trkpt lat="46.33263" lon="5.48906">
        <ele>498.6</ele>
        <time>2022-02-24T17:47:08Z</time>
      </trkpt>
      <trkpt lat="46.33262" lon="5.48913">
        <ele>498.6</ele>
        <time>2022-02-24T17:47:09Z</time>
      </trkpt>
      <trkpt lat="46.33261" lon="5.48918">
        <ele>498.6</ele>
        <time>2022-02-24T17:47:10Z</time>
      </trkpt>
      <trkpt lat="46.3326" lon="5.48924">
        <ele>498.6</ele>
        <time>2022-02-24T17:47:11Z</time>
      </trkpt>
      <trkpt lat="46.33259" lon="5.48929">
        <ele>498.6</ele>
        <time>2022-02-24T17:47:12Z</time>
      </trkpt>
      <trkpt lat="46.33258" lon="5.48935">
        <ele>498.8</ele>
        <time>2022-02-24T17:47:13Z</time>
      </trkpt>
      <trkpt lat="46.33258" lon="5.4894">
        <ele>498.8</ele>
        <time>2022-02-24T17:47:14Z</time>
      </trkpt>
      <trkpt lat="46.33258" lon="5.48945">
        <ele>498.8</ele>
        <time>2022-02-24T17:47:15Z</time>
      </trkpt>
      <trkpt lat="46.33258" lon="5.48949">
        <ele>499</ele>
        <time>2022-02-24T17:47:16Z</time>
      </trkpt>
      <trkpt lat="46.33258" lon="5.48954">
        <ele>499</ele>
        <time>2022-02-24T17:47:17Z</time>
      </trkpt>
      <trkpt lat="46.3326" lon="5.48958">
        <ele>499.2</ele>
        <time>2022-02-24T17:47:18Z</time>
      </trkpt>
      <trkpt lat="46.33263" lon="5.48961">
        <ele>499.2</ele>
        <time>2022-02-24T17:47:19Z</time>
      </trkpt>
      <trkpt lat="46.33266" lon="5.48964">
        <ele>499.2</ele>
        <time>2022-02-24T17:47:20Z</time>
      </trkpt>
      <trkpt lat="46.3327" lon="5.48965">
        <ele>499.2</ele>
        <time>2022-02-24T17:47:21Z</time>
      </trkpt>
      <trkpt lat="46.33273" lon="5.48967">
        <ele>499.4</ele>
        <time>2022-02-24T17:47:22Z</time>
      </trkpt>
      <trkpt lat="46.33277" lon="5.4897">
        <ele>499.4</ele>
        <time>2022-02-24T17:47:23Z</time>
      </trkpt>
      <trkpt lat="46.33281" lon="5.48972">
        <ele>499.4</ele>
        <time>2022-02-24T17:47:24Z</time>
      </trkpt>
      <trkpt lat="46.33284" lon="5.48975">
        <ele>499.8</ele>
        <time>2022-02-24T17:47:25Z</time>
      </trkpt>
      <trkpt lat="46.33288" lon="5.48979">
        <ele>499.8</ele>
        <time>2022-02-24T17:47:26Z</time>
      </trkpt>
      <trkpt lat="46.33291" lon="5.48983">
        <ele>500.2</ele>
        <time>2022-02-24T17:47:27Z</time>
      </trkpt>
      <trkpt lat="46.33294" lon="5.48987">
        <ele>500.2</ele>
        <time>2022-02-24T17:47:28Z</time>
      </trkpt>
      <trkpt lat="46.33298" lon="5.48991">
        <ele>500.4</ele>
        <time>2022-02-24T17:47:29Z</time>
      </trkpt>
      <trkpt lat="46.33302" lon="5.48995">
        <ele>500.4</ele>
        <time>2022-02-24T17:47:30Z</time>
      </trkpt>
      <trkpt lat="46.33306" lon="5.48999">
        <ele>500.6</ele>
        <time>2022-02-24T17:47:31Z</time>
      </trkpt>
      <trkpt lat="46.3331" lon="5.49003">
        <ele>500.6</ele>
        <time>2022-02-24T17:47:32Z</time>
      </trkpt>
      <trkpt lat="46.33314" lon="5.49007">
        <ele>501</ele>
        <time>2022-02-24T17:47:33Z</time>
      </trkpt>
      <trkpt lat="46.33318" lon="5.49011">
        <ele>501</ele>
        <time>2022-02-24T17:47:34Z</time>
      </trkpt>
      <trkpt lat="46.3332" lon="5.49017">
        <ele>501.2</ele>
        <time>2022-02-24T17:47:35Z</time>
      </trkpt>
      <trkpt lat="46.33323" lon="5.49021">
        <ele>501.2</ele>
        <time>2022-02-24T17:47:36Z</time>
      </trkpt>
      <trkpt lat="46.33327" lon="5.49025">
        <ele>501.2</ele>
        <time>2022-02-24T17:47:37Z</time>
      </trkpt>
      <trkpt lat="46.3333" lon="5.49029">
        <ele>501.6</ele>
        <time>2022-02-24T17:47:38Z</time>
      </trkpt>
      <trkpt lat="46.33334" lon="5.49032">
        <ele>501.6</ele>
        <time>2022-02-24T17:47:39Z</time>
      </trkpt>
      <trkpt lat="46.33339" lon="5.49034">
        <ele>501.6</ele>
        <time>2022-02-24T17:47:40Z</time>
      </trkpt>
      <trkpt lat="46.33344" lon="5.49035">
        <ele>501.6</ele>
        <time>2022-02-24T17:47:41Z</time>
      </trkpt>
      <trkpt lat="46.33349" lon="5.49037">
        <ele>501.6</ele>
        <time>2022-02-24T17:47:42Z</time>
      </trkpt>
      <trkpt lat="46.33355" lon="5.49039">
        <ele>501.6</ele>
        <time>2022-02-24T17:47:43Z</time>
      </trkpt>
      <trkpt lat="46.3336" lon="5.49041">
        <ele>501.8</ele>
        <time>2022-02-24T17:47:44Z</time>
      </trkpt>
      <trkpt lat="46.33365" lon="5.49044">
        <ele>501.8</ele>
        <time>2022-02-24T17:47:45Z</time>
      </trkpt>
      <trkpt lat="46.33369" lon="5.49049">
        <ele>501.8</ele>
        <time>2022-02-24T17:47:46Z</time>
      </trkpt>
      <trkpt lat="46.33373" lon="5.49055">
        <ele>501.8</ele>
        <time>2022-02-24T17:47:47Z</time>
      </trkpt>
      <trkpt lat="46.33376" lon="5.49063">
        <ele>501.6</ele>
        <time>2022-02-24T17:47:48Z</time>
      </trkpt>
      <trkpt lat="46.33379" lon="5.4907">
        <ele>501.6</ele>
        <time>2022-02-24T17:47:49Z</time>
      </trkpt>
      <trkpt lat="46.33382" lon="5.49077">
        <ele>501.2</ele>
        <time>2022-02-24T17:47:50Z</time>
      </trkpt>
      <trkpt lat="46.33386" lon="5.49083">
        <ele>501.2</ele>
        <time>2022-02-24T17:47:51Z</time>
      </trkpt>
      <trkpt lat="46.33391" lon="5.49088">
        <ele>501.2</ele>
        <time>2022-02-24T17:47:52Z</time>
      </trkpt>
      <trkpt lat="46.33397" lon="5.49091">
        <ele>501</ele>
        <time>2022-02-24T17:47:53Z</time>
      </trkpt>
      <trkpt lat="46.33402" lon="5.49094">
        <ele>501</ele>
        <time>2022-02-24T17:47:54Z</time>
      </trkpt>
      <trkpt lat="46.33408" lon="5.49098">
        <ele>501</ele>
        <time>2022-02-24T17:47:55Z</time>
      </trkpt>
      <trkpt lat="46.33414" lon="5.49101">
        <ele>501</ele>
        <time>2022-02-24T17:47:56Z</time>
      </trkpt>
      <trkpt lat="46.3342" lon="5.49103">
        <ele>501</ele>
        <time>2022-02-24T17:47:57Z</time>
      </trkpt>
      <trkpt lat="46.33426" lon="5.49106">
        <ele>501</ele>
        <time>2022-02-24T17:47:58Z</time>
      </trkpt>
      <trkpt lat="46.33432" lon="5.49109">
        <ele>501</ele>
        <time>2022-02-24T17:47:59Z</time>
      </trkpt>
      <trkpt lat="46.33438" lon="5.49112">
        <ele>501</ele>
        <time>2022-02-24T17:48:00Z</time>
      </trkpt>
      <trkpt lat="46.33444" lon="5.49115">
        <ele>501</ele>
        <time>2022-02-24T17:48:01Z</time>
      </trkpt>
      <trkpt lat="46.3345" lon="5.49118">
        <ele>501</ele>
        <time>2022-02-24T17:48:02Z</time>
      </trkpt>
      <trkpt lat="46.33456" lon="5.4912">
        <ele>501.4</ele>
        <time>2022-02-24T17:48:03Z</time>
      </trkpt>
      <trkpt lat="46.33462" lon="5.49122">
        <ele>501.4</ele>
        <time>2022-02-24T17:48:04Z</time>
      </trkpt>
      <trkpt lat="46.33468" lon="5.49124">
        <ele>501.4</ele>
        <time>2022-02-24T17:48:05Z</time>
      </trkpt>
      <trkpt lat="46.33474" lon="5.49125">
        <ele>501.4</ele>
        <time>2022-02-24T17:48:06Z</time>
      </trkpt>
      <trkpt lat="46.3348" lon="5.49126">
        <ele>501.6</ele>
        <time>2022-02-24T17:48:07Z</time>
      </trkpt>
      <trkpt lat="46.33485" lon="5.49127">
        <ele>501.6</ele>
        <time>2022-02-24T17:48:08Z</time>
      </trkpt>
      <trkpt lat="46.33491" lon="5.49128">
        <ele>501.6</ele>
        <time>2022-02-24T17:48:09Z</time>
      </trkpt>
      <trkpt lat="46.33496" lon="5.49129">
        <ele>501.8</ele>
        <time>2022-02-24T17:48:10Z</time>
      </trkpt>
      <trkpt lat="46.33502" lon="5.4913">
        <ele>501.8</ele>
        <time>2022-02-24T17:48:11Z</time>
      </trkpt>
      <trkpt lat="46.33507" lon="5.49131">
        <ele>501.8</ele>
        <time>2022-02-24T17:48:12Z</time>
      </trkpt>
      <trkpt lat="46.33513" lon="5.49132">
        <ele>502.2</ele>
        <time>2022-02-24T17:48:13Z</time>
      </trkpt>
      <trkpt lat="46.33518" lon="5.49133">
        <ele>502.2</ele>
        <time>2022-02-24T17:48:14Z</time>
      </trkpt>
      <trkpt lat="46.33524" lon="5.49134">
        <ele>502.2</ele>
        <time>2022-02-24T17:48:15Z</time>
      </trkpt>
      <trkpt lat="46.3353" lon="5.49135">
        <ele>502.4</ele>
        <time>2022-02-24T17:48:16Z</time>
      </trkpt>
      <trkpt lat="46.33535" lon="5.49137">
        <ele>502.4</ele>
        <time>2022-02-24T17:48:17Z</time>
      </trkpt>
      <trkpt lat="46.33541" lon="5.49138">
        <ele>502.4</ele>
        <time>2022-02-24T17:48:18Z</time>
      </trkpt>
      <trkpt lat="46.33546" lon="5.49139">
        <ele>502.8</ele>
        <time>2022-02-24T17:48:19Z</time>
      </trkpt>
      <trkpt lat="46.33552" lon="5.4914">
        <ele>502.8</ele>
        <time>2022-02-24T17:48:20Z</time>
      </trkpt>
      <trkpt lat="46.33557" lon="5.49141">
        <ele>503</ele>
        <time>2022-02-24T17:48:21Z</time>
      </trkpt>
      <trkpt lat="46.33563" lon="5.49142">
        <ele>503</ele>
        <time>2022-02-24T17:48:22Z</time>
      </trkpt>
      <trkpt lat="46.33568" lon="5.49143">
        <ele>503</ele>
        <time>2022-02-24T17:48:23Z</time>
      </trkpt>
      <trkpt lat="46.33574" lon="5.49144">
        <ele>503</ele>
        <time>2022-02-24T17:48:24Z</time>
      </trkpt>
      <trkpt lat="46.33579" lon="5.49146">
        <ele>503</ele>
        <time>2022-02-24T17:48:25Z</time>
      </trkpt>
      <trkpt lat="46.33585" lon="5.49147">
        <ele>503.2</ele>
        <time>2022-02-24T17:48:26Z</time>
      </trkpt>
      <trkpt lat="46.33591" lon="5.49148">
        <ele>503.2</ele>
        <time>2022-02-24T17:48:27Z</time>
      </trkpt>
      <trkpt lat="46.33596" lon="5.49149">
        <ele>503.2</ele>
        <time>2022-02-24T17:48:28Z</time>
      </trkpt>
      <trkpt lat="46.33602" lon="5.4915">
        <ele>503.2</ele>
        <time>2022-02-24T17:48:29Z</time>
      </trkpt>
      <trkpt lat="46.33608" lon="5.49151">
        <ele>503.2</ele>
        <time>2022-02-24T17:48:30Z</time>
      </trkpt>
      <trkpt lat="46.33613" lon="5.49151">
        <ele>503.2</ele>
        <time>2022-02-24T17:48:31Z</time>
      </trkpt>
      <trkpt lat="46.33619" lon="5.49152">
        <ele>503.2</ele>
        <time>2022-02-24T17:48:32Z</time>
      </trkpt>
      <trkpt lat="46.33625" lon="5.49152">
        <ele>503.4</ele>
        <time>2022-02-24T17:48:33Z</time>
      </trkpt>
      <trkpt lat="46.33631" lon="5.49152">
        <ele>503.4</ele>
        <time>2022-02-24T17:48:34Z</time>
      </trkpt>
      <trkpt lat="46.33636" lon="5.49153">
        <ele>503.4</ele>
        <time>2022-02-24T17:48:35Z</time>
      </trkpt>
      <trkpt lat="46.33642" lon="5.49154">
        <ele>503.4</ele>
        <time>2022-02-24T17:48:36Z</time>
      </trkpt>
      <trkpt lat="46.33648" lon="5.49154">
        <ele>503.4</ele>
        <time>2022-02-24T17:48:37Z</time>
      </trkpt>
      <trkpt lat="46.33654" lon="5.49155">
        <ele>503.4</ele>
        <time>2022-02-24T17:48:38Z</time>
      </trkpt>
      <trkpt lat="46.33659" lon="5.49155">
        <ele>503.4</ele>
        <time>2022-02-24T17:48:39Z</time>
      </trkpt>
      <trkpt lat="46.33665" lon="5.49156">
        <ele>503.6</ele>
        <time>2022-02-24T17:48:40Z</time>
      </trkpt>
      <trkpt lat="46.3367" lon="5.49157">
        <ele>503.6</ele>
        <time>2022-02-24T17:48:41Z</time>
      </trkpt>
      <trkpt lat="46.33676" lon="5.49157">
        <ele>503.6</ele>
        <time>2022-02-24T17:48:42Z</time>
      </trkpt>
      <trkpt lat="46.33682" lon="5.49158">
        <ele>503.6</ele>
        <time>2022-02-24T17:48:43Z</time>
      </trkpt>
      <trkpt lat="46.33687" lon="5.49159">
        <ele>503.6</ele>
        <time>2022-02-24T17:48:44Z</time>
      </trkpt>
      <trkpt lat="46.33693" lon="5.49159">
        <ele>503.6</ele>
        <time>2022-02-24T17:48:45Z</time>
      </trkpt>
      <trkpt lat="46.33699" lon="5.4916">
        <ele>503.8</ele>
        <time>2022-02-24T17:48:46Z</time>
      </trkpt>
      <trkpt lat="46.33704" lon="5.49161">
        <ele>503.8</ele>
        <time>2022-02-24T17:48:47Z</time>
      </trkpt>
      <trkpt lat="46.3371" lon="5.49161">
        <ele>503.8</ele>
        <time>2022-02-24T17:48:48Z</time>
      </trkpt>
      <trkpt lat="46.33715" lon="5.49162">
        <ele>504</ele>
        <time>2022-02-24T17:48:49Z</time>
      </trkpt>
      <trkpt lat="46.33721" lon="5.49162">
        <ele>504</ele>
        <time>2022-02-24T17:48:50Z</time>
      </trkpt>
      <trkpt lat="46.33727" lon="5.49163">
        <ele>504</ele>
        <time>2022-02-24T17:48:51Z</time>
      </trkpt>
      <trkpt lat="46.33732" lon="5.49164">
        <ele>504</ele>
        <time>2022-02-24T17:48:52Z</time>
      </trkpt>
      <trkpt lat="46.33738" lon="5.49164">
        <ele>504.2</ele>
        <time>2022-02-24T17:48:53Z</time>
      </trkpt>
      <trkpt lat="46.33744" lon="5.49165">
        <ele>504.2</ele>
        <time>2022-02-24T17:48:54Z</time>
      </trkpt>
      <trkpt lat="46.33749" lon="5.49165">
        <ele>504.2</ele>
        <time>2022-02-24T17:48:55Z</time>
      </trkpt>
      <trkpt lat="46.33755" lon="5.49165">
        <ele>504.2</ele>
        <time>2022-02-24T17:48:56Z</time>
      </trkpt>
      <trkpt lat="46.33761" lon="5.49166">
        <ele>504.6</ele>
        <time>2022-02-24T17:48:57Z</time>
      </trkpt>
      <trkpt lat="46.33767" lon="5.49167">
        <ele>504.6</ele>
        <time>2022-02-24T17:48:58Z</time>
      </trkpt>
      <trkpt lat="46.33773" lon="5.49167">
        <ele>504.6</ele>
        <time>2022-02-24T17:48:59Z</time>
      </trkpt>
      <trkpt lat="46.33779" lon="5.49168">
        <ele>504.6</ele>
        <time>2022-02-24T17:49:00Z</time>
      </trkpt>
      <trkpt lat="46.33785" lon="5.49169">
        <ele>504.6</ele>
        <time>2022-02-24T17:49:01Z</time>
      </trkpt>
      <trkpt lat="46.33791" lon="5.4917">
        <ele>504.6</ele>
        <time>2022-02-24T17:49:02Z</time>
      </trkpt>
      <trkpt lat="46.33796" lon="5.49171">
        <ele>504.8</ele>
        <time>2022-02-24T17:49:03Z</time>
      </trkpt>
      <trkpt lat="46.33802" lon="5.49171">
        <ele>504.8</ele>
        <time>2022-02-24T17:49:04Z</time>
      </trkpt>
      <trkpt lat="46.33808" lon="5.49172">
        <ele>504.8</ele>
        <time>2022-02-24T17:49:05Z</time>
      </trkpt>
      <trkpt lat="46.33813" lon="5.49173">
        <ele>505</ele>
        <time>2022-02-24T17:49:06Z</time>
      </trkpt>
      <trkpt lat="46.33819" lon="5.49173">
        <ele>505</ele>
        <time>2022-02-24T17:49:07Z</time>
      </trkpt>
      <trkpt lat="46.33825" lon="5.49174">
        <ele>505</ele>
        <time>2022-02-24T17:49:08Z</time>
      </trkpt>
      <trkpt lat="46.33831" lon="5.49175">
        <ele>505</ele>
        <time>2022-02-24T17:49:09Z</time>
      </trkpt>
      <trkpt lat="46.33837" lon="5.49175">
        <ele>505.4</ele>
        <time>2022-02-24T17:49:10Z</time>
      </trkpt>
      <trkpt lat="46.33843" lon="5.49176">
        <ele>505.4</ele>
        <time>2022-02-24T17:49:11Z</time>
      </trkpt>
      <trkpt lat="46.33849" lon="5.49176">
        <ele>505.6</ele>
        <time>2022-02-24T17:49:12Z</time>
      </trkpt>
      <trkpt lat="46.33855" lon="5.49177">
        <ele>505.6</ele>
        <time>2022-02-24T17:49:13Z</time>
      </trkpt>
      <trkpt lat="46.33861" lon="5.49177">
        <ele>505.8</ele>
        <time>2022-02-24T17:49:14Z</time>
      </trkpt>
      <trkpt lat="46.33866" lon="5.49178">
        <ele>505.8</ele>
        <time>2022-02-24T17:49:15Z</time>
      </trkpt>
      <trkpt lat="46.33872" lon="5.49179">
        <ele>506</ele>
        <time>2022-02-24T17:49:16Z</time>
      </trkpt>
      <trkpt lat="46.33878" lon="5.49179">
        <ele>506</ele>
        <time>2022-02-24T17:49:17Z</time>
      </trkpt>
      <trkpt lat="46.33884" lon="5.49179">
        <ele>506</ele>
        <time>2022-02-24T17:49:18Z</time>
      </trkpt>
      <trkpt lat="46.3389" lon="5.4918">
        <ele>506</ele>
        <time>2022-02-24T17:49:19Z</time>
      </trkpt>
      <trkpt lat="46.33895" lon="5.4918">
        <ele>506</ele>
        <time>2022-02-24T17:49:20Z</time>
      </trkpt>
      <trkpt lat="46.33901" lon="5.49181">
        <ele>506</ele>
        <time>2022-02-24T17:49:21Z</time>
      </trkpt>
      <trkpt lat="46.33907" lon="5.49181">
        <ele>506.4</ele>
        <time>2022-02-24T17:49:22Z</time>
      </trkpt>
      <trkpt lat="46.33913" lon="5.49182">
        <ele>506.4</ele>
        <time>2022-02-24T17:49:23Z</time>
      </trkpt>
      <trkpt lat="46.33919" lon="5.49182">
        <ele>506.6</ele>
        <time>2022-02-24T17:49:24Z</time>
      </trkpt>
      <trkpt lat="46.33925" lon="5.49183">
        <ele>506.6</ele>
        <time>2022-02-24T17:49:25Z</time>
      </trkpt>
      <trkpt lat="46.3393" lon="5.49184">
        <ele>506.8</ele>
        <time>2022-02-24T17:49:26Z</time>
      </trkpt>
      <trkpt lat="46.33936" lon="5.49185">
        <ele>506.8</ele>
        <time>2022-02-24T17:49:27Z</time>
      </trkpt>
      <trkpt lat="46.33942" lon="5.49186">
        <ele>507</ele>
        <time>2022-02-24T17:49:28Z</time>
      </trkpt>
      <trkpt lat="46.33947" lon="5.49188">
        <ele>507</ele>
        <time>2022-02-24T17:49:29Z</time>
      </trkpt>
      <trkpt lat="46.33952" lon="5.49189">
        <ele>507.2</ele>
        <time>2022-02-24T17:49:30Z</time>
      </trkpt>
      <trkpt lat="46.33957" lon="5.4919">
        <ele>507.4</ele>
        <time>2022-02-24T17:49:31Z</time>
      </trkpt>
      <trkpt lat="46.33962" lon="5.49192">
        <ele>507.4</ele>
        <time>2022-02-24T17:49:32Z</time>
      </trkpt>
      <trkpt lat="46.33967" lon="5.49193">
        <ele>507.8</ele>
        <time>2022-02-24T17:49:33Z</time>
      </trkpt>
      <trkpt lat="46.33972" lon="5.49195">
        <ele>507.8</ele>
        <time>2022-02-24T17:49:34Z</time>
      </trkpt>
      <trkpt lat="46.33977" lon="5.49196">
        <ele>507.8</ele>
        <time>2022-02-24T17:49:35Z</time>
      </trkpt>
      <trkpt lat="46.33982" lon="5.49198">
        <ele>508</ele>
        <time>2022-02-24T17:49:36Z</time>
      </trkpt>
      <trkpt lat="46.33987" lon="5.492">
        <ele>508</ele>
        <time>2022-02-24T17:49:37Z</time>
      </trkpt>
      <trkpt lat="46.33992" lon="5.49201">
        <ele>508</ele>
        <time>2022-02-24T17:49:38Z</time>
      </trkpt>
      <trkpt lat="46.33997" lon="5.49203">
        <ele>508</ele>
        <time>2022-02-24T17:49:39Z</time>
      </trkpt>
      <trkpt lat="46.34003" lon="5.49204">
        <ele>508.2</ele>
        <time>2022-02-24T17:49:40Z</time>
      </trkpt>
      <trkpt lat="46.34008" lon="5.49206">
        <ele>508.2</ele>
        <time>2022-02-24T17:49:41Z</time>
      </trkpt>
      <trkpt lat="46.34013" lon="5.49208">
        <ele>508.2</ele>
        <time>2022-02-24T17:49:42Z</time>
      </trkpt>
      <trkpt lat="46.34019" lon="5.49209">
        <ele>508.2</ele>
        <time>2022-02-24T17:49:43Z</time>
      </trkpt>
      <trkpt lat="46.34024" lon="5.4921">
        <ele>508.4</ele>
        <time>2022-02-24T17:49:44Z</time>
      </trkpt>
      <trkpt lat="46.3403" lon="5.49211">
        <ele>508.4</ele>
        <time>2022-02-24T17:49:45Z</time>
      </trkpt>
      <trkpt lat="46.34036" lon="5.49213">
        <ele>508.4</ele>
        <time>2022-02-24T17:49:46Z</time>
      </trkpt>
      <trkpt lat="46.34041" lon="5.49214">
        <ele>508.4</ele>
        <time>2022-02-24T17:49:47Z</time>
      </trkpt>
      <trkpt lat="46.34047" lon="5.49215">
        <ele>508.4</ele>
        <time>2022-02-24T17:49:48Z</time>
      </trkpt>
      <trkpt lat="46.34053" lon="5.49215">
        <ele>508.4</ele>
        <time>2022-02-24T17:49:49Z</time>
      </trkpt>
      <trkpt lat="46.34058" lon="5.49216">
        <ele>508.4</ele>
        <time>2022-02-24T17:49:50Z</time>
      </trkpt>
      <trkpt lat="46.34064" lon="5.49217">
        <ele>508.6</ele>
        <time>2022-02-24T17:49:51Z</time>
      </trkpt>
      <trkpt lat="46.3407" lon="5.49217">
        <ele>508.6</ele>
        <time>2022-02-24T17:49:52Z</time>
      </trkpt>
      <trkpt lat="46.34076" lon="5.49218">
        <ele>508.6</ele>
        <time>2022-02-24T17:49:53Z</time>
      </trkpt>
      <trkpt lat="46.34082" lon="5.49219">
        <ele>508.6</ele>
        <time>2022-02-24T17:49:54Z</time>
      </trkpt>
      <trkpt lat="46.34088" lon="5.4922">
        <ele>508.8</ele>
        <time>2022-02-24T17:49:55Z</time>
      </trkpt>
      <trkpt lat="46.34094" lon="5.49221">
        <ele>508.8</ele>
        <time>2022-02-24T17:49:56Z</time>
      </trkpt>
      <trkpt lat="46.34099" lon="5.49222">
        <ele>509.2</ele>
        <time>2022-02-24T17:49:57Z</time>
      </trkpt>
      <trkpt lat="46.34105" lon="5.49222">
        <ele>509.2</ele>
        <time>2022-02-24T17:49:58Z</time>
      </trkpt>
      <trkpt lat="46.3411" lon="5.49223">
        <ele>509.4</ele>
        <time>2022-02-24T17:49:59Z</time>
      </trkpt>
      <trkpt lat="46.34116" lon="5.49224">
        <ele>509.4</ele>
        <time>2022-02-24T17:50:00Z</time>
      </trkpt>
      <trkpt lat="46.34121" lon="5.49224">
        <ele>509.8</ele>
        <time>2022-02-24T17:50:01Z</time>
      </trkpt>
      <trkpt lat="46.34127" lon="5.49225">
        <ele>509.8</ele>
        <time>2022-02-24T17:50:02Z</time>
      </trkpt>
      <trkpt lat="46.34132" lon="5.49225">
        <ele>510</ele>
        <time>2022-02-24T17:50:03Z</time>
      </trkpt>
      <trkpt lat="46.34137" lon="5.49226">
        <ele>510.4</ele>
        <time>2022-02-24T17:50:04Z</time>
      </trkpt>
      <trkpt lat="46.34142" lon="5.49227">
        <ele>510.6</ele>
        <time>2022-02-24T17:50:05Z</time>
      </trkpt>
      <trkpt lat="46.34147" lon="5.49228">
        <ele>510.8</ele>
        <time>2022-02-24T17:50:06Z</time>
      </trkpt>
      <trkpt lat="46.34152" lon="5.4923">
        <ele>511</ele>
        <time>2022-02-24T17:50:07Z</time>
      </trkpt>
      <trkpt lat="46.34156" lon="5.49232">
        <ele>511.2</ele>
        <time>2022-02-24T17:50:08Z</time>
      </trkpt>
      <trkpt lat="46.34161" lon="5.49235">
        <ele>511.6</ele>
        <time>2022-02-24T17:50:09Z</time>
      </trkpt>
      <trkpt lat="46.34164" lon="5.49239">
        <ele>511.8</ele>
        <time>2022-02-24T17:50:10Z</time>
      </trkpt>
      <trkpt lat="46.34168" lon="5.49243">
        <ele>511.8</ele>
        <time>2022-02-24T17:50:11Z</time>
      </trkpt>
      <trkpt lat="46.34171" lon="5.49249">
        <ele>512.2</ele>
        <time>2022-02-24T17:50:12Z</time>
      </trkpt>
      <trkpt lat="46.34175" lon="5.49254">
        <ele>512.4</ele>
        <time>2022-02-24T17:50:13Z</time>
      </trkpt>
      <trkpt lat="46.34178" lon="5.4926">
        <ele>512.6</ele>
        <time>2022-02-24T17:50:14Z</time>
      </trkpt>
      <trkpt lat="46.34181" lon="5.49265">
        <ele>512.6</ele>
        <time>2022-02-24T17:50:15Z</time>
      </trkpt>
      <trkpt lat="46.34185" lon="5.4927">
        <ele>513</ele>
        <time>2022-02-24T17:50:16Z</time>
      </trkpt>
      <trkpt lat="46.34188" lon="5.49276">
        <ele>513</ele>
        <time>2022-02-24T17:50:17Z</time>
      </trkpt>
      <trkpt lat="46.34191" lon="5.49282">
        <ele>513</ele>
        <time>2022-02-24T17:50:18Z</time>
      </trkpt>
      <trkpt lat="46.34195" lon="5.49288">
        <ele>513.2</ele>
        <time>2022-02-24T17:50:19Z</time>
      </trkpt>
      <trkpt lat="46.34198" lon="5.49294">
        <ele>513.2</ele>
        <time>2022-02-24T17:50:20Z</time>
      </trkpt>
      <trkpt lat="46.34202" lon="5.493">
        <ele>513.4</ele>
        <time>2022-02-24T17:50:21Z</time>
      </trkpt>
      <trkpt lat="46.34205" lon="5.49306">
        <ele>513.4</ele>
        <time>2022-02-24T17:50:22Z</time>
      </trkpt>
      <trkpt lat="46.34209" lon="5.49312">
        <ele>513.6</ele>
        <time>2022-02-24T17:50:23Z</time>
      </trkpt>
      <trkpt lat="46.34212" lon="5.49318">
        <ele>513.6</ele>
        <time>2022-02-24T17:50:24Z</time>
      </trkpt>
      <trkpt lat="46.34216" lon="5.49323">
        <ele>514</ele>
        <time>2022-02-24T17:50:25Z</time>
      </trkpt>
      <trkpt lat="46.34219" lon="5.49329">
        <ele>514</ele>
        <time>2022-02-24T17:50:26Z</time>
      </trkpt>
      <trkpt lat="46.34223" lon="5.49334">
        <ele>514.2</ele>
        <time>2022-02-24T17:50:27Z</time>
      </trkpt>
      <trkpt lat="46.34226" lon="5.4934">
        <ele>514.4</ele>
        <time>2022-02-24T17:50:28Z</time>
      </trkpt>
      <trkpt lat="46.34229" lon="5.49345">
        <ele>514.6</ele>
        <time>2022-02-24T17:50:29Z</time>
      </trkpt>
      <trkpt lat="46.34232" lon="5.4935">
        <ele>514.6</ele>
        <time>2022-02-24T17:50:30Z</time>
      </trkpt>
      <trkpt lat="46.34236" lon="5.49355">
        <ele>515</ele>
        <time>2022-02-24T17:50:31Z</time>
      </trkpt>
      <trkpt lat="46.34239" lon="5.49361">
        <ele>515.2</ele>
        <time>2022-02-24T17:50:32Z</time>
      </trkpt>
      <trkpt lat="46.34242" lon="5.49365">
        <ele>515.2</ele>
        <time>2022-02-24T17:50:33Z</time>
      </trkpt>
      <trkpt lat="46.34245" lon="5.4937">
        <ele>515.6</ele>
        <time>2022-02-24T17:50:34Z</time>
      </trkpt>
      <trkpt lat="46.34248" lon="5.49375">
        <ele>515.6</ele>
        <time>2022-02-24T17:50:35Z</time>
      </trkpt>
      <trkpt lat="46.34251" lon="5.4938">
        <ele>516</ele>
        <time>2022-02-24T17:50:36Z</time>
      </trkpt>
      <trkpt lat="46.34253" lon="5.49385">
        <ele>516</ele>
        <time>2022-02-24T17:50:37Z</time>
      </trkpt>
      <trkpt lat="46.34256" lon="5.4939">
        <ele>516.4</ele>
        <time>2022-02-24T17:50:38Z</time>
      </trkpt>
      <trkpt lat="46.34259" lon="5.49394">
        <ele>516.6</ele>
        <time>2022-02-24T17:50:39Z</time>
      </trkpt>
      <trkpt lat="46.34261" lon="5.49399">
        <ele>517</ele>
        <time>2022-02-24T17:50:40Z</time>
      </trkpt>
      <trkpt lat="46.34263" lon="5.49404">
        <ele>517.2</ele>
        <time>2022-02-24T17:50:41Z</time>
      </trkpt>
      <trkpt lat="46.34266" lon="5.49409">
        <ele>517.6</ele>
        <time>2022-02-24T17:50:42Z</time>
      </trkpt>
      <trkpt lat="46.34269" lon="5.49413">
        <ele>517.8</ele>
        <time>2022-02-24T17:50:43Z</time>
      </trkpt>
      <trkpt lat="46.34272" lon="5.49418">
        <ele>518</ele>
        <time>2022-02-24T17:50:44Z</time>
      </trkpt>
      <trkpt lat="46.34274" lon="5.49422">
        <ele>518.2</ele>
        <time>2022-02-24T17:50:45Z</time>
      </trkpt>
      <trkpt lat="46.34277" lon="5.49427">
        <ele>518.2</ele>
        <time>2022-02-24T17:50:46Z</time>
      </trkpt>
      <trkpt lat="46.3428" lon="5.49431">
        <ele>518.6</ele>
        <time>2022-02-24T17:50:47Z</time>
      </trkpt>
      <trkpt lat="46.34283" lon="5.49435">
        <ele>518.6</ele>
        <time>2022-02-24T17:50:48Z</time>
      </trkpt>
      <trkpt lat="46.34286" lon="5.49438">
        <ele>518.8</ele>
        <time>2022-02-24T17:50:49Z</time>
      </trkpt>
      <trkpt lat="46.3429" lon="5.49442">
        <ele>518.8</ele>
        <time>2022-02-24T17:50:50Z</time>
      </trkpt>
      <trkpt lat="46.34293" lon="5.49445">
        <ele>519.2</ele>
        <time>2022-02-24T17:50:51Z</time>
      </trkpt>
      <trkpt lat="46.34297" lon="5.49448">
        <ele>519.2</ele>
        <time>2022-02-24T17:50:52Z</time>
      </trkpt>
      <trkpt lat="46.343" lon="5.4945">
        <ele>519.6</ele>
        <time>2022-02-24T17:50:53Z</time>
      </trkpt>
      <trkpt lat="46.34304" lon="5.49453">
        <ele>519.8</ele>
        <time>2022-02-24T17:50:54Z</time>
      </trkpt>
      <trkpt lat="46.34307" lon="5.49456">
        <ele>520</ele>
        <time>2022-02-24T17:50:55Z</time>
      </trkpt>
      <trkpt lat="46.3431" lon="5.49458">
        <ele>520.2</ele>
        <time>2022-02-24T17:50:56Z</time>
      </trkpt>
      <trkpt lat="46.34314" lon="5.49461">
        <ele>520.2</ele>
        <time>2022-02-24T17:50:57Z</time>
      </trkpt>
      <trkpt lat="46.34317" lon="5.49463">
        <ele>520.6</ele>
        <time>2022-02-24T17:50:58Z</time>
      </trkpt>
      <trkpt lat="46.34321" lon="5.49464">
        <ele>520.6</ele>
        <time>2022-02-24T17:50:59Z</time>
      </trkpt>
      <trkpt lat="46.34324" lon="5.49466">
        <ele>521</ele>
        <time>2022-02-24T17:51:00Z</time>
      </trkpt>
      <trkpt lat="46.34328" lon="5.49467">
        <ele>521</ele>
        <time>2022-02-24T17:51:01Z</time>
      </trkpt>
      <trkpt lat="46.34331" lon="5.49469">
        <ele>521.2</ele>
        <time>2022-02-24T17:51:02Z</time>
      </trkpt>
      <trkpt lat="46.34335" lon="5.49471">
        <ele>521.2</ele>
        <time>2022-02-24T17:51:03Z</time>
      </trkpt>
      <trkpt lat="46.34338" lon="5.49473">
        <ele>521.6</ele>
        <time>2022-02-24T17:51:04Z</time>
      </trkpt>
      <trkpt lat="46.34342" lon="5.49476">
        <ele>521.6</ele>
        <time>2022-02-24T17:51:05Z</time>
      </trkpt>
      <trkpt lat="46.34345" lon="5.49478">
        <ele>521.6</ele>
        <time>2022-02-24T17:51:06Z</time>
      </trkpt>
      <trkpt lat="46.34349" lon="5.4948">
        <ele>521.8</ele>
        <time>2022-02-24T17:51:07Z</time>
      </trkpt>
      <trkpt lat="46.34353" lon="5.49482">
        <ele>521.8</ele>
        <time>2022-02-24T17:51:08Z</time>
      </trkpt>
      <trkpt lat="46.34357" lon="5.49484">
        <ele>521.8</ele>
        <time>2022-02-24T17:51:09Z</time>
      </trkpt>
      <trkpt lat="46.34362" lon="5.49486">
        <ele>521.8</ele>
        <time>2022-02-24T17:51:10Z</time>
      </trkpt>
      <trkpt lat="46.34366" lon="5.49488">
        <ele>521.8</ele>
        <time>2022-02-24T17:51:11Z</time>
      </trkpt>
      <trkpt lat="46.34371" lon="5.4949">
        <ele>521.8</ele>
        <time>2022-02-24T17:51:12Z</time>
      </trkpt>
      <trkpt lat="46.34377" lon="5.49492">
        <ele>521.8</ele>
        <time>2022-02-24T17:51:13Z</time>
      </trkpt>
      <trkpt lat="46.34382" lon="5.49494">
        <ele>521.8</ele>
        <time>2022-02-24T17:51:14Z</time>
      </trkpt>
      <trkpt lat="46.34388" lon="5.49496">
        <ele>521.8</ele>
        <time>2022-02-24T17:51:15Z</time>
      </trkpt>
      <trkpt lat="46.34394" lon="5.49499">
        <ele>521.8</ele>
        <time>2022-02-24T17:51:16Z</time>
      </trkpt>
      <trkpt lat="46.344" lon="5.49501">
        <ele>521.6</ele>
        <time>2022-02-24T17:51:17Z</time>
      </trkpt>
      <trkpt lat="46.34406" lon="5.49504">
        <ele>521.6</ele>
        <time>2022-02-24T17:51:18Z</time>
      </trkpt>
      <trkpt lat="46.34412" lon="5.49506">
        <ele>521.4</ele>
        <time>2022-02-24T17:51:19Z</time>
      </trkpt>
      <trkpt lat="46.34419" lon="5.49509">
        <ele>521.4</ele>
        <time>2022-02-24T17:51:20Z</time>
      </trkpt>
      <trkpt lat="46.34426" lon="5.49511">
        <ele>521</ele>
        <time>2022-02-24T17:51:21Z</time>
      </trkpt>
      <trkpt lat="46.34433" lon="5.49514">
        <ele>521</ele>
        <time>2022-02-24T17:51:22Z</time>
      </trkpt>
      <trkpt lat="46.3444" lon="5.49516">
        <ele>520.8</ele>
        <time>2022-02-24T17:51:23Z</time>
      </trkpt>
      <trkpt lat="46.34447" lon="5.49519">
        <ele>520.4</ele>
        <time>2022-02-24T17:51:24Z</time>
      </trkpt>
      <trkpt lat="46.34455" lon="5.49521">
        <ele>520.4</ele>
        <time>2022-02-24T17:51:25Z</time>
      </trkpt>
      <trkpt lat="46.34462" lon="5.49523">
        <ele>520.4</ele>
        <time>2022-02-24T17:51:26Z</time>
      </trkpt>
      <trkpt lat="46.34469" lon="5.49525">
        <ele>520.2</ele>
        <time>2022-02-24T17:51:27Z</time>
      </trkpt>
      <trkpt lat="46.34476" lon="5.49528">
        <ele>520.2</ele>
        <time>2022-02-24T17:51:28Z</time>
      </trkpt>
      <trkpt lat="46.34482" lon="5.49531">
        <ele>519.8</ele>
        <time>2022-02-24T17:51:29Z</time>
      </trkpt>
      <trkpt lat="46.34489" lon="5.49534">
        <ele>519.8</ele>
        <time>2022-02-24T17:51:30Z</time>
      </trkpt>
      <trkpt lat="46.34495" lon="5.49537">
        <ele>519.8</ele>
        <time>2022-02-24T17:51:31Z</time>
      </trkpt>
      <trkpt lat="46.34502" lon="5.4954">
        <ele>519.6</ele>
        <time>2022-02-24T17:51:32Z</time>
      </trkpt>
      <trkpt lat="46.34508" lon="5.49543">
        <ele>519.6</ele>
        <time>2022-02-24T17:51:33Z</time>
      </trkpt>
      <trkpt lat="46.34515" lon="5.49546">
        <ele>519.6</ele>
        <time>2022-02-24T17:51:34Z</time>
      </trkpt>
      <trkpt lat="46.34521" lon="5.49548">
        <ele>519.6</ele>
        <time>2022-02-24T17:51:35Z</time>
      </trkpt>
      <trkpt lat="46.34527" lon="5.49551">
        <ele>519.6</ele>
        <time>2022-02-24T17:51:36Z</time>
      </trkpt>
      <trkpt lat="46.34533" lon="5.49554">
        <ele>519.6</ele>
        <time>2022-02-24T17:51:37Z</time>
      </trkpt>
      <trkpt lat="46.3454" lon="5.49557">
        <ele>519.6</ele>
        <time>2022-02-24T17:51:38Z</time>
      </trkpt>
      <trkpt lat="46.34546" lon="5.49559">
        <ele>519.6</ele>
        <time>2022-02-24T17:51:39Z</time>
      </trkpt>
      <trkpt lat="46.34552" lon="5.49562">
        <ele>519.6</ele>
        <time>2022-02-24T17:51:40Z</time>
      </trkpt>
      <trkpt lat="46.34559" lon="5.49565">
        <ele>519.6</ele>
        <time>2022-02-24T17:51:41Z</time>
      </trkpt>
      <trkpt lat="46.34565" lon="5.49568">
        <ele>519.6</ele>
        <time>2022-02-24T17:51:42Z</time>
      </trkpt>
      <trkpt lat="46.34571" lon="5.49571">
        <ele>519.6</ele>
        <time>2022-02-24T17:51:43Z</time>
      </trkpt>
      <trkpt lat="46.34577" lon="5.49574">
        <ele>519.6</ele>
        <time>2022-02-24T17:51:44Z</time>
      </trkpt>
      <trkpt lat="46.34584" lon="5.49576">
        <ele>519.6</ele>
        <time>2022-02-24T17:51:45Z</time>
      </trkpt>
      <trkpt lat="46.3459" lon="5.49579">
        <ele>519.6</ele>
        <time>2022-02-24T17:51:46Z</time>
      </trkpt>
      <trkpt lat="46.34596" lon="5.49582">
        <ele>519.6</ele>
        <time>2022-02-24T17:51:47Z</time>
      </trkpt>
      <trkpt lat="46.34603" lon="5.49585">
        <ele>519.8</ele>
        <time>2022-02-24T17:51:48Z</time>
      </trkpt>
      <trkpt lat="46.34609" lon="5.49588">
        <ele>519.8</ele>
        <time>2022-02-24T17:51:49Z</time>
      </trkpt>
      <trkpt lat="46.34615" lon="5.49591">
        <ele>519.8</ele>
        <time>2022-02-24T17:51:50Z</time>
      </trkpt>
      <trkpt lat="46.34621" lon="5.49593">
        <ele>519.8</ele>
        <time>2022-02-24T17:51:51Z</time>
      </trkpt>
      <trkpt lat="46.34627" lon="5.49596">
        <ele>520.2</ele>
        <time>2022-02-24T17:51:52Z</time>
      </trkpt>
      <trkpt lat="46.34633" lon="5.49598">
        <ele>520.2</ele>
        <time>2022-02-24T17:51:53Z</time>
      </trkpt>
      <trkpt lat="46.34639" lon="5.496">
        <ele>520.4</ele>
        <time>2022-02-24T17:51:54Z</time>
      </trkpt>
      <trkpt lat="46.34644" lon="5.49603">
        <ele>520.4</ele>
        <time>2022-02-24T17:51:55Z</time>
      </trkpt>
      <trkpt lat="46.3465" lon="5.49605">
        <ele>520.4</ele>
        <time>2022-02-24T17:51:56Z</time>
      </trkpt>
      <trkpt lat="46.34656" lon="5.49607">
        <ele>520.6</ele>
        <time>2022-02-24T17:51:57Z</time>
      </trkpt>
      <trkpt lat="46.34662" lon="5.4961">
        <ele>520.6</ele>
        <time>2022-02-24T17:51:58Z</time>
      </trkpt>
      <trkpt lat="46.34668" lon="5.49612">
        <ele>520.6</ele>
        <time>2022-02-24T17:51:59Z</time>
      </trkpt>
      <trkpt lat="46.34674" lon="5.49615">
        <ele>520.8</ele>
        <time>2022-02-24T17:52:00Z</time>
      </trkpt>
      <trkpt lat="46.34679" lon="5.49618">
        <ele>520.8</ele>
        <time>2022-02-24T17:52:01Z</time>
      </trkpt>
      <trkpt lat="46.34685" lon="5.4962">
        <ele>520.8</ele>
        <time>2022-02-24T17:52:02Z</time>
      </trkpt>
      <trkpt lat="46.34691" lon="5.49623">
        <ele>520.8</ele>
        <time>2022-02-24T17:52:03Z</time>
      </trkpt>
      <trkpt lat="46.34696" lon="5.49626">
        <ele>521</ele>
        <time>2022-02-24T17:52:04Z</time>
      </trkpt>
      <trkpt lat="46.34702" lon="5.49629">
        <ele>521</ele>
        <time>2022-02-24T17:52:05Z</time>
      </trkpt>
      <trkpt lat="46.34707" lon="5.49632">
        <ele>521</ele>
        <time>2022-02-24T17:52:06Z</time>
      </trkpt>
      <trkpt lat="46.34713" lon="5.49634">
        <ele>521</ele>
        <time>2022-02-24T17:52:07Z</time>
      </trkpt>
      <trkpt lat="46.34719" lon="5.49636">
        <ele>521.4</ele>
        <time>2022-02-24T17:52:08Z</time>
      </trkpt>
      <trkpt lat="46.34724" lon="5.49639">
        <ele>521.4</ele>
        <time>2022-02-24T17:52:09Z</time>
      </trkpt>
      <trkpt lat="46.3473" lon="5.49641">
        <ele>521.4</ele>
        <time>2022-02-24T17:52:10Z</time>
      </trkpt>
      <trkpt lat="46.34736" lon="5.49644">
        <ele>521.6</ele>
        <time>2022-02-24T17:52:11Z</time>
      </trkpt>
      <trkpt lat="46.34741" lon="5.49646">
        <ele>521.6</ele>
        <time>2022-02-24T17:52:12Z</time>
      </trkpt>
      <trkpt lat="46.34746" lon="5.49649">
        <ele>521.6</ele>
        <time>2022-02-24T17:52:13Z</time>
      </trkpt>
      <trkpt lat="46.34752" lon="5.49651">
        <ele>521.6</ele>
        <time>2022-02-24T17:52:14Z</time>
      </trkpt>
      <trkpt lat="46.34757" lon="5.49654">
        <ele>522</ele>
        <time>2022-02-24T17:52:15Z</time>
      </trkpt>
      <trkpt lat="46.34762" lon="5.49656">
        <ele>522</ele>
        <time>2022-02-24T17:52:16Z</time>
      </trkpt>
      <trkpt lat="46.34768" lon="5.49658">
        <ele>522.2</ele>
        <time>2022-02-24T17:52:17Z</time>
      </trkpt>
      <trkpt lat="46.34773" lon="5.49661">
        <ele>522.2</ele>
        <time>2022-02-24T17:52:18Z</time>
      </trkpt>
      <trkpt lat="46.34778" lon="5.49663">
        <ele>522.4</ele>
        <time>2022-02-24T17:52:19Z</time>
      </trkpt>
      <trkpt lat="46.34783" lon="5.49665">
        <ele>522.4</ele>
        <time>2022-02-24T17:52:20Z</time>
      </trkpt>
      <trkpt lat="46.34788" lon="5.49667">
        <ele>522.4</ele>
        <time>2022-02-24T17:52:21Z</time>
      </trkpt>
      <trkpt lat="46.34794" lon="5.49669">
        <ele>522.8</ele>
        <time>2022-02-24T17:52:22Z</time>
      </trkpt>
      <trkpt lat="46.34799" lon="5.49671">
        <ele>522.8</ele>
        <time>2022-02-24T17:52:23Z</time>
      </trkpt>
      <trkpt lat="46.34804" lon="5.49673">
        <ele>523</ele>
        <time>2022-02-24T17:52:24Z</time>
      </trkpt>
      <trkpt lat="46.34809" lon="5.49676">
        <ele>523</ele>
        <time>2022-02-24T17:52:25Z</time>
      </trkpt>
      <trkpt lat="46.34814" lon="5.49678">
        <ele>523.2</ele>
        <time>2022-02-24T17:52:26Z</time>
      </trkpt>
      <trkpt lat="46.34819" lon="5.4968">
        <ele>523.2</ele>
        <time>2022-02-24T17:52:27Z</time>
      </trkpt>
      <trkpt lat="46.34824" lon="5.49683">
        <ele>523.4</ele>
        <time>2022-02-24T17:52:28Z</time>
      </trkpt>
      <trkpt lat="46.34829" lon="5.49685">
        <ele>523.4</ele>
        <time>2022-02-24T17:52:29Z</time>
      </trkpt>
      <trkpt lat="46.34834" lon="5.49687">
        <ele>523.8</ele>
        <time>2022-02-24T17:52:30Z</time>
      </trkpt>
      <trkpt lat="46.3484" lon="5.4969">
        <ele>523.8</ele>
        <time>2022-02-24T17:52:31Z</time>
      </trkpt>
      <trkpt lat="46.34845" lon="5.49693">
        <ele>524</ele>
        <time>2022-02-24T17:52:32Z</time>
      </trkpt>
      <trkpt lat="46.3485" lon="5.49695">
        <ele>524</ele>
        <time>2022-02-24T17:52:33Z</time>
      </trkpt>
      <trkpt lat="46.34855" lon="5.49698">
        <ele>524</ele>
        <time>2022-02-24T17:52:34Z</time>
      </trkpt>
      <trkpt lat="46.3486" lon="5.497">
        <ele>524.2</ele>
        <time>2022-02-24T17:52:35Z</time>
      </trkpt>
      <trkpt lat="46.34865" lon="5.49703">
        <ele>524.2</ele>
        <time>2022-02-24T17:52:36Z</time>
      </trkpt>
      <trkpt lat="46.34869" lon="5.49706">
        <ele>524.6</ele>
        <time>2022-02-24T17:52:37Z</time>
      </trkpt>
      <trkpt lat="46.34873" lon="5.49709">
        <ele>524.8</ele>
        <time>2022-02-24T17:52:38Z</time>
      </trkpt>
      <trkpt lat="46.34877" lon="5.49713">
        <ele>525</ele>
        <time>2022-02-24T17:52:39Z</time>
      </trkpt>
      <trkpt lat="46.3488" lon="5.49717">
        <ele>525.4</ele>
        <time>2022-02-24T17:52:40Z</time>
      </trkpt>
      <trkpt lat="46.34883" lon="5.4972">
        <ele>525.6</ele>
        <time>2022-02-24T17:52:41Z</time>
      </trkpt>
      <trkpt lat="46.34886" lon="5.49724">
        <ele>526</ele>
        <time>2022-02-24T17:52:42Z</time>
      </trkpt>
      <trkpt lat="46.34889" lon="5.49727">
        <ele>526.2</ele>
        <time>2022-02-24T17:52:43Z</time>
      </trkpt>
      <trkpt lat="46.34891" lon="5.49731">
        <ele>526.4</ele>
        <time>2022-02-24T17:52:44Z</time>
      </trkpt>
      <trkpt lat="46.34894" lon="5.49735">
        <ele>526.4</ele>
        <time>2022-02-24T17:52:45Z</time>
      </trkpt>
      <trkpt lat="46.34896" lon="5.49739">
        <ele>526.8</ele>
        <time>2022-02-24T17:52:46Z</time>
      </trkpt>
      <trkpt lat="46.34899" lon="5.49743">
        <ele>527</ele>
        <time>2022-02-24T17:52:47Z</time>
      </trkpt>
      <trkpt lat="46.34901" lon="5.49748">
        <ele>527</ele>
        <time>2022-02-24T17:52:48Z</time>
      </trkpt>
      <trkpt lat="46.34904" lon="5.49753">
        <ele>527</ele>
        <time>2022-02-24T17:52:49Z</time>
      </trkpt>
      <trkpt lat="46.34907" lon="5.49757">
        <ele>527.4</ele>
        <time>2022-02-24T17:52:50Z</time>
      </trkpt>
      <trkpt lat="46.3491" lon="5.49762">
        <ele>527.4</ele>
        <time>2022-02-24T17:52:51Z</time>
      </trkpt>
      <trkpt lat="46.34912" lon="5.49766">
        <ele>527.6</ele>
        <time>2022-02-24T17:52:52Z</time>
      </trkpt>
      <trkpt lat="46.34915" lon="5.49771">
        <ele>527.6</ele>
        <time>2022-02-24T17:52:53Z</time>
      </trkpt>
      <trkpt lat="46.34917" lon="5.49775">
        <ele>527.8</ele>
        <time>2022-02-24T17:52:54Z</time>
      </trkpt>
      <trkpt lat="46.3492" lon="5.49779">
        <ele>527.8</ele>
        <time>2022-02-24T17:52:55Z</time>
      </trkpt>
      <trkpt lat="46.34922" lon="5.49783">
        <ele>528.2</ele>
        <time>2022-02-24T17:52:56Z</time>
      </trkpt>
      <trkpt lat="46.34924" lon="5.49786">
        <ele>528.4</ele>
        <time>2022-02-24T17:52:57Z</time>
      </trkpt>
      <trkpt lat="46.34926" lon="5.4979">
        <ele>528.6</ele>
        <time>2022-02-24T17:52:58Z</time>
      </trkpt>
      <trkpt lat="46.34928" lon="5.49794">
        <ele>529</ele>
        <time>2022-02-24T17:52:59Z</time>
      </trkpt>
      <trkpt lat="46.3493" lon="5.49797">
        <ele>529.2</ele>
        <time>2022-02-24T17:53:00Z</time>
      </trkpt>
      <trkpt lat="46.34932" lon="5.49801">
        <ele>529.4</ele>
        <time>2022-02-24T17:53:01Z</time>
      </trkpt>
      <trkpt lat="46.34934" lon="5.49804">
        <ele>529.6</ele>
        <time>2022-02-24T17:53:02Z</time>
      </trkpt>
      <trkpt lat="46.34936" lon="5.49808">
        <ele>530</ele>
        <time>2022-02-24T17:53:03Z</time>
      </trkpt>
      <trkpt lat="46.34938" lon="5.49811">
        <ele>530.2</ele>
        <time>2022-02-24T17:53:04Z</time>
      </trkpt>
      <trkpt lat="46.3494" lon="5.49815">
        <ele>530.6</ele>
        <time>2022-02-24T17:53:05Z</time>
      </trkpt>
      <trkpt lat="46.34941" lon="5.4982">
        <ele>530.8</ele>
        <time>2022-02-24T17:53:06Z</time>
      </trkpt>
      <trkpt lat="46.34943" lon="5.49824">
        <ele>531.4</ele>
        <time>2022-02-24T17:53:07Z</time>
      </trkpt>
      <trkpt lat="46.34944" lon="5.49828">
        <ele>531.6</ele>
        <time>2022-02-24T17:53:08Z</time>
      </trkpt>
      <trkpt lat="46.34946" lon="5.49833">
        <ele>532</ele>
        <time>2022-02-24T17:53:09Z</time>
      </trkpt>
      <trkpt lat="46.34947" lon="5.49837">
        <ele>532</ele>
        <time>2022-02-24T17:53:10Z</time>
      </trkpt>
      <trkpt lat="46.34949" lon="5.49841">
        <ele>532.4</ele>
        <time>2022-02-24T17:53:11Z</time>
      </trkpt>
      <trkpt lat="46.3495" lon="5.49846">
        <ele>532.4</ele>
        <time>2022-02-24T17:53:12Z</time>
      </trkpt>
      <trkpt lat="46.34952" lon="5.49851">
        <ele>532.6</ele>
        <time>2022-02-24T17:53:13Z</time>
      </trkpt>
      <trkpt lat="46.34953" lon="5.49856">
        <ele>532.6</ele>
        <time>2022-02-24T17:53:14Z</time>
      </trkpt>
      <trkpt lat="46.34954" lon="5.49861">
        <ele>532.8</ele>
        <time>2022-02-24T17:53:15Z</time>
      </trkpt>
      <trkpt lat="46.34955" lon="5.49867">
        <ele>532.8</ele>
        <time>2022-02-24T17:53:16Z</time>
      </trkpt>
      <trkpt lat="46.34956" lon="5.49873">
        <ele>532.8</ele>
        <time>2022-02-24T17:53:17Z</time>
      </trkpt>
      <trkpt lat="46.34957" lon="5.49878">
        <ele>533.2</ele>
        <time>2022-02-24T17:53:18Z</time>
      </trkpt>
      <trkpt lat="46.34958" lon="5.49884">
        <ele>533.2</ele>
        <time>2022-02-24T17:53:19Z</time>
      </trkpt>
      <trkpt lat="46.34959" lon="5.49889">
        <ele>533.2</ele>
        <time>2022-02-24T17:53:20Z</time>
      </trkpt>
      <trkpt lat="46.3496" lon="5.49894">
        <ele>533.2</ele>
        <time>2022-02-24T17:53:21Z</time>
      </trkpt>
      <trkpt lat="46.34962" lon="5.499">
        <ele>533.2</ele>
        <time>2022-02-24T17:53:22Z</time>
      </trkpt>
      <trkpt lat="46.34963" lon="5.49906">
        <ele>533.2</ele>
        <time>2022-02-24T17:53:23Z</time>
      </trkpt>
      <trkpt lat="46.34965" lon="5.49911">
        <ele>533.2</ele>
        <time>2022-02-24T17:53:24Z</time>
      </trkpt>
      <trkpt lat="46.34967" lon="5.49917">
        <ele>533.4</ele>
        <time>2022-02-24T17:53:25Z</time>
      </trkpt>
      <trkpt lat="46.34969" lon="5.49924">
        <ele>533.4</ele>
        <time>2022-02-24T17:53:26Z</time>
      </trkpt>
      <trkpt lat="46.34971" lon="5.4993">
        <ele>533.4</ele>
        <time>2022-02-24T17:53:27Z</time>
      </trkpt>
      <trkpt lat="46.34974" lon="5.49936">
        <ele>533.6</ele>
        <time>2022-02-24T17:53:28Z</time>
      </trkpt>
      <trkpt lat="46.34976" lon="5.49942">
        <ele>533.6</ele>
        <time>2022-02-24T17:53:29Z</time>
      </trkpt>
      <trkpt lat="46.34979" lon="5.49948">
        <ele>533.6</ele>
        <time>2022-02-24T17:53:30Z</time>
      </trkpt>
      <trkpt lat="46.34983" lon="5.49953">
        <ele>533.8</ele>
        <time>2022-02-24T17:53:31Z</time>
      </trkpt>
      <trkpt lat="46.34986" lon="5.49959">
        <ele>533.8</ele>
        <time>2022-02-24T17:53:32Z</time>
      </trkpt>
      <trkpt lat="46.34989" lon="5.49964">
        <ele>533.8</ele>
        <time>2022-02-24T17:53:33Z</time>
      </trkpt>
      <trkpt lat="46.34993" lon="5.4997">
        <ele>533.8</ele>
        <time>2022-02-24T17:53:34Z</time>
      </trkpt>
      <trkpt lat="46.34996" lon="5.49976">
        <ele>533.8</ele>
        <time>2022-02-24T17:53:35Z</time>
      </trkpt>
      <trkpt lat="46.35" lon="5.49981">
        <ele>533.8</ele>
        <time>2022-02-24T17:53:36Z</time>
      </trkpt>
      <trkpt lat="46.35004" lon="5.49987">
        <ele>533.8</ele>
        <time>2022-02-24T17:53:37Z</time>
      </trkpt>
      <trkpt lat="46.35007" lon="5.49993">
        <ele>534</ele>
        <time>2022-02-24T17:53:38Z</time>
      </trkpt>
      <trkpt lat="46.35011" lon="5.49999">
        <ele>534</ele>
        <time>2022-02-24T17:53:39Z</time>
      </trkpt>
      <trkpt lat="46.35014" lon="5.50005">
        <ele>534</ele>
        <time>2022-02-24T17:53:40Z</time>
      </trkpt>
      <trkpt lat="46.35018" lon="5.50012">
        <ele>534</ele>
        <time>2022-02-24T17:53:41Z</time>
      </trkpt>
      <trkpt lat="46.35021" lon="5.50018">
        <ele>534.4</ele>
        <time>2022-02-24T17:53:42Z</time>
      </trkpt>
      <trkpt lat="46.35024" lon="5.50025">
        <ele>534.4</ele>
        <time>2022-02-24T17:53:43Z</time>
      </trkpt>
      <trkpt lat="46.35028" lon="5.50031">
        <ele>534.6</ele>
        <time>2022-02-24T17:53:44Z</time>
      </trkpt>
      <trkpt lat="46.35031" lon="5.50038">
        <ele>534.6</ele>
        <time>2022-02-24T17:53:45Z</time>
      </trkpt>
      <trkpt lat="46.35035" lon="5.50044">
        <ele>534.6</ele>
        <time>2022-02-24T17:53:46Z</time>
      </trkpt>
      <trkpt lat="46.35039" lon="5.5005">
        <ele>534.6</ele>
        <time>2022-02-24T17:53:47Z</time>
      </trkpt>
      <trkpt lat="46.35043" lon="5.50056">
        <ele>534.6</ele>
        <time>2022-02-24T17:53:48Z</time>
      </trkpt>
      <trkpt lat="46.35047" lon="5.50062">
        <ele>534.6</ele>
        <time>2022-02-24T17:53:49Z</time>
      </trkpt>
      <trkpt lat="46.35051" lon="5.50068">
        <ele>534.6</ele>
        <time>2022-02-24T17:53:50Z</time>
      </trkpt>
      <trkpt lat="46.35056" lon="5.50074">
        <ele>534.6</ele>
        <time>2022-02-24T17:53:51Z</time>
      </trkpt>
      <trkpt lat="46.3506" lon="5.5008">
        <ele>534.6</ele>
        <time>2022-02-24T17:53:52Z</time>
      </trkpt>
      <trkpt lat="46.35065" lon="5.50086">
        <ele>534.6</ele>
        <time>2022-02-24T17:53:53Z</time>
      </trkpt>
      <trkpt lat="46.3507" lon="5.50092">
        <ele>534.6</ele>
        <time>2022-02-24T17:53:54Z</time>
      </trkpt>
      <trkpt lat="46.35074" lon="5.50099">
        <ele>534.6</ele>
        <time>2022-02-24T17:53:55Z</time>
      </trkpt>
      <trkpt lat="46.35079" lon="5.50105">
        <ele>534.6</ele>
        <time>2022-02-24T17:53:56Z</time>
      </trkpt>
      <trkpt lat="46.35083" lon="5.50112">
        <ele>534.6</ele>
        <time>2022-02-24T17:53:57Z</time>
      </trkpt>
      <trkpt lat="46.35087" lon="5.50119">
        <ele>534.6</ele>
        <time>2022-02-24T17:53:58Z</time>
      </trkpt>
      <trkpt lat="46.35092" lon="5.50125">
        <ele>534.6</ele>
        <time>2022-02-24T17:53:59Z</time>
      </trkpt>
      <trkpt lat="46.35096" lon="5.50131">
        <ele>534.6</ele>
        <time>2022-02-24T17:54:00Z</time>
      </trkpt>
      <trkpt lat="46.351" lon="5.50138">
        <ele>534.6</ele>
        <time>2022-02-24T17:54:01Z</time>
      </trkpt>
      <trkpt lat="46.35104" lon="5.50144">
        <ele>534.6</ele>
        <time>2022-02-24T17:54:02Z</time>
      </trkpt>
      <trkpt lat="46.35109" lon="5.50151">
        <ele>534.6</ele>
        <time>2022-02-24T17:54:03Z</time>
      </trkpt>
      <trkpt lat="46.35113" lon="5.50158">
        <ele>534.6</ele>
        <time>2022-02-24T17:54:04Z</time>
      </trkpt>
      <trkpt lat="46.35117" lon="5.50165">
        <ele>534.6</ele>
        <time>2022-02-24T17:54:05Z</time>
      </trkpt>
      <trkpt lat="46.35121" lon="5.50172">
        <ele>534.6</ele>
        <time>2022-02-24T17:54:06Z</time>
      </trkpt>
      <trkpt lat="46.35125" lon="5.50179">
        <ele>534.6</ele>
        <time>2022-02-24T17:54:07Z</time>
      </trkpt>
      <trkpt lat="46.35129" lon="5.50186">
        <ele>534.6</ele>
        <time>2022-02-24T17:54:08Z</time>
      </trkpt>
      <trkpt lat="46.35132" lon="5.50194">
        <ele>534.6</ele>
        <time>2022-02-24T17:54:09Z</time>
      </trkpt>
      <trkpt lat="46.35135" lon="5.50202">
        <ele>534.6</ele>
        <time>2022-02-24T17:54:10Z</time>
      </trkpt>
      <trkpt lat="46.35138" lon="5.50209">
        <ele>534.6</ele>
        <time>2022-02-24T17:54:11Z</time>
      </trkpt>
      <trkpt lat="46.3514" lon="5.50217">
        <ele>534.8</ele>
        <time>2022-02-24T17:54:12Z</time>
      </trkpt>
      <trkpt lat="46.35143" lon="5.50224">
        <ele>534.8</ele>
        <time>2022-02-24T17:54:13Z</time>
      </trkpt>
      <trkpt lat="46.35146" lon="5.50232">
        <ele>534.8</ele>
        <time>2022-02-24T17:54:14Z</time>
      </trkpt>
      <trkpt lat="46.35148" lon="5.50239">
        <ele>535.2</ele>
        <time>2022-02-24T17:54:15Z</time>
      </trkpt>
      <trkpt lat="46.35151" lon="5.50246">
        <ele>535.2</ele>
        <time>2022-02-24T17:54:16Z</time>
      </trkpt>
      <trkpt lat="46.35153" lon="5.50253">
        <ele>535.4</ele>
        <time>2022-02-24T17:54:17Z</time>
      </trkpt>
      <trkpt lat="46.35155" lon="5.5026">
        <ele>535.6</ele>
        <time>2022-02-24T17:54:18Z</time>
      </trkpt>
      <trkpt lat="46.35157" lon="5.50267">
        <ele>535.6</ele>
        <time>2022-02-24T17:54:19Z</time>
      </trkpt>
      <trkpt lat="46.35159" lon="5.50274">
        <ele>535.8</ele>
        <time>2022-02-24T17:54:20Z</time>
      </trkpt>
      <trkpt lat="46.3516" lon="5.5028">
        <ele>535.8</ele>
        <time>2022-02-24T17:54:21Z</time>
      </trkpt>
      <trkpt lat="46.35162" lon="5.50287">
        <ele>536.2</ele>
        <time>2022-02-24T17:54:22Z</time>
      </trkpt>
      <trkpt lat="46.35163" lon="5.50294">
        <ele>536.4</ele>
        <time>2022-02-24T17:54:23Z</time>
      </trkpt>
      <trkpt lat="46.35163" lon="5.503">
        <ele>536.4</ele>
        <time>2022-02-24T17:54:24Z</time>
      </trkpt>
      <trkpt lat="46.35164" lon="5.50306">
        <ele>536.6</ele>
        <time>2022-02-24T17:54:25Z</time>
      </trkpt>
      <trkpt lat="46.35165" lon="5.50313">
        <ele>536.8</ele>
        <time>2022-02-24T17:54:26Z</time>
      </trkpt>
      <trkpt lat="46.35165" lon="5.50318">
        <ele>537.2</ele>
        <time>2022-02-24T17:54:27Z</time>
      </trkpt>
      <trkpt lat="46.35166" lon="5.50324">
        <ele>537.6</ele>
        <time>2022-02-24T17:54:28Z</time>
      </trkpt>
      <trkpt lat="46.35166" lon="5.5033">
        <ele>537.6</ele>
        <time>2022-02-24T17:54:29Z</time>
      </trkpt>
      <trkpt lat="46.35166" lon="5.50337">
        <ele>538</ele>
        <time>2022-02-24T17:54:30Z</time>
      </trkpt>
      <trkpt lat="46.35167" lon="5.50344">
        <ele>538.2</ele>
        <time>2022-02-24T17:54:31Z</time>
      </trkpt>
      <trkpt lat="46.35167" lon="5.5035">
        <ele>538.6</ele>
        <time>2022-02-24T17:54:32Z</time>
      </trkpt>
      <trkpt lat="46.35167" lon="5.50357">
        <ele>538.8</ele>
        <time>2022-02-24T17:54:33Z</time>
      </trkpt>
      <trkpt lat="46.35168" lon="5.50363">
        <ele>538.8</ele>
        <time>2022-02-24T17:54:34Z</time>
      </trkpt>
      <trkpt lat="46.35168" lon="5.50369">
        <ele>539.2</ele>
        <time>2022-02-24T17:54:35Z</time>
      </trkpt>
      <trkpt lat="46.35169" lon="5.50375">
        <ele>539.4</ele>
        <time>2022-02-24T17:54:36Z</time>
      </trkpt>
      <trkpt lat="46.35169" lon="5.5038">
        <ele>539.4</ele>
        <time>2022-02-24T17:54:37Z</time>
      </trkpt>
      <trkpt lat="46.3517" lon="5.50386">
        <ele>539.8</ele>
        <time>2022-02-24T17:54:38Z</time>
      </trkpt>
      <trkpt lat="46.35171" lon="5.50391">
        <ele>540</ele>
        <time>2022-02-24T17:54:39Z</time>
      </trkpt>
      <trkpt lat="46.35172" lon="5.50396">
        <ele>540</ele>
        <time>2022-02-24T17:54:40Z</time>
      </trkpt>
      <trkpt lat="46.35173" lon="5.50401">
        <ele>540.2</ele>
        <time>2022-02-24T17:54:41Z</time>
      </trkpt>
      <trkpt lat="46.35174" lon="5.50406">
        <ele>540.2</ele>
        <time>2022-02-24T17:54:42Z</time>
      </trkpt>
      <trkpt lat="46.35176" lon="5.50411">
        <ele>540.6</ele>
        <time>2022-02-24T17:54:43Z</time>
      </trkpt>
      <trkpt lat="46.35178" lon="5.50416">
        <ele>540.6</ele>
        <time>2022-02-24T17:54:44Z</time>
      </trkpt>
      <trkpt lat="46.3518" lon="5.5042">
        <ele>541</ele>
        <time>2022-02-24T17:54:45Z</time>
      </trkpt>
      <trkpt lat="46.35182" lon="5.50425">
        <ele>541</ele>
        <time>2022-02-24T17:54:46Z</time>
      </trkpt>
      <trkpt lat="46.35184" lon="5.50429">
        <ele>541.2</ele>
        <time>2022-02-24T17:54:47Z</time>
      </trkpt>
      <trkpt lat="46.35186" lon="5.50433">
        <ele>541.2</ele>
        <time>2022-02-24T17:54:48Z</time>
      </trkpt>
      <trkpt lat="46.35189" lon="5.50437">
        <ele>541.4</ele>
        <time>2022-02-24T17:54:49Z</time>
      </trkpt>
      <trkpt lat="46.35192" lon="5.50441">
        <ele>541.4</ele>
        <time>2022-02-24T17:54:50Z</time>
      </trkpt>
      <trkpt lat="46.35194" lon="5.50446">
        <ele>541.4</ele>
        <time>2022-02-24T17:54:51Z</time>
      </trkpt>
      <trkpt lat="46.35197" lon="5.5045">
        <ele>541.8</ele>
        <time>2022-02-24T17:54:52Z</time>
      </trkpt>
      <trkpt lat="46.352" lon="5.50453">
        <ele>541.8</ele>
        <time>2022-02-24T17:54:53Z</time>
      </trkpt>
      <trkpt lat="46.35204" lon="5.50457">
        <ele>542</ele>
        <time>2022-02-24T17:54:54Z</time>
      </trkpt>
      <trkpt lat="46.35207" lon="5.50461">
        <ele>542</ele>
        <time>2022-02-24T17:54:55Z</time>
      </trkpt>
      <trkpt lat="46.3521" lon="5.50465">
        <ele>542.2</ele>
        <time>2022-02-24T17:54:56Z</time>
      </trkpt>
      <trkpt lat="46.35213" lon="5.50468">
        <ele>542.2</ele>
        <time>2022-02-24T17:54:57Z</time>
      </trkpt>
      <trkpt lat="46.35217" lon="5.50472">
        <ele>542.4</ele>
        <time>2022-02-24T17:54:58Z</time>
      </trkpt>
      <trkpt lat="46.3522" lon="5.50476">
        <ele>542.4</ele>
        <time>2022-02-24T17:54:59Z</time>
      </trkpt>
      <trkpt lat="46.35223" lon="5.50479">
        <ele>542.8</ele>
        <time>2022-02-24T17:55:00Z</time>
      </trkpt>
      <trkpt lat="46.35226" lon="5.50483">
        <ele>542.8</ele>
        <time>2022-02-24T17:55:01Z</time>
      </trkpt>
      <trkpt lat="46.3523" lon="5.50487">
        <ele>543</ele>
        <time>2022-02-24T17:55:02Z</time>
      </trkpt>
      <trkpt lat="46.35233" lon="5.5049">
        <ele>543</ele>
        <time>2022-02-24T17:55:03Z</time>
      </trkpt>
      <trkpt lat="46.35236" lon="5.50494">
        <ele>543.4</ele>
        <time>2022-02-24T17:55:04Z</time>
      </trkpt>
      <trkpt lat="46.35239" lon="5.50498">
        <ele>543.4</ele>
        <time>2022-02-24T17:55:05Z</time>
      </trkpt>
      <trkpt lat="46.35242" lon="5.50501">
        <ele>543.6</ele>
        <time>2022-02-24T17:55:06Z</time>
      </trkpt>
      <trkpt lat="46.35245" lon="5.50505">
        <ele>543.8</ele>
        <time>2022-02-24T17:55:07Z</time>
      </trkpt>
      <trkpt lat="46.35248" lon="5.50508">
        <ele>544</ele>
        <time>2022-02-24T17:55:08Z</time>
      </trkpt>
      <trkpt lat="46.3525" lon="5.50512">
        <ele>544</ele>
        <time>2022-02-24T17:55:09Z</time>
      </trkpt>
      <trkpt lat="46.35253" lon="5.50515">
        <ele>544.4</ele>
        <time>2022-02-24T17:55:10Z</time>
      </trkpt>
      <trkpt lat="46.35256" lon="5.50519">
        <ele>544.4</ele>
        <time>2022-02-24T17:55:11Z</time>
      </trkpt>
      <trkpt lat="46.35259" lon="5.50522">
        <ele>544.8</ele>
        <time>2022-02-24T17:55:12Z</time>
      </trkpt>
      <trkpt lat="46.35262" lon="5.50526">
        <ele>544.8</ele>
        <time>2022-02-24T17:55:13Z</time>
      </trkpt>
      <trkpt lat="46.35265" lon="5.50529">
        <ele>545</ele>
        <time>2022-02-24T17:55:14Z</time>
      </trkpt>
      <trkpt lat="46.35268" lon="5.50533">
        <ele>545</ele>
        <time>2022-02-24T17:55:15Z</time>
      </trkpt>
      <trkpt lat="46.35271" lon="5.50535">
        <ele>545.4</ele>
        <time>2022-02-24T17:55:16Z</time>
      </trkpt>
      <trkpt lat="46.35274" lon="5.50538">
        <ele>545.4</ele>
        <time>2022-02-24T17:55:17Z</time>
      </trkpt>
      <trkpt lat="46.35278" lon="5.50541">
        <ele>545.6</ele>
        <time>2022-02-24T17:55:18Z</time>
      </trkpt>
      <trkpt lat="46.35281" lon="5.50543">
        <ele>546</ele>
        <time>2022-02-24T17:55:19Z</time>
      </trkpt>
      <trkpt lat="46.35284" lon="5.50545">
        <ele>546.2</ele>
        <time>2022-02-24T17:55:20Z</time>
      </trkpt>
      <trkpt lat="46.35288" lon="5.50547">
        <ele>546.2</ele>
        <time>2022-02-24T17:55:21Z</time>
      </trkpt>
      <trkpt lat="46.35291" lon="5.50549">
        <ele>546.6</ele>
        <time>2022-02-24T17:55:22Z</time>
      </trkpt>
      <trkpt lat="46.35295" lon="5.50551">
        <ele>546.6</ele>
        <time>2022-02-24T17:55:23Z</time>
      </trkpt>
      <trkpt lat="46.35298" lon="5.50553">
        <ele>547</ele>
        <time>2022-02-24T17:55:24Z</time>
      </trkpt>
      <trkpt lat="46.35302" lon="5.50555">
        <ele>547</ele>
        <time>2022-02-24T17:55:25Z</time>
      </trkpt>
      <trkpt lat="46.35306" lon="5.50556">
        <ele>547.2</ele>
        <time>2022-02-24T17:55:26Z</time>
      </trkpt>
      <trkpt lat="46.35309" lon="5.50556">
        <ele>547.2</ele>
        <time>2022-02-24T17:55:27Z</time>
      </trkpt>
      <trkpt lat="46.35313" lon="5.50557">
        <ele>547.6</ele>
        <time>2022-02-24T17:55:28Z</time>
      </trkpt>
      <trkpt lat="46.35317" lon="5.50557">
        <ele>547.6</ele>
        <time>2022-02-24T17:55:29Z</time>
      </trkpt>
      <trkpt lat="46.3532" lon="5.50558">
        <ele>548</ele>
        <time>2022-02-24T17:55:30Z</time>
      </trkpt>
      <trkpt lat="46.35324" lon="5.50559">
        <ele>548</ele>
        <time>2022-02-24T17:55:31Z</time>
      </trkpt>
      <trkpt lat="46.35328" lon="5.5056">
        <ele>548</ele>
        <time>2022-02-24T17:55:32Z</time>
      </trkpt>
      <trkpt lat="46.35331" lon="5.5056">
        <ele>548.2</ele>
        <time>2022-02-24T17:55:33Z</time>
      </trkpt>
      <trkpt lat="46.35335" lon="5.50561">
        <ele>548.2</ele>
        <time>2022-02-24T17:55:34Z</time>
      </trkpt>
      <trkpt lat="46.35338" lon="5.50562">
        <ele>548.6</ele>
        <time>2022-02-24T17:55:35Z</time>
      </trkpt>
      <trkpt lat="46.35342" lon="5.50563">
        <ele>548.6</ele>
        <time>2022-02-24T17:55:36Z</time>
      </trkpt>
      <trkpt lat="46.35346" lon="5.50563">
        <ele>548.8</ele>
        <time>2022-02-24T17:55:37Z</time>
      </trkpt>
      <trkpt lat="46.35349" lon="5.50564">
        <ele>548.8</ele>
        <time>2022-02-24T17:55:38Z</time>
      </trkpt>
      <trkpt lat="46.35352" lon="5.50565">
        <ele>549</ele>
        <time>2022-02-24T17:55:39Z</time>
      </trkpt>
      <trkpt lat="46.35356" lon="5.50565">
        <ele>549</ele>
        <time>2022-02-24T17:55:40Z</time>
      </trkpt>
      <trkpt lat="46.35359" lon="5.50565">
        <ele>549.4</ele>
        <time>2022-02-24T17:55:41Z</time>
      </trkpt>
      <trkpt lat="46.35362" lon="5.50566">
        <ele>549.6</ele>
        <time>2022-02-24T17:55:42Z</time>
      </trkpt>
      <trkpt lat="46.35366" lon="5.50566">
        <ele>549.6</ele>
        <time>2022-02-24T17:55:43Z</time>
      </trkpt>
      <trkpt lat="46.35369" lon="5.50567">
        <ele>550</ele>
        <time>2022-02-24T17:55:44Z</time>
      </trkpt>
      <trkpt lat="46.35372" lon="5.50567">
        <ele>550</ele>
        <time>2022-02-24T17:55:45Z</time>
      </trkpt>
      <trkpt lat="46.35375" lon="5.50568">
        <ele>550.2</ele>
        <time>2022-02-24T17:55:46Z</time>
      </trkpt>
      <trkpt lat="46.35378" lon="5.50569">
        <ele>550.2</ele>
        <time>2022-02-24T17:55:47Z</time>
      </trkpt>
      <trkpt lat="46.35381" lon="5.5057">
        <ele>550.4</ele>
        <time>2022-02-24T17:55:48Z</time>
      </trkpt>
      <trkpt lat="46.35384" lon="5.5057">
        <ele>550.4</ele>
        <time>2022-02-24T17:55:49Z</time>
      </trkpt>
      <trkpt lat="46.35387" lon="5.50571">
        <ele>550.4</ele>
        <time>2022-02-24T17:55:50Z</time>
      </trkpt>
      <trkpt lat="46.3539" lon="5.50572">
        <ele>550.4</ele>
        <time>2022-02-24T17:55:51Z</time>
      </trkpt>
      <trkpt lat="46.35393" lon="5.50573">
        <ele>550.4</ele>
        <time>2022-02-24T17:55:52Z</time>
      </trkpt>
      <trkpt lat="46.35397" lon="5.50574">
        <ele>550.4</ele>
        <time>2022-02-24T17:55:53Z</time>
      </trkpt>
      <trkpt lat="46.35401" lon="5.50575">
        <ele>550.4</ele>
        <time>2022-02-24T17:55:54Z</time>
      </trkpt>
      <trkpt lat="46.35401" lon="5.50575">
        <ele>550.4</ele>
        <time>2022-02-24T17:55:55Z</time>
      </trkpt>
      <trkpt lat="46.35406" lon="5.50575">
        <ele>550</ele>
        <time>2022-02-24T17:55:56Z</time>
      </trkpt>
      <trkpt lat="46.35411" lon="5.50575">
        <ele>549.8</ele>
        <time>2022-02-24T17:55:57Z</time>
      </trkpt>
      <trkpt lat="46.35416" lon="5.50575">
        <ele>549.4</ele>
        <time>2022-02-24T17:55:58Z</time>
      </trkpt>
      <trkpt lat="46.35422" lon="5.50573">
        <ele>549</ele>
        <time>2022-02-24T17:55:59Z</time>
      </trkpt>
      <trkpt lat="46.35429" lon="5.50571">
        <ele>548.6</ele>
        <time>2022-02-24T17:56:00Z</time>
      </trkpt>
      <trkpt lat="46.35436" lon="5.50569">
        <ele>548.2</ele>
        <time>2022-02-24T17:56:01Z</time>
      </trkpt>
      <trkpt lat="46.35443" lon="5.50567">
        <ele>547.8</ele>
        <time>2022-02-24T17:56:02Z</time>
      </trkpt>
      <trkpt lat="46.3545" lon="5.50565">
        <ele>547.4</ele>
        <time>2022-02-24T17:56:03Z</time>
      </trkpt>
      <trkpt lat="46.35457" lon="5.50564">
        <ele>546.8</ele>
        <time>2022-02-24T17:56:04Z</time>
      </trkpt>
      <trkpt lat="46.35465" lon="5.50562">
        <ele>546.4</ele>
        <time>2022-02-24T17:56:05Z</time>
      </trkpt>
      <trkpt lat="46.35473" lon="5.50562">
        <ele>545.8</ele>
        <time>2022-02-24T17:56:06Z</time>
      </trkpt>
      <trkpt lat="46.35481" lon="5.50561">
        <ele>545.2</ele>
        <time>2022-02-24T17:56:07Z</time>
      </trkpt>
      <trkpt lat="46.3549" lon="5.50562">
        <ele>544.8</ele>
        <time>2022-02-24T17:56:08Z</time>
      </trkpt>
      <trkpt lat="46.35499" lon="5.50564">
        <ele>544</ele>
        <time>2022-02-24T17:56:09Z</time>
      </trkpt>
      <trkpt lat="46.35508" lon="5.50567">
        <ele>543.4</ele>
        <time>2022-02-24T17:56:10Z</time>
      </trkpt>
      <trkpt lat="46.35518" lon="5.5057">
        <ele>542.8</ele>
        <time>2022-02-24T17:56:11Z</time>
      </trkpt>
      <trkpt lat="46.35528" lon="5.50574">
        <ele>542.2</ele>
        <time>2022-02-24T17:56:12Z</time>
      </trkpt>
      <trkpt lat="46.35537" lon="5.50578">
        <ele>541.6</ele>
        <time>2022-02-24T17:56:13Z</time>
      </trkpt>
      <trkpt lat="46.35546" lon="5.50582">
        <ele>541</ele>
        <time>2022-02-24T17:56:14Z</time>
      </trkpt>
      <trkpt lat="46.35555" lon="5.50585">
        <ele>540.4</ele>
        <time>2022-02-24T17:56:15Z</time>
      </trkpt>
      <trkpt lat="46.35565" lon="5.50588">
        <ele>539.6</ele>
        <time>2022-02-24T17:56:16Z</time>
      </trkpt>
      <trkpt lat="46.35575" lon="5.50591">
        <ele>539</ele>
        <time>2022-02-24T17:56:17Z</time>
      </trkpt>
      <trkpt lat="46.35586" lon="5.50595">
        <ele>538.2</ele>
        <time>2022-02-24T17:56:18Z</time>
      </trkpt>
      <trkpt lat="46.35596" lon="5.50599">
        <ele>537.4</ele>
        <time>2022-02-24T17:56:19Z</time>
      </trkpt>
      <trkpt lat="46.35607" lon="5.50602">
        <ele>536.8</ele>
        <time>2022-02-24T17:56:20Z</time>
      </trkpt>
      <trkpt lat="46.35618" lon="5.50606">
        <ele>536.2</ele>
        <time>2022-02-24T17:56:21Z</time>
      </trkpt>
      <trkpt lat="46.35629" lon="5.50608">
        <ele>535.4</ele>
        <time>2022-02-24T17:56:22Z</time>
      </trkpt>
      <trkpt lat="46.3564" lon="5.50612">
        <ele>534.8</ele>
        <time>2022-02-24T17:56:23Z</time>
      </trkpt>
      <trkpt lat="46.35651" lon="5.50616">
        <ele>534</ele>
        <time>2022-02-24T17:56:24Z</time>
      </trkpt>
      <trkpt lat="46.35661" lon="5.5062">
        <ele>533.4</ele>
        <time>2022-02-24T17:56:25Z</time>
      </trkpt>
      <trkpt lat="46.35672" lon="5.50624">
        <ele>532.6</ele>
        <time>2022-02-24T17:56:26Z</time>
      </trkpt>
      <trkpt lat="46.35683" lon="5.50628">
        <ele>532</ele>
        <time>2022-02-24T17:56:27Z</time>
      </trkpt>
      <trkpt lat="46.35693" lon="5.50632">
        <ele>531.2</ele>
        <time>2022-02-24T17:56:28Z</time>
      </trkpt>
      <trkpt lat="46.35704" lon="5.50634">
        <ele>530.2</ele>
        <time>2022-02-24T17:56:29Z</time>
      </trkpt>
      <trkpt lat="46.35716" lon="5.50637">
        <ele>529.4</ele>
        <time>2022-02-24T17:56:30Z</time>
      </trkpt>
      <trkpt lat="46.35727" lon="5.50638">
        <ele>528.8</ele>
        <time>2022-02-24T17:56:31Z</time>
      </trkpt>
      <trkpt lat="46.35738" lon="5.50638">
        <ele>528</ele>
        <time>2022-02-24T17:56:32Z</time>
      </trkpt>
      <trkpt lat="46.35749" lon="5.50637">
        <ele>527.4</ele>
        <time>2022-02-24T17:56:33Z</time>
      </trkpt>
      <trkpt lat="46.3576" lon="5.50636">
        <ele>526.6</ele>
        <time>2022-02-24T17:56:34Z</time>
      </trkpt>
      <trkpt lat="46.35771" lon="5.50635">
        <ele>525.8</ele>
        <time>2022-02-24T17:56:35Z</time>
      </trkpt>
      <trkpt lat="46.35781" lon="5.50634">
        <ele>525</ele>
        <time>2022-02-24T17:56:36Z</time>
      </trkpt>
      <trkpt lat="46.35792" lon="5.50633">
        <ele>524.2</ele>
        <time>2022-02-24T17:56:37Z</time>
      </trkpt>
      <trkpt lat="46.35804" lon="5.50632">
        <ele>523.6</ele>
        <time>2022-02-24T17:56:38Z</time>
      </trkpt>
      <trkpt lat="46.35815" lon="5.50631">
        <ele>522.8</ele>
        <time>2022-02-24T17:56:39Z</time>
      </trkpt>
      <trkpt lat="46.35827" lon="5.5063">
        <ele>522.2</ele>
        <time>2022-02-24T17:56:40Z</time>
      </trkpt>
      <trkpt lat="46.35838" lon="5.50629">
        <ele>521.4</ele>
        <time>2022-02-24T17:56:41Z</time>
      </trkpt>
      <trkpt lat="46.3585" lon="5.50628">
        <ele>520.8</ele>
        <time>2022-02-24T17:56:42Z</time>
      </trkpt>
      <trkpt lat="46.35862" lon="5.50627">
        <ele>520</ele>
        <time>2022-02-24T17:56:43Z</time>
      </trkpt>
      <trkpt lat="46.35874" lon="5.50627">
        <ele>519</ele>
        <time>2022-02-24T17:56:44Z</time>
      </trkpt>
      <trkpt lat="46.35886" lon="5.50628">
        <ele>518.4</ele>
        <time>2022-02-24T17:56:45Z</time>
      </trkpt>
      <trkpt lat="46.35897" lon="5.5063">
        <ele>517.4</ele>
        <time>2022-02-24T17:56:46Z</time>
      </trkpt>
      <trkpt lat="46.35909" lon="5.50631">
        <ele>516.6</ele>
        <time>2022-02-24T17:56:47Z</time>
      </trkpt>
      <trkpt lat="46.35921" lon="5.50633">
        <ele>515.8</ele>
        <time>2022-02-24T17:56:48Z</time>
      </trkpt>
      <trkpt lat="46.35934" lon="5.50634">
        <ele>515</ele>
        <time>2022-02-24T17:56:49Z</time>
      </trkpt>
      <trkpt lat="46.35946" lon="5.50635">
        <ele>514.2</ele>
        <time>2022-02-24T17:56:50Z</time>
      </trkpt>
      <trkpt lat="46.35958" lon="5.50636">
        <ele>513.4</ele>
        <time>2022-02-24T17:56:51Z</time>
      </trkpt>
      <trkpt lat="46.35971" lon="5.50636">
        <ele>512.4</ele>
        <time>2022-02-24T17:56:52Z</time>
      </trkpt>
      <trkpt lat="46.35983" lon="5.50637">
        <ele>511.6</ele>
        <time>2022-02-24T17:56:53Z</time>
      </trkpt>
      <trkpt lat="46.35995" lon="5.50638">
        <ele>510.6</ele>
        <time>2022-02-24T17:56:54Z</time>
      </trkpt>
      <trkpt lat="46.36008" lon="5.50639">
        <ele>510.6</ele>
        <time>2022-02-24T17:56:55Z</time>
      </trkpt>
      <trkpt lat="46.36021" lon="5.5064">
        <ele>509.8</ele>
        <time>2022-02-24T17:56:56Z</time>
      </trkpt>
      <trkpt lat="46.36034" lon="5.50643">
        <ele>508.8</ele>
        <time>2022-02-24T17:56:57Z</time>
      </trkpt>
      <trkpt lat="46.36047" lon="5.50646">
        <ele>507.8</ele>
        <time>2022-02-24T17:56:58Z</time>
      </trkpt>
      <trkpt lat="46.36059" lon="5.50648">
        <ele>507</ele>
        <time>2022-02-24T17:56:59Z</time>
      </trkpt>
      <trkpt lat="46.36071" lon="5.5065">
        <ele>506</ele>
        <time>2022-02-24T17:57:00Z</time>
      </trkpt>
      <trkpt lat="46.36083" lon="5.50651">
        <ele>505.4</ele>
        <time>2022-02-24T17:57:01Z</time>
      </trkpt>
      <trkpt lat="46.36095" lon="5.50653">
        <ele>504.4</ele>
        <time>2022-02-24T17:57:02Z</time>
      </trkpt>
      <trkpt lat="46.36107" lon="5.50655">
        <ele>503.6</ele>
        <time>2022-02-24T17:57:03Z</time>
      </trkpt>
      <trkpt lat="46.36119" lon="5.50658">
        <ele>502.6</ele>
        <time>2022-02-24T17:57:04Z</time>
      </trkpt>
      <trkpt lat="46.36131" lon="5.5066">
        <ele>501.6</ele>
        <time>2022-02-24T17:57:05Z</time>
      </trkpt>
      <trkpt lat="46.36143" lon="5.50663">
        <ele>500.8</ele>
        <time>2022-02-24T17:57:06Z</time>
      </trkpt>
      <trkpt lat="46.36154" lon="5.50665">
        <ele>500</ele>
        <time>2022-02-24T17:57:07Z</time>
      </trkpt>
      <trkpt lat="46.36164" lon="5.50667">
        <ele>499.2</ele>
        <time>2022-02-24T17:57:08Z</time>
      </trkpt>
      <trkpt lat="46.36174" lon="5.50667">
        <ele>498.4</ele>
        <time>2022-02-24T17:57:09Z</time>
      </trkpt>
      <trkpt lat="46.36184" lon="5.50669">
        <ele>497.8</ele>
        <time>2022-02-24T17:57:10Z</time>
      </trkpt>
      <trkpt lat="46.36194" lon="5.50671">
        <ele>497.2</ele>
        <time>2022-02-24T17:57:11Z</time>
      </trkpt>
      <trkpt lat="46.36203" lon="5.50675">
        <ele>496.6</ele>
        <time>2022-02-24T17:57:12Z</time>
      </trkpt>
      <trkpt lat="46.36213" lon="5.50679">
        <ele>495.8</ele>
        <time>2022-02-24T17:57:13Z</time>
      </trkpt>
      <trkpt lat="46.36223" lon="5.50684">
        <ele>495</ele>
        <time>2022-02-24T17:57:14Z</time>
      </trkpt>
      <trkpt lat="46.36233" lon="5.50689">
        <ele>494.2</ele>
        <time>2022-02-24T17:57:15Z</time>
      </trkpt>
      <trkpt lat="46.36243" lon="5.50693">
        <ele>493.4</ele>
        <time>2022-02-24T17:57:16Z</time>
      </trkpt>
      <trkpt lat="46.36254" lon="5.50697">
        <ele>492.8</ele>
        <time>2022-02-24T17:57:17Z</time>
      </trkpt>
      <trkpt lat="46.36264" lon="5.50701">
        <ele>492</ele>
        <time>2022-02-24T17:57:18Z</time>
      </trkpt>
      <trkpt lat="46.36274" lon="5.50704">
        <ele>491.2</ele>
        <time>2022-02-24T17:57:19Z</time>
      </trkpt>
      <trkpt lat="46.36285" lon="5.50709">
        <ele>490.6</ele>
        <time>2022-02-24T17:57:20Z</time>
      </trkpt>
      <trkpt lat="46.36296" lon="5.50714">
        <ele>489.8</ele>
        <time>2022-02-24T17:57:21Z</time>
      </trkpt>
      <trkpt lat="46.36306" lon="5.50719">
        <ele>489</ele>
        <time>2022-02-24T17:57:22Z</time>
      </trkpt>
      <trkpt lat="46.36317" lon="5.50724">
        <ele>488</ele>
        <time>2022-02-24T17:57:23Z</time>
      </trkpt>
      <trkpt lat="46.36327" lon="5.50729">
        <ele>487.4</ele>
        <time>2022-02-24T17:57:24Z</time>
      </trkpt>
      <trkpt lat="46.36338" lon="5.50734">
        <ele>486.6</ele>
        <time>2022-02-24T17:57:25Z</time>
      </trkpt>
      <trkpt lat="46.36349" lon="5.50739">
        <ele>485.8</ele>
        <time>2022-02-24T17:57:26Z</time>
      </trkpt>
      <trkpt lat="46.36359" lon="5.50743">
        <ele>485</ele>
        <time>2022-02-24T17:57:27Z</time>
      </trkpt>
      <trkpt lat="46.3637" lon="5.50748">
        <ele>484.2</ele>
        <time>2022-02-24T17:57:28Z</time>
      </trkpt>
      <trkpt lat="46.36381" lon="5.50752">
        <ele>483.4</ele>
        <time>2022-02-24T17:57:29Z</time>
      </trkpt>
      <trkpt lat="46.36391" lon="5.50755">
        <ele>482.8</ele>
        <time>2022-02-24T17:57:30Z</time>
      </trkpt>
      <trkpt lat="46.36402" lon="5.50759">
        <ele>482</ele>
        <time>2022-02-24T17:57:31Z</time>
      </trkpt>
      <trkpt lat="46.36412" lon="5.50763">
        <ele>481.4</ele>
        <time>2022-02-24T17:57:32Z</time>
      </trkpt>
      <trkpt lat="46.36421" lon="5.50768">
        <ele>480.6</ele>
        <time>2022-02-24T17:57:33Z</time>
      </trkpt>
      <trkpt lat="46.36431" lon="5.50772">
        <ele>480</ele>
        <time>2022-02-24T17:57:34Z</time>
      </trkpt>
      <trkpt lat="46.36441" lon="5.50776">
        <ele>479.2</ele>
        <time>2022-02-24T17:57:35Z</time>
      </trkpt>
      <trkpt lat="46.36451" lon="5.50779">
        <ele>478.4</ele>
        <time>2022-02-24T17:57:36Z</time>
      </trkpt>
      <trkpt lat="46.36461" lon="5.50782">
        <ele>477.8</ele>
        <time>2022-02-24T17:57:37Z</time>
      </trkpt>
      <trkpt lat="46.3647" lon="5.50786">
        <ele>477</ele>
        <time>2022-02-24T17:57:38Z</time>
      </trkpt>
      <trkpt lat="46.3648" lon="5.5079">
        <ele>476.4</ele>
        <time>2022-02-24T17:57:39Z</time>
      </trkpt>
      <trkpt lat="46.3649" lon="5.50794">
        <ele>475.6</ele>
        <time>2022-02-24T17:57:40Z</time>
      </trkpt>
      <trkpt lat="46.365" lon="5.50799">
        <ele>474.8</ele>
        <time>2022-02-24T17:57:41Z</time>
      </trkpt>
      <trkpt lat="46.36509" lon="5.50805">
        <ele>474</ele>
        <time>2022-02-24T17:57:42Z</time>
      </trkpt>
      <trkpt lat="46.36519" lon="5.50811">
        <ele>473.4</ele>
        <time>2022-02-24T17:57:43Z</time>
      </trkpt>
      <trkpt lat="46.36528" lon="5.50818">
        <ele>472.6</ele>
        <time>2022-02-24T17:57:44Z</time>
      </trkpt>
      <trkpt lat="46.36537" lon="5.50825">
        <ele>471.8</ele>
        <time>2022-02-24T17:57:45Z</time>
      </trkpt>
      <trkpt lat="46.36546" lon="5.50831">
        <ele>471</ele>
        <time>2022-02-24T17:57:46Z</time>
      </trkpt>
      <trkpt lat="46.36554" lon="5.50837">
        <ele>470.4</ele>
        <time>2022-02-24T17:57:47Z</time>
      </trkpt>
      <trkpt lat="46.36563" lon="5.50842">
        <ele>469.8</ele>
        <time>2022-02-24T17:57:48Z</time>
      </trkpt>
      <trkpt lat="46.36572" lon="5.50847">
        <ele>469</ele>
        <time>2022-02-24T17:57:49Z</time>
      </trkpt>
      <trkpt lat="46.36582" lon="5.50852">
        <ele>468.4</ele>
        <time>2022-02-24T17:57:50Z</time>
      </trkpt>
      <trkpt lat="46.36591" lon="5.50855">
        <ele>467.8</ele>
        <time>2022-02-24T17:57:51Z</time>
      </trkpt>
      <trkpt lat="46.366" lon="5.50857">
        <ele>467.2</ele>
        <time>2022-02-24T17:57:52Z</time>
      </trkpt>
      <trkpt lat="46.36608" lon="5.50858">
        <ele>466.6</ele>
        <time>2022-02-24T17:57:53Z</time>
      </trkpt>
      <trkpt lat="46.36616" lon="5.50858">
        <ele>466</ele>
        <time>2022-02-24T17:57:54Z</time>
      </trkpt>
      <trkpt lat="46.36624" lon="5.50858">
        <ele>465.4</ele>
        <time>2022-02-24T17:57:55Z</time>
      </trkpt>
      <trkpt lat="46.36633" lon="5.5086">
        <ele>464.8</ele>
        <time>2022-02-24T17:57:56Z</time>
      </trkpt>
      <trkpt lat="46.36641" lon="5.50865">
        <ele>464.2</ele>
        <time>2022-02-24T17:57:57Z</time>
      </trkpt>
      <trkpt lat="46.36649" lon="5.50871">
        <ele>463.6</ele>
        <time>2022-02-24T17:57:58Z</time>
      </trkpt>
      <trkpt lat="46.36656" lon="5.50879">
        <ele>462.8</ele>
        <time>2022-02-24T17:57:59Z</time>
      </trkpt>
      <trkpt lat="46.36664" lon="5.50888">
        <ele>462.2</ele>
        <time>2022-02-24T17:58:00Z</time>
      </trkpt>
      <trkpt lat="46.36672" lon="5.50897">
        <ele>461.4</ele>
        <time>2022-02-24T17:58:01Z</time>
      </trkpt>
      <trkpt lat="46.3668" lon="5.50905">
        <ele>460.8</ele>
        <time>2022-02-24T17:58:02Z</time>
      </trkpt>
      <trkpt lat="46.36688" lon="5.50913">
        <ele>460</ele>
        <time>2022-02-24T17:58:03Z</time>
      </trkpt>
      <trkpt lat="46.36696" lon="5.5092">
        <ele>459.4</ele>
        <time>2022-02-24T17:58:04Z</time>
      </trkpt>
      <trkpt lat="46.36704" lon="5.50926">
        <ele>458.6</ele>
        <time>2022-02-24T17:58:05Z</time>
      </trkpt>
      <trkpt lat="46.36713" lon="5.50932">
        <ele>457.8</ele>
        <time>2022-02-24T17:58:06Z</time>
      </trkpt>
      <trkpt lat="46.36722" lon="5.50938">
        <ele>457.2</ele>
        <time>2022-02-24T17:58:07Z</time>
      </trkpt>
      <trkpt lat="46.3673" lon="5.50942">
        <ele>456.6</ele>
        <time>2022-02-24T17:58:08Z</time>
      </trkpt>
      <trkpt lat="46.36739" lon="5.50947">
        <ele>455.8</ele>
        <time>2022-02-24T17:58:09Z</time>
      </trkpt>
      <trkpt lat="46.36747" lon="5.5095">
        <ele>455.2</ele>
        <time>2022-02-24T17:58:10Z</time>
      </trkpt>
      <trkpt lat="46.36756" lon="5.50953">
        <ele>454.6</ele>
        <time>2022-02-24T17:58:11Z</time>
      </trkpt>
      <trkpt lat="46.36764" lon="5.50955">
        <ele>454</ele>
        <time>2022-02-24T17:58:12Z</time>
      </trkpt>
      <trkpt lat="46.36772" lon="5.50956">
        <ele>453.4</ele>
        <time>2022-02-24T17:58:13Z</time>
      </trkpt>
      <trkpt lat="46.3678" lon="5.50957">
        <ele>452.8</ele>
        <time>2022-02-24T17:58:14Z</time>
      </trkpt>
      <trkpt lat="46.36787" lon="5.5096">
        <ele>452.2</ele>
        <time>2022-02-24T17:58:15Z</time>
      </trkpt>
      <trkpt lat="46.36795" lon="5.50965">
        <ele>451.6</ele>
        <time>2022-02-24T17:58:16Z</time>
      </trkpt>
      <trkpt lat="46.36802" lon="5.50971">
        <ele>451</ele>
        <time>2022-02-24T17:58:17Z</time>
      </trkpt>
      <trkpt lat="46.36809" lon="5.50979">
        <ele>450.4</ele>
        <time>2022-02-24T17:58:18Z</time>
      </trkpt>
      <trkpt lat="46.36814" lon="5.50987">
        <ele>449.8</ele>
        <time>2022-02-24T17:58:19Z</time>
      </trkpt>
      <trkpt lat="46.3682" lon="5.50994">
        <ele>449</ele>
        <time>2022-02-24T17:58:20Z</time>
      </trkpt>
      <trkpt lat="46.36826" lon="5.51002">
        <ele>448.4</ele>
        <time>2022-02-24T17:58:21Z</time>
      </trkpt>
      <trkpt lat="46.36833" lon="5.51008">
        <ele>447.8</ele>
        <time>2022-02-24T17:58:22Z</time>
      </trkpt>
      <trkpt lat="46.36841" lon="5.51014">
        <ele>447.2</ele>
        <time>2022-02-24T17:58:23Z</time>
      </trkpt>
      <trkpt lat="46.3685" lon="5.51019">
        <ele>446.6</ele>
        <time>2022-02-24T17:58:24Z</time>
      </trkpt>
      <trkpt lat="46.36858" lon="5.51025">
        <ele>446</ele>
        <time>2022-02-24T17:58:25Z</time>
      </trkpt>
      <trkpt lat="46.36867" lon="5.51029">
        <ele>445.2</ele>
        <time>2022-02-24T17:58:26Z</time>
      </trkpt>
      <trkpt lat="46.36875" lon="5.51035">
        <ele>444.6</ele>
        <time>2022-02-24T17:58:27Z</time>
      </trkpt>
      <trkpt lat="46.36883" lon="5.51039">
        <ele>444</ele>
        <time>2022-02-24T17:58:28Z</time>
      </trkpt>
      <trkpt lat="46.3689" lon="5.51042">
        <ele>443.4</ele>
        <time>2022-02-24T17:58:29Z</time>
      </trkpt>
      <trkpt lat="46.36898" lon="5.51045">
        <ele>443</ele>
        <time>2022-02-24T17:58:30Z</time>
      </trkpt>
      <trkpt lat="46.36905" lon="5.51047">
        <ele>442.4</ele>
        <time>2022-02-24T17:58:31Z</time>
      </trkpt>
      <trkpt lat="46.36911" lon="5.51047">
        <ele>441.8</ele>
        <time>2022-02-24T17:58:32Z</time>
      </trkpt>
      <trkpt lat="46.36917" lon="5.51047">
        <ele>441.2</ele>
        <time>2022-02-24T17:58:33Z</time>
      </trkpt>
      <trkpt lat="46.36924" lon="5.51045">
        <ele>440.6</ele>
        <time>2022-02-24T17:58:34Z</time>
      </trkpt>
      <trkpt lat="46.36937" lon="5.51037">
        <ele>440.2</ele>
        <time>2022-02-24T17:58:35Z</time>
      </trkpt>
      <trkpt lat="46.36942" lon="5.51031">
        <ele>439.6</ele>
        <time>2022-02-24T17:58:36Z</time>
      </trkpt>
      <trkpt lat="46.36948" lon="5.51025">
        <ele>439.2</ele>
        <time>2022-02-24T17:58:37Z</time>
      </trkpt>
      <trkpt lat="46.36956" lon="5.51019">
        <ele>438.8</ele>
        <time>2022-02-24T17:58:38Z</time>
      </trkpt>
      <trkpt lat="46.36963" lon="5.51015">
        <ele>438.4</ele>
        <time>2022-02-24T17:58:39Z</time>
      </trkpt>
      <trkpt lat="46.36972" lon="5.5101">
        <ele>437.8</ele>
        <time>2022-02-24T17:58:40Z</time>
      </trkpt>
      <trkpt lat="46.36981" lon="5.51007">
        <ele>437.4</ele>
        <time>2022-02-24T17:58:41Z</time>
      </trkpt>
      <trkpt lat="46.3699" lon="5.51003">
        <ele>436.8</ele>
        <time>2022-02-24T17:58:42Z</time>
      </trkpt>
      <trkpt lat="46.36998" lon="5.51001">
        <ele>436.2</ele>
        <time>2022-02-24T17:58:43Z</time>
      </trkpt>
      <trkpt lat="46.37006" lon="5.50999">
        <ele>435.6</ele>
        <time>2022-02-24T17:58:44Z</time>
      </trkpt>
      <trkpt lat="46.37014" lon="5.50997">
        <ele>435.2</ele>
        <time>2022-02-24T17:58:45Z</time>
      </trkpt>
      <trkpt lat="46.37021" lon="5.50996">
        <ele>434.6</ele>
        <time>2022-02-24T17:58:46Z</time>
      </trkpt>
      <trkpt lat="46.37028" lon="5.50996">
        <ele>434.2</ele>
        <time>2022-02-24T17:58:47Z</time>
      </trkpt>
      <trkpt lat="46.37036" lon="5.50997">
        <ele>433.6</ele>
        <time>2022-02-24T17:58:48Z</time>
      </trkpt>
      <trkpt lat="46.37044" lon="5.51">
        <ele>433</ele>
        <time>2022-02-24T17:58:49Z</time>
      </trkpt>
      <trkpt lat="46.37051" lon="5.51004">
        <ele>432.6</ele>
        <time>2022-02-24T17:58:50Z</time>
      </trkpt>
      <trkpt lat="46.37059" lon="5.51009">
        <ele>432</ele>
        <time>2022-02-24T17:58:51Z</time>
      </trkpt>
      <trkpt lat="46.37066" lon="5.51015">
        <ele>431.8</ele>
        <time>2022-02-24T17:58:52Z</time>
      </trkpt>
      <trkpt lat="46.37072" lon="5.51021">
        <ele>431.2</ele>
        <time>2022-02-24T17:58:53Z</time>
      </trkpt>
      <trkpt lat="46.37078" lon="5.51029">
        <ele>430.6</ele>
        <time>2022-02-24T17:58:54Z</time>
      </trkpt>
      <trkpt lat="46.37084" lon="5.51038">
        <ele>430.2</ele>
        <time>2022-02-24T17:58:55Z</time>
      </trkpt>
      <trkpt lat="46.3709" lon="5.51048">
        <ele>429.8</ele>
        <time>2022-02-24T17:58:56Z</time>
      </trkpt>
      <trkpt lat="46.37095" lon="5.51058">
        <ele>429.2</ele>
        <time>2022-02-24T17:58:57Z</time>
      </trkpt>
      <trkpt lat="46.371" lon="5.51069">
        <ele>428.8</ele>
        <time>2022-02-24T17:58:58Z</time>
      </trkpt>
      <trkpt lat="46.37105" lon="5.5108">
        <ele>428.2</ele>
        <time>2022-02-24T17:58:59Z</time>
      </trkpt>
      <trkpt lat="46.3711" lon="5.5109">
        <ele>427.6</ele>
        <time>2022-02-24T17:59:00Z</time>
      </trkpt>
      <trkpt lat="46.37115" lon="5.511">
        <ele>427</ele>
        <time>2022-02-24T17:59:01Z</time>
      </trkpt>
      <trkpt lat="46.37119" lon="5.51111">
        <ele>426.6</ele>
        <time>2022-02-24T17:59:02Z</time>
      </trkpt>
      <trkpt lat="46.37124" lon="5.51121">
        <ele>426</ele>
        <time>2022-02-24T17:59:03Z</time>
      </trkpt>
      <trkpt lat="46.37128" lon="5.51132">
        <ele>425.6</ele>
        <time>2022-02-24T17:59:04Z</time>
      </trkpt>
      <trkpt lat="46.37133" lon="5.51141">
        <ele>425</ele>
        <time>2022-02-24T17:59:05Z</time>
      </trkpt>
      <trkpt lat="46.37137" lon="5.51151">
        <ele>424.4</ele>
        <time>2022-02-24T17:59:06Z</time>
      </trkpt>
      <trkpt lat="46.37139" lon="5.51163">
        <ele>423.8</ele>
        <time>2022-02-24T17:59:07Z</time>
      </trkpt>
      <trkpt lat="46.37141" lon="5.51175">
        <ele>423.4</ele>
        <time>2022-02-24T17:59:08Z</time>
      </trkpt>
      <trkpt lat="46.37141" lon="5.51186">
        <ele>422.8</ele>
        <time>2022-02-24T17:59:09Z</time>
      </trkpt>
      <trkpt lat="46.37141" lon="5.51198">
        <ele>422.2</ele>
        <time>2022-02-24T17:59:10Z</time>
      </trkpt>
      <trkpt lat="46.37142" lon="5.51209">
        <ele>421.8</ele>
        <time>2022-02-24T17:59:11Z</time>
      </trkpt>
      <trkpt lat="46.37143" lon="5.51221">
        <ele>421.4</ele>
        <time>2022-02-24T17:59:12Z</time>
      </trkpt>
      <trkpt lat="46.37146" lon="5.51232">
        <ele>420.8</ele>
        <time>2022-02-24T17:59:13Z</time>
      </trkpt>
      <trkpt lat="46.37148" lon="5.51243">
        <ele>420.2</ele>
        <time>2022-02-24T17:59:14Z</time>
      </trkpt>
      <trkpt lat="46.37151" lon="5.51255">
        <ele>419.8</ele>
        <time>2022-02-24T17:59:15Z</time>
      </trkpt>
      <trkpt lat="46.37154" lon="5.51267">
        <ele>419.2</ele>
        <time>2022-02-24T17:59:16Z</time>
      </trkpt>
      <trkpt lat="46.37156" lon="5.51279">
        <ele>418.4</ele>
        <time>2022-02-24T17:59:17Z</time>
      </trkpt>
      <trkpt lat="46.37157" lon="5.5129">
        <ele>417.8</ele>
        <time>2022-02-24T17:59:18Z</time>
      </trkpt>
      <trkpt lat="46.37158" lon="5.51301">
        <ele>417</ele>
        <time>2022-02-24T17:59:19Z</time>
      </trkpt>
      <trkpt lat="46.37158" lon="5.51311">
        <ele>416.4</ele>
        <time>2022-02-24T17:59:20Z</time>
      </trkpt>
      <trkpt lat="46.37158" lon="5.5132">
        <ele>415.8</ele>
        <time>2022-02-24T17:59:21Z</time>
      </trkpt>
      <trkpt lat="46.37159" lon="5.51329">
        <ele>415.4</ele>
        <time>2022-02-24T17:59:22Z</time>
      </trkpt>
      <trkpt lat="46.3716" lon="5.51336">
        <ele>415</ele>
        <time>2022-02-24T17:59:23Z</time>
      </trkpt>
      <trkpt lat="46.37163" lon="5.51343">
        <ele>414.4</ele>
        <time>2022-02-24T17:59:24Z</time>
      </trkpt>
      <trkpt lat="46.37166" lon="5.51348">
        <ele>413.8</ele>
        <time>2022-02-24T17:59:25Z</time>
      </trkpt>
      <trkpt lat="46.3717" lon="5.51352">
        <ele>413.4</ele>
        <time>2022-02-24T17:59:26Z</time>
      </trkpt>
      <trkpt lat="46.37176" lon="5.51354">
        <ele>413</ele>
        <time>2022-02-24T17:59:27Z</time>
      </trkpt>
      <trkpt lat="46.37182" lon="5.51355">
        <ele>412.4</ele>
        <time>2022-02-24T17:59:28Z</time>
      </trkpt>
      <trkpt lat="46.37189" lon="5.51355">
        <ele>412</ele>
        <time>2022-02-24T17:59:29Z</time>
      </trkpt>
      <trkpt lat="46.37196" lon="5.51355">
        <ele>411.4</ele>
        <time>2022-02-24T17:59:30Z</time>
      </trkpt>
      <trkpt lat="46.37204" lon="5.51356">
        <ele>411</ele>
        <time>2022-02-24T17:59:31Z</time>
      </trkpt>
      <trkpt lat="46.37211" lon="5.51358">
        <ele>410.4</ele>
        <time>2022-02-24T17:59:32Z</time>
      </trkpt>
      <trkpt lat="46.37218" lon="5.51361">
        <ele>410</ele>
        <time>2022-02-24T17:59:33Z</time>
      </trkpt>
      <trkpt lat="46.37225" lon="5.51366">
        <ele>409.6</ele>
        <time>2022-02-24T17:59:34Z</time>
      </trkpt>
      <trkpt lat="46.37232" lon="5.51371">
        <ele>409</ele>
        <time>2022-02-24T17:59:35Z</time>
      </trkpt>
      <trkpt lat="46.37238" lon="5.51376">
        <ele>408.6</ele>
        <time>2022-02-24T17:59:36Z</time>
      </trkpt>
      <trkpt lat="46.37245" lon="5.5138">
        <ele>408</ele>
        <time>2022-02-24T17:59:37Z</time>
      </trkpt>
      <trkpt lat="46.3725" lon="5.51384">
        <ele>407.6</ele>
        <time>2022-02-24T17:59:38Z</time>
      </trkpt>
      <trkpt lat="46.37256" lon="5.51387">
        <ele>407</ele>
        <time>2022-02-24T17:59:39Z</time>
      </trkpt>
      <trkpt lat="46.3726" lon="5.51391">
        <ele>406.6</ele>
        <time>2022-02-24T17:59:40Z</time>
      </trkpt>
      <trkpt lat="46.37264" lon="5.51396">
        <ele>406</ele>
        <time>2022-02-24T17:59:41Z</time>
      </trkpt>
      <trkpt lat="46.37267" lon="5.51402">
        <ele>405.6</ele>
        <time>2022-02-24T17:59:42Z</time>
      </trkpt>
      <trkpt lat="46.37269" lon="5.5141">
        <ele>405.2</ele>
        <time>2022-02-24T17:59:43Z</time>
      </trkpt>
      <trkpt lat="46.37269" lon="5.51419">
        <ele>404.8</ele>
        <time>2022-02-24T17:59:44Z</time>
      </trkpt>
      <trkpt lat="46.37269" lon="5.51428">
        <ele>404.4</ele>
        <time>2022-02-24T17:59:45Z</time>
      </trkpt>
      <trkpt lat="46.37268" lon="5.51437">
        <ele>404.2</ele>
        <time>2022-02-24T17:59:46Z</time>
      </trkpt>
      <trkpt lat="46.37266" lon="5.51446">
        <ele>403.8</ele>
        <time>2022-02-24T17:59:47Z</time>
      </trkpt>
      <trkpt lat="46.37265" lon="5.51456">
        <ele>403.4</ele>
        <time>2022-02-24T17:59:48Z</time>
      </trkpt>
      <trkpt lat="46.37263" lon="5.51466">
        <ele>403</ele>
        <time>2022-02-24T17:59:49Z</time>
      </trkpt>
      <trkpt lat="46.37259" lon="5.51475">
        <ele>402.6</ele>
        <time>2022-02-24T17:59:50Z</time>
      </trkpt>
      <trkpt lat="46.37255" lon="5.51485">
        <ele>402</ele>
        <time>2022-02-24T17:59:51Z</time>
      </trkpt>
      <trkpt lat="46.3725" lon="5.51494">
        <ele>401.4</ele>
        <time>2022-02-24T17:59:52Z</time>
      </trkpt>
      <trkpt lat="46.37244" lon="5.51502">
        <ele>401</ele>
        <time>2022-02-24T17:59:53Z</time>
      </trkpt>
      <trkpt lat="46.37239" lon="5.5151">
        <ele>400.4</ele>
        <time>2022-02-24T17:59:54Z</time>
      </trkpt>
      <trkpt lat="46.37233" lon="5.51519">
        <ele>400</ele>
        <time>2022-02-24T17:59:55Z</time>
      </trkpt>
      <trkpt lat="46.37229" lon="5.51529">
        <ele>399.2</ele>
        <time>2022-02-24T17:59:56Z</time>
      </trkpt>
      <trkpt lat="46.37224" lon="5.51539">
        <ele>398.6</ele>
        <time>2022-02-24T17:59:57Z</time>
      </trkpt>
      <trkpt lat="46.3722" lon="5.5155">
        <ele>398</ele>
        <time>2022-02-24T17:59:58Z</time>
      </trkpt>
      <trkpt lat="46.37216" lon="5.51562">
        <ele>397.4</ele>
        <time>2022-02-24T17:59:59Z</time>
      </trkpt>
      <trkpt lat="46.37212" lon="5.51574">
        <ele>396.8</ele>
        <time>2022-02-24T18:00:00Z</time>
      </trkpt>
      <trkpt lat="46.37208" lon="5.51585">
        <ele>396.2</ele>
        <time>2022-02-24T18:00:01Z</time>
      </trkpt>
      <trkpt lat="46.37203" lon="5.51595">
        <ele>395.6</ele>
        <time>2022-02-24T18:00:02Z</time>
      </trkpt>
      <trkpt lat="46.37198" lon="5.51603">
        <ele>395</ele>
        <time>2022-02-24T18:00:03Z</time>
      </trkpt>
      <trkpt lat="46.37191" lon="5.5161">
        <ele>394.4</ele>
        <time>2022-02-24T18:00:04Z</time>
      </trkpt>
      <trkpt lat="46.37184" lon="5.51616">
        <ele>393.8</ele>
        <time>2022-02-24T18:00:05Z</time>
      </trkpt>
      <trkpt lat="46.37178" lon="5.51622">
        <ele>393.2</ele>
        <time>2022-02-24T18:00:06Z</time>
      </trkpt>
      <trkpt lat="46.37172" lon="5.51627">
        <ele>392.6</ele>
        <time>2022-02-24T18:00:07Z</time>
      </trkpt>
      <trkpt lat="46.37166" lon="5.51633">
        <ele>392.2</ele>
        <time>2022-02-24T18:00:08Z</time>
      </trkpt>
      <trkpt lat="46.37162" lon="5.51639">
        <ele>391.6</ele>
        <time>2022-02-24T18:00:09Z</time>
      </trkpt>
      <trkpt lat="46.37158" lon="5.51645">
        <ele>391.2</ele>
        <time>2022-02-24T18:00:10Z</time>
      </trkpt>
      <trkpt lat="46.37154" lon="5.51652">
        <ele>390.6</ele>
        <time>2022-02-24T18:00:11Z</time>
      </trkpt>
      <trkpt lat="46.37152" lon="5.51661">
        <ele>390.2</ele>
        <time>2022-02-24T18:00:12Z</time>
      </trkpt>
      <trkpt lat="46.3715" lon="5.51669">
        <ele>389.8</ele>
        <time>2022-02-24T18:00:13Z</time>
      </trkpt>
      <trkpt lat="46.37148" lon="5.51679">
        <ele>389.2</ele>
        <time>2022-02-24T18:00:14Z</time>
      </trkpt>
      <trkpt lat="46.37146" lon="5.51688">
        <ele>388.6</ele>
        <time>2022-02-24T18:00:15Z</time>
      </trkpt>
      <trkpt lat="46.37145" lon="5.51698">
        <ele>388</ele>
        <time>2022-02-24T18:00:16Z</time>
      </trkpt>
      <trkpt lat="46.37143" lon="5.51709">
        <ele>387.4</ele>
        <time>2022-02-24T18:00:17Z</time>
      </trkpt>
      <trkpt lat="46.37141" lon="5.51719">
        <ele>386.8</ele>
        <time>2022-02-24T18:00:18Z</time>
      </trkpt>
      <trkpt lat="46.37139" lon="5.51729">
        <ele>386.2</ele>
        <time>2022-02-24T18:00:19Z</time>
      </trkpt>
      <trkpt lat="46.37136" lon="5.51738">
        <ele>385.6</ele>
        <time>2022-02-24T18:00:20Z</time>
      </trkpt>
      <trkpt lat="46.37133" lon="5.51747">
        <ele>385.2</ele>
        <time>2022-02-24T18:00:21Z</time>
      </trkpt>
      <trkpt lat="46.3713" lon="5.51755">
        <ele>384.6</ele>
        <time>2022-02-24T18:00:22Z</time>
      </trkpt>
      <trkpt lat="46.37127" lon="5.51763">
        <ele>384.2</ele>
        <time>2022-02-24T18:00:23Z</time>
      </trkpt>
      <trkpt lat="46.37122" lon="5.51769">
        <ele>383.6</ele>
        <time>2022-02-24T18:00:24Z</time>
      </trkpt>
      <trkpt lat="46.37117" lon="5.51773">
        <ele>383.2</ele>
        <time>2022-02-24T18:00:25Z</time>
      </trkpt>
      <trkpt lat="46.37112" lon="5.51776">
        <ele>382.8</ele>
        <time>2022-02-24T18:00:26Z</time>
      </trkpt>
      <trkpt lat="46.37107" lon="5.51777">
        <ele>382.4</ele>
        <time>2022-02-24T18:00:27Z</time>
      </trkpt>
      <trkpt lat="46.37102" lon="5.51777">
        <ele>381.8</ele>
        <time>2022-02-24T18:00:28Z</time>
      </trkpt>
      <trkpt lat="46.37096" lon="5.51776">
        <ele>381.4</ele>
        <time>2022-02-24T18:00:29Z</time>
      </trkpt>
      <trkpt lat="46.37091" lon="5.51775">
        <ele>381</ele>
        <time>2022-02-24T18:00:30Z</time>
      </trkpt>
      <trkpt lat="46.37086" lon="5.51775">
        <ele>380.4</ele>
        <time>2022-02-24T18:00:31Z</time>
      </trkpt>
      <trkpt lat="46.37082" lon="5.51774">
        <ele>379.8</ele>
        <time>2022-02-24T18:00:32Z</time>
      </trkpt>
      <trkpt lat="46.37077" lon="5.51773">
        <ele>379.4</ele>
        <time>2022-02-24T18:00:33Z</time>
      </trkpt>
      <trkpt lat="46.37073" lon="5.51773">
        <ele>379</ele>
        <time>2022-02-24T18:00:34Z</time>
      </trkpt>
      <trkpt lat="46.37069" lon="5.51774">
        <ele>378.6</ele>
        <time>2022-02-24T18:00:35Z</time>
      </trkpt>
      <trkpt lat="46.37066" lon="5.51776">
        <ele>378.2</ele>
        <time>2022-02-24T18:00:36Z</time>
      </trkpt>
      <trkpt lat="46.37063" lon="5.5178">
        <ele>377.8</ele>
        <time>2022-02-24T18:00:37Z</time>
      </trkpt>
      <trkpt lat="46.37061" lon="5.51786">
        <ele>377.4</ele>
        <time>2022-02-24T18:00:38Z</time>
      </trkpt>
      <trkpt lat="46.3706" lon="5.51793">
        <ele>377</ele>
        <time>2022-02-24T18:00:39Z</time>
      </trkpt>
      <trkpt lat="46.37059" lon="5.51801">
        <ele>376.4</ele>
        <time>2022-02-24T18:00:40Z</time>
      </trkpt>
      <trkpt lat="46.37058" lon="5.5181">
        <ele>376</ele>
        <time>2022-02-24T18:00:41Z</time>
      </trkpt>
      <trkpt lat="46.37057" lon="5.5182">
        <ele>375.4</ele>
        <time>2022-02-24T18:00:42Z</time>
      </trkpt>
      <trkpt lat="46.37056" lon="5.5183">
        <ele>375</ele>
        <time>2022-02-24T18:00:43Z</time>
      </trkpt>
      <trkpt lat="46.37054" lon="5.51839">
        <ele>374.4</ele>
        <time>2022-02-24T18:00:44Z</time>
      </trkpt>
      <trkpt lat="46.37052" lon="5.51849">
        <ele>374</ele>
        <time>2022-02-24T18:00:45Z</time>
      </trkpt>
      <trkpt lat="46.3705" lon="5.51858">
        <ele>373.4</ele>
        <time>2022-02-24T18:00:46Z</time>
      </trkpt>
      <trkpt lat="46.37046" lon="5.51868">
        <ele>373</ele>
        <time>2022-02-24T18:00:47Z</time>
      </trkpt>
      <trkpt lat="46.37043" lon="5.51876">
        <ele>372.4</ele>
        <time>2022-02-24T18:00:48Z</time>
      </trkpt>
      <trkpt lat="46.3704" lon="5.51885">
        <ele>371.8</ele>
        <time>2022-02-24T18:00:49Z</time>
      </trkpt>
      <trkpt lat="46.37036" lon="5.51894">
        <ele>371.2</ele>
        <time>2022-02-24T18:00:50Z</time>
      </trkpt>
      <trkpt lat="46.37033" lon="5.51902">
        <ele>370.8</ele>
        <time>2022-02-24T18:00:51Z</time>
      </trkpt>
      <trkpt lat="46.37031" lon="5.51911">
        <ele>370</ele>
        <time>2022-02-24T18:00:52Z</time>
      </trkpt>
      <trkpt lat="46.37028" lon="5.51918">
        <ele>369.6</ele>
        <time>2022-02-24T18:00:53Z</time>
      </trkpt>
      <trkpt lat="46.37026" lon="5.51924">
        <ele>369.2</ele>
        <time>2022-02-24T18:00:54Z</time>
      </trkpt>
      <trkpt lat="46.37023" lon="5.5193">
        <ele>368.8</ele>
        <time>2022-02-24T18:00:55Z</time>
      </trkpt>
      <trkpt lat="46.3702" lon="5.51935">
        <ele>368.2</ele>
        <time>2022-02-24T18:00:56Z</time>
      </trkpt>
      <trkpt lat="46.37016" lon="5.5194">
        <ele>367.8</ele>
        <time>2022-02-24T18:00:57Z</time>
      </trkpt>
      <trkpt lat="46.37012" lon="5.51943">
        <ele>367.2</ele>
        <time>2022-02-24T18:00:58Z</time>
      </trkpt>
      <trkpt lat="46.37007" lon="5.51946">
        <ele>366.6</ele>
        <time>2022-02-24T18:00:59Z</time>
      </trkpt>
      <trkpt lat="46.37002" lon="5.51948">
        <ele>366</ele>
        <time>2022-02-24T18:01:00Z</time>
      </trkpt>
      <trkpt lat="46.36997" lon="5.5195">
        <ele>365.6</ele>
        <time>2022-02-24T18:01:01Z</time>
      </trkpt>
      <trkpt lat="46.36992" lon="5.51952">
        <ele>365</ele>
        <time>2022-02-24T18:01:02Z</time>
      </trkpt>
      <trkpt lat="46.36988" lon="5.51953">
        <ele>364.6</ele>
        <time>2022-02-24T18:01:03Z</time>
      </trkpt>
      <trkpt lat="46.36984" lon="5.51955">
        <ele>364</ele>
        <time>2022-02-24T18:01:04Z</time>
      </trkpt>
      <trkpt lat="46.36981" lon="5.51957">
        <ele>363.8</ele>
        <time>2022-02-24T18:01:05Z</time>
      </trkpt>
      <trkpt lat="46.36977" lon="5.5196">
        <ele>363.4</ele>
        <time>2022-02-24T18:01:06Z</time>
      </trkpt>
      <trkpt lat="46.36974" lon="5.51962">
        <ele>363</ele>
        <time>2022-02-24T18:01:07Z</time>
      </trkpt>
      <trkpt lat="46.3697" lon="5.51965">
        <ele>362.8</ele>
        <time>2022-02-24T18:01:08Z</time>
      </trkpt>
      <trkpt lat="46.36966" lon="5.51967">
        <ele>362.4</ele>
        <time>2022-02-24T18:01:09Z</time>
      </trkpt>
      <trkpt lat="46.36963" lon="5.5197">
        <ele>362</ele>
        <time>2022-02-24T18:01:10Z</time>
      </trkpt>
      <trkpt lat="46.3696" lon="5.51974">
        <ele>361.8</ele>
        <time>2022-02-24T18:01:11Z</time>
      </trkpt>
      <trkpt lat="46.36957" lon="5.51979">
        <ele>361.8</ele>
        <time>2022-02-24T18:01:12Z</time>
      </trkpt>
      <trkpt lat="46.36955" lon="5.51984">
        <ele>361.4</ele>
        <time>2022-02-24T18:01:13Z</time>
      </trkpt>
      <trkpt lat="46.36953" lon="5.51989">
        <ele>361.4</ele>
        <time>2022-02-24T18:01:14Z</time>
      </trkpt>
      <trkpt lat="46.36951" lon="5.51995">
        <ele>361.4</ele>
        <time>2022-02-24T18:01:15Z</time>
      </trkpt>
      <trkpt lat="46.36949" lon="5.52">
        <ele>361.2</ele>
        <time>2022-02-24T18:01:16Z</time>
      </trkpt>
      <trkpt lat="46.36947" lon="5.52006">
        <ele>361.2</ele>
        <time>2022-02-24T18:01:17Z</time>
      </trkpt>
      <trkpt lat="46.36945" lon="5.52012">
        <ele>361.2</ele>
        <time>2022-02-24T18:01:18Z</time>
      </trkpt>
      <trkpt lat="46.36943" lon="5.52019">
        <ele>361</ele>
        <time>2022-02-24T18:01:19Z</time>
      </trkpt>
      <trkpt lat="46.3694" lon="5.52026">
        <ele>361</ele>
        <time>2022-02-24T18:01:20Z</time>
      </trkpt>
      <trkpt lat="46.36937" lon="5.52033">
        <ele>360.8</ele>
        <time>2022-02-24T18:01:21Z</time>
      </trkpt>
      <trkpt lat="46.36935" lon="5.5204">
        <ele>360.8</ele>
        <time>2022-02-24T18:01:22Z</time>
      </trkpt>
      <trkpt lat="46.36932" lon="5.52047">
        <ele>360.6</ele>
        <time>2022-02-24T18:01:23Z</time>
      </trkpt>
      <trkpt lat="46.3693" lon="5.52054">
        <ele>360.6</ele>
        <time>2022-02-24T18:01:24Z</time>
      </trkpt>
      <trkpt lat="46.36928" lon="5.52061">
        <ele>360.6</ele>
        <time>2022-02-24T18:01:25Z</time>
      </trkpt>
      <trkpt lat="46.36926" lon="5.52068">
        <ele>360.2</ele>
        <time>2022-02-24T18:01:26Z</time>
      </trkpt>
      <trkpt lat="46.36924" lon="5.52075">
        <ele>360.2</ele>
        <time>2022-02-24T18:01:27Z</time>
      </trkpt>
      <trkpt lat="46.36922" lon="5.52083">
        <ele>360.2</ele>
        <time>2022-02-24T18:01:28Z</time>
      </trkpt>
      <trkpt lat="46.3692" lon="5.5209">
        <ele>360</ele>
        <time>2022-02-24T18:01:29Z</time>
      </trkpt>
      <trkpt lat="46.36919" lon="5.52097">
        <ele>360</ele>
        <time>2022-02-24T18:01:30Z</time>
      </trkpt>
      <trkpt lat="46.36917" lon="5.52104">
        <ele>359.8</ele>
        <time>2022-02-24T18:01:31Z</time>
      </trkpt>
      <trkpt lat="46.36916" lon="5.52111">
        <ele>359.8</ele>
        <time>2022-02-24T18:01:32Z</time>
      </trkpt>
      <trkpt lat="46.36915" lon="5.52119">
        <ele>359.6</ele>
        <time>2022-02-24T18:01:33Z</time>
      </trkpt>
      <trkpt lat="46.36913" lon="5.52126">
        <ele>359.6</ele>
        <time>2022-02-24T18:01:34Z</time>
      </trkpt>
      <trkpt lat="46.36912" lon="5.52134">
        <ele>359.2</ele>
        <time>2022-02-24T18:01:35Z</time>
      </trkpt>
      <trkpt lat="46.36911" lon="5.52143">
        <ele>359</ele>
        <time>2022-02-24T18:01:36Z</time>
      </trkpt>
      <trkpt lat="46.3691" lon="5.52151">
        <ele>358.6</ele>
        <time>2022-02-24T18:01:37Z</time>
      </trkpt>
      <trkpt lat="46.3691" lon="5.52161">
        <ele>358.4</ele>
        <time>2022-02-24T18:01:38Z</time>
      </trkpt>
      <trkpt lat="46.3691" lon="5.52171">
        <ele>358</ele>
        <time>2022-02-24T18:01:39Z</time>
      </trkpt>
      <trkpt lat="46.3691" lon="5.52181">
        <ele>357.8</ele>
        <time>2022-02-24T18:01:40Z</time>
      </trkpt>
      <trkpt lat="46.36909" lon="5.52192">
        <ele>357.4</ele>
        <time>2022-02-24T18:01:41Z</time>
      </trkpt>
      <trkpt lat="46.36909" lon="5.52202">
        <ele>357.2</ele>
        <time>2022-02-24T18:01:42Z</time>
      </trkpt>
      <trkpt lat="46.36909" lon="5.52213">
        <ele>357</ele>
        <time>2022-02-24T18:01:43Z</time>
      </trkpt>
      <trkpt lat="46.36908" lon="5.52224">
        <ele>356.6</ele>
        <time>2022-02-24T18:01:44Z</time>
      </trkpt>
      <trkpt lat="46.36908" lon="5.52235">
        <ele>356.4</ele>
        <time>2022-02-24T18:01:45Z</time>
      </trkpt>
      <trkpt lat="46.36908" lon="5.52246">
        <ele>356</ele>
        <time>2022-02-24T18:01:46Z</time>
      </trkpt>
      <trkpt lat="46.36907" lon="5.52257">
        <ele>355.6</ele>
        <time>2022-02-24T18:01:47Z</time>
      </trkpt>
      <trkpt lat="46.36906" lon="5.52268">
        <ele>355.2</ele>
        <time>2022-02-24T18:01:48Z</time>
      </trkpt>
      <trkpt lat="46.36906" lon="5.52278">
        <ele>354.8</ele>
        <time>2022-02-24T18:01:49Z</time>
      </trkpt>
      <trkpt lat="46.36905" lon="5.52289">
        <ele>354.6</ele>
        <time>2022-02-24T18:01:50Z</time>
      </trkpt>
      <trkpt lat="46.36905" lon="5.523">
        <ele>354.6</ele>
        <time>2022-02-24T18:01:51Z</time>
      </trkpt>
      <trkpt lat="46.36905" lon="5.5231">
        <ele>354.2</ele>
        <time>2022-02-24T18:01:52Z</time>
      </trkpt>
      <trkpt lat="46.36904" lon="5.5232">
        <ele>354.2</ele>
        <time>2022-02-24T18:01:53Z</time>
      </trkpt>
      <trkpt lat="46.36904" lon="5.52331">
        <ele>354</ele>
        <time>2022-02-24T18:01:54Z</time>
      </trkpt>
      <trkpt lat="46.36904" lon="5.52341">
        <ele>354</ele>
        <time>2022-02-24T18:01:55Z</time>
      </trkpt>
      <trkpt lat="46.36903" lon="5.5235">
        <ele>354</ele>
        <time>2022-02-24T18:01:56Z</time>
      </trkpt>
      <trkpt lat="46.36903" lon="5.5236">
        <ele>353.8</ele>
        <time>2022-02-24T18:01:57Z</time>
      </trkpt>
      <trkpt lat="46.36902" lon="5.52369">
        <ele>353.8</ele>
        <time>2022-02-24T18:01:58Z</time>
      </trkpt>
      <trkpt lat="46.369" lon="5.52379">
        <ele>353.8</ele>
        <time>2022-02-24T18:01:59Z</time>
      </trkpt>
      <trkpt lat="46.36898" lon="5.52388">
        <ele>353.8</ele>
        <time>2022-02-24T18:02:00Z</time>
      </trkpt>
      <trkpt lat="46.36896" lon="5.52397">
        <ele>353.8</ele>
        <time>2022-02-24T18:02:01Z</time>
      </trkpt>
      <trkpt lat="46.36894" lon="5.52406">
        <ele>353.8</ele>
        <time>2022-02-24T18:02:02Z</time>
      </trkpt>
      <trkpt lat="46.36893" lon="5.52414">
        <ele>353.8</ele>
        <time>2022-02-24T18:02:03Z</time>
      </trkpt>
      <trkpt lat="46.36891" lon="5.52423">
        <ele>353.8</ele>
        <time>2022-02-24T18:02:04Z</time>
      </trkpt>
      <trkpt lat="46.36889" lon="5.52432">
        <ele>353.8</ele>
        <time>2022-02-24T18:02:05Z</time>
      </trkpt>
      <trkpt lat="46.36889" lon="5.52441">
        <ele>353.8</ele>
        <time>2022-02-24T18:02:06Z</time>
      </trkpt>
      <trkpt lat="46.36888" lon="5.52449">
        <ele>353.8</ele>
        <time>2022-02-24T18:02:07Z</time>
      </trkpt>
      <trkpt lat="46.36889" lon="5.52459">
        <ele>354</ele>
        <time>2022-02-24T18:02:08Z</time>
      </trkpt>
      <trkpt lat="46.3689" lon="5.52467">
        <ele>354</ele>
        <time>2022-02-24T18:02:09Z</time>
      </trkpt>
      <trkpt lat="46.36891" lon="5.52475">
        <ele>354.4</ele>
        <time>2022-02-24T18:02:10Z</time>
      </trkpt>
      <trkpt lat="46.36892" lon="5.52484">
        <ele>354.4</ele>
        <time>2022-02-24T18:02:11Z</time>
      </trkpt>
      <trkpt lat="46.36893" lon="5.52492">
        <ele>354.4</ele>
        <time>2022-02-24T18:02:12Z</time>
      </trkpt>
      <trkpt lat="46.36895" lon="5.525">
        <ele>354.4</ele>
        <time>2022-02-24T18:02:13Z</time>
      </trkpt>
      <trkpt lat="46.36897" lon="5.52509">
        <ele>354.4</ele>
        <time>2022-02-24T18:02:14Z</time>
      </trkpt>
      <trkpt lat="46.369" lon="5.52518">
        <ele>354.2</ele>
        <time>2022-02-24T18:02:15Z</time>
      </trkpt>
      <trkpt lat="46.36903" lon="5.52528">
        <ele>354.2</ele>
        <time>2022-02-24T18:02:16Z</time>
      </trkpt>
      <trkpt lat="46.36906" lon="5.52537">
        <ele>353.8</ele>
        <time>2022-02-24T18:02:17Z</time>
      </trkpt>
      <trkpt lat="46.3691" lon="5.52547">
        <ele>353.6</ele>
        <time>2022-02-24T18:02:18Z</time>
      </trkpt>
      <trkpt lat="46.36914" lon="5.52556">
        <ele>353.6</ele>
        <time>2022-02-24T18:02:19Z</time>
      </trkpt>
      <trkpt lat="46.36918" lon="5.52566">
        <ele>353.2</ele>
        <time>2022-02-24T18:02:20Z</time>
      </trkpt>
      <trkpt lat="46.36922" lon="5.52575">
        <ele>353.2</ele>
        <time>2022-02-24T18:02:21Z</time>
      </trkpt>
      <trkpt lat="46.36927" lon="5.52584">
        <ele>352.8</ele>
        <time>2022-02-24T18:02:22Z</time>
      </trkpt>
      <trkpt lat="46.36931" lon="5.52593">
        <ele>352.8</ele>
        <time>2022-02-24T18:02:23Z</time>
      </trkpt>
      <trkpt lat="46.36935" lon="5.52602">
        <ele>352.6</ele>
        <time>2022-02-24T18:02:24Z</time>
      </trkpt>
      <trkpt lat="46.36939" lon="5.52611">
        <ele>352.6</ele>
        <time>2022-02-24T18:02:25Z</time>
      </trkpt>
      <trkpt lat="46.36943" lon="5.5262">
        <ele>352.4</ele>
        <time>2022-02-24T18:02:26Z</time>
      </trkpt>
      <trkpt lat="46.36947" lon="5.52629">
        <ele>352.4</ele>
        <time>2022-02-24T18:02:27Z</time>
      </trkpt>
      <trkpt lat="46.3695" lon="5.52637">
        <ele>352.4</ele>
        <time>2022-02-24T18:02:28Z</time>
      </trkpt>
      <trkpt lat="46.36953" lon="5.52646">
        <ele>352.4</ele>
        <time>2022-02-24T18:02:29Z</time>
      </trkpt>
      <trkpt lat="46.36956" lon="5.52655">
        <ele>352.4</ele>
        <time>2022-02-24T18:02:30Z</time>
      </trkpt>
      <trkpt lat="46.36959" lon="5.52664">
        <ele>352.4</ele>
        <time>2022-02-24T18:02:31Z</time>
      </trkpt>
      <trkpt lat="46.36961" lon="5.52673">
        <ele>352.4</ele>
        <time>2022-02-24T18:02:32Z</time>
      </trkpt>
      <trkpt lat="46.36965" lon="5.52681">
        <ele>352.4</ele>
        <time>2022-02-24T18:02:33Z</time>
      </trkpt>
      <trkpt lat="46.36968" lon="5.5269">
        <ele>352.4</ele>
        <time>2022-02-24T18:02:34Z</time>
      </trkpt>
      <trkpt lat="46.36971" lon="5.52698">
        <ele>352.4</ele>
        <time>2022-02-24T18:02:35Z</time>
      </trkpt>
      <trkpt lat="46.36975" lon="5.52706">
        <ele>352.4</ele>
        <time>2022-02-24T18:02:36Z</time>
      </trkpt>
      <trkpt lat="46.36978" lon="5.52714">
        <ele>352.4</ele>
        <time>2022-02-24T18:02:37Z</time>
      </trkpt>
      <trkpt lat="46.36982" lon="5.52722">
        <ele>352.4</ele>
        <time>2022-02-24T18:02:38Z</time>
      </trkpt>
      <trkpt lat="46.36986" lon="5.52729">
        <ele>352.4</ele>
        <time>2022-02-24T18:02:39Z</time>
      </trkpt>
      <trkpt lat="46.36989" lon="5.52736">
        <ele>352.6</ele>
        <time>2022-02-24T18:02:40Z</time>
      </trkpt>
      <trkpt lat="46.36993" lon="5.52743">
        <ele>352.6</ele>
        <time>2022-02-24T18:02:41Z</time>
      </trkpt>
      <trkpt lat="46.36997" lon="5.52749">
        <ele>353</ele>
        <time>2022-02-24T18:02:42Z</time>
      </trkpt>
      <trkpt lat="46.37" lon="5.52755">
        <ele>353</ele>
        <time>2022-02-24T18:02:43Z</time>
      </trkpt>
      <trkpt lat="46.37003" lon="5.52761">
        <ele>353.4</ele>
        <time>2022-02-24T18:02:44Z</time>
      </trkpt>
      <trkpt lat="46.37006" lon="5.52767">
        <ele>353.4</ele>
        <time>2022-02-24T18:02:45Z</time>
      </trkpt>
      <trkpt lat="46.37009" lon="5.52773">
        <ele>353.6</ele>
        <time>2022-02-24T18:02:46Z</time>
      </trkpt>
      <trkpt lat="46.37012" lon="5.52779">
        <ele>353.6</ele>
        <time>2022-02-24T18:02:47Z</time>
      </trkpt>
      <trkpt lat="46.37014" lon="5.52787">
        <ele>353.6</ele>
        <time>2022-02-24T18:02:48Z</time>
      </trkpt>
      <trkpt lat="46.37016" lon="5.52795">
        <ele>353.6</ele>
        <time>2022-02-24T18:02:49Z</time>
      </trkpt>
      <trkpt lat="46.37018" lon="5.52803">
        <ele>353.6</ele>
        <time>2022-02-24T18:02:50Z</time>
      </trkpt>
      <trkpt lat="46.3702" lon="5.52812">
        <ele>353.2</ele>
        <time>2022-02-24T18:02:51Z</time>
      </trkpt>
      <trkpt lat="46.37022" lon="5.52822">
        <ele>353</ele>
        <time>2022-02-24T18:02:52Z</time>
      </trkpt>
      <trkpt lat="46.37023" lon="5.52833">
        <ele>352.6</ele>
        <time>2022-02-24T18:02:53Z</time>
      </trkpt>
      <trkpt lat="46.37024" lon="5.52844">
        <ele>352.4</ele>
        <time>2022-02-24T18:02:54Z</time>
      </trkpt>
      <trkpt lat="46.37025" lon="5.52855">
        <ele>352</ele>
        <time>2022-02-24T18:02:55Z</time>
      </trkpt>
      <trkpt lat="46.37026" lon="5.52866">
        <ele>351.8</ele>
        <time>2022-02-24T18:02:56Z</time>
      </trkpt>
      <trkpt lat="46.37026" lon="5.52878">
        <ele>351.4</ele>
        <time>2022-02-24T18:02:57Z</time>
      </trkpt>
      <trkpt lat="46.37026" lon="5.52891">
        <ele>350.8</ele>
        <time>2022-02-24T18:02:58Z</time>
      </trkpt>
      <trkpt lat="46.37026" lon="5.52903">
        <ele>350.4</ele>
        <time>2022-02-24T18:02:59Z</time>
      </trkpt>
      <trkpt lat="46.37024" lon="5.52915">
        <ele>349.8</ele>
        <time>2022-02-24T18:03:00Z</time>
      </trkpt>
      <trkpt lat="46.37022" lon="5.52926">
        <ele>349.2</ele>
        <time>2022-02-24T18:03:01Z</time>
      </trkpt>
      <trkpt lat="46.37019" lon="5.52937">
        <ele>348.6</ele>
        <time>2022-02-24T18:03:02Z</time>
      </trkpt>
      <trkpt lat="46.37014" lon="5.52947">
        <ele>348</ele>
        <time>2022-02-24T18:03:03Z</time>
      </trkpt>
      <trkpt lat="46.37009" lon="5.52958">
        <ele>347.6</ele>
        <time>2022-02-24T18:03:04Z</time>
      </trkpt>
      <trkpt lat="46.37003" lon="5.52967">
        <ele>347</ele>
        <time>2022-02-24T18:03:05Z</time>
      </trkpt>
      <trkpt lat="46.36998" lon="5.52975">
        <ele>346.4</ele>
        <time>2022-02-24T18:03:06Z</time>
      </trkpt>
      <trkpt lat="46.36993" lon="5.52983">
        <ele>345.8</ele>
        <time>2022-02-24T18:03:07Z</time>
      </trkpt>
      <trkpt lat="46.36988" lon="5.52993">
        <ele>345.4</ele>
        <time>2022-02-24T18:03:08Z</time>
      </trkpt>
      <trkpt lat="46.36984" lon="5.53002">
        <ele>344.8</ele>
        <time>2022-02-24T18:03:09Z</time>
      </trkpt>
      <trkpt lat="46.3698" lon="5.53012">
        <ele>344.4</ele>
        <time>2022-02-24T18:03:10Z</time>
      </trkpt>
      <trkpt lat="46.36978" lon="5.53022">
        <ele>343.8</ele>
        <time>2022-02-24T18:03:11Z</time>
      </trkpt>
      <trkpt lat="46.36976" lon="5.53033">
        <ele>343.2</ele>
        <time>2022-02-24T18:03:12Z</time>
      </trkpt>
      <trkpt lat="46.36975" lon="5.53044">
        <ele>342.6</ele>
        <time>2022-02-24T18:03:13Z</time>
      </trkpt>
      <trkpt lat="46.36975" lon="5.53056">
        <ele>342.2</ele>
        <time>2022-02-24T18:03:14Z</time>
      </trkpt>
      <trkpt lat="46.36977" lon="5.53068">
        <ele>341.6</ele>
        <time>2022-02-24T18:03:15Z</time>
      </trkpt>
      <trkpt lat="46.36979" lon="5.5308">
        <ele>341.2</ele>
        <time>2022-02-24T18:03:16Z</time>
      </trkpt>
      <trkpt lat="46.36982" lon="5.53092">
        <ele>340.8</ele>
        <time>2022-02-24T18:03:17Z</time>
      </trkpt>
      <trkpt lat="46.36985" lon="5.53103">
        <ele>340.4</ele>
        <time>2022-02-24T18:03:18Z</time>
      </trkpt>
      <trkpt lat="46.36987" lon="5.53114">
        <ele>340.2</ele>
        <time>2022-02-24T18:03:19Z</time>
      </trkpt>
      <trkpt lat="46.36991" lon="5.53125">
        <ele>340</ele>
        <time>2022-02-24T18:03:20Z</time>
      </trkpt>
      <trkpt lat="46.36994" lon="5.53135">
        <ele>339.6</ele>
        <time>2022-02-24T18:03:21Z</time>
      </trkpt>
      <trkpt lat="46.36997" lon="5.53146">
        <ele>339.4</ele>
        <time>2022-02-24T18:03:22Z</time>
      </trkpt>
      <trkpt lat="46.37" lon="5.53156">
        <ele>339.4</ele>
        <time>2022-02-24T18:03:23Z</time>
      </trkpt>
      <trkpt lat="46.37003" lon="5.53166">
        <ele>339.2</ele>
        <time>2022-02-24T18:03:24Z</time>
      </trkpt>
      <trkpt lat="46.37005" lon="5.53176">
        <ele>339.2</ele>
        <time>2022-02-24T18:03:25Z</time>
      </trkpt>
      <trkpt lat="46.37008" lon="5.53186">
        <ele>339.2</ele>
        <time>2022-02-24T18:03:26Z</time>
      </trkpt>
      <trkpt lat="46.37009" lon="5.53195">
        <ele>339</ele>
        <time>2022-02-24T18:03:27Z</time>
      </trkpt>
      <trkpt lat="46.3701" lon="5.53205">
        <ele>339</ele>
        <time>2022-02-24T18:03:28Z</time>
      </trkpt>
      <trkpt lat="46.3701" lon="5.53215">
        <ele>339</ele>
        <time>2022-02-24T18:03:29Z</time>
      </trkpt>
      <trkpt lat="46.3701" lon="5.53225">
        <ele>339</ele>
        <time>2022-02-24T18:03:30Z</time>
      </trkpt>
      <trkpt lat="46.37011" lon="5.53235">
        <ele>338.6</ele>
        <time>2022-02-24T18:03:31Z</time>
      </trkpt>
      <trkpt lat="46.37012" lon="5.53245">
        <ele>338.6</ele>
        <time>2022-02-24T18:03:32Z</time>
      </trkpt>
      <trkpt lat="46.37013" lon="5.53255">
        <ele>338.2</ele>
        <time>2022-02-24T18:03:33Z</time>
      </trkpt>
      <trkpt lat="46.37014" lon="5.53265">
        <ele>338</ele>
        <time>2022-02-24T18:03:34Z</time>
      </trkpt>
      <trkpt lat="46.37016" lon="5.53276">
        <ele>337.8</ele>
        <time>2022-02-24T18:03:35Z</time>
      </trkpt>
      <trkpt lat="46.37017" lon="5.53286">
        <ele>337.4</ele>
        <time>2022-02-24T18:03:36Z</time>
      </trkpt>
      <trkpt lat="46.37019" lon="5.53297">
        <ele>337.2</ele>
        <time>2022-02-24T18:03:37Z</time>
      </trkpt>
      <trkpt lat="46.3702" lon="5.53307">
        <ele>337</ele>
        <time>2022-02-24T18:03:38Z</time>
      </trkpt>
      <trkpt lat="46.37021" lon="5.53318">
        <ele>336.8</ele>
        <time>2022-02-24T18:03:39Z</time>
      </trkpt>
      <trkpt lat="46.37023" lon="5.53328">
        <ele>336.8</ele>
        <time>2022-02-24T18:03:40Z</time>
      </trkpt>
      <trkpt lat="46.37024" lon="5.53339">
        <ele>336.6</ele>
        <time>2022-02-24T18:03:41Z</time>
      </trkpt>
      <trkpt lat="46.37024" lon="5.53349">
        <ele>336.6</ele>
        <time>2022-02-24T18:03:42Z</time>
      </trkpt>
      <trkpt lat="46.37025" lon="5.53359">
        <ele>336.6</ele>
        <time>2022-02-24T18:03:43Z</time>
      </trkpt>
      <trkpt lat="46.37025" lon="5.53369">
        <ele>336.8</ele>
        <time>2022-02-24T18:03:44Z</time>
      </trkpt>
      <trkpt lat="46.37026" lon="5.53377">
        <ele>336.8</ele>
        <time>2022-02-24T18:03:45Z</time>
      </trkpt>
      <trkpt lat="46.37026" lon="5.53386">
        <ele>337</ele>
        <time>2022-02-24T18:03:46Z</time>
      </trkpt>
      <trkpt lat="46.37027" lon="5.53394">
        <ele>337</ele>
        <time>2022-02-24T18:03:47Z</time>
      </trkpt>
      <trkpt lat="46.37027" lon="5.53403">
        <ele>337</ele>
        <time>2022-02-24T18:03:48Z</time>
      </trkpt>
      <trkpt lat="46.37027" lon="5.53411">
        <ele>337</ele>
        <time>2022-02-24T18:03:49Z</time>
      </trkpt>
      <trkpt lat="46.37028" lon="5.53421">
        <ele>336.8</ele>
        <time>2022-02-24T18:03:50Z</time>
      </trkpt>
      <trkpt lat="46.37028" lon="5.5343">
        <ele>336.8</ele>
        <time>2022-02-24T18:03:51Z</time>
      </trkpt>
      <trkpt lat="46.37029" lon="5.5344">
        <ele>336.6</ele>
        <time>2022-02-24T18:03:52Z</time>
      </trkpt>
      <trkpt lat="46.3703" lon="5.53451">
        <ele>336.2</ele>
        <time>2022-02-24T18:03:53Z</time>
      </trkpt>
      <trkpt lat="46.37031" lon="5.53461">
        <ele>336</ele>
        <time>2022-02-24T18:03:54Z</time>
      </trkpt>
      <trkpt lat="46.37031" lon="5.53472">
        <ele>335.8</ele>
        <time>2022-02-24T18:03:55Z</time>
      </trkpt>
      <trkpt lat="46.37032" lon="5.53482">
        <ele>335.6</ele>
        <time>2022-02-24T18:03:56Z</time>
      </trkpt>
      <trkpt lat="46.37032" lon="5.53493">
        <ele>335.2</ele>
        <time>2022-02-24T18:03:57Z</time>
      </trkpt>
      <trkpt lat="46.37033" lon="5.53504">
        <ele>335</ele>
        <time>2022-02-24T18:03:58Z</time>
      </trkpt>
      <trkpt lat="46.37034" lon="5.53516">
        <ele>334.6</ele>
        <time>2022-02-24T18:03:59Z</time>
      </trkpt>
      <trkpt lat="46.37034" lon="5.53527">
        <ele>334.4</ele>
        <time>2022-02-24T18:04:00Z</time>
      </trkpt>
      <trkpt lat="46.37035" lon="5.53539">
        <ele>334.4</ele>
        <time>2022-02-24T18:04:01Z</time>
      </trkpt>
      <trkpt lat="46.37035" lon="5.53551">
        <ele>334</ele>
        <time>2022-02-24T18:04:02Z</time>
      </trkpt>
      <trkpt lat="46.37036" lon="5.53563">
        <ele>333.6</ele>
        <time>2022-02-24T18:04:03Z</time>
      </trkpt>
      <trkpt lat="46.37036" lon="5.53575">
        <ele>333.4</ele>
        <time>2022-02-24T18:04:04Z</time>
      </trkpt>
      <trkpt lat="46.37037" lon="5.53587">
        <ele>333</ele>
        <time>2022-02-24T18:04:05Z</time>
      </trkpt>
      <trkpt lat="46.37037" lon="5.536">
        <ele>332.8</ele>
        <time>2022-02-24T18:04:06Z</time>
      </trkpt>
      <trkpt lat="46.37037" lon="5.53613">
        <ele>332.4</ele>
        <time>2022-02-24T18:04:07Z</time>
      </trkpt>
      <trkpt lat="46.37038" lon="5.53625">
        <ele>332.4</ele>
        <time>2022-02-24T18:04:08Z</time>
      </trkpt>
      <trkpt lat="46.37038" lon="5.53638">
        <ele>332</ele>
        <time>2022-02-24T18:04:09Z</time>
      </trkpt>
      <trkpt lat="46.37038" lon="5.53651">
        <ele>331.8</ele>
        <time>2022-02-24T18:04:10Z</time>
      </trkpt>
      <trkpt lat="46.37038" lon="5.53663">
        <ele>331.6</ele>
        <time>2022-02-24T18:04:11Z</time>
      </trkpt>
      <trkpt lat="46.37038" lon="5.53676">
        <ele>331.4</ele>
        <time>2022-02-24T18:04:12Z</time>
      </trkpt>
      <trkpt lat="46.37038" lon="5.53689">
        <ele>331</ele>
        <time>2022-02-24T18:04:13Z</time>
      </trkpt>
      <trkpt lat="46.37039" lon="5.53702">
        <ele>330.8</ele>
        <time>2022-02-24T18:04:14Z</time>
      </trkpt>
      <trkpt lat="46.37039" lon="5.53715">
        <ele>330.6</ele>
        <time>2022-02-24T18:04:15Z</time>
      </trkpt>
      <trkpt lat="46.37039" lon="5.53728">
        <ele>330.2</ele>
        <time>2022-02-24T18:04:16Z</time>
      </trkpt>
      <trkpt lat="46.37039" lon="5.53741">
        <ele>330</ele>
        <time>2022-02-24T18:04:17Z</time>
      </trkpt>
      <trkpt lat="46.37039" lon="5.53755">
        <ele>329.6</ele>
        <time>2022-02-24T18:04:18Z</time>
      </trkpt>
      <trkpt lat="46.37039" lon="5.53768">
        <ele>329.4</ele>
        <time>2022-02-24T18:04:19Z</time>
      </trkpt>
      <trkpt lat="46.37039" lon="5.53781">
        <ele>329</ele>
        <time>2022-02-24T18:04:20Z</time>
      </trkpt>
      <trkpt lat="46.37039" lon="5.53794">
        <ele>328.8</ele>
        <time>2022-02-24T18:04:21Z</time>
      </trkpt>
      <trkpt lat="46.37039" lon="5.53807">
        <ele>328.6</ele>
        <time>2022-02-24T18:04:22Z</time>
      </trkpt>
      <trkpt lat="46.37039" lon="5.5382">
        <ele>328.6</ele>
        <time>2022-02-24T18:04:23Z</time>
      </trkpt>
      <trkpt lat="46.37039" lon="5.53832">
        <ele>328.4</ele>
        <time>2022-02-24T18:04:24Z</time>
      </trkpt>
      <trkpt lat="46.37039" lon="5.53844">
        <ele>328.4</ele>
        <time>2022-02-24T18:04:25Z</time>
      </trkpt>
      <trkpt lat="46.37039" lon="5.53855">
        <ele>328.4</ele>
        <time>2022-02-24T18:04:26Z</time>
      </trkpt>
      <trkpt lat="46.37039" lon="5.53866">
        <ele>328.4</ele>
        <time>2022-02-24T18:04:27Z</time>
      </trkpt>
      <trkpt lat="46.37039" lon="5.53877">
        <ele>328.4</ele>
        <time>2022-02-24T18:04:28Z</time>
      </trkpt>
      <trkpt lat="46.37039" lon="5.53888">
        <ele>328.4</ele>
        <time>2022-02-24T18:04:29Z</time>
      </trkpt>
      <trkpt lat="46.37039" lon="5.53899">
        <ele>328.2</ele>
        <time>2022-02-24T18:04:30Z</time>
      </trkpt>
      <trkpt lat="46.3704" lon="5.5391">
        <ele>328.2</ele>
        <time>2022-02-24T18:04:31Z</time>
      </trkpt>
      <trkpt lat="46.37041" lon="5.53921">
        <ele>328.2</ele>
        <time>2022-02-24T18:04:32Z</time>
      </trkpt>
      <trkpt lat="46.37042" lon="5.53931">
        <ele>328.2</ele>
        <time>2022-02-24T18:04:33Z</time>
      </trkpt>
      <trkpt lat="46.37044" lon="5.53941">
        <ele>328</ele>
        <time>2022-02-24T18:04:34Z</time>
      </trkpt>
      <trkpt lat="46.37046" lon="5.53952">
        <ele>328</ele>
        <time>2022-02-24T18:04:35Z</time>
      </trkpt>
      <trkpt lat="46.37048" lon="5.53962">
        <ele>328</ele>
        <time>2022-02-24T18:04:36Z</time>
      </trkpt>
      <trkpt lat="46.37052" lon="5.53971">
        <ele>328</ele>
        <time>2022-02-24T18:04:37Z</time>
      </trkpt>
      <trkpt lat="46.37056" lon="5.53979">
        <ele>328</ele>
        <time>2022-02-24T18:04:38Z</time>
      </trkpt>
      <trkpt lat="46.3706" lon="5.53987">
        <ele>328</ele>
        <time>2022-02-24T18:04:39Z</time>
      </trkpt>
      <trkpt lat="46.37065" lon="5.53994">
        <ele>328</ele>
        <time>2022-02-24T18:04:40Z</time>
      </trkpt>
      <trkpt lat="46.3707" lon="5.54001">
        <ele>328</ele>
        <time>2022-02-24T18:04:41Z</time>
      </trkpt>
      <trkpt lat="46.37075" lon="5.54007">
        <ele>328</ele>
        <time>2022-02-24T18:04:42Z</time>
      </trkpt>
      <trkpt lat="46.3708" lon="5.54014">
        <ele>328.2</ele>
        <time>2022-02-24T18:04:43Z</time>
      </trkpt>
      <trkpt lat="46.37084" lon="5.5402">
        <ele>328.2</ele>
        <time>2022-02-24T18:04:44Z</time>
      </trkpt>
      <trkpt lat="46.37089" lon="5.54025">
        <ele>328.4</ele>
        <time>2022-02-24T18:04:45Z</time>
      </trkpt>
      <trkpt lat="46.37093" lon="5.5403">
        <ele>328.4</ele>
        <time>2022-02-24T18:04:46Z</time>
      </trkpt>
      <trkpt lat="46.37098" lon="5.54035">
        <ele>328.8</ele>
        <time>2022-02-24T18:04:47Z</time>
      </trkpt>
      <trkpt lat="46.37102" lon="5.5404">
        <ele>329</ele>
        <time>2022-02-24T18:04:48Z</time>
      </trkpt>
      <trkpt lat="46.37106" lon="5.54044">
        <ele>329</ele>
        <time>2022-02-24T18:04:49Z</time>
      </trkpt>
      <trkpt lat="46.3711" lon="5.54049">
        <ele>329.4</ele>
        <time>2022-02-24T18:04:50Z</time>
      </trkpt>
      <trkpt lat="46.37114" lon="5.54053">
        <ele>329.4</ele>
        <time>2022-02-24T18:04:51Z</time>
      </trkpt>
      <trkpt lat="46.37117" lon="5.54057">
        <ele>329.8</ele>
        <time>2022-02-24T18:04:52Z</time>
      </trkpt>
      <trkpt lat="46.37117" lon="5.54057">
        <ele>330</ele>
        <time>2022-02-24T18:04:53Z</time>
      </trkpt>
      <trkpt lat="46.37121" lon="5.5406">
        <ele>330.2</ele>
        <time>2022-02-24T18:04:54Z</time>
      </trkpt>
      <trkpt lat="46.37124" lon="5.54063">
        <ele>330.2</ele>
        <time>2022-02-24T18:04:55Z</time>
      </trkpt>
      <trkpt lat="46.37127" lon="5.54067">
        <ele>330.6</ele>
        <time>2022-02-24T18:04:56Z</time>
      </trkpt>
      <trkpt lat="46.37129" lon="5.5407">
        <ele>330.8</ele>
        <time>2022-02-24T18:04:57Z</time>
      </trkpt>
      <trkpt lat="46.37132" lon="5.54073">
        <ele>330.8</ele>
        <time>2022-02-24T18:04:58Z</time>
      </trkpt>
      <trkpt lat="46.37135" lon="5.54076">
        <ele>330.8</ele>
        <time>2022-02-24T18:04:59Z</time>
      </trkpt>
      <trkpt lat="46.37138" lon="5.54079">
        <ele>331</ele>
        <time>2022-02-24T18:05:00Z</time>
      </trkpt>
      <trkpt lat="46.37142" lon="5.54082">
        <ele>331</ele>
        <time>2022-02-24T18:05:01Z</time>
      </trkpt>
      <trkpt lat="46.37145" lon="5.54084">
        <ele>331.4</ele>
        <time>2022-02-24T18:05:02Z</time>
      </trkpt>
      <trkpt lat="46.37148" lon="5.54086">
        <ele>331.4</ele>
        <time>2022-02-24T18:05:03Z</time>
      </trkpt>
      <trkpt lat="46.37152" lon="5.54088">
        <ele>331.6</ele>
        <time>2022-02-24T18:05:04Z</time>
      </trkpt>
      <trkpt lat="46.37155" lon="5.54091">
        <ele>331.6</ele>
        <time>2022-02-24T18:05:05Z</time>
      </trkpt>
      <trkpt lat="46.37158" lon="5.54093">
        <ele>332</ele>
        <time>2022-02-24T18:05:06Z</time>
      </trkpt>
      <trkpt lat="46.37161" lon="5.54096">
        <ele>332</ele>
        <time>2022-02-24T18:05:07Z</time>
      </trkpt>
      <trkpt lat="46.37164" lon="5.54098">
        <ele>332.2</ele>
        <time>2022-02-24T18:05:08Z</time>
      </trkpt>
      <trkpt lat="46.37167" lon="5.541">
        <ele>332.2</ele>
        <time>2022-02-24T18:05:09Z</time>
      </trkpt>
      <trkpt lat="46.37171" lon="5.54103">
        <ele>332.4</ele>
        <time>2022-02-24T18:05:10Z</time>
      </trkpt>
      <trkpt lat="46.37174" lon="5.54105">
        <ele>332.4</ele>
        <time>2022-02-24T18:05:11Z</time>
      </trkpt>
      <trkpt lat="46.37178" lon="5.54107">
        <ele>332.8</ele>
        <time>2022-02-24T18:05:12Z</time>
      </trkpt>
      <trkpt lat="46.37181" lon="5.54109">
        <ele>332.8</ele>
        <time>2022-02-24T18:05:13Z</time>
      </trkpt>
      <trkpt lat="46.37184" lon="5.54111">
        <ele>332.8</ele>
        <time>2022-02-24T18:05:14Z</time>
      </trkpt>
      <trkpt lat="46.37186" lon="5.54113">
        <ele>333</ele>
        <time>2022-02-24T18:05:15Z</time>
      </trkpt>
      <trkpt lat="46.37189" lon="5.54115">
        <ele>333.2</ele>
        <time>2022-02-24T18:05:16Z</time>
      </trkpt>
      <trkpt lat="46.37192" lon="5.54117">
        <ele>333.2</ele>
        <time>2022-02-24T18:05:17Z</time>
      </trkpt>
      <trkpt lat="46.37195" lon="5.54118">
        <ele>333.6</ele>
        <time>2022-02-24T18:05:18Z</time>
      </trkpt>
      <trkpt lat="46.37197" lon="5.5412">
        <ele>333.6</ele>
        <time>2022-02-24T18:05:19Z</time>
      </trkpt>
      <trkpt lat="46.372" lon="5.54122">
        <ele>334</ele>
        <time>2022-02-24T18:05:20Z</time>
      </trkpt>
      <trkpt lat="46.37202" lon="5.54124">
        <ele>334</ele>
        <time>2022-02-24T18:05:21Z</time>
      </trkpt>
      <trkpt lat="46.37205" lon="5.54126">
        <ele>334.2</ele>
        <time>2022-02-24T18:05:22Z</time>
      </trkpt>
      <trkpt lat="46.37208" lon="5.54128">
        <ele>334.2</ele>
        <time>2022-02-24T18:05:23Z</time>
      </trkpt>
      <trkpt lat="46.37211" lon="5.5413">
        <ele>334.6</ele>
        <time>2022-02-24T18:05:24Z</time>
      </trkpt>
      <trkpt lat="46.37214" lon="5.54132">
        <ele>334.6</ele>
        <time>2022-02-24T18:05:25Z</time>
      </trkpt>
      <trkpt lat="46.37217" lon="5.54134">
        <ele>335</ele>
        <time>2022-02-24T18:05:26Z</time>
      </trkpt>
      <trkpt lat="46.37221" lon="5.54136">
        <ele>335.2</ele>
        <time>2022-02-24T18:05:27Z</time>
      </trkpt>
      <trkpt lat="46.37224" lon="5.54138">
        <ele>335.2</ele>
        <time>2022-02-24T18:05:28Z</time>
      </trkpt>
      <trkpt lat="46.37227" lon="5.5414">
        <ele>335.4</ele>
        <time>2022-02-24T18:05:29Z</time>
      </trkpt>
      <trkpt lat="46.37229" lon="5.54142">
        <ele>335.4</ele>
        <time>2022-02-24T18:05:30Z</time>
      </trkpt>
      <trkpt lat="46.37233" lon="5.54144">
        <ele>335.8</ele>
        <time>2022-02-24T18:05:31Z</time>
      </trkpt>
      <trkpt lat="46.37235" lon="5.54146">
        <ele>335.8</ele>
        <time>2022-02-24T18:05:32Z</time>
      </trkpt>
      <trkpt lat="46.37238" lon="5.54147">
        <ele>336.2</ele>
        <time>2022-02-24T18:05:33Z</time>
      </trkpt>
      <trkpt lat="46.37241" lon="5.54148">
        <ele>336.2</ele>
        <time>2022-02-24T18:05:34Z</time>
      </trkpt>
      <trkpt lat="46.37244" lon="5.54149">
        <ele>336.4</ele>
        <time>2022-02-24T18:05:35Z</time>
      </trkpt>
      <trkpt lat="46.37247" lon="5.54151">
        <ele>336.4</ele>
        <time>2022-02-24T18:05:36Z</time>
      </trkpt>
      <trkpt lat="46.37249" lon="5.54152">
        <ele>336.8</ele>
        <time>2022-02-24T18:05:37Z</time>
      </trkpt>
      <trkpt lat="46.37252" lon="5.54153">
        <ele>336.8</ele>
        <time>2022-02-24T18:05:38Z</time>
      </trkpt>
      <trkpt lat="46.37255" lon="5.54154">
        <ele>337.2</ele>
        <time>2022-02-24T18:05:39Z</time>
      </trkpt>
      <trkpt lat="46.37258" lon="5.54155">
        <ele>337.4</ele>
        <time>2022-02-24T18:05:40Z</time>
      </trkpt>
      <trkpt lat="46.37261" lon="5.54156">
        <ele>337.4</ele>
        <time>2022-02-24T18:05:41Z</time>
      </trkpt>
      <trkpt lat="46.37264" lon="5.54157">
        <ele>337.6</ele>
        <time>2022-02-24T18:05:42Z</time>
      </trkpt>
      <trkpt lat="46.37267" lon="5.54158">
        <ele>337.6</ele>
        <time>2022-02-24T18:05:43Z</time>
      </trkpt>
      <trkpt lat="46.37269" lon="5.54158">
        <ele>337.8</ele>
        <time>2022-02-24T18:05:44Z</time>
      </trkpt>
      <trkpt lat="46.37272" lon="5.54159">
        <ele>337.8</ele>
        <time>2022-02-24T18:05:45Z</time>
      </trkpt>
      <trkpt lat="46.37275" lon="5.54159">
        <ele>338.2</ele>
        <time>2022-02-24T18:05:46Z</time>
      </trkpt>
      <trkpt lat="46.37278" lon="5.54159">
        <ele>338.2</ele>
        <time>2022-02-24T18:05:47Z</time>
      </trkpt>
      <trkpt lat="46.37281" lon="5.5416">
        <ele>338.6</ele>
        <time>2022-02-24T18:05:48Z</time>
      </trkpt>
      <trkpt lat="46.37285" lon="5.5416">
        <ele>338.6</ele>
        <time>2022-02-24T18:05:49Z</time>
      </trkpt>
      <trkpt lat="46.37288" lon="5.54161">
        <ele>338.8</ele>
        <time>2022-02-24T18:05:50Z</time>
      </trkpt>
      <trkpt lat="46.37291" lon="5.54161">
        <ele>338.8</ele>
        <time>2022-02-24T18:05:51Z</time>
      </trkpt>
      <trkpt lat="46.37294" lon="5.54162">
        <ele>339.2</ele>
        <time>2022-02-24T18:05:52Z</time>
      </trkpt>
      <trkpt lat="46.37298" lon="5.54162">
        <ele>339.2</ele>
        <time>2022-02-24T18:05:53Z</time>
      </trkpt>
      <trkpt lat="46.37301" lon="5.54163">
        <ele>339.4</ele>
        <time>2022-02-24T18:05:54Z</time>
      </trkpt>
      <trkpt lat="46.37304" lon="5.54163">
        <ele>339.4</ele>
        <time>2022-02-24T18:05:55Z</time>
      </trkpt>
      <trkpt lat="46.37307" lon="5.54163">
        <ele>339.8</ele>
        <time>2022-02-24T18:05:56Z</time>
      </trkpt>
      <trkpt lat="46.3731" lon="5.54164">
        <ele>339.8</ele>
        <time>2022-02-24T18:05:57Z</time>
      </trkpt>
      <trkpt lat="46.37313" lon="5.54165">
        <ele>340</ele>
        <time>2022-02-24T18:05:58Z</time>
      </trkpt>
      <trkpt lat="46.37316" lon="5.54165">
        <ele>340.2</ele>
        <time>2022-02-24T18:05:59Z</time>
      </trkpt>
      <trkpt lat="46.37319" lon="5.54165">
        <ele>340.4</ele>
        <time>2022-02-24T18:06:00Z</time>
      </trkpt>
      <trkpt lat="46.37322" lon="5.54166">
        <ele>340.6</ele>
        <time>2022-02-24T18:06:01Z</time>
      </trkpt>
      <trkpt lat="46.37325" lon="5.54166">
        <ele>341</ele>
        <time>2022-02-24T18:06:02Z</time>
      </trkpt>
      <trkpt lat="46.37328" lon="5.54166">
        <ele>341.2</ele>
        <time>2022-02-24T18:06:03Z</time>
      </trkpt>
      <trkpt lat="46.37331" lon="5.54166">
        <ele>341.4</ele>
        <time>2022-02-24T18:06:04Z</time>
      </trkpt>
      <trkpt lat="46.37334" lon="5.54166">
        <ele>341.4</ele>
        <time>2022-02-24T18:06:05Z</time>
      </trkpt>
      <trkpt lat="46.37337" lon="5.54165">
        <ele>341.8</ele>
        <time>2022-02-24T18:06:06Z</time>
      </trkpt>
      <trkpt lat="46.3734" lon="5.54166">
        <ele>341.8</ele>
        <time>2022-02-24T18:06:07Z</time>
      </trkpt>
      <trkpt lat="46.37343" lon="5.54166">
        <ele>342.2</ele>
        <time>2022-02-24T18:06:08Z</time>
      </trkpt>
      <trkpt lat="46.37346" lon="5.54166">
        <ele>342.2</ele>
        <time>2022-02-24T18:06:09Z</time>
      </trkpt>
      <trkpt lat="46.37349" lon="5.54166">
        <ele>342.4</ele>
        <time>2022-02-24T18:06:10Z</time>
      </trkpt>
      <trkpt lat="46.37352" lon="5.54166">
        <ele>342.4</ele>
        <time>2022-02-24T18:06:11Z</time>
      </trkpt>
      <trkpt lat="46.37355" lon="5.54165">
        <ele>342.8</ele>
        <time>2022-02-24T18:06:12Z</time>
      </trkpt>
      <trkpt lat="46.37359" lon="5.54164">
        <ele>342.8</ele>
        <time>2022-02-24T18:06:13Z</time>
      </trkpt>
      <trkpt lat="46.37362" lon="5.54163">
        <ele>342.8</ele>
        <time>2022-02-24T18:06:14Z</time>
      </trkpt>
      <trkpt lat="46.37365" lon="5.54161">
        <ele>343</ele>
        <time>2022-02-24T18:06:15Z</time>
      </trkpt>
      <trkpt lat="46.37369" lon="5.5416">
        <ele>343</ele>
        <time>2022-02-24T18:06:16Z</time>
      </trkpt>
      <trkpt lat="46.37372" lon="5.54158">
        <ele>343</ele>
        <time>2022-02-24T18:06:17Z</time>
      </trkpt>
      <trkpt lat="46.37375" lon="5.54157">
        <ele>343.4</ele>
        <time>2022-02-24T18:06:18Z</time>
      </trkpt>
      <trkpt lat="46.37378" lon="5.54155">
        <ele>343.4</ele>
        <time>2022-02-24T18:06:19Z</time>
      </trkpt>
      <trkpt lat="46.37382" lon="5.54154">
        <ele>343.4</ele>
        <time>2022-02-24T18:06:20Z</time>
      </trkpt>
      <trkpt lat="46.37385" lon="5.54152">
        <ele>343.8</ele>
        <time>2022-02-24T18:06:21Z</time>
      </trkpt>
      <trkpt lat="46.37387" lon="5.54151">
        <ele>343.8</ele>
        <time>2022-02-24T18:06:22Z</time>
      </trkpt>
      <trkpt lat="46.3739" lon="5.54149">
        <ele>344</ele>
        <time>2022-02-24T18:06:23Z</time>
      </trkpt>
      <trkpt lat="46.37393" lon="5.54147">
        <ele>344.2</ele>
        <time>2022-02-24T18:06:24Z</time>
      </trkpt>
      <trkpt lat="46.37395" lon="5.54146">
        <ele>344.2</ele>
        <time>2022-02-24T18:06:25Z</time>
      </trkpt>
      <trkpt lat="46.37398" lon="5.54144">
        <ele>344.6</ele>
        <time>2022-02-24T18:06:26Z</time>
      </trkpt>
      <trkpt lat="46.37401" lon="5.54143">
        <ele>345</ele>
        <time>2022-02-24T18:06:27Z</time>
      </trkpt>
      <trkpt lat="46.37404" lon="5.54142">
        <ele>345.2</ele>
        <time>2022-02-24T18:06:28Z</time>
      </trkpt>
      <trkpt lat="46.37407" lon="5.54141">
        <ele>345.4</ele>
        <time>2022-02-24T18:06:29Z</time>
      </trkpt>
      <trkpt lat="46.37409" lon="5.5414">
        <ele>345.8</ele>
        <time>2022-02-24T18:06:30Z</time>
      </trkpt>
      <trkpt lat="46.37412" lon="5.54138">
        <ele>345.8</ele>
        <time>2022-02-24T18:06:31Z</time>
      </trkpt>
      <trkpt lat="46.37414" lon="5.54137">
        <ele>346.2</ele>
        <time>2022-02-24T18:06:32Z</time>
      </trkpt>
      <trkpt lat="46.37417" lon="5.54135">
        <ele>346.4</ele>
        <time>2022-02-24T18:06:33Z</time>
      </trkpt>
      <trkpt lat="46.3742" lon="5.54134">
        <ele>346.4</ele>
        <time>2022-02-24T18:06:34Z</time>
      </trkpt>
      <trkpt lat="46.37422" lon="5.54132">
        <ele>346.8</ele>
        <time>2022-02-24T18:06:35Z</time>
      </trkpt>
      <trkpt lat="46.37425" lon="5.5413">
        <ele>347</ele>
        <time>2022-02-24T18:06:36Z</time>
      </trkpt>
      <trkpt lat="46.37427" lon="5.54129">
        <ele>347.2</ele>
        <time>2022-02-24T18:06:37Z</time>
      </trkpt>
      <trkpt lat="46.3743" lon="5.54128">
        <ele>347.6</ele>
        <time>2022-02-24T18:06:38Z</time>
      </trkpt>
      <trkpt lat="46.37432" lon="5.54127">
        <ele>347.8</ele>
        <time>2022-02-24T18:06:39Z</time>
      </trkpt>
      <trkpt lat="46.37435" lon="5.54125">
        <ele>347.8</ele>
        <time>2022-02-24T18:06:40Z</time>
      </trkpt>
      <trkpt lat="46.37437" lon="5.54124">
        <ele>348</ele>
        <time>2022-02-24T18:06:41Z</time>
      </trkpt>
      <trkpt lat="46.3744" lon="5.54122">
        <ele>348</ele>
        <time>2022-02-24T18:06:42Z</time>
      </trkpt>
      <trkpt lat="46.37442" lon="5.54121">
        <ele>348.4</ele>
        <time>2022-02-24T18:06:43Z</time>
      </trkpt>
      <trkpt lat="46.37445" lon="5.54119">
        <ele>348.6</ele>
        <time>2022-02-24T18:06:44Z</time>
      </trkpt>
      <trkpt lat="46.37447" lon="5.54118">
        <ele>348.8</ele>
        <time>2022-02-24T18:06:45Z</time>
      </trkpt>
      <trkpt lat="46.3745" lon="5.54117">
        <ele>348.8</ele>
        <time>2022-02-24T18:06:46Z</time>
      </trkpt>
      <trkpt lat="46.37452" lon="5.54115">
        <ele>349.2</ele>
        <time>2022-02-24T18:06:47Z</time>
      </trkpt>
      <trkpt lat="46.37455" lon="5.54114">
        <ele>349.2</ele>
        <time>2022-02-24T18:06:48Z</time>
      </trkpt>
      <trkpt lat="46.37458" lon="5.54113">
        <ele>349.2</ele>
        <time>2022-02-24T18:06:49Z</time>
      </trkpt>
      <trkpt lat="46.3746" lon="5.54112">
        <ele>349.6</ele>
        <time>2022-02-24T18:06:50Z</time>
      </trkpt>
      <trkpt lat="46.37462" lon="5.54111">
        <ele>349.6</ele>
        <time>2022-02-24T18:06:51Z</time>
      </trkpt>
      <trkpt lat="46.37465" lon="5.5411">
        <ele>350</ele>
        <time>2022-02-24T18:06:52Z</time>
      </trkpt>
      <trkpt lat="46.37467" lon="5.54109">
        <ele>350.2</ele>
        <time>2022-02-24T18:06:53Z</time>
      </trkpt>
      <trkpt lat="46.3747" lon="5.54108">
        <ele>350.2</ele>
        <time>2022-02-24T18:06:54Z</time>
      </trkpt>
      <trkpt lat="46.37472" lon="5.54106">
        <ele>350.6</ele>
        <time>2022-02-24T18:06:55Z</time>
      </trkpt>
      <trkpt lat="46.37475" lon="5.54105">
        <ele>350.6</ele>
        <time>2022-02-24T18:06:56Z</time>
      </trkpt>
      <trkpt lat="46.37477" lon="5.54105">
        <ele>350.8</ele>
        <time>2022-02-24T18:06:57Z</time>
      </trkpt>
      <trkpt lat="46.3748" lon="5.54103">
        <ele>350.8</ele>
        <time>2022-02-24T18:06:58Z</time>
      </trkpt>
      <trkpt lat="46.37482" lon="5.54102">
        <ele>351.2</ele>
        <time>2022-02-24T18:06:59Z</time>
      </trkpt>
      <trkpt lat="46.37484" lon="5.54101">
        <ele>351.4</ele>
        <time>2022-02-24T18:07:00Z</time>
      </trkpt>
      <trkpt lat="46.37487" lon="5.541">
        <ele>351.6</ele>
        <time>2022-02-24T18:07:01Z</time>
      </trkpt>
      <trkpt lat="46.37489" lon="5.54098">
        <ele>351.8</ele>
        <time>2022-02-24T18:07:02Z</time>
      </trkpt>
      <trkpt lat="46.37492" lon="5.54097">
        <ele>352</ele>
        <time>2022-02-24T18:07:03Z</time>
      </trkpt>
      <trkpt lat="46.37494" lon="5.54095">
        <ele>352</ele>
        <time>2022-02-24T18:07:04Z</time>
      </trkpt>
      <trkpt lat="46.37497" lon="5.54094">
        <ele>352.6</ele>
        <time>2022-02-24T18:07:05Z</time>
      </trkpt>
      <trkpt lat="46.375" lon="5.54093">
        <ele>352.8</ele>
        <time>2022-02-24T18:07:06Z</time>
      </trkpt>
      <trkpt lat="46.37502" lon="5.54093">
        <ele>352.8</ele>
        <time>2022-02-24T18:07:07Z</time>
      </trkpt>
      <trkpt lat="46.37505" lon="5.54092">
        <ele>353</ele>
        <time>2022-02-24T18:07:08Z</time>
      </trkpt>
      <trkpt lat="46.37507" lon="5.54091">
        <ele>353</ele>
        <time>2022-02-24T18:07:09Z</time>
      </trkpt>
      <trkpt lat="46.3751" lon="5.5409">
        <ele>353.4</ele>
        <time>2022-02-24T18:07:10Z</time>
      </trkpt>
      <trkpt lat="46.37512" lon="5.54088">
        <ele>353.4</ele>
        <time>2022-02-24T18:07:11Z</time>
      </trkpt>
      <trkpt lat="46.37515" lon="5.54087">
        <ele>353.8</ele>
        <time>2022-02-24T18:07:12Z</time>
      </trkpt>
      <trkpt lat="46.37517" lon="5.54086">
        <ele>353.8</ele>
        <time>2022-02-24T18:07:13Z</time>
      </trkpt>
      <trkpt lat="46.3752" lon="5.54085">
        <ele>354.2</ele>
        <time>2022-02-24T18:07:14Z</time>
      </trkpt>
      <trkpt lat="46.37522" lon="5.54084">
        <ele>354.2</ele>
        <time>2022-02-24T18:07:15Z</time>
      </trkpt>
      <trkpt lat="46.37524" lon="5.54083">
        <ele>354.4</ele>
        <time>2022-02-24T18:07:16Z</time>
      </trkpt>
      <trkpt lat="46.37527" lon="5.54082">
        <ele>354.8</ele>
        <time>2022-02-24T18:07:17Z</time>
      </trkpt>
      <trkpt lat="46.37529" lon="5.54081">
        <ele>354.8</ele>
        <time>2022-02-24T18:07:18Z</time>
      </trkpt>
      <trkpt lat="46.37532" lon="5.54081">
        <ele>355.2</ele>
        <time>2022-02-24T18:07:19Z</time>
      </trkpt>
      <trkpt lat="46.37534" lon="5.5408">
        <ele>355.4</ele>
        <time>2022-02-24T18:07:20Z</time>
      </trkpt>
      <trkpt lat="46.37536" lon="5.54079">
        <ele>355.6</ele>
        <time>2022-02-24T18:07:21Z</time>
      </trkpt>
      <trkpt lat="46.37539" lon="5.54079">
        <ele>355.6</ele>
        <time>2022-02-24T18:07:22Z</time>
      </trkpt>
      <trkpt lat="46.37541" lon="5.54078">
        <ele>355.8</ele>
        <time>2022-02-24T18:07:23Z</time>
      </trkpt>
      <trkpt lat="46.37544" lon="5.54077">
        <ele>355.8</ele>
        <time>2022-02-24T18:07:24Z</time>
      </trkpt>
      <trkpt lat="46.37546" lon="5.54076">
        <ele>356.2</ele>
        <time>2022-02-24T18:07:25Z</time>
      </trkpt>
      <trkpt lat="46.37548" lon="5.54075">
        <ele>356.4</ele>
        <time>2022-02-24T18:07:26Z</time>
      </trkpt>
      <trkpt lat="46.37551" lon="5.54074">
        <ele>356.4</ele>
        <time>2022-02-24T18:07:27Z</time>
      </trkpt>
      <trkpt lat="46.37553" lon="5.54074">
        <ele>356.6</ele>
        <time>2022-02-24T18:07:28Z</time>
      </trkpt>
      <trkpt lat="46.37555" lon="5.54073">
        <ele>356.6</ele>
        <time>2022-02-24T18:07:29Z</time>
      </trkpt>
      <trkpt lat="46.37558" lon="5.54073">
        <ele>357</ele>
        <time>2022-02-24T18:07:30Z</time>
      </trkpt>
      <trkpt lat="46.3756" lon="5.54073">
        <ele>357</ele>
        <time>2022-02-24T18:07:31Z</time>
      </trkpt>
      <trkpt lat="46.37563" lon="5.54073">
        <ele>357.2</ele>
        <time>2022-02-24T18:07:32Z</time>
      </trkpt>
      <trkpt lat="46.37565" lon="5.54072">
        <ele>357.2</ele>
        <time>2022-02-24T18:07:33Z</time>
      </trkpt>
      <trkpt lat="46.37568" lon="5.54072">
        <ele>357.6</ele>
        <time>2022-02-24T18:07:34Z</time>
      </trkpt>
      <trkpt lat="46.3757" lon="5.54071">
        <ele>357.6</ele>
        <time>2022-02-24T18:07:35Z</time>
      </trkpt>
      <trkpt lat="46.37572" lon="5.5407">
        <ele>357.8</ele>
        <time>2022-02-24T18:07:36Z</time>
      </trkpt>
      <trkpt lat="46.37575" lon="5.54069">
        <ele>357.8</ele>
        <time>2022-02-24T18:07:37Z</time>
      </trkpt>
      <trkpt lat="46.37577" lon="5.54068">
        <ele>358.2</ele>
        <time>2022-02-24T18:07:38Z</time>
      </trkpt>
      <trkpt lat="46.37579" lon="5.54067">
        <ele>358.2</ele>
        <time>2022-02-24T18:07:39Z</time>
      </trkpt>
      <trkpt lat="46.37582" lon="5.54066">
        <ele>358.6</ele>
        <time>2022-02-24T18:07:40Z</time>
      </trkpt>
      <trkpt lat="46.37585" lon="5.54066">
        <ele>358.6</ele>
        <time>2022-02-24T18:07:41Z</time>
      </trkpt>
      <trkpt lat="46.37587" lon="5.54065">
        <ele>358.8</ele>
        <time>2022-02-24T18:07:42Z</time>
      </trkpt>
      <trkpt lat="46.37589" lon="5.54063">
        <ele>358.8</ele>
        <time>2022-02-24T18:07:43Z</time>
      </trkpt>
      <trkpt lat="46.37592" lon="5.54062">
        <ele>359.4</ele>
        <time>2022-02-24T18:07:44Z</time>
      </trkpt>
      <trkpt lat="46.37594" lon="5.5406">
        <ele>359.4</ele>
        <time>2022-02-24T18:07:45Z</time>
      </trkpt>
      <trkpt lat="46.37596" lon="5.54059">
        <ele>359.6</ele>
        <time>2022-02-24T18:07:46Z</time>
      </trkpt>
      <trkpt lat="46.37599" lon="5.54059">
        <ele>359.6</ele>
        <time>2022-02-24T18:07:47Z</time>
      </trkpt>
      <trkpt lat="46.37602" lon="5.54058">
        <ele>359.8</ele>
        <time>2022-02-24T18:07:48Z</time>
      </trkpt>
      <trkpt lat="46.37604" lon="5.54057">
        <ele>359.8</ele>
        <time>2022-02-24T18:07:49Z</time>
      </trkpt>
      <trkpt lat="46.37607" lon="5.54056">
        <ele>360</ele>
        <time>2022-02-24T18:07:50Z</time>
      </trkpt>
      <trkpt lat="46.37609" lon="5.54055">
        <ele>360</ele>
        <time>2022-02-24T18:07:51Z</time>
      </trkpt>
      <trkpt lat="46.37612" lon="5.54054">
        <ele>360.4</ele>
        <time>2022-02-24T18:07:52Z</time>
      </trkpt>
      <trkpt lat="46.37614" lon="5.54053">
        <ele>360.4</ele>
        <time>2022-02-24T18:07:53Z</time>
      </trkpt>
      <trkpt lat="46.37617" lon="5.54053">
        <ele>360.6</ele>
        <time>2022-02-24T18:07:54Z</time>
      </trkpt>
      <trkpt lat="46.37619" lon="5.54052">
        <ele>360.6</ele>
        <time>2022-02-24T18:07:55Z</time>
      </trkpt>
      <trkpt lat="46.37622" lon="5.54052">
        <ele>361</ele>
        <time>2022-02-24T18:07:56Z</time>
      </trkpt>
      <trkpt lat="46.37624" lon="5.54051">
        <ele>361.2</ele>
        <time>2022-02-24T18:07:57Z</time>
      </trkpt>
      <trkpt lat="46.37627" lon="5.54051">
        <ele>361.2</ele>
        <time>2022-02-24T18:07:58Z</time>
      </trkpt>
      <trkpt lat="46.3763" lon="5.5405">
        <ele>361.6</ele>
        <time>2022-02-24T18:07:59Z</time>
      </trkpt>
      <trkpt lat="46.37632" lon="5.5405">
        <ele>361.8</ele>
        <time>2022-02-24T18:08:00Z</time>
      </trkpt>
      <trkpt lat="46.37635" lon="5.5405">
        <ele>362</ele>
        <time>2022-02-24T18:08:01Z</time>
      </trkpt>
      <trkpt lat="46.37637" lon="5.5405">
        <ele>362</ele>
        <time>2022-02-24T18:08:02Z</time>
      </trkpt>
      <trkpt lat="46.37639" lon="5.5405">
        <ele>362.4</ele>
        <time>2022-02-24T18:08:03Z</time>
      </trkpt>
      <trkpt lat="46.37642" lon="5.5405">
        <ele>362.6</ele>
        <time>2022-02-24T18:08:04Z</time>
      </trkpt>
      <trkpt lat="46.37644" lon="5.5405">
        <ele>362.8</ele>
        <time>2022-02-24T18:08:05Z</time>
      </trkpt>
      <trkpt lat="46.37646" lon="5.54051">
        <ele>362.8</ele>
        <time>2022-02-24T18:08:06Z</time>
      </trkpt>
      <trkpt lat="46.37649" lon="5.54051">
        <ele>363</ele>
        <time>2022-02-24T18:08:07Z</time>
      </trkpt>
      <trkpt lat="46.37651" lon="5.54051">
        <ele>363.2</ele>
        <time>2022-02-24T18:08:08Z</time>
      </trkpt>
      <trkpt lat="46.37653" lon="5.54051">
        <ele>363.2</ele>
        <time>2022-02-24T18:08:09Z</time>
      </trkpt>
      <trkpt lat="46.37656" lon="5.54051">
        <ele>363.6</ele>
        <time>2022-02-24T18:08:10Z</time>
      </trkpt>
      <trkpt lat="46.37658" lon="5.54052">
        <ele>363.8</ele>
        <time>2022-02-24T18:08:11Z</time>
      </trkpt>
      <trkpt lat="46.37661" lon="5.54053">
        <ele>363.8</ele>
        <time>2022-02-24T18:08:12Z</time>
      </trkpt>
      <trkpt lat="46.37663" lon="5.54053">
        <ele>364.2</ele>
        <time>2022-02-24T18:08:13Z</time>
      </trkpt>
      <trkpt lat="46.37666" lon="5.54053">
        <ele>364.2</ele>
        <time>2022-02-24T18:08:14Z</time>
      </trkpt>
      <trkpt lat="46.37668" lon="5.54054">
        <ele>364.6</ele>
        <time>2022-02-24T18:08:15Z</time>
      </trkpt>
      <trkpt lat="46.3767" lon="5.54054">
        <ele>364.8</ele>
        <time>2022-02-24T18:08:16Z</time>
      </trkpt>
      <trkpt lat="46.37673" lon="5.54055">
        <ele>364.8</ele>
        <time>2022-02-24T18:08:17Z</time>
      </trkpt>
      <trkpt lat="46.37675" lon="5.54056">
        <ele>365</ele>
        <time>2022-02-24T18:08:18Z</time>
      </trkpt>
      <trkpt lat="46.37678" lon="5.54057">
        <ele>365</ele>
        <time>2022-02-24T18:08:19Z</time>
      </trkpt>
      <trkpt lat="46.37681" lon="5.54058">
        <ele>365.4</ele>
        <time>2022-02-24T18:08:20Z</time>
      </trkpt>
      <trkpt lat="46.37683" lon="5.54059">
        <ele>365.4</ele>
        <time>2022-02-24T18:08:21Z</time>
      </trkpt>
      <trkpt lat="46.37685" lon="5.5406">
        <ele>365.8</ele>
        <time>2022-02-24T18:08:22Z</time>
      </trkpt>
      <trkpt lat="46.37688" lon="5.54061">
        <ele>366</ele>
        <time>2022-02-24T18:08:23Z</time>
      </trkpt>
      <trkpt lat="46.3769" lon="5.54062">
        <ele>366.2</ele>
        <time>2022-02-24T18:08:24Z</time>
      </trkpt>
      <trkpt lat="46.37693" lon="5.54063">
        <ele>366.4</ele>
        <time>2022-02-24T18:08:25Z</time>
      </trkpt>
      <trkpt lat="46.37695" lon="5.54064">
        <ele>366.6</ele>
        <time>2022-02-24T18:08:26Z</time>
      </trkpt>
      <trkpt lat="46.37698" lon="5.54065">
        <ele>366.8</ele>
        <time>2022-02-24T18:08:27Z</time>
      </trkpt>
      <trkpt lat="46.37701" lon="5.54066">
        <ele>366.8</ele>
        <time>2022-02-24T18:08:28Z</time>
      </trkpt>
      <trkpt lat="46.37704" lon="5.54067">
        <ele>367</ele>
        <time>2022-02-24T18:08:29Z</time>
      </trkpt>
      <trkpt lat="46.37707" lon="5.54069">
        <ele>367</ele>
        <time>2022-02-24T18:08:30Z</time>
      </trkpt>
      <trkpt lat="46.37709" lon="5.5407">
        <ele>367.4</ele>
        <time>2022-02-24T18:08:31Z</time>
      </trkpt>
      <trkpt lat="46.37712" lon="5.54071">
        <ele>367.4</ele>
        <time>2022-02-24T18:08:32Z</time>
      </trkpt>
      <trkpt lat="46.37715" lon="5.54073">
        <ele>367.8</ele>
        <time>2022-02-24T18:08:33Z</time>
      </trkpt>
      <trkpt lat="46.37718" lon="5.54074">
        <ele>367.8</ele>
        <time>2022-02-24T18:08:34Z</time>
      </trkpt>
      <trkpt lat="46.3772" lon="5.54075">
        <ele>368</ele>
        <time>2022-02-24T18:08:35Z</time>
      </trkpt>
      <trkpt lat="46.37723" lon="5.54077">
        <ele>368</ele>
        <time>2022-02-24T18:08:36Z</time>
      </trkpt>
      <trkpt lat="46.37726" lon="5.54078">
        <ele>368.4</ele>
        <time>2022-02-24T18:08:37Z</time>
      </trkpt>
      <trkpt lat="46.37729" lon="5.5408">
        <ele>368.4</ele>
        <time>2022-02-24T18:08:38Z</time>
      </trkpt>
      <trkpt lat="46.37732" lon="5.54081">
        <ele>368.8</ele>
        <time>2022-02-24T18:08:39Z</time>
      </trkpt>
      <trkpt lat="46.37735" lon="5.54082">
        <ele>368.8</ele>
        <time>2022-02-24T18:08:40Z</time>
      </trkpt>
      <trkpt lat="46.37737" lon="5.54083">
        <ele>369</ele>
        <time>2022-02-24T18:08:41Z</time>
      </trkpt>
      <trkpt lat="46.3774" lon="5.54084">
        <ele>369</ele>
        <time>2022-02-24T18:08:42Z</time>
      </trkpt>
      <trkpt lat="46.37742" lon="5.54086">
        <ele>369.4</ele>
        <time>2022-02-24T18:08:43Z</time>
      </trkpt>
      <trkpt lat="46.37745" lon="5.54087">
        <ele>369.4</ele>
        <time>2022-02-24T18:08:44Z</time>
      </trkpt>
      <trkpt lat="46.37747" lon="5.54088">
        <ele>369.8</ele>
        <time>2022-02-24T18:08:45Z</time>
      </trkpt>
      <trkpt lat="46.3775" lon="5.54089">
        <ele>369.8</ele>
        <time>2022-02-24T18:08:46Z</time>
      </trkpt>
      <trkpt lat="46.37752" lon="5.5409">
        <ele>370.2</ele>
        <time>2022-02-24T18:08:47Z</time>
      </trkpt>
      <trkpt lat="46.37755" lon="5.54091">
        <ele>370.2</ele>
        <time>2022-02-24T18:08:48Z</time>
      </trkpt>
      <trkpt lat="46.37757" lon="5.54092">
        <ele>370.4</ele>
        <time>2022-02-24T18:08:49Z</time>
      </trkpt>
      <trkpt lat="46.3776" lon="5.54094">
        <ele>370.4</ele>
        <time>2022-02-24T18:08:50Z</time>
      </trkpt>
      <trkpt lat="46.37762" lon="5.54095">
        <ele>370.6</ele>
        <time>2022-02-24T18:08:51Z</time>
      </trkpt>
      <trkpt lat="46.37765" lon="5.54097">
        <ele>370.6</ele>
        <time>2022-02-24T18:08:52Z</time>
      </trkpt>
      <trkpt lat="46.37767" lon="5.54098">
        <ele>371</ele>
        <time>2022-02-24T18:08:53Z</time>
      </trkpt>
      <trkpt lat="46.3777" lon="5.54099">
        <ele>371.2</ele>
        <time>2022-02-24T18:08:54Z</time>
      </trkpt>
      <trkpt lat="46.37773" lon="5.54101">
        <ele>371.2</ele>
        <time>2022-02-24T18:08:55Z</time>
      </trkpt>
      <trkpt lat="46.37775" lon="5.54102">
        <ele>371.6</ele>
        <time>2022-02-24T18:08:56Z</time>
      </trkpt>
      <trkpt lat="46.37778" lon="5.54104">
        <ele>371.8</ele>
        <time>2022-02-24T18:08:57Z</time>
      </trkpt>
      <trkpt lat="46.3778" lon="5.54105">
        <ele>371.8</ele>
        <time>2022-02-24T18:08:58Z</time>
      </trkpt>
      <trkpt lat="46.37782" lon="5.54107">
        <ele>372</ele>
        <time>2022-02-24T18:08:59Z</time>
      </trkpt>
      <trkpt lat="46.37785" lon="5.54108">
        <ele>372</ele>
        <time>2022-02-24T18:09:00Z</time>
      </trkpt>
      <trkpt lat="46.37787" lon="5.54109">
        <ele>372.4</ele>
        <time>2022-02-24T18:09:01Z</time>
      </trkpt>
      <trkpt lat="46.3779" lon="5.54111">
        <ele>372.4</ele>
        <time>2022-02-24T18:09:02Z</time>
      </trkpt>
      <trkpt lat="46.37792" lon="5.54112">
        <ele>372.6</ele>
        <time>2022-02-24T18:09:03Z</time>
      </trkpt>
      <trkpt lat="46.37794" lon="5.54114">
        <ele>373</ele>
        <time>2022-02-24T18:09:04Z</time>
      </trkpt>
      <trkpt lat="46.37796" lon="5.54116">
        <ele>373</ele>
        <time>2022-02-24T18:09:05Z</time>
      </trkpt>
      <trkpt lat="46.37799" lon="5.54118">
        <ele>373.2</ele>
        <time>2022-02-24T18:09:06Z</time>
      </trkpt>
      <trkpt lat="46.37801" lon="5.54119">
        <ele>373.2</ele>
        <time>2022-02-24T18:09:07Z</time>
      </trkpt>
      <trkpt lat="46.37803" lon="5.54121">
        <ele>373.6</ele>
        <time>2022-02-24T18:09:08Z</time>
      </trkpt>
      <trkpt lat="46.37805" lon="5.54123">
        <ele>373.6</ele>
        <time>2022-02-24T18:09:09Z</time>
      </trkpt>
      <trkpt lat="46.37808" lon="5.54124">
        <ele>373.8</ele>
        <time>2022-02-24T18:09:10Z</time>
      </trkpt>
      <trkpt lat="46.3781" lon="5.54126">
        <ele>373.8</ele>
        <time>2022-02-24T18:09:11Z</time>
      </trkpt>
      <trkpt lat="46.37811" lon="5.54128">
        <ele>374</ele>
        <time>2022-02-24T18:09:12Z</time>
      </trkpt>
      <trkpt lat="46.37813" lon="5.5413">
        <ele>374</ele>
        <time>2022-02-24T18:09:13Z</time>
      </trkpt>
      <trkpt lat="46.37815" lon="5.54132">
        <ele>374.2</ele>
        <time>2022-02-24T18:09:14Z</time>
      </trkpt>
      <trkpt lat="46.37818" lon="5.54134">
        <ele>374.2</ele>
        <time>2022-02-24T18:09:15Z</time>
      </trkpt>
      <trkpt lat="46.37819" lon="5.54136">
        <ele>374.8</ele>
        <time>2022-02-24T18:09:16Z</time>
      </trkpt>
      <trkpt lat="46.37821" lon="5.54138">
        <ele>375</ele>
        <time>2022-02-24T18:09:17Z</time>
      </trkpt>
      <trkpt lat="46.37823" lon="5.5414">
        <ele>375</ele>
        <time>2022-02-24T18:09:18Z</time>
      </trkpt>
      <trkpt lat="46.37825" lon="5.54142">
        <ele>375.2</ele>
        <time>2022-02-24T18:09:19Z</time>
      </trkpt>
      <trkpt lat="46.37827" lon="5.54145">
        <ele>375.2</ele>
        <time>2022-02-24T18:09:20Z</time>
      </trkpt>
      <trkpt lat="46.37829" lon="5.54147">
        <ele>375.6</ele>
        <time>2022-02-24T18:09:21Z</time>
      </trkpt>
      <trkpt lat="46.37831" lon="5.54149">
        <ele>375.6</ele>
        <time>2022-02-24T18:09:22Z</time>
      </trkpt>
      <trkpt lat="46.37833" lon="5.54152">
        <ele>376</ele>
        <time>2022-02-24T18:09:23Z</time>
      </trkpt>
      <trkpt lat="46.37835" lon="5.54154">
        <ele>376.2</ele>
        <time>2022-02-24T18:09:24Z</time>
      </trkpt>
      <trkpt lat="46.37836" lon="5.54156">
        <ele>376.2</ele>
        <time>2022-02-24T18:09:25Z</time>
      </trkpt>
      <trkpt lat="46.37838" lon="5.54159">
        <ele>376.4</ele>
        <time>2022-02-24T18:09:26Z</time>
      </trkpt>
      <trkpt lat="46.3784" lon="5.54161">
        <ele>376.8</ele>
        <time>2022-02-24T18:09:27Z</time>
      </trkpt>
      <trkpt lat="46.37842" lon="5.54164">
        <ele>377</ele>
        <time>2022-02-24T18:09:28Z</time>
      </trkpt>
      <trkpt lat="46.37843" lon="5.54167">
        <ele>377.2</ele>
        <time>2022-02-24T18:09:29Z</time>
      </trkpt>
      <trkpt lat="46.37846" lon="5.54169">
        <ele>377.2</ele>
        <time>2022-02-24T18:09:30Z</time>
      </trkpt>
      <trkpt lat="46.37848" lon="5.54172">
        <ele>377.6</ele>
        <time>2022-02-24T18:09:31Z</time>
      </trkpt>
      <trkpt lat="46.37849" lon="5.54174">
        <ele>377.6</ele>
        <time>2022-02-24T18:09:32Z</time>
      </trkpt>
      <trkpt lat="46.37851" lon="5.54177">
        <ele>378</ele>
        <time>2022-02-24T18:09:33Z</time>
      </trkpt>
      <trkpt lat="46.37853" lon="5.54179">
        <ele>378.2</ele>
        <time>2022-02-24T18:09:34Z</time>
      </trkpt>
      <trkpt lat="46.37855" lon="5.54182">
        <ele>378.4</ele>
        <time>2022-02-24T18:09:35Z</time>
      </trkpt>
      <trkpt lat="46.37857" lon="5.54184">
        <ele>378.8</ele>
        <time>2022-02-24T18:09:36Z</time>
      </trkpt>
      <trkpt lat="46.37859" lon="5.54187">
        <ele>379</ele>
        <time>2022-02-24T18:09:37Z</time>
      </trkpt>
      <trkpt lat="46.37861" lon="5.54189">
        <ele>379.2</ele>
        <time>2022-02-24T18:09:38Z</time>
      </trkpt>
      <trkpt lat="46.37863" lon="5.54192">
        <ele>379.2</ele>
        <time>2022-02-24T18:09:39Z</time>
      </trkpt>
      <trkpt lat="46.37866" lon="5.54194">
        <ele>379.6</ele>
        <time>2022-02-24T18:09:40Z</time>
      </trkpt>
      <trkpt lat="46.37868" lon="5.54197">
        <ele>379.6</ele>
        <time>2022-02-24T18:09:41Z</time>
      </trkpt>
      <trkpt lat="46.3787" lon="5.542">
        <ele>380</ele>
        <time>2022-02-24T18:09:42Z</time>
      </trkpt>
      <trkpt lat="46.37872" lon="5.54202">
        <ele>380</ele>
        <time>2022-02-24T18:09:43Z</time>
      </trkpt>
      <trkpt lat="46.37874" lon="5.54205">
        <ele>380.4</ele>
        <time>2022-02-24T18:09:44Z</time>
      </trkpt>
      <trkpt lat="46.37876" lon="5.54208">
        <ele>380.4</ele>
        <time>2022-02-24T18:09:45Z</time>
      </trkpt>
      <trkpt lat="46.37878" lon="5.54211">
        <ele>380.6</ele>
        <time>2022-02-24T18:09:46Z</time>
      </trkpt>
      <trkpt lat="46.3788" lon="5.54213">
        <ele>380.6</ele>
        <time>2022-02-24T18:09:47Z</time>
      </trkpt>
      <trkpt lat="46.37882" lon="5.54216">
        <ele>381</ele>
        <time>2022-02-24T18:09:48Z</time>
      </trkpt>
      <trkpt lat="46.37884" lon="5.54219">
        <ele>381</ele>
        <time>2022-02-24T18:09:49Z</time>
      </trkpt>
      <trkpt lat="46.37886" lon="5.54222">
        <ele>381.4</ele>
        <time>2022-02-24T18:09:50Z</time>
      </trkpt>
      <trkpt lat="46.37888" lon="5.54225">
        <ele>381.4</ele>
        <time>2022-02-24T18:09:51Z</time>
      </trkpt>
      <trkpt lat="46.3789" lon="5.54228">
        <ele>381.6</ele>
        <time>2022-02-24T18:09:52Z</time>
      </trkpt>
      <trkpt lat="46.37892" lon="5.5423">
        <ele>381.8</ele>
        <time>2022-02-24T18:09:53Z</time>
      </trkpt>
      <trkpt lat="46.37895" lon="5.54233">
        <ele>381.8</ele>
        <time>2022-02-24T18:09:54Z</time>
      </trkpt>
      <trkpt lat="46.37897" lon="5.54236">
        <ele>382.2</ele>
        <time>2022-02-24T18:09:55Z</time>
      </trkpt>
      <trkpt lat="46.37899" lon="5.54239">
        <ele>382.2</ele>
        <time>2022-02-24T18:09:56Z</time>
      </trkpt>
      <trkpt lat="46.37901" lon="5.54241">
        <ele>382.4</ele>
        <time>2022-02-24T18:09:57Z</time>
      </trkpt>
      <trkpt lat="46.37904" lon="5.54243">
        <ele>382.4</ele>
        <time>2022-02-24T18:09:58Z</time>
      </trkpt>
      <trkpt lat="46.37906" lon="5.54246">
        <ele>382.8</ele>
        <time>2022-02-24T18:09:59Z</time>
      </trkpt>
      <trkpt lat="46.37908" lon="5.54249">
        <ele>382.8</ele>
        <time>2022-02-24T18:10:00Z</time>
      </trkpt>
      <trkpt lat="46.3791" lon="5.54251">
        <ele>383</ele>
        <time>2022-02-24T18:10:01Z</time>
      </trkpt>
      <trkpt lat="46.37912" lon="5.54254">
        <ele>383</ele>
        <time>2022-02-24T18:10:02Z</time>
      </trkpt>
      <trkpt lat="46.37915" lon="5.54256">
        <ele>383.4</ele>
        <time>2022-02-24T18:10:03Z</time>
      </trkpt>
      <trkpt lat="46.37917" lon="5.54258">
        <ele>383.6</ele>
        <time>2022-02-24T18:10:04Z</time>
      </trkpt>
      <trkpt lat="46.37919" lon="5.54261">
        <ele>383.6</ele>
        <time>2022-02-24T18:10:05Z</time>
      </trkpt>
      <trkpt lat="46.37922" lon="5.54263">
        <ele>383.8</ele>
        <time>2022-02-24T18:10:06Z</time>
      </trkpt>
      <trkpt lat="46.37924" lon="5.54266">
        <ele>383.8</ele>
        <time>2022-02-24T18:10:07Z</time>
      </trkpt>
      <trkpt lat="46.37925" lon="5.54269">
        <ele>384.2</ele>
        <time>2022-02-24T18:10:08Z</time>
      </trkpt>
      <trkpt lat="46.37929" lon="5.54275">
        <ele>384.2</ele>
        <time>2022-02-24T18:10:09Z</time>
      </trkpt>
      <trkpt lat="46.37931" lon="5.54278">
        <ele>384.4</ele>
        <time>2022-02-24T18:10:10Z</time>
      </trkpt>
      <trkpt lat="46.37933" lon="5.54281">
        <ele>384.4</ele>
        <time>2022-02-24T18:10:11Z</time>
      </trkpt>
      <trkpt lat="46.37934" lon="5.54284">
        <ele>384.8</ele>
        <time>2022-02-24T18:10:12Z</time>
      </trkpt>
      <trkpt lat="46.37936" lon="5.54288">
        <ele>384.8</ele>
        <time>2022-02-24T18:10:13Z</time>
      </trkpt>
      <trkpt lat="46.37936" lon="5.54291">
        <ele>385.2</ele>
        <time>2022-02-24T18:10:14Z</time>
      </trkpt>
      <trkpt lat="46.37936" lon="5.54295">
        <ele>385.2</ele>
        <time>2022-02-24T18:10:15Z</time>
      </trkpt>
      <trkpt lat="46.37936" lon="5.54299">
        <ele>385.4</ele>
        <time>2022-02-24T18:10:16Z</time>
      </trkpt>
      <trkpt lat="46.37934" lon="5.54302">
        <ele>385.8</ele>
        <time>2022-02-24T18:10:17Z</time>
      </trkpt>
      <trkpt lat="46.37932" lon="5.54304">
        <ele>386</ele>
        <time>2022-02-24T18:10:18Z</time>
      </trkpt>
      <trkpt lat="46.3793" lon="5.54306">
        <ele>386.2</ele>
        <time>2022-02-24T18:10:19Z</time>
      </trkpt>
      <trkpt lat="46.37928" lon="5.54307">
        <ele>386.4</ele>
        <time>2022-02-24T18:10:20Z</time>
      </trkpt>
      <trkpt lat="46.37925" lon="5.54306">
        <ele>386.8</ele>
        <time>2022-02-24T18:10:21Z</time>
      </trkpt>
      <trkpt lat="46.37923" lon="5.54306">
        <ele>386.8</ele>
        <time>2022-02-24T18:10:22Z</time>
      </trkpt>
      <trkpt lat="46.37921" lon="5.54305">
        <ele>387</ele>
        <time>2022-02-24T18:10:23Z</time>
      </trkpt>
      <trkpt lat="46.37918" lon="5.54304">
        <ele>387</ele>
        <time>2022-02-24T18:10:24Z</time>
      </trkpt>
      <trkpt lat="46.37916" lon="5.54302">
        <ele>387</ele>
        <time>2022-02-24T18:10:25Z</time>
      </trkpt>
      <trkpt lat="46.37913" lon="5.54301">
        <ele>387.4</ele>
        <time>2022-02-24T18:10:26Z</time>
      </trkpt>
      <trkpt lat="46.3791" lon="5.54299">
        <ele>387.4</ele>
        <time>2022-02-24T18:10:27Z</time>
      </trkpt>
      <trkpt lat="46.37908" lon="5.54298">
        <ele>387.6</ele>
        <time>2022-02-24T18:10:28Z</time>
      </trkpt>
      <trkpt lat="46.37905" lon="5.54298">
        <ele>387.6</ele>
        <time>2022-02-24T18:10:29Z</time>
      </trkpt>
      <trkpt lat="46.37902" lon="5.54297">
        <ele>388</ele>
        <time>2022-02-24T18:10:30Z</time>
      </trkpt>
      <trkpt lat="46.379" lon="5.54297">
        <ele>388</ele>
        <time>2022-02-24T18:10:31Z</time>
      </trkpt>
      <trkpt lat="46.37897" lon="5.54297">
        <ele>388.4</ele>
        <time>2022-02-24T18:10:32Z</time>
      </trkpt>
      <trkpt lat="46.37894" lon="5.54297">
        <ele>388.4</ele>
        <time>2022-02-24T18:10:33Z</time>
      </trkpt>
      <trkpt lat="46.37892" lon="5.54297">
        <ele>388.6</ele>
        <time>2022-02-24T18:10:34Z</time>
      </trkpt>
      <trkpt lat="46.37889" lon="5.54298">
        <ele>388.8</ele>
        <time>2022-02-24T18:10:35Z</time>
      </trkpt>
      <trkpt lat="46.37886" lon="5.54298">
        <ele>389.2</ele>
        <time>2022-02-24T18:10:36Z</time>
      </trkpt>
      <trkpt lat="46.37883" lon="5.54299">
        <ele>389.2</ele>
        <time>2022-02-24T18:10:37Z</time>
      </trkpt>
      <trkpt lat="46.37881" lon="5.543">
        <ele>389.6</ele>
        <time>2022-02-24T18:10:38Z</time>
      </trkpt>
      <trkpt lat="46.37878" lon="5.54301">
        <ele>389.6</ele>
        <time>2022-02-24T18:10:39Z</time>
      </trkpt>
      <trkpt lat="46.37876" lon="5.54302">
        <ele>389.8</ele>
        <time>2022-02-24T18:10:40Z</time>
      </trkpt>
      <trkpt lat="46.37873" lon="5.54303">
        <ele>389.8</ele>
        <time>2022-02-24T18:10:41Z</time>
      </trkpt>
      <trkpt lat="46.37871" lon="5.54304">
        <ele>390.2</ele>
        <time>2022-02-24T18:10:42Z</time>
      </trkpt>
      <trkpt lat="46.37869" lon="5.54306">
        <ele>390.2</ele>
        <time>2022-02-24T18:10:43Z</time>
      </trkpt>
      <trkpt lat="46.37867" lon="5.54307">
        <ele>390.6</ele>
        <time>2022-02-24T18:10:44Z</time>
      </trkpt>
      <trkpt lat="46.37864" lon="5.54309">
        <ele>390.6</ele>
        <time>2022-02-24T18:10:45Z</time>
      </trkpt>
      <trkpt lat="46.37862" lon="5.5431">
        <ele>391</ele>
        <time>2022-02-24T18:10:46Z</time>
      </trkpt>
      <trkpt lat="46.3786" lon="5.54312">
        <ele>391.2</ele>
        <time>2022-02-24T18:10:47Z</time>
      </trkpt>
      <trkpt lat="46.37858" lon="5.54314">
        <ele>391.2</ele>
        <time>2022-02-24T18:10:48Z</time>
      </trkpt>
      <trkpt lat="46.37856" lon="5.54316">
        <ele>391.6</ele>
        <time>2022-02-24T18:10:49Z</time>
      </trkpt>
      <trkpt lat="46.37854" lon="5.54318">
        <ele>391.6</ele>
        <time>2022-02-24T18:10:50Z</time>
      </trkpt>
      <trkpt lat="46.37852" lon="5.5432">
        <ele>391.8</ele>
        <time>2022-02-24T18:10:51Z</time>
      </trkpt>
      <trkpt lat="46.3785" lon="5.54321">
        <ele>392</ele>
        <time>2022-02-24T18:10:52Z</time>
      </trkpt>
      <trkpt lat="46.37848" lon="5.54323">
        <ele>392</ele>
        <time>2022-02-24T18:10:53Z</time>
      </trkpt>
      <trkpt lat="46.37846" lon="5.54326">
        <ele>392.4</ele>
        <time>2022-02-24T18:10:54Z</time>
      </trkpt>
      <trkpt lat="46.37844" lon="5.54329">
        <ele>392.6</ele>
        <time>2022-02-24T18:10:55Z</time>
      </trkpt>
      <trkpt lat="46.37842" lon="5.54332">
        <ele>392.6</ele>
        <time>2022-02-24T18:10:56Z</time>
      </trkpt>
      <trkpt lat="46.3784" lon="5.54336">
        <ele>393</ele>
        <time>2022-02-24T18:10:57Z</time>
      </trkpt>
      <trkpt lat="46.37838" lon="5.54339">
        <ele>393</ele>
        <time>2022-02-24T18:10:58Z</time>
      </trkpt>
      <trkpt lat="46.37836" lon="5.54342">
        <ele>393.4</ele>
        <time>2022-02-24T18:10:59Z</time>
      </trkpt>
      <trkpt lat="46.37834" lon="5.54346">
        <ele>393.6</ele>
        <time>2022-02-24T18:11:00Z</time>
      </trkpt>
      <trkpt lat="46.37832" lon="5.5435">
        <ele>393.6</ele>
        <time>2022-02-24T18:11:01Z</time>
      </trkpt>
      <trkpt lat="46.37831" lon="5.54354">
        <ele>394</ele>
        <time>2022-02-24T18:11:02Z</time>
      </trkpt>
      <trkpt lat="46.37829" lon="5.54357">
        <ele>394</ele>
        <time>2022-02-24T18:11:03Z</time>
      </trkpt>
      <trkpt lat="46.37828" lon="5.54361">
        <ele>394.2</ele>
        <time>2022-02-24T18:11:04Z</time>
      </trkpt>
      <trkpt lat="46.37826" lon="5.54365">
        <ele>394.2</ele>
        <time>2022-02-24T18:11:05Z</time>
      </trkpt>
      <trkpt lat="46.37825" lon="5.54368">
        <ele>394.6</ele>
        <time>2022-02-24T18:11:06Z</time>
      </trkpt>
      <trkpt lat="46.37824" lon="5.54372">
        <ele>394.6</ele>
        <time>2022-02-24T18:11:07Z</time>
      </trkpt>
      <trkpt lat="46.37823" lon="5.54376">
        <ele>394.8</ele>
        <time>2022-02-24T18:11:08Z</time>
      </trkpt>
      <trkpt lat="46.37822" lon="5.54379">
        <ele>395</ele>
        <time>2022-02-24T18:11:09Z</time>
      </trkpt>
      <trkpt lat="46.37821" lon="5.54383">
        <ele>395</ele>
        <time>2022-02-24T18:11:10Z</time>
      </trkpt>
      <trkpt lat="46.37819" lon="5.54387">
        <ele>395.4</ele>
        <time>2022-02-24T18:11:11Z</time>
      </trkpt>
      <trkpt lat="46.37818" lon="5.54391">
        <ele>395.4</ele>
        <time>2022-02-24T18:11:12Z</time>
      </trkpt>
      <trkpt lat="46.37817" lon="5.54394">
        <ele>395.8</ele>
        <time>2022-02-24T18:11:13Z</time>
      </trkpt>
      <trkpt lat="46.37816" lon="5.54398">
        <ele>395.8</ele>
        <time>2022-02-24T18:11:14Z</time>
      </trkpt>
      <trkpt lat="46.37814" lon="5.54403">
        <ele>396.2</ele>
        <time>2022-02-24T18:11:15Z</time>
      </trkpt>
      <trkpt lat="46.37813" lon="5.54407">
        <ele>396.2</ele>
        <time>2022-02-24T18:11:16Z</time>
      </trkpt>
      <trkpt lat="46.37812" lon="5.54411">
        <ele>396.4</ele>
        <time>2022-02-24T18:11:17Z</time>
      </trkpt>
      <trkpt lat="46.37811" lon="5.54415">
        <ele>396.4</ele>
        <time>2022-02-24T18:11:18Z</time>
      </trkpt>
      <trkpt lat="46.37809" lon="5.54418">
        <ele>396.6</ele>
        <time>2022-02-24T18:11:19Z</time>
      </trkpt>
      <trkpt lat="46.37808" lon="5.54422">
        <ele>396.6</ele>
        <time>2022-02-24T18:11:20Z</time>
      </trkpt>
      <trkpt lat="46.37806" lon="5.54426">
        <ele>396.8</ele>
        <time>2022-02-24T18:11:21Z</time>
      </trkpt>
      <trkpt lat="46.37805" lon="5.5443">
        <ele>396.8</ele>
        <time>2022-02-24T18:11:22Z</time>
      </trkpt>
      <trkpt lat="46.37803" lon="5.54434">
        <ele>397.2</ele>
        <time>2022-02-24T18:11:23Z</time>
      </trkpt>
      <trkpt lat="46.37802" lon="5.54438">
        <ele>397.2</ele>
        <time>2022-02-24T18:11:24Z</time>
      </trkpt>
      <trkpt lat="46.37801" lon="5.54442">
        <ele>397.4</ele>
        <time>2022-02-24T18:11:25Z</time>
      </trkpt>
      <trkpt lat="46.378" lon="5.54446">
        <ele>397.4</ele>
        <time>2022-02-24T18:11:26Z</time>
      </trkpt>
      <trkpt lat="46.37798" lon="5.5445">
        <ele>397.4</ele>
        <time>2022-02-24T18:11:27Z</time>
      </trkpt>
      <trkpt lat="46.37797" lon="5.54454">
        <ele>397.8</ele>
        <time>2022-02-24T18:11:28Z</time>
      </trkpt>
      <trkpt lat="46.37795" lon="5.54458">
        <ele>397.8</ele>
        <time>2022-02-24T18:11:29Z</time>
      </trkpt>
      <trkpt lat="46.37794" lon="5.54463">
        <ele>397.8</ele>
        <time>2022-02-24T18:11:30Z</time>
      </trkpt>
      <trkpt lat="46.37792" lon="5.54467">
        <ele>398</ele>
        <time>2022-02-24T18:11:31Z</time>
      </trkpt>
      <trkpt lat="46.3779" lon="5.54471">
        <ele>398</ele>
        <time>2022-02-24T18:11:32Z</time>
      </trkpt>
      <trkpt lat="46.37789" lon="5.54476">
        <ele>398.4</ele>
        <time>2022-02-24T18:11:33Z</time>
      </trkpt>
      <trkpt lat="46.37787" lon="5.54481">
        <ele>398.4</ele>
        <time>2022-02-24T18:11:34Z</time>
      </trkpt>
      <trkpt lat="46.37786" lon="5.54485">
        <ele>398.6</ele>
        <time>2022-02-24T18:11:35Z</time>
      </trkpt>
      <trkpt lat="46.37784" lon="5.5449">
        <ele>398.6</ele>
        <time>2022-02-24T18:11:36Z</time>
      </trkpt>
      <trkpt lat="46.37783" lon="5.54495">
        <ele>398.6</ele>
        <time>2022-02-24T18:11:37Z</time>
      </trkpt>
      <trkpt lat="46.37781" lon="5.54499">
        <ele>398.8</ele>
        <time>2022-02-24T18:11:38Z</time>
      </trkpt>
      <trkpt lat="46.3778" lon="5.54504">
        <ele>398.8</ele>
        <time>2022-02-24T18:11:39Z</time>
      </trkpt>
      <trkpt lat="46.37778" lon="5.54508">
        <ele>399</ele>
        <time>2022-02-24T18:11:40Z</time>
      </trkpt>
      <trkpt lat="46.37776" lon="5.54513">
        <ele>399</ele>
        <time>2022-02-24T18:11:41Z</time>
      </trkpt>
      <trkpt lat="46.37774" lon="5.54517">
        <ele>399.4</ele>
        <time>2022-02-24T18:11:42Z</time>
      </trkpt>
      <trkpt lat="46.37772" lon="5.54522">
        <ele>399.4</ele>
        <time>2022-02-24T18:11:43Z</time>
      </trkpt>
      <trkpt lat="46.37771" lon="5.54526">
        <ele>399.4</ele>
        <time>2022-02-24T18:11:44Z</time>
      </trkpt>
      <trkpt lat="46.37769" lon="5.54531">
        <ele>399.4</ele>
        <time>2022-02-24T18:11:45Z</time>
      </trkpt>
      <trkpt lat="46.37767" lon="5.54536">
        <ele>399.6</ele>
        <time>2022-02-24T18:11:46Z</time>
      </trkpt>
      <trkpt lat="46.37766" lon="5.54541">
        <ele>399.6</ele>
        <time>2022-02-24T18:11:47Z</time>
      </trkpt>
      <trkpt lat="46.37764" lon="5.54545">
        <ele>399.8</ele>
        <time>2022-02-24T18:11:48Z</time>
      </trkpt>
      <trkpt lat="46.37762" lon="5.5455">
        <ele>399.8</ele>
        <time>2022-02-24T18:11:49Z</time>
      </trkpt>
      <trkpt lat="46.3776" lon="5.54555">
        <ele>400.2</ele>
        <time>2022-02-24T18:11:50Z</time>
      </trkpt>
      <trkpt lat="46.37758" lon="5.5456">
        <ele>400.2</ele>
        <time>2022-02-24T18:11:51Z</time>
      </trkpt>
      <trkpt lat="46.37756" lon="5.54565">
        <ele>400.2</ele>
        <time>2022-02-24T18:11:52Z</time>
      </trkpt>
      <trkpt lat="46.37754" lon="5.54569">
        <ele>400.4</ele>
        <time>2022-02-24T18:11:53Z</time>
      </trkpt>
      <trkpt lat="46.37752" lon="5.54574">
        <ele>400.4</ele>
        <time>2022-02-24T18:11:54Z</time>
      </trkpt>
      <trkpt lat="46.3775" lon="5.54579">
        <ele>400.6</ele>
        <time>2022-02-24T18:11:55Z</time>
      </trkpt>
      <trkpt lat="46.37748" lon="5.54584">
        <ele>400.6</ele>
        <time>2022-02-24T18:11:56Z</time>
      </trkpt>
      <trkpt lat="46.37747" lon="5.54588">
        <ele>400.6</ele>
        <time>2022-02-24T18:11:57Z</time>
      </trkpt>
      <trkpt lat="46.37745" lon="5.54593">
        <ele>401</ele>
        <time>2022-02-24T18:11:58Z</time>
      </trkpt>
      <trkpt lat="46.37743" lon="5.54598">
        <ele>401</ele>
        <time>2022-02-24T18:11:59Z</time>
      </trkpt>
      <trkpt lat="46.37741" lon="5.54603">
        <ele>401</ele>
        <time>2022-02-24T18:12:00Z</time>
      </trkpt>
      <trkpt lat="46.37739" lon="5.54608">
        <ele>401.2</ele>
        <time>2022-02-24T18:12:01Z</time>
      </trkpt>
      <trkpt lat="46.37737" lon="5.54613">
        <ele>401.2</ele>
        <time>2022-02-24T18:12:02Z</time>
      </trkpt>
      <trkpt lat="46.37735" lon="5.54617">
        <ele>401.2</ele>
        <time>2022-02-24T18:12:03Z</time>
      </trkpt>
      <trkpt lat="46.37733" lon="5.54622">
        <ele>401.6</ele>
        <time>2022-02-24T18:12:04Z</time>
      </trkpt>
      <trkpt lat="46.37731" lon="5.54627">
        <ele>401.6</ele>
        <time>2022-02-24T18:12:05Z</time>
      </trkpt>
      <trkpt lat="46.37729" lon="5.54632">
        <ele>401.8</ele>
        <time>2022-02-24T18:12:06Z</time>
      </trkpt>
      <trkpt lat="46.37728" lon="5.54638">
        <ele>401.8</ele>
        <time>2022-02-24T18:12:07Z</time>
      </trkpt>
      <trkpt lat="46.37726" lon="5.54642">
        <ele>402</ele>
        <time>2022-02-24T18:12:08Z</time>
      </trkpt>
      <trkpt lat="46.37724" lon="5.54647">
        <ele>402</ele>
        <time>2022-02-24T18:12:09Z</time>
      </trkpt>
      <trkpt lat="46.37722" lon="5.54652">
        <ele>402</ele>
        <time>2022-02-24T18:12:10Z</time>
      </trkpt>
      <trkpt lat="46.37721" lon="5.54657">
        <ele>402.4</ele>
        <time>2022-02-24T18:12:11Z</time>
      </trkpt>
      <trkpt lat="46.37719" lon="5.54662">
        <ele>402.4</ele>
        <time>2022-02-24T18:12:12Z</time>
      </trkpt>
      <trkpt lat="46.37717" lon="5.54667">
        <ele>402.6</ele>
        <time>2022-02-24T18:12:13Z</time>
      </trkpt>
      <trkpt lat="46.37716" lon="5.54672">
        <ele>402.6</ele>
        <time>2022-02-24T18:12:14Z</time>
      </trkpt>
      <trkpt lat="46.37714" lon="5.54677">
        <ele>402.8</ele>
        <time>2022-02-24T18:12:15Z</time>
      </trkpt>
      <trkpt lat="46.37713" lon="5.54681">
        <ele>402.8</ele>
        <time>2022-02-24T18:12:16Z</time>
      </trkpt>
      <trkpt lat="46.37711" lon="5.54686">
        <ele>403.2</ele>
        <time>2022-02-24T18:12:17Z</time>
      </trkpt>
      <trkpt lat="46.3771" lon="5.54692">
        <ele>403.2</ele>
        <time>2022-02-24T18:12:18Z</time>
      </trkpt>
      <trkpt lat="46.37709" lon="5.54697">
        <ele>403.2</ele>
        <time>2022-02-24T18:12:19Z</time>
      </trkpt>
      <trkpt lat="46.37707" lon="5.54702">
        <ele>403.4</ele>
        <time>2022-02-24T18:12:20Z</time>
      </trkpt>
      <trkpt lat="46.37706" lon="5.54707">
        <ele>403.4</ele>
        <time>2022-02-24T18:12:21Z</time>
      </trkpt>
      <trkpt lat="46.37705" lon="5.54713">
        <ele>403.4</ele>
        <time>2022-02-24T18:12:22Z</time>
      </trkpt>
      <trkpt lat="46.37704" lon="5.54718">
        <ele>403.6</ele>
        <time>2022-02-24T18:12:23Z</time>
      </trkpt>
      <trkpt lat="46.37703" lon="5.54724">
        <ele>403.6</ele>
        <time>2022-02-24T18:12:24Z</time>
      </trkpt>
      <trkpt lat="46.37702" lon="5.54729">
        <ele>403.6</ele>
        <time>2022-02-24T18:12:25Z</time>
      </trkpt>
      <trkpt lat="46.37701" lon="5.54734">
        <ele>403.6</ele>
        <time>2022-02-24T18:12:26Z</time>
      </trkpt>
      <trkpt lat="46.37699" lon="5.54739">
        <ele>403.8</ele>
        <time>2022-02-24T18:12:27Z</time>
      </trkpt>
      <trkpt lat="46.37698" lon="5.54745">
        <ele>403.8</ele>
        <time>2022-02-24T18:12:28Z</time>
      </trkpt>
      <trkpt lat="46.37697" lon="5.5475">
        <ele>403.8</ele>
        <time>2022-02-24T18:12:29Z</time>
      </trkpt>
      <trkpt lat="46.37696" lon="5.54755">
        <ele>404.2</ele>
        <time>2022-02-24T18:12:30Z</time>
      </trkpt>
      <trkpt lat="46.37695" lon="5.54761">
        <ele>404.2</ele>
        <time>2022-02-24T18:12:31Z</time>
      </trkpt>
      <trkpt lat="46.37694" lon="5.54766">
        <ele>404.4</ele>
        <time>2022-02-24T18:12:32Z</time>
      </trkpt>
      <trkpt lat="46.37693" lon="5.54772">
        <ele>404.4</ele>
        <time>2022-02-24T18:12:33Z</time>
      </trkpt>
      <trkpt lat="46.37692" lon="5.54777">
        <ele>404.4</ele>
        <time>2022-02-24T18:12:34Z</time>
      </trkpt>
      <trkpt lat="46.37691" lon="5.54783">
        <ele>404.6</ele>
        <time>2022-02-24T18:12:35Z</time>
      </trkpt>
      <trkpt lat="46.37691" lon="5.54788">
        <ele>404.6</ele>
        <time>2022-02-24T18:12:36Z</time>
      </trkpt>
      <trkpt lat="46.3769" lon="5.54794">
        <ele>404.6</ele>
        <time>2022-02-24T18:12:37Z</time>
      </trkpt>
      <trkpt lat="46.37689" lon="5.54799">
        <ele>404.8</ele>
        <time>2022-02-24T18:12:38Z</time>
      </trkpt>
      <trkpt lat="46.37688" lon="5.54804">
        <ele>404.8</ele>
        <time>2022-02-24T18:12:39Z</time>
      </trkpt>
      <trkpt lat="46.37687" lon="5.5481">
        <ele>405.2</ele>
        <time>2022-02-24T18:12:40Z</time>
      </trkpt>
      <trkpt lat="46.37686" lon="5.54815">
        <ele>405.2</ele>
        <time>2022-02-24T18:12:41Z</time>
      </trkpt>
      <trkpt lat="46.37686" lon="5.5482">
        <ele>405.4</ele>
        <time>2022-02-24T18:12:42Z</time>
      </trkpt>
      <trkpt lat="46.37685" lon="5.54826">
        <ele>405.4</ele>
        <time>2022-02-24T18:12:43Z</time>
      </trkpt>
      <trkpt lat="46.37684" lon="5.54831">
        <ele>405.8</ele>
        <time>2022-02-24T18:12:44Z</time>
      </trkpt>
      <trkpt lat="46.37684" lon="5.54836">
        <ele>405.8</ele>
        <time>2022-02-24T18:12:45Z</time>
      </trkpt>
      <trkpt lat="46.37683" lon="5.54841">
        <ele>406</ele>
        <time>2022-02-24T18:12:46Z</time>
      </trkpt>
      <trkpt lat="46.37682" lon="5.54846">
        <ele>406</ele>
        <time>2022-02-24T18:12:47Z</time>
      </trkpt>
      <trkpt lat="46.37682" lon="5.54852">
        <ele>406.4</ele>
        <time>2022-02-24T18:12:48Z</time>
      </trkpt>
      <trkpt lat="46.37681" lon="5.54857">
        <ele>406.4</ele>
        <time>2022-02-24T18:12:49Z</time>
      </trkpt>
      <trkpt lat="46.3768" lon="5.54862">
        <ele>406.4</ele>
        <time>2022-02-24T18:12:50Z</time>
      </trkpt>
      <trkpt lat="46.3768" lon="5.54868">
        <ele>406.6</ele>
        <time>2022-02-24T18:12:51Z</time>
      </trkpt>
      <trkpt lat="46.3768" lon="5.54873">
        <ele>406.6</ele>
        <time>2022-02-24T18:12:52Z</time>
      </trkpt>
      <trkpt lat="46.3768" lon="5.54879">
        <ele>407</ele>
        <time>2022-02-24T18:12:53Z</time>
      </trkpt>
      <trkpt lat="46.3768" lon="5.54884">
        <ele>407</ele>
        <time>2022-02-24T18:12:54Z</time>
      </trkpt>
      <trkpt lat="46.3768" lon="5.54889">
        <ele>407.2</ele>
        <time>2022-02-24T18:12:55Z</time>
      </trkpt>
      <trkpt lat="46.37679" lon="5.54894">
        <ele>407.2</ele>
        <time>2022-02-24T18:12:56Z</time>
      </trkpt>
      <trkpt lat="46.37679" lon="5.549">
        <ele>407.4</ele>
        <time>2022-02-24T18:12:57Z</time>
      </trkpt>
      <trkpt lat="46.37679" lon="5.54905">
        <ele>407.4</ele>
        <time>2022-02-24T18:12:58Z</time>
      </trkpt>
      <trkpt lat="46.37679" lon="5.5491">
        <ele>407.6</ele>
        <time>2022-02-24T18:12:59Z</time>
      </trkpt>
      <trkpt lat="46.37679" lon="5.54915">
        <ele>407.6</ele>
        <time>2022-02-24T18:13:00Z</time>
      </trkpt>
      <trkpt lat="46.3768" lon="5.5492">
        <ele>408</ele>
        <time>2022-02-24T18:13:01Z</time>
      </trkpt>
      <trkpt lat="46.3768" lon="5.54926">
        <ele>408</ele>
        <time>2022-02-24T18:13:02Z</time>
      </trkpt>
      <trkpt lat="46.37679" lon="5.54931">
        <ele>408.4</ele>
        <time>2022-02-24T18:13:03Z</time>
      </trkpt>
      <trkpt lat="46.37679" lon="5.54936">
        <ele>408.6</ele>
        <time>2022-02-24T18:13:04Z</time>
      </trkpt>
      <trkpt lat="46.3768" lon="5.54941">
        <ele>408.8</ele>
        <time>2022-02-24T18:13:05Z</time>
      </trkpt>
      <trkpt lat="46.3768" lon="5.54945">
        <ele>409</ele>
        <time>2022-02-24T18:13:06Z</time>
      </trkpt>
      <trkpt lat="46.3768" lon="5.5495">
        <ele>409</ele>
        <time>2022-02-24T18:13:07Z</time>
      </trkpt>
      <trkpt lat="46.3768" lon="5.54955">
        <ele>409.4</ele>
        <time>2022-02-24T18:13:08Z</time>
      </trkpt>
      <trkpt lat="46.37681" lon="5.54959">
        <ele>409.4</ele>
        <time>2022-02-24T18:13:09Z</time>
      </trkpt>
      <trkpt lat="46.37681" lon="5.54964">
        <ele>409.6</ele>
        <time>2022-02-24T18:13:10Z</time>
      </trkpt>
      <trkpt lat="46.37681" lon="5.54969">
        <ele>409.8</ele>
        <time>2022-02-24T18:13:11Z</time>
      </trkpt>
      <trkpt lat="46.37681" lon="5.54974">
        <ele>409.8</ele>
        <time>2022-02-24T18:13:12Z</time>
      </trkpt>
      <trkpt lat="46.37681" lon="5.54978">
        <ele>410</ele>
        <time>2022-02-24T18:13:13Z</time>
      </trkpt>
      <trkpt lat="46.37681" lon="5.54983">
        <ele>410</ele>
        <time>2022-02-24T18:13:14Z</time>
      </trkpt>
      <trkpt lat="46.37681" lon="5.54988">
        <ele>410.2</ele>
        <time>2022-02-24T18:13:15Z</time>
      </trkpt>
      <trkpt lat="46.37682" lon="5.54993">
        <ele>410.2</ele>
        <time>2022-02-24T18:13:16Z</time>
      </trkpt>
      <trkpt lat="46.37682" lon="5.54998">
        <ele>410.4</ele>
        <time>2022-02-24T18:13:17Z</time>
      </trkpt>
      <trkpt lat="46.37682" lon="5.55004">
        <ele>410.4</ele>
        <time>2022-02-24T18:13:18Z</time>
      </trkpt>
      <trkpt lat="46.37682" lon="5.55009">
        <ele>410.4</ele>
        <time>2022-02-24T18:13:19Z</time>
      </trkpt>
      <trkpt lat="46.37682" lon="5.55014">
        <ele>410.8</ele>
        <time>2022-02-24T18:13:20Z</time>
      </trkpt>
      <trkpt lat="46.37682" lon="5.5502">
        <ele>410.8</ele>
        <time>2022-02-24T18:13:21Z</time>
      </trkpt>
      <trkpt lat="46.37683" lon="5.55025">
        <ele>410.8</ele>
        <time>2022-02-24T18:13:22Z</time>
      </trkpt>
      <trkpt lat="46.37683" lon="5.55031">
        <ele>411</ele>
        <time>2022-02-24T18:13:23Z</time>
      </trkpt>
      <trkpt lat="46.37683" lon="5.55037">
        <ele>411</ele>
        <time>2022-02-24T18:13:24Z</time>
      </trkpt>
      <trkpt lat="46.37684" lon="5.55043">
        <ele>411</ele>
        <time>2022-02-24T18:13:25Z</time>
      </trkpt>
      <trkpt lat="46.37684" lon="5.55049">
        <ele>411.2</ele>
        <time>2022-02-24T18:13:26Z</time>
      </trkpt>
      <trkpt lat="46.37684" lon="5.55055">
        <ele>411.2</ele>
        <time>2022-02-24T18:13:27Z</time>
      </trkpt>
      <trkpt lat="46.37685" lon="5.55061">
        <ele>411.2</ele>
        <time>2022-02-24T18:13:28Z</time>
      </trkpt>
      <trkpt lat="46.37685" lon="5.55067">
        <ele>411.2</ele>
        <time>2022-02-24T18:13:29Z</time>
      </trkpt>
      <trkpt lat="46.37686" lon="5.55073">
        <ele>411.2</ele>
        <time>2022-02-24T18:13:30Z</time>
      </trkpt>
      <trkpt lat="46.37687" lon="5.55079">
        <ele>411.2</ele>
        <time>2022-02-24T18:13:31Z</time>
      </trkpt>
      <trkpt lat="46.37689" lon="5.55086">
        <ele>411.2</ele>
        <time>2022-02-24T18:13:32Z</time>
      </trkpt>
      <trkpt lat="46.37691" lon="5.55092">
        <ele>411.2</ele>
        <time>2022-02-24T18:13:33Z</time>
      </trkpt>
      <trkpt lat="46.37692" lon="5.55099">
        <ele>411</ele>
        <time>2022-02-24T18:13:34Z</time>
      </trkpt>
      <trkpt lat="46.37695" lon="5.55105">
        <ele>411</ele>
        <time>2022-02-24T18:13:35Z</time>
      </trkpt>
      <trkpt lat="46.37698" lon="5.55112">
        <ele>410.6</ele>
        <time>2022-02-24T18:13:36Z</time>
      </trkpt>
      <trkpt lat="46.37701" lon="5.55118">
        <ele>410.6</ele>
        <time>2022-02-24T18:13:37Z</time>
      </trkpt>
      <trkpt lat="46.37704" lon="5.55124">
        <ele>410.4</ele>
        <time>2022-02-24T18:13:38Z</time>
      </trkpt>
      <trkpt lat="46.37707" lon="5.55131">
        <ele>410.4</ele>
        <time>2022-02-24T18:13:39Z</time>
      </trkpt>
      <trkpt lat="46.37711" lon="5.55137">
        <ele>410.4</ele>
        <time>2022-02-24T18:13:40Z</time>
      </trkpt>
      <trkpt lat="46.37714" lon="5.55144">
        <ele>410.4</ele>
        <time>2022-02-24T18:13:41Z</time>
      </trkpt>
      <trkpt lat="46.37718" lon="5.55151">
        <ele>410.4</ele>
        <time>2022-02-24T18:13:42Z</time>
      </trkpt>
      <trkpt lat="46.37721" lon="5.55157">
        <ele>410.4</ele>
        <time>2022-02-24T18:13:43Z</time>
      </trkpt>
      <trkpt lat="46.37725" lon="5.55164">
        <ele>410.4</ele>
        <time>2022-02-24T18:13:44Z</time>
      </trkpt>
      <trkpt lat="46.37728" lon="5.55171">
        <ele>410.4</ele>
        <time>2022-02-24T18:13:45Z</time>
      </trkpt>
      <trkpt lat="46.37731" lon="5.55177">
        <ele>410.4</ele>
        <time>2022-02-24T18:13:46Z</time>
      </trkpt>
      <trkpt lat="46.37735" lon="5.55183">
        <ele>410.4</ele>
        <time>2022-02-24T18:13:47Z</time>
      </trkpt>
      <trkpt lat="46.37738" lon="5.55189">
        <ele>410.4</ele>
        <time>2022-02-24T18:13:48Z</time>
      </trkpt>
      <trkpt lat="46.37741" lon="5.55195">
        <ele>410.4</ele>
        <time>2022-02-24T18:13:49Z</time>
      </trkpt>
      <trkpt lat="46.37744" lon="5.55201">
        <ele>410.6</ele>
        <time>2022-02-24T18:13:50Z</time>
      </trkpt>
      <trkpt lat="46.37747" lon="5.55207">
        <ele>410.6</ele>
        <time>2022-02-24T18:13:51Z</time>
      </trkpt>
      <trkpt lat="46.3775" lon="5.55213">
        <ele>410.6</ele>
        <time>2022-02-24T18:13:52Z</time>
      </trkpt>
      <trkpt lat="46.37753" lon="5.55219">
        <ele>410.8</ele>
        <time>2022-02-24T18:13:53Z</time>
      </trkpt>
      <trkpt lat="46.37756" lon="5.55225">
        <ele>410.8</ele>
        <time>2022-02-24T18:13:54Z</time>
      </trkpt>
      <trkpt lat="46.37759" lon="5.55231">
        <ele>410.8</ele>
        <time>2022-02-24T18:13:55Z</time>
      </trkpt>
      <trkpt lat="46.37762" lon="5.55237">
        <ele>411.2</ele>
        <time>2022-02-24T18:13:56Z</time>
      </trkpt>
      <trkpt lat="46.37765" lon="5.55243">
        <ele>411.2</ele>
        <time>2022-02-24T18:13:57Z</time>
      </trkpt>
      <trkpt lat="46.37768" lon="5.55249">
        <ele>411.4</ele>
        <time>2022-02-24T18:13:58Z</time>
      </trkpt>
      <trkpt lat="46.37771" lon="5.55255">
        <ele>411.4</ele>
        <time>2022-02-24T18:13:59Z</time>
      </trkpt>
      <trkpt lat="46.37773" lon="5.55261">
        <ele>411.6</ele>
        <time>2022-02-24T18:14:00Z</time>
      </trkpt>
      <trkpt lat="46.37776" lon="5.55266">
        <ele>411.6</ele>
        <time>2022-02-24T18:14:01Z</time>
      </trkpt>
      <trkpt lat="46.37779" lon="5.55272">
        <ele>411.6</ele>
        <time>2022-02-24T18:14:02Z</time>
      </trkpt>
      <trkpt lat="46.37782" lon="5.55277">
        <ele>412</ele>
        <time>2022-02-24T18:14:03Z</time>
      </trkpt>
      <trkpt lat="46.37784" lon="5.55282">
        <ele>412</ele>
        <time>2022-02-24T18:14:04Z</time>
      </trkpt>
      <trkpt lat="46.37787" lon="5.55288">
        <ele>412</ele>
        <time>2022-02-24T18:14:05Z</time>
      </trkpt>
      <trkpt lat="46.3779" lon="5.55293">
        <ele>412</ele>
        <time>2022-02-24T18:14:06Z</time>
      </trkpt>
      <trkpt lat="46.37792" lon="5.55299">
        <ele>412.2</ele>
        <time>2022-02-24T18:14:07Z</time>
      </trkpt>
      <trkpt lat="46.37795" lon="5.55304">
        <ele>412.2</ele>
        <time>2022-02-24T18:14:08Z</time>
      </trkpt>
      <trkpt lat="46.37798" lon="5.5531">
        <ele>412.2</ele>
        <time>2022-02-24T18:14:09Z</time>
      </trkpt>
      <trkpt lat="46.37801" lon="5.55315">
        <ele>412.2</ele>
        <time>2022-02-24T18:14:10Z</time>
      </trkpt>
      <trkpt lat="46.37804" lon="5.55321">
        <ele>412.2</ele>
        <time>2022-02-24T18:14:11Z</time>
      </trkpt>
      <trkpt lat="46.37807" lon="5.55327">
        <ele>412.2</ele>
        <time>2022-02-24T18:14:12Z</time>
      </trkpt>
      <trkpt lat="46.37811" lon="5.55334">
        <ele>412.2</ele>
        <time>2022-02-24T18:14:13Z</time>
      </trkpt>
      <trkpt lat="46.37814" lon="5.5534">
        <ele>412.2</ele>
        <time>2022-02-24T18:14:14Z</time>
      </trkpt>
      <trkpt lat="46.37817" lon="5.55347">
        <ele>411.8</ele>
        <time>2022-02-24T18:14:15Z</time>
      </trkpt>
      <trkpt lat="46.3782" lon="5.55354">
        <ele>411.8</ele>
        <time>2022-02-24T18:14:16Z</time>
      </trkpt>
      <trkpt lat="46.37822" lon="5.55361">
        <ele>411.8</ele>
        <time>2022-02-24T18:14:17Z</time>
      </trkpt>
      <trkpt lat="46.37825" lon="5.55369">
        <ele>411.8</ele>
        <time>2022-02-24T18:14:18Z</time>
      </trkpt>
      <trkpt lat="46.37827" lon="5.55376">
        <ele>411.8</ele>
        <time>2022-02-24T18:14:19Z</time>
      </trkpt>
      <trkpt lat="46.37829" lon="5.55384">
        <ele>411.8</ele>
        <time>2022-02-24T18:14:20Z</time>
      </trkpt>
      <trkpt lat="46.37831" lon="5.55392">
        <ele>411.8</ele>
        <time>2022-02-24T18:14:21Z</time>
      </trkpt>
      <trkpt lat="46.37834" lon="5.554">
        <ele>411.8</ele>
        <time>2022-02-24T18:14:22Z</time>
      </trkpt>
      <trkpt lat="46.37836" lon="5.55408">
        <ele>411.8</ele>
        <time>2022-02-24T18:14:23Z</time>
      </trkpt>
      <trkpt lat="46.37838" lon="5.55416">
        <ele>411.8</ele>
        <time>2022-02-24T18:14:24Z</time>
      </trkpt>
      <trkpt lat="46.37839" lon="5.55424">
        <ele>411.8</ele>
        <time>2022-02-24T18:14:25Z</time>
      </trkpt>
      <trkpt lat="46.3784" lon="5.55432">
        <ele>412.2</ele>
        <time>2022-02-24T18:14:26Z</time>
      </trkpt>
      <trkpt lat="46.37841" lon="5.5544">
        <ele>412.2</ele>
        <time>2022-02-24T18:14:27Z</time>
      </trkpt>
      <trkpt lat="46.37842" lon="5.55448">
        <ele>412.2</ele>
        <time>2022-02-24T18:14:28Z</time>
      </trkpt>
      <trkpt lat="46.37843" lon="5.55456">
        <ele>412.2</ele>
        <time>2022-02-24T18:14:29Z</time>
      </trkpt>
      <trkpt lat="46.37844" lon="5.55463">
        <ele>412.2</ele>
        <time>2022-02-24T18:14:30Z</time>
      </trkpt>
      <trkpt lat="46.37844" lon="5.55471">
        <ele>412.4</ele>
        <time>2022-02-24T18:14:31Z</time>
      </trkpt>
      <trkpt lat="46.37845" lon="5.55477">
        <ele>412.4</ele>
        <time>2022-02-24T18:14:32Z</time>
      </trkpt>
      <trkpt lat="46.37845" lon="5.55484">
        <ele>412.8</ele>
        <time>2022-02-24T18:14:33Z</time>
      </trkpt>
      <trkpt lat="46.37844" lon="5.5549">
        <ele>412.8</ele>
        <time>2022-02-24T18:14:34Z</time>
      </trkpt>
      <trkpt lat="46.37844" lon="5.55496">
        <ele>413.2</ele>
        <time>2022-02-24T18:14:35Z</time>
      </trkpt>
      <trkpt lat="46.37843" lon="5.55501">
        <ele>413.2</ele>
        <time>2022-02-24T18:14:36Z</time>
      </trkpt>
      <trkpt lat="46.37843" lon="5.55507">
        <ele>413.4</ele>
        <time>2022-02-24T18:14:37Z</time>
      </trkpt>
      <trkpt lat="46.37842" lon="5.55512">
        <ele>413.6</ele>
        <time>2022-02-24T18:14:38Z</time>
      </trkpt>
      <trkpt lat="46.37842" lon="5.55517">
        <ele>413.6</ele>
        <time>2022-02-24T18:14:39Z</time>
      </trkpt>
      <trkpt lat="46.37841" lon="5.55522">
        <ele>413.8</ele>
        <time>2022-02-24T18:14:40Z</time>
      </trkpt>
      <trkpt lat="46.37841" lon="5.55527">
        <ele>413.8</ele>
        <time>2022-02-24T18:14:41Z</time>
      </trkpt>
      <trkpt lat="46.37841" lon="5.55531">
        <ele>414.2</ele>
        <time>2022-02-24T18:14:43Z</time>
      </trkpt>
      <trkpt lat="46.3784" lon="5.55536">
        <ele>414.4</ele>
        <time>2022-02-24T18:14:44Z</time>
      </trkpt>
      <trkpt lat="46.37839" lon="5.55541">
        <ele>414.6</ele>
        <time>2022-02-24T18:14:45Z</time>
      </trkpt>
      <trkpt lat="46.37838" lon="5.55545">
        <ele>415</ele>
        <time>2022-02-24T18:14:46Z</time>
      </trkpt>
      <trkpt lat="46.37837" lon="5.5555">
        <ele>415</ele>
        <time>2022-02-24T18:14:47Z</time>
      </trkpt>
      <trkpt lat="46.37836" lon="5.55555">
        <ele>415.2</ele>
        <time>2022-02-24T18:14:48Z</time>
      </trkpt>
      <trkpt lat="46.37836" lon="5.5556">
        <ele>415.2</ele>
        <time>2022-02-24T18:14:49Z</time>
      </trkpt>
      <trkpt lat="46.37835" lon="5.55564">
        <ele>415.6</ele>
        <time>2022-02-24T18:14:50Z</time>
      </trkpt>
      <trkpt lat="46.37835" lon="5.55569">
        <ele>415.6</ele>
        <time>2022-02-24T18:14:51Z</time>
      </trkpt>
      <trkpt lat="46.37834" lon="5.55574">
        <ele>416</ele>
        <time>2022-02-24T18:14:52Z</time>
      </trkpt>
      <trkpt lat="46.37833" lon="5.55579">
        <ele>416</ele>
        <time>2022-02-24T18:14:53Z</time>
      </trkpt>
      <trkpt lat="46.37832" lon="5.55583">
        <ele>416.4</ele>
        <time>2022-02-24T18:14:54Z</time>
      </trkpt>
      <trkpt lat="46.37831" lon="5.55587">
        <ele>416.4</ele>
        <time>2022-02-24T18:14:55Z</time>
      </trkpt>
      <trkpt lat="46.3783" lon="5.55592">
        <ele>416.6</ele>
        <time>2022-02-24T18:14:56Z</time>
      </trkpt>
      <trkpt lat="46.37829" lon="5.55596">
        <ele>416.6</ele>
        <time>2022-02-24T18:14:57Z</time>
      </trkpt>
      <trkpt lat="46.37828" lon="5.556">
        <ele>416.8</ele>
        <time>2022-02-24T18:14:58Z</time>
      </trkpt>
      <trkpt lat="46.37827" lon="5.55604">
        <ele>416.8</ele>
        <time>2022-02-24T18:14:59Z</time>
      </trkpt>
      <trkpt lat="46.37827" lon="5.55608">
        <ele>417.2</ele>
        <time>2022-02-24T18:15:00Z</time>
      </trkpt>
      <trkpt lat="46.37825" lon="5.55612">
        <ele>417.2</ele>
        <time>2022-02-24T18:15:01Z</time>
      </trkpt>
      <trkpt lat="46.37824" lon="5.55616">
        <ele>417.6</ele>
        <time>2022-02-24T18:15:02Z</time>
      </trkpt>
      <trkpt lat="46.37823" lon="5.5562">
        <ele>417.6</ele>
        <time>2022-02-24T18:15:03Z</time>
      </trkpt>
      <trkpt lat="46.37822" lon="5.55624">
        <ele>417.8</ele>
        <time>2022-02-24T18:15:04Z</time>
      </trkpt>
      <trkpt lat="46.37821" lon="5.55628">
        <ele>417.8</ele>
        <time>2022-02-24T18:15:05Z</time>
      </trkpt>
      <trkpt lat="46.37821" lon="5.55632">
        <ele>418.2</ele>
        <time>2022-02-24T18:15:06Z</time>
      </trkpt>
      <trkpt lat="46.3782" lon="5.55636">
        <ele>418.2</ele>
        <time>2022-02-24T18:15:07Z</time>
      </trkpt>
      <trkpt lat="46.37819" lon="5.55641">
        <ele>418.4</ele>
        <time>2022-02-24T18:15:08Z</time>
      </trkpt>
      <trkpt lat="46.37818" lon="5.55645">
        <ele>418.4</ele>
        <time>2022-02-24T18:15:09Z</time>
      </trkpt>
      <trkpt lat="46.37817" lon="5.55649">
        <ele>418.8</ele>
        <time>2022-02-24T18:15:10Z</time>
      </trkpt>
      <trkpt lat="46.37816" lon="5.55653">
        <ele>418.8</ele>
        <time>2022-02-24T18:15:11Z</time>
      </trkpt>
      <trkpt lat="46.37815" lon="5.55657">
        <ele>419</ele>
        <time>2022-02-24T18:15:12Z</time>
      </trkpt>
      <trkpt lat="46.37814" lon="5.55661">
        <ele>419</ele>
        <time>2022-02-24T18:15:13Z</time>
      </trkpt>
      <trkpt lat="46.37813" lon="5.55665">
        <ele>419.4</ele>
        <time>2022-02-24T18:15:14Z</time>
      </trkpt>
      <trkpt lat="46.37812" lon="5.5567">
        <ele>419.4</ele>
        <time>2022-02-24T18:15:15Z</time>
      </trkpt>
      <trkpt lat="46.37811" lon="5.55673">
        <ele>419.6</ele>
        <time>2022-02-24T18:15:16Z</time>
      </trkpt>
      <trkpt lat="46.3781" lon="5.55677">
        <ele>419.6</ele>
        <time>2022-02-24T18:15:17Z</time>
      </trkpt>
      <trkpt lat="46.37809" lon="5.55681">
        <ele>420</ele>
        <time>2022-02-24T18:15:18Z</time>
      </trkpt>
      <trkpt lat="46.37808" lon="5.55685">
        <ele>420.2</ele>
        <time>2022-02-24T18:15:19Z</time>
      </trkpt>
      <trkpt lat="46.37807" lon="5.55689">
        <ele>420.2</ele>
        <time>2022-02-24T18:15:20Z</time>
      </trkpt>
      <trkpt lat="46.37806" lon="5.55693">
        <ele>420.6</ele>
        <time>2022-02-24T18:15:21Z</time>
      </trkpt>
      <trkpt lat="46.37805" lon="5.55697">
        <ele>420.8</ele>
        <time>2022-02-24T18:15:22Z</time>
      </trkpt>
      <trkpt lat="46.37805" lon="5.557">
        <ele>420.8</ele>
        <time>2022-02-24T18:15:23Z</time>
      </trkpt>
      <trkpt lat="46.37805" lon="5.55704">
        <ele>421.2</ele>
        <time>2022-02-24T18:15:24Z</time>
      </trkpt>
      <trkpt lat="46.37804" lon="5.55708">
        <ele>421.2</ele>
        <time>2022-02-24T18:15:25Z</time>
      </trkpt>
      <trkpt lat="46.37803" lon="5.55712">
        <ele>421.4</ele>
        <time>2022-02-24T18:15:26Z</time>
      </trkpt>
      <trkpt lat="46.37803" lon="5.55716">
        <ele>421.4</ele>
        <time>2022-02-24T18:15:27Z</time>
      </trkpt>
      <trkpt lat="46.37802" lon="5.5572">
        <ele>421.6</ele>
        <time>2022-02-24T18:15:28Z</time>
      </trkpt>
      <trkpt lat="46.37801" lon="5.55724">
        <ele>421.6</ele>
        <time>2022-02-24T18:15:29Z</time>
      </trkpt>
      <trkpt lat="46.37801" lon="5.55728">
        <ele>421.6</ele>
        <time>2022-02-24T18:15:30Z</time>
      </trkpt>
      <trkpt lat="46.37801" lon="5.55733">
        <ele>421.6</ele>
        <time>2022-02-24T18:15:31Z</time>
      </trkpt>
      <trkpt lat="46.37801" lon="5.55737">
        <ele>421.6</ele>
        <time>2022-02-24T18:15:32Z</time>
      </trkpt>
      <trkpt lat="46.37802" lon="5.55742">
        <ele>421.8</ele>
        <time>2022-02-24T18:15:33Z</time>
      </trkpt>
      <trkpt lat="46.37802" lon="5.55747">
        <ele>421.8</ele>
        <time>2022-02-24T18:15:34Z</time>
      </trkpt>
      <trkpt lat="46.37803" lon="5.55753">
        <ele>421.8</ele>
        <time>2022-02-24T18:15:35Z</time>
      </trkpt>
      <trkpt lat="46.37804" lon="5.55758">
        <ele>421.8</ele>
        <time>2022-02-24T18:15:36Z</time>
      </trkpt>
      <trkpt lat="46.37805" lon="5.55764">
        <ele>421.8</ele>
        <time>2022-02-24T18:15:37Z</time>
      </trkpt>
      <trkpt lat="46.37806" lon="5.55769">
        <ele>421.8</ele>
        <time>2022-02-24T18:15:38Z</time>
      </trkpt>
      <trkpt lat="46.37807" lon="5.55775">
        <ele>422.2</ele>
        <time>2022-02-24T18:15:39Z</time>
      </trkpt>
      <trkpt lat="46.37809" lon="5.5578">
        <ele>422.2</ele>
        <time>2022-02-24T18:15:40Z</time>
      </trkpt>
      <trkpt lat="46.37811" lon="5.55785">
        <ele>422.2</ele>
        <time>2022-02-24T18:15:41Z</time>
      </trkpt>
      <trkpt lat="46.37813" lon="5.55791">
        <ele>422.2</ele>
        <time>2022-02-24T18:15:42Z</time>
      </trkpt>
      <trkpt lat="46.37814" lon="5.55796">
        <ele>422.2</ele>
        <time>2022-02-24T18:15:43Z</time>
      </trkpt>
      <trkpt lat="46.37816" lon="5.55802">
        <ele>422.2</ele>
        <time>2022-02-24T18:15:44Z</time>
      </trkpt>
      <trkpt lat="46.37818" lon="5.55808">
        <ele>422.2</ele>
        <time>2022-02-24T18:15:45Z</time>
      </trkpt>
      <trkpt lat="46.3782" lon="5.55813">
        <ele>422.2</ele>
        <time>2022-02-24T18:15:46Z</time>
      </trkpt>
      <trkpt lat="46.37822" lon="5.55819">
        <ele>422.2</ele>
        <time>2022-02-24T18:15:47Z</time>
      </trkpt>
      <trkpt lat="46.37824" lon="5.55824">
        <ele>422.2</ele>
        <time>2022-02-24T18:15:48Z</time>
      </trkpt>
      <trkpt lat="46.37827" lon="5.5583">
        <ele>422.4</ele>
        <time>2022-02-24T18:15:49Z</time>
      </trkpt>
      <trkpt lat="46.37829" lon="5.55835">
        <ele>422.4</ele>
        <time>2022-02-24T18:15:50Z</time>
      </trkpt>
      <trkpt lat="46.37831" lon="5.5584">
        <ele>422.6</ele>
        <time>2022-02-24T18:15:51Z</time>
      </trkpt>
      <trkpt lat="46.37833" lon="5.55845">
        <ele>422.6</ele>
        <time>2022-02-24T18:15:52Z</time>
      </trkpt>
      <trkpt lat="46.37835" lon="5.5585">
        <ele>422.6</ele>
        <time>2022-02-24T18:15:53Z</time>
      </trkpt>
      <trkpt lat="46.37837" lon="5.55855">
        <ele>422.6</ele>
        <time>2022-02-24T18:15:54Z</time>
      </trkpt>
      <trkpt lat="46.37838" lon="5.5586">
        <ele>422.8</ele>
        <time>2022-02-24T18:15:55Z</time>
      </trkpt>
      <trkpt lat="46.3784" lon="5.55864">
        <ele>422.8</ele>
        <time>2022-02-24T18:15:56Z</time>
      </trkpt>
      <trkpt lat="46.37842" lon="5.55869">
        <ele>423</ele>
        <time>2022-02-24T18:15:57Z</time>
      </trkpt>
      <trkpt lat="46.37843" lon="5.55874">
        <ele>423</ele>
        <time>2022-02-24T18:15:58Z</time>
      </trkpt>
      <trkpt lat="46.37844" lon="5.55879">
        <ele>423.4</ele>
        <time>2022-02-24T18:15:59Z</time>
      </trkpt>
      <trkpt lat="46.37845" lon="5.55884">
        <ele>423.4</ele>
        <time>2022-02-24T18:16:00Z</time>
      </trkpt>
      <trkpt lat="46.37846" lon="5.55889">
        <ele>423.6</ele>
        <time>2022-02-24T18:16:01Z</time>
      </trkpt>
      <trkpt lat="46.37846" lon="5.55894">
        <ele>423.6</ele>
        <time>2022-02-24T18:16:02Z</time>
      </trkpt>
      <trkpt lat="46.37846" lon="5.55899">
        <ele>424</ele>
        <time>2022-02-24T18:16:03Z</time>
      </trkpt>
      <trkpt lat="46.37846" lon="5.55904">
        <ele>424</ele>
        <time>2022-02-24T18:16:04Z</time>
      </trkpt>
      <trkpt lat="46.37846" lon="5.55909">
        <ele>424.2</ele>
        <time>2022-02-24T18:16:05Z</time>
      </trkpt>
      <trkpt lat="46.37846" lon="5.55914">
        <ele>424.2</ele>
        <time>2022-02-24T18:16:06Z</time>
      </trkpt>
      <trkpt lat="46.37845" lon="5.55919">
        <ele>424.6</ele>
        <time>2022-02-24T18:16:07Z</time>
      </trkpt>
      <trkpt lat="46.37844" lon="5.55924">
        <ele>424.6</ele>
        <time>2022-02-24T18:16:08Z</time>
      </trkpt>
      <trkpt lat="46.37844" lon="5.55929">
        <ele>425</ele>
        <time>2022-02-24T18:16:09Z</time>
      </trkpt>
      <trkpt lat="46.37843" lon="5.55933">
        <ele>425</ele>
        <time>2022-02-24T18:16:10Z</time>
      </trkpt>
      <trkpt lat="46.37842" lon="5.55938">
        <ele>425.4</ele>
        <time>2022-02-24T18:16:11Z</time>
      </trkpt>
      <trkpt lat="46.37841" lon="5.55942">
        <ele>425.4</ele>
        <time>2022-02-24T18:16:12Z</time>
      </trkpt>
      <trkpt lat="46.3784" lon="5.55947">
        <ele>425.6</ele>
        <time>2022-02-24T18:16:13Z</time>
      </trkpt>
      <trkpt lat="46.37839" lon="5.55951">
        <ele>425.6</ele>
        <time>2022-02-24T18:16:14Z</time>
      </trkpt>
      <trkpt lat="46.37838" lon="5.55955">
        <ele>426</ele>
        <time>2022-02-24T18:16:15Z</time>
      </trkpt>
      <trkpt lat="46.37837" lon="5.5596">
        <ele>426</ele>
        <time>2022-02-24T18:16:16Z</time>
      </trkpt>
      <trkpt lat="46.37836" lon="5.55964">
        <ele>426.4</ele>
        <time>2022-02-24T18:16:17Z</time>
      </trkpt>
      <trkpt lat="46.37835" lon="5.55968">
        <ele>426.4</ele>
        <time>2022-02-24T18:16:18Z</time>
      </trkpt>
      <trkpt lat="46.37834" lon="5.55972">
        <ele>426.6</ele>
        <time>2022-02-24T18:16:19Z</time>
      </trkpt>
      <trkpt lat="46.37833" lon="5.55976">
        <ele>426.6</ele>
        <time>2022-02-24T18:16:20Z</time>
      </trkpt>
      <trkpt lat="46.37832" lon="5.5598">
        <ele>426.8</ele>
        <time>2022-02-24T18:16:21Z</time>
      </trkpt>
      <trkpt lat="46.37832" lon="5.55984">
        <ele>426.8</ele>
        <time>2022-02-24T18:16:22Z</time>
      </trkpt>
      <trkpt lat="46.37831" lon="5.55988">
        <ele>427.2</ele>
        <time>2022-02-24T18:16:23Z</time>
      </trkpt>
      <trkpt lat="46.37831" lon="5.55992">
        <ele>427.2</ele>
        <time>2022-02-24T18:16:24Z</time>
      </trkpt>
      <trkpt lat="46.3783" lon="5.55996">
        <ele>427.4</ele>
        <time>2022-02-24T18:16:25Z</time>
      </trkpt>
      <trkpt lat="46.37829" lon="5.56">
        <ele>427.4</ele>
        <time>2022-02-24T18:16:26Z</time>
      </trkpt>
      <trkpt lat="46.37828" lon="5.56004">
        <ele>427.4</ele>
        <time>2022-02-24T18:16:27Z</time>
      </trkpt>
      <trkpt lat="46.37827" lon="5.56008">
        <ele>427.4</ele>
        <time>2022-02-24T18:16:28Z</time>
      </trkpt>
      <trkpt lat="46.37827" lon="5.56013">
        <ele>427.6</ele>
        <time>2022-02-24T18:16:29Z</time>
      </trkpt>
      <trkpt lat="46.37827" lon="5.56017">
        <ele>427.6</ele>
        <time>2022-02-24T18:16:30Z</time>
      </trkpt>
      <trkpt lat="46.37827" lon="5.56022">
        <ele>427.8</ele>
        <time>2022-02-24T18:16:31Z</time>
      </trkpt>
      <trkpt lat="46.37827" lon="5.56026">
        <ele>427.8</ele>
        <time>2022-02-24T18:16:32Z</time>
      </trkpt>
      <trkpt lat="46.37827" lon="5.56031">
        <ele>428.2</ele>
        <time>2022-02-24T18:16:33Z</time>
      </trkpt>
      <trkpt lat="46.37827" lon="5.56037">
        <ele>428.2</ele>
        <time>2022-02-24T18:16:34Z</time>
      </trkpt>
      <trkpt lat="46.37827" lon="5.56042">
        <ele>428.2</ele>
        <time>2022-02-24T18:16:35Z</time>
      </trkpt>
      <trkpt lat="46.37828" lon="5.56046">
        <ele>428.2</ele>
        <time>2022-02-24T18:16:36Z</time>
      </trkpt>
      <trkpt lat="46.37829" lon="5.56051">
        <ele>428.2</ele>
        <time>2022-02-24T18:16:37Z</time>
      </trkpt>
      <trkpt lat="46.37831" lon="5.56056">
        <ele>428.4</ele>
        <time>2022-02-24T18:16:38Z</time>
      </trkpt>
      <trkpt lat="46.37832" lon="5.56061">
        <ele>428.4</ele>
        <time>2022-02-24T18:16:39Z</time>
      </trkpt>
      <trkpt lat="46.37834" lon="5.56065">
        <ele>428.4</ele>
        <time>2022-02-24T18:16:40Z</time>
      </trkpt>
      <trkpt lat="46.37836" lon="5.5607">
        <ele>428.4</ele>
        <time>2022-02-24T18:16:41Z</time>
      </trkpt>
      <trkpt lat="46.37838" lon="5.56074">
        <ele>428.6</ele>
        <time>2022-02-24T18:16:42Z</time>
      </trkpt>
      <trkpt lat="46.3784" lon="5.56079">
        <ele>428.6</ele>
        <time>2022-02-24T18:16:43Z</time>
      </trkpt>
      <trkpt lat="46.37843" lon="5.56083">
        <ele>428.6</ele>
        <time>2022-02-24T18:16:44Z</time>
      </trkpt>
      <trkpt lat="46.37845" lon="5.56087">
        <ele>428.6</ele>
        <time>2022-02-24T18:16:45Z</time>
      </trkpt>
      <trkpt lat="46.37847" lon="5.56091">
        <ele>428.6</ele>
        <time>2022-02-24T18:16:46Z</time>
      </trkpt>
      <trkpt lat="46.3785" lon="5.56095">
        <ele>428.6</ele>
        <time>2022-02-24T18:16:47Z</time>
      </trkpt>
      <trkpt lat="46.37852" lon="5.561">
        <ele>428.6</ele>
        <time>2022-02-24T18:16:48Z</time>
      </trkpt>
      <trkpt lat="46.37854" lon="5.56104">
        <ele>428.6</ele>
        <time>2022-02-24T18:16:49Z</time>
      </trkpt>
      <trkpt lat="46.37857" lon="5.56108">
        <ele>428.6</ele>
        <time>2022-02-24T18:16:50Z</time>
      </trkpt>
      <trkpt lat="46.37859" lon="5.56112">
        <ele>428.6</ele>
        <time>2022-02-24T18:16:51Z</time>
      </trkpt>
      <trkpt lat="46.37862" lon="5.56117">
        <ele>428.6</ele>
        <time>2022-02-24T18:16:52Z</time>
      </trkpt>
      <trkpt lat="46.37864" lon="5.56121">
        <ele>429</ele>
        <time>2022-02-24T18:16:53Z</time>
      </trkpt>
      <trkpt lat="46.37866" lon="5.56125">
        <ele>429</ele>
        <time>2022-02-24T18:16:54Z</time>
      </trkpt>
      <trkpt lat="46.37869" lon="5.56129">
        <ele>429</ele>
        <time>2022-02-24T18:16:55Z</time>
      </trkpt>
      <trkpt lat="46.37871" lon="5.56134">
        <ele>429.2</ele>
        <time>2022-02-24T18:16:56Z</time>
      </trkpt>
      <trkpt lat="46.37873" lon="5.56138">
        <ele>429.2</ele>
        <time>2022-02-24T18:16:57Z</time>
      </trkpt>
      <trkpt lat="46.37875" lon="5.56142">
        <ele>429.4</ele>
        <time>2022-02-24T18:16:58Z</time>
      </trkpt>
      <trkpt lat="46.37878" lon="5.56146">
        <ele>429.4</ele>
        <time>2022-02-24T18:16:59Z</time>
      </trkpt>
      <trkpt lat="46.3788" lon="5.56149">
        <ele>429.6</ele>
        <time>2022-02-24T18:17:00Z</time>
      </trkpt>
      <trkpt lat="46.37882" lon="5.56153">
        <ele>429.6</ele>
        <time>2022-02-24T18:17:01Z</time>
      </trkpt>
      <trkpt lat="46.37884" lon="5.56157">
        <ele>430</ele>
        <time>2022-02-24T18:17:02Z</time>
      </trkpt>
      <trkpt lat="46.37886" lon="5.56161">
        <ele>430</ele>
        <time>2022-02-24T18:17:03Z</time>
      </trkpt>
      <trkpt lat="46.37888" lon="5.56164">
        <ele>430.4</ele>
        <time>2022-02-24T18:17:04Z</time>
      </trkpt>
      <trkpt lat="46.37889" lon="5.56168">
        <ele>430.4</ele>
        <time>2022-02-24T18:17:05Z</time>
      </trkpt>
      <trkpt lat="46.37891" lon="5.56171">
        <ele>430.8</ele>
        <time>2022-02-24T18:17:06Z</time>
      </trkpt>
      <trkpt lat="46.37893" lon="5.56174">
        <ele>430.8</ele>
        <time>2022-02-24T18:17:07Z</time>
      </trkpt>
      <trkpt lat="46.37895" lon="5.56177">
        <ele>431</ele>
        <time>2022-02-24T18:17:08Z</time>
      </trkpt>
      <trkpt lat="46.37896" lon="5.56179">
        <ele>431</ele>
        <time>2022-02-24T18:17:09Z</time>
      </trkpt>
      <trkpt lat="46.37898" lon="5.56182">
        <ele>431.4</ele>
        <time>2022-02-24T18:17:10Z</time>
      </trkpt>
      <trkpt lat="46.37899" lon="5.56185">
        <ele>431.8</ele>
        <time>2022-02-24T18:17:11Z</time>
      </trkpt>
      <trkpt lat="46.379" lon="5.56189">
        <ele>431.8</ele>
        <time>2022-02-24T18:17:12Z</time>
      </trkpt>
      <trkpt lat="46.37901" lon="5.56192">
        <ele>432.2</ele>
        <time>2022-02-24T18:17:13Z</time>
      </trkpt>
      <trkpt lat="46.37903" lon="5.56195">
        <ele>432.4</ele>
        <time>2022-02-24T18:17:14Z</time>
      </trkpt>
      <trkpt lat="46.37904" lon="5.56198">
        <ele>432.6</ele>
        <time>2022-02-24T18:17:15Z</time>
      </trkpt>
      <trkpt lat="46.37906" lon="5.56201">
        <ele>432.8</ele>
        <time>2022-02-24T18:17:16Z</time>
      </trkpt>
      <trkpt lat="46.37908" lon="5.56204">
        <ele>433.2</ele>
        <time>2022-02-24T18:17:17Z</time>
      </trkpt>
      <trkpt lat="46.37909" lon="5.56208">
        <ele>433.4</ele>
        <time>2022-02-24T18:17:18Z</time>
      </trkpt>
      <trkpt lat="46.3791" lon="5.56211">
        <ele>433.6</ele>
        <time>2022-02-24T18:17:19Z</time>
      </trkpt>
      <trkpt lat="46.37912" lon="5.56214">
        <ele>434</ele>
        <time>2022-02-24T18:17:20Z</time>
      </trkpt>
      <trkpt lat="46.37914" lon="5.56216">
        <ele>434.2</ele>
        <time>2022-02-24T18:17:21Z</time>
      </trkpt>
      <trkpt lat="46.37916" lon="5.56219">
        <ele>434.4</ele>
        <time>2022-02-24T18:17:22Z</time>
      </trkpt>
      <trkpt lat="46.37917" lon="5.56222">
        <ele>434.8</ele>
        <time>2022-02-24T18:17:23Z</time>
      </trkpt>
      <trkpt lat="46.37918" lon="5.56225">
        <ele>434.8</ele>
        <time>2022-02-24T18:17:24Z</time>
      </trkpt>
      <trkpt lat="46.37919" lon="5.56228">
        <ele>435.2</ele>
        <time>2022-02-24T18:17:25Z</time>
      </trkpt>
      <trkpt lat="46.3792" lon="5.56231">
        <ele>435.4</ele>
        <time>2022-02-24T18:17:26Z</time>
      </trkpt>
      <trkpt lat="46.3792" lon="5.56235">
        <ele>435.4</ele>
        <time>2022-02-24T18:17:27Z</time>
      </trkpt>
      <trkpt lat="46.37921" lon="5.56238">
        <ele>436</ele>
        <time>2022-02-24T18:17:28Z</time>
      </trkpt>
      <trkpt lat="46.37922" lon="5.56242">
        <ele>436.2</ele>
        <time>2022-02-24T18:17:29Z</time>
      </trkpt>
      <trkpt lat="46.37922" lon="5.56245">
        <ele>436.4</ele>
        <time>2022-02-24T18:17:30Z</time>
      </trkpt>
      <trkpt lat="46.37922" lon="5.56249">
        <ele>436.4</ele>
        <time>2022-02-24T18:17:31Z</time>
      </trkpt>
      <trkpt lat="46.37921" lon="5.56252">
        <ele>436.8</ele>
        <time>2022-02-24T18:17:32Z</time>
      </trkpt>
      <trkpt lat="46.37921" lon="5.56255">
        <ele>437</ele>
        <time>2022-02-24T18:17:33Z</time>
      </trkpt>
      <trkpt lat="46.37921" lon="5.56259">
        <ele>437</ele>
        <time>2022-02-24T18:17:34Z</time>
      </trkpt>
      <trkpt lat="46.37921" lon="5.56262">
        <ele>437.4</ele>
        <time>2022-02-24T18:17:35Z</time>
      </trkpt>
      <trkpt lat="46.3792" lon="5.56266">
        <ele>437.4</ele>
        <time>2022-02-24T18:17:36Z</time>
      </trkpt>
      <trkpt lat="46.3792" lon="5.56269">
        <ele>438</ele>
        <time>2022-02-24T18:17:37Z</time>
      </trkpt>
      <trkpt lat="46.37919" lon="5.56273">
        <ele>438.2</ele>
        <time>2022-02-24T18:17:38Z</time>
      </trkpt>
      <trkpt lat="46.37919" lon="5.56276">
        <ele>438.6</ele>
        <time>2022-02-24T18:17:39Z</time>
      </trkpt>
      <trkpt lat="46.37918" lon="5.56279">
        <ele>438.8</ele>
        <time>2022-02-24T18:17:40Z</time>
      </trkpt>
      <trkpt lat="46.37917" lon="5.56283">
        <ele>439</ele>
        <time>2022-02-24T18:17:41Z</time>
      </trkpt>
      <trkpt lat="46.37917" lon="5.56286">
        <ele>439.2</ele>
        <time>2022-02-24T18:17:42Z</time>
      </trkpt>
      <trkpt lat="46.37916" lon="5.5629">
        <ele>439.4</ele>
        <time>2022-02-24T18:17:43Z</time>
      </trkpt>
      <trkpt lat="46.37915" lon="5.56293">
        <ele>439.6</ele>
        <time>2022-02-24T18:17:44Z</time>
      </trkpt>
      <trkpt lat="46.37914" lon="5.56296">
        <ele>439.8</ele>
        <time>2022-02-24T18:17:45Z</time>
      </trkpt>
      <trkpt lat="46.37913" lon="5.563">
        <ele>439.8</ele>
        <time>2022-02-24T18:17:46Z</time>
      </trkpt>
      <trkpt lat="46.37911" lon="5.56303">
        <ele>440.2</ele>
        <time>2022-02-24T18:17:47Z</time>
      </trkpt>
      <trkpt lat="46.37911" lon="5.56306">
        <ele>440.2</ele>
        <time>2022-02-24T18:17:48Z</time>
      </trkpt>
      <trkpt lat="46.3791" lon="5.56309">
        <ele>440.4</ele>
        <time>2022-02-24T18:17:49Z</time>
      </trkpt>
      <trkpt lat="46.37909" lon="5.56313">
        <ele>440.4</ele>
        <time>2022-02-24T18:17:50Z</time>
      </trkpt>
      <trkpt lat="46.37908" lon="5.56316">
        <ele>440.4</ele>
        <time>2022-02-24T18:17:51Z</time>
      </trkpt>
      <trkpt lat="46.37906" lon="5.56319">
        <ele>440.6</ele>
        <time>2022-02-24T18:17:52Z</time>
      </trkpt>
      <trkpt lat="46.37905" lon="5.56322">
        <ele>440.6</ele>
        <time>2022-02-24T18:17:53Z</time>
      </trkpt>
      <trkpt lat="46.37904" lon="5.56325">
        <ele>441</ele>
        <time>2022-02-24T18:17:54Z</time>
      </trkpt>
      <trkpt lat="46.37903" lon="5.56328">
        <ele>441</ele>
        <time>2022-02-24T18:17:55Z</time>
      </trkpt>
      <trkpt lat="46.37902" lon="5.56331">
        <ele>441</ele>
        <time>2022-02-24T18:17:56Z</time>
      </trkpt>
      <trkpt lat="46.37901" lon="5.56334">
        <ele>441.4</ele>
        <time>2022-02-24T18:17:57Z</time>
      </trkpt>
      <trkpt lat="46.379" lon="5.56336">
        <ele>441.4</ele>
        <time>2022-02-24T18:17:58Z</time>
      </trkpt>
      <trkpt lat="46.37899" lon="5.56338">
        <ele>441.4</ele>
        <time>2022-02-24T18:17:59Z</time>
      </trkpt>
      <trkpt lat="46.37897" lon="5.5634">
        <ele>441.4</ele>
        <time>2022-02-24T18:18:00Z</time>
      </trkpt>
      <trkpt lat="46.37897" lon="5.56343">
        <ele>441.6</ele>
        <time>2022-02-24T18:18:01Z</time>
      </trkpt>
      <trkpt lat="46.37897" lon="5.56344">
        <ele>441.6</ele>
        <time>2022-02-24T18:18:02Z</time>
      </trkpt>
      <trkpt lat="46.37901" lon="5.56353">
        <ele>441.8</ele>
        <time>2022-02-24T18:18:12Z</time>
      </trkpt>
      <trkpt lat="46.37903" lon="5.56354">
        <ele>442</ele>
        <time>2022-02-24T18:18:13Z</time>
      </trkpt>
      <trkpt lat="46.37905" lon="5.56355">
        <ele>442</ele>
        <time>2022-02-24T18:18:14Z</time>
      </trkpt>
      <trkpt lat="46.37907" lon="5.56356">
        <ele>442</ele>
        <time>2022-02-24T18:18:15Z</time>
      </trkpt>
      <trkpt lat="46.3791" lon="5.56357">
        <ele>442</ele>
        <time>2022-02-24T18:18:16Z</time>
      </trkpt>
      <trkpt lat="46.37913" lon="5.56358">
        <ele>442</ele>
        <time>2022-02-24T18:18:17Z</time>
      </trkpt>
      <trkpt lat="46.37916" lon="5.56359">
        <ele>442</ele>
        <time>2022-02-24T18:18:18Z</time>
      </trkpt>
      <trkpt lat="46.3792" lon="5.56361">
        <ele>442</ele>
        <time>2022-02-24T18:18:19Z</time>
      </trkpt>
      <trkpt lat="46.37923" lon="5.56362">
        <ele>442</ele>
        <time>2022-02-24T18:18:20Z</time>
      </trkpt>
      <trkpt lat="46.37927" lon="5.56364">
        <ele>442</ele>
        <time>2022-02-24T18:18:21Z</time>
      </trkpt>
      <trkpt lat="46.3793" lon="5.56365">
        <ele>442</ele>
        <time>2022-02-24T18:18:22Z</time>
      </trkpt>
      <trkpt lat="46.37934" lon="5.56367">
        <ele>442</ele>
        <time>2022-02-24T18:18:23Z</time>
      </trkpt>
      <trkpt lat="46.37938" lon="5.56368">
        <ele>442</ele>
        <time>2022-02-24T18:18:24Z</time>
      </trkpt>
      <trkpt lat="46.37942" lon="5.56369">
        <ele>442</ele>
        <time>2022-02-24T18:18:25Z</time>
      </trkpt>
      <trkpt lat="46.37946" lon="5.56371">
        <ele>442</ele>
        <time>2022-02-24T18:18:26Z</time>
      </trkpt>
      <trkpt lat="46.3795" lon="5.56373">
        <ele>442</ele>
        <time>2022-02-24T18:18:27Z</time>
      </trkpt>
      <trkpt lat="46.37955" lon="5.56374">
        <ele>442</ele>
        <time>2022-02-24T18:18:28Z</time>
      </trkpt>
      <trkpt lat="46.37959" lon="5.56376">
        <ele>442</ele>
        <time>2022-02-24T18:18:29Z</time>
      </trkpt>
      <trkpt lat="46.37964" lon="5.56378">
        <ele>442</ele>
        <time>2022-02-24T18:18:30Z</time>
      </trkpt>
      <trkpt lat="46.37969" lon="5.5638">
        <ele>442</ele>
        <time>2022-02-24T18:18:31Z</time>
      </trkpt>
      <trkpt lat="46.37975" lon="5.56383">
        <ele>442</ele>
        <time>2022-02-24T18:18:32Z</time>
      </trkpt>
      <trkpt lat="46.3798" lon="5.56385">
        <ele>441.8</ele>
        <time>2022-02-24T18:18:33Z</time>
      </trkpt>
      <trkpt lat="46.37985" lon="5.56387">
        <ele>441.8</ele>
        <time>2022-02-24T18:18:34Z</time>
      </trkpt>
      <trkpt lat="46.3799" lon="5.5639">
        <ele>441.8</ele>
        <time>2022-02-24T18:18:35Z</time>
      </trkpt>
      <trkpt lat="46.37995" lon="5.56393">
        <ele>441.8</ele>
        <time>2022-02-24T18:18:36Z</time>
      </trkpt>
      <trkpt lat="46.38" lon="5.56395">
        <ele>441.8</ele>
        <time>2022-02-24T18:18:37Z</time>
      </trkpt>
      <trkpt lat="46.38005" lon="5.56398">
        <ele>441.6</ele>
        <time>2022-02-24T18:18:38Z</time>
      </trkpt>
      <trkpt lat="46.38009" lon="5.564">
        <ele>441.6</ele>
        <time>2022-02-24T18:18:39Z</time>
      </trkpt>
      <trkpt lat="46.38014" lon="5.56403">
        <ele>441.6</ele>
        <time>2022-02-24T18:18:40Z</time>
      </trkpt>
      <trkpt lat="46.38019" lon="5.56404">
        <ele>441.6</ele>
        <time>2022-02-24T18:18:41Z</time>
      </trkpt>
      <trkpt lat="46.38024" lon="5.56406">
        <ele>441.6</ele>
        <time>2022-02-24T18:18:42Z</time>
      </trkpt>
      <trkpt lat="46.38029" lon="5.56407">
        <ele>441.6</ele>
        <time>2022-02-24T18:18:43Z</time>
      </trkpt>
      <trkpt lat="46.38033" lon="5.56409">
        <ele>441.6</ele>
        <time>2022-02-24T18:18:44Z</time>
      </trkpt>
      <trkpt lat="46.38038" lon="5.5641">
        <ele>441.6</ele>
        <time>2022-02-24T18:18:45Z</time>
      </trkpt>
      <trkpt lat="46.38043" lon="5.56412">
        <ele>441.6</ele>
        <time>2022-02-24T18:18:46Z</time>
      </trkpt>
      <trkpt lat="46.38048" lon="5.56413">
        <ele>441.6</ele>
        <time>2022-02-24T18:18:47Z</time>
      </trkpt>
      <trkpt lat="46.38054" lon="5.56415">
        <ele>441.6</ele>
        <time>2022-02-24T18:18:48Z</time>
      </trkpt>
      <trkpt lat="46.38059" lon="5.56416">
        <ele>441.6</ele>
        <time>2022-02-24T18:18:49Z</time>
      </trkpt>
      <trkpt lat="46.38064" lon="5.56418">
        <ele>441.6</ele>
        <time>2022-02-24T18:18:50Z</time>
      </trkpt>
      <trkpt lat="46.3807" lon="5.5642">
        <ele>441.6</ele>
        <time>2022-02-24T18:18:51Z</time>
      </trkpt>
      <trkpt lat="46.38075" lon="5.56422">
        <ele>441.6</ele>
        <time>2022-02-24T18:18:52Z</time>
      </trkpt>
      <trkpt lat="46.38081" lon="5.56424">
        <ele>441.6</ele>
        <time>2022-02-24T18:18:53Z</time>
      </trkpt>
      <trkpt lat="46.38087" lon="5.56426">
        <ele>441.2</ele>
        <time>2022-02-24T18:18:54Z</time>
      </trkpt>
      <trkpt lat="46.38093" lon="5.56428">
        <ele>441.2</ele>
        <time>2022-02-24T18:18:55Z</time>
      </trkpt>
      <trkpt lat="46.38098" lon="5.5643">
        <ele>441.2</ele>
        <time>2022-02-24T18:18:56Z</time>
      </trkpt>
      <trkpt lat="46.38104" lon="5.56432">
        <ele>441.2</ele>
        <time>2022-02-24T18:18:57Z</time>
      </trkpt>
      <trkpt lat="46.3811" lon="5.56434">
        <ele>441.2</ele>
        <time>2022-02-24T18:18:58Z</time>
      </trkpt>
      <trkpt lat="46.38116" lon="5.56436">
        <ele>441.2</ele>
        <time>2022-02-24T18:18:59Z</time>
      </trkpt>
      <trkpt lat="46.38122" lon="5.56438">
        <ele>441.2</ele>
        <time>2022-02-24T18:19:00Z</time>
      </trkpt>
      <trkpt lat="46.38128" lon="5.5644">
        <ele>441.2</ele>
        <time>2022-02-24T18:19:01Z</time>
      </trkpt>
      <trkpt lat="46.38134" lon="5.56442">
        <ele>441.2</ele>
        <time>2022-02-24T18:19:02Z</time>
      </trkpt>
      <trkpt lat="46.38141" lon="5.56443">
        <ele>441</ele>
        <time>2022-02-24T18:19:03Z</time>
      </trkpt>
      <trkpt lat="46.38147" lon="5.56444">
        <ele>441</ele>
        <time>2022-02-24T18:19:04Z</time>
      </trkpt>
      <trkpt lat="46.38154" lon="5.56445">
        <ele>441</ele>
        <time>2022-02-24T18:19:05Z</time>
      </trkpt>
      <trkpt lat="46.3816" lon="5.56445">
        <ele>440.8</ele>
        <time>2022-02-24T18:19:06Z</time>
      </trkpt>
      <trkpt lat="46.38167" lon="5.56446">
        <ele>440.8</ele>
        <time>2022-02-24T18:19:07Z</time>
      </trkpt>
      <trkpt lat="46.38174" lon="5.56446">
        <ele>440.6</ele>
        <time>2022-02-24T18:19:08Z</time>
      </trkpt>
      <trkpt lat="46.38182" lon="5.56446">
        <ele>440.6</ele>
        <time>2022-02-24T18:19:09Z</time>
      </trkpt>
      <trkpt lat="46.38189" lon="5.56447">
        <ele>440.2</ele>
        <time>2022-02-24T18:19:10Z</time>
      </trkpt>
      <trkpt lat="46.38196" lon="5.56447">
        <ele>439.8</ele>
        <time>2022-02-24T18:19:11Z</time>
      </trkpt>
      <trkpt lat="46.38204" lon="5.56447">
        <ele>439.6</ele>
        <time>2022-02-24T18:19:12Z</time>
      </trkpt>
      <trkpt lat="46.38212" lon="5.56447">
        <ele>439.4</ele>
        <time>2022-02-24T18:19:13Z</time>
      </trkpt>
      <trkpt lat="46.38219" lon="5.56447">
        <ele>439.2</ele>
        <time>2022-02-24T18:19:14Z</time>
      </trkpt>
      <trkpt lat="46.38227" lon="5.56447">
        <ele>439.2</ele>
        <time>2022-02-24T18:19:15Z</time>
      </trkpt>
      <trkpt lat="46.38234" lon="5.56446">
        <ele>439</ele>
        <time>2022-02-24T18:19:16Z</time>
      </trkpt>
      <trkpt lat="46.38242" lon="5.56446">
        <ele>439</ele>
        <time>2022-02-24T18:19:17Z</time>
      </trkpt>
      <trkpt lat="46.3825" lon="5.56447">
        <ele>438.6</ele>
        <time>2022-02-24T18:19:18Z</time>
      </trkpt>
      <trkpt lat="46.38258" lon="5.56447">
        <ele>438.6</ele>
        <time>2022-02-24T18:19:19Z</time>
      </trkpt>
      <trkpt lat="46.38266" lon="5.56447">
        <ele>438.4</ele>
        <time>2022-02-24T18:19:20Z</time>
      </trkpt>
      <trkpt lat="46.38274" lon="5.56446">
        <ele>438.4</ele>
        <time>2022-02-24T18:19:21Z</time>
      </trkpt>
      <trkpt lat="46.38282" lon="5.56447">
        <ele>438.2</ele>
        <time>2022-02-24T18:19:22Z</time>
      </trkpt>
      <trkpt lat="46.3829" lon="5.56447">
        <ele>438</ele>
        <time>2022-02-24T18:19:23Z</time>
      </trkpt>
      <trkpt lat="46.38299" lon="5.56447">
        <ele>438</ele>
        <time>2022-02-24T18:19:24Z</time>
      </trkpt>
      <trkpt lat="46.38307" lon="5.56446">
        <ele>437.6</ele>
        <time>2022-02-24T18:19:25Z</time>
      </trkpt>
      <trkpt lat="46.38315" lon="5.56447">
        <ele>437.4</ele>
        <time>2022-02-24T18:19:26Z</time>
      </trkpt>
      <trkpt lat="46.38323" lon="5.56447">
        <ele>437.2</ele>
        <time>2022-02-24T18:19:27Z</time>
      </trkpt>
      <trkpt lat="46.38331" lon="5.56447">
        <ele>437.2</ele>
        <time>2022-02-24T18:19:28Z</time>
      </trkpt>
      <trkpt lat="46.38339" lon="5.56447">
        <ele>436.8</ele>
        <time>2022-02-24T18:19:29Z</time>
      </trkpt>
      <trkpt lat="46.38347" lon="5.56447">
        <ele>436.8</ele>
        <time>2022-02-24T18:19:30Z</time>
      </trkpt>
      <trkpt lat="46.38354" lon="5.56447">
        <ele>436.6</ele>
        <time>2022-02-24T18:19:31Z</time>
      </trkpt>
      <trkpt lat="46.38362" lon="5.56447">
        <ele>436.6</ele>
        <time>2022-02-24T18:19:32Z</time>
      </trkpt>
      <trkpt lat="46.3837" lon="5.56447">
        <ele>436.2</ele>
        <time>2022-02-24T18:19:33Z</time>
      </trkpt>
      <trkpt lat="46.38377" lon="5.56447">
        <ele>436.2</ele>
        <time>2022-02-24T18:19:34Z</time>
      </trkpt>
      <trkpt lat="46.38385" lon="5.56447">
        <ele>436</ele>
        <time>2022-02-24T18:19:35Z</time>
      </trkpt>
      <trkpt lat="46.38393" lon="5.56447">
        <ele>436</ele>
        <time>2022-02-24T18:19:36Z</time>
      </trkpt>
      <trkpt lat="46.38401" lon="5.56447">
        <ele>435.6</ele>
        <time>2022-02-24T18:19:37Z</time>
      </trkpt>
      <trkpt lat="46.38409" lon="5.56447">
        <ele>435.4</ele>
        <time>2022-02-24T18:19:38Z</time>
      </trkpt>
      <trkpt lat="46.38417" lon="5.56447">
        <ele>435</ele>
        <time>2022-02-24T18:19:39Z</time>
      </trkpt>
      <trkpt lat="46.38425" lon="5.56447">
        <ele>434.8</ele>
        <time>2022-02-24T18:19:40Z</time>
      </trkpt>
      <trkpt lat="46.38433" lon="5.56447">
        <ele>434.6</ele>
        <time>2022-02-24T18:19:41Z</time>
      </trkpt>
      <trkpt lat="46.38441" lon="5.56447">
        <ele>434.4</ele>
        <time>2022-02-24T18:19:42Z</time>
      </trkpt>
      <trkpt lat="46.38449" lon="5.56446">
        <ele>434</ele>
        <time>2022-02-24T18:19:43Z</time>
      </trkpt>
      <trkpt lat="46.38457" lon="5.56446">
        <ele>433.6</ele>
        <time>2022-02-24T18:19:44Z</time>
      </trkpt>
      <trkpt lat="46.38466" lon="5.56446">
        <ele>433.4</ele>
        <time>2022-02-24T18:19:45Z</time>
      </trkpt>
      <trkpt lat="46.38474" lon="5.56446">
        <ele>433</ele>
        <time>2022-02-24T18:19:46Z</time>
      </trkpt>
      <trkpt lat="46.38483" lon="5.56446">
        <ele>433</ele>
        <time>2022-02-24T18:19:47Z</time>
      </trkpt>
      <trkpt lat="46.38491" lon="5.56446">
        <ele>432.6</ele>
        <time>2022-02-24T18:19:48Z</time>
      </trkpt>
      <trkpt lat="46.385" lon="5.56446">
        <ele>432.4</ele>
        <time>2022-02-24T18:19:49Z</time>
      </trkpt>
      <trkpt lat="46.38508" lon="5.56446">
        <ele>432.2</ele>
        <time>2022-02-24T18:19:50Z</time>
      </trkpt>
      <trkpt lat="46.38517" lon="5.56446">
        <ele>431.8</ele>
        <time>2022-02-24T18:19:51Z</time>
      </trkpt>
      <trkpt lat="46.38525" lon="5.56446">
        <ele>431.6</ele>
        <time>2022-02-24T18:19:52Z</time>
      </trkpt>
      <trkpt lat="46.38534" lon="5.56446">
        <ele>431.4</ele>
        <time>2022-02-24T18:19:53Z</time>
      </trkpt>
      <trkpt lat="46.38542" lon="5.56445">
        <ele>431</ele>
        <time>2022-02-24T18:19:54Z</time>
      </trkpt>
      <trkpt lat="46.38551" lon="5.56445">
        <ele>430.8</ele>
        <time>2022-02-24T18:19:55Z</time>
      </trkpt>
      <trkpt lat="46.38559" lon="5.56445">
        <ele>430.8</ele>
        <time>2022-02-24T18:19:56Z</time>
      </trkpt>
      <trkpt lat="46.38567" lon="5.56445">
        <ele>430.4</ele>
        <time>2022-02-24T18:19:57Z</time>
      </trkpt>
      <trkpt lat="46.38576" lon="5.56445">
        <ele>430.2</ele>
        <time>2022-02-24T18:19:58Z</time>
      </trkpt>
      <trkpt lat="46.38584" lon="5.56445">
        <ele>430.2</ele>
        <time>2022-02-24T18:19:59Z</time>
      </trkpt>
      <trkpt lat="46.38592" lon="5.56445">
        <ele>429.8</ele>
        <time>2022-02-24T18:20:00Z</time>
      </trkpt>
      <trkpt lat="46.386" lon="5.56445">
        <ele>429.8</ele>
        <time>2022-02-24T18:20:01Z</time>
      </trkpt>
      <trkpt lat="46.38608" lon="5.56445">
        <ele>429.6</ele>
        <time>2022-02-24T18:20:02Z</time>
      </trkpt>
      <trkpt lat="46.38616" lon="5.56445">
        <ele>429.4</ele>
        <time>2022-02-24T18:20:03Z</time>
      </trkpt>
      <trkpt lat="46.38624" lon="5.56445">
        <ele>429.4</ele>
        <time>2022-02-24T18:20:04Z</time>
      </trkpt>
      <trkpt lat="46.38632" lon="5.56445">
        <ele>429.2</ele>
        <time>2022-02-24T18:20:05Z</time>
      </trkpt>
      <trkpt lat="46.3864" lon="5.56444">
        <ele>429.2</ele>
        <time>2022-02-24T18:20:06Z</time>
      </trkpt>
      <trkpt lat="46.38647" lon="5.56444">
        <ele>429.2</ele>
        <time>2022-02-24T18:20:07Z</time>
      </trkpt>
      <trkpt lat="46.38655" lon="5.56444">
        <ele>429.2</ele>
        <time>2022-02-24T18:20:08Z</time>
      </trkpt>
      <trkpt lat="46.38662" lon="5.56444">
        <ele>429.2</ele>
        <time>2022-02-24T18:20:09Z</time>
      </trkpt>
      <trkpt lat="46.38669" lon="5.56444">
        <ele>429.2</ele>
        <time>2022-02-24T18:20:10Z</time>
      </trkpt>
      <trkpt lat="46.38677" lon="5.56444">
        <ele>429.2</ele>
        <time>2022-02-24T18:20:11Z</time>
      </trkpt>
      <trkpt lat="46.38684" lon="5.56444">
        <ele>429.2</ele>
        <time>2022-02-24T18:20:12Z</time>
      </trkpt>
      <trkpt lat="46.38691" lon="5.56444">
        <ele>429.2</ele>
        <time>2022-02-24T18:20:13Z</time>
      </trkpt>
      <trkpt lat="46.38698" lon="5.56444">
        <ele>429</ele>
        <time>2022-02-24T18:20:14Z</time>
      </trkpt>
      <trkpt lat="46.38705" lon="5.56444">
        <ele>429</ele>
        <time>2022-02-24T18:20:15Z</time>
      </trkpt>
      <trkpt lat="46.38711" lon="5.56444">
        <ele>429</ele>
        <time>2022-02-24T18:20:16Z</time>
      </trkpt>
      <trkpt lat="46.38718" lon="5.56443">
        <ele>429</ele>
        <time>2022-02-24T18:20:17Z</time>
      </trkpt>
      <trkpt lat="46.38724" lon="5.56443">
        <ele>429</ele>
        <time>2022-02-24T18:20:18Z</time>
      </trkpt>
      <trkpt lat="46.38731" lon="5.56443">
        <ele>429</ele>
        <time>2022-02-24T18:20:19Z</time>
      </trkpt>
      <trkpt lat="46.38737" lon="5.56443">
        <ele>429.2</ele>
        <time>2022-02-24T18:20:20Z</time>
      </trkpt>
      <trkpt lat="46.38743" lon="5.56443">
        <ele>429.2</ele>
        <time>2022-02-24T18:20:21Z</time>
      </trkpt>
      <trkpt lat="46.38749" lon="5.56443">
        <ele>429.4</ele>
        <time>2022-02-24T18:20:22Z</time>
      </trkpt>
      <trkpt lat="46.38755" lon="5.56443">
        <ele>429.4</ele>
        <time>2022-02-24T18:20:23Z</time>
      </trkpt>
      <trkpt lat="46.38761" lon="5.56443">
        <ele>429.6</ele>
        <time>2022-02-24T18:20:24Z</time>
      </trkpt>
      <trkpt lat="46.38767" lon="5.56442">
        <ele>429.6</ele>
        <time>2022-02-24T18:20:25Z</time>
      </trkpt>
      <trkpt lat="46.38772" lon="5.56442">
        <ele>429.8</ele>
        <time>2022-02-24T18:20:26Z</time>
      </trkpt>
      <trkpt lat="46.38778" lon="5.56442">
        <ele>429.8</ele>
        <time>2022-02-24T18:20:27Z</time>
      </trkpt>
      <trkpt lat="46.38783" lon="5.56442">
        <ele>430</ele>
        <time>2022-02-24T18:20:28Z</time>
      </trkpt>
      <trkpt lat="46.38789" lon="5.56442">
        <ele>430</ele>
        <time>2022-02-24T18:20:29Z</time>
      </trkpt>
      <trkpt lat="46.38794" lon="5.56442">
        <ele>430</ele>
        <time>2022-02-24T18:20:30Z</time>
      </trkpt>
      <trkpt lat="46.38799" lon="5.56442">
        <ele>430.4</ele>
        <time>2022-02-24T18:20:31Z</time>
      </trkpt>
      <trkpt lat="46.38804" lon="5.56442">
        <ele>430.4</ele>
        <time>2022-02-24T18:20:32Z</time>
      </trkpt>
      <trkpt lat="46.38808" lon="5.56442">
        <ele>430.6</ele>
        <time>2022-02-24T18:20:33Z</time>
      </trkpt>
      <trkpt lat="46.38813" lon="5.56442">
        <ele>430.6</ele>
        <time>2022-02-24T18:20:34Z</time>
      </trkpt>
      <trkpt lat="46.38818" lon="5.56442">
        <ele>431</ele>
        <time>2022-02-24T18:20:35Z</time>
      </trkpt>
      <trkpt lat="46.38822" lon="5.56441">
        <ele>431</ele>
        <time>2022-02-24T18:20:36Z</time>
      </trkpt>
      <trkpt lat="46.38827" lon="5.56441">
        <ele>431</ele>
        <time>2022-02-24T18:20:37Z</time>
      </trkpt>
      <trkpt lat="46.38832" lon="5.56441">
        <ele>431.2</ele>
        <time>2022-02-24T18:20:38Z</time>
      </trkpt>
      <trkpt lat="46.38836" lon="5.56441">
        <ele>431.2</ele>
        <time>2022-02-24T18:20:39Z</time>
      </trkpt>
      <trkpt lat="46.38841" lon="5.56441">
        <ele>431.2</ele>
        <time>2022-02-24T18:20:40Z</time>
      </trkpt>
      <trkpt lat="46.38846" lon="5.56441">
        <ele>431.6</ele>
        <time>2022-02-24T18:20:41Z</time>
      </trkpt>
      <trkpt lat="46.38851" lon="5.56441">
        <ele>431.8</ele>
        <time>2022-02-24T18:20:42Z</time>
      </trkpt>
      <trkpt lat="46.38855" lon="5.56441">
        <ele>431.8</ele>
        <time>2022-02-24T18:20:43Z</time>
      </trkpt>
      <trkpt lat="46.3886" lon="5.56441">
        <ele>431.8</ele>
        <time>2022-02-24T18:20:44Z</time>
      </trkpt>
      <trkpt lat="46.38865" lon="5.56441">
        <ele>432</ele>
        <time>2022-02-24T18:20:45Z</time>
      </trkpt>
      <trkpt lat="46.3887" lon="5.56441">
        <ele>432</ele>
        <time>2022-02-24T18:20:46Z</time>
      </trkpt>
      <trkpt lat="46.38875" lon="5.5644">
        <ele>432</ele>
        <time>2022-02-24T18:20:47Z</time>
      </trkpt>
      <trkpt lat="46.3888" lon="5.5644">
        <ele>432.2</ele>
        <time>2022-02-24T18:20:48Z</time>
      </trkpt>
      <trkpt lat="46.38886" lon="5.5644">
        <ele>432.2</ele>
        <time>2022-02-24T18:20:49Z</time>
      </trkpt>
      <trkpt lat="46.3889" lon="5.5644">
        <ele>432.4</ele>
        <time>2022-02-24T18:20:50Z</time>
      </trkpt>
      <trkpt lat="46.38896" lon="5.5644">
        <ele>432.4</ele>
        <time>2022-02-24T18:20:51Z</time>
      </trkpt>
      <trkpt lat="46.389" lon="5.5644">
        <ele>432.6</ele>
        <time>2022-02-24T18:20:52Z</time>
      </trkpt>
      <trkpt lat="46.38905" lon="5.5644">
        <ele>432.6</ele>
        <time>2022-02-24T18:20:53Z</time>
      </trkpt>
      <trkpt lat="46.3891" lon="5.5644">
        <ele>433</ele>
        <time>2022-02-24T18:20:54Z</time>
      </trkpt>
      <trkpt lat="46.38915" lon="5.5644">
        <ele>433.2</ele>
        <time>2022-02-24T18:20:55Z</time>
      </trkpt>
      <trkpt lat="46.38919" lon="5.5644">
        <ele>433.2</ele>
        <time>2022-02-24T18:20:56Z</time>
      </trkpt>
      <trkpt lat="46.38924" lon="5.5644">
        <ele>433.4</ele>
        <time>2022-02-24T18:20:57Z</time>
      </trkpt>
      <trkpt lat="46.38928" lon="5.5644">
        <ele>433.4</ele>
        <time>2022-02-24T18:20:58Z</time>
      </trkpt>
      <trkpt lat="46.38932" lon="5.56441">
        <ele>433.8</ele>
        <time>2022-02-24T18:20:59Z</time>
      </trkpt>
      <trkpt lat="46.38937" lon="5.56441">
        <ele>433.8</ele>
        <time>2022-02-24T18:21:00Z</time>
      </trkpt>
      <trkpt lat="46.38941" lon="5.56441">
        <ele>434</ele>
        <time>2022-02-24T18:21:01Z</time>
      </trkpt>
      <trkpt lat="46.38945" lon="5.5644">
        <ele>434.2</ele>
        <time>2022-02-24T18:21:02Z</time>
      </trkpt>
      <trkpt lat="46.3895" lon="5.5644">
        <ele>434.6</ele>
        <time>2022-02-24T18:21:03Z</time>
      </trkpt>
      <trkpt lat="46.38954" lon="5.56441">
        <ele>434.8</ele>
        <time>2022-02-24T18:21:04Z</time>
      </trkpt>
      <trkpt lat="46.38959" lon="5.5644">
        <ele>434.8</ele>
        <time>2022-02-24T18:21:05Z</time>
      </trkpt>
      <trkpt lat="46.38963" lon="5.5644">
        <ele>435.2</ele>
        <time>2022-02-24T18:21:06Z</time>
      </trkpt>
      <trkpt lat="46.38968" lon="5.5644">
        <ele>435.4</ele>
        <time>2022-02-24T18:21:07Z</time>
      </trkpt>
      <trkpt lat="46.38973" lon="5.5644">
        <ele>435.4</ele>
        <time>2022-02-24T18:21:08Z</time>
      </trkpt>
      <trkpt lat="46.38978" lon="5.56439">
        <ele>435.6</ele>
        <time>2022-02-24T18:21:09Z</time>
      </trkpt>
      <trkpt lat="46.38983" lon="5.56439">
        <ele>435.6</ele>
        <time>2022-02-24T18:21:10Z</time>
      </trkpt>
      <trkpt lat="46.38988" lon="5.56439">
        <ele>436</ele>
        <time>2022-02-24T18:21:11Z</time>
      </trkpt>
      <trkpt lat="46.38992" lon="5.5644">
        <ele>436</ele>
        <time>2022-02-24T18:21:12Z</time>
      </trkpt>
      <trkpt lat="46.38997" lon="5.5644">
        <ele>436.2</ele>
        <time>2022-02-24T18:21:13Z</time>
      </trkpt>
      <trkpt lat="46.39001" lon="5.5644">
        <ele>436.2</ele>
        <time>2022-02-24T18:21:14Z</time>
      </trkpt>
      <trkpt lat="46.39006" lon="5.5644">
        <ele>436.4</ele>
        <time>2022-02-24T18:21:15Z</time>
      </trkpt>
      <trkpt lat="46.3901" lon="5.56439">
        <ele>436.4</ele>
        <time>2022-02-24T18:21:16Z</time>
      </trkpt>
      <trkpt lat="46.39015" lon="5.56439">
        <ele>436.8</ele>
        <time>2022-02-24T18:21:17Z</time>
      </trkpt>
      <trkpt lat="46.39019" lon="5.56439">
        <ele>436.8</ele>
        <time>2022-02-24T18:21:18Z</time>
      </trkpt>
      <trkpt lat="46.39023" lon="5.5644">
        <ele>437</ele>
        <time>2022-02-24T18:21:19Z</time>
      </trkpt>
      <trkpt lat="46.39027" lon="5.5644">
        <ele>437</ele>
        <time>2022-02-24T18:21:20Z</time>
      </trkpt>
      <trkpt lat="46.39031" lon="5.56439">
        <ele>437.2</ele>
        <time>2022-02-24T18:21:21Z</time>
      </trkpt>
      <trkpt lat="46.39035" lon="5.56438">
        <ele>437.2</ele>
        <time>2022-02-24T18:21:22Z</time>
      </trkpt>
      <trkpt lat="46.39039" lon="5.56438">
        <ele>437.6</ele>
        <time>2022-02-24T18:21:23Z</time>
      </trkpt>
      <trkpt lat="46.39044" lon="5.56437">
        <ele>437.6</ele>
        <time>2022-02-24T18:21:24Z</time>
      </trkpt>
      <trkpt lat="46.39048" lon="5.56437">
        <ele>437.6</ele>
        <time>2022-02-24T18:21:25Z</time>
      </trkpt>
      <trkpt lat="46.39053" lon="5.56437">
        <ele>437.8</ele>
        <time>2022-02-24T18:21:26Z</time>
      </trkpt>
      <trkpt lat="46.39058" lon="5.56437">
        <ele>437.8</ele>
        <time>2022-02-24T18:21:27Z</time>
      </trkpt>
      <trkpt lat="46.39063" lon="5.56436">
        <ele>437.8</ele>
        <time>2022-02-24T18:21:28Z</time>
      </trkpt>
      <trkpt lat="46.39067" lon="5.56436">
        <ele>437.8</ele>
        <time>2022-02-24T18:21:29Z</time>
      </trkpt>
      <trkpt lat="46.39073" lon="5.56436">
        <ele>438</ele>
        <time>2022-02-24T18:21:30Z</time>
      </trkpt>
      <trkpt lat="46.39078" lon="5.56436">
        <ele>438</ele>
        <time>2022-02-24T18:21:31Z</time>
      </trkpt>
      <trkpt lat="46.39082" lon="5.56436">
        <ele>438</ele>
        <time>2022-02-24T18:21:32Z</time>
      </trkpt>
      <trkpt lat="46.39087" lon="5.56436">
        <ele>438</ele>
        <time>2022-02-24T18:21:33Z</time>
      </trkpt>
      <trkpt lat="46.39092" lon="5.56436">
        <ele>438</ele>
        <time>2022-02-24T18:21:34Z</time>
      </trkpt>
      <trkpt lat="46.39096" lon="5.56437">
        <ele>438</ele>
        <time>2022-02-24T18:21:35Z</time>
      </trkpt>
      <trkpt lat="46.391" lon="5.56437">
        <ele>438</ele>
        <time>2022-02-24T18:21:36Z</time>
      </trkpt>
      <trkpt lat="46.39105" lon="5.56437">
        <ele>438</ele>
        <time>2022-02-24T18:21:37Z</time>
      </trkpt>
      <trkpt lat="46.39108" lon="5.56437">
        <ele>438</ele>
        <time>2022-02-24T18:21:38Z</time>
      </trkpt>
      <trkpt lat="46.39112" lon="5.56438">
        <ele>438</ele>
        <time>2022-02-24T18:21:39Z</time>
      </trkpt>
      <trkpt lat="46.39116" lon="5.56439">
        <ele>438</ele>
        <time>2022-02-24T18:21:40Z</time>
      </trkpt>
      <trkpt lat="46.3912" lon="5.56439">
        <ele>438</ele>
        <time>2022-02-24T18:21:41Z</time>
      </trkpt>
      <trkpt lat="46.39124" lon="5.5644">
        <ele>438</ele>
        <time>2022-02-24T18:21:42Z</time>
      </trkpt>
      <trkpt lat="46.39128" lon="5.5644">
        <ele>438</ele>
        <time>2022-02-24T18:21:43Z</time>
      </trkpt>
      <trkpt lat="46.39133" lon="5.56441">
        <ele>438</ele>
        <time>2022-02-24T18:21:44Z</time>
      </trkpt>
      <trkpt lat="46.39137" lon="5.56442">
        <ele>438</ele>
        <time>2022-02-24T18:21:45Z</time>
      </trkpt>
      <trkpt lat="46.39142" lon="5.56445">
        <ele>438</ele>
        <time>2022-02-24T18:21:46Z</time>
      </trkpt>
      <trkpt lat="46.39147" lon="5.56447">
        <ele>437.6</ele>
        <time>2022-02-24T18:21:47Z</time>
      </trkpt>
      <trkpt lat="46.39153" lon="5.56449">
        <ele>437.6</ele>
        <time>2022-02-24T18:21:48Z</time>
      </trkpt>
      <trkpt lat="46.39159" lon="5.56451">
        <ele>437.2</ele>
        <time>2022-02-24T18:21:49Z</time>
      </trkpt>
      <trkpt lat="46.39165" lon="5.56453">
        <ele>436.8</ele>
        <time>2022-02-24T18:21:50Z</time>
      </trkpt>
      <trkpt lat="46.39172" lon="5.56454">
        <ele>436.6</ele>
        <time>2022-02-24T18:21:51Z</time>
      </trkpt>
      <trkpt lat="46.39179" lon="5.56455">
        <ele>436</ele>
        <time>2022-02-24T18:21:52Z</time>
      </trkpt>
      <trkpt lat="46.39187" lon="5.56455">
        <ele>435.6</ele>
        <time>2022-02-24T18:21:53Z</time>
      </trkpt>
      <trkpt lat="46.39195" lon="5.56455">
        <ele>435</ele>
        <time>2022-02-24T18:21:54Z</time>
      </trkpt>
      <trkpt lat="46.39204" lon="5.56454">
        <ele>434.2</ele>
        <time>2022-02-24T18:21:55Z</time>
      </trkpt>
      <trkpt lat="46.39212" lon="5.56453">
        <ele>433.8</ele>
        <time>2022-02-24T18:21:56Z</time>
      </trkpt>
      <trkpt lat="46.39222" lon="5.56451">
        <ele>433.2</ele>
        <time>2022-02-24T18:21:57Z</time>
      </trkpt>
      <trkpt lat="46.39231" lon="5.56448">
        <ele>432.8</ele>
        <time>2022-02-24T18:21:58Z</time>
      </trkpt>
      <trkpt lat="46.39241" lon="5.56445">
        <ele>432.4</ele>
        <time>2022-02-24T18:21:59Z</time>
      </trkpt>
      <trkpt lat="46.3925" lon="5.56442">
        <ele>432</ele>
        <time>2022-02-24T18:22:00Z</time>
      </trkpt>
      <trkpt lat="46.39258" lon="5.5644">
        <ele>431.8</ele>
        <time>2022-02-24T18:22:01Z</time>
      </trkpt>
      <trkpt lat="46.39267" lon="5.56438">
        <ele>431.6</ele>
        <time>2022-02-24T18:22:02Z</time>
      </trkpt>
      <trkpt lat="46.39276" lon="5.56436">
        <ele>431.6</ele>
        <time>2022-02-24T18:22:03Z</time>
      </trkpt>
      <trkpt lat="46.39284" lon="5.56435">
        <ele>431.4</ele>
        <time>2022-02-24T18:22:04Z</time>
      </trkpt>
      <trkpt lat="46.39292" lon="5.56433">
        <ele>431.4</ele>
        <time>2022-02-24T18:22:05Z</time>
      </trkpt>
      <trkpt lat="46.39298" lon="5.56432">
        <ele>431.4</ele>
        <time>2022-02-24T18:22:06Z</time>
      </trkpt>
      <trkpt lat="46.39298" lon="5.56432">
        <ele>431.4</ele>
        <time>2022-02-24T18:22:07Z</time>
      </trkpt>
      <trkpt lat="46.39305" lon="5.56433">
        <ele>431.6</ele>
        <time>2022-02-24T18:22:08Z</time>
      </trkpt>
      <trkpt lat="46.39311" lon="5.56435">
        <ele>432</ele>
        <time>2022-02-24T18:22:09Z</time>
      </trkpt>
      <trkpt lat="46.39316" lon="5.56438">
        <ele>432.2</ele>
        <time>2022-02-24T18:22:10Z</time>
      </trkpt>
      <trkpt lat="46.39321" lon="5.56443">
        <ele>432.6</ele>
        <time>2022-02-24T18:22:11Z</time>
      </trkpt>
      <trkpt lat="46.39325" lon="5.56448">
        <ele>433</ele>
        <time>2022-02-24T18:22:12Z</time>
      </trkpt>
      <trkpt lat="46.39328" lon="5.56452">
        <ele>433.6</ele>
        <time>2022-02-24T18:22:13Z</time>
      </trkpt>
      <trkpt lat="46.3933" lon="5.56457">
        <ele>434</ele>
        <time>2022-02-24T18:22:14Z</time>
      </trkpt>
      <trkpt lat="46.39333" lon="5.56461">
        <ele>434.2</ele>
        <time>2022-02-24T18:22:15Z</time>
      </trkpt>
      <trkpt lat="46.39334" lon="5.56466">
        <ele>434.4</ele>
        <time>2022-02-24T18:22:16Z</time>
      </trkpt>
      <trkpt lat="46.39337" lon="5.5647">
        <ele>434.8</ele>
        <time>2022-02-24T18:22:17Z</time>
      </trkpt>
      <trkpt lat="46.3934" lon="5.56474">
        <ele>435</ele>
        <time>2022-02-24T18:22:18Z</time>
      </trkpt>
      <trkpt lat="46.39343" lon="5.56477">
        <ele>435.2</ele>
        <time>2022-02-24T18:22:19Z</time>
      </trkpt>
      <trkpt lat="46.39345" lon="5.56481">
        <ele>435.6</ele>
        <time>2022-02-24T18:22:20Z</time>
      </trkpt>
      <trkpt lat="46.39348" lon="5.56485">
        <ele>435.6</ele>
        <time>2022-02-24T18:22:21Z</time>
      </trkpt>
      <trkpt lat="46.3935" lon="5.56488">
        <ele>435.8</ele>
        <time>2022-02-24T18:22:22Z</time>
      </trkpt>
      <trkpt lat="46.39353" lon="5.56491">
        <ele>435.8</ele>
        <time>2022-02-24T18:22:23Z</time>
      </trkpt>
      <trkpt lat="46.39357" lon="5.56495">
        <ele>435.8</ele>
        <time>2022-02-24T18:22:24Z</time>
      </trkpt>
      <trkpt lat="46.3936" lon="5.56499">
        <ele>436.2</ele>
        <time>2022-02-24T18:22:25Z</time>
      </trkpt>
      <trkpt lat="46.39363" lon="5.56502">
        <ele>436.2</ele>
        <time>2022-02-24T18:22:26Z</time>
      </trkpt>
      <trkpt lat="46.39365" lon="5.56507">
        <ele>436.4</ele>
        <time>2022-02-24T18:22:27Z</time>
      </trkpt>
      <trkpt lat="46.39367" lon="5.56512">
        <ele>436.4</ele>
        <time>2022-02-24T18:22:28Z</time>
      </trkpt>
      <trkpt lat="46.39369" lon="5.56517">
        <ele>436.6</ele>
        <time>2022-02-24T18:22:29Z</time>
      </trkpt>
      <trkpt lat="46.39371" lon="5.56522">
        <ele>436.6</ele>
        <time>2022-02-24T18:22:30Z</time>
      </trkpt>
      <trkpt lat="46.39372" lon="5.56527">
        <ele>436.8</ele>
        <time>2022-02-24T18:22:31Z</time>
      </trkpt>
      <trkpt lat="46.39374" lon="5.56532">
        <ele>436.8</ele>
        <time>2022-02-24T18:22:32Z</time>
      </trkpt>
      <trkpt lat="46.39375" lon="5.56537">
        <ele>437.2</ele>
        <time>2022-02-24T18:22:33Z</time>
      </trkpt>
      <trkpt lat="46.39376" lon="5.56543">
        <ele>437.2</ele>
        <time>2022-02-24T18:22:34Z</time>
      </trkpt>
      <trkpt lat="46.39376" lon="5.56548">
        <ele>437.4</ele>
        <time>2022-02-24T18:22:35Z</time>
      </trkpt>
      <trkpt lat="46.39377" lon="5.56554">
        <ele>437.4</ele>
        <time>2022-02-24T18:22:36Z</time>
      </trkpt>
      <trkpt lat="46.39377" lon="5.56559">
        <ele>437.8</ele>
        <time>2022-02-24T18:22:37Z</time>
      </trkpt>
      <trkpt lat="46.39376" lon="5.56564">
        <ele>437.8</ele>
        <time>2022-02-24T18:22:38Z</time>
      </trkpt>
      <trkpt lat="46.39376" lon="5.56569">
        <ele>437.8</ele>
        <time>2022-02-24T18:22:39Z</time>
      </trkpt>
      <trkpt lat="46.39375" lon="5.56574">
        <ele>438</ele>
        <time>2022-02-24T18:22:40Z</time>
      </trkpt>
      <trkpt lat="46.39372" lon="5.56578">
        <ele>438</ele>
        <time>2022-02-24T18:22:41Z</time>
      </trkpt>
      <trkpt lat="46.3937" lon="5.56582">
        <ele>438.4</ele>
        <time>2022-02-24T18:22:42Z</time>
      </trkpt>
      <trkpt lat="46.39368" lon="5.56585">
        <ele>438.4</ele>
        <time>2022-02-24T18:22:43Z</time>
      </trkpt>
      <trkpt lat="46.39366" lon="5.56589">
        <ele>438.8</ele>
        <time>2022-02-24T18:22:44Z</time>
      </trkpt>
      <trkpt lat="46.39364" lon="5.56592">
        <ele>439</ele>
        <time>2022-02-24T18:22:45Z</time>
      </trkpt>
      <trkpt lat="46.39362" lon="5.56596">
        <ele>439</ele>
        <time>2022-02-24T18:22:46Z</time>
      </trkpt>
      <trkpt lat="46.3936" lon="5.566">
        <ele>439.4</ele>
        <time>2022-02-24T18:22:47Z</time>
      </trkpt>
      <trkpt lat="46.39358" lon="5.56603">
        <ele>439.6</ele>
        <time>2022-02-24T18:22:48Z</time>
      </trkpt>
      <trkpt lat="46.39356" lon="5.56607">
        <ele>439.8</ele>
        <time>2022-02-24T18:22:49Z</time>
      </trkpt>
      <trkpt lat="46.39354" lon="5.56611">
        <ele>440</ele>
        <time>2022-02-24T18:22:50Z</time>
      </trkpt>
      <trkpt lat="46.39353" lon="5.56615">
        <ele>440.2</ele>
        <time>2022-02-24T18:22:51Z</time>
      </trkpt>
      <trkpt lat="46.39351" lon="5.56619">
        <ele>440.4</ele>
        <time>2022-02-24T18:22:52Z</time>
      </trkpt>
      <trkpt lat="46.3935" lon="5.56623">
        <ele>440.8</ele>
        <time>2022-02-24T18:22:53Z</time>
      </trkpt>
      <trkpt lat="46.39349" lon="5.56628">
        <ele>440.8</ele>
        <time>2022-02-24T18:22:54Z</time>
      </trkpt>
      <trkpt lat="46.39347" lon="5.56632">
        <ele>441</ele>
        <time>2022-02-24T18:22:55Z</time>
      </trkpt>
      <trkpt lat="46.39347" lon="5.56637">
        <ele>441.2</ele>
        <time>2022-02-24T18:22:56Z</time>
      </trkpt>
      <trkpt lat="46.39346" lon="5.56642">
        <ele>441.2</ele>
        <time>2022-02-24T18:22:57Z</time>
      </trkpt>
      <trkpt lat="46.39346" lon="5.56647">
        <ele>441.6</ele>
        <time>2022-02-24T18:22:58Z</time>
      </trkpt>
      <trkpt lat="46.39345" lon="5.56652">
        <ele>441.6</ele>
        <time>2022-02-24T18:22:59Z</time>
      </trkpt>
      <trkpt lat="46.39345" lon="5.56658">
        <ele>442</ele>
        <time>2022-02-24T18:23:00Z</time>
      </trkpt>
      <trkpt lat="46.39345" lon="5.56663">
        <ele>442</ele>
        <time>2022-02-24T18:23:01Z</time>
      </trkpt>
      <trkpt lat="46.39344" lon="5.56668">
        <ele>442.2</ele>
        <time>2022-02-24T18:23:02Z</time>
      </trkpt>
      <trkpt lat="46.39343" lon="5.56672">
        <ele>442.2</ele>
        <time>2022-02-24T18:23:03Z</time>
      </trkpt>
      <trkpt lat="46.39342" lon="5.56676">
        <ele>442.6</ele>
        <time>2022-02-24T18:23:04Z</time>
      </trkpt>
      <trkpt lat="46.39341" lon="5.56681">
        <ele>442.6</ele>
        <time>2022-02-24T18:23:05Z</time>
      </trkpt>
      <trkpt lat="46.39341" lon="5.56685">
        <ele>442.6</ele>
        <time>2022-02-24T18:23:06Z</time>
      </trkpt>
      <trkpt lat="46.39339" lon="5.5669">
        <ele>442.8</ele>
        <time>2022-02-24T18:23:07Z</time>
      </trkpt>
      <trkpt lat="46.39338" lon="5.56694">
        <ele>442.8</ele>
        <time>2022-02-24T18:23:08Z</time>
      </trkpt>
      <trkpt lat="46.39337" lon="5.56698">
        <ele>442.8</ele>
        <time>2022-02-24T18:23:09Z</time>
      </trkpt>
      <trkpt lat="46.39336" lon="5.56701">
        <ele>443</ele>
        <time>2022-02-24T18:23:10Z</time>
      </trkpt>
      <trkpt lat="46.39335" lon="5.56705">
        <ele>443</ele>
        <time>2022-02-24T18:23:11Z</time>
      </trkpt>
      <trkpt lat="46.39334" lon="5.56709">
        <ele>443</ele>
        <time>2022-02-24T18:23:12Z</time>
      </trkpt>
      <trkpt lat="46.39332" lon="5.56713">
        <ele>443.4</ele>
        <time>2022-02-24T18:23:13Z</time>
      </trkpt>
      <trkpt lat="46.39331" lon="5.56717">
        <ele>443.4</ele>
        <time>2022-02-24T18:23:14Z</time>
      </trkpt>
      <trkpt lat="46.39331" lon="5.56722">
        <ele>443.4</ele>
        <time>2022-02-24T18:23:15Z</time>
      </trkpt>
      <trkpt lat="46.39331" lon="5.56727">
        <ele>443.4</ele>
        <time>2022-02-24T18:23:16Z</time>
      </trkpt>
      <trkpt lat="46.39332" lon="5.56732">
        <ele>443.6</ele>
        <time>2022-02-24T18:23:17Z</time>
      </trkpt>
      <trkpt lat="46.39333" lon="5.56736">
        <ele>443.6</ele>
        <time>2022-02-24T18:23:18Z</time>
      </trkpt>
      <trkpt lat="46.39335" lon="5.56739">
        <ele>443.6</ele>
        <time>2022-02-24T18:23:19Z</time>
      </trkpt>
      <trkpt lat="46.39338" lon="5.56742">
        <ele>443.6</ele>
        <time>2022-02-24T18:23:20Z</time>
      </trkpt>
      <trkpt lat="46.39341" lon="5.56744">
        <ele>443.8</ele>
        <time>2022-02-24T18:23:21Z</time>
      </trkpt>
      <trkpt lat="46.39343" lon="5.56747">
        <ele>443.8</ele>
        <time>2022-02-24T18:23:22Z</time>
      </trkpt>
      <trkpt lat="46.39346" lon="5.56749">
        <ele>444</ele>
        <time>2022-02-24T18:23:23Z</time>
      </trkpt>
      <trkpt lat="46.39349" lon="5.56752">
        <ele>444</ele>
        <time>2022-02-24T18:23:24Z</time>
      </trkpt>
      <trkpt lat="46.39352" lon="5.56755">
        <ele>444.4</ele>
        <time>2022-02-24T18:23:25Z</time>
      </trkpt>
      <trkpt lat="46.39355" lon="5.56757">
        <ele>444.4</ele>
        <time>2022-02-24T18:23:26Z</time>
      </trkpt>
      <trkpt lat="46.39358" lon="5.5676">
        <ele>444.6</ele>
        <time>2022-02-24T18:23:27Z</time>
      </trkpt>
      <trkpt lat="46.39362" lon="5.56763">
        <ele>444.6</ele>
        <time>2022-02-24T18:23:28Z</time>
      </trkpt>
      <trkpt lat="46.39365" lon="5.56765">
        <ele>444.6</ele>
        <time>2022-02-24T18:23:29Z</time>
      </trkpt>
      <trkpt lat="46.39369" lon="5.56768">
        <ele>444.6</ele>
        <time>2022-02-24T18:23:30Z</time>
      </trkpt>
      <trkpt lat="46.39372" lon="5.5677">
        <ele>444.6</ele>
        <time>2022-02-24T18:23:31Z</time>
      </trkpt>
      <trkpt lat="46.39376" lon="5.56773">
        <ele>444.6</ele>
        <time>2022-02-24T18:23:32Z</time>
      </trkpt>
      <trkpt lat="46.39379" lon="5.56776">
        <ele>444.6</ele>
        <time>2022-02-24T18:23:33Z</time>
      </trkpt>
      <trkpt lat="46.39383" lon="5.5678">
        <ele>444.6</ele>
        <time>2022-02-24T18:23:34Z</time>
      </trkpt>
      <trkpt lat="46.39386" lon="5.56783">
        <ele>444.6</ele>
        <time>2022-02-24T18:23:35Z</time>
      </trkpt>
      <trkpt lat="46.3939" lon="5.56787">
        <ele>444.8</ele>
        <time>2022-02-24T18:23:36Z</time>
      </trkpt>
      <trkpt lat="46.39393" lon="5.56792">
        <ele>444.8</ele>
        <time>2022-02-24T18:23:37Z</time>
      </trkpt>
      <trkpt lat="46.39397" lon="5.56796">
        <ele>444.8</ele>
        <time>2022-02-24T18:23:38Z</time>
      </trkpt>
      <trkpt lat="46.39401" lon="5.568">
        <ele>444.8</ele>
        <time>2022-02-24T18:23:39Z</time>
      </trkpt>
      <trkpt lat="46.39404" lon="5.56804">
        <ele>444.8</ele>
        <time>2022-02-24T18:23:40Z</time>
      </trkpt>
      <trkpt lat="46.39408" lon="5.56807">
        <ele>444.8</ele>
        <time>2022-02-24T18:23:41Z</time>
      </trkpt>
      <trkpt lat="46.39412" lon="5.56811">
        <ele>444.8</ele>
        <time>2022-02-24T18:23:42Z</time>
      </trkpt>
      <trkpt lat="46.39416" lon="5.56815">
        <ele>444.8</ele>
        <time>2022-02-24T18:23:43Z</time>
      </trkpt>
      <trkpt lat="46.3942" lon="5.56819">
        <ele>444.8</ele>
        <time>2022-02-24T18:23:44Z</time>
      </trkpt>
      <trkpt lat="46.39424" lon="5.56823">
        <ele>445.2</ele>
        <time>2022-02-24T18:23:45Z</time>
      </trkpt>
      <trkpt lat="46.39429" lon="5.56826">
        <ele>445.2</ele>
        <time>2022-02-24T18:23:46Z</time>
      </trkpt>
      <trkpt lat="46.39433" lon="5.5683">
        <ele>445.2</ele>
        <time>2022-02-24T18:23:47Z</time>
      </trkpt>
      <trkpt lat="46.39437" lon="5.56834">
        <ele>445.2</ele>
        <time>2022-02-24T18:23:48Z</time>
      </trkpt>
      <trkpt lat="46.39441" lon="5.56837">
        <ele>445.2</ele>
        <time>2022-02-24T18:23:49Z</time>
      </trkpt>
      <trkpt lat="46.39446" lon="5.56841">
        <ele>445.2</ele>
        <time>2022-02-24T18:23:50Z</time>
      </trkpt>
      <trkpt lat="46.39451" lon="5.56845">
        <ele>445.2</ele>
        <time>2022-02-24T18:23:51Z</time>
      </trkpt>
      <trkpt lat="46.39456" lon="5.56849">
        <ele>444.8</ele>
        <time>2022-02-24T18:23:52Z</time>
      </trkpt>
      <trkpt lat="46.3946" lon="5.56852">
        <ele>444.8</ele>
        <time>2022-02-24T18:23:53Z</time>
      </trkpt>
      <trkpt lat="46.39465" lon="5.56856">
        <ele>444.6</ele>
        <time>2022-02-24T18:23:54Z</time>
      </trkpt>
      <trkpt lat="46.3947" lon="5.56859">
        <ele>444.6</ele>
        <time>2022-02-24T18:23:55Z</time>
      </trkpt>
      <trkpt lat="46.39474" lon="5.56862">
        <ele>444.4</ele>
        <time>2022-02-24T18:23:56Z</time>
      </trkpt>
      <trkpt lat="46.39478" lon="5.56865">
        <ele>444.2</ele>
        <time>2022-02-24T18:23:57Z</time>
      </trkpt>
      <trkpt lat="46.39483" lon="5.56869">
        <ele>444</ele>
        <time>2022-02-24T18:23:58Z</time>
      </trkpt>
      <trkpt lat="46.39487" lon="5.56872">
        <ele>444</ele>
        <time>2022-02-24T18:23:59Z</time>
      </trkpt>
      <trkpt lat="46.39492" lon="5.56876">
        <ele>443.6</ele>
        <time>2022-02-24T18:24:00Z</time>
      </trkpt>
      <trkpt lat="46.39497" lon="5.56879">
        <ele>443.4</ele>
        <time>2022-02-24T18:24:01Z</time>
      </trkpt>
      <trkpt lat="46.39502" lon="5.56883">
        <ele>443.2</ele>
        <time>2022-02-24T18:24:02Z</time>
      </trkpt>
      <trkpt lat="46.39507" lon="5.56887">
        <ele>443</ele>
        <time>2022-02-24T18:24:03Z</time>
      </trkpt>
      <trkpt lat="46.39512" lon="5.56891">
        <ele>443</ele>
        <time>2022-02-24T18:24:04Z</time>
      </trkpt>
      <trkpt lat="46.39518" lon="5.56896">
        <ele>442.4</ele>
        <time>2022-02-24T18:24:05Z</time>
      </trkpt>
      <trkpt lat="46.39524" lon="5.569">
        <ele>442.2</ele>
        <time>2022-02-24T18:24:06Z</time>
      </trkpt>
      <trkpt lat="46.3953" lon="5.56904">
        <ele>442</ele>
        <time>2022-02-24T18:24:07Z</time>
      </trkpt>
      <trkpt lat="46.39536" lon="5.56909">
        <ele>441.8</ele>
        <time>2022-02-24T18:24:08Z</time>
      </trkpt>
      <trkpt lat="46.39543" lon="5.56914">
        <ele>441.4</ele>
        <time>2022-02-24T18:24:09Z</time>
      </trkpt>
      <trkpt lat="46.39549" lon="5.56918">
        <ele>441.2</ele>
        <time>2022-02-24T18:24:10Z</time>
      </trkpt>
      <trkpt lat="46.39556" lon="5.56923">
        <ele>440.8</ele>
        <time>2022-02-24T18:24:11Z</time>
      </trkpt>
      <trkpt lat="46.39563" lon="5.56928">
        <ele>440.6</ele>
        <time>2022-02-24T18:24:12Z</time>
      </trkpt>
      <trkpt lat="46.3957" lon="5.56933">
        <ele>440.2</ele>
        <time>2022-02-24T18:24:13Z</time>
      </trkpt>
      <trkpt lat="46.39577" lon="5.56939">
        <ele>440</ele>
        <time>2022-02-24T18:24:14Z</time>
      </trkpt>
      <trkpt lat="46.39584" lon="5.56944">
        <ele>439.6</ele>
        <time>2022-02-24T18:24:15Z</time>
      </trkpt>
      <trkpt lat="46.39591" lon="5.56949">
        <ele>439.2</ele>
        <time>2022-02-24T18:24:16Z</time>
      </trkpt>
      <trkpt lat="46.39599" lon="5.56955">
        <ele>438.8</ele>
        <time>2022-02-24T18:24:17Z</time>
      </trkpt>
      <trkpt lat="46.39606" lon="5.56961">
        <ele>438.4</ele>
        <time>2022-02-24T18:24:18Z</time>
      </trkpt>
      <trkpt lat="46.39614" lon="5.56967">
        <ele>438</ele>
        <time>2022-02-24T18:24:19Z</time>
      </trkpt>
      <trkpt lat="46.39622" lon="5.56972">
        <ele>437.6</ele>
        <time>2022-02-24T18:24:20Z</time>
      </trkpt>
      <trkpt lat="46.3963" lon="5.56979">
        <ele>437.4</ele>
        <time>2022-02-24T18:24:21Z</time>
      </trkpt>
      <trkpt lat="46.39638" lon="5.56985">
        <ele>436.8</ele>
        <time>2022-02-24T18:24:22Z</time>
      </trkpt>
      <trkpt lat="46.39648" lon="5.56991">
        <ele>436.4</ele>
        <time>2022-02-24T18:24:23Z</time>
      </trkpt>
      <trkpt lat="46.39656" lon="5.56998">
        <ele>436</ele>
        <time>2022-02-24T18:24:24Z</time>
      </trkpt>
      <trkpt lat="46.39664" lon="5.57004">
        <ele>435.6</ele>
        <time>2022-02-24T18:24:25Z</time>
      </trkpt>
      <trkpt lat="46.39672" lon="5.5701">
        <ele>435.2</ele>
        <time>2022-02-24T18:24:26Z</time>
      </trkpt>
      <trkpt lat="46.3968" lon="5.57017">
        <ele>434.8</ele>
        <time>2022-02-24T18:24:27Z</time>
      </trkpt>
      <trkpt lat="46.39688" lon="5.57024">
        <ele>434.4</ele>
        <time>2022-02-24T18:24:28Z</time>
      </trkpt>
      <trkpt lat="46.39696" lon="5.57029">
        <ele>433.8</ele>
        <time>2022-02-24T18:24:29Z</time>
      </trkpt>
      <trkpt lat="46.39704" lon="5.57035">
        <ele>433.4</ele>
        <time>2022-02-24T18:24:30Z</time>
      </trkpt>
      <trkpt lat="46.39712" lon="5.57041">
        <ele>432.8</ele>
        <time>2022-02-24T18:24:31Z</time>
      </trkpt>
      <trkpt lat="46.3972" lon="5.57048">
        <ele>432.2</ele>
        <time>2022-02-24T18:24:32Z</time>
      </trkpt>
      <trkpt lat="46.39728" lon="5.57054">
        <ele>431.6</ele>
        <time>2022-02-24T18:24:33Z</time>
      </trkpt>
      <trkpt lat="46.39735" lon="5.5706">
        <ele>431</ele>
        <time>2022-02-24T18:24:34Z</time>
      </trkpt>
      <trkpt lat="46.39744" lon="5.57067">
        <ele>430.6</ele>
        <time>2022-02-24T18:24:35Z</time>
      </trkpt>
      <trkpt lat="46.39753" lon="5.57073">
        <ele>430</ele>
        <time>2022-02-24T18:24:36Z</time>
      </trkpt>
      <trkpt lat="46.39762" lon="5.5708">
        <ele>429.2</ele>
        <time>2022-02-24T18:24:37Z</time>
      </trkpt>
      <trkpt lat="46.39771" lon="5.57087">
        <ele>428.6</ele>
        <time>2022-02-24T18:24:38Z</time>
      </trkpt>
      <trkpt lat="46.39781" lon="5.57094">
        <ele>427.8</ele>
        <time>2022-02-24T18:24:39Z</time>
      </trkpt>
      <trkpt lat="46.3979" lon="5.57102">
        <ele>426.8</ele>
        <time>2022-02-24T18:24:40Z</time>
      </trkpt>
      <trkpt lat="46.39802" lon="5.57109">
        <ele>426</ele>
        <time>2022-02-24T18:24:41Z</time>
      </trkpt>
      <trkpt lat="46.39812" lon="5.57118">
        <ele>425</ele>
        <time>2022-02-24T18:24:42Z</time>
      </trkpt>
      <trkpt lat="46.39823" lon="5.57127">
        <ele>424</ele>
        <time>2022-02-24T18:24:43Z</time>
      </trkpt>
      <trkpt lat="46.39834" lon="5.57134">
        <ele>423</ele>
        <time>2022-02-24T18:24:44Z</time>
      </trkpt>
      <trkpt lat="46.39845" lon="5.57143">
        <ele>422</ele>
        <time>2022-02-24T18:24:45Z</time>
      </trkpt>
      <trkpt lat="46.39855" lon="5.5715">
        <ele>421</ele>
        <time>2022-02-24T18:24:46Z</time>
      </trkpt>
      <trkpt lat="46.39866" lon="5.57159">
        <ele>420</ele>
        <time>2022-02-24T18:24:47Z</time>
      </trkpt>
      <trkpt lat="46.39878" lon="5.57167">
        <ele>419</ele>
        <time>2022-02-24T18:24:48Z</time>
      </trkpt>
      <trkpt lat="46.39889" lon="5.57176">
        <ele>418.2</ele>
        <time>2022-02-24T18:24:49Z</time>
      </trkpt>
      <trkpt lat="46.399" lon="5.57185">
        <ele>417.2</ele>
        <time>2022-02-24T18:24:50Z</time>
      </trkpt>
      <trkpt lat="46.39911" lon="5.57194">
        <ele>416.4</ele>
        <time>2022-02-24T18:24:51Z</time>
      </trkpt>
      <trkpt lat="46.3992" lon="5.57203">
        <ele>415.6</ele>
        <time>2022-02-24T18:24:52Z</time>
      </trkpt>
      <trkpt lat="46.39931" lon="5.57212">
        <ele>414.8</ele>
        <time>2022-02-24T18:24:53Z</time>
      </trkpt>
      <trkpt lat="46.39941" lon="5.5722">
        <ele>414</ele>
        <time>2022-02-24T18:24:54Z</time>
      </trkpt>
      <trkpt lat="46.39951" lon="5.57228">
        <ele>413.4</ele>
        <time>2022-02-24T18:24:55Z</time>
      </trkpt>
      <trkpt lat="46.39961" lon="5.57235">
        <ele>412.8</ele>
        <time>2022-02-24T18:24:56Z</time>
      </trkpt>
      <trkpt lat="46.3997" lon="5.57243">
        <ele>412.4</ele>
        <time>2022-02-24T18:24:57Z</time>
      </trkpt>
      <trkpt lat="46.39979" lon="5.57249">
        <ele>412.2</ele>
        <time>2022-02-24T18:24:58Z</time>
      </trkpt>
      <trkpt lat="46.39988" lon="5.57255">
        <ele>412.2</ele>
        <time>2022-02-24T18:24:59Z</time>
      </trkpt>
      <trkpt lat="46.39997" lon="5.5726">
        <ele>411.8</ele>
        <time>2022-02-24T18:25:00Z</time>
      </trkpt>
      <trkpt lat="46.40006" lon="5.57263">
        <ele>411.8</ele>
        <time>2022-02-24T18:25:01Z</time>
      </trkpt>
      <trkpt lat="46.40015" lon="5.57266">
        <ele>411.8</ele>
        <time>2022-02-24T18:25:02Z</time>
      </trkpt>
      <trkpt lat="46.40023" lon="5.57268">
        <ele>412.2</ele>
        <time>2022-02-24T18:25:03Z</time>
      </trkpt>
      <trkpt lat="46.4003" lon="5.57271">
        <ele>412.2</ele>
        <time>2022-02-24T18:25:04Z</time>
      </trkpt>
      <trkpt lat="46.40037" lon="5.57272">
        <ele>412.6</ele>
        <time>2022-02-24T18:25:05Z</time>
      </trkpt>
      <trkpt lat="46.40044" lon="5.57274">
        <ele>412.8</ele>
        <time>2022-02-24T18:25:06Z</time>
      </trkpt>
      <trkpt lat="46.4005" lon="5.57276">
        <ele>413.2</ele>
        <time>2022-02-24T18:25:07Z</time>
      </trkpt>
      <trkpt lat="46.40056" lon="5.57277">
        <ele>413.4</ele>
        <time>2022-02-24T18:25:08Z</time>
      </trkpt>
      <trkpt lat="46.40062" lon="5.5728">
        <ele>413.6</ele>
        <time>2022-02-24T18:25:09Z</time>
      </trkpt>
      <trkpt lat="46.40067" lon="5.57282">
        <ele>414</ele>
        <time>2022-02-24T18:25:10Z</time>
      </trkpt>
      <trkpt lat="46.40072" lon="5.57284">
        <ele>414.2</ele>
        <time>2022-02-24T18:25:11Z</time>
      </trkpt>
      <trkpt lat="46.40077" lon="5.57286">
        <ele>414.4</ele>
        <time>2022-02-24T18:25:12Z</time>
      </trkpt>
      <trkpt lat="46.40082" lon="5.57289">
        <ele>414.6</ele>
        <time>2022-02-24T18:25:13Z</time>
      </trkpt>
      <trkpt lat="46.40086" lon="5.57291">
        <ele>414.8</ele>
        <time>2022-02-24T18:25:14Z</time>
      </trkpt>
      <trkpt lat="46.40091" lon="5.57294">
        <ele>414.8</ele>
        <time>2022-02-24T18:25:15Z</time>
      </trkpt>
      <trkpt lat="46.40095" lon="5.57296">
        <ele>415.2</ele>
        <time>2022-02-24T18:25:16Z</time>
      </trkpt>
      <trkpt lat="46.40099" lon="5.57299">
        <ele>415.4</ele>
        <time>2022-02-24T18:25:17Z</time>
      </trkpt>
      <trkpt lat="46.40103" lon="5.57301">
        <ele>415.4</ele>
        <time>2022-02-24T18:25:18Z</time>
      </trkpt>
      <trkpt lat="46.40107" lon="5.57304">
        <ele>415.8</ele>
        <time>2022-02-24T18:25:19Z</time>
      </trkpt>
      <trkpt lat="46.40111" lon="5.57306">
        <ele>415.8</ele>
        <time>2022-02-24T18:25:20Z</time>
      </trkpt>
      <trkpt lat="46.40116" lon="5.57308">
        <ele>416</ele>
        <time>2022-02-24T18:25:21Z</time>
      </trkpt>
      <trkpt lat="46.4012" lon="5.57311">
        <ele>416</ele>
        <time>2022-02-24T18:25:22Z</time>
      </trkpt>
      <trkpt lat="46.40124" lon="5.57314">
        <ele>416</ele>
        <time>2022-02-24T18:25:23Z</time>
      </trkpt>
      <trkpt lat="46.40128" lon="5.57317">
        <ele>416.2</ele>
        <time>2022-02-24T18:25:24Z</time>
      </trkpt>
      <trkpt lat="46.40133" lon="5.57319">
        <ele>416.2</ele>
        <time>2022-02-24T18:25:25Z</time>
      </trkpt>
      <trkpt lat="46.40137" lon="5.57322">
        <ele>416.2</ele>
        <time>2022-02-24T18:25:26Z</time>
      </trkpt>
      <trkpt lat="46.40141" lon="5.57324">
        <ele>416.6</ele>
        <time>2022-02-24T18:25:27Z</time>
      </trkpt>
      <trkpt lat="46.40145" lon="5.57327">
        <ele>416.6</ele>
        <time>2022-02-24T18:25:28Z</time>
      </trkpt>
      <trkpt lat="46.4015" lon="5.57329">
        <ele>416.8</ele>
        <time>2022-02-24T18:25:29Z</time>
      </trkpt>
      <trkpt lat="46.40154" lon="5.57331">
        <ele>416.8</ele>
        <time>2022-02-24T18:25:30Z</time>
      </trkpt>
      <trkpt lat="46.40158" lon="5.57334">
        <ele>417.2</ele>
        <time>2022-02-24T18:25:31Z</time>
      </trkpt>
      <trkpt lat="46.40162" lon="5.57336">
        <ele>417.2</ele>
        <time>2022-02-24T18:25:32Z</time>
      </trkpt>
      <trkpt lat="46.40165" lon="5.57338">
        <ele>417.4</ele>
        <time>2022-02-24T18:25:33Z</time>
      </trkpt>
      <trkpt lat="46.40169" lon="5.5734">
        <ele>417.4</ele>
        <time>2022-02-24T18:25:34Z</time>
      </trkpt>
      <trkpt lat="46.40173" lon="5.57343">
        <ele>417.6</ele>
        <time>2022-02-24T18:25:35Z</time>
      </trkpt>
      <trkpt lat="46.40176" lon="5.57345">
        <ele>417.6</ele>
        <time>2022-02-24T18:25:36Z</time>
      </trkpt>
      <trkpt lat="46.40179" lon="5.57346">
        <ele>418</ele>
        <time>2022-02-24T18:25:37Z</time>
      </trkpt>
      <trkpt lat="46.40183" lon="5.57348">
        <ele>418</ele>
        <time>2022-02-24T18:25:38Z</time>
      </trkpt>
      <trkpt lat="46.40186" lon="5.5735">
        <ele>418.4</ele>
        <time>2022-02-24T18:25:39Z</time>
      </trkpt>
      <trkpt lat="46.40189" lon="5.57352">
        <ele>418.4</ele>
        <time>2022-02-24T18:25:40Z</time>
      </trkpt>
      <trkpt lat="46.40192" lon="5.57353">
        <ele>418.6</ele>
        <time>2022-02-24T18:25:41Z</time>
      </trkpt>
      <trkpt lat="46.40196" lon="5.57355">
        <ele>418.6</ele>
        <time>2022-02-24T18:25:42Z</time>
      </trkpt>
      <trkpt lat="46.402" lon="5.57358">
        <ele>418.6</ele>
        <time>2022-02-24T18:25:43Z</time>
      </trkpt>
      <trkpt lat="46.40204" lon="5.57361">
        <ele>418.6</ele>
        <time>2022-02-24T18:25:44Z</time>
      </trkpt>
      <trkpt lat="46.40208" lon="5.57363">
        <ele>418.6</ele>
        <time>2022-02-24T18:25:45Z</time>
      </trkpt>
      <trkpt lat="46.40213" lon="5.57366">
        <ele>418.6</ele>
        <time>2022-02-24T18:25:46Z</time>
      </trkpt>
      <trkpt lat="46.40218" lon="5.57369">
        <ele>418.6</ele>
        <time>2022-02-24T18:25:47Z</time>
      </trkpt>
      <trkpt lat="46.40223" lon="5.57372">
        <ele>418.4</ele>
        <time>2022-02-24T18:25:48Z</time>
      </trkpt>
      <trkpt lat="46.40229" lon="5.57375">
        <ele>418.2</ele>
        <time>2022-02-24T18:25:49Z</time>
      </trkpt>
      <trkpt lat="46.40234" lon="5.57379">
        <ele>418.2</ele>
        <time>2022-02-24T18:25:50Z</time>
      </trkpt>
      <trkpt lat="46.4024" lon="5.57383">
        <ele>417.8</ele>
        <time>2022-02-24T18:25:51Z</time>
      </trkpt>
      <trkpt lat="46.40246" lon="5.57387">
        <ele>417.6</ele>
        <time>2022-02-24T18:25:52Z</time>
      </trkpt>
      <trkpt lat="46.40253" lon="5.5739">
        <ele>417.4</ele>
        <time>2022-02-24T18:25:53Z</time>
      </trkpt>
      <trkpt lat="46.40259" lon="5.57394">
        <ele>417.4</ele>
        <time>2022-02-24T18:25:54Z</time>
      </trkpt>
      <trkpt lat="46.40266" lon="5.57398">
        <ele>417</ele>
        <time>2022-02-24T18:25:55Z</time>
      </trkpt>
      <trkpt lat="46.40272" lon="5.57401">
        <ele>416.6</ele>
        <time>2022-02-24T18:25:56Z</time>
      </trkpt>
      <trkpt lat="46.40279" lon="5.57405">
        <ele>416.6</ele>
        <time>2022-02-24T18:25:57Z</time>
      </trkpt>
      <trkpt lat="46.40285" lon="5.57409">
        <ele>416.2</ele>
        <time>2022-02-24T18:25:58Z</time>
      </trkpt>
      <trkpt lat="46.40292" lon="5.57414">
        <ele>416</ele>
        <time>2022-02-24T18:25:59Z</time>
      </trkpt>
      <trkpt lat="46.40299" lon="5.57418">
        <ele>415.6</ele>
        <time>2022-02-24T18:26:00Z</time>
      </trkpt>
      <trkpt lat="46.40306" lon="5.57422">
        <ele>415.4</ele>
        <time>2022-02-24T18:26:01Z</time>
      </trkpt>
      <trkpt lat="46.40313" lon="5.57427">
        <ele>415</ele>
        <time>2022-02-24T18:26:02Z</time>
      </trkpt>
      <trkpt lat="46.40321" lon="5.57431">
        <ele>414.8</ele>
        <time>2022-02-24T18:26:03Z</time>
      </trkpt>
      <trkpt lat="46.40328" lon="5.57435">
        <ele>414.6</ele>
        <time>2022-02-24T18:26:04Z</time>
      </trkpt>
      <trkpt lat="46.40335" lon="5.57439">
        <ele>414.6</ele>
        <time>2022-02-24T18:26:05Z</time>
      </trkpt>
      <trkpt lat="46.40342" lon="5.57444">
        <ele>414.2</ele>
        <time>2022-02-24T18:26:06Z</time>
      </trkpt>
      <trkpt lat="46.40349" lon="5.57447">
        <ele>414.2</ele>
        <time>2022-02-24T18:26:07Z</time>
      </trkpt>
      <trkpt lat="46.40355" lon="5.57451">
        <ele>414.2</ele>
        <time>2022-02-24T18:26:08Z</time>
      </trkpt>
      <trkpt lat="46.40362" lon="5.57455">
        <ele>414</ele>
        <time>2022-02-24T18:26:09Z</time>
      </trkpt>
      <trkpt lat="46.40369" lon="5.57459">
        <ele>414</ele>
        <time>2022-02-24T18:26:10Z</time>
      </trkpt>
      <trkpt lat="46.40375" lon="5.57463">
        <ele>414</ele>
        <time>2022-02-24T18:26:11Z</time>
      </trkpt>
      <trkpt lat="46.40381" lon="5.57467">
        <ele>414</ele>
        <time>2022-02-24T18:26:12Z</time>
      </trkpt>
      <trkpt lat="46.40388" lon="5.57471">
        <ele>414</ele>
        <time>2022-02-24T18:26:13Z</time>
      </trkpt>
      <trkpt lat="46.40394" lon="5.57475">
        <ele>413.8</ele>
        <time>2022-02-24T18:26:14Z</time>
      </trkpt>
      <trkpt lat="46.40401" lon="5.57479">
        <ele>413.8</ele>
        <time>2022-02-24T18:26:15Z</time>
      </trkpt>
      <trkpt lat="46.40407" lon="5.57482">
        <ele>413.8</ele>
        <time>2022-02-24T18:26:16Z</time>
      </trkpt>
      <trkpt lat="46.40414" lon="5.57486">
        <ele>413.8</ele>
        <time>2022-02-24T18:26:17Z</time>
      </trkpt>
      <trkpt lat="46.4042" lon="5.5749">
        <ele>413.8</ele>
        <time>2022-02-24T18:26:18Z</time>
      </trkpt>
      <trkpt lat="46.40427" lon="5.57493">
        <ele>413.8</ele>
        <time>2022-02-24T18:26:19Z</time>
      </trkpt>
      <trkpt lat="46.40433" lon="5.57497">
        <ele>413.8</ele>
        <time>2022-02-24T18:26:20Z</time>
      </trkpt>
      <trkpt lat="46.40439" lon="5.575">
        <ele>413.8</ele>
        <time>2022-02-24T18:26:21Z</time>
      </trkpt>
      <trkpt lat="46.40445" lon="5.57504">
        <ele>413.8</ele>
        <time>2022-02-24T18:26:22Z</time>
      </trkpt>
      <trkpt lat="46.40452" lon="5.57508">
        <ele>413.8</ele>
        <time>2022-02-24T18:26:23Z</time>
      </trkpt>
      <trkpt lat="46.40458" lon="5.57511">
        <ele>413.8</ele>
        <time>2022-02-24T18:26:24Z</time>
      </trkpt>
      <trkpt lat="46.40464" lon="5.57514">
        <ele>413.8</ele>
        <time>2022-02-24T18:26:25Z</time>
      </trkpt>
      <trkpt lat="46.4047" lon="5.57517">
        <ele>413.8</ele>
        <time>2022-02-24T18:26:26Z</time>
      </trkpt>
      <trkpt lat="46.40476" lon="5.57521">
        <ele>413.8</ele>
        <time>2022-02-24T18:26:27Z</time>
      </trkpt>
      <trkpt lat="46.40482" lon="5.57524">
        <ele>413.8</ele>
        <time>2022-02-24T18:26:28Z</time>
      </trkpt>
      <trkpt lat="46.40487" lon="5.57527">
        <ele>413.8</ele>
        <time>2022-02-24T18:26:29Z</time>
      </trkpt>
      <trkpt lat="46.40493" lon="5.5753">
        <ele>414</ele>
        <time>2022-02-24T18:26:30Z</time>
      </trkpt>
      <trkpt lat="46.40498" lon="5.57533">
        <ele>414</ele>
        <time>2022-02-24T18:26:31Z</time>
      </trkpt>
      <trkpt lat="46.40503" lon="5.57536">
        <ele>414.2</ele>
        <time>2022-02-24T18:26:32Z</time>
      </trkpt>
      <trkpt lat="46.40508" lon="5.57539">
        <ele>414.2</ele>
        <time>2022-02-24T18:26:33Z</time>
      </trkpt>
      <trkpt lat="46.40513" lon="5.57541">
        <ele>414.4</ele>
        <time>2022-02-24T18:26:34Z</time>
      </trkpt>
      <trkpt lat="46.40518" lon="5.57544">
        <ele>414.4</ele>
        <time>2022-02-24T18:26:35Z</time>
      </trkpt>
      <trkpt lat="46.40523" lon="5.57546">
        <ele>414.8</ele>
        <time>2022-02-24T18:26:36Z</time>
      </trkpt>
      <trkpt lat="46.40528" lon="5.57549">
        <ele>414.8</ele>
        <time>2022-02-24T18:26:37Z</time>
      </trkpt>
      <trkpt lat="46.40532" lon="5.57551">
        <ele>415.2</ele>
        <time>2022-02-24T18:26:38Z</time>
      </trkpt>
      <trkpt lat="46.40536" lon="5.57553">
        <ele>415.2</ele>
        <time>2022-02-24T18:26:39Z</time>
      </trkpt>
      <trkpt lat="46.40541" lon="5.57556">
        <ele>415.4</ele>
        <time>2022-02-24T18:26:40Z</time>
      </trkpt>
      <trkpt lat="46.40545" lon="5.57558">
        <ele>415.4</ele>
        <time>2022-02-24T18:26:41Z</time>
      </trkpt>
      <trkpt lat="46.40549" lon="5.5756">
        <ele>415.6</ele>
        <time>2022-02-24T18:26:42Z</time>
      </trkpt>
      <trkpt lat="46.40553" lon="5.57562">
        <ele>415.6</ele>
        <time>2022-02-24T18:26:43Z</time>
      </trkpt>
      <trkpt lat="46.40557" lon="5.57564">
        <ele>415.8</ele>
        <time>2022-02-24T18:26:44Z</time>
      </trkpt>
      <trkpt lat="46.40561" lon="5.57566">
        <ele>415.8</ele>
        <time>2022-02-24T18:26:45Z</time>
      </trkpt>
      <trkpt lat="46.40565" lon="5.57568">
        <ele>415.8</ele>
        <time>2022-02-24T18:26:46Z</time>
      </trkpt>
      <trkpt lat="46.40569" lon="5.57571">
        <ele>416.2</ele>
        <time>2022-02-24T18:26:47Z</time>
      </trkpt>
      <trkpt lat="46.40573" lon="5.57573">
        <ele>416.2</ele>
        <time>2022-02-24T18:26:48Z</time>
      </trkpt>
      <trkpt lat="46.40578" lon="5.57576">
        <ele>416.2</ele>
        <time>2022-02-24T18:26:49Z</time>
      </trkpt>
      <trkpt lat="46.40583" lon="5.57578">
        <ele>416.2</ele>
        <time>2022-02-24T18:26:50Z</time>
      </trkpt>
      <trkpt lat="46.40588" lon="5.57581">
        <ele>416.2</ele>
        <time>2022-02-24T18:26:51Z</time>
      </trkpt>
      <trkpt lat="46.40593" lon="5.57584">
        <ele>416.2</ele>
        <time>2022-02-24T18:26:52Z</time>
      </trkpt>
      <trkpt lat="46.40598" lon="5.57587">
        <ele>416.2</ele>
        <time>2022-02-24T18:26:53Z</time>
      </trkpt>
      <trkpt lat="46.40603" lon="5.57591">
        <ele>416.2</ele>
        <time>2022-02-24T18:26:54Z</time>
      </trkpt>
      <trkpt lat="46.40608" lon="5.57594">
        <ele>416.2</ele>
        <time>2022-02-24T18:26:55Z</time>
      </trkpt>
      <trkpt lat="46.40614" lon="5.57598">
        <ele>416</ele>
        <time>2022-02-24T18:26:56Z</time>
      </trkpt>
      <trkpt lat="46.4062" lon="5.57602">
        <ele>416</ele>
        <time>2022-02-24T18:26:57Z</time>
      </trkpt>
      <trkpt lat="46.40626" lon="5.57607">
        <ele>415.6</ele>
        <time>2022-02-24T18:26:58Z</time>
      </trkpt>
      <trkpt lat="46.40632" lon="5.57611">
        <ele>415.6</ele>
        <time>2022-02-24T18:26:59Z</time>
      </trkpt>
      <trkpt lat="46.40639" lon="5.57616">
        <ele>415.2</ele>
        <time>2022-02-24T18:27:00Z</time>
      </trkpt>
      <trkpt lat="46.40645" lon="5.5762">
        <ele>415</ele>
        <time>2022-02-24T18:27:01Z</time>
      </trkpt>
      <trkpt lat="46.40652" lon="5.57625">
        <ele>414.8</ele>
        <time>2022-02-24T18:27:02Z</time>
      </trkpt>
      <trkpt lat="46.40659" lon="5.57629">
        <ele>414.6</ele>
        <time>2022-02-24T18:27:03Z</time>
      </trkpt>
      <trkpt lat="46.40666" lon="5.57634">
        <ele>414.6</ele>
        <time>2022-02-24T18:27:04Z</time>
      </trkpt>
      <trkpt lat="46.40672" lon="5.57638">
        <ele>414.4</ele>
        <time>2022-02-24T18:27:05Z</time>
      </trkpt>
      <trkpt lat="46.40679" lon="5.57643">
        <ele>414.4</ele>
        <time>2022-02-24T18:27:06Z</time>
      </trkpt>
      <trkpt lat="46.40686" lon="5.57647">
        <ele>414.4</ele>
        <time>2022-02-24T18:27:07Z</time>
      </trkpt>
      <trkpt lat="46.40693" lon="5.57651">
        <ele>414.4</ele>
        <time>2022-02-24T18:27:08Z</time>
      </trkpt>
      <trkpt lat="46.407" lon="5.57655">
        <ele>414.4</ele>
        <time>2022-02-24T18:27:09Z</time>
      </trkpt>
      <trkpt lat="46.40707" lon="5.5766">
        <ele>414.4</ele>
        <time>2022-02-24T18:27:10Z</time>
      </trkpt>
      <trkpt lat="46.40713" lon="5.57664">
        <ele>414.4</ele>
        <time>2022-02-24T18:27:11Z</time>
      </trkpt>
      <trkpt lat="46.4072" lon="5.57668">
        <ele>414.4</ele>
        <time>2022-02-24T18:27:12Z</time>
      </trkpt>
      <trkpt lat="46.40726" lon="5.57672">
        <ele>414.4</ele>
        <time>2022-02-24T18:27:13Z</time>
      </trkpt>
      <trkpt lat="46.40733" lon="5.57675">
        <ele>414.4</ele>
        <time>2022-02-24T18:27:14Z</time>
      </trkpt>
      <trkpt lat="46.40739" lon="5.57679">
        <ele>414.6</ele>
        <time>2022-02-24T18:27:15Z</time>
      </trkpt>
      <trkpt lat="46.40745" lon="5.57682">
        <ele>414.6</ele>
        <time>2022-02-24T18:27:16Z</time>
      </trkpt>
      <trkpt lat="46.40751" lon="5.57686">
        <ele>414.8</ele>
        <time>2022-02-24T18:27:17Z</time>
      </trkpt>
      <trkpt lat="46.40757" lon="5.57689">
        <ele>414.8</ele>
        <time>2022-02-24T18:27:18Z</time>
      </trkpt>
      <trkpt lat="46.40763" lon="5.57693">
        <ele>415.2</ele>
        <time>2022-02-24T18:27:19Z</time>
      </trkpt>
      <trkpt lat="46.40768" lon="5.57696">
        <ele>415.2</ele>
        <time>2022-02-24T18:27:20Z</time>
      </trkpt>
      <trkpt lat="46.40774" lon="5.577">
        <ele>415.2</ele>
        <time>2022-02-24T18:27:21Z</time>
      </trkpt>
      <trkpt lat="46.4078" lon="5.57703">
        <ele>415.4</ele>
        <time>2022-02-24T18:27:22Z</time>
      </trkpt>
      <trkpt lat="46.40785" lon="5.57706">
        <ele>415.4</ele>
        <time>2022-02-24T18:27:23Z</time>
      </trkpt>
      <trkpt lat="46.4079" lon="5.57709">
        <ele>415.6</ele>
        <time>2022-02-24T18:27:24Z</time>
      </trkpt>
      <trkpt lat="46.40796" lon="5.57712">
        <ele>415.6</ele>
        <time>2022-02-24T18:27:25Z</time>
      </trkpt>
      <trkpt lat="46.40801" lon="5.57715">
        <ele>416</ele>
        <time>2022-02-24T18:27:26Z</time>
      </trkpt>
      <trkpt lat="46.40805" lon="5.57719">
        <ele>416.2</ele>
        <time>2022-02-24T18:27:27Z</time>
      </trkpt>
      <trkpt lat="46.4081" lon="5.57722">
        <ele>416.2</ele>
        <time>2022-02-24T18:27:28Z</time>
      </trkpt>
      <trkpt lat="46.40814" lon="5.57726">
        <ele>416.6</ele>
        <time>2022-02-24T18:27:29Z</time>
      </trkpt>
      <trkpt lat="46.40819" lon="5.57729">
        <ele>416.6</ele>
        <time>2022-02-24T18:27:30Z</time>
      </trkpt>
      <trkpt lat="46.40823" lon="5.57732">
        <ele>417</ele>
        <time>2022-02-24T18:27:31Z</time>
      </trkpt>
      <trkpt lat="46.40827" lon="5.57736">
        <ele>417</ele>
        <time>2022-02-24T18:27:32Z</time>
      </trkpt>
      <trkpt lat="46.40831" lon="5.5774">
        <ele>417.2</ele>
        <time>2022-02-24T18:27:33Z</time>
      </trkpt>
      <trkpt lat="46.40834" lon="5.57744">
        <ele>417.2</ele>
        <time>2022-02-24T18:27:34Z</time>
      </trkpt>
      <trkpt lat="46.40838" lon="5.57749">
        <ele>417.6</ele>
        <time>2022-02-24T18:27:35Z</time>
      </trkpt>
      <trkpt lat="46.40842" lon="5.57753">
        <ele>417.6</ele>
        <time>2022-02-24T18:27:36Z</time>
      </trkpt>
      <trkpt lat="46.40845" lon="5.57757">
        <ele>417.8</ele>
        <time>2022-02-24T18:27:37Z</time>
      </trkpt>
      <trkpt lat="46.40849" lon="5.57762">
        <ele>417.8</ele>
        <time>2022-02-24T18:27:38Z</time>
      </trkpt>
      <trkpt lat="46.40853" lon="5.57766">
        <ele>417.8</ele>
        <time>2022-02-24T18:27:39Z</time>
      </trkpt>
      <trkpt lat="46.40857" lon="5.5777">
        <ele>418</ele>
        <time>2022-02-24T18:27:40Z</time>
      </trkpt>
      <trkpt lat="46.40861" lon="5.57775">
        <ele>418</ele>
        <time>2022-02-24T18:27:41Z</time>
      </trkpt>
      <trkpt lat="46.40865" lon="5.57779">
        <ele>418.4</ele>
        <time>2022-02-24T18:27:42Z</time>
      </trkpt>
      <trkpt lat="46.40868" lon="5.57783">
        <ele>418.4</ele>
        <time>2022-02-24T18:27:43Z</time>
      </trkpt>
      <trkpt lat="46.40872" lon="5.57788">
        <ele>418.6</ele>
        <time>2022-02-24T18:27:44Z</time>
      </trkpt>
      <trkpt lat="46.40876" lon="5.57792">
        <ele>418.6</ele>
        <time>2022-02-24T18:27:45Z</time>
      </trkpt>
      <trkpt lat="46.4088" lon="5.57796">
        <ele>418.6</ele>
        <time>2022-02-24T18:27:46Z</time>
      </trkpt>
      <trkpt lat="46.40884" lon="5.578">
        <ele>418.6</ele>
        <time>2022-02-24T18:27:47Z</time>
      </trkpt>
      <trkpt lat="46.40888" lon="5.57804">
        <ele>418.8</ele>
        <time>2022-02-24T18:27:48Z</time>
      </trkpt>
      <trkpt lat="46.40892" lon="5.57808">
        <ele>418.8</ele>
        <time>2022-02-24T18:27:49Z</time>
      </trkpt>
      <trkpt lat="46.40896" lon="5.57812">
        <ele>418.8</ele>
        <time>2022-02-24T18:27:50Z</time>
      </trkpt>
      <trkpt lat="46.409" lon="5.57816">
        <ele>418.8</ele>
        <time>2022-02-24T18:27:51Z</time>
      </trkpt>
      <trkpt lat="46.40904" lon="5.5782">
        <ele>418.8</ele>
        <time>2022-02-24T18:27:52Z</time>
      </trkpt>
      <trkpt lat="46.40908" lon="5.57823">
        <ele>419.2</ele>
        <time>2022-02-24T18:27:53Z</time>
      </trkpt>
      <trkpt lat="46.40912" lon="5.57827">
        <ele>419.2</ele>
        <time>2022-02-24T18:27:54Z</time>
      </trkpt>
      <trkpt lat="46.40916" lon="5.57831">
        <ele>419.2</ele>
        <time>2022-02-24T18:27:55Z</time>
      </trkpt>
      <trkpt lat="46.40921" lon="5.57835">
        <ele>419.2</ele>
        <time>2022-02-24T18:27:56Z</time>
      </trkpt>
      <trkpt lat="46.40925" lon="5.57839">
        <ele>419.4</ele>
        <time>2022-02-24T18:27:57Z</time>
      </trkpt>
      <trkpt lat="46.40929" lon="5.57843">
        <ele>419.4</ele>
        <time>2022-02-24T18:27:58Z</time>
      </trkpt>
      <trkpt lat="46.40933" lon="5.57847">
        <ele>419.4</ele>
        <time>2022-02-24T18:27:59Z</time>
      </trkpt>
      <trkpt lat="46.40937" lon="5.57851">
        <ele>419.4</ele>
        <time>2022-02-24T18:28:00Z</time>
      </trkpt>
      <trkpt lat="46.40941" lon="5.57855">
        <ele>419.6</ele>
        <time>2022-02-24T18:28:01Z</time>
      </trkpt>
      <trkpt lat="46.40945" lon="5.57859">
        <ele>419.6</ele>
        <time>2022-02-24T18:28:02Z</time>
      </trkpt>
      <trkpt lat="46.4095" lon="5.57863">
        <ele>419.6</ele>
        <time>2022-02-24T18:28:03Z</time>
      </trkpt>
      <trkpt lat="46.40954" lon="5.57867">
        <ele>419.8</ele>
        <time>2022-02-24T18:28:04Z</time>
      </trkpt>
      <trkpt lat="46.40958" lon="5.57871">
        <ele>419.8</ele>
        <time>2022-02-24T18:28:05Z</time>
      </trkpt>
      <trkpt lat="46.40962" lon="5.57875">
        <ele>419.8</ele>
        <time>2022-02-24T18:28:06Z</time>
      </trkpt>
      <trkpt lat="46.40966" lon="5.57879">
        <ele>420.2</ele>
        <time>2022-02-24T18:28:07Z</time>
      </trkpt>
      <trkpt lat="46.40969" lon="5.57883">
        <ele>420.4</ele>
        <time>2022-02-24T18:28:08Z</time>
      </trkpt>
      <trkpt lat="46.40973" lon="5.57886">
        <ele>420.4</ele>
        <time>2022-02-24T18:28:09Z</time>
      </trkpt>
      <trkpt lat="46.40977" lon="5.5789">
        <ele>420.8</ele>
        <time>2022-02-24T18:28:10Z</time>
      </trkpt>
      <trkpt lat="46.4098" lon="5.57893">
        <ele>421</ele>
        <time>2022-02-24T18:28:11Z</time>
      </trkpt>
      <trkpt lat="46.40983" lon="5.57897">
        <ele>421.2</ele>
        <time>2022-02-24T18:28:12Z</time>
      </trkpt>
      <trkpt lat="46.40986" lon="5.579">
        <ele>421.6</ele>
        <time>2022-02-24T18:28:13Z</time>
      </trkpt>
      <trkpt lat="46.40989" lon="5.57903">
        <ele>421.8</ele>
        <time>2022-02-24T18:28:14Z</time>
      </trkpt>
      <trkpt lat="46.40992" lon="5.57905">
        <ele>422</ele>
        <time>2022-02-24T18:28:15Z</time>
      </trkpt>
      <trkpt lat="46.40995" lon="5.57908">
        <ele>422</ele>
        <time>2022-02-24T18:28:16Z</time>
      </trkpt>
      <trkpt lat="46.40998" lon="5.57911">
        <ele>422</ele>
        <time>2022-02-24T18:28:17Z</time>
      </trkpt>
      <trkpt lat="46.41001" lon="5.57915">
        <ele>422.4</ele>
        <time>2022-02-24T18:28:18Z</time>
      </trkpt>
      <trkpt lat="46.41005" lon="5.57919">
        <ele>422.4</ele>
        <time>2022-02-24T18:28:19Z</time>
      </trkpt>
      <trkpt lat="46.41008" lon="5.57922">
        <ele>422.4</ele>
        <time>2022-02-24T18:28:20Z</time>
      </trkpt>
      <trkpt lat="46.41012" lon="5.57926">
        <ele>422.4</ele>
        <time>2022-02-24T18:28:21Z</time>
      </trkpt>
      <trkpt lat="46.41016" lon="5.5793">
        <ele>422.4</ele>
        <time>2022-02-24T18:28:22Z</time>
      </trkpt>
      <trkpt lat="46.4102" lon="5.57934">
        <ele>422.4</ele>
        <time>2022-02-24T18:28:23Z</time>
      </trkpt>
      <trkpt lat="46.41024" lon="5.57938">
        <ele>422.4</ele>
        <time>2022-02-24T18:28:24Z</time>
      </trkpt>
      <trkpt lat="46.41028" lon="5.57942">
        <ele>422.4</ele>
        <time>2022-02-24T18:28:25Z</time>
      </trkpt>
      <trkpt lat="46.41032" lon="5.57946">
        <ele>422.4</ele>
        <time>2022-02-24T18:28:26Z</time>
      </trkpt>
      <trkpt lat="46.41037" lon="5.5795">
        <ele>422.4</ele>
        <time>2022-02-24T18:28:27Z</time>
      </trkpt>
      <trkpt lat="46.41041" lon="5.57954">
        <ele>422.4</ele>
        <time>2022-02-24T18:28:28Z</time>
      </trkpt>
      <trkpt lat="46.41046" lon="5.57958">
        <ele>422.4</ele>
        <time>2022-02-24T18:28:29Z</time>
      </trkpt>
      <trkpt lat="46.41051" lon="5.57962">
        <ele>422.4</ele>
        <time>2022-02-24T18:28:30Z</time>
      </trkpt>
      <trkpt lat="46.41055" lon="5.57966">
        <ele>422.4</ele>
        <time>2022-02-24T18:28:31Z</time>
      </trkpt>
      <trkpt lat="46.4106" lon="5.5797">
        <ele>422.4</ele>
        <time>2022-02-24T18:28:32Z</time>
      </trkpt>
      <trkpt lat="46.41065" lon="5.57975">
        <ele>422.4</ele>
        <time>2022-02-24T18:28:33Z</time>
      </trkpt>
      <trkpt lat="46.4107" lon="5.57979">
        <ele>422.4</ele>
        <time>2022-02-24T18:28:34Z</time>
      </trkpt>
      <trkpt lat="46.41074" lon="5.57983">
        <ele>422.4</ele>
        <time>2022-02-24T18:28:35Z</time>
      </trkpt>
      <trkpt lat="46.41079" lon="5.57987">
        <ele>422.6</ele>
        <time>2022-02-24T18:28:36Z</time>
      </trkpt>
      <trkpt lat="46.41084" lon="5.57992">
        <ele>422.6</ele>
        <time>2022-02-24T18:28:37Z</time>
      </trkpt>
      <trkpt lat="46.41089" lon="5.57996">
        <ele>422.6</ele>
        <time>2022-02-24T18:28:38Z</time>
      </trkpt>
      <trkpt lat="46.41093" lon="5.58">
        <ele>422.8</ele>
        <time>2022-02-24T18:28:39Z</time>
      </trkpt>
      <trkpt lat="46.41098" lon="5.58004">
        <ele>422.8</ele>
        <time>2022-02-24T18:28:40Z</time>
      </trkpt>
      <trkpt lat="46.41103" lon="5.58008">
        <ele>422.8</ele>
        <time>2022-02-24T18:28:41Z</time>
      </trkpt>
      <trkpt lat="46.41107" lon="5.58012">
        <ele>422.8</ele>
        <time>2022-02-24T18:28:42Z</time>
      </trkpt>
      <trkpt lat="46.41112" lon="5.58016">
        <ele>423</ele>
        <time>2022-02-24T18:28:43Z</time>
      </trkpt>
      <trkpt lat="46.41117" lon="5.58021">
        <ele>423</ele>
        <time>2022-02-24T18:28:44Z</time>
      </trkpt>
      <trkpt lat="46.41121" lon="5.58025">
        <ele>423.2</ele>
        <time>2022-02-24T18:28:45Z</time>
      </trkpt>
      <trkpt lat="46.41126" lon="5.58029">
        <ele>423.2</ele>
        <time>2022-02-24T18:28:46Z</time>
      </trkpt>
      <trkpt lat="46.4113" lon="5.58034">
        <ele>423.2</ele>
        <time>2022-02-24T18:28:47Z</time>
      </trkpt>
      <trkpt lat="46.41135" lon="5.58039">
        <ele>423.2</ele>
        <time>2022-02-24T18:28:48Z</time>
      </trkpt>
      <trkpt lat="46.41139" lon="5.58045">
        <ele>423.2</ele>
        <time>2022-02-24T18:28:49Z</time>
      </trkpt>
      <trkpt lat="46.41143" lon="5.5805">
        <ele>423.2</ele>
        <time>2022-02-24T18:28:50Z</time>
      </trkpt>
      <trkpt lat="46.41147" lon="5.58056">
        <ele>423.4</ele>
        <time>2022-02-24T18:28:51Z</time>
      </trkpt>
      <trkpt lat="46.41151" lon="5.58061">
        <ele>423.4</ele>
        <time>2022-02-24T18:28:52Z</time>
      </trkpt>
      <trkpt lat="46.41155" lon="5.58067">
        <ele>423.4</ele>
        <time>2022-02-24T18:28:53Z</time>
      </trkpt>
      <trkpt lat="46.41159" lon="5.58072">
        <ele>423.8</ele>
        <time>2022-02-24T18:28:54Z</time>
      </trkpt>
      <trkpt lat="46.41163" lon="5.58078">
        <ele>423.8</ele>
        <time>2022-02-24T18:28:55Z</time>
      </trkpt>
      <trkpt lat="46.41166" lon="5.58084">
        <ele>423.8</ele>
        <time>2022-02-24T18:28:56Z</time>
      </trkpt>
      <trkpt lat="46.41169" lon="5.5809">
        <ele>424</ele>
        <time>2022-02-24T18:28:57Z</time>
      </trkpt>
      <trkpt lat="46.41172" lon="5.58096">
        <ele>424</ele>
        <time>2022-02-24T18:28:58Z</time>
      </trkpt>
      <trkpt lat="46.41175" lon="5.58102">
        <ele>424</ele>
        <time>2022-02-24T18:28:59Z</time>
      </trkpt>
      <trkpt lat="46.41177" lon="5.58108">
        <ele>424.2</ele>
        <time>2022-02-24T18:29:00Z</time>
      </trkpt>
      <trkpt lat="46.4118" lon="5.58114">
        <ele>424.2</ele>
        <time>2022-02-24T18:29:01Z</time>
      </trkpt>
      <trkpt lat="46.41182" lon="5.5812">
        <ele>424.4</ele>
        <time>2022-02-24T18:29:02Z</time>
      </trkpt>
      <trkpt lat="46.41185" lon="5.58126">
        <ele>424.4</ele>
        <time>2022-02-24T18:29:03Z</time>
      </trkpt>
      <trkpt lat="46.41187" lon="5.58132">
        <ele>424.6</ele>
        <time>2022-02-24T18:29:04Z</time>
      </trkpt>
      <trkpt lat="46.4119" lon="5.58138">
        <ele>424.6</ele>
        <time>2022-02-24T18:29:05Z</time>
      </trkpt>
      <trkpt lat="46.41192" lon="5.58144">
        <ele>424.6</ele>
        <time>2022-02-24T18:29:06Z</time>
      </trkpt>
      <trkpt lat="46.41194" lon="5.5815">
        <ele>425</ele>
        <time>2022-02-24T18:29:07Z</time>
      </trkpt>
      <trkpt lat="46.41197" lon="5.58155">
        <ele>425.2</ele>
        <time>2022-02-24T18:29:08Z</time>
      </trkpt>
      <trkpt lat="46.41199" lon="5.58161">
        <ele>425.2</ele>
        <time>2022-02-24T18:29:09Z</time>
      </trkpt>
      <trkpt lat="46.41201" lon="5.58166">
        <ele>425.6</ele>
        <time>2022-02-24T18:29:10Z</time>
      </trkpt>
      <trkpt lat="46.41203" lon="5.5817">
        <ele>425.8</ele>
        <time>2022-02-24T18:29:11Z</time>
      </trkpt>
      <trkpt lat="46.41205" lon="5.58175">
        <ele>425.8</ele>
        <time>2022-02-24T18:29:12Z</time>
      </trkpt>
      <trkpt lat="46.41207" lon="5.58179">
        <ele>426</ele>
        <time>2022-02-24T18:29:13Z</time>
      </trkpt>
      <trkpt lat="46.41209" lon="5.58184">
        <ele>426</ele>
        <time>2022-02-24T18:29:14Z</time>
      </trkpt>
      <trkpt lat="46.4121" lon="5.58189">
        <ele>426.4</ele>
        <time>2022-02-24T18:29:15Z</time>
      </trkpt>
      <trkpt lat="46.41212" lon="5.58194">
        <ele>426.4</ele>
        <time>2022-02-24T18:29:16Z</time>
      </trkpt>
      <trkpt lat="46.41214" lon="5.58199">
        <ele>426.4</ele>
        <time>2022-02-24T18:29:17Z</time>
      </trkpt>
      <trkpt lat="46.41215" lon="5.58204">
        <ele>426.6</ele>
        <time>2022-02-24T18:29:18Z</time>
      </trkpt>
      <trkpt lat="46.41217" lon="5.58209">
        <ele>426.6</ele>
        <time>2022-02-24T18:29:19Z</time>
      </trkpt>
      <trkpt lat="46.41219" lon="5.58214">
        <ele>426.6</ele>
        <time>2022-02-24T18:29:20Z</time>
      </trkpt>
      <trkpt lat="46.41221" lon="5.58219">
        <ele>426.6</ele>
        <time>2022-02-24T18:29:21Z</time>
      </trkpt>
      <trkpt lat="46.41223" lon="5.58225">
        <ele>426.6</ele>
        <time>2022-02-24T18:29:22Z</time>
      </trkpt>
      <trkpt lat="46.41225" lon="5.5823">
        <ele>426.6</ele>
        <time>2022-02-24T18:29:23Z</time>
      </trkpt>
      <trkpt lat="46.41227" lon="5.58236">
        <ele>426.6</ele>
        <time>2022-02-24T18:29:24Z</time>
      </trkpt>
      <trkpt lat="46.41229" lon="5.58242">
        <ele>426.6</ele>
        <time>2022-02-24T18:29:25Z</time>
      </trkpt>
      <trkpt lat="46.41231" lon="5.58249">
        <ele>426.6</ele>
        <time>2022-02-24T18:29:26Z</time>
      </trkpt>
      <trkpt lat="46.41234" lon="5.58255">
        <ele>426.6</ele>
        <time>2022-02-24T18:29:27Z</time>
      </trkpt>
      <trkpt lat="46.41237" lon="5.58261">
        <ele>426.6</ele>
        <time>2022-02-24T18:29:28Z</time>
      </trkpt>
      <trkpt lat="46.4124" lon="5.58268">
        <ele>426.4</ele>
        <time>2022-02-24T18:29:29Z</time>
      </trkpt>
      <trkpt lat="46.41243" lon="5.58275">
        <ele>426.4</ele>
        <time>2022-02-24T18:29:30Z</time>
      </trkpt>
      <trkpt lat="46.41246" lon="5.58282">
        <ele>426</ele>
        <time>2022-02-24T18:29:31Z</time>
      </trkpt>
      <trkpt lat="46.4125" lon="5.5829">
        <ele>426</ele>
        <time>2022-02-24T18:29:32Z</time>
      </trkpt>
      <trkpt lat="46.41254" lon="5.58297">
        <ele>425.8</ele>
        <time>2022-02-24T18:29:33Z</time>
      </trkpt>
      <trkpt lat="46.41258" lon="5.58303">
        <ele>425.8</ele>
        <time>2022-02-24T18:29:34Z</time>
      </trkpt>
      <trkpt lat="46.41262" lon="5.5831">
        <ele>425.8</ele>
        <time>2022-02-24T18:29:35Z</time>
      </trkpt>
      <trkpt lat="46.41267" lon="5.58317">
        <ele>425.6</ele>
        <time>2022-02-24T18:29:36Z</time>
      </trkpt>
      <trkpt lat="46.41271" lon="5.58324">
        <ele>425.6</ele>
        <time>2022-02-24T18:29:37Z</time>
      </trkpt>
      <trkpt lat="46.41275" lon="5.58331">
        <ele>425.6</ele>
        <time>2022-02-24T18:29:38Z</time>
      </trkpt>
      <trkpt lat="46.4128" lon="5.58338">
        <ele>425.6</ele>
        <time>2022-02-24T18:29:39Z</time>
      </trkpt>
      <trkpt lat="46.41289" lon="5.58352">
        <ele>425.6</ele>
        <time>2022-02-24T18:29:40Z</time>
      </trkpt>
      <trkpt lat="46.41294" lon="5.58358">
        <ele>425.6</ele>
        <time>2022-02-24T18:29:41Z</time>
      </trkpt>
      <trkpt lat="46.41299" lon="5.58365">
        <ele>425.6</ele>
        <time>2022-02-24T18:29:42Z</time>
      </trkpt>
      <trkpt lat="46.41303" lon="5.58372">
        <ele>425.6</ele>
        <time>2022-02-24T18:29:43Z</time>
      </trkpt>
      <trkpt lat="46.41308" lon="5.58379">
        <ele>425.2</ele>
        <time>2022-02-24T18:29:44Z</time>
      </trkpt>
      <trkpt lat="46.41313" lon="5.58385">
        <ele>425.2</ele>
        <time>2022-02-24T18:29:45Z</time>
      </trkpt>
      <trkpt lat="46.41317" lon="5.58392">
        <ele>425.2</ele>
        <time>2022-02-24T18:29:46Z</time>
      </trkpt>
      <trkpt lat="46.41322" lon="5.58398">
        <ele>425.2</ele>
        <time>2022-02-24T18:29:47Z</time>
      </trkpt>
      <trkpt lat="46.41326" lon="5.58405">
        <ele>425.2</ele>
        <time>2022-02-24T18:29:48Z</time>
      </trkpt>
      <trkpt lat="46.41331" lon="5.58411">
        <ele>425.2</ele>
        <time>2022-02-24T18:29:49Z</time>
      </trkpt>
      <trkpt lat="46.41335" lon="5.58418">
        <ele>425.2</ele>
        <time>2022-02-24T18:29:50Z</time>
      </trkpt>
      <trkpt lat="46.4134" lon="5.58424">
        <ele>425.2</ele>
        <time>2022-02-24T18:29:51Z</time>
      </trkpt>
      <trkpt lat="46.41344" lon="5.58429">
        <ele>425.4</ele>
        <time>2022-02-24T18:29:52Z</time>
      </trkpt>
      <trkpt lat="46.41348" lon="5.58435">
        <ele>425.4</ele>
        <time>2022-02-24T18:29:53Z</time>
      </trkpt>
      <trkpt lat="46.41352" lon="5.5844">
        <ele>425.6</ele>
        <time>2022-02-24T18:29:54Z</time>
      </trkpt>
      <trkpt lat="46.41356" lon="5.58446">
        <ele>425.6</ele>
        <time>2022-02-24T18:29:55Z</time>
      </trkpt>
      <trkpt lat="46.4136" lon="5.58451">
        <ele>425.6</ele>
        <time>2022-02-24T18:29:56Z</time>
      </trkpt>
      <trkpt lat="46.41363" lon="5.58456">
        <ele>426</ele>
        <time>2022-02-24T18:29:57Z</time>
      </trkpt>
      <trkpt lat="46.41367" lon="5.5846">
        <ele>426</ele>
        <time>2022-02-24T18:29:58Z</time>
      </trkpt>
      <trkpt lat="46.4137" lon="5.58465">
        <ele>426</ele>
        <time>2022-02-24T18:29:59Z</time>
      </trkpt>
      <trkpt lat="46.41374" lon="5.5847">
        <ele>426</ele>
        <time>2022-02-24T18:30:00Z</time>
      </trkpt>
      <trkpt lat="46.41377" lon="5.58475">
        <ele>426</ele>
        <time>2022-02-24T18:30:01Z</time>
      </trkpt>
      <trkpt lat="46.41381" lon="5.5848">
        <ele>426</ele>
        <time>2022-02-24T18:30:02Z</time>
      </trkpt>
      <trkpt lat="46.41385" lon="5.58485">
        <ele>426</ele>
        <time>2022-02-24T18:30:03Z</time>
      </trkpt>
      <trkpt lat="46.41389" lon="5.58491">
        <ele>425.6</ele>
        <time>2022-02-24T18:30:04Z</time>
      </trkpt>
      <trkpt lat="46.41392" lon="5.58497">
        <ele>425.6</ele>
        <time>2022-02-24T18:30:05Z</time>
      </trkpt>
      <trkpt lat="46.41395" lon="5.58504">
        <ele>425.4</ele>
        <time>2022-02-24T18:30:06Z</time>
      </trkpt>
      <trkpt lat="46.41398" lon="5.58512">
        <ele>425.2</ele>
        <time>2022-02-24T18:30:07Z</time>
      </trkpt>
      <trkpt lat="46.414" lon="5.5852">
        <ele>424.8</ele>
        <time>2022-02-24T18:30:08Z</time>
      </trkpt>
      <trkpt lat="46.41402" lon="5.5853">
        <ele>424.4</ele>
        <time>2022-02-24T18:30:09Z</time>
      </trkpt>
      <trkpt lat="46.41402" lon="5.5854">
        <ele>424.2</ele>
        <time>2022-02-24T18:30:10Z</time>
      </trkpt>
      <trkpt lat="46.41401" lon="5.5855">
        <ele>423.8</ele>
        <time>2022-02-24T18:30:11Z</time>
      </trkpt>
      <trkpt lat="46.41399" lon="5.5856">
        <ele>423.4</ele>
        <time>2022-02-24T18:30:12Z</time>
      </trkpt>
      <trkpt lat="46.41397" lon="5.5857">
        <ele>423</ele>
        <time>2022-02-24T18:30:13Z</time>
      </trkpt>
      <trkpt lat="46.41394" lon="5.58581">
        <ele>422.6</ele>
        <time>2022-02-24T18:30:14Z</time>
      </trkpt>
      <trkpt lat="46.41391" lon="5.58592">
        <ele>422</ele>
        <time>2022-02-24T18:30:15Z</time>
      </trkpt>
      <trkpt lat="46.41389" lon="5.58604">
        <ele>421.6</ele>
        <time>2022-02-24T18:30:16Z</time>
      </trkpt>
      <trkpt lat="46.41386" lon="5.58615">
        <ele>421</ele>
        <time>2022-02-24T18:30:17Z</time>
      </trkpt>
      <trkpt lat="46.41383" lon="5.58626">
        <ele>420.4</ele>
        <time>2022-02-24T18:30:18Z</time>
      </trkpt>
      <trkpt lat="46.4138" lon="5.58637">
        <ele>419.8</ele>
        <time>2022-02-24T18:30:19Z</time>
      </trkpt>
      <trkpt lat="46.41376" lon="5.58648">
        <ele>419.2</ele>
        <time>2022-02-24T18:30:20Z</time>
      </trkpt>
      <trkpt lat="46.41372" lon="5.58658">
        <ele>418.6</ele>
        <time>2022-02-24T18:30:21Z</time>
      </trkpt>
      <trkpt lat="46.41368" lon="5.58668">
        <ele>418</ele>
        <time>2022-02-24T18:30:22Z</time>
      </trkpt>
      <trkpt lat="46.41364" lon="5.58677">
        <ele>417.4</ele>
        <time>2022-02-24T18:30:23Z</time>
      </trkpt>
      <trkpt lat="46.4136" lon="5.58684">
        <ele>417</ele>
        <time>2022-02-24T18:30:24Z</time>
      </trkpt>
      <trkpt lat="46.41356" lon="5.58692">
        <ele>416.4</ele>
        <time>2022-02-24T18:30:25Z</time>
      </trkpt>
      <trkpt lat="46.41354" lon="5.587">
        <ele>415.8</ele>
        <time>2022-02-24T18:30:26Z</time>
      </trkpt>
      <trkpt lat="46.41351" lon="5.58708">
        <ele>415.4</ele>
        <time>2022-02-24T18:30:27Z</time>
      </trkpt>
      <trkpt lat="46.4135" lon="5.58715">
        <ele>415</ele>
        <time>2022-02-24T18:30:28Z</time>
      </trkpt>
      <trkpt lat="46.4135" lon="5.58721">
        <ele>414.6</ele>
        <time>2022-02-24T18:30:29Z</time>
      </trkpt>
      <trkpt lat="46.4135" lon="5.58728">
        <ele>414.2</ele>
        <time>2022-02-24T18:30:30Z</time>
      </trkpt>
      <trkpt lat="46.41353" lon="5.58733">
        <ele>413.8</ele>
        <time>2022-02-24T18:30:31Z</time>
      </trkpt>
      <trkpt lat="46.41356" lon="5.58736">
        <ele>413.6</ele>
        <time>2022-02-24T18:30:32Z</time>
      </trkpt>
      <trkpt lat="46.41361" lon="5.58737">
        <ele>413.2</ele>
        <time>2022-02-24T18:30:33Z</time>
      </trkpt>
      <trkpt lat="46.41365" lon="5.58737">
        <ele>413.2</ele>
        <time>2022-02-24T18:30:34Z</time>
      </trkpt>
      <trkpt lat="46.4137" lon="5.58735">
        <ele>412.8</ele>
        <time>2022-02-24T18:30:35Z</time>
      </trkpt>
      <trkpt lat="46.41375" lon="5.58733">
        <ele>412.8</ele>
        <time>2022-02-24T18:30:36Z</time>
      </trkpt>
      <trkpt lat="46.41379" lon="5.5873">
        <ele>412.8</ele>
        <time>2022-02-24T18:30:37Z</time>
      </trkpt>
      <trkpt lat="46.41384" lon="5.58728">
        <ele>412.8</ele>
        <time>2022-02-24T18:30:38Z</time>
      </trkpt>
      <trkpt lat="46.41388" lon="5.58725">
        <ele>412.8</ele>
        <time>2022-02-24T18:30:39Z</time>
      </trkpt>
      <trkpt lat="46.41393" lon="5.58723">
        <ele>413.2</ele>
        <time>2022-02-24T18:30:40Z</time>
      </trkpt>
      <trkpt lat="46.41397" lon="5.5872">
        <ele>413.2</ele>
        <time>2022-02-24T18:30:41Z</time>
      </trkpt>
      <trkpt lat="46.41401" lon="5.58718">
        <ele>413.2</ele>
        <time>2022-02-24T18:30:42Z</time>
      </trkpt>
      <trkpt lat="46.41406" lon="5.58715">
        <ele>413.4</ele>
        <time>2022-02-24T18:30:43Z</time>
      </trkpt>
      <trkpt lat="46.4141" lon="5.58713">
        <ele>413.4</ele>
        <time>2022-02-24T18:30:44Z</time>
      </trkpt>
      <trkpt lat="46.41414" lon="5.5871">
        <ele>413.8</ele>
        <time>2022-02-24T18:30:45Z</time>
      </trkpt>
      <trkpt lat="46.41418" lon="5.58708">
        <ele>413.8</ele>
        <time>2022-02-24T18:30:46Z</time>
      </trkpt>
      <trkpt lat="46.41422" lon="5.58706">
        <ele>414</ele>
        <time>2022-02-24T18:30:47Z</time>
      </trkpt>
      <trkpt lat="46.41426" lon="5.58704">
        <ele>414.2</ele>
        <time>2022-02-24T18:30:48Z</time>
      </trkpt>
      <trkpt lat="46.4143" lon="5.58702">
        <ele>414.4</ele>
        <time>2022-02-24T18:30:49Z</time>
      </trkpt>
      <trkpt lat="46.41433" lon="5.587">
        <ele>414.6</ele>
        <time>2022-02-24T18:30:50Z</time>
      </trkpt>
      <trkpt lat="46.41437" lon="5.58698">
        <ele>415</ele>
        <time>2022-02-24T18:30:51Z</time>
      </trkpt>
      <trkpt lat="46.41441" lon="5.58696">
        <ele>415.2</ele>
        <time>2022-02-24T18:30:52Z</time>
      </trkpt>
      <trkpt lat="46.41444" lon="5.58694">
        <ele>415.6</ele>
        <time>2022-02-24T18:30:53Z</time>
      </trkpt>
      <trkpt lat="46.41448" lon="5.58692">
        <ele>415.6</ele>
        <time>2022-02-24T18:30:54Z</time>
      </trkpt>
      <trkpt lat="46.41452" lon="5.5869">
        <ele>416</ele>
        <time>2022-02-24T18:30:55Z</time>
      </trkpt>
      <trkpt lat="46.41455" lon="5.58688">
        <ele>416.2</ele>
        <time>2022-02-24T18:30:56Z</time>
      </trkpt>
      <trkpt lat="46.41459" lon="5.58685">
        <ele>416.4</ele>
        <time>2022-02-24T18:30:57Z</time>
      </trkpt>
      <trkpt lat="46.41463" lon="5.58683">
        <ele>416.8</ele>
        <time>2022-02-24T18:30:58Z</time>
      </trkpt>
      <trkpt lat="46.41467" lon="5.58681">
        <ele>417</ele>
        <time>2022-02-24T18:30:59Z</time>
      </trkpt>
      <trkpt lat="46.4147" lon="5.58679">
        <ele>417.4</ele>
        <time>2022-02-24T18:31:00Z</time>
      </trkpt>
      <trkpt lat="46.41474" lon="5.58677">
        <ele>417.6</ele>
        <time>2022-02-24T18:31:01Z</time>
      </trkpt>
      <trkpt lat="46.41478" lon="5.58675">
        <ele>417.8</ele>
        <time>2022-02-24T18:31:02Z</time>
      </trkpt>
      <trkpt lat="46.41482" lon="5.58673">
        <ele>418</ele>
        <time>2022-02-24T18:31:03Z</time>
      </trkpt>
      <trkpt lat="46.41485" lon="5.58671">
        <ele>418.2</ele>
        <time>2022-02-24T18:31:04Z</time>
      </trkpt>
      <trkpt lat="46.41489" lon="5.58669">
        <ele>418.4</ele>
        <time>2022-02-24T18:31:05Z</time>
      </trkpt>
      <trkpt lat="46.41492" lon="5.58667">
        <ele>418.8</ele>
        <time>2022-02-24T18:31:06Z</time>
      </trkpt>
      <trkpt lat="46.41496" lon="5.58666">
        <ele>419</ele>
        <time>2022-02-24T18:31:07Z</time>
      </trkpt>
      <trkpt lat="46.415" lon="5.58666">
        <ele>419.2</ele>
        <time>2022-02-24T18:31:08Z</time>
      </trkpt>
      <trkpt lat="46.41504" lon="5.58666">
        <ele>419.6</ele>
        <time>2022-02-24T18:31:09Z</time>
      </trkpt>
      <trkpt lat="46.41509" lon="5.58667">
        <ele>419.6</ele>
        <time>2022-02-24T18:31:10Z</time>
      </trkpt>
      <trkpt lat="46.41513" lon="5.58668">
        <ele>420</ele>
        <time>2022-02-24T18:31:11Z</time>
      </trkpt>
      <trkpt lat="46.41517" lon="5.58668">
        <ele>420.4</ele>
        <time>2022-02-24T18:31:12Z</time>
      </trkpt>
      <trkpt lat="46.41521" lon="5.58669">
        <ele>420.6</ele>
        <time>2022-02-24T18:31:13Z</time>
      </trkpt>
      <trkpt lat="46.41525" lon="5.5867">
        <ele>420.6</ele>
        <time>2022-02-24T18:31:14Z</time>
      </trkpt>
      <trkpt lat="46.41528" lon="5.58671">
        <ele>420.8</ele>
        <time>2022-02-24T18:31:15Z</time>
      </trkpt>
      <trkpt lat="46.41532" lon="5.58673">
        <ele>420.8</ele>
        <time>2022-02-24T18:31:16Z</time>
      </trkpt>
      <trkpt lat="46.41535" lon="5.58674">
        <ele>421.2</ele>
        <time>2022-02-24T18:31:17Z</time>
      </trkpt>
      <trkpt lat="46.41539" lon="5.58676">
        <ele>421.2</ele>
        <time>2022-02-24T18:31:18Z</time>
      </trkpt>
      <trkpt lat="46.41542" lon="5.58678">
        <ele>421.2</ele>
        <time>2022-02-24T18:31:19Z</time>
      </trkpt>
      <trkpt lat="46.41546" lon="5.5868">
        <ele>421.4</ele>
        <time>2022-02-24T18:31:20Z</time>
      </trkpt>
      <trkpt lat="46.41551" lon="5.58681">
        <ele>421.4</ele>
        <time>2022-02-24T18:31:21Z</time>
      </trkpt>
      <trkpt lat="46.41555" lon="5.58683">
        <ele>421.4</ele>
        <time>2022-02-24T18:31:22Z</time>
      </trkpt>
      <trkpt lat="46.4156" lon="5.58685">
        <ele>421.4</ele>
        <time>2022-02-24T18:31:23Z</time>
      </trkpt>
      <trkpt lat="46.41565" lon="5.58687">
        <ele>421.4</ele>
        <time>2022-02-24T18:31:24Z</time>
      </trkpt>
      <trkpt lat="46.4157" lon="5.58689">
        <ele>421.4</ele>
        <time>2022-02-24T18:31:25Z</time>
      </trkpt>
      <trkpt lat="46.41575" lon="5.58691">
        <ele>421.4</ele>
        <time>2022-02-24T18:31:26Z</time>
      </trkpt>
      <trkpt lat="46.4158" lon="5.58693">
        <ele>421.4</ele>
        <time>2022-02-24T18:31:27Z</time>
      </trkpt>
      <trkpt lat="46.41586" lon="5.58695">
        <ele>421.4</ele>
        <time>2022-02-24T18:31:28Z</time>
      </trkpt>
      <trkpt lat="46.41591" lon="5.58698">
        <ele>421.2</ele>
        <time>2022-02-24T18:31:29Z</time>
      </trkpt>
      <trkpt lat="46.41596" lon="5.587">
        <ele>421.2</ele>
        <time>2022-02-24T18:31:30Z</time>
      </trkpt>
      <trkpt lat="46.41602" lon="5.58703">
        <ele>421.2</ele>
        <time>2022-02-24T18:31:31Z</time>
      </trkpt>
      <trkpt lat="46.41607" lon="5.58706">
        <ele>421.2</ele>
        <time>2022-02-24T18:31:32Z</time>
      </trkpt>
      <trkpt lat="46.41613" lon="5.58708">
        <ele>421</ele>
        <time>2022-02-24T18:31:33Z</time>
      </trkpt>
      <trkpt lat="46.41618" lon="5.58711">
        <ele>421</ele>
        <time>2022-02-24T18:31:34Z</time>
      </trkpt>
      <trkpt lat="46.41624" lon="5.58713">
        <ele>421</ele>
        <time>2022-02-24T18:31:35Z</time>
      </trkpt>
      <trkpt lat="46.4163" lon="5.58716">
        <ele>421</ele>
        <time>2022-02-24T18:31:36Z</time>
      </trkpt>
      <trkpt lat="46.41636" lon="5.58718">
        <ele>420.8</ele>
        <time>2022-02-24T18:31:37Z</time>
      </trkpt>
      <trkpt lat="46.41642" lon="5.58721">
        <ele>420.8</ele>
        <time>2022-02-24T18:31:38Z</time>
      </trkpt>
      <trkpt lat="46.41648" lon="5.58723">
        <ele>420.8</ele>
        <time>2022-02-24T18:31:39Z</time>
      </trkpt>
      <trkpt lat="46.41654" lon="5.58726">
        <ele>420.4</ele>
        <time>2022-02-24T18:31:40Z</time>
      </trkpt>
      <trkpt lat="46.41661" lon="5.58729">
        <ele>420.4</ele>
        <time>2022-02-24T18:31:41Z</time>
      </trkpt>
      <trkpt lat="46.41667" lon="5.58731">
        <ele>420.2</ele>
        <time>2022-02-24T18:31:42Z</time>
      </trkpt>
      <trkpt lat="46.41674" lon="5.58734">
        <ele>420.2</ele>
        <time>2022-02-24T18:31:43Z</time>
      </trkpt>
      <trkpt lat="46.41681" lon="5.58736">
        <ele>420</ele>
        <time>2022-02-24T18:31:44Z</time>
      </trkpt>
      <trkpt lat="46.41688" lon="5.58739">
        <ele>420</ele>
        <time>2022-02-24T18:31:45Z</time>
      </trkpt>
      <trkpt lat="46.41695" lon="5.58741">
        <ele>419.6</ele>
        <time>2022-02-24T18:31:46Z</time>
      </trkpt>
      <trkpt lat="46.41703" lon="5.58744">
        <ele>419.6</ele>
        <time>2022-02-24T18:31:47Z</time>
      </trkpt>
      <trkpt lat="46.4171" lon="5.58746">
        <ele>419.4</ele>
        <time>2022-02-24T18:31:48Z</time>
      </trkpt>
      <trkpt lat="46.41717" lon="5.58749">
        <ele>419.4</ele>
        <time>2022-02-24T18:31:49Z</time>
      </trkpt>
      <trkpt lat="46.41725" lon="5.58751">
        <ele>419</ele>
        <time>2022-02-24T18:31:50Z</time>
      </trkpt>
      <trkpt lat="46.41732" lon="5.58753">
        <ele>419</ele>
        <time>2022-02-24T18:31:51Z</time>
      </trkpt>
      <trkpt lat="46.4174" lon="5.58754">
        <ele>418.4</ele>
        <time>2022-02-24T18:31:52Z</time>
      </trkpt>
      <trkpt lat="46.41748" lon="5.58755">
        <ele>418.2</ele>
        <time>2022-02-24T18:31:53Z</time>
      </trkpt>
      <trkpt lat="46.41757" lon="5.58756">
        <ele>418</ele>
        <time>2022-02-24T18:31:54Z</time>
      </trkpt>
      <trkpt lat="46.41765" lon="5.58757">
        <ele>417.6</ele>
        <time>2022-02-24T18:31:55Z</time>
      </trkpt>
      <trkpt lat="46.41774" lon="5.58758">
        <ele>417.2</ele>
        <time>2022-02-24T18:31:56Z</time>
      </trkpt>
      <trkpt lat="46.41782" lon="5.58759">
        <ele>416.8</ele>
        <time>2022-02-24T18:31:57Z</time>
      </trkpt>
      <trkpt lat="46.41791" lon="5.58759">
        <ele>416.4</ele>
        <time>2022-02-24T18:31:58Z</time>
      </trkpt>
      <trkpt lat="46.418" lon="5.58759">
        <ele>416</ele>
        <time>2022-02-24T18:31:59Z</time>
      </trkpt>
      <trkpt lat="46.41809" lon="5.58759">
        <ele>415.4</ele>
        <time>2022-02-24T18:32:00Z</time>
      </trkpt>
      <trkpt lat="46.41818" lon="5.58759">
        <ele>414.8</ele>
        <time>2022-02-24T18:32:01Z</time>
      </trkpt>
      <trkpt lat="46.41827" lon="5.58757">
        <ele>414.2</ele>
        <time>2022-02-24T18:32:02Z</time>
      </trkpt>
      <trkpt lat="46.41835" lon="5.58756">
        <ele>413.6</ele>
        <time>2022-02-24T18:32:03Z</time>
      </trkpt>
      <trkpt lat="46.41844" lon="5.58754">
        <ele>413</ele>
        <time>2022-02-24T18:32:04Z</time>
      </trkpt>
      <trkpt lat="46.41854" lon="5.58752">
        <ele>412.6</ele>
        <time>2022-02-24T18:32:05Z</time>
      </trkpt>
      <trkpt lat="46.41862" lon="5.5875">
        <ele>412</ele>
        <time>2022-02-24T18:32:06Z</time>
      </trkpt>
      <trkpt lat="46.41871" lon="5.58747">
        <ele>411.6</ele>
        <time>2022-02-24T18:32:07Z</time>
      </trkpt>
      <trkpt lat="46.4188" lon="5.58743">
        <ele>411</ele>
        <time>2022-02-24T18:32:08Z</time>
      </trkpt>
      <trkpt lat="46.41888" lon="5.58738">
        <ele>410.4</ele>
        <time>2022-02-24T18:32:09Z</time>
      </trkpt>
      <trkpt lat="46.41896" lon="5.58733">
        <ele>410</ele>
        <time>2022-02-24T18:32:10Z</time>
      </trkpt>
      <trkpt lat="46.41905" lon="5.58727">
        <ele>409.6</ele>
        <time>2022-02-24T18:32:11Z</time>
      </trkpt>
      <trkpt lat="46.41913" lon="5.5872">
        <ele>409.2</ele>
        <time>2022-02-24T18:32:12Z</time>
      </trkpt>
      <trkpt lat="46.41921" lon="5.58712">
        <ele>409</ele>
        <time>2022-02-24T18:32:13Z</time>
      </trkpt>
      <trkpt lat="46.41928" lon="5.58704">
        <ele>409</ele>
        <time>2022-02-24T18:32:14Z</time>
      </trkpt>
      <trkpt lat="46.41935" lon="5.58696">
        <ele>408.8</ele>
        <time>2022-02-24T18:32:15Z</time>
      </trkpt>
      <trkpt lat="46.41942" lon="5.5869">
        <ele>408.8</ele>
        <time>2022-02-24T18:32:16Z</time>
      </trkpt>
      <trkpt lat="46.41948" lon="5.58684">
        <ele>408.8</ele>
        <time>2022-02-24T18:32:17Z</time>
      </trkpt>
      <trkpt lat="46.41955" lon="5.58678">
        <ele>408.8</ele>
        <time>2022-02-24T18:32:18Z</time>
      </trkpt>
      <trkpt lat="46.41962" lon="5.58673">
        <ele>408.8</ele>
        <time>2022-02-24T18:32:19Z</time>
      </trkpt>
      <trkpt lat="46.41968" lon="5.58668">
        <ele>408.8</ele>
        <time>2022-02-24T18:32:20Z</time>
      </trkpt>
      <trkpt lat="46.41975" lon="5.58663">
        <ele>408.8</ele>
        <time>2022-02-24T18:32:21Z</time>
      </trkpt>
      <trkpt lat="46.41981" lon="5.58658">
        <ele>409</ele>
        <time>2022-02-24T18:32:22Z</time>
      </trkpt>
      <trkpt lat="46.41987" lon="5.58652">
        <ele>409</ele>
        <time>2022-02-24T18:32:23Z</time>
      </trkpt>
      <trkpt lat="46.41994" lon="5.58647">
        <ele>409</ele>
        <time>2022-02-24T18:32:24Z</time>
      </trkpt>
      <trkpt lat="46.42" lon="5.58642">
        <ele>409</ele>
        <time>2022-02-24T18:32:25Z</time>
      </trkpt>
      <trkpt lat="46.42005" lon="5.58637">
        <ele>409</ele>
        <time>2022-02-24T18:32:26Z</time>
      </trkpt>
      <trkpt lat="46.42011" lon="5.58631">
        <ele>409.4</ele>
        <time>2022-02-24T18:32:27Z</time>
      </trkpt>
      <trkpt lat="46.42016" lon="5.58626">
        <ele>409.4</ele>
        <time>2022-02-24T18:32:28Z</time>
      </trkpt>
      <trkpt lat="46.42021" lon="5.58622">
        <ele>409.8</ele>
        <time>2022-02-24T18:32:29Z</time>
      </trkpt>
      <trkpt lat="46.42025" lon="5.58618">
        <ele>410</ele>
        <time>2022-02-24T18:32:30Z</time>
      </trkpt>
      <trkpt lat="46.4203" lon="5.58615">
        <ele>410.4</ele>
        <time>2022-02-24T18:32:31Z</time>
      </trkpt>
      <trkpt lat="46.42034" lon="5.58612">
        <ele>410.6</ele>
        <time>2022-02-24T18:32:32Z</time>
      </trkpt>
      <trkpt lat="46.42038" lon="5.5861">
        <ele>410.8</ele>
        <time>2022-02-24T18:32:33Z</time>
      </trkpt>
      <trkpt lat="46.42042" lon="5.58608">
        <ele>411</ele>
        <time>2022-02-24T18:32:34Z</time>
      </trkpt>
      <trkpt lat="46.42046" lon="5.58607">
        <ele>411.2</ele>
        <time>2022-02-24T18:32:35Z</time>
      </trkpt>
      <trkpt lat="46.4205" lon="5.58606">
        <ele>411.2</ele>
        <time>2022-02-24T18:32:36Z</time>
      </trkpt>
      <trkpt lat="46.42054" lon="5.58605">
        <ele>411.6</ele>
        <time>2022-02-24T18:32:37Z</time>
      </trkpt>
      <trkpt lat="46.42059" lon="5.58605">
        <ele>411.6</ele>
        <time>2022-02-24T18:32:38Z</time>
      </trkpt>
      <trkpt lat="46.42064" lon="5.58604">
        <ele>411.6</ele>
        <time>2022-02-24T18:32:39Z</time>
      </trkpt>
      <trkpt lat="46.42069" lon="5.58604">
        <ele>411.6</ele>
        <time>2022-02-24T18:32:40Z</time>
      </trkpt>
      <trkpt lat="46.42074" lon="5.58605">
        <ele>411.6</ele>
        <time>2022-02-24T18:32:41Z</time>
      </trkpt>
      <trkpt lat="46.42079" lon="5.58606">
        <ele>411.6</ele>
        <time>2022-02-24T18:32:42Z</time>
      </trkpt>
      <trkpt lat="46.42085" lon="5.58607">
        <ele>411.6</ele>
        <time>2022-02-24T18:32:43Z</time>
      </trkpt>
      <trkpt lat="46.4209" lon="5.58608">
        <ele>411.6</ele>
        <time>2022-02-24T18:32:44Z</time>
      </trkpt>
      <trkpt lat="46.42096" lon="5.58609">
        <ele>411.6</ele>
        <time>2022-02-24T18:32:45Z</time>
      </trkpt>
      <trkpt lat="46.42102" lon="5.5861">
        <ele>411.6</ele>
        <time>2022-02-24T18:32:46Z</time>
      </trkpt>
      <trkpt lat="46.42108" lon="5.58612">
        <ele>411.6</ele>
        <time>2022-02-24T18:32:47Z</time>
      </trkpt>
      <trkpt lat="46.42113" lon="5.58613">
        <ele>411.6</ele>
        <time>2022-02-24T18:32:48Z</time>
      </trkpt>
      <trkpt lat="46.42119" lon="5.58615">
        <ele>411.6</ele>
        <time>2022-02-24T18:32:49Z</time>
      </trkpt>
      <trkpt lat="46.42125" lon="5.58617">
        <ele>411.6</ele>
        <time>2022-02-24T18:32:50Z</time>
      </trkpt>
      <trkpt lat="46.42131" lon="5.58619">
        <ele>411.6</ele>
        <time>2022-02-24T18:32:51Z</time>
      </trkpt>
      <trkpt lat="46.42136" lon="5.58621">
        <ele>411.6</ele>
        <time>2022-02-24T18:32:52Z</time>
      </trkpt>
      <trkpt lat="46.42142" lon="5.58623">
        <ele>411.6</ele>
        <time>2022-02-24T18:32:53Z</time>
      </trkpt>
      <trkpt lat="46.42148" lon="5.58626">
        <ele>411.6</ele>
        <time>2022-02-24T18:32:54Z</time>
      </trkpt>
      <trkpt lat="46.42153" lon="5.58628">
        <ele>411.6</ele>
        <time>2022-02-24T18:32:55Z</time>
      </trkpt>
      <trkpt lat="46.42158" lon="5.5863">
        <ele>411.8</ele>
        <time>2022-02-24T18:32:56Z</time>
      </trkpt>
      <trkpt lat="46.42164" lon="5.58632">
        <ele>411.8</ele>
        <time>2022-02-24T18:32:57Z</time>
      </trkpt>
      <trkpt lat="46.42169" lon="5.58634">
        <ele>411.8</ele>
        <time>2022-02-24T18:32:58Z</time>
      </trkpt>
      <trkpt lat="46.42174" lon="5.58636">
        <ele>412</ele>
        <time>2022-02-24T18:32:59Z</time>
      </trkpt>
      <trkpt lat="46.42179" lon="5.58638">
        <ele>412</ele>
        <time>2022-02-24T18:33:00Z</time>
      </trkpt>
      <trkpt lat="46.42184" lon="5.5864">
        <ele>412.2</ele>
        <time>2022-02-24T18:33:01Z</time>
      </trkpt>
      <trkpt lat="46.42189" lon="5.58642">
        <ele>412.2</ele>
        <time>2022-02-24T18:33:02Z</time>
      </trkpt>
      <trkpt lat="46.42194" lon="5.58645">
        <ele>412.6</ele>
        <time>2022-02-24T18:33:03Z</time>
      </trkpt>
      <trkpt lat="46.42199" lon="5.58647">
        <ele>412.6</ele>
        <time>2022-02-24T18:33:04Z</time>
      </trkpt>
      <trkpt lat="46.42204" lon="5.5865">
        <ele>412.8</ele>
        <time>2022-02-24T18:33:05Z</time>
      </trkpt>
      <trkpt lat="46.42209" lon="5.58652">
        <ele>412.8</ele>
        <time>2022-02-24T18:33:06Z</time>
      </trkpt>
      <trkpt lat="46.42214" lon="5.58654">
        <ele>412.8</ele>
        <time>2022-02-24T18:33:07Z</time>
      </trkpt>
      <trkpt lat="46.42219" lon="5.58657">
        <ele>413</ele>
        <time>2022-02-24T18:33:08Z</time>
      </trkpt>
      <trkpt lat="46.42223" lon="5.5866">
        <ele>413</ele>
        <time>2022-02-24T18:33:09Z</time>
      </trkpt>
      <trkpt lat="46.42228" lon="5.58663">
        <ele>413.4</ele>
        <time>2022-02-24T18:33:10Z</time>
      </trkpt>
      <trkpt lat="46.42233" lon="5.58665">
        <ele>413.4</ele>
        <time>2022-02-24T18:33:11Z</time>
      </trkpt>
      <trkpt lat="46.42237" lon="5.58668">
        <ele>413.4</ele>
        <time>2022-02-24T18:33:12Z</time>
      </trkpt>
      <trkpt lat="46.42242" lon="5.58671">
        <ele>413.6</ele>
        <time>2022-02-24T18:33:13Z</time>
      </trkpt>
      <trkpt lat="46.42246" lon="5.58674">
        <ele>413.6</ele>
        <time>2022-02-24T18:33:14Z</time>
      </trkpt>
      <trkpt lat="46.42251" lon="5.58676">
        <ele>414</ele>
        <time>2022-02-24T18:33:15Z</time>
      </trkpt>
      <trkpt lat="46.42255" lon="5.58679">
        <ele>414</ele>
        <time>2022-02-24T18:33:16Z</time>
      </trkpt>
      <trkpt lat="46.4226" lon="5.58682">
        <ele>414</ele>
        <time>2022-02-24T18:33:17Z</time>
      </trkpt>
      <trkpt lat="46.42264" lon="5.58684">
        <ele>414</ele>
        <time>2022-02-24T18:33:18Z</time>
      </trkpt>
      <trkpt lat="46.42269" lon="5.58687">
        <ele>414</ele>
        <time>2022-02-24T18:33:19Z</time>
      </trkpt>
      <trkpt lat="46.42274" lon="5.5869">
        <ele>414.2</ele>
        <time>2022-02-24T18:33:20Z</time>
      </trkpt>
      <trkpt lat="46.42279" lon="5.58693">
        <ele>414.2</ele>
        <time>2022-02-24T18:33:21Z</time>
      </trkpt>
      <trkpt lat="46.42284" lon="5.58696">
        <ele>414.2</ele>
        <time>2022-02-24T18:33:22Z</time>
      </trkpt>
      <trkpt lat="46.42289" lon="5.58698">
        <ele>414.2</ele>
        <time>2022-02-24T18:33:23Z</time>
      </trkpt>
      <trkpt lat="46.42294" lon="5.58701">
        <ele>414.2</ele>
        <time>2022-02-24T18:33:24Z</time>
      </trkpt>
      <trkpt lat="46.42299" lon="5.58703">
        <ele>414.2</ele>
        <time>2022-02-24T18:33:25Z</time>
      </trkpt>
      <trkpt lat="46.42305" lon="5.58706">
        <ele>414.4</ele>
        <time>2022-02-24T18:33:26Z</time>
      </trkpt>
      <trkpt lat="46.4231" lon="5.58708">
        <ele>414.4</ele>
        <time>2022-02-24T18:33:27Z</time>
      </trkpt>
      <trkpt lat="46.42315" lon="5.5871">
        <ele>414.4</ele>
        <time>2022-02-24T18:33:28Z</time>
      </trkpt>
      <trkpt lat="46.4232" lon="5.58712">
        <ele>414.6</ele>
        <time>2022-02-24T18:33:29Z</time>
      </trkpt>
      <trkpt lat="46.42325" lon="5.58714">
        <ele>414.6</ele>
        <time>2022-02-24T18:33:30Z</time>
      </trkpt>
      <trkpt lat="46.4233" lon="5.58715">
        <ele>414.6</ele>
        <time>2022-02-24T18:33:31Z</time>
      </trkpt>
      <trkpt lat="46.42336" lon="5.58716">
        <ele>414.6</ele>
        <time>2022-02-24T18:33:32Z</time>
      </trkpt>
      <trkpt lat="46.42341" lon="5.58717">
        <ele>414.6</ele>
        <time>2022-02-24T18:33:33Z</time>
      </trkpt>
      <trkpt lat="46.42341" lon="5.58717">
        <ele>415</ele>
        <time>2022-02-24T18:33:34Z</time>
      </trkpt>
      <trkpt lat="46.42346" lon="5.58718">
        <ele>415</ele>
        <time>2022-02-24T18:33:35Z</time>
      </trkpt>
      <trkpt lat="46.42351" lon="5.5872">
        <ele>415</ele>
        <time>2022-02-24T18:33:36Z</time>
      </trkpt>
      <trkpt lat="46.42357" lon="5.58721">
        <ele>415.2</ele>
        <time>2022-02-24T18:33:37Z</time>
      </trkpt>
      <trkpt lat="46.42362" lon="5.58722">
        <ele>415.2</ele>
        <time>2022-02-24T18:33:38Z</time>
      </trkpt>
      <trkpt lat="46.42367" lon="5.58724">
        <ele>415.2</ele>
        <time>2022-02-24T18:33:39Z</time>
      </trkpt>
      <trkpt lat="46.42373" lon="5.58725">
        <ele>415.2</ele>
        <time>2022-02-24T18:33:40Z</time>
      </trkpt>
      <trkpt lat="46.42378" lon="5.58726">
        <ele>415.2</ele>
        <time>2022-02-24T18:33:41Z</time>
      </trkpt>
      <trkpt lat="46.42384" lon="5.58728">
        <ele>415.2</ele>
        <time>2022-02-24T18:33:42Z</time>
      </trkpt>
      <trkpt lat="46.4239" lon="5.58729">
        <ele>415.2</ele>
        <time>2022-02-24T18:33:43Z</time>
      </trkpt>
      <trkpt lat="46.42395" lon="5.5873">
        <ele>415.2</ele>
        <time>2022-02-24T18:33:44Z</time>
      </trkpt>
      <trkpt lat="46.42401" lon="5.58732">
        <ele>415.2</ele>
        <time>2022-02-24T18:33:45Z</time>
      </trkpt>
      <trkpt lat="46.42407" lon="5.58733">
        <ele>415.2</ele>
        <time>2022-02-24T18:33:46Z</time>
      </trkpt>
      <trkpt lat="46.42413" lon="5.58735">
        <ele>415.2</ele>
        <time>2022-02-24T18:33:47Z</time>
      </trkpt>
      <trkpt lat="46.42419" lon="5.58737">
        <ele>415.2</ele>
        <time>2022-02-24T18:33:48Z</time>
      </trkpt>
      <trkpt lat="46.42425" lon="5.58738">
        <ele>415.2</ele>
        <time>2022-02-24T18:33:49Z</time>
      </trkpt>
      <trkpt lat="46.42432" lon="5.5874">
        <ele>415.2</ele>
        <time>2022-02-24T18:33:50Z</time>
      </trkpt>
      <trkpt lat="46.42438" lon="5.58741">
        <ele>415.2</ele>
        <time>2022-02-24T18:33:51Z</time>
      </trkpt>
      <trkpt lat="46.42444" lon="5.58743">
        <ele>415.2</ele>
        <time>2022-02-24T18:33:52Z</time>
      </trkpt>
      <trkpt lat="46.4245" lon="5.58745">
        <ele>415.2</ele>
        <time>2022-02-24T18:33:53Z</time>
      </trkpt>
      <trkpt lat="46.42456" lon="5.58746">
        <ele>415.2</ele>
        <time>2022-02-24T18:33:54Z</time>
      </trkpt>
      <trkpt lat="46.42462" lon="5.58748">
        <ele>415.2</ele>
        <time>2022-02-24T18:33:55Z</time>
      </trkpt>
      <trkpt lat="46.42468" lon="5.58749">
        <ele>415.2</ele>
        <time>2022-02-24T18:33:56Z</time>
      </trkpt>
      <trkpt lat="46.42475" lon="5.58751">
        <ele>415.2</ele>
        <time>2022-02-24T18:33:57Z</time>
      </trkpt>
      <trkpt lat="46.42481" lon="5.58752">
        <ele>415.2</ele>
        <time>2022-02-24T18:33:58Z</time>
      </trkpt>
      <trkpt lat="46.42487" lon="5.58754">
        <ele>415.4</ele>
        <time>2022-02-24T18:33:59Z</time>
      </trkpt>
      <trkpt lat="46.42492" lon="5.58756">
        <ele>415.4</ele>
        <time>2022-02-24T18:34:00Z</time>
      </trkpt>
      <trkpt lat="46.42498" lon="5.58758">
        <ele>415.4</ele>
        <time>2022-02-24T18:34:01Z</time>
      </trkpt>
      <trkpt lat="46.42504" lon="5.58761">
        <ele>415.6</ele>
        <time>2022-02-24T18:34:02Z</time>
      </trkpt>
      <trkpt lat="46.4251" lon="5.58764">
        <ele>415.6</ele>
        <time>2022-02-24T18:34:03Z</time>
      </trkpt>
      <trkpt lat="46.42515" lon="5.58768">
        <ele>415.6</ele>
        <time>2022-02-24T18:34:04Z</time>
      </trkpt>
      <trkpt lat="46.4252" lon="5.58773">
        <ele>415.6</ele>
        <time>2022-02-24T18:34:05Z</time>
      </trkpt>
      <trkpt lat="46.42524" lon="5.58778">
        <ele>415.6</ele>
        <time>2022-02-24T18:34:06Z</time>
      </trkpt>
      <trkpt lat="46.42529" lon="5.58784">
        <ele>416</ele>
        <time>2022-02-24T18:34:07Z</time>
      </trkpt>
      <trkpt lat="46.42532" lon="5.5879">
        <ele>416.2</ele>
        <time>2022-02-24T18:34:08Z</time>
      </trkpt>
      <trkpt lat="46.42535" lon="5.58796">
        <ele>416.6</ele>
        <time>2022-02-24T18:34:09Z</time>
      </trkpt>
      <trkpt lat="46.42538" lon="5.58803">
        <ele>416.8</ele>
        <time>2022-02-24T18:34:10Z</time>
      </trkpt>
      <trkpt lat="46.4254" lon="5.58809">
        <ele>417</ele>
        <time>2022-02-24T18:34:11Z</time>
      </trkpt>
      <trkpt lat="46.42543" lon="5.58815">
        <ele>417</ele>
        <time>2022-02-24T18:34:12Z</time>
      </trkpt>
      <trkpt lat="46.42545" lon="5.58821">
        <ele>417.4</ele>
        <time>2022-02-24T18:34:13Z</time>
      </trkpt>
      <trkpt lat="46.42548" lon="5.58828">
        <ele>417.6</ele>
        <time>2022-02-24T18:34:14Z</time>
      </trkpt>
      <trkpt lat="46.4255" lon="5.58834">
        <ele>417.6</ele>
        <time>2022-02-24T18:34:15Z</time>
      </trkpt>
      <trkpt lat="46.42553" lon="5.5884">
        <ele>417.8</ele>
        <time>2022-02-24T18:34:16Z</time>
      </trkpt>
      <trkpt lat="46.42555" lon="5.58846">
        <ele>417.8</ele>
        <time>2022-02-24T18:34:17Z</time>
      </trkpt>
      <trkpt lat="46.42558" lon="5.58852">
        <ele>418</ele>
        <time>2022-02-24T18:34:18Z</time>
      </trkpt>
      <trkpt lat="46.42561" lon="5.58857">
        <ele>418</ele>
        <time>2022-02-24T18:34:19Z</time>
      </trkpt>
      <trkpt lat="46.42563" lon="5.58863">
        <ele>418.2</ele>
        <time>2022-02-24T18:34:20Z</time>
      </trkpt>
      <trkpt lat="46.42566" lon="5.58869">
        <ele>418.2</ele>
        <time>2022-02-24T18:34:21Z</time>
      </trkpt>
      <trkpt lat="46.42569" lon="5.58874">
        <ele>418.6</ele>
        <time>2022-02-24T18:34:22Z</time>
      </trkpt>
      <trkpt lat="46.42572" lon="5.5888">
        <ele>418.6</ele>
        <time>2022-02-24T18:34:23Z</time>
      </trkpt>
      <trkpt lat="46.42575" lon="5.58885">
        <ele>418.8</ele>
        <time>2022-02-24T18:34:24Z</time>
      </trkpt>
      <trkpt lat="46.42579" lon="5.58889">
        <ele>418.8</ele>
        <time>2022-02-24T18:34:25Z</time>
      </trkpt>
      <trkpt lat="46.42582" lon="5.58894">
        <ele>418.8</ele>
        <time>2022-02-24T18:34:26Z</time>
      </trkpt>
      <trkpt lat="46.42586" lon="5.58898">
        <ele>419.2</ele>
        <time>2022-02-24T18:34:27Z</time>
      </trkpt>
      <trkpt lat="46.4259" lon="5.58902">
        <ele>419.2</ele>
        <time>2022-02-24T18:34:28Z</time>
      </trkpt>
      <trkpt lat="46.42594" lon="5.58906">
        <ele>419.2</ele>
        <time>2022-02-24T18:34:29Z</time>
      </trkpt>
      <trkpt lat="46.42598" lon="5.58911">
        <ele>419.4</ele>
        <time>2022-02-24T18:34:30Z</time>
      </trkpt>
      <trkpt lat="46.42602" lon="5.58915">
        <ele>419.4</ele>
        <time>2022-02-24T18:34:31Z</time>
      </trkpt>
      <trkpt lat="46.42607" lon="5.58919">
        <ele>419.4</ele>
        <time>2022-02-24T18:34:32Z</time>
      </trkpt>
      <trkpt lat="46.42611" lon="5.58924">
        <ele>419.4</ele>
        <time>2022-02-24T18:34:33Z</time>
      </trkpt>
      <trkpt lat="46.42615" lon="5.58928">
        <ele>419.6</ele>
        <time>2022-02-24T18:34:34Z</time>
      </trkpt>
      <trkpt lat="46.42619" lon="5.58933">
        <ele>419.6</ele>
        <time>2022-02-24T18:34:35Z</time>
      </trkpt>
      <trkpt lat="46.42622" lon="5.58938">
        <ele>419.8</ele>
        <time>2022-02-24T18:34:36Z</time>
      </trkpt>
      <trkpt lat="46.42626" lon="5.58942">
        <ele>419.8</ele>
        <time>2022-02-24T18:34:37Z</time>
      </trkpt>
      <trkpt lat="46.42631" lon="5.58946">
        <ele>419.8</ele>
        <time>2022-02-24T18:34:38Z</time>
      </trkpt>
      <trkpt lat="46.42635" lon="5.5895">
        <ele>420</ele>
        <time>2022-02-24T18:34:39Z</time>
      </trkpt>
      <trkpt lat="46.42639" lon="5.58953">
        <ele>420</ele>
        <time>2022-02-24T18:34:40Z</time>
      </trkpt>
      <trkpt lat="46.42644" lon="5.58956">
        <ele>420.2</ele>
        <time>2022-02-24T18:34:41Z</time>
      </trkpt>
      <trkpt lat="46.42648" lon="5.58958">
        <ele>420.2</ele>
        <time>2022-02-24T18:34:42Z</time>
      </trkpt>
      <trkpt lat="46.42653" lon="5.58959">
        <ele>420.6</ele>
        <time>2022-02-24T18:34:43Z</time>
      </trkpt>
      <trkpt lat="46.42658" lon="5.58961">
        <ele>420.6</ele>
        <time>2022-02-24T18:34:44Z</time>
      </trkpt>
      <trkpt lat="46.42663" lon="5.58962">
        <ele>420.6</ele>
        <time>2022-02-24T18:34:45Z</time>
      </trkpt>
      <trkpt lat="46.42668" lon="5.58963">
        <ele>420.8</ele>
        <time>2022-02-24T18:34:46Z</time>
      </trkpt>
      <trkpt lat="46.42672" lon="5.58963">
        <ele>420.8</ele>
        <time>2022-02-24T18:34:47Z</time>
      </trkpt>
      <trkpt lat="46.42677" lon="5.58963">
        <ele>421</ele>
        <time>2022-02-24T18:34:48Z</time>
      </trkpt>
      <trkpt lat="46.42681" lon="5.58963">
        <ele>421</ele>
        <time>2022-02-24T18:34:49Z</time>
      </trkpt>
      <trkpt lat="46.42686" lon="5.58963">
        <ele>421.4</ele>
        <time>2022-02-24T18:34:50Z</time>
      </trkpt>
      <trkpt lat="46.4269" lon="5.58963">
        <ele>421.4</ele>
        <time>2022-02-24T18:34:51Z</time>
      </trkpt>
      <trkpt lat="46.42695" lon="5.58963">
        <ele>421.8</ele>
        <time>2022-02-24T18:34:52Z</time>
      </trkpt>
      <trkpt lat="46.42699" lon="5.58963">
        <ele>422</ele>
        <time>2022-02-24T18:34:53Z</time>
      </trkpt>
      <trkpt lat="46.42704" lon="5.58963">
        <ele>422.2</ele>
        <time>2022-02-24T18:34:54Z</time>
      </trkpt>
      <trkpt lat="46.42708" lon="5.58963">
        <ele>422.6</ele>
        <time>2022-02-24T18:34:55Z</time>
      </trkpt>
      <trkpt lat="46.42712" lon="5.58963">
        <ele>423</ele>
        <time>2022-02-24T18:34:56Z</time>
      </trkpt>
      <trkpt lat="46.42715" lon="5.58963">
        <ele>423.2</ele>
        <time>2022-02-24T18:34:57Z</time>
      </trkpt>
      <trkpt lat="46.42719" lon="5.58963">
        <ele>423.6</ele>
        <time>2022-02-24T18:34:58Z</time>
      </trkpt>
      <trkpt lat="46.42722" lon="5.58963">
        <ele>424</ele>
        <time>2022-02-24T18:34:59Z</time>
      </trkpt>
      <trkpt lat="46.42725" lon="5.58964">
        <ele>424.2</ele>
        <time>2022-02-24T18:35:00Z</time>
      </trkpt>
      <trkpt lat="46.42728" lon="5.58964">
        <ele>424.4</ele>
        <time>2022-02-24T18:35:01Z</time>
      </trkpt>
      <trkpt lat="46.42731" lon="5.58964">
        <ele>424.6</ele>
        <time>2022-02-24T18:35:02Z</time>
      </trkpt>
      <trkpt lat="46.42734" lon="5.58965">
        <ele>424.8</ele>
        <time>2022-02-24T18:35:03Z</time>
      </trkpt>
      <trkpt lat="46.42737" lon="5.58965">
        <ele>425</ele>
        <time>2022-02-24T18:35:04Z</time>
      </trkpt>
      <trkpt lat="46.4274" lon="5.58965">
        <ele>425.2</ele>
        <time>2022-02-24T18:35:05Z</time>
      </trkpt>
      <trkpt lat="46.42743" lon="5.58965">
        <ele>425.2</ele>
        <time>2022-02-24T18:35:06Z</time>
      </trkpt>
      <trkpt lat="46.42746" lon="5.58965">
        <ele>425.6</ele>
        <time>2022-02-24T18:35:07Z</time>
      </trkpt>
      <trkpt lat="46.42749" lon="5.58965">
        <ele>425.6</ele>
        <time>2022-02-24T18:35:08Z</time>
      </trkpt>
      <trkpt lat="46.42752" lon="5.58965">
        <ele>425.8</ele>
        <time>2022-02-24T18:35:09Z</time>
      </trkpt>
      <trkpt lat="46.42756" lon="5.58966">
        <ele>425.8</ele>
        <time>2022-02-24T18:35:10Z</time>
      </trkpt>
      <trkpt lat="46.42759" lon="5.58966">
        <ele>425.8</ele>
        <time>2022-02-24T18:35:11Z</time>
      </trkpt>
      <trkpt lat="46.42763" lon="5.58966">
        <ele>425.8</ele>
        <time>2022-02-24T18:35:12Z</time>
      </trkpt>
      <trkpt lat="46.42766" lon="5.58966">
        <ele>425.8</ele>
        <time>2022-02-24T18:35:13Z</time>
      </trkpt>
      <trkpt lat="46.4277" lon="5.58967">
        <ele>426</ele>
        <time>2022-02-24T18:35:14Z</time>
      </trkpt>
      <trkpt lat="46.42774" lon="5.58967">
        <ele>426</ele>
        <time>2022-02-24T18:35:15Z</time>
      </trkpt>
      <trkpt lat="46.42779" lon="5.58967">
        <ele>426</ele>
        <time>2022-02-24T18:35:16Z</time>
      </trkpt>
      <trkpt lat="46.42784" lon="5.58968">
        <ele>426</ele>
        <time>2022-02-24T18:35:17Z</time>
      </trkpt>
      <trkpt lat="46.42789" lon="5.58968">
        <ele>425.8</ele>
        <time>2022-02-24T18:35:18Z</time>
      </trkpt>
      <trkpt lat="46.42795" lon="5.58968">
        <ele>425.8</ele>
        <time>2022-02-24T18:35:19Z</time>
      </trkpt>
      <trkpt lat="46.428" lon="5.58969">
        <ele>425.6</ele>
        <time>2022-02-24T18:35:20Z</time>
      </trkpt>
      <trkpt lat="46.42807" lon="5.58969">
        <ele>425.6</ele>
        <time>2022-02-24T18:35:21Z</time>
      </trkpt>
      <trkpt lat="46.42813" lon="5.58969">
        <ele>425.2</ele>
        <time>2022-02-24T18:35:22Z</time>
      </trkpt>
      <trkpt lat="46.42819" lon="5.58969">
        <ele>425.2</ele>
        <time>2022-02-24T18:35:23Z</time>
      </trkpt>
      <trkpt lat="46.42825" lon="5.58969">
        <ele>425</ele>
        <time>2022-02-24T18:35:24Z</time>
      </trkpt>
      <trkpt lat="46.42831" lon="5.58969">
        <ele>425</ele>
        <time>2022-02-24T18:35:25Z</time>
      </trkpt>
      <trkpt lat="46.42837" lon="5.58969">
        <ele>425</ele>
        <time>2022-02-24T18:35:26Z</time>
      </trkpt>
      <trkpt lat="46.42844" lon="5.5897">
        <ele>424.6</ele>
        <time>2022-02-24T18:35:27Z</time>
      </trkpt>
      <trkpt lat="46.4285" lon="5.5897">
        <ele>424.6</ele>
        <time>2022-02-24T18:35:28Z</time>
      </trkpt>
      <trkpt lat="46.42856" lon="5.5897">
        <ele>424.4</ele>
        <time>2022-02-24T18:35:29Z</time>
      </trkpt>
      <trkpt lat="46.42862" lon="5.58971">
        <ele>424.4</ele>
        <time>2022-02-24T18:35:30Z</time>
      </trkpt>
      <trkpt lat="46.42869" lon="5.58971">
        <ele>424</ele>
        <time>2022-02-24T18:35:31Z</time>
      </trkpt>
      <trkpt lat="46.42876" lon="5.58971">
        <ele>423.8</ele>
        <time>2022-02-24T18:35:32Z</time>
      </trkpt>
      <trkpt lat="46.42883" lon="5.58971">
        <ele>423.6</ele>
        <time>2022-02-24T18:35:33Z</time>
      </trkpt>
      <trkpt lat="46.4289" lon="5.58971">
        <ele>423.4</ele>
        <time>2022-02-24T18:35:34Z</time>
      </trkpt>
      <trkpt lat="46.42897" lon="5.58971">
        <ele>423</ele>
        <time>2022-02-24T18:35:35Z</time>
      </trkpt>
      <trkpt lat="46.42904" lon="5.58972">
        <ele>423</ele>
        <time>2022-02-24T18:35:36Z</time>
      </trkpt>
      <trkpt lat="46.42911" lon="5.58972">
        <ele>422.8</ele>
        <time>2022-02-24T18:35:37Z</time>
      </trkpt>
      <trkpt lat="46.42919" lon="5.58972">
        <ele>422.8</ele>
        <time>2022-02-24T18:35:38Z</time>
      </trkpt>
      <trkpt lat="46.42926" lon="5.58972">
        <ele>422.4</ele>
        <time>2022-02-24T18:35:39Z</time>
      </trkpt>
      <trkpt lat="46.42933" lon="5.58972">
        <ele>422.4</ele>
        <time>2022-02-24T18:35:40Z</time>
      </trkpt>
      <trkpt lat="46.4294" lon="5.58972">
        <ele>422.2</ele>
        <time>2022-02-24T18:35:41Z</time>
      </trkpt>
      <trkpt lat="46.42947" lon="5.58973">
        <ele>421.8</ele>
        <time>2022-02-24T18:35:42Z</time>
      </trkpt>
      <trkpt lat="46.42954" lon="5.58973">
        <ele>421.8</ele>
        <time>2022-02-24T18:35:43Z</time>
      </trkpt>
      <trkpt lat="46.42961" lon="5.58973">
        <ele>421.6</ele>
        <time>2022-02-24T18:35:44Z</time>
      </trkpt>
      <trkpt lat="46.42969" lon="5.58973">
        <ele>421.2</ele>
        <time>2022-02-24T18:35:45Z</time>
      </trkpt>
      <trkpt lat="46.42977" lon="5.58973">
        <ele>421</ele>
        <time>2022-02-24T18:35:46Z</time>
      </trkpt>
      <trkpt lat="46.42985" lon="5.58974">
        <ele>420.6</ele>
        <time>2022-02-24T18:35:47Z</time>
      </trkpt>
      <trkpt lat="46.42994" lon="5.58974">
        <ele>420.2</ele>
        <time>2022-02-24T18:35:48Z</time>
      </trkpt>
      <trkpt lat="46.43003" lon="5.58974">
        <ele>419.8</ele>
        <time>2022-02-24T18:35:49Z</time>
      </trkpt>
      <trkpt lat="46.43011" lon="5.58975">
        <ele>419.6</ele>
        <time>2022-02-24T18:35:50Z</time>
      </trkpt>
      <trkpt lat="46.4302" lon="5.58975">
        <ele>419.4</ele>
        <time>2022-02-24T18:35:51Z</time>
      </trkpt>
      <trkpt lat="46.43029" lon="5.58976">
        <ele>419</ele>
        <time>2022-02-24T18:35:52Z</time>
      </trkpt>
      <trkpt lat="46.43038" lon="5.58976">
        <ele>418.6</ele>
        <time>2022-02-24T18:35:53Z</time>
      </trkpt>
      <trkpt lat="46.43047" lon="5.58977">
        <ele>418.4</ele>
        <time>2022-02-24T18:35:54Z</time>
      </trkpt>
      <trkpt lat="46.43056" lon="5.58978">
        <ele>418.2</ele>
        <time>2022-02-24T18:35:55Z</time>
      </trkpt>
      <trkpt lat="46.43065" lon="5.58978">
        <ele>417.8</ele>
        <time>2022-02-24T18:35:56Z</time>
      </trkpt>
      <trkpt lat="46.43074" lon="5.58979">
        <ele>417.6</ele>
        <time>2022-02-24T18:35:57Z</time>
      </trkpt>
      <trkpt lat="46.43082" lon="5.58979">
        <ele>417.4</ele>
        <time>2022-02-24T18:35:58Z</time>
      </trkpt>
      <trkpt lat="46.43091" lon="5.5898">
        <ele>417.2</ele>
        <time>2022-02-24T18:35:59Z</time>
      </trkpt>
      <trkpt lat="46.431" lon="5.5898">
        <ele>417.2</ele>
        <time>2022-02-24T18:36:00Z</time>
      </trkpt>
      <trkpt lat="46.43108" lon="5.58981">
        <ele>416.8</ele>
        <time>2022-02-24T18:36:01Z</time>
      </trkpt>
      <trkpt lat="46.43117" lon="5.58981">
        <ele>416.8</ele>
        <time>2022-02-24T18:36:02Z</time>
      </trkpt>
      <trkpt lat="46.43125" lon="5.58981">
        <ele>416.6</ele>
        <time>2022-02-24T18:36:03Z</time>
      </trkpt>
      <trkpt lat="46.43134" lon="5.58982">
        <ele>416.6</ele>
        <time>2022-02-24T18:36:04Z</time>
      </trkpt>
      <trkpt lat="46.43142" lon="5.58982">
        <ele>416.4</ele>
        <time>2022-02-24T18:36:05Z</time>
      </trkpt>
      <trkpt lat="46.4315" lon="5.58983">
        <ele>416.4</ele>
        <time>2022-02-24T18:36:06Z</time>
      </trkpt>
      <trkpt lat="46.43158" lon="5.58984">
        <ele>416.4</ele>
        <time>2022-02-24T18:36:07Z</time>
      </trkpt>
      <trkpt lat="46.43167" lon="5.58984">
        <ele>416.2</ele>
        <time>2022-02-24T18:36:08Z</time>
      </trkpt>
      <trkpt lat="46.43175" lon="5.58984">
        <ele>416.2</ele>
        <time>2022-02-24T18:36:09Z</time>
      </trkpt>
      <trkpt lat="46.43183" lon="5.58985">
        <ele>416.2</ele>
        <time>2022-02-24T18:36:10Z</time>
      </trkpt>
      <trkpt lat="46.43191" lon="5.58986">
        <ele>416.2</ele>
        <time>2022-02-24T18:36:11Z</time>
      </trkpt>
      <trkpt lat="46.43199" lon="5.58986">
        <ele>416.2</ele>
        <time>2022-02-24T18:36:12Z</time>
      </trkpt>
      <trkpt lat="46.43207" lon="5.58987">
        <ele>415.8</ele>
        <time>2022-02-24T18:36:13Z</time>
      </trkpt>
      <trkpt lat="46.43215" lon="5.58987">
        <ele>415.8</ele>
        <time>2022-02-24T18:36:14Z</time>
      </trkpt>
      <trkpt lat="46.43222" lon="5.58987">
        <ele>415.8</ele>
        <time>2022-02-24T18:36:15Z</time>
      </trkpt>
      <trkpt lat="46.4323" lon="5.58988">
        <ele>415.8</ele>
        <time>2022-02-24T18:36:16Z</time>
      </trkpt>
      <trkpt lat="46.43237" lon="5.58988">
        <ele>416.2</ele>
        <time>2022-02-24T18:36:17Z</time>
      </trkpt>
      <trkpt lat="46.43244" lon="5.58989">
        <ele>416.2</ele>
        <time>2022-02-24T18:36:18Z</time>
      </trkpt>
      <trkpt lat="46.43252" lon="5.5899">
        <ele>416.2</ele>
        <time>2022-02-24T18:36:19Z</time>
      </trkpt>
      <trkpt lat="46.43258" lon="5.5899">
        <ele>416.4</ele>
        <time>2022-02-24T18:36:20Z</time>
      </trkpt>
      <trkpt lat="46.43265" lon="5.58991">
        <ele>416.4</ele>
        <time>2022-02-24T18:36:21Z</time>
      </trkpt>
      <trkpt lat="46.43272" lon="5.58992">
        <ele>416.4</ele>
        <time>2022-02-24T18:36:22Z</time>
      </trkpt>
      <trkpt lat="46.43278" lon="5.58992">
        <ele>416.4</ele>
        <time>2022-02-24T18:36:23Z</time>
      </trkpt>
      <trkpt lat="46.43285" lon="5.58993">
        <ele>416.4</ele>
        <time>2022-02-24T18:36:24Z</time>
      </trkpt>
      <trkpt lat="46.43291" lon="5.58994">
        <ele>416.4</ele>
        <time>2022-02-24T18:36:25Z</time>
      </trkpt>
      <trkpt lat="46.43298" lon="5.58995">
        <ele>416.4</ele>
        <time>2022-02-24T18:36:26Z</time>
      </trkpt>
      <trkpt lat="46.43304" lon="5.58997">
        <ele>416.4</ele>
        <time>2022-02-24T18:36:27Z</time>
      </trkpt>
      <trkpt lat="46.43311" lon="5.58998">
        <ele>416.4</ele>
        <time>2022-02-24T18:36:28Z</time>
      </trkpt>
      <trkpt lat="46.43317" lon="5.58999">
        <ele>416.4</ele>
        <time>2022-02-24T18:36:29Z</time>
      </trkpt>
      <trkpt lat="46.43324" lon="5.59">
        <ele>416.4</ele>
        <time>2022-02-24T18:36:30Z</time>
      </trkpt>
      <trkpt lat="46.4333" lon="5.59002">
        <ele>416.4</ele>
        <time>2022-02-24T18:36:31Z</time>
      </trkpt>
      <trkpt lat="46.43337" lon="5.59003">
        <ele>416.4</ele>
        <time>2022-02-24T18:36:32Z</time>
      </trkpt>
      <trkpt lat="46.43343" lon="5.59005">
        <ele>416.4</ele>
        <time>2022-02-24T18:36:33Z</time>
      </trkpt>
      <trkpt lat="46.43349" lon="5.59006">
        <ele>416.4</ele>
        <time>2022-02-24T18:36:34Z</time>
      </trkpt>
      <trkpt lat="46.43355" lon="5.59007">
        <ele>416.6</ele>
        <time>2022-02-24T18:36:35Z</time>
      </trkpt>
      <trkpt lat="46.43361" lon="5.59008">
        <ele>416.6</ele>
        <time>2022-02-24T18:36:36Z</time>
      </trkpt>
      <trkpt lat="46.43367" lon="5.5901">
        <ele>416.6</ele>
        <time>2022-02-24T18:36:37Z</time>
      </trkpt>
      <trkpt lat="46.43379" lon="5.59012">
        <ele>417</ele>
        <time>2022-02-24T18:36:38Z</time>
      </trkpt>
      <trkpt lat="46.43385" lon="5.59013">
        <ele>417</ele>
        <time>2022-02-24T18:36:39Z</time>
      </trkpt>
      <trkpt lat="46.43392" lon="5.59014">
        <ele>417</ele>
        <time>2022-02-24T18:36:40Z</time>
      </trkpt>
      <trkpt lat="46.43398" lon="5.59015">
        <ele>417</ele>
        <time>2022-02-24T18:36:41Z</time>
      </trkpt>
      <trkpt lat="46.43404" lon="5.59016">
        <ele>417</ele>
        <time>2022-02-24T18:36:42Z</time>
      </trkpt>
      <trkpt lat="46.4341" lon="5.59018">
        <ele>417</ele>
        <time>2022-02-24T18:36:43Z</time>
      </trkpt>
      <trkpt lat="46.43416" lon="5.59019">
        <ele>417.2</ele>
        <time>2022-02-24T18:36:44Z</time>
      </trkpt>
      <trkpt lat="46.43422" lon="5.5902">
        <ele>417.2</ele>
        <time>2022-02-24T18:36:45Z</time>
      </trkpt>
      <trkpt lat="46.43429" lon="5.59021">
        <ele>417.2</ele>
        <time>2022-02-24T18:36:46Z</time>
      </trkpt>
      <trkpt lat="46.43435" lon="5.59023">
        <ele>417.2</ele>
        <time>2022-02-24T18:36:47Z</time>
      </trkpt>
      <trkpt lat="46.43441" lon="5.59024">
        <ele>417.2</ele>
        <time>2022-02-24T18:36:48Z</time>
      </trkpt>
      <trkpt lat="46.43447" lon="5.59025">
        <ele>417.4</ele>
        <time>2022-02-24T18:36:49Z</time>
      </trkpt>
      <trkpt lat="46.43453" lon="5.59027">
        <ele>417.4</ele>
        <time>2022-02-24T18:36:50Z</time>
      </trkpt>
      <trkpt lat="46.43459" lon="5.59028">
        <ele>417.4</ele>
        <time>2022-02-24T18:36:51Z</time>
      </trkpt>
      <trkpt lat="46.43464" lon="5.59029">
        <ele>417.8</ele>
        <time>2022-02-24T18:36:52Z</time>
      </trkpt>
      <trkpt lat="46.4347" lon="5.5903">
        <ele>417.8</ele>
        <time>2022-02-24T18:36:53Z</time>
      </trkpt>
      <trkpt lat="46.43475" lon="5.59031">
        <ele>418</ele>
        <time>2022-02-24T18:36:54Z</time>
      </trkpt>
      <trkpt lat="46.43481" lon="5.59033">
        <ele>418</ele>
        <time>2022-02-24T18:36:55Z</time>
      </trkpt>
      <trkpt lat="46.43486" lon="5.59034">
        <ele>418.2</ele>
        <time>2022-02-24T18:36:56Z</time>
      </trkpt>
      <trkpt lat="46.43492" lon="5.59035">
        <ele>418.2</ele>
        <time>2022-02-24T18:36:57Z</time>
      </trkpt>
      <trkpt lat="46.43497" lon="5.59036">
        <ele>418.6</ele>
        <time>2022-02-24T18:36:58Z</time>
      </trkpt>
      <trkpt lat="46.43502" lon="5.59037">
        <ele>418.6</ele>
        <time>2022-02-24T18:36:59Z</time>
      </trkpt>
      <trkpt lat="46.43507" lon="5.59038">
        <ele>419</ele>
        <time>2022-02-24T18:37:00Z</time>
      </trkpt>
      <trkpt lat="46.43513" lon="5.59039">
        <ele>419</ele>
        <time>2022-02-24T18:37:01Z</time>
      </trkpt>
      <trkpt lat="46.43518" lon="5.5904">
        <ele>419.2</ele>
        <time>2022-02-24T18:37:02Z</time>
      </trkpt>
      <trkpt lat="46.43523" lon="5.59042">
        <ele>419.2</ele>
        <time>2022-02-24T18:37:03Z</time>
      </trkpt>
      <trkpt lat="46.43528" lon="5.59043">
        <ele>419.4</ele>
        <time>2022-02-24T18:37:04Z</time>
      </trkpt>
      <trkpt lat="46.43532" lon="5.59044">
        <ele>419.4</ele>
        <time>2022-02-24T18:37:05Z</time>
      </trkpt>
      <trkpt lat="46.43537" lon="5.59045">
        <ele>419.8</ele>
        <time>2022-02-24T18:37:06Z</time>
      </trkpt>
      <trkpt lat="46.43542" lon="5.59046">
        <ele>419.8</ele>
        <time>2022-02-24T18:37:07Z</time>
      </trkpt>
      <trkpt lat="46.43547" lon="5.59047">
        <ele>420.2</ele>
        <time>2022-02-24T18:37:08Z</time>
      </trkpt>
      <trkpt lat="46.43552" lon="5.59048">
        <ele>420.2</ele>
        <time>2022-02-24T18:37:09Z</time>
      </trkpt>
      <trkpt lat="46.43557" lon="5.59049">
        <ele>420.4</ele>
        <time>2022-02-24T18:37:10Z</time>
      </trkpt>
      <trkpt lat="46.43562" lon="5.5905">
        <ele>420.4</ele>
        <time>2022-02-24T18:37:11Z</time>
      </trkpt>
      <trkpt lat="46.43566" lon="5.59051">
        <ele>420.8</ele>
        <time>2022-02-24T18:37:12Z</time>
      </trkpt>
      <trkpt lat="46.43571" lon="5.59052">
        <ele>420.8</ele>
        <time>2022-02-24T18:37:13Z</time>
      </trkpt>
      <trkpt lat="46.43575" lon="5.59053">
        <ele>421</ele>
        <time>2022-02-24T18:37:14Z</time>
      </trkpt>
      <trkpt lat="46.43579" lon="5.59054">
        <ele>421</ele>
        <time>2022-02-24T18:37:15Z</time>
      </trkpt>
      <trkpt lat="46.43584" lon="5.59055">
        <ele>421.4</ele>
        <time>2022-02-24T18:37:16Z</time>
      </trkpt>
      <trkpt lat="46.43588" lon="5.59057">
        <ele>421.4</ele>
        <time>2022-02-24T18:37:17Z</time>
      </trkpt>
      <trkpt lat="46.43593" lon="5.59058">
        <ele>421.6</ele>
        <time>2022-02-24T18:37:18Z</time>
      </trkpt>
      <trkpt lat="46.43597" lon="5.59059">
        <ele>421.6</ele>
        <time>2022-02-24T18:37:19Z</time>
      </trkpt>
      <trkpt lat="46.43602" lon="5.5906">
        <ele>422</ele>
        <time>2022-02-24T18:37:20Z</time>
      </trkpt>
      <trkpt lat="46.43606" lon="5.59061">
        <ele>422</ele>
        <time>2022-02-24T18:37:21Z</time>
      </trkpt>
      <trkpt lat="46.43611" lon="5.59062">
        <ele>422</ele>
        <time>2022-02-24T18:37:22Z</time>
      </trkpt>
      <trkpt lat="46.43615" lon="5.59064">
        <ele>422.2</ele>
        <time>2022-02-24T18:37:23Z</time>
      </trkpt>
      <trkpt lat="46.4362" lon="5.59065">
        <ele>422.2</ele>
        <time>2022-02-24T18:37:24Z</time>
      </trkpt>
      <trkpt lat="46.43625" lon="5.59067">
        <ele>422.2</ele>
        <time>2022-02-24T18:37:25Z</time>
      </trkpt>
      <trkpt lat="46.43629" lon="5.59068">
        <ele>422.2</ele>
        <time>2022-02-24T18:37:26Z</time>
      </trkpt>
      <trkpt lat="46.43634" lon="5.5907">
        <ele>422.2</ele>
        <time>2022-02-24T18:37:27Z</time>
      </trkpt>
      <trkpt lat="46.43639" lon="5.59071">
        <ele>422.4</ele>
        <time>2022-02-24T18:37:28Z</time>
      </trkpt>
      <trkpt lat="46.43644" lon="5.59073">
        <ele>422.4</ele>
        <time>2022-02-24T18:37:29Z</time>
      </trkpt>
      <trkpt lat="46.43648" lon="5.59075">
        <ele>422.4</ele>
        <time>2022-02-24T18:37:30Z</time>
      </trkpt>
      <trkpt lat="46.43653" lon="5.59077">
        <ele>422.6</ele>
        <time>2022-02-24T18:37:31Z</time>
      </trkpt>
      <trkpt lat="46.43658" lon="5.59079">
        <ele>422.6</ele>
        <time>2022-02-24T18:37:32Z</time>
      </trkpt>
      <trkpt lat="46.43663" lon="5.59082">
        <ele>422.6</ele>
        <time>2022-02-24T18:37:33Z</time>
      </trkpt>
      <trkpt lat="46.43668" lon="5.59084">
        <ele>422.8</ele>
        <time>2022-02-24T18:37:34Z</time>
      </trkpt>
      <trkpt lat="46.43673" lon="5.59087">
        <ele>422.8</ele>
        <time>2022-02-24T18:37:35Z</time>
      </trkpt>
      <trkpt lat="46.43677" lon="5.5909">
        <ele>423.2</ele>
        <time>2022-02-24T18:37:36Z</time>
      </trkpt>
      <trkpt lat="46.43682" lon="5.59093">
        <ele>423.2</ele>
        <time>2022-02-24T18:37:37Z</time>
      </trkpt>
      <trkpt lat="46.43687" lon="5.59096">
        <ele>423.2</ele>
        <time>2022-02-24T18:37:38Z</time>
      </trkpt>
      <trkpt lat="46.43692" lon="5.59099">
        <ele>423.2</ele>
        <time>2022-02-24T18:37:39Z</time>
      </trkpt>
      <trkpt lat="46.43697" lon="5.59102">
        <ele>423.2</ele>
        <time>2022-02-24T18:37:40Z</time>
      </trkpt>
      <trkpt lat="46.43702" lon="5.59105">
        <ele>423.2</ele>
        <time>2022-02-24T18:37:41Z</time>
      </trkpt>
      <trkpt lat="46.43706" lon="5.59108">
        <ele>423.4</ele>
        <time>2022-02-24T18:37:42Z</time>
      </trkpt>
      <trkpt lat="46.43711" lon="5.59111">
        <ele>423.4</ele>
        <time>2022-02-24T18:37:43Z</time>
      </trkpt>
      <trkpt lat="46.43716" lon="5.59114">
        <ele>423.4</ele>
        <time>2022-02-24T18:37:44Z</time>
      </trkpt>
      <trkpt lat="46.43721" lon="5.59117">
        <ele>423.6</ele>
        <time>2022-02-24T18:37:45Z</time>
      </trkpt>
      <trkpt lat="46.43726" lon="5.5912">
        <ele>423.6</ele>
        <time>2022-02-24T18:37:46Z</time>
      </trkpt>
      <trkpt lat="46.43731" lon="5.59123">
        <ele>423.6</ele>
        <time>2022-02-24T18:37:47Z</time>
      </trkpt>
      <trkpt lat="46.43736" lon="5.59127">
        <ele>423.6</ele>
        <time>2022-02-24T18:37:48Z</time>
      </trkpt>
      <trkpt lat="46.43741" lon="5.5913">
        <ele>423.6</ele>
        <time>2022-02-24T18:37:49Z</time>
      </trkpt>
      <trkpt lat="46.43745" lon="5.59133">
        <ele>423.8</ele>
        <time>2022-02-24T18:37:50Z</time>
      </trkpt>
      <trkpt lat="46.4375" lon="5.59136">
        <ele>423.8</ele>
        <time>2022-02-24T18:37:51Z</time>
      </trkpt>
      <trkpt lat="46.43755" lon="5.59139">
        <ele>423.8</ele>
        <time>2022-02-24T18:37:52Z</time>
      </trkpt>
      <trkpt lat="46.4376" lon="5.59142">
        <ele>423.8</ele>
        <time>2022-02-24T18:37:53Z</time>
      </trkpt>
      <trkpt lat="46.43765" lon="5.59145">
        <ele>423.8</ele>
        <time>2022-02-24T18:37:54Z</time>
      </trkpt>
      <trkpt lat="46.4377" lon="5.59148">
        <ele>423.8</ele>
        <time>2022-02-24T18:37:55Z</time>
      </trkpt>
      <trkpt lat="46.43775" lon="5.59151">
        <ele>424</ele>
        <time>2022-02-24T18:37:56Z</time>
      </trkpt>
      <trkpt lat="46.4378" lon="5.59155">
        <ele>424</ele>
        <time>2022-02-24T18:37:57Z</time>
      </trkpt>
      <trkpt lat="46.43785" lon="5.59158">
        <ele>424</ele>
        <time>2022-02-24T18:37:58Z</time>
      </trkpt>
      <trkpt lat="46.43791" lon="5.59161">
        <ele>424</ele>
        <time>2022-02-24T18:37:59Z</time>
      </trkpt>
      <trkpt lat="46.43796" lon="5.59164">
        <ele>424</ele>
        <time>2022-02-24T18:38:00Z</time>
      </trkpt>
      <trkpt lat="46.43802" lon="5.59168">
        <ele>424</ele>
        <time>2022-02-24T18:38:01Z</time>
      </trkpt>
      <trkpt lat="46.43807" lon="5.59171">
        <ele>424.4</ele>
        <time>2022-02-24T18:38:02Z</time>
      </trkpt>
      <trkpt lat="46.43813" lon="5.59175">
        <ele>424.4</ele>
        <time>2022-02-24T18:38:03Z</time>
      </trkpt>
      <trkpt lat="46.43819" lon="5.59178">
        <ele>424.4</ele>
        <time>2022-02-24T18:38:04Z</time>
      </trkpt>
      <trkpt lat="46.43824" lon="5.59182">
        <ele>424.4</ele>
        <time>2022-02-24T18:38:05Z</time>
      </trkpt>
      <trkpt lat="46.4383" lon="5.59185">
        <ele>424.4</ele>
        <time>2022-02-24T18:38:06Z</time>
      </trkpt>
      <trkpt lat="46.43836" lon="5.59189">
        <ele>424.4</ele>
        <time>2022-02-24T18:38:07Z</time>
      </trkpt>
      <trkpt lat="46.43841" lon="5.59192">
        <ele>424.4</ele>
        <time>2022-02-24T18:38:08Z</time>
      </trkpt>
      <trkpt lat="46.43847" lon="5.59195">
        <ele>424.4</ele>
        <time>2022-02-24T18:38:09Z</time>
      </trkpt>
      <trkpt lat="46.43853" lon="5.59198">
        <ele>424.4</ele>
        <time>2022-02-24T18:38:10Z</time>
      </trkpt>
      <trkpt lat="46.43859" lon="5.59202">
        <ele>424.4</ele>
        <time>2022-02-24T18:38:11Z</time>
      </trkpt>
      <trkpt lat="46.43865" lon="5.59204">
        <ele>424</ele>
        <time>2022-02-24T18:38:12Z</time>
      </trkpt>
      <trkpt lat="46.43871" lon="5.59207">
        <ele>424</ele>
        <time>2022-02-24T18:38:13Z</time>
      </trkpt>
      <trkpt lat="46.43877" lon="5.59211">
        <ele>423.6</ele>
        <time>2022-02-24T18:38:14Z</time>
      </trkpt>
      <trkpt lat="46.43883" lon="5.59214">
        <ele>423.4</ele>
        <time>2022-02-24T18:38:15Z</time>
      </trkpt>
      <trkpt lat="46.43889" lon="5.59217">
        <ele>423.2</ele>
        <time>2022-02-24T18:38:16Z</time>
      </trkpt>
      <trkpt lat="46.43894" lon="5.59221">
        <ele>422.8</ele>
        <time>2022-02-24T18:38:17Z</time>
      </trkpt>
      <trkpt lat="46.43899" lon="5.59227">
        <ele>422.4</ele>
        <time>2022-02-24T18:38:18Z</time>
      </trkpt>
      <trkpt lat="46.43903" lon="5.59234">
        <ele>422</ele>
        <time>2022-02-24T18:38:19Z</time>
      </trkpt>
      <trkpt lat="46.43907" lon="5.59241">
        <ele>421.4</ele>
        <time>2022-02-24T18:38:20Z</time>
      </trkpt>
      <trkpt lat="46.43911" lon="5.5925">
        <ele>421</ele>
        <time>2022-02-24T18:38:21Z</time>
      </trkpt>
      <trkpt lat="46.43914" lon="5.59259">
        <ele>420.4</ele>
        <time>2022-02-24T18:38:22Z</time>
      </trkpt>
      <trkpt lat="46.43915" lon="5.5927">
        <ele>419.8</ele>
        <time>2022-02-24T18:38:23Z</time>
      </trkpt>
      <trkpt lat="46.43915" lon="5.59281">
        <ele>419.4</ele>
        <time>2022-02-24T18:38:24Z</time>
      </trkpt>
      <trkpt lat="46.43915" lon="5.59292">
        <ele>418.8</ele>
        <time>2022-02-24T18:38:25Z</time>
      </trkpt>
      <trkpt lat="46.43915" lon="5.59304">
        <ele>418.2</ele>
        <time>2022-02-24T18:38:26Z</time>
      </trkpt>
      <trkpt lat="46.43915" lon="5.59316">
        <ele>417.8</ele>
        <time>2022-02-24T18:38:27Z</time>
      </trkpt>
      <trkpt lat="46.43916" lon="5.59327">
        <ele>417.2</ele>
        <time>2022-02-24T18:38:28Z</time>
      </trkpt>
      <trkpt lat="46.43917" lon="5.59338">
        <ele>416.6</ele>
        <time>2022-02-24T18:38:29Z</time>
      </trkpt>
      <trkpt lat="46.43919" lon="5.59349">
        <ele>416.2</ele>
        <time>2022-02-24T18:38:30Z</time>
      </trkpt>
      <trkpt lat="46.43922" lon="5.59359">
        <ele>415.6</ele>
        <time>2022-02-24T18:38:31Z</time>
      </trkpt>
      <trkpt lat="46.43927" lon="5.59367">
        <ele>415.2</ele>
        <time>2022-02-24T18:38:32Z</time>
      </trkpt>
      <trkpt lat="46.43932" lon="5.59375">
        <ele>415</ele>
        <time>2022-02-24T18:38:33Z</time>
      </trkpt>
      <trkpt lat="46.43938" lon="5.59381">
        <ele>414.6</ele>
        <time>2022-02-24T18:38:34Z</time>
      </trkpt>
      <trkpt lat="46.43945" lon="5.59386">
        <ele>414.4</ele>
        <time>2022-02-24T18:38:35Z</time>
      </trkpt>
      <trkpt lat="46.43952" lon="5.5939">
        <ele>414.2</ele>
        <time>2022-02-24T18:38:36Z</time>
      </trkpt>
      <trkpt lat="46.43958" lon="5.59394">
        <ele>414.2</ele>
        <time>2022-02-24T18:38:37Z</time>
      </trkpt>
      <trkpt lat="46.43965" lon="5.59398">
        <ele>413.8</ele>
        <time>2022-02-24T18:38:38Z</time>
      </trkpt>
      <trkpt lat="46.43972" lon="5.59401">
        <ele>413.8</ele>
        <time>2022-02-24T18:38:39Z</time>
      </trkpt>
      <trkpt lat="46.43978" lon="5.59405">
        <ele>413.4</ele>
        <time>2022-02-24T18:38:40Z</time>
      </trkpt>
      <trkpt lat="46.43984" lon="5.59409">
        <ele>413.4</ele>
        <time>2022-02-24T18:38:41Z</time>
      </trkpt>
      <trkpt lat="46.43991" lon="5.59413">
        <ele>413.2</ele>
        <time>2022-02-24T18:38:42Z</time>
      </trkpt>
      <trkpt lat="46.43997" lon="5.59416">
        <ele>413.2</ele>
        <time>2022-02-24T18:38:43Z</time>
      </trkpt>
      <trkpt lat="46.44003" lon="5.5942">
        <ele>413</ele>
        <time>2022-02-24T18:38:44Z</time>
      </trkpt>
      <trkpt lat="46.44009" lon="5.59424">
        <ele>413</ele>
        <time>2022-02-24T18:38:45Z</time>
      </trkpt>
      <trkpt lat="46.44015" lon="5.59428">
        <ele>413</ele>
        <time>2022-02-24T18:38:46Z</time>
      </trkpt>
      <trkpt lat="46.44021" lon="5.59431">
        <ele>413</ele>
        <time>2022-02-24T18:38:47Z</time>
      </trkpt>
      <trkpt lat="46.44027" lon="5.59435">
        <ele>413</ele>
        <time>2022-02-24T18:38:48Z</time>
      </trkpt>
      <trkpt lat="46.44033" lon="5.59438">
        <ele>413</ele>
        <time>2022-02-24T18:38:49Z</time>
      </trkpt>
      <trkpt lat="46.44039" lon="5.59442">
        <ele>413</ele>
        <time>2022-02-24T18:38:50Z</time>
      </trkpt>
      <trkpt lat="46.44045" lon="5.59446">
        <ele>413</ele>
        <time>2022-02-24T18:38:51Z</time>
      </trkpt>
      <trkpt lat="46.4405" lon="5.5945">
        <ele>413</ele>
        <time>2022-02-24T18:38:52Z</time>
      </trkpt>
      <trkpt lat="46.44055" lon="5.59454">
        <ele>413</ele>
        <time>2022-02-24T18:38:53Z</time>
      </trkpt>
      <trkpt lat="46.44059" lon="5.59459">
        <ele>413.4</ele>
        <time>2022-02-24T18:38:54Z</time>
      </trkpt>
      <trkpt lat="46.44062" lon="5.59464">
        <ele>413.6</ele>
        <time>2022-02-24T18:38:55Z</time>
      </trkpt>
      <trkpt lat="46.44064" lon="5.59468">
        <ele>414</ele>
        <time>2022-02-24T18:38:56Z</time>
      </trkpt>
      <trkpt lat="46.44066" lon="5.59473">
        <ele>414.2</ele>
        <time>2022-02-24T18:38:57Z</time>
      </trkpt>
      <trkpt lat="46.44067" lon="5.59477">
        <ele>414.6</ele>
        <time>2022-02-24T18:38:58Z</time>
      </trkpt>
      <trkpt lat="46.44069" lon="5.59481">
        <ele>414.8</ele>
        <time>2022-02-24T18:38:59Z</time>
      </trkpt>
      <trkpt lat="46.4407" lon="5.59484">
        <ele>415.2</ele>
        <time>2022-02-24T18:39:00Z</time>
      </trkpt>
      <trkpt lat="46.44071" lon="5.59488">
        <ele>415.4</ele>
        <time>2022-02-24T18:39:01Z</time>
      </trkpt>
      <trkpt lat="46.44072" lon="5.59492">
        <ele>415.8</ele>
        <time>2022-02-24T18:39:02Z</time>
      </trkpt>
      <trkpt lat="46.44073" lon="5.59495">
        <ele>416</ele>
        <time>2022-02-24T18:39:03Z</time>
      </trkpt>
      <trkpt lat="46.44074" lon="5.59499">
        <ele>416.4</ele>
        <time>2022-02-24T18:39:04Z</time>
      </trkpt>
      <trkpt lat="46.44075" lon="5.59503">
        <ele>416.8</ele>
        <time>2022-02-24T18:39:05Z</time>
      </trkpt>
      <trkpt lat="46.44076" lon="5.59506">
        <ele>417</ele>
        <time>2022-02-24T18:39:06Z</time>
      </trkpt>
      <trkpt lat="46.44077" lon="5.59509">
        <ele>417.4</ele>
        <time>2022-02-24T18:39:07Z</time>
      </trkpt>
      <trkpt lat="46.44078" lon="5.59513">
        <ele>417.8</ele>
        <time>2022-02-24T18:39:08Z</time>
      </trkpt>
      <trkpt lat="46.4408" lon="5.59516">
        <ele>418</ele>
        <time>2022-02-24T18:39:09Z</time>
      </trkpt>
      <trkpt lat="46.44081" lon="5.59519">
        <ele>418.4</ele>
        <time>2022-02-24T18:39:10Z</time>
      </trkpt>
      <trkpt lat="46.44082" lon="5.59523">
        <ele>418.6</ele>
        <time>2022-02-24T18:39:11Z</time>
      </trkpt>
      <trkpt lat="46.44083" lon="5.59526">
        <ele>419</ele>
        <time>2022-02-24T18:39:12Z</time>
      </trkpt>
      <trkpt lat="46.44084" lon="5.5953">
        <ele>419.4</ele>
        <time>2022-02-24T18:39:13Z</time>
      </trkpt>
      <trkpt lat="46.44085" lon="5.59533">
        <ele>419.8</ele>
        <time>2022-02-24T18:39:14Z</time>
      </trkpt>
      <trkpt lat="46.44086" lon="5.59536">
        <ele>420</ele>
        <time>2022-02-24T18:39:15Z</time>
      </trkpt>
      <trkpt lat="46.44087" lon="5.59539">
        <ele>420.4</ele>
        <time>2022-02-24T18:39:16Z</time>
      </trkpt>
      <trkpt lat="46.44089" lon="5.59542">
        <ele>420.8</ele>
        <time>2022-02-24T18:39:17Z</time>
      </trkpt>
      <trkpt lat="46.4409" lon="5.59546">
        <ele>421.2</ele>
        <time>2022-02-24T18:39:18Z</time>
      </trkpt>
      <trkpt lat="46.44091" lon="5.59549">
        <ele>421.4</ele>
        <time>2022-02-24T18:39:19Z</time>
      </trkpt>
      <trkpt lat="46.44091" lon="5.59552">
        <ele>421.6</ele>
        <time>2022-02-24T18:39:20Z</time>
      </trkpt>
      <trkpt lat="46.44092" lon="5.59555">
        <ele>422</ele>
        <time>2022-02-24T18:39:21Z</time>
      </trkpt>
      <trkpt lat="46.44093" lon="5.59558">
        <ele>422.2</ele>
        <time>2022-02-24T18:39:22Z</time>
      </trkpt>
      <trkpt lat="46.44094" lon="5.59561">
        <ele>422.4</ele>
        <time>2022-02-24T18:39:23Z</time>
      </trkpt>
      <trkpt lat="46.44095" lon="5.59564">
        <ele>422.6</ele>
        <time>2022-02-24T18:39:24Z</time>
      </trkpt>
      <trkpt lat="46.44096" lon="5.59567">
        <ele>423</ele>
        <time>2022-02-24T18:39:25Z</time>
      </trkpt>
      <trkpt lat="46.44098" lon="5.5957">
        <ele>423.2</ele>
        <time>2022-02-24T18:39:26Z</time>
      </trkpt>
      <trkpt lat="46.44099" lon="5.59573">
        <ele>423.4</ele>
        <time>2022-02-24T18:39:27Z</time>
      </trkpt>
      <trkpt lat="46.441" lon="5.59577">
        <ele>423.6</ele>
        <time>2022-02-24T18:39:28Z</time>
      </trkpt>
      <trkpt lat="46.44101" lon="5.5958">
        <ele>423.8</ele>
        <time>2022-02-24T18:39:29Z</time>
      </trkpt>
      <trkpt lat="46.44102" lon="5.59583">
        <ele>424.2</ele>
        <time>2022-02-24T18:39:30Z</time>
      </trkpt>
      <trkpt lat="46.44103" lon="5.59586">
        <ele>424.4</ele>
        <time>2022-02-24T18:39:31Z</time>
      </trkpt>
      <trkpt lat="46.44104" lon="5.59589">
        <ele>424.6</ele>
        <time>2022-02-24T18:39:32Z</time>
      </trkpt>
      <trkpt lat="46.44105" lon="5.59592">
        <ele>424.8</ele>
        <time>2022-02-24T18:39:33Z</time>
      </trkpt>
      <trkpt lat="46.44106" lon="5.59596">
        <ele>425</ele>
        <time>2022-02-24T18:39:34Z</time>
      </trkpt>
      <trkpt lat="46.44107" lon="5.59599">
        <ele>425.4</ele>
        <time>2022-02-24T18:39:35Z</time>
      </trkpt>
      <trkpt lat="46.44108" lon="5.59602">
        <ele>425.4</ele>
        <time>2022-02-24T18:39:36Z</time>
      </trkpt>
      <trkpt lat="46.44109" lon="5.59605">
        <ele>425.8</ele>
        <time>2022-02-24T18:39:37Z</time>
      </trkpt>
      <trkpt lat="46.4411" lon="5.59608">
        <ele>426</ele>
        <time>2022-02-24T18:39:38Z</time>
      </trkpt>
      <trkpt lat="46.44111" lon="5.59611">
        <ele>426.4</ele>
        <time>2022-02-24T18:39:39Z</time>
      </trkpt>
      <trkpt lat="46.44112" lon="5.59614">
        <ele>426.6</ele>
        <time>2022-02-24T18:39:40Z</time>
      </trkpt>
      <trkpt lat="46.44113" lon="5.59617">
        <ele>427</ele>
        <time>2022-02-24T18:39:41Z</time>
      </trkpt>
      <trkpt lat="46.44114" lon="5.5962">
        <ele>427.2</ele>
        <time>2022-02-24T18:39:42Z</time>
      </trkpt>
      <trkpt lat="46.44115" lon="5.59623">
        <ele>427.4</ele>
        <time>2022-02-24T18:39:43Z</time>
      </trkpt>
      <trkpt lat="46.44116" lon="5.59626">
        <ele>427.4</ele>
        <time>2022-02-24T18:39:44Z</time>
      </trkpt>
      <trkpt lat="46.44117" lon="5.59629">
        <ele>427.8</ele>
        <time>2022-02-24T18:39:45Z</time>
      </trkpt>
      <trkpt lat="46.44118" lon="5.59632">
        <ele>428</ele>
        <time>2022-02-24T18:39:46Z</time>
      </trkpt>
      <trkpt lat="46.44119" lon="5.59635">
        <ele>428.2</ele>
        <time>2022-02-24T18:39:47Z</time>
      </trkpt>
      <trkpt lat="46.4412" lon="5.59638">
        <ele>428.2</ele>
        <time>2022-02-24T18:39:48Z</time>
      </trkpt>
      <trkpt lat="46.44121" lon="5.59642">
        <ele>428.2</ele>
        <time>2022-02-24T18:39:49Z</time>
      </trkpt>
      <trkpt lat="46.44122" lon="5.59645">
        <ele>428.6</ele>
        <time>2022-02-24T18:39:50Z</time>
      </trkpt>
      <trkpt lat="46.44123" lon="5.59648">
        <ele>428.6</ele>
        <time>2022-02-24T18:39:51Z</time>
      </trkpt>
      <trkpt lat="46.44123" lon="5.59651">
        <ele>429.2</ele>
        <time>2022-02-24T18:39:52Z</time>
      </trkpt>
      <trkpt lat="46.44124" lon="5.59654">
        <ele>429.4</ele>
        <time>2022-02-24T18:39:53Z</time>
      </trkpt>
      <trkpt lat="46.44125" lon="5.59657">
        <ele>429.8</ele>
        <time>2022-02-24T18:39:54Z</time>
      </trkpt>
      <trkpt lat="46.44126" lon="5.5966">
        <ele>430</ele>
        <time>2022-02-24T18:39:55Z</time>
      </trkpt>
      <trkpt lat="46.44127" lon="5.59663">
        <ele>430.4</ele>
        <time>2022-02-24T18:39:56Z</time>
      </trkpt>
      <trkpt lat="46.44128" lon="5.59666">
        <ele>430.6</ele>
        <time>2022-02-24T18:39:57Z</time>
      </trkpt>
      <trkpt lat="46.44129" lon="5.5967">
        <ele>430.8</ele>
        <time>2022-02-24T18:39:58Z</time>
      </trkpt>
      <trkpt lat="46.4413" lon="5.59673">
        <ele>430.8</ele>
        <time>2022-02-24T18:39:59Z</time>
      </trkpt>
      <trkpt lat="46.44131" lon="5.59676">
        <ele>431.2</ele>
        <time>2022-02-24T18:40:00Z</time>
      </trkpt>
      <trkpt lat="46.44132" lon="5.59679">
        <ele>431.4</ele>
        <time>2022-02-24T18:40:01Z</time>
      </trkpt>
      <trkpt lat="46.44133" lon="5.59681">
        <ele>431.4</ele>
        <time>2022-02-24T18:40:02Z</time>
      </trkpt>
      <trkpt lat="46.44133" lon="5.59684">
        <ele>431.8</ele>
        <time>2022-02-24T18:40:03Z</time>
      </trkpt>
      <trkpt lat="46.44134" lon="5.59687">
        <ele>431.8</ele>
        <time>2022-02-24T18:40:04Z</time>
      </trkpt>
      <trkpt lat="46.44135" lon="5.59689">
        <ele>432.2</ele>
        <time>2022-02-24T18:40:05Z</time>
      </trkpt>
      <trkpt lat="46.44136" lon="5.59692">
        <ele>432.4</ele>
        <time>2022-02-24T18:40:06Z</time>
      </trkpt>
      <trkpt lat="46.44137" lon="5.59695">
        <ele>432.6</ele>
        <time>2022-02-24T18:40:07Z</time>
      </trkpt>
      <trkpt lat="46.44137" lon="5.59698">
        <ele>432.8</ele>
        <time>2022-02-24T18:40:08Z</time>
      </trkpt>
      <trkpt lat="46.44138" lon="5.59701">
        <ele>433</ele>
        <time>2022-02-24T18:40:09Z</time>
      </trkpt>
      <trkpt lat="46.44138" lon="5.59704">
        <ele>433.4</ele>
        <time>2022-02-24T18:40:10Z</time>
      </trkpt>
      <trkpt lat="46.44138" lon="5.59707">
        <ele>433.8</ele>
        <time>2022-02-24T18:40:11Z</time>
      </trkpt>
      <trkpt lat="46.44139" lon="5.5971">
        <ele>434.2</ele>
        <time>2022-02-24T18:40:12Z</time>
      </trkpt>
      <trkpt lat="46.44139" lon="5.59713">
        <ele>434.2</ele>
        <time>2022-02-24T18:40:13Z</time>
      </trkpt>
      <trkpt lat="46.44139" lon="5.59716">
        <ele>434.6</ele>
        <time>2022-02-24T18:40:14Z</time>
      </trkpt>
      <trkpt lat="46.44139" lon="5.59719">
        <ele>434.8</ele>
        <time>2022-02-24T18:40:15Z</time>
      </trkpt>
      <trkpt lat="46.44139" lon="5.59722">
        <ele>435</ele>
        <time>2022-02-24T18:40:16Z</time>
      </trkpt>
      <trkpt lat="46.44139" lon="5.59725">
        <ele>435.2</ele>
        <time>2022-02-24T18:40:17Z</time>
      </trkpt>
      <trkpt lat="46.4414" lon="5.59728">
        <ele>435.4</ele>
        <time>2022-02-24T18:40:18Z</time>
      </trkpt>
      <trkpt lat="46.44139" lon="5.59731">
        <ele>435.6</ele>
        <time>2022-02-24T18:40:19Z</time>
      </trkpt>
      <trkpt lat="46.4414" lon="5.59734">
        <ele>435.6</ele>
        <time>2022-02-24T18:40:20Z</time>
      </trkpt>
      <trkpt lat="46.4414" lon="5.59737">
        <ele>435.8</ele>
        <time>2022-02-24T18:40:21Z</time>
      </trkpt>
      <trkpt lat="46.44141" lon="5.59741">
        <ele>435.8</ele>
        <time>2022-02-24T18:40:22Z</time>
      </trkpt>
      <trkpt lat="46.44141" lon="5.59744">
        <ele>435.8</ele>
        <time>2022-02-24T18:40:23Z</time>
      </trkpt>
      <trkpt lat="46.44142" lon="5.59747">
        <ele>436.2</ele>
        <time>2022-02-24T18:40:24Z</time>
      </trkpt>
      <trkpt lat="46.44142" lon="5.5975">
        <ele>436.2</ele>
        <time>2022-02-24T18:40:25Z</time>
      </trkpt>
      <trkpt lat="46.44143" lon="5.59754">
        <ele>436.6</ele>
        <time>2022-02-24T18:40:26Z</time>
      </trkpt>
      <trkpt lat="46.44143" lon="5.59757">
        <ele>436.6</ele>
        <time>2022-02-24T18:40:27Z</time>
      </trkpt>
      <trkpt lat="46.44144" lon="5.59761">
        <ele>436.8</ele>
        <time>2022-02-24T18:40:28Z</time>
      </trkpt>
      <trkpt lat="46.44144" lon="5.59764">
        <ele>436.8</ele>
        <time>2022-02-24T18:40:29Z</time>
      </trkpt>
      <trkpt lat="46.44144" lon="5.59768">
        <ele>437</ele>
        <time>2022-02-24T18:40:30Z</time>
      </trkpt>
      <trkpt lat="46.44144" lon="5.59771">
        <ele>437</ele>
        <time>2022-02-24T18:40:31Z</time>
      </trkpt>
      <trkpt lat="46.44144" lon="5.59775">
        <ele>437.4</ele>
        <time>2022-02-24T18:40:32Z</time>
      </trkpt>
      <trkpt lat="46.44144" lon="5.59778">
        <ele>437.4</ele>
        <time>2022-02-24T18:40:33Z</time>
      </trkpt>
      <trkpt lat="46.44144" lon="5.59782">
        <ele>437.8</ele>
        <time>2022-02-24T18:40:34Z</time>
      </trkpt>
      <trkpt lat="46.44144" lon="5.59786">
        <ele>437.8</ele>
        <time>2022-02-24T18:40:35Z</time>
      </trkpt>
      <trkpt lat="46.44144" lon="5.5979">
        <ele>438</ele>
        <time>2022-02-24T18:40:36Z</time>
      </trkpt>
      <trkpt lat="46.44144" lon="5.59793">
        <ele>438</ele>
        <time>2022-02-24T18:40:37Z</time>
      </trkpt>
      <trkpt lat="46.44145" lon="5.59797">
        <ele>438.4</ele>
        <time>2022-02-24T18:40:38Z</time>
      </trkpt>
      <trkpt lat="46.44145" lon="5.59801">
        <ele>438.4</ele>
        <time>2022-02-24T18:40:39Z</time>
      </trkpt>
      <trkpt lat="46.44145" lon="5.59805">
        <ele>438.6</ele>
        <time>2022-02-24T18:40:40Z</time>
      </trkpt>
      <trkpt lat="46.44145" lon="5.59809">
        <ele>438.8</ele>
        <time>2022-02-24T18:40:41Z</time>
      </trkpt>
      <trkpt lat="46.44145" lon="5.59812">
        <ele>438.8</ele>
        <time>2022-02-24T18:40:42Z</time>
      </trkpt>
      <trkpt lat="46.44146" lon="5.59816">
        <ele>439</ele>
        <time>2022-02-24T18:40:43Z</time>
      </trkpt>
      <trkpt lat="46.44147" lon="5.5982">
        <ele>439</ele>
        <time>2022-02-24T18:40:44Z</time>
      </trkpt>
      <trkpt lat="46.44148" lon="5.59824">
        <ele>439</ele>
        <time>2022-02-24T18:40:45Z</time>
      </trkpt>
      <trkpt lat="46.44149" lon="5.59828">
        <ele>439.2</ele>
        <time>2022-02-24T18:40:46Z</time>
      </trkpt>
      <trkpt lat="46.44149" lon="5.59831">
        <ele>439.2</ele>
        <time>2022-02-24T18:40:47Z</time>
      </trkpt>
      <trkpt lat="46.4415" lon="5.59835">
        <ele>439.2</ele>
        <time>2022-02-24T18:40:48Z</time>
      </trkpt>
      <trkpt lat="46.4415" lon="5.59839">
        <ele>439.2</ele>
        <time>2022-02-24T18:40:49Z</time>
      </trkpt>
      <trkpt lat="46.4415" lon="5.59843">
        <ele>439.2</ele>
        <time>2022-02-24T18:40:50Z</time>
      </trkpt>
      <trkpt lat="46.44151" lon="5.59847">
        <ele>439.6</ele>
        <time>2022-02-24T18:40:51Z</time>
      </trkpt>
      <trkpt lat="46.44152" lon="5.59851">
        <ele>439.6</ele>
        <time>2022-02-24T18:40:52Z</time>
      </trkpt>
      <trkpt lat="46.44152" lon="5.59855">
        <ele>439.6</ele>
        <time>2022-02-24T18:40:53Z</time>
      </trkpt>
      <trkpt lat="46.44154" lon="5.59863">
        <ele>439.6</ele>
        <time>2022-02-24T18:40:54Z</time>
      </trkpt>
      <trkpt lat="46.44155" lon="5.59867">
        <ele>439.8</ele>
        <time>2022-02-24T18:40:55Z</time>
      </trkpt>
      <trkpt lat="46.44156" lon="5.59871">
        <ele>439.8</ele>
        <time>2022-02-24T18:40:56Z</time>
      </trkpt>
      <trkpt lat="46.44158" lon="5.59875">
        <ele>439.8</ele>
        <time>2022-02-24T18:40:57Z</time>
      </trkpt>
      <trkpt lat="46.44158" lon="5.59879">
        <ele>440.2</ele>
        <time>2022-02-24T18:40:58Z</time>
      </trkpt>
      <trkpt lat="46.44159" lon="5.59883">
        <ele>440.2</ele>
        <time>2022-02-24T18:40:59Z</time>
      </trkpt>
      <trkpt lat="46.4416" lon="5.59887">
        <ele>440.4</ele>
        <time>2022-02-24T18:41:00Z</time>
      </trkpt>
      <trkpt lat="46.44162" lon="5.59891">
        <ele>440.4</ele>
        <time>2022-02-24T18:41:01Z</time>
      </trkpt>
      <trkpt lat="46.44163" lon="5.59895">
        <ele>440.4</ele>
        <time>2022-02-24T18:41:02Z</time>
      </trkpt>
      <trkpt lat="46.44164" lon="5.59899">
        <ele>440.6</ele>
        <time>2022-02-24T18:41:03Z</time>
      </trkpt>
      <trkpt lat="46.44165" lon="5.59903">
        <ele>440.6</ele>
        <time>2022-02-24T18:41:04Z</time>
      </trkpt>
      <trkpt lat="46.44166" lon="5.59907">
        <ele>440.6</ele>
        <time>2022-02-24T18:41:05Z</time>
      </trkpt>
      <trkpt lat="46.44167" lon="5.5991">
        <ele>440.6</ele>
        <time>2022-02-24T18:41:06Z</time>
      </trkpt>
      <trkpt lat="46.44169" lon="5.59913">
        <ele>441</ele>
        <time>2022-02-24T18:41:07Z</time>
      </trkpt>
      <trkpt lat="46.44171" lon="5.59916">
        <ele>441</ele>
        <time>2022-02-24T18:41:08Z</time>
      </trkpt>
      <trkpt lat="46.44173" lon="5.59919">
        <ele>441</ele>
        <time>2022-02-24T18:41:09Z</time>
      </trkpt>
      <trkpt lat="46.44175" lon="5.59921">
        <ele>441</ele>
        <time>2022-02-24T18:41:10Z</time>
      </trkpt>
      <trkpt lat="46.44178" lon="5.59924">
        <ele>441.2</ele>
        <time>2022-02-24T18:41:11Z</time>
      </trkpt>
      <trkpt lat="46.4418" lon="5.59927">
        <ele>441.2</ele>
        <time>2022-02-24T18:41:12Z</time>
      </trkpt>
      <trkpt lat="46.44183" lon="5.5993">
        <ele>441.2</ele>
        <time>2022-02-24T18:41:13Z</time>
      </trkpt>
      <trkpt lat="46.44186" lon="5.59933">
        <ele>441.2</ele>
        <time>2022-02-24T18:41:14Z</time>
      </trkpt>
      <trkpt lat="46.44189" lon="5.59936">
        <ele>441.4</ele>
        <time>2022-02-24T18:41:15Z</time>
      </trkpt>
      <trkpt lat="46.44191" lon="5.59938">
        <ele>441.4</ele>
        <time>2022-02-24T18:41:16Z</time>
      </trkpt>
      <trkpt lat="46.44194" lon="5.5994">
        <ele>441.4</ele>
        <time>2022-02-24T18:41:17Z</time>
      </trkpt>
      <trkpt lat="46.44197" lon="5.59943">
        <ele>441.4</ele>
        <time>2022-02-24T18:41:18Z</time>
      </trkpt>
      <trkpt lat="46.44199" lon="5.59946">
        <ele>441.4</ele>
        <time>2022-02-24T18:41:19Z</time>
      </trkpt>
      <trkpt lat="46.44202" lon="5.59948">
        <ele>441.4</ele>
        <time>2022-02-24T18:41:20Z</time>
      </trkpt>
      <trkpt lat="46.44204" lon="5.59951">
        <ele>441.4</ele>
        <time>2022-02-24T18:41:21Z</time>
      </trkpt>
      <trkpt lat="46.44207" lon="5.59953">
        <ele>441.4</ele>
        <time>2022-02-24T18:41:22Z</time>
      </trkpt>
      <trkpt lat="46.4421" lon="5.59956">
        <ele>441.4</ele>
        <time>2022-02-24T18:41:23Z</time>
      </trkpt>
      <trkpt lat="46.44213" lon="5.59959">
        <ele>441.4</ele>
        <time>2022-02-24T18:41:24Z</time>
      </trkpt>
      <trkpt lat="46.44216" lon="5.59962">
        <ele>441.4</ele>
        <time>2022-02-24T18:41:25Z</time>
      </trkpt>
      <trkpt lat="46.44219" lon="5.59966">
        <ele>441.4</ele>
        <time>2022-02-24T18:41:26Z</time>
      </trkpt>
      <trkpt lat="46.44223" lon="5.5997">
        <ele>441.4</ele>
        <time>2022-02-24T18:41:27Z</time>
      </trkpt>
      <trkpt lat="46.44226" lon="5.59974">
        <ele>441.4</ele>
        <time>2022-02-24T18:41:28Z</time>
      </trkpt>
      <trkpt lat="46.4423" lon="5.59978">
        <ele>441.4</ele>
        <time>2022-02-24T18:41:29Z</time>
      </trkpt>
      <trkpt lat="46.44233" lon="5.59981">
        <ele>441.4</ele>
        <time>2022-02-24T18:41:30Z</time>
      </trkpt>
      <trkpt lat="46.44236" lon="5.59985">
        <ele>441.4</ele>
        <time>2022-02-24T18:41:31Z</time>
      </trkpt>
      <trkpt lat="46.44239" lon="5.59988">
        <ele>441.4</ele>
        <time>2022-02-24T18:41:32Z</time>
      </trkpt>
      <trkpt lat="46.44242" lon="5.59991">
        <ele>441.4</ele>
        <time>2022-02-24T18:41:33Z</time>
      </trkpt>
      <trkpt lat="46.44245" lon="5.59994">
        <ele>441.6</ele>
        <time>2022-02-24T18:41:34Z</time>
      </trkpt>
      <trkpt lat="46.44248" lon="5.59997">
        <ele>441.6</ele>
        <time>2022-02-24T18:41:35Z</time>
      </trkpt>
      <trkpt lat="46.44251" lon="5.6">
        <ele>441.6</ele>
        <time>2022-02-24T18:41:36Z</time>
      </trkpt>
      <trkpt lat="46.44254" lon="5.60002">
        <ele>441.6</ele>
        <time>2022-02-24T18:41:37Z</time>
      </trkpt>
      <trkpt lat="46.44257" lon="5.60005">
        <ele>441.6</ele>
        <time>2022-02-24T18:41:38Z</time>
      </trkpt>
      <trkpt lat="46.44261" lon="5.60007">
        <ele>441.6</ele>
        <time>2022-02-24T18:41:39Z</time>
      </trkpt>
      <trkpt lat="46.44265" lon="5.60008">
        <ele>441.2</ele>
        <time>2022-02-24T18:41:40Z</time>
      </trkpt>
      <trkpt lat="46.4427" lon="5.60008">
        <ele>441.2</ele>
        <time>2022-02-24T18:41:41Z</time>
      </trkpt>
      <trkpt lat="46.44275" lon="5.60008">
        <ele>441</ele>
        <time>2022-02-24T18:41:42Z</time>
      </trkpt>
      <trkpt lat="46.44281" lon="5.60008">
        <ele>440.8</ele>
        <time>2022-02-24T18:41:43Z</time>
      </trkpt>
      <trkpt lat="46.44287" lon="5.60006">
        <ele>440.4</ele>
        <time>2022-02-24T18:41:44Z</time>
      </trkpt>
      <trkpt lat="46.44293" lon="5.60003">
        <ele>440.2</ele>
        <time>2022-02-24T18:41:45Z</time>
      </trkpt>
      <trkpt lat="46.44298" lon="5.59998">
        <ele>439.8</ele>
        <time>2022-02-24T18:41:46Z</time>
      </trkpt>
      <trkpt lat="46.44303" lon="5.59992">
        <ele>439.6</ele>
        <time>2022-02-24T18:41:47Z</time>
      </trkpt>
      <trkpt lat="46.44308" lon="5.59986">
        <ele>439.6</ele>
        <time>2022-02-24T18:41:48Z</time>
      </trkpt>
      <trkpt lat="46.44312" lon="5.5998">
        <ele>439.6</ele>
        <time>2022-02-24T18:41:49Z</time>
      </trkpt>
      <trkpt lat="46.44314" lon="5.59978">
        <ele>439.6</ele>
        <time>2022-02-24T18:41:50Z</time>
      </trkpt>
      <trkpt lat="46.44316" lon="5.59977">
        <ele>439.6</ele>
        <time>2022-02-24T18:41:51Z</time>
      </trkpt>
      <trkpt lat="46.4432" lon="5.59973">
        <ele>439.6</ele>
        <time>2022-02-24T18:41:52Z</time>
      </trkpt>
      <trkpt lat="46.44325" lon="5.5997">
        <ele>439.8</ele>
        <time>2022-02-24T18:41:53Z</time>
      </trkpt>
      <trkpt lat="46.44329" lon="5.59969">
        <ele>440.2</ele>
        <time>2022-02-24T18:41:55Z</time>
      </trkpt>
      <trkpt lat="46.44333" lon="5.59968">
        <ele>440.6</ele>
        <time>2022-02-24T18:41:56Z</time>
      </trkpt>
      <trkpt lat="46.44337" lon="5.59968">
        <ele>440.8</ele>
        <time>2022-02-24T18:41:57Z</time>
      </trkpt>
      <trkpt lat="46.44341" lon="5.59968">
        <ele>440.8</ele>
        <time>2022-02-24T18:41:58Z</time>
      </trkpt>
      <trkpt lat="46.44344" lon="5.59969">
        <ele>441.2</ele>
        <time>2022-02-24T18:41:59Z</time>
      </trkpt>
      <trkpt lat="46.44347" lon="5.59969">
        <ele>441.4</ele>
        <time>2022-02-24T18:42:00Z</time>
      </trkpt>
      <trkpt lat="46.4435" lon="5.5997">
        <ele>441.6</ele>
        <time>2022-02-24T18:42:01Z</time>
      </trkpt>
      <trkpt lat="46.44353" lon="5.59971">
        <ele>441.8</ele>
        <time>2022-02-24T18:42:02Z</time>
      </trkpt>
      <trkpt lat="46.44356" lon="5.59972">
        <ele>441.8</ele>
        <time>2022-02-24T18:42:03Z</time>
      </trkpt>
      <trkpt lat="46.44362" lon="5.59973">
        <ele>442.2</ele>
        <time>2022-02-24T18:42:04Z</time>
      </trkpt>
      <trkpt lat="46.44365" lon="5.59973">
        <ele>442.4</ele>
        <time>2022-02-24T18:42:05Z</time>
      </trkpt>
      <trkpt lat="46.44368" lon="5.59974">
        <ele>442.4</ele>
        <time>2022-02-24T18:42:06Z</time>
      </trkpt>
      <trkpt lat="46.44371" lon="5.59974">
        <ele>442.8</ele>
        <time>2022-02-24T18:42:07Z</time>
      </trkpt>
      <trkpt lat="46.44373" lon="5.59975">
        <ele>442.8</ele>
        <time>2022-02-24T18:42:08Z</time>
      </trkpt>
      <trkpt lat="46.44376" lon="5.59976">
        <ele>443.2</ele>
        <time>2022-02-24T18:42:09Z</time>
      </trkpt>
      <trkpt lat="46.44379" lon="5.59976">
        <ele>443.4</ele>
        <time>2022-02-24T18:42:10Z</time>
      </trkpt>
      <trkpt lat="46.44382" lon="5.59976">
        <ele>443.4</ele>
        <time>2022-02-24T18:42:11Z</time>
      </trkpt>
      <trkpt lat="46.44382" lon="5.59976">
        <ele>443.6</ele>
        <time>2022-02-24T18:42:12Z</time>
      </trkpt>
      <trkpt lat="46.44385" lon="5.59976">
        <ele>443.6</ele>
        <time>2022-02-24T18:42:13Z</time>
      </trkpt>
      <trkpt lat="46.44388" lon="5.59976">
        <ele>444</ele>
        <time>2022-02-24T18:42:14Z</time>
      </trkpt>
      <trkpt lat="46.4439" lon="5.59977">
        <ele>444</ele>
        <time>2022-02-24T18:42:15Z</time>
      </trkpt>
      <trkpt lat="46.44393" lon="5.59977">
        <ele>444.2</ele>
        <time>2022-02-24T18:42:16Z</time>
      </trkpt>
      <trkpt lat="46.44396" lon="5.59978">
        <ele>444.2</ele>
        <time>2022-02-24T18:42:17Z</time>
      </trkpt>
      <trkpt lat="46.44399" lon="5.59979">
        <ele>444.4</ele>
        <time>2022-02-24T18:42:18Z</time>
      </trkpt>
      <trkpt lat="46.44402" lon="5.59981">
        <ele>444.4</ele>
        <time>2022-02-24T18:42:19Z</time>
      </trkpt>
      <trkpt lat="46.44405" lon="5.59982">
        <ele>444.6</ele>
        <time>2022-02-24T18:42:20Z</time>
      </trkpt>
      <trkpt lat="46.44408" lon="5.59982">
        <ele>444.6</ele>
        <time>2022-02-24T18:42:21Z</time>
      </trkpt>
      <trkpt lat="46.44411" lon="5.59984">
        <ele>445</ele>
        <time>2022-02-24T18:42:22Z</time>
      </trkpt>
      <trkpt lat="46.44414" lon="5.59985">
        <ele>445</ele>
        <time>2022-02-24T18:42:23Z</time>
      </trkpt>
      <trkpt lat="46.44417" lon="5.59986">
        <ele>445</ele>
        <time>2022-02-24T18:42:24Z</time>
      </trkpt>
      <trkpt lat="46.4442" lon="5.59988">
        <ele>445.2</ele>
        <time>2022-02-24T18:42:25Z</time>
      </trkpt>
      <trkpt lat="46.44424" lon="5.59989">
        <ele>445.2</ele>
        <time>2022-02-24T18:42:26Z</time>
      </trkpt>
      <trkpt lat="46.44427" lon="5.5999">
        <ele>445.6</ele>
        <time>2022-02-24T18:42:27Z</time>
      </trkpt>
      <trkpt lat="46.4443" lon="5.59991">
        <ele>445.6</ele>
        <time>2022-02-24T18:42:28Z</time>
      </trkpt>
      <trkpt lat="46.44433" lon="5.59992">
        <ele>446</ele>
        <time>2022-02-24T18:42:29Z</time>
      </trkpt>
      <trkpt lat="46.44436" lon="5.59993">
        <ele>446.2</ele>
        <time>2022-02-24T18:42:30Z</time>
      </trkpt>
      <trkpt lat="46.44439" lon="5.59994">
        <ele>446.2</ele>
        <time>2022-02-24T18:42:31Z</time>
      </trkpt>
      <trkpt lat="46.44442" lon="5.59995">
        <ele>446.4</ele>
        <time>2022-02-24T18:42:32Z</time>
      </trkpt>
      <trkpt lat="46.44446" lon="5.59996">
        <ele>446.4</ele>
        <time>2022-02-24T18:42:33Z</time>
      </trkpt>
      <trkpt lat="46.44449" lon="5.59998">
        <ele>446.8</ele>
        <time>2022-02-24T18:42:34Z</time>
      </trkpt>
      <trkpt lat="46.44452" lon="5.59999">
        <ele>446.8</ele>
        <time>2022-02-24T18:42:35Z</time>
      </trkpt>
      <trkpt lat="46.44455" lon="5.6">
        <ele>447</ele>
        <time>2022-02-24T18:42:36Z</time>
      </trkpt>
      <trkpt lat="46.44458" lon="5.60001">
        <ele>447</ele>
        <time>2022-02-24T18:42:37Z</time>
      </trkpt>
      <trkpt lat="46.44462" lon="5.60002">
        <ele>447.2</ele>
        <time>2022-02-24T18:42:38Z</time>
      </trkpt>
      <trkpt lat="46.44465" lon="5.60002">
        <ele>447.4</ele>
        <time>2022-02-24T18:42:39Z</time>
      </trkpt>
      <trkpt lat="46.44468" lon="5.60004">
        <ele>447.4</ele>
        <time>2022-02-24T18:42:40Z</time>
      </trkpt>
      <trkpt lat="46.44471" lon="5.60005">
        <ele>447.8</ele>
        <time>2022-02-24T18:42:41Z</time>
      </trkpt>
      <trkpt lat="46.44474" lon="5.60007">
        <ele>447.8</ele>
        <time>2022-02-24T18:42:42Z</time>
      </trkpt>
      <trkpt lat="46.44477" lon="5.60008">
        <ele>448</ele>
        <time>2022-02-24T18:42:43Z</time>
      </trkpt>
      <trkpt lat="46.4448" lon="5.60009">
        <ele>448</ele>
        <time>2022-02-24T18:42:44Z</time>
      </trkpt>
      <trkpt lat="46.44483" lon="5.6001">
        <ele>448.2</ele>
        <time>2022-02-24T18:42:45Z</time>
      </trkpt>
      <trkpt lat="46.44486" lon="5.60011">
        <ele>448.2</ele>
        <time>2022-02-24T18:42:46Z</time>
      </trkpt>
      <trkpt lat="46.44489" lon="5.60012">
        <ele>448.6</ele>
        <time>2022-02-24T18:42:47Z</time>
      </trkpt>
      <trkpt lat="46.44492" lon="5.60014">
        <ele>448.6</ele>
        <time>2022-02-24T18:42:48Z</time>
      </trkpt>
      <trkpt lat="46.44495" lon="5.60015">
        <ele>449</ele>
        <time>2022-02-24T18:42:49Z</time>
      </trkpt>
      <trkpt lat="46.44497" lon="5.60015">
        <ele>449</ele>
        <time>2022-02-24T18:42:50Z</time>
      </trkpt>
      <trkpt lat="46.445" lon="5.60016">
        <ele>449.4</ele>
        <time>2022-02-24T18:42:51Z</time>
      </trkpt>
      <trkpt lat="46.44503" lon="5.60016">
        <ele>449.4</ele>
        <time>2022-02-24T18:42:52Z</time>
      </trkpt>
      <trkpt lat="46.44506" lon="5.60016">
        <ele>449.6</ele>
        <time>2022-02-24T18:42:53Z</time>
      </trkpt>
      <trkpt lat="46.44509" lon="5.60017">
        <ele>449.6</ele>
        <time>2022-02-24T18:42:54Z</time>
      </trkpt>
      <trkpt lat="46.44512" lon="5.60017">
        <ele>450</ele>
        <time>2022-02-24T18:42:55Z</time>
      </trkpt>
      <trkpt lat="46.44514" lon="5.60017">
        <ele>450.2</ele>
        <time>2022-02-24T18:42:56Z</time>
      </trkpt>
      <trkpt lat="46.44517" lon="5.60018">
        <ele>450.4</ele>
        <time>2022-02-24T18:42:57Z</time>
      </trkpt>
      <trkpt lat="46.4452" lon="5.60018">
        <ele>450.4</ele>
        <time>2022-02-24T18:42:58Z</time>
      </trkpt>
      <trkpt lat="46.44522" lon="5.60018">
        <ele>450.8</ele>
        <time>2022-02-24T18:42:59Z</time>
      </trkpt>
      <trkpt lat="46.44525" lon="5.60018">
        <ele>450.8</ele>
        <time>2022-02-24T18:43:00Z</time>
      </trkpt>
      <trkpt lat="46.44528" lon="5.60018">
        <ele>451.2</ele>
        <time>2022-02-24T18:43:01Z</time>
      </trkpt>
      <trkpt lat="46.4453" lon="5.60017">
        <ele>451.2</ele>
        <time>2022-02-24T18:43:02Z</time>
      </trkpt>
      <trkpt lat="46.44532" lon="5.60017">
        <ele>451.6</ele>
        <time>2022-02-24T18:43:03Z</time>
      </trkpt>
      <trkpt lat="46.44535" lon="5.60017">
        <ele>451.6</ele>
        <time>2022-02-24T18:43:04Z</time>
      </trkpt>
      <trkpt lat="46.44538" lon="5.60017">
        <ele>451.8</ele>
        <time>2022-02-24T18:43:05Z</time>
      </trkpt>
      <trkpt lat="46.4454" lon="5.60017">
        <ele>451.8</ele>
        <time>2022-02-24T18:43:06Z</time>
      </trkpt>
      <trkpt lat="46.44543" lon="5.60017">
        <ele>452.2</ele>
        <time>2022-02-24T18:43:07Z</time>
      </trkpt>
      <trkpt lat="46.44546" lon="5.60017">
        <ele>452.4</ele>
        <time>2022-02-24T18:43:08Z</time>
      </trkpt>
      <trkpt lat="46.44548" lon="5.60017">
        <ele>452.6</ele>
        <time>2022-02-24T18:43:09Z</time>
      </trkpt>
      <trkpt lat="46.44551" lon="5.60017">
        <ele>452.8</ele>
        <time>2022-02-24T18:43:10Z</time>
      </trkpt>
      <trkpt lat="46.44554" lon="5.60017">
        <ele>452.8</ele>
        <time>2022-02-24T18:43:11Z</time>
      </trkpt>
      <trkpt lat="46.44556" lon="5.60017">
        <ele>453.2</ele>
        <time>2022-02-24T18:43:12Z</time>
      </trkpt>
      <trkpt lat="46.44559" lon="5.60018">
        <ele>453.2</ele>
        <time>2022-02-24T18:43:13Z</time>
      </trkpt>
      <trkpt lat="46.44562" lon="5.60018">
        <ele>453.4</ele>
        <time>2022-02-24T18:43:14Z</time>
      </trkpt>
      <trkpt lat="46.44565" lon="5.60018">
        <ele>453.4</ele>
        <time>2022-02-24T18:43:15Z</time>
      </trkpt>
      <trkpt lat="46.44568" lon="5.60018">
        <ele>453.8</ele>
        <time>2022-02-24T18:43:16Z</time>
      </trkpt>
      <trkpt lat="46.44571" lon="5.60018">
        <ele>453.8</ele>
        <time>2022-02-24T18:43:17Z</time>
      </trkpt>
      <trkpt lat="46.44574" lon="5.60019">
        <ele>453.8</ele>
        <time>2022-02-24T18:43:18Z</time>
      </trkpt>
      <trkpt lat="46.44577" lon="5.6002">
        <ele>454</ele>
        <time>2022-02-24T18:43:19Z</time>
      </trkpt>
      <trkpt lat="46.44581" lon="5.60021">
        <ele>454</ele>
        <time>2022-02-24T18:43:20Z</time>
      </trkpt>
      <trkpt lat="46.44584" lon="5.60022">
        <ele>454.4</ele>
        <time>2022-02-24T18:43:21Z</time>
      </trkpt>
      <trkpt lat="46.44587" lon="5.60022">
        <ele>454.4</ele>
        <time>2022-02-24T18:43:22Z</time>
      </trkpt>
      <trkpt lat="46.4459" lon="5.60023">
        <ele>454.6</ele>
        <time>2022-02-24T18:43:23Z</time>
      </trkpt>
      <trkpt lat="46.44593" lon="5.60023">
        <ele>454.6</ele>
        <time>2022-02-24T18:43:24Z</time>
      </trkpt>
      <trkpt lat="46.44596" lon="5.60024">
        <ele>455</ele>
        <time>2022-02-24T18:43:25Z</time>
      </trkpt>
      <trkpt lat="46.44599" lon="5.60024">
        <ele>455.2</ele>
        <time>2022-02-24T18:43:26Z</time>
      </trkpt>
      <trkpt lat="46.44602" lon="5.60025">
        <ele>455.2</ele>
        <time>2022-02-24T18:43:27Z</time>
      </trkpt>
      <trkpt lat="46.44605" lon="5.60026">
        <ele>455.6</ele>
        <time>2022-02-24T18:43:28Z</time>
      </trkpt>
      <trkpt lat="46.44607" lon="5.60026">
        <ele>455.6</ele>
        <time>2022-02-24T18:43:29Z</time>
      </trkpt>
      <trkpt lat="46.4461" lon="5.60027">
        <ele>456</ele>
        <time>2022-02-24T18:43:30Z</time>
      </trkpt>
      <trkpt lat="46.44613" lon="5.60027">
        <ele>456.2</ele>
        <time>2022-02-24T18:43:31Z</time>
      </trkpt>
      <trkpt lat="46.44616" lon="5.60026">
        <ele>456.2</ele>
        <time>2022-02-24T18:43:32Z</time>
      </trkpt>
      <trkpt lat="46.44619" lon="5.60027">
        <ele>456.4</ele>
        <time>2022-02-24T18:43:33Z</time>
      </trkpt>
      <trkpt lat="46.44622" lon="5.60027">
        <ele>456.4</ele>
        <time>2022-02-24T18:43:34Z</time>
      </trkpt>
      <trkpt lat="46.44625" lon="5.60028">
        <ele>456.4</ele>
        <time>2022-02-24T18:43:35Z</time>
      </trkpt>
      <trkpt lat="46.44629" lon="5.60028">
        <ele>456.4</ele>
        <time>2022-02-24T18:43:36Z</time>
      </trkpt>
      <trkpt lat="46.44633" lon="5.60029">
        <ele>456.4</ele>
        <time>2022-02-24T18:43:37Z</time>
      </trkpt>
      <trkpt lat="46.44637" lon="5.60029">
        <ele>456.4</ele>
        <time>2022-02-24T18:43:38Z</time>
      </trkpt>
      <trkpt lat="46.44641" lon="5.6003">
        <ele>456.2</ele>
        <time>2022-02-24T18:43:39Z</time>
      </trkpt>
      <trkpt lat="46.44646" lon="5.6003">
        <ele>456.2</ele>
        <time>2022-02-24T18:43:40Z</time>
      </trkpt>
      <trkpt lat="46.44652" lon="5.60031">
        <ele>455.6</ele>
        <time>2022-02-24T18:43:41Z</time>
      </trkpt>
      <trkpt lat="46.44658" lon="5.60032">
        <ele>455.4</ele>
        <time>2022-02-24T18:43:42Z</time>
      </trkpt>
      <trkpt lat="46.44664" lon="5.60034">
        <ele>455</ele>
        <time>2022-02-24T18:43:43Z</time>
      </trkpt>
      <trkpt lat="46.44671" lon="5.60036">
        <ele>454.6</ele>
        <time>2022-02-24T18:43:44Z</time>
      </trkpt>
      <trkpt lat="46.44678" lon="5.60039">
        <ele>454</ele>
        <time>2022-02-24T18:43:45Z</time>
      </trkpt>
      <trkpt lat="46.44686" lon="5.60042">
        <ele>453.6</ele>
        <time>2022-02-24T18:43:46Z</time>
      </trkpt>
      <trkpt lat="46.44693" lon="5.60047">
        <ele>453.2</ele>
        <time>2022-02-24T18:43:47Z</time>
      </trkpt>
      <trkpt lat="46.447" lon="5.60052">
        <ele>452.8</ele>
        <time>2022-02-24T18:43:48Z</time>
      </trkpt>
      <trkpt lat="46.44706" lon="5.60057">
        <ele>452.6</ele>
        <time>2022-02-24T18:43:49Z</time>
      </trkpt>
      <trkpt lat="46.44713" lon="5.60063">
        <ele>452.2</ele>
        <time>2022-02-24T18:43:50Z</time>
      </trkpt>
      <trkpt lat="46.44719" lon="5.60069">
        <ele>451.8</ele>
        <time>2022-02-24T18:43:51Z</time>
      </trkpt>
      <trkpt lat="46.44725" lon="5.60076">
        <ele>451.4</ele>
        <time>2022-02-24T18:43:52Z</time>
      </trkpt>
      <trkpt lat="46.4473" lon="5.60082">
        <ele>451</ele>
        <time>2022-02-24T18:43:53Z</time>
      </trkpt>
      <trkpt lat="46.44735" lon="5.60089">
        <ele>450.4</ele>
        <time>2022-02-24T18:43:54Z</time>
      </trkpt>
      <trkpt lat="46.44741" lon="5.60097">
        <ele>449.8</ele>
        <time>2022-02-24T18:43:55Z</time>
      </trkpt>
      <trkpt lat="46.44746" lon="5.60105">
        <ele>449.2</ele>
        <time>2022-02-24T18:43:56Z</time>
      </trkpt>
      <trkpt lat="46.44752" lon="5.60114">
        <ele>448.4</ele>
        <time>2022-02-24T18:43:57Z</time>
      </trkpt>
      <trkpt lat="46.44757" lon="5.60124">
        <ele>447.8</ele>
        <time>2022-02-24T18:43:58Z</time>
      </trkpt>
      <trkpt lat="46.44764" lon="5.60134">
        <ele>447.2</ele>
        <time>2022-02-24T18:43:59Z</time>
      </trkpt>
      <trkpt lat="46.44769" lon="5.60145">
        <ele>446.8</ele>
        <time>2022-02-24T18:44:00Z</time>
      </trkpt>
      <trkpt lat="46.44775" lon="5.60155">
        <ele>446.4</ele>
        <time>2022-02-24T18:44:01Z</time>
      </trkpt>
      <trkpt lat="46.44781" lon="5.60163">
        <ele>446.2</ele>
        <time>2022-02-24T18:44:02Z</time>
      </trkpt>
      <trkpt lat="46.44787" lon="5.60171">
        <ele>446</ele>
        <time>2022-02-24T18:44:03Z</time>
      </trkpt>
      <trkpt lat="46.44792" lon="5.60178">
        <ele>446</ele>
        <time>2022-02-24T18:44:04Z</time>
      </trkpt>
      <trkpt lat="46.44799" lon="5.60183">
        <ele>445.6</ele>
        <time>2022-02-24T18:44:05Z</time>
      </trkpt>
      <trkpt lat="46.44805" lon="5.60187">
        <ele>445.6</ele>
        <time>2022-02-24T18:44:06Z</time>
      </trkpt>
      <trkpt lat="46.44811" lon="5.60189">
        <ele>445.6</ele>
        <time>2022-02-24T18:44:07Z</time>
      </trkpt>
      <trkpt lat="46.44817" lon="5.60191">
        <ele>445.8</ele>
        <time>2022-02-24T18:44:08Z</time>
      </trkpt>
      <trkpt lat="46.44823" lon="5.60191">
        <ele>446</ele>
        <time>2022-02-24T18:44:09Z</time>
      </trkpt>
      <trkpt lat="46.44828" lon="5.6019">
        <ele>446.4</ele>
        <time>2022-02-24T18:44:10Z</time>
      </trkpt>
      <trkpt lat="46.44834" lon="5.60189">
        <ele>446.6</ele>
        <time>2022-02-24T18:44:11Z</time>
      </trkpt>
      <trkpt lat="46.44838" lon="5.60189">
        <ele>446.6</ele>
        <time>2022-02-24T18:44:12Z</time>
      </trkpt>
      <trkpt lat="46.44843" lon="5.60188">
        <ele>446.6</ele>
        <time>2022-02-24T18:44:13Z</time>
      </trkpt>
      <trkpt lat="46.44848" lon="5.60189">
        <ele>446.8</ele>
        <time>2022-02-24T18:44:14Z</time>
      </trkpt>
      <trkpt lat="46.44853" lon="5.60189">
        <ele>446.8</ele>
        <time>2022-02-24T18:44:15Z</time>
      </trkpt>
      <trkpt lat="46.44859" lon="5.6019">
        <ele>446.8</ele>
        <time>2022-02-24T18:44:16Z</time>
      </trkpt>
      <trkpt lat="46.44864" lon="5.60191">
        <ele>446.8</ele>
        <time>2022-02-24T18:44:17Z</time>
      </trkpt>
      <trkpt lat="46.44869" lon="5.60192">
        <ele>446.8</ele>
        <time>2022-02-24T18:44:18Z</time>
      </trkpt>
      <trkpt lat="46.44874" lon="5.60193">
        <ele>446.8</ele>
        <time>2022-02-24T18:44:19Z</time>
      </trkpt>
      <trkpt lat="46.44878" lon="5.60195">
        <ele>446.8</ele>
        <time>2022-02-24T18:44:20Z</time>
      </trkpt>
      <trkpt lat="46.44883" lon="5.60197">
        <ele>446.8</ele>
        <time>2022-02-24T18:44:21Z</time>
      </trkpt>
      <trkpt lat="46.44888" lon="5.60199">
        <ele>446.8</ele>
        <time>2022-02-24T18:44:22Z</time>
      </trkpt>
      <trkpt lat="46.44893" lon="5.60201">
        <ele>446.8</ele>
        <time>2022-02-24T18:44:23Z</time>
      </trkpt>
      <trkpt lat="46.44897" lon="5.60203">
        <ele>446.8</ele>
        <time>2022-02-24T18:44:24Z</time>
      </trkpt>
      <trkpt lat="46.44902" lon="5.60205">
        <ele>446.8</ele>
        <time>2022-02-24T18:44:25Z</time>
      </trkpt>
      <trkpt lat="46.44907" lon="5.60207">
        <ele>446.8</ele>
        <time>2022-02-24T18:44:26Z</time>
      </trkpt>
      <trkpt lat="46.44911" lon="5.60209">
        <ele>446.8</ele>
        <time>2022-02-24T18:44:27Z</time>
      </trkpt>
      <trkpt lat="46.44916" lon="5.60211">
        <ele>446.8</ele>
        <time>2022-02-24T18:44:28Z</time>
      </trkpt>
      <trkpt lat="46.44921" lon="5.60213">
        <ele>446.8</ele>
        <time>2022-02-24T18:44:29Z</time>
      </trkpt>
      <trkpt lat="46.44926" lon="5.60216">
        <ele>446.8</ele>
        <time>2022-02-24T18:44:30Z</time>
      </trkpt>
      <trkpt lat="46.44931" lon="5.60219">
        <ele>446.8</ele>
        <time>2022-02-24T18:44:31Z</time>
      </trkpt>
      <trkpt lat="46.44936" lon="5.60222">
        <ele>447</ele>
        <time>2022-02-24T18:44:32Z</time>
      </trkpt>
      <trkpt lat="46.4494" lon="5.60224">
        <ele>447</ele>
        <time>2022-02-24T18:44:33Z</time>
      </trkpt>
      <trkpt lat="46.44945" lon="5.60226">
        <ele>447</ele>
        <time>2022-02-24T18:44:34Z</time>
      </trkpt>
      <trkpt lat="46.44949" lon="5.60229">
        <ele>447</ele>
        <time>2022-02-24T18:44:35Z</time>
      </trkpt>
      <trkpt lat="46.44954" lon="5.60232">
        <ele>447</ele>
        <time>2022-02-24T18:44:36Z</time>
      </trkpt>
      <trkpt lat="46.44958" lon="5.60234">
        <ele>447</ele>
        <time>2022-02-24T18:44:37Z</time>
      </trkpt>
      <trkpt lat="46.44963" lon="5.60236">
        <ele>447.4</ele>
        <time>2022-02-24T18:44:38Z</time>
      </trkpt>
      <trkpt lat="46.44967" lon="5.60238">
        <ele>447.4</ele>
        <time>2022-02-24T18:44:39Z</time>
      </trkpt>
      <trkpt lat="46.44971" lon="5.60241">
        <ele>447.6</ele>
        <time>2022-02-24T18:44:40Z</time>
      </trkpt>
      <trkpt lat="46.44975" lon="5.60243">
        <ele>447.6</ele>
        <time>2022-02-24T18:44:41Z</time>
      </trkpt>
      <trkpt lat="46.4498" lon="5.60245">
        <ele>447.6</ele>
        <time>2022-02-24T18:44:42Z</time>
      </trkpt>
      <trkpt lat="46.44984" lon="5.60247">
        <ele>448</ele>
        <time>2022-02-24T18:44:43Z</time>
      </trkpt>
      <trkpt lat="46.44988" lon="5.6025">
        <ele>448</ele>
        <time>2022-02-24T18:44:44Z</time>
      </trkpt>
      <trkpt lat="46.44991" lon="5.60253">
        <ele>448.2</ele>
        <time>2022-02-24T18:44:45Z</time>
      </trkpt>
      <trkpt lat="46.44995" lon="5.60256">
        <ele>448.2</ele>
        <time>2022-02-24T18:44:46Z</time>
      </trkpt>
      <trkpt lat="46.44998" lon="5.60259">
        <ele>448.4</ele>
        <time>2022-02-24T18:44:47Z</time>
      </trkpt>
      <trkpt lat="46.45001" lon="5.60263">
        <ele>448.4</ele>
        <time>2022-02-24T18:44:48Z</time>
      </trkpt>
      <trkpt lat="46.45004" lon="5.60266">
        <ele>448.8</ele>
        <time>2022-02-24T18:44:49Z</time>
      </trkpt>
      <trkpt lat="46.45007" lon="5.60269">
        <ele>449</ele>
        <time>2022-02-24T18:44:50Z</time>
      </trkpt>
      <trkpt lat="46.4501" lon="5.60272">
        <ele>449</ele>
        <time>2022-02-24T18:44:51Z</time>
      </trkpt>
      <trkpt lat="46.45013" lon="5.60275">
        <ele>449.2</ele>
        <time>2022-02-24T18:44:52Z</time>
      </trkpt>
      <trkpt lat="46.45015" lon="5.60279">
        <ele>449.2</ele>
        <time>2022-02-24T18:44:53Z</time>
      </trkpt>
      <trkpt lat="46.45018" lon="5.60282">
        <ele>449.6</ele>
        <time>2022-02-24T18:44:54Z</time>
      </trkpt>
      <trkpt lat="46.4502" lon="5.60285">
        <ele>449.8</ele>
        <time>2022-02-24T18:44:55Z</time>
      </trkpt>
      <trkpt lat="46.45023" lon="5.60288">
        <ele>450</ele>
        <time>2022-02-24T18:44:56Z</time>
      </trkpt>
      <trkpt lat="46.45025" lon="5.60291">
        <ele>450.2</ele>
        <time>2022-02-24T18:44:57Z</time>
      </trkpt>
      <trkpt lat="46.45027" lon="5.60294">
        <ele>450.2</ele>
        <time>2022-02-24T18:44:58Z</time>
      </trkpt>
      <trkpt lat="46.4503" lon="5.60297">
        <ele>450.6</ele>
        <time>2022-02-24T18:44:59Z</time>
      </trkpt>
      <trkpt lat="46.45032" lon="5.60299">
        <ele>450.8</ele>
        <time>2022-02-24T18:45:00Z</time>
      </trkpt>
      <trkpt lat="46.45035" lon="5.60302">
        <ele>451</ele>
        <time>2022-02-24T18:45:01Z</time>
      </trkpt>
      <trkpt lat="46.45037" lon="5.60304">
        <ele>451.2</ele>
        <time>2022-02-24T18:45:02Z</time>
      </trkpt>
      <trkpt lat="46.45039" lon="5.60307">
        <ele>451.2</ele>
        <time>2022-02-24T18:45:03Z</time>
      </trkpt>
      <trkpt lat="46.45042" lon="5.60309">
        <ele>451.6</ele>
        <time>2022-02-24T18:45:04Z</time>
      </trkpt>
      <trkpt lat="46.45044" lon="5.60312">
        <ele>451.6</ele>
        <time>2022-02-24T18:45:05Z</time>
      </trkpt>
      <trkpt lat="46.45047" lon="5.60313">
        <ele>452</ele>
        <time>2022-02-24T18:45:06Z</time>
      </trkpt>
      <trkpt lat="46.4505" lon="5.60315">
        <ele>452</ele>
        <time>2022-02-24T18:45:07Z</time>
      </trkpt>
      <trkpt lat="46.45052" lon="5.60318">
        <ele>452.4</ele>
        <time>2022-02-24T18:45:08Z</time>
      </trkpt>
      <trkpt lat="46.45055" lon="5.6032">
        <ele>452.4</ele>
        <time>2022-02-24T18:45:09Z</time>
      </trkpt>
      <trkpt lat="46.45057" lon="5.60322">
        <ele>452.4</ele>
        <time>2022-02-24T18:45:10Z</time>
      </trkpt>
      <trkpt lat="46.4506" lon="5.60323">
        <ele>452.8</ele>
        <time>2022-02-24T18:45:11Z</time>
      </trkpt>
      <trkpt lat="46.45063" lon="5.60325">
        <ele>452.8</ele>
        <time>2022-02-24T18:45:12Z</time>
      </trkpt>
      <trkpt lat="46.45066" lon="5.60326">
        <ele>453.2</ele>
        <time>2022-02-24T18:45:13Z</time>
      </trkpt>
      <trkpt lat="46.45068" lon="5.60328">
        <ele>453.2</ele>
        <time>2022-02-24T18:45:14Z</time>
      </trkpt>
      <trkpt lat="46.45071" lon="5.6033">
        <ele>453.6</ele>
        <time>2022-02-24T18:45:15Z</time>
      </trkpt>
      <trkpt lat="46.45073" lon="5.60331">
        <ele>453.6</ele>
        <time>2022-02-24T18:45:16Z</time>
      </trkpt>
      <trkpt lat="46.45075" lon="5.60332">
        <ele>454</ele>
        <time>2022-02-24T18:45:17Z</time>
      </trkpt>
      <trkpt lat="46.45078" lon="5.60333">
        <ele>454.2</ele>
        <time>2022-02-24T18:45:18Z</time>
      </trkpt>
      <trkpt lat="46.4508" lon="5.60334">
        <ele>454.2</ele>
        <time>2022-02-24T18:45:19Z</time>
      </trkpt>
      <trkpt lat="46.45082" lon="5.60335">
        <ele>454.6</ele>
        <time>2022-02-24T18:45:20Z</time>
      </trkpt>
      <trkpt lat="46.45085" lon="5.60336">
        <ele>454.6</ele>
        <time>2022-02-24T18:45:21Z</time>
      </trkpt>
      <trkpt lat="46.45087" lon="5.60337">
        <ele>455</ele>
        <time>2022-02-24T18:45:22Z</time>
      </trkpt>
      <trkpt lat="46.45089" lon="5.60339">
        <ele>455.2</ele>
        <time>2022-02-24T18:45:23Z</time>
      </trkpt>
      <trkpt lat="46.45091" lon="5.6034">
        <ele>455.6</ele>
        <time>2022-02-24T18:45:24Z</time>
      </trkpt>
      <trkpt lat="46.45093" lon="5.60341">
        <ele>455.8</ele>
        <time>2022-02-24T18:45:25Z</time>
      </trkpt>
      <trkpt lat="46.45095" lon="5.60342">
        <ele>456</ele>
        <time>2022-02-24T18:45:26Z</time>
      </trkpt>
      <trkpt lat="46.45097" lon="5.60344">
        <ele>456.4</ele>
        <time>2022-02-24T18:45:27Z</time>
      </trkpt>
      <trkpt lat="46.45099" lon="5.60345">
        <ele>456.4</ele>
        <time>2022-02-24T18:45:28Z</time>
      </trkpt>
      <trkpt lat="46.45101" lon="5.60347">
        <ele>456.8</ele>
        <time>2022-02-24T18:45:29Z</time>
      </trkpt>
      <trkpt lat="46.45103" lon="5.60349">
        <ele>457</ele>
        <time>2022-02-24T18:45:30Z</time>
      </trkpt>
      <trkpt lat="46.45105" lon="5.6035">
        <ele>457.4</ele>
        <time>2022-02-24T18:45:31Z</time>
      </trkpt>
      <trkpt lat="46.45107" lon="5.60352">
        <ele>457.6</ele>
        <time>2022-02-24T18:45:32Z</time>
      </trkpt>
      <trkpt lat="46.45109" lon="5.60354">
        <ele>457.8</ele>
        <time>2022-02-24T18:45:33Z</time>
      </trkpt>
      <trkpt lat="46.45111" lon="5.60356">
        <ele>458</ele>
        <time>2022-02-24T18:45:34Z</time>
      </trkpt>
      <trkpt lat="46.45112" lon="5.60358">
        <ele>458.4</ele>
        <time>2022-02-24T18:45:35Z</time>
      </trkpt>
      <trkpt lat="46.45114" lon="5.6036">
        <ele>458.6</ele>
        <time>2022-02-24T18:45:36Z</time>
      </trkpt>
      <trkpt lat="46.45115" lon="5.60363">
        <ele>458.8</ele>
        <time>2022-02-24T18:45:37Z</time>
      </trkpt>
      <trkpt lat="46.45116" lon="5.60366">
        <ele>459.2</ele>
        <time>2022-02-24T18:45:38Z</time>
      </trkpt>
      <trkpt lat="46.45117" lon="5.60369">
        <ele>459.4</ele>
        <time>2022-02-24T18:45:39Z</time>
      </trkpt>
      <trkpt lat="46.45118" lon="5.60372">
        <ele>459.8</ele>
        <time>2022-02-24T18:45:40Z</time>
      </trkpt>
      <trkpt lat="46.45118" lon="5.60375">
        <ele>460</ele>
        <time>2022-02-24T18:45:41Z</time>
      </trkpt>
      <trkpt lat="46.45119" lon="5.60378">
        <ele>460.2</ele>
        <time>2022-02-24T18:45:42Z</time>
      </trkpt>
      <trkpt lat="46.45119" lon="5.60381">
        <ele>460.2</ele>
        <time>2022-02-24T18:45:43Z</time>
      </trkpt>
      <trkpt lat="46.45119" lon="5.60385">
        <ele>460.4</ele>
        <time>2022-02-24T18:45:44Z</time>
      </trkpt>
      <trkpt lat="46.45119" lon="5.60388">
        <ele>460.4</ele>
        <time>2022-02-24T18:45:45Z</time>
      </trkpt>
      <trkpt lat="46.45118" lon="5.60392">
        <ele>460.6</ele>
        <time>2022-02-24T18:45:46Z</time>
      </trkpt>
      <trkpt lat="46.45118" lon="5.60396">
        <ele>460.6</ele>
        <time>2022-02-24T18:45:47Z</time>
      </trkpt>
      <trkpt lat="46.45117" lon="5.604">
        <ele>461</ele>
        <time>2022-02-24T18:45:48Z</time>
      </trkpt>
      <trkpt lat="46.45117" lon="5.60404">
        <ele>461</ele>
        <time>2022-02-24T18:45:49Z</time>
      </trkpt>
      <trkpt lat="46.45116" lon="5.60408">
        <ele>461.2</ele>
        <time>2022-02-24T18:45:50Z</time>
      </trkpt>
      <trkpt lat="46.45116" lon="5.60412">
        <ele>461.2</ele>
        <time>2022-02-24T18:45:51Z</time>
      </trkpt>
      <trkpt lat="46.45115" lon="5.60416">
        <ele>461.4</ele>
        <time>2022-02-24T18:45:52Z</time>
      </trkpt>
      <trkpt lat="46.45115" lon="5.6042">
        <ele>461.4</ele>
        <time>2022-02-24T18:45:53Z</time>
      </trkpt>
      <trkpt lat="46.45114" lon="5.60424">
        <ele>461.4</ele>
        <time>2022-02-24T18:45:54Z</time>
      </trkpt>
      <trkpt lat="46.45114" lon="5.60428">
        <ele>461.6</ele>
        <time>2022-02-24T18:45:55Z</time>
      </trkpt>
      <trkpt lat="46.45113" lon="5.60432">
        <ele>461.6</ele>
        <time>2022-02-24T18:45:56Z</time>
      </trkpt>
      <trkpt lat="46.45113" lon="5.60436">
        <ele>461.8</ele>
        <time>2022-02-24T18:45:57Z</time>
      </trkpt>
      <trkpt lat="46.45113" lon="5.6044">
        <ele>461.8</ele>
        <time>2022-02-24T18:45:58Z</time>
      </trkpt>
      <trkpt lat="46.45113" lon="5.60444">
        <ele>462.2</ele>
        <time>2022-02-24T18:45:59Z</time>
      </trkpt>
      <trkpt lat="46.45113" lon="5.60448">
        <ele>462.2</ele>
        <time>2022-02-24T18:46:00Z</time>
      </trkpt>
      <trkpt lat="46.45113" lon="5.60451">
        <ele>462.4</ele>
        <time>2022-02-24T18:46:01Z</time>
      </trkpt>
      <trkpt lat="46.45113" lon="5.60455">
        <ele>462.4</ele>
        <time>2022-02-24T18:46:02Z</time>
      </trkpt>
      <trkpt lat="46.45113" lon="5.60458">
        <ele>462.8</ele>
        <time>2022-02-24T18:46:03Z</time>
      </trkpt>
      <trkpt lat="46.45114" lon="5.60461">
        <ele>462.8</ele>
        <time>2022-02-24T18:46:04Z</time>
      </trkpt>
      <trkpt lat="46.45115" lon="5.60468">
        <ele>463</ele>
        <time>2022-02-24T18:46:05Z</time>
      </trkpt>
      <trkpt lat="46.45116" lon="5.60471">
        <ele>463</ele>
        <time>2022-02-24T18:46:06Z</time>
      </trkpt>
      <trkpt lat="46.45117" lon="5.60474">
        <ele>463.2</ele>
        <time>2022-02-24T18:46:07Z</time>
      </trkpt>
      <trkpt lat="46.45119" lon="5.60476">
        <ele>463.2</ele>
        <time>2022-02-24T18:46:08Z</time>
      </trkpt>
      <trkpt lat="46.4512" lon="5.60479">
        <ele>463.6</ele>
        <time>2022-02-24T18:46:09Z</time>
      </trkpt>
      <trkpt lat="46.45121" lon="5.60482">
        <ele>463.8</ele>
        <time>2022-02-24T18:46:10Z</time>
      </trkpt>
      <trkpt lat="46.45122" lon="5.60484">
        <ele>463.8</ele>
        <time>2022-02-24T18:46:11Z</time>
      </trkpt>
      <trkpt lat="46.45124" lon="5.60487">
        <ele>464.2</ele>
        <time>2022-02-24T18:46:12Z</time>
      </trkpt>
      <trkpt lat="46.45125" lon="5.60489">
        <ele>464.2</ele>
        <time>2022-02-24T18:46:13Z</time>
      </trkpt>
      <trkpt lat="46.45127" lon="5.60491">
        <ele>464.6</ele>
        <time>2022-02-24T18:46:14Z</time>
      </trkpt>
      <trkpt lat="46.45129" lon="5.60493">
        <ele>464.8</ele>
        <time>2022-02-24T18:46:15Z</time>
      </trkpt>
      <trkpt lat="46.4513" lon="5.60495">
        <ele>465.2</ele>
        <time>2022-02-24T18:46:16Z</time>
      </trkpt>
      <trkpt lat="46.45132" lon="5.60497">
        <ele>465.4</ele>
        <time>2022-02-24T18:46:17Z</time>
      </trkpt>
      <trkpt lat="46.45134" lon="5.60498">
        <ele>465.6</ele>
        <time>2022-02-24T18:46:18Z</time>
      </trkpt>
      <trkpt lat="46.45136" lon="5.605">
        <ele>466</ele>
        <time>2022-02-24T18:46:19Z</time>
      </trkpt>
      <trkpt lat="46.45138" lon="5.60501">
        <ele>466.2</ele>
        <time>2022-02-24T18:46:20Z</time>
      </trkpt>
      <trkpt lat="46.45139" lon="5.60502">
        <ele>466.4</ele>
        <time>2022-02-24T18:46:21Z</time>
      </trkpt>
      <trkpt lat="46.45141" lon="5.60503">
        <ele>466.4</ele>
        <time>2022-02-24T18:46:22Z</time>
      </trkpt>
      <trkpt lat="46.45143" lon="5.60504">
        <ele>466.8</ele>
        <time>2022-02-24T18:46:23Z</time>
      </trkpt>
      <trkpt lat="46.45145" lon="5.60505">
        <ele>466.8</ele>
        <time>2022-02-24T18:46:24Z</time>
      </trkpt>
      <trkpt lat="46.45147" lon="5.60506">
        <ele>467.2</ele>
        <time>2022-02-24T18:46:25Z</time>
      </trkpt>
      <trkpt lat="46.45149" lon="5.60507">
        <ele>467.2</ele>
        <time>2022-02-24T18:46:26Z</time>
      </trkpt>
      <trkpt lat="46.45151" lon="5.60508">
        <ele>467.6</ele>
        <time>2022-02-24T18:46:27Z</time>
      </trkpt>
      <trkpt lat="46.45152" lon="5.60509">
        <ele>467.8</ele>
        <time>2022-02-24T18:46:28Z</time>
      </trkpt>
      <trkpt lat="46.45154" lon="5.6051">
        <ele>467.8</ele>
        <time>2022-02-24T18:46:29Z</time>
      </trkpt>
      <trkpt lat="46.45156" lon="5.60512">
        <ele>468.2</ele>
        <time>2022-02-24T18:46:30Z</time>
      </trkpt>
      <trkpt lat="46.45158" lon="5.60513">
        <ele>468.2</ele>
        <time>2022-02-24T18:46:31Z</time>
      </trkpt>
      <trkpt lat="46.4516" lon="5.60515">
        <ele>468.6</ele>
        <time>2022-02-24T18:46:32Z</time>
      </trkpt>
      <trkpt lat="46.45161" lon="5.60516">
        <ele>468.8</ele>
        <time>2022-02-24T18:46:33Z</time>
      </trkpt>
      <trkpt lat="46.45163" lon="5.60517">
        <ele>468.8</ele>
        <time>2022-02-24T18:46:34Z</time>
      </trkpt>
      <trkpt lat="46.45165" lon="5.60519">
        <ele>469.2</ele>
        <time>2022-02-24T18:46:35Z</time>
      </trkpt>
      <trkpt lat="46.45167" lon="5.6052">
        <ele>469.4</ele>
        <time>2022-02-24T18:46:36Z</time>
      </trkpt>
      <trkpt lat="46.45168" lon="5.60521">
        <ele>469.6</ele>
        <time>2022-02-24T18:46:37Z</time>
      </trkpt>
      <trkpt lat="46.4517" lon="5.60522">
        <ele>469.6</ele>
        <time>2022-02-24T18:46:38Z</time>
      </trkpt>
      <trkpt lat="46.45172" lon="5.60523">
        <ele>470</ele>
        <time>2022-02-24T18:46:39Z</time>
      </trkpt>
      <trkpt lat="46.45174" lon="5.60524">
        <ele>470</ele>
        <time>2022-02-24T18:46:40Z</time>
      </trkpt>
      <trkpt lat="46.45176" lon="5.60525">
        <ele>470.2</ele>
        <time>2022-02-24T18:46:41Z</time>
      </trkpt>
      <trkpt lat="46.45178" lon="5.60526">
        <ele>470.2</ele>
        <time>2022-02-24T18:46:42Z</time>
      </trkpt>
      <trkpt lat="46.4518" lon="5.60528">
        <ele>470.6</ele>
        <time>2022-02-24T18:46:43Z</time>
      </trkpt>
      <trkpt lat="46.45181" lon="5.60529">
        <ele>470.6</ele>
        <time>2022-02-24T18:46:44Z</time>
      </trkpt>
      <trkpt lat="46.45182" lon="5.60531">
        <ele>471</ele>
        <time>2022-02-24T18:46:45Z</time>
      </trkpt>
      <trkpt lat="46.45184" lon="5.60532">
        <ele>471</ele>
        <time>2022-02-24T18:46:46Z</time>
      </trkpt>
      <trkpt lat="46.45186" lon="5.60533">
        <ele>471.4</ele>
        <time>2022-02-24T18:46:47Z</time>
      </trkpt>
      <trkpt lat="46.45188" lon="5.60534">
        <ele>471.6</ele>
        <time>2022-02-24T18:46:48Z</time>
      </trkpt>
      <trkpt lat="46.45189" lon="5.60535">
        <ele>471.6</ele>
        <time>2022-02-24T18:46:49Z</time>
      </trkpt>
      <trkpt lat="46.45191" lon="5.60536">
        <ele>472</ele>
        <time>2022-02-24T18:46:50Z</time>
      </trkpt>
      <trkpt lat="46.45193" lon="5.60537">
        <ele>472.2</ele>
        <time>2022-02-24T18:46:51Z</time>
      </trkpt>
      <trkpt lat="46.45194" lon="5.60537">
        <ele>472.2</ele>
        <time>2022-02-24T18:46:52Z</time>
      </trkpt>
      <trkpt lat="46.45196" lon="5.60538">
        <ele>472.4</ele>
        <time>2022-02-24T18:46:53Z</time>
      </trkpt>
      <trkpt lat="46.45198" lon="5.60538">
        <ele>472.6</ele>
        <time>2022-02-24T18:46:54Z</time>
      </trkpt>
      <trkpt lat="46.452" lon="5.60538">
        <ele>472.6</ele>
        <time>2022-02-24T18:46:55Z</time>
      </trkpt>
      <trkpt lat="46.45203" lon="5.60538">
        <ele>473</ele>
        <time>2022-02-24T18:46:56Z</time>
      </trkpt>
      <trkpt lat="46.45205" lon="5.60538">
        <ele>473</ele>
        <time>2022-02-24T18:46:57Z</time>
      </trkpt>
      <trkpt lat="46.45207" lon="5.60538">
        <ele>473.2</ele>
        <time>2022-02-24T18:46:58Z</time>
      </trkpt>
      <trkpt lat="46.4521" lon="5.60538">
        <ele>473.2</ele>
        <time>2022-02-24T18:46:59Z</time>
      </trkpt>
      <trkpt lat="46.45212" lon="5.60538">
        <ele>473.6</ele>
        <time>2022-02-24T18:47:00Z</time>
      </trkpt>
      <trkpt lat="46.45213" lon="5.60538">
        <ele>473.6</ele>
        <time>2022-02-24T18:47:01Z</time>
      </trkpt>
      <trkpt lat="46.45216" lon="5.60538">
        <ele>473.8</ele>
        <time>2022-02-24T18:47:02Z</time>
      </trkpt>
      <trkpt lat="46.45218" lon="5.60538">
        <ele>474</ele>
        <time>2022-02-24T18:47:03Z</time>
      </trkpt>
      <trkpt lat="46.4522" lon="5.60538">
        <ele>474.2</ele>
        <time>2022-02-24T18:47:04Z</time>
      </trkpt>
      <trkpt lat="46.45222" lon="5.60538">
        <ele>474.4</ele>
        <time>2022-02-24T18:47:05Z</time>
      </trkpt>
      <trkpt lat="46.45224" lon="5.60538">
        <ele>474.8</ele>
        <time>2022-02-24T18:47:06Z</time>
      </trkpt>
      <trkpt lat="46.45226" lon="5.60538">
        <ele>474.8</ele>
        <time>2022-02-24T18:47:07Z</time>
      </trkpt>
      <trkpt lat="46.45228" lon="5.60539">
        <ele>475.2</ele>
        <time>2022-02-24T18:47:08Z</time>
      </trkpt>
      <trkpt lat="46.4523" lon="5.60539">
        <ele>475.2</ele>
        <time>2022-02-24T18:47:09Z</time>
      </trkpt>
      <trkpt lat="46.45231" lon="5.6054">
        <ele>475.6</ele>
        <time>2022-02-24T18:47:10Z</time>
      </trkpt>
      <trkpt lat="46.45233" lon="5.60542">
        <ele>475.6</ele>
        <time>2022-02-24T18:47:11Z</time>
      </trkpt>
      <trkpt lat="46.45235" lon="5.60543">
        <ele>475.8</ele>
        <time>2022-02-24T18:47:12Z</time>
      </trkpt>
      <trkpt lat="46.45237" lon="5.60545">
        <ele>475.8</ele>
        <time>2022-02-24T18:47:13Z</time>
      </trkpt>
      <trkpt lat="46.45239" lon="5.60548">
        <ele>476.2</ele>
        <time>2022-02-24T18:47:14Z</time>
      </trkpt>
      <trkpt lat="46.4524" lon="5.6055">
        <ele>476.2</ele>
        <time>2022-02-24T18:47:15Z</time>
      </trkpt>
      <trkpt lat="46.45242" lon="5.60552">
        <ele>476.4</ele>
        <time>2022-02-24T18:47:16Z</time>
      </trkpt>
      <trkpt lat="46.45244" lon="5.60553">
        <ele>476.6</ele>
        <time>2022-02-24T18:47:17Z</time>
      </trkpt>
      <trkpt lat="46.45245" lon="5.60555">
        <ele>476.6</ele>
        <time>2022-02-24T18:47:18Z</time>
      </trkpt>
      <trkpt lat="46.45247" lon="5.60557">
        <ele>477</ele>
        <time>2022-02-24T18:47:19Z</time>
      </trkpt>
      <trkpt lat="46.45249" lon="5.60558">
        <ele>477</ele>
        <time>2022-02-24T18:47:20Z</time>
      </trkpt>
      <trkpt lat="46.4525" lon="5.6056">
        <ele>477.4</ele>
        <time>2022-02-24T18:47:21Z</time>
      </trkpt>
      <trkpt lat="46.45252" lon="5.60562">
        <ele>477.4</ele>
        <time>2022-02-24T18:47:22Z</time>
      </trkpt>
      <trkpt lat="46.45253" lon="5.60564">
        <ele>477.6</ele>
        <time>2022-02-24T18:47:23Z</time>
      </trkpt>
      <trkpt lat="46.45255" lon="5.60568">
        <ele>478</ele>
        <time>2022-02-24T18:47:24Z</time>
      </trkpt>
      <trkpt lat="46.45257" lon="5.60571">
        <ele>478</ele>
        <time>2022-02-24T18:47:25Z</time>
      </trkpt>
      <trkpt lat="46.45258" lon="5.60573">
        <ele>478.2</ele>
        <time>2022-02-24T18:47:26Z</time>
      </trkpt>
      <trkpt lat="46.4526" lon="5.60575">
        <ele>478.2</ele>
        <time>2022-02-24T18:47:27Z</time>
      </trkpt>
      <trkpt lat="46.45262" lon="5.60579">
        <ele>478.6</ele>
        <time>2022-02-24T18:47:28Z</time>
      </trkpt>
      <trkpt lat="46.45263" lon="5.60582">
        <ele>478.6</ele>
        <time>2022-02-24T18:47:29Z</time>
      </trkpt>
      <trkpt lat="46.45264" lon="5.60585">
        <ele>479</ele>
        <time>2022-02-24T18:47:30Z</time>
      </trkpt>
      <trkpt lat="46.45265" lon="5.60589">
        <ele>479</ele>
        <time>2022-02-24T18:47:31Z</time>
      </trkpt>
      <trkpt lat="46.45267" lon="5.60591">
        <ele>479.2</ele>
        <time>2022-02-24T18:47:32Z</time>
      </trkpt>
      <trkpt lat="46.45269" lon="5.60594">
        <ele>479.4</ele>
        <time>2022-02-24T18:47:33Z</time>
      </trkpt>
      <trkpt lat="46.4527" lon="5.60597">
        <ele>479.4</ele>
        <time>2022-02-24T18:47:34Z</time>
      </trkpt>
      <trkpt lat="46.45271" lon="5.60601">
        <ele>479.8</ele>
        <time>2022-02-24T18:47:35Z</time>
      </trkpt>
      <trkpt lat="46.45272" lon="5.60604">
        <ele>479.8</ele>
        <time>2022-02-24T18:47:36Z</time>
      </trkpt>
      <trkpt lat="46.45272" lon="5.60607">
        <ele>480</ele>
        <time>2022-02-24T18:47:37Z</time>
      </trkpt>
      <trkpt lat="46.45273" lon="5.6061">
        <ele>480</ele>
        <time>2022-02-24T18:47:38Z</time>
      </trkpt>
      <trkpt lat="46.45273" lon="5.60613">
        <ele>480.4</ele>
        <time>2022-02-24T18:47:39Z</time>
      </trkpt>
      <trkpt lat="46.45274" lon="5.60616">
        <ele>480.4</ele>
        <time>2022-02-24T18:47:40Z</time>
      </trkpt>
      <trkpt lat="46.45275" lon="5.60619">
        <ele>480.6</ele>
        <time>2022-02-24T18:47:41Z</time>
      </trkpt>
      <trkpt lat="46.45275" lon="5.60622">
        <ele>480.6</ele>
        <time>2022-02-24T18:47:42Z</time>
      </trkpt>
      <trkpt lat="46.45276" lon="5.60625">
        <ele>481</ele>
        <time>2022-02-24T18:47:43Z</time>
      </trkpt>
      <trkpt lat="46.45276" lon="5.60628">
        <ele>481</ele>
        <time>2022-02-24T18:47:44Z</time>
      </trkpt>
      <trkpt lat="46.45278" lon="5.60631">
        <ele>481.2</ele>
        <time>2022-02-24T18:47:45Z</time>
      </trkpt>
      <trkpt lat="46.45279" lon="5.60634">
        <ele>481.2</ele>
        <time>2022-02-24T18:47:46Z</time>
      </trkpt>
      <trkpt lat="46.4528" lon="5.60636">
        <ele>481.6</ele>
        <time>2022-02-24T18:47:47Z</time>
      </trkpt>
      <trkpt lat="46.45281" lon="5.60638">
        <ele>481.6</ele>
        <time>2022-02-24T18:47:48Z</time>
      </trkpt>
      <trkpt lat="46.45284" lon="5.60639">
        <ele>482</ele>
        <time>2022-02-24T18:47:49Z</time>
      </trkpt>
      <trkpt lat="46.45285" lon="5.60641">
        <ele>482</ele>
        <time>2022-02-24T18:47:50Z</time>
      </trkpt>
      <trkpt lat="46.45287" lon="5.60641">
        <ele>482.2</ele>
        <time>2022-02-24T18:47:51Z</time>
      </trkpt>
      <trkpt lat="46.45289" lon="5.60641">
        <ele>482.2</ele>
        <time>2022-02-24T18:47:52Z</time>
      </trkpt>
      <trkpt lat="46.45292" lon="5.6064">
        <ele>482.4</ele>
        <time>2022-02-24T18:47:53Z</time>
      </trkpt>
      <trkpt lat="46.45295" lon="5.60639">
        <ele>482.4</ele>
        <time>2022-02-24T18:47:54Z</time>
      </trkpt>
      <trkpt lat="46.45297" lon="5.60637">
        <ele>482.4</ele>
        <time>2022-02-24T18:47:55Z</time>
      </trkpt>
      <trkpt lat="46.45299" lon="5.60635">
        <ele>482.8</ele>
        <time>2022-02-24T18:47:56Z</time>
      </trkpt>
      <trkpt lat="46.45302" lon="5.60633">
        <ele>482.8</ele>
        <time>2022-02-24T18:47:57Z</time>
      </trkpt>
      <trkpt lat="46.45303" lon="5.60631">
        <ele>483</ele>
        <time>2022-02-24T18:47:58Z</time>
      </trkpt>
      <trkpt lat="46.45305" lon="5.60629">
        <ele>483.2</ele>
        <time>2022-02-24T18:47:59Z</time>
      </trkpt>
      <trkpt lat="46.45306" lon="5.60626">
        <ele>483.2</ele>
        <time>2022-02-24T18:48:00Z</time>
      </trkpt>
      <trkpt lat="46.45308" lon="5.60624">
        <ele>483.6</ele>
        <time>2022-02-24T18:48:01Z</time>
      </trkpt>
      <trkpt lat="46.45309" lon="5.60621">
        <ele>483.6</ele>
        <time>2022-02-24T18:48:02Z</time>
      </trkpt>
      <trkpt lat="46.4531" lon="5.60618">
        <ele>484</ele>
        <time>2022-02-24T18:48:03Z</time>
      </trkpt>
      <trkpt lat="46.45311" lon="5.60615">
        <ele>484</ele>
        <time>2022-02-24T18:48:04Z</time>
      </trkpt>
      <trkpt lat="46.45312" lon="5.60613">
        <ele>484.2</ele>
        <time>2022-02-24T18:48:05Z</time>
      </trkpt>
      <trkpt lat="46.45313" lon="5.6061">
        <ele>484.2</ele>
        <time>2022-02-24T18:48:06Z</time>
      </trkpt>
      <trkpt lat="46.45314" lon="5.60607">
        <ele>484.6</ele>
        <time>2022-02-24T18:48:07Z</time>
      </trkpt>
      <trkpt lat="46.45315" lon="5.60604">
        <ele>484.6</ele>
        <time>2022-02-24T18:48:08Z</time>
      </trkpt>
      <trkpt lat="46.45315" lon="5.60602">
        <ele>485</ele>
        <time>2022-02-24T18:48:09Z</time>
      </trkpt>
      <trkpt lat="46.45316" lon="5.60598">
        <ele>485</ele>
        <time>2022-02-24T18:48:10Z</time>
      </trkpt>
      <trkpt lat="46.45316" lon="5.60595">
        <ele>485.4</ele>
        <time>2022-02-24T18:48:11Z</time>
      </trkpt>
      <trkpt lat="46.45317" lon="5.60592">
        <ele>485.4</ele>
        <time>2022-02-24T18:48:12Z</time>
      </trkpt>
      <trkpt lat="46.45318" lon="5.60589">
        <ele>485.6</ele>
        <time>2022-02-24T18:48:13Z</time>
      </trkpt>
      <trkpt lat="46.45319" lon="5.60586">
        <ele>485.6</ele>
        <time>2022-02-24T18:48:14Z</time>
      </trkpt>
      <trkpt lat="46.4532" lon="5.60583">
        <ele>486</ele>
        <time>2022-02-24T18:48:15Z</time>
      </trkpt>
      <trkpt lat="46.4532" lon="5.6058">
        <ele>486</ele>
        <time>2022-02-24T18:48:16Z</time>
      </trkpt>
      <trkpt lat="46.45321" lon="5.60577">
        <ele>486.2</ele>
        <time>2022-02-24T18:48:17Z</time>
      </trkpt>
      <trkpt lat="46.45322" lon="5.60574">
        <ele>486.2</ele>
        <time>2022-02-24T18:48:18Z</time>
      </trkpt>
      <trkpt lat="46.45323" lon="5.60571">
        <ele>486.6</ele>
        <time>2022-02-24T18:48:19Z</time>
      </trkpt>
      <trkpt lat="46.45324" lon="5.60568">
        <ele>486.8</ele>
        <time>2022-02-24T18:48:20Z</time>
      </trkpt>
      <trkpt lat="46.45324" lon="5.60565">
        <ele>487</ele>
        <time>2022-02-24T18:48:21Z</time>
      </trkpt>
      <trkpt lat="46.45325" lon="5.60561">
        <ele>487</ele>
        <time>2022-02-24T18:48:22Z</time>
      </trkpt>
      <trkpt lat="46.45326" lon="5.60558">
        <ele>487.2</ele>
        <time>2022-02-24T18:48:23Z</time>
      </trkpt>
      <trkpt lat="46.45327" lon="5.60555">
        <ele>487.2</ele>
        <time>2022-02-24T18:48:24Z</time>
      </trkpt>
      <trkpt lat="46.45327" lon="5.6055">
        <ele>487.2</ele>
        <time>2022-02-24T18:48:25Z</time>
      </trkpt>
      <trkpt lat="46.45327" lon="5.60546">
        <ele>487.6</ele>
        <time>2022-02-24T18:48:26Z</time>
      </trkpt>
      <trkpt lat="46.45328" lon="5.60542">
        <ele>487.6</ele>
        <time>2022-02-24T18:48:27Z</time>
      </trkpt>
      <trkpt lat="46.45328" lon="5.60538">
        <ele>487.8</ele>
        <time>2022-02-24T18:48:28Z</time>
      </trkpt>
      <trkpt lat="46.45329" lon="5.60534">
        <ele>487.8</ele>
        <time>2022-02-24T18:48:29Z</time>
      </trkpt>
      <trkpt lat="46.45329" lon="5.60531">
        <ele>488.2</ele>
        <time>2022-02-24T18:48:30Z</time>
      </trkpt>
      <trkpt lat="46.4533" lon="5.60527">
        <ele>488.2</ele>
        <time>2022-02-24T18:48:31Z</time>
      </trkpt>
      <trkpt lat="46.4533" lon="5.60523">
        <ele>488.4</ele>
        <time>2022-02-24T18:48:32Z</time>
      </trkpt>
      <trkpt lat="46.45331" lon="5.6052">
        <ele>488.4</ele>
        <time>2022-02-24T18:48:33Z</time>
      </trkpt>
      <trkpt lat="46.45331" lon="5.60516">
        <ele>488.6</ele>
        <time>2022-02-24T18:48:34Z</time>
      </trkpt>
      <trkpt lat="46.45332" lon="5.60512">
        <ele>488.6</ele>
        <time>2022-02-24T18:48:35Z</time>
      </trkpt>
      <trkpt lat="46.45333" lon="5.60509">
        <ele>489</ele>
        <time>2022-02-24T18:48:36Z</time>
      </trkpt>
      <trkpt lat="46.45334" lon="5.60505">
        <ele>489.2</ele>
        <time>2022-02-24T18:48:37Z</time>
      </trkpt>
      <trkpt lat="46.45336" lon="5.60502">
        <ele>489.6</ele>
        <time>2022-02-24T18:48:38Z</time>
      </trkpt>
      <trkpt lat="46.45338" lon="5.605">
        <ele>489.8</ele>
        <time>2022-02-24T18:48:39Z</time>
      </trkpt>
      <trkpt lat="46.45341" lon="5.60498">
        <ele>490</ele>
        <time>2022-02-24T18:48:40Z</time>
      </trkpt>
      <trkpt lat="46.45343" lon="5.60496">
        <ele>490.2</ele>
        <time>2022-02-24T18:48:41Z</time>
      </trkpt>
      <trkpt lat="46.45345" lon="5.60495">
        <ele>490.6</ele>
        <time>2022-02-24T18:48:42Z</time>
      </trkpt>
      <trkpt lat="46.45348" lon="5.60495">
        <ele>490.8</ele>
        <time>2022-02-24T18:48:43Z</time>
      </trkpt>
      <trkpt lat="46.4535" lon="5.60495">
        <ele>490.8</ele>
        <time>2022-02-24T18:48:44Z</time>
      </trkpt>
      <trkpt lat="46.45352" lon="5.60495">
        <ele>491.2</ele>
        <time>2022-02-24T18:48:45Z</time>
      </trkpt>
      <trkpt lat="46.45355" lon="5.60495">
        <ele>491.4</ele>
        <time>2022-02-24T18:48:46Z</time>
      </trkpt>
      <trkpt lat="46.45358" lon="5.60495">
        <ele>491.4</ele>
        <time>2022-02-24T18:48:47Z</time>
      </trkpt>
      <trkpt lat="46.4536" lon="5.60495">
        <ele>491.8</ele>
        <time>2022-02-24T18:48:48Z</time>
      </trkpt>
      <trkpt lat="46.45363" lon="5.60496">
        <ele>491.8</ele>
        <time>2022-02-24T18:48:49Z</time>
      </trkpt>
      <trkpt lat="46.45366" lon="5.60496">
        <ele>492</ele>
        <time>2022-02-24T18:48:50Z</time>
      </trkpt>
      <trkpt lat="46.45369" lon="5.60497">
        <ele>492</ele>
        <time>2022-02-24T18:48:51Z</time>
      </trkpt>
      <trkpt lat="46.45372" lon="5.60498">
        <ele>492</ele>
        <time>2022-02-24T18:48:52Z</time>
      </trkpt>
      <trkpt lat="46.45375" lon="5.60498">
        <ele>492.4</ele>
        <time>2022-02-24T18:48:53Z</time>
      </trkpt>
      <trkpt lat="46.45377" lon="5.60499">
        <ele>492.4</ele>
        <time>2022-02-24T18:48:54Z</time>
      </trkpt>
      <trkpt lat="46.4538" lon="5.605">
        <ele>492.6</ele>
        <time>2022-02-24T18:48:55Z</time>
      </trkpt>
      <trkpt lat="46.45382" lon="5.605">
        <ele>492.6</ele>
        <time>2022-02-24T18:48:56Z</time>
      </trkpt>
      <trkpt lat="46.45385" lon="5.60502">
        <ele>492.6</ele>
        <time>2022-02-24T18:48:57Z</time>
      </trkpt>
      <trkpt lat="46.45388" lon="5.60503">
        <ele>493</ele>
        <time>2022-02-24T18:48:58Z</time>
      </trkpt>
      <trkpt lat="46.45391" lon="5.60505">
        <ele>493</ele>
        <time>2022-02-24T18:48:59Z</time>
      </trkpt>
      <trkpt lat="46.45394" lon="5.60507">
        <ele>493</ele>
        <time>2022-02-24T18:49:00Z</time>
      </trkpt>
      <trkpt lat="46.45397" lon="5.60509">
        <ele>493.2</ele>
        <time>2022-02-24T18:49:01Z</time>
      </trkpt>
      <trkpt lat="46.454" lon="5.60511">
        <ele>493.2</ele>
        <time>2022-02-24T18:49:02Z</time>
      </trkpt>
      <trkpt lat="46.45402" lon="5.60513">
        <ele>493.2</ele>
        <time>2022-02-24T18:49:03Z</time>
      </trkpt>
      <trkpt lat="46.45405" lon="5.60515">
        <ele>493.2</ele>
        <time>2022-02-24T18:49:04Z</time>
      </trkpt>
      <trkpt lat="46.45407" lon="5.60517">
        <ele>493.6</ele>
        <time>2022-02-24T18:49:05Z</time>
      </trkpt>
      <trkpt lat="46.4541" lon="5.60519">
        <ele>493.6</ele>
        <time>2022-02-24T18:49:06Z</time>
      </trkpt>
      <trkpt lat="46.45412" lon="5.60521">
        <ele>493.8</ele>
        <time>2022-02-24T18:49:07Z</time>
      </trkpt>
      <trkpt lat="46.45414" lon="5.60523">
        <ele>493.8</ele>
        <time>2022-02-24T18:49:08Z</time>
      </trkpt>
      <trkpt lat="46.45417" lon="5.60525">
        <ele>494.2</ele>
        <time>2022-02-24T18:49:09Z</time>
      </trkpt>
      <trkpt lat="46.45419" lon="5.60527">
        <ele>494.2</ele>
        <time>2022-02-24T18:49:10Z</time>
      </trkpt>
      <trkpt lat="46.45422" lon="5.6053">
        <ele>494.4</ele>
        <time>2022-02-24T18:49:11Z</time>
      </trkpt>
      <trkpt lat="46.45424" lon="5.60532">
        <ele>494.4</ele>
        <time>2022-02-24T18:49:12Z</time>
      </trkpt>
      <trkpt lat="46.45427" lon="5.60533">
        <ele>494.4</ele>
        <time>2022-02-24T18:49:13Z</time>
      </trkpt>
      <trkpt lat="46.45429" lon="5.60535">
        <ele>494.6</ele>
        <time>2022-02-24T18:49:14Z</time>
      </trkpt>
      <trkpt lat="46.45431" lon="5.60536">
        <ele>494.6</ele>
        <time>2022-02-24T18:49:15Z</time>
      </trkpt>
      <trkpt lat="46.45433" lon="5.60538">
        <ele>494.8</ele>
        <time>2022-02-24T18:49:16Z</time>
      </trkpt>
      <trkpt lat="46.45436" lon="5.6054">
        <ele>494.8</ele>
        <time>2022-02-24T18:49:17Z</time>
      </trkpt>
      <trkpt lat="46.45438" lon="5.60542">
        <ele>495</ele>
        <time>2022-02-24T18:49:18Z</time>
      </trkpt>
      <trkpt lat="46.45441" lon="5.60544">
        <ele>495</ele>
        <time>2022-02-24T18:49:19Z</time>
      </trkpt>
      <trkpt lat="46.45443" lon="5.60546">
        <ele>495</ele>
        <time>2022-02-24T18:49:20Z</time>
      </trkpt>
      <trkpt lat="46.45445" lon="5.60548">
        <ele>495.2</ele>
        <time>2022-02-24T18:49:21Z</time>
      </trkpt>
      <trkpt lat="46.45448" lon="5.60549">
        <ele>495.2</ele>
        <time>2022-02-24T18:49:22Z</time>
      </trkpt>
      <trkpt lat="46.4545" lon="5.60551">
        <ele>495.4</ele>
        <time>2022-02-24T18:49:23Z</time>
      </trkpt>
      <trkpt lat="46.45453" lon="5.60552">
        <ele>495.4</ele>
        <time>2022-02-24T18:49:24Z</time>
      </trkpt>
      <trkpt lat="46.45455" lon="5.60553">
        <ele>496</ele>
        <time>2022-02-24T18:49:25Z</time>
      </trkpt>
      <trkpt lat="46.45458" lon="5.60554">
        <ele>496</ele>
        <time>2022-02-24T18:49:26Z</time>
      </trkpt>
      <trkpt lat="46.4546" lon="5.60555">
        <ele>496.2</ele>
        <time>2022-02-24T18:49:27Z</time>
      </trkpt>
      <trkpt lat="46.45463" lon="5.60556">
        <ele>496.2</ele>
        <time>2022-02-24T18:49:28Z</time>
      </trkpt>
      <trkpt lat="46.45465" lon="5.60557">
        <ele>496.4</ele>
        <time>2022-02-24T18:49:29Z</time>
      </trkpt>
      <trkpt lat="46.45468" lon="5.60558">
        <ele>496.4</ele>
        <time>2022-02-24T18:49:30Z</time>
      </trkpt>
      <trkpt lat="46.4547" lon="5.6056">
        <ele>496.6</ele>
        <time>2022-02-24T18:49:31Z</time>
      </trkpt>
      <trkpt lat="46.45473" lon="5.60561">
        <ele>496.8</ele>
        <time>2022-02-24T18:49:32Z</time>
      </trkpt>
      <trkpt lat="46.45475" lon="5.60561">
        <ele>497</ele>
        <time>2022-02-24T18:49:33Z</time>
      </trkpt>
      <trkpt lat="46.45477" lon="5.60562">
        <ele>497</ele>
        <time>2022-02-24T18:49:34Z</time>
      </trkpt>
      <trkpt lat="46.4548" lon="5.60563">
        <ele>497.4</ele>
        <time>2022-02-24T18:49:35Z</time>
      </trkpt>
      <trkpt lat="46.45482" lon="5.60564">
        <ele>497.4</ele>
        <time>2022-02-24T18:49:36Z</time>
      </trkpt>
      <trkpt lat="46.45485" lon="5.60565">
        <ele>497.8</ele>
        <time>2022-02-24T18:49:37Z</time>
      </trkpt>
      <trkpt lat="46.45488" lon="5.60566">
        <ele>497.8</ele>
        <time>2022-02-24T18:49:38Z</time>
      </trkpt>
      <trkpt lat="46.45491" lon="5.60567">
        <ele>498.2</ele>
        <time>2022-02-24T18:49:39Z</time>
      </trkpt>
      <trkpt lat="46.45493" lon="5.60568">
        <ele>498.2</ele>
        <time>2022-02-24T18:49:40Z</time>
      </trkpt>
      <trkpt lat="46.45495" lon="5.60568">
        <ele>498.4</ele>
        <time>2022-02-24T18:49:41Z</time>
      </trkpt>
      <trkpt lat="46.45497" lon="5.60569">
        <ele>498.4</ele>
        <time>2022-02-24T18:49:42Z</time>
      </trkpt>
      <trkpt lat="46.45499" lon="5.6057">
        <ele>498.8</ele>
        <time>2022-02-24T18:49:43Z</time>
      </trkpt>
      <trkpt lat="46.45502" lon="5.6057">
        <ele>498.8</ele>
        <time>2022-02-24T18:49:44Z</time>
      </trkpt>
      <trkpt lat="46.45504" lon="5.60571">
        <ele>499.2</ele>
        <time>2022-02-24T18:49:45Z</time>
      </trkpt>
      <trkpt lat="46.45508" lon="5.60572">
        <ele>499.4</ele>
        <time>2022-02-24T18:49:46Z</time>
      </trkpt>
      <trkpt lat="46.4551" lon="5.60572">
        <ele>499.6</ele>
        <time>2022-02-24T18:49:47Z</time>
      </trkpt>
      <trkpt lat="46.45513" lon="5.60573">
        <ele>500</ele>
        <time>2022-02-24T18:49:48Z</time>
      </trkpt>
      <trkpt lat="46.45515" lon="5.60572">
        <ele>500.4</ele>
        <time>2022-02-24T18:49:49Z</time>
      </trkpt>
      <trkpt lat="46.45517" lon="5.60572">
        <ele>500.6</ele>
        <time>2022-02-24T18:49:50Z</time>
      </trkpt>
      <trkpt lat="46.4552" lon="5.60572">
        <ele>501</ele>
        <time>2022-02-24T18:49:51Z</time>
      </trkpt>
      <trkpt lat="46.45522" lon="5.60573">
        <ele>501.2</ele>
        <time>2022-02-24T18:49:52Z</time>
      </trkpt>
      <trkpt lat="46.45525" lon="5.60573">
        <ele>501.6</ele>
        <time>2022-02-24T18:49:53Z</time>
      </trkpt>
      <trkpt lat="46.45527" lon="5.60574">
        <ele>501.6</ele>
        <time>2022-02-24T18:49:54Z</time>
      </trkpt>
      <trkpt lat="46.45529" lon="5.60575">
        <ele>502</ele>
        <time>2022-02-24T18:49:55Z</time>
      </trkpt>
      <trkpt lat="46.45531" lon="5.60576">
        <ele>502</ele>
        <time>2022-02-24T18:49:56Z</time>
      </trkpt>
      <trkpt lat="46.45534" lon="5.60576">
        <ele>502.4</ele>
        <time>2022-02-24T18:49:57Z</time>
      </trkpt>
      <trkpt lat="46.45536" lon="5.60577">
        <ele>502.8</ele>
        <time>2022-02-24T18:49:58Z</time>
      </trkpt>
      <trkpt lat="46.45538" lon="5.60577">
        <ele>503</ele>
        <time>2022-02-24T18:49:59Z</time>
      </trkpt>
      <trkpt lat="46.4554" lon="5.60578">
        <ele>503.2</ele>
        <time>2022-02-24T18:50:00Z</time>
      </trkpt>
      <trkpt lat="46.45543" lon="5.60578">
        <ele>503.4</ele>
        <time>2022-02-24T18:50:01Z</time>
      </trkpt>
      <trkpt lat="46.45545" lon="5.60578">
        <ele>503.8</ele>
        <time>2022-02-24T18:50:02Z</time>
      </trkpt>
      <trkpt lat="46.45547" lon="5.60578">
        <ele>504</ele>
        <time>2022-02-24T18:50:03Z</time>
      </trkpt>
      <trkpt lat="46.4555" lon="5.60578">
        <ele>504.4</ele>
        <time>2022-02-24T18:50:04Z</time>
      </trkpt>
      <trkpt lat="46.45553" lon="5.60578">
        <ele>504.6</ele>
        <time>2022-02-24T18:50:05Z</time>
      </trkpt>
      <trkpt lat="46.45555" lon="5.60578">
        <ele>504.8</ele>
        <time>2022-02-24T18:50:06Z</time>
      </trkpt>
      <trkpt lat="46.45558" lon="5.60578">
        <ele>505.2</ele>
        <time>2022-02-24T18:50:07Z</time>
      </trkpt>
      <trkpt lat="46.4556" lon="5.60578">
        <ele>505.6</ele>
        <time>2022-02-24T18:50:08Z</time>
      </trkpt>
      <trkpt lat="46.45562" lon="5.60578">
        <ele>505.8</ele>
        <time>2022-02-24T18:50:09Z</time>
      </trkpt>
      <trkpt lat="46.45564" lon="5.60578">
        <ele>506</ele>
        <time>2022-02-24T18:50:10Z</time>
      </trkpt>
      <trkpt lat="46.45566" lon="5.60578">
        <ele>506.4</ele>
        <time>2022-02-24T18:50:11Z</time>
      </trkpt>
      <trkpt lat="46.45569" lon="5.60578">
        <ele>506.6</ele>
        <time>2022-02-24T18:50:12Z</time>
      </trkpt>
      <trkpt lat="46.4557" lon="5.60577">
        <ele>506.8</ele>
        <time>2022-02-24T18:50:13Z</time>
      </trkpt>
      <trkpt lat="46.45572" lon="5.60576">
        <ele>507</ele>
        <time>2022-02-24T18:50:14Z</time>
      </trkpt>
      <trkpt lat="46.45575" lon="5.60574">
        <ele>507.4</ele>
        <time>2022-02-24T18:50:15Z</time>
      </trkpt>
      <trkpt lat="46.45577" lon="5.60573">
        <ele>507.6</ele>
        <time>2022-02-24T18:50:16Z</time>
      </trkpt>
      <trkpt lat="46.45579" lon="5.60571">
        <ele>507.8</ele>
        <time>2022-02-24T18:50:17Z</time>
      </trkpt>
      <trkpt lat="46.4558" lon="5.6057">
        <ele>508</ele>
        <time>2022-02-24T18:50:18Z</time>
      </trkpt>
      <trkpt lat="46.45582" lon="5.60569">
        <ele>508</ele>
        <time>2022-02-24T18:50:19Z</time>
      </trkpt>
      <trkpt lat="46.45584" lon="5.60567">
        <ele>508.4</ele>
        <time>2022-02-24T18:50:20Z</time>
      </trkpt>
      <trkpt lat="46.45586" lon="5.60566">
        <ele>508.4</ele>
        <time>2022-02-24T18:50:21Z</time>
      </trkpt>
      <trkpt lat="46.45588" lon="5.60565">
        <ele>508.6</ele>
        <time>2022-02-24T18:50:22Z</time>
      </trkpt>
      <trkpt lat="46.4559" lon="5.60563">
        <ele>508.6</ele>
        <time>2022-02-24T18:50:23Z</time>
      </trkpt>
      <trkpt lat="46.45592" lon="5.6056">
        <ele>508.8</ele>
        <time>2022-02-24T18:50:24Z</time>
      </trkpt>
      <trkpt lat="46.45594" lon="5.60557">
        <ele>508.8</ele>
        <time>2022-02-24T18:50:25Z</time>
      </trkpt>
      <trkpt lat="46.45596" lon="5.60554">
        <ele>508.8</ele>
        <time>2022-02-24T18:50:26Z</time>
      </trkpt>
      <trkpt lat="46.45598" lon="5.60551">
        <ele>508.8</ele>
        <time>2022-02-24T18:50:27Z</time>
      </trkpt>
      <trkpt lat="46.45601" lon="5.60548">
        <ele>508.8</ele>
        <time>2022-02-24T18:50:28Z</time>
      </trkpt>
      <trkpt lat="46.45604" lon="5.60545">
        <ele>508.8</ele>
        <time>2022-02-24T18:50:29Z</time>
      </trkpt>
      <trkpt lat="46.45608" lon="5.60542">
        <ele>508.8</ele>
        <time>2022-02-24T18:50:30Z</time>
      </trkpt>
      <trkpt lat="46.45612" lon="5.60541">
        <ele>508.8</ele>
        <time>2022-02-24T18:50:31Z</time>
      </trkpt>
      <trkpt lat="46.45617" lon="5.60542">
        <ele>508.8</ele>
        <time>2022-02-24T18:50:32Z</time>
      </trkpt>
      <trkpt lat="46.45621" lon="5.60544">
        <ele>508.8</ele>
        <time>2022-02-24T18:50:33Z</time>
      </trkpt>
      <trkpt lat="46.45624" lon="5.60546">
        <ele>508.8</ele>
        <time>2022-02-24T18:50:34Z</time>
      </trkpt>
      <trkpt lat="46.45628" lon="5.60549">
        <ele>508.8</ele>
        <time>2022-02-24T18:50:35Z</time>
      </trkpt>
      <trkpt lat="46.45632" lon="5.60552">
        <ele>508.8</ele>
        <time>2022-02-24T18:50:36Z</time>
      </trkpt>
      <trkpt lat="46.45635" lon="5.60555">
        <ele>508.8</ele>
        <time>2022-02-24T18:50:37Z</time>
      </trkpt>
      <trkpt lat="46.45639" lon="5.60558">
        <ele>508.8</ele>
        <time>2022-02-24T18:50:38Z</time>
      </trkpt>
      <trkpt lat="46.45642" lon="5.60561">
        <ele>508.8</ele>
        <time>2022-02-24T18:50:39Z</time>
      </trkpt>
      <trkpt lat="46.45645" lon="5.60564">
        <ele>508.8</ele>
        <time>2022-02-24T18:50:40Z</time>
      </trkpt>
      <trkpt lat="46.45648" lon="5.60567">
        <ele>509</ele>
        <time>2022-02-24T18:50:41Z</time>
      </trkpt>
      <trkpt lat="46.45651" lon="5.60569">
        <ele>509</ele>
        <time>2022-02-24T18:50:42Z</time>
      </trkpt>
      <trkpt lat="46.45654" lon="5.60571">
        <ele>509</ele>
        <time>2022-02-24T18:50:43Z</time>
      </trkpt>
      <trkpt lat="46.45657" lon="5.60574">
        <ele>509.4</ele>
        <time>2022-02-24T18:50:44Z</time>
      </trkpt>
      <trkpt lat="46.4566" lon="5.60576">
        <ele>509.4</ele>
        <time>2022-02-24T18:50:45Z</time>
      </trkpt>
      <trkpt lat="46.45662" lon="5.60579">
        <ele>509.6</ele>
        <time>2022-02-24T18:50:46Z</time>
      </trkpt>
      <trkpt lat="46.45665" lon="5.60581">
        <ele>509.6</ele>
        <time>2022-02-24T18:50:47Z</time>
      </trkpt>
      <trkpt lat="46.45668" lon="5.60583">
        <ele>509.6</ele>
        <time>2022-02-24T18:50:48Z</time>
      </trkpt>
      <trkpt lat="46.45671" lon="5.60585">
        <ele>509.6</ele>
        <time>2022-02-24T18:50:49Z</time>
      </trkpt>
      <trkpt lat="46.45674" lon="5.60587">
        <ele>509.6</ele>
        <time>2022-02-24T18:50:50Z</time>
      </trkpt>
      <trkpt lat="46.45677" lon="5.60589">
        <ele>509.8</ele>
        <time>2022-02-24T18:50:51Z</time>
      </trkpt>
      <trkpt lat="46.45681" lon="5.6059">
        <ele>509.8</ele>
        <time>2022-02-24T18:50:52Z</time>
      </trkpt>
      <trkpt lat="46.45685" lon="5.60592">
        <ele>509.8</ele>
        <time>2022-02-24T18:50:53Z</time>
      </trkpt>
      <trkpt lat="46.45688" lon="5.60593">
        <ele>509.8</ele>
        <time>2022-02-24T18:50:54Z</time>
      </trkpt>
      <trkpt lat="46.45692" lon="5.60594">
        <ele>509.8</ele>
        <time>2022-02-24T18:50:55Z</time>
      </trkpt>
      <trkpt lat="46.45695" lon="5.60595">
        <ele>509.8</ele>
        <time>2022-02-24T18:50:56Z</time>
      </trkpt>
      <trkpt lat="46.45699" lon="5.60596">
        <ele>509.8</ele>
        <time>2022-02-24T18:50:57Z</time>
      </trkpt>
      <trkpt lat="46.45702" lon="5.60597">
        <ele>510</ele>
        <time>2022-02-24T18:50:58Z</time>
      </trkpt>
      <trkpt lat="46.45705" lon="5.60597">
        <ele>510</ele>
        <time>2022-02-24T18:50:59Z</time>
      </trkpt>
      <trkpt lat="46.45709" lon="5.60598">
        <ele>510</ele>
        <time>2022-02-24T18:51:00Z</time>
      </trkpt>
      <trkpt lat="46.45712" lon="5.60598">
        <ele>510</ele>
        <time>2022-02-24T18:51:01Z</time>
      </trkpt>
      <trkpt lat="46.45714" lon="5.60599">
        <ele>510</ele>
        <time>2022-02-24T18:51:02Z</time>
      </trkpt>
      <trkpt lat="46.45717" lon="5.60599">
        <ele>510</ele>
        <time>2022-02-24T18:51:03Z</time>
      </trkpt>
      <trkpt lat="46.45719" lon="5.606">
        <ele>510</ele>
        <time>2022-02-24T18:51:04Z</time>
      </trkpt>
      <trkpt lat="46.45722" lon="5.606">
        <ele>510</ele>
        <time>2022-02-24T18:51:05Z</time>
      </trkpt>
      <trkpt lat="46.45723" lon="5.606">
        <ele>510</ele>
        <time>2022-02-24T18:51:06Z</time>
      </trkpt>
      <trkpt lat="46.45724" lon="5.60601">
        <ele>510</ele>
        <time>2022-02-24T18:51:07Z</time>
      </trkpt>
      <trkpt lat="46.45724" lon="5.60601">
        <ele>510</ele>
        <time>2022-02-24T18:51:08Z</time>
      </trkpt>
      <trkpt lat="46.45728" lon="5.60599">
        <ele>510.2</ele>
        <time>2022-02-24T18:51:41Z</time>
      </trkpt>
      <trkpt lat="46.4573" lon="5.60599">
        <ele>510.2</ele>
        <time>2022-02-24T18:51:42Z</time>
      </trkpt>
      <trkpt lat="46.45731" lon="5.60599">
        <ele>510.2</ele>
        <time>2022-02-24T18:51:43Z</time>
      </trkpt>
      <trkpt lat="46.45733" lon="5.60599">
        <ele>510.4</ele>
        <time>2022-02-24T18:51:44Z</time>
      </trkpt>
      <trkpt lat="46.45735" lon="5.60599">
        <ele>510.4</ele>
        <time>2022-02-24T18:51:45Z</time>
      </trkpt>
      <trkpt lat="46.45737" lon="5.60598">
        <ele>510.4</ele>
        <time>2022-02-24T18:51:46Z</time>
      </trkpt>
      <trkpt lat="46.45739" lon="5.60598">
        <ele>510.8</ele>
        <time>2022-02-24T18:51:47Z</time>
      </trkpt>
      <trkpt lat="46.45742" lon="5.60598">
        <ele>510.8</ele>
        <time>2022-02-24T18:51:48Z</time>
      </trkpt>
      <trkpt lat="46.45744" lon="5.60598">
        <ele>510.8</ele>
        <time>2022-02-24T18:51:49Z</time>
      </trkpt>
      <trkpt lat="46.45747" lon="5.60599">
        <ele>511</ele>
        <time>2022-02-24T18:51:50Z</time>
      </trkpt>
      <trkpt lat="46.4575" lon="5.606">
        <ele>511</ele>
        <time>2022-02-24T18:51:51Z</time>
      </trkpt>
      <trkpt lat="46.45752" lon="5.60601">
        <ele>511.2</ele>
        <time>2022-02-24T18:51:52Z</time>
      </trkpt>
      <trkpt lat="46.45755" lon="5.60601">
        <ele>511.2</ele>
        <time>2022-02-24T18:51:53Z</time>
      </trkpt>
      <trkpt lat="46.45758" lon="5.60602">
        <ele>511.4</ele>
        <time>2022-02-24T18:51:54Z</time>
      </trkpt>
      <trkpt lat="46.4576" lon="5.60603">
        <ele>511.4</ele>
        <time>2022-02-24T18:51:55Z</time>
      </trkpt>
      <trkpt lat="46.45763" lon="5.60604">
        <ele>511.8</ele>
        <time>2022-02-24T18:51:56Z</time>
      </trkpt>
      <trkpt lat="46.45765" lon="5.60604">
        <ele>511.8</ele>
        <time>2022-02-24T18:51:57Z</time>
      </trkpt>
      <trkpt lat="46.45768" lon="5.60604">
        <ele>511.8</ele>
        <time>2022-02-24T18:51:58Z</time>
      </trkpt>
      <trkpt lat="46.4577" lon="5.60605">
        <ele>512</ele>
        <time>2022-02-24T18:51:59Z</time>
      </trkpt>
      <trkpt lat="46.45773" lon="5.60606">
        <ele>512</ele>
        <time>2022-02-24T18:52:00Z</time>
      </trkpt>
      <trkpt lat="46.45775" lon="5.60607">
        <ele>512.2</ele>
        <time>2022-02-24T18:52:01Z</time>
      </trkpt>
      <trkpt lat="46.45778" lon="5.60608">
        <ele>512.2</ele>
        <time>2022-02-24T18:52:02Z</time>
      </trkpt>
      <trkpt lat="46.45781" lon="5.60609">
        <ele>512.2</ele>
        <time>2022-02-24T18:52:03Z</time>
      </trkpt>
      <trkpt lat="46.45784" lon="5.6061">
        <ele>512.6</ele>
        <time>2022-02-24T18:52:04Z</time>
      </trkpt>
      <trkpt lat="46.45786" lon="5.60611">
        <ele>512.6</ele>
        <time>2022-02-24T18:52:05Z</time>
      </trkpt>
      <trkpt lat="46.45789" lon="5.60612">
        <ele>513</ele>
        <time>2022-02-24T18:52:06Z</time>
      </trkpt>
      <trkpt lat="46.45791" lon="5.60613">
        <ele>513</ele>
        <time>2022-02-24T18:52:07Z</time>
      </trkpt>
      <trkpt lat="46.45794" lon="5.60614">
        <ele>513.4</ele>
        <time>2022-02-24T18:52:08Z</time>
      </trkpt>
      <trkpt lat="46.45797" lon="5.60615">
        <ele>513.4</ele>
        <time>2022-02-24T18:52:09Z</time>
      </trkpt>
      <trkpt lat="46.45799" lon="5.60616">
        <ele>513.6</ele>
        <time>2022-02-24T18:52:10Z</time>
      </trkpt>
      <trkpt lat="46.45802" lon="5.60616">
        <ele>513.6</ele>
        <time>2022-02-24T18:52:11Z</time>
      </trkpt>
      <trkpt lat="46.45805" lon="5.60616">
        <ele>514</ele>
        <time>2022-02-24T18:52:12Z</time>
      </trkpt>
      <trkpt lat="46.45807" lon="5.60617">
        <ele>514</ele>
        <time>2022-02-24T18:52:13Z</time>
      </trkpt>
      <trkpt lat="46.4581" lon="5.60617">
        <ele>514.2</ele>
        <time>2022-02-24T18:52:14Z</time>
      </trkpt>
      <trkpt lat="46.45812" lon="5.60618">
        <ele>514.2</ele>
        <time>2022-02-24T18:52:15Z</time>
      </trkpt>
      <trkpt lat="46.45815" lon="5.60619">
        <ele>514.6</ele>
        <time>2022-02-24T18:52:16Z</time>
      </trkpt>
      <trkpt lat="46.45818" lon="5.6062">
        <ele>514.6</ele>
        <time>2022-02-24T18:52:17Z</time>
      </trkpt>
      <trkpt lat="46.4582" lon="5.60621">
        <ele>514.8</ele>
        <time>2022-02-24T18:52:18Z</time>
      </trkpt>
      <trkpt lat="46.45823" lon="5.60622">
        <ele>514.8</ele>
        <time>2022-02-24T18:52:19Z</time>
      </trkpt>
      <trkpt lat="46.45825" lon="5.60623">
        <ele>515.2</ele>
        <time>2022-02-24T18:52:20Z</time>
      </trkpt>
      <trkpt lat="46.45827" lon="5.60625">
        <ele>515.2</ele>
        <time>2022-02-24T18:52:21Z</time>
      </trkpt>
      <trkpt lat="46.4583" lon="5.60625">
        <ele>515.2</ele>
        <time>2022-02-24T18:52:22Z</time>
      </trkpt>
      <trkpt lat="46.45832" lon="5.60626">
        <ele>515.6</ele>
        <time>2022-02-24T18:52:23Z</time>
      </trkpt>
      <trkpt lat="46.45835" lon="5.60627">
        <ele>515.6</ele>
        <time>2022-02-24T18:52:24Z</time>
      </trkpt>
      <trkpt lat="46.45837" lon="5.60628">
        <ele>516</ele>
        <time>2022-02-24T18:52:25Z</time>
      </trkpt>
      <trkpt lat="46.4584" lon="5.60629">
        <ele>516</ele>
        <time>2022-02-24T18:52:26Z</time>
      </trkpt>
      <trkpt lat="46.45842" lon="5.6063">
        <ele>516.2</ele>
        <time>2022-02-24T18:52:27Z</time>
      </trkpt>
      <trkpt lat="46.45845" lon="5.60631">
        <ele>516.2</ele>
        <time>2022-02-24T18:52:28Z</time>
      </trkpt>
      <trkpt lat="46.45848" lon="5.60631">
        <ele>516.6</ele>
        <time>2022-02-24T18:52:29Z</time>
      </trkpt>
      <trkpt lat="46.4585" lon="5.60632">
        <ele>516.6</ele>
        <time>2022-02-24T18:52:30Z</time>
      </trkpt>
      <trkpt lat="46.4585" lon="5.60632">
        <ele>516.6</ele>
        <time>2022-02-24T18:52:31Z</time>
      </trkpt>
      <trkpt lat="46.45853" lon="5.60633">
        <ele>516.6</ele>
        <time>2022-02-24T18:52:32Z</time>
      </trkpt>
      <trkpt lat="46.45856" lon="5.60634">
        <ele>516.8</ele>
        <time>2022-02-24T18:52:33Z</time>
      </trkpt>
      <trkpt lat="46.45859" lon="5.60634">
        <ele>516.8</ele>
        <time>2022-02-24T18:52:34Z</time>
      </trkpt>
      <trkpt lat="46.45862" lon="5.60635">
        <ele>517</ele>
        <time>2022-02-24T18:52:35Z</time>
      </trkpt>
      <trkpt lat="46.45865" lon="5.60636">
        <ele>517</ele>
        <time>2022-02-24T18:52:36Z</time>
      </trkpt>
      <trkpt lat="46.45868" lon="5.60637">
        <ele>517</ele>
        <time>2022-02-24T18:52:37Z</time>
      </trkpt>
      <trkpt lat="46.45871" lon="5.60639">
        <ele>517</ele>
        <time>2022-02-24T18:52:38Z</time>
      </trkpt>
      <trkpt lat="46.45875" lon="5.60641">
        <ele>517</ele>
        <time>2022-02-24T18:52:39Z</time>
      </trkpt>
      <trkpt lat="46.45879" lon="5.60643">
        <ele>517</ele>
        <time>2022-02-24T18:52:40Z</time>
      </trkpt>
      <trkpt lat="46.45883" lon="5.60644">
        <ele>517</ele>
        <time>2022-02-24T18:52:41Z</time>
      </trkpt>
      <trkpt lat="46.45888" lon="5.60646">
        <ele>517</ele>
        <time>2022-02-24T18:52:42Z</time>
      </trkpt>
      <trkpt lat="46.45892" lon="5.60649">
        <ele>517</ele>
        <time>2022-02-24T18:52:43Z</time>
      </trkpt>
      <trkpt lat="46.45897" lon="5.60651">
        <ele>516.8</ele>
        <time>2022-02-24T18:52:44Z</time>
      </trkpt>
      <trkpt lat="46.45902" lon="5.60654">
        <ele>516.8</ele>
        <time>2022-02-24T18:52:45Z</time>
      </trkpt>
      <trkpt lat="46.45907" lon="5.60657">
        <ele>516.8</ele>
        <time>2022-02-24T18:52:46Z</time>
      </trkpt>
      <trkpt lat="46.45912" lon="5.6066">
        <ele>516.6</ele>
        <time>2022-02-24T18:52:47Z</time>
      </trkpt>
      <trkpt lat="46.45917" lon="5.60663">
        <ele>516.6</ele>
        <time>2022-02-24T18:52:48Z</time>
      </trkpt>
      <trkpt lat="46.45922" lon="5.60666">
        <ele>516.6</ele>
        <time>2022-02-24T18:52:49Z</time>
      </trkpt>
      <trkpt lat="46.45929" lon="5.60672">
        <ele>516.6</ele>
        <time>2022-02-24T18:52:50Z</time>
      </trkpt>
      <trkpt lat="46.45932" lon="5.60673">
        <ele>516.6</ele>
        <time>2022-02-24T18:52:51Z</time>
      </trkpt>
      <trkpt lat="46.45937" lon="5.60677">
        <ele>516.6</ele>
        <time>2022-02-24T18:52:52Z</time>
      </trkpt>
      <trkpt lat="46.45942" lon="5.60681">
        <ele>516.6</ele>
        <time>2022-02-24T18:52:53Z</time>
      </trkpt>
      <trkpt lat="46.45947" lon="5.60685">
        <ele>516.4</ele>
        <time>2022-02-24T18:52:54Z</time>
      </trkpt>
      <trkpt lat="46.45953" lon="5.60688">
        <ele>516.4</ele>
        <time>2022-02-24T18:52:55Z</time>
      </trkpt>
      <trkpt lat="46.45959" lon="5.60692">
        <ele>516.4</ele>
        <time>2022-02-24T18:52:56Z</time>
      </trkpt>
      <trkpt lat="46.45965" lon="5.60695">
        <ele>516</ele>
        <time>2022-02-24T18:52:57Z</time>
      </trkpt>
      <trkpt lat="46.4597" lon="5.60699">
        <ele>516</ele>
        <time>2022-02-24T18:52:58Z</time>
      </trkpt>
      <trkpt lat="46.45976" lon="5.60703">
        <ele>516</ele>
        <time>2022-02-24T18:52:59Z</time>
      </trkpt>
      <trkpt lat="46.45982" lon="5.60707">
        <ele>516</ele>
        <time>2022-02-24T18:53:00Z</time>
      </trkpt>
      <trkpt lat="46.45987" lon="5.60711">
        <ele>516</ele>
        <time>2022-02-24T18:53:01Z</time>
      </trkpt>
      <trkpt lat="46.45993" lon="5.60714">
        <ele>516</ele>
        <time>2022-02-24T18:53:02Z</time>
      </trkpt>
      <trkpt lat="46.45999" lon="5.60718">
        <ele>516</ele>
        <time>2022-02-24T18:53:03Z</time>
      </trkpt>
      <trkpt lat="46.46005" lon="5.60721">
        <ele>516</ele>
        <time>2022-02-24T18:53:04Z</time>
      </trkpt>
      <trkpt lat="46.4601" lon="5.60724">
        <ele>516</ele>
        <time>2022-02-24T18:53:05Z</time>
      </trkpt>
      <trkpt lat="46.46016" lon="5.60727">
        <ele>516.2</ele>
        <time>2022-02-24T18:53:06Z</time>
      </trkpt>
      <trkpt lat="46.46022" lon="5.60729">
        <ele>516.2</ele>
        <time>2022-02-24T18:53:07Z</time>
      </trkpt>
      <trkpt lat="46.46027" lon="5.60732">
        <ele>516.2</ele>
        <time>2022-02-24T18:53:08Z</time>
      </trkpt>
      <trkpt lat="46.46033" lon="5.60735">
        <ele>516.6</ele>
        <time>2022-02-24T18:53:09Z</time>
      </trkpt>
      <trkpt lat="46.46038" lon="5.60737">
        <ele>516.6</ele>
        <time>2022-02-24T18:53:10Z</time>
      </trkpt>
      <trkpt lat="46.46044" lon="5.60739">
        <ele>516.8</ele>
        <time>2022-02-24T18:53:11Z</time>
      </trkpt>
      <trkpt lat="46.46049" lon="5.60742">
        <ele>516.8</ele>
        <time>2022-02-24T18:53:12Z</time>
      </trkpt>
      <trkpt lat="46.46054" lon="5.60744">
        <ele>517.2</ele>
        <time>2022-02-24T18:53:13Z</time>
      </trkpt>
      <trkpt lat="46.46059" lon="5.60746">
        <ele>517.2</ele>
        <time>2022-02-24T18:53:14Z</time>
      </trkpt>
      <trkpt lat="46.46064" lon="5.60748">
        <ele>517.4</ele>
        <time>2022-02-24T18:53:15Z</time>
      </trkpt>
      <trkpt lat="46.46069" lon="5.60749">
        <ele>517.4</ele>
        <time>2022-02-24T18:53:16Z</time>
      </trkpt>
      <trkpt lat="46.46074" lon="5.60751">
        <ele>517.8</ele>
        <time>2022-02-24T18:53:17Z</time>
      </trkpt>
      <trkpt lat="46.46079" lon="5.60753">
        <ele>517.8</ele>
        <time>2022-02-24T18:53:18Z</time>
      </trkpt>
      <trkpt lat="46.46083" lon="5.60754">
        <ele>518</ele>
        <time>2022-02-24T18:53:19Z</time>
      </trkpt>
      <trkpt lat="46.46088" lon="5.60756">
        <ele>518.4</ele>
        <time>2022-02-24T18:53:20Z</time>
      </trkpt>
      <trkpt lat="46.46092" lon="5.60758">
        <ele>518.4</ele>
        <time>2022-02-24T18:53:21Z</time>
      </trkpt>
      <trkpt lat="46.46096" lon="5.60759">
        <ele>518.6</ele>
        <time>2022-02-24T18:53:22Z</time>
      </trkpt>
      <trkpt lat="46.461" lon="5.60761">
        <ele>518.6</ele>
        <time>2022-02-24T18:53:23Z</time>
      </trkpt>
      <trkpt lat="46.46104" lon="5.60762">
        <ele>519</ele>
        <time>2022-02-24T18:53:24Z</time>
      </trkpt>
      <trkpt lat="46.46109" lon="5.60764">
        <ele>519.4</ele>
        <time>2022-02-24T18:53:25Z</time>
      </trkpt>
      <trkpt lat="46.46113" lon="5.60766">
        <ele>519.6</ele>
        <time>2022-02-24T18:53:26Z</time>
      </trkpt>
      <trkpt lat="46.46117" lon="5.60768">
        <ele>519.6</ele>
        <time>2022-02-24T18:53:27Z</time>
      </trkpt>
      <trkpt lat="46.4612" lon="5.60769">
        <ele>519.6</ele>
        <time>2022-02-24T18:53:28Z</time>
      </trkpt>
      <trkpt lat="46.46124" lon="5.60771">
        <ele>519.8</ele>
        <time>2022-02-24T18:53:29Z</time>
      </trkpt>
      <trkpt lat="46.46128" lon="5.60772">
        <ele>519.8</ele>
        <time>2022-02-24T18:53:30Z</time>
      </trkpt>
      <trkpt lat="46.46132" lon="5.60773">
        <ele>520.2</ele>
        <time>2022-02-24T18:53:31Z</time>
      </trkpt>
      <trkpt lat="46.46135" lon="5.60775">
        <ele>520.2</ele>
        <time>2022-02-24T18:53:32Z</time>
      </trkpt>
      <trkpt lat="46.46139" lon="5.60777">
        <ele>520.6</ele>
        <time>2022-02-24T18:53:33Z</time>
      </trkpt>
      <trkpt lat="46.46143" lon="5.60778">
        <ele>520.6</ele>
        <time>2022-02-24T18:53:34Z</time>
      </trkpt>
      <trkpt lat="46.46147" lon="5.6078">
        <ele>520.8</ele>
        <time>2022-02-24T18:53:35Z</time>
      </trkpt>
      <trkpt lat="46.46151" lon="5.60782">
        <ele>520.8</ele>
        <time>2022-02-24T18:53:36Z</time>
      </trkpt>
      <trkpt lat="46.46155" lon="5.60784">
        <ele>520.8</ele>
        <time>2022-02-24T18:53:37Z</time>
      </trkpt>
      <trkpt lat="46.46159" lon="5.60786">
        <ele>521</ele>
        <time>2022-02-24T18:53:38Z</time>
      </trkpt>
      <trkpt lat="46.46164" lon="5.60787">
        <ele>521</ele>
        <time>2022-02-24T18:53:39Z</time>
      </trkpt>
      <trkpt lat="46.46168" lon="5.60789">
        <ele>521.4</ele>
        <time>2022-02-24T18:53:40Z</time>
      </trkpt>
      <trkpt lat="46.46173" lon="5.60791">
        <ele>521.4</ele>
        <time>2022-02-24T18:53:41Z</time>
      </trkpt>
      <trkpt lat="46.46178" lon="5.60793">
        <ele>521.4</ele>
        <time>2022-02-24T18:53:42Z</time>
      </trkpt>
      <trkpt lat="46.46183" lon="5.60794">
        <ele>521.4</ele>
        <time>2022-02-24T18:53:43Z</time>
      </trkpt>
      <trkpt lat="46.46188" lon="5.60796">
        <ele>521</ele>
        <time>2022-02-24T18:53:44Z</time>
      </trkpt>
      <trkpt lat="46.46193" lon="5.60798">
        <ele>520.8</ele>
        <time>2022-02-24T18:53:45Z</time>
      </trkpt>
      <trkpt lat="46.46199" lon="5.608">
        <ele>520.8</ele>
        <time>2022-02-24T18:53:46Z</time>
      </trkpt>
      <trkpt lat="46.46205" lon="5.60801">
        <ele>520.4</ele>
        <time>2022-02-24T18:53:47Z</time>
      </trkpt>
      <trkpt lat="46.46211" lon="5.60803">
        <ele>520.2</ele>
        <time>2022-02-24T18:53:48Z</time>
      </trkpt>
      <trkpt lat="46.46217" lon="5.60805">
        <ele>520</ele>
        <time>2022-02-24T18:53:49Z</time>
      </trkpt>
      <trkpt lat="46.46223" lon="5.60808">
        <ele>519.8</ele>
        <time>2022-02-24T18:53:50Z</time>
      </trkpt>
      <trkpt lat="46.4623" lon="5.6081">
        <ele>519.6</ele>
        <time>2022-02-24T18:53:51Z</time>
      </trkpt>
      <trkpt lat="46.46237" lon="5.60813">
        <ele>519.6</ele>
        <time>2022-02-24T18:53:52Z</time>
      </trkpt>
      <trkpt lat="46.46244" lon="5.60816">
        <ele>519</ele>
        <time>2022-02-24T18:53:53Z</time>
      </trkpt>
      <trkpt lat="46.46251" lon="5.6082">
        <ele>519</ele>
        <time>2022-02-24T18:53:54Z</time>
      </trkpt>
      <trkpt lat="46.46258" lon="5.60823">
        <ele>518.8</ele>
        <time>2022-02-24T18:53:55Z</time>
      </trkpt>
      <trkpt lat="46.46264" lon="5.60827">
        <ele>518.8</ele>
        <time>2022-02-24T18:53:56Z</time>
      </trkpt>
      <trkpt lat="46.46271" lon="5.6083">
        <ele>518.8</ele>
        <time>2022-02-24T18:53:57Z</time>
      </trkpt>
      <trkpt lat="46.46278" lon="5.60834">
        <ele>518.6</ele>
        <time>2022-02-24T18:53:58Z</time>
      </trkpt>
      <trkpt lat="46.46285" lon="5.60838">
        <ele>518.6</ele>
        <time>2022-02-24T18:53:59Z</time>
      </trkpt>
      <trkpt lat="46.46292" lon="5.60842">
        <ele>518.6</ele>
        <time>2022-02-24T18:54:00Z</time>
      </trkpt>
      <trkpt lat="46.46298" lon="5.60846">
        <ele>518.6</ele>
        <time>2022-02-24T18:54:01Z</time>
      </trkpt>
      <trkpt lat="46.46305" lon="5.6085">
        <ele>518.2</ele>
        <time>2022-02-24T18:54:02Z</time>
      </trkpt>
      <trkpt lat="46.46312" lon="5.60854">
        <ele>518.2</ele>
        <time>2022-02-24T18:54:03Z</time>
      </trkpt>
      <trkpt lat="46.46318" lon="5.60858">
        <ele>518.2</ele>
        <time>2022-02-24T18:54:04Z</time>
      </trkpt>
      <trkpt lat="46.46325" lon="5.60862">
        <ele>518.2</ele>
        <time>2022-02-24T18:54:05Z</time>
      </trkpt>
      <trkpt lat="46.46331" lon="5.60866">
        <ele>518.2</ele>
        <time>2022-02-24T18:54:06Z</time>
      </trkpt>
      <trkpt lat="46.46338" lon="5.60869">
        <ele>518.2</ele>
        <time>2022-02-24T18:54:07Z</time>
      </trkpt>
      <trkpt lat="46.46344" lon="5.60873">
        <ele>518.2</ele>
        <time>2022-02-24T18:54:08Z</time>
      </trkpt>
      <trkpt lat="46.46351" lon="5.60877">
        <ele>518.2</ele>
        <time>2022-02-24T18:54:09Z</time>
      </trkpt>
      <trkpt lat="46.46357" lon="5.60881">
        <ele>518.2</ele>
        <time>2022-02-24T18:54:10Z</time>
      </trkpt>
      <trkpt lat="46.46363" lon="5.60884">
        <ele>518.4</ele>
        <time>2022-02-24T18:54:11Z</time>
      </trkpt>
      <trkpt lat="46.46368" lon="5.60887">
        <ele>518.4</ele>
        <time>2022-02-24T18:54:12Z</time>
      </trkpt>
      <trkpt lat="46.46374" lon="5.6089">
        <ele>518.6</ele>
        <time>2022-02-24T18:54:13Z</time>
      </trkpt>
      <trkpt lat="46.4638" lon="5.60893">
        <ele>518.6</ele>
        <time>2022-02-24T18:54:14Z</time>
      </trkpt>
      <trkpt lat="46.46385" lon="5.60897">
        <ele>518.6</ele>
        <time>2022-02-24T18:54:15Z</time>
      </trkpt>
      <trkpt lat="46.46391" lon="5.609">
        <ele>518.8</ele>
        <time>2022-02-24T18:54:16Z</time>
      </trkpt>
      <trkpt lat="46.46397" lon="5.60903">
        <ele>518.8</ele>
        <time>2022-02-24T18:54:17Z</time>
      </trkpt>
      <trkpt lat="46.46403" lon="5.60906">
        <ele>518.8</ele>
        <time>2022-02-24T18:54:18Z</time>
      </trkpt>
      <trkpt lat="46.46408" lon="5.60909">
        <ele>518.8</ele>
        <time>2022-02-24T18:54:19Z</time>
      </trkpt>
      <trkpt lat="46.46414" lon="5.60912">
        <ele>518.8</ele>
        <time>2022-02-24T18:54:20Z</time>
      </trkpt>
      <trkpt lat="46.4642" lon="5.60915">
        <ele>518.8</ele>
        <time>2022-02-24T18:54:21Z</time>
      </trkpt>
      <trkpt lat="46.46426" lon="5.60919">
        <ele>518.8</ele>
        <time>2022-02-24T18:54:22Z</time>
      </trkpt>
      <trkpt lat="46.46432" lon="5.60922">
        <ele>518.8</ele>
        <time>2022-02-24T18:54:23Z</time>
      </trkpt>
      <trkpt lat="46.46437" lon="5.60925">
        <ele>518.8</ele>
        <time>2022-02-24T18:54:24Z</time>
      </trkpt>
      <trkpt lat="46.46443" lon="5.60928">
        <ele>518.8</ele>
        <time>2022-02-24T18:54:25Z</time>
      </trkpt>
      <trkpt lat="46.46449" lon="5.60931">
        <ele>519</ele>
        <time>2022-02-24T18:54:26Z</time>
      </trkpt>
      <trkpt lat="46.46455" lon="5.60934">
        <ele>519</ele>
        <time>2022-02-24T18:54:27Z</time>
      </trkpt>
      <trkpt lat="46.46461" lon="5.60937">
        <ele>519</ele>
        <time>2022-02-24T18:54:28Z</time>
      </trkpt>
      <trkpt lat="46.46467" lon="5.6094">
        <ele>519</ele>
        <time>2022-02-24T18:54:29Z</time>
      </trkpt>
      <trkpt lat="46.46473" lon="5.60943">
        <ele>519</ele>
        <time>2022-02-24T18:54:30Z</time>
      </trkpt>
      <trkpt lat="46.46478" lon="5.60947">
        <ele>519</ele>
        <time>2022-02-24T18:54:31Z</time>
      </trkpt>
      <trkpt lat="46.46484" lon="5.6095">
        <ele>519</ele>
        <time>2022-02-24T18:54:32Z</time>
      </trkpt>
      <trkpt lat="46.4649" lon="5.60954">
        <ele>519</ele>
        <time>2022-02-24T18:54:33Z</time>
      </trkpt>
      <trkpt lat="46.46495" lon="5.60958">
        <ele>519</ele>
        <time>2022-02-24T18:54:34Z</time>
      </trkpt>
      <trkpt lat="46.46501" lon="5.60962">
        <ele>519</ele>
        <time>2022-02-24T18:54:35Z</time>
      </trkpt>
      <trkpt lat="46.46506" lon="5.60966">
        <ele>519</ele>
        <time>2022-02-24T18:54:36Z</time>
      </trkpt>
      <trkpt lat="46.46511" lon="5.6097">
        <ele>519</ele>
        <time>2022-02-24T18:54:37Z</time>
      </trkpt>
      <trkpt lat="46.46517" lon="5.60974">
        <ele>519</ele>
        <time>2022-02-24T18:54:38Z</time>
      </trkpt>
      <trkpt lat="46.46522" lon="5.60978">
        <ele>519</ele>
        <time>2022-02-24T18:54:39Z</time>
      </trkpt>
      <trkpt lat="46.46528" lon="5.60982">
        <ele>519</ele>
        <time>2022-02-24T18:54:40Z</time>
      </trkpt>
      <trkpt lat="46.46533" lon="5.60986">
        <ele>519</ele>
        <time>2022-02-24T18:54:41Z</time>
      </trkpt>
      <trkpt lat="46.46539" lon="5.6099">
        <ele>519</ele>
        <time>2022-02-24T18:54:42Z</time>
      </trkpt>
      <trkpt lat="46.46544" lon="5.60994">
        <ele>519</ele>
        <time>2022-02-24T18:54:43Z</time>
      </trkpt>
      <trkpt lat="46.46549" lon="5.60998">
        <ele>519</ele>
        <time>2022-02-24T18:54:44Z</time>
      </trkpt>
      <trkpt lat="46.46554" lon="5.61002">
        <ele>519</ele>
        <time>2022-02-24T18:54:45Z</time>
      </trkpt>
      <trkpt lat="46.4656" lon="5.61006">
        <ele>519</ele>
        <time>2022-02-24T18:54:46Z</time>
      </trkpt>
      <trkpt lat="46.46565" lon="5.61011">
        <ele>519</ele>
        <time>2022-02-24T18:54:47Z</time>
      </trkpt>
      <trkpt lat="46.4657" lon="5.61015">
        <ele>519</ele>
        <time>2022-02-24T18:54:48Z</time>
      </trkpt>
      <trkpt lat="46.46575" lon="5.61019">
        <ele>519</ele>
        <time>2022-02-24T18:54:49Z</time>
      </trkpt>
      <trkpt lat="46.46579" lon="5.61023">
        <ele>519</ele>
        <time>2022-02-24T18:54:50Z</time>
      </trkpt>
      <trkpt lat="46.46585" lon="5.61027">
        <ele>519</ele>
        <time>2022-02-24T18:54:51Z</time>
      </trkpt>
      <trkpt lat="46.4659" lon="5.61031">
        <ele>519</ele>
        <time>2022-02-24T18:54:52Z</time>
      </trkpt>
      <trkpt lat="46.46594" lon="5.61035">
        <ele>519</ele>
        <time>2022-02-24T18:54:53Z</time>
      </trkpt>
      <trkpt lat="46.46599" lon="5.61039">
        <ele>519</ele>
        <time>2022-02-24T18:54:54Z</time>
      </trkpt>
      <trkpt lat="46.46603" lon="5.61044">
        <ele>519</ele>
        <time>2022-02-24T18:54:55Z</time>
      </trkpt>
      <trkpt lat="46.46608" lon="5.61048">
        <ele>519</ele>
        <time>2022-02-24T18:54:56Z</time>
      </trkpt>
      <trkpt lat="46.46612" lon="5.61053">
        <ele>519</ele>
        <time>2022-02-24T18:54:57Z</time>
      </trkpt>
      <trkpt lat="46.46616" lon="5.61057">
        <ele>519</ele>
        <time>2022-02-24T18:54:58Z</time>
      </trkpt>
      <trkpt lat="46.46621" lon="5.61061">
        <ele>519</ele>
        <time>2022-02-24T18:54:59Z</time>
      </trkpt>
      <trkpt lat="46.46625" lon="5.61064">
        <ele>519</ele>
        <time>2022-02-24T18:55:00Z</time>
      </trkpt>
      <trkpt lat="46.46629" lon="5.61068">
        <ele>519</ele>
        <time>2022-02-24T18:55:01Z</time>
      </trkpt>
      <trkpt lat="46.46634" lon="5.61073">
        <ele>519</ele>
        <time>2022-02-24T18:55:02Z</time>
      </trkpt>
      <trkpt lat="46.46638" lon="5.61077">
        <ele>519</ele>
        <time>2022-02-24T18:55:03Z</time>
      </trkpt>
      <trkpt lat="46.46642" lon="5.61081">
        <ele>519</ele>
        <time>2022-02-24T18:55:04Z</time>
      </trkpt>
      <trkpt lat="46.46646" lon="5.61085">
        <ele>519</ele>
        <time>2022-02-24T18:55:05Z</time>
      </trkpt>
      <trkpt lat="46.4665" lon="5.61089">
        <ele>519</ele>
        <time>2022-02-24T18:55:06Z</time>
      </trkpt>
      <trkpt lat="46.46654" lon="5.61093">
        <ele>519</ele>
        <time>2022-02-24T18:55:07Z</time>
      </trkpt>
      <trkpt lat="46.46659" lon="5.61097">
        <ele>518.8</ele>
        <time>2022-02-24T18:55:08Z</time>
      </trkpt>
      <trkpt lat="46.46664" lon="5.61101">
        <ele>518.8</ele>
        <time>2022-02-24T18:55:09Z</time>
      </trkpt>
      <trkpt lat="46.46668" lon="5.61105">
        <ele>518.8</ele>
        <time>2022-02-24T18:55:10Z</time>
      </trkpt>
      <trkpt lat="46.46673" lon="5.61108">
        <ele>518.6</ele>
        <time>2022-02-24T18:55:11Z</time>
      </trkpt>
      <trkpt lat="46.46679" lon="5.6111">
        <ele>518.6</ele>
        <time>2022-02-24T18:55:12Z</time>
      </trkpt>
      <trkpt lat="46.46684" lon="5.61112">
        <ele>518.4</ele>
        <time>2022-02-24T18:55:13Z</time>
      </trkpt>
      <trkpt lat="46.4669" lon="5.61114">
        <ele>518.4</ele>
        <time>2022-02-24T18:55:14Z</time>
      </trkpt>
      <trkpt lat="46.46697" lon="5.61116">
        <ele>518.2</ele>
        <time>2022-02-24T18:55:15Z</time>
      </trkpt>
      <trkpt lat="46.46703" lon="5.61118">
        <ele>518.2</ele>
        <time>2022-02-24T18:55:16Z</time>
      </trkpt>
      <trkpt lat="46.46709" lon="5.6112">
        <ele>517.8</ele>
        <time>2022-02-24T18:55:17Z</time>
      </trkpt>
      <trkpt lat="46.46715" lon="5.61122">
        <ele>517.8</ele>
        <time>2022-02-24T18:55:18Z</time>
      </trkpt>
      <trkpt lat="46.46721" lon="5.61123">
        <ele>517.4</ele>
        <time>2022-02-24T18:55:19Z</time>
      </trkpt>
      <trkpt lat="46.46728" lon="5.61125">
        <ele>517.2</ele>
        <time>2022-02-24T18:55:20Z</time>
      </trkpt>
      <trkpt lat="46.46734" lon="5.61127">
        <ele>517.2</ele>
        <time>2022-02-24T18:55:21Z</time>
      </trkpt>
      <trkpt lat="46.4674" lon="5.61129">
        <ele>517</ele>
        <time>2022-02-24T18:55:22Z</time>
      </trkpt>
      <trkpt lat="46.46746" lon="5.6113">
        <ele>517</ele>
        <time>2022-02-24T18:55:23Z</time>
      </trkpt>
      <trkpt lat="46.46753" lon="5.61132">
        <ele>516.6</ele>
        <time>2022-02-24T18:55:24Z</time>
      </trkpt>
      <trkpt lat="46.46759" lon="5.61133">
        <ele>516.6</ele>
        <time>2022-02-24T18:55:25Z</time>
      </trkpt>
      <trkpt lat="46.46765" lon="5.61134">
        <ele>516.2</ele>
        <time>2022-02-24T18:55:26Z</time>
      </trkpt>
      <trkpt lat="46.46771" lon="5.61136">
        <ele>516.2</ele>
        <time>2022-02-24T18:55:27Z</time>
      </trkpt>
      <trkpt lat="46.46777" lon="5.61137">
        <ele>516.2</ele>
        <time>2022-02-24T18:55:28Z</time>
      </trkpt>
      <trkpt lat="46.46783" lon="5.61139">
        <ele>515.8</ele>
        <time>2022-02-24T18:55:29Z</time>
      </trkpt>
      <trkpt lat="46.46789" lon="5.61141">
        <ele>515.8</ele>
        <time>2022-02-24T18:55:30Z</time>
      </trkpt>
      <trkpt lat="46.46795" lon="5.61142">
        <ele>515.8</ele>
        <time>2022-02-24T18:55:31Z</time>
      </trkpt>
      <trkpt lat="46.46801" lon="5.61144">
        <ele>515.8</ele>
        <time>2022-02-24T18:55:32Z</time>
      </trkpt>
      <trkpt lat="46.46807" lon="5.61146">
        <ele>515.6</ele>
        <time>2022-02-24T18:55:33Z</time>
      </trkpt>
      <trkpt lat="46.46813" lon="5.61148">
        <ele>515.6</ele>
        <time>2022-02-24T18:55:34Z</time>
      </trkpt>
      <trkpt lat="46.46819" lon="5.61151">
        <ele>515.6</ele>
        <time>2022-02-24T18:55:35Z</time>
      </trkpt>
      <trkpt lat="46.46825" lon="5.61153">
        <ele>515.6</ele>
        <time>2022-02-24T18:55:36Z</time>
      </trkpt>
      <trkpt lat="46.4683" lon="5.61155">
        <ele>515.6</ele>
        <time>2022-02-24T18:55:37Z</time>
      </trkpt>
      <trkpt lat="46.46836" lon="5.61158">
        <ele>515.6</ele>
        <time>2022-02-24T18:55:38Z</time>
      </trkpt>
      <trkpt lat="46.46841" lon="5.61161">
        <ele>515.6</ele>
        <time>2022-02-24T18:55:39Z</time>
      </trkpt>
      <trkpt lat="46.46847" lon="5.61163">
        <ele>515.6</ele>
        <time>2022-02-24T18:55:40Z</time>
      </trkpt>
      <trkpt lat="46.46852" lon="5.61166">
        <ele>515.6</ele>
        <time>2022-02-24T18:55:41Z</time>
      </trkpt>
      <trkpt lat="46.46858" lon="5.61168">
        <ele>515.6</ele>
        <time>2022-02-24T18:55:42Z</time>
      </trkpt>
      <trkpt lat="46.46864" lon="5.61171">
        <ele>515.6</ele>
        <time>2022-02-24T18:55:43Z</time>
      </trkpt>
      <trkpt lat="46.46869" lon="5.61173">
        <ele>515.6</ele>
        <time>2022-02-24T18:55:44Z</time>
      </trkpt>
      <trkpt lat="46.46875" lon="5.61176">
        <ele>515.6</ele>
        <time>2022-02-24T18:55:45Z</time>
      </trkpt>
      <trkpt lat="46.4688" lon="5.61179">
        <ele>515.6</ele>
        <time>2022-02-24T18:55:46Z</time>
      </trkpt>
      <trkpt lat="46.46886" lon="5.61181">
        <ele>515.6</ele>
        <time>2022-02-24T18:55:47Z</time>
      </trkpt>
      <trkpt lat="46.46891" lon="5.61183">
        <ele>515.8</ele>
        <time>2022-02-24T18:55:48Z</time>
      </trkpt>
      <trkpt lat="46.46896" lon="5.61185">
        <ele>515.8</ele>
        <time>2022-02-24T18:55:49Z</time>
      </trkpt>
      <trkpt lat="46.469" lon="5.61188">
        <ele>515.8</ele>
        <time>2022-02-24T18:55:50Z</time>
      </trkpt>
      <trkpt lat="46.46905" lon="5.6119">
        <ele>515.8</ele>
        <time>2022-02-24T18:55:51Z</time>
      </trkpt>
      <trkpt lat="46.4691" lon="5.61191">
        <ele>515.8</ele>
        <time>2022-02-24T18:55:52Z</time>
      </trkpt>
      <trkpt lat="46.46913" lon="5.61193">
        <ele>516.2</ele>
        <time>2022-02-24T18:55:53Z</time>
      </trkpt>
      <trkpt lat="46.46916" lon="5.61196">
        <ele>516.2</ele>
        <time>2022-02-24T18:55:54Z</time>
      </trkpt>
      <trkpt lat="46.46919" lon="5.61198">
        <ele>516.2</ele>
        <time>2022-02-24T18:55:55Z</time>
      </trkpt>
      <trkpt lat="46.46921" lon="5.612">
        <ele>516.2</ele>
        <time>2022-02-24T18:55:56Z</time>
      </trkpt>
      <trkpt lat="46.46923" lon="5.61202">
        <ele>516.2</ele>
        <time>2022-02-24T18:55:57Z</time>
      </trkpt>
      <trkpt lat="46.46923" lon="5.61202">
        <ele>516.2</ele>
        <time>2022-02-24T18:55:58Z</time>
      </trkpt>
      <trkpt lat="46.46924" lon="5.61203">
        <ele>516.2</ele>
        <time>2022-02-24T18:55:59Z</time>
      </trkpt>
      <trkpt lat="46.46925" lon="5.61203">
        <ele>516.2</ele>
        <time>2022-02-24T18:56:00Z</time>
      </trkpt>
      <trkpt lat="46.46927" lon="5.61204">
        <ele>516.2</ele>
        <time>2022-02-24T18:58:37Z</time>
      </trkpt>
      <trkpt lat="46.46929" lon="5.61204">
        <ele>516.2</ele>
        <time>2022-02-24T18:58:38Z</time>
      </trkpt>
      <trkpt lat="46.4693" lon="5.61204">
        <ele>516.2</ele>
        <time>2022-02-24T18:58:39Z</time>
      </trkpt>
      <trkpt lat="46.46932" lon="5.61204">
        <ele>516.4</ele>
        <time>2022-02-24T18:58:40Z</time>
      </trkpt>
      <trkpt lat="46.46933" lon="5.61204">
        <ele>516.4</ele>
        <time>2022-02-24T18:58:41Z</time>
      </trkpt>
      <trkpt lat="46.46935" lon="5.61205">
        <ele>516.4</ele>
        <time>2022-02-24T18:58:42Z</time>
      </trkpt>
      <trkpt lat="46.46937" lon="5.61206">
        <ele>516.4</ele>
        <time>2022-02-24T18:58:43Z</time>
      </trkpt>
      <trkpt lat="46.46939" lon="5.61207">
        <ele>516.4</ele>
        <time>2022-02-24T18:58:44Z</time>
      </trkpt>
      <trkpt lat="46.46941" lon="5.61208">
        <ele>516.4</ele>
        <time>2022-02-24T18:58:45Z</time>
      </trkpt>
      <trkpt lat="46.46943" lon="5.61209">
        <ele>516.4</ele>
        <time>2022-02-24T18:58:46Z</time>
      </trkpt>
      <trkpt lat="46.46945" lon="5.61209">
        <ele>516.6</ele>
        <time>2022-02-24T18:58:47Z</time>
      </trkpt>
      <trkpt lat="46.46947" lon="5.61209">
        <ele>516.6</ele>
        <time>2022-02-24T18:58:48Z</time>
      </trkpt>
      <trkpt lat="46.4695" lon="5.6121">
        <ele>516.6</ele>
        <time>2022-02-24T18:58:49Z</time>
      </trkpt>
      <trkpt lat="46.46952" lon="5.6121">
        <ele>516.6</ele>
        <time>2022-02-24T18:58:50Z</time>
      </trkpt>
      <trkpt lat="46.46955" lon="5.61211">
        <ele>516.6</ele>
        <time>2022-02-24T18:58:51Z</time>
      </trkpt>
      <trkpt lat="46.46958" lon="5.61212">
        <ele>516.6</ele>
        <time>2022-02-24T18:58:52Z</time>
      </trkpt>
      <trkpt lat="46.46961" lon="5.61214">
        <ele>516.8</ele>
        <time>2022-02-24T18:58:53Z</time>
      </trkpt>
      <trkpt lat="46.46964" lon="5.61216">
        <ele>516.8</ele>
        <time>2022-02-24T18:58:54Z</time>
      </trkpt>
      <trkpt lat="46.46968" lon="5.61217">
        <ele>516.8</ele>
        <time>2022-02-24T18:58:55Z</time>
      </trkpt>
      <trkpt lat="46.46972" lon="5.61218">
        <ele>517</ele>
        <time>2022-02-24T18:58:56Z</time>
      </trkpt>
      <trkpt lat="46.46976" lon="5.61219">
        <ele>517</ele>
        <time>2022-02-24T18:58:57Z</time>
      </trkpt>
      <trkpt lat="46.4698" lon="5.6122">
        <ele>517</ele>
        <time>2022-02-24T18:58:58Z</time>
      </trkpt>
      <trkpt lat="46.46984" lon="5.61221">
        <ele>517</ele>
        <time>2022-02-24T18:58:59Z</time>
      </trkpt>
      <trkpt lat="46.46988" lon="5.61223">
        <ele>517.2</ele>
        <time>2022-02-24T18:59:00Z</time>
      </trkpt>
      <trkpt lat="46.46992" lon="5.61224">
        <ele>517.2</ele>
        <time>2022-02-24T18:59:01Z</time>
      </trkpt>
      <trkpt lat="46.46996" lon="5.61225">
        <ele>517.2</ele>
        <time>2022-02-24T18:59:02Z</time>
      </trkpt>
      <trkpt lat="46.47" lon="5.61226">
        <ele>517.6</ele>
        <time>2022-02-24T18:59:03Z</time>
      </trkpt>
      <trkpt lat="46.47004" lon="5.61227">
        <ele>517.6</ele>
        <time>2022-02-24T18:59:04Z</time>
      </trkpt>
      <trkpt lat="46.47008" lon="5.61229">
        <ele>517.6</ele>
        <time>2022-02-24T18:59:05Z</time>
      </trkpt>
      <trkpt lat="46.47012" lon="5.6123">
        <ele>517.6</ele>
        <time>2022-02-24T18:59:06Z</time>
      </trkpt>
      <trkpt lat="46.47016" lon="5.61232">
        <ele>517.8</ele>
        <time>2022-02-24T18:59:07Z</time>
      </trkpt>
      <trkpt lat="46.4702" lon="5.61233">
        <ele>517.8</ele>
        <time>2022-02-24T18:59:08Z</time>
      </trkpt>
      <trkpt lat="46.47023" lon="5.61234">
        <ele>517.8</ele>
        <time>2022-02-24T18:59:09Z</time>
      </trkpt>
      <trkpt lat="46.47027" lon="5.61234">
        <ele>517.8</ele>
        <time>2022-02-24T18:59:10Z</time>
      </trkpt>
      <trkpt lat="46.47031" lon="5.61235">
        <ele>517.8</ele>
        <time>2022-02-24T18:59:11Z</time>
      </trkpt>
      <trkpt lat="46.47035" lon="5.61236">
        <ele>518</ele>
        <time>2022-02-24T18:59:12Z</time>
      </trkpt>
      <trkpt lat="46.47039" lon="5.61236">
        <ele>518</ele>
        <time>2022-02-24T18:59:13Z</time>
      </trkpt>
      <trkpt lat="46.47042" lon="5.61237">
        <ele>518.4</ele>
        <time>2022-02-24T18:59:14Z</time>
      </trkpt>
      <trkpt lat="46.47046" lon="5.61238">
        <ele>518.4</ele>
        <time>2022-02-24T18:59:15Z</time>
      </trkpt>
      <trkpt lat="46.4705" lon="5.61238">
        <ele>518.6</ele>
        <time>2022-02-24T18:59:16Z</time>
      </trkpt>
      <trkpt lat="46.47053" lon="5.61238">
        <ele>518.6</ele>
        <time>2022-02-24T18:59:17Z</time>
      </trkpt>
      <trkpt lat="46.47056" lon="5.61239">
        <ele>518.6</ele>
        <time>2022-02-24T18:59:18Z</time>
      </trkpt>
      <trkpt lat="46.4706" lon="5.61239">
        <ele>518.6</ele>
        <time>2022-02-24T18:59:19Z</time>
      </trkpt>
      <trkpt lat="46.47063" lon="5.61239">
        <ele>519</ele>
        <time>2022-02-24T18:59:20Z</time>
      </trkpt>
      <trkpt lat="46.47067" lon="5.6124">
        <ele>519</ele>
        <time>2022-02-24T18:59:21Z</time>
      </trkpt>
      <trkpt lat="46.4707" lon="5.6124">
        <ele>519</ele>
        <time>2022-02-24T18:59:22Z</time>
      </trkpt>
      <trkpt lat="46.47074" lon="5.61241">
        <ele>519</ele>
        <time>2022-02-24T18:59:23Z</time>
      </trkpt>
      <trkpt lat="46.47077" lon="5.61241">
        <ele>519</ele>
        <time>2022-02-24T18:59:24Z</time>
      </trkpt>
      <trkpt lat="46.47081" lon="5.61242">
        <ele>519</ele>
        <time>2022-02-24T18:59:25Z</time>
      </trkpt>
      <trkpt lat="46.47085" lon="5.61242">
        <ele>519.2</ele>
        <time>2022-02-24T18:59:26Z</time>
      </trkpt>
      <trkpt lat="46.47089" lon="5.61243">
        <ele>519.2</ele>
        <time>2022-02-24T18:59:27Z</time>
      </trkpt>
      <trkpt lat="46.47093" lon="5.61244">
        <ele>519.2</ele>
        <time>2022-02-24T18:59:28Z</time>
      </trkpt>
      <trkpt lat="46.47098" lon="5.61244">
        <ele>519.2</ele>
        <time>2022-02-24T18:59:29Z</time>
      </trkpt>
      <trkpt lat="46.47102" lon="5.61245">
        <ele>519.2</ele>
        <time>2022-02-24T18:59:30Z</time>
      </trkpt>
      <trkpt lat="46.47106" lon="5.61246">
        <ele>519.2</ele>
        <time>2022-02-24T18:59:31Z</time>
      </trkpt>
      <trkpt lat="46.47111" lon="5.61247">
        <ele>519.2</ele>
        <time>2022-02-24T18:59:32Z</time>
      </trkpt>
      <trkpt lat="46.47115" lon="5.61249">
        <ele>519.2</ele>
        <time>2022-02-24T18:59:33Z</time>
      </trkpt>
      <trkpt lat="46.4712" lon="5.6125">
        <ele>519.2</ele>
        <time>2022-02-24T18:59:34Z</time>
      </trkpt>
      <trkpt lat="46.47125" lon="5.6125">
        <ele>519.2</ele>
        <time>2022-02-24T18:59:35Z</time>
      </trkpt>
      <trkpt lat="46.4713" lon="5.61251">
        <ele>519.2</ele>
        <time>2022-02-24T18:59:36Z</time>
      </trkpt>
      <trkpt lat="46.47134" lon="5.61252">
        <ele>519.2</ele>
        <time>2022-02-24T18:59:37Z</time>
      </trkpt>
      <trkpt lat="46.47139" lon="5.61253">
        <ele>519.2</ele>
        <time>2022-02-24T18:59:38Z</time>
      </trkpt>
      <trkpt lat="46.47144" lon="5.61254">
        <ele>519.2</ele>
        <time>2022-02-24T18:59:39Z</time>
      </trkpt>
      <trkpt lat="46.47149" lon="5.61254">
        <ele>519.4</ele>
        <time>2022-02-24T18:59:40Z</time>
      </trkpt>
      <trkpt lat="46.47154" lon="5.61253">
        <ele>519.4</ele>
        <time>2022-02-24T18:59:41Z</time>
      </trkpt>
      <trkpt lat="46.47158" lon="5.61252">
        <ele>519.4</ele>
        <time>2022-02-24T18:59:42Z</time>
      </trkpt>
      <trkpt lat="46.47163" lon="5.61251">
        <ele>519.4</ele>
        <time>2022-02-24T18:59:43Z</time>
      </trkpt>
      <trkpt lat="46.47167" lon="5.61249">
        <ele>519.4</ele>
        <time>2022-02-24T18:59:44Z</time>
      </trkpt>
      <trkpt lat="46.47172" lon="5.61248">
        <ele>519.4</ele>
        <time>2022-02-24T18:59:45Z</time>
      </trkpt>
      <trkpt lat="46.47176" lon="5.61247">
        <ele>519.4</ele>
        <time>2022-02-24T18:59:46Z</time>
      </trkpt>
      <trkpt lat="46.47181" lon="5.61246">
        <ele>519.4</ele>
        <time>2022-02-24T18:59:47Z</time>
      </trkpt>
      <trkpt lat="46.47185" lon="5.61245">
        <ele>519.4</ele>
        <time>2022-02-24T18:59:48Z</time>
      </trkpt>
      <trkpt lat="46.47189" lon="5.61244">
        <ele>519.4</ele>
        <time>2022-02-24T18:59:49Z</time>
      </trkpt>
      <trkpt lat="46.47193" lon="5.61244">
        <ele>519.4</ele>
        <time>2022-02-24T18:59:50Z</time>
      </trkpt>
      <trkpt lat="46.47197" lon="5.61243">
        <ele>519.4</ele>
        <time>2022-02-24T18:59:51Z</time>
      </trkpt>
      <trkpt lat="46.47199" lon="5.61243">
        <ele>519.4</ele>
        <time>2022-02-24T18:59:52Z</time>
      </trkpt>
      <trkpt lat="46.47201" lon="5.61243">
        <ele>519.4</ele>
        <time>2022-02-24T18:59:53Z</time>
      </trkpt>
      <trkpt lat="46.47202" lon="5.61243">
        <ele>519.4</ele>
        <time>2022-02-24T18:59:54Z</time>
      </trkpt>
      <trkpt lat="46.47202" lon="5.61243">
        <ele>519.4</ele>
        <time>2022-02-24T18:59:55Z</time>
      </trkpt>
      <trkpt lat="46.47207" lon="5.61243">
        <ele>519.6</ele>
        <time>2022-02-24T19:02:00Z</time>
      </trkpt>
      <trkpt lat="46.47209" lon="5.61242">
        <ele>519.6</ele>
        <time>2022-02-24T19:02:01Z</time>
      </trkpt>
      <trkpt lat="46.47211" lon="5.61242">
        <ele>519.6</ele>
        <time>2022-02-24T19:02:02Z</time>
      </trkpt>
      <trkpt lat="46.47213" lon="5.61242">
        <ele>519.6</ele>
        <time>2022-02-24T19:02:03Z</time>
      </trkpt>
      <trkpt lat="46.47215" lon="5.61242">
        <ele>519.6</ele>
        <time>2022-02-24T19:02:04Z</time>
      </trkpt>
      <trkpt lat="46.47218" lon="5.61243">
        <ele>519.6</ele>
        <time>2022-02-24T19:02:05Z</time>
      </trkpt>
      <trkpt lat="46.47221" lon="5.61243">
        <ele>519.8</ele>
        <time>2022-02-24T19:02:06Z</time>
      </trkpt>
      <trkpt lat="46.47224" lon="5.61244">
        <ele>519.8</ele>
        <time>2022-02-24T19:02:07Z</time>
      </trkpt>
      <trkpt lat="46.47227" lon="5.61245">
        <ele>519.8</ele>
        <time>2022-02-24T19:02:08Z</time>
      </trkpt>
      <trkpt lat="46.4723" lon="5.61247">
        <ele>519.8</ele>
        <time>2022-02-24T19:02:09Z</time>
      </trkpt>
      <trkpt lat="46.47234" lon="5.61247">
        <ele>519.8</ele>
        <time>2022-02-24T19:02:10Z</time>
      </trkpt>
      <trkpt lat="46.47237" lon="5.61248">
        <ele>520</ele>
        <time>2022-02-24T19:02:11Z</time>
      </trkpt>
      <trkpt lat="46.47241" lon="5.61249">
        <ele>520</ele>
        <time>2022-02-24T19:02:12Z</time>
      </trkpt>
      <trkpt lat="46.47244" lon="5.6125">
        <ele>520</ele>
        <time>2022-02-24T19:02:13Z</time>
      </trkpt>
      <trkpt lat="46.47248" lon="5.61251">
        <ele>520</ele>
        <time>2022-02-24T19:02:14Z</time>
      </trkpt>
      <trkpt lat="46.47251" lon="5.61252">
        <ele>520</ele>
        <time>2022-02-24T19:02:15Z</time>
      </trkpt>
      <trkpt lat="46.47255" lon="5.61253">
        <ele>520</ele>
        <time>2022-02-24T19:02:16Z</time>
      </trkpt>
      <trkpt lat="46.47259" lon="5.61254">
        <ele>520</ele>
        <time>2022-02-24T19:02:17Z</time>
      </trkpt>
      <trkpt lat="46.47263" lon="5.61255">
        <ele>520</ele>
        <time>2022-02-24T19:02:18Z</time>
      </trkpt>
      <trkpt lat="46.47267" lon="5.61256">
        <ele>520</ele>
        <time>2022-02-24T19:02:19Z</time>
      </trkpt>
      <trkpt lat="46.47272" lon="5.61257">
        <ele>520</ele>
        <time>2022-02-24T19:02:20Z</time>
      </trkpt>
      <trkpt lat="46.47276" lon="5.61259">
        <ele>520</ele>
        <time>2022-02-24T19:02:21Z</time>
      </trkpt>
      <trkpt lat="46.4728" lon="5.6126">
        <ele>520</ele>
        <time>2022-02-24T19:02:22Z</time>
      </trkpt>
      <trkpt lat="46.47284" lon="5.61262">
        <ele>520.4</ele>
        <time>2022-02-24T19:02:23Z</time>
      </trkpt>
      <trkpt lat="46.47288" lon="5.61264">
        <ele>520.4</ele>
        <time>2022-02-24T19:02:24Z</time>
      </trkpt>
      <trkpt lat="46.47292" lon="5.61266">
        <ele>520.4</ele>
        <time>2022-02-24T19:02:25Z</time>
      </trkpt>
      <trkpt lat="46.47297" lon="5.61267">
        <ele>520.4</ele>
        <time>2022-02-24T19:02:26Z</time>
      </trkpt>
      <trkpt lat="46.47301" lon="5.61269">
        <ele>520.6</ele>
        <time>2022-02-24T19:02:27Z</time>
      </trkpt>
      <trkpt lat="46.47305" lon="5.61271">
        <ele>520.6</ele>
        <time>2022-02-24T19:02:28Z</time>
      </trkpt>
      <trkpt lat="46.4731" lon="5.61273">
        <ele>520.6</ele>
        <time>2022-02-24T19:02:29Z</time>
      </trkpt>
      <trkpt lat="46.47314" lon="5.61275">
        <ele>520.8</ele>
        <time>2022-02-24T19:02:30Z</time>
      </trkpt>
      <trkpt lat="46.47319" lon="5.61277">
        <ele>520.8</ele>
        <time>2022-02-24T19:02:31Z</time>
      </trkpt>
      <trkpt lat="46.47323" lon="5.61279">
        <ele>520.8</ele>
        <time>2022-02-24T19:02:32Z</time>
      </trkpt>
      <trkpt lat="46.47328" lon="5.61281">
        <ele>520.8</ele>
        <time>2022-02-24T19:02:33Z</time>
      </trkpt>
      <trkpt lat="46.47332" lon="5.61283">
        <ele>520.8</ele>
        <time>2022-02-24T19:02:34Z</time>
      </trkpt>
      <trkpt lat="46.47337" lon="5.61285">
        <ele>521</ele>
        <time>2022-02-24T19:02:35Z</time>
      </trkpt>
      <trkpt lat="46.47341" lon="5.61287">
        <ele>521</ele>
        <time>2022-02-24T19:02:36Z</time>
      </trkpt>
      <trkpt lat="46.47346" lon="5.61289">
        <ele>521</ele>
        <time>2022-02-24T19:02:37Z</time>
      </trkpt>
      <trkpt lat="46.4735" lon="5.61291">
        <ele>521</ele>
        <time>2022-02-24T19:02:38Z</time>
      </trkpt>
      <trkpt lat="46.47354" lon="5.61293">
        <ele>521.4</ele>
        <time>2022-02-24T19:02:39Z</time>
      </trkpt>
      <trkpt lat="46.47358" lon="5.61295">
        <ele>521.4</ele>
        <time>2022-02-24T19:02:40Z</time>
      </trkpt>
      <trkpt lat="46.47362" lon="5.61298">
        <ele>521.6</ele>
        <time>2022-02-24T19:02:41Z</time>
      </trkpt>
      <trkpt lat="46.47366" lon="5.613">
        <ele>521.6</ele>
        <time>2022-02-24T19:02:42Z</time>
      </trkpt>
      <trkpt lat="46.4737" lon="5.61302">
        <ele>521.6</ele>
        <time>2022-02-24T19:02:43Z</time>
      </trkpt>
      <trkpt lat="46.47375" lon="5.61305">
        <ele>521.8</ele>
        <time>2022-02-24T19:02:44Z</time>
      </trkpt>
      <trkpt lat="46.47379" lon="5.61307">
        <ele>521.8</ele>
        <time>2022-02-24T19:02:45Z</time>
      </trkpt>
      <trkpt lat="46.47383" lon="5.6131">
        <ele>521.8</ele>
        <time>2022-02-24T19:02:46Z</time>
      </trkpt>
      <trkpt lat="46.47388" lon="5.61312">
        <ele>522</ele>
        <time>2022-02-24T19:02:47Z</time>
      </trkpt>
      <trkpt lat="46.47392" lon="5.61315">
        <ele>522</ele>
        <time>2022-02-24T19:02:48Z</time>
      </trkpt>
      <trkpt lat="46.47396" lon="5.61318">
        <ele>522.4</ele>
        <time>2022-02-24T19:02:49Z</time>
      </trkpt>
      <trkpt lat="46.47401" lon="5.61321">
        <ele>522.4</ele>
        <time>2022-02-24T19:02:50Z</time>
      </trkpt>
      <trkpt lat="46.47405" lon="5.61323">
        <ele>522.4</ele>
        <time>2022-02-24T19:02:51Z</time>
      </trkpt>
      <trkpt lat="46.47409" lon="5.61326">
        <ele>522.4</ele>
        <time>2022-02-24T19:02:52Z</time>
      </trkpt>
      <trkpt lat="46.47413" lon="5.61329">
        <ele>522.6</ele>
        <time>2022-02-24T19:02:53Z</time>
      </trkpt>
      <trkpt lat="46.47418" lon="5.61331">
        <ele>522.6</ele>
        <time>2022-02-24T19:02:54Z</time>
      </trkpt>
      <trkpt lat="46.47422" lon="5.61333">
        <ele>523</ele>
        <time>2022-02-24T19:02:55Z</time>
      </trkpt>
      <trkpt lat="46.47426" lon="5.61335">
        <ele>523</ele>
        <time>2022-02-24T19:02:56Z</time>
      </trkpt>
      <trkpt lat="46.47429" lon="5.61338">
        <ele>523.2</ele>
        <time>2022-02-24T19:02:57Z</time>
      </trkpt>
      <trkpt lat="46.47433" lon="5.6134">
        <ele>523.4</ele>
        <time>2022-02-24T19:02:58Z</time>
      </trkpt>
      <trkpt lat="46.47437" lon="5.61342">
        <ele>523.6</ele>
        <time>2022-02-24T19:02:59Z</time>
      </trkpt>
      <trkpt lat="46.47441" lon="5.61345">
        <ele>523.6</ele>
        <time>2022-02-24T19:03:00Z</time>
      </trkpt>
      <trkpt lat="46.47444" lon="5.61347">
        <ele>524</ele>
        <time>2022-02-24T19:03:01Z</time>
      </trkpt>
      <trkpt lat="46.47448" lon="5.61349">
        <ele>524</ele>
        <time>2022-02-24T19:03:02Z</time>
      </trkpt>
      <trkpt lat="46.47451" lon="5.61352">
        <ele>524.4</ele>
        <time>2022-02-24T19:03:03Z</time>
      </trkpt>
      <trkpt lat="46.47455" lon="5.61355">
        <ele>524.6</ele>
        <time>2022-02-24T19:03:04Z</time>
      </trkpt>
      <trkpt lat="46.47458" lon="5.61357">
        <ele>524.6</ele>
        <time>2022-02-24T19:03:05Z</time>
      </trkpt>
      <trkpt lat="46.47462" lon="5.61359">
        <ele>525</ele>
        <time>2022-02-24T19:03:06Z</time>
      </trkpt>
      <trkpt lat="46.47465" lon="5.61361">
        <ele>525.2</ele>
        <time>2022-02-24T19:03:07Z</time>
      </trkpt>
      <trkpt lat="46.47468" lon="5.61363">
        <ele>525.2</ele>
        <time>2022-02-24T19:03:08Z</time>
      </trkpt>
      <trkpt lat="46.47472" lon="5.61365">
        <ele>525.2</ele>
        <time>2022-02-24T19:03:09Z</time>
      </trkpt>
      <trkpt lat="46.47475" lon="5.61367">
        <ele>525.6</ele>
        <time>2022-02-24T19:03:10Z</time>
      </trkpt>
      <trkpt lat="46.47478" lon="5.6137">
        <ele>525.6</ele>
        <time>2022-02-24T19:03:11Z</time>
      </trkpt>
      <trkpt lat="46.47482" lon="5.61372">
        <ele>526</ele>
        <time>2022-02-24T19:03:12Z</time>
      </trkpt>
      <trkpt lat="46.47485" lon="5.61374">
        <ele>526</ele>
        <time>2022-02-24T19:03:13Z</time>
      </trkpt>
      <trkpt lat="46.47488" lon="5.61376">
        <ele>526.4</ele>
        <time>2022-02-24T19:03:14Z</time>
      </trkpt>
      <trkpt lat="46.47491" lon="5.61379">
        <ele>526.6</ele>
        <time>2022-02-24T19:03:15Z</time>
      </trkpt>
      <trkpt lat="46.47494" lon="5.61382">
        <ele>526.6</ele>
        <time>2022-02-24T19:03:16Z</time>
      </trkpt>
      <trkpt lat="46.47497" lon="5.61384">
        <ele>527</ele>
        <time>2022-02-24T19:03:17Z</time>
      </trkpt>
      <trkpt lat="46.475" lon="5.61387">
        <ele>527</ele>
        <time>2022-02-24T19:03:18Z</time>
      </trkpt>
      <trkpt lat="46.47503" lon="5.6139">
        <ele>527.4</ele>
        <time>2022-02-24T19:03:19Z</time>
      </trkpt>
      <trkpt lat="46.47506" lon="5.61393">
        <ele>527.4</ele>
        <time>2022-02-24T19:03:20Z</time>
      </trkpt>
      <trkpt lat="46.47509" lon="5.61397">
        <ele>527.4</ele>
        <time>2022-02-24T19:03:21Z</time>
      </trkpt>
      <trkpt lat="46.47513" lon="5.614">
        <ele>527.6</ele>
        <time>2022-02-24T19:03:22Z</time>
      </trkpt>
      <trkpt lat="46.47516" lon="5.61404">
        <ele>527.6</ele>
        <time>2022-02-24T19:03:23Z</time>
      </trkpt>
      <trkpt lat="46.47519" lon="5.61409">
        <ele>527.6</ele>
        <time>2022-02-24T19:03:24Z</time>
      </trkpt>
      <trkpt lat="46.47522" lon="5.61413">
        <ele>527.6</ele>
        <time>2022-02-24T19:03:25Z</time>
      </trkpt>
      <trkpt lat="46.47525" lon="5.61418">
        <ele>527.8</ele>
        <time>2022-02-24T19:03:26Z</time>
      </trkpt>
      <trkpt lat="46.47528" lon="5.61422">
        <ele>527.8</ele>
        <time>2022-02-24T19:03:27Z</time>
      </trkpt>
      <trkpt lat="46.47531" lon="5.61427">
        <ele>528.2</ele>
        <time>2022-02-24T19:03:28Z</time>
      </trkpt>
      <trkpt lat="46.47534" lon="5.61432">
        <ele>528.2</ele>
        <time>2022-02-24T19:03:29Z</time>
      </trkpt>
      <trkpt lat="46.47537" lon="5.61437">
        <ele>528.2</ele>
        <time>2022-02-24T19:03:30Z</time>
      </trkpt>
      <trkpt lat="46.47541" lon="5.61442">
        <ele>528.2</ele>
        <time>2022-02-24T19:03:31Z</time>
      </trkpt>
      <trkpt lat="46.47544" lon="5.61448">
        <ele>528.2</ele>
        <time>2022-02-24T19:03:32Z</time>
      </trkpt>
      <trkpt lat="46.47548" lon="5.61453">
        <ele>528.2</ele>
        <time>2022-02-24T19:03:33Z</time>
      </trkpt>
      <trkpt lat="46.47552" lon="5.61459">
        <ele>528.2</ele>
        <time>2022-02-24T19:03:34Z</time>
      </trkpt>
      <trkpt lat="46.47555" lon="5.61464">
        <ele>528.2</ele>
        <time>2022-02-24T19:03:35Z</time>
      </trkpt>
      <trkpt lat="46.47559" lon="5.6147">
        <ele>528.2</ele>
        <time>2022-02-24T19:03:36Z</time>
      </trkpt>
      <trkpt lat="46.47563" lon="5.61475">
        <ele>527.8</ele>
        <time>2022-02-24T19:03:37Z</time>
      </trkpt>
      <trkpt lat="46.47567" lon="5.61481">
        <ele>527.8</ele>
        <time>2022-02-24T19:03:38Z</time>
      </trkpt>
      <trkpt lat="46.47571" lon="5.61486">
        <ele>527.8</ele>
        <time>2022-02-24T19:03:39Z</time>
      </trkpt>
      <trkpt lat="46.47576" lon="5.61491">
        <ele>527.4</ele>
        <time>2022-02-24T19:03:40Z</time>
      </trkpt>
      <trkpt lat="46.47581" lon="5.61497">
        <ele>527.4</ele>
        <time>2022-02-24T19:03:41Z</time>
      </trkpt>
      <trkpt lat="46.47586" lon="5.61502">
        <ele>527</ele>
        <time>2022-02-24T19:03:42Z</time>
      </trkpt>
      <trkpt lat="46.47591" lon="5.61507">
        <ele>526.8</ele>
        <time>2022-02-24T19:03:43Z</time>
      </trkpt>
      <trkpt lat="46.47597" lon="5.61512">
        <ele>526.4</ele>
        <time>2022-02-24T19:03:44Z</time>
      </trkpt>
      <trkpt lat="46.47604" lon="5.61517">
        <ele>526.2</ele>
        <time>2022-02-24T19:03:45Z</time>
      </trkpt>
      <trkpt lat="46.47611" lon="5.61522">
        <ele>525.8</ele>
        <time>2022-02-24T19:03:46Z</time>
      </trkpt>
      <trkpt lat="46.47618" lon="5.61527">
        <ele>525.4</ele>
        <time>2022-02-24T19:03:47Z</time>
      </trkpt>
      <trkpt lat="46.47625" lon="5.61532">
        <ele>525.2</ele>
        <time>2022-02-24T19:03:48Z</time>
      </trkpt>
      <trkpt lat="46.47632" lon="5.61537">
        <ele>524.8</ele>
        <time>2022-02-24T19:03:49Z</time>
      </trkpt>
      <trkpt lat="46.47639" lon="5.61541">
        <ele>524.4</ele>
        <time>2022-02-24T19:03:50Z</time>
      </trkpt>
      <trkpt lat="46.47646" lon="5.61546">
        <ele>524.2</ele>
        <time>2022-02-24T19:03:51Z</time>
      </trkpt>
      <trkpt lat="46.47654" lon="5.61551">
        <ele>524</ele>
        <time>2022-02-24T19:03:52Z</time>
      </trkpt>
      <trkpt lat="46.47661" lon="5.61555">
        <ele>524</ele>
        <time>2022-02-24T19:03:53Z</time>
      </trkpt>
      <trkpt lat="46.47668" lon="5.6156">
        <ele>523.6</ele>
        <time>2022-02-24T19:03:54Z</time>
      </trkpt>
      <trkpt lat="46.47676" lon="5.61564">
        <ele>523.6</ele>
        <time>2022-02-24T19:03:55Z</time>
      </trkpt>
      <trkpt lat="46.47683" lon="5.61569">
        <ele>523.4</ele>
        <time>2022-02-24T19:03:56Z</time>
      </trkpt>
      <trkpt lat="46.4769" lon="5.61573">
        <ele>523.4</ele>
        <time>2022-02-24T19:03:57Z</time>
      </trkpt>
      <trkpt lat="46.47697" lon="5.61578">
        <ele>523.4</ele>
        <time>2022-02-24T19:03:58Z</time>
      </trkpt>
      <trkpt lat="46.47704" lon="5.61582">
        <ele>523.2</ele>
        <time>2022-02-24T19:03:59Z</time>
      </trkpt>
      <trkpt lat="46.4771" lon="5.61586">
        <ele>523.2</ele>
        <time>2022-02-24T19:04:00Z</time>
      </trkpt>
      <trkpt lat="46.47717" lon="5.6159">
        <ele>523.2</ele>
        <time>2022-02-24T19:04:01Z</time>
      </trkpt>
      <trkpt lat="46.47723" lon="5.61594">
        <ele>523.2</ele>
        <time>2022-02-24T19:04:02Z</time>
      </trkpt>
      <trkpt lat="46.4773" lon="5.61597">
        <ele>523.4</ele>
        <time>2022-02-24T19:04:03Z</time>
      </trkpt>
      <trkpt lat="46.47736" lon="5.61599">
        <ele>523.4</ele>
        <time>2022-02-24T19:04:04Z</time>
      </trkpt>
      <trkpt lat="46.47743" lon="5.61601">
        <ele>523.4</ele>
        <time>2022-02-24T19:04:05Z</time>
      </trkpt>
      <trkpt lat="46.4775" lon="5.61602">
        <ele>523.4</ele>
        <time>2022-02-24T19:04:06Z</time>
      </trkpt>
      <trkpt lat="46.47756" lon="5.61603">
        <ele>523.4</ele>
        <time>2022-02-24T19:04:07Z</time>
      </trkpt>
      <trkpt lat="46.47763" lon="5.61603">
        <ele>523.4</ele>
        <time>2022-02-24T19:04:08Z</time>
      </trkpt>
      <trkpt lat="46.4777" lon="5.61602">
        <ele>523.4</ele>
        <time>2022-02-24T19:04:09Z</time>
      </trkpt>
      <trkpt lat="46.47776" lon="5.61602">
        <ele>523.4</ele>
        <time>2022-02-24T19:04:10Z</time>
      </trkpt>
      <trkpt lat="46.47783" lon="5.61601">
        <ele>523.4</ele>
        <time>2022-02-24T19:04:11Z</time>
      </trkpt>
      <trkpt lat="46.47789" lon="5.616">
        <ele>523.4</ele>
        <time>2022-02-24T19:04:12Z</time>
      </trkpt>
      <trkpt lat="46.47795" lon="5.61599">
        <ele>523.6</ele>
        <time>2022-02-24T19:04:13Z</time>
      </trkpt>
      <trkpt lat="46.47801" lon="5.61598">
        <ele>523.6</ele>
        <time>2022-02-24T19:04:14Z</time>
      </trkpt>
      <trkpt lat="46.47807" lon="5.61597">
        <ele>523.6</ele>
        <time>2022-02-24T19:04:15Z</time>
      </trkpt>
      <trkpt lat="46.47813" lon="5.61595">
        <ele>523.8</ele>
        <time>2022-02-24T19:04:16Z</time>
      </trkpt>
      <trkpt lat="46.47818" lon="5.61593">
        <ele>523.8</ele>
        <time>2022-02-24T19:04:17Z</time>
      </trkpt>
      <trkpt lat="46.47824" lon="5.61591">
        <ele>523.8</ele>
        <time>2022-02-24T19:04:18Z</time>
      </trkpt>
      <trkpt lat="46.4783" lon="5.61588">
        <ele>523.8</ele>
        <time>2022-02-24T19:04:19Z</time>
      </trkpt>
      <trkpt lat="46.47837" lon="5.61585">
        <ele>523.8</ele>
        <time>2022-02-24T19:04:20Z</time>
      </trkpt>
      <trkpt lat="46.47843" lon="5.61583">
        <ele>523.8</ele>
        <time>2022-02-24T19:04:21Z</time>
      </trkpt>
      <trkpt lat="46.4785" lon="5.6158">
        <ele>523.4</ele>
        <time>2022-02-24T19:04:22Z</time>
      </trkpt>
      <trkpt lat="46.47857" lon="5.61577">
        <ele>523.2</ele>
        <time>2022-02-24T19:04:23Z</time>
      </trkpt>
      <trkpt lat="46.47863" lon="5.61573">
        <ele>523</ele>
        <time>2022-02-24T19:04:24Z</time>
      </trkpt>
      <trkpt lat="46.4787" lon="5.6157">
        <ele>522.8</ele>
        <time>2022-02-24T19:04:25Z</time>
      </trkpt>
      <trkpt lat="46.47877" lon="5.61566">
        <ele>522.8</ele>
        <time>2022-02-24T19:04:26Z</time>
      </trkpt>
      <trkpt lat="46.47884" lon="5.61563">
        <ele>522.4</ele>
        <time>2022-02-24T19:04:27Z</time>
      </trkpt>
      <trkpt lat="46.47892" lon="5.61559">
        <ele>522.4</ele>
        <time>2022-02-24T19:04:28Z</time>
      </trkpt>
      <trkpt lat="46.47899" lon="5.61555">
        <ele>522.2</ele>
        <time>2022-02-24T19:04:29Z</time>
      </trkpt>
      <trkpt lat="46.47906" lon="5.61552">
        <ele>522</ele>
        <time>2022-02-24T19:04:30Z</time>
      </trkpt>
      <trkpt lat="46.47913" lon="5.61548">
        <ele>522</ele>
        <time>2022-02-24T19:04:31Z</time>
      </trkpt>
      <trkpt lat="46.47921" lon="5.61544">
        <ele>521.6</ele>
        <time>2022-02-24T19:04:32Z</time>
      </trkpt>
      <trkpt lat="46.47928" lon="5.61541">
        <ele>521.4</ele>
        <time>2022-02-24T19:04:33Z</time>
      </trkpt>
      <trkpt lat="46.47936" lon="5.61537">
        <ele>521.4</ele>
        <time>2022-02-24T19:04:34Z</time>
      </trkpt>
      <trkpt lat="46.47943" lon="5.61534">
        <ele>521</ele>
        <time>2022-02-24T19:04:35Z</time>
      </trkpt>
      <trkpt lat="46.4795" lon="5.6153">
        <ele>521</ele>
        <time>2022-02-24T19:04:36Z</time>
      </trkpt>
      <trkpt lat="46.47957" lon="5.61526">
        <ele>521</ele>
        <time>2022-02-24T19:04:37Z</time>
      </trkpt>
      <trkpt lat="46.47964" lon="5.61523">
        <ele>520.8</ele>
        <time>2022-02-24T19:04:38Z</time>
      </trkpt>
      <trkpt lat="46.47971" lon="5.61519">
        <ele>520.8</ele>
        <time>2022-02-24T19:04:39Z</time>
      </trkpt>
      <trkpt lat="46.47978" lon="5.61516">
        <ele>520.8</ele>
        <time>2022-02-24T19:04:40Z</time>
      </trkpt>
      <trkpt lat="46.47985" lon="5.61513">
        <ele>520.8</ele>
        <time>2022-02-24T19:04:41Z</time>
      </trkpt>
      <trkpt lat="46.47992" lon="5.6151">
        <ele>520.8</ele>
        <time>2022-02-24T19:04:42Z</time>
      </trkpt>
      <trkpt lat="46.47998" lon="5.61507">
        <ele>520.8</ele>
        <time>2022-02-24T19:04:43Z</time>
      </trkpt>
      <trkpt lat="46.48005" lon="5.61504">
        <ele>520.6</ele>
        <time>2022-02-24T19:04:44Z</time>
      </trkpt>
      <trkpt lat="46.48012" lon="5.61502">
        <ele>520.6</ele>
        <time>2022-02-24T19:04:45Z</time>
      </trkpt>
      <trkpt lat="46.48019" lon="5.61499">
        <ele>520.2</ele>
        <time>2022-02-24T19:04:46Z</time>
      </trkpt>
      <trkpt lat="46.48026" lon="5.61497">
        <ele>520</ele>
        <time>2022-02-24T19:04:47Z</time>
      </trkpt>
      <trkpt lat="46.48034" lon="5.61496">
        <ele>519.8</ele>
        <time>2022-02-24T19:04:48Z</time>
      </trkpt>
      <trkpt lat="46.48042" lon="5.61494">
        <ele>519.4</ele>
        <time>2022-02-24T19:04:49Z</time>
      </trkpt>
      <trkpt lat="46.48049" lon="5.61492">
        <ele>519.2</ele>
        <time>2022-02-24T19:04:50Z</time>
      </trkpt>
      <trkpt lat="46.48057" lon="5.61491">
        <ele>519</ele>
        <time>2022-02-24T19:04:51Z</time>
      </trkpt>
      <trkpt lat="46.48065" lon="5.61489">
        <ele>518.8</ele>
        <time>2022-02-24T19:04:52Z</time>
      </trkpt>
      <trkpt lat="46.48072" lon="5.61488">
        <ele>518.8</ele>
        <time>2022-02-24T19:04:53Z</time>
      </trkpt>
      <trkpt lat="46.4808" lon="5.61488">
        <ele>518.4</ele>
        <time>2022-02-24T19:04:54Z</time>
      </trkpt>
      <trkpt lat="46.48087" lon="5.61489">
        <ele>518.4</ele>
        <time>2022-02-24T19:04:55Z</time>
      </trkpt>
      <trkpt lat="46.48095" lon="5.61492">
        <ele>518</ele>
        <time>2022-02-24T19:04:56Z</time>
      </trkpt>
      <trkpt lat="46.48102" lon="5.61494">
        <ele>518</ele>
        <time>2022-02-24T19:04:57Z</time>
      </trkpt>
      <trkpt lat="46.48108" lon="5.61498">
        <ele>517.8</ele>
        <time>2022-02-24T19:04:58Z</time>
      </trkpt>
      <trkpt lat="46.48115" lon="5.61501">
        <ele>517.8</ele>
        <time>2022-02-24T19:04:59Z</time>
      </trkpt>
      <trkpt lat="46.48122" lon="5.61506">
        <ele>517.6</ele>
        <time>2022-02-24T19:05:00Z</time>
      </trkpt>
      <trkpt lat="46.48128" lon="5.6151">
        <ele>517.6</ele>
        <time>2022-02-24T19:05:01Z</time>
      </trkpt>
      <trkpt lat="46.48135" lon="5.61515">
        <ele>517.2</ele>
        <time>2022-02-24T19:05:02Z</time>
      </trkpt>
      <trkpt lat="46.48141" lon="5.61519">
        <ele>517.2</ele>
        <time>2022-02-24T19:05:03Z</time>
      </trkpt>
      <trkpt lat="46.48147" lon="5.61524">
        <ele>517.2</ele>
        <time>2022-02-24T19:05:04Z</time>
      </trkpt>
      <trkpt lat="46.48154" lon="5.61528">
        <ele>517</ele>
        <time>2022-02-24T19:05:05Z</time>
      </trkpt>
      <trkpt lat="46.4816" lon="5.61532">
        <ele>517</ele>
        <time>2022-02-24T19:05:06Z</time>
      </trkpt>
      <trkpt lat="46.48167" lon="5.61536">
        <ele>516.6</ele>
        <time>2022-02-24T19:05:07Z</time>
      </trkpt>
      <trkpt lat="46.48174" lon="5.61539">
        <ele>516.6</ele>
        <time>2022-02-24T19:05:08Z</time>
      </trkpt>
      <trkpt lat="46.4818" lon="5.61542">
        <ele>516.6</ele>
        <time>2022-02-24T19:05:09Z</time>
      </trkpt>
      <trkpt lat="46.48187" lon="5.61545">
        <ele>516.2</ele>
        <time>2022-02-24T19:05:10Z</time>
      </trkpt>
      <trkpt lat="46.48194" lon="5.61546">
        <ele>516.2</ele>
        <time>2022-02-24T19:05:11Z</time>
      </trkpt>
      <trkpt lat="46.48201" lon="5.61548">
        <ele>516</ele>
        <time>2022-02-24T19:05:12Z</time>
      </trkpt>
      <trkpt lat="46.48209" lon="5.61549">
        <ele>516</ele>
        <time>2022-02-24T19:05:13Z</time>
      </trkpt>
      <trkpt lat="46.48217" lon="5.6155">
        <ele>515.6</ele>
        <time>2022-02-24T19:05:14Z</time>
      </trkpt>
      <trkpt lat="46.48224" lon="5.61551">
        <ele>515.4</ele>
        <time>2022-02-24T19:05:15Z</time>
      </trkpt>
      <trkpt lat="46.48232" lon="5.61553">
        <ele>515</ele>
        <time>2022-02-24T19:05:16Z</time>
      </trkpt>
      <trkpt lat="46.4824" lon="5.61556">
        <ele>514.6</ele>
        <time>2022-02-24T19:05:17Z</time>
      </trkpt>
      <trkpt lat="46.48248" lon="5.61559">
        <ele>514.4</ele>
        <time>2022-02-24T19:05:18Z</time>
      </trkpt>
      <trkpt lat="46.48255" lon="5.61564">
        <ele>514</ele>
        <time>2022-02-24T19:05:19Z</time>
      </trkpt>
      <trkpt lat="46.48263" lon="5.61569">
        <ele>513.6</ele>
        <time>2022-02-24T19:05:20Z</time>
      </trkpt>
      <trkpt lat="46.48271" lon="5.61576">
        <ele>513.4</ele>
        <time>2022-02-24T19:05:21Z</time>
      </trkpt>
      <trkpt lat="46.48278" lon="5.61583">
        <ele>513</ele>
        <time>2022-02-24T19:05:22Z</time>
      </trkpt>
      <trkpt lat="46.48284" lon="5.61591">
        <ele>512.6</ele>
        <time>2022-02-24T19:05:23Z</time>
      </trkpt>
      <trkpt lat="46.48291" lon="5.61598">
        <ele>512.2</ele>
        <time>2022-02-24T19:05:24Z</time>
      </trkpt>
      <trkpt lat="46.48298" lon="5.61606">
        <ele>512</ele>
        <time>2022-02-24T19:05:25Z</time>
      </trkpt>
      <trkpt lat="46.48306" lon="5.61613">
        <ele>511.6</ele>
        <time>2022-02-24T19:05:26Z</time>
      </trkpt>
      <trkpt lat="46.48314" lon="5.61619">
        <ele>511.2</ele>
        <time>2022-02-24T19:05:27Z</time>
      </trkpt>
      <trkpt lat="46.48322" lon="5.61626">
        <ele>510.6</ele>
        <time>2022-02-24T19:05:28Z</time>
      </trkpt>
      <trkpt lat="46.4833" lon="5.61631">
        <ele>510.2</ele>
        <time>2022-02-24T19:05:29Z</time>
      </trkpt>
      <trkpt lat="46.48339" lon="5.61637">
        <ele>509.8</ele>
        <time>2022-02-24T19:05:30Z</time>
      </trkpt>
      <trkpt lat="46.48348" lon="5.61641">
        <ele>509.4</ele>
        <time>2022-02-24T19:05:31Z</time>
      </trkpt>
      <trkpt lat="46.48357" lon="5.61646">
        <ele>509</ele>
        <time>2022-02-24T19:05:32Z</time>
      </trkpt>
      <trkpt lat="46.48366" lon="5.61649">
        <ele>508.6</ele>
        <time>2022-02-24T19:05:33Z</time>
      </trkpt>
      <trkpt lat="46.48375" lon="5.61652">
        <ele>508.2</ele>
        <time>2022-02-24T19:05:34Z</time>
      </trkpt>
      <trkpt lat="46.48384" lon="5.61655">
        <ele>507.8</ele>
        <time>2022-02-24T19:05:35Z</time>
      </trkpt>
      <trkpt lat="46.48393" lon="5.61658">
        <ele>507.6</ele>
        <time>2022-02-24T19:05:36Z</time>
      </trkpt>
      <trkpt lat="46.48402" lon="5.61659">
        <ele>507.2</ele>
        <time>2022-02-24T19:05:37Z</time>
      </trkpt>
      <trkpt lat="46.48411" lon="5.61661">
        <ele>506.8</ele>
        <time>2022-02-24T19:05:38Z</time>
      </trkpt>
      <trkpt lat="46.48421" lon="5.61662">
        <ele>506.4</ele>
        <time>2022-02-24T19:05:39Z</time>
      </trkpt>
      <trkpt lat="46.4843" lon="5.61664">
        <ele>506</ele>
        <time>2022-02-24T19:05:40Z</time>
      </trkpt>
      <trkpt lat="46.4844" lon="5.61666">
        <ele>505.6</ele>
        <time>2022-02-24T19:05:41Z</time>
      </trkpt>
      <trkpt lat="46.48451" lon="5.61667">
        <ele>505.2</ele>
        <time>2022-02-24T19:05:42Z</time>
      </trkpt>
      <trkpt lat="46.4846" lon="5.6167">
        <ele>504.8</ele>
        <time>2022-02-24T19:05:43Z</time>
      </trkpt>
      <trkpt lat="46.48469" lon="5.61672">
        <ele>504.4</ele>
        <time>2022-02-24T19:05:44Z</time>
      </trkpt>
      <trkpt lat="46.48479" lon="5.61673">
        <ele>504</ele>
        <time>2022-02-24T19:05:45Z</time>
      </trkpt>
      <trkpt lat="46.48489" lon="5.61676">
        <ele>503.4</ele>
        <time>2022-02-24T19:05:46Z</time>
      </trkpt>
      <trkpt lat="46.48498" lon="5.61678">
        <ele>503</ele>
        <time>2022-02-24T19:05:47Z</time>
      </trkpt>
      <trkpt lat="46.48507" lon="5.61682">
        <ele>502.6</ele>
        <time>2022-02-24T19:05:48Z</time>
      </trkpt>
      <trkpt lat="46.48515" lon="5.61685">
        <ele>502.2</ele>
        <time>2022-02-24T19:05:49Z</time>
      </trkpt>
      <trkpt lat="46.48522" lon="5.6169">
        <ele>501.8</ele>
        <time>2022-02-24T19:05:50Z</time>
      </trkpt>
      <trkpt lat="46.48531" lon="5.61695">
        <ele>501.2</ele>
        <time>2022-02-24T19:05:51Z</time>
      </trkpt>
      <trkpt lat="46.48539" lon="5.61702">
        <ele>500.8</ele>
        <time>2022-02-24T19:05:52Z</time>
      </trkpt>
      <trkpt lat="46.48546" lon="5.61709">
        <ele>500.4</ele>
        <time>2022-02-24T19:05:53Z</time>
      </trkpt>
      <trkpt lat="46.48553" lon="5.61717">
        <ele>500</ele>
        <time>2022-02-24T19:05:54Z</time>
      </trkpt>
      <trkpt lat="46.4856" lon="5.61727">
        <ele>499.4</ele>
        <time>2022-02-24T19:05:55Z</time>
      </trkpt>
      <trkpt lat="46.48567" lon="5.61736">
        <ele>499</ele>
        <time>2022-02-24T19:05:56Z</time>
      </trkpt>
      <trkpt lat="46.48573" lon="5.61747">
        <ele>498.4</ele>
        <time>2022-02-24T19:05:57Z</time>
      </trkpt>
      <trkpt lat="46.4858" lon="5.61757">
        <ele>498</ele>
        <time>2022-02-24T19:05:58Z</time>
      </trkpt>
      <trkpt lat="46.48588" lon="5.61766">
        <ele>497.6</ele>
        <time>2022-02-24T19:05:59Z</time>
      </trkpt>
      <trkpt lat="46.48594" lon="5.61777">
        <ele>497</ele>
        <time>2022-02-24T19:06:00Z</time>
      </trkpt>
      <trkpt lat="46.48601" lon="5.61786">
        <ele>496.6</ele>
        <time>2022-02-24T19:06:01Z</time>
      </trkpt>
      <trkpt lat="46.48608" lon="5.61796">
        <ele>496.2</ele>
        <time>2022-02-24T19:06:02Z</time>
      </trkpt>
      <trkpt lat="46.48615" lon="5.61805">
        <ele>495.8</ele>
        <time>2022-02-24T19:06:03Z</time>
      </trkpt>
      <trkpt lat="46.48622" lon="5.61814">
        <ele>495.4</ele>
        <time>2022-02-24T19:06:04Z</time>
      </trkpt>
      <trkpt lat="46.48629" lon="5.61823">
        <ele>495.2</ele>
        <time>2022-02-24T19:06:05Z</time>
      </trkpt>
      <trkpt lat="46.48636" lon="5.61833">
        <ele>494.8</ele>
        <time>2022-02-24T19:06:06Z</time>
      </trkpt>
      <trkpt lat="46.48643" lon="5.61842">
        <ele>494.6</ele>
        <time>2022-02-24T19:06:07Z</time>
      </trkpt>
      <trkpt lat="46.4865" lon="5.61851">
        <ele>494.2</ele>
        <time>2022-02-24T19:06:08Z</time>
      </trkpt>
      <trkpt lat="46.48657" lon="5.61859">
        <ele>494</ele>
        <time>2022-02-24T19:06:09Z</time>
      </trkpt>
      <trkpt lat="46.48663" lon="5.61866">
        <ele>493.8</ele>
        <time>2022-02-24T19:06:10Z</time>
      </trkpt>
      <trkpt lat="46.48671" lon="5.61871">
        <ele>493.4</ele>
        <time>2022-02-24T19:06:11Z</time>
      </trkpt>
      <trkpt lat="46.4868" lon="5.61876">
        <ele>493.2</ele>
        <time>2022-02-24T19:06:12Z</time>
      </trkpt>
      <trkpt lat="46.48689" lon="5.6188">
        <ele>492.8</ele>
        <time>2022-02-24T19:06:13Z</time>
      </trkpt>
      <trkpt lat="46.48697" lon="5.61882">
        <ele>492.4</ele>
        <time>2022-02-24T19:06:14Z</time>
      </trkpt>
      <trkpt lat="46.48706" lon="5.61882">
        <ele>492.2</ele>
        <time>2022-02-24T19:06:15Z</time>
      </trkpt>
      <trkpt lat="46.48715" lon="5.61882">
        <ele>492</ele>
        <time>2022-02-24T19:06:16Z</time>
      </trkpt>
      <trkpt lat="46.48723" lon="5.61881">
        <ele>491.6</ele>
        <time>2022-02-24T19:06:17Z</time>
      </trkpt>
      <trkpt lat="46.48732" lon="5.6188">
        <ele>491.4</ele>
        <time>2022-02-24T19:06:18Z</time>
      </trkpt>
      <trkpt lat="46.48741" lon="5.61879">
        <ele>491</ele>
        <time>2022-02-24T19:06:19Z</time>
      </trkpt>
      <trkpt lat="46.4875" lon="5.61879">
        <ele>490.8</ele>
        <time>2022-02-24T19:06:20Z</time>
      </trkpt>
      <trkpt lat="46.4876" lon="5.61878">
        <ele>490.6</ele>
        <time>2022-02-24T19:06:21Z</time>
      </trkpt>
      <trkpt lat="46.48769" lon="5.61879">
        <ele>490.2</ele>
        <time>2022-02-24T19:06:22Z</time>
      </trkpt>
      <trkpt lat="46.48778" lon="5.61881">
        <ele>490</ele>
        <time>2022-02-24T19:06:23Z</time>
      </trkpt>
      <trkpt lat="46.48787" lon="5.61883">
        <ele>489.6</ele>
        <time>2022-02-24T19:06:24Z</time>
      </trkpt>
      <trkpt lat="46.48795" lon="5.61886">
        <ele>489.2</ele>
        <time>2022-02-24T19:06:25Z</time>
      </trkpt>
      <trkpt lat="46.48804" lon="5.6189">
        <ele>488.8</ele>
        <time>2022-02-24T19:06:26Z</time>
      </trkpt>
      <trkpt lat="46.48812" lon="5.61895">
        <ele>488.6</ele>
        <time>2022-02-24T19:06:27Z</time>
      </trkpt>
      <trkpt lat="46.4882" lon="5.61901">
        <ele>488.6</ele>
        <time>2022-02-24T19:06:28Z</time>
      </trkpt>
      <trkpt lat="46.48828" lon="5.61907">
        <ele>488.4</ele>
        <time>2022-02-24T19:06:29Z</time>
      </trkpt>
      <trkpt lat="46.48835" lon="5.61913">
        <ele>488</ele>
        <time>2022-02-24T19:06:30Z</time>
      </trkpt>
      <trkpt lat="46.48841" lon="5.6192">
        <ele>487.8</ele>
        <time>2022-02-24T19:06:31Z</time>
      </trkpt>
      <trkpt lat="46.48847" lon="5.61927">
        <ele>487.6</ele>
        <time>2022-02-24T19:06:32Z</time>
      </trkpt>
      <trkpt lat="46.48853" lon="5.61934">
        <ele>487.4</ele>
        <time>2022-02-24T19:06:33Z</time>
      </trkpt>
      <trkpt lat="46.48859" lon="5.6194">
        <ele>487.2</ele>
        <time>2022-02-24T19:06:34Z</time>
      </trkpt>
      <trkpt lat="46.48865" lon="5.61946">
        <ele>487</ele>
        <time>2022-02-24T19:06:35Z</time>
      </trkpt>
      <trkpt lat="46.4887" lon="5.61952">
        <ele>486.6</ele>
        <time>2022-02-24T19:06:36Z</time>
      </trkpt>
      <trkpt lat="46.48876" lon="5.61958">
        <ele>486.4</ele>
        <time>2022-02-24T19:06:37Z</time>
      </trkpt>
      <trkpt lat="46.48882" lon="5.61963">
        <ele>486.4</ele>
        <time>2022-02-24T19:06:38Z</time>
      </trkpt>
      <trkpt lat="46.48888" lon="5.61968">
        <ele>486.2</ele>
        <time>2022-02-24T19:06:39Z</time>
      </trkpt>
      <trkpt lat="46.48895" lon="5.61974">
        <ele>485.8</ele>
        <time>2022-02-24T19:06:40Z</time>
      </trkpt>
      <trkpt lat="46.48901" lon="5.61979">
        <ele>485.8</ele>
        <time>2022-02-24T19:06:41Z</time>
      </trkpt>
      <trkpt lat="46.48908" lon="5.61985">
        <ele>485.4</ele>
        <time>2022-02-24T19:06:42Z</time>
      </trkpt>
      <trkpt lat="46.48914" lon="5.61991">
        <ele>485.2</ele>
        <time>2022-02-24T19:06:43Z</time>
      </trkpt>
      <trkpt lat="46.48921" lon="5.61998">
        <ele>484.8</ele>
        <time>2022-02-24T19:06:44Z</time>
      </trkpt>
      <trkpt lat="46.48927" lon="5.62006">
        <ele>484.4</ele>
        <time>2022-02-24T19:06:45Z</time>
      </trkpt>
      <trkpt lat="46.48933" lon="5.62014">
        <ele>484.2</ele>
        <time>2022-02-24T19:06:46Z</time>
      </trkpt>
      <trkpt lat="46.48938" lon="5.62024">
        <ele>483.8</ele>
        <time>2022-02-24T19:06:47Z</time>
      </trkpt>
      <trkpt lat="46.48943" lon="5.62036">
        <ele>483.4</ele>
        <time>2022-02-24T19:06:48Z</time>
      </trkpt>
      <trkpt lat="46.48947" lon="5.62048">
        <ele>483</ele>
        <time>2022-02-24T19:06:49Z</time>
      </trkpt>
      <trkpt lat="46.4895" lon="5.62062">
        <ele>482.8</ele>
        <time>2022-02-24T19:06:50Z</time>
      </trkpt>
      <trkpt lat="46.48952" lon="5.62075">
        <ele>482.2</ele>
        <time>2022-02-24T19:06:51Z</time>
      </trkpt>
      <trkpt lat="46.48953" lon="5.62088">
        <ele>481.8</ele>
        <time>2022-02-24T19:06:52Z</time>
      </trkpt>
      <trkpt lat="46.48955" lon="5.62102">
        <ele>481.4</ele>
        <time>2022-02-24T19:06:53Z</time>
      </trkpt>
      <trkpt lat="46.48957" lon="5.62116">
        <ele>480.8</ele>
        <time>2022-02-24T19:06:54Z</time>
      </trkpt>
      <trkpt lat="46.48959" lon="5.6213">
        <ele>480.4</ele>
        <time>2022-02-24T19:06:55Z</time>
      </trkpt>
      <trkpt lat="46.4896" lon="5.62143">
        <ele>480</ele>
        <time>2022-02-24T19:06:56Z</time>
      </trkpt>
      <trkpt lat="46.48962" lon="5.62157">
        <ele>479.6</ele>
        <time>2022-02-24T19:06:57Z</time>
      </trkpt>
      <trkpt lat="46.48964" lon="5.62171">
        <ele>479.2</ele>
        <time>2022-02-24T19:06:58Z</time>
      </trkpt>
      <trkpt lat="46.48965" lon="5.62184">
        <ele>478.8</ele>
        <time>2022-02-24T19:06:59Z</time>
      </trkpt>
      <trkpt lat="46.48966" lon="5.62198">
        <ele>478.4</ele>
        <time>2022-02-24T19:07:00Z</time>
      </trkpt>
      <trkpt lat="46.48968" lon="5.6221">
        <ele>478</ele>
        <time>2022-02-24T19:07:01Z</time>
      </trkpt>
      <trkpt lat="46.48969" lon="5.62224">
        <ele>477.8</ele>
        <time>2022-02-24T19:07:02Z</time>
      </trkpt>
      <trkpt lat="46.48971" lon="5.62237">
        <ele>477.4</ele>
        <time>2022-02-24T19:07:03Z</time>
      </trkpt>
      <trkpt lat="46.48973" lon="5.62249">
        <ele>477</ele>
        <time>2022-02-24T19:07:04Z</time>
      </trkpt>
      <trkpt lat="46.48976" lon="5.62261">
        <ele>476.8</ele>
        <time>2022-02-24T19:07:05Z</time>
      </trkpt>
      <trkpt lat="46.48979" lon="5.62272">
        <ele>476.4</ele>
        <time>2022-02-24T19:07:06Z</time>
      </trkpt>
      <trkpt lat="46.48983" lon="5.62283">
        <ele>476</ele>
        <time>2022-02-24T19:07:07Z</time>
      </trkpt>
      <trkpt lat="46.48988" lon="5.62293">
        <ele>475.8</ele>
        <time>2022-02-24T19:07:08Z</time>
      </trkpt>
      <trkpt lat="46.48993" lon="5.62303">
        <ele>475.6</ele>
        <time>2022-02-24T19:07:09Z</time>
      </trkpt>
      <trkpt lat="46.48998" lon="5.62313">
        <ele>475.2</ele>
        <time>2022-02-24T19:07:10Z</time>
      </trkpt>
      <trkpt lat="46.49004" lon="5.62322">
        <ele>475</ele>
        <time>2022-02-24T19:07:11Z</time>
      </trkpt>
      <trkpt lat="46.4901" lon="5.62331">
        <ele>474.6</ele>
        <time>2022-02-24T19:07:12Z</time>
      </trkpt>
      <trkpt lat="46.49016" lon="5.6234">
        <ele>474.2</ele>
        <time>2022-02-24T19:07:13Z</time>
      </trkpt>
      <trkpt lat="46.49021" lon="5.62348">
        <ele>474</ele>
        <time>2022-02-24T19:07:14Z</time>
      </trkpt>
      <trkpt lat="46.49027" lon="5.62356">
        <ele>473.8</ele>
        <time>2022-02-24T19:07:15Z</time>
      </trkpt>
      <trkpt lat="46.49034" lon="5.62362">
        <ele>473.6</ele>
        <time>2022-02-24T19:07:16Z</time>
      </trkpt>
      <trkpt lat="46.4904" lon="5.62366">
        <ele>473.6</ele>
        <time>2022-02-24T19:07:17Z</time>
      </trkpt>
      <trkpt lat="46.49047" lon="5.6237">
        <ele>473.2</ele>
        <time>2022-02-24T19:07:18Z</time>
      </trkpt>
      <trkpt lat="46.49054" lon="5.62372">
        <ele>473.2</ele>
        <time>2022-02-24T19:07:19Z</time>
      </trkpt>
      <trkpt lat="46.49061" lon="5.62373">
        <ele>472.8</ele>
        <time>2022-02-24T19:07:20Z</time>
      </trkpt>
      <trkpt lat="46.49068" lon="5.62373">
        <ele>472.4</ele>
        <time>2022-02-24T19:07:21Z</time>
      </trkpt>
      <trkpt lat="46.49076" lon="5.62372">
        <ele>472.2</ele>
        <time>2022-02-24T19:07:22Z</time>
      </trkpt>
      <trkpt lat="46.49083" lon="5.6237">
        <ele>471.8</ele>
        <time>2022-02-24T19:07:23Z</time>
      </trkpt>
      <trkpt lat="46.49091" lon="5.62366">
        <ele>471.6</ele>
        <time>2022-02-24T19:07:24Z</time>
      </trkpt>
      <trkpt lat="46.49099" lon="5.62362">
        <ele>471.2</ele>
        <time>2022-02-24T19:07:25Z</time>
      </trkpt>
      <trkpt lat="46.49106" lon="5.62357">
        <ele>470.8</ele>
        <time>2022-02-24T19:07:26Z</time>
      </trkpt>
      <trkpt lat="46.49114" lon="5.62353">
        <ele>470.6</ele>
        <time>2022-02-24T19:07:27Z</time>
      </trkpt>
      <trkpt lat="46.49122" lon="5.62349">
        <ele>470.2</ele>
        <time>2022-02-24T19:07:28Z</time>
      </trkpt>
      <trkpt lat="46.4913" lon="5.62344">
        <ele>469.8</ele>
        <time>2022-02-24T19:07:29Z</time>
      </trkpt>
      <trkpt lat="46.49138" lon="5.62339">
        <ele>469.6</ele>
        <time>2022-02-24T19:07:30Z</time>
      </trkpt>
      <trkpt lat="46.49146" lon="5.62335">
        <ele>469.2</ele>
        <time>2022-02-24T19:07:31Z</time>
      </trkpt>
      <trkpt lat="46.49154" lon="5.6233">
        <ele>468.8</ele>
        <time>2022-02-24T19:07:32Z</time>
      </trkpt>
      <trkpt lat="46.49162" lon="5.62325">
        <ele>468.6</ele>
        <time>2022-02-24T19:07:33Z</time>
      </trkpt>
      <trkpt lat="46.49169" lon="5.6232">
        <ele>468.6</ele>
        <time>2022-02-24T19:07:34Z</time>
      </trkpt>
      <trkpt lat="46.49177" lon="5.62315">
        <ele>468.2</ele>
        <time>2022-02-24T19:07:35Z</time>
      </trkpt>
      <trkpt lat="46.49185" lon="5.6231">
        <ele>468</ele>
        <time>2022-02-24T19:07:36Z</time>
      </trkpt>
      <trkpt lat="46.49192" lon="5.62303">
        <ele>467.8</ele>
        <time>2022-02-24T19:07:37Z</time>
      </trkpt>
      <trkpt lat="46.49199" lon="5.62296">
        <ele>467.4</ele>
        <time>2022-02-24T19:07:38Z</time>
      </trkpt>
      <trkpt lat="46.49206" lon="5.62288">
        <ele>467</ele>
        <time>2022-02-24T19:07:39Z</time>
      </trkpt>
      <trkpt lat="46.49212" lon="5.6228">
        <ele>466.8</ele>
        <time>2022-02-24T19:07:40Z</time>
      </trkpt>
      <trkpt lat="46.49219" lon="5.62271">
        <ele>466.4</ele>
        <time>2022-02-24T19:07:41Z</time>
      </trkpt>
      <trkpt lat="46.49225" lon="5.62262">
        <ele>466</ele>
        <time>2022-02-24T19:07:42Z</time>
      </trkpt>
      <trkpt lat="46.49232" lon="5.62254">
        <ele>465.6</ele>
        <time>2022-02-24T19:07:43Z</time>
      </trkpt>
      <trkpt lat="46.4924" lon="5.62248">
        <ele>465.4</ele>
        <time>2022-02-24T19:07:44Z</time>
      </trkpt>
      <trkpt lat="46.49248" lon="5.62243">
        <ele>465.2</ele>
        <time>2022-02-24T19:07:45Z</time>
      </trkpt>
      <trkpt lat="46.49256" lon="5.62239">
        <ele>465.2</ele>
        <time>2022-02-24T19:07:46Z</time>
      </trkpt>
      <trkpt lat="46.49264" lon="5.62236">
        <ele>464.8</ele>
        <time>2022-02-24T19:07:47Z</time>
      </trkpt>
      <trkpt lat="46.49272" lon="5.62235">
        <ele>464.6</ele>
        <time>2022-02-24T19:07:48Z</time>
      </trkpt>
      <trkpt lat="46.4928" lon="5.62234">
        <ele>464.6</ele>
        <time>2022-02-24T19:07:49Z</time>
      </trkpt>
      <trkpt lat="46.49288" lon="5.62234">
        <ele>464.2</ele>
        <time>2022-02-24T19:07:50Z</time>
      </trkpt>
      <trkpt lat="46.49297" lon="5.62235">
        <ele>464.2</ele>
        <time>2022-02-24T19:07:51Z</time>
      </trkpt>
      <trkpt lat="46.49305" lon="5.62237">
        <ele>463.8</ele>
        <time>2022-02-24T19:07:52Z</time>
      </trkpt>
      <trkpt lat="46.49312" lon="5.62239">
        <ele>463.8</ele>
        <time>2022-02-24T19:07:53Z</time>
      </trkpt>
      <trkpt lat="46.4932" lon="5.62243">
        <ele>463.6</ele>
        <time>2022-02-24T19:07:54Z</time>
      </trkpt>
      <trkpt lat="46.49328" lon="5.62247">
        <ele>463.6</ele>
        <time>2022-02-24T19:07:55Z</time>
      </trkpt>
      <trkpt lat="46.49335" lon="5.62252">
        <ele>463.2</ele>
        <time>2022-02-24T19:07:56Z</time>
      </trkpt>
      <trkpt lat="46.49342" lon="5.62257">
        <ele>463.2</ele>
        <time>2022-02-24T19:07:57Z</time>
      </trkpt>
      <trkpt lat="46.49349" lon="5.62262">
        <ele>463.2</ele>
        <time>2022-02-24T19:07:58Z</time>
      </trkpt>
      <trkpt lat="46.49356" lon="5.62268">
        <ele>463</ele>
        <time>2022-02-24T19:07:59Z</time>
      </trkpt>
      <trkpt lat="46.49363" lon="5.62273">
        <ele>463</ele>
        <time>2022-02-24T19:08:00Z</time>
      </trkpt>
      <trkpt lat="46.4937" lon="5.62278">
        <ele>462.6</ele>
        <time>2022-02-24T19:08:01Z</time>
      </trkpt>
      <trkpt lat="46.49377" lon="5.62283">
        <ele>462.6</ele>
        <time>2022-02-24T19:08:02Z</time>
      </trkpt>
      <trkpt lat="46.49385" lon="5.62287">
        <ele>462.4</ele>
        <time>2022-02-24T19:08:03Z</time>
      </trkpt>
      <trkpt lat="46.49392" lon="5.62289">
        <ele>462.4</ele>
        <time>2022-02-24T19:08:04Z</time>
      </trkpt>
      <trkpt lat="46.49399" lon="5.62291">
        <ele>462.4</ele>
        <time>2022-02-24T19:08:05Z</time>
      </trkpt>
      <trkpt lat="46.49405" lon="5.62292">
        <ele>462</ele>
        <time>2022-02-24T19:08:06Z</time>
      </trkpt>
      <trkpt lat="46.49412" lon="5.62292">
        <ele>461.8</ele>
        <time>2022-02-24T19:08:07Z</time>
      </trkpt>
      <trkpt lat="46.49412" lon="5.62292">
        <ele>461.4</ele>
        <time>2022-02-24T19:08:08Z</time>
      </trkpt>
      <trkpt lat="46.49419" lon="5.62291">
        <ele>461.4</ele>
        <time>2022-02-24T19:08:09Z</time>
      </trkpt>
      <trkpt lat="46.49426" lon="5.62288">
        <ele>461</ele>
        <time>2022-02-24T19:08:10Z</time>
      </trkpt>
      <trkpt lat="46.49432" lon="5.62285">
        <ele>460.8</ele>
        <time>2022-02-24T19:08:11Z</time>
      </trkpt>
      <trkpt lat="46.49439" lon="5.62282">
        <ele>460.6</ele>
        <time>2022-02-24T19:08:12Z</time>
      </trkpt>
      <trkpt lat="46.49445" lon="5.62278">
        <ele>460.4</ele>
        <time>2022-02-24T19:08:13Z</time>
      </trkpt>
      <trkpt lat="46.49452" lon="5.62276">
        <ele>460.4</ele>
        <time>2022-02-24T19:08:14Z</time>
      </trkpt>
      <trkpt lat="46.49459" lon="5.62274">
        <ele>460</ele>
        <time>2022-02-24T19:08:15Z</time>
      </trkpt>
      <trkpt lat="46.49466" lon="5.62273">
        <ele>459.6</ele>
        <time>2022-02-24T19:08:16Z</time>
      </trkpt>
      <trkpt lat="46.49473" lon="5.62272">
        <ele>459.6</ele>
        <time>2022-02-24T19:08:17Z</time>
      </trkpt>
      <trkpt lat="46.4948" lon="5.62274">
        <ele>459.2</ele>
        <time>2022-02-24T19:08:18Z</time>
      </trkpt>
      <trkpt lat="46.49488" lon="5.62275">
        <ele>459.2</ele>
        <time>2022-02-24T19:08:19Z</time>
      </trkpt>
      <trkpt lat="46.49495" lon="5.62277">
        <ele>458.8</ele>
        <time>2022-02-24T19:08:20Z</time>
      </trkpt>
      <trkpt lat="46.49502" lon="5.62279">
        <ele>458.6</ele>
        <time>2022-02-24T19:08:21Z</time>
      </trkpt>
      <trkpt lat="46.4951" lon="5.62281">
        <ele>458.6</ele>
        <time>2022-02-24T19:08:22Z</time>
      </trkpt>
      <trkpt lat="46.49517" lon="5.62282">
        <ele>458.2</ele>
        <time>2022-02-24T19:08:23Z</time>
      </trkpt>
      <trkpt lat="46.49524" lon="5.62284">
        <ele>458.2</ele>
        <time>2022-02-24T19:08:24Z</time>
      </trkpt>
      <trkpt lat="46.49532" lon="5.62286">
        <ele>457.8</ele>
        <time>2022-02-24T19:08:25Z</time>
      </trkpt>
      <trkpt lat="46.49539" lon="5.62287">
        <ele>457.6</ele>
        <time>2022-02-24T19:08:26Z</time>
      </trkpt>
      <trkpt lat="46.49547" lon="5.62289">
        <ele>457.2</ele>
        <time>2022-02-24T19:08:27Z</time>
      </trkpt>
      <trkpt lat="46.49555" lon="5.62291">
        <ele>457</ele>
        <time>2022-02-24T19:08:28Z</time>
      </trkpt>
      <trkpt lat="46.49562" lon="5.62292">
        <ele>456.8</ele>
        <time>2022-02-24T19:08:29Z</time>
      </trkpt>
      <trkpt lat="46.4957" lon="5.62294">
        <ele>456.8</ele>
        <time>2022-02-24T19:08:30Z</time>
      </trkpt>
      <trkpt lat="46.49578" lon="5.62295">
        <ele>456.4</ele>
        <time>2022-02-24T19:08:31Z</time>
      </trkpt>
      <trkpt lat="46.49586" lon="5.62297">
        <ele>456.4</ele>
        <time>2022-02-24T19:08:32Z</time>
      </trkpt>
      <trkpt lat="46.49594" lon="5.62298">
        <ele>456</ele>
        <time>2022-02-24T19:08:33Z</time>
      </trkpt>
      <trkpt lat="46.49602" lon="5.62299">
        <ele>456</ele>
        <time>2022-02-24T19:08:34Z</time>
      </trkpt>
      <trkpt lat="46.4961" lon="5.623">
        <ele>455.6</ele>
        <time>2022-02-24T19:08:35Z</time>
      </trkpt>
      <trkpt lat="46.49618" lon="5.62301">
        <ele>455.6</ele>
        <time>2022-02-24T19:08:36Z</time>
      </trkpt>
      <trkpt lat="46.49626" lon="5.62301">
        <ele>455</ele>
        <time>2022-02-24T19:08:37Z</time>
      </trkpt>
      <trkpt lat="46.49634" lon="5.62302">
        <ele>454.6</ele>
        <time>2022-02-24T19:08:38Z</time>
      </trkpt>
      <trkpt lat="46.49642" lon="5.62302">
        <ele>454.2</ele>
        <time>2022-02-24T19:08:39Z</time>
      </trkpt>
      <trkpt lat="46.4965" lon="5.62302">
        <ele>453.8</ele>
        <time>2022-02-24T19:08:40Z</time>
      </trkpt>
      <trkpt lat="46.49659" lon="5.62302">
        <ele>453.6</ele>
        <time>2022-02-24T19:08:41Z</time>
      </trkpt>
      <trkpt lat="46.49667" lon="5.62303">
        <ele>453.2</ele>
        <time>2022-02-24T19:08:42Z</time>
      </trkpt>
      <trkpt lat="46.49675" lon="5.62304">
        <ele>453</ele>
        <time>2022-02-24T19:08:43Z</time>
      </trkpt>
      <trkpt lat="46.49683" lon="5.62307">
        <ele>452.8</ele>
        <time>2022-02-24T19:08:44Z</time>
      </trkpt>
      <trkpt lat="46.49691" lon="5.6231">
        <ele>452.6</ele>
        <time>2022-02-24T19:08:45Z</time>
      </trkpt>
      <trkpt lat="46.49699" lon="5.62313">
        <ele>452.2</ele>
        <time>2022-02-24T19:08:46Z</time>
      </trkpt>
      <trkpt lat="46.49707" lon="5.62318">
        <ele>452</ele>
        <time>2022-02-24T19:08:47Z</time>
      </trkpt>
      <trkpt lat="46.49715" lon="5.62323">
        <ele>451.8</ele>
        <time>2022-02-24T19:08:48Z</time>
      </trkpt>
      <trkpt lat="46.49723" lon="5.62328">
        <ele>451.4</ele>
        <time>2022-02-24T19:08:49Z</time>
      </trkpt>
      <trkpt lat="46.49731" lon="5.62333">
        <ele>451.2</ele>
        <time>2022-02-24T19:08:50Z</time>
      </trkpt>
      <trkpt lat="46.49738" lon="5.62339">
        <ele>450.8</ele>
        <time>2022-02-24T19:08:51Z</time>
      </trkpt>
      <trkpt lat="46.49746" lon="5.62346">
        <ele>450.6</ele>
        <time>2022-02-24T19:08:52Z</time>
      </trkpt>
      <trkpt lat="46.49753" lon="5.62352">
        <ele>450.4</ele>
        <time>2022-02-24T19:08:53Z</time>
      </trkpt>
      <trkpt lat="46.4976" lon="5.6236">
        <ele>450</ele>
        <time>2022-02-24T19:08:54Z</time>
      </trkpt>
      <trkpt lat="46.49767" lon="5.62367">
        <ele>449.6</ele>
        <time>2022-02-24T19:08:55Z</time>
      </trkpt>
      <trkpt lat="46.49774" lon="5.62375">
        <ele>449.4</ele>
        <time>2022-02-24T19:08:56Z</time>
      </trkpt>
      <trkpt lat="46.4978" lon="5.62384">
        <ele>449</ele>
        <time>2022-02-24T19:08:57Z</time>
      </trkpt>
      <trkpt lat="46.49787" lon="5.62393">
        <ele>448.6</ele>
        <time>2022-02-24T19:08:58Z</time>
      </trkpt>
      <trkpt lat="46.49793" lon="5.62402">
        <ele>448.4</ele>
        <time>2022-02-24T19:08:59Z</time>
      </trkpt>
      <trkpt lat="46.49799" lon="5.62411">
        <ele>448.2</ele>
        <time>2022-02-24T19:09:00Z</time>
      </trkpt>
      <trkpt lat="46.49805" lon="5.6242">
        <ele>448</ele>
        <time>2022-02-24T19:09:01Z</time>
      </trkpt>
      <trkpt lat="46.49812" lon="5.62429">
        <ele>447.6</ele>
        <time>2022-02-24T19:09:02Z</time>
      </trkpt>
      <trkpt lat="46.49818" lon="5.62437">
        <ele>447.4</ele>
        <time>2022-02-24T19:09:03Z</time>
      </trkpt>
      <trkpt lat="46.49824" lon="5.62446">
        <ele>447.2</ele>
        <time>2022-02-24T19:09:04Z</time>
      </trkpt>
      <trkpt lat="46.4983" lon="5.62455">
        <ele>446.8</ele>
        <time>2022-02-24T19:09:05Z</time>
      </trkpt>
      <trkpt lat="46.49836" lon="5.62464">
        <ele>446.6</ele>
        <time>2022-02-24T19:09:06Z</time>
      </trkpt>
      <trkpt lat="46.49842" lon="5.62472">
        <ele>446.6</ele>
        <time>2022-02-24T19:09:07Z</time>
      </trkpt>
      <trkpt lat="46.49848" lon="5.6248">
        <ele>446.2</ele>
        <time>2022-02-24T19:09:08Z</time>
      </trkpt>
      <trkpt lat="46.49854" lon="5.62488">
        <ele>446.2</ele>
        <time>2022-02-24T19:09:09Z</time>
      </trkpt>
      <trkpt lat="46.4986" lon="5.62495">
        <ele>445.8</ele>
        <time>2022-02-24T19:09:10Z</time>
      </trkpt>
      <trkpt lat="46.49866" lon="5.62503">
        <ele>445.6</ele>
        <time>2022-02-24T19:09:11Z</time>
      </trkpt>
      <trkpt lat="46.49872" lon="5.62511">
        <ele>445.2</ele>
        <time>2022-02-24T19:09:12Z</time>
      </trkpt>
      <trkpt lat="46.49878" lon="5.62519">
        <ele>445</ele>
        <time>2022-02-24T19:09:13Z</time>
      </trkpt>
      <trkpt lat="46.49884" lon="5.62527">
        <ele>444.8</ele>
        <time>2022-02-24T19:09:14Z</time>
      </trkpt>
      <trkpt lat="46.49889" lon="5.62535">
        <ele>444.4</ele>
        <time>2022-02-24T19:09:15Z</time>
      </trkpt>
      <trkpt lat="46.49895" lon="5.62543">
        <ele>444.2</ele>
        <time>2022-02-24T19:09:16Z</time>
      </trkpt>
      <trkpt lat="46.499" lon="5.62551">
        <ele>444</ele>
        <time>2022-02-24T19:09:17Z</time>
      </trkpt>
      <trkpt lat="46.49905" lon="5.62559">
        <ele>444</ele>
        <time>2022-02-24T19:09:18Z</time>
      </trkpt>
      <trkpt lat="46.4991" lon="5.62566">
        <ele>443.6</ele>
        <time>2022-02-24T19:09:19Z</time>
      </trkpt>
      <trkpt lat="46.49915" lon="5.62574">
        <ele>443.4</ele>
        <time>2022-02-24T19:09:20Z</time>
      </trkpt>
      <trkpt lat="46.4992" lon="5.62583">
        <ele>443.4</ele>
        <time>2022-02-24T19:09:21Z</time>
      </trkpt>
      <trkpt lat="46.49924" lon="5.62591">
        <ele>442.8</ele>
        <time>2022-02-24T19:09:22Z</time>
      </trkpt>
      <trkpt lat="46.49929" lon="5.62599">
        <ele>442.6</ele>
        <time>2022-02-24T19:09:23Z</time>
      </trkpt>
      <trkpt lat="46.49933" lon="5.62608">
        <ele>442.2</ele>
        <time>2022-02-24T19:09:24Z</time>
      </trkpt>
      <trkpt lat="46.49937" lon="5.62617">
        <ele>441.8</ele>
        <time>2022-02-24T19:09:25Z</time>
      </trkpt>
      <trkpt lat="46.49941" lon="5.62626">
        <ele>441.6</ele>
        <time>2022-02-24T19:09:26Z</time>
      </trkpt>
      <trkpt lat="46.49945" lon="5.62635">
        <ele>441.2</ele>
        <time>2022-02-24T19:09:27Z</time>
      </trkpt>
      <trkpt lat="46.49948" lon="5.62644">
        <ele>441.2</ele>
        <time>2022-02-24T19:09:28Z</time>
      </trkpt>
      <trkpt lat="46.49952" lon="5.62652">
        <ele>440.8</ele>
        <time>2022-02-24T19:09:29Z</time>
      </trkpt>
      <trkpt lat="46.49956" lon="5.6266">
        <ele>440.6</ele>
        <time>2022-02-24T19:09:30Z</time>
      </trkpt>
      <trkpt lat="46.49959" lon="5.62668">
        <ele>440.4</ele>
        <time>2022-02-24T19:09:31Z</time>
      </trkpt>
      <trkpt lat="46.49961" lon="5.62675">
        <ele>440.2</ele>
        <time>2022-02-24T19:09:32Z</time>
      </trkpt>
      <trkpt lat="46.49963" lon="5.62682">
        <ele>440</ele>
        <time>2022-02-24T19:09:33Z</time>
      </trkpt>
      <trkpt lat="46.49964" lon="5.62689">
        <ele>440</ele>
        <time>2022-02-24T19:09:34Z</time>
      </trkpt>
      <trkpt lat="46.49964" lon="5.62697">
        <ele>439.6</ele>
        <time>2022-02-24T19:09:35Z</time>
      </trkpt>
      <trkpt lat="46.49964" lon="5.62704">
        <ele>439.6</ele>
        <time>2022-02-24T19:09:36Z</time>
      </trkpt>
      <trkpt lat="46.49962" lon="5.62711">
        <ele>439.6</ele>
        <time>2022-02-24T19:09:37Z</time>
      </trkpt>
      <trkpt lat="46.49961" lon="5.62717">
        <ele>439.6</ele>
        <time>2022-02-24T19:09:38Z</time>
      </trkpt>
      <trkpt lat="46.4996" lon="5.62724">
        <ele>439.6</ele>
        <time>2022-02-24T19:09:39Z</time>
      </trkpt>
      <trkpt lat="46.4996" lon="5.6273">
        <ele>439.6</ele>
        <time>2022-02-24T19:09:40Z</time>
      </trkpt>
      <trkpt lat="46.4996" lon="5.62736">
        <ele>439.6</ele>
        <time>2022-02-24T19:09:41Z</time>
      </trkpt>
      <trkpt lat="46.49962" lon="5.62742">
        <ele>439.2</ele>
        <time>2022-02-24T19:09:42Z</time>
      </trkpt>
      <trkpt lat="46.49965" lon="5.62747">
        <ele>439.2</ele>
        <time>2022-02-24T19:09:43Z</time>
      </trkpt>
      <trkpt lat="46.49969" lon="5.62752">
        <ele>439.2</ele>
        <time>2022-02-24T19:09:44Z</time>
      </trkpt>
      <trkpt lat="46.49973" lon="5.62755">
        <ele>439</ele>
        <time>2022-02-24T19:09:45Z</time>
      </trkpt>
      <trkpt lat="46.49977" lon="5.62758">
        <ele>439</ele>
        <time>2022-02-24T19:09:46Z</time>
      </trkpt>
      <trkpt lat="46.49982" lon="5.6276">
        <ele>438.8</ele>
        <time>2022-02-24T19:09:47Z</time>
      </trkpt>
      <trkpt lat="46.49988" lon="5.62761">
        <ele>438.8</ele>
        <time>2022-02-24T19:09:48Z</time>
      </trkpt>
      <trkpt lat="46.49993" lon="5.62761">
        <ele>438.4</ele>
        <time>2022-02-24T19:09:49Z</time>
      </trkpt>
      <trkpt lat="46.49999" lon="5.62761">
        <ele>438.4</ele>
        <time>2022-02-24T19:09:50Z</time>
      </trkpt>
      <trkpt lat="46.50004" lon="5.6276">
        <ele>438</ele>
        <time>2022-02-24T19:09:51Z</time>
      </trkpt>
      <trkpt lat="46.5001" lon="5.62759">
        <ele>437.8</ele>
        <time>2022-02-24T19:09:52Z</time>
      </trkpt>
      <trkpt lat="46.50015" lon="5.62757">
        <ele>437.8</ele>
        <time>2022-02-24T19:09:53Z</time>
      </trkpt>
      <trkpt lat="46.50021" lon="5.62756">
        <ele>437.6</ele>
        <time>2022-02-24T19:09:54Z</time>
      </trkpt>
      <trkpt lat="46.50027" lon="5.62754">
        <ele>437.6</ele>
        <time>2022-02-24T19:09:55Z</time>
      </trkpt>
      <trkpt lat="46.50033" lon="5.62752">
        <ele>437.2</ele>
        <time>2022-02-24T19:09:56Z</time>
      </trkpt>
      <trkpt lat="46.50039" lon="5.62749">
        <ele>437.2</ele>
        <time>2022-02-24T19:09:57Z</time>
      </trkpt>
      <trkpt lat="46.50045" lon="5.62746">
        <ele>437</ele>
        <time>2022-02-24T19:09:58Z</time>
      </trkpt>
      <trkpt lat="46.50051" lon="5.62743">
        <ele>437</ele>
        <time>2022-02-24T19:09:59Z</time>
      </trkpt>
      <trkpt lat="46.50057" lon="5.6274">
        <ele>436.4</ele>
        <time>2022-02-24T19:10:00Z</time>
      </trkpt>
      <trkpt lat="46.50063" lon="5.62736">
        <ele>436.4</ele>
        <time>2022-02-24T19:10:01Z</time>
      </trkpt>
      <trkpt lat="46.50069" lon="5.62732">
        <ele>436</ele>
        <time>2022-02-24T19:10:02Z</time>
      </trkpt>
      <trkpt lat="46.50075" lon="5.62727">
        <ele>435.8</ele>
        <time>2022-02-24T19:10:03Z</time>
      </trkpt>
      <trkpt lat="46.50081" lon="5.62723">
        <ele>435.6</ele>
        <time>2022-02-24T19:10:04Z</time>
      </trkpt>
      <trkpt lat="46.50087" lon="5.62718">
        <ele>435.6</ele>
        <time>2022-02-24T19:10:05Z</time>
      </trkpt>
      <trkpt lat="46.50093" lon="5.62712">
        <ele>435.4</ele>
        <time>2022-02-24T19:10:06Z</time>
      </trkpt>
      <trkpt lat="46.50099" lon="5.62707">
        <ele>435.4</ele>
        <time>2022-02-24T19:10:07Z</time>
      </trkpt>
      <trkpt lat="46.50105" lon="5.62702">
        <ele>435</ele>
        <time>2022-02-24T19:10:08Z</time>
      </trkpt>
      <trkpt lat="46.5011" lon="5.62696">
        <ele>435</ele>
        <time>2022-02-24T19:10:09Z</time>
      </trkpt>
      <trkpt lat="46.50117" lon="5.62692">
        <ele>434.4</ele>
        <time>2022-02-24T19:10:10Z</time>
      </trkpt>
      <trkpt lat="46.50122" lon="5.62686">
        <ele>434.2</ele>
        <time>2022-02-24T19:10:11Z</time>
      </trkpt>
      <trkpt lat="46.50128" lon="5.6268">
        <ele>434</ele>
        <time>2022-02-24T19:10:12Z</time>
      </trkpt>
      <trkpt lat="46.50134" lon="5.62674">
        <ele>433.6</ele>
        <time>2022-02-24T19:10:13Z</time>
      </trkpt>
      <trkpt lat="46.5014" lon="5.62667">
        <ele>433.4</ele>
        <time>2022-02-24T19:10:14Z</time>
      </trkpt>
      <trkpt lat="46.50146" lon="5.62661">
        <ele>433</ele>
        <time>2022-02-24T19:10:15Z</time>
      </trkpt>
      <trkpt lat="46.50152" lon="5.62654">
        <ele>432.8</ele>
        <time>2022-02-24T19:10:16Z</time>
      </trkpt>
      <trkpt lat="46.50159" lon="5.62647">
        <ele>432.4</ele>
        <time>2022-02-24T19:10:17Z</time>
      </trkpt>
      <trkpt lat="46.50165" lon="5.6264">
        <ele>432.2</ele>
        <time>2022-02-24T19:10:18Z</time>
      </trkpt>
      <trkpt lat="46.50171" lon="5.62633">
        <ele>432</ele>
        <time>2022-02-24T19:10:19Z</time>
      </trkpt>
      <trkpt lat="46.50178" lon="5.62626">
        <ele>431.8</ele>
        <time>2022-02-24T19:10:20Z</time>
      </trkpt>
      <trkpt lat="46.50183" lon="5.6262">
        <ele>431.6</ele>
        <time>2022-02-24T19:10:21Z</time>
      </trkpt>
      <trkpt lat="46.50189" lon="5.62614">
        <ele>431.6</ele>
        <time>2022-02-24T19:10:22Z</time>
      </trkpt>
      <trkpt lat="46.50194" lon="5.62609">
        <ele>431.2</ele>
        <time>2022-02-24T19:10:23Z</time>
      </trkpt>
      <trkpt lat="46.502" lon="5.62606">
        <ele>430.8</ele>
        <time>2022-02-24T19:10:24Z</time>
      </trkpt>
      <trkpt lat="46.50206" lon="5.62604">
        <ele>430.4</ele>
        <time>2022-02-24T19:10:25Z</time>
      </trkpt>
      <trkpt lat="46.50213" lon="5.62604">
        <ele>430</ele>
        <time>2022-02-24T19:10:26Z</time>
      </trkpt>
      <trkpt lat="46.5022" lon="5.62604">
        <ele>429.4</ele>
        <time>2022-02-24T19:10:27Z</time>
      </trkpt>
      <trkpt lat="46.50227" lon="5.62606">
        <ele>429</ele>
        <time>2022-02-24T19:10:28Z</time>
      </trkpt>
      <trkpt lat="46.50235" lon="5.62608">
        <ele>428.6</ele>
        <time>2022-02-24T19:10:29Z</time>
      </trkpt>
      <trkpt lat="46.50242" lon="5.62611">
        <ele>428.2</ele>
        <time>2022-02-24T19:10:30Z</time>
      </trkpt>
      <trkpt lat="46.5025" lon="5.62615">
        <ele>427.6</ele>
        <time>2022-02-24T19:10:31Z</time>
      </trkpt>
      <trkpt lat="46.50258" lon="5.62618">
        <ele>427.2</ele>
        <time>2022-02-24T19:10:32Z</time>
      </trkpt>
      <trkpt lat="46.50266" lon="5.62621">
        <ele>426.8</ele>
        <time>2022-02-24T19:10:33Z</time>
      </trkpt>
      <trkpt lat="46.50275" lon="5.62623">
        <ele>426.4</ele>
        <time>2022-02-24T19:10:34Z</time>
      </trkpt>
      <trkpt lat="46.50283" lon="5.62625">
        <ele>425.8</ele>
        <time>2022-02-24T19:10:35Z</time>
      </trkpt>
      <trkpt lat="46.50291" lon="5.62626">
        <ele>425.4</ele>
        <time>2022-02-24T19:10:36Z</time>
      </trkpt>
      <trkpt lat="46.50299" lon="5.62626">
        <ele>424.8</ele>
        <time>2022-02-24T19:10:37Z</time>
      </trkpt>
      <trkpt lat="46.50307" lon="5.62624">
        <ele>424.4</ele>
        <time>2022-02-24T19:10:38Z</time>
      </trkpt>
      <trkpt lat="46.50315" lon="5.62622">
        <ele>424</ele>
        <time>2022-02-24T19:10:39Z</time>
      </trkpt>
      <trkpt lat="46.50322" lon="5.62618">
        <ele>423.6</ele>
        <time>2022-02-24T19:10:40Z</time>
      </trkpt>
      <trkpt lat="46.50329" lon="5.62614">
        <ele>423</ele>
        <time>2022-02-24T19:10:41Z</time>
      </trkpt>
      <trkpt lat="46.50337" lon="5.6261">
        <ele>422.6</ele>
        <time>2022-02-24T19:10:42Z</time>
      </trkpt>
      <trkpt lat="46.50344" lon="5.62607">
        <ele>422.2</ele>
        <time>2022-02-24T19:10:43Z</time>
      </trkpt>
      <trkpt lat="46.50351" lon="5.62606">
        <ele>421.8</ele>
        <time>2022-02-24T19:10:44Z</time>
      </trkpt>
      <trkpt lat="46.50358" lon="5.62606">
        <ele>421.4</ele>
        <time>2022-02-24T19:10:45Z</time>
      </trkpt>
      <trkpt lat="46.50364" lon="5.62607">
        <ele>421</ele>
        <time>2022-02-24T19:10:46Z</time>
      </trkpt>
      <trkpt lat="46.5037" lon="5.6261">
        <ele>420.6</ele>
        <time>2022-02-24T19:10:47Z</time>
      </trkpt>
      <trkpt lat="46.50375" lon="5.62613">
        <ele>420</ele>
        <time>2022-02-24T19:10:48Z</time>
      </trkpt>
      <trkpt lat="46.50379" lon="5.62619">
        <ele>419.6</ele>
        <time>2022-02-24T19:10:49Z</time>
      </trkpt>
      <trkpt lat="46.50383" lon="5.62627">
        <ele>419</ele>
        <time>2022-02-24T19:10:50Z</time>
      </trkpt>
      <trkpt lat="46.50386" lon="5.62635">
        <ele>418.6</ele>
        <time>2022-02-24T19:10:51Z</time>
      </trkpt>
      <trkpt lat="46.50386" lon="5.62645">
        <ele>418.2</ele>
        <time>2022-02-24T19:10:52Z</time>
      </trkpt>
      <trkpt lat="46.50386" lon="5.62655">
        <ele>417.8</ele>
        <time>2022-02-24T19:10:53Z</time>
      </trkpt>
      <trkpt lat="46.50384" lon="5.62665">
        <ele>417.4</ele>
        <time>2022-02-24T19:10:54Z</time>
      </trkpt>
      <trkpt lat="46.50383" lon="5.62676">
        <ele>417</ele>
        <time>2022-02-24T19:10:55Z</time>
      </trkpt>
      <trkpt lat="46.50381" lon="5.62687">
        <ele>416.6</ele>
        <time>2022-02-24T19:10:56Z</time>
      </trkpt>
      <trkpt lat="46.50379" lon="5.62697">
        <ele>416</ele>
        <time>2022-02-24T19:10:57Z</time>
      </trkpt>
      <trkpt lat="46.50376" lon="5.62707">
        <ele>415.6</ele>
        <time>2022-02-24T19:10:58Z</time>
      </trkpt>
      <trkpt lat="46.50373" lon="5.62717">
        <ele>415</ele>
        <time>2022-02-24T19:10:59Z</time>
      </trkpt>
      <trkpt lat="46.50369" lon="5.62727">
        <ele>414.6</ele>
        <time>2022-02-24T19:11:00Z</time>
      </trkpt>
      <trkpt lat="46.50365" lon="5.62736">
        <ele>414</ele>
        <time>2022-02-24T19:11:01Z</time>
      </trkpt>
      <trkpt lat="46.5036" lon="5.62744">
        <ele>413.6</ele>
        <time>2022-02-24T19:11:02Z</time>
      </trkpt>
      <trkpt lat="46.50355" lon="5.62752">
        <ele>413</ele>
        <time>2022-02-24T19:11:03Z</time>
      </trkpt>
      <trkpt lat="46.50349" lon="5.6276">
        <ele>412.4</ele>
        <time>2022-02-24T19:11:04Z</time>
      </trkpt>
      <trkpt lat="46.50345" lon="5.62769">
        <ele>412</ele>
        <time>2022-02-24T19:11:05Z</time>
      </trkpt>
      <trkpt lat="46.5034" lon="5.62776">
        <ele>411.4</ele>
        <time>2022-02-24T19:11:06Z</time>
      </trkpt>
      <trkpt lat="46.50336" lon="5.62784">
        <ele>411</ele>
        <time>2022-02-24T19:11:07Z</time>
      </trkpt>
      <trkpt lat="46.50331" lon="5.62792">
        <ele>410.4</ele>
        <time>2022-02-24T19:11:08Z</time>
      </trkpt>
      <trkpt lat="46.50328" lon="5.628">
        <ele>410</ele>
        <time>2022-02-24T19:11:09Z</time>
      </trkpt>
      <trkpt lat="46.50326" lon="5.62808">
        <ele>409.6</ele>
        <time>2022-02-24T19:11:10Z</time>
      </trkpt>
      <trkpt lat="46.50324" lon="5.62817">
        <ele>409</ele>
        <time>2022-02-24T19:11:11Z</time>
      </trkpt>
      <trkpt lat="46.50323" lon="5.62827">
        <ele>408.6</ele>
        <time>2022-02-24T19:11:12Z</time>
      </trkpt>
      <trkpt lat="46.50324" lon="5.62836">
        <ele>408</ele>
        <time>2022-02-24T19:11:13Z</time>
      </trkpt>
      <trkpt lat="46.50325" lon="5.62845">
        <ele>407.6</ele>
        <time>2022-02-24T19:11:14Z</time>
      </trkpt>
      <trkpt lat="46.50327" lon="5.62853">
        <ele>407.2</ele>
        <time>2022-02-24T19:11:15Z</time>
      </trkpt>
      <trkpt lat="46.50329" lon="5.62862">
        <ele>406.8</ele>
        <time>2022-02-24T19:11:16Z</time>
      </trkpt>
      <trkpt lat="46.50332" lon="5.62869">
        <ele>406.4</ele>
        <time>2022-02-24T19:11:17Z</time>
      </trkpt>
      <trkpt lat="46.50336" lon="5.62876">
        <ele>406</ele>
        <time>2022-02-24T19:11:18Z</time>
      </trkpt>
      <trkpt lat="46.50341" lon="5.62883">
        <ele>405.4</ele>
        <time>2022-02-24T19:11:19Z</time>
      </trkpt>
      <trkpt lat="46.50347" lon="5.6289">
        <ele>404.8</ele>
        <time>2022-02-24T19:11:20Z</time>
      </trkpt>
      <trkpt lat="46.50353" lon="5.62895">
        <ele>404.4</ele>
        <time>2022-02-24T19:11:21Z</time>
      </trkpt>
      <trkpt lat="46.5036" lon="5.62899">
        <ele>403.8</ele>
        <time>2022-02-24T19:11:22Z</time>
      </trkpt>
      <trkpt lat="46.50368" lon="5.62902">
        <ele>403.4</ele>
        <time>2022-02-24T19:11:23Z</time>
      </trkpt>
      <trkpt lat="46.50375" lon="5.62905">
        <ele>402.8</ele>
        <time>2022-02-24T19:11:24Z</time>
      </trkpt>
      <trkpt lat="46.50383" lon="5.62908">
        <ele>402.2</ele>
        <time>2022-02-24T19:11:25Z</time>
      </trkpt>
      <trkpt lat="46.50391" lon="5.62911">
        <ele>401.8</ele>
        <time>2022-02-24T19:11:26Z</time>
      </trkpt>
      <trkpt lat="46.50398" lon="5.62916">
        <ele>401.2</ele>
        <time>2022-02-24T19:11:27Z</time>
      </trkpt>
      <trkpt lat="46.50406" lon="5.6292">
        <ele>400.4</ele>
        <time>2022-02-24T19:11:28Z</time>
      </trkpt>
      <trkpt lat="46.50413" lon="5.62925">
        <ele>399.8</ele>
        <time>2022-02-24T19:11:29Z</time>
      </trkpt>
      <trkpt lat="46.5042" lon="5.62931">
        <ele>399.2</ele>
        <time>2022-02-24T19:11:30Z</time>
      </trkpt>
      <trkpt lat="46.50427" lon="5.62936">
        <ele>398.4</ele>
        <time>2022-02-24T19:11:31Z</time>
      </trkpt>
      <trkpt lat="46.50434" lon="5.62941">
        <ele>397.8</ele>
        <time>2022-02-24T19:11:32Z</time>
      </trkpt>
      <trkpt lat="46.50441" lon="5.62946">
        <ele>397.2</ele>
        <time>2022-02-24T19:11:33Z</time>
      </trkpt>
      <trkpt lat="46.50447" lon="5.62951">
        <ele>396.6</ele>
        <time>2022-02-24T19:11:34Z</time>
      </trkpt>
      <trkpt lat="46.50454" lon="5.62956">
        <ele>396</ele>
        <time>2022-02-24T19:11:35Z</time>
      </trkpt>
      <trkpt lat="46.5046" lon="5.62961">
        <ele>395.4</ele>
        <time>2022-02-24T19:11:36Z</time>
      </trkpt>
      <trkpt lat="46.50466" lon="5.62967">
        <ele>394.8</ele>
        <time>2022-02-24T19:11:37Z</time>
      </trkpt>
      <trkpt lat="46.50472" lon="5.62973">
        <ele>394.2</ele>
        <time>2022-02-24T19:11:38Z</time>
      </trkpt>
      <trkpt lat="46.50476" lon="5.6298">
        <ele>393.4</ele>
        <time>2022-02-24T19:11:39Z</time>
      </trkpt>
      <trkpt lat="46.5048" lon="5.62989">
        <ele>392.8</ele>
        <time>2022-02-24T19:11:40Z</time>
      </trkpt>
      <trkpt lat="46.50484" lon="5.62998">
        <ele>392.2</ele>
        <time>2022-02-24T19:11:41Z</time>
      </trkpt>
      <trkpt lat="46.50487" lon="5.63008">
        <ele>391.6</ele>
        <time>2022-02-24T19:11:42Z</time>
      </trkpt>
      <trkpt lat="46.5049" lon="5.63019">
        <ele>391</ele>
        <time>2022-02-24T19:11:43Z</time>
      </trkpt>
      <trkpt lat="46.50493" lon="5.63029">
        <ele>390.6</ele>
        <time>2022-02-24T19:11:44Z</time>
      </trkpt>
      <trkpt lat="46.50495" lon="5.63039">
        <ele>390.2</ele>
        <time>2022-02-24T19:11:45Z</time>
      </trkpt>
      <trkpt lat="46.50496" lon="5.6305">
        <ele>389.8</ele>
        <time>2022-02-24T19:11:46Z</time>
      </trkpt>
      <trkpt lat="46.50497" lon="5.63061">
        <ele>389.4</ele>
        <time>2022-02-24T19:11:47Z</time>
      </trkpt>
      <trkpt lat="46.50498" lon="5.63071">
        <ele>388.8</ele>
        <time>2022-02-24T19:11:48Z</time>
      </trkpt>
      <trkpt lat="46.505" lon="5.63082">
        <ele>388.4</ele>
        <time>2022-02-24T19:11:49Z</time>
      </trkpt>
      <trkpt lat="46.50501" lon="5.63093">
        <ele>388.2</ele>
        <time>2022-02-24T19:11:50Z</time>
      </trkpt>
      <trkpt lat="46.50502" lon="5.63104">
        <ele>387.8</ele>
        <time>2022-02-24T19:11:51Z</time>
      </trkpt>
      <trkpt lat="46.50503" lon="5.63114">
        <ele>387.6</ele>
        <time>2022-02-24T19:11:52Z</time>
      </trkpt>
      <trkpt lat="46.50504" lon="5.63123">
        <ele>387.2</ele>
        <time>2022-02-24T19:11:53Z</time>
      </trkpt>
      <trkpt lat="46.50506" lon="5.63131">
        <ele>387</ele>
        <time>2022-02-24T19:11:54Z</time>
      </trkpt>
      <trkpt lat="46.50509" lon="5.63138">
        <ele>387</ele>
        <time>2022-02-24T19:11:55Z</time>
      </trkpt>
      <trkpt lat="46.50514" lon="5.63143">
        <ele>387</ele>
        <time>2022-02-24T19:11:56Z</time>
      </trkpt>
      <trkpt lat="46.50519" lon="5.63146">
        <ele>387</ele>
        <time>2022-02-24T19:11:57Z</time>
      </trkpt>
      <trkpt lat="46.50524" lon="5.63149">
        <ele>387</ele>
        <time>2022-02-24T19:11:58Z</time>
      </trkpt>
      <trkpt lat="46.5053" lon="5.63152">
        <ele>387</ele>
        <time>2022-02-24T19:11:59Z</time>
      </trkpt>
      <trkpt lat="46.50535" lon="5.63153">
        <ele>387</ele>
        <time>2022-02-24T19:12:00Z</time>
      </trkpt>
      <trkpt lat="46.5054" lon="5.63154">
        <ele>387</ele>
        <time>2022-02-24T19:12:01Z</time>
      </trkpt>
      <trkpt lat="46.50546" lon="5.63155">
        <ele>387</ele>
        <time>2022-02-24T19:12:02Z</time>
      </trkpt>
      <trkpt lat="46.50551" lon="5.63155">
        <ele>387</ele>
        <time>2022-02-24T19:12:03Z</time>
      </trkpt>
      <trkpt lat="46.50556" lon="5.63155">
        <ele>387</ele>
        <time>2022-02-24T19:12:04Z</time>
      </trkpt>
      <trkpt lat="46.50561" lon="5.63155">
        <ele>387</ele>
        <time>2022-02-24T19:12:05Z</time>
      </trkpt>
      <trkpt lat="46.50565" lon="5.63154">
        <ele>387</ele>
        <time>2022-02-24T19:12:06Z</time>
      </trkpt>
      <trkpt lat="46.5057" lon="5.63153">
        <ele>387.4</ele>
        <time>2022-02-24T19:12:07Z</time>
      </trkpt>
      <trkpt lat="46.50574" lon="5.63152">
        <ele>387.4</ele>
        <time>2022-02-24T19:12:08Z</time>
      </trkpt>
      <trkpt lat="46.50579" lon="5.63151">
        <ele>387.6</ele>
        <time>2022-02-24T19:12:09Z</time>
      </trkpt>
      <trkpt lat="46.50583" lon="5.6315">
        <ele>387.6</ele>
        <time>2022-02-24T19:12:10Z</time>
      </trkpt>
      <trkpt lat="46.50586" lon="5.63149">
        <ele>388</ele>
        <time>2022-02-24T19:12:11Z</time>
      </trkpt>
      <trkpt lat="46.5059" lon="5.63148">
        <ele>388</ele>
        <time>2022-02-24T19:12:12Z</time>
      </trkpt>
      <trkpt lat="46.50593" lon="5.63147">
        <ele>388.2</ele>
        <time>2022-02-24T19:12:13Z</time>
      </trkpt>
      <trkpt lat="46.50596" lon="5.63147">
        <ele>388.2</ele>
        <time>2022-02-24T19:12:14Z</time>
      </trkpt>
      <trkpt lat="46.50599" lon="5.63146">
        <ele>388.4</ele>
        <time>2022-02-24T19:12:15Z</time>
      </trkpt>
      <trkpt lat="46.50602" lon="5.63146">
        <ele>388.4</ele>
        <time>2022-02-24T19:12:16Z</time>
      </trkpt>
      <trkpt lat="46.50605" lon="5.63146">
        <ele>388.8</ele>
        <time>2022-02-24T19:12:17Z</time>
      </trkpt>
      <trkpt lat="46.50607" lon="5.63145">
        <ele>388.8</ele>
        <time>2022-02-24T19:12:18Z</time>
      </trkpt>
      <trkpt lat="46.5061" lon="5.63145">
        <ele>389.2</ele>
        <time>2022-02-24T19:12:19Z</time>
      </trkpt>
      <trkpt lat="46.50613" lon="5.63144">
        <ele>389.2</ele>
        <time>2022-02-24T19:12:20Z</time>
      </trkpt>
      <trkpt lat="46.50616" lon="5.63143">
        <ele>389.2</ele>
        <time>2022-02-24T19:12:21Z</time>
      </trkpt>
      <trkpt lat="46.50618" lon="5.63142">
        <ele>389.4</ele>
        <time>2022-02-24T19:12:22Z</time>
      </trkpt>
      <trkpt lat="46.50621" lon="5.63142">
        <ele>389.4</ele>
        <time>2022-02-24T19:12:23Z</time>
      </trkpt>
      <trkpt lat="46.50625" lon="5.63141">
        <ele>389.8</ele>
        <time>2022-02-24T19:12:24Z</time>
      </trkpt>
      <trkpt lat="46.50628" lon="5.63141">
        <ele>389.8</ele>
        <time>2022-02-24T19:12:25Z</time>
      </trkpt>
      <trkpt lat="46.5063" lon="5.6314">
        <ele>390</ele>
        <time>2022-02-24T19:12:26Z</time>
      </trkpt>
      <trkpt lat="46.50633" lon="5.63139">
        <ele>390</ele>
        <time>2022-02-24T19:12:27Z</time>
      </trkpt>
      <trkpt lat="46.50636" lon="5.63138">
        <ele>390.4</ele>
        <time>2022-02-24T19:12:28Z</time>
      </trkpt>
      <trkpt lat="46.50639" lon="5.63138">
        <ele>390.4</ele>
        <time>2022-02-24T19:12:29Z</time>
      </trkpt>
      <trkpt lat="46.50641" lon="5.63137">
        <ele>390.8</ele>
        <time>2022-02-24T19:12:30Z</time>
      </trkpt>
      <trkpt lat="46.50644" lon="5.63137">
        <ele>391</ele>
        <time>2022-02-24T19:12:31Z</time>
      </trkpt>
      <trkpt lat="46.50647" lon="5.63137">
        <ele>391</ele>
        <time>2022-02-24T19:12:32Z</time>
      </trkpt>
      <trkpt lat="46.5065" lon="5.63136">
        <ele>391.2</ele>
        <time>2022-02-24T19:12:33Z</time>
      </trkpt>
      <trkpt lat="46.50653" lon="5.63136">
        <ele>391.2</ele>
        <time>2022-02-24T19:12:34Z</time>
      </trkpt>
      <trkpt lat="46.50657" lon="5.63137">
        <ele>391.2</ele>
        <time>2022-02-24T19:12:35Z</time>
      </trkpt>
      <trkpt lat="46.5066" lon="5.63137">
        <ele>391.6</ele>
        <time>2022-02-24T19:12:36Z</time>
      </trkpt>
      <trkpt lat="46.50663" lon="5.63137">
        <ele>391.8</ele>
        <time>2022-02-24T19:12:37Z</time>
      </trkpt>
      <trkpt lat="46.50667" lon="5.63137">
        <ele>392.2</ele>
        <time>2022-02-24T19:12:38Z</time>
      </trkpt>
      <trkpt lat="46.5067" lon="5.63137">
        <ele>392.4</ele>
        <time>2022-02-24T19:12:39Z</time>
      </trkpt>
      <trkpt lat="46.50674" lon="5.63137">
        <ele>392.4</ele>
        <time>2022-02-24T19:12:40Z</time>
      </trkpt>
      <trkpt lat="46.50677" lon="5.63137">
        <ele>392.8</ele>
        <time>2022-02-24T19:12:41Z</time>
      </trkpt>
      <trkpt lat="46.5068" lon="5.63137">
        <ele>393</ele>
        <time>2022-02-24T19:12:42Z</time>
      </trkpt>
      <trkpt lat="46.50683" lon="5.63137">
        <ele>393.2</ele>
        <time>2022-02-24T19:12:43Z</time>
      </trkpt>
      <trkpt lat="46.50686" lon="5.63138">
        <ele>393.4</ele>
        <time>2022-02-24T19:12:44Z</time>
      </trkpt>
      <trkpt lat="46.50689" lon="5.63138">
        <ele>393.4</ele>
        <time>2022-02-24T19:12:45Z</time>
      </trkpt>
      <trkpt lat="46.50692" lon="5.63139">
        <ele>393.8</ele>
        <time>2022-02-24T19:12:46Z</time>
      </trkpt>
      <trkpt lat="46.50695" lon="5.6314">
        <ele>393.8</ele>
        <time>2022-02-24T19:12:47Z</time>
      </trkpt>
      <trkpt lat="46.50698" lon="5.63141">
        <ele>394</ele>
        <time>2022-02-24T19:12:48Z</time>
      </trkpt>
      <trkpt lat="46.50701" lon="5.63142">
        <ele>394</ele>
        <time>2022-02-24T19:12:49Z</time>
      </trkpt>
      <trkpt lat="46.50704" lon="5.63143">
        <ele>394.2</ele>
        <time>2022-02-24T19:12:50Z</time>
      </trkpt>
      <trkpt lat="46.50707" lon="5.63144">
        <ele>394.2</ele>
        <time>2022-02-24T19:12:51Z</time>
      </trkpt>
      <trkpt lat="46.5071" lon="5.63145">
        <ele>394.6</ele>
        <time>2022-02-24T19:12:52Z</time>
      </trkpt>
      <trkpt lat="46.50713" lon="5.63146">
        <ele>394.6</ele>
        <time>2022-02-24T19:12:53Z</time>
      </trkpt>
      <trkpt lat="46.50716" lon="5.63147">
        <ele>395</ele>
        <time>2022-02-24T19:12:54Z</time>
      </trkpt>
      <trkpt lat="46.50719" lon="5.63149">
        <ele>395</ele>
        <time>2022-02-24T19:12:55Z</time>
      </trkpt>
      <trkpt lat="46.50722" lon="5.6315">
        <ele>395.2</ele>
        <time>2022-02-24T19:12:56Z</time>
      </trkpt>
      <trkpt lat="46.50725" lon="5.63151">
        <ele>395.2</ele>
        <time>2022-02-24T19:12:57Z</time>
      </trkpt>
      <trkpt lat="46.50728" lon="5.63153">
        <ele>395.6</ele>
        <time>2022-02-24T19:12:58Z</time>
      </trkpt>
      <trkpt lat="46.50731" lon="5.63155">
        <ele>395.6</ele>
        <time>2022-02-24T19:12:59Z</time>
      </trkpt>
      <trkpt lat="46.50733" lon="5.63157">
        <ele>395.8</ele>
        <time>2022-02-24T19:13:00Z</time>
      </trkpt>
      <trkpt lat="46.50736" lon="5.63159">
        <ele>395.8</ele>
        <time>2022-02-24T19:13:01Z</time>
      </trkpt>
      <trkpt lat="46.50739" lon="5.63161">
        <ele>396.2</ele>
        <time>2022-02-24T19:13:02Z</time>
      </trkpt>
      <trkpt lat="46.50741" lon="5.63164">
        <ele>396.4</ele>
        <time>2022-02-24T19:13:03Z</time>
      </trkpt>
      <trkpt lat="46.50744" lon="5.63166">
        <ele>396.4</ele>
        <time>2022-02-24T19:13:04Z</time>
      </trkpt>
      <trkpt lat="46.50747" lon="5.63169">
        <ele>396.6</ele>
        <time>2022-02-24T19:13:05Z</time>
      </trkpt>
      <trkpt lat="46.5075" lon="5.63171">
        <ele>396.6</ele>
        <time>2022-02-24T19:13:06Z</time>
      </trkpt>
      <trkpt lat="46.50752" lon="5.63174">
        <ele>397</ele>
        <time>2022-02-24T19:13:07Z</time>
      </trkpt>
      <trkpt lat="46.50755" lon="5.63176">
        <ele>397</ele>
        <time>2022-02-24T19:13:08Z</time>
      </trkpt>
      <trkpt lat="46.50757" lon="5.63179">
        <ele>397.4</ele>
        <time>2022-02-24T19:13:09Z</time>
      </trkpt>
      <trkpt lat="46.50759" lon="5.63182">
        <ele>397.4</ele>
        <time>2022-02-24T19:13:10Z</time>
      </trkpt>
      <trkpt lat="46.50761" lon="5.63185">
        <ele>397.8</ele>
        <time>2022-02-24T19:13:11Z</time>
      </trkpt>
      <trkpt lat="46.50764" lon="5.63188">
        <ele>397.8</ele>
        <time>2022-02-24T19:13:12Z</time>
      </trkpt>
      <trkpt lat="46.50766" lon="5.63191">
        <ele>398</ele>
        <time>2022-02-24T19:13:13Z</time>
      </trkpt>
      <trkpt lat="46.50768" lon="5.63194">
        <ele>398</ele>
        <time>2022-02-24T19:13:14Z</time>
      </trkpt>
      <trkpt lat="46.50771" lon="5.63197">
        <ele>398.4</ele>
        <time>2022-02-24T19:13:15Z</time>
      </trkpt>
      <trkpt lat="46.50773" lon="5.632">
        <ele>398.4</ele>
        <time>2022-02-24T19:13:16Z</time>
      </trkpt>
      <trkpt lat="46.50775" lon="5.63204">
        <ele>398.6</ele>
        <time>2022-02-24T19:13:17Z</time>
      </trkpt>
      <trkpt lat="46.50777" lon="5.63207">
        <ele>398.6</ele>
        <time>2022-02-24T19:13:18Z</time>
      </trkpt>
      <trkpt lat="46.5078" lon="5.63211">
        <ele>398.6</ele>
        <time>2022-02-24T19:13:19Z</time>
      </trkpt>
      <trkpt lat="46.50785" lon="5.63217">
        <ele>398.6</ele>
        <time>2022-02-24T19:13:20Z</time>
      </trkpt>
      <trkpt lat="46.50787" lon="5.6322">
        <ele>399</ele>
        <time>2022-02-24T19:13:21Z</time>
      </trkpt>
      <trkpt lat="46.5079" lon="5.63224">
        <ele>399</ele>
        <time>2022-02-24T19:13:22Z</time>
      </trkpt>
      <trkpt lat="46.50792" lon="5.63227">
        <ele>399</ele>
        <time>2022-02-24T19:13:23Z</time>
      </trkpt>
      <trkpt lat="46.50795" lon="5.63231">
        <ele>399.4</ele>
        <time>2022-02-24T19:13:24Z</time>
      </trkpt>
      <trkpt lat="46.50798" lon="5.63234">
        <ele>399.4</ele>
        <time>2022-02-24T19:13:25Z</time>
      </trkpt>
      <trkpt lat="46.508" lon="5.63238">
        <ele>399.6</ele>
        <time>2022-02-24T19:13:26Z</time>
      </trkpt>
      <trkpt lat="46.50803" lon="5.63241">
        <ele>399.6</ele>
        <time>2022-02-24T19:13:27Z</time>
      </trkpt>
      <trkpt lat="46.50805" lon="5.63245">
        <ele>399.6</ele>
        <time>2022-02-24T19:13:28Z</time>
      </trkpt>
      <trkpt lat="46.50808" lon="5.63248">
        <ele>399.8</ele>
        <time>2022-02-24T19:13:29Z</time>
      </trkpt>
      <trkpt lat="46.5081" lon="5.63252">
        <ele>399.8</ele>
        <time>2022-02-24T19:13:30Z</time>
      </trkpt>
      <trkpt lat="46.50812" lon="5.63256">
        <ele>399.8</ele>
        <time>2022-02-24T19:13:31Z</time>
      </trkpt>
      <trkpt lat="46.50815" lon="5.63259">
        <ele>400.2</ele>
        <time>2022-02-24T19:13:32Z</time>
      </trkpt>
      <trkpt lat="46.50817" lon="5.63263">
        <ele>400.2</ele>
        <time>2022-02-24T19:13:33Z</time>
      </trkpt>
      <trkpt lat="46.5082" lon="5.63266">
        <ele>400.4</ele>
        <time>2022-02-24T19:13:34Z</time>
      </trkpt>
      <trkpt lat="46.50822" lon="5.6327">
        <ele>400.4</ele>
        <time>2022-02-24T19:13:35Z</time>
      </trkpt>
      <trkpt lat="46.50825" lon="5.63273">
        <ele>400.4</ele>
        <time>2022-02-24T19:13:36Z</time>
      </trkpt>
      <trkpt lat="46.50828" lon="5.63276">
        <ele>400.6</ele>
        <time>2022-02-24T19:13:37Z</time>
      </trkpt>
      <trkpt lat="46.50831" lon="5.63279">
        <ele>400.6</ele>
        <time>2022-02-24T19:13:38Z</time>
      </trkpt>
      <trkpt lat="46.50834" lon="5.63282">
        <ele>400.6</ele>
        <time>2022-02-24T19:13:39Z</time>
      </trkpt>
      <trkpt lat="46.50837" lon="5.63285">
        <ele>400.8</ele>
        <time>2022-02-24T19:13:40Z</time>
      </trkpt>
      <trkpt lat="46.5084" lon="5.63288">
        <ele>400.8</ele>
        <time>2022-02-24T19:13:41Z</time>
      </trkpt>
      <trkpt lat="46.50843" lon="5.6329">
        <ele>400.8</ele>
        <time>2022-02-24T19:13:42Z</time>
      </trkpt>
      <trkpt lat="46.50847" lon="5.63293">
        <ele>400.8</ele>
        <time>2022-02-24T19:13:43Z</time>
      </trkpt>
      <trkpt lat="46.5085" lon="5.63294">
        <ele>401.2</ele>
        <time>2022-02-24T19:13:44Z</time>
      </trkpt>
      <trkpt lat="46.50854" lon="5.63296">
        <ele>401.2</ele>
        <time>2022-02-24T19:13:45Z</time>
      </trkpt>
      <trkpt lat="46.50857" lon="5.63297">
        <ele>401.2</ele>
        <time>2022-02-24T19:13:46Z</time>
      </trkpt>
      <trkpt lat="46.5086" lon="5.63299">
        <ele>401.4</ele>
        <time>2022-02-24T19:13:47Z</time>
      </trkpt>
      <trkpt lat="46.50864" lon="5.633">
        <ele>401.4</ele>
        <time>2022-02-24T19:13:48Z</time>
      </trkpt>
      <trkpt lat="46.50867" lon="5.63301">
        <ele>401.8</ele>
        <time>2022-02-24T19:13:49Z</time>
      </trkpt>
      <trkpt lat="46.50871" lon="5.63302">
        <ele>401.8</ele>
        <time>2022-02-24T19:13:50Z</time>
      </trkpt>
      <trkpt lat="46.50874" lon="5.63304">
        <ele>402.2</ele>
        <time>2022-02-24T19:13:51Z</time>
      </trkpt>
      <trkpt lat="46.50878" lon="5.63306">
        <ele>402.2</ele>
        <time>2022-02-24T19:13:52Z</time>
      </trkpt>
      <trkpt lat="46.50881" lon="5.63307">
        <ele>402.2</ele>
        <time>2022-02-24T19:13:53Z</time>
      </trkpt>
      <trkpt lat="46.50884" lon="5.63309">
        <ele>402.4</ele>
        <time>2022-02-24T19:13:54Z</time>
      </trkpt>
      <trkpt lat="46.50888" lon="5.6331">
        <ele>402.4</ele>
        <time>2022-02-24T19:13:55Z</time>
      </trkpt>
      <trkpt lat="46.50891" lon="5.63312">
        <ele>402.6</ele>
        <time>2022-02-24T19:13:56Z</time>
      </trkpt>
      <trkpt lat="46.50894" lon="5.63314">
        <ele>402.6</ele>
        <time>2022-02-24T19:13:57Z</time>
      </trkpt>
      <trkpt lat="46.50898" lon="5.63315">
        <ele>402.8</ele>
        <time>2022-02-24T19:13:58Z</time>
      </trkpt>
      <trkpt lat="46.50901" lon="5.63317">
        <ele>402.8</ele>
        <time>2022-02-24T19:13:59Z</time>
      </trkpt>
      <trkpt lat="46.50904" lon="5.63318">
        <ele>403.2</ele>
        <time>2022-02-24T19:14:00Z</time>
      </trkpt>
      <trkpt lat="46.50907" lon="5.63319">
        <ele>403.2</ele>
        <time>2022-02-24T19:14:01Z</time>
      </trkpt>
      <trkpt lat="46.5091" lon="5.6332">
        <ele>403.6</ele>
        <time>2022-02-24T19:14:02Z</time>
      </trkpt>
      <trkpt lat="46.50913" lon="5.63321">
        <ele>403.6</ele>
        <time>2022-02-24T19:14:03Z</time>
      </trkpt>
      <trkpt lat="46.50916" lon="5.63323">
        <ele>403.8</ele>
        <time>2022-02-24T19:14:04Z</time>
      </trkpt>
      <trkpt lat="46.50919" lon="5.63324">
        <ele>403.8</ele>
        <time>2022-02-24T19:14:05Z</time>
      </trkpt>
      <trkpt lat="46.50922" lon="5.63325">
        <ele>403.8</ele>
        <time>2022-02-24T19:14:06Z</time>
      </trkpt>
      <trkpt lat="46.50926" lon="5.63327">
        <ele>404</ele>
        <time>2022-02-24T19:14:07Z</time>
      </trkpt>
      <trkpt lat="46.50929" lon="5.63328">
        <ele>404</ele>
        <time>2022-02-24T19:14:08Z</time>
      </trkpt>
      <trkpt lat="46.50932" lon="5.6333">
        <ele>404.4</ele>
        <time>2022-02-24T19:14:09Z</time>
      </trkpt>
      <trkpt lat="46.50935" lon="5.63332">
        <ele>404.4</ele>
        <time>2022-02-24T19:14:10Z</time>
      </trkpt>
      <trkpt lat="46.50938" lon="5.63334">
        <ele>404.4</ele>
        <time>2022-02-24T19:14:11Z</time>
      </trkpt>
      <trkpt lat="46.50941" lon="5.63335">
        <ele>404.6</ele>
        <time>2022-02-24T19:14:12Z</time>
      </trkpt>
      <trkpt lat="46.50944" lon="5.63337">
        <ele>404.6</ele>
        <time>2022-02-24T19:14:13Z</time>
      </trkpt>
      <trkpt lat="46.50947" lon="5.63338">
        <ele>405</ele>
        <time>2022-02-24T19:14:14Z</time>
      </trkpt>
      <trkpt lat="46.50951" lon="5.63339">
        <ele>405</ele>
        <time>2022-02-24T19:14:15Z</time>
      </trkpt>
      <trkpt lat="46.50954" lon="5.6334">
        <ele>405</ele>
        <time>2022-02-24T19:14:16Z</time>
      </trkpt>
      <trkpt lat="46.50958" lon="5.63341">
        <ele>405.2</ele>
        <time>2022-02-24T19:14:17Z</time>
      </trkpt>
      <trkpt lat="46.50962" lon="5.63342">
        <ele>405.2</ele>
        <time>2022-02-24T19:14:18Z</time>
      </trkpt>
      <trkpt lat="46.50965" lon="5.63343">
        <ele>405.2</ele>
        <time>2022-02-24T19:14:19Z</time>
      </trkpt>
      <trkpt lat="46.50968" lon="5.63344">
        <ele>405.2</ele>
        <time>2022-02-24T19:14:20Z</time>
      </trkpt>
      <trkpt lat="46.50972" lon="5.63345">
        <ele>405.4</ele>
        <time>2022-02-24T19:14:21Z</time>
      </trkpt>
      <trkpt lat="46.50975" lon="5.63346">
        <ele>405.4</ele>
        <time>2022-02-24T19:14:22Z</time>
      </trkpt>
      <trkpt lat="46.50978" lon="5.63347">
        <ele>405.6</ele>
        <time>2022-02-24T19:14:23Z</time>
      </trkpt>
      <trkpt lat="46.50982" lon="5.63348">
        <ele>405.6</ele>
        <time>2022-02-24T19:14:24Z</time>
      </trkpt>
      <trkpt lat="46.50985" lon="5.63349">
        <ele>406</ele>
        <time>2022-02-24T19:14:25Z</time>
      </trkpt>
      <trkpt lat="46.50988" lon="5.63351">
        <ele>406</ele>
        <time>2022-02-24T19:14:26Z</time>
      </trkpt>
      <trkpt lat="46.50991" lon="5.63352">
        <ele>406.2</ele>
        <time>2022-02-24T19:14:27Z</time>
      </trkpt>
      <trkpt lat="46.50995" lon="5.63353">
        <ele>406.2</ele>
        <time>2022-02-24T19:14:28Z</time>
      </trkpt>
      <trkpt lat="46.50998" lon="5.63353">
        <ele>406.4</ele>
        <time>2022-02-24T19:14:29Z</time>
      </trkpt>
      <trkpt lat="46.51001" lon="5.63354">
        <ele>406.4</ele>
        <time>2022-02-24T19:14:30Z</time>
      </trkpt>
      <trkpt lat="46.51004" lon="5.63355">
        <ele>406.8</ele>
        <time>2022-02-24T19:14:31Z</time>
      </trkpt>
      <trkpt lat="46.51008" lon="5.63356">
        <ele>406.8</ele>
        <time>2022-02-24T19:14:32Z</time>
      </trkpt>
      <trkpt lat="46.51011" lon="5.63357">
        <ele>406.8</ele>
        <time>2022-02-24T19:14:33Z</time>
      </trkpt>
      <trkpt lat="46.51014" lon="5.63358">
        <ele>406.8</ele>
        <time>2022-02-24T19:14:34Z</time>
      </trkpt>
      <trkpt lat="46.51018" lon="5.63358">
        <ele>407</ele>
        <time>2022-02-24T19:14:35Z</time>
      </trkpt>
      <trkpt lat="46.51022" lon="5.63359">
        <ele>407</ele>
        <time>2022-02-24T19:14:36Z</time>
      </trkpt>
      <trkpt lat="46.51025" lon="5.6336">
        <ele>407.2</ele>
        <time>2022-02-24T19:14:37Z</time>
      </trkpt>
      <trkpt lat="46.51029" lon="5.63362">
        <ele>407.2</ele>
        <time>2022-02-24T19:14:38Z</time>
      </trkpt>
      <trkpt lat="46.51033" lon="5.63363">
        <ele>407.2</ele>
        <time>2022-02-24T19:14:39Z</time>
      </trkpt>
      <trkpt lat="46.51037" lon="5.63364">
        <ele>407.6</ele>
        <time>2022-02-24T19:14:40Z</time>
      </trkpt>
      <trkpt lat="46.5104" lon="5.63365">
        <ele>407.6</ele>
        <time>2022-02-24T19:14:41Z</time>
      </trkpt>
      <trkpt lat="46.51044" lon="5.63367">
        <ele>407.6</ele>
        <time>2022-02-24T19:14:42Z</time>
      </trkpt>
      <trkpt lat="46.51048" lon="5.63368">
        <ele>407.8</ele>
        <time>2022-02-24T19:14:43Z</time>
      </trkpt>
      <trkpt lat="46.51052" lon="5.63369">
        <ele>407.8</ele>
        <time>2022-02-24T19:14:44Z</time>
      </trkpt>
      <trkpt lat="46.51055" lon="5.6337">
        <ele>407.8</ele>
        <time>2022-02-24T19:14:45Z</time>
      </trkpt>
      <trkpt lat="46.51059" lon="5.63371">
        <ele>408.2</ele>
        <time>2022-02-24T19:14:46Z</time>
      </trkpt>
      <trkpt lat="46.51063" lon="5.63372">
        <ele>408.2</ele>
        <time>2022-02-24T19:14:47Z</time>
      </trkpt>
      <trkpt lat="46.51066" lon="5.63373">
        <ele>408.2</ele>
        <time>2022-02-24T19:14:48Z</time>
      </trkpt>
      <trkpt lat="46.5107" lon="5.63375">
        <ele>408.4</ele>
        <time>2022-02-24T19:14:49Z</time>
      </trkpt>
      <trkpt lat="46.51073" lon="5.63376">
        <ele>408.4</ele>
        <time>2022-02-24T19:14:50Z</time>
      </trkpt>
      <trkpt lat="46.51077" lon="5.63377">
        <ele>408.6</ele>
        <time>2022-02-24T19:14:51Z</time>
      </trkpt>
      <trkpt lat="46.51081" lon="5.63379">
        <ele>408.6</ele>
        <time>2022-02-24T19:14:52Z</time>
      </trkpt>
      <trkpt lat="46.51084" lon="5.63381">
        <ele>408.6</ele>
        <time>2022-02-24T19:14:53Z</time>
      </trkpt>
      <trkpt lat="46.51088" lon="5.63383">
        <ele>409</ele>
        <time>2022-02-24T19:14:54Z</time>
      </trkpt>
      <trkpt lat="46.51091" lon="5.63385">
        <ele>409</ele>
        <time>2022-02-24T19:14:55Z</time>
      </trkpt>
      <trkpt lat="46.51095" lon="5.63387">
        <ele>409.2</ele>
        <time>2022-02-24T19:14:56Z</time>
      </trkpt>
      <trkpt lat="46.51098" lon="5.63389">
        <ele>409.2</ele>
        <time>2022-02-24T19:14:57Z</time>
      </trkpt>
      <trkpt lat="46.51102" lon="5.63392">
        <ele>409.6</ele>
        <time>2022-02-24T19:14:58Z</time>
      </trkpt>
      <trkpt lat="46.51105" lon="5.63395">
        <ele>409.6</ele>
        <time>2022-02-24T19:14:59Z</time>
      </trkpt>
      <trkpt lat="46.51109" lon="5.63398">
        <ele>409.6</ele>
        <time>2022-02-24T19:15:00Z</time>
      </trkpt>
      <trkpt lat="46.51112" lon="5.63401">
        <ele>409.6</ele>
        <time>2022-02-24T19:15:01Z</time>
      </trkpt>
      <trkpt lat="46.51115" lon="5.63404">
        <ele>409.8</ele>
        <time>2022-02-24T19:15:02Z</time>
      </trkpt>
      <trkpt lat="46.51118" lon="5.63407">
        <ele>410</ele>
        <time>2022-02-24T19:15:03Z</time>
      </trkpt>
      <trkpt lat="46.51121" lon="5.63411">
        <ele>410</ele>
        <time>2022-02-24T19:15:04Z</time>
      </trkpt>
      <trkpt lat="46.51123" lon="5.63414">
        <ele>410.2</ele>
        <time>2022-02-24T19:15:05Z</time>
      </trkpt>
      <trkpt lat="46.51126" lon="5.63418">
        <ele>410.2</ele>
        <time>2022-02-24T19:15:06Z</time>
      </trkpt>
      <trkpt lat="46.51128" lon="5.63421">
        <ele>410.4</ele>
        <time>2022-02-24T19:15:07Z</time>
      </trkpt>
      <trkpt lat="46.51131" lon="5.63425">
        <ele>410.4</ele>
        <time>2022-02-24T19:15:08Z</time>
      </trkpt>
      <trkpt lat="46.51134" lon="5.63428">
        <ele>410.4</ele>
        <time>2022-02-24T19:15:09Z</time>
      </trkpt>
      <trkpt lat="46.51137" lon="5.63432">
        <ele>410.6</ele>
        <time>2022-02-24T19:15:10Z</time>
      </trkpt>
      <trkpt lat="46.5114" lon="5.63435">
        <ele>410.6</ele>
        <time>2022-02-24T19:15:11Z</time>
      </trkpt>
      <trkpt lat="46.51143" lon="5.63439">
        <ele>410.6</ele>
        <time>2022-02-24T19:15:12Z</time>
      </trkpt>
      <trkpt lat="46.51146" lon="5.63443">
        <ele>411</ele>
        <time>2022-02-24T19:15:13Z</time>
      </trkpt>
      <trkpt lat="46.51148" lon="5.63446">
        <ele>411</ele>
        <time>2022-02-24T19:15:14Z</time>
      </trkpt>
      <trkpt lat="46.51151" lon="5.6345">
        <ele>411.2</ele>
        <time>2022-02-24T19:15:15Z</time>
      </trkpt>
      <trkpt lat="46.51154" lon="5.63453">
        <ele>411.2</ele>
        <time>2022-02-24T19:15:16Z</time>
      </trkpt>
      <trkpt lat="46.51157" lon="5.63456">
        <ele>411.4</ele>
        <time>2022-02-24T19:15:17Z</time>
      </trkpt>
      <trkpt lat="46.5116" lon="5.63459">
        <ele>411.4</ele>
        <time>2022-02-24T19:15:18Z</time>
      </trkpt>
      <trkpt lat="46.51163" lon="5.63462">
        <ele>411.8</ele>
        <time>2022-02-24T19:15:19Z</time>
      </trkpt>
      <trkpt lat="46.51166" lon="5.63466">
        <ele>411.8</ele>
        <time>2022-02-24T19:15:20Z</time>
      </trkpt>
      <trkpt lat="46.51168" lon="5.6347">
        <ele>412.2</ele>
        <time>2022-02-24T19:15:21Z</time>
      </trkpt>
      <trkpt lat="46.51171" lon="5.63474">
        <ele>412.2</ele>
        <time>2022-02-24T19:15:22Z</time>
      </trkpt>
      <trkpt lat="46.51173" lon="5.63477">
        <ele>412.4</ele>
        <time>2022-02-24T19:15:23Z</time>
      </trkpt>
      <trkpt lat="46.51176" lon="5.63481">
        <ele>412.6</ele>
        <time>2022-02-24T19:15:24Z</time>
      </trkpt>
      <trkpt lat="46.51179" lon="5.63484">
        <ele>412.6</ele>
        <time>2022-02-24T19:15:25Z</time>
      </trkpt>
      <trkpt lat="46.51182" lon="5.63488">
        <ele>413.2</ele>
        <time>2022-02-24T19:15:26Z</time>
      </trkpt>
      <trkpt lat="46.51184" lon="5.63491">
        <ele>413.4</ele>
        <time>2022-02-24T19:15:27Z</time>
      </trkpt>
      <trkpt lat="46.51187" lon="5.63495">
        <ele>413.4</ele>
        <time>2022-02-24T19:15:28Z</time>
      </trkpt>
      <trkpt lat="46.5119" lon="5.63498">
        <ele>413.6</ele>
        <time>2022-02-24T19:15:29Z</time>
      </trkpt>
      <trkpt lat="46.51193" lon="5.63502">
        <ele>413.6</ele>
        <time>2022-02-24T19:15:30Z</time>
      </trkpt>
      <trkpt lat="46.51196" lon="5.63505">
        <ele>413.8</ele>
        <time>2022-02-24T19:15:31Z</time>
      </trkpt>
      <trkpt lat="46.512" lon="5.63508">
        <ele>413.8</ele>
        <time>2022-02-24T19:15:32Z</time>
      </trkpt>
      <trkpt lat="46.51203" lon="5.63512">
        <ele>414.2</ele>
        <time>2022-02-24T19:15:33Z</time>
      </trkpt>
      <trkpt lat="46.51207" lon="5.63515">
        <ele>414.6</ele>
        <time>2022-02-24T19:15:34Z</time>
      </trkpt>
      <trkpt lat="46.5121" lon="5.63518">
        <ele>414.8</ele>
        <time>2022-02-24T19:15:35Z</time>
      </trkpt>
      <trkpt lat="46.51213" lon="5.63521">
        <ele>415</ele>
        <time>2022-02-24T19:15:36Z</time>
      </trkpt>
      <trkpt lat="46.51217" lon="5.63524">
        <ele>415.2</ele>
        <time>2022-02-24T19:15:37Z</time>
      </trkpt>
      <trkpt lat="46.5122" lon="5.63527">
        <ele>415.2</ele>
        <time>2022-02-24T19:15:38Z</time>
      </trkpt>
      <trkpt lat="46.51224" lon="5.6353">
        <ele>415.6</ele>
        <time>2022-02-24T19:15:39Z</time>
      </trkpt>
      <trkpt lat="46.51228" lon="5.63533">
        <ele>415.8</ele>
        <time>2022-02-24T19:15:40Z</time>
      </trkpt>
      <trkpt lat="46.51231" lon="5.63537">
        <ele>416.2</ele>
        <time>2022-02-24T19:15:41Z</time>
      </trkpt>
      <trkpt lat="46.51235" lon="5.6354">
        <ele>416.2</ele>
        <time>2022-02-24T19:15:42Z</time>
      </trkpt>
      <trkpt lat="46.51238" lon="5.63543">
        <ele>416.6</ele>
        <time>2022-02-24T19:15:43Z</time>
      </trkpt>
      <trkpt lat="46.51241" lon="5.63546">
        <ele>416.6</ele>
        <time>2022-02-24T19:15:44Z</time>
      </trkpt>
      <trkpt lat="46.51245" lon="5.63549">
        <ele>416.8</ele>
        <time>2022-02-24T19:15:45Z</time>
      </trkpt>
      <trkpt lat="46.51248" lon="5.63552">
        <ele>416.8</ele>
        <time>2022-02-24T19:15:46Z</time>
      </trkpt>
      <trkpt lat="46.51251" lon="5.63555">
        <ele>417.2</ele>
        <time>2022-02-24T19:15:47Z</time>
      </trkpt>
      <trkpt lat="46.51254" lon="5.63557">
        <ele>417.4</ele>
        <time>2022-02-24T19:15:48Z</time>
      </trkpt>
      <trkpt lat="46.51258" lon="5.6356">
        <ele>417.4</ele>
        <time>2022-02-24T19:15:49Z</time>
      </trkpt>
      <trkpt lat="46.51261" lon="5.63563">
        <ele>417.8</ele>
        <time>2022-02-24T19:15:50Z</time>
      </trkpt>
      <trkpt lat="46.51264" lon="5.63566">
        <ele>418</ele>
        <time>2022-02-24T19:15:51Z</time>
      </trkpt>
      <trkpt lat="46.51268" lon="5.63569">
        <ele>418.2</ele>
        <time>2022-02-24T19:15:52Z</time>
      </trkpt>
      <trkpt lat="46.51271" lon="5.63572">
        <ele>418.6</ele>
        <time>2022-02-24T19:15:53Z</time>
      </trkpt>
      <trkpt lat="46.51274" lon="5.63575">
        <ele>418.8</ele>
        <time>2022-02-24T19:15:54Z</time>
      </trkpt>
      <trkpt lat="46.51278" lon="5.63577">
        <ele>419</ele>
        <time>2022-02-24T19:15:55Z</time>
      </trkpt>
      <trkpt lat="46.51281" lon="5.6358">
        <ele>419.4</ele>
        <time>2022-02-24T19:15:56Z</time>
      </trkpt>
      <trkpt lat="46.51285" lon="5.63582">
        <ele>419.6</ele>
        <time>2022-02-24T19:15:57Z</time>
      </trkpt>
      <trkpt lat="46.51288" lon="5.63584">
        <ele>419.6</ele>
        <time>2022-02-24T19:15:58Z</time>
      </trkpt>
      <trkpt lat="46.51291" lon="5.63587">
        <ele>420</ele>
        <time>2022-02-24T19:15:59Z</time>
      </trkpt>
      <trkpt lat="46.51294" lon="5.63589">
        <ele>420.2</ele>
        <time>2022-02-24T19:16:00Z</time>
      </trkpt>
      <trkpt lat="46.51298" lon="5.63591">
        <ele>420.4</ele>
        <time>2022-02-24T19:16:01Z</time>
      </trkpt>
      <trkpt lat="46.51301" lon="5.63592">
        <ele>420.6</ele>
        <time>2022-02-24T19:16:02Z</time>
      </trkpt>
      <trkpt lat="46.51304" lon="5.63594">
        <ele>420.6</ele>
        <time>2022-02-24T19:16:03Z</time>
      </trkpt>
      <trkpt lat="46.51307" lon="5.63595">
        <ele>421</ele>
        <time>2022-02-24T19:16:04Z</time>
      </trkpt>
      <trkpt lat="46.5131" lon="5.63597">
        <ele>421.4</ele>
        <time>2022-02-24T19:16:05Z</time>
      </trkpt>
      <trkpt lat="46.51313" lon="5.63598">
        <ele>421.6</ele>
        <time>2022-02-24T19:16:06Z</time>
      </trkpt>
      <trkpt lat="46.51316" lon="5.63601">
        <ele>421.8</ele>
        <time>2022-02-24T19:16:07Z</time>
      </trkpt>
      <trkpt lat="46.51319" lon="5.63603">
        <ele>421.8</ele>
        <time>2022-02-24T19:16:08Z</time>
      </trkpt>
      <trkpt lat="46.51321" lon="5.63605">
        <ele>422</ele>
        <time>2022-02-24T19:16:09Z</time>
      </trkpt>
      <trkpt lat="46.51324" lon="5.63607">
        <ele>422</ele>
        <time>2022-02-24T19:16:10Z</time>
      </trkpt>
      <trkpt lat="46.51327" lon="5.63609">
        <ele>422.4</ele>
        <time>2022-02-24T19:16:11Z</time>
      </trkpt>
      <trkpt lat="46.5133" lon="5.63611">
        <ele>422.6</ele>
        <time>2022-02-24T19:16:12Z</time>
      </trkpt>
      <trkpt lat="46.51332" lon="5.63614">
        <ele>423</ele>
        <time>2022-02-24T19:16:13Z</time>
      </trkpt>
      <trkpt lat="46.51335" lon="5.63617">
        <ele>423.2</ele>
        <time>2022-02-24T19:16:14Z</time>
      </trkpt>
      <trkpt lat="46.51337" lon="5.63619">
        <ele>423.2</ele>
        <time>2022-02-24T19:16:15Z</time>
      </trkpt>
      <trkpt lat="46.5134" lon="5.63622">
        <ele>423.4</ele>
        <time>2022-02-24T19:16:16Z</time>
      </trkpt>
      <trkpt lat="46.51343" lon="5.63624">
        <ele>423.4</ele>
        <time>2022-02-24T19:16:17Z</time>
      </trkpt>
      <trkpt lat="46.51345" lon="5.63627">
        <ele>423.8</ele>
        <time>2022-02-24T19:16:18Z</time>
      </trkpt>
      <trkpt lat="46.51348" lon="5.63629">
        <ele>423.8</ele>
        <time>2022-02-24T19:16:19Z</time>
      </trkpt>
      <trkpt lat="46.5135" lon="5.63632">
        <ele>424</ele>
        <time>2022-02-24T19:16:20Z</time>
      </trkpt>
      <trkpt lat="46.51353" lon="5.63634">
        <ele>424</ele>
        <time>2022-02-24T19:16:21Z</time>
      </trkpt>
      <trkpt lat="46.51355" lon="5.63637">
        <ele>424.4</ele>
        <time>2022-02-24T19:16:22Z</time>
      </trkpt>
      <trkpt lat="46.51357" lon="5.6364">
        <ele>424.4</ele>
        <time>2022-02-24T19:16:23Z</time>
      </trkpt>
      <trkpt lat="46.51359" lon="5.63642">
        <ele>424.8</ele>
        <time>2022-02-24T19:16:24Z</time>
      </trkpt>
      <trkpt lat="46.51362" lon="5.63644">
        <ele>424.8</ele>
        <time>2022-02-24T19:16:25Z</time>
      </trkpt>
      <trkpt lat="46.51364" lon="5.63646">
        <ele>425</ele>
        <time>2022-02-24T19:16:26Z</time>
      </trkpt>
      <trkpt lat="46.51367" lon="5.63648">
        <ele>425</ele>
        <time>2022-02-24T19:16:27Z</time>
      </trkpt>
      <trkpt lat="46.51369" lon="5.63651">
        <ele>425.4</ele>
        <time>2022-02-24T19:16:28Z</time>
      </trkpt>
      <trkpt lat="46.51372" lon="5.63653">
        <ele>425.4</ele>
        <time>2022-02-24T19:16:29Z</time>
      </trkpt>
      <trkpt lat="46.51374" lon="5.63656">
        <ele>425.6</ele>
        <time>2022-02-24T19:16:30Z</time>
      </trkpt>
      <trkpt lat="46.51377" lon="5.63658">
        <ele>425.6</ele>
        <time>2022-02-24T19:16:31Z</time>
      </trkpt>
      <trkpt lat="46.51379" lon="5.6366">
        <ele>426</ele>
        <time>2022-02-24T19:16:32Z</time>
      </trkpt>
      <trkpt lat="46.51382" lon="5.63663">
        <ele>426</ele>
        <time>2022-02-24T19:16:33Z</time>
      </trkpt>
      <trkpt lat="46.51384" lon="5.63665">
        <ele>426.4</ele>
        <time>2022-02-24T19:16:34Z</time>
      </trkpt>
      <trkpt lat="46.51387" lon="5.63667">
        <ele>426.6</ele>
        <time>2022-02-24T19:16:35Z</time>
      </trkpt>
      <trkpt lat="46.51389" lon="5.63669">
        <ele>426.6</ele>
        <time>2022-02-24T19:16:36Z</time>
      </trkpt>
      <trkpt lat="46.51391" lon="5.63671">
        <ele>426.8</ele>
        <time>2022-02-24T19:16:37Z</time>
      </trkpt>
      <trkpt lat="46.51394" lon="5.63672">
        <ele>427.2</ele>
        <time>2022-02-24T19:16:38Z</time>
      </trkpt>
      <trkpt lat="46.51396" lon="5.63673">
        <ele>427.2</ele>
        <time>2022-02-24T19:16:39Z</time>
      </trkpt>
      <trkpt lat="46.51399" lon="5.63674">
        <ele>427.4</ele>
        <time>2022-02-24T19:16:40Z</time>
      </trkpt>
      <trkpt lat="46.51401" lon="5.63676">
        <ele>427.4</ele>
        <time>2022-02-24T19:16:41Z</time>
      </trkpt>
      <trkpt lat="46.51404" lon="5.63677">
        <ele>427.6</ele>
        <time>2022-02-24T19:16:42Z</time>
      </trkpt>
      <trkpt lat="46.51407" lon="5.63678">
        <ele>427.6</ele>
        <time>2022-02-24T19:16:43Z</time>
      </trkpt>
      <trkpt lat="46.5141" lon="5.63679">
        <ele>428</ele>
        <time>2022-02-24T19:16:44Z</time>
      </trkpt>
      <trkpt lat="46.51412" lon="5.6368">
        <ele>428.2</ele>
        <time>2022-02-24T19:16:45Z</time>
      </trkpt>
      <trkpt lat="46.51415" lon="5.63681">
        <ele>428.2</ele>
        <time>2022-02-24T19:16:46Z</time>
      </trkpt>
      <trkpt lat="46.51418" lon="5.63681">
        <ele>428.6</ele>
        <time>2022-02-24T19:16:47Z</time>
      </trkpt>
      <trkpt lat="46.5142" lon="5.63681">
        <ele>428.6</ele>
        <time>2022-02-24T19:16:48Z</time>
      </trkpt>
      <trkpt lat="46.51423" lon="5.63681">
        <ele>428.8</ele>
        <time>2022-02-24T19:16:49Z</time>
      </trkpt>
      <trkpt lat="46.51425" lon="5.63681">
        <ele>428.8</ele>
        <time>2022-02-24T19:16:50Z</time>
      </trkpt>
      <trkpt lat="46.51428" lon="5.63681">
        <ele>429.2</ele>
        <time>2022-02-24T19:16:51Z</time>
      </trkpt>
      <trkpt lat="46.51431" lon="5.63682">
        <ele>429.2</ele>
        <time>2022-02-24T19:16:52Z</time>
      </trkpt>
      <trkpt lat="46.51434" lon="5.63682">
        <ele>429.4</ele>
        <time>2022-02-24T19:16:53Z</time>
      </trkpt>
      <trkpt lat="46.51436" lon="5.63682">
        <ele>429.4</ele>
        <time>2022-02-24T19:16:54Z</time>
      </trkpt>
      <trkpt lat="46.51439" lon="5.63682">
        <ele>429.4</ele>
        <time>2022-02-24T19:16:55Z</time>
      </trkpt>
      <trkpt lat="46.51441" lon="5.63682">
        <ele>429.8</ele>
        <time>2022-02-24T19:16:56Z</time>
      </trkpt>
      <trkpt lat="46.51444" lon="5.63682">
        <ele>429.8</ele>
        <time>2022-02-24T19:16:57Z</time>
      </trkpt>
      <trkpt lat="46.51446" lon="5.63682">
        <ele>430</ele>
        <time>2022-02-24T19:16:58Z</time>
      </trkpt>
      <trkpt lat="46.51449" lon="5.63682">
        <ele>430</ele>
        <time>2022-02-24T19:16:59Z</time>
      </trkpt>
      <trkpt lat="46.51452" lon="5.63682">
        <ele>430.4</ele>
        <time>2022-02-24T19:17:00Z</time>
      </trkpt>
      <trkpt lat="46.51454" lon="5.63682">
        <ele>430.4</ele>
        <time>2022-02-24T19:17:01Z</time>
      </trkpt>
      <trkpt lat="46.51457" lon="5.63682">
        <ele>430.6</ele>
        <time>2022-02-24T19:17:02Z</time>
      </trkpt>
      <trkpt lat="46.51459" lon="5.63682">
        <ele>430.6</ele>
        <time>2022-02-24T19:17:03Z</time>
      </trkpt>
      <trkpt lat="46.51462" lon="5.63682">
        <ele>431</ele>
        <time>2022-02-24T19:17:04Z</time>
      </trkpt>
      <trkpt lat="46.51465" lon="5.63682">
        <ele>431</ele>
        <time>2022-02-24T19:17:05Z</time>
      </trkpt>
      <trkpt lat="46.51467" lon="5.63682">
        <ele>431.2</ele>
        <time>2022-02-24T19:17:06Z</time>
      </trkpt>
      <trkpt lat="46.5147" lon="5.63682">
        <ele>431.2</ele>
        <time>2022-02-24T19:17:07Z</time>
      </trkpt>
      <trkpt lat="46.51472" lon="5.63682">
        <ele>431.6</ele>
        <time>2022-02-24T19:17:08Z</time>
      </trkpt>
      <trkpt lat="46.51475" lon="5.63682">
        <ele>431.6</ele>
        <time>2022-02-24T19:17:09Z</time>
      </trkpt>
      <trkpt lat="46.51477" lon="5.63681">
        <ele>432</ele>
        <time>2022-02-24T19:17:10Z</time>
      </trkpt>
      <trkpt lat="46.5148" lon="5.63681">
        <ele>432</ele>
        <time>2022-02-24T19:17:11Z</time>
      </trkpt>
      <trkpt lat="46.51482" lon="5.63681">
        <ele>432.2</ele>
        <time>2022-02-24T19:17:12Z</time>
      </trkpt>
      <trkpt lat="46.51485" lon="5.63681">
        <ele>432.2</ele>
        <time>2022-02-24T19:17:13Z</time>
      </trkpt>
      <trkpt lat="46.51488" lon="5.63681">
        <ele>432.4</ele>
        <time>2022-02-24T19:17:14Z</time>
      </trkpt>
      <trkpt lat="46.51491" lon="5.63681">
        <ele>432.4</ele>
        <time>2022-02-24T19:17:15Z</time>
      </trkpt>
      <trkpt lat="46.51494" lon="5.63681">
        <ele>432.4</ele>
        <time>2022-02-24T19:17:16Z</time>
      </trkpt>
      <trkpt lat="46.51496" lon="5.63681">
        <ele>432.8</ele>
        <time>2022-02-24T19:17:17Z</time>
      </trkpt>
      <trkpt lat="46.51499" lon="5.63681">
        <ele>432.8</ele>
        <time>2022-02-24T19:17:18Z</time>
      </trkpt>
      <trkpt lat="46.51502" lon="5.63682">
        <ele>433</ele>
        <time>2022-02-24T19:17:19Z</time>
      </trkpt>
      <trkpt lat="46.51505" lon="5.63682">
        <ele>433</ele>
        <time>2022-02-24T19:17:20Z</time>
      </trkpt>
      <trkpt lat="46.51507" lon="5.63683">
        <ele>433.4</ele>
        <time>2022-02-24T19:17:21Z</time>
      </trkpt>
      <trkpt lat="46.5151" lon="5.63683">
        <ele>433.6</ele>
        <time>2022-02-24T19:17:22Z</time>
      </trkpt>
      <trkpt lat="46.51513" lon="5.63683">
        <ele>433.6</ele>
        <time>2022-02-24T19:17:23Z</time>
      </trkpt>
      <trkpt lat="46.51516" lon="5.63683">
        <ele>433.6</ele>
        <time>2022-02-24T19:17:24Z</time>
      </trkpt>
      <trkpt lat="46.51519" lon="5.63683">
        <ele>434</ele>
        <time>2022-02-24T19:17:25Z</time>
      </trkpt>
      <trkpt lat="46.51522" lon="5.63684">
        <ele>434</ele>
        <time>2022-02-24T19:17:26Z</time>
      </trkpt>
      <trkpt lat="46.51524" lon="5.63685">
        <ele>434.2</ele>
        <time>2022-02-24T19:17:27Z</time>
      </trkpt>
      <trkpt lat="46.51527" lon="5.63687">
        <ele>434.4</ele>
        <time>2022-02-24T19:17:28Z</time>
      </trkpt>
      <trkpt lat="46.5153" lon="5.63688">
        <ele>434.6</ele>
        <time>2022-02-24T19:17:29Z</time>
      </trkpt>
      <trkpt lat="46.51533" lon="5.6369">
        <ele>434.6</ele>
        <time>2022-02-24T19:17:30Z</time>
      </trkpt>
      <trkpt lat="46.51536" lon="5.63692">
        <ele>435</ele>
        <time>2022-02-24T19:17:31Z</time>
      </trkpt>
      <trkpt lat="46.51538" lon="5.63695">
        <ele>435</ele>
        <time>2022-02-24T19:17:32Z</time>
      </trkpt>
      <trkpt lat="46.51541" lon="5.63697">
        <ele>435</ele>
        <time>2022-02-24T19:17:33Z</time>
      </trkpt>
      <trkpt lat="46.51543" lon="5.637">
        <ele>435.2</ele>
        <time>2022-02-24T19:17:34Z</time>
      </trkpt>
      <trkpt lat="46.51545" lon="5.63703">
        <ele>435.2</ele>
        <time>2022-02-24T19:17:35Z</time>
      </trkpt>
      <trkpt lat="46.51548" lon="5.63706">
        <ele>435.6</ele>
        <time>2022-02-24T19:17:36Z</time>
      </trkpt>
      <trkpt lat="46.5155" lon="5.63709">
        <ele>435.8</ele>
        <time>2022-02-24T19:17:37Z</time>
      </trkpt>
      <trkpt lat="46.51552" lon="5.63712">
        <ele>436.2</ele>
        <time>2022-02-24T19:17:38Z</time>
      </trkpt>
      <trkpt lat="46.51554" lon="5.63714">
        <ele>436.4</ele>
        <time>2022-02-24T19:17:39Z</time>
      </trkpt>
      <trkpt lat="46.51556" lon="5.63718">
        <ele>436.4</ele>
        <time>2022-02-24T19:17:40Z</time>
      </trkpt>
      <trkpt lat="46.51558" lon="5.63721">
        <ele>436.8</ele>
        <time>2022-02-24T19:17:41Z</time>
      </trkpt>
      <trkpt lat="46.5156" lon="5.63724">
        <ele>436.8</ele>
        <time>2022-02-24T19:17:42Z</time>
      </trkpt>
      <trkpt lat="46.51562" lon="5.63726">
        <ele>437</ele>
        <time>2022-02-24T19:17:43Z</time>
      </trkpt>
      <trkpt lat="46.51564" lon="5.63729">
        <ele>437</ele>
        <time>2022-02-24T19:17:44Z</time>
      </trkpt>
      <trkpt lat="46.51566" lon="5.63732">
        <ele>437.2</ele>
        <time>2022-02-24T19:17:45Z</time>
      </trkpt>
      <trkpt lat="46.51568" lon="5.63735">
        <ele>437.2</ele>
        <time>2022-02-24T19:17:46Z</time>
      </trkpt>
      <trkpt lat="46.5157" lon="5.63738">
        <ele>437.4</ele>
        <time>2022-02-24T19:17:47Z</time>
      </trkpt>
      <trkpt lat="46.51572" lon="5.63741">
        <ele>437.4</ele>
        <time>2022-02-24T19:17:48Z</time>
      </trkpt>
      <trkpt lat="46.51574" lon="5.63744">
        <ele>437.8</ele>
        <time>2022-02-24T19:17:49Z</time>
      </trkpt>
      <trkpt lat="46.51576" lon="5.63747">
        <ele>437.8</ele>
        <time>2022-02-24T19:17:50Z</time>
      </trkpt>
      <trkpt lat="46.51578" lon="5.6375">
        <ele>438</ele>
        <time>2022-02-24T19:17:51Z</time>
      </trkpt>
      <trkpt lat="46.51579" lon="5.63753">
        <ele>438</ele>
        <time>2022-02-24T19:17:52Z</time>
      </trkpt>
      <trkpt lat="46.51581" lon="5.63756">
        <ele>438</ele>
        <time>2022-02-24T19:17:53Z</time>
      </trkpt>
      <trkpt lat="46.51583" lon="5.63759">
        <ele>438.4</ele>
        <time>2022-02-24T19:17:54Z</time>
      </trkpt>
      <trkpt lat="46.51585" lon="5.63762">
        <ele>438.4</ele>
        <time>2022-02-24T19:17:55Z</time>
      </trkpt>
      <trkpt lat="46.51587" lon="5.63765">
        <ele>438.6</ele>
        <time>2022-02-24T19:17:56Z</time>
      </trkpt>
      <trkpt lat="46.51589" lon="5.63768">
        <ele>438.6</ele>
        <time>2022-02-24T19:17:57Z</time>
      </trkpt>
      <trkpt lat="46.51591" lon="5.63771">
        <ele>439</ele>
        <time>2022-02-24T19:17:58Z</time>
      </trkpt>
      <trkpt lat="46.51593" lon="5.63774">
        <ele>439</ele>
        <time>2022-02-24T19:17:59Z</time>
      </trkpt>
      <trkpt lat="46.51595" lon="5.63777">
        <ele>439.4</ele>
        <time>2022-02-24T19:18:00Z</time>
      </trkpt>
      <trkpt lat="46.51597" lon="5.63779">
        <ele>439.4</ele>
        <time>2022-02-24T19:18:01Z</time>
      </trkpt>
      <trkpt lat="46.51599" lon="5.63782">
        <ele>439.8</ele>
        <time>2022-02-24T19:18:02Z</time>
      </trkpt>
      <trkpt lat="46.51601" lon="5.63785">
        <ele>440</ele>
        <time>2022-02-24T19:18:03Z</time>
      </trkpt>
      <trkpt lat="46.51603" lon="5.63788">
        <ele>440</ele>
        <time>2022-02-24T19:18:04Z</time>
      </trkpt>
      <trkpt lat="46.51605" lon="5.63791">
        <ele>440.2</ele>
        <time>2022-02-24T19:18:05Z</time>
      </trkpt>
      <trkpt lat="46.51606" lon="5.63794">
        <ele>440.2</ele>
        <time>2022-02-24T19:18:06Z</time>
      </trkpt>
      <trkpt lat="46.51608" lon="5.63797">
        <ele>440.6</ele>
        <time>2022-02-24T19:18:07Z</time>
      </trkpt>
      <trkpt lat="46.5161" lon="5.638">
        <ele>440.6</ele>
        <time>2022-02-24T19:18:08Z</time>
      </trkpt>
      <trkpt lat="46.51612" lon="5.63803">
        <ele>440.8</ele>
        <time>2022-02-24T19:18:09Z</time>
      </trkpt>
      <trkpt lat="46.51613" lon="5.63805">
        <ele>441</ele>
        <time>2022-02-24T19:18:10Z</time>
      </trkpt>
      <trkpt lat="46.51615" lon="5.63808">
        <ele>441.2</ele>
        <time>2022-02-24T19:18:11Z</time>
      </trkpt>
      <trkpt lat="46.51617" lon="5.63811">
        <ele>441.2</ele>
        <time>2022-02-24T19:18:12Z</time>
      </trkpt>
      <trkpt lat="46.51619" lon="5.63814">
        <ele>441.6</ele>
        <time>2022-02-24T19:18:13Z</time>
      </trkpt>
      <trkpt lat="46.51621" lon="5.63817">
        <ele>441.6</ele>
        <time>2022-02-24T19:18:14Z</time>
      </trkpt>
      <trkpt lat="46.51623" lon="5.6382">
        <ele>442</ele>
        <time>2022-02-24T19:18:15Z</time>
      </trkpt>
      <trkpt lat="46.51625" lon="5.63823">
        <ele>442.2</ele>
        <time>2022-02-24T19:18:16Z</time>
      </trkpt>
      <trkpt lat="46.51626" lon="5.63827">
        <ele>442.2</ele>
        <time>2022-02-24T19:18:17Z</time>
      </trkpt>
      <trkpt lat="46.51628" lon="5.6383">
        <ele>442.4</ele>
        <time>2022-02-24T19:18:18Z</time>
      </trkpt>
      <trkpt lat="46.5163" lon="5.63833">
        <ele>442.4</ele>
        <time>2022-02-24T19:18:19Z</time>
      </trkpt>
      <trkpt lat="46.51632" lon="5.63836">
        <ele>442.8</ele>
        <time>2022-02-24T19:18:20Z</time>
      </trkpt>
      <trkpt lat="46.51634" lon="5.63839">
        <ele>442.8</ele>
        <time>2022-02-24T19:18:21Z</time>
      </trkpt>
      <trkpt lat="46.51636" lon="5.63842">
        <ele>443</ele>
        <time>2022-02-24T19:18:22Z</time>
      </trkpt>
      <trkpt lat="46.51639" lon="5.63845">
        <ele>443</ele>
        <time>2022-02-24T19:18:23Z</time>
      </trkpt>
      <trkpt lat="46.51641" lon="5.63847">
        <ele>443.4</ele>
        <time>2022-02-24T19:18:24Z</time>
      </trkpt>
      <trkpt lat="46.51643" lon="5.6385">
        <ele>443.6</ele>
        <time>2022-02-24T19:18:25Z</time>
      </trkpt>
      <trkpt lat="46.51645" lon="5.63853">
        <ele>443.8</ele>
        <time>2022-02-24T19:18:26Z</time>
      </trkpt>
      <trkpt lat="46.51646" lon="5.63856">
        <ele>443.8</ele>
        <time>2022-02-24T19:18:27Z</time>
      </trkpt>
      <trkpt lat="46.51648" lon="5.63858">
        <ele>444.2</ele>
        <time>2022-02-24T19:18:28Z</time>
      </trkpt>
      <trkpt lat="46.5165" lon="5.63861">
        <ele>444.2</ele>
        <time>2022-02-24T19:18:29Z</time>
      </trkpt>
      <trkpt lat="46.51651" lon="5.63865">
        <ele>444.4</ele>
        <time>2022-02-24T19:18:30Z</time>
      </trkpt>
      <trkpt lat="46.51652" lon="5.63868">
        <ele>444.4</ele>
        <time>2022-02-24T19:18:31Z</time>
      </trkpt>
      <trkpt lat="46.51654" lon="5.63872">
        <ele>444.8</ele>
        <time>2022-02-24T19:18:32Z</time>
      </trkpt>
      <trkpt lat="46.51655" lon="5.63875">
        <ele>444.8</ele>
        <time>2022-02-24T19:18:33Z</time>
      </trkpt>
      <trkpt lat="46.51657" lon="5.63879">
        <ele>444.8</ele>
        <time>2022-02-24T19:18:34Z</time>
      </trkpt>
      <trkpt lat="46.51658" lon="5.63882">
        <ele>445.2</ele>
        <time>2022-02-24T19:18:35Z</time>
      </trkpt>
      <trkpt lat="46.5166" lon="5.63886">
        <ele>445.2</ele>
        <time>2022-02-24T19:18:36Z</time>
      </trkpt>
      <trkpt lat="46.51662" lon="5.63889">
        <ele>445.4</ele>
        <time>2022-02-24T19:18:37Z</time>
      </trkpt>
      <trkpt lat="46.51664" lon="5.63892">
        <ele>445.6</ele>
        <time>2022-02-24T19:18:38Z</time>
      </trkpt>
      <trkpt lat="46.51666" lon="5.63893">
        <ele>445.8</ele>
        <time>2022-02-24T19:18:39Z</time>
      </trkpt>
      <trkpt lat="46.51668" lon="5.63895">
        <ele>446</ele>
        <time>2022-02-24T19:18:40Z</time>
      </trkpt>
      <trkpt lat="46.5167" lon="5.63896">
        <ele>446.4</ele>
        <time>2022-02-24T19:18:41Z</time>
      </trkpt>
      <trkpt lat="46.51672" lon="5.63897">
        <ele>446.4</ele>
        <time>2022-02-24T19:18:42Z</time>
      </trkpt>
      <trkpt lat="46.51674" lon="5.63898">
        <ele>446.6</ele>
        <time>2022-02-24T19:18:43Z</time>
      </trkpt>
      <trkpt lat="46.51676" lon="5.639">
        <ele>446.6</ele>
        <time>2022-02-24T19:18:44Z</time>
      </trkpt>
      <trkpt lat="46.51678" lon="5.63902">
        <ele>446.8</ele>
        <time>2022-02-24T19:18:45Z</time>
      </trkpt>
      <trkpt lat="46.5168" lon="5.63903">
        <ele>447.2</ele>
        <time>2022-02-24T19:18:46Z</time>
      </trkpt>
      <trkpt lat="46.51682" lon="5.63904">
        <ele>447.4</ele>
        <time>2022-02-24T19:18:47Z</time>
      </trkpt>
      <trkpt lat="46.51685" lon="5.63904">
        <ele>447.8</ele>
        <time>2022-02-24T19:18:48Z</time>
      </trkpt>
      <trkpt lat="46.51687" lon="5.63905">
        <ele>448</ele>
        <time>2022-02-24T19:18:49Z</time>
      </trkpt>
      <trkpt lat="46.51689" lon="5.63906">
        <ele>448.2</ele>
        <time>2022-02-24T19:18:50Z</time>
      </trkpt>
      <trkpt lat="46.51692" lon="5.63907">
        <ele>448.4</ele>
        <time>2022-02-24T19:18:51Z</time>
      </trkpt>
      <trkpt lat="46.51694" lon="5.63908">
        <ele>448.8</ele>
        <time>2022-02-24T19:18:52Z</time>
      </trkpt>
      <trkpt lat="46.51697" lon="5.63909">
        <ele>449</ele>
        <time>2022-02-24T19:18:53Z</time>
      </trkpt>
      <trkpt lat="46.51699" lon="5.6391">
        <ele>449.4</ele>
        <time>2022-02-24T19:18:54Z</time>
      </trkpt>
      <trkpt lat="46.51702" lon="5.63911">
        <ele>449.6</ele>
        <time>2022-02-24T19:18:55Z</time>
      </trkpt>
      <trkpt lat="46.51704" lon="5.63912">
        <ele>449.8</ele>
        <time>2022-02-24T19:18:56Z</time>
      </trkpt>
      <trkpt lat="46.51707" lon="5.63914">
        <ele>450</ele>
        <time>2022-02-24T19:18:57Z</time>
      </trkpt>
      <trkpt lat="46.51709" lon="5.63915">
        <ele>450.4</ele>
        <time>2022-02-24T19:18:58Z</time>
      </trkpt>
      <trkpt lat="46.51711" lon="5.63915">
        <ele>450.6</ele>
        <time>2022-02-24T19:18:59Z</time>
      </trkpt>
      <trkpt lat="46.51714" lon="5.63916">
        <ele>450.8</ele>
        <time>2022-02-24T19:19:00Z</time>
      </trkpt>
      <trkpt lat="46.51716" lon="5.63916">
        <ele>450.8</ele>
        <time>2022-02-24T19:19:01Z</time>
      </trkpt>
      <trkpt lat="46.51718" lon="5.63915">
        <ele>451.2</ele>
        <time>2022-02-24T19:19:02Z</time>
      </trkpt>
      <trkpt lat="46.5172" lon="5.63915">
        <ele>451.6</ele>
        <time>2022-02-24T19:19:03Z</time>
      </trkpt>
      <trkpt lat="46.51722" lon="5.63915">
        <ele>452</ele>
        <time>2022-02-24T19:19:04Z</time>
      </trkpt>
      <trkpt lat="46.51724" lon="5.63915">
        <ele>452.2</ele>
        <time>2022-02-24T19:19:05Z</time>
      </trkpt>
      <trkpt lat="46.51726" lon="5.63916">
        <ele>452.4</ele>
        <time>2022-02-24T19:19:06Z</time>
      </trkpt>
      <trkpt lat="46.51728" lon="5.63916">
        <ele>452.6</ele>
        <time>2022-02-24T19:19:07Z</time>
      </trkpt>
      <trkpt lat="46.51731" lon="5.63917">
        <ele>452.8</ele>
        <time>2022-02-24T19:19:08Z</time>
      </trkpt>
      <trkpt lat="46.51733" lon="5.63917">
        <ele>453.2</ele>
        <time>2022-02-24T19:19:09Z</time>
      </trkpt>
      <trkpt lat="46.51735" lon="5.63917">
        <ele>453.4</ele>
        <time>2022-02-24T19:19:10Z</time>
      </trkpt>
      <trkpt lat="46.51738" lon="5.63917">
        <ele>453.6</ele>
        <time>2022-02-24T19:19:11Z</time>
      </trkpt>
      <trkpt lat="46.5174" lon="5.63916">
        <ele>453.6</ele>
        <time>2022-02-24T19:19:12Z</time>
      </trkpt>
      <trkpt lat="46.51741" lon="5.63916">
        <ele>454</ele>
        <time>2022-02-24T19:19:13Z</time>
      </trkpt>
      <trkpt lat="46.51743" lon="5.63916">
        <ele>454</ele>
        <time>2022-02-24T19:19:14Z</time>
      </trkpt>
      <trkpt lat="46.51745" lon="5.63915">
        <ele>454.4</ele>
        <time>2022-02-24T19:19:15Z</time>
      </trkpt>
      <trkpt lat="46.51747" lon="5.63915">
        <ele>454.6</ele>
        <time>2022-02-24T19:19:16Z</time>
      </trkpt>
      <trkpt lat="46.51749" lon="5.63915">
        <ele>454.8</ele>
        <time>2022-02-24T19:19:17Z</time>
      </trkpt>
      <trkpt lat="46.5175" lon="5.63915">
        <ele>454.8</ele>
        <time>2022-02-24T19:19:18Z</time>
      </trkpt>
      <trkpt lat="46.51752" lon="5.63915">
        <ele>455</ele>
        <time>2022-02-24T19:19:19Z</time>
      </trkpt>
      <trkpt lat="46.51754" lon="5.63915">
        <ele>455.4</ele>
        <time>2022-02-24T19:19:20Z</time>
      </trkpt>
      <trkpt lat="46.51756" lon="5.63914">
        <ele>455.4</ele>
        <time>2022-02-24T19:19:21Z</time>
      </trkpt>
      <trkpt lat="46.51757" lon="5.63914">
        <ele>455.6</ele>
        <time>2022-02-24T19:19:22Z</time>
      </trkpt>
      <trkpt lat="46.51759" lon="5.63913">
        <ele>455.6</ele>
        <time>2022-02-24T19:19:23Z</time>
      </trkpt>
      <trkpt lat="46.51761" lon="5.63913">
        <ele>456</ele>
        <time>2022-02-24T19:19:24Z</time>
      </trkpt>
      <trkpt lat="46.51762" lon="5.63913">
        <ele>456</ele>
        <time>2022-02-24T19:19:25Z</time>
      </trkpt>
      <trkpt lat="46.51764" lon="5.63913">
        <ele>456.4</ele>
        <time>2022-02-24T19:19:26Z</time>
      </trkpt>
      <trkpt lat="46.51766" lon="5.63913">
        <ele>456.4</ele>
        <time>2022-02-24T19:19:27Z</time>
      </trkpt>
      <trkpt lat="46.51768" lon="5.63912">
        <ele>456.8</ele>
        <time>2022-02-24T19:19:28Z</time>
      </trkpt>
      <trkpt lat="46.5177" lon="5.63912">
        <ele>457</ele>
        <time>2022-02-24T19:19:29Z</time>
      </trkpt>
      <trkpt lat="46.51772" lon="5.63912">
        <ele>457</ele>
        <time>2022-02-24T19:19:30Z</time>
      </trkpt>
      <trkpt lat="46.51774" lon="5.63911">
        <ele>457.4</ele>
        <time>2022-02-24T19:19:31Z</time>
      </trkpt>
      <trkpt lat="46.51776" lon="5.63911">
        <ele>457.4</ele>
        <time>2022-02-24T19:19:32Z</time>
      </trkpt>
      <trkpt lat="46.51778" lon="5.63912">
        <ele>457.8</ele>
        <time>2022-02-24T19:19:33Z</time>
      </trkpt>
      <trkpt lat="46.5178" lon="5.63912">
        <ele>458</ele>
        <time>2022-02-24T19:19:34Z</time>
      </trkpt>
      <trkpt lat="46.51782" lon="5.63911">
        <ele>458</ele>
        <time>2022-02-24T19:19:35Z</time>
      </trkpt>
      <trkpt lat="46.51782" lon="5.63911">
        <ele>458.2</ele>
        <time>2022-02-24T19:19:36Z</time>
      </trkpt>
      <trkpt lat="46.51784" lon="5.63911">
        <ele>458.2</ele>
        <time>2022-02-24T19:19:37Z</time>
      </trkpt>
      <trkpt lat="46.51786" lon="5.63911">
        <ele>458.6</ele>
        <time>2022-02-24T19:19:38Z</time>
      </trkpt>
      <trkpt lat="46.51788" lon="5.63911">
        <ele>458.6</ele>
        <time>2022-02-24T19:19:39Z</time>
      </trkpt>
      <trkpt lat="46.5179" lon="5.63911">
        <ele>458.8</ele>
        <time>2022-02-24T19:19:40Z</time>
      </trkpt>
      <trkpt lat="46.51792" lon="5.63911">
        <ele>458.8</ele>
        <time>2022-02-24T19:19:41Z</time>
      </trkpt>
      <trkpt lat="46.51794" lon="5.63911">
        <ele>459.2</ele>
        <time>2022-02-24T19:19:42Z</time>
      </trkpt>
      <trkpt lat="46.51796" lon="5.63911">
        <ele>459.2</ele>
        <time>2022-02-24T19:19:43Z</time>
      </trkpt>
      <trkpt lat="46.51798" lon="5.6391">
        <ele>459.6</ele>
        <time>2022-02-24T19:19:44Z</time>
      </trkpt>
      <trkpt lat="46.51801" lon="5.6391">
        <ele>459.6</ele>
        <time>2022-02-24T19:19:45Z</time>
      </trkpt>
      <trkpt lat="46.51803" lon="5.63909">
        <ele>459.8</ele>
        <time>2022-02-24T19:19:46Z</time>
      </trkpt>
      <trkpt lat="46.51805" lon="5.63909">
        <ele>459.8</ele>
        <time>2022-02-24T19:19:47Z</time>
      </trkpt>
      <trkpt lat="46.51807" lon="5.63908">
        <ele>460</ele>
        <time>2022-02-24T19:19:48Z</time>
      </trkpt>
      <trkpt lat="46.51809" lon="5.63908">
        <ele>460</ele>
        <time>2022-02-24T19:19:49Z</time>
      </trkpt>
      <trkpt lat="46.51812" lon="5.63908">
        <ele>460.4</ele>
        <time>2022-02-24T19:19:50Z</time>
      </trkpt>
      <trkpt lat="46.51814" lon="5.63907">
        <ele>460.4</ele>
        <time>2022-02-24T19:19:51Z</time>
      </trkpt>
      <trkpt lat="46.51816" lon="5.63907">
        <ele>460.8</ele>
        <time>2022-02-24T19:19:52Z</time>
      </trkpt>
      <trkpt lat="46.51818" lon="5.63907">
        <ele>460.8</ele>
        <time>2022-02-24T19:19:53Z</time>
      </trkpt>
      <trkpt lat="46.51821" lon="5.63907">
        <ele>461</ele>
        <time>2022-02-24T19:19:54Z</time>
      </trkpt>
      <trkpt lat="46.51823" lon="5.63906">
        <ele>461</ele>
        <time>2022-02-24T19:19:55Z</time>
      </trkpt>
      <trkpt lat="46.51825" lon="5.63906">
        <ele>461.4</ele>
        <time>2022-02-24T19:19:56Z</time>
      </trkpt>
      <trkpt lat="46.51827" lon="5.63906">
        <ele>461.4</ele>
        <time>2022-02-24T19:19:57Z</time>
      </trkpt>
      <trkpt lat="46.5183" lon="5.63906">
        <ele>461.8</ele>
        <time>2022-02-24T19:19:58Z</time>
      </trkpt>
      <trkpt lat="46.51832" lon="5.63906">
        <ele>462</ele>
        <time>2022-02-24T19:19:59Z</time>
      </trkpt>
      <trkpt lat="46.51834" lon="5.63905">
        <ele>462</ele>
        <time>2022-02-24T19:20:00Z</time>
      </trkpt>
      <trkpt lat="46.51836" lon="5.63905">
        <ele>462.2</ele>
        <time>2022-02-24T19:20:01Z</time>
      </trkpt>
      <trkpt lat="46.51838" lon="5.63904">
        <ele>462.2</ele>
        <time>2022-02-24T19:20:02Z</time>
      </trkpt>
      <trkpt lat="46.51841" lon="5.63903">
        <ele>462.6</ele>
        <time>2022-02-24T19:20:03Z</time>
      </trkpt>
      <trkpt lat="46.51843" lon="5.63903">
        <ele>462.8</ele>
        <time>2022-02-24T19:20:04Z</time>
      </trkpt>
      <trkpt lat="46.51845" lon="5.63903">
        <ele>462.8</ele>
        <time>2022-02-24T19:20:05Z</time>
      </trkpt>
      <trkpt lat="46.51847" lon="5.63903">
        <ele>463.2</ele>
        <time>2022-02-24T19:20:06Z</time>
      </trkpt>
      <trkpt lat="46.51849" lon="5.63902">
        <ele>463.2</ele>
        <time>2022-02-24T19:20:07Z</time>
      </trkpt>
      <trkpt lat="46.51851" lon="5.63901">
        <ele>463.6</ele>
        <time>2022-02-24T19:20:08Z</time>
      </trkpt>
      <trkpt lat="46.51854" lon="5.639">
        <ele>463.6</ele>
        <time>2022-02-24T19:20:09Z</time>
      </trkpt>
      <trkpt lat="46.51856" lon="5.63899">
        <ele>463.8</ele>
        <time>2022-02-24T19:20:10Z</time>
      </trkpt>
      <trkpt lat="46.51858" lon="5.63898">
        <ele>463.8</ele>
        <time>2022-02-24T19:20:11Z</time>
      </trkpt>
      <trkpt lat="46.51861" lon="5.63897">
        <ele>464.2</ele>
        <time>2022-02-24T19:20:12Z</time>
      </trkpt>
      <trkpt lat="46.51863" lon="5.63896">
        <ele>464.2</ele>
        <time>2022-02-24T19:20:13Z</time>
      </trkpt>
      <trkpt lat="46.51865" lon="5.63895">
        <ele>464.4</ele>
        <time>2022-02-24T19:20:14Z</time>
      </trkpt>
      <trkpt lat="46.51867" lon="5.63893">
        <ele>464.4</ele>
        <time>2022-02-24T19:20:15Z</time>
      </trkpt>
      <trkpt lat="46.51869" lon="5.63892">
        <ele>464.6</ele>
        <time>2022-02-24T19:20:16Z</time>
      </trkpt>
      <trkpt lat="46.51872" lon="5.6389">
        <ele>464.6</ele>
        <time>2022-02-24T19:20:17Z</time>
      </trkpt>
      <trkpt lat="46.51874" lon="5.63888">
        <ele>465</ele>
        <time>2022-02-24T19:20:18Z</time>
      </trkpt>
      <trkpt lat="46.51876" lon="5.63887">
        <ele>465</ele>
        <time>2022-02-24T19:20:19Z</time>
      </trkpt>
      <trkpt lat="46.51878" lon="5.63885">
        <ele>465.2</ele>
        <time>2022-02-24T19:20:20Z</time>
      </trkpt>
      <trkpt lat="46.5188" lon="5.63882">
        <ele>465.2</ele>
        <time>2022-02-24T19:20:21Z</time>
      </trkpt>
      <trkpt lat="46.51882" lon="5.6388">
        <ele>465.4</ele>
        <time>2022-02-24T19:20:22Z</time>
      </trkpt>
      <trkpt lat="46.51884" lon="5.63878">
        <ele>465.4</ele>
        <time>2022-02-24T19:20:23Z</time>
      </trkpt>
      <trkpt lat="46.51886" lon="5.63876">
        <ele>465.4</ele>
        <time>2022-02-24T19:20:24Z</time>
      </trkpt>
      <trkpt lat="46.51888" lon="5.63873">
        <ele>465.8</ele>
        <time>2022-02-24T19:20:25Z</time>
      </trkpt>
      <trkpt lat="46.51889" lon="5.63871">
        <ele>465.8</ele>
        <time>2022-02-24T19:20:26Z</time>
      </trkpt>
      <trkpt lat="46.51891" lon="5.63869">
        <ele>466</ele>
        <time>2022-02-24T19:20:27Z</time>
      </trkpt>
      <trkpt lat="46.51892" lon="5.63866">
        <ele>466</ele>
        <time>2022-02-24T19:20:28Z</time>
      </trkpt>
      <trkpt lat="46.51894" lon="5.63863">
        <ele>466.4</ele>
        <time>2022-02-24T19:20:29Z</time>
      </trkpt>
      <trkpt lat="46.51895" lon="5.6386">
        <ele>466.4</ele>
        <time>2022-02-24T19:20:30Z</time>
      </trkpt>
      <trkpt lat="46.51896" lon="5.63857">
        <ele>466.6</ele>
        <time>2022-02-24T19:20:31Z</time>
      </trkpt>
      <trkpt lat="46.51898" lon="5.63854">
        <ele>466.6</ele>
        <time>2022-02-24T19:20:32Z</time>
      </trkpt>
      <trkpt lat="46.51899" lon="5.63851">
        <ele>466.6</ele>
        <time>2022-02-24T19:20:33Z</time>
      </trkpt>
      <trkpt lat="46.51901" lon="5.63849">
        <ele>467</ele>
        <time>2022-02-24T19:20:34Z</time>
      </trkpt>
      <trkpt lat="46.51902" lon="5.63846">
        <ele>467</ele>
        <time>2022-02-24T19:20:35Z</time>
      </trkpt>
      <trkpt lat="46.51904" lon="5.63843">
        <ele>467</ele>
        <time>2022-02-24T19:20:36Z</time>
      </trkpt>
      <trkpt lat="46.51905" lon="5.6384">
        <ele>467.2</ele>
        <time>2022-02-24T19:20:37Z</time>
      </trkpt>
      <trkpt lat="46.51907" lon="5.63837">
        <ele>467.2</ele>
        <time>2022-02-24T19:20:38Z</time>
      </trkpt>
      <trkpt lat="46.51908" lon="5.63834">
        <ele>467.4</ele>
        <time>2022-02-24T19:20:39Z</time>
      </trkpt>
      <trkpt lat="46.5191" lon="5.63831">
        <ele>467.4</ele>
        <time>2022-02-24T19:20:40Z</time>
      </trkpt>
      <trkpt lat="46.51911" lon="5.63829">
        <ele>467.8</ele>
        <time>2022-02-24T19:20:41Z</time>
      </trkpt>
      <trkpt lat="46.51913" lon="5.63826">
        <ele>467.8</ele>
        <time>2022-02-24T19:20:42Z</time>
      </trkpt>
      <trkpt lat="46.51915" lon="5.63824">
        <ele>468</ele>
        <time>2022-02-24T19:20:43Z</time>
      </trkpt>
      <trkpt lat="46.51916" lon="5.63821">
        <ele>468</ele>
        <time>2022-02-24T19:20:44Z</time>
      </trkpt>
      <trkpt lat="46.51918" lon="5.63818">
        <ele>468.2</ele>
        <time>2022-02-24T19:20:45Z</time>
      </trkpt>
      <trkpt lat="46.51919" lon="5.63815">
        <ele>468.2</ele>
        <time>2022-02-24T19:20:46Z</time>
      </trkpt>
      <trkpt lat="46.5192" lon="5.63813">
        <ele>468.6</ele>
        <time>2022-02-24T19:20:47Z</time>
      </trkpt>
      <trkpt lat="46.51922" lon="5.63811">
        <ele>468.6</ele>
        <time>2022-02-24T19:20:48Z</time>
      </trkpt>
      <trkpt lat="46.51924" lon="5.63808">
        <ele>468.8</ele>
        <time>2022-02-24T19:20:49Z</time>
      </trkpt>
      <trkpt lat="46.51926" lon="5.63807">
        <ele>468.8</ele>
        <time>2022-02-24T19:20:50Z</time>
      </trkpt>
      <trkpt lat="46.51928" lon="5.63805">
        <ele>469.2</ele>
        <time>2022-02-24T19:20:51Z</time>
      </trkpt>
      <trkpt lat="46.5193" lon="5.63804">
        <ele>469.2</ele>
        <time>2022-02-24T19:20:52Z</time>
      </trkpt>
      <trkpt lat="46.51932" lon="5.63802">
        <ele>469.4</ele>
        <time>2022-02-24T19:20:53Z</time>
      </trkpt>
      <trkpt lat="46.51934" lon="5.638">
        <ele>469.4</ele>
        <time>2022-02-24T19:20:54Z</time>
      </trkpt>
      <trkpt lat="46.51936" lon="5.63799">
        <ele>469.8</ele>
        <time>2022-02-24T19:20:55Z</time>
      </trkpt>
      <trkpt lat="46.51939" lon="5.63797">
        <ele>469.8</ele>
        <time>2022-02-24T19:20:56Z</time>
      </trkpt>
      <trkpt lat="46.51941" lon="5.63795">
        <ele>470</ele>
        <time>2022-02-24T19:20:57Z</time>
      </trkpt>
      <trkpt lat="46.51943" lon="5.63793">
        <ele>470</ele>
        <time>2022-02-24T19:20:58Z</time>
      </trkpt>
      <trkpt lat="46.51945" lon="5.63791">
        <ele>470.2</ele>
        <time>2022-02-24T19:20:59Z</time>
      </trkpt>
      <trkpt lat="46.51947" lon="5.63789">
        <ele>470.2</ele>
        <time>2022-02-24T19:21:00Z</time>
      </trkpt>
      <trkpt lat="46.51949" lon="5.63787">
        <ele>470.6</ele>
        <time>2022-02-24T19:21:01Z</time>
      </trkpt>
      <trkpt lat="46.51951" lon="5.63785">
        <ele>470.6</ele>
        <time>2022-02-24T19:21:02Z</time>
      </trkpt>
      <trkpt lat="46.51953" lon="5.63784">
        <ele>470.8</ele>
        <time>2022-02-24T19:21:03Z</time>
      </trkpt>
      <trkpt lat="46.51956" lon="5.63782">
        <ele>470.8</ele>
        <time>2022-02-24T19:21:04Z</time>
      </trkpt>
      <trkpt lat="46.51958" lon="5.63781">
        <ele>470.8</ele>
        <time>2022-02-24T19:21:05Z</time>
      </trkpt>
      <trkpt lat="46.51961" lon="5.6378">
        <ele>471.2</ele>
        <time>2022-02-24T19:21:06Z</time>
      </trkpt>
      <trkpt lat="46.51963" lon="5.63778">
        <ele>471.2</ele>
        <time>2022-02-24T19:21:07Z</time>
      </trkpt>
      <trkpt lat="46.51966" lon="5.63777">
        <ele>471.4</ele>
        <time>2022-02-24T19:21:08Z</time>
      </trkpt>
      <trkpt lat="46.51968" lon="5.63775">
        <ele>471.4</ele>
        <time>2022-02-24T19:21:09Z</time>
      </trkpt>
      <trkpt lat="46.5197" lon="5.63773">
        <ele>471.4</ele>
        <time>2022-02-24T19:21:10Z</time>
      </trkpt>
      <trkpt lat="46.51973" lon="5.63771">
        <ele>471.6</ele>
        <time>2022-02-24T19:21:11Z</time>
      </trkpt>
      <trkpt lat="46.51975" lon="5.63769">
        <ele>471.6</ele>
        <time>2022-02-24T19:21:12Z</time>
      </trkpt>
      <trkpt lat="46.51977" lon="5.63767">
        <ele>471.6</ele>
        <time>2022-02-24T19:21:13Z</time>
      </trkpt>
      <trkpt lat="46.5198" lon="5.63765">
        <ele>471.6</ele>
        <time>2022-02-24T19:21:14Z</time>
      </trkpt>
      <trkpt lat="46.51982" lon="5.63763">
        <ele>471.8</ele>
        <time>2022-02-24T19:21:15Z</time>
      </trkpt>
      <trkpt lat="46.51985" lon="5.63761">
        <ele>471.8</ele>
        <time>2022-02-24T19:21:16Z</time>
      </trkpt>
      <trkpt lat="46.51988" lon="5.63759">
        <ele>472</ele>
        <time>2022-02-24T19:21:17Z</time>
      </trkpt>
      <trkpt lat="46.5199" lon="5.63756">
        <ele>472</ele>
        <time>2022-02-24T19:21:18Z</time>
      </trkpt>
      <trkpt lat="46.51993" lon="5.63754">
        <ele>472</ele>
        <time>2022-02-24T19:21:19Z</time>
      </trkpt>
      <trkpt lat="46.51996" lon="5.63752">
        <ele>472</ele>
        <time>2022-02-24T19:21:20Z</time>
      </trkpt>
      <trkpt lat="46.51998" lon="5.63749">
        <ele>472.4</ele>
        <time>2022-02-24T19:21:21Z</time>
      </trkpt>
      <trkpt lat="46.52001" lon="5.63747">
        <ele>472.4</ele>
        <time>2022-02-24T19:21:22Z</time>
      </trkpt>
      <trkpt lat="46.52003" lon="5.63744">
        <ele>472.6</ele>
        <time>2022-02-24T19:21:23Z</time>
      </trkpt>
      <trkpt lat="46.52006" lon="5.63741">
        <ele>472.6</ele>
        <time>2022-02-24T19:21:24Z</time>
      </trkpt>
      <trkpt lat="46.52008" lon="5.63738">
        <ele>472.6</ele>
        <time>2022-02-24T19:21:25Z</time>
      </trkpt>
      <trkpt lat="46.52011" lon="5.63735">
        <ele>473</ele>
        <time>2022-02-24T19:21:26Z</time>
      </trkpt>
      <trkpt lat="46.52013" lon="5.63732">
        <ele>473</ele>
        <time>2022-02-24T19:21:27Z</time>
      </trkpt>
      <trkpt lat="46.52016" lon="5.63729">
        <ele>473.2</ele>
        <time>2022-02-24T19:21:28Z</time>
      </trkpt>
      <trkpt lat="46.52018" lon="5.63726">
        <ele>473.2</ele>
        <time>2022-02-24T19:21:29Z</time>
      </trkpt>
      <trkpt lat="46.5202" lon="5.63722">
        <ele>473.2</ele>
        <time>2022-02-24T19:21:30Z</time>
      </trkpt>
      <trkpt lat="46.52023" lon="5.63719">
        <ele>473.2</ele>
        <time>2022-02-24T19:21:31Z</time>
      </trkpt>
      <trkpt lat="46.52025" lon="5.63715">
        <ele>473.2</ele>
        <time>2022-02-24T19:21:32Z</time>
      </trkpt>
      <trkpt lat="46.52028" lon="5.63711">
        <ele>473.2</ele>
        <time>2022-02-24T19:21:33Z</time>
      </trkpt>
      <trkpt lat="46.5203" lon="5.63706">
        <ele>473.2</ele>
        <time>2022-02-24T19:21:34Z</time>
      </trkpt>
      <trkpt lat="46.52033" lon="5.63702">
        <ele>473.2</ele>
        <time>2022-02-24T19:21:35Z</time>
      </trkpt>
      <trkpt lat="46.52036" lon="5.63698">
        <ele>473.2</ele>
        <time>2022-02-24T19:21:36Z</time>
      </trkpt>
      <trkpt lat="46.52039" lon="5.63694">
        <ele>473.2</ele>
        <time>2022-02-24T19:21:37Z</time>
      </trkpt>
      <trkpt lat="46.52041" lon="5.6369">
        <ele>473.2</ele>
        <time>2022-02-24T19:21:38Z</time>
      </trkpt>
      <trkpt lat="46.52044" lon="5.63685">
        <ele>473.2</ele>
        <time>2022-02-24T19:21:39Z</time>
      </trkpt>
      <trkpt lat="46.52047" lon="5.6368">
        <ele>473.2</ele>
        <time>2022-02-24T19:21:40Z</time>
      </trkpt>
      <trkpt lat="46.5205" lon="5.63676">
        <ele>473.2</ele>
        <time>2022-02-24T19:21:41Z</time>
      </trkpt>
      <trkpt lat="46.52054" lon="5.63671">
        <ele>473.2</ele>
        <time>2022-02-24T19:21:42Z</time>
      </trkpt>
      <trkpt lat="46.52057" lon="5.63667">
        <ele>473.2</ele>
        <time>2022-02-24T19:21:43Z</time>
      </trkpt>
      <trkpt lat="46.5206" lon="5.63663">
        <ele>473.2</ele>
        <time>2022-02-24T19:21:44Z</time>
      </trkpt>
      <trkpt lat="46.52063" lon="5.63658">
        <ele>473.2</ele>
        <time>2022-02-24T19:21:45Z</time>
      </trkpt>
      <trkpt lat="46.52066" lon="5.63654">
        <ele>473.2</ele>
        <time>2022-02-24T19:21:46Z</time>
      </trkpt>
      <trkpt lat="46.52069" lon="5.63649">
        <ele>473.2</ele>
        <time>2022-02-24T19:21:47Z</time>
      </trkpt>
      <trkpt lat="46.52071" lon="5.63645">
        <ele>473.2</ele>
        <time>2022-02-24T19:21:48Z</time>
      </trkpt>
      <trkpt lat="46.52074" lon="5.6364">
        <ele>473.2</ele>
        <time>2022-02-24T19:21:49Z</time>
      </trkpt>
      <trkpt lat="46.52077" lon="5.63635">
        <ele>473.2</ele>
        <time>2022-02-24T19:21:50Z</time>
      </trkpt>
      <trkpt lat="46.5208" lon="5.6363">
        <ele>473.2</ele>
        <time>2022-02-24T19:21:51Z</time>
      </trkpt>
      <trkpt lat="46.52083" lon="5.63625">
        <ele>473.2</ele>
        <time>2022-02-24T19:21:52Z</time>
      </trkpt>
      <trkpt lat="46.52086" lon="5.6362">
        <ele>473.2</ele>
        <time>2022-02-24T19:21:53Z</time>
      </trkpt>
      <trkpt lat="46.52089" lon="5.63615">
        <ele>473.2</ele>
        <time>2022-02-24T19:21:54Z</time>
      </trkpt>
      <trkpt lat="46.52092" lon="5.6361">
        <ele>473.2</ele>
        <time>2022-02-24T19:21:55Z</time>
      </trkpt>
      <trkpt lat="46.52095" lon="5.63605">
        <ele>473.2</ele>
        <time>2022-02-24T19:21:56Z</time>
      </trkpt>
      <trkpt lat="46.52097" lon="5.636">
        <ele>473.2</ele>
        <time>2022-02-24T19:21:57Z</time>
      </trkpt>
      <trkpt lat="46.52099" lon="5.63595">
        <ele>473.2</ele>
        <time>2022-02-24T19:21:58Z</time>
      </trkpt>
      <trkpt lat="46.52101" lon="5.63589">
        <ele>473.2</ele>
        <time>2022-02-24T19:21:59Z</time>
      </trkpt>
      <trkpt lat="46.52103" lon="5.63583">
        <ele>473.2</ele>
        <time>2022-02-24T19:22:00Z</time>
      </trkpt>
      <trkpt lat="46.52104" lon="5.63577">
        <ele>473.2</ele>
        <time>2022-02-24T19:22:01Z</time>
      </trkpt>
      <trkpt lat="46.52106" lon="5.63571">
        <ele>473</ele>
        <time>2022-02-24T19:22:02Z</time>
      </trkpt>
      <trkpt lat="46.52107" lon="5.63565">
        <ele>473</ele>
        <time>2022-02-24T19:22:03Z</time>
      </trkpt>
      <trkpt lat="46.52109" lon="5.63558">
        <ele>473</ele>
        <time>2022-02-24T19:22:04Z</time>
      </trkpt>
      <trkpt lat="46.52111" lon="5.63552">
        <ele>473</ele>
        <time>2022-02-24T19:22:05Z</time>
      </trkpt>
      <trkpt lat="46.52113" lon="5.63546">
        <ele>472.8</ele>
        <time>2022-02-24T19:22:06Z</time>
      </trkpt>
      <trkpt lat="46.52114" lon="5.63539">
        <ele>472.8</ele>
        <time>2022-02-24T19:22:07Z</time>
      </trkpt>
      <trkpt lat="46.52116" lon="5.63533">
        <ele>472.8</ele>
        <time>2022-02-24T19:22:08Z</time>
      </trkpt>
      <trkpt lat="46.52118" lon="5.63527">
        <ele>472.6</ele>
        <time>2022-02-24T19:22:09Z</time>
      </trkpt>
      <trkpt lat="46.5212" lon="5.63521">
        <ele>472.6</ele>
        <time>2022-02-24T19:22:10Z</time>
      </trkpt>
      <trkpt lat="46.52123" lon="5.63516">
        <ele>472.6</ele>
        <time>2022-02-24T19:22:11Z</time>
      </trkpt>
      <trkpt lat="46.52125" lon="5.63511">
        <ele>472.6</ele>
        <time>2022-02-24T19:22:12Z</time>
      </trkpt>
      <trkpt lat="46.52128" lon="5.63506">
        <ele>472.6</ele>
        <time>2022-02-24T19:22:13Z</time>
      </trkpt>
      <trkpt lat="46.52131" lon="5.635">
        <ele>472.6</ele>
        <time>2022-02-24T19:22:14Z</time>
      </trkpt>
      <trkpt lat="46.52134" lon="5.63495">
        <ele>472.6</ele>
        <time>2022-02-24T19:22:15Z</time>
      </trkpt>
      <trkpt lat="46.52137" lon="5.6349">
        <ele>472.6</ele>
        <time>2022-02-24T19:22:16Z</time>
      </trkpt>
      <trkpt lat="46.5214" lon="5.63485">
        <ele>472.6</ele>
        <time>2022-02-24T19:22:17Z</time>
      </trkpt>
      <trkpt lat="46.52142" lon="5.63479">
        <ele>472.6</ele>
        <time>2022-02-24T19:22:18Z</time>
      </trkpt>
      <trkpt lat="46.52146" lon="5.63474">
        <ele>472.6</ele>
        <time>2022-02-24T19:22:19Z</time>
      </trkpt>
      <trkpt lat="46.52149" lon="5.63469">
        <ele>472.6</ele>
        <time>2022-02-24T19:22:20Z</time>
      </trkpt>
      <trkpt lat="46.52152" lon="5.63464">
        <ele>472.6</ele>
        <time>2022-02-24T19:22:21Z</time>
      </trkpt>
      <trkpt lat="46.52155" lon="5.63458">
        <ele>472.2</ele>
        <time>2022-02-24T19:22:22Z</time>
      </trkpt>
      <trkpt lat="46.52158" lon="5.63453">
        <ele>472.2</ele>
        <time>2022-02-24T19:22:23Z</time>
      </trkpt>
      <trkpt lat="46.52161" lon="5.63449">
        <ele>472.2</ele>
        <time>2022-02-24T19:22:24Z</time>
      </trkpt>
      <trkpt lat="46.52165" lon="5.63444">
        <ele>472.2</ele>
        <time>2022-02-24T19:22:25Z</time>
      </trkpt>
      <trkpt lat="46.52168" lon="5.63439">
        <ele>472.2</ele>
        <time>2022-02-24T19:22:26Z</time>
      </trkpt>
      <trkpt lat="46.52171" lon="5.63435">
        <ele>472.2</ele>
        <time>2022-02-24T19:22:27Z</time>
      </trkpt>
      <trkpt lat="46.52175" lon="5.6343">
        <ele>472.2</ele>
        <time>2022-02-24T19:22:28Z</time>
      </trkpt>
      <trkpt lat="46.52179" lon="5.63426">
        <ele>472.2</ele>
        <time>2022-02-24T19:22:29Z</time>
      </trkpt>
      <trkpt lat="46.52183" lon="5.63422">
        <ele>472.2</ele>
        <time>2022-02-24T19:22:30Z</time>
      </trkpt>
      <trkpt lat="46.52187" lon="5.63419">
        <ele>472.2</ele>
        <time>2022-02-24T19:22:31Z</time>
      </trkpt>
      <trkpt lat="46.52191" lon="5.63416">
        <ele>472.2</ele>
        <time>2022-02-24T19:22:32Z</time>
      </trkpt>
      <trkpt lat="46.52195" lon="5.63413">
        <ele>472.6</ele>
        <time>2022-02-24T19:22:33Z</time>
      </trkpt>
      <trkpt lat="46.52199" lon="5.6341">
        <ele>472.6</ele>
        <time>2022-02-24T19:22:34Z</time>
      </trkpt>
      <trkpt lat="46.52203" lon="5.63408">
        <ele>472.6</ele>
        <time>2022-02-24T19:22:35Z</time>
      </trkpt>
      <trkpt lat="46.52207" lon="5.63406">
        <ele>472.6</ele>
        <time>2022-02-24T19:22:36Z</time>
      </trkpt>
      <trkpt lat="46.52211" lon="5.63405">
        <ele>472.6</ele>
        <time>2022-02-24T19:22:37Z</time>
      </trkpt>
      <trkpt lat="46.52215" lon="5.63403">
        <ele>472.8</ele>
        <time>2022-02-24T19:22:38Z</time>
      </trkpt>
      <trkpt lat="46.5222" lon="5.63402">
        <ele>472.8</ele>
        <time>2022-02-24T19:22:39Z</time>
      </trkpt>
      <trkpt lat="46.52224" lon="5.63401">
        <ele>472.8</ele>
        <time>2022-02-24T19:22:40Z</time>
      </trkpt>
      <trkpt lat="46.52228" lon="5.63399">
        <ele>472.8</ele>
        <time>2022-02-24T19:22:41Z</time>
      </trkpt>
      <trkpt lat="46.52232" lon="5.63398">
        <ele>472.8</ele>
        <time>2022-02-24T19:22:42Z</time>
      </trkpt>
      <trkpt lat="46.52237" lon="5.63398">
        <ele>473</ele>
        <time>2022-02-24T19:22:43Z</time>
      </trkpt>
      <trkpt lat="46.52241" lon="5.63397">
        <ele>473</ele>
        <time>2022-02-24T19:22:44Z</time>
      </trkpt>
      <trkpt lat="46.52246" lon="5.63396">
        <ele>473</ele>
        <time>2022-02-24T19:22:45Z</time>
      </trkpt>
      <trkpt lat="46.5225" lon="5.63395">
        <ele>473</ele>
        <time>2022-02-24T19:22:46Z</time>
      </trkpt>
      <trkpt lat="46.52254" lon="5.63395">
        <ele>473.2</ele>
        <time>2022-02-24T19:22:47Z</time>
      </trkpt>
      <trkpt lat="46.52258" lon="5.63394">
        <ele>473.2</ele>
        <time>2022-02-24T19:22:48Z</time>
      </trkpt>
      <trkpt lat="46.52262" lon="5.63394">
        <ele>473.4</ele>
        <time>2022-02-24T19:22:49Z</time>
      </trkpt>
      <trkpt lat="46.52266" lon="5.63393">
        <ele>473.4</ele>
        <time>2022-02-24T19:22:50Z</time>
      </trkpt>
      <trkpt lat="46.5227" lon="5.63393">
        <ele>473.6</ele>
        <time>2022-02-24T19:22:51Z</time>
      </trkpt>
      <trkpt lat="46.52274" lon="5.63392">
        <ele>473.6</ele>
        <time>2022-02-24T19:22:52Z</time>
      </trkpt>
      <trkpt lat="46.52277" lon="5.63392">
        <ele>473.6</ele>
        <time>2022-02-24T19:22:53Z</time>
      </trkpt>
      <trkpt lat="46.52281" lon="5.63392">
        <ele>474</ele>
        <time>2022-02-24T19:22:54Z</time>
      </trkpt>
      <trkpt lat="46.52284" lon="5.63391">
        <ele>474</ele>
        <time>2022-02-24T19:22:55Z</time>
      </trkpt>
      <trkpt lat="46.52288" lon="5.6339">
        <ele>474.2</ele>
        <time>2022-02-24T19:22:56Z</time>
      </trkpt>
      <trkpt lat="46.52291" lon="5.6339">
        <ele>474.2</ele>
        <time>2022-02-24T19:22:57Z</time>
      </trkpt>
      <trkpt lat="46.52294" lon="5.63389">
        <ele>474.4</ele>
        <time>2022-02-24T19:22:58Z</time>
      </trkpt>
      <trkpt lat="46.52298" lon="5.63388">
        <ele>474.6</ele>
        <time>2022-02-24T19:22:59Z</time>
      </trkpt>
      <trkpt lat="46.52301" lon="5.63387">
        <ele>475</ele>
        <time>2022-02-24T19:23:00Z</time>
      </trkpt>
      <trkpt lat="46.52304" lon="5.63386">
        <ele>475</ele>
        <time>2022-02-24T19:23:01Z</time>
      </trkpt>
      <trkpt lat="46.52307" lon="5.63386">
        <ele>475.4</ele>
        <time>2022-02-24T19:23:02Z</time>
      </trkpt>
      <trkpt lat="46.5231" lon="5.63385">
        <ele>475.6</ele>
        <time>2022-02-24T19:23:03Z</time>
      </trkpt>
      <trkpt lat="46.52313" lon="5.63384">
        <ele>475.8</ele>
        <time>2022-02-24T19:23:04Z</time>
      </trkpt>
      <trkpt lat="46.52316" lon="5.63383">
        <ele>476.2</ele>
        <time>2022-02-24T19:23:05Z</time>
      </trkpt>
      <trkpt lat="46.52319" lon="5.63381">
        <ele>476.4</ele>
        <time>2022-02-24T19:23:06Z</time>
      </trkpt>
      <trkpt lat="46.52322" lon="5.6338">
        <ele>476.6</ele>
        <time>2022-02-24T19:23:07Z</time>
      </trkpt>
      <trkpt lat="46.52325" lon="5.6338">
        <ele>476.6</ele>
        <time>2022-02-24T19:23:08Z</time>
      </trkpt>
      <trkpt lat="46.52328" lon="5.63379">
        <ele>477</ele>
        <time>2022-02-24T19:23:09Z</time>
      </trkpt>
      <trkpt lat="46.52331" lon="5.63378">
        <ele>477.2</ele>
        <time>2022-02-24T19:23:10Z</time>
      </trkpt>
      <trkpt lat="46.52334" lon="5.63377">
        <ele>477.2</ele>
        <time>2022-02-24T19:23:11Z</time>
      </trkpt>
      <trkpt lat="46.52337" lon="5.63375">
        <ele>477.6</ele>
        <time>2022-02-24T19:23:12Z</time>
      </trkpt>
      <trkpt lat="46.52339" lon="5.63374">
        <ele>477.6</ele>
        <time>2022-02-24T19:23:13Z</time>
      </trkpt>
      <trkpt lat="46.52342" lon="5.63372">
        <ele>478</ele>
        <time>2022-02-24T19:23:14Z</time>
      </trkpt>
      <trkpt lat="46.52345" lon="5.6337">
        <ele>478.2</ele>
        <time>2022-02-24T19:23:15Z</time>
      </trkpt>
      <trkpt lat="46.52347" lon="5.63368">
        <ele>478.4</ele>
        <time>2022-02-24T19:23:16Z</time>
      </trkpt>
      <trkpt lat="46.52349" lon="5.63365">
        <ele>478.6</ele>
        <time>2022-02-24T19:23:17Z</time>
      </trkpt>
      <trkpt lat="46.52352" lon="5.63363">
        <ele>478.8</ele>
        <time>2022-02-24T19:23:18Z</time>
      </trkpt>
      <trkpt lat="46.52354" lon="5.6336">
        <ele>478.8</ele>
        <time>2022-02-24T19:23:19Z</time>
      </trkpt>
      <trkpt lat="46.52356" lon="5.63358">
        <ele>479.2</ele>
        <time>2022-02-24T19:23:20Z</time>
      </trkpt>
      <trkpt lat="46.52359" lon="5.63356">
        <ele>479.2</ele>
        <time>2022-02-24T19:23:21Z</time>
      </trkpt>
      <trkpt lat="46.52361" lon="5.63354">
        <ele>479.6</ele>
        <time>2022-02-24T19:23:22Z</time>
      </trkpt>
      <trkpt lat="46.52363" lon="5.63351">
        <ele>479.6</ele>
        <time>2022-02-24T19:23:23Z</time>
      </trkpt>
      <trkpt lat="46.52365" lon="5.63349">
        <ele>479.8</ele>
        <time>2022-02-24T19:23:24Z</time>
      </trkpt>
      <trkpt lat="46.52367" lon="5.63346">
        <ele>479.8</ele>
        <time>2022-02-24T19:23:25Z</time>
      </trkpt>
      <trkpt lat="46.52369" lon="5.63344">
        <ele>480.2</ele>
        <time>2022-02-24T19:23:26Z</time>
      </trkpt>
      <trkpt lat="46.52371" lon="5.63342">
        <ele>480.2</ele>
        <time>2022-02-24T19:23:27Z</time>
      </trkpt>
      <trkpt lat="46.52373" lon="5.6334">
        <ele>480.6</ele>
        <time>2022-02-24T19:23:28Z</time>
      </trkpt>
      <trkpt lat="46.52376" lon="5.63338">
        <ele>480.6</ele>
        <time>2022-02-24T19:23:29Z</time>
      </trkpt>
      <trkpt lat="46.52378" lon="5.63336">
        <ele>481</ele>
        <time>2022-02-24T19:23:30Z</time>
      </trkpt>
      <trkpt lat="46.5238" lon="5.63333">
        <ele>481</ele>
        <time>2022-02-24T19:23:31Z</time>
      </trkpt>
      <trkpt lat="46.52382" lon="5.63331">
        <ele>481.2</ele>
        <time>2022-02-24T19:23:32Z</time>
      </trkpt>
      <trkpt lat="46.52384" lon="5.63329">
        <ele>481.2</ele>
        <time>2022-02-24T19:23:33Z</time>
      </trkpt>
      <trkpt lat="46.52386" lon="5.63327">
        <ele>481.6</ele>
        <time>2022-02-24T19:23:34Z</time>
      </trkpt>
      <trkpt lat="46.52388" lon="5.63325">
        <ele>481.6</ele>
        <time>2022-02-24T19:23:35Z</time>
      </trkpt>
      <trkpt lat="46.5239" lon="5.63323">
        <ele>482</ele>
        <time>2022-02-24T19:23:36Z</time>
      </trkpt>
      <trkpt lat="46.52392" lon="5.63322">
        <ele>482</ele>
        <time>2022-02-24T19:23:37Z</time>
      </trkpt>
      <trkpt lat="46.52393" lon="5.6332">
        <ele>482.2</ele>
        <time>2022-02-24T19:23:38Z</time>
      </trkpt>
      <trkpt lat="46.52395" lon="5.63319">
        <ele>482.2</ele>
        <time>2022-02-24T19:23:39Z</time>
      </trkpt>
      <trkpt lat="46.52397" lon="5.63318">
        <ele>482.6</ele>
        <time>2022-02-24T19:23:40Z</time>
      </trkpt>
      <trkpt lat="46.52399" lon="5.63316">
        <ele>482.6</ele>
        <time>2022-02-24T19:23:41Z</time>
      </trkpt>
      <trkpt lat="46.52401" lon="5.63315">
        <ele>483</ele>
        <time>2022-02-24T19:23:42Z</time>
      </trkpt>
      <trkpt lat="46.52403" lon="5.63314">
        <ele>483</ele>
        <time>2022-02-24T19:23:43Z</time>
      </trkpt>
      <trkpt lat="46.52405" lon="5.63312">
        <ele>483.2</ele>
        <time>2022-02-24T19:23:44Z</time>
      </trkpt>
      <trkpt lat="46.52407" lon="5.63311">
        <ele>483.2</ele>
        <time>2022-02-24T19:23:45Z</time>
      </trkpt>
      <trkpt lat="46.52409" lon="5.6331">
        <ele>483.6</ele>
        <time>2022-02-24T19:23:46Z</time>
      </trkpt>
      <trkpt lat="46.52412" lon="5.63309">
        <ele>483.6</ele>
        <time>2022-02-24T19:23:47Z</time>
      </trkpt>
      <trkpt lat="46.52414" lon="5.63307">
        <ele>483.8</ele>
        <time>2022-02-24T19:23:48Z</time>
      </trkpt>
      <trkpt lat="46.52416" lon="5.63306">
        <ele>483.8</ele>
        <time>2022-02-24T19:23:49Z</time>
      </trkpt>
      <trkpt lat="46.52418" lon="5.63305">
        <ele>484.2</ele>
        <time>2022-02-24T19:23:50Z</time>
      </trkpt>
      <trkpt lat="46.5242" lon="5.63305">
        <ele>484.2</ele>
        <time>2022-02-24T19:23:51Z</time>
      </trkpt>
      <trkpt lat="46.52422" lon="5.63304">
        <ele>484.6</ele>
        <time>2022-02-24T19:23:52Z</time>
      </trkpt>
      <trkpt lat="46.52424" lon="5.63303">
        <ele>484.6</ele>
        <time>2022-02-24T19:23:53Z</time>
      </trkpt>
      <trkpt lat="46.52426" lon="5.63303">
        <ele>485</ele>
        <time>2022-02-24T19:23:54Z</time>
      </trkpt>
      <trkpt lat="46.52428" lon="5.63303">
        <ele>485</ele>
        <time>2022-02-24T19:23:55Z</time>
      </trkpt>
      <trkpt lat="46.5243" lon="5.63302">
        <ele>485.4</ele>
        <time>2022-02-24T19:23:56Z</time>
      </trkpt>
      <trkpt lat="46.52432" lon="5.63302">
        <ele>485.4</ele>
        <time>2022-02-24T19:23:57Z</time>
      </trkpt>
      <trkpt lat="46.52434" lon="5.63302">
        <ele>485.6</ele>
        <time>2022-02-24T19:23:58Z</time>
      </trkpt>
      <trkpt lat="46.52436" lon="5.63301">
        <ele>486</ele>
        <time>2022-02-24T19:23:59Z</time>
      </trkpt>
      <trkpt lat="46.52438" lon="5.633">
        <ele>486</ele>
        <time>2022-02-24T19:24:00Z</time>
      </trkpt>
      <trkpt lat="46.5244" lon="5.633">
        <ele>486.4</ele>
        <time>2022-02-24T19:24:01Z</time>
      </trkpt>
      <trkpt lat="46.52442" lon="5.63299">
        <ele>486.6</ele>
        <time>2022-02-24T19:24:02Z</time>
      </trkpt>
      <trkpt lat="46.52444" lon="5.63299">
        <ele>486.8</ele>
        <time>2022-02-24T19:24:03Z</time>
      </trkpt>
      <trkpt lat="46.52446" lon="5.63298">
        <ele>486.8</ele>
        <time>2022-02-24T19:24:04Z</time>
      </trkpt>
      <trkpt lat="46.52447" lon="5.63298">
        <ele>487</ele>
        <time>2022-02-24T19:24:05Z</time>
      </trkpt>
      <trkpt lat="46.52449" lon="5.63298">
        <ele>487.4</ele>
        <time>2022-02-24T19:24:06Z</time>
      </trkpt>
      <trkpt lat="46.52451" lon="5.63297">
        <ele>487.4</ele>
        <time>2022-02-24T19:24:07Z</time>
      </trkpt>
      <trkpt lat="46.52452" lon="5.63297">
        <ele>487.6</ele>
        <time>2022-02-24T19:24:08Z</time>
      </trkpt>
      <trkpt lat="46.52454" lon="5.63297">
        <ele>487.6</ele>
        <time>2022-02-24T19:24:09Z</time>
      </trkpt>
      <trkpt lat="46.52457" lon="5.63297">
        <ele>488</ele>
        <time>2022-02-24T19:24:10Z</time>
      </trkpt>
      <trkpt lat="46.52459" lon="5.63296">
        <ele>488.2</ele>
        <time>2022-02-24T19:24:11Z</time>
      </trkpt>
      <trkpt lat="46.52462" lon="5.63296">
        <ele>488.4</ele>
        <time>2022-02-24T19:24:12Z</time>
      </trkpt>
      <trkpt lat="46.52464" lon="5.63295">
        <ele>488.4</ele>
        <time>2022-02-24T19:24:13Z</time>
      </trkpt>
      <trkpt lat="46.52467" lon="5.63295">
        <ele>488.8</ele>
        <time>2022-02-24T19:24:14Z</time>
      </trkpt>
      <trkpt lat="46.52469" lon="5.63294">
        <ele>489</ele>
        <time>2022-02-24T19:24:15Z</time>
      </trkpt>
      <trkpt lat="46.52471" lon="5.63294">
        <ele>489.4</ele>
        <time>2022-02-24T19:24:16Z</time>
      </trkpt>
      <trkpt lat="46.52474" lon="5.63293">
        <ele>489.6</ele>
        <time>2022-02-24T19:24:17Z</time>
      </trkpt>
      <trkpt lat="46.52476" lon="5.63292">
        <ele>489.6</ele>
        <time>2022-02-24T19:24:18Z</time>
      </trkpt>
      <trkpt lat="46.52478" lon="5.63292">
        <ele>490</ele>
        <time>2022-02-24T19:24:19Z</time>
      </trkpt>
      <trkpt lat="46.5248" lon="5.63291">
        <ele>490</ele>
        <time>2022-02-24T19:24:20Z</time>
      </trkpt>
      <trkpt lat="46.52483" lon="5.6329">
        <ele>490.2</ele>
        <time>2022-02-24T19:24:21Z</time>
      </trkpt>
      <trkpt lat="46.52485" lon="5.63289">
        <ele>490.6</ele>
        <time>2022-02-24T19:24:22Z</time>
      </trkpt>
      <trkpt lat="46.52487" lon="5.63288">
        <ele>490.6</ele>
        <time>2022-02-24T19:24:23Z</time>
      </trkpt>
      <trkpt lat="46.52489" lon="5.63287">
        <ele>490.8</ele>
        <time>2022-02-24T19:24:24Z</time>
      </trkpt>
      <trkpt lat="46.52491" lon="5.63286">
        <ele>490.8</ele>
        <time>2022-02-24T19:24:25Z</time>
      </trkpt>
      <trkpt lat="46.52493" lon="5.63285">
        <ele>491.2</ele>
        <time>2022-02-24T19:24:26Z</time>
      </trkpt>
      <trkpt lat="46.52495" lon="5.63285">
        <ele>491.2</ele>
        <time>2022-02-24T19:24:27Z</time>
      </trkpt>
      <trkpt lat="46.52497" lon="5.63284">
        <ele>491.6</ele>
        <time>2022-02-24T19:24:28Z</time>
      </trkpt>
      <trkpt lat="46.52499" lon="5.63283">
        <ele>491.8</ele>
        <time>2022-02-24T19:24:29Z</time>
      </trkpt>
      <trkpt lat="46.52501" lon="5.63282">
        <ele>492</ele>
        <time>2022-02-24T19:24:30Z</time>
      </trkpt>
      <trkpt lat="46.52504" lon="5.63281">
        <ele>492</ele>
        <time>2022-02-24T19:24:31Z</time>
      </trkpt>
      <trkpt lat="46.52506" lon="5.6328">
        <ele>492.4</ele>
        <time>2022-02-24T19:24:32Z</time>
      </trkpt>
      <trkpt lat="46.52508" lon="5.63279">
        <ele>492.6</ele>
        <time>2022-02-24T19:24:33Z</time>
      </trkpt>
      <trkpt lat="46.5251" lon="5.63278">
        <ele>492.6</ele>
        <time>2022-02-24T19:24:34Z</time>
      </trkpt>
      <trkpt lat="46.52512" lon="5.63278">
        <ele>493</ele>
        <time>2022-02-24T19:24:35Z</time>
      </trkpt>
      <trkpt lat="46.52514" lon="5.63277">
        <ele>493.2</ele>
        <time>2022-02-24T19:24:36Z</time>
      </trkpt>
      <trkpt lat="46.52516" lon="5.63276">
        <ele>493.2</ele>
        <time>2022-02-24T19:24:37Z</time>
      </trkpt>
      <trkpt lat="46.52518" lon="5.63274">
        <ele>493.6</ele>
        <time>2022-02-24T19:24:38Z</time>
      </trkpt>
      <trkpt lat="46.5252" lon="5.63273">
        <ele>493.6</ele>
        <time>2022-02-24T19:24:39Z</time>
      </trkpt>
      <trkpt lat="46.52522" lon="5.63273">
        <ele>494</ele>
        <time>2022-02-24T19:24:40Z</time>
      </trkpt>
      <trkpt lat="46.52524" lon="5.63272">
        <ele>494</ele>
        <time>2022-02-24T19:24:41Z</time>
      </trkpt>
      <trkpt lat="46.52526" lon="5.63271">
        <ele>494.2</ele>
        <time>2022-02-24T19:24:42Z</time>
      </trkpt>
      <trkpt lat="46.52531" lon="5.63268">
        <ele>494.2</ele>
        <time>2022-02-24T19:24:43Z</time>
      </trkpt>
      <trkpt lat="46.52533" lon="5.63267">
        <ele>494.4</ele>
        <time>2022-02-24T19:24:44Z</time>
      </trkpt>
      <trkpt lat="46.52535" lon="5.63265">
        <ele>494.4</ele>
        <time>2022-02-24T19:24:45Z</time>
      </trkpt>
      <trkpt lat="46.52537" lon="5.63264">
        <ele>494.4</ele>
        <time>2022-02-24T19:24:46Z</time>
      </trkpt>
      <trkpt lat="46.5254" lon="5.63263">
        <ele>494.8</ele>
        <time>2022-02-24T19:24:47Z</time>
      </trkpt>
      <trkpt lat="46.52542" lon="5.63262">
        <ele>494.8</ele>
        <time>2022-02-24T19:24:48Z</time>
      </trkpt>
      <trkpt lat="46.52544" lon="5.63261">
        <ele>495</ele>
        <time>2022-02-24T19:24:49Z</time>
      </trkpt>
      <trkpt lat="46.52547" lon="5.6326">
        <ele>495</ele>
        <time>2022-02-24T19:24:50Z</time>
      </trkpt>
      <trkpt lat="46.52549" lon="5.63259">
        <ele>495.2</ele>
        <time>2022-02-24T19:24:51Z</time>
      </trkpt>
      <trkpt lat="46.52552" lon="5.63258">
        <ele>495.2</ele>
        <time>2022-02-24T19:24:52Z</time>
      </trkpt>
      <trkpt lat="46.52554" lon="5.63257">
        <ele>495.6</ele>
        <time>2022-02-24T19:24:53Z</time>
      </trkpt>
      <trkpt lat="46.52557" lon="5.63255">
        <ele>495.6</ele>
        <time>2022-02-24T19:24:54Z</time>
      </trkpt>
      <trkpt lat="46.52559" lon="5.63254">
        <ele>496</ele>
        <time>2022-02-24T19:24:55Z</time>
      </trkpt>
      <trkpt lat="46.52562" lon="5.63253">
        <ele>496</ele>
        <time>2022-02-24T19:24:56Z</time>
      </trkpt>
      <trkpt lat="46.52565" lon="5.63251">
        <ele>496.2</ele>
        <time>2022-02-24T19:24:57Z</time>
      </trkpt>
      <trkpt lat="46.52567" lon="5.6325">
        <ele>496.2</ele>
        <time>2022-02-24T19:24:58Z</time>
      </trkpt>
      <trkpt lat="46.5257" lon="5.63249">
        <ele>496.4</ele>
        <time>2022-02-24T19:24:59Z</time>
      </trkpt>
      <trkpt lat="46.52572" lon="5.63248">
        <ele>496.4</ele>
        <time>2022-02-24T19:25:00Z</time>
      </trkpt>
      <trkpt lat="46.52574" lon="5.63247">
        <ele>496.4</ele>
        <time>2022-02-24T19:25:01Z</time>
      </trkpt>
      <trkpt lat="46.52577" lon="5.63246">
        <ele>496.8</ele>
        <time>2022-02-24T19:25:02Z</time>
      </trkpt>
      <trkpt lat="46.52579" lon="5.63246">
        <ele>496.8</ele>
        <time>2022-02-24T19:25:03Z</time>
      </trkpt>
      <trkpt lat="46.52582" lon="5.63245">
        <ele>497</ele>
        <time>2022-02-24T19:25:04Z</time>
      </trkpt>
      <trkpt lat="46.52584" lon="5.63244">
        <ele>497</ele>
        <time>2022-02-24T19:25:05Z</time>
      </trkpt>
      <trkpt lat="46.52586" lon="5.63244">
        <ele>497.2</ele>
        <time>2022-02-24T19:25:06Z</time>
      </trkpt>
      <trkpt lat="46.52589" lon="5.63243">
        <ele>497.2</ele>
        <time>2022-02-24T19:25:07Z</time>
      </trkpt>
      <trkpt lat="46.52591" lon="5.63243">
        <ele>497.6</ele>
        <time>2022-02-24T19:25:08Z</time>
      </trkpt>
      <trkpt lat="46.52593" lon="5.63243">
        <ele>497.6</ele>
        <time>2022-02-24T19:25:09Z</time>
      </trkpt>
      <trkpt lat="46.52596" lon="5.63243">
        <ele>497.8</ele>
        <time>2022-02-24T19:25:10Z</time>
      </trkpt>
      <trkpt lat="46.52598" lon="5.63242">
        <ele>497.8</ele>
        <time>2022-02-24T19:25:11Z</time>
      </trkpt>
      <trkpt lat="46.52601" lon="5.63242">
        <ele>497.8</ele>
        <time>2022-02-24T19:25:12Z</time>
      </trkpt>
      <trkpt lat="46.52603" lon="5.63241">
        <ele>498.2</ele>
        <time>2022-02-24T19:25:13Z</time>
      </trkpt>
      <trkpt lat="46.52605" lon="5.63241">
        <ele>498.2</ele>
        <time>2022-02-24T19:25:14Z</time>
      </trkpt>
      <trkpt lat="46.52607" lon="5.6324">
        <ele>498.4</ele>
        <time>2022-02-24T19:25:15Z</time>
      </trkpt>
      <trkpt lat="46.52609" lon="5.6324">
        <ele>498.4</ele>
        <time>2022-02-24T19:25:16Z</time>
      </trkpt>
      <trkpt lat="46.52612" lon="5.6324">
        <ele>498.4</ele>
        <time>2022-02-24T19:25:17Z</time>
      </trkpt>
      <trkpt lat="46.52614" lon="5.6324">
        <ele>498.8</ele>
        <time>2022-02-24T19:25:18Z</time>
      </trkpt>
      <trkpt lat="46.52616" lon="5.6324">
        <ele>499</ele>
        <time>2022-02-24T19:25:19Z</time>
      </trkpt>
      <trkpt lat="46.52619" lon="5.6324">
        <ele>499</ele>
        <time>2022-02-24T19:25:20Z</time>
      </trkpt>
      <trkpt lat="46.52621" lon="5.6324">
        <ele>499.4</ele>
        <time>2022-02-24T19:25:21Z</time>
      </trkpt>
      <trkpt lat="46.52624" lon="5.6324">
        <ele>499.4</ele>
        <time>2022-02-24T19:25:22Z</time>
      </trkpt>
      <trkpt lat="46.52626" lon="5.6324">
        <ele>499.6</ele>
        <time>2022-02-24T19:25:23Z</time>
      </trkpt>
      <trkpt lat="46.52629" lon="5.6324">
        <ele>499.6</ele>
        <time>2022-02-24T19:25:24Z</time>
      </trkpt>
      <trkpt lat="46.52632" lon="5.6324">
        <ele>500</ele>
        <time>2022-02-24T19:25:25Z</time>
      </trkpt>
      <trkpt lat="46.52634" lon="5.6324">
        <ele>500</ele>
        <time>2022-02-24T19:25:26Z</time>
      </trkpt>
      <trkpt lat="46.52637" lon="5.63239">
        <ele>500.2</ele>
        <time>2022-02-24T19:25:27Z</time>
      </trkpt>
      <trkpt lat="46.52639" lon="5.6324">
        <ele>500.2</ele>
        <time>2022-02-24T19:25:28Z</time>
      </trkpt>
      <trkpt lat="46.52641" lon="5.6324">
        <ele>500.6</ele>
        <time>2022-02-24T19:25:29Z</time>
      </trkpt>
      <trkpt lat="46.52644" lon="5.63241">
        <ele>500.6</ele>
        <time>2022-02-24T19:25:30Z</time>
      </trkpt>
      <trkpt lat="46.52646" lon="5.63243">
        <ele>500.8</ele>
        <time>2022-02-24T19:25:31Z</time>
      </trkpt>
      <trkpt lat="46.52648" lon="5.63245">
        <ele>500.8</ele>
        <time>2022-02-24T19:25:32Z</time>
      </trkpt>
      <trkpt lat="46.5265" lon="5.63248">
        <ele>501</ele>
        <time>2022-02-24T19:25:33Z</time>
      </trkpt>
      <trkpt lat="46.52652" lon="5.63251">
        <ele>501</ele>
        <time>2022-02-24T19:25:34Z</time>
      </trkpt>
      <trkpt lat="46.52653" lon="5.63254">
        <ele>501</ele>
        <time>2022-02-24T19:25:35Z</time>
      </trkpt>
      <trkpt lat="46.52655" lon="5.63258">
        <ele>501.2</ele>
        <time>2022-02-24T19:25:36Z</time>
      </trkpt>
      <trkpt lat="46.52656" lon="5.63263">
        <ele>501.2</ele>
        <time>2022-02-24T19:25:37Z</time>
      </trkpt>
      <trkpt lat="46.52658" lon="5.63267">
        <ele>501.2</ele>
        <time>2022-02-24T19:25:38Z</time>
      </trkpt>
      <trkpt lat="46.52659" lon="5.63272">
        <ele>501.2</ele>
        <time>2022-02-24T19:25:39Z</time>
      </trkpt>
      <trkpt lat="46.5266" lon="5.63276">
        <ele>501.2</ele>
        <time>2022-02-24T19:25:40Z</time>
      </trkpt>
      <trkpt lat="46.52661" lon="5.63281">
        <ele>501.4</ele>
        <time>2022-02-24T19:25:41Z</time>
      </trkpt>
      <trkpt lat="46.52662" lon="5.63286">
        <ele>501.4</ele>
        <time>2022-02-24T19:25:42Z</time>
      </trkpt>
      <trkpt lat="46.52663" lon="5.63291">
        <ele>501.4</ele>
        <time>2022-02-24T19:25:43Z</time>
      </trkpt>
      <trkpt lat="46.52664" lon="5.63296">
        <ele>501.4</ele>
        <time>2022-02-24T19:25:44Z</time>
      </trkpt>
      <trkpt lat="46.52665" lon="5.63301">
        <ele>501.6</ele>
        <time>2022-02-24T19:25:45Z</time>
      </trkpt>
      <trkpt lat="46.52666" lon="5.63306">
        <ele>501.6</ele>
        <time>2022-02-24T19:25:46Z</time>
      </trkpt>
      <trkpt lat="46.52667" lon="5.63312">
        <ele>502</ele>
        <time>2022-02-24T19:25:47Z</time>
      </trkpt>
      <trkpt lat="46.52668" lon="5.63317">
        <ele>502</ele>
        <time>2022-02-24T19:25:48Z</time>
      </trkpt>
      <trkpt lat="46.52669" lon="5.63323">
        <ele>502</ele>
        <time>2022-02-24T19:25:49Z</time>
      </trkpt>
      <trkpt lat="46.5267" lon="5.63328">
        <ele>502.2</ele>
        <time>2022-02-24T19:25:50Z</time>
      </trkpt>
      <trkpt lat="46.5267" lon="5.63334">
        <ele>502.2</ele>
        <time>2022-02-24T19:25:51Z</time>
      </trkpt>
      <trkpt lat="46.52671" lon="5.6334">
        <ele>502.2</ele>
        <time>2022-02-24T19:25:52Z</time>
      </trkpt>
      <trkpt lat="46.52672" lon="5.63345">
        <ele>502.2</ele>
        <time>2022-02-24T19:25:53Z</time>
      </trkpt>
      <trkpt lat="46.52673" lon="5.63351">
        <ele>502.2</ele>
        <time>2022-02-24T19:25:54Z</time>
      </trkpt>
      <trkpt lat="46.52674" lon="5.63357">
        <ele>502.4</ele>
        <time>2022-02-24T19:25:55Z</time>
      </trkpt>
      <trkpt lat="46.52675" lon="5.63362">
        <ele>502.4</ele>
        <time>2022-02-24T19:25:56Z</time>
      </trkpt>
      <trkpt lat="46.52676" lon="5.63368">
        <ele>502.6</ele>
        <time>2022-02-24T19:25:57Z</time>
      </trkpt>
      <trkpt lat="46.52676" lon="5.63374">
        <ele>502.6</ele>
        <time>2022-02-24T19:25:58Z</time>
      </trkpt>
      <trkpt lat="46.52677" lon="5.63379">
        <ele>502.6</ele>
        <time>2022-02-24T19:25:59Z</time>
      </trkpt>
      <trkpt lat="46.52678" lon="5.63385">
        <ele>503</ele>
        <time>2022-02-24T19:26:00Z</time>
      </trkpt>
      <trkpt lat="46.52679" lon="5.63391">
        <ele>503</ele>
        <time>2022-02-24T19:26:01Z</time>
      </trkpt>
      <trkpt lat="46.5268" lon="5.63396">
        <ele>503</ele>
        <time>2022-02-24T19:26:02Z</time>
      </trkpt>
      <trkpt lat="46.52681" lon="5.63402">
        <ele>503</ele>
        <time>2022-02-24T19:26:03Z</time>
      </trkpt>
      <trkpt lat="46.52681" lon="5.63408">
        <ele>503.2</ele>
        <time>2022-02-24T19:26:04Z</time>
      </trkpt>
      <trkpt lat="46.52682" lon="5.63413">
        <ele>503.2</ele>
        <time>2022-02-24T19:26:05Z</time>
      </trkpt>
      <trkpt lat="46.52683" lon="5.63418">
        <ele>503.4</ele>
        <time>2022-02-24T19:26:06Z</time>
      </trkpt>
      <trkpt lat="46.52684" lon="5.63424">
        <ele>503.4</ele>
        <time>2022-02-24T19:26:07Z</time>
      </trkpt>
      <trkpt lat="46.52684" lon="5.63429">
        <ele>503.8</ele>
        <time>2022-02-24T19:26:08Z</time>
      </trkpt>
      <trkpt lat="46.52685" lon="5.63434">
        <ele>503.8</ele>
        <time>2022-02-24T19:26:09Z</time>
      </trkpt>
      <trkpt lat="46.52685" lon="5.6344">
        <ele>504.2</ele>
        <time>2022-02-24T19:26:10Z</time>
      </trkpt>
      <trkpt lat="46.52686" lon="5.63445">
        <ele>504.2</ele>
        <time>2022-02-24T19:26:11Z</time>
      </trkpt>
      <trkpt lat="46.52686" lon="5.6345">
        <ele>504.4</ele>
        <time>2022-02-24T19:26:12Z</time>
      </trkpt>
      <trkpt lat="46.52687" lon="5.63455">
        <ele>504.4</ele>
        <time>2022-02-24T19:26:13Z</time>
      </trkpt>
      <trkpt lat="46.52687" lon="5.63461">
        <ele>504.6</ele>
        <time>2022-02-24T19:26:14Z</time>
      </trkpt>
      <trkpt lat="46.52688" lon="5.63466">
        <ele>504.6</ele>
        <time>2022-02-24T19:26:15Z</time>
      </trkpt>
      <trkpt lat="46.52688" lon="5.63471">
        <ele>505</ele>
        <time>2022-02-24T19:26:16Z</time>
      </trkpt>
      <trkpt lat="46.52688" lon="5.63475">
        <ele>505</ele>
        <time>2022-02-24T19:26:17Z</time>
      </trkpt>
      <trkpt lat="46.52688" lon="5.6348">
        <ele>505.4</ele>
        <time>2022-02-24T19:26:18Z</time>
      </trkpt>
      <trkpt lat="46.52688" lon="5.63485">
        <ele>505.8</ele>
        <time>2022-02-24T19:26:19Z</time>
      </trkpt>
      <trkpt lat="46.52689" lon="5.63491">
        <ele>506</ele>
        <time>2022-02-24T19:26:20Z</time>
      </trkpt>
      <trkpt lat="46.52689" lon="5.63496">
        <ele>506.2</ele>
        <time>2022-02-24T19:26:21Z</time>
      </trkpt>
      <trkpt lat="46.52689" lon="5.63501">
        <ele>506.2</ele>
        <time>2022-02-24T19:26:22Z</time>
      </trkpt>
      <trkpt lat="46.52689" lon="5.63506">
        <ele>506.6</ele>
        <time>2022-02-24T19:26:23Z</time>
      </trkpt>
      <trkpt lat="46.52688" lon="5.63512">
        <ele>506.6</ele>
        <time>2022-02-24T19:26:24Z</time>
      </trkpt>
      <trkpt lat="46.52688" lon="5.63517">
        <ele>507</ele>
        <time>2022-02-24T19:26:25Z</time>
      </trkpt>
      <trkpt lat="46.52688" lon="5.63522">
        <ele>507</ele>
        <time>2022-02-24T19:26:26Z</time>
      </trkpt>
      <trkpt lat="46.52688" lon="5.63528">
        <ele>507.4</ele>
        <time>2022-02-24T19:26:27Z</time>
      </trkpt>
      <trkpt lat="46.52687" lon="5.63533">
        <ele>507.4</ele>
        <time>2022-02-24T19:26:28Z</time>
      </trkpt>
      <trkpt lat="46.52687" lon="5.63538">
        <ele>507.6</ele>
        <time>2022-02-24T19:26:29Z</time>
      </trkpt>
      <trkpt lat="46.52686" lon="5.63544">
        <ele>508</ele>
        <time>2022-02-24T19:26:30Z</time>
      </trkpt>
      <trkpt lat="46.52686" lon="5.63549">
        <ele>508</ele>
        <time>2022-02-24T19:26:31Z</time>
      </trkpt>
      <trkpt lat="46.52685" lon="5.63554">
        <ele>508.4</ele>
        <time>2022-02-24T19:26:32Z</time>
      </trkpt>
      <trkpt lat="46.52685" lon="5.63559">
        <ele>508.4</ele>
        <time>2022-02-24T19:26:33Z</time>
      </trkpt>
      <trkpt lat="46.52684" lon="5.63564">
        <ele>508.8</ele>
        <time>2022-02-24T19:26:34Z</time>
      </trkpt>
      <trkpt lat="46.52684" lon="5.63569">
        <ele>509</ele>
        <time>2022-02-24T19:26:35Z</time>
      </trkpt>
      <trkpt lat="46.52683" lon="5.63574">
        <ele>509</ele>
        <time>2022-02-24T19:26:36Z</time>
      </trkpt>
      <trkpt lat="46.52683" lon="5.63579">
        <ele>509.4</ele>
        <time>2022-02-24T19:26:37Z</time>
      </trkpt>
      <trkpt lat="46.52682" lon="5.63584">
        <ele>509.8</ele>
        <time>2022-02-24T19:26:38Z</time>
      </trkpt>
      <trkpt lat="46.52681" lon="5.63589">
        <ele>509.8</ele>
        <time>2022-02-24T19:26:39Z</time>
      </trkpt>
      <trkpt lat="46.5268" lon="5.63594">
        <ele>510</ele>
        <time>2022-02-24T19:26:40Z</time>
      </trkpt>
      <trkpt lat="46.52679" lon="5.63599">
        <ele>510</ele>
        <time>2022-02-24T19:26:41Z</time>
      </trkpt>
      <trkpt lat="46.52678" lon="5.63604">
        <ele>510.2</ele>
        <time>2022-02-24T19:26:42Z</time>
      </trkpt>
      <trkpt lat="46.52677" lon="5.63609">
        <ele>510.2</ele>
        <time>2022-02-24T19:26:43Z</time>
      </trkpt>
      <trkpt lat="46.52676" lon="5.63615">
        <ele>510.6</ele>
        <time>2022-02-24T19:26:44Z</time>
      </trkpt>
      <trkpt lat="46.52675" lon="5.6362">
        <ele>510.6</ele>
        <time>2022-02-24T19:26:45Z</time>
      </trkpt>
      <trkpt lat="46.52674" lon="5.63625">
        <ele>511</ele>
        <time>2022-02-24T19:26:46Z</time>
      </trkpt>
      <trkpt lat="46.52673" lon="5.6363">
        <ele>511</ele>
        <time>2022-02-24T19:26:47Z</time>
      </trkpt>
      <trkpt lat="46.52672" lon="5.63635">
        <ele>511.4</ele>
        <time>2022-02-24T19:26:48Z</time>
      </trkpt>
      <trkpt lat="46.52671" lon="5.6364">
        <ele>511.6</ele>
        <time>2022-02-24T19:26:49Z</time>
      </trkpt>
      <trkpt lat="46.5267" lon="5.63645">
        <ele>511.6</ele>
        <time>2022-02-24T19:26:50Z</time>
      </trkpt>
      <trkpt lat="46.52669" lon="5.63649">
        <ele>511.8</ele>
        <time>2022-02-24T19:26:51Z</time>
      </trkpt>
      <trkpt lat="46.52667" lon="5.63654">
        <ele>511.8</ele>
        <time>2022-02-24T19:26:52Z</time>
      </trkpt>
      <trkpt lat="46.52666" lon="5.63659">
        <ele>512</ele>
        <time>2022-02-24T19:26:53Z</time>
      </trkpt>
      <trkpt lat="46.52665" lon="5.63664">
        <ele>512</ele>
        <time>2022-02-24T19:26:54Z</time>
      </trkpt>
      <trkpt lat="46.52664" lon="5.63668">
        <ele>512.4</ele>
        <time>2022-02-24T19:26:55Z</time>
      </trkpt>
      <trkpt lat="46.52662" lon="5.63673">
        <ele>512.4</ele>
        <time>2022-02-24T19:26:56Z</time>
      </trkpt>
      <trkpt lat="46.52661" lon="5.63678">
        <ele>512.6</ele>
        <time>2022-02-24T19:26:57Z</time>
      </trkpt>
      <trkpt lat="46.5266" lon="5.63683">
        <ele>512.6</ele>
        <time>2022-02-24T19:26:58Z</time>
      </trkpt>
      <trkpt lat="46.52659" lon="5.63688">
        <ele>512.6</ele>
        <time>2022-02-24T19:26:59Z</time>
      </trkpt>
      <trkpt lat="46.52658" lon="5.63693">
        <ele>512.8</ele>
        <time>2022-02-24T19:27:00Z</time>
      </trkpt>
      <trkpt lat="46.52656" lon="5.63698">
        <ele>512.8</ele>
        <time>2022-02-24T19:27:01Z</time>
      </trkpt>
      <trkpt lat="46.52655" lon="5.63703">
        <ele>513</ele>
        <time>2022-02-24T19:27:02Z</time>
      </trkpt>
      <trkpt lat="46.52654" lon="5.63708">
        <ele>513</ele>
        <time>2022-02-24T19:27:03Z</time>
      </trkpt>
      <trkpt lat="46.52653" lon="5.63714">
        <ele>513</ele>
        <time>2022-02-24T19:27:04Z</time>
      </trkpt>
      <trkpt lat="46.52652" lon="5.63719">
        <ele>513</ele>
        <time>2022-02-24T19:27:05Z</time>
      </trkpt>
      <trkpt lat="46.52652" lon="5.63725">
        <ele>513</ele>
        <time>2022-02-24T19:27:06Z</time>
      </trkpt>
      <trkpt lat="46.52651" lon="5.6373">
        <ele>513.4</ele>
        <time>2022-02-24T19:27:07Z</time>
      </trkpt>
      <trkpt lat="46.5265" lon="5.63736">
        <ele>513.4</ele>
        <time>2022-02-24T19:27:08Z</time>
      </trkpt>
      <trkpt lat="46.52649" lon="5.63742">
        <ele>513.4</ele>
        <time>2022-02-24T19:27:09Z</time>
      </trkpt>
      <trkpt lat="46.52649" lon="5.63748">
        <ele>513.6</ele>
        <time>2022-02-24T19:27:10Z</time>
      </trkpt>
      <trkpt lat="46.52648" lon="5.63753">
        <ele>513.6</ele>
        <time>2022-02-24T19:27:11Z</time>
      </trkpt>
      <trkpt lat="46.52647" lon="5.63759">
        <ele>513.6</ele>
        <time>2022-02-24T19:27:12Z</time>
      </trkpt>
      <trkpt lat="46.52647" lon="5.63765">
        <ele>514</ele>
        <time>2022-02-24T19:27:13Z</time>
      </trkpt>
      <trkpt lat="46.52646" lon="5.6377">
        <ele>514</ele>
        <time>2022-02-24T19:27:14Z</time>
      </trkpt>
      <trkpt lat="46.52646" lon="5.63776">
        <ele>514</ele>
        <time>2022-02-24T19:27:15Z</time>
      </trkpt>
      <trkpt lat="46.52646" lon="5.63782">
        <ele>514</ele>
        <time>2022-02-24T19:27:16Z</time>
      </trkpt>
      <trkpt lat="46.52645" lon="5.63788">
        <ele>514.2</ele>
        <time>2022-02-24T19:27:17Z</time>
      </trkpt>
      <trkpt lat="46.52645" lon="5.63794">
        <ele>514.2</ele>
        <time>2022-02-24T19:27:18Z</time>
      </trkpt>
      <trkpt lat="46.52644" lon="5.638">
        <ele>514.2</ele>
        <time>2022-02-24T19:27:19Z</time>
      </trkpt>
      <trkpt lat="46.52644" lon="5.63805">
        <ele>514.2</ele>
        <time>2022-02-24T19:27:20Z</time>
      </trkpt>
      <trkpt lat="46.52644" lon="5.63811">
        <ele>514.2</ele>
        <time>2022-02-24T19:27:21Z</time>
      </trkpt>
      <trkpt lat="46.52644" lon="5.63817">
        <ele>514.4</ele>
        <time>2022-02-24T19:27:22Z</time>
      </trkpt>
      <trkpt lat="46.52645" lon="5.63823">
        <ele>514.4</ele>
        <time>2022-02-24T19:27:23Z</time>
      </trkpt>
      <trkpt lat="46.52646" lon="5.6383">
        <ele>514.4</ele>
        <time>2022-02-24T19:27:24Z</time>
      </trkpt>
      <trkpt lat="46.52647" lon="5.63836">
        <ele>514.6</ele>
        <time>2022-02-24T19:27:25Z</time>
      </trkpt>
      <trkpt lat="46.52648" lon="5.63843">
        <ele>514.6</ele>
        <time>2022-02-24T19:27:26Z</time>
      </trkpt>
      <trkpt lat="46.52649" lon="5.6385">
        <ele>515</ele>
        <time>2022-02-24T19:27:27Z</time>
      </trkpt>
      <trkpt lat="46.52651" lon="5.63857">
        <ele>515</ele>
        <time>2022-02-24T19:27:28Z</time>
      </trkpt>
      <trkpt lat="46.52652" lon="5.63864">
        <ele>515</ele>
        <time>2022-02-24T19:27:29Z</time>
      </trkpt>
      <trkpt lat="46.52654" lon="5.63871">
        <ele>515</ele>
        <time>2022-02-24T19:27:30Z</time>
      </trkpt>
      <trkpt lat="46.52655" lon="5.63878">
        <ele>515</ele>
        <time>2022-02-24T19:27:31Z</time>
      </trkpt>
      <trkpt lat="46.52659" lon="5.63882">
        <ele>515</ele>
        <time>2022-02-24T19:27:32Z</time>
      </trkpt>
      <trkpt lat="46.52662" lon="5.63888">
        <ele>515</ele>
        <time>2022-02-24T19:27:33Z</time>
      </trkpt>
      <trkpt lat="46.52665" lon="5.63897">
        <ele>515</ele>
        <time>2022-02-24T19:27:34Z</time>
      </trkpt>
      <trkpt lat="46.52667" lon="5.63905">
        <ele>515</ele>
        <time>2022-02-24T19:27:35Z</time>
      </trkpt>
      <trkpt lat="46.52669" lon="5.63913">
        <ele>515</ele>
        <time>2022-02-24T19:27:36Z</time>
      </trkpt>
      <trkpt lat="46.52671" lon="5.6392">
        <ele>515</ele>
        <time>2022-02-24T19:27:37Z</time>
      </trkpt>
      <trkpt lat="46.52674" lon="5.63927">
        <ele>515</ele>
        <time>2022-02-24T19:27:38Z</time>
      </trkpt>
      <trkpt lat="46.52678" lon="5.63934">
        <ele>515</ele>
        <time>2022-02-24T19:27:39Z</time>
      </trkpt>
      <trkpt lat="46.52681" lon="5.6394">
        <ele>514.6</ele>
        <time>2022-02-24T19:27:40Z</time>
      </trkpt>
      <trkpt lat="46.52685" lon="5.63946">
        <ele>514.6</ele>
        <time>2022-02-24T19:27:41Z</time>
      </trkpt>
      <trkpt lat="46.52689" lon="5.63952">
        <ele>514.4</ele>
        <time>2022-02-24T19:27:42Z</time>
      </trkpt>
      <trkpt lat="46.52693" lon="5.63958">
        <ele>514.4</ele>
        <time>2022-02-24T19:27:43Z</time>
      </trkpt>
      <trkpt lat="46.52697" lon="5.63964">
        <ele>514</ele>
        <time>2022-02-24T19:27:44Z</time>
      </trkpt>
      <trkpt lat="46.52701" lon="5.6397">
        <ele>513.8</ele>
        <time>2022-02-24T19:27:45Z</time>
      </trkpt>
      <trkpt lat="46.52706" lon="5.63977">
        <ele>513.8</ele>
        <time>2022-02-24T19:27:46Z</time>
      </trkpt>
      <trkpt lat="46.5271" lon="5.63983">
        <ele>513.6</ele>
        <time>2022-02-24T19:27:47Z</time>
      </trkpt>
      <trkpt lat="46.52714" lon="5.6399">
        <ele>513.6</ele>
        <time>2022-02-24T19:27:48Z</time>
      </trkpt>
      <trkpt lat="46.52719" lon="5.63996">
        <ele>513</ele>
        <time>2022-02-24T19:27:49Z</time>
      </trkpt>
      <trkpt lat="46.52724" lon="5.64002">
        <ele>512.8</ele>
        <time>2022-02-24T19:27:50Z</time>
      </trkpt>
      <trkpt lat="46.52729" lon="5.64009">
        <ele>512.8</ele>
        <time>2022-02-24T19:27:51Z</time>
      </trkpt>
      <trkpt lat="46.52734" lon="5.64016">
        <ele>512.4</ele>
        <time>2022-02-24T19:27:52Z</time>
      </trkpt>
      <trkpt lat="46.52738" lon="5.64023">
        <ele>512.2</ele>
        <time>2022-02-24T19:27:53Z</time>
      </trkpt>
      <trkpt lat="46.52742" lon="5.64029">
        <ele>512.2</ele>
        <time>2022-02-24T19:27:54Z</time>
      </trkpt>
      <trkpt lat="46.52745" lon="5.64035">
        <ele>511.8</ele>
        <time>2022-02-24T19:27:55Z</time>
      </trkpt>
      <trkpt lat="46.5275" lon="5.64039">
        <ele>511.8</ele>
        <time>2022-02-24T19:27:56Z</time>
      </trkpt>
      <trkpt lat="46.52754" lon="5.64041">
        <ele>511.6</ele>
        <time>2022-02-24T19:27:57Z</time>
      </trkpt>
      <trkpt lat="46.52759" lon="5.64041">
        <ele>511.6</ele>
        <time>2022-02-24T19:27:58Z</time>
      </trkpt>
      <trkpt lat="46.52762" lon="5.64039">
        <ele>511.6</ele>
        <time>2022-02-24T19:27:59Z</time>
      </trkpt>
      <trkpt lat="46.52766" lon="5.64036">
        <ele>511.6</ele>
        <time>2022-02-24T19:28:00Z</time>
      </trkpt>
      <trkpt lat="46.5277" lon="5.64033">
        <ele>511.8</ele>
        <time>2022-02-24T19:28:01Z</time>
      </trkpt>
      <trkpt lat="46.52774" lon="5.6403">
        <ele>511.8</ele>
        <time>2022-02-24T19:28:02Z</time>
      </trkpt>
      <trkpt lat="46.52778" lon="5.64029">
        <ele>512</ele>
        <time>2022-02-24T19:28:03Z</time>
      </trkpt>
      <trkpt lat="46.52782" lon="5.64028">
        <ele>512</ele>
        <time>2022-02-24T19:28:04Z</time>
      </trkpt>
      <trkpt lat="46.52786" lon="5.64027">
        <ele>512.2</ele>
        <time>2022-02-24T19:28:05Z</time>
      </trkpt>
      <trkpt lat="46.5279" lon="5.64026">
        <ele>512.4</ele>
        <time>2022-02-24T19:28:06Z</time>
      </trkpt>
      <trkpt lat="46.52793" lon="5.64026">
        <ele>512.8</ele>
        <time>2022-02-24T19:28:07Z</time>
      </trkpt>
      <trkpt lat="46.52796" lon="5.64026">
        <ele>513</ele>
        <time>2022-02-24T19:28:08Z</time>
      </trkpt>
      <trkpt lat="46.52799" lon="5.64026">
        <ele>513.4</ele>
        <time>2022-02-24T19:28:09Z</time>
      </trkpt>
      <trkpt lat="46.52803" lon="5.64027">
        <ele>513.6</ele>
        <time>2022-02-24T19:28:10Z</time>
      </trkpt>
      <trkpt lat="46.52806" lon="5.64028">
        <ele>514</ele>
        <time>2022-02-24T19:28:11Z</time>
      </trkpt>
      <trkpt lat="46.52809" lon="5.64029">
        <ele>514.2</ele>
        <time>2022-02-24T19:28:12Z</time>
      </trkpt>
      <trkpt lat="46.52813" lon="5.64031">
        <ele>514.6</ele>
        <time>2022-02-24T19:28:13Z</time>
      </trkpt>
      <trkpt lat="46.52816" lon="5.64032">
        <ele>514.8</ele>
        <time>2022-02-24T19:28:14Z</time>
      </trkpt>
      <trkpt lat="46.52819" lon="5.64034">
        <ele>515</ele>
        <time>2022-02-24T19:28:15Z</time>
      </trkpt>
      <trkpt lat="46.52821" lon="5.64036">
        <ele>515.4</ele>
        <time>2022-02-24T19:28:16Z</time>
      </trkpt>
      <trkpt lat="46.52824" lon="5.64038">
        <ele>515.6</ele>
        <time>2022-02-24T19:28:17Z</time>
      </trkpt>
      <trkpt lat="46.52827" lon="5.64039">
        <ele>515.8</ele>
        <time>2022-02-24T19:28:18Z</time>
      </trkpt>
      <trkpt lat="46.52829" lon="5.64041">
        <ele>516.2</ele>
        <time>2022-02-24T19:28:19Z</time>
      </trkpt>
      <trkpt lat="46.52832" lon="5.64043">
        <ele>516.4</ele>
        <time>2022-02-24T19:28:20Z</time>
      </trkpt>
      <trkpt lat="46.52834" lon="5.64045">
        <ele>516.6</ele>
        <time>2022-02-24T19:28:21Z</time>
      </trkpt>
      <trkpt lat="46.52837" lon="5.64046">
        <ele>517</ele>
        <time>2022-02-24T19:28:22Z</time>
      </trkpt>
      <trkpt lat="46.52839" lon="5.64048">
        <ele>517.2</ele>
        <time>2022-02-24T19:28:23Z</time>
      </trkpt>
      <trkpt lat="46.52841" lon="5.64049">
        <ele>517.2</ele>
        <time>2022-02-24T19:28:24Z</time>
      </trkpt>
      <trkpt lat="46.52843" lon="5.6405">
        <ele>517.6</ele>
        <time>2022-02-24T19:28:25Z</time>
      </trkpt>
      <trkpt lat="46.52845" lon="5.64051">
        <ele>517.8</ele>
        <time>2022-02-24T19:28:26Z</time>
      </trkpt>
      <trkpt lat="46.52848" lon="5.64053">
        <ele>517.8</ele>
        <time>2022-02-24T19:28:27Z</time>
      </trkpt>
      <trkpt lat="46.5285" lon="5.64054">
        <ele>518.2</ele>
        <time>2022-02-24T19:28:28Z</time>
      </trkpt>
      <trkpt lat="46.52852" lon="5.64056">
        <ele>518.4</ele>
        <time>2022-02-24T19:28:29Z</time>
      </trkpt>
      <trkpt lat="46.52854" lon="5.64057">
        <ele>518.4</ele>
        <time>2022-02-24T19:28:30Z</time>
      </trkpt>
      <trkpt lat="46.52856" lon="5.64059">
        <ele>518.8</ele>
        <time>2022-02-24T19:28:31Z</time>
      </trkpt>
      <trkpt lat="46.52858" lon="5.64061">
        <ele>518.8</ele>
        <time>2022-02-24T19:28:32Z</time>
      </trkpt>
      <trkpt lat="46.5286" lon="5.64062">
        <ele>519.2</ele>
        <time>2022-02-24T19:28:33Z</time>
      </trkpt>
      <trkpt lat="46.52862" lon="5.64064">
        <ele>519.4</ele>
        <time>2022-02-24T19:28:34Z</time>
      </trkpt>
      <trkpt lat="46.52865" lon="5.64065">
        <ele>519.6</ele>
        <time>2022-02-24T19:28:35Z</time>
      </trkpt>
      <trkpt lat="46.52867" lon="5.64067">
        <ele>519.8</ele>
        <time>2022-02-24T19:28:36Z</time>
      </trkpt>
      <trkpt lat="46.52869" lon="5.64068">
        <ele>520.2</ele>
        <time>2022-02-24T19:28:37Z</time>
      </trkpt>
      <trkpt lat="46.52872" lon="5.64069">
        <ele>520.4</ele>
        <time>2022-02-24T19:28:38Z</time>
      </trkpt>
      <trkpt lat="46.52874" lon="5.6407">
        <ele>520.6</ele>
        <time>2022-02-24T19:28:39Z</time>
      </trkpt>
      <trkpt lat="46.52877" lon="5.64072">
        <ele>520.8</ele>
        <time>2022-02-24T19:28:40Z</time>
      </trkpt>
      <trkpt lat="46.52879" lon="5.64073">
        <ele>521</ele>
        <time>2022-02-24T19:28:41Z</time>
      </trkpt>
      <trkpt lat="46.52881" lon="5.64075">
        <ele>521.4</ele>
        <time>2022-02-24T19:28:42Z</time>
      </trkpt>
      <trkpt lat="46.52884" lon="5.64076">
        <ele>521.6</ele>
        <time>2022-02-24T19:28:43Z</time>
      </trkpt>
      <trkpt lat="46.52886" lon="5.64078">
        <ele>521.8</ele>
        <time>2022-02-24T19:28:44Z</time>
      </trkpt>
      <trkpt lat="46.52889" lon="5.6408">
        <ele>522.2</ele>
        <time>2022-02-24T19:28:45Z</time>
      </trkpt>
      <trkpt lat="46.52891" lon="5.64081">
        <ele>522.2</ele>
        <time>2022-02-24T19:28:46Z</time>
      </trkpt>
      <trkpt lat="46.52893" lon="5.64082">
        <ele>522.4</ele>
        <time>2022-02-24T19:28:47Z</time>
      </trkpt>
      <trkpt lat="46.52896" lon="5.64083">
        <ele>522.8</ele>
        <time>2022-02-24T19:28:48Z</time>
      </trkpt>
      <trkpt lat="46.52898" lon="5.64085">
        <ele>522.8</ele>
        <time>2022-02-24T19:28:49Z</time>
      </trkpt>
      <trkpt lat="46.529" lon="5.64086">
        <ele>523</ele>
        <time>2022-02-24T19:28:50Z</time>
      </trkpt>
      <trkpt lat="46.52903" lon="5.64088">
        <ele>523</ele>
        <time>2022-02-24T19:28:51Z</time>
      </trkpt>
      <trkpt lat="46.52905" lon="5.64089">
        <ele>523.2</ele>
        <time>2022-02-24T19:28:52Z</time>
      </trkpt>
      <trkpt lat="46.52908" lon="5.64091">
        <ele>523.2</ele>
        <time>2022-02-24T19:28:53Z</time>
      </trkpt>
      <trkpt lat="46.5291" lon="5.64092">
        <ele>523.6</ele>
        <time>2022-02-24T19:28:54Z</time>
      </trkpt>
      <trkpt lat="46.52913" lon="5.64094">
        <ele>523.6</ele>
        <time>2022-02-24T19:28:55Z</time>
      </trkpt>
      <trkpt lat="46.52916" lon="5.64095">
        <ele>524</ele>
        <time>2022-02-24T19:28:56Z</time>
      </trkpt>
      <trkpt lat="46.52918" lon="5.64097">
        <ele>524.2</ele>
        <time>2022-02-24T19:28:57Z</time>
      </trkpt>
      <trkpt lat="46.52921" lon="5.64098">
        <ele>524.4</ele>
        <time>2022-02-24T19:28:58Z</time>
      </trkpt>
      <trkpt lat="46.52924" lon="5.641">
        <ele>524.4</ele>
        <time>2022-02-24T19:28:59Z</time>
      </trkpt>
      <trkpt lat="46.52926" lon="5.64101">
        <ele>524.8</ele>
        <time>2022-02-24T19:29:00Z</time>
      </trkpt>
      <trkpt lat="46.52929" lon="5.64103">
        <ele>525</ele>
        <time>2022-02-24T19:29:01Z</time>
      </trkpt>
      <trkpt lat="46.52932" lon="5.64104">
        <ele>525.4</ele>
        <time>2022-02-24T19:29:02Z</time>
      </trkpt>
      <trkpt lat="46.52934" lon="5.64106">
        <ele>525.4</ele>
        <time>2022-02-24T19:29:03Z</time>
      </trkpt>
      <trkpt lat="46.52937" lon="5.64107">
        <ele>525.4</ele>
        <time>2022-02-24T19:29:04Z</time>
      </trkpt>
      <trkpt lat="46.5294" lon="5.64108">
        <ele>525.6</ele>
        <time>2022-02-24T19:29:05Z</time>
      </trkpt>
      <trkpt lat="46.52943" lon="5.64109">
        <ele>525.6</ele>
        <time>2022-02-24T19:29:06Z</time>
      </trkpt>
      <trkpt lat="46.52946" lon="5.64111">
        <ele>526</ele>
        <time>2022-02-24T19:29:07Z</time>
      </trkpt>
      <trkpt lat="46.52949" lon="5.64112">
        <ele>526</ele>
        <time>2022-02-24T19:29:08Z</time>
      </trkpt>
      <trkpt lat="46.52952" lon="5.64114">
        <ele>526.2</ele>
        <time>2022-02-24T19:29:09Z</time>
      </trkpt>
      <trkpt lat="46.52955" lon="5.64115">
        <ele>526.2</ele>
        <time>2022-02-24T19:29:10Z</time>
      </trkpt>
      <trkpt lat="46.52958" lon="5.64117">
        <ele>526.2</ele>
        <time>2022-02-24T19:29:11Z</time>
      </trkpt>
      <trkpt lat="46.52961" lon="5.64119">
        <ele>526.6</ele>
        <time>2022-02-24T19:29:12Z</time>
      </trkpt>
      <trkpt lat="46.52964" lon="5.64121">
        <ele>526.6</ele>
        <time>2022-02-24T19:29:13Z</time>
      </trkpt>
      <trkpt lat="46.52968" lon="5.64123">
        <ele>526.6</ele>
        <time>2022-02-24T19:29:14Z</time>
      </trkpt>
      <trkpt lat="46.52971" lon="5.64125">
        <ele>526.6</ele>
        <time>2022-02-24T19:29:15Z</time>
      </trkpt>
      <trkpt lat="46.52975" lon="5.64126">
        <ele>526.6</ele>
        <time>2022-02-24T19:29:16Z</time>
      </trkpt>
      <trkpt lat="46.52978" lon="5.64128">
        <ele>526.8</ele>
        <time>2022-02-24T19:29:17Z</time>
      </trkpt>
      <trkpt lat="46.52982" lon="5.64131">
        <ele>526.8</ele>
        <time>2022-02-24T19:29:18Z</time>
      </trkpt>
      <trkpt lat="46.52986" lon="5.64133">
        <ele>526.8</ele>
        <time>2022-02-24T19:29:19Z</time>
      </trkpt>
      <trkpt lat="46.52989" lon="5.64135">
        <ele>526.8</ele>
        <time>2022-02-24T19:29:20Z</time>
      </trkpt>
      <trkpt lat="46.52993" lon="5.64137">
        <ele>526.8</ele>
        <time>2022-02-24T19:29:21Z</time>
      </trkpt>
      <trkpt lat="46.52997" lon="5.64139">
        <ele>526.8</ele>
        <time>2022-02-24T19:29:22Z</time>
      </trkpt>
      <trkpt lat="46.53001" lon="5.64142">
        <ele>527</ele>
        <time>2022-02-24T19:29:23Z</time>
      </trkpt>
      <trkpt lat="46.53005" lon="5.64143">
        <ele>527</ele>
        <time>2022-02-24T19:29:24Z</time>
      </trkpt>
      <trkpt lat="46.53009" lon="5.64145">
        <ele>527</ele>
        <time>2022-02-24T19:29:25Z</time>
      </trkpt>
      <trkpt lat="46.53013" lon="5.64147">
        <ele>527.4</ele>
        <time>2022-02-24T19:29:26Z</time>
      </trkpt>
      <trkpt lat="46.53017" lon="5.64149">
        <ele>527.4</ele>
        <time>2022-02-24T19:29:27Z</time>
      </trkpt>
      <trkpt lat="46.5302" lon="5.64151">
        <ele>527.6</ele>
        <time>2022-02-24T19:29:28Z</time>
      </trkpt>
      <trkpt lat="46.53024" lon="5.64154">
        <ele>527.6</ele>
        <time>2022-02-24T19:29:29Z</time>
      </trkpt>
      <trkpt lat="46.53028" lon="5.64156">
        <ele>527.6</ele>
        <time>2022-02-24T19:29:30Z</time>
      </trkpt>
      <trkpt lat="46.53032" lon="5.64157">
        <ele>527.6</ele>
        <time>2022-02-24T19:29:31Z</time>
      </trkpt>
      <trkpt lat="46.53036" lon="5.64159">
        <ele>527.6</ele>
        <time>2022-02-24T19:29:32Z</time>
      </trkpt>
      <trkpt lat="46.5304" lon="5.64161">
        <ele>527.8</ele>
        <time>2022-02-24T19:29:33Z</time>
      </trkpt>
      <trkpt lat="46.53044" lon="5.64163">
        <ele>527.8</ele>
        <time>2022-02-24T19:29:34Z</time>
      </trkpt>
      <trkpt lat="46.53047" lon="5.64165">
        <ele>527.8</ele>
        <time>2022-02-24T19:29:35Z</time>
      </trkpt>
      <trkpt lat="46.53051" lon="5.64167">
        <ele>527.8</ele>
        <time>2022-02-24T19:29:36Z</time>
      </trkpt>
      <trkpt lat="46.53055" lon="5.6417">
        <ele>527.8</ele>
        <time>2022-02-24T19:29:37Z</time>
      </trkpt>
      <trkpt lat="46.53058" lon="5.64172">
        <ele>528</ele>
        <time>2022-02-24T19:29:38Z</time>
      </trkpt>
      <trkpt lat="46.53062" lon="5.64174">
        <ele>528</ele>
        <time>2022-02-24T19:29:39Z</time>
      </trkpt>
      <trkpt lat="46.53065" lon="5.64175">
        <ele>528.4</ele>
        <time>2022-02-24T19:29:40Z</time>
      </trkpt>
      <trkpt lat="46.53069" lon="5.64177">
        <ele>528.4</ele>
        <time>2022-02-24T19:29:41Z</time>
      </trkpt>
      <trkpt lat="46.53072" lon="5.64179">
        <ele>528.4</ele>
        <time>2022-02-24T19:29:42Z</time>
      </trkpt>
      <trkpt lat="46.53075" lon="5.64182">
        <ele>528.8</ele>
        <time>2022-02-24T19:29:43Z</time>
      </trkpt>
      <trkpt lat="46.53078" lon="5.64183">
        <ele>528.8</ele>
        <time>2022-02-24T19:29:44Z</time>
      </trkpt>
      <trkpt lat="46.53081" lon="5.64185">
        <ele>529</ele>
        <time>2022-02-24T19:29:45Z</time>
      </trkpt>
      <trkpt lat="46.53085" lon="5.64187">
        <ele>529</ele>
        <time>2022-02-24T19:29:46Z</time>
      </trkpt>
      <trkpt lat="46.53088" lon="5.64189">
        <ele>529.2</ele>
        <time>2022-02-24T19:29:47Z</time>
      </trkpt>
      <trkpt lat="46.53091" lon="5.64191">
        <ele>529.4</ele>
        <time>2022-02-24T19:29:48Z</time>
      </trkpt>
      <trkpt lat="46.53094" lon="5.64193">
        <ele>529.6</ele>
        <time>2022-02-24T19:29:49Z</time>
      </trkpt>
      <trkpt lat="46.53097" lon="5.64195">
        <ele>529.6</ele>
        <time>2022-02-24T19:29:50Z</time>
      </trkpt>
      <trkpt lat="46.531" lon="5.64197">
        <ele>530</ele>
        <time>2022-02-24T19:29:51Z</time>
      </trkpt>
      <trkpt lat="46.53103" lon="5.64199">
        <ele>530</ele>
        <time>2022-02-24T19:29:52Z</time>
      </trkpt>
      <trkpt lat="46.53106" lon="5.64201">
        <ele>530.2</ele>
        <time>2022-02-24T19:29:53Z</time>
      </trkpt>
      <trkpt lat="46.53109" lon="5.64204">
        <ele>530.4</ele>
        <time>2022-02-24T19:29:54Z</time>
      </trkpt>
      <trkpt lat="46.53112" lon="5.64206">
        <ele>530.8</ele>
        <time>2022-02-24T19:29:55Z</time>
      </trkpt>
      <trkpt lat="46.53115" lon="5.64209">
        <ele>530.8</ele>
        <time>2022-02-24T19:29:56Z</time>
      </trkpt>
      <trkpt lat="46.53118" lon="5.64211">
        <ele>530.8</ele>
        <time>2022-02-24T19:29:57Z</time>
      </trkpt>
      <trkpt lat="46.53121" lon="5.64213">
        <ele>531</ele>
        <time>2022-02-24T19:29:58Z</time>
      </trkpt>
      <trkpt lat="46.53125" lon="5.64216">
        <ele>531</ele>
        <time>2022-02-24T19:29:59Z</time>
      </trkpt>
      <trkpt lat="46.53128" lon="5.64219">
        <ele>531</ele>
        <time>2022-02-24T19:30:00Z</time>
      </trkpt>
      <trkpt lat="46.53132" lon="5.64221">
        <ele>531</ele>
        <time>2022-02-24T19:30:01Z</time>
      </trkpt>
      <trkpt lat="46.53135" lon="5.64224">
        <ele>531.2</ele>
        <time>2022-02-24T19:30:02Z</time>
      </trkpt>
      <trkpt lat="46.53139" lon="5.64227">
        <ele>531.2</ele>
        <time>2022-02-24T19:30:03Z</time>
      </trkpt>
      <trkpt lat="46.53142" lon="5.6423">
        <ele>531.2</ele>
        <time>2022-02-24T19:30:04Z</time>
      </trkpt>
      <trkpt lat="46.53146" lon="5.64232">
        <ele>531.2</ele>
        <time>2022-02-24T19:30:05Z</time>
      </trkpt>
      <trkpt lat="46.5315" lon="5.64235">
        <ele>531.2</ele>
        <time>2022-02-24T19:30:06Z</time>
      </trkpt>
      <trkpt lat="46.53153" lon="5.64238">
        <ele>531.2</ele>
        <time>2022-02-24T19:30:07Z</time>
      </trkpt>
      <trkpt lat="46.53157" lon="5.64241">
        <ele>531.2</ele>
        <time>2022-02-24T19:30:08Z</time>
      </trkpt>
      <trkpt lat="46.5316" lon="5.64244">
        <ele>531.6</ele>
        <time>2022-02-24T19:30:09Z</time>
      </trkpt>
      <trkpt lat="46.53164" lon="5.64247">
        <ele>531.6</ele>
        <time>2022-02-24T19:30:10Z</time>
      </trkpt>
      <trkpt lat="46.53168" lon="5.6425">
        <ele>531.6</ele>
        <time>2022-02-24T19:30:11Z</time>
      </trkpt>
      <trkpt lat="46.53171" lon="5.64252">
        <ele>531.8</ele>
        <time>2022-02-24T19:30:12Z</time>
      </trkpt>
      <trkpt lat="46.53175" lon="5.64255">
        <ele>531.8</ele>
        <time>2022-02-24T19:30:13Z</time>
      </trkpt>
      <trkpt lat="46.53178" lon="5.64258">
        <ele>531.8</ele>
        <time>2022-02-24T19:30:14Z</time>
      </trkpt>
      <trkpt lat="46.53182" lon="5.64261">
        <ele>532</ele>
        <time>2022-02-24T19:30:15Z</time>
      </trkpt>
      <trkpt lat="46.53185" lon="5.64264">
        <ele>532</ele>
        <time>2022-02-24T19:30:16Z</time>
      </trkpt>
      <trkpt lat="46.53189" lon="5.64267">
        <ele>532.2</ele>
        <time>2022-02-24T19:30:17Z</time>
      </trkpt>
      <trkpt lat="46.53192" lon="5.64269">
        <ele>532.2</ele>
        <time>2022-02-24T19:30:18Z</time>
      </trkpt>
      <trkpt lat="46.53196" lon="5.64272">
        <ele>532.2</ele>
        <time>2022-02-24T19:30:19Z</time>
      </trkpt>
      <trkpt lat="46.53199" lon="5.64275">
        <ele>532.4</ele>
        <time>2022-02-24T19:30:20Z</time>
      </trkpt>
      <trkpt lat="46.53202" lon="5.64277">
        <ele>532.4</ele>
        <time>2022-02-24T19:30:21Z</time>
      </trkpt>
      <trkpt lat="46.53205" lon="5.6428">
        <ele>532.4</ele>
        <time>2022-02-24T19:30:22Z</time>
      </trkpt>
      <trkpt lat="46.53208" lon="5.64282">
        <ele>532.4</ele>
        <time>2022-02-24T19:30:23Z</time>
      </trkpt>
      <trkpt lat="46.53212" lon="5.64285">
        <ele>532.8</ele>
        <time>2022-02-24T19:30:24Z</time>
      </trkpt>
      <trkpt lat="46.53215" lon="5.64288">
        <ele>532.8</ele>
        <time>2022-02-24T19:30:25Z</time>
      </trkpt>
      <trkpt lat="46.53219" lon="5.64291">
        <ele>532.8</ele>
        <time>2022-02-24T19:30:26Z</time>
      </trkpt>
      <trkpt lat="46.53223" lon="5.64294">
        <ele>532.8</ele>
        <time>2022-02-24T19:30:27Z</time>
      </trkpt>
      <trkpt lat="46.53227" lon="5.64297">
        <ele>532.8</ele>
        <time>2022-02-24T19:30:28Z</time>
      </trkpt>
      <trkpt lat="46.53232" lon="5.64301">
        <ele>532.8</ele>
        <time>2022-02-24T19:30:29Z</time>
      </trkpt>
      <trkpt lat="46.53236" lon="5.64304">
        <ele>532.8</ele>
        <time>2022-02-24T19:30:30Z</time>
      </trkpt>
      <trkpt lat="46.53241" lon="5.64307">
        <ele>532.4</ele>
        <time>2022-02-24T19:30:31Z</time>
      </trkpt>
      <trkpt lat="46.53245" lon="5.64311">
        <ele>532.4</ele>
        <time>2022-02-24T19:30:32Z</time>
      </trkpt>
      <trkpt lat="46.5325" lon="5.64315">
        <ele>532.4</ele>
        <time>2022-02-24T19:30:33Z</time>
      </trkpt>
      <trkpt lat="46.53254" lon="5.64318">
        <ele>532.2</ele>
        <time>2022-02-24T19:30:34Z</time>
      </trkpt>
      <trkpt lat="46.53259" lon="5.64322">
        <ele>532.2</ele>
        <time>2022-02-24T19:30:35Z</time>
      </trkpt>
      <trkpt lat="46.53264" lon="5.64326">
        <ele>532.2</ele>
        <time>2022-02-24T19:30:36Z</time>
      </trkpt>
      <trkpt lat="46.53268" lon="5.64329">
        <ele>532.2</ele>
        <time>2022-02-24T19:30:37Z</time>
      </trkpt>
      <trkpt lat="46.53273" lon="5.64333">
        <ele>532</ele>
        <time>2022-02-24T19:30:38Z</time>
      </trkpt>
      <trkpt lat="46.53277" lon="5.64337">
        <ele>532</ele>
        <time>2022-02-24T19:30:39Z</time>
      </trkpt>
      <trkpt lat="46.53282" lon="5.6434">
        <ele>532</ele>
        <time>2022-02-24T19:30:40Z</time>
      </trkpt>
      <trkpt lat="46.53282" lon="5.6434">
        <ele>531.8</ele>
        <time>2022-02-24T19:30:41Z</time>
      </trkpt>
      <trkpt lat="46.53287" lon="5.64344">
        <ele>531.8</ele>
        <time>2022-02-24T19:30:42Z</time>
      </trkpt>
      <trkpt lat="46.53291" lon="5.64348">
        <ele>531.8</ele>
        <time>2022-02-24T19:30:43Z</time>
      </trkpt>
      <trkpt lat="46.53295" lon="5.64352">
        <ele>531.8</ele>
        <time>2022-02-24T19:30:44Z</time>
      </trkpt>
      <trkpt lat="46.53299" lon="5.64355">
        <ele>531.8</ele>
        <time>2022-02-24T19:30:45Z</time>
      </trkpt>
      <trkpt lat="46.53304" lon="5.64359">
        <ele>531.6</ele>
        <time>2022-02-24T19:30:46Z</time>
      </trkpt>
      <trkpt lat="46.53308" lon="5.64363">
        <ele>531.6</ele>
        <time>2022-02-24T19:30:47Z</time>
      </trkpt>
      <trkpt lat="46.53312" lon="5.64366">
        <ele>531.6</ele>
        <time>2022-02-24T19:30:48Z</time>
      </trkpt>
      <trkpt lat="46.53317" lon="5.64369">
        <ele>531.6</ele>
        <time>2022-02-24T19:30:49Z</time>
      </trkpt>
      <trkpt lat="46.53321" lon="5.64373">
        <ele>531.6</ele>
        <time>2022-02-24T19:30:50Z</time>
      </trkpt>
      <trkpt lat="46.53326" lon="5.64377">
        <ele>531.6</ele>
        <time>2022-02-24T19:30:51Z</time>
      </trkpt>
      <trkpt lat="46.53331" lon="5.6438">
        <ele>531.2</ele>
        <time>2022-02-24T19:30:52Z</time>
      </trkpt>
      <trkpt lat="46.53335" lon="5.64384">
        <ele>531.2</ele>
        <time>2022-02-24T19:30:53Z</time>
      </trkpt>
      <trkpt lat="46.5334" lon="5.64388">
        <ele>531.2</ele>
        <time>2022-02-24T19:30:54Z</time>
      </trkpt>
      <trkpt lat="46.53345" lon="5.64392">
        <ele>531.2</ele>
        <time>2022-02-24T19:30:55Z</time>
      </trkpt>
      <trkpt lat="46.5335" lon="5.64396">
        <ele>531.2</ele>
        <time>2022-02-24T19:30:56Z</time>
      </trkpt>
      <trkpt lat="46.53354" lon="5.644">
        <ele>531.2</ele>
        <time>2022-02-24T19:30:57Z</time>
      </trkpt>
      <trkpt lat="46.53359" lon="5.64403">
        <ele>531.2</ele>
        <time>2022-02-24T19:30:58Z</time>
      </trkpt>
      <trkpt lat="46.53364" lon="5.64407">
        <ele>531.2</ele>
        <time>2022-02-24T19:30:59Z</time>
      </trkpt>
      <trkpt lat="46.53369" lon="5.64411">
        <ele>531.4</ele>
        <time>2022-02-24T19:31:00Z</time>
      </trkpt>
      <trkpt lat="46.53374" lon="5.64415">
        <ele>531.4</ele>
        <time>2022-02-24T19:31:01Z</time>
      </trkpt>
      <trkpt lat="46.53379" lon="5.6442">
        <ele>531.4</ele>
        <time>2022-02-24T19:31:02Z</time>
      </trkpt>
      <trkpt lat="46.53383" lon="5.64423">
        <ele>531.4</ele>
        <time>2022-02-24T19:31:03Z</time>
      </trkpt>
      <trkpt lat="46.53388" lon="5.64427">
        <ele>531.4</ele>
        <time>2022-02-24T19:31:04Z</time>
      </trkpt>
      <trkpt lat="46.53393" lon="5.64431">
        <ele>531.4</ele>
        <time>2022-02-24T19:31:05Z</time>
      </trkpt>
      <trkpt lat="46.53398" lon="5.64435">
        <ele>531.4</ele>
        <time>2022-02-24T19:31:06Z</time>
      </trkpt>
      <trkpt lat="46.53403" lon="5.64439">
        <ele>531.4</ele>
        <time>2022-02-24T19:31:07Z</time>
      </trkpt>
      <trkpt lat="46.53407" lon="5.64443">
        <ele>531.4</ele>
        <time>2022-02-24T19:31:08Z</time>
      </trkpt>
      <trkpt lat="46.53412" lon="5.64447">
        <ele>531.4</ele>
        <time>2022-02-24T19:31:09Z</time>
      </trkpt>
      <trkpt lat="46.53417" lon="5.64451">
        <ele>531.8</ele>
        <time>2022-02-24T19:31:10Z</time>
      </trkpt>
      <trkpt lat="46.53421" lon="5.64455">
        <ele>531.8</ele>
        <time>2022-02-24T19:31:11Z</time>
      </trkpt>
      <trkpt lat="46.53426" lon="5.64459">
        <ele>531.8</ele>
        <time>2022-02-24T19:31:12Z</time>
      </trkpt>
      <trkpt lat="46.5343" lon="5.64462">
        <ele>531.8</ele>
        <time>2022-02-24T19:31:13Z</time>
      </trkpt>
      <trkpt lat="46.53434" lon="5.64466">
        <ele>532</ele>
        <time>2022-02-24T19:31:14Z</time>
      </trkpt>
      <trkpt lat="46.53439" lon="5.6447">
        <ele>532</ele>
        <time>2022-02-24T19:31:15Z</time>
      </trkpt>
      <trkpt lat="46.53443" lon="5.64473">
        <ele>532.2</ele>
        <time>2022-02-24T19:31:16Z</time>
      </trkpt>
      <trkpt lat="46.53447" lon="5.64477">
        <ele>532.2</ele>
        <time>2022-02-24T19:31:17Z</time>
      </trkpt>
      <trkpt lat="46.53452" lon="5.64481">
        <ele>532.2</ele>
        <time>2022-02-24T19:31:18Z</time>
      </trkpt>
      <trkpt lat="46.53456" lon="5.64484">
        <ele>532.4</ele>
        <time>2022-02-24T19:31:19Z</time>
      </trkpt>
      <trkpt lat="46.5346" lon="5.64488">
        <ele>532.4</ele>
        <time>2022-02-24T19:31:20Z</time>
      </trkpt>
      <trkpt lat="46.53465" lon="5.64491">
        <ele>532.4</ele>
        <time>2022-02-24T19:31:21Z</time>
      </trkpt>
      <trkpt lat="46.53469" lon="5.64495">
        <ele>532.6</ele>
        <time>2022-02-24T19:31:22Z</time>
      </trkpt>
      <trkpt lat="46.53473" lon="5.64499">
        <ele>532.6</ele>
        <time>2022-02-24T19:31:23Z</time>
      </trkpt>
      <trkpt lat="46.53478" lon="5.64502">
        <ele>532.6</ele>
        <time>2022-02-24T19:31:24Z</time>
      </trkpt>
      <trkpt lat="46.53482" lon="5.64506">
        <ele>532.6</ele>
        <time>2022-02-24T19:31:25Z</time>
      </trkpt>
      <trkpt lat="46.53487" lon="5.6451">
        <ele>532.6</ele>
        <time>2022-02-24T19:31:26Z</time>
      </trkpt>
      <trkpt lat="46.53491" lon="5.64514">
        <ele>532.6</ele>
        <time>2022-02-24T19:31:27Z</time>
      </trkpt>
      <trkpt lat="46.53496" lon="5.64518">
        <ele>532.6</ele>
        <time>2022-02-24T19:31:28Z</time>
      </trkpt>
      <trkpt lat="46.53501" lon="5.64522">
        <ele>532.6</ele>
        <time>2022-02-24T19:31:29Z</time>
      </trkpt>
      <trkpt lat="46.53506" lon="5.64526">
        <ele>532.6</ele>
        <time>2022-02-24T19:31:30Z</time>
      </trkpt>
      <trkpt lat="46.53511" lon="5.64531">
        <ele>532.4</ele>
        <time>2022-02-24T19:31:31Z</time>
      </trkpt>
      <trkpt lat="46.53516" lon="5.64535">
        <ele>532.4</ele>
        <time>2022-02-24T19:31:32Z</time>
      </trkpt>
      <trkpt lat="46.53521" lon="5.64539">
        <ele>532.2</ele>
        <time>2022-02-24T19:31:33Z</time>
      </trkpt>
      <trkpt lat="46.53527" lon="5.64544">
        <ele>532.2</ele>
        <time>2022-02-24T19:31:34Z</time>
      </trkpt>
      <trkpt lat="46.53533" lon="5.64549">
        <ele>532.2</ele>
        <time>2022-02-24T19:31:35Z</time>
      </trkpt>
      <trkpt lat="46.53538" lon="5.64553">
        <ele>532.2</ele>
        <time>2022-02-24T19:31:36Z</time>
      </trkpt>
      <trkpt lat="46.53544" lon="5.64558">
        <ele>532</ele>
        <time>2022-02-24T19:31:37Z</time>
      </trkpt>
      <trkpt lat="46.5355" lon="5.64563">
        <ele>532</ele>
        <time>2022-02-24T19:31:38Z</time>
      </trkpt>
      <trkpt lat="46.53556" lon="5.64569">
        <ele>532</ele>
        <time>2022-02-24T19:31:39Z</time>
      </trkpt>
      <trkpt lat="46.53561" lon="5.64574">
        <ele>532</ele>
        <time>2022-02-24T19:31:40Z</time>
      </trkpt>
      <trkpt lat="46.53567" lon="5.64579">
        <ele>532</ele>
        <time>2022-02-24T19:31:41Z</time>
      </trkpt>
      <trkpt lat="46.53573" lon="5.64584">
        <ele>531.6</ele>
        <time>2022-02-24T19:31:42Z</time>
      </trkpt>
      <trkpt lat="46.53579" lon="5.64589">
        <ele>531.6</ele>
        <time>2022-02-24T19:31:43Z</time>
      </trkpt>
      <trkpt lat="46.53585" lon="5.64594">
        <ele>531.4</ele>
        <time>2022-02-24T19:31:44Z</time>
      </trkpt>
      <trkpt lat="46.53591" lon="5.64599">
        <ele>531.4</ele>
        <time>2022-02-24T19:31:45Z</time>
      </trkpt>
      <trkpt lat="46.53596" lon="5.64604">
        <ele>531.4</ele>
        <time>2022-02-24T19:31:46Z</time>
      </trkpt>
      <trkpt lat="46.53602" lon="5.64609">
        <ele>531.4</ele>
        <time>2022-02-24T19:31:47Z</time>
      </trkpt>
      <trkpt lat="46.53608" lon="5.64614">
        <ele>531.4</ele>
        <time>2022-02-24T19:31:48Z</time>
      </trkpt>
      <trkpt lat="46.53613" lon="5.64619">
        <ele>531.4</ele>
        <time>2022-02-24T19:31:49Z</time>
      </trkpt>
      <trkpt lat="46.53619" lon="5.64623">
        <ele>531.4</ele>
        <time>2022-02-24T19:31:50Z</time>
      </trkpt>
      <trkpt lat="46.53624" lon="5.64628">
        <ele>531.4</ele>
        <time>2022-02-24T19:31:51Z</time>
      </trkpt>
      <trkpt lat="46.5363" lon="5.64633">
        <ele>531.4</ele>
        <time>2022-02-24T19:31:52Z</time>
      </trkpt>
      <trkpt lat="46.53636" lon="5.64638">
        <ele>531.4</ele>
        <time>2022-02-24T19:31:53Z</time>
      </trkpt>
      <trkpt lat="46.53641" lon="5.64643">
        <ele>531.2</ele>
        <time>2022-02-24T19:31:54Z</time>
      </trkpt>
      <trkpt lat="46.53647" lon="5.64648">
        <ele>531.2</ele>
        <time>2022-02-24T19:31:55Z</time>
      </trkpt>
      <trkpt lat="46.53653" lon="5.64654">
        <ele>531</ele>
        <time>2022-02-24T19:31:56Z</time>
      </trkpt>
      <trkpt lat="46.53659" lon="5.64659">
        <ele>531</ele>
        <time>2022-02-24T19:31:57Z</time>
      </trkpt>
      <trkpt lat="46.53664" lon="5.64664">
        <ele>531</ele>
        <time>2022-02-24T19:31:58Z</time>
      </trkpt>
      <trkpt lat="46.5367" lon="5.64669">
        <ele>531</ele>
        <time>2022-02-24T19:31:59Z</time>
      </trkpt>
      <trkpt lat="46.53676" lon="5.64674">
        <ele>531</ele>
        <time>2022-02-24T19:32:00Z</time>
      </trkpt>
      <trkpt lat="46.53682" lon="5.64679">
        <ele>531</ele>
        <time>2022-02-24T19:32:01Z</time>
      </trkpt>
      <trkpt lat="46.53687" lon="5.64684">
        <ele>531.2</ele>
        <time>2022-02-24T19:32:02Z</time>
      </trkpt>
      <trkpt lat="46.53693" lon="5.64689">
        <ele>531.2</ele>
        <time>2022-02-24T19:32:03Z</time>
      </trkpt>
      <trkpt lat="46.53699" lon="5.64694">
        <ele>531.2</ele>
        <time>2022-02-24T19:32:04Z</time>
      </trkpt>
      <trkpt lat="46.53704" lon="5.64698">
        <ele>531.6</ele>
        <time>2022-02-24T19:32:05Z</time>
      </trkpt>
      <trkpt lat="46.5371" lon="5.64703">
        <ele>531.6</ele>
        <time>2022-02-24T19:32:06Z</time>
      </trkpt>
      <trkpt lat="46.53715" lon="5.64708">
        <ele>531.6</ele>
        <time>2022-02-24T19:32:07Z</time>
      </trkpt>
      <trkpt lat="46.53721" lon="5.64713">
        <ele>531.6</ele>
        <time>2022-02-24T19:32:08Z</time>
      </trkpt>
      <trkpt lat="46.53726" lon="5.64717">
        <ele>531.8</ele>
        <time>2022-02-24T19:32:09Z</time>
      </trkpt>
      <trkpt lat="46.53731" lon="5.64722">
        <ele>531.8</ele>
        <time>2022-02-24T19:32:10Z</time>
      </trkpt>
      <trkpt lat="46.53737" lon="5.64726">
        <ele>531.8</ele>
        <time>2022-02-24T19:32:11Z</time>
      </trkpt>
      <trkpt lat="46.53742" lon="5.64731">
        <ele>531.8</ele>
        <time>2022-02-24T19:32:12Z</time>
      </trkpt>
      <trkpt lat="46.53747" lon="5.64735">
        <ele>531.8</ele>
        <time>2022-02-24T19:32:13Z</time>
      </trkpt>
      <trkpt lat="46.53752" lon="5.6474">
        <ele>531.8</ele>
        <time>2022-02-24T19:32:14Z</time>
      </trkpt>
      <trkpt lat="46.53757" lon="5.64745">
        <ele>531.8</ele>
        <time>2022-02-24T19:32:15Z</time>
      </trkpt>
      <trkpt lat="46.53762" lon="5.64749">
        <ele>532</ele>
        <time>2022-02-24T19:32:16Z</time>
      </trkpt>
      <trkpt lat="46.53768" lon="5.64754">
        <ele>532</ele>
        <time>2022-02-24T19:32:17Z</time>
      </trkpt>
      <trkpt lat="46.53773" lon="5.64758">
        <ele>532</ele>
        <time>2022-02-24T19:32:18Z</time>
      </trkpt>
      <trkpt lat="46.53778" lon="5.64763">
        <ele>532.4</ele>
        <time>2022-02-24T19:32:19Z</time>
      </trkpt>
      <trkpt lat="46.53783" lon="5.64767">
        <ele>532.4</ele>
        <time>2022-02-24T19:32:20Z</time>
      </trkpt>
      <trkpt lat="46.53788" lon="5.64772">
        <ele>532.4</ele>
        <time>2022-02-24T19:32:21Z</time>
      </trkpt>
      <trkpt lat="46.53794" lon="5.64777">
        <ele>532.4</ele>
        <time>2022-02-24T19:32:22Z</time>
      </trkpt>
      <trkpt lat="46.538" lon="5.64782">
        <ele>532.4</ele>
        <time>2022-02-24T19:32:23Z</time>
      </trkpt>
      <trkpt lat="46.53806" lon="5.64787">
        <ele>532</ele>
        <time>2022-02-24T19:32:24Z</time>
      </trkpt>
      <trkpt lat="46.53812" lon="5.64792">
        <ele>532</ele>
        <time>2022-02-24T19:32:25Z</time>
      </trkpt>
      <trkpt lat="46.53819" lon="5.64798">
        <ele>531.8</ele>
        <time>2022-02-24T19:32:26Z</time>
      </trkpt>
      <trkpt lat="46.53825" lon="5.64803">
        <ele>531.4</ele>
        <time>2022-02-24T19:32:27Z</time>
      </trkpt>
      <trkpt lat="46.53832" lon="5.64809">
        <ele>531.2</ele>
        <time>2022-02-24T19:32:28Z</time>
      </trkpt>
      <trkpt lat="46.53839" lon="5.64815">
        <ele>531.2</ele>
        <time>2022-02-24T19:32:29Z</time>
      </trkpt>
      <trkpt lat="46.53845" lon="5.64821">
        <ele>530.8</ele>
        <time>2022-02-24T19:32:30Z</time>
      </trkpt>
      <trkpt lat="46.53852" lon="5.64827">
        <ele>530.6</ele>
        <time>2022-02-24T19:32:31Z</time>
      </trkpt>
      <trkpt lat="46.53859" lon="5.64833">
        <ele>530.2</ele>
        <time>2022-02-24T19:32:32Z</time>
      </trkpt>
      <trkpt lat="46.53866" lon="5.6484">
        <ele>530</ele>
        <time>2022-02-24T19:32:33Z</time>
      </trkpt>
      <trkpt lat="46.53873" lon="5.64846">
        <ele>529.8</ele>
        <time>2022-02-24T19:32:34Z</time>
      </trkpt>
      <trkpt lat="46.5388" lon="5.64853">
        <ele>529.6</ele>
        <time>2022-02-24T19:32:35Z</time>
      </trkpt>
      <trkpt lat="46.53887" lon="5.64859">
        <ele>529.6</ele>
        <time>2022-02-24T19:32:36Z</time>
      </trkpt>
      <trkpt lat="46.53894" lon="5.64865">
        <ele>529.2</ele>
        <time>2022-02-24T19:32:37Z</time>
      </trkpt>
      <trkpt lat="46.539" lon="5.64871">
        <ele>529.2</ele>
        <time>2022-02-24T19:32:38Z</time>
      </trkpt>
      <trkpt lat="46.53907" lon="5.64876">
        <ele>529.2</ele>
        <time>2022-02-24T19:32:39Z</time>
      </trkpt>
      <trkpt lat="46.53913" lon="5.64882">
        <ele>528.8</ele>
        <time>2022-02-24T19:32:40Z</time>
      </trkpt>
      <trkpt lat="46.53919" lon="5.64887">
        <ele>528.8</ele>
        <time>2022-02-24T19:32:41Z</time>
      </trkpt>
      <trkpt lat="46.53925" lon="5.64892">
        <ele>528.8</ele>
        <time>2022-02-24T19:32:42Z</time>
      </trkpt>
      <trkpt lat="46.53931" lon="5.64897">
        <ele>528.8</ele>
        <time>2022-02-24T19:32:43Z</time>
      </trkpt>
      <trkpt lat="46.53936" lon="5.64901">
        <ele>528.8</ele>
        <time>2022-02-24T19:32:44Z</time>
      </trkpt>
      <trkpt lat="46.53941" lon="5.64906">
        <ele>528.8</ele>
        <time>2022-02-24T19:32:45Z</time>
      </trkpt>
      <trkpt lat="46.53946" lon="5.6491">
        <ele>528.8</ele>
        <time>2022-02-24T19:32:46Z</time>
      </trkpt>
      <trkpt lat="46.53951" lon="5.64915">
        <ele>529.2</ele>
        <time>2022-02-24T19:32:47Z</time>
      </trkpt>
      <trkpt lat="46.53956" lon="5.64919">
        <ele>529.4</ele>
        <time>2022-02-24T19:32:48Z</time>
      </trkpt>
      <trkpt lat="46.53961" lon="5.64923">
        <ele>529.6</ele>
        <time>2022-02-24T19:32:49Z</time>
      </trkpt>
      <trkpt lat="46.53965" lon="5.64926">
        <ele>529.8</ele>
        <time>2022-02-24T19:32:50Z</time>
      </trkpt>
      <trkpt lat="46.53969" lon="5.6493">
        <ele>529.8</ele>
        <time>2022-02-24T19:32:51Z</time>
      </trkpt>
      <trkpt lat="46.53973" lon="5.64933">
        <ele>530</ele>
        <time>2022-02-24T19:32:52Z</time>
      </trkpt>
      <trkpt lat="46.53977" lon="5.64937">
        <ele>530</ele>
        <time>2022-02-24T19:32:53Z</time>
      </trkpt>
      <trkpt lat="46.53981" lon="5.64941">
        <ele>530.6</ele>
        <time>2022-02-24T19:32:54Z</time>
      </trkpt>
      <trkpt lat="46.53985" lon="5.64944">
        <ele>530.8</ele>
        <time>2022-02-24T19:32:55Z</time>
      </trkpt>
      <trkpt lat="46.53989" lon="5.64948">
        <ele>531.2</ele>
        <time>2022-02-24T19:32:56Z</time>
      </trkpt>
      <trkpt lat="46.53992" lon="5.64951">
        <ele>531.4</ele>
        <time>2022-02-24T19:32:57Z</time>
      </trkpt>
      <trkpt lat="46.53996" lon="5.64955">
        <ele>531.6</ele>
        <time>2022-02-24T19:32:58Z</time>
      </trkpt>
      <trkpt lat="46.54" lon="5.64958">
        <ele>531.8</ele>
        <time>2022-02-24T19:32:59Z</time>
      </trkpt>
      <trkpt lat="46.54004" lon="5.64962">
        <ele>532.2</ele>
        <time>2022-02-24T19:33:00Z</time>
      </trkpt>
      <trkpt lat="46.54008" lon="5.64965">
        <ele>532.4</ele>
        <time>2022-02-24T19:33:01Z</time>
      </trkpt>
      <trkpt lat="46.54012" lon="5.64969">
        <ele>532.6</ele>
        <time>2022-02-24T19:33:02Z</time>
      </trkpt>
      <trkpt lat="46.54016" lon="5.64972">
        <ele>533</ele>
        <time>2022-02-24T19:33:03Z</time>
      </trkpt>
      <trkpt lat="46.5402" lon="5.64976">
        <ele>533.4</ele>
        <time>2022-02-24T19:33:04Z</time>
      </trkpt>
      <trkpt lat="46.54024" lon="5.64979">
        <ele>533.6</ele>
        <time>2022-02-24T19:33:05Z</time>
      </trkpt>
      <trkpt lat="46.54027" lon="5.64982">
        <ele>533.8</ele>
        <time>2022-02-24T19:33:06Z</time>
      </trkpt>
      <trkpt lat="46.54031" lon="5.64986">
        <ele>533.8</ele>
        <time>2022-02-24T19:33:07Z</time>
      </trkpt>
      <trkpt lat="46.54035" lon="5.64989">
        <ele>534.2</ele>
        <time>2022-02-24T19:33:08Z</time>
      </trkpt>
      <trkpt lat="46.54038" lon="5.64992">
        <ele>534.2</ele>
        <time>2022-02-24T19:33:09Z</time>
      </trkpt>
      <trkpt lat="46.54041" lon="5.64995">
        <ele>534.6</ele>
        <time>2022-02-24T19:33:10Z</time>
      </trkpt>
      <trkpt lat="46.54045" lon="5.64998">
        <ele>534.6</ele>
        <time>2022-02-24T19:33:11Z</time>
      </trkpt>
      <trkpt lat="46.54049" lon="5.65001">
        <ele>534.8</ele>
        <time>2022-02-24T19:33:12Z</time>
      </trkpt>
      <trkpt lat="46.54053" lon="5.65004">
        <ele>534.8</ele>
        <time>2022-02-24T19:33:13Z</time>
      </trkpt>
      <trkpt lat="46.54056" lon="5.65008">
        <ele>534.8</ele>
        <time>2022-02-24T19:33:14Z</time>
      </trkpt>
      <trkpt lat="46.5406" lon="5.65011">
        <ele>535</ele>
        <time>2022-02-24T19:33:15Z</time>
      </trkpt>
      <trkpt lat="46.54065" lon="5.65014">
        <ele>535</ele>
        <time>2022-02-24T19:33:16Z</time>
      </trkpt>
      <trkpt lat="46.54069" lon="5.65018">
        <ele>535</ele>
        <time>2022-02-24T19:33:17Z</time>
      </trkpt>
      <trkpt lat="46.54073" lon="5.65021">
        <ele>535</ele>
        <time>2022-02-24T19:33:18Z</time>
      </trkpt>
      <trkpt lat="46.54078" lon="5.65025">
        <ele>535</ele>
        <time>2022-02-24T19:33:19Z</time>
      </trkpt>
      <trkpt lat="46.54083" lon="5.65029">
        <ele>535</ele>
        <time>2022-02-24T19:33:20Z</time>
      </trkpt>
      <trkpt lat="46.54088" lon="5.65033">
        <ele>535</ele>
        <time>2022-02-24T19:33:21Z</time>
      </trkpt>
      <trkpt lat="46.54093" lon="5.65038">
        <ele>535</ele>
        <time>2022-02-24T19:33:22Z</time>
      </trkpt>
      <trkpt lat="46.54099" lon="5.65042">
        <ele>534.8</ele>
        <time>2022-02-24T19:33:23Z</time>
      </trkpt>
      <trkpt lat="46.54104" lon="5.65046">
        <ele>534.8</ele>
        <time>2022-02-24T19:33:24Z</time>
      </trkpt>
      <trkpt lat="46.5411" lon="5.65051">
        <ele>534.8</ele>
        <time>2022-02-24T19:33:25Z</time>
      </trkpt>
      <trkpt lat="46.54115" lon="5.65055">
        <ele>534.6</ele>
        <time>2022-02-24T19:33:26Z</time>
      </trkpt>
      <trkpt lat="46.54121" lon="5.6506">
        <ele>534.6</ele>
        <time>2022-02-24T19:33:27Z</time>
      </trkpt>
      <trkpt lat="46.54126" lon="5.65064">
        <ele>534.6</ele>
        <time>2022-02-24T19:33:28Z</time>
      </trkpt>
      <trkpt lat="46.54131" lon="5.65069">
        <ele>534.6</ele>
        <time>2022-02-24T19:33:29Z</time>
      </trkpt>
      <trkpt lat="46.54137" lon="5.65074">
        <ele>534.6</ele>
        <time>2022-02-24T19:33:30Z</time>
      </trkpt>
      <trkpt lat="46.54142" lon="5.65079">
        <ele>534.6</ele>
        <time>2022-02-24T19:33:31Z</time>
      </trkpt>
      <trkpt lat="46.54147" lon="5.65083">
        <ele>534.6</ele>
        <time>2022-02-24T19:33:32Z</time>
      </trkpt>
      <trkpt lat="46.54152" lon="5.65088">
        <ele>534.6</ele>
        <time>2022-02-24T19:33:33Z</time>
      </trkpt>
      <trkpt lat="46.54156" lon="5.65094">
        <ele>534.6</ele>
        <time>2022-02-24T19:33:34Z</time>
      </trkpt>
      <trkpt lat="46.54161" lon="5.65099">
        <ele>534.8</ele>
        <time>2022-02-24T19:33:35Z</time>
      </trkpt>
      <trkpt lat="46.54165" lon="5.65104">
        <ele>535</ele>
        <time>2022-02-24T19:33:36Z</time>
      </trkpt>
      <trkpt lat="46.54169" lon="5.65108">
        <ele>535.4</ele>
        <time>2022-02-24T19:33:37Z</time>
      </trkpt>
      <trkpt lat="46.54173" lon="5.65113">
        <ele>535.6</ele>
        <time>2022-02-24T19:33:38Z</time>
      </trkpt>
      <trkpt lat="46.54177" lon="5.65118">
        <ele>535.8</ele>
        <time>2022-02-24T19:33:39Z</time>
      </trkpt>
      <trkpt lat="46.5418" lon="5.65122">
        <ele>536</ele>
        <time>2022-02-24T19:33:40Z</time>
      </trkpt>
      <trkpt lat="46.54184" lon="5.65127">
        <ele>536</ele>
        <time>2022-02-24T19:33:41Z</time>
      </trkpt>
      <trkpt lat="46.54187" lon="5.65132">
        <ele>536.4</ele>
        <time>2022-02-24T19:33:42Z</time>
      </trkpt>
      <trkpt lat="46.5419" lon="5.65136">
        <ele>536.4</ele>
        <time>2022-02-24T19:33:43Z</time>
      </trkpt>
      <trkpt lat="46.54194" lon="5.65141">
        <ele>536.6</ele>
        <time>2022-02-24T19:33:44Z</time>
      </trkpt>
      <trkpt lat="46.54197" lon="5.65146">
        <ele>536.6</ele>
        <time>2022-02-24T19:33:45Z</time>
      </trkpt>
      <trkpt lat="46.54201" lon="5.6515">
        <ele>536.6</ele>
        <time>2022-02-24T19:33:46Z</time>
      </trkpt>
      <trkpt lat="46.54205" lon="5.65155">
        <ele>537</ele>
        <time>2022-02-24T19:33:47Z</time>
      </trkpt>
      <trkpt lat="46.54208" lon="5.65159">
        <ele>537</ele>
        <time>2022-02-24T19:33:48Z</time>
      </trkpt>
      <trkpt lat="46.54211" lon="5.65163">
        <ele>537</ele>
        <time>2022-02-24T19:33:49Z</time>
      </trkpt>
      <trkpt lat="46.54214" lon="5.65168">
        <ele>537</ele>
        <time>2022-02-24T19:33:50Z</time>
      </trkpt>
      <trkpt lat="46.54216" lon="5.65172">
        <ele>537</ele>
        <time>2022-02-24T19:33:51Z</time>
      </trkpt>
      <trkpt lat="46.54218" lon="5.65175">
        <ele>537</ele>
        <time>2022-02-24T19:33:52Z</time>
      </trkpt>
      <trkpt lat="46.54219" lon="5.65176">
        <ele>537</ele>
        <time>2022-02-24T19:33:53Z</time>
      </trkpt>
      <trkpt lat="46.5422" lon="5.65176">
        <ele>537</ele>
        <time>2022-02-24T19:33:54Z</time>
      </trkpt>
      <trkpt lat="46.54222" lon="5.6518">
        <ele>537.6</ele>
        <time>2022-02-24T19:34:43Z</time>
      </trkpt>
      <trkpt lat="46.54223" lon="5.65182">
        <ele>537.6</ele>
        <time>2022-02-24T19:34:44Z</time>
      </trkpt>
      <trkpt lat="46.54224" lon="5.65184">
        <ele>537.6</ele>
        <time>2022-02-24T19:34:45Z</time>
      </trkpt>
      <trkpt lat="46.54226" lon="5.65186">
        <ele>537.6</ele>
        <time>2022-02-24T19:34:46Z</time>
      </trkpt>
      <trkpt lat="46.54228" lon="5.65188">
        <ele>537.6</ele>
        <time>2022-02-24T19:34:47Z</time>
      </trkpt>
      <trkpt lat="46.5423" lon="5.6519">
        <ele>537.6</ele>
        <time>2022-02-24T19:34:48Z</time>
      </trkpt>
      <trkpt lat="46.54231" lon="5.65193">
        <ele>537.6</ele>
        <time>2022-02-24T19:34:49Z</time>
      </trkpt>
      <trkpt lat="46.54233" lon="5.65195">
        <ele>537.6</ele>
        <time>2022-02-24T19:34:50Z</time>
      </trkpt>
      <trkpt lat="46.54235" lon="5.65198">
        <ele>537.8</ele>
        <time>2022-02-24T19:34:51Z</time>
      </trkpt>
      <trkpt lat="46.54238" lon="5.65201">
        <ele>537.8</ele>
        <time>2022-02-24T19:34:52Z</time>
      </trkpt>
      <trkpt lat="46.5424" lon="5.65204">
        <ele>537.8</ele>
        <time>2022-02-24T19:34:53Z</time>
      </trkpt>
      <trkpt lat="46.54243" lon="5.65207">
        <ele>537.8</ele>
        <time>2022-02-24T19:34:54Z</time>
      </trkpt>
      <trkpt lat="46.54246" lon="5.65211">
        <ele>537.8</ele>
        <time>2022-02-24T19:34:55Z</time>
      </trkpt>
      <trkpt lat="46.54249" lon="5.65215">
        <ele>537.8</ele>
        <time>2022-02-24T19:34:56Z</time>
      </trkpt>
      <trkpt lat="46.54252" lon="5.65219">
        <ele>537.8</ele>
        <time>2022-02-24T19:34:57Z</time>
      </trkpt>
      <trkpt lat="46.54256" lon="5.65224">
        <ele>537.8</ele>
        <time>2022-02-24T19:34:58Z</time>
      </trkpt>
      <trkpt lat="46.54259" lon="5.65229">
        <ele>537.8</ele>
        <time>2022-02-24T19:34:59Z</time>
      </trkpt>
      <trkpt lat="46.54263" lon="5.65234">
        <ele>537.6</ele>
        <time>2022-02-24T19:35:00Z</time>
      </trkpt>
      <trkpt lat="46.54268" lon="5.65239">
        <ele>537.6</ele>
        <time>2022-02-24T19:35:01Z</time>
      </trkpt>
      <trkpt lat="46.54272" lon="5.65245">
        <ele>537.2</ele>
        <time>2022-02-24T19:35:02Z</time>
      </trkpt>
      <trkpt lat="46.54277" lon="5.6525">
        <ele>537.2</ele>
        <time>2022-02-24T19:35:03Z</time>
      </trkpt>
      <trkpt lat="46.54282" lon="5.65256">
        <ele>537</ele>
        <time>2022-02-24T19:35:04Z</time>
      </trkpt>
      <trkpt lat="46.54287" lon="5.65262">
        <ele>536.6</ele>
        <time>2022-02-24T19:35:05Z</time>
      </trkpt>
      <trkpt lat="46.54292" lon="5.65268">
        <ele>536.6</ele>
        <time>2022-02-24T19:35:06Z</time>
      </trkpt>
      <trkpt lat="46.54298" lon="5.65274">
        <ele>536.4</ele>
        <time>2022-02-24T19:35:07Z</time>
      </trkpt>
      <trkpt lat="46.54303" lon="5.6528">
        <ele>536.4</ele>
        <time>2022-02-24T19:35:08Z</time>
      </trkpt>
      <trkpt lat="46.54309" lon="5.65286">
        <ele>536.2</ele>
        <time>2022-02-24T19:35:09Z</time>
      </trkpt>
      <trkpt lat="46.54314" lon="5.65293">
        <ele>536.2</ele>
        <time>2022-02-24T19:35:10Z</time>
      </trkpt>
      <trkpt lat="46.54319" lon="5.65299">
        <ele>535.8</ele>
        <time>2022-02-24T19:35:11Z</time>
      </trkpt>
      <trkpt lat="46.54325" lon="5.65305">
        <ele>535.6</ele>
        <time>2022-02-24T19:35:12Z</time>
      </trkpt>
      <trkpt lat="46.5433" lon="5.65311">
        <ele>535.6</ele>
        <time>2022-02-24T19:35:13Z</time>
      </trkpt>
      <trkpt lat="46.54336" lon="5.65317">
        <ele>535.2</ele>
        <time>2022-02-24T19:35:14Z</time>
      </trkpt>
      <trkpt lat="46.54342" lon="5.65324">
        <ele>534.8</ele>
        <time>2022-02-24T19:35:15Z</time>
      </trkpt>
      <trkpt lat="46.54347" lon="5.6533">
        <ele>534.6</ele>
        <time>2022-02-24T19:35:16Z</time>
      </trkpt>
      <trkpt lat="46.54353" lon="5.65337">
        <ele>534.4</ele>
        <time>2022-02-24T19:35:17Z</time>
      </trkpt>
      <trkpt lat="46.54358" lon="5.65344">
        <ele>534.2</ele>
        <time>2022-02-24T19:35:18Z</time>
      </trkpt>
      <trkpt lat="46.54364" lon="5.6535">
        <ele>533.8</ele>
        <time>2022-02-24T19:35:19Z</time>
      </trkpt>
      <trkpt lat="46.5437" lon="5.65357">
        <ele>533.4</ele>
        <time>2022-02-24T19:35:20Z</time>
      </trkpt>
      <trkpt lat="46.54376" lon="5.65364">
        <ele>533</ele>
        <time>2022-02-24T19:35:21Z</time>
      </trkpt>
      <trkpt lat="46.54383" lon="5.65371">
        <ele>532.6</ele>
        <time>2022-02-24T19:35:22Z</time>
      </trkpt>
      <trkpt lat="46.5439" lon="5.65378">
        <ele>532.2</ele>
        <time>2022-02-24T19:35:23Z</time>
      </trkpt>
      <trkpt lat="46.54398" lon="5.65384">
        <ele>531.8</ele>
        <time>2022-02-24T19:35:24Z</time>
      </trkpt>
      <trkpt lat="46.54405" lon="5.6539">
        <ele>531.2</ele>
        <time>2022-02-24T19:35:25Z</time>
      </trkpt>
      <trkpt lat="46.54415" lon="5.65397">
        <ele>530.8</ele>
        <time>2022-02-24T19:35:26Z</time>
      </trkpt>
      <trkpt lat="46.54424" lon="5.65404">
        <ele>530.2</ele>
        <time>2022-02-24T19:35:27Z</time>
      </trkpt>
      <trkpt lat="46.54433" lon="5.6541">
        <ele>529.6</ele>
        <time>2022-02-24T19:35:28Z</time>
      </trkpt>
      <trkpt lat="46.54442" lon="5.65417">
        <ele>529.2</ele>
        <time>2022-02-24T19:35:29Z</time>
      </trkpt>
      <trkpt lat="46.5445" lon="5.65422">
        <ele>528.8</ele>
        <time>2022-02-24T19:35:30Z</time>
      </trkpt>
      <trkpt lat="46.54459" lon="5.65427">
        <ele>528.4</ele>
        <time>2022-02-24T19:35:31Z</time>
      </trkpt>
      <trkpt lat="46.54468" lon="5.65433">
        <ele>528</ele>
        <time>2022-02-24T19:35:32Z</time>
      </trkpt>
      <trkpt lat="46.54477" lon="5.6544">
        <ele>527.6</ele>
        <time>2022-02-24T19:35:33Z</time>
      </trkpt>
      <trkpt lat="46.54486" lon="5.65447">
        <ele>527.2</ele>
        <time>2022-02-24T19:35:34Z</time>
      </trkpt>
      <trkpt lat="46.54494" lon="5.65453">
        <ele>526.8</ele>
        <time>2022-02-24T19:35:35Z</time>
      </trkpt>
      <trkpt lat="46.54503" lon="5.65458">
        <ele>526.6</ele>
        <time>2022-02-24T19:35:36Z</time>
      </trkpt>
      <trkpt lat="46.54511" lon="5.65465">
        <ele>526.2</ele>
        <time>2022-02-24T19:35:37Z</time>
      </trkpt>
      <trkpt lat="46.54519" lon="5.6547">
        <ele>526</ele>
        <time>2022-02-24T19:35:38Z</time>
      </trkpt>
      <trkpt lat="46.54527" lon="5.65476">
        <ele>526</ele>
        <time>2022-02-24T19:35:39Z</time>
      </trkpt>
      <trkpt lat="46.54535" lon="5.65481">
        <ele>525.8</ele>
        <time>2022-02-24T19:35:40Z</time>
      </trkpt>
      <trkpt lat="46.54542" lon="5.65487">
        <ele>525.8</ele>
        <time>2022-02-24T19:35:41Z</time>
      </trkpt>
      <trkpt lat="46.54549" lon="5.65492">
        <ele>525.8</ele>
        <time>2022-02-24T19:35:42Z</time>
      </trkpt>
      <trkpt lat="46.54556" lon="5.65498">
        <ele>525.8</ele>
        <time>2022-02-24T19:35:43Z</time>
      </trkpt>
      <trkpt lat="46.54563" lon="5.65503">
        <ele>525.8</ele>
        <time>2022-02-24T19:35:44Z</time>
      </trkpt>
      <trkpt lat="46.5457" lon="5.65508">
        <ele>525.8</ele>
        <time>2022-02-24T19:35:45Z</time>
      </trkpt>
      <trkpt lat="46.54577" lon="5.65512">
        <ele>525.8</ele>
        <time>2022-02-24T19:35:46Z</time>
      </trkpt>
      <trkpt lat="46.54583" lon="5.65517">
        <ele>525.8</ele>
        <time>2022-02-24T19:35:47Z</time>
      </trkpt>
      <trkpt lat="46.54589" lon="5.6552">
        <ele>525.8</ele>
        <time>2022-02-24T19:35:48Z</time>
      </trkpt>
      <trkpt lat="46.54596" lon="5.65524">
        <ele>525.8</ele>
        <time>2022-02-24T19:35:49Z</time>
      </trkpt>
      <trkpt lat="46.54602" lon="5.65526">
        <ele>525.8</ele>
        <time>2022-02-24T19:35:50Z</time>
      </trkpt>
      <trkpt lat="46.54608" lon="5.65528">
        <ele>526.2</ele>
        <time>2022-02-24T19:35:51Z</time>
      </trkpt>
      <trkpt lat="46.54615" lon="5.65529">
        <ele>526.2</ele>
        <time>2022-02-24T19:35:52Z</time>
      </trkpt>
      <trkpt lat="46.54621" lon="5.6553">
        <ele>526.2</ele>
        <time>2022-02-24T19:35:53Z</time>
      </trkpt>
      <trkpt lat="46.54627" lon="5.6553">
        <ele>526.2</ele>
        <time>2022-02-24T19:35:54Z</time>
      </trkpt>
      <trkpt lat="46.54634" lon="5.65529">
        <ele>526.2</ele>
        <time>2022-02-24T19:35:55Z</time>
      </trkpt>
      <trkpt lat="46.5464" lon="5.65528">
        <ele>526.4</ele>
        <time>2022-02-24T19:35:56Z</time>
      </trkpt>
      <trkpt lat="46.54646" lon="5.65527">
        <ele>526.4</ele>
        <time>2022-02-24T19:35:57Z</time>
      </trkpt>
      <trkpt lat="46.54653" lon="5.65525">
        <ele>526.4</ele>
        <time>2022-02-24T19:35:58Z</time>
      </trkpt>
      <trkpt lat="46.54659" lon="5.65524">
        <ele>526.4</ele>
        <time>2022-02-24T19:35:59Z</time>
      </trkpt>
      <trkpt lat="46.54666" lon="5.65522">
        <ele>526.4</ele>
        <time>2022-02-24T19:36:00Z</time>
      </trkpt>
      <trkpt lat="46.54672" lon="5.6552">
        <ele>526.4</ele>
        <time>2022-02-24T19:36:01Z</time>
      </trkpt>
      <trkpt lat="46.54679" lon="5.65518">
        <ele>526.4</ele>
        <time>2022-02-24T19:36:02Z</time>
      </trkpt>
      <trkpt lat="46.54685" lon="5.65515">
        <ele>526.4</ele>
        <time>2022-02-24T19:36:03Z</time>
      </trkpt>
      <trkpt lat="46.54692" lon="5.65513">
        <ele>526.4</ele>
        <time>2022-02-24T19:36:04Z</time>
      </trkpt>
      <trkpt lat="46.54699" lon="5.65511">
        <ele>526.4</ele>
        <time>2022-02-24T19:36:05Z</time>
      </trkpt>
      <trkpt lat="46.54706" lon="5.6551">
        <ele>526.4</ele>
        <time>2022-02-24T19:36:06Z</time>
      </trkpt>
      <trkpt lat="46.54712" lon="5.65508">
        <ele>526.4</ele>
        <time>2022-02-24T19:36:07Z</time>
      </trkpt>
      <trkpt lat="46.54719" lon="5.65506">
        <ele>526.4</ele>
        <time>2022-02-24T19:36:08Z</time>
      </trkpt>
      <trkpt lat="46.54726" lon="5.65504">
        <ele>526.4</ele>
        <time>2022-02-24T19:36:09Z</time>
      </trkpt>
      <trkpt lat="46.54732" lon="5.65501">
        <ele>526.4</ele>
        <time>2022-02-24T19:36:10Z</time>
      </trkpt>
      <trkpt lat="46.54739" lon="5.655">
        <ele>526.4</ele>
        <time>2022-02-24T19:36:11Z</time>
      </trkpt>
      <trkpt lat="46.54745" lon="5.65498">
        <ele>526.4</ele>
        <time>2022-02-24T19:36:12Z</time>
      </trkpt>
      <trkpt lat="46.54752" lon="5.65496">
        <ele>526.4</ele>
        <time>2022-02-24T19:36:13Z</time>
      </trkpt>
      <trkpt lat="46.54759" lon="5.65494">
        <ele>526.4</ele>
        <time>2022-02-24T19:36:14Z</time>
      </trkpt>
      <trkpt lat="46.54767" lon="5.65492">
        <ele>526.4</ele>
        <time>2022-02-24T19:36:15Z</time>
      </trkpt>
      <trkpt lat="46.54774" lon="5.6549">
        <ele>526.4</ele>
        <time>2022-02-24T19:36:16Z</time>
      </trkpt>
      <trkpt lat="46.54782" lon="5.65489">
        <ele>526.4</ele>
        <time>2022-02-24T19:36:17Z</time>
      </trkpt>
      <trkpt lat="46.54789" lon="5.65488">
        <ele>526.4</ele>
        <time>2022-02-24T19:36:18Z</time>
      </trkpt>
      <trkpt lat="46.54796" lon="5.65488">
        <ele>526.4</ele>
        <time>2022-02-24T19:36:19Z</time>
      </trkpt>
      <trkpt lat="46.54803" lon="5.65487">
        <ele>526.4</ele>
        <time>2022-02-24T19:36:20Z</time>
      </trkpt>
      <trkpt lat="46.54811" lon="5.65487">
        <ele>526.4</ele>
        <time>2022-02-24T19:36:21Z</time>
      </trkpt>
      <trkpt lat="46.54818" lon="5.65486">
        <ele>526.4</ele>
        <time>2022-02-24T19:36:22Z</time>
      </trkpt>
      <trkpt lat="46.54825" lon="5.65486">
        <ele>526.4</ele>
        <time>2022-02-24T19:36:23Z</time>
      </trkpt>
      <trkpt lat="46.54833" lon="5.65486">
        <ele>526.4</ele>
        <time>2022-02-24T19:36:24Z</time>
      </trkpt>
      <trkpt lat="46.54841" lon="5.65486">
        <ele>526</ele>
        <time>2022-02-24T19:36:25Z</time>
      </trkpt>
      <trkpt lat="46.54849" lon="5.65486">
        <ele>525.8</ele>
        <time>2022-02-24T19:36:26Z</time>
      </trkpt>
      <trkpt lat="46.54856" lon="5.65486">
        <ele>525.8</ele>
        <time>2022-02-24T19:36:27Z</time>
      </trkpt>
      <trkpt lat="46.54864" lon="5.65486">
        <ele>525.6</ele>
        <time>2022-02-24T19:36:28Z</time>
      </trkpt>
      <trkpt lat="46.54871" lon="5.65486">
        <ele>525.6</ele>
        <time>2022-02-24T19:36:29Z</time>
      </trkpt>
      <trkpt lat="46.54879" lon="5.65486">
        <ele>525.6</ele>
        <time>2022-02-24T19:36:30Z</time>
      </trkpt>
      <trkpt lat="46.54886" lon="5.65486">
        <ele>525.2</ele>
        <time>2022-02-24T19:36:31Z</time>
      </trkpt>
      <trkpt lat="46.54894" lon="5.65486">
        <ele>525.2</ele>
        <time>2022-02-24T19:36:32Z</time>
      </trkpt>
      <trkpt lat="46.54901" lon="5.65485">
        <ele>525</ele>
        <time>2022-02-24T19:36:33Z</time>
      </trkpt>
      <trkpt lat="46.54908" lon="5.65485">
        <ele>525</ele>
        <time>2022-02-24T19:36:34Z</time>
      </trkpt>
      <trkpt lat="46.54916" lon="5.65484">
        <ele>525</ele>
        <time>2022-02-24T19:36:35Z</time>
      </trkpt>
      <trkpt lat="46.54923" lon="5.65484">
        <ele>524.6</ele>
        <time>2022-02-24T19:36:36Z</time>
      </trkpt>
      <trkpt lat="46.54931" lon="5.65484">
        <ele>524.2</ele>
        <time>2022-02-24T19:36:37Z</time>
      </trkpt>
      <trkpt lat="46.54938" lon="5.65484">
        <ele>524.2</ele>
        <time>2022-02-24T19:36:38Z</time>
      </trkpt>
      <trkpt lat="46.54946" lon="5.65483">
        <ele>524</ele>
        <time>2022-02-24T19:36:39Z</time>
      </trkpt>
      <trkpt lat="46.54954" lon="5.65483">
        <ele>524</ele>
        <time>2022-02-24T19:36:40Z</time>
      </trkpt>
      <trkpt lat="46.54962" lon="5.65483">
        <ele>523.8</ele>
        <time>2022-02-24T19:36:41Z</time>
      </trkpt>
      <trkpt lat="46.5497" lon="5.65483">
        <ele>523.6</ele>
        <time>2022-02-24T19:36:42Z</time>
      </trkpt>
      <trkpt lat="46.54978" lon="5.65483">
        <ele>523.4</ele>
        <time>2022-02-24T19:36:43Z</time>
      </trkpt>
      <trkpt lat="46.54986" lon="5.65484">
        <ele>523.2</ele>
        <time>2022-02-24T19:36:44Z</time>
      </trkpt>
      <trkpt lat="46.54994" lon="5.65485">
        <ele>523.2</ele>
        <time>2022-02-24T19:36:45Z</time>
      </trkpt>
      <trkpt lat="46.55002" lon="5.65486">
        <ele>522.8</ele>
        <time>2022-02-24T19:36:46Z</time>
      </trkpt>
      <trkpt lat="46.5501" lon="5.65487">
        <ele>522.6</ele>
        <time>2022-02-24T19:36:47Z</time>
      </trkpt>
      <trkpt lat="46.55018" lon="5.65488">
        <ele>522.6</ele>
        <time>2022-02-24T19:36:48Z</time>
      </trkpt>
      <trkpt lat="46.55027" lon="5.6549">
        <ele>522.6</ele>
        <time>2022-02-24T19:36:49Z</time>
      </trkpt>
      <trkpt lat="46.55035" lon="5.65492">
        <ele>522.2</ele>
        <time>2022-02-24T19:36:50Z</time>
      </trkpt>
      <trkpt lat="46.55044" lon="5.65494">
        <ele>522.2</ele>
        <time>2022-02-24T19:36:51Z</time>
      </trkpt>
      <trkpt lat="46.55053" lon="5.65495">
        <ele>522</ele>
        <time>2022-02-24T19:36:52Z</time>
      </trkpt>
      <trkpt lat="46.55061" lon="5.65497">
        <ele>522</ele>
        <time>2022-02-24T19:36:53Z</time>
      </trkpt>
      <trkpt lat="46.5507" lon="5.65499">
        <ele>521.6</ele>
        <time>2022-02-24T19:36:54Z</time>
      </trkpt>
      <trkpt lat="46.55078" lon="5.655">
        <ele>521.4</ele>
        <time>2022-02-24T19:36:55Z</time>
      </trkpt>
      <trkpt lat="46.55086" lon="5.65502">
        <ele>521.4</ele>
        <time>2022-02-24T19:36:56Z</time>
      </trkpt>
      <trkpt lat="46.55095" lon="5.65504">
        <ele>521</ele>
        <time>2022-02-24T19:36:57Z</time>
      </trkpt>
      <trkpt lat="46.55103" lon="5.65505">
        <ele>520.8</ele>
        <time>2022-02-24T19:36:58Z</time>
      </trkpt>
      <trkpt lat="46.55111" lon="5.65507">
        <ele>520.6</ele>
        <time>2022-02-24T19:36:59Z</time>
      </trkpt>
      <trkpt lat="46.55119" lon="5.65509">
        <ele>520.6</ele>
        <time>2022-02-24T19:37:00Z</time>
      </trkpt>
      <trkpt lat="46.55127" lon="5.6551">
        <ele>520.2</ele>
        <time>2022-02-24T19:37:01Z</time>
      </trkpt>
      <trkpt lat="46.55135" lon="5.65512">
        <ele>520</ele>
        <time>2022-02-24T19:37:02Z</time>
      </trkpt>
      <trkpt lat="46.55144" lon="5.65514">
        <ele>519.8</ele>
        <time>2022-02-24T19:37:03Z</time>
      </trkpt>
      <trkpt lat="46.55152" lon="5.65516">
        <ele>519.6</ele>
        <time>2022-02-24T19:37:04Z</time>
      </trkpt>
      <trkpt lat="46.5516" lon="5.65518">
        <ele>519.4</ele>
        <time>2022-02-24T19:37:05Z</time>
      </trkpt>
      <trkpt lat="46.55168" lon="5.6552">
        <ele>519.4</ele>
        <time>2022-02-24T19:37:06Z</time>
      </trkpt>
      <trkpt lat="46.55176" lon="5.65523">
        <ele>519</ele>
        <time>2022-02-24T19:37:07Z</time>
      </trkpt>
      <trkpt lat="46.55184" lon="5.65526">
        <ele>518.6</ele>
        <time>2022-02-24T19:37:08Z</time>
      </trkpt>
      <trkpt lat="46.55192" lon="5.6553">
        <ele>518.4</ele>
        <time>2022-02-24T19:37:09Z</time>
      </trkpt>
      <trkpt lat="46.552" lon="5.65534">
        <ele>518.4</ele>
        <time>2022-02-24T19:37:10Z</time>
      </trkpt>
      <trkpt lat="46.55207" lon="5.65539">
        <ele>518</ele>
        <time>2022-02-24T19:37:11Z</time>
      </trkpt>
      <trkpt lat="46.55215" lon="5.65544">
        <ele>517.8</ele>
        <time>2022-02-24T19:37:12Z</time>
      </trkpt>
      <trkpt lat="46.55222" lon="5.65548">
        <ele>517.6</ele>
        <time>2022-02-24T19:37:13Z</time>
      </trkpt>
      <trkpt lat="46.5523" lon="5.65553">
        <ele>517.4</ele>
        <time>2022-02-24T19:37:14Z</time>
      </trkpt>
      <trkpt lat="46.55238" lon="5.65558">
        <ele>517</ele>
        <time>2022-02-24T19:37:15Z</time>
      </trkpt>
      <trkpt lat="46.55245" lon="5.65564">
        <ele>516.8</ele>
        <time>2022-02-24T19:37:16Z</time>
      </trkpt>
      <trkpt lat="46.55253" lon="5.65569">
        <ele>516.4</ele>
        <time>2022-02-24T19:37:17Z</time>
      </trkpt>
      <trkpt lat="46.55261" lon="5.65574">
        <ele>516</ele>
        <time>2022-02-24T19:37:18Z</time>
      </trkpt>
      <trkpt lat="46.55269" lon="5.6558">
        <ele>515.8</ele>
        <time>2022-02-24T19:37:19Z</time>
      </trkpt>
      <trkpt lat="46.55277" lon="5.65585">
        <ele>515.4</ele>
        <time>2022-02-24T19:37:20Z</time>
      </trkpt>
      <trkpt lat="46.55285" lon="5.65591">
        <ele>515</ele>
        <time>2022-02-24T19:37:21Z</time>
      </trkpt>
      <trkpt lat="46.55293" lon="5.65596">
        <ele>514.6</ele>
        <time>2022-02-24T19:37:22Z</time>
      </trkpt>
      <trkpt lat="46.55302" lon="5.65602">
        <ele>514</ele>
        <time>2022-02-24T19:37:23Z</time>
      </trkpt>
      <trkpt lat="46.5531" lon="5.65607">
        <ele>513.6</ele>
        <time>2022-02-24T19:37:24Z</time>
      </trkpt>
      <trkpt lat="46.55319" lon="5.65613">
        <ele>513.2</ele>
        <time>2022-02-24T19:37:25Z</time>
      </trkpt>
      <trkpt lat="46.55328" lon="5.65619">
        <ele>512.6</ele>
        <time>2022-02-24T19:37:26Z</time>
      </trkpt>
      <trkpt lat="46.55337" lon="5.65625">
        <ele>512.2</ele>
        <time>2022-02-24T19:37:27Z</time>
      </trkpt>
      <trkpt lat="46.55345" lon="5.6563">
        <ele>511.8</ele>
        <time>2022-02-24T19:37:28Z</time>
      </trkpt>
      <trkpt lat="46.55354" lon="5.65634">
        <ele>511.6</ele>
        <time>2022-02-24T19:37:29Z</time>
      </trkpt>
      <trkpt lat="46.55362" lon="5.6564">
        <ele>511.2</ele>
        <time>2022-02-24T19:37:30Z</time>
      </trkpt>
      <trkpt lat="46.55371" lon="5.65644">
        <ele>510.8</ele>
        <time>2022-02-24T19:37:31Z</time>
      </trkpt>
      <trkpt lat="46.55379" lon="5.65649">
        <ele>510.4</ele>
        <time>2022-02-24T19:37:32Z</time>
      </trkpt>
      <trkpt lat="46.55387" lon="5.65654">
        <ele>510.2</ele>
        <time>2022-02-24T19:37:33Z</time>
      </trkpt>
      <trkpt lat="46.55396" lon="5.65658">
        <ele>509.8</ele>
        <time>2022-02-24T19:37:34Z</time>
      </trkpt>
      <trkpt lat="46.55405" lon="5.65665">
        <ele>509.6</ele>
        <time>2022-02-24T19:37:35Z</time>
      </trkpt>
      <trkpt lat="46.55415" lon="5.65671">
        <ele>509.2</ele>
        <time>2022-02-24T19:37:36Z</time>
      </trkpt>
      <trkpt lat="46.55423" lon="5.65676">
        <ele>508.8</ele>
        <time>2022-02-24T19:37:37Z</time>
      </trkpt>
      <trkpt lat="46.55432" lon="5.65682">
        <ele>508.4</ele>
        <time>2022-02-24T19:37:38Z</time>
      </trkpt>
      <trkpt lat="46.55441" lon="5.65688">
        <ele>508</ele>
        <time>2022-02-24T19:37:39Z</time>
      </trkpt>
      <trkpt lat="46.5545" lon="5.65693">
        <ele>507.6</ele>
        <time>2022-02-24T19:37:40Z</time>
      </trkpt>
      <trkpt lat="46.55459" lon="5.65699">
        <ele>507</ele>
        <time>2022-02-24T19:37:41Z</time>
      </trkpt>
      <trkpt lat="46.55469" lon="5.65705">
        <ele>506.6</ele>
        <time>2022-02-24T19:37:42Z</time>
      </trkpt>
      <trkpt lat="46.55477" lon="5.6571">
        <ele>506.2</ele>
        <time>2022-02-24T19:37:43Z</time>
      </trkpt>
      <trkpt lat="46.55485" lon="5.65716">
        <ele>505.8</ele>
        <time>2022-02-24T19:37:44Z</time>
      </trkpt>
      <trkpt lat="46.55493" lon="5.65723">
        <ele>505.4</ele>
        <time>2022-02-24T19:37:45Z</time>
      </trkpt>
      <trkpt lat="46.55502" lon="5.6573">
        <ele>505</ele>
        <time>2022-02-24T19:37:46Z</time>
      </trkpt>
      <trkpt lat="46.55511" lon="5.65737">
        <ele>504.4</ele>
        <time>2022-02-24T19:37:47Z</time>
      </trkpt>
      <trkpt lat="46.55521" lon="5.65743">
        <ele>504</ele>
        <time>2022-02-24T19:37:48Z</time>
      </trkpt>
      <trkpt lat="46.55531" lon="5.6575">
        <ele>503.4</ele>
        <time>2022-02-24T19:37:49Z</time>
      </trkpt>
      <trkpt lat="46.55541" lon="5.65757">
        <ele>502.6</ele>
        <time>2022-02-24T19:37:50Z</time>
      </trkpt>
      <trkpt lat="46.5555" lon="5.65764">
        <ele>502.2</ele>
        <time>2022-02-24T19:37:51Z</time>
      </trkpt>
      <trkpt lat="46.55559" lon="5.6577">
        <ele>501.6</ele>
        <time>2022-02-24T19:37:52Z</time>
      </trkpt>
      <trkpt lat="46.55569" lon="5.65776">
        <ele>501</ele>
        <time>2022-02-24T19:37:53Z</time>
      </trkpt>
      <trkpt lat="46.55579" lon="5.65782">
        <ele>500.4</ele>
        <time>2022-02-24T19:37:54Z</time>
      </trkpt>
      <trkpt lat="46.55588" lon="5.65787">
        <ele>499.8</ele>
        <time>2022-02-24T19:37:55Z</time>
      </trkpt>
      <trkpt lat="46.55597" lon="5.65793">
        <ele>499.2</ele>
        <time>2022-02-24T19:37:56Z</time>
      </trkpt>
      <trkpt lat="46.55606" lon="5.65799">
        <ele>498.8</ele>
        <time>2022-02-24T19:37:57Z</time>
      </trkpt>
      <trkpt lat="46.55616" lon="5.65805">
        <ele>498.2</ele>
        <time>2022-02-24T19:37:58Z</time>
      </trkpt>
      <trkpt lat="46.55625" lon="5.6581">
        <ele>497.6</ele>
        <time>2022-02-24T19:37:59Z</time>
      </trkpt>
      <trkpt lat="46.55635" lon="5.65816">
        <ele>497</ele>
        <time>2022-02-24T19:38:00Z</time>
      </trkpt>
      <trkpt lat="46.55644" lon="5.65821">
        <ele>496.4</ele>
        <time>2022-02-24T19:38:01Z</time>
      </trkpt>
      <trkpt lat="46.55651" lon="5.65826">
        <ele>495.8</ele>
        <time>2022-02-24T19:38:02Z</time>
      </trkpt>
      <trkpt lat="46.55658" lon="5.65832">
        <ele>495.4</ele>
        <time>2022-02-24T19:38:03Z</time>
      </trkpt>
      <trkpt lat="46.55665" lon="5.65839">
        <ele>494.6</ele>
        <time>2022-02-24T19:38:04Z</time>
      </trkpt>
      <trkpt lat="46.55671" lon="5.65849">
        <ele>494.2</ele>
        <time>2022-02-24T19:38:05Z</time>
      </trkpt>
      <trkpt lat="46.55676" lon="5.65859">
        <ele>493.6</ele>
        <time>2022-02-24T19:38:06Z</time>
      </trkpt>
      <trkpt lat="46.55681" lon="5.65872">
        <ele>493</ele>
        <time>2022-02-24T19:38:07Z</time>
      </trkpt>
      <trkpt lat="46.55683" lon="5.65884">
        <ele>492.4</ele>
        <time>2022-02-24T19:38:08Z</time>
      </trkpt>
      <trkpt lat="46.55684" lon="5.65897">
        <ele>491.8</ele>
        <time>2022-02-24T19:38:09Z</time>
      </trkpt>
      <trkpt lat="46.55684" lon="5.6591">
        <ele>491.2</ele>
        <time>2022-02-24T19:38:10Z</time>
      </trkpt>
      <trkpt lat="46.55683" lon="5.65923">
        <ele>490.6</ele>
        <time>2022-02-24T19:38:11Z</time>
      </trkpt>
      <trkpt lat="46.5568" lon="5.65937">
        <ele>490</ele>
        <time>2022-02-24T19:38:12Z</time>
      </trkpt>
      <trkpt lat="46.55676" lon="5.65949">
        <ele>489.6</ele>
        <time>2022-02-24T19:38:13Z</time>
      </trkpt>
      <trkpt lat="46.55672" lon="5.65959">
        <ele>489</ele>
        <time>2022-02-24T19:38:14Z</time>
      </trkpt>
      <trkpt lat="46.55668" lon="5.6597">
        <ele>488.4</ele>
        <time>2022-02-24T19:38:15Z</time>
      </trkpt>
      <trkpt lat="46.55664" lon="5.6598">
        <ele>487.8</ele>
        <time>2022-02-24T19:38:16Z</time>
      </trkpt>
      <trkpt lat="46.5566" lon="5.6599">
        <ele>487.4</ele>
        <time>2022-02-24T19:38:17Z</time>
      </trkpt>
      <trkpt lat="46.55656" lon="5.66">
        <ele>486.8</ele>
        <time>2022-02-24T19:38:18Z</time>
      </trkpt>
      <trkpt lat="46.55653" lon="5.66011">
        <ele>486.2</ele>
        <time>2022-02-24T19:38:19Z</time>
      </trkpt>
      <trkpt lat="46.5565" lon="5.66022">
        <ele>485.8</ele>
        <time>2022-02-24T19:38:20Z</time>
      </trkpt>
      <trkpt lat="46.55648" lon="5.66034">
        <ele>485.2</ele>
        <time>2022-02-24T19:38:21Z</time>
      </trkpt>
      <trkpt lat="46.55647" lon="5.66047">
        <ele>484.8</ele>
        <time>2022-02-24T19:38:22Z</time>
      </trkpt>
      <trkpt lat="46.55646" lon="5.66059">
        <ele>484.2</ele>
        <time>2022-02-24T19:38:23Z</time>
      </trkpt>
      <trkpt lat="46.55647" lon="5.66072">
        <ele>483.8</ele>
        <time>2022-02-24T19:38:24Z</time>
      </trkpt>
      <trkpt lat="46.55649" lon="5.66085">
        <ele>483.4</ele>
        <time>2022-02-24T19:38:25Z</time>
      </trkpt>
      <trkpt lat="46.55652" lon="5.66098">
        <ele>483</ele>
        <time>2022-02-24T19:38:26Z</time>
      </trkpt>
      <trkpt lat="46.55655" lon="5.66109">
        <ele>482.8</ele>
        <time>2022-02-24T19:38:27Z</time>
      </trkpt>
      <trkpt lat="46.5566" lon="5.66119">
        <ele>482.4</ele>
        <time>2022-02-24T19:38:28Z</time>
      </trkpt>
      <trkpt lat="46.55665" lon="5.66128">
        <ele>482.2</ele>
        <time>2022-02-24T19:38:29Z</time>
      </trkpt>
      <trkpt lat="46.55671" lon="5.66136">
        <ele>482</ele>
        <time>2022-02-24T19:38:30Z</time>
      </trkpt>
      <trkpt lat="46.55678" lon="5.66143">
        <ele>481.8</ele>
        <time>2022-02-24T19:38:31Z</time>
      </trkpt>
      <trkpt lat="46.55684" lon="5.6615">
        <ele>481.6</ele>
        <time>2022-02-24T19:38:32Z</time>
      </trkpt>
      <trkpt lat="46.55691" lon="5.66157">
        <ele>481.6</ele>
        <time>2022-02-24T19:38:33Z</time>
      </trkpt>
      <trkpt lat="46.55698" lon="5.66164">
        <ele>481.2</ele>
        <time>2022-02-24T19:38:34Z</time>
      </trkpt>
      <trkpt lat="46.55704" lon="5.66171">
        <ele>481</ele>
        <time>2022-02-24T19:38:35Z</time>
      </trkpt>
      <trkpt lat="46.55711" lon="5.66178">
        <ele>480.6</ele>
        <time>2022-02-24T19:38:36Z</time>
      </trkpt>
      <trkpt lat="46.55719" lon="5.66186">
        <ele>480.4</ele>
        <time>2022-02-24T19:38:37Z</time>
      </trkpt>
      <trkpt lat="46.55726" lon="5.66193">
        <ele>480.2</ele>
        <time>2022-02-24T19:38:38Z</time>
      </trkpt>
      <trkpt lat="46.55734" lon="5.662">
        <ele>479.8</ele>
        <time>2022-02-24T19:38:39Z</time>
      </trkpt>
      <trkpt lat="46.55742" lon="5.66207">
        <ele>479.4</ele>
        <time>2022-02-24T19:38:40Z</time>
      </trkpt>
      <trkpt lat="46.55751" lon="5.66215">
        <ele>479</ele>
        <time>2022-02-24T19:38:41Z</time>
      </trkpt>
      <trkpt lat="46.5576" lon="5.66221">
        <ele>478.6</ele>
        <time>2022-02-24T19:38:42Z</time>
      </trkpt>
      <trkpt lat="46.55766" lon="5.6623">
        <ele>478.4</ele>
        <time>2022-02-24T19:38:43Z</time>
      </trkpt>
      <trkpt lat="46.55774" lon="5.66238">
        <ele>477.8</ele>
        <time>2022-02-24T19:38:44Z</time>
      </trkpt>
      <trkpt lat="46.55781" lon="5.66246">
        <ele>477.6</ele>
        <time>2022-02-24T19:38:45Z</time>
      </trkpt>
      <trkpt lat="46.55789" lon="5.66254">
        <ele>477.2</ele>
        <time>2022-02-24T19:38:46Z</time>
      </trkpt>
      <trkpt lat="46.55796" lon="5.66263">
        <ele>476.8</ele>
        <time>2022-02-24T19:38:47Z</time>
      </trkpt>
      <trkpt lat="46.55804" lon="5.66272">
        <ele>476.6</ele>
        <time>2022-02-24T19:38:48Z</time>
      </trkpt>
      <trkpt lat="46.55811" lon="5.6628">
        <ele>476.4</ele>
        <time>2022-02-24T19:38:49Z</time>
      </trkpt>
      <trkpt lat="46.55819" lon="5.66288">
        <ele>476.4</ele>
        <time>2022-02-24T19:38:50Z</time>
      </trkpt>
      <trkpt lat="46.55827" lon="5.66294">
        <ele>476</ele>
        <time>2022-02-24T19:38:51Z</time>
      </trkpt>
      <trkpt lat="46.55834" lon="5.66301">
        <ele>476</ele>
        <time>2022-02-24T19:38:52Z</time>
      </trkpt>
      <trkpt lat="46.5584" lon="5.66308">
        <ele>476</ele>
        <time>2022-02-24T19:38:53Z</time>
      </trkpt>
      <trkpt lat="46.55847" lon="5.66315">
        <ele>476</ele>
        <time>2022-02-24T19:38:54Z</time>
      </trkpt>
      <trkpt lat="46.55854" lon="5.66322">
        <ele>476</ele>
        <time>2022-02-24T19:38:55Z</time>
      </trkpt>
      <trkpt lat="46.55861" lon="5.66328">
        <ele>476</ele>
        <time>2022-02-24T19:38:56Z</time>
      </trkpt>
      <trkpt lat="46.55868" lon="5.66334">
        <ele>476</ele>
        <time>2022-02-24T19:38:57Z</time>
      </trkpt>
      <trkpt lat="46.55874" lon="5.66341">
        <ele>476</ele>
        <time>2022-02-24T19:38:58Z</time>
      </trkpt>
      <trkpt lat="46.5588" lon="5.66347">
        <ele>476</ele>
        <time>2022-02-24T19:38:59Z</time>
      </trkpt>
      <trkpt lat="46.55886" lon="5.66353">
        <ele>476</ele>
        <time>2022-02-24T19:39:00Z</time>
      </trkpt>
      <trkpt lat="46.55892" lon="5.66359">
        <ele>476</ele>
        <time>2022-02-24T19:39:01Z</time>
      </trkpt>
      <trkpt lat="46.55897" lon="5.66365">
        <ele>476</ele>
        <time>2022-02-24T19:39:02Z</time>
      </trkpt>
      <trkpt lat="46.55903" lon="5.66371">
        <ele>475.8</ele>
        <time>2022-02-24T19:39:03Z</time>
      </trkpt>
      <trkpt lat="46.55909" lon="5.66377">
        <ele>475.8</ele>
        <time>2022-02-24T19:39:04Z</time>
      </trkpt>
      <trkpt lat="46.55914" lon="5.66383">
        <ele>475.8</ele>
        <time>2022-02-24T19:39:05Z</time>
      </trkpt>
      <trkpt lat="46.5592" lon="5.6639">
        <ele>475.8</ele>
        <time>2022-02-24T19:39:06Z</time>
      </trkpt>
      <trkpt lat="46.55926" lon="5.66396">
        <ele>475.8</ele>
        <time>2022-02-24T19:39:07Z</time>
      </trkpt>
      <trkpt lat="46.55931" lon="5.66403">
        <ele>475.8</ele>
        <time>2022-02-24T19:39:08Z</time>
      </trkpt>
      <trkpt lat="46.55936" lon="5.66411">
        <ele>475.6</ele>
        <time>2022-02-24T19:39:09Z</time>
      </trkpt>
      <trkpt lat="46.5594" lon="5.66419">
        <ele>475.6</ele>
        <time>2022-02-24T19:39:10Z</time>
      </trkpt>
      <trkpt lat="46.55945" lon="5.66426">
        <ele>475.6</ele>
        <time>2022-02-24T19:39:11Z</time>
      </trkpt>
      <trkpt lat="46.55948" lon="5.66435">
        <ele>476</ele>
        <time>2022-02-24T19:39:12Z</time>
      </trkpt>
      <trkpt lat="46.55951" lon="5.66443">
        <ele>476</ele>
        <time>2022-02-24T19:39:13Z</time>
      </trkpt>
      <trkpt lat="46.55954" lon="5.66451">
        <ele>476</ele>
        <time>2022-02-24T19:39:14Z</time>
      </trkpt>
      <trkpt lat="46.55957" lon="5.66459">
        <ele>476.2</ele>
        <time>2022-02-24T19:39:15Z</time>
      </trkpt>
      <trkpt lat="46.55959" lon="5.66467">
        <ele>476.2</ele>
        <time>2022-02-24T19:39:16Z</time>
      </trkpt>
      <trkpt lat="46.55962" lon="5.66475">
        <ele>476.2</ele>
        <time>2022-02-24T19:39:17Z</time>
      </trkpt>
      <trkpt lat="46.55964" lon="5.66483">
        <ele>476.2</ele>
        <time>2022-02-24T19:39:18Z</time>
      </trkpt>
      <trkpt lat="46.55967" lon="5.66491">
        <ele>476.2</ele>
        <time>2022-02-24T19:39:19Z</time>
      </trkpt>
      <trkpt lat="46.55971" lon="5.66499">
        <ele>476.4</ele>
        <time>2022-02-24T19:39:20Z</time>
      </trkpt>
      <trkpt lat="46.55974" lon="5.66507">
        <ele>476.4</ele>
        <time>2022-02-24T19:39:21Z</time>
      </trkpt>
      <trkpt lat="46.55977" lon="5.66514">
        <ele>476.4</ele>
        <time>2022-02-24T19:39:22Z</time>
      </trkpt>
      <trkpt lat="46.5598" lon="5.66522">
        <ele>476.6</ele>
        <time>2022-02-24T19:39:23Z</time>
      </trkpt>
      <trkpt lat="46.55984" lon="5.6653">
        <ele>476.6</ele>
        <time>2022-02-24T19:39:24Z</time>
      </trkpt>
      <trkpt lat="46.55987" lon="5.66538">
        <ele>476.6</ele>
        <time>2022-02-24T19:39:25Z</time>
      </trkpt>
      <trkpt lat="46.55991" lon="5.66546">
        <ele>476.6</ele>
        <time>2022-02-24T19:39:26Z</time>
      </trkpt>
      <trkpt lat="46.55995" lon="5.66554">
        <ele>476.6</ele>
        <time>2022-02-24T19:39:27Z</time>
      </trkpt>
      <trkpt lat="46.55999" lon="5.66562">
        <ele>476.6</ele>
        <time>2022-02-24T19:39:28Z</time>
      </trkpt>
      <trkpt lat="46.56003" lon="5.6657">
        <ele>476.6</ele>
        <time>2022-02-24T19:39:29Z</time>
      </trkpt>
      <trkpt lat="46.56007" lon="5.66578">
        <ele>476.6</ele>
        <time>2022-02-24T19:39:30Z</time>
      </trkpt>
      <trkpt lat="46.56012" lon="5.66587">
        <ele>476.4</ele>
        <time>2022-02-24T19:39:31Z</time>
      </trkpt>
      <trkpt lat="46.56016" lon="5.66595">
        <ele>476.4</ele>
        <time>2022-02-24T19:39:32Z</time>
      </trkpt>
      <trkpt lat="46.5602" lon="5.66604">
        <ele>476.4</ele>
        <time>2022-02-24T19:39:33Z</time>
      </trkpt>
      <trkpt lat="46.56024" lon="5.66613">
        <ele>476</ele>
        <time>2022-02-24T19:39:34Z</time>
      </trkpt>
      <trkpt lat="46.56028" lon="5.66622">
        <ele>476</ele>
        <time>2022-02-24T19:39:35Z</time>
      </trkpt>
      <trkpt lat="46.56032" lon="5.66631">
        <ele>476</ele>
        <time>2022-02-24T19:39:36Z</time>
      </trkpt>
      <trkpt lat="46.56036" lon="5.6664">
        <ele>476</ele>
        <time>2022-02-24T19:39:37Z</time>
      </trkpt>
      <trkpt lat="46.5604" lon="5.66649">
        <ele>475.8</ele>
        <time>2022-02-24T19:39:38Z</time>
      </trkpt>
      <trkpt lat="46.56044" lon="5.66658">
        <ele>475.8</ele>
        <time>2022-02-24T19:39:39Z</time>
      </trkpt>
      <trkpt lat="46.56048" lon="5.66667">
        <ele>475.8</ele>
        <time>2022-02-24T19:39:40Z</time>
      </trkpt>
      <trkpt lat="46.56052" lon="5.66676">
        <ele>475.8</ele>
        <time>2022-02-24T19:39:41Z</time>
      </trkpt>
      <trkpt lat="46.56056" lon="5.66684">
        <ele>475.4</ele>
        <time>2022-02-24T19:39:42Z</time>
      </trkpt>
      <trkpt lat="46.56061" lon="5.66693">
        <ele>475.4</ele>
        <time>2022-02-24T19:39:43Z</time>
      </trkpt>
      <trkpt lat="46.56065" lon="5.66702">
        <ele>475.4</ele>
        <time>2022-02-24T19:39:44Z</time>
      </trkpt>
      <trkpt lat="46.5607" lon="5.6671">
        <ele>475.4</ele>
        <time>2022-02-24T19:39:45Z</time>
      </trkpt>
      <trkpt lat="46.56076" lon="5.66717">
        <ele>475.4</ele>
        <time>2022-02-24T19:39:46Z</time>
      </trkpt>
      <trkpt lat="46.56081" lon="5.66724">
        <ele>475.4</ele>
        <time>2022-02-24T19:39:47Z</time>
      </trkpt>
      <trkpt lat="46.56087" lon="5.66731">
        <ele>475.4</ele>
        <time>2022-02-24T19:39:48Z</time>
      </trkpt>
      <trkpt lat="46.56093" lon="5.66736">
        <ele>475.4</ele>
        <time>2022-02-24T19:39:49Z</time>
      </trkpt>
      <trkpt lat="46.56099" lon="5.66742">
        <ele>475.4</ele>
        <time>2022-02-24T19:39:50Z</time>
      </trkpt>
      <trkpt lat="46.56105" lon="5.66747">
        <ele>475.4</ele>
        <time>2022-02-24T19:39:51Z</time>
      </trkpt>
      <trkpt lat="46.56111" lon="5.66752">
        <ele>475.4</ele>
        <time>2022-02-24T19:39:52Z</time>
      </trkpt>
      <trkpt lat="46.56117" lon="5.66756">
        <ele>475.4</ele>
        <time>2022-02-24T19:39:53Z</time>
      </trkpt>
      <trkpt lat="46.56123" lon="5.66761">
        <ele>475.4</ele>
        <time>2022-02-24T19:39:54Z</time>
      </trkpt>
      <trkpt lat="46.56129" lon="5.66765">
        <ele>475.4</ele>
        <time>2022-02-24T19:39:55Z</time>
      </trkpt>
      <trkpt lat="46.56136" lon="5.66769">
        <ele>475.2</ele>
        <time>2022-02-24T19:39:56Z</time>
      </trkpt>
      <trkpt lat="46.56142" lon="5.66774">
        <ele>475.2</ele>
        <time>2022-02-24T19:39:57Z</time>
      </trkpt>
      <trkpt lat="46.56149" lon="5.66778">
        <ele>475.2</ele>
        <time>2022-02-24T19:39:58Z</time>
      </trkpt>
      <trkpt lat="46.56156" lon="5.66782">
        <ele>475</ele>
        <time>2022-02-24T19:39:59Z</time>
      </trkpt>
      <trkpt lat="46.56162" lon="5.66786">
        <ele>475</ele>
        <time>2022-02-24T19:40:00Z</time>
      </trkpt>
      <trkpt lat="46.56169" lon="5.6679">
        <ele>474.8</ele>
        <time>2022-02-24T19:40:01Z</time>
      </trkpt>
      <trkpt lat="46.56177" lon="5.66793">
        <ele>474.8</ele>
        <time>2022-02-24T19:40:02Z</time>
      </trkpt>
      <trkpt lat="46.56184" lon="5.66797">
        <ele>474.8</ele>
        <time>2022-02-24T19:40:03Z</time>
      </trkpt>
      <trkpt lat="46.56191" lon="5.668">
        <ele>474.4</ele>
        <time>2022-02-24T19:40:04Z</time>
      </trkpt>
      <trkpt lat="46.56198" lon="5.66804">
        <ele>474.4</ele>
        <time>2022-02-24T19:40:05Z</time>
      </trkpt>
      <trkpt lat="46.56205" lon="5.66807">
        <ele>474</ele>
        <time>2022-02-24T19:40:06Z</time>
      </trkpt>
      <trkpt lat="46.56213" lon="5.66811">
        <ele>474</ele>
        <time>2022-02-24T19:40:07Z</time>
      </trkpt>
      <trkpt lat="46.5622" lon="5.66815">
        <ele>473.8</ele>
        <time>2022-02-24T19:40:08Z</time>
      </trkpt>
      <trkpt lat="46.56227" lon="5.66819">
        <ele>473.4</ele>
        <time>2022-02-24T19:40:09Z</time>
      </trkpt>
      <trkpt lat="46.56235" lon="5.66823">
        <ele>473.2</ele>
        <time>2022-02-24T19:40:10Z</time>
      </trkpt>
      <trkpt lat="46.56243" lon="5.66827">
        <ele>473</ele>
        <time>2022-02-24T19:40:11Z</time>
      </trkpt>
      <trkpt lat="46.5625" lon="5.66832">
        <ele>472.6</ele>
        <time>2022-02-24T19:40:12Z</time>
      </trkpt>
      <trkpt lat="46.56258" lon="5.66836">
        <ele>472.4</ele>
        <time>2022-02-24T19:40:13Z</time>
      </trkpt>
      <trkpt lat="46.56266" lon="5.66841">
        <ele>472</ele>
        <time>2022-02-24T19:40:14Z</time>
      </trkpt>
      <trkpt lat="46.56274" lon="5.66846">
        <ele>471.8</ele>
        <time>2022-02-24T19:40:15Z</time>
      </trkpt>
      <trkpt lat="46.56281" lon="5.66851">
        <ele>471.8</ele>
        <time>2022-02-24T19:40:16Z</time>
      </trkpt>
      <trkpt lat="46.56288" lon="5.66857">
        <ele>471.4</ele>
        <time>2022-02-24T19:40:17Z</time>
      </trkpt>
      <trkpt lat="46.56295" lon="5.66863">
        <ele>471.4</ele>
        <time>2022-02-24T19:40:18Z</time>
      </trkpt>
      <trkpt lat="46.56302" lon="5.66869">
        <ele>471</ele>
        <time>2022-02-24T19:40:19Z</time>
      </trkpt>
      <trkpt lat="46.56309" lon="5.66876">
        <ele>470.8</ele>
        <time>2022-02-24T19:40:20Z</time>
      </trkpt>
      <trkpt lat="46.56315" lon="5.66883">
        <ele>470.8</ele>
        <time>2022-02-24T19:40:21Z</time>
      </trkpt>
      <trkpt lat="46.56321" lon="5.6689">
        <ele>470.6</ele>
        <time>2022-02-24T19:40:22Z</time>
      </trkpt>
      <trkpt lat="46.56327" lon="5.66897">
        <ele>470.6</ele>
        <time>2022-02-24T19:40:23Z</time>
      </trkpt>
      <trkpt lat="46.56333" lon="5.66904">
        <ele>470.6</ele>
        <time>2022-02-24T19:40:24Z</time>
      </trkpt>
      <trkpt lat="46.56339" lon="5.66911">
        <ele>470.6</ele>
        <time>2022-02-24T19:40:25Z</time>
      </trkpt>
      <trkpt lat="46.56345" lon="5.66919">
        <ele>470.4</ele>
        <time>2022-02-24T19:40:26Z</time>
      </trkpt>
      <trkpt lat="46.5635" lon="5.66926">
        <ele>470.4</ele>
        <time>2022-02-24T19:40:27Z</time>
      </trkpt>
      <trkpt lat="46.56356" lon="5.66934">
        <ele>470.4</ele>
        <time>2022-02-24T19:40:28Z</time>
      </trkpt>
      <trkpt lat="46.56362" lon="5.66942">
        <ele>470.2</ele>
        <time>2022-02-24T19:40:29Z</time>
      </trkpt>
      <trkpt lat="46.56367" lon="5.66949">
        <ele>470.2</ele>
        <time>2022-02-24T19:40:30Z</time>
      </trkpt>
      <trkpt lat="46.56373" lon="5.66957">
        <ele>470.2</ele>
        <time>2022-02-24T19:40:31Z</time>
      </trkpt>
      <trkpt lat="46.56379" lon="5.66965">
        <ele>470.2</ele>
        <time>2022-02-24T19:40:32Z</time>
      </trkpt>
      <trkpt lat="46.56384" lon="5.66973">
        <ele>469.8</ele>
        <time>2022-02-24T19:40:33Z</time>
      </trkpt>
      <trkpt lat="46.5639" lon="5.6698">
        <ele>469.8</ele>
        <time>2022-02-24T19:40:34Z</time>
      </trkpt>
      <trkpt lat="46.56395" lon="5.66988">
        <ele>469.8</ele>
        <time>2022-02-24T19:40:35Z</time>
      </trkpt>
      <trkpt lat="46.56401" lon="5.66995">
        <ele>469.8</ele>
        <time>2022-02-24T19:40:36Z</time>
      </trkpt>
      <trkpt lat="46.56406" lon="5.67003">
        <ele>469.6</ele>
        <time>2022-02-24T19:40:37Z</time>
      </trkpt>
      <trkpt lat="46.56412" lon="5.67011">
        <ele>469.6</ele>
        <time>2022-02-24T19:40:38Z</time>
      </trkpt>
      <trkpt lat="46.56417" lon="5.67019">
        <ele>469.6</ele>
        <time>2022-02-24T19:40:39Z</time>
      </trkpt>
      <trkpt lat="46.56422" lon="5.67026">
        <ele>469.6</ele>
        <time>2022-02-24T19:40:40Z</time>
      </trkpt>
      <trkpt lat="46.56428" lon="5.67034">
        <ele>469.6</ele>
        <time>2022-02-24T19:40:41Z</time>
      </trkpt>
      <trkpt lat="46.56433" lon="5.67041">
        <ele>469.6</ele>
        <time>2022-02-24T19:40:42Z</time>
      </trkpt>
      <trkpt lat="46.56439" lon="5.67048">
        <ele>469.6</ele>
        <time>2022-02-24T19:40:43Z</time>
      </trkpt>
      <trkpt lat="46.56444" lon="5.67056">
        <ele>469.6</ele>
        <time>2022-02-24T19:40:44Z</time>
      </trkpt>
      <trkpt lat="46.56449" lon="5.67063">
        <ele>469.6</ele>
        <time>2022-02-24T19:40:45Z</time>
      </trkpt>
      <trkpt lat="46.56455" lon="5.6707">
        <ele>469.6</ele>
        <time>2022-02-24T19:40:46Z</time>
      </trkpt>
      <trkpt lat="46.5646" lon="5.67078">
        <ele>469.6</ele>
        <time>2022-02-24T19:40:47Z</time>
      </trkpt>
      <trkpt lat="46.56465" lon="5.67086">
        <ele>469.6</ele>
        <time>2022-02-24T19:40:48Z</time>
      </trkpt>
      <trkpt lat="46.5647" lon="5.67093">
        <ele>469.4</ele>
        <time>2022-02-24T19:40:49Z</time>
      </trkpt>
      <trkpt lat="46.56476" lon="5.671">
        <ele>469.4</ele>
        <time>2022-02-24T19:40:50Z</time>
      </trkpt>
      <trkpt lat="46.56481" lon="5.67108">
        <ele>469.4</ele>
        <time>2022-02-24T19:40:51Z</time>
      </trkpt>
      <trkpt lat="46.56481" lon="5.67108">
        <ele>469.4</ele>
        <time>2022-02-24T19:40:52Z</time>
      </trkpt>
      <trkpt lat="46.56486" lon="5.67115">
        <ele>469.4</ele>
        <time>2022-02-24T19:40:53Z</time>
      </trkpt>
      <trkpt lat="46.56491" lon="5.67122">
        <ele>469.4</ele>
        <time>2022-02-24T19:40:54Z</time>
      </trkpt>
      <trkpt lat="46.56497" lon="5.6713">
        <ele>469.4</ele>
        <time>2022-02-24T19:40:55Z</time>
      </trkpt>
      <trkpt lat="46.56502" lon="5.67137">
        <ele>469.4</ele>
        <time>2022-02-24T19:40:56Z</time>
      </trkpt>
      <trkpt lat="46.56507" lon="5.67144">
        <ele>469.4</ele>
        <time>2022-02-24T19:40:57Z</time>
      </trkpt>
      <trkpt lat="46.56512" lon="5.67152">
        <ele>469.4</ele>
        <time>2022-02-24T19:40:58Z</time>
      </trkpt>
      <trkpt lat="46.56518" lon="5.67159">
        <ele>469.4</ele>
        <time>2022-02-24T19:40:59Z</time>
      </trkpt>
      <trkpt lat="46.56523" lon="5.67166">
        <ele>469.6</ele>
        <time>2022-02-24T19:41:00Z</time>
      </trkpt>
      <trkpt lat="46.56528" lon="5.67173">
        <ele>469.6</ele>
        <time>2022-02-24T19:41:01Z</time>
      </trkpt>
      <trkpt lat="46.56533" lon="5.6718">
        <ele>469.6</ele>
        <time>2022-02-24T19:41:02Z</time>
      </trkpt>
      <trkpt lat="46.56538" lon="5.67187">
        <ele>469.6</ele>
        <time>2022-02-24T19:41:03Z</time>
      </trkpt>
      <trkpt lat="46.56543" lon="5.67194">
        <ele>469.6</ele>
        <time>2022-02-24T19:41:04Z</time>
      </trkpt>
      <trkpt lat="46.56548" lon="5.67201">
        <ele>469.6</ele>
        <time>2022-02-24T19:41:05Z</time>
      </trkpt>
      <trkpt lat="46.56553" lon="5.67208">
        <ele>469.8</ele>
        <time>2022-02-24T19:41:06Z</time>
      </trkpt>
      <trkpt lat="46.56557" lon="5.67215">
        <ele>469.8</ele>
        <time>2022-02-24T19:41:07Z</time>
      </trkpt>
      <trkpt lat="46.56562" lon="5.67221">
        <ele>469.8</ele>
        <time>2022-02-24T19:41:08Z</time>
      </trkpt>
      <trkpt lat="46.56567" lon="5.67228">
        <ele>469.8</ele>
        <time>2022-02-24T19:41:09Z</time>
      </trkpt>
      <trkpt lat="46.56572" lon="5.67235">
        <ele>470</ele>
        <time>2022-02-24T19:41:10Z</time>
      </trkpt>
      <trkpt lat="46.56577" lon="5.67241">
        <ele>470</ele>
        <time>2022-02-24T19:41:11Z</time>
      </trkpt>
      <trkpt lat="46.56582" lon="5.67248">
        <ele>470</ele>
        <time>2022-02-24T19:41:12Z</time>
      </trkpt>
      <trkpt lat="46.56587" lon="5.67254">
        <ele>470.2</ele>
        <time>2022-02-24T19:41:13Z</time>
      </trkpt>
      <trkpt lat="46.56592" lon="5.6726">
        <ele>470.2</ele>
        <time>2022-02-24T19:41:14Z</time>
      </trkpt>
      <trkpt lat="46.56597" lon="5.67265">
        <ele>470.2</ele>
        <time>2022-02-24T19:41:15Z</time>
      </trkpt>
      <trkpt lat="46.56602" lon="5.67271">
        <ele>470.2</ele>
        <time>2022-02-24T19:41:16Z</time>
      </trkpt>
      <trkpt lat="46.56608" lon="5.67277">
        <ele>470.2</ele>
        <time>2022-02-24T19:41:17Z</time>
      </trkpt>
      <trkpt lat="46.56614" lon="5.67283">
        <ele>470.2</ele>
        <time>2022-02-24T19:41:18Z</time>
      </trkpt>
      <trkpt lat="46.5662" lon="5.67289">
        <ele>469.8</ele>
        <time>2022-02-24T19:41:19Z</time>
      </trkpt>
      <trkpt lat="46.56626" lon="5.67295">
        <ele>469.6</ele>
        <time>2022-02-24T19:41:20Z</time>
      </trkpt>
      <trkpt lat="46.56633" lon="5.67301">
        <ele>469.4</ele>
        <time>2022-02-24T19:41:21Z</time>
      </trkpt>
      <trkpt lat="46.56639" lon="5.67308">
        <ele>469.4</ele>
        <time>2022-02-24T19:41:22Z</time>
      </trkpt>
      <trkpt lat="46.56646" lon="5.67314">
        <ele>469.2</ele>
        <time>2022-02-24T19:41:23Z</time>
      </trkpt>
      <trkpt lat="46.56652" lon="5.67321">
        <ele>469.2</ele>
        <time>2022-02-24T19:41:24Z</time>
      </trkpt>
      <trkpt lat="46.56659" lon="5.67327">
        <ele>469</ele>
        <time>2022-02-24T19:41:25Z</time>
      </trkpt>
      <trkpt lat="46.56666" lon="5.67333">
        <ele>469</ele>
        <time>2022-02-24T19:41:26Z</time>
      </trkpt>
      <trkpt lat="46.56673" lon="5.67339">
        <ele>468.6</ele>
        <time>2022-02-24T19:41:27Z</time>
      </trkpt>
      <trkpt lat="46.56679" lon="5.67346">
        <ele>468.6</ele>
        <time>2022-02-24T19:41:28Z</time>
      </trkpt>
      <trkpt lat="46.56686" lon="5.67352">
        <ele>468.6</ele>
        <time>2022-02-24T19:41:29Z</time>
      </trkpt>
      <trkpt lat="46.56693" lon="5.67358">
        <ele>468.6</ele>
        <time>2022-02-24T19:41:30Z</time>
      </trkpt>
      <trkpt lat="46.56699" lon="5.67365">
        <ele>468.6</ele>
        <time>2022-02-24T19:41:31Z</time>
      </trkpt>
      <trkpt lat="46.56706" lon="5.67371">
        <ele>468.4</ele>
        <time>2022-02-24T19:41:32Z</time>
      </trkpt>
      <trkpt lat="46.56712" lon="5.67377">
        <ele>468.4</ele>
        <time>2022-02-24T19:41:33Z</time>
      </trkpt>
      <trkpt lat="46.56718" lon="5.67384">
        <ele>468.4</ele>
        <time>2022-02-24T19:41:34Z</time>
      </trkpt>
      <trkpt lat="46.56724" lon="5.67391">
        <ele>468.2</ele>
        <time>2022-02-24T19:41:35Z</time>
      </trkpt>
      <trkpt lat="46.5673" lon="5.67398">
        <ele>468.2</ele>
        <time>2022-02-24T19:41:36Z</time>
      </trkpt>
      <trkpt lat="46.56736" lon="5.67405">
        <ele>468.2</ele>
        <time>2022-02-24T19:41:37Z</time>
      </trkpt>
      <trkpt lat="46.56742" lon="5.67413">
        <ele>468.2</ele>
        <time>2022-02-24T19:41:38Z</time>
      </trkpt>
      <trkpt lat="46.56747" lon="5.6742">
        <ele>468.2</ele>
        <time>2022-02-24T19:41:39Z</time>
      </trkpt>
      <trkpt lat="46.56753" lon="5.67428">
        <ele>467.8</ele>
        <time>2022-02-24T19:41:40Z</time>
      </trkpt>
      <trkpt lat="46.56759" lon="5.67435">
        <ele>467.8</ele>
        <time>2022-02-24T19:41:41Z</time>
      </trkpt>
      <trkpt lat="46.56764" lon="5.67443">
        <ele>467.8</ele>
        <time>2022-02-24T19:41:42Z</time>
      </trkpt>
      <trkpt lat="46.5677" lon="5.6745">
        <ele>467.8</ele>
        <time>2022-02-24T19:41:43Z</time>
      </trkpt>
      <trkpt lat="46.56775" lon="5.67457">
        <ele>467.8</ele>
        <time>2022-02-24T19:41:44Z</time>
      </trkpt>
      <trkpt lat="46.5678" lon="5.67465">
        <ele>467.8</ele>
        <time>2022-02-24T19:41:45Z</time>
      </trkpt>
      <trkpt lat="46.56786" lon="5.67472">
        <ele>467.8</ele>
        <time>2022-02-24T19:41:46Z</time>
      </trkpt>
      <trkpt lat="46.56791" lon="5.67479">
        <ele>467.8</ele>
        <time>2022-02-24T19:41:47Z</time>
      </trkpt>
      <trkpt lat="46.56796" lon="5.67486">
        <ele>467.8</ele>
        <time>2022-02-24T19:41:48Z</time>
      </trkpt>
      <trkpt lat="46.56802" lon="5.67493">
        <ele>467.8</ele>
        <time>2022-02-24T19:41:49Z</time>
      </trkpt>
      <trkpt lat="46.56807" lon="5.675">
        <ele>468</ele>
        <time>2022-02-24T19:41:50Z</time>
      </trkpt>
      <trkpt lat="46.56812" lon="5.67507">
        <ele>468</ele>
        <time>2022-02-24T19:41:51Z</time>
      </trkpt>
      <trkpt lat="46.56817" lon="5.67514">
        <ele>468</ele>
        <time>2022-02-24T19:41:52Z</time>
      </trkpt>
      <trkpt lat="46.56822" lon="5.67521">
        <ele>468</ele>
        <time>2022-02-24T19:41:53Z</time>
      </trkpt>
      <trkpt lat="46.56828" lon="5.67528">
        <ele>468</ele>
        <time>2022-02-24T19:41:54Z</time>
      </trkpt>
      <trkpt lat="46.56833" lon="5.67536">
        <ele>468</ele>
        <time>2022-02-24T19:41:55Z</time>
      </trkpt>
      <trkpt lat="46.56839" lon="5.67544">
        <ele>468</ele>
        <time>2022-02-24T19:41:56Z</time>
      </trkpt>
      <trkpt lat="46.56844" lon="5.67551">
        <ele>468</ele>
        <time>2022-02-24T19:41:57Z</time>
      </trkpt>
      <trkpt lat="46.5685" lon="5.67559">
        <ele>467.8</ele>
        <time>2022-02-24T19:41:58Z</time>
      </trkpt>
      <trkpt lat="46.56855" lon="5.67567">
        <ele>467.8</ele>
        <time>2022-02-24T19:41:59Z</time>
      </trkpt>
      <trkpt lat="46.56861" lon="5.67575">
        <ele>467.8</ele>
        <time>2022-02-24T19:42:00Z</time>
      </trkpt>
      <trkpt lat="46.56867" lon="5.67583">
        <ele>467.6</ele>
        <time>2022-02-24T19:42:01Z</time>
      </trkpt>
      <trkpt lat="46.56872" lon="5.67591">
        <ele>467.6</ele>
        <time>2022-02-24T19:42:02Z</time>
      </trkpt>
      <trkpt lat="46.56878" lon="5.67599">
        <ele>467.6</ele>
        <time>2022-02-24T19:42:03Z</time>
      </trkpt>
      <trkpt lat="46.56884" lon="5.67607">
        <ele>467.4</ele>
        <time>2022-02-24T19:42:04Z</time>
      </trkpt>
      <trkpt lat="46.5689" lon="5.67615">
        <ele>467.4</ele>
        <time>2022-02-24T19:42:05Z</time>
      </trkpt>
      <trkpt lat="46.56896" lon="5.67623">
        <ele>467</ele>
        <time>2022-02-24T19:42:06Z</time>
      </trkpt>
      <trkpt lat="46.56902" lon="5.67631">
        <ele>467</ele>
        <time>2022-02-24T19:42:07Z</time>
      </trkpt>
      <trkpt lat="46.56908" lon="5.67639">
        <ele>466.8</ele>
        <time>2022-02-24T19:42:08Z</time>
      </trkpt>
      <trkpt lat="46.56914" lon="5.67648">
        <ele>466.8</ele>
        <time>2022-02-24T19:42:09Z</time>
      </trkpt>
      <trkpt lat="46.5692" lon="5.67656">
        <ele>466.6</ele>
        <time>2022-02-24T19:42:10Z</time>
      </trkpt>
      <trkpt lat="46.56926" lon="5.67664">
        <ele>466.6</ele>
        <time>2022-02-24T19:42:11Z</time>
      </trkpt>
      <trkpt lat="46.56932" lon="5.67672">
        <ele>466.2</ele>
        <time>2022-02-24T19:42:12Z</time>
      </trkpt>
      <trkpt lat="46.56938" lon="5.67681">
        <ele>466.2</ele>
        <time>2022-02-24T19:42:13Z</time>
      </trkpt>
      <trkpt lat="46.56944" lon="5.67689">
        <ele>466</ele>
        <time>2022-02-24T19:42:14Z</time>
      </trkpt>
      <trkpt lat="46.5695" lon="5.67697">
        <ele>466</ele>
        <time>2022-02-24T19:42:15Z</time>
      </trkpt>
      <trkpt lat="46.56956" lon="5.67706">
        <ele>465.6</ele>
        <time>2022-02-24T19:42:16Z</time>
      </trkpt>
      <trkpt lat="46.56962" lon="5.67714">
        <ele>465.6</ele>
        <time>2022-02-24T19:42:17Z</time>
      </trkpt>
      <trkpt lat="46.56968" lon="5.67722">
        <ele>465.6</ele>
        <time>2022-02-24T19:42:18Z</time>
      </trkpt>
      <trkpt lat="46.56974" lon="5.67731">
        <ele>465.4</ele>
        <time>2022-02-24T19:42:19Z</time>
      </trkpt>
      <trkpt lat="46.56981" lon="5.67739">
        <ele>465.4</ele>
        <time>2022-02-24T19:42:20Z</time>
      </trkpt>
      <trkpt lat="46.56987" lon="5.67747">
        <ele>465.2</ele>
        <time>2022-02-24T19:42:21Z</time>
      </trkpt>
      <trkpt lat="46.56993" lon="5.67755">
        <ele>465.2</ele>
        <time>2022-02-24T19:42:22Z</time>
      </trkpt>
      <trkpt lat="46.56999" lon="5.67763">
        <ele>465.2</ele>
        <time>2022-02-24T19:42:23Z</time>
      </trkpt>
      <trkpt lat="46.57005" lon="5.67772">
        <ele>464.8</ele>
        <time>2022-02-24T19:42:24Z</time>
      </trkpt>
      <trkpt lat="46.57011" lon="5.6778">
        <ele>464.8</ele>
        <time>2022-02-24T19:42:25Z</time>
      </trkpt>
      <trkpt lat="46.57017" lon="5.67788">
        <ele>464.8</ele>
        <time>2022-02-24T19:42:26Z</time>
      </trkpt>
      <trkpt lat="46.57023" lon="5.67796">
        <ele>464.8</ele>
        <time>2022-02-24T19:42:27Z</time>
      </trkpt>
      <trkpt lat="46.57029" lon="5.67804">
        <ele>464.6</ele>
        <time>2022-02-24T19:42:28Z</time>
      </trkpt>
      <trkpt lat="46.57035" lon="5.67813">
        <ele>464.6</ele>
        <time>2022-02-24T19:42:29Z</time>
      </trkpt>
      <trkpt lat="46.57041" lon="5.67821">
        <ele>464.6</ele>
        <time>2022-02-24T19:42:30Z</time>
      </trkpt>
      <trkpt lat="46.57047" lon="5.67829">
        <ele>464.6</ele>
        <time>2022-02-24T19:42:31Z</time>
      </trkpt>
      <trkpt lat="46.57053" lon="5.67838">
        <ele>464.4</ele>
        <time>2022-02-24T19:42:32Z</time>
      </trkpt>
      <trkpt lat="46.57059" lon="5.67846">
        <ele>464.4</ele>
        <time>2022-02-24T19:42:33Z</time>
      </trkpt>
      <trkpt lat="46.57065" lon="5.67854">
        <ele>464.4</ele>
        <time>2022-02-24T19:42:34Z</time>
      </trkpt>
      <trkpt lat="46.57071" lon="5.67862">
        <ele>464.4</ele>
        <time>2022-02-24T19:42:35Z</time>
      </trkpt>
      <trkpt lat="46.57077" lon="5.6787">
        <ele>464.4</ele>
        <time>2022-02-24T19:42:36Z</time>
      </trkpt>
      <trkpt lat="46.57083" lon="5.67878">
        <ele>464.4</ele>
        <time>2022-02-24T19:42:37Z</time>
      </trkpt>
      <trkpt lat="46.57089" lon="5.67886">
        <ele>464.4</ele>
        <time>2022-02-24T19:42:38Z</time>
      </trkpt>
      <trkpt lat="46.57095" lon="5.67894">
        <ele>464</ele>
        <time>2022-02-24T19:42:39Z</time>
      </trkpt>
      <trkpt lat="46.57101" lon="5.67903">
        <ele>464</ele>
        <time>2022-02-24T19:42:40Z</time>
      </trkpt>
      <trkpt lat="46.57107" lon="5.67911">
        <ele>464</ele>
        <time>2022-02-24T19:42:41Z</time>
      </trkpt>
      <trkpt lat="46.57113" lon="5.67919">
        <ele>464</ele>
        <time>2022-02-24T19:42:42Z</time>
      </trkpt>
      <trkpt lat="46.57119" lon="5.67927">
        <ele>463.8</ele>
        <time>2022-02-24T19:42:43Z</time>
      </trkpt>
      <trkpt lat="46.57125" lon="5.67935">
        <ele>463.8</ele>
        <time>2022-02-24T19:42:44Z</time>
      </trkpt>
      <trkpt lat="46.57131" lon="5.67943">
        <ele>463.6</ele>
        <time>2022-02-24T19:42:45Z</time>
      </trkpt>
      <trkpt lat="46.57137" lon="5.67951">
        <ele>463.6</ele>
        <time>2022-02-24T19:42:46Z</time>
      </trkpt>
      <trkpt lat="46.57143" lon="5.67959">
        <ele>463.6</ele>
        <time>2022-02-24T19:42:47Z</time>
      </trkpt>
      <trkpt lat="46.57149" lon="5.67967">
        <ele>463.6</ele>
        <time>2022-02-24T19:42:48Z</time>
      </trkpt>
      <trkpt lat="46.57154" lon="5.67975">
        <ele>463.6</ele>
        <time>2022-02-24T19:42:49Z</time>
      </trkpt>
      <trkpt lat="46.5716" lon="5.67983">
        <ele>463.6</ele>
        <time>2022-02-24T19:42:50Z</time>
      </trkpt>
      <trkpt lat="46.57166" lon="5.67991">
        <ele>463.6</ele>
        <time>2022-02-24T19:42:51Z</time>
      </trkpt>
      <trkpt lat="46.57172" lon="5.67999">
        <ele>463.6</ele>
        <time>2022-02-24T19:42:52Z</time>
      </trkpt>
      <trkpt lat="46.57177" lon="5.68006">
        <ele>463.6</ele>
        <time>2022-02-24T19:42:53Z</time>
      </trkpt>
      <trkpt lat="46.57183" lon="5.68014">
        <ele>463.6</ele>
        <time>2022-02-24T19:42:54Z</time>
      </trkpt>
      <trkpt lat="46.57188" lon="5.68022">
        <ele>463.6</ele>
        <time>2022-02-24T19:42:55Z</time>
      </trkpt>
      <trkpt lat="46.57194" lon="5.68029">
        <ele>463.6</ele>
        <time>2022-02-24T19:42:56Z</time>
      </trkpt>
      <trkpt lat="46.57199" lon="5.68036">
        <ele>463.6</ele>
        <time>2022-02-24T19:42:57Z</time>
      </trkpt>
      <trkpt lat="46.57204" lon="5.68043">
        <ele>464</ele>
        <time>2022-02-24T19:42:58Z</time>
      </trkpt>
      <trkpt lat="46.5721" lon="5.68051">
        <ele>464</ele>
        <time>2022-02-24T19:42:59Z</time>
      </trkpt>
      <trkpt lat="46.57215" lon="5.68058">
        <ele>464.2</ele>
        <time>2022-02-24T19:43:00Z</time>
      </trkpt>
      <trkpt lat="46.5722" lon="5.68065">
        <ele>464.2</ele>
        <time>2022-02-24T19:43:01Z</time>
      </trkpt>
      <trkpt lat="46.57226" lon="5.68072">
        <ele>464.2</ele>
        <time>2022-02-24T19:43:02Z</time>
      </trkpt>
      <trkpt lat="46.57231" lon="5.68079">
        <ele>464.4</ele>
        <time>2022-02-24T19:43:03Z</time>
      </trkpt>
      <trkpt lat="46.57236" lon="5.68086">
        <ele>464.4</ele>
        <time>2022-02-24T19:43:04Z</time>
      </trkpt>
      <trkpt lat="46.57241" lon="5.68093">
        <ele>464.6</ele>
        <time>2022-02-24T19:43:05Z</time>
      </trkpt>
      <trkpt lat="46.57246" lon="5.681">
        <ele>464.6</ele>
        <time>2022-02-24T19:43:06Z</time>
      </trkpt>
      <trkpt lat="46.57251" lon="5.68106">
        <ele>465</ele>
        <time>2022-02-24T19:43:07Z</time>
      </trkpt>
      <trkpt lat="46.57256" lon="5.68113">
        <ele>465</ele>
        <time>2022-02-24T19:43:08Z</time>
      </trkpt>
      <trkpt lat="46.5726" lon="5.68119">
        <ele>465.2</ele>
        <time>2022-02-24T19:43:09Z</time>
      </trkpt>
      <trkpt lat="46.57265" lon="5.68125">
        <ele>465.2</ele>
        <time>2022-02-24T19:43:10Z</time>
      </trkpt>
      <trkpt lat="46.5727" lon="5.68132">
        <ele>465.4</ele>
        <time>2022-02-24T19:43:11Z</time>
      </trkpt>
      <trkpt lat="46.57274" lon="5.68138">
        <ele>465.4</ele>
        <time>2022-02-24T19:43:12Z</time>
      </trkpt>
      <trkpt lat="46.57279" lon="5.68144">
        <ele>465.4</ele>
        <time>2022-02-24T19:43:13Z</time>
      </trkpt>
      <trkpt lat="46.57283" lon="5.6815">
        <ele>465.4</ele>
        <time>2022-02-24T19:43:14Z</time>
      </trkpt>
      <trkpt lat="46.57288" lon="5.68156">
        <ele>465.6</ele>
        <time>2022-02-24T19:43:15Z</time>
      </trkpt>
      <trkpt lat="46.57293" lon="5.68163">
        <ele>465.6</ele>
        <time>2022-02-24T19:43:16Z</time>
      </trkpt>
      <trkpt lat="46.57298" lon="5.68169">
        <ele>465.6</ele>
        <time>2022-02-24T19:43:17Z</time>
      </trkpt>
      <trkpt lat="46.57303" lon="5.68176">
        <ele>465.6</ele>
        <time>2022-02-24T19:43:18Z</time>
      </trkpt>
      <trkpt lat="46.57308" lon="5.68183">
        <ele>465.6</ele>
        <time>2022-02-24T19:43:19Z</time>
      </trkpt>
      <trkpt lat="46.57314" lon="5.6819">
        <ele>465.4</ele>
        <time>2022-02-24T19:43:20Z</time>
      </trkpt>
      <trkpt lat="46.57319" lon="5.68197">
        <ele>465</ele>
        <time>2022-02-24T19:43:21Z</time>
      </trkpt>
      <trkpt lat="46.57325" lon="5.68205">
        <ele>464.8</ele>
        <time>2022-02-24T19:43:22Z</time>
      </trkpt>
      <trkpt lat="46.57332" lon="5.68213">
        <ele>464.6</ele>
        <time>2022-02-24T19:43:23Z</time>
      </trkpt>
      <trkpt lat="46.57338" lon="5.68221">
        <ele>464.2</ele>
        <time>2022-02-24T19:43:24Z</time>
      </trkpt>
      <trkpt lat="46.57345" lon="5.68229">
        <ele>463.8</ele>
        <time>2022-02-24T19:43:25Z</time>
      </trkpt>
      <trkpt lat="46.57352" lon="5.68238">
        <ele>463.4</ele>
        <time>2022-02-24T19:43:26Z</time>
      </trkpt>
      <trkpt lat="46.57359" lon="5.68246">
        <ele>463</ele>
        <time>2022-02-24T19:43:27Z</time>
      </trkpt>
      <trkpt lat="46.57366" lon="5.68256">
        <ele>462.6</ele>
        <time>2022-02-24T19:43:28Z</time>
      </trkpt>
      <trkpt lat="46.57374" lon="5.68264">
        <ele>462.2</ele>
        <time>2022-02-24T19:43:29Z</time>
      </trkpt>
      <trkpt lat="46.57381" lon="5.68272">
        <ele>461.8</ele>
        <time>2022-02-24T19:43:30Z</time>
      </trkpt>
      <trkpt lat="46.57388" lon="5.68281">
        <ele>461.4</ele>
        <time>2022-02-24T19:43:31Z</time>
      </trkpt>
      <trkpt lat="46.57395" lon="5.6829">
        <ele>461</ele>
        <time>2022-02-24T19:43:32Z</time>
      </trkpt>
      <trkpt lat="46.57401" lon="5.68299">
        <ele>460.8</ele>
        <time>2022-02-24T19:43:33Z</time>
      </trkpt>
      <trkpt lat="46.57408" lon="5.68308">
        <ele>460.6</ele>
        <time>2022-02-24T19:43:34Z</time>
      </trkpt>
      <trkpt lat="46.57415" lon="5.68318">
        <ele>460.2</ele>
        <time>2022-02-24T19:43:35Z</time>
      </trkpt>
      <trkpt lat="46.57422" lon="5.68327">
        <ele>459.8</ele>
        <time>2022-02-24T19:43:36Z</time>
      </trkpt>
      <trkpt lat="46.57429" lon="5.68337">
        <ele>459.6</ele>
        <time>2022-02-24T19:43:37Z</time>
      </trkpt>
      <trkpt lat="46.57437" lon="5.68345">
        <ele>459.4</ele>
        <time>2022-02-24T19:43:38Z</time>
      </trkpt>
      <trkpt lat="46.57444" lon="5.68353">
        <ele>459</ele>
        <time>2022-02-24T19:43:39Z</time>
      </trkpt>
      <trkpt lat="46.57451" lon="5.68363">
        <ele>458.8</ele>
        <time>2022-02-24T19:43:40Z</time>
      </trkpt>
      <trkpt lat="46.57458" lon="5.68371">
        <ele>458.4</ele>
        <time>2022-02-24T19:43:41Z</time>
      </trkpt>
      <trkpt lat="46.57465" lon="5.6838">
        <ele>458.2</ele>
        <time>2022-02-24T19:43:42Z</time>
      </trkpt>
      <trkpt lat="46.57472" lon="5.68389">
        <ele>458</ele>
        <time>2022-02-24T19:43:43Z</time>
      </trkpt>
      <trkpt lat="46.57479" lon="5.68397">
        <ele>457.6</ele>
        <time>2022-02-24T19:43:44Z</time>
      </trkpt>
      <trkpt lat="46.57486" lon="5.68407">
        <ele>457.4</ele>
        <time>2022-02-24T19:43:45Z</time>
      </trkpt>
      <trkpt lat="46.57493" lon="5.68416">
        <ele>457.2</ele>
        <time>2022-02-24T19:43:46Z</time>
      </trkpt>
      <trkpt lat="46.575" lon="5.68425">
        <ele>457</ele>
        <time>2022-02-24T19:43:47Z</time>
      </trkpt>
      <trkpt lat="46.57507" lon="5.68433">
        <ele>456.6</ele>
        <time>2022-02-24T19:43:48Z</time>
      </trkpt>
      <trkpt lat="46.57515" lon="5.68442">
        <ele>456.4</ele>
        <time>2022-02-24T19:43:49Z</time>
      </trkpt>
      <trkpt lat="46.57523" lon="5.68452">
        <ele>456</ele>
        <time>2022-02-24T19:43:50Z</time>
      </trkpt>
      <trkpt lat="46.57529" lon="5.68461">
        <ele>455.6</ele>
        <time>2022-02-24T19:43:51Z</time>
      </trkpt>
      <trkpt lat="46.57536" lon="5.6847">
        <ele>455.2</ele>
        <time>2022-02-24T19:43:52Z</time>
      </trkpt>
      <trkpt lat="46.57543" lon="5.68479">
        <ele>454.8</ele>
        <time>2022-02-24T19:43:53Z</time>
      </trkpt>
      <trkpt lat="46.5755" lon="5.68487">
        <ele>454.6</ele>
        <time>2022-02-24T19:43:54Z</time>
      </trkpt>
      <trkpt lat="46.57557" lon="5.68494">
        <ele>454.6</ele>
        <time>2022-02-24T19:43:55Z</time>
      </trkpt>
      <trkpt lat="46.57564" lon="5.68503">
        <ele>454.2</ele>
        <time>2022-02-24T19:43:56Z</time>
      </trkpt>
      <trkpt lat="46.5757" lon="5.68511">
        <ele>454.2</ele>
        <time>2022-02-24T19:43:57Z</time>
      </trkpt>
      <trkpt lat="46.57577" lon="5.68521">
        <ele>454.2</ele>
        <time>2022-02-24T19:43:58Z</time>
      </trkpt>
      <trkpt lat="46.57584" lon="5.68529">
        <ele>454</ele>
        <time>2022-02-24T19:43:59Z</time>
      </trkpt>
      <trkpt lat="46.5759" lon="5.68537">
        <ele>454</ele>
        <time>2022-02-24T19:44:00Z</time>
      </trkpt>
      <trkpt lat="46.57596" lon="5.68544">
        <ele>454</ele>
        <time>2022-02-24T19:44:01Z</time>
      </trkpt>
      <trkpt lat="46.57602" lon="5.68552">
        <ele>454</ele>
        <time>2022-02-24T19:44:02Z</time>
      </trkpt>
      <trkpt lat="46.57608" lon="5.6856">
        <ele>454</ele>
        <time>2022-02-24T19:44:03Z</time>
      </trkpt>
      <trkpt lat="46.57614" lon="5.68567">
        <ele>454.2</ele>
        <time>2022-02-24T19:44:04Z</time>
      </trkpt>
      <trkpt lat="46.57619" lon="5.68575">
        <ele>454.2</ele>
        <time>2022-02-24T19:44:05Z</time>
      </trkpt>
      <trkpt lat="46.57625" lon="5.68581">
        <ele>454.2</ele>
        <time>2022-02-24T19:44:06Z</time>
      </trkpt>
      <trkpt lat="46.5763" lon="5.68588">
        <ele>454.6</ele>
        <time>2022-02-24T19:44:07Z</time>
      </trkpt>
      <trkpt lat="46.57635" lon="5.68594">
        <ele>454.6</ele>
        <time>2022-02-24T19:44:08Z</time>
      </trkpt>
      <trkpt lat="46.57641" lon="5.68601">
        <ele>454.8</ele>
        <time>2022-02-24T19:44:09Z</time>
      </trkpt>
      <trkpt lat="46.57646" lon="5.68607">
        <ele>454.8</ele>
        <time>2022-02-24T19:44:10Z</time>
      </trkpt>
      <trkpt lat="46.57651" lon="5.68613">
        <ele>454.8</ele>
        <time>2022-02-24T19:44:11Z</time>
      </trkpt>
      <trkpt lat="46.57655" lon="5.6862">
        <ele>455.2</ele>
        <time>2022-02-24T19:44:12Z</time>
      </trkpt>
      <trkpt lat="46.5766" lon="5.68626">
        <ele>455.2</ele>
        <time>2022-02-24T19:44:13Z</time>
      </trkpt>
      <trkpt lat="46.57665" lon="5.68632">
        <ele>455.2</ele>
        <time>2022-02-24T19:44:14Z</time>
      </trkpt>
      <trkpt lat="46.5767" lon="5.68639">
        <ele>455.4</ele>
        <time>2022-02-24T19:44:15Z</time>
      </trkpt>
      <trkpt lat="46.57675" lon="5.68645">
        <ele>455.4</ele>
        <time>2022-02-24T19:44:16Z</time>
      </trkpt>
      <trkpt lat="46.57679" lon="5.68651">
        <ele>455.4</ele>
        <time>2022-02-24T19:44:17Z</time>
      </trkpt>
      <trkpt lat="46.57684" lon="5.68658">
        <ele>455.4</ele>
        <time>2022-02-24T19:44:18Z</time>
      </trkpt>
      <trkpt lat="46.57689" lon="5.68664">
        <ele>455.6</ele>
        <time>2022-02-24T19:44:19Z</time>
      </trkpt>
      <trkpt lat="46.57694" lon="5.6867">
        <ele>455.6</ele>
        <time>2022-02-24T19:44:20Z</time>
      </trkpt>
      <trkpt lat="46.57699" lon="5.68676">
        <ele>455.6</ele>
        <time>2022-02-24T19:44:21Z</time>
      </trkpt>
      <trkpt lat="46.57704" lon="5.68683">
        <ele>455.6</ele>
        <time>2022-02-24T19:44:22Z</time>
      </trkpt>
      <trkpt lat="46.57709" lon="5.68689">
        <ele>455.6</ele>
        <time>2022-02-24T19:44:23Z</time>
      </trkpt>
      <trkpt lat="46.57713" lon="5.68696">
        <ele>455.6</ele>
        <time>2022-02-24T19:44:24Z</time>
      </trkpt>
      <trkpt lat="46.57718" lon="5.68702">
        <ele>455.8</ele>
        <time>2022-02-24T19:44:25Z</time>
      </trkpt>
      <trkpt lat="46.57723" lon="5.68709">
        <ele>455.8</ele>
        <time>2022-02-24T19:44:26Z</time>
      </trkpt>
      <trkpt lat="46.57729" lon="5.68715">
        <ele>455.8</ele>
        <time>2022-02-24T19:44:27Z</time>
      </trkpt>
      <trkpt lat="46.57734" lon="5.68721">
        <ele>455.8</ele>
        <time>2022-02-24T19:44:28Z</time>
      </trkpt>
      <trkpt lat="46.57739" lon="5.68728">
        <ele>455.8</ele>
        <time>2022-02-24T19:44:29Z</time>
      </trkpt>
      <trkpt lat="46.57744" lon="5.68735">
        <ele>455.6</ele>
        <time>2022-02-24T19:44:30Z</time>
      </trkpt>
      <trkpt lat="46.5775" lon="5.68741">
        <ele>455.6</ele>
        <time>2022-02-24T19:44:31Z</time>
      </trkpt>
      <trkpt lat="46.57756" lon="5.68748">
        <ele>455.4</ele>
        <time>2022-02-24T19:44:32Z</time>
      </trkpt>
      <trkpt lat="46.57761" lon="5.68755">
        <ele>455.4</ele>
        <time>2022-02-24T19:44:33Z</time>
      </trkpt>
      <trkpt lat="46.57767" lon="5.68762">
        <ele>455</ele>
        <time>2022-02-24T19:44:34Z</time>
      </trkpt>
      <trkpt lat="46.57773" lon="5.6877">
        <ele>455</ele>
        <time>2022-02-24T19:44:35Z</time>
      </trkpt>
      <trkpt lat="46.57778" lon="5.68777">
        <ele>454.8</ele>
        <time>2022-02-24T19:44:36Z</time>
      </trkpt>
      <trkpt lat="46.57784" lon="5.68784">
        <ele>454.8</ele>
        <time>2022-02-24T19:44:37Z</time>
      </trkpt>
      <trkpt lat="46.5779" lon="5.68791">
        <ele>454.8</ele>
        <time>2022-02-24T19:44:38Z</time>
      </trkpt>
      <trkpt lat="46.57796" lon="5.68797">
        <ele>454.6</ele>
        <time>2022-02-24T19:44:39Z</time>
      </trkpt>
      <trkpt lat="46.57801" lon="5.68804">
        <ele>454.6</ele>
        <time>2022-02-24T19:44:40Z</time>
      </trkpt>
      <trkpt lat="46.57807" lon="5.68811">
        <ele>454.6</ele>
        <time>2022-02-24T19:44:41Z</time>
      </trkpt>
      <trkpt lat="46.57812" lon="5.68818">
        <ele>454.6</ele>
        <time>2022-02-24T19:44:42Z</time>
      </trkpt>
      <trkpt lat="46.57818" lon="5.68825">
        <ele>454.6</ele>
        <time>2022-02-24T19:44:43Z</time>
      </trkpt>
      <trkpt lat="46.57823" lon="5.68831">
        <ele>454.6</ele>
        <time>2022-02-24T19:44:44Z</time>
      </trkpt>
      <trkpt lat="46.57829" lon="5.68838">
        <ele>454.6</ele>
        <time>2022-02-24T19:44:45Z</time>
      </trkpt>
      <trkpt lat="46.57834" lon="5.68844">
        <ele>454.6</ele>
        <time>2022-02-24T19:44:46Z</time>
      </trkpt>
      <trkpt lat="46.57839" lon="5.6885">
        <ele>454.6</ele>
        <time>2022-02-24T19:44:47Z</time>
      </trkpt>
      <trkpt lat="46.57844" lon="5.68856">
        <ele>454.6</ele>
        <time>2022-02-24T19:44:48Z</time>
      </trkpt>
      <trkpt lat="46.57849" lon="5.68862">
        <ele>454.6</ele>
        <time>2022-02-24T19:44:49Z</time>
      </trkpt>
      <trkpt lat="46.57854" lon="5.68869">
        <ele>454.6</ele>
        <time>2022-02-24T19:44:50Z</time>
      </trkpt>
      <trkpt lat="46.57858" lon="5.68875">
        <ele>455</ele>
        <time>2022-02-24T19:44:51Z</time>
      </trkpt>
      <trkpt lat="46.57863" lon="5.68881">
        <ele>455</ele>
        <time>2022-02-24T19:44:52Z</time>
      </trkpt>
      <trkpt lat="46.57868" lon="5.68886">
        <ele>455</ele>
        <time>2022-02-24T19:44:53Z</time>
      </trkpt>
      <trkpt lat="46.57872" lon="5.68892">
        <ele>455</ele>
        <time>2022-02-24T19:44:54Z</time>
      </trkpt>
      <trkpt lat="46.57877" lon="5.68898">
        <ele>455</ele>
        <time>2022-02-24T19:44:55Z</time>
      </trkpt>
      <trkpt lat="46.57881" lon="5.68903">
        <ele>455.2</ele>
        <time>2022-02-24T19:44:56Z</time>
      </trkpt>
      <trkpt lat="46.57886" lon="5.68909">
        <ele>455.2</ele>
        <time>2022-02-24T19:44:57Z</time>
      </trkpt>
      <trkpt lat="46.5789" lon="5.68914">
        <ele>455.2</ele>
        <time>2022-02-24T19:44:58Z</time>
      </trkpt>
      <trkpt lat="46.57895" lon="5.6892">
        <ele>455.2</ele>
        <time>2022-02-24T19:44:59Z</time>
      </trkpt>
      <trkpt lat="46.57899" lon="5.68925">
        <ele>455.2</ele>
        <time>2022-02-24T19:45:00Z</time>
      </trkpt>
      <trkpt lat="46.57904" lon="5.68931">
        <ele>455.2</ele>
        <time>2022-02-24T19:45:01Z</time>
      </trkpt>
      <trkpt lat="46.57908" lon="5.68936">
        <ele>455.2</ele>
        <time>2022-02-24T19:45:02Z</time>
      </trkpt>
      <trkpt lat="46.57913" lon="5.68942">
        <ele>455.2</ele>
        <time>2022-02-24T19:45:03Z</time>
      </trkpt>
      <trkpt lat="46.57918" lon="5.68947">
        <ele>455.4</ele>
        <time>2022-02-24T19:45:04Z</time>
      </trkpt>
      <trkpt lat="46.57922" lon="5.68953">
        <ele>455.4</ele>
        <time>2022-02-24T19:45:05Z</time>
      </trkpt>
      <trkpt lat="46.57927" lon="5.68959">
        <ele>455.4</ele>
        <time>2022-02-24T19:45:06Z</time>
      </trkpt>
      <trkpt lat="46.57931" lon="5.68964">
        <ele>455.4</ele>
        <time>2022-02-24T19:45:07Z</time>
      </trkpt>
      <trkpt lat="46.57935" lon="5.6897">
        <ele>455.4</ele>
        <time>2022-02-24T19:45:08Z</time>
      </trkpt>
      <trkpt lat="46.5794" lon="5.68975">
        <ele>455.4</ele>
        <time>2022-02-24T19:45:09Z</time>
      </trkpt>
      <trkpt lat="46.57945" lon="5.68981">
        <ele>455.4</ele>
        <time>2022-02-24T19:45:10Z</time>
      </trkpt>
      <trkpt lat="46.57949" lon="5.68987">
        <ele>455.4</ele>
        <time>2022-02-24T19:45:11Z</time>
      </trkpt>
      <trkpt lat="46.57954" lon="5.68992">
        <ele>455.4</ele>
        <time>2022-02-24T19:45:12Z</time>
      </trkpt>
      <trkpt lat="46.57958" lon="5.68999">
        <ele>455.4</ele>
        <time>2022-02-24T19:45:13Z</time>
      </trkpt>
      <trkpt lat="46.57963" lon="5.69005">
        <ele>455.4</ele>
        <time>2022-02-24T19:45:14Z</time>
      </trkpt>
      <trkpt lat="46.57968" lon="5.69011">
        <ele>455</ele>
        <time>2022-02-24T19:45:15Z</time>
      </trkpt>
      <trkpt lat="46.57974" lon="5.69018">
        <ele>455</ele>
        <time>2022-02-24T19:45:16Z</time>
      </trkpt>
      <trkpt lat="46.57979" lon="5.69024">
        <ele>454.6</ele>
        <time>2022-02-24T19:45:17Z</time>
      </trkpt>
      <trkpt lat="46.57984" lon="5.69031">
        <ele>454.4</ele>
        <time>2022-02-24T19:45:18Z</time>
      </trkpt>
      <trkpt lat="46.5799" lon="5.69038">
        <ele>454.2</ele>
        <time>2022-02-24T19:45:19Z</time>
      </trkpt>
      <trkpt lat="46.57995" lon="5.69044">
        <ele>454</ele>
        <time>2022-02-24T19:45:20Z</time>
      </trkpt>
      <trkpt lat="46.58001" lon="5.69051">
        <ele>453.6</ele>
        <time>2022-02-24T19:45:21Z</time>
      </trkpt>
      <trkpt lat="46.58006" lon="5.69058">
        <ele>453.6</ele>
        <time>2022-02-24T19:45:22Z</time>
      </trkpt>
      <trkpt lat="46.58012" lon="5.69065">
        <ele>453.4</ele>
        <time>2022-02-24T19:45:23Z</time>
      </trkpt>
      <trkpt lat="46.58017" lon="5.69072">
        <ele>453.4</ele>
        <time>2022-02-24T19:45:24Z</time>
      </trkpt>
      <trkpt lat="46.58023" lon="5.69078">
        <ele>453.4</ele>
        <time>2022-02-24T19:45:25Z</time>
      </trkpt>
      <trkpt lat="46.58028" lon="5.69085">
        <ele>453</ele>
        <time>2022-02-24T19:45:26Z</time>
      </trkpt>
      <trkpt lat="46.58034" lon="5.69092">
        <ele>453</ele>
        <time>2022-02-24T19:45:27Z</time>
      </trkpt>
      <trkpt lat="46.58039" lon="5.69099">
        <ele>452.6</ele>
        <time>2022-02-24T19:45:28Z</time>
      </trkpt>
      <trkpt lat="46.58044" lon="5.69106">
        <ele>452.6</ele>
        <time>2022-02-24T19:45:29Z</time>
      </trkpt>
      <trkpt lat="46.5805" lon="5.69113">
        <ele>452.2</ele>
        <time>2022-02-24T19:45:30Z</time>
      </trkpt>
      <trkpt lat="46.58055" lon="5.6912">
        <ele>452</ele>
        <time>2022-02-24T19:45:31Z</time>
      </trkpt>
      <trkpt lat="46.58061" lon="5.69127">
        <ele>452</ele>
        <time>2022-02-24T19:45:32Z</time>
      </trkpt>
      <trkpt lat="46.58066" lon="5.69133">
        <ele>451.8</ele>
        <time>2022-02-24T19:45:33Z</time>
      </trkpt>
      <trkpt lat="46.58072" lon="5.6914">
        <ele>451.8</ele>
        <time>2022-02-24T19:45:34Z</time>
      </trkpt>
      <trkpt lat="46.58077" lon="5.69146">
        <ele>451.8</ele>
        <time>2022-02-24T19:45:35Z</time>
      </trkpt>
      <trkpt lat="46.58083" lon="5.69153">
        <ele>451.6</ele>
        <time>2022-02-24T19:45:36Z</time>
      </trkpt>
      <trkpt lat="46.58088" lon="5.6916">
        <ele>451.6</ele>
        <time>2022-02-24T19:45:37Z</time>
      </trkpt>
      <trkpt lat="46.58093" lon="5.69167">
        <ele>451.2</ele>
        <time>2022-02-24T19:45:38Z</time>
      </trkpt>
      <trkpt lat="46.58099" lon="5.69173">
        <ele>451.2</ele>
        <time>2022-02-24T19:45:39Z</time>
      </trkpt>
      <trkpt lat="46.58104" lon="5.6918">
        <ele>451</ele>
        <time>2022-02-24T19:45:40Z</time>
      </trkpt>
      <trkpt lat="46.58109" lon="5.69186">
        <ele>451</ele>
        <time>2022-02-24T19:45:41Z</time>
      </trkpt>
      <trkpt lat="46.58115" lon="5.69193">
        <ele>450.6</ele>
        <time>2022-02-24T19:45:42Z</time>
      </trkpt>
      <trkpt lat="46.5812" lon="5.69199">
        <ele>450.4</ele>
        <time>2022-02-24T19:45:43Z</time>
      </trkpt>
      <trkpt lat="46.58125" lon="5.69206">
        <ele>450.4</ele>
        <time>2022-02-24T19:45:44Z</time>
      </trkpt>
      <trkpt lat="46.58131" lon="5.69213">
        <ele>450</ele>
        <time>2022-02-24T19:45:45Z</time>
      </trkpt>
      <trkpt lat="46.58136" lon="5.69219">
        <ele>449.8</ele>
        <time>2022-02-24T19:45:46Z</time>
      </trkpt>
      <trkpt lat="46.58142" lon="5.69226">
        <ele>449.8</ele>
        <time>2022-02-24T19:45:47Z</time>
      </trkpt>
      <trkpt lat="46.58147" lon="5.69233">
        <ele>449.4</ele>
        <time>2022-02-24T19:45:48Z</time>
      </trkpt>
      <trkpt lat="46.58153" lon="5.6924">
        <ele>449.2</ele>
        <time>2022-02-24T19:45:49Z</time>
      </trkpt>
      <trkpt lat="46.58159" lon="5.69247">
        <ele>449.2</ele>
        <time>2022-02-24T19:45:50Z</time>
      </trkpt>
      <trkpt lat="46.58165" lon="5.69254">
        <ele>448.8</ele>
        <time>2022-02-24T19:45:51Z</time>
      </trkpt>
      <trkpt lat="46.58171" lon="5.69261">
        <ele>448.6</ele>
        <time>2022-02-24T19:45:52Z</time>
      </trkpt>
      <trkpt lat="46.58176" lon="5.69268">
        <ele>448.4</ele>
        <time>2022-02-24T19:45:53Z</time>
      </trkpt>
      <trkpt lat="46.58181" lon="5.69274">
        <ele>448</ele>
        <time>2022-02-24T19:45:54Z</time>
      </trkpt>
      <trkpt lat="46.58186" lon="5.69281">
        <ele>447.8</ele>
        <time>2022-02-24T19:45:55Z</time>
      </trkpt>
      <trkpt lat="46.5819" lon="5.69287">
        <ele>447.4</ele>
        <time>2022-02-24T19:45:56Z</time>
      </trkpt>
      <trkpt lat="46.58194" lon="5.69294">
        <ele>447.2</ele>
        <time>2022-02-24T19:45:57Z</time>
      </trkpt>
      <trkpt lat="46.58196" lon="5.69302">
        <ele>446.8</ele>
        <time>2022-02-24T19:45:58Z</time>
      </trkpt>
      <trkpt lat="46.58198" lon="5.6931">
        <ele>446.6</ele>
        <time>2022-02-24T19:45:59Z</time>
      </trkpt>
      <trkpt lat="46.582" lon="5.69317">
        <ele>446.4</ele>
        <time>2022-02-24T19:46:00Z</time>
      </trkpt>
      <trkpt lat="46.58207" lon="5.69326">
        <ele>446.4</ele>
        <time>2022-02-24T19:46:01Z</time>
      </trkpt>
      <trkpt lat="46.58212" lon="5.69327">
        <ele>446.2</ele>
        <time>2022-02-24T19:46:02Z</time>
      </trkpt>
      <trkpt lat="46.58217" lon="5.69329">
        <ele>446.2</ele>
        <time>2022-02-24T19:46:03Z</time>
      </trkpt>
      <trkpt lat="46.58222" lon="5.69331">
        <ele>446.2</ele>
        <time>2022-02-24T19:46:04Z</time>
      </trkpt>
      <trkpt lat="46.58228" lon="5.69334">
        <ele>445.8</ele>
        <time>2022-02-24T19:46:05Z</time>
      </trkpt>
      <trkpt lat="46.58233" lon="5.69338">
        <ele>445.8</ele>
        <time>2022-02-24T19:46:06Z</time>
      </trkpt>
      <trkpt lat="46.58238" lon="5.69344">
        <ele>445.8</ele>
        <time>2022-02-24T19:46:07Z</time>
      </trkpt>
      <trkpt lat="46.58243" lon="5.6935">
        <ele>445.4</ele>
        <time>2022-02-24T19:46:08Z</time>
      </trkpt>
      <trkpt lat="46.58248" lon="5.69356">
        <ele>445.2</ele>
        <time>2022-02-24T19:46:09Z</time>
      </trkpt>
      <trkpt lat="46.58254" lon="5.69363">
        <ele>445</ele>
        <time>2022-02-24T19:46:10Z</time>
      </trkpt>
      <trkpt lat="46.5826" lon="5.69369">
        <ele>444.6</ele>
        <time>2022-02-24T19:46:11Z</time>
      </trkpt>
      <trkpt lat="46.58266" lon="5.69376">
        <ele>444.4</ele>
        <time>2022-02-24T19:46:12Z</time>
      </trkpt>
      <trkpt lat="46.58272" lon="5.69384">
        <ele>444</ele>
        <time>2022-02-24T19:46:13Z</time>
      </trkpt>
      <trkpt lat="46.58278" lon="5.69391">
        <ele>443.6</ele>
        <time>2022-02-24T19:46:14Z</time>
      </trkpt>
      <trkpt lat="46.58285" lon="5.69399">
        <ele>443.2</ele>
        <time>2022-02-24T19:46:15Z</time>
      </trkpt>
      <trkpt lat="46.58291" lon="5.69406">
        <ele>443</ele>
        <time>2022-02-24T19:46:16Z</time>
      </trkpt>
      <trkpt lat="46.58298" lon="5.69414">
        <ele>442.4</ele>
        <time>2022-02-24T19:46:17Z</time>
      </trkpt>
      <trkpt lat="46.58305" lon="5.69422">
        <ele>442</ele>
        <time>2022-02-24T19:46:18Z</time>
      </trkpt>
      <trkpt lat="46.58312" lon="5.69431">
        <ele>441.6</ele>
        <time>2022-02-24T19:46:19Z</time>
      </trkpt>
      <trkpt lat="46.5832" lon="5.69439">
        <ele>441.2</ele>
        <time>2022-02-24T19:46:20Z</time>
      </trkpt>
      <trkpt lat="46.58327" lon="5.69448">
        <ele>440.6</ele>
        <time>2022-02-24T19:46:21Z</time>
      </trkpt>
      <trkpt lat="46.58334" lon="5.69457">
        <ele>440.2</ele>
        <time>2022-02-24T19:46:22Z</time>
      </trkpt>
      <trkpt lat="46.58342" lon="5.69465">
        <ele>439.8</ele>
        <time>2022-02-24T19:46:23Z</time>
      </trkpt>
      <trkpt lat="46.58349" lon="5.69474">
        <ele>439.6</ele>
        <time>2022-02-24T19:46:24Z</time>
      </trkpt>
      <trkpt lat="46.58357" lon="5.69483">
        <ele>439.2</ele>
        <time>2022-02-24T19:46:25Z</time>
      </trkpt>
      <trkpt lat="46.58365" lon="5.69492">
        <ele>438.8</ele>
        <time>2022-02-24T19:46:26Z</time>
      </trkpt>
      <trkpt lat="46.58373" lon="5.69501">
        <ele>438.4</ele>
        <time>2022-02-24T19:46:27Z</time>
      </trkpt>
      <trkpt lat="46.58381" lon="5.69511">
        <ele>437.8</ele>
        <time>2022-02-24T19:46:28Z</time>
      </trkpt>
      <trkpt lat="46.58388" lon="5.69521">
        <ele>437.4</ele>
        <time>2022-02-24T19:46:29Z</time>
      </trkpt>
      <trkpt lat="46.58396" lon="5.69531">
        <ele>437</ele>
        <time>2022-02-24T19:46:30Z</time>
      </trkpt>
      <trkpt lat="46.58404" lon="5.69541">
        <ele>436.6</ele>
        <time>2022-02-24T19:46:31Z</time>
      </trkpt>
      <trkpt lat="46.58413" lon="5.6955">
        <ele>436</ele>
        <time>2022-02-24T19:46:32Z</time>
      </trkpt>
      <trkpt lat="46.58421" lon="5.69559">
        <ele>435.6</ele>
        <time>2022-02-24T19:46:33Z</time>
      </trkpt>
      <trkpt lat="46.58429" lon="5.69568">
        <ele>435.2</ele>
        <time>2022-02-24T19:46:34Z</time>
      </trkpt>
      <trkpt lat="46.58437" lon="5.69578">
        <ele>434.6</ele>
        <time>2022-02-24T19:46:35Z</time>
      </trkpt>
      <trkpt lat="46.58445" lon="5.69587">
        <ele>434.2</ele>
        <time>2022-02-24T19:46:36Z</time>
      </trkpt>
      <trkpt lat="46.58454" lon="5.69596">
        <ele>433.8</ele>
        <time>2022-02-24T19:46:37Z</time>
      </trkpt>
      <trkpt lat="46.58461" lon="5.69605">
        <ele>433</ele>
        <time>2022-02-24T19:46:38Z</time>
      </trkpt>
      <trkpt lat="46.58469" lon="5.69614">
        <ele>432.6</ele>
        <time>2022-02-24T19:46:39Z</time>
      </trkpt>
      <trkpt lat="46.58475" lon="5.69622">
        <ele>432.2</ele>
        <time>2022-02-24T19:46:40Z</time>
      </trkpt>
      <trkpt lat="46.58482" lon="5.69631">
        <ele>432</ele>
        <time>2022-02-24T19:46:41Z</time>
      </trkpt>
      <trkpt lat="46.58489" lon="5.69639">
        <ele>431.6</ele>
        <time>2022-02-24T19:46:42Z</time>
      </trkpt>
      <trkpt lat="46.58496" lon="5.69647">
        <ele>431.2</ele>
        <time>2022-02-24T19:46:43Z</time>
      </trkpt>
      <trkpt lat="46.58502" lon="5.69655">
        <ele>431</ele>
        <time>2022-02-24T19:46:44Z</time>
      </trkpt>
      <trkpt lat="46.58508" lon="5.69662">
        <ele>430.6</ele>
        <time>2022-02-24T19:46:45Z</time>
      </trkpt>
      <trkpt lat="46.58514" lon="5.69669">
        <ele>430.4</ele>
        <time>2022-02-24T19:46:46Z</time>
      </trkpt>
      <trkpt lat="46.5852" lon="5.69676">
        <ele>430</ele>
        <time>2022-02-24T19:46:47Z</time>
      </trkpt>
      <trkpt lat="46.58526" lon="5.69683">
        <ele>429.6</ele>
        <time>2022-02-24T19:46:48Z</time>
      </trkpt>
      <trkpt lat="46.58531" lon="5.6969">
        <ele>429.4</ele>
        <time>2022-02-24T19:46:49Z</time>
      </trkpt>
      <trkpt lat="46.58536" lon="5.69696">
        <ele>429.2</ele>
        <time>2022-02-24T19:46:50Z</time>
      </trkpt>
      <trkpt lat="46.58541" lon="5.69702">
        <ele>429</ele>
        <time>2022-02-24T19:46:51Z</time>
      </trkpt>
      <trkpt lat="46.58545" lon="5.69707">
        <ele>429</ele>
        <time>2022-02-24T19:46:52Z</time>
      </trkpt>
      <trkpt lat="46.58549" lon="5.69711">
        <ele>428.6</ele>
        <time>2022-02-24T19:46:53Z</time>
      </trkpt>
      <trkpt lat="46.58552" lon="5.69715">
        <ele>428.6</ele>
        <time>2022-02-24T19:46:54Z</time>
      </trkpt>
      <trkpt lat="46.58555" lon="5.69718">
        <ele>428.4</ele>
        <time>2022-02-24T19:46:55Z</time>
      </trkpt>
      <trkpt lat="46.58557" lon="5.6972">
        <ele>428.4</ele>
        <time>2022-02-24T19:46:56Z</time>
      </trkpt>
      <trkpt lat="46.58559" lon="5.69723">
        <ele>428.4</ele>
        <time>2022-02-24T19:46:57Z</time>
      </trkpt>
      <trkpt lat="46.5856" lon="5.69726">
        <ele>428.2</ele>
        <time>2022-02-24T19:46:58Z</time>
      </trkpt>
      <trkpt lat="46.58561" lon="5.6973">
        <ele>428.2</ele>
        <time>2022-02-24T19:46:59Z</time>
      </trkpt>
      <trkpt lat="46.5856" lon="5.69735">
        <ele>427.8</ele>
        <time>2022-02-24T19:47:00Z</time>
      </trkpt>
      <trkpt lat="46.58559" lon="5.69741">
        <ele>427.8</ele>
        <time>2022-02-24T19:47:01Z</time>
      </trkpt>
      <trkpt lat="46.58558" lon="5.69747">
        <ele>427.8</ele>
        <time>2022-02-24T19:47:02Z</time>
      </trkpt>
      <trkpt lat="46.58556" lon="5.69753">
        <ele>427.8</ele>
        <time>2022-02-24T19:47:03Z</time>
      </trkpt>
      <trkpt lat="46.58555" lon="5.69759">
        <ele>427.8</ele>
        <time>2022-02-24T19:47:04Z</time>
      </trkpt>
      <trkpt lat="46.58553" lon="5.69765">
        <ele>427.8</ele>
        <time>2022-02-24T19:47:05Z</time>
      </trkpt>
      <trkpt lat="46.58552" lon="5.69772">
        <ele>427.8</ele>
        <time>2022-02-24T19:47:06Z</time>
      </trkpt>
      <trkpt lat="46.5855" lon="5.69779">
        <ele>427.8</ele>
        <time>2022-02-24T19:47:07Z</time>
      </trkpt>
      <trkpt lat="46.58548" lon="5.69786">
        <ele>427.8</ele>
        <time>2022-02-24T19:47:08Z</time>
      </trkpt>
      <trkpt lat="46.58545" lon="5.69793">
        <ele>427.8</ele>
        <time>2022-02-24T19:47:09Z</time>
      </trkpt>
      <trkpt lat="46.58543" lon="5.69801">
        <ele>427.8</ele>
        <time>2022-02-24T19:47:10Z</time>
      </trkpt>
      <trkpt lat="46.58541" lon="5.69809">
        <ele>427.6</ele>
        <time>2022-02-24T19:47:11Z</time>
      </trkpt>
      <trkpt lat="46.58539" lon="5.69817">
        <ele>427.6</ele>
        <time>2022-02-24T19:47:12Z</time>
      </trkpt>
      <trkpt lat="46.58537" lon="5.69825">
        <ele>427.6</ele>
        <time>2022-02-24T19:47:13Z</time>
      </trkpt>
      <trkpt lat="46.58534" lon="5.69833">
        <ele>427.6</ele>
        <time>2022-02-24T19:47:14Z</time>
      </trkpt>
      <trkpt lat="46.58532" lon="5.69841">
        <ele>427.6</ele>
        <time>2022-02-24T19:47:15Z</time>
      </trkpt>
      <trkpt lat="46.58529" lon="5.69848">
        <ele>427.4</ele>
        <time>2022-02-24T19:47:16Z</time>
      </trkpt>
      <trkpt lat="46.58527" lon="5.69856">
        <ele>427.4</ele>
        <time>2022-02-24T19:47:17Z</time>
      </trkpt>
      <trkpt lat="46.58524" lon="5.69864">
        <ele>427.4</ele>
        <time>2022-02-24T19:47:18Z</time>
      </trkpt>
      <trkpt lat="46.58522" lon="5.69872">
        <ele>427.4</ele>
        <time>2022-02-24T19:47:19Z</time>
      </trkpt>
      <trkpt lat="46.58519" lon="5.6988">
        <ele>427.4</ele>
        <time>2022-02-24T19:47:20Z</time>
      </trkpt>
      <trkpt lat="46.58516" lon="5.69888">
        <ele>427.4</ele>
        <time>2022-02-24T19:47:21Z</time>
      </trkpt>
      <trkpt lat="46.58513" lon="5.69897">
        <ele>427.2</ele>
        <time>2022-02-24T19:47:22Z</time>
      </trkpt>
      <trkpt lat="46.58511" lon="5.69905">
        <ele>427.2</ele>
        <time>2022-02-24T19:47:23Z</time>
      </trkpt>
      <trkpt lat="46.58509" lon="5.69913">
        <ele>427.2</ele>
        <time>2022-02-24T19:47:24Z</time>
      </trkpt>
      <trkpt lat="46.58506" lon="5.69922">
        <ele>427.2</ele>
        <time>2022-02-24T19:47:25Z</time>
      </trkpt>
      <trkpt lat="46.58504" lon="5.6993">
        <ele>427.2</ele>
        <time>2022-02-24T19:47:26Z</time>
      </trkpt>
      <trkpt lat="46.58502" lon="5.69938">
        <ele>427.2</ele>
        <time>2022-02-24T19:47:27Z</time>
      </trkpt>
      <trkpt lat="46.585" lon="5.69946">
        <ele>427.2</ele>
        <time>2022-02-24T19:47:28Z</time>
      </trkpt>
      <trkpt lat="46.58499" lon="5.69955">
        <ele>427.4</ele>
        <time>2022-02-24T19:47:29Z</time>
      </trkpt>
      <trkpt lat="46.58498" lon="5.69963">
        <ele>427.4</ele>
        <time>2022-02-24T19:47:30Z</time>
      </trkpt>
      <trkpt lat="46.58499" lon="5.69971">
        <ele>427.4</ele>
        <time>2022-02-24T19:47:31Z</time>
      </trkpt>
      <trkpt lat="46.58499" lon="5.6998">
        <ele>427.4</ele>
        <time>2022-02-24T19:47:32Z</time>
      </trkpt>
      <trkpt lat="46.585" lon="5.69988">
        <ele>427.8</ele>
        <time>2022-02-24T19:47:33Z</time>
      </trkpt>
      <trkpt lat="46.58501" lon="5.69996">
        <ele>427.8</ele>
        <time>2022-02-24T19:47:34Z</time>
      </trkpt>
      <trkpt lat="46.58501" lon="5.70003">
        <ele>428</ele>
        <time>2022-02-24T19:47:35Z</time>
      </trkpt>
      <trkpt lat="46.58502" lon="5.7001">
        <ele>428</ele>
        <time>2022-02-24T19:47:36Z</time>
      </trkpt>
      <trkpt lat="46.58502" lon="5.70016">
        <ele>428.4</ele>
        <time>2022-02-24T19:47:37Z</time>
      </trkpt>
      <trkpt lat="46.58502" lon="5.70023">
        <ele>428.6</ele>
        <time>2022-02-24T19:47:38Z</time>
      </trkpt>
      <trkpt lat="46.58503" lon="5.7003">
        <ele>428.8</ele>
        <time>2022-02-24T19:47:39Z</time>
      </trkpt>
      <trkpt lat="46.58503" lon="5.70036">
        <ele>429</ele>
        <time>2022-02-24T19:47:40Z</time>
      </trkpt>
      <trkpt lat="46.58504" lon="5.70043">
        <ele>429.2</ele>
        <time>2022-02-24T19:47:41Z</time>
      </trkpt>
      <trkpt lat="46.58504" lon="5.70049">
        <ele>429.4</ele>
        <time>2022-02-24T19:47:42Z</time>
      </trkpt>
      <trkpt lat="46.58505" lon="5.70055">
        <ele>429.4</ele>
        <time>2022-02-24T19:47:43Z</time>
      </trkpt>
      <trkpt lat="46.58505" lon="5.70061">
        <ele>429.6</ele>
        <time>2022-02-24T19:47:44Z</time>
      </trkpt>
      <trkpt lat="46.58506" lon="5.70068">
        <ele>429.6</ele>
        <time>2022-02-24T19:47:45Z</time>
      </trkpt>
      <trkpt lat="46.58507" lon="5.70075">
        <ele>429.6</ele>
        <time>2022-02-24T19:47:46Z</time>
      </trkpt>
      <trkpt lat="46.58507" lon="5.70082">
        <ele>429.6</ele>
        <time>2022-02-24T19:47:47Z</time>
      </trkpt>
      <trkpt lat="46.58508" lon="5.70089">
        <ele>429.6</ele>
        <time>2022-02-24T19:47:48Z</time>
      </trkpt>
      <trkpt lat="46.58509" lon="5.70097">
        <ele>429.6</ele>
        <time>2022-02-24T19:47:49Z</time>
      </trkpt>
      <trkpt lat="46.58509" lon="5.70105">
        <ele>429.8</ele>
        <time>2022-02-24T19:47:50Z</time>
      </trkpt>
      <trkpt lat="46.5851" lon="5.70113">
        <ele>429.8</ele>
        <time>2022-02-24T19:47:51Z</time>
      </trkpt>
      <trkpt lat="46.58512" lon="5.70121">
        <ele>429.8</ele>
        <time>2022-02-24T19:47:52Z</time>
      </trkpt>
      <trkpt lat="46.58513" lon="5.70129">
        <ele>429.8</ele>
        <time>2022-02-24T19:47:53Z</time>
      </trkpt>
      <trkpt lat="46.58514" lon="5.70137">
        <ele>429.8</ele>
        <time>2022-02-24T19:47:54Z</time>
      </trkpt>
      <trkpt lat="46.58515" lon="5.70145">
        <ele>429.8</ele>
        <time>2022-02-24T19:47:55Z</time>
      </trkpt>
      <trkpt lat="46.58517" lon="5.70153">
        <ele>429.8</ele>
        <time>2022-02-24T19:47:56Z</time>
      </trkpt>
      <trkpt lat="46.58519" lon="5.7016">
        <ele>430.2</ele>
        <time>2022-02-24T19:47:57Z</time>
      </trkpt>
      <trkpt lat="46.58521" lon="5.70166">
        <ele>430.2</ele>
        <time>2022-02-24T19:47:58Z</time>
      </trkpt>
      <trkpt lat="46.58524" lon="5.70172">
        <ele>430.2</ele>
        <time>2022-02-24T19:47:59Z</time>
      </trkpt>
      <trkpt lat="46.58527" lon="5.70177">
        <ele>430.4</ele>
        <time>2022-02-24T19:48:00Z</time>
      </trkpt>
      <trkpt lat="46.5853" lon="5.70181">
        <ele>430.8</ele>
        <time>2022-02-24T19:48:01Z</time>
      </trkpt>
      <trkpt lat="46.58533" lon="5.70184">
        <ele>430.8</ele>
        <time>2022-02-24T19:48:02Z</time>
      </trkpt>
      <trkpt lat="46.58538" lon="5.70186">
        <ele>431.2</ele>
        <time>2022-02-24T19:48:03Z</time>
      </trkpt>
      <trkpt lat="46.58541" lon="5.70188">
        <ele>431.4</ele>
        <time>2022-02-24T19:48:04Z</time>
      </trkpt>
      <trkpt lat="46.58544" lon="5.7019">
        <ele>431.8</ele>
        <time>2022-02-24T19:48:05Z</time>
      </trkpt>
      <trkpt lat="46.58548" lon="5.70191">
        <ele>432</ele>
        <time>2022-02-24T19:48:06Z</time>
      </trkpt>
      <trkpt lat="46.58551" lon="5.70193">
        <ele>432</ele>
        <time>2022-02-24T19:48:07Z</time>
      </trkpt>
      <trkpt lat="46.58554" lon="5.70194">
        <ele>432.4</ele>
        <time>2022-02-24T19:48:08Z</time>
      </trkpt>
      <trkpt lat="46.58557" lon="5.70195">
        <ele>432.4</ele>
        <time>2022-02-24T19:48:09Z</time>
      </trkpt>
      <trkpt lat="46.58561" lon="5.70196">
        <ele>432.6</ele>
        <time>2022-02-24T19:48:10Z</time>
      </trkpt>
      <trkpt lat="46.58564" lon="5.70197">
        <ele>432.6</ele>
        <time>2022-02-24T19:48:11Z</time>
      </trkpt>
      <trkpt lat="46.58567" lon="5.70198">
        <ele>433.2</ele>
        <time>2022-02-24T19:48:12Z</time>
      </trkpt>
      <trkpt lat="46.5857" lon="5.70199">
        <ele>433.4</ele>
        <time>2022-02-24T19:48:13Z</time>
      </trkpt>
      <trkpt lat="46.58573" lon="5.70201">
        <ele>433.4</ele>
        <time>2022-02-24T19:48:14Z</time>
      </trkpt>
      <trkpt lat="46.58576" lon="5.70203">
        <ele>433.8</ele>
        <time>2022-02-24T19:48:15Z</time>
      </trkpt>
      <trkpt lat="46.58579" lon="5.70206">
        <ele>434</ele>
        <time>2022-02-24T19:48:16Z</time>
      </trkpt>
      <trkpt lat="46.58582" lon="5.70209">
        <ele>434</ele>
        <time>2022-02-24T19:48:17Z</time>
      </trkpt>
      <trkpt lat="46.58585" lon="5.70212">
        <ele>434.4</ele>
        <time>2022-02-24T19:48:18Z</time>
      </trkpt>
      <trkpt lat="46.58587" lon="5.70215">
        <ele>434.6</ele>
        <time>2022-02-24T19:48:19Z</time>
      </trkpt>
      <trkpt lat="46.5859" lon="5.70219">
        <ele>434.6</ele>
        <time>2022-02-24T19:48:20Z</time>
      </trkpt>
      <trkpt lat="46.58592" lon="5.70223">
        <ele>435</ele>
        <time>2022-02-24T19:48:21Z</time>
      </trkpt>
      <trkpt lat="46.58594" lon="5.70226">
        <ele>435</ele>
        <time>2022-02-24T19:48:22Z</time>
      </trkpt>
      <trkpt lat="46.58595" lon="5.70231">
        <ele>435.2</ele>
        <time>2022-02-24T19:48:23Z</time>
      </trkpt>
      <trkpt lat="46.58597" lon="5.70235">
        <ele>435.2</ele>
        <time>2022-02-24T19:48:24Z</time>
      </trkpt>
      <trkpt lat="46.58598" lon="5.70239">
        <ele>435.6</ele>
        <time>2022-02-24T19:48:25Z</time>
      </trkpt>
      <trkpt lat="46.586" lon="5.70244">
        <ele>435.6</ele>
        <time>2022-02-24T19:48:26Z</time>
      </trkpt>
      <trkpt lat="46.586" lon="5.70248">
        <ele>436</ele>
        <time>2022-02-24T19:48:27Z</time>
      </trkpt>
      <trkpt lat="46.58601" lon="5.70253">
        <ele>436.2</ele>
        <time>2022-02-24T19:48:28Z</time>
      </trkpt>
      <trkpt lat="46.58602" lon="5.70258">
        <ele>436.2</ele>
        <time>2022-02-24T19:48:29Z</time>
      </trkpt>
      <trkpt lat="46.58602" lon="5.70263">
        <ele>436.6</ele>
        <time>2022-02-24T19:48:30Z</time>
      </trkpt>
      <trkpt lat="46.58602" lon="5.70269">
        <ele>436.8</ele>
        <time>2022-02-24T19:48:31Z</time>
      </trkpt>
      <trkpt lat="46.58602" lon="5.70274">
        <ele>436.8</ele>
        <time>2022-02-24T19:48:32Z</time>
      </trkpt>
      <trkpt lat="46.58602" lon="5.70279">
        <ele>437.2</ele>
        <time>2022-02-24T19:48:33Z</time>
      </trkpt>
      <trkpt lat="46.58602" lon="5.70284">
        <ele>437.2</ele>
        <time>2022-02-24T19:48:34Z</time>
      </trkpt>
      <trkpt lat="46.58602" lon="5.7029">
        <ele>437.4</ele>
        <time>2022-02-24T19:48:35Z</time>
      </trkpt>
      <trkpt lat="46.58602" lon="5.70295">
        <ele>437.4</ele>
        <time>2022-02-24T19:48:36Z</time>
      </trkpt>
      <trkpt lat="46.58602" lon="5.703">
        <ele>438</ele>
        <time>2022-02-24T19:48:37Z</time>
      </trkpt>
      <trkpt lat="46.58602" lon="5.70306">
        <ele>438</ele>
        <time>2022-02-24T19:48:38Z</time>
      </trkpt>
      <trkpt lat="46.58602" lon="5.70311">
        <ele>438.2</ele>
        <time>2022-02-24T19:48:39Z</time>
      </trkpt>
      <trkpt lat="46.58601" lon="5.70316">
        <ele>438.6</ele>
        <time>2022-02-24T19:48:40Z</time>
      </trkpt>
      <trkpt lat="46.58601" lon="5.70321">
        <ele>438.8</ele>
        <time>2022-02-24T19:48:41Z</time>
      </trkpt>
      <trkpt lat="46.58601" lon="5.70326">
        <ele>438.8</ele>
        <time>2022-02-24T19:48:42Z</time>
      </trkpt>
      <trkpt lat="46.58601" lon="5.70331">
        <ele>439</ele>
        <time>2022-02-24T19:48:43Z</time>
      </trkpt>
      <trkpt lat="46.58601" lon="5.70336">
        <ele>439.2</ele>
        <time>2022-02-24T19:48:44Z</time>
      </trkpt>
      <trkpt lat="46.58601" lon="5.70341">
        <ele>439.6</ele>
        <time>2022-02-24T19:48:45Z</time>
      </trkpt>
      <trkpt lat="46.58601" lon="5.70346">
        <ele>439.8</ele>
        <time>2022-02-24T19:48:46Z</time>
      </trkpt>
      <trkpt lat="46.586" lon="5.70351">
        <ele>439.8</ele>
        <time>2022-02-24T19:48:47Z</time>
      </trkpt>
      <trkpt lat="46.586" lon="5.70356">
        <ele>440</ele>
        <time>2022-02-24T19:48:48Z</time>
      </trkpt>
      <trkpt lat="46.586" lon="5.70362">
        <ele>440.4</ele>
        <time>2022-02-24T19:48:49Z</time>
      </trkpt>
      <trkpt lat="46.586" lon="5.70367">
        <ele>440.6</ele>
        <time>2022-02-24T19:48:50Z</time>
      </trkpt>
      <trkpt lat="46.586" lon="5.70372">
        <ele>440.8</ele>
        <time>2022-02-24T19:48:51Z</time>
      </trkpt>
      <trkpt lat="46.586" lon="5.70377">
        <ele>440.8</ele>
        <time>2022-02-24T19:48:52Z</time>
      </trkpt>
      <trkpt lat="46.586" lon="5.70383">
        <ele>441.2</ele>
        <time>2022-02-24T19:48:53Z</time>
      </trkpt>
      <trkpt lat="46.586" lon="5.70387">
        <ele>441.4</ele>
        <time>2022-02-24T19:48:54Z</time>
      </trkpt>
      <trkpt lat="46.58601" lon="5.70392">
        <ele>441.4</ele>
        <time>2022-02-24T19:48:55Z</time>
      </trkpt>
      <trkpt lat="46.58601" lon="5.70397">
        <ele>441.8</ele>
        <time>2022-02-24T19:48:56Z</time>
      </trkpt>
      <trkpt lat="46.58602" lon="5.70401">
        <ele>441.8</ele>
        <time>2022-02-24T19:48:57Z</time>
      </trkpt>
      <trkpt lat="46.58603" lon="5.70405">
        <ele>442.2</ele>
        <time>2022-02-24T19:48:58Z</time>
      </trkpt>
      <trkpt lat="46.58605" lon="5.70409">
        <ele>442.2</ele>
        <time>2022-02-24T19:48:59Z</time>
      </trkpt>
      <trkpt lat="46.58606" lon="5.70413">
        <ele>442.6</ele>
        <time>2022-02-24T19:49:00Z</time>
      </trkpt>
      <trkpt lat="46.58608" lon="5.70417">
        <ele>442.6</ele>
        <time>2022-02-24T19:49:01Z</time>
      </trkpt>
      <trkpt lat="46.58609" lon="5.70421">
        <ele>443</ele>
        <time>2022-02-24T19:49:02Z</time>
      </trkpt>
      <trkpt lat="46.5861" lon="5.70425">
        <ele>443</ele>
        <time>2022-02-24T19:49:03Z</time>
      </trkpt>
      <trkpt lat="46.58612" lon="5.70429">
        <ele>443.4</ele>
        <time>2022-02-24T19:49:04Z</time>
      </trkpt>
      <trkpt lat="46.58613" lon="5.70432">
        <ele>443.6</ele>
        <time>2022-02-24T19:49:05Z</time>
      </trkpt>
      <trkpt lat="46.58615" lon="5.70435">
        <ele>443.6</ele>
        <time>2022-02-24T19:49:06Z</time>
      </trkpt>
      <trkpt lat="46.58617" lon="5.70438">
        <ele>444</ele>
        <time>2022-02-24T19:49:07Z</time>
      </trkpt>
      <trkpt lat="46.5862" lon="5.70441">
        <ele>444.2</ele>
        <time>2022-02-24T19:49:08Z</time>
      </trkpt>
      <trkpt lat="46.58623" lon="5.70444">
        <ele>444.4</ele>
        <time>2022-02-24T19:49:09Z</time>
      </trkpt>
      <trkpt lat="46.58626" lon="5.70447">
        <ele>444.4</ele>
        <time>2022-02-24T19:49:10Z</time>
      </trkpt>
      <trkpt lat="46.58628" lon="5.70449">
        <ele>444.8</ele>
        <time>2022-02-24T19:49:11Z</time>
      </trkpt>
      <trkpt lat="46.58631" lon="5.70451">
        <ele>444.8</ele>
        <time>2022-02-24T19:49:12Z</time>
      </trkpt>
      <trkpt lat="46.58634" lon="5.70453">
        <ele>445.2</ele>
        <time>2022-02-24T19:49:13Z</time>
      </trkpt>
      <trkpt lat="46.58637" lon="5.70454">
        <ele>445.2</ele>
        <time>2022-02-24T19:49:14Z</time>
      </trkpt>
      <trkpt lat="46.58641" lon="5.70455">
        <ele>445.6</ele>
        <time>2022-02-24T19:49:15Z</time>
      </trkpt>
      <trkpt lat="46.58644" lon="5.70456">
        <ele>445.6</ele>
        <time>2022-02-24T19:49:16Z</time>
      </trkpt>
      <trkpt lat="46.58648" lon="5.70457">
        <ele>446</ele>
        <time>2022-02-24T19:49:17Z</time>
      </trkpt>
      <trkpt lat="46.58651" lon="5.70457">
        <ele>446.2</ele>
        <time>2022-02-24T19:49:18Z</time>
      </trkpt>
      <trkpt lat="46.58655" lon="5.70458">
        <ele>446.2</ele>
        <time>2022-02-24T19:49:19Z</time>
      </trkpt>
      <trkpt lat="46.58658" lon="5.70458">
        <ele>446.4</ele>
        <time>2022-02-24T19:49:20Z</time>
      </trkpt>
      <trkpt lat="46.58661" lon="5.70459">
        <ele>446.8</ele>
        <time>2022-02-24T19:49:21Z</time>
      </trkpt>
      <trkpt lat="46.58664" lon="5.7046">
        <ele>446.8</ele>
        <time>2022-02-24T19:49:22Z</time>
      </trkpt>
      <trkpt lat="46.58667" lon="5.70461">
        <ele>447.2</ele>
        <time>2022-02-24T19:49:23Z</time>
      </trkpt>
      <trkpt lat="46.58671" lon="5.70462">
        <ele>447.2</ele>
        <time>2022-02-24T19:49:24Z</time>
      </trkpt>
      <trkpt lat="46.58674" lon="5.70463">
        <ele>447.4</ele>
        <time>2022-02-24T19:49:25Z</time>
      </trkpt>
      <trkpt lat="46.58677" lon="5.70465">
        <ele>447.4</ele>
        <time>2022-02-24T19:49:26Z</time>
      </trkpt>
      <trkpt lat="46.5868" lon="5.70466">
        <ele>447.8</ele>
        <time>2022-02-24T19:49:27Z</time>
      </trkpt>
      <trkpt lat="46.58683" lon="5.70468">
        <ele>448</ele>
        <time>2022-02-24T19:49:28Z</time>
      </trkpt>
      <trkpt lat="46.58686" lon="5.7047">
        <ele>448</ele>
        <time>2022-02-24T19:49:29Z</time>
      </trkpt>
      <trkpt lat="46.58689" lon="5.70473">
        <ele>448.4</ele>
        <time>2022-02-24T19:49:30Z</time>
      </trkpt>
      <trkpt lat="46.58691" lon="5.70475">
        <ele>448.4</ele>
        <time>2022-02-24T19:49:31Z</time>
      </trkpt>
      <trkpt lat="46.58694" lon="5.70478">
        <ele>448.8</ele>
        <time>2022-02-24T19:49:32Z</time>
      </trkpt>
      <trkpt lat="46.58696" lon="5.70481">
        <ele>448.8</ele>
        <time>2022-02-24T19:49:33Z</time>
      </trkpt>
      <trkpt lat="46.58699" lon="5.70483">
        <ele>449</ele>
        <time>2022-02-24T19:49:34Z</time>
      </trkpt>
      <trkpt lat="46.58701" lon="5.70487">
        <ele>449</ele>
        <time>2022-02-24T19:49:35Z</time>
      </trkpt>
      <trkpt lat="46.58703" lon="5.7049">
        <ele>449.4</ele>
        <time>2022-02-24T19:49:36Z</time>
      </trkpt>
      <trkpt lat="46.58705" lon="5.70494">
        <ele>449.4</ele>
        <time>2022-02-24T19:49:37Z</time>
      </trkpt>
      <trkpt lat="46.58707" lon="5.70497">
        <ele>449.8</ele>
        <time>2022-02-24T19:49:38Z</time>
      </trkpt>
      <trkpt lat="46.58708" lon="5.70501">
        <ele>449.8</ele>
        <time>2022-02-24T19:49:39Z</time>
      </trkpt>
      <trkpt lat="46.5871" lon="5.70505">
        <ele>450</ele>
        <time>2022-02-24T19:49:40Z</time>
      </trkpt>
      <trkpt lat="46.58712" lon="5.70508">
        <ele>450</ele>
        <time>2022-02-24T19:49:41Z</time>
      </trkpt>
      <trkpt lat="46.58713" lon="5.70512">
        <ele>450.2</ele>
        <time>2022-02-24T19:49:42Z</time>
      </trkpt>
      <trkpt lat="46.58715" lon="5.70516">
        <ele>450.2</ele>
        <time>2022-02-24T19:49:43Z</time>
      </trkpt>
      <trkpt lat="46.58717" lon="5.7052">
        <ele>450.6</ele>
        <time>2022-02-24T19:49:44Z</time>
      </trkpt>
      <trkpt lat="46.58719" lon="5.70524">
        <ele>450.6</ele>
        <time>2022-02-24T19:49:45Z</time>
      </trkpt>
      <trkpt lat="46.58721" lon="5.70528">
        <ele>451</ele>
        <time>2022-02-24T19:49:46Z</time>
      </trkpt>
      <trkpt lat="46.58723" lon="5.70531">
        <ele>451</ele>
        <time>2022-02-24T19:49:47Z</time>
      </trkpt>
      <trkpt lat="46.58724" lon="5.70535">
        <ele>451.4</ele>
        <time>2022-02-24T19:49:48Z</time>
      </trkpt>
      <trkpt lat="46.58726" lon="5.70538">
        <ele>451.4</ele>
        <time>2022-02-24T19:49:49Z</time>
      </trkpt>
      <trkpt lat="46.58728" lon="5.70543">
        <ele>451.6</ele>
        <time>2022-02-24T19:49:50Z</time>
      </trkpt>
      <trkpt lat="46.5873" lon="5.70547">
        <ele>451.6</ele>
        <time>2022-02-24T19:49:51Z</time>
      </trkpt>
      <trkpt lat="46.58731" lon="5.70551">
        <ele>452</ele>
        <time>2022-02-24T19:49:52Z</time>
      </trkpt>
      <trkpt lat="46.58733" lon="5.70555">
        <ele>452</ele>
        <time>2022-02-24T19:49:53Z</time>
      </trkpt>
      <trkpt lat="46.58736" lon="5.70559">
        <ele>452.4</ele>
        <time>2022-02-24T19:49:54Z</time>
      </trkpt>
      <trkpt lat="46.58738" lon="5.70562">
        <ele>452.6</ele>
        <time>2022-02-24T19:49:55Z</time>
      </trkpt>
      <trkpt lat="46.5874" lon="5.70566">
        <ele>452.6</ele>
        <time>2022-02-24T19:49:56Z</time>
      </trkpt>
      <trkpt lat="46.58742" lon="5.7057">
        <ele>453</ele>
        <time>2022-02-24T19:49:57Z</time>
      </trkpt>
      <trkpt lat="46.58745" lon="5.70574">
        <ele>453</ele>
        <time>2022-02-24T19:49:58Z</time>
      </trkpt>
      <trkpt lat="46.58747" lon="5.70578">
        <ele>453.2</ele>
        <time>2022-02-24T19:49:59Z</time>
      </trkpt>
      <trkpt lat="46.58749" lon="5.70583">
        <ele>453.2</ele>
        <time>2022-02-24T19:50:00Z</time>
      </trkpt>
      <trkpt lat="46.58751" lon="5.70587">
        <ele>453.4</ele>
        <time>2022-02-24T19:50:01Z</time>
      </trkpt>
      <trkpt lat="46.58753" lon="5.70591">
        <ele>453.8</ele>
        <time>2022-02-24T19:50:02Z</time>
      </trkpt>
      <trkpt lat="46.58756" lon="5.70595">
        <ele>453.8</ele>
        <time>2022-02-24T19:50:03Z</time>
      </trkpt>
      <trkpt lat="46.58758" lon="5.70599">
        <ele>454</ele>
        <time>2022-02-24T19:50:04Z</time>
      </trkpt>
      <trkpt lat="46.5876" lon="5.70603">
        <ele>454</ele>
        <time>2022-02-24T19:50:05Z</time>
      </trkpt>
      <trkpt lat="46.58762" lon="5.70607">
        <ele>454.2</ele>
        <time>2022-02-24T19:50:06Z</time>
      </trkpt>
      <trkpt lat="46.58764" lon="5.70611">
        <ele>454.2</ele>
        <time>2022-02-24T19:50:07Z</time>
      </trkpt>
      <trkpt lat="46.58767" lon="5.70615">
        <ele>454.4</ele>
        <time>2022-02-24T19:50:08Z</time>
      </trkpt>
      <trkpt lat="46.58769" lon="5.70619">
        <ele>454.4</ele>
        <time>2022-02-24T19:50:09Z</time>
      </trkpt>
      <trkpt lat="46.58772" lon="5.70623">
        <ele>454.8</ele>
        <time>2022-02-24T19:50:10Z</time>
      </trkpt>
      <trkpt lat="46.58774" lon="5.70627">
        <ele>454.8</ele>
        <time>2022-02-24T19:50:11Z</time>
      </trkpt>
      <trkpt lat="46.58777" lon="5.7063">
        <ele>455</ele>
        <time>2022-02-24T19:50:12Z</time>
      </trkpt>
      <trkpt lat="46.5878" lon="5.70634">
        <ele>455</ele>
        <time>2022-02-24T19:50:13Z</time>
      </trkpt>
      <trkpt lat="46.58783" lon="5.70638">
        <ele>455</ele>
        <time>2022-02-24T19:50:14Z</time>
      </trkpt>
      <trkpt lat="46.58786" lon="5.70642">
        <ele>455.4</ele>
        <time>2022-02-24T19:50:15Z</time>
      </trkpt>
      <trkpt lat="46.5879" lon="5.70646">
        <ele>455.4</ele>
        <time>2022-02-24T19:50:16Z</time>
      </trkpt>
      <trkpt lat="46.58793" lon="5.7065">
        <ele>455.4</ele>
        <time>2022-02-24T19:50:17Z</time>
      </trkpt>
      <trkpt lat="46.58797" lon="5.70654">
        <ele>455.4</ele>
        <time>2022-02-24T19:50:18Z</time>
      </trkpt>
      <trkpt lat="46.588" lon="5.70658">
        <ele>455.6</ele>
        <time>2022-02-24T19:50:19Z</time>
      </trkpt>
      <trkpt lat="46.58804" lon="5.70661">
        <ele>455.6</ele>
        <time>2022-02-24T19:50:20Z</time>
      </trkpt>
      <trkpt lat="46.58807" lon="5.70665">
        <ele>455.6</ele>
        <time>2022-02-24T19:50:21Z</time>
      </trkpt>
      <trkpt lat="46.58811" lon="5.70668">
        <ele>455.6</ele>
        <time>2022-02-24T19:50:22Z</time>
      </trkpt>
      <trkpt lat="46.58815" lon="5.70672">
        <ele>455.6</ele>
        <time>2022-02-24T19:50:23Z</time>
      </trkpt>
      <trkpt lat="46.5882" lon="5.70675">
        <ele>455.6</ele>
        <time>2022-02-24T19:50:24Z</time>
      </trkpt>
      <trkpt lat="46.58824" lon="5.70678">
        <ele>455.6</ele>
        <time>2022-02-24T19:50:25Z</time>
      </trkpt>
      <trkpt lat="46.58828" lon="5.70682">
        <ele>455.8</ele>
        <time>2022-02-24T19:50:26Z</time>
      </trkpt>
      <trkpt lat="46.58833" lon="5.70685">
        <ele>455.8</ele>
        <time>2022-02-24T19:50:27Z</time>
      </trkpt>
      <trkpt lat="46.58838" lon="5.70688">
        <ele>455.8</ele>
        <time>2022-02-24T19:50:28Z</time>
      </trkpt>
      <trkpt lat="46.58842" lon="5.70692">
        <ele>455.8</ele>
        <time>2022-02-24T19:50:29Z</time>
      </trkpt>
      <trkpt lat="46.58847" lon="5.70696">
        <ele>455.8</ele>
        <time>2022-02-24T19:50:30Z</time>
      </trkpt>
      <trkpt lat="46.58851" lon="5.707">
        <ele>456</ele>
        <time>2022-02-24T19:50:31Z</time>
      </trkpt>
      <trkpt lat="46.58856" lon="5.70703">
        <ele>456</ele>
        <time>2022-02-24T19:50:32Z</time>
      </trkpt>
      <trkpt lat="46.5886" lon="5.70707">
        <ele>456</ele>
        <time>2022-02-24T19:50:33Z</time>
      </trkpt>
      <trkpt lat="46.58865" lon="5.70711">
        <ele>456</ele>
        <time>2022-02-24T19:50:34Z</time>
      </trkpt>
      <trkpt lat="46.58869" lon="5.70715">
        <ele>456.2</ele>
        <time>2022-02-24T19:50:35Z</time>
      </trkpt>
      <trkpt lat="46.58874" lon="5.70719">
        <ele>456.2</ele>
        <time>2022-02-24T19:50:36Z</time>
      </trkpt>
      <trkpt lat="46.58878" lon="5.70724">
        <ele>456.2</ele>
        <time>2022-02-24T19:50:37Z</time>
      </trkpt>
      <trkpt lat="46.58882" lon="5.70729">
        <ele>456.6</ele>
        <time>2022-02-24T19:50:38Z</time>
      </trkpt>
      <trkpt lat="46.58886" lon="5.70735">
        <ele>456.6</ele>
        <time>2022-02-24T19:50:39Z</time>
      </trkpt>
      <trkpt lat="46.5889" lon="5.7074">
        <ele>456.6</ele>
        <time>2022-02-24T19:50:40Z</time>
      </trkpt>
      <trkpt lat="46.58894" lon="5.70745">
        <ele>456.6</ele>
        <time>2022-02-24T19:50:41Z</time>
      </trkpt>
      <trkpt lat="46.58897" lon="5.70751">
        <ele>456.8</ele>
        <time>2022-02-24T19:50:42Z</time>
      </trkpt>
      <trkpt lat="46.58901" lon="5.70757">
        <ele>456.8</ele>
        <time>2022-02-24T19:50:43Z</time>
      </trkpt>
      <trkpt lat="46.58904" lon="5.70762">
        <ele>456.8</ele>
        <time>2022-02-24T19:50:44Z</time>
      </trkpt>
      <trkpt lat="46.58907" lon="5.70768">
        <ele>457</ele>
        <time>2022-02-24T19:50:45Z</time>
      </trkpt>
      <trkpt lat="46.5891" lon="5.70774">
        <ele>457</ele>
        <time>2022-02-24T19:50:46Z</time>
      </trkpt>
      <trkpt lat="46.58913" lon="5.7078">
        <ele>457.2</ele>
        <time>2022-02-24T19:50:47Z</time>
      </trkpt>
      <trkpt lat="46.58916" lon="5.70786">
        <ele>457.2</ele>
        <time>2022-02-24T19:50:48Z</time>
      </trkpt>
      <trkpt lat="46.58919" lon="5.70792">
        <ele>457.2</ele>
        <time>2022-02-24T19:50:49Z</time>
      </trkpt>
      <trkpt lat="46.58922" lon="5.70798">
        <ele>457.6</ele>
        <time>2022-02-24T19:50:50Z</time>
      </trkpt>
      <trkpt lat="46.58924" lon="5.70804">
        <ele>457.6</ele>
        <time>2022-02-24T19:50:51Z</time>
      </trkpt>
      <trkpt lat="46.58927" lon="5.7081">
        <ele>457.8</ele>
        <time>2022-02-24T19:50:52Z</time>
      </trkpt>
      <trkpt lat="46.58929" lon="5.70816">
        <ele>457.8</ele>
        <time>2022-02-24T19:50:53Z</time>
      </trkpt>
      <trkpt lat="46.58931" lon="5.70823">
        <ele>458</ele>
        <time>2022-02-24T19:50:54Z</time>
      </trkpt>
      <trkpt lat="46.58932" lon="5.7083">
        <ele>458</ele>
        <time>2022-02-24T19:50:55Z</time>
      </trkpt>
      <trkpt lat="46.58934" lon="5.70837">
        <ele>458.4</ele>
        <time>2022-02-24T19:50:56Z</time>
      </trkpt>
      <trkpt lat="46.58935" lon="5.70844">
        <ele>458.4</ele>
        <time>2022-02-24T19:50:57Z</time>
      </trkpt>
      <trkpt lat="46.58937" lon="5.70851">
        <ele>458.4</ele>
        <time>2022-02-24T19:50:58Z</time>
      </trkpt>
      <trkpt lat="46.58938" lon="5.70858">
        <ele>458.8</ele>
        <time>2022-02-24T19:50:59Z</time>
      </trkpt>
      <trkpt lat="46.58939" lon="5.70865">
        <ele>458.8</ele>
        <time>2022-02-24T19:51:00Z</time>
      </trkpt>
      <trkpt lat="46.5894" lon="5.70873">
        <ele>459</ele>
        <time>2022-02-24T19:51:01Z</time>
      </trkpt>
      <trkpt lat="46.58941" lon="5.7088">
        <ele>459</ele>
        <time>2022-02-24T19:51:02Z</time>
      </trkpt>
      <trkpt lat="46.58942" lon="5.70888">
        <ele>459</ele>
        <time>2022-02-24T19:51:03Z</time>
      </trkpt>
      <trkpt lat="46.58942" lon="5.70895">
        <ele>459.2</ele>
        <time>2022-02-24T19:51:04Z</time>
      </trkpt>
      <trkpt lat="46.58943" lon="5.70903">
        <ele>459.2</ele>
        <time>2022-02-24T19:51:05Z</time>
      </trkpt>
      <trkpt lat="46.58943" lon="5.7091">
        <ele>459.4</ele>
        <time>2022-02-24T19:51:06Z</time>
      </trkpt>
      <trkpt lat="46.58943" lon="5.70918">
        <ele>459.4</ele>
        <time>2022-02-24T19:51:07Z</time>
      </trkpt>
      <trkpt lat="46.58943" lon="5.70926">
        <ele>459.6</ele>
        <time>2022-02-24T19:51:08Z</time>
      </trkpt>
      <trkpt lat="46.58943" lon="5.70933">
        <ele>459.6</ele>
        <time>2022-02-24T19:51:09Z</time>
      </trkpt>
      <trkpt lat="46.58943" lon="5.70941">
        <ele>460</ele>
        <time>2022-02-24T19:51:10Z</time>
      </trkpt>
      <trkpt lat="46.58943" lon="5.70949">
        <ele>460</ele>
        <time>2022-02-24T19:51:11Z</time>
      </trkpt>
      <trkpt lat="46.58943" lon="5.70957">
        <ele>460.2</ele>
        <time>2022-02-24T19:51:12Z</time>
      </trkpt>
      <trkpt lat="46.58943" lon="5.70965">
        <ele>460.2</ele>
        <time>2022-02-24T19:51:13Z</time>
      </trkpt>
      <trkpt lat="46.58943" lon="5.70973">
        <ele>460.4</ele>
        <time>2022-02-24T19:51:14Z</time>
      </trkpt>
      <trkpt lat="46.58943" lon="5.70981">
        <ele>460.4</ele>
        <time>2022-02-24T19:51:15Z</time>
      </trkpt>
      <trkpt lat="46.58942" lon="5.70989">
        <ele>460.6</ele>
        <time>2022-02-24T19:51:16Z</time>
      </trkpt>
      <trkpt lat="46.58942" lon="5.70997">
        <ele>460.6</ele>
        <time>2022-02-24T19:51:17Z</time>
      </trkpt>
      <trkpt lat="46.58942" lon="5.71005">
        <ele>460.6</ele>
        <time>2022-02-24T19:51:18Z</time>
      </trkpt>
      <trkpt lat="46.58942" lon="5.71014">
        <ele>460.6</ele>
        <time>2022-02-24T19:51:19Z</time>
      </trkpt>
      <trkpt lat="46.58942" lon="5.71022">
        <ele>460.6</ele>
        <time>2022-02-24T19:51:20Z</time>
      </trkpt>
      <trkpt lat="46.58942" lon="5.71031">
        <ele>460.8</ele>
        <time>2022-02-24T19:51:21Z</time>
      </trkpt>
      <trkpt lat="46.58942" lon="5.71039">
        <ele>460.8</ele>
        <time>2022-02-24T19:51:22Z</time>
      </trkpt>
      <trkpt lat="46.58942" lon="5.71048">
        <ele>460.8</ele>
        <time>2022-02-24T19:51:23Z</time>
      </trkpt>
      <trkpt lat="46.58942" lon="5.71057">
        <ele>460.8</ele>
        <time>2022-02-24T19:51:24Z</time>
      </trkpt>
      <trkpt lat="46.58942" lon="5.71066">
        <ele>460.8</ele>
        <time>2022-02-24T19:51:25Z</time>
      </trkpt>
      <trkpt lat="46.58942" lon="5.71074">
        <ele>460.8</ele>
        <time>2022-02-24T19:51:26Z</time>
      </trkpt>
      <trkpt lat="46.58943" lon="5.71083">
        <ele>460.8</ele>
        <time>2022-02-24T19:51:27Z</time>
      </trkpt>
      <trkpt lat="46.58943" lon="5.71092">
        <ele>461.2</ele>
        <time>2022-02-24T19:51:28Z</time>
      </trkpt>
      <trkpt lat="46.58943" lon="5.71101">
        <ele>461.2</ele>
        <time>2022-02-24T19:51:29Z</time>
      </trkpt>
      <trkpt lat="46.58943" lon="5.7111">
        <ele>461.2</ele>
        <time>2022-02-24T19:51:30Z</time>
      </trkpt>
      <trkpt lat="46.58943" lon="5.71118">
        <ele>461.2</ele>
        <time>2022-02-24T19:51:31Z</time>
      </trkpt>
      <trkpt lat="46.58943" lon="5.71127">
        <ele>461.2</ele>
        <time>2022-02-24T19:51:32Z</time>
      </trkpt>
      <trkpt lat="46.58943" lon="5.71136">
        <ele>461.2</ele>
        <time>2022-02-24T19:51:33Z</time>
      </trkpt>
      <trkpt lat="46.58943" lon="5.71145">
        <ele>461.2</ele>
        <time>2022-02-24T19:51:34Z</time>
      </trkpt>
      <trkpt lat="46.58944" lon="5.71154">
        <ele>461.2</ele>
        <time>2022-02-24T19:51:35Z</time>
      </trkpt>
      <trkpt lat="46.58944" lon="5.71162">
        <ele>461.2</ele>
        <time>2022-02-24T19:51:36Z</time>
      </trkpt>
      <trkpt lat="46.58944" lon="5.71171">
        <ele>461.2</ele>
        <time>2022-02-24T19:51:37Z</time>
      </trkpt>
      <trkpt lat="46.58944" lon="5.7118">
        <ele>461.4</ele>
        <time>2022-02-24T19:51:38Z</time>
      </trkpt>
      <trkpt lat="46.58944" lon="5.71188">
        <ele>461.4</ele>
        <time>2022-02-24T19:51:39Z</time>
      </trkpt>
      <trkpt lat="46.58943" lon="5.71197">
        <ele>461.4</ele>
        <time>2022-02-24T19:51:40Z</time>
      </trkpt>
      <trkpt lat="46.58943" lon="5.71206">
        <ele>461.4</ele>
        <time>2022-02-24T19:51:41Z</time>
      </trkpt>
      <trkpt lat="46.58944" lon="5.71214">
        <ele>461.6</ele>
        <time>2022-02-24T19:51:42Z</time>
      </trkpt>
      <trkpt lat="46.58944" lon="5.71223">
        <ele>461.6</ele>
        <time>2022-02-24T19:51:43Z</time>
      </trkpt>
      <trkpt lat="46.58944" lon="5.71232">
        <ele>461.6</ele>
        <time>2022-02-24T19:51:44Z</time>
      </trkpt>
      <trkpt lat="46.58943" lon="5.71241">
        <ele>461.6</ele>
        <time>2022-02-24T19:51:45Z</time>
      </trkpt>
      <trkpt lat="46.58943" lon="5.7125">
        <ele>461.6</ele>
        <time>2022-02-24T19:51:46Z</time>
      </trkpt>
      <trkpt lat="46.58943" lon="5.71259">
        <ele>461.6</ele>
        <time>2022-02-24T19:51:47Z</time>
      </trkpt>
      <trkpt lat="46.58943" lon="5.71268">
        <ele>461.6</ele>
        <time>2022-02-24T19:51:48Z</time>
      </trkpt>
      <trkpt lat="46.58943" lon="5.71277">
        <ele>461.8</ele>
        <time>2022-02-24T19:51:49Z</time>
      </trkpt>
      <trkpt lat="46.58943" lon="5.71287">
        <ele>461.8</ele>
        <time>2022-02-24T19:51:50Z</time>
      </trkpt>
      <trkpt lat="46.58943" lon="5.71296">
        <ele>461.8</ele>
        <time>2022-02-24T19:51:51Z</time>
      </trkpt>
      <trkpt lat="46.58943" lon="5.71305">
        <ele>461.8</ele>
        <time>2022-02-24T19:51:52Z</time>
      </trkpt>
      <trkpt lat="46.58944" lon="5.71314">
        <ele>462</ele>
        <time>2022-02-24T19:51:53Z</time>
      </trkpt>
      <trkpt lat="46.58944" lon="5.71323">
        <ele>462</ele>
        <time>2022-02-24T19:51:54Z</time>
      </trkpt>
      <trkpt lat="46.58944" lon="5.71332">
        <ele>462</ele>
        <time>2022-02-24T19:51:55Z</time>
      </trkpt>
      <trkpt lat="46.58944" lon="5.71342">
        <ele>462</ele>
        <time>2022-02-24T19:51:56Z</time>
      </trkpt>
      <trkpt lat="46.58944" lon="5.71351">
        <ele>462</ele>
        <time>2022-02-24T19:51:57Z</time>
      </trkpt>
      <trkpt lat="46.58944" lon="5.7136">
        <ele>462.2</ele>
        <time>2022-02-24T19:51:58Z</time>
      </trkpt>
      <trkpt lat="46.58944" lon="5.71369">
        <ele>462.2</ele>
        <time>2022-02-24T19:51:59Z</time>
      </trkpt>
      <trkpt lat="46.58944" lon="5.71378">
        <ele>462.2</ele>
        <time>2022-02-24T19:52:00Z</time>
      </trkpt>
      <trkpt lat="46.58944" lon="5.71387">
        <ele>462.6</ele>
        <time>2022-02-24T19:52:01Z</time>
      </trkpt>
      <trkpt lat="46.58944" lon="5.71396">
        <ele>462.6</ele>
        <time>2022-02-24T19:52:02Z</time>
      </trkpt>
      <trkpt lat="46.58944" lon="5.71405">
        <ele>462.6</ele>
        <time>2022-02-24T19:52:03Z</time>
      </trkpt>
      <trkpt lat="46.58944" lon="5.71414">
        <ele>462.8</ele>
        <time>2022-02-24T19:52:04Z</time>
      </trkpt>
      <trkpt lat="46.58944" lon="5.71423">
        <ele>462.8</ele>
        <time>2022-02-24T19:52:05Z</time>
      </trkpt>
      <trkpt lat="46.58944" lon="5.71432">
        <ele>462.8</ele>
        <time>2022-02-24T19:52:06Z</time>
      </trkpt>
      <trkpt lat="46.58944" lon="5.7144">
        <ele>462.8</ele>
        <time>2022-02-24T19:52:07Z</time>
      </trkpt>
      <trkpt lat="46.58944" lon="5.71449">
        <ele>462.8</ele>
        <time>2022-02-24T19:52:08Z</time>
      </trkpt>
      <trkpt lat="46.58944" lon="5.71458">
        <ele>462.8</ele>
        <time>2022-02-24T19:52:09Z</time>
      </trkpt>
      <trkpt lat="46.58944" lon="5.71467">
        <ele>462.8</ele>
        <time>2022-02-24T19:52:10Z</time>
      </trkpt>
      <trkpt lat="46.58944" lon="5.71476">
        <ele>462.8</ele>
        <time>2022-02-24T19:52:11Z</time>
      </trkpt>
      <trkpt lat="46.58944" lon="5.71485">
        <ele>462.8</ele>
        <time>2022-02-24T19:52:12Z</time>
      </trkpt>
      <trkpt lat="46.58944" lon="5.71494">
        <ele>462.8</ele>
        <time>2022-02-24T19:52:13Z</time>
      </trkpt>
      <trkpt lat="46.58944" lon="5.71494">
        <ele>462.8</ele>
        <time>2022-02-24T19:52:14Z</time>
      </trkpt>
      <trkpt lat="46.58944" lon="5.71502">
        <ele>463</ele>
        <time>2022-02-24T19:52:15Z</time>
      </trkpt>
      <trkpt lat="46.58944" lon="5.71511">
        <ele>463</ele>
        <time>2022-02-24T19:52:16Z</time>
      </trkpt>
      <trkpt lat="46.58943" lon="5.7152">
        <ele>463</ele>
        <time>2022-02-24T19:52:17Z</time>
      </trkpt>
      <trkpt lat="46.58943" lon="5.71528">
        <ele>463</ele>
        <time>2022-02-24T19:52:18Z</time>
      </trkpt>
      <trkpt lat="46.58943" lon="5.71537">
        <ele>463</ele>
        <time>2022-02-24T19:52:19Z</time>
      </trkpt>
      <trkpt lat="46.58944" lon="5.71545">
        <ele>463.2</ele>
        <time>2022-02-24T19:52:20Z</time>
      </trkpt>
      <trkpt lat="46.58944" lon="5.71554">
        <ele>463.2</ele>
        <time>2022-02-24T19:52:21Z</time>
      </trkpt>
      <trkpt lat="46.58944" lon="5.71562">
        <ele>463.2</ele>
        <time>2022-02-24T19:52:22Z</time>
      </trkpt>
      <trkpt lat="46.58944" lon="5.71571">
        <ele>463.4</ele>
        <time>2022-02-24T19:52:23Z</time>
      </trkpt>
      <trkpt lat="46.58943" lon="5.71579">
        <ele>463.4</ele>
        <time>2022-02-24T19:52:24Z</time>
      </trkpt>
      <trkpt lat="46.58943" lon="5.71588">
        <ele>463.4</ele>
        <time>2022-02-24T19:52:25Z</time>
      </trkpt>
      <trkpt lat="46.58944" lon="5.71596">
        <ele>463.4</ele>
        <time>2022-02-24T19:52:26Z</time>
      </trkpt>
      <trkpt lat="46.58944" lon="5.71605">
        <ele>463.8</ele>
        <time>2022-02-24T19:52:27Z</time>
      </trkpt>
      <trkpt lat="46.58944" lon="5.71613">
        <ele>463.8</ele>
        <time>2022-02-24T19:52:28Z</time>
      </trkpt>
      <trkpt lat="46.58944" lon="5.71622">
        <ele>463.8</ele>
        <time>2022-02-24T19:52:29Z</time>
      </trkpt>
      <trkpt lat="46.58944" lon="5.7163">
        <ele>463.8</ele>
        <time>2022-02-24T19:52:30Z</time>
      </trkpt>
      <trkpt lat="46.58944" lon="5.71639">
        <ele>463.8</ele>
        <time>2022-02-24T19:52:31Z</time>
      </trkpt>
      <trkpt lat="46.58944" lon="5.71648">
        <ele>463.8</ele>
        <time>2022-02-24T19:52:32Z</time>
      </trkpt>
      <trkpt lat="46.58944" lon="5.71657">
        <ele>463.8</ele>
        <time>2022-02-24T19:52:33Z</time>
      </trkpt>
      <trkpt lat="46.58944" lon="5.71665">
        <ele>463.8</ele>
        <time>2022-02-24T19:52:34Z</time>
      </trkpt>
      <trkpt lat="46.58944" lon="5.71674">
        <ele>463.8</ele>
        <time>2022-02-24T19:52:35Z</time>
      </trkpt>
      <trkpt lat="46.58944" lon="5.71683">
        <ele>464</ele>
        <time>2022-02-24T19:52:36Z</time>
      </trkpt>
      <trkpt lat="46.58944" lon="5.71692">
        <ele>464</ele>
        <time>2022-02-24T19:52:37Z</time>
      </trkpt>
      <trkpt lat="46.58943" lon="5.71701">
        <ele>464</ele>
        <time>2022-02-24T19:52:38Z</time>
      </trkpt>
      <trkpt lat="46.58943" lon="5.7171">
        <ele>464</ele>
        <time>2022-02-24T19:52:39Z</time>
      </trkpt>
      <trkpt lat="46.58943" lon="5.71719">
        <ele>464</ele>
        <time>2022-02-24T19:52:40Z</time>
      </trkpt>
      <trkpt lat="46.58943" lon="5.71729">
        <ele>464.2</ele>
        <time>2022-02-24T19:52:41Z</time>
      </trkpt>
      <trkpt lat="46.58943" lon="5.71738">
        <ele>464.2</ele>
        <time>2022-02-24T19:52:42Z</time>
      </trkpt>
      <trkpt lat="46.58943" lon="5.71747">
        <ele>464.2</ele>
        <time>2022-02-24T19:52:43Z</time>
      </trkpt>
      <trkpt lat="46.58943" lon="5.71757">
        <ele>464.6</ele>
        <time>2022-02-24T19:52:44Z</time>
      </trkpt>
      <trkpt lat="46.58943" lon="5.71766">
        <ele>464.6</ele>
        <time>2022-02-24T19:52:45Z</time>
      </trkpt>
      <trkpt lat="46.58942" lon="5.71776">
        <ele>464.6</ele>
        <time>2022-02-24T19:52:46Z</time>
      </trkpt>
      <trkpt lat="46.58942" lon="5.71785">
        <ele>464.6</ele>
        <time>2022-02-24T19:52:47Z</time>
      </trkpt>
      <trkpt lat="46.58941" lon="5.71795">
        <ele>464.8</ele>
        <time>2022-02-24T19:52:48Z</time>
      </trkpt>
      <trkpt lat="46.58941" lon="5.71804">
        <ele>464.8</ele>
        <time>2022-02-24T19:52:49Z</time>
      </trkpt>
      <trkpt lat="46.58941" lon="5.71814">
        <ele>464.8</ele>
        <time>2022-02-24T19:52:50Z</time>
      </trkpt>
      <trkpt lat="46.5894" lon="5.71824">
        <ele>464.8</ele>
        <time>2022-02-24T19:52:51Z</time>
      </trkpt>
      <trkpt lat="46.5894" lon="5.71834">
        <ele>465</ele>
        <time>2022-02-24T19:52:52Z</time>
      </trkpt>
      <trkpt lat="46.5894" lon="5.71843">
        <ele>465</ele>
        <time>2022-02-24T19:52:53Z</time>
      </trkpt>
      <trkpt lat="46.5894" lon="5.71853">
        <ele>465</ele>
        <time>2022-02-24T19:52:54Z</time>
      </trkpt>
      <trkpt lat="46.5894" lon="5.71863">
        <ele>465</ele>
        <time>2022-02-24T19:52:55Z</time>
      </trkpt>
      <trkpt lat="46.5894" lon="5.71873">
        <ele>465</ele>
        <time>2022-02-24T19:52:56Z</time>
      </trkpt>
      <trkpt lat="46.5894" lon="5.71882">
        <ele>465</ele>
        <time>2022-02-24T19:52:57Z</time>
      </trkpt>
      <trkpt lat="46.5894" lon="5.71892">
        <ele>465</ele>
        <time>2022-02-24T19:52:58Z</time>
      </trkpt>
      <trkpt lat="46.5894" lon="5.71902">
        <ele>465</ele>
        <time>2022-02-24T19:52:59Z</time>
      </trkpt>
      <trkpt lat="46.5894" lon="5.71911">
        <ele>465</ele>
        <time>2022-02-24T19:53:00Z</time>
      </trkpt>
      <trkpt lat="46.5894" lon="5.71921">
        <ele>465</ele>
        <time>2022-02-24T19:53:01Z</time>
      </trkpt>
      <trkpt lat="46.5894" lon="5.71931">
        <ele>465</ele>
        <time>2022-02-24T19:53:02Z</time>
      </trkpt>
      <trkpt lat="46.58939" lon="5.71941">
        <ele>465.2</ele>
        <time>2022-02-24T19:53:03Z</time>
      </trkpt>
      <trkpt lat="46.58939" lon="5.7195">
        <ele>465.2</ele>
        <time>2022-02-24T19:53:04Z</time>
      </trkpt>
      <trkpt lat="46.58939" lon="5.7196">
        <ele>465.2</ele>
        <time>2022-02-24T19:53:05Z</time>
      </trkpt>
      <trkpt lat="46.58939" lon="5.7197">
        <ele>465.2</ele>
        <time>2022-02-24T19:53:06Z</time>
      </trkpt>
      <trkpt lat="46.58939" lon="5.71979">
        <ele>465.2</ele>
        <time>2022-02-24T19:53:07Z</time>
      </trkpt>
      <trkpt lat="46.58939" lon="5.71989">
        <ele>465.2</ele>
        <time>2022-02-24T19:53:08Z</time>
      </trkpt>
      <trkpt lat="46.58939" lon="5.71999">
        <ele>465.4</ele>
        <time>2022-02-24T19:53:09Z</time>
      </trkpt>
      <trkpt lat="46.58939" lon="5.72008">
        <ele>465.4</ele>
        <time>2022-02-24T19:53:10Z</time>
      </trkpt>
      <trkpt lat="46.58939" lon="5.72018">
        <ele>465.4</ele>
        <time>2022-02-24T19:53:11Z</time>
      </trkpt>
      <trkpt lat="46.58939" lon="5.72028">
        <ele>465.4</ele>
        <time>2022-02-24T19:53:12Z</time>
      </trkpt>
      <trkpt lat="46.58939" lon="5.72037">
        <ele>465.4</ele>
        <time>2022-02-24T19:53:13Z</time>
      </trkpt>
      <trkpt lat="46.58939" lon="5.72046">
        <ele>465.6</ele>
        <time>2022-02-24T19:53:14Z</time>
      </trkpt>
      <trkpt lat="46.58939" lon="5.72056">
        <ele>465.6</ele>
        <time>2022-02-24T19:53:15Z</time>
      </trkpt>
      <trkpt lat="46.58939" lon="5.72065">
        <ele>465.6</ele>
        <time>2022-02-24T19:53:16Z</time>
      </trkpt>
      <trkpt lat="46.58939" lon="5.72075">
        <ele>465.6</ele>
        <time>2022-02-24T19:53:17Z</time>
      </trkpt>
      <trkpt lat="46.58939" lon="5.72084">
        <ele>465.6</ele>
        <time>2022-02-24T19:53:18Z</time>
      </trkpt>
      <trkpt lat="46.58939" lon="5.72092">
        <ele>465.6</ele>
        <time>2022-02-24T19:53:19Z</time>
      </trkpt>
      <trkpt lat="46.58939" lon="5.72101">
        <ele>465.6</ele>
        <time>2022-02-24T19:53:20Z</time>
      </trkpt>
      <trkpt lat="46.5894" lon="5.7211">
        <ele>465.6</ele>
        <time>2022-02-24T19:53:21Z</time>
      </trkpt>
      <trkpt lat="46.5894" lon="5.72118">
        <ele>465.6</ele>
        <time>2022-02-24T19:53:22Z</time>
      </trkpt>
      <trkpt lat="46.5894" lon="5.72127">
        <ele>465.6</ele>
        <time>2022-02-24T19:53:23Z</time>
      </trkpt>
      <trkpt lat="46.58941" lon="5.72136">
        <ele>465.6</ele>
        <time>2022-02-24T19:53:24Z</time>
      </trkpt>
      <trkpt lat="46.58941" lon="5.72145">
        <ele>465.6</ele>
        <time>2022-02-24T19:53:25Z</time>
      </trkpt>
      <trkpt lat="46.58941" lon="5.72154">
        <ele>465.6</ele>
        <time>2022-02-24T19:53:26Z</time>
      </trkpt>
      <trkpt lat="46.58942" lon="5.72163">
        <ele>465.8</ele>
        <time>2022-02-24T19:53:27Z</time>
      </trkpt>
      <trkpt lat="46.58942" lon="5.72172">
        <ele>465.8</ele>
        <time>2022-02-24T19:53:28Z</time>
      </trkpt>
      <trkpt lat="46.58942" lon="5.72181">
        <ele>465.8</ele>
        <time>2022-02-24T19:53:29Z</time>
      </trkpt>
      <trkpt lat="46.58942" lon="5.7219">
        <ele>466</ele>
        <time>2022-02-24T19:53:30Z</time>
      </trkpt>
      <trkpt lat="46.58942" lon="5.72199">
        <ele>466</ele>
        <time>2022-02-24T19:53:31Z</time>
      </trkpt>
      <trkpt lat="46.58942" lon="5.72208">
        <ele>466</ele>
        <time>2022-02-24T19:53:32Z</time>
      </trkpt>
      <trkpt lat="46.58942" lon="5.72218">
        <ele>466</ele>
        <time>2022-02-24T19:53:33Z</time>
      </trkpt>
      <trkpt lat="46.58942" lon="5.72227">
        <ele>466</ele>
        <time>2022-02-24T19:53:34Z</time>
      </trkpt>
      <trkpt lat="46.58942" lon="5.72236">
        <ele>466</ele>
        <time>2022-02-24T19:53:35Z</time>
      </trkpt>
      <trkpt lat="46.58942" lon="5.72246">
        <ele>466</ele>
        <time>2022-02-24T19:53:36Z</time>
      </trkpt>
      <trkpt lat="46.58943" lon="5.72255">
        <ele>466</ele>
        <time>2022-02-24T19:53:37Z</time>
      </trkpt>
      <trkpt lat="46.58943" lon="5.72264">
        <ele>466.4</ele>
        <time>2022-02-24T19:53:38Z</time>
      </trkpt>
      <trkpt lat="46.58943" lon="5.72274">
        <ele>466.4</ele>
        <time>2022-02-24T19:53:39Z</time>
      </trkpt>
      <trkpt lat="46.58943" lon="5.72283">
        <ele>466.4</ele>
        <time>2022-02-24T19:53:40Z</time>
      </trkpt>
      <trkpt lat="46.58943" lon="5.72293">
        <ele>466.4</ele>
        <time>2022-02-24T19:53:41Z</time>
      </trkpt>
      <trkpt lat="46.58943" lon="5.72302">
        <ele>466.4</ele>
        <time>2022-02-24T19:53:42Z</time>
      </trkpt>
      <trkpt lat="46.58943" lon="5.72312">
        <ele>466.4</ele>
        <time>2022-02-24T19:53:43Z</time>
      </trkpt>
      <trkpt lat="46.58943" lon="5.72321">
        <ele>466.4</ele>
        <time>2022-02-24T19:53:44Z</time>
      </trkpt>
      <trkpt lat="46.58943" lon="5.72331">
        <ele>466.6</ele>
        <time>2022-02-24T19:53:45Z</time>
      </trkpt>
      <trkpt lat="46.58943" lon="5.7234">
        <ele>466.6</ele>
        <time>2022-02-24T19:53:46Z</time>
      </trkpt>
      <trkpt lat="46.58942" lon="5.7235">
        <ele>466.6</ele>
        <time>2022-02-24T19:53:47Z</time>
      </trkpt>
      <trkpt lat="46.58943" lon="5.72359">
        <ele>466.6</ele>
        <time>2022-02-24T19:53:48Z</time>
      </trkpt>
      <trkpt lat="46.58943" lon="5.72368">
        <ele>466.6</ele>
        <time>2022-02-24T19:53:49Z</time>
      </trkpt>
      <trkpt lat="46.58943" lon="5.72377">
        <ele>466.6</ele>
        <time>2022-02-24T19:53:50Z</time>
      </trkpt>
      <trkpt lat="46.58943" lon="5.72386">
        <ele>466.6</ele>
        <time>2022-02-24T19:53:51Z</time>
      </trkpt>
      <trkpt lat="46.58943" lon="5.72396">
        <ele>466.6</ele>
        <time>2022-02-24T19:53:52Z</time>
      </trkpt>
      <trkpt lat="46.58943" lon="5.72405">
        <ele>466.8</ele>
        <time>2022-02-24T19:53:53Z</time>
      </trkpt>
      <trkpt lat="46.58943" lon="5.72414">
        <ele>466.8</ele>
        <time>2022-02-24T19:53:54Z</time>
      </trkpt>
      <trkpt lat="46.58943" lon="5.72423">
        <ele>466.8</ele>
        <time>2022-02-24T19:53:55Z</time>
      </trkpt>
      <trkpt lat="46.58942" lon="5.72432">
        <ele>466.8</ele>
        <time>2022-02-24T19:53:56Z</time>
      </trkpt>
      <trkpt lat="46.58942" lon="5.72441">
        <ele>467</ele>
        <time>2022-02-24T19:53:57Z</time>
      </trkpt>
      <trkpt lat="46.58942" lon="5.7245">
        <ele>467</ele>
        <time>2022-02-24T19:53:58Z</time>
      </trkpt>
      <trkpt lat="46.58942" lon="5.7246">
        <ele>467</ele>
        <time>2022-02-24T19:53:59Z</time>
      </trkpt>
      <trkpt lat="46.58942" lon="5.72469">
        <ele>467</ele>
        <time>2022-02-24T19:54:00Z</time>
      </trkpt>
      <trkpt lat="46.58942" lon="5.72478">
        <ele>467</ele>
        <time>2022-02-24T19:54:01Z</time>
      </trkpt>
      <trkpt lat="46.58942" lon="5.72487">
        <ele>467</ele>
        <time>2022-02-24T19:54:02Z</time>
      </trkpt>
      <trkpt lat="46.58942" lon="5.72496">
        <ele>467</ele>
        <time>2022-02-24T19:54:03Z</time>
      </trkpt>
      <trkpt lat="46.58942" lon="5.72505">
        <ele>467</ele>
        <time>2022-02-24T19:54:04Z</time>
      </trkpt>
      <trkpt lat="46.58942" lon="5.72513">
        <ele>467.2</ele>
        <time>2022-02-24T19:54:05Z</time>
      </trkpt>
      <trkpt lat="46.58942" lon="5.72522">
        <ele>467.2</ele>
        <time>2022-02-24T19:54:06Z</time>
      </trkpt>
      <trkpt lat="46.58942" lon="5.72531">
        <ele>467.2</ele>
        <time>2022-02-24T19:54:07Z</time>
      </trkpt>
      <trkpt lat="46.58942" lon="5.7254">
        <ele>467.6</ele>
        <time>2022-02-24T19:54:08Z</time>
      </trkpt>
      <trkpt lat="46.58942" lon="5.72549">
        <ele>467.6</ele>
        <time>2022-02-24T19:54:09Z</time>
      </trkpt>
      <trkpt lat="46.58942" lon="5.72558">
        <ele>467.6</ele>
        <time>2022-02-24T19:54:10Z</time>
      </trkpt>
      <trkpt lat="46.58942" lon="5.72567">
        <ele>467.6</ele>
        <time>2022-02-24T19:54:11Z</time>
      </trkpt>
      <trkpt lat="46.58942" lon="5.72576">
        <ele>467.6</ele>
        <time>2022-02-24T19:54:12Z</time>
      </trkpt>
      <trkpt lat="46.58942" lon="5.72584">
        <ele>467.6</ele>
        <time>2022-02-24T19:54:13Z</time>
      </trkpt>
      <trkpt lat="46.58942" lon="5.72593">
        <ele>467.8</ele>
        <time>2022-02-24T19:54:14Z</time>
      </trkpt>
      <trkpt lat="46.58941" lon="5.72602">
        <ele>467.8</ele>
        <time>2022-02-24T19:54:15Z</time>
      </trkpt>
      <trkpt lat="46.58941" lon="5.72611">
        <ele>467.8</ele>
        <time>2022-02-24T19:54:16Z</time>
      </trkpt>
      <trkpt lat="46.58941" lon="5.7262">
        <ele>467.8</ele>
        <time>2022-02-24T19:54:17Z</time>
      </trkpt>
      <trkpt lat="46.58941" lon="5.72629">
        <ele>468</ele>
        <time>2022-02-24T19:54:18Z</time>
      </trkpt>
      <trkpt lat="46.58941" lon="5.72637">
        <ele>468</ele>
        <time>2022-02-24T19:54:19Z</time>
      </trkpt>
      <trkpt lat="46.58941" lon="5.72646">
        <ele>468</ele>
        <time>2022-02-24T19:54:20Z</time>
      </trkpt>
      <trkpt lat="46.58941" lon="5.72655">
        <ele>468.2</ele>
        <time>2022-02-24T19:54:21Z</time>
      </trkpt>
      <trkpt lat="46.58941" lon="5.72663">
        <ele>468.2</ele>
        <time>2022-02-24T19:54:22Z</time>
      </trkpt>
      <trkpt lat="46.58942" lon="5.72672">
        <ele>468.2</ele>
        <time>2022-02-24T19:54:23Z</time>
      </trkpt>
      <trkpt lat="46.58942" lon="5.7268">
        <ele>468.4</ele>
        <time>2022-02-24T19:54:24Z</time>
      </trkpt>
      <trkpt lat="46.58942" lon="5.72689">
        <ele>468.4</ele>
        <time>2022-02-24T19:54:25Z</time>
      </trkpt>
      <trkpt lat="46.58942" lon="5.72697">
        <ele>468.4</ele>
        <time>2022-02-24T19:54:26Z</time>
      </trkpt>
      <trkpt lat="46.58942" lon="5.72705">
        <ele>468.4</ele>
        <time>2022-02-24T19:54:27Z</time>
      </trkpt>
      <trkpt lat="46.58941" lon="5.72714">
        <ele>468.6</ele>
        <time>2022-02-24T19:54:28Z</time>
      </trkpt>
      <trkpt lat="46.58941" lon="5.72722">
        <ele>468.6</ele>
        <time>2022-02-24T19:54:29Z</time>
      </trkpt>
      <trkpt lat="46.58941" lon="5.7273">
        <ele>468.6</ele>
        <time>2022-02-24T19:54:30Z</time>
      </trkpt>
      <trkpt lat="46.58941" lon="5.72739">
        <ele>468.8</ele>
        <time>2022-02-24T19:54:31Z</time>
      </trkpt>
      <trkpt lat="46.58941" lon="5.72747">
        <ele>468.8</ele>
        <time>2022-02-24T19:54:32Z</time>
      </trkpt>
      <trkpt lat="46.58941" lon="5.72755">
        <ele>468.8</ele>
        <time>2022-02-24T19:54:33Z</time>
      </trkpt>
      <trkpt lat="46.58941" lon="5.72764">
        <ele>469</ele>
        <time>2022-02-24T19:54:34Z</time>
      </trkpt>
      <trkpt lat="46.58941" lon="5.72772">
        <ele>469</ele>
        <time>2022-02-24T19:54:35Z</time>
      </trkpt>
      <trkpt lat="46.58941" lon="5.7278">
        <ele>469</ele>
        <time>2022-02-24T19:54:36Z</time>
      </trkpt>
      <trkpt lat="46.58941" lon="5.72788">
        <ele>469</ele>
        <time>2022-02-24T19:54:37Z</time>
      </trkpt>
      <trkpt lat="46.5894" lon="5.72797">
        <ele>469.2</ele>
        <time>2022-02-24T19:54:38Z</time>
      </trkpt>
      <trkpt lat="46.58941" lon="5.72805">
        <ele>469.2</ele>
        <time>2022-02-24T19:54:39Z</time>
      </trkpt>
      <trkpt lat="46.58941" lon="5.72813">
        <ele>469.2</ele>
        <time>2022-02-24T19:54:40Z</time>
      </trkpt>
      <trkpt lat="46.58941" lon="5.72821">
        <ele>469.2</ele>
        <time>2022-02-24T19:54:41Z</time>
      </trkpt>
      <trkpt lat="46.58941" lon="5.72829">
        <ele>469.4</ele>
        <time>2022-02-24T19:54:42Z</time>
      </trkpt>
      <trkpt lat="46.58941" lon="5.72837">
        <ele>469.4</ele>
        <time>2022-02-24T19:54:43Z</time>
      </trkpt>
      <trkpt lat="46.58941" lon="5.72845">
        <ele>469.4</ele>
        <time>2022-02-24T19:54:44Z</time>
      </trkpt>
      <trkpt lat="46.58941" lon="5.72853">
        <ele>469.8</ele>
        <time>2022-02-24T19:54:45Z</time>
      </trkpt>
      <trkpt lat="46.58941" lon="5.72862">
        <ele>469.8</ele>
        <time>2022-02-24T19:54:46Z</time>
      </trkpt>
      <trkpt lat="46.58941" lon="5.7287">
        <ele>469.8</ele>
        <time>2022-02-24T19:54:47Z</time>
      </trkpt>
      <trkpt lat="46.58941" lon="5.72877">
        <ele>470</ele>
        <time>2022-02-24T19:54:48Z</time>
      </trkpt>
      <trkpt lat="46.58941" lon="5.72885">
        <ele>470</ele>
        <time>2022-02-24T19:54:49Z</time>
      </trkpt>
      <trkpt lat="46.58941" lon="5.72893">
        <ele>470.2</ele>
        <time>2022-02-24T19:54:50Z</time>
      </trkpt>
      <trkpt lat="46.58941" lon="5.72901">
        <ele>470.2</ele>
        <time>2022-02-24T19:54:51Z</time>
      </trkpt>
      <trkpt lat="46.58941" lon="5.72909">
        <ele>470.2</ele>
        <time>2022-02-24T19:54:52Z</time>
      </trkpt>
      <trkpt lat="46.58941" lon="5.72917">
        <ele>470.4</ele>
        <time>2022-02-24T19:54:53Z</time>
      </trkpt>
      <trkpt lat="46.58941" lon="5.72925">
        <ele>470.4</ele>
        <time>2022-02-24T19:54:54Z</time>
      </trkpt>
      <trkpt lat="46.5894" lon="5.72933">
        <ele>470.4</ele>
        <time>2022-02-24T19:54:55Z</time>
      </trkpt>
      <trkpt lat="46.5894" lon="5.7294">
        <ele>470.4</ele>
        <time>2022-02-24T19:54:56Z</time>
      </trkpt>
      <trkpt lat="46.5894" lon="5.72948">
        <ele>470.4</ele>
        <time>2022-02-24T19:54:57Z</time>
      </trkpt>
      <trkpt lat="46.5894" lon="5.72956">
        <ele>470.4</ele>
        <time>2022-02-24T19:54:58Z</time>
      </trkpt>
      <trkpt lat="46.5894" lon="5.72964">
        <ele>470.6</ele>
        <time>2022-02-24T19:54:59Z</time>
      </trkpt>
      <trkpt lat="46.5894" lon="5.72972">
        <ele>470.6</ele>
        <time>2022-02-24T19:55:00Z</time>
      </trkpt>
      <trkpt lat="46.5894" lon="5.72979">
        <ele>470.6</ele>
        <time>2022-02-24T19:55:01Z</time>
      </trkpt>
      <trkpt lat="46.58941" lon="5.72987">
        <ele>471</ele>
        <time>2022-02-24T19:55:02Z</time>
      </trkpt>
      <trkpt lat="46.58941" lon="5.72995">
        <ele>471</ele>
        <time>2022-02-24T19:55:03Z</time>
      </trkpt>
      <trkpt lat="46.58941" lon="5.73003">
        <ele>471.2</ele>
        <time>2022-02-24T19:55:04Z</time>
      </trkpt>
      <trkpt lat="46.5894" lon="5.73011">
        <ele>471.4</ele>
        <time>2022-02-24T19:55:05Z</time>
      </trkpt>
      <trkpt lat="46.5894" lon="5.73018">
        <ele>471.6</ele>
        <time>2022-02-24T19:55:06Z</time>
      </trkpt>
      <trkpt lat="46.5894" lon="5.73026">
        <ele>471.6</ele>
        <time>2022-02-24T19:55:07Z</time>
      </trkpt>
      <trkpt lat="46.5894" lon="5.73033">
        <ele>471.8</ele>
        <time>2022-02-24T19:55:08Z</time>
      </trkpt>
      <trkpt lat="46.5894" lon="5.7304">
        <ele>471.8</ele>
        <time>2022-02-24T19:55:09Z</time>
      </trkpt>
      <trkpt lat="46.58941" lon="5.73047">
        <ele>472.2</ele>
        <time>2022-02-24T19:55:10Z</time>
      </trkpt>
      <trkpt lat="46.58941" lon="5.73054">
        <ele>472.2</ele>
        <time>2022-02-24T19:55:11Z</time>
      </trkpt>
      <trkpt lat="46.58941" lon="5.7306">
        <ele>472.4</ele>
        <time>2022-02-24T19:55:12Z</time>
      </trkpt>
      <trkpt lat="46.58941" lon="5.73067">
        <ele>472.4</ele>
        <time>2022-02-24T19:55:13Z</time>
      </trkpt>
      <trkpt lat="46.58941" lon="5.73074">
        <ele>472.8</ele>
        <time>2022-02-24T19:55:14Z</time>
      </trkpt>
      <trkpt lat="46.5894" lon="5.7308">
        <ele>472.8</ele>
        <time>2022-02-24T19:55:15Z</time>
      </trkpt>
      <trkpt lat="46.5894" lon="5.73086">
        <ele>473</ele>
        <time>2022-02-24T19:55:16Z</time>
      </trkpt>
      <trkpt lat="46.5894" lon="5.73092">
        <ele>473</ele>
        <time>2022-02-24T19:55:17Z</time>
      </trkpt>
      <trkpt lat="46.58939" lon="5.73099">
        <ele>473.4</ele>
        <time>2022-02-24T19:55:18Z</time>
      </trkpt>
      <trkpt lat="46.58939" lon="5.73105">
        <ele>473.4</ele>
        <time>2022-02-24T19:55:19Z</time>
      </trkpt>
      <trkpt lat="46.58939" lon="5.7311">
        <ele>473.8</ele>
        <time>2022-02-24T19:55:20Z</time>
      </trkpt>
      <trkpt lat="46.58938" lon="5.73116">
        <ele>473.8</ele>
        <time>2022-02-24T19:55:21Z</time>
      </trkpt>
      <trkpt lat="46.58938" lon="5.73122">
        <ele>474</ele>
        <time>2022-02-24T19:55:22Z</time>
      </trkpt>
      <trkpt lat="46.58937" lon="5.73128">
        <ele>474</ele>
        <time>2022-02-24T19:55:23Z</time>
      </trkpt>
      <trkpt lat="46.58937" lon="5.73134">
        <ele>474.4</ele>
        <time>2022-02-24T19:55:24Z</time>
      </trkpt>
      <trkpt lat="46.58937" lon="5.73139">
        <ele>474.4</ele>
        <time>2022-02-24T19:55:25Z</time>
      </trkpt>
      <trkpt lat="46.58936" lon="5.73144">
        <ele>474.8</ele>
        <time>2022-02-24T19:55:26Z</time>
      </trkpt>
      <trkpt lat="46.58936" lon="5.7315">
        <ele>475</ele>
        <time>2022-02-24T19:55:27Z</time>
      </trkpt>
      <trkpt lat="46.58935" lon="5.73155">
        <ele>475</ele>
        <time>2022-02-24T19:55:28Z</time>
      </trkpt>
      <trkpt lat="46.58935" lon="5.73161">
        <ele>475.4</ele>
        <time>2022-02-24T19:55:29Z</time>
      </trkpt>
      <trkpt lat="46.58934" lon="5.73166">
        <ele>475.4</ele>
        <time>2022-02-24T19:55:30Z</time>
      </trkpt>
      <trkpt lat="46.58933" lon="5.73171">
        <ele>475.6</ele>
        <time>2022-02-24T19:55:31Z</time>
      </trkpt>
      <trkpt lat="46.58932" lon="5.73176">
        <ele>475.6</ele>
        <time>2022-02-24T19:55:32Z</time>
      </trkpt>
      <trkpt lat="46.58931" lon="5.73181">
        <ele>476</ele>
        <time>2022-02-24T19:55:33Z</time>
      </trkpt>
      <trkpt lat="46.58929" lon="5.73186">
        <ele>476.2</ele>
        <time>2022-02-24T19:55:34Z</time>
      </trkpt>
      <trkpt lat="46.58928" lon="5.73191">
        <ele>476.4</ele>
        <time>2022-02-24T19:55:35Z</time>
      </trkpt>
      <trkpt lat="46.58927" lon="5.73196">
        <ele>476.4</ele>
        <time>2022-02-24T19:55:36Z</time>
      </trkpt>
      <trkpt lat="46.58926" lon="5.73201">
        <ele>476.8</ele>
        <time>2022-02-24T19:55:37Z</time>
      </trkpt>
      <trkpt lat="46.58924" lon="5.73206">
        <ele>476.8</ele>
        <time>2022-02-24T19:55:38Z</time>
      </trkpt>
      <trkpt lat="46.58923" lon="5.7321">
        <ele>477.2</ele>
        <time>2022-02-24T19:55:39Z</time>
      </trkpt>
      <trkpt lat="46.58921" lon="5.73215">
        <ele>477.2</ele>
        <time>2022-02-24T19:55:40Z</time>
      </trkpt>
      <trkpt lat="46.5892" lon="5.7322">
        <ele>477.6</ele>
        <time>2022-02-24T19:55:41Z</time>
      </trkpt>
      <trkpt lat="46.58918" lon="5.73225">
        <ele>477.8</ele>
        <time>2022-02-24T19:55:42Z</time>
      </trkpt>
      <trkpt lat="46.58917" lon="5.73229">
        <ele>477.8</ele>
        <time>2022-02-24T19:55:43Z</time>
      </trkpt>
      <trkpt lat="46.58915" lon="5.73234">
        <ele>478</ele>
        <time>2022-02-24T19:55:44Z</time>
      </trkpt>
      <trkpt lat="46.58914" lon="5.73239">
        <ele>478</ele>
        <time>2022-02-24T19:55:45Z</time>
      </trkpt>
      <trkpt lat="46.58912" lon="5.73243">
        <ele>478.4</ele>
        <time>2022-02-24T19:55:46Z</time>
      </trkpt>
      <trkpt lat="46.5891" lon="5.73248">
        <ele>478.6</ele>
        <time>2022-02-24T19:55:47Z</time>
      </trkpt>
      <trkpt lat="46.58908" lon="5.73252">
        <ele>478.6</ele>
        <time>2022-02-24T19:55:48Z</time>
      </trkpt>
      <trkpt lat="46.58907" lon="5.73257">
        <ele>479</ele>
        <time>2022-02-24T19:55:49Z</time>
      </trkpt>
      <trkpt lat="46.58905" lon="5.73261">
        <ele>479</ele>
        <time>2022-02-24T19:55:50Z</time>
      </trkpt>
      <trkpt lat="46.58903" lon="5.73266">
        <ele>479.2</ele>
        <time>2022-02-24T19:55:51Z</time>
      </trkpt>
      <trkpt lat="46.58902" lon="5.7327">
        <ele>479.2</ele>
        <time>2022-02-24T19:55:52Z</time>
      </trkpt>
      <trkpt lat="46.589" lon="5.73274">
        <ele>479.6</ele>
        <time>2022-02-24T19:55:53Z</time>
      </trkpt>
      <trkpt lat="46.58898" lon="5.73278">
        <ele>479.8</ele>
        <time>2022-02-24T19:55:54Z</time>
      </trkpt>
      <trkpt lat="46.58897" lon="5.73283">
        <ele>480.2</ele>
        <time>2022-02-24T19:55:55Z</time>
      </trkpt>
      <trkpt lat="46.58895" lon="5.73287">
        <ele>480.2</ele>
        <time>2022-02-24T19:55:56Z</time>
      </trkpt>
      <trkpt lat="46.58893" lon="5.73291">
        <ele>480.4</ele>
        <time>2022-02-24T19:55:57Z</time>
      </trkpt>
      <trkpt lat="46.58892" lon="5.73295">
        <ele>480.4</ele>
        <time>2022-02-24T19:55:58Z</time>
      </trkpt>
      <trkpt lat="46.5889" lon="5.73299">
        <ele>480.8</ele>
        <time>2022-02-24T19:55:59Z</time>
      </trkpt>
      <trkpt lat="46.58888" lon="5.73303">
        <ele>480.8</ele>
        <time>2022-02-24T19:56:00Z</time>
      </trkpt>
      <trkpt lat="46.58886" lon="5.73308">
        <ele>481</ele>
        <time>2022-02-24T19:56:01Z</time>
      </trkpt>
      <trkpt lat="46.58884" lon="5.73312">
        <ele>481.2</ele>
        <time>2022-02-24T19:56:02Z</time>
      </trkpt>
      <trkpt lat="46.58883" lon="5.73316">
        <ele>481.6</ele>
        <time>2022-02-24T19:56:03Z</time>
      </trkpt>
      <trkpt lat="46.58881" lon="5.73321">
        <ele>481.6</ele>
        <time>2022-02-24T19:56:04Z</time>
      </trkpt>
      <trkpt lat="46.58879" lon="5.73325">
        <ele>481.8</ele>
        <time>2022-02-24T19:56:05Z</time>
      </trkpt>
      <trkpt lat="46.58878" lon="5.73329">
        <ele>482.2</ele>
        <time>2022-02-24T19:56:06Z</time>
      </trkpt>
      <trkpt lat="46.58876" lon="5.73333">
        <ele>482.4</ele>
        <time>2022-02-24T19:56:07Z</time>
      </trkpt>
      <trkpt lat="46.58875" lon="5.73338">
        <ele>482.4</ele>
        <time>2022-02-24T19:56:08Z</time>
      </trkpt>
      <trkpt lat="46.58873" lon="5.73342">
        <ele>483</ele>
        <time>2022-02-24T19:56:09Z</time>
      </trkpt>
      <trkpt lat="46.58871" lon="5.73346">
        <ele>483.2</ele>
        <time>2022-02-24T19:56:10Z</time>
      </trkpt>
      <trkpt lat="46.58869" lon="5.7335">
        <ele>483.4</ele>
        <time>2022-02-24T19:56:11Z</time>
      </trkpt>
      <trkpt lat="46.58867" lon="5.73355">
        <ele>483.4</ele>
        <time>2022-02-24T19:56:12Z</time>
      </trkpt>
      <trkpt lat="46.58866" lon="5.73359">
        <ele>483.6</ele>
        <time>2022-02-24T19:56:13Z</time>
      </trkpt>
      <trkpt lat="46.58864" lon="5.73363">
        <ele>483.6</ele>
        <time>2022-02-24T19:56:14Z</time>
      </trkpt>
      <trkpt lat="46.58862" lon="5.73367">
        <ele>484</ele>
        <time>2022-02-24T19:56:15Z</time>
      </trkpt>
      <trkpt lat="46.5886" lon="5.7337">
        <ele>484.2</ele>
        <time>2022-02-24T19:56:16Z</time>
      </trkpt>
      <trkpt lat="46.58857" lon="5.73374">
        <ele>484.4</ele>
        <time>2022-02-24T19:56:17Z</time>
      </trkpt>
      <trkpt lat="46.58854" lon="5.73376">
        <ele>484.4</ele>
        <time>2022-02-24T19:56:18Z</time>
      </trkpt>
      <trkpt lat="46.58851" lon="5.73379">
        <ele>484.8</ele>
        <time>2022-02-24T19:56:19Z</time>
      </trkpt>
      <trkpt lat="46.58848" lon="5.73381">
        <ele>484.8</ele>
        <time>2022-02-24T19:56:20Z</time>
      </trkpt>
      <trkpt lat="46.58845" lon="5.73384">
        <ele>485</ele>
        <time>2022-02-24T19:56:21Z</time>
      </trkpt>
      <trkpt lat="46.58842" lon="5.73388">
        <ele>485</ele>
        <time>2022-02-24T19:56:22Z</time>
      </trkpt>
      <trkpt lat="46.5884" lon="5.73391">
        <ele>485</ele>
        <time>2022-02-24T19:56:23Z</time>
      </trkpt>
      <trkpt lat="46.58837" lon="5.73395">
        <ele>485</ele>
        <time>2022-02-24T19:56:24Z</time>
      </trkpt>
      <trkpt lat="46.58834" lon="5.73399">
        <ele>485.4</ele>
        <time>2022-02-24T19:56:25Z</time>
      </trkpt>
      <trkpt lat="46.58831" lon="5.73402">
        <ele>485.4</ele>
        <time>2022-02-24T19:56:26Z</time>
      </trkpt>
      <trkpt lat="46.58828" lon="5.73406">
        <ele>485.6</ele>
        <time>2022-02-24T19:56:27Z</time>
      </trkpt>
      <trkpt lat="46.58826" lon="5.73409">
        <ele>485.6</ele>
        <time>2022-02-24T19:56:28Z</time>
      </trkpt>
      <trkpt lat="46.58823" lon="5.73412">
        <ele>486</ele>
        <time>2022-02-24T19:56:29Z</time>
      </trkpt>
      <trkpt lat="46.5882" lon="5.73415">
        <ele>486</ele>
        <time>2022-02-24T19:56:30Z</time>
      </trkpt>
      <trkpt lat="46.58817" lon="5.73417">
        <ele>486.2</ele>
        <time>2022-02-24T19:56:31Z</time>
      </trkpt>
      <trkpt lat="46.58814" lon="5.7342">
        <ele>486.2</ele>
        <time>2022-02-24T19:56:32Z</time>
      </trkpt>
      <trkpt lat="46.58811" lon="5.73423">
        <ele>486.6</ele>
        <time>2022-02-24T19:56:33Z</time>
      </trkpt>
      <trkpt lat="46.58809" lon="5.73426">
        <ele>486.8</ele>
        <time>2022-02-24T19:56:34Z</time>
      </trkpt>
      <trkpt lat="46.58806" lon="5.73429">
        <ele>487</ele>
        <time>2022-02-24T19:56:35Z</time>
      </trkpt>
      <trkpt lat="46.58804" lon="5.73432">
        <ele>487</ele>
        <time>2022-02-24T19:56:36Z</time>
      </trkpt>
      <trkpt lat="46.58801" lon="5.73434">
        <ele>487.2</ele>
        <time>2022-02-24T19:56:37Z</time>
      </trkpt>
      <trkpt lat="46.58799" lon="5.73437">
        <ele>487.2</ele>
        <time>2022-02-24T19:56:38Z</time>
      </trkpt>
      <trkpt lat="46.58796" lon="5.73441">
        <ele>487.6</ele>
        <time>2022-02-24T19:56:39Z</time>
      </trkpt>
      <trkpt lat="46.58794" lon="5.73443">
        <ele>487.6</ele>
        <time>2022-02-24T19:56:40Z</time>
      </trkpt>
      <trkpt lat="46.58791" lon="5.73446">
        <ele>487.8</ele>
        <time>2022-02-24T19:56:41Z</time>
      </trkpt>
      <trkpt lat="46.58789" lon="5.73448">
        <ele>487.8</ele>
        <time>2022-02-24T19:56:42Z</time>
      </trkpt>
      <trkpt lat="46.58786" lon="5.7345">
        <ele>488</ele>
        <time>2022-02-24T19:56:43Z</time>
      </trkpt>
      <trkpt lat="46.58784" lon="5.73453">
        <ele>488</ele>
        <time>2022-02-24T19:56:44Z</time>
      </trkpt>
      <trkpt lat="46.58782" lon="5.73456">
        <ele>488.2</ele>
        <time>2022-02-24T19:56:45Z</time>
      </trkpt>
      <trkpt lat="46.5878" lon="5.73459">
        <ele>488.2</ele>
        <time>2022-02-24T19:56:46Z</time>
      </trkpt>
      <trkpt lat="46.58778" lon="5.73462">
        <ele>488.6</ele>
        <time>2022-02-24T19:56:47Z</time>
      </trkpt>
      <trkpt lat="46.58775" lon="5.73464">
        <ele>488.6</ele>
        <time>2022-02-24T19:56:48Z</time>
      </trkpt>
      <trkpt lat="46.58773" lon="5.73467">
        <ele>489</ele>
        <time>2022-02-24T19:56:49Z</time>
      </trkpt>
      <trkpt lat="46.58771" lon="5.73469">
        <ele>489</ele>
        <time>2022-02-24T19:56:50Z</time>
      </trkpt>
      <trkpt lat="46.58768" lon="5.73471">
        <ele>489.2</ele>
        <time>2022-02-24T19:56:51Z</time>
      </trkpt>
      <trkpt lat="46.58766" lon="5.73474">
        <ele>489.2</ele>
        <time>2022-02-24T19:56:52Z</time>
      </trkpt>
      <trkpt lat="46.58763" lon="5.73477">
        <ele>489.6</ele>
        <time>2022-02-24T19:56:53Z</time>
      </trkpt>
      <trkpt lat="46.58761" lon="5.7348">
        <ele>489.6</ele>
        <time>2022-02-24T19:56:54Z</time>
      </trkpt>
      <trkpt lat="46.58758" lon="5.73483">
        <ele>489.8</ele>
        <time>2022-02-24T19:56:55Z</time>
      </trkpt>
      <trkpt lat="46.58755" lon="5.73485">
        <ele>490</ele>
        <time>2022-02-24T19:56:56Z</time>
      </trkpt>
      <trkpt lat="46.58753" lon="5.73488">
        <ele>490</ele>
        <time>2022-02-24T19:56:57Z</time>
      </trkpt>
      <trkpt lat="46.5875" lon="5.7349">
        <ele>490.4</ele>
        <time>2022-02-24T19:56:58Z</time>
      </trkpt>
      <trkpt lat="46.58747" lon="5.73492">
        <ele>490.4</ele>
        <time>2022-02-24T19:56:59Z</time>
      </trkpt>
      <trkpt lat="46.58745" lon="5.73494">
        <ele>490.8</ele>
        <time>2022-02-24T19:57:00Z</time>
      </trkpt>
      <trkpt lat="46.58742" lon="5.73497">
        <ele>490.8</ele>
        <time>2022-02-24T19:57:01Z</time>
      </trkpt>
      <trkpt lat="46.5874" lon="5.735">
        <ele>491</ele>
        <time>2022-02-24T19:57:02Z</time>
      </trkpt>
      <trkpt lat="46.58737" lon="5.73503">
        <ele>491</ele>
        <time>2022-02-24T19:57:03Z</time>
      </trkpt>
      <trkpt lat="46.58735" lon="5.73507">
        <ele>491.4</ele>
        <time>2022-02-24T19:57:04Z</time>
      </trkpt>
      <trkpt lat="46.58732" lon="5.7351">
        <ele>491.4</ele>
        <time>2022-02-24T19:57:05Z</time>
      </trkpt>
      <trkpt lat="46.5873" lon="5.73512">
        <ele>491.8</ele>
        <time>2022-02-24T19:57:06Z</time>
      </trkpt>
      <trkpt lat="46.58728" lon="5.73515">
        <ele>492</ele>
        <time>2022-02-24T19:57:07Z</time>
      </trkpt>
      <trkpt lat="46.58726" lon="5.73519">
        <ele>492</ele>
        <time>2022-02-24T19:57:08Z</time>
      </trkpt>
      <trkpt lat="46.58724" lon="5.73522">
        <ele>492.4</ele>
        <time>2022-02-24T19:57:09Z</time>
      </trkpt>
      <trkpt lat="46.58722" lon="5.73525">
        <ele>492.4</ele>
        <time>2022-02-24T19:57:10Z</time>
      </trkpt>
      <trkpt lat="46.5872" lon="5.73529">
        <ele>492.6</ele>
        <time>2022-02-24T19:57:11Z</time>
      </trkpt>
      <trkpt lat="46.58718" lon="5.73532">
        <ele>492.6</ele>
        <time>2022-02-24T19:57:12Z</time>
      </trkpt>
      <trkpt lat="46.58716" lon="5.73536">
        <ele>492.8</ele>
        <time>2022-02-24T19:57:13Z</time>
      </trkpt>
      <trkpt lat="46.58715" lon="5.73539">
        <ele>492.8</ele>
        <time>2022-02-24T19:57:14Z</time>
      </trkpt>
      <trkpt lat="46.58713" lon="5.73543">
        <ele>493.2</ele>
        <time>2022-02-24T19:57:15Z</time>
      </trkpt>
      <trkpt lat="46.58712" lon="5.73547">
        <ele>493.4</ele>
        <time>2022-02-24T19:57:16Z</time>
      </trkpt>
      <trkpt lat="46.5871" lon="5.73551">
        <ele>493.6</ele>
        <time>2022-02-24T19:57:17Z</time>
      </trkpt>
      <trkpt lat="46.58709" lon="5.73555">
        <ele>493.8</ele>
        <time>2022-02-24T19:57:18Z</time>
      </trkpt>
      <trkpt lat="46.58707" lon="5.73559">
        <ele>493.8</ele>
        <time>2022-02-24T19:57:19Z</time>
      </trkpt>
      <trkpt lat="46.58706" lon="5.73563">
        <ele>494.2</ele>
        <time>2022-02-24T19:57:20Z</time>
      </trkpt>
      <trkpt lat="46.58705" lon="5.73567">
        <ele>494.2</ele>
        <time>2022-02-24T19:57:21Z</time>
      </trkpt>
      <trkpt lat="46.58705" lon="5.73571">
        <ele>494.4</ele>
        <time>2022-02-24T19:57:22Z</time>
      </trkpt>
      <trkpt lat="46.58705" lon="5.73575">
        <ele>494.6</ele>
        <time>2022-02-24T19:57:23Z</time>
      </trkpt>
      <trkpt lat="46.58705" lon="5.7358">
        <ele>494.6</ele>
        <time>2022-02-24T19:57:24Z</time>
      </trkpt>
      <trkpt lat="46.58705" lon="5.73584">
        <ele>495</ele>
        <time>2022-02-24T19:57:25Z</time>
      </trkpt>
      <trkpt lat="46.58705" lon="5.73589">
        <ele>495</ele>
        <time>2022-02-24T19:57:26Z</time>
      </trkpt>
      <trkpt lat="46.58705" lon="5.73594">
        <ele>495.4</ele>
        <time>2022-02-24T19:57:27Z</time>
      </trkpt>
      <trkpt lat="46.58706" lon="5.73598">
        <ele>495.4</ele>
        <time>2022-02-24T19:57:28Z</time>
      </trkpt>
      <trkpt lat="46.58706" lon="5.73603">
        <ele>495.8</ele>
        <time>2022-02-24T19:57:29Z</time>
      </trkpt>
      <trkpt lat="46.58708" lon="5.73611">
        <ele>495.8</ele>
        <time>2022-02-24T19:57:30Z</time>
      </trkpt>
      <trkpt lat="46.58709" lon="5.73615">
        <ele>496.2</ele>
        <time>2022-02-24T19:57:31Z</time>
      </trkpt>
      <trkpt lat="46.5871" lon="5.73618">
        <ele>496.4</ele>
        <time>2022-02-24T19:57:32Z</time>
      </trkpt>
      <trkpt lat="46.58711" lon="5.73622">
        <ele>496.4</ele>
        <time>2022-02-24T19:57:33Z</time>
      </trkpt>
      <trkpt lat="46.58713" lon="5.73625">
        <ele>496.8</ele>
        <time>2022-02-24T19:57:34Z</time>
      </trkpt>
      <trkpt lat="46.58715" lon="5.73629">
        <ele>496.8</ele>
        <time>2022-02-24T19:57:35Z</time>
      </trkpt>
      <trkpt lat="46.58716" lon="5.73632">
        <ele>497.2</ele>
        <time>2022-02-24T19:57:36Z</time>
      </trkpt>
      <trkpt lat="46.58718" lon="5.73636">
        <ele>497.2</ele>
        <time>2022-02-24T19:57:37Z</time>
      </trkpt>
      <trkpt lat="46.58719" lon="5.73639">
        <ele>497.4</ele>
        <time>2022-02-24T19:57:38Z</time>
      </trkpt>
      <trkpt lat="46.58721" lon="5.73643">
        <ele>497.4</ele>
        <time>2022-02-24T19:57:39Z</time>
      </trkpt>
      <trkpt lat="46.58723" lon="5.73646">
        <ele>497.6</ele>
        <time>2022-02-24T19:57:40Z</time>
      </trkpt>
      <trkpt lat="46.58724" lon="5.73649">
        <ele>497.6</ele>
        <time>2022-02-24T19:57:41Z</time>
      </trkpt>
      <trkpt lat="46.58726" lon="5.73653">
        <ele>498</ele>
        <time>2022-02-24T19:57:42Z</time>
      </trkpt>
      <trkpt lat="46.58727" lon="5.73656">
        <ele>498.2</ele>
        <time>2022-02-24T19:57:43Z</time>
      </trkpt>
      <trkpt lat="46.58729" lon="5.73659">
        <ele>498.2</ele>
        <time>2022-02-24T19:57:44Z</time>
      </trkpt>
      <trkpt lat="46.5873" lon="5.73663">
        <ele>498.2</ele>
        <time>2022-02-24T19:57:45Z</time>
      </trkpt>
      <trkpt lat="46.58732" lon="5.73666">
        <ele>498.4</ele>
        <time>2022-02-24T19:57:46Z</time>
      </trkpt>
      <trkpt lat="46.58733" lon="5.73669">
        <ele>498.4</ele>
        <time>2022-02-24T19:57:47Z</time>
      </trkpt>
      <trkpt lat="46.58735" lon="5.73672">
        <ele>498.6</ele>
        <time>2022-02-24T19:57:48Z</time>
      </trkpt>
      <trkpt lat="46.58736" lon="5.73675">
        <ele>498.6</ele>
        <time>2022-02-24T19:57:49Z</time>
      </trkpt>
      <trkpt lat="46.58738" lon="5.73679">
        <ele>499</ele>
        <time>2022-02-24T19:57:50Z</time>
      </trkpt>
      <trkpt lat="46.5874" lon="5.73682">
        <ele>499</ele>
        <time>2022-02-24T19:57:51Z</time>
      </trkpt>
      <trkpt lat="46.58741" lon="5.73685">
        <ele>499.2</ele>
        <time>2022-02-24T19:57:52Z</time>
      </trkpt>
      <trkpt lat="46.58743" lon="5.73689">
        <ele>499.4</ele>
        <time>2022-02-24T19:57:53Z</time>
      </trkpt>
      <trkpt lat="46.58744" lon="5.73692">
        <ele>499.4</ele>
        <time>2022-02-24T19:57:54Z</time>
      </trkpt>
      <trkpt lat="46.58746" lon="5.73696">
        <ele>499.8</ele>
        <time>2022-02-24T19:57:55Z</time>
      </trkpt>
      <trkpt lat="46.58747" lon="5.737">
        <ele>499.8</ele>
        <time>2022-02-24T19:57:56Z</time>
      </trkpt>
      <trkpt lat="46.58748" lon="5.73703">
        <ele>500</ele>
        <time>2022-02-24T19:57:57Z</time>
      </trkpt>
      <trkpt lat="46.5875" lon="5.73707">
        <ele>500</ele>
        <time>2022-02-24T19:57:58Z</time>
      </trkpt>
      <trkpt lat="46.58751" lon="5.73711">
        <ele>500.4</ele>
        <time>2022-02-24T19:57:59Z</time>
      </trkpt>
      <trkpt lat="46.58752" lon="5.73715">
        <ele>500.4</ele>
        <time>2022-02-24T19:58:00Z</time>
      </trkpt>
      <trkpt lat="46.58752" lon="5.7372">
        <ele>500.8</ele>
        <time>2022-02-24T19:58:01Z</time>
      </trkpt>
      <trkpt lat="46.58752" lon="5.73725">
        <ele>500.8</ele>
        <time>2022-02-24T19:58:02Z</time>
      </trkpt>
      <trkpt lat="46.58752" lon="5.7373">
        <ele>501.2</ele>
        <time>2022-02-24T19:58:03Z</time>
      </trkpt>
      <trkpt lat="46.58751" lon="5.73735">
        <ele>501.4</ele>
        <time>2022-02-24T19:58:04Z</time>
      </trkpt>
      <trkpt lat="46.5875" lon="5.73739">
        <ele>501.6</ele>
        <time>2022-02-24T19:58:05Z</time>
      </trkpt>
      <trkpt lat="46.58748" lon="5.73744">
        <ele>501.6</ele>
        <time>2022-02-24T19:58:06Z</time>
      </trkpt>
      <trkpt lat="46.58747" lon="5.73749">
        <ele>502</ele>
        <time>2022-02-24T19:58:07Z</time>
      </trkpt>
      <trkpt lat="46.58746" lon="5.73753">
        <ele>502.4</ele>
        <time>2022-02-24T19:58:08Z</time>
      </trkpt>
      <trkpt lat="46.58744" lon="5.73757">
        <ele>502.6</ele>
        <time>2022-02-24T19:58:09Z</time>
      </trkpt>
      <trkpt lat="46.58743" lon="5.73762">
        <ele>502.6</ele>
        <time>2022-02-24T19:58:10Z</time>
      </trkpt>
      <trkpt lat="46.58741" lon="5.73766">
        <ele>502.8</ele>
        <time>2022-02-24T19:58:11Z</time>
      </trkpt>
      <trkpt lat="46.5874" lon="5.7377">
        <ele>502.8</ele>
        <time>2022-02-24T19:58:12Z</time>
      </trkpt>
      <trkpt lat="46.58738" lon="5.73774">
        <ele>503.2</ele>
        <time>2022-02-24T19:58:13Z</time>
      </trkpt>
      <trkpt lat="46.58736" lon="5.73778">
        <ele>503.4</ele>
        <time>2022-02-24T19:58:14Z</time>
      </trkpt>
      <trkpt lat="46.58735" lon="5.73783">
        <ele>503.4</ele>
        <time>2022-02-24T19:58:15Z</time>
      </trkpt>
      <trkpt lat="46.58733" lon="5.73787">
        <ele>503.6</ele>
        <time>2022-02-24T19:58:16Z</time>
      </trkpt>
      <trkpt lat="46.58731" lon="5.73791">
        <ele>503.6</ele>
        <time>2022-02-24T19:58:17Z</time>
      </trkpt>
      <trkpt lat="46.58729" lon="5.73794">
        <ele>504</ele>
        <time>2022-02-24T19:58:18Z</time>
      </trkpt>
      <trkpt lat="46.58727" lon="5.73798">
        <ele>504</ele>
        <time>2022-02-24T19:58:19Z</time>
      </trkpt>
      <trkpt lat="46.58726" lon="5.73802">
        <ele>504.2</ele>
        <time>2022-02-24T19:58:20Z</time>
      </trkpt>
      <trkpt lat="46.58724" lon="5.73806">
        <ele>504.2</ele>
        <time>2022-02-24T19:58:21Z</time>
      </trkpt>
      <trkpt lat="46.58722" lon="5.7381">
        <ele>504.6</ele>
        <time>2022-02-24T19:58:22Z</time>
      </trkpt>
      <trkpt lat="46.58721" lon="5.73814">
        <ele>504.6</ele>
        <time>2022-02-24T19:58:23Z</time>
      </trkpt>
      <trkpt lat="46.5872" lon="5.73818">
        <ele>504.8</ele>
        <time>2022-02-24T19:58:24Z</time>
      </trkpt>
      <trkpt lat="46.58718" lon="5.73822">
        <ele>504.8</ele>
        <time>2022-02-24T19:58:25Z</time>
      </trkpt>
      <trkpt lat="46.58716" lon="5.73826">
        <ele>505</ele>
        <time>2022-02-24T19:58:26Z</time>
      </trkpt>
      <trkpt lat="46.58715" lon="5.7383">
        <ele>505.2</ele>
        <time>2022-02-24T19:58:27Z</time>
      </trkpt>
      <trkpt lat="46.58713" lon="5.73834">
        <ele>505.2</ele>
        <time>2022-02-24T19:58:28Z</time>
      </trkpt>
      <trkpt lat="46.58711" lon="5.73838">
        <ele>505.6</ele>
        <time>2022-02-24T19:58:29Z</time>
      </trkpt>
      <trkpt lat="46.5871" lon="5.73842">
        <ele>505.8</ele>
        <time>2022-02-24T19:58:30Z</time>
      </trkpt>
      <trkpt lat="46.58708" lon="5.73846">
        <ele>505.8</ele>
        <time>2022-02-24T19:58:31Z</time>
      </trkpt>
      <trkpt lat="46.58706" lon="5.7385">
        <ele>506.2</ele>
        <time>2022-02-24T19:58:32Z</time>
      </trkpt>
      <trkpt lat="46.58704" lon="5.73854">
        <ele>506.2</ele>
        <time>2022-02-24T19:58:33Z</time>
      </trkpt>
      <trkpt lat="46.58702" lon="5.73858">
        <ele>506.4</ele>
        <time>2022-02-24T19:58:34Z</time>
      </trkpt>
      <trkpt lat="46.587" lon="5.73862">
        <ele>506.4</ele>
        <time>2022-02-24T19:58:35Z</time>
      </trkpt>
      <trkpt lat="46.58698" lon="5.73865">
        <ele>506.6</ele>
        <time>2022-02-24T19:58:36Z</time>
      </trkpt>
      <trkpt lat="46.58696" lon="5.73869">
        <ele>506.6</ele>
        <time>2022-02-24T19:58:37Z</time>
      </trkpt>
      <trkpt lat="46.58694" lon="5.73872">
        <ele>507</ele>
        <time>2022-02-24T19:58:38Z</time>
      </trkpt>
      <trkpt lat="46.58692" lon="5.73876">
        <ele>507</ele>
        <time>2022-02-24T19:58:39Z</time>
      </trkpt>
      <trkpt lat="46.5869" lon="5.7388">
        <ele>507</ele>
        <time>2022-02-24T19:58:40Z</time>
      </trkpt>
      <trkpt lat="46.58688" lon="5.73884">
        <ele>507.2</ele>
        <time>2022-02-24T19:58:41Z</time>
      </trkpt>
      <trkpt lat="46.58686" lon="5.73888">
        <ele>507.2</ele>
        <time>2022-02-24T19:58:42Z</time>
      </trkpt>
      <trkpt lat="46.58684" lon="5.73893">
        <ele>507.2</ele>
        <time>2022-02-24T19:58:43Z</time>
      </trkpt>
      <trkpt lat="46.58682" lon="5.73897">
        <ele>507.4</ele>
        <time>2022-02-24T19:58:44Z</time>
      </trkpt>
      <trkpt lat="46.58679" lon="5.73902">
        <ele>507.4</ele>
        <time>2022-02-24T19:58:45Z</time>
      </trkpt>
      <trkpt lat="46.58677" lon="5.73906">
        <ele>507.6</ele>
        <time>2022-02-24T19:58:46Z</time>
      </trkpt>
      <trkpt lat="46.58674" lon="5.7391">
        <ele>507.6</ele>
        <time>2022-02-24T19:58:47Z</time>
      </trkpt>
      <trkpt lat="46.58672" lon="5.73915">
        <ele>507.6</ele>
        <time>2022-02-24T19:58:48Z</time>
      </trkpt>
      <trkpt lat="46.5867" lon="5.73919">
        <ele>507.8</ele>
        <time>2022-02-24T19:58:49Z</time>
      </trkpt>
      <trkpt lat="46.58667" lon="5.73923">
        <ele>507.8</ele>
        <time>2022-02-24T19:58:50Z</time>
      </trkpt>
      <trkpt lat="46.58665" lon="5.73928">
        <ele>507.8</ele>
        <time>2022-02-24T19:58:51Z</time>
      </trkpt>
      <trkpt lat="46.58662" lon="5.73932">
        <ele>507.8</ele>
        <time>2022-02-24T19:58:52Z</time>
      </trkpt>
      <trkpt lat="46.5866" lon="5.73936">
        <ele>508</ele>
        <time>2022-02-24T19:58:53Z</time>
      </trkpt>
      <trkpt lat="46.58657" lon="5.7394">
        <ele>508</ele>
        <time>2022-02-24T19:58:54Z</time>
      </trkpt>
      <trkpt lat="46.58654" lon="5.73945">
        <ele>508</ele>
        <time>2022-02-24T19:58:55Z</time>
      </trkpt>
      <trkpt lat="46.58652" lon="5.73949">
        <ele>508</ele>
        <time>2022-02-24T19:58:56Z</time>
      </trkpt>
      <trkpt lat="46.5865" lon="5.73954">
        <ele>508</ele>
        <time>2022-02-24T19:58:57Z</time>
      </trkpt>
      <trkpt lat="46.58647" lon="5.73958">
        <ele>508</ele>
        <time>2022-02-24T19:58:58Z</time>
      </trkpt>
      <trkpt lat="46.58645" lon="5.73962">
        <ele>508.4</ele>
        <time>2022-02-24T19:58:59Z</time>
      </trkpt>
      <trkpt lat="46.58642" lon="5.73966">
        <ele>508.4</ele>
        <time>2022-02-24T19:59:00Z</time>
      </trkpt>
      <trkpt lat="46.58639" lon="5.7397">
        <ele>508.4</ele>
        <time>2022-02-24T19:59:01Z</time>
      </trkpt>
      <trkpt lat="46.58636" lon="5.73974">
        <ele>508.4</ele>
        <time>2022-02-24T19:59:02Z</time>
      </trkpt>
      <trkpt lat="46.58634" lon="5.73979">
        <ele>508.4</ele>
        <time>2022-02-24T19:59:03Z</time>
      </trkpt>
      <trkpt lat="46.58631" lon="5.73983">
        <ele>508.6</ele>
        <time>2022-02-24T19:59:04Z</time>
      </trkpt>
      <trkpt lat="46.58629" lon="5.73987">
        <ele>508.6</ele>
        <time>2022-02-24T19:59:05Z</time>
      </trkpt>
      <trkpt lat="46.58626" lon="5.73991">
        <ele>508.6</ele>
        <time>2022-02-24T19:59:06Z</time>
      </trkpt>
      <trkpt lat="46.58623" lon="5.73994">
        <ele>508.6</ele>
        <time>2022-02-24T19:59:07Z</time>
      </trkpt>
      <trkpt lat="46.58619" lon="5.73997">
        <ele>508.6</ele>
        <time>2022-02-24T19:59:08Z</time>
      </trkpt>
      <trkpt lat="46.58616" lon="5.74">
        <ele>508.6</ele>
        <time>2022-02-24T19:59:09Z</time>
      </trkpt>
      <trkpt lat="46.58613" lon="5.74004">
        <ele>508.6</ele>
        <time>2022-02-24T19:59:10Z</time>
      </trkpt>
      <trkpt lat="46.58609" lon="5.74009">
        <ele>508.6</ele>
        <time>2022-02-24T19:59:11Z</time>
      </trkpt>
      <trkpt lat="46.58607" lon="5.74014">
        <ele>508.4</ele>
        <time>2022-02-24T19:59:12Z</time>
      </trkpt>
      <trkpt lat="46.58605" lon="5.74019">
        <ele>508.4</ele>
        <time>2022-02-24T19:59:13Z</time>
      </trkpt>
      <trkpt lat="46.58602" lon="5.74024">
        <ele>508.4</ele>
        <time>2022-02-24T19:59:14Z</time>
      </trkpt>
      <trkpt lat="46.586" lon="5.74029">
        <ele>508.4</ele>
        <time>2022-02-24T19:59:15Z</time>
      </trkpt>
      <trkpt lat="46.58597" lon="5.74034">
        <ele>508.4</ele>
        <time>2022-02-24T19:59:16Z</time>
      </trkpt>
      <trkpt lat="46.58594" lon="5.74039">
        <ele>508.4</ele>
        <time>2022-02-24T19:59:17Z</time>
      </trkpt>
      <trkpt lat="46.58591" lon="5.74043">
        <ele>508.8</ele>
        <time>2022-02-24T19:59:18Z</time>
      </trkpt>
      <trkpt lat="46.58589" lon="5.74048">
        <ele>508.8</ele>
        <time>2022-02-24T19:59:19Z</time>
      </trkpt>
      <trkpt lat="46.58586" lon="5.74052">
        <ele>508.8</ele>
        <time>2022-02-24T19:59:20Z</time>
      </trkpt>
      <trkpt lat="46.58584" lon="5.74056">
        <ele>509</ele>
        <time>2022-02-24T19:59:21Z</time>
      </trkpt>
      <trkpt lat="46.58582" lon="5.7406">
        <ele>509</ele>
        <time>2022-02-24T19:59:22Z</time>
      </trkpt>
      <trkpt lat="46.5858" lon="5.74064">
        <ele>509.2</ele>
        <time>2022-02-24T19:59:23Z</time>
      </trkpt>
      <trkpt lat="46.58578" lon="5.74067">
        <ele>509.6</ele>
        <time>2022-02-24T19:59:24Z</time>
      </trkpt>
      <trkpt lat="46.58576" lon="5.74071">
        <ele>509.6</ele>
        <time>2022-02-24T19:59:25Z</time>
      </trkpt>
      <trkpt lat="46.58574" lon="5.74075">
        <ele>510</ele>
        <time>2022-02-24T19:59:26Z</time>
      </trkpt>
      <trkpt lat="46.58572" lon="5.74078">
        <ele>510.2</ele>
        <time>2022-02-24T19:59:27Z</time>
      </trkpt>
      <trkpt lat="46.5857" lon="5.74082">
        <ele>510.4</ele>
        <time>2022-02-24T19:59:28Z</time>
      </trkpt>
      <trkpt lat="46.58568" lon="5.74085">
        <ele>510.4</ele>
        <time>2022-02-24T19:59:29Z</time>
      </trkpt>
      <trkpt lat="46.58566" lon="5.74089">
        <ele>510.8</ele>
        <time>2022-02-24T19:59:30Z</time>
      </trkpt>
      <trkpt lat="46.58564" lon="5.74092">
        <ele>510.8</ele>
        <time>2022-02-24T19:59:31Z</time>
      </trkpt>
      <trkpt lat="46.58561" lon="5.74096">
        <ele>511.2</ele>
        <time>2022-02-24T19:59:32Z</time>
      </trkpt>
      <trkpt lat="46.58559" lon="5.741">
        <ele>511.2</ele>
        <time>2022-02-24T19:59:33Z</time>
      </trkpt>
      <trkpt lat="46.58557" lon="5.74103">
        <ele>511.4</ele>
        <time>2022-02-24T19:59:34Z</time>
      </trkpt>
      <trkpt lat="46.58556" lon="5.74107">
        <ele>511.4</ele>
        <time>2022-02-24T19:59:35Z</time>
      </trkpt>
      <trkpt lat="46.58554" lon="5.74111">
        <ele>511.6</ele>
        <time>2022-02-24T19:59:36Z</time>
      </trkpt>
      <trkpt lat="46.58552" lon="5.74114">
        <ele>511.6</ele>
        <time>2022-02-24T19:59:37Z</time>
      </trkpt>
      <trkpt lat="46.58551" lon="5.74118">
        <ele>512</ele>
        <time>2022-02-24T19:59:38Z</time>
      </trkpt>
      <trkpt lat="46.58549" lon="5.74122">
        <ele>512</ele>
        <time>2022-02-24T19:59:39Z</time>
      </trkpt>
      <trkpt lat="46.58547" lon="5.74125">
        <ele>512</ele>
        <time>2022-02-24T19:59:40Z</time>
      </trkpt>
      <trkpt lat="46.58545" lon="5.74129">
        <ele>512</ele>
        <time>2022-02-24T19:59:41Z</time>
      </trkpt>
      <trkpt lat="46.58544" lon="5.74133">
        <ele>512.4</ele>
        <time>2022-02-24T19:59:42Z</time>
      </trkpt>
      <trkpt lat="46.58542" lon="5.74137">
        <ele>512.4</ele>
        <time>2022-02-24T19:59:43Z</time>
      </trkpt>
      <trkpt lat="46.5854" lon="5.74141">
        <ele>512.6</ele>
        <time>2022-02-24T19:59:44Z</time>
      </trkpt>
      <trkpt lat="46.58538" lon="5.74145">
        <ele>512.6</ele>
        <time>2022-02-24T19:59:45Z</time>
      </trkpt>
      <trkpt lat="46.58536" lon="5.74149">
        <ele>512.6</ele>
        <time>2022-02-24T19:59:46Z</time>
      </trkpt>
      <trkpt lat="46.58534" lon="5.74153">
        <ele>512.6</ele>
        <time>2022-02-24T19:59:47Z</time>
      </trkpt>
      <trkpt lat="46.58531" lon="5.74156">
        <ele>513</ele>
        <time>2022-02-24T19:59:48Z</time>
      </trkpt>
    </trkseg>
  </trk>
</gpx>